﻿<?xml version="1.0" encoding="utf-8"?><gpx version="1.1" creator="izvne.com" xmlns="http://www.topografix.com/GPX/1/1"><trk><name>israel-overview</name><trkseg><trkpt lat="31.25714111" lon="34.79820633"><ele>287.5</ele><time>2013-11-19T07:34:04.0000000+00:00</time></trkpt><trkpt lat="31.25716209" lon="34.79819107"><ele>288.8</ele><time>2013-11-19T07:34:09.0000000+00:00</time></trkpt><trkpt lat="31.25721169" lon="34.79815292"><ele>280.8</ele><time>2013-11-19T07:34:14.0000000+00:00</time></trkpt><trkpt lat="31.25722694" lon="34.79811859"><ele>283.3</ele><time>2013-11-19T07:34:19.0000000+00:00</time></trkpt><trkpt lat="31.25722504" lon="34.79810333"><ele>283.8</ele><time>2013-11-19T07:34:24.0000000+00:00</time></trkpt><trkpt lat="31.25723076" lon="34.79809952"><ele>284.0</ele><time>2013-11-19T07:34:29.0000000+00:00</time></trkpt><trkpt lat="31.2572422" lon="34.79808426"><ele>284.0</ele><time>2013-11-19T07:34:34.0000000+00:00</time></trkpt><trkpt lat="31.25725174" lon="34.79807663"><ele>283.3</ele><time>2013-11-19T07:34:39.0000000+00:00</time></trkpt><trkpt lat="31.25724983" lon="34.79807663"><ele>283.2</ele><time>2013-11-19T07:34:44.0000000+00:00</time></trkpt><trkpt lat="31.25725174" lon="34.79807663"><ele>283.2</ele><time>2013-11-19T07:34:49.0000000+00:00</time></trkpt><trkpt lat="31.25724983" lon="34.79807663"><ele>283.2</ele><time>2013-11-19T07:34:54.0000000+00:00</time></trkpt><trkpt lat="31.25725174" lon="34.79807663"><ele>283.2</ele><time>2013-11-19T07:34:59.0000000+00:00</time></trkpt><trkpt lat="31.25724793" lon="34.79807663"><ele>283.4</ele><time>2013-11-19T07:35:04.0000000+00:00</time></trkpt><trkpt lat="31.25724602" lon="34.79807663"><ele>283.4</ele><time>2013-11-19T07:35:09.0000000+00:00</time></trkpt><trkpt lat="31.25724602" lon="34.79807663"><ele>283.3</ele><time>2013-11-19T07:35:14.0000000+00:00</time></trkpt><trkpt lat="31.25724602" lon="34.79807663"><ele>283.3</ele><time>2013-11-19T07:35:19.0000000+00:00</time></trkpt><trkpt lat="31.25724793" lon="34.79807663"><ele>283.3</ele><time>2013-11-19T07:35:24.0000000+00:00</time></trkpt><trkpt lat="31.25725555" lon="34.79807282"><ele>283.3</ele><time>2013-11-19T07:35:29.0000000+00:00</time></trkpt><trkpt lat="31.25725937" lon="34.798069"><ele>283.3</ele><time>2013-11-19T07:35:34.0000000+00:00</time></trkpt><trkpt lat="31.25725937" lon="34.798069"><ele>283.3</ele><time>2013-11-19T07:35:39.0000000+00:00</time></trkpt><trkpt lat="31.25726128" lon="34.798069"><ele>283.4</ele><time>2013-11-19T07:35:44.0000000+00:00</time></trkpt><trkpt lat="31.25725937" lon="34.798069"><ele>283.4</ele><time>2013-11-19T07:35:49.0000000+00:00</time></trkpt><trkpt lat="31.25709152" lon="34.79809189"><ele>283.3</ele><time>2013-11-19T07:35:54.0000000+00:00</time></trkpt><trkpt lat="31.25685501" lon="34.79812622"><ele>283.9</ele><time>2013-11-19T07:35:59.0000000+00:00</time></trkpt><trkpt lat="31.25658417" lon="34.79817581"><ele>284.1</ele><time>2013-11-19T07:36:04.0000000+00:00</time></trkpt><trkpt lat="31.25630951" lon="34.79822159"><ele>283.2</ele><time>2013-11-19T07:36:09.0000000+00:00</time></trkpt><trkpt lat="31.2560463" lon="34.79827499"><ele>282.4</ele><time>2013-11-19T07:36:14.0000000+00:00</time></trkpt><trkpt lat="31.25580406" lon="34.79833603"><ele>282.7</ele><time>2013-11-19T07:36:19.0000000+00:00</time></trkpt><trkpt lat="31.25562668" lon="34.79836655"><ele>282.1</ele><time>2013-11-19T07:36:24.0000000+00:00</time></trkpt><trkpt lat="31.2553997" lon="34.79841232"><ele>281.2</ele><time>2013-11-19T07:36:29.0000000+00:00</time></trkpt><trkpt lat="31.25514793" lon="34.79845429"><ele>280.8</ele><time>2013-11-19T07:36:34.0000000+00:00</time></trkpt><trkpt lat="31.25489616" lon="34.79852676"><ele>281.8</ele><time>2013-11-19T07:36:39.0000000+00:00</time></trkpt><trkpt lat="31.25464821" lon="34.79857636"><ele>282.0</ele><time>2013-11-19T07:36:44.0000000+00:00</time></trkpt><trkpt lat="31.25437737" lon="34.7986145"><ele>282.8</ele><time>2013-11-19T07:36:49.0000000+00:00</time></trkpt><trkpt lat="31.25411797" lon="34.79865646"><ele>283.4</ele><time>2013-11-19T07:36:54.0000000+00:00</time></trkpt><trkpt lat="31.25385475" lon="34.79867172"><ele>282.8</ele><time>2013-11-19T07:36:59.0000000+00:00</time></trkpt><trkpt lat="31.25359345" lon="34.79866791"><ele>282.9</ele><time>2013-11-19T07:37:04.0000000+00:00</time></trkpt><trkpt lat="31.25331497" lon="34.79864502"><ele>283.8</ele><time>2013-11-19T07:37:09.0000000+00:00</time></trkpt><trkpt lat="31.25303078" lon="34.79860306"><ele>283.1</ele><time>2013-11-19T07:37:14.0000000+00:00</time></trkpt><trkpt lat="31.25277901" lon="34.79854965"><ele>283.3</ele><time>2013-11-19T07:37:19.0000000+00:00</time></trkpt><trkpt lat="31.2525425" lon="34.7984581"><ele>285.2</ele><time>2013-11-19T07:37:24.0000000+00:00</time></trkpt><trkpt lat="31.25232315" lon="34.79831696"><ele>285.7</ele><time>2013-11-19T07:37:29.0000000+00:00</time></trkpt><trkpt lat="31.25209427" lon="34.79816818"><ele>285.5</ele><time>2013-11-19T07:37:34.0000000+00:00</time></trkpt><trkpt lat="31.25184822" lon="34.79803467"><ele>283.6</ele><time>2013-11-19T07:37:39.0000000+00:00</time></trkpt><trkpt lat="31.2515831" lon="34.7979393"><ele>282.9</ele><time>2013-11-19T07:37:44.0000000+00:00</time></trkpt><trkpt lat="31.25132179" lon="34.79789352"><ele>281.5</ele><time>2013-11-19T07:37:49.0000000+00:00</time></trkpt><trkpt lat="31.25113678" lon="34.79788971"><ele>281.2</ele><time>2013-11-19T07:37:54.0000000+00:00</time></trkpt><trkpt lat="31.2510891" lon="34.79797745"><ele>280.8</ele><time>2013-11-19T07:37:59.0000000+00:00</time></trkpt><trkpt lat="31.25108719" lon="34.79802322"><ele>279.1</ele><time>2013-11-19T07:38:04.0000000+00:00</time></trkpt><trkpt lat="31.25108528" lon="34.79802322"><ele>279.0</ele><time>2013-11-19T07:38:09.0000000+00:00</time></trkpt><trkpt lat="31.25108528" lon="34.79801941"><ele>278.8</ele><time>2013-11-19T07:38:14.0000000+00:00</time></trkpt><trkpt lat="31.25108719" lon="34.79801559"><ele>278.7</ele><time>2013-11-19T07:38:19.0000000+00:00</time></trkpt><trkpt lat="31.25108719" lon="34.79801559"><ele>278.7</ele><time>2013-11-19T07:38:24.0000000+00:00</time></trkpt><trkpt lat="31.25109291" lon="34.79801178"><ele>278.7</ele><time>2013-11-19T07:38:29.0000000+00:00</time></trkpt><trkpt lat="31.25109482" lon="34.79801178"><ele>278.6</ele><time>2013-11-19T07:38:34.0000000+00:00</time></trkpt><trkpt lat="31.25109863" lon="34.79801178"><ele>278.6</ele><time>2013-11-19T07:38:39.0000000+00:00</time></trkpt><trkpt lat="31.25110054" lon="34.79800797"><ele>278.6</ele><time>2013-11-19T07:38:44.0000000+00:00</time></trkpt><trkpt lat="31.25110054" lon="34.79803085"><ele>278.6</ele><time>2013-11-19T07:38:49.0000000+00:00</time></trkpt><trkpt lat="31.25107384" lon="34.79816055"><ele>278.7</ele><time>2013-11-19T07:38:54.0000000+00:00</time></trkpt><trkpt lat="31.25110054" lon="34.79825592"><ele>278.8</ele><time>2013-11-19T07:38:59.0000000+00:00</time></trkpt><trkpt lat="31.25102234" lon="34.79838181"><ele>278.2</ele><time>2013-11-19T07:39:04.0000000+00:00</time></trkpt><trkpt lat="31.2509346" lon="34.79860306"><ele>277.3</ele><time>2013-11-19T07:39:09.0000000+00:00</time></trkpt><trkpt lat="31.25089455" lon="34.79885864"><ele>275.4</ele><time>2013-11-19T07:39:14.0000000+00:00</time></trkpt><trkpt lat="31.25086594" lon="34.79909134"><ele>274.6</ele><time>2013-11-19T07:39:19.0000000+00:00</time></trkpt><trkpt lat="31.25082779" lon="34.79932785"><ele>273.9</ele><time>2013-11-19T07:39:24.0000000+00:00</time></trkpt><trkpt lat="31.25078392" lon="34.79955292"><ele>271.9</ele><time>2013-11-19T07:39:29.0000000+00:00</time></trkpt><trkpt lat="31.25073052" lon="34.79977036"><ele>271.5</ele><time>2013-11-19T07:39:34.0000000+00:00</time></trkpt><trkpt lat="31.25065422" lon="34.79998779"><ele>271.0</ele><time>2013-11-19T07:39:39.0000000+00:00</time></trkpt><trkpt lat="31.25056076" lon="34.80020523"><ele>269.3</ele><time>2013-11-19T07:39:44.0000000+00:00</time></trkpt><trkpt lat="31.25045776" lon="34.80041504"><ele>268.1</ele><time>2013-11-19T07:39:49.0000000+00:00</time></trkpt><trkpt lat="31.25040245" lon="34.80057526"><ele>269.1</ele><time>2013-11-19T07:39:54.0000000+00:00</time></trkpt><trkpt lat="31.25037766" lon="34.80064392"><ele>274.0</ele><time>2013-11-19T07:39:59.0000000+00:00</time></trkpt><trkpt lat="31.25037575" lon="34.80065155"><ele>274.5</ele><time>2013-11-19T07:40:04.0000000+00:00</time></trkpt><trkpt lat="31.25029755" lon="34.80068207"><ele>275.6</ele><time>2013-11-19T07:40:09.0000000+00:00</time></trkpt><trkpt lat="31.25019264" lon="34.80073166"><ele>274.5</ele><time>2013-11-19T07:40:14.0000000+00:00</time></trkpt><trkpt lat="31.250103" lon="34.80083847"><ele>275.2</ele><time>2013-11-19T07:40:19.0000000+00:00</time></trkpt><trkpt lat="31.25002098" lon="34.80093384"><ele>275.0</ele><time>2013-11-19T07:40:24.0000000+00:00</time></trkpt><trkpt lat="31.24986076" lon="34.80100632"><ele>274.9</ele><time>2013-11-19T07:40:29.0000000+00:00</time></trkpt><trkpt lat="31.2496891" lon="34.80111694"><ele>275.7</ele><time>2013-11-19T07:40:34.0000000+00:00</time></trkpt><trkpt lat="31.24953651" lon="34.8012085"><ele>275.4</ele><time>2013-11-19T07:40:39.0000000+00:00</time></trkpt><trkpt lat="31.24937058" lon="34.80132675"><ele>275.9</ele><time>2013-11-19T07:40:44.0000000+00:00</time></trkpt><trkpt lat="31.24921417" lon="34.80149078"><ele>278.3</ele><time>2013-11-19T07:40:49.0000000+00:00</time></trkpt><trkpt lat="31.24905396" lon="34.80162811"><ele>279.4</ele><time>2013-11-19T07:40:54.0000000+00:00</time></trkpt><trkpt lat="31.24899483" lon="34.80169296"><ele>283.0</ele><time>2013-11-19T07:40:59.0000000+00:00</time></trkpt><trkpt lat="31.24899864" lon="34.80171585"><ele>288.0</ele><time>2013-11-19T07:41:04.0000000+00:00</time></trkpt><trkpt lat="31.24895668" lon="34.80176926"><ele>288.1</ele><time>2013-11-19T07:41:09.0000000+00:00</time></trkpt><trkpt lat="31.24879456" lon="34.80185318"><ele>287.2</ele><time>2013-11-19T07:41:14.0000000+00:00</time></trkpt><trkpt lat="31.24864388" lon="34.80205917"><ele>286.8</ele><time>2013-11-19T07:41:19.0000000+00:00</time></trkpt><trkpt lat="31.2485199" lon="34.80227661"><ele>286.6</ele><time>2013-11-19T07:41:24.0000000+00:00</time></trkpt><trkpt lat="31.24839401" lon="34.80245209"><ele>286.5</ele><time>2013-11-19T07:41:29.0000000+00:00</time></trkpt><trkpt lat="31.24831581" lon="34.80256653"><ele>287.5</ele><time>2013-11-19T07:41:34.0000000+00:00</time></trkpt><trkpt lat="31.24828148" lon="34.80261612"><ele>287.8</ele><time>2013-11-19T07:41:39.0000000+00:00</time></trkpt><trkpt lat="31.24821091" lon="34.80268478"><ele>292.4</ele><time>2013-11-19T07:41:44.0000000+00:00</time></trkpt><trkpt lat="31.24813461" lon="34.80273438"><ele>296.1</ele><time>2013-11-19T07:41:49.0000000+00:00</time></trkpt><trkpt lat="31.24802208" lon="34.80280685"><ele>295.9</ele><time>2013-11-19T07:41:54.0000000+00:00</time></trkpt><trkpt lat="31.24789619" lon="34.80295563"><ele>295.3</ele><time>2013-11-19T07:41:59.0000000+00:00</time></trkpt><trkpt lat="31.2477684" lon="34.80314636"><ele>290.9</ele><time>2013-11-19T07:42:04.0000000+00:00</time></trkpt><trkpt lat="31.24763107" lon="34.80329514"><ele>287.2</ele><time>2013-11-19T07:42:09.0000000+00:00</time></trkpt><trkpt lat="31.24754143" lon="34.80332184"><ele>285.4</ele><time>2013-11-19T07:42:14.0000000+00:00</time></trkpt><trkpt lat="31.24749184" lon="34.80336762"><ele>284.5</ele><time>2013-11-19T07:42:19.0000000+00:00</time></trkpt><trkpt lat="31.24749374" lon="34.80337906"><ele>284.5</ele><time>2013-11-19T07:42:24.0000000+00:00</time></trkpt><trkpt lat="31.24746895" lon="34.80335999"><ele>282.8</ele><time>2013-11-19T07:42:29.0000000+00:00</time></trkpt><trkpt lat="31.24739456" lon="34.80335236"><ele>281.3</ele><time>2013-11-19T07:42:34.0000000+00:00</time></trkpt><trkpt lat="31.24719238" lon="34.80346298"><ele>281.9</ele><time>2013-11-19T07:42:39.0000000+00:00</time></trkpt><trkpt lat="31.24694252" lon="34.80363846"><ele>280.6</ele><time>2013-11-19T07:42:44.0000000+00:00</time></trkpt><trkpt lat="31.24668694" lon="34.80377197"><ele>278.2</ele><time>2013-11-19T07:42:49.0000000+00:00</time></trkpt><trkpt lat="31.24646759" lon="34.80387116"><ele>277.0</ele><time>2013-11-19T07:42:54.0000000+00:00</time></trkpt><trkpt lat="31.24619293" lon="34.80402374"><ele>281.0</ele><time>2013-11-19T07:42:59.0000000+00:00</time></trkpt><trkpt lat="31.24593926" lon="34.804142"><ele>280.7</ele><time>2013-11-19T07:43:04.0000000+00:00</time></trkpt><trkpt lat="31.24569321" lon="34.804245"><ele>283.0</ele><time>2013-11-19T07:43:09.0000000+00:00</time></trkpt><trkpt lat="31.2454567" lon="34.80436707"><ele>282.0</ele><time>2013-11-19T07:43:14.0000000+00:00</time></trkpt><trkpt lat="31.24526215" lon="34.80450058"><ele>279.7</ele><time>2013-11-19T07:43:19.0000000+00:00</time></trkpt><trkpt lat="31.245121" lon="34.8045845"><ele>280.1</ele><time>2013-11-19T07:43:24.0000000+00:00</time></trkpt><trkpt lat="31.2451191" lon="34.80458832"><ele>279.9</ele><time>2013-11-19T07:43:29.0000000+00:00</time></trkpt><trkpt lat="31.2451191" lon="34.80458832"><ele>280.0</ele><time>2013-11-19T07:43:34.0000000+00:00</time></trkpt><trkpt lat="31.24511719" lon="34.80460739"><ele>279.5</ele><time>2013-11-19T07:43:39.0000000+00:00</time></trkpt><trkpt lat="31.24516296" lon="34.80472183"><ele>278.0</ele><time>2013-11-19T07:43:44.0000000+00:00</time></trkpt><trkpt lat="31.2451725" lon="34.80476761"><ele>276.0</ele><time>2013-11-19T07:43:49.0000000+00:00</time></trkpt><trkpt lat="31.24517441" lon="34.80477142"><ele>276.0</ele><time>2013-11-19T07:43:54.0000000+00:00</time></trkpt><trkpt lat="31.2451725" lon="34.80477142"><ele>276.1</ele><time>2013-11-19T07:43:59.0000000+00:00</time></trkpt><trkpt lat="31.2451725" lon="34.80477524"><ele>276.1</ele><time>2013-11-19T07:44:04.0000000+00:00</time></trkpt><trkpt lat="31.2451725" lon="34.80477524"><ele>276.1</ele><time>2013-11-19T07:44:09.0000000+00:00</time></trkpt><trkpt lat="31.24519539" lon="34.80484772"><ele>276.6</ele><time>2013-11-19T07:44:14.0000000+00:00</time></trkpt><trkpt lat="31.24522209" lon="34.80492783"><ele>276.2</ele><time>2013-11-19T07:44:19.0000000+00:00</time></trkpt><trkpt lat="31.24521256" lon="34.80493927"><ele>276.2</ele><time>2013-11-19T07:44:24.0000000+00:00</time></trkpt><trkpt lat="31.24521256" lon="34.80493927"><ele>276.1</ele><time>2013-11-19T07:44:29.0000000+00:00</time></trkpt><trkpt lat="31.24521637" lon="34.80493546"><ele>276.2</ele><time>2013-11-19T07:44:34.0000000+00:00</time></trkpt><trkpt lat="31.24521637" lon="34.80493546"><ele>276.4</ele><time>2013-11-19T07:44:39.0000000+00:00</time></trkpt><trkpt lat="31.24516296" lon="34.80500031"><ele>276.6</ele><time>2013-11-19T07:44:44.0000000+00:00</time></trkpt><trkpt lat="31.24507713" lon="34.80508041"><ele>277.3</ele><time>2013-11-19T07:44:49.0000000+00:00</time></trkpt><trkpt lat="31.24501419" lon="34.80521774"><ele>277.2</ele><time>2013-11-19T07:44:54.0000000+00:00</time></trkpt><trkpt lat="31.24491119" lon="34.80532837"><ele>277.0</ele><time>2013-11-19T07:44:59.0000000+00:00</time></trkpt><trkpt lat="31.24477768" lon="34.8054657"><ele>279.7</ele><time>2013-11-19T07:45:04.0000000+00:00</time></trkpt><trkpt lat="31.24468422" lon="34.80563736"><ele>281.8</ele><time>2013-11-19T07:45:09.0000000+00:00</time></trkpt><trkpt lat="31.24462128" lon="34.80584335"><ele>277.5</ele><time>2013-11-19T07:45:14.0000000+00:00</time></trkpt><trkpt lat="31.24458504" lon="34.80605316"><ele>274.8</ele><time>2013-11-19T07:45:19.0000000+00:00</time></trkpt><trkpt lat="31.24457359" lon="34.80627823"><ele>271.9</ele><time>2013-11-19T07:45:24.0000000+00:00</time></trkpt><trkpt lat="31.24457741" lon="34.80651474"><ele>270.8</ele><time>2013-11-19T07:45:29.0000000+00:00</time></trkpt><trkpt lat="31.24456024" lon="34.80675125"><ele>272.1</ele><time>2013-11-19T07:45:34.0000000+00:00</time></trkpt><trkpt lat="31.24457741" lon="34.80690765"><ele>270.4</ele><time>2013-11-19T07:45:39.0000000+00:00</time></trkpt><trkpt lat="31.24456406" lon="34.80694962"><ele>269.5</ele><time>2013-11-19T07:45:44.0000000+00:00</time></trkpt><trkpt lat="31.24451447" lon="34.80706024"><ele>269.7</ele><time>2013-11-19T07:45:49.0000000+00:00</time></trkpt><trkpt lat="31.24453163" lon="34.80723953"><ele>270.6</ele><time>2013-11-19T07:45:54.0000000+00:00</time></trkpt><trkpt lat="31.2444973" lon="34.8073616"><ele>272.4</ele><time>2013-11-19T07:45:59.0000000+00:00</time></trkpt><trkpt lat="31.24447823" lon="34.80752945"><ele>272.7</ele><time>2013-11-19T07:46:04.0000000+00:00</time></trkpt><trkpt lat="31.24448776" lon="34.80768967"><ele>272.6</ele><time>2013-11-19T07:46:09.0000000+00:00</time></trkpt><trkpt lat="31.24450302" lon="34.80774689"><ele>270.5</ele><time>2013-11-19T07:46:14.0000000+00:00</time></trkpt><trkpt lat="31.24451065" lon="34.80782318"><ele>269.8</ele><time>2013-11-19T07:46:19.0000000+00:00</time></trkpt><trkpt lat="31.24452782" lon="34.80796051"><ele>267.4</ele><time>2013-11-19T07:46:24.0000000+00:00</time></trkpt><trkpt lat="31.24452019" lon="34.80812836"><ele>267.4</ele><time>2013-11-19T07:46:29.0000000+00:00</time></trkpt><trkpt lat="31.24451637" lon="34.80833054"><ele>267.4</ele><time>2013-11-19T07:46:34.0000000+00:00</time></trkpt><trkpt lat="31.24450493" lon="34.80846787"><ele>269.3</ele><time>2013-11-19T07:46:39.0000000+00:00</time></trkpt><trkpt lat="31.24449539" lon="34.80854797"><ele>271.3</ele><time>2013-11-19T07:46:44.0000000+00:00</time></trkpt><trkpt lat="31.24451447" lon="34.80862427"><ele>272.8</ele><time>2013-11-19T07:46:49.0000000+00:00</time></trkpt><trkpt lat="31.24446869" lon="34.80868912"><ele>274.4</ele><time>2013-11-19T07:46:54.0000000+00:00</time></trkpt><trkpt lat="31.24437904" lon="34.80870819"><ele>275.5</ele><time>2013-11-19T07:46:59.0000000+00:00</time></trkpt><trkpt lat="31.24436569" lon="34.80873489"><ele>275.6</ele><time>2013-11-19T07:47:04.0000000+00:00</time></trkpt><trkpt lat="31.24435997" lon="34.80873871"><ele>275.3</ele><time>2013-11-19T07:47:09.0000000+00:00</time></trkpt><trkpt lat="31.24436188" lon="34.80873871"><ele>275.1</ele><time>2013-11-19T07:47:14.0000000+00:00</time></trkpt><trkpt lat="31.24436379" lon="34.80879974"><ele>275.1</ele><time>2013-11-19T07:47:19.0000000+00:00</time></trkpt><trkpt lat="31.24441147" lon="34.80890656"><ele>277.5</ele><time>2013-11-19T07:47:24.0000000+00:00</time></trkpt><trkpt lat="31.24436188" lon="34.80908203"><ele>277.6</ele><time>2013-11-19T07:47:29.0000000+00:00</time></trkpt><trkpt lat="31.24435616" lon="34.80928803"><ele>275.3</ele><time>2013-11-19T07:47:34.0000000+00:00</time></trkpt><trkpt lat="31.24436188" lon="34.8094902"><ele>273.9</ele><time>2013-11-19T07:47:39.0000000+00:00</time></trkpt><trkpt lat="31.2443943" lon="34.8096962"><ele>272.4</ele><time>2013-11-19T07:47:44.0000000+00:00</time></trkpt><trkpt lat="31.24443626" lon="34.80990982"><ele>275.0</ele><time>2013-11-19T07:47:49.0000000+00:00</time></trkpt><trkpt lat="31.24446869" lon="34.81006622"><ele>275.5</ele><time>2013-11-19T07:47:54.0000000+00:00</time></trkpt><trkpt lat="31.24453735" lon="34.81018448"><ele>272.3</ele><time>2013-11-19T07:47:59.0000000+00:00</time></trkpt><trkpt lat="31.24465752" lon="34.81027985"><ele>266.9</ele><time>2013-11-19T07:48:04.0000000+00:00</time></trkpt><trkpt lat="31.24472427" lon="34.81040573"><ele>266.3</ele><time>2013-11-19T07:48:09.0000000+00:00</time></trkpt><trkpt lat="31.24480629" lon="34.81052017"><ele>267.7</ele><time>2013-11-19T07:48:14.0000000+00:00</time></trkpt><trkpt lat="31.24489021" lon="34.81063461"><ele>267.9</ele><time>2013-11-19T07:48:19.0000000+00:00</time></trkpt><trkpt lat="31.24493599" lon="34.81066895"><ele>266.0</ele><time>2013-11-19T07:48:24.0000000+00:00</time></trkpt><trkpt lat="31.24497414" lon="34.81070709"><ele>264.2</ele><time>2013-11-19T07:48:29.0000000+00:00</time></trkpt><trkpt lat="31.24505425" lon="34.81082535"><ele>262.4</ele><time>2013-11-19T07:48:34.0000000+00:00</time></trkpt><trkpt lat="31.24515915" lon="34.81096649"><ele>262.8</ele><time>2013-11-19T07:48:39.0000000+00:00</time></trkpt><trkpt lat="31.24526215" lon="34.81113434"><ele>264.3</ele><time>2013-11-19T07:48:44.0000000+00:00</time></trkpt><trkpt lat="31.24533081" lon="34.81120682"><ele>263.8</ele><time>2013-11-19T07:48:49.0000000+00:00</time></trkpt><trkpt lat="31.24533272" lon="34.81123352"><ele>262.8</ele><time>2013-11-19T07:48:54.0000000+00:00</time></trkpt><trkpt lat="31.24533272" lon="34.81123734"><ele>262.6</ele><time>2013-11-19T07:48:59.0000000+00:00</time></trkpt><trkpt lat="31.24533272" lon="34.81123734"><ele>262.0</ele><time>2013-11-19T07:49:04.0000000+00:00</time></trkpt><trkpt lat="31.24533272" lon="34.81123352"><ele>261.7</ele><time>2013-11-19T07:49:09.0000000+00:00</time></trkpt><trkpt lat="31.24533272" lon="34.81125641"><ele>261.8</ele><time>2013-11-19T07:49:14.0000000+00:00</time></trkpt><trkpt lat="31.24536324" lon="34.81132126"><ele>261.6</ele><time>2013-11-19T07:49:19.0000000+00:00</time></trkpt><trkpt lat="31.24528694" lon="34.81152725"><ele>267.9</ele><time>2013-11-19T07:49:24.0000000+00:00</time></trkpt><trkpt lat="31.24527741" lon="34.81158829"><ele>269.0</ele><time>2013-11-19T07:49:29.0000000+00:00</time></trkpt><trkpt lat="31.24528313" lon="34.81163025"><ele>270.1</ele><time>2013-11-19T07:49:34.0000000+00:00</time></trkpt><trkpt lat="31.24532509" lon="34.81169891"><ele>271.6</ele><time>2013-11-19T07:49:39.0000000+00:00</time></trkpt><trkpt lat="31.24532318" lon="34.81171036"><ele>273.0</ele><time>2013-11-19T07:49:44.0000000+00:00</time></trkpt><trkpt lat="31.24532318" lon="34.8117218"><ele>273.8</ele><time>2013-11-19T07:49:49.0000000+00:00</time></trkpt><trkpt lat="31.24529839" lon="34.81171036"><ele>275.2</ele><time>2013-11-19T07:49:54.0000000+00:00</time></trkpt><trkpt lat="31.24526215" lon="34.81164169"><ele>276.5</ele><time>2013-11-19T07:49:59.0000000+00:00</time></trkpt><trkpt lat="31.24526215" lon="34.81163406"><ele>276.7</ele><time>2013-11-19T07:50:04.0000000+00:00</time></trkpt><trkpt lat="31.24526978" lon="34.81163025"><ele>276.2</ele><time>2013-11-19T07:50:09.0000000+00:00</time></trkpt><trkpt lat="31.24527359" lon="34.81162643"><ele>276.3</ele><time>2013-11-19T07:50:14.0000000+00:00</time></trkpt><trkpt lat="31.2451973" lon="34.81151962"><ele>276.8</ele><time>2013-11-19T07:50:19.0000000+00:00</time></trkpt><trkpt lat="31.24514008" lon="34.81148529"><ele>277.7</ele><time>2013-11-19T07:50:24.0000000+00:00</time></trkpt><trkpt lat="31.24501228" lon="34.81155396"><ele>279.4</ele><time>2013-11-19T07:50:29.0000000+00:00</time></trkpt><trkpt lat="31.24487114" lon="34.81167984"><ele>280.5</ele><time>2013-11-19T07:50:34.0000000+00:00</time></trkpt><trkpt lat="31.24488449" lon="34.81179047"><ele>280.6</ele><time>2013-11-19T07:50:39.0000000+00:00</time></trkpt><trkpt lat="31.24494743" lon="34.8119278"><ele>281.7</ele><time>2013-11-19T07:50:44.0000000+00:00</time></trkpt><trkpt lat="31.2449398" lon="34.81199265"><ele>283.1</ele><time>2013-11-19T07:50:49.0000000+00:00</time></trkpt><trkpt lat="31.24479103" lon="34.81202698"><ele>284.8</ele><time>2013-11-19T07:50:54.0000000+00:00</time></trkpt><trkpt lat="31.24464989" lon="34.81207275"><ele>288.4</ele><time>2013-11-19T07:50:59.0000000+00:00</time></trkpt><trkpt lat="31.24453354" lon="34.81207657"><ele>292.9</ele><time>2013-11-19T07:51:04.0000000+00:00</time></trkpt><trkpt lat="31.24448967" lon="34.81221771"><ele>285.4</ele><time>2013-11-19T07:51:09.0000000+00:00</time></trkpt><trkpt lat="31.24443626" lon="34.81235504"><ele>281.8</ele><time>2013-11-19T07:51:14.0000000+00:00</time></trkpt><trkpt lat="31.24433327" lon="34.8124733"><ele>281.8</ele><time>2013-11-19T07:51:19.0000000+00:00</time></trkpt><trkpt lat="31.2441864" lon="34.81254959"><ele>282.3</ele><time>2013-11-19T07:51:24.0000000+00:00</time></trkpt><trkpt lat="31.24399567" lon="34.81253433"><ele>277.6</ele><time>2013-11-19T07:51:29.0000000+00:00</time></trkpt><trkpt lat="31.24383164" lon="34.81241989"><ele>278.7</ele><time>2013-11-19T07:51:34.0000000+00:00</time></trkpt><trkpt lat="31.24381065" lon="34.81227493"><ele>277.6</ele><time>2013-11-19T07:51:39.0000000+00:00</time></trkpt><trkpt lat="31.24380112" lon="34.81210327"><ele>276.8</ele><time>2013-11-19T07:51:44.0000000+00:00</time></trkpt><trkpt lat="31.24365807" lon="34.81200028"><ele>278.0</ele><time>2013-11-19T07:51:49.0000000+00:00</time></trkpt><trkpt lat="31.24355698" lon="34.81202698"><ele>276.8</ele><time>2013-11-19T07:51:54.0000000+00:00</time></trkpt><trkpt lat="31.24353218" lon="34.81201935"><ele>277.1</ele><time>2013-11-19T07:51:59.0000000+00:00</time></trkpt><trkpt lat="31.24353409" lon="34.81201553"><ele>276.8</ele><time>2013-11-19T07:52:04.0000000+00:00</time></trkpt><trkpt lat="31.243536" lon="34.81200409"><ele>276.6</ele><time>2013-11-19T07:52:09.0000000+00:00</time></trkpt><trkpt lat="31.243536" lon="34.8120079"><ele>276.5</ele><time>2013-11-19T07:52:14.0000000+00:00</time></trkpt><trkpt lat="31.24354935" lon="34.81200409"><ele>276.6</ele><time>2013-11-19T07:52:19.0000000+00:00</time></trkpt><trkpt lat="31.24356079" lon="34.8120079"><ele>276.6</ele><time>2013-11-19T07:52:24.0000000+00:00</time></trkpt><trkpt lat="31.24356842" lon="34.81201172"><ele>276.6</ele><time>2013-11-19T07:52:29.0000000+00:00</time></trkpt><trkpt lat="31.24357414" lon="34.81201553"><ele>276.6</ele><time>2013-11-19T07:52:34.0000000+00:00</time></trkpt><trkpt lat="31.24357987" lon="34.81201553"><ele>276.6</ele><time>2013-11-19T07:52:39.0000000+00:00</time></trkpt><trkpt lat="31.24357796" lon="34.8120079"><ele>276.5</ele><time>2013-11-19T07:52:44.0000000+00:00</time></trkpt><trkpt lat="31.24357796" lon="34.81201172"><ele>276.5</ele><time>2013-11-19T07:52:49.0000000+00:00</time></trkpt><trkpt lat="31.24357605" lon="34.81200409"><ele>276.4</ele><time>2013-11-19T07:52:54.0000000+00:00</time></trkpt><trkpt lat="31.24357987" lon="34.81201172"><ele>276.4</ele><time>2013-11-19T07:52:59.0000000+00:00</time></trkpt><trkpt lat="31.24358368" lon="34.81201935"><ele>276.4</ele><time>2013-11-19T07:53:04.0000000+00:00</time></trkpt><trkpt lat="31.24357224" lon="34.81203461"><ele>276.4</ele><time>2013-11-19T07:53:09.0000000+00:00</time></trkpt><trkpt lat="31.24355316" lon="34.81204987"><ele>276.4</ele><time>2013-11-19T07:53:14.0000000+00:00</time></trkpt><trkpt lat="31.24352837" lon="34.81207275"><ele>276.3</ele><time>2013-11-19T07:53:19.0000000+00:00</time></trkpt><trkpt lat="31.24350357" lon="34.81210327"><ele>276.3</ele><time>2013-11-19T07:53:24.0000000+00:00</time></trkpt><trkpt lat="31.24349022" lon="34.81213379"><ele>276.3</ele><time>2013-11-19T07:53:29.0000000+00:00</time></trkpt><trkpt lat="31.24348259" lon="34.81216049"><ele>276.2</ele><time>2013-11-19T07:53:34.0000000+00:00</time></trkpt><trkpt lat="31.24347305" lon="34.81218338"><ele>276.2</ele><time>2013-11-19T07:53:39.0000000+00:00</time></trkpt><trkpt lat="31.24346733" lon="34.81220245"><ele>276.1</ele><time>2013-11-19T07:53:44.0000000+00:00</time></trkpt><trkpt lat="31.24346352" lon="34.81222153"><ele>276.1</ele><time>2013-11-19T07:53:49.0000000+00:00</time></trkpt><trkpt lat="31.24346161" lon="34.81225205"><ele>276.0</ele><time>2013-11-19T07:53:54.0000000+00:00</time></trkpt><trkpt lat="31.2434597" lon="34.81228256"><ele>276.0</ele><time>2013-11-19T07:53:59.0000000+00:00</time></trkpt><trkpt lat="31.24344444" lon="34.81230545"><ele>276.0</ele><time>2013-11-19T07:54:04.0000000+00:00</time></trkpt><trkpt lat="31.24342346" lon="34.81231308"><ele>275.9</ele><time>2013-11-19T07:54:09.0000000+00:00</time></trkpt><trkpt lat="31.2434082" lon="34.8123169"><ele>275.9</ele><time>2013-11-19T07:54:14.0000000+00:00</time></trkpt><trkpt lat="31.24340439" lon="34.8123169"><ele>275.9</ele><time>2013-11-19T07:54:19.0000000+00:00</time></trkpt><trkpt lat="31.2434063" lon="34.81232452"><ele>275.8</ele><time>2013-11-19T07:54:24.0000000+00:00</time></trkpt><trkpt lat="31.24342156" lon="34.81233215"><ele>275.8</ele><time>2013-11-19T07:54:29.0000000+00:00</time></trkpt><trkpt lat="31.24343872" lon="34.81233215"><ele>275.8</ele><time>2013-11-19T07:54:34.0000000+00:00</time></trkpt><trkpt lat="31.24345398" lon="34.81232834"><ele>275.8</ele><time>2013-11-19T07:54:39.0000000+00:00</time></trkpt><trkpt lat="31.24347305" lon="34.81232834"><ele>275.8</ele><time>2013-11-19T07:54:44.0000000+00:00</time></trkpt><trkpt lat="31.24350357" lon="34.81230927"><ele>275.8</ele><time>2013-11-19T07:54:49.0000000+00:00</time></trkpt><trkpt lat="31.2435379" lon="34.81230545"><ele>275.8</ele><time>2013-11-19T07:54:54.0000000+00:00</time></trkpt><trkpt lat="31.24357033" lon="34.81233215"><ele>276.4</ele><time>2013-11-19T07:54:59.0000000+00:00</time></trkpt><trkpt lat="31.24358177" lon="34.81234741"><ele>280.1</ele><time>2013-11-19T07:55:04.0000000+00:00</time></trkpt><trkpt lat="31.24354172" lon="34.81235504"><ele>281.7</ele><time>2013-11-19T07:55:09.0000000+00:00</time></trkpt><trkpt lat="31.2435379" lon="34.81235504"><ele>281.8</ele><time>2013-11-19T07:55:14.0000000+00:00</time></trkpt><trkpt lat="31.2435379" lon="34.81235886"><ele>281.9</ele><time>2013-11-19T07:55:19.0000000+00:00</time></trkpt><trkpt lat="31.2435379" lon="34.81235886"><ele>281.9</ele><time>2013-11-19T07:55:24.0000000+00:00</time></trkpt><trkpt lat="31.2435379" lon="34.81235886"><ele>281.9</ele><time>2013-11-19T07:55:29.0000000+00:00</time></trkpt><trkpt lat="31.243536" lon="34.81236267"><ele>282.0</ele><time>2013-11-19T07:55:34.0000000+00:00</time></trkpt><trkpt lat="31.243536" lon="34.81236267"><ele>282.0</ele><time>2013-11-19T07:55:39.0000000+00:00</time></trkpt><trkpt lat="31.243536" lon="34.81236267"><ele>282.0</ele><time>2013-11-19T07:55:44.0000000+00:00</time></trkpt><trkpt lat="31.243536" lon="34.81236267"><ele>282.1</ele><time>2013-11-19T07:55:49.0000000+00:00</time></trkpt><trkpt lat="31.243536" lon="34.81236267"><ele>282.1</ele><time>2013-11-19T07:55:54.0000000+00:00</time></trkpt><trkpt lat="31.243536" lon="34.81236267"><ele>282.2</ele><time>2013-11-19T07:55:59.0000000+00:00</time></trkpt><trkpt lat="31.24353409" lon="34.81236267"><ele>282.2</ele><time>2013-11-19T07:56:04.0000000+00:00</time></trkpt><trkpt lat="31.24353409" lon="34.81236267"><ele>282.3</ele><time>2013-11-19T07:56:09.0000000+00:00</time></trkpt><trkpt lat="31.24353409" lon="34.81236267"><ele>282.3</ele><time>2013-11-19T07:56:14.0000000+00:00</time></trkpt><trkpt lat="31.24353409" lon="34.81236267"><ele>282.4</ele><time>2013-11-19T07:56:19.0000000+00:00</time></trkpt><trkpt lat="31.24353409" lon="34.81236267"><ele>282.4</ele><time>2013-11-19T07:56:24.0000000+00:00</time></trkpt><trkpt lat="31.24353409" lon="34.81236267"><ele>282.5</ele><time>2013-11-19T07:56:29.0000000+00:00</time></trkpt><trkpt lat="31.24353409" lon="34.81236267"><ele>282.5</ele><time>2013-11-19T07:56:34.0000000+00:00</time></trkpt><trkpt lat="31.24353218" lon="34.81236649"><ele>282.5</ele><time>2013-11-19T07:56:39.0000000+00:00</time></trkpt><trkpt lat="31.24353218" lon="34.81236267"><ele>282.6</ele><time>2013-11-19T07:56:44.0000000+00:00</time></trkpt><trkpt lat="31.24353218" lon="34.81236649"><ele>282.6</ele><time>2013-11-19T07:56:49.0000000+00:00</time></trkpt><trkpt lat="31.24353218" lon="34.81236649"><ele>282.7</ele><time>2013-11-19T07:56:54.0000000+00:00</time></trkpt><trkpt lat="31.24353218" lon="34.81236649"><ele>282.7</ele><time>2013-11-19T07:56:59.0000000+00:00</time></trkpt><trkpt lat="31.24353218" lon="34.81236649"><ele>282.7</ele><time>2013-11-19T07:57:04.0000000+00:00</time></trkpt><trkpt lat="31.24353218" lon="34.81236649"><ele>282.7</ele><time>2013-11-19T07:57:09.0000000+00:00</time></trkpt><trkpt lat="31.24353027" lon="34.81236649"><ele>282.7</ele><time>2013-11-19T07:57:14.0000000+00:00</time></trkpt><trkpt lat="31.24353027" lon="34.81236649"><ele>282.8</ele><time>2013-11-19T07:57:19.0000000+00:00</time></trkpt><trkpt lat="31.2435379" lon="34.8123703"><ele>282.9</ele><time>2013-11-19T07:57:24.0000000+00:00</time></trkpt><trkpt lat="31.24354363" lon="34.81236649"><ele>282.9</ele><time>2013-11-19T07:57:29.0000000+00:00</time></trkpt><trkpt lat="31.24354363" lon="34.81235886"><ele>282.9</ele><time>2013-11-19T07:57:34.0000000+00:00</time></trkpt><trkpt lat="31.243536" lon="34.81235886"><ele>282.7</ele><time>2013-11-19T07:57:39.0000000+00:00</time></trkpt><trkpt lat="31.24353409" lon="34.81235886"><ele>282.5</ele><time>2013-11-19T07:57:44.0000000+00:00</time></trkpt><trkpt lat="31.24353409" lon="34.81235886"><ele>282.2</ele><time>2013-11-19T07:57:49.0000000+00:00</time></trkpt><trkpt lat="31.24353218" lon="34.81235504"><ele>282.0</ele><time>2013-11-19T07:57:54.0000000+00:00</time></trkpt><trkpt lat="31.24353027" lon="34.81235504"><ele>281.7</ele><time>2013-11-19T07:57:59.0000000+00:00</time></trkpt><trkpt lat="31.24352646" lon="34.81235504"><ele>281.5</ele><time>2013-11-19T07:58:04.0000000+00:00</time></trkpt><trkpt lat="31.24352264" lon="34.81234741"><ele>281.2</ele><time>2013-11-19T07:58:09.0000000+00:00</time></trkpt><trkpt lat="31.24351692" lon="34.81233978"><ele>280.9</ele><time>2013-11-19T07:58:14.0000000+00:00</time></trkpt><trkpt lat="31.24350929" lon="34.81232834"><ele>280.8</ele><time>2013-11-19T07:58:19.0000000+00:00</time></trkpt><trkpt lat="31.24350166" lon="34.8123169"><ele>280.7</ele><time>2013-11-19T07:58:24.0000000+00:00</time></trkpt><trkpt lat="31.24349403" lon="34.81230545"><ele>280.5</ele><time>2013-11-19T07:58:29.0000000+00:00</time></trkpt><trkpt lat="31.2434864" lon="34.81229401"><ele>280.4</ele><time>2013-11-19T07:58:34.0000000+00:00</time></trkpt><trkpt lat="31.24348068" lon="34.81228256"><ele>280.4</ele><time>2013-11-19T07:58:39.0000000+00:00</time></trkpt><trkpt lat="31.24347305" lon="34.81227493"><ele>280.2</ele><time>2013-11-19T07:58:44.0000000+00:00</time></trkpt><trkpt lat="31.24346924" lon="34.8122673"><ele>280.0</ele><time>2013-11-19T07:58:49.0000000+00:00</time></trkpt><trkpt lat="31.24346733" lon="34.81226349"><ele>279.6</ele><time>2013-11-19T07:58:54.0000000+00:00</time></trkpt><trkpt lat="31.24346542" lon="34.81226349"><ele>279.2</ele><time>2013-11-19T07:58:59.0000000+00:00</time></trkpt><trkpt lat="31.24346352" lon="34.81225967"><ele>278.6</ele><time>2013-11-19T07:59:04.0000000+00:00</time></trkpt><trkpt lat="31.24346733" lon="34.81225967"><ele>278.1</ele><time>2013-11-19T07:59:09.0000000+00:00</time></trkpt><trkpt lat="31.24346924" lon="34.81225205"><ele>277.7</ele><time>2013-11-19T07:59:14.0000000+00:00</time></trkpt><trkpt lat="31.24347305" lon="34.81224823"><ele>277.3</ele><time>2013-11-19T07:59:19.0000000+00:00</time></trkpt><trkpt lat="31.24347496" lon="34.8122406"><ele>277.2</ele><time>2013-11-19T07:59:24.0000000+00:00</time></trkpt><trkpt lat="31.24347878" lon="34.81222916"><ele>277.3</ele><time>2013-11-19T07:59:29.0000000+00:00</time></trkpt><trkpt lat="31.2434845" lon="34.81222153"><ele>277.4</ele><time>2013-11-19T07:59:34.0000000+00:00</time></trkpt><trkpt lat="31.24348831" lon="34.81221771"><ele>277.6</ele><time>2013-11-19T07:59:39.0000000+00:00</time></trkpt><trkpt lat="31.2434864" lon="34.81220627"><ele>277.7</ele><time>2013-11-19T07:59:44.0000000+00:00</time></trkpt><trkpt lat="31.24349594" lon="34.8121872"><ele>277.6</ele><time>2013-11-19T07:59:49.0000000+00:00</time></trkpt><trkpt lat="31.24349022" lon="34.81217575"><ele>277.3</ele><time>2013-11-19T07:59:54.0000000+00:00</time></trkpt><trkpt lat="31.24349022" lon="34.81217575"><ele>277.2</ele><time>2013-11-19T07:59:59.0000000+00:00</time></trkpt><trkpt lat="31.24349022" lon="34.81217575"><ele>277.2</ele><time>2013-11-19T08:00:04.0000000+00:00</time></trkpt><trkpt lat="31.24349022" lon="34.81217575"><ele>277.2</ele><time>2013-11-19T08:00:09.0000000+00:00</time></trkpt><trkpt lat="31.24349213" lon="34.81217575"><ele>277.1</ele><time>2013-11-19T08:00:14.0000000+00:00</time></trkpt><trkpt lat="31.24349022" lon="34.81217194"><ele>277.1</ele><time>2013-11-19T08:00:19.0000000+00:00</time></trkpt><trkpt lat="31.24349022" lon="34.81217194"><ele>277.1</ele><time>2013-11-19T08:00:24.0000000+00:00</time></trkpt><trkpt lat="31.24349022" lon="34.81217194"><ele>277.1</ele><time>2013-11-19T08:00:29.0000000+00:00</time></trkpt><trkpt lat="31.24349022" lon="34.81217194"><ele>277.1</ele><time>2013-11-19T08:00:34.0000000+00:00</time></trkpt><trkpt lat="31.24349022" lon="34.81217194"><ele>277.2</ele><time>2013-11-19T08:00:39.0000000+00:00</time></trkpt><trkpt lat="31.24349022" lon="34.81217194"><ele>277.2</ele><time>2013-11-19T08:00:44.0000000+00:00</time></trkpt><trkpt lat="31.24349022" lon="34.81216812"><ele>277.3</ele><time>2013-11-19T08:00:49.0000000+00:00</time></trkpt><trkpt lat="31.24349022" lon="34.81216812"><ele>277.5</ele><time>2013-11-19T08:00:54.0000000+00:00</time></trkpt><trkpt lat="31.24348831" lon="34.81216431"><ele>277.8</ele><time>2013-11-19T08:00:59.0000000+00:00</time></trkpt><trkpt lat="31.2434845" lon="34.81215668"><ele>278.2</ele><time>2013-11-19T08:01:04.0000000+00:00</time></trkpt><trkpt lat="31.24348068" lon="34.81214905"><ele>278.8</ele><time>2013-11-19T08:01:09.0000000+00:00</time></trkpt><trkpt lat="31.24347496" lon="34.81214142"><ele>279.5</ele><time>2013-11-19T08:01:14.0000000+00:00</time></trkpt><trkpt lat="31.24347115" lon="34.81212997"><ele>280.3</ele><time>2013-11-19T08:01:19.0000000+00:00</time></trkpt><trkpt lat="31.24346733" lon="34.81211853"><ele>281.2</ele><time>2013-11-19T08:01:24.0000000+00:00</time></trkpt><trkpt lat="31.24346161" lon="34.8121109"><ele>282.3</ele><time>2013-11-19T08:01:29.0000000+00:00</time></trkpt><trkpt lat="31.24345779" lon="34.81209946"><ele>283.4</ele><time>2013-11-19T08:01:34.0000000+00:00</time></trkpt><trkpt lat="31.24345207" lon="34.81208801"><ele>284.5</ele><time>2013-11-19T08:01:39.0000000+00:00</time></trkpt><trkpt lat="31.24344063" lon="34.81203461"><ele>287.6</ele><time>2013-11-19T08:01:44.0000000+00:00</time></trkpt><trkpt lat="31.243433" lon="34.81198883"><ele>289.9</ele><time>2013-11-19T08:01:49.0000000+00:00</time></trkpt><trkpt lat="31.24343109" lon="34.81198502"><ele>290.9</ele><time>2013-11-19T08:01:54.0000000+00:00</time></trkpt><trkpt lat="31.24342918" lon="34.8119812"><ele>291.7</ele><time>2013-11-19T08:01:59.0000000+00:00</time></trkpt><trkpt lat="31.24342728" lon="34.8119812"><ele>292.3</ele><time>2013-11-19T08:02:04.0000000+00:00</time></trkpt><trkpt lat="31.24342537" lon="34.81197739"><ele>292.8</ele><time>2013-11-19T08:02:09.0000000+00:00</time></trkpt><trkpt lat="31.24342346" lon="34.81197357"><ele>293.2</ele><time>2013-11-19T08:02:14.0000000+00:00</time></trkpt><trkpt lat="31.24342156" lon="34.81196594"><ele>293.6</ele><time>2013-11-19T08:02:19.0000000+00:00</time></trkpt><trkpt lat="31.24342156" lon="34.81196594"><ele>293.8</ele><time>2013-11-19T08:02:24.0000000+00:00</time></trkpt><trkpt lat="31.24342156" lon="34.81196594"><ele>293.9</ele><time>2013-11-19T08:02:29.0000000+00:00</time></trkpt><trkpt lat="31.24342156" lon="34.81196594"><ele>293.9</ele><time>2013-11-19T08:02:34.0000000+00:00</time></trkpt><trkpt lat="31.24342156" lon="34.81196594"><ele>293.8</ele><time>2013-11-19T08:02:39.0000000+00:00</time></trkpt><trkpt lat="31.24342346" lon="34.81196594"><ele>293.8</ele><time>2013-11-19T08:02:44.0000000+00:00</time></trkpt><trkpt lat="31.24342346" lon="34.81196594"><ele>293.7</ele><time>2013-11-19T08:02:49.0000000+00:00</time></trkpt><trkpt lat="31.24342537" lon="34.81196594"><ele>293.6</ele><time>2013-11-19T08:02:54.0000000+00:00</time></trkpt><trkpt lat="31.24342728" lon="34.81196976"><ele>293.5</ele><time>2013-11-19T08:02:59.0000000+00:00</time></trkpt><trkpt lat="31.24343109" lon="34.81197357"><ele>293.4</ele><time>2013-11-19T08:03:04.0000000+00:00</time></trkpt><trkpt lat="31.24343491" lon="34.81197739"><ele>293.1</ele><time>2013-11-19T08:03:09.0000000+00:00</time></trkpt><trkpt lat="31.24343681" lon="34.8119812"><ele>292.9</ele><time>2013-11-19T08:03:14.0000000+00:00</time></trkpt><trkpt lat="31.24343872" lon="34.81198502"><ele>292.6</ele><time>2013-11-19T08:03:19.0000000+00:00</time></trkpt><trkpt lat="31.24344063" lon="34.81198502"><ele>292.3</ele><time>2013-11-19T08:03:24.0000000+00:00</time></trkpt><trkpt lat="31.24342918" lon="34.81201553"><ele>292.1</ele><time>2013-11-19T08:03:29.0000000+00:00</time></trkpt><trkpt lat="31.24343872" lon="34.81204224"><ele>291.4</ele><time>2013-11-19T08:03:34.0000000+00:00</time></trkpt><trkpt lat="31.24343491" lon="34.81204224"><ele>291.4</ele><time>2013-11-19T08:03:39.0000000+00:00</time></trkpt><trkpt lat="31.24342918" lon="34.81203461"><ele>291.8</ele><time>2013-11-19T08:03:44.0000000+00:00</time></trkpt><trkpt lat="31.2434063" lon="34.81203842"><ele>292.8</ele><time>2013-11-19T08:03:49.0000000+00:00</time></trkpt><trkpt lat="31.24339104" lon="34.81204224"><ele>293.0</ele><time>2013-11-19T08:03:54.0000000+00:00</time></trkpt><trkpt lat="31.24338532" lon="34.81204224"><ele>293.2</ele><time>2013-11-19T08:03:59.0000000+00:00</time></trkpt><trkpt lat="31.24338341" lon="34.81204224"><ele>293.4</ele><time>2013-11-19T08:04:04.0000000+00:00</time></trkpt><trkpt lat="31.2433815" lon="34.81204224"><ele>293.6</ele><time>2013-11-19T08:04:09.0000000+00:00</time></trkpt><trkpt lat="31.2433815" lon="34.81204224"><ele>293.7</ele><time>2013-11-19T08:04:14.0000000+00:00</time></trkpt><trkpt lat="31.2433815" lon="34.81204224"><ele>293.8</ele><time>2013-11-19T08:04:19.0000000+00:00</time></trkpt><trkpt lat="31.24341583" lon="34.81208038"><ele>294.9</ele><time>2013-11-19T08:04:24.0000000+00:00</time></trkpt><trkpt lat="31.24353981" lon="34.81210327"><ele>296.0</ele><time>2013-11-19T08:04:29.0000000+00:00</time></trkpt><trkpt lat="31.24369621" lon="34.81205368"><ele>297.8</ele><time>2013-11-19T08:04:34.0000000+00:00</time></trkpt><trkpt lat="31.24386406" lon="34.81199646"><ele>298.4</ele><time>2013-11-19T08:04:39.0000000+00:00</time></trkpt><trkpt lat="31.24403763" lon="34.81195068"><ele>297.0</ele><time>2013-11-19T08:04:44.0000000+00:00</time></trkpt><trkpt lat="31.24424744" lon="34.8118782"><ele>297.2</ele><time>2013-11-19T08:04:49.0000000+00:00</time></trkpt><trkpt lat="31.2444973" lon="34.81189346"><ele>300.1</ele><time>2013-11-19T08:04:54.0000000+00:00</time></trkpt><trkpt lat="31.24469185" lon="34.81185913"><ele>301.9</ele><time>2013-11-19T08:04:59.0000000+00:00</time></trkpt><trkpt lat="31.24482346" lon="34.81183624"><ele>301.3</ele><time>2013-11-19T08:05:04.0000000+00:00</time></trkpt><trkpt lat="31.24490166" lon="34.81182861"><ele>300.3</ele><time>2013-11-19T08:05:09.0000000+00:00</time></trkpt><trkpt lat="31.24493599" lon="34.81176758"><ele>296.6</ele><time>2013-11-19T08:05:14.0000000+00:00</time></trkpt><trkpt lat="31.2449379" lon="34.81176758"><ele>296.2</ele><time>2013-11-19T08:05:19.0000000+00:00</time></trkpt><trkpt lat="31.24493408" lon="34.81176376"><ele>295.9</ele><time>2013-11-19T08:05:24.0000000+00:00</time></trkpt><trkpt lat="31.24492455" lon="34.81175995"><ele>295.9</ele><time>2013-11-19T08:05:29.0000000+00:00</time></trkpt><trkpt lat="31.24492455" lon="34.81175613"><ele>295.9</ele><time>2013-11-19T08:05:34.0000000+00:00</time></trkpt><trkpt lat="31.24492836" lon="34.81171799"><ele>295.7</ele><time>2013-11-19T08:05:39.0000000+00:00</time></trkpt><trkpt lat="31.2448864" lon="34.8116684"><ele>295.0</ele><time>2013-11-19T08:05:44.0000000+00:00</time></trkpt><trkpt lat="31.24482536" lon="34.81166458"><ele>291.8</ele><time>2013-11-19T08:05:49.0000000+00:00</time></trkpt><trkpt lat="31.24482536" lon="34.81162262"><ele>288.4</ele><time>2013-11-19T08:05:54.0000000+00:00</time></trkpt><trkpt lat="31.24481773" lon="34.81152725"><ele>286.8</ele><time>2013-11-19T08:05:59.0000000+00:00</time></trkpt><trkpt lat="31.24481964" lon="34.81143189"><ele>285.4</ele><time>2013-11-19T08:06:04.0000000+00:00</time></trkpt><trkpt lat="31.24477577" lon="34.81131363"><ele>284.4</ele><time>2013-11-19T08:06:09.0000000+00:00</time></trkpt><trkpt lat="31.24472046" lon="34.81114197"><ele>283.1</ele><time>2013-11-19T08:06:14.0000000+00:00</time></trkpt><trkpt lat="31.24463844" lon="34.81096649"><ele>281.5</ele><time>2013-11-19T08:06:19.0000000+00:00</time></trkpt><trkpt lat="31.2445488" lon="34.81074905"><ele>279.0</ele><time>2013-11-19T08:06:24.0000000+00:00</time></trkpt><trkpt lat="31.24445534" lon="34.81050873"><ele>278.5</ele><time>2013-11-19T08:06:29.0000000+00:00</time></trkpt><trkpt lat="31.24433136" lon="34.81036377"><ele>278.3</ele><time>2013-11-19T08:06:34.0000000+00:00</time></trkpt><trkpt lat="31.2443428" lon="34.81030655"><ele>278.9</ele><time>2013-11-19T08:06:39.0000000+00:00</time></trkpt><trkpt lat="31.24431992" lon="34.81014252"><ele>280.9</ele><time>2013-11-19T08:06:44.0000000+00:00</time></trkpt><trkpt lat="31.24429703" lon="34.80990601"><ele>281.2</ele><time>2013-11-19T08:06:49.0000000+00:00</time></trkpt><trkpt lat="31.24425316" lon="34.80967331"><ele>281.8</ele><time>2013-11-19T08:06:54.0000000+00:00</time></trkpt><trkpt lat="31.24423027" lon="34.80950928"><ele>282.9</ele><time>2013-11-19T08:06:59.0000000+00:00</time></trkpt><trkpt lat="31.24423981" lon="34.80941391"><ele>282.8</ele><time>2013-11-19T08:07:04.0000000+00:00</time></trkpt><trkpt lat="31.24426651" lon="34.80934906"><ele>283.5</ele><time>2013-11-19T08:07:09.0000000+00:00</time></trkpt><trkpt lat="31.24428368" lon="34.80920029"><ele>285.2</ele><time>2013-11-19T08:07:14.0000000+00:00</time></trkpt><trkpt lat="31.24426079" lon="34.80908203"><ele>283.2</ele><time>2013-11-19T08:07:19.0000000+00:00</time></trkpt><trkpt lat="31.24438858" lon="34.809021"><ele>287.4</ele><time>2013-11-19T08:07:24.0000000+00:00</time></trkpt><trkpt lat="31.24419212" lon="34.80889893"><ele>294.5</ele><time>2013-11-19T08:07:29.0000000+00:00</time></trkpt><trkpt lat="31.24430656" lon="34.8088913"><ele>292.8</ele><time>2013-11-19T08:07:34.0000000+00:00</time></trkpt><trkpt lat="31.2443428" lon="34.8088913"><ele>291.3</ele><time>2013-11-19T08:07:39.0000000+00:00</time></trkpt><trkpt lat="31.2443409" lon="34.80889511"><ele>291.3</ele><time>2013-11-19T08:07:44.0000000+00:00</time></trkpt><trkpt lat="31.2443428" lon="34.8088913"><ele>291.2</ele><time>2013-11-19T08:07:49.0000000+00:00</time></trkpt><trkpt lat="31.2443428" lon="34.80889511"><ele>291.2</ele><time>2013-11-19T08:07:54.0000000+00:00</time></trkpt><trkpt lat="31.2443428" lon="34.80889511"><ele>291.2</ele><time>2013-11-19T08:07:59.0000000+00:00</time></trkpt><trkpt lat="31.2443428" lon="34.80889511"><ele>291.1</ele><time>2013-11-19T08:08:04.0000000+00:00</time></trkpt><trkpt lat="31.24434471" lon="34.80887604"><ele>291.1</ele><time>2013-11-19T08:08:09.0000000+00:00</time></trkpt><trkpt lat="31.24436569" lon="34.80871582"><ele>290.1</ele><time>2013-11-19T08:08:14.0000000+00:00</time></trkpt><trkpt lat="31.24436951" lon="34.80849075"><ele>289.4</ele><time>2013-11-19T08:08:19.0000000+00:00</time></trkpt><trkpt lat="31.2444191" lon="34.80819702"><ele>289.1</ele><time>2013-11-19T08:08:24.0000000+00:00</time></trkpt><trkpt lat="31.24450493" lon="34.80788422"><ele>289.7</ele><time>2013-11-19T08:08:29.0000000+00:00</time></trkpt><trkpt lat="31.2445488" lon="34.80755234"><ele>290.9</ele><time>2013-11-19T08:08:34.0000000+00:00</time></trkpt><trkpt lat="31.24460793" lon="34.80719376"><ele>290.9</ele><time>2013-11-19T08:08:39.0000000+00:00</time></trkpt><trkpt lat="31.2445755" lon="34.80682755"><ele>289.1</ele><time>2013-11-19T08:08:44.0000000+00:00</time></trkpt><trkpt lat="31.24457169" lon="34.80647278"><ele>288.9</ele><time>2013-11-19T08:08:49.0000000+00:00</time></trkpt><trkpt lat="31.24463844" lon="34.80606461"><ele>286.8</ele><time>2013-11-19T08:08:54.0000000+00:00</time></trkpt><trkpt lat="31.24473953" lon="34.80567551"><ele>286.1</ele><time>2013-11-19T08:08:59.0000000+00:00</time></trkpt><trkpt lat="31.24484444" lon="34.8053894"><ele>285.0</ele><time>2013-11-19T08:09:04.0000000+00:00</time></trkpt><trkpt lat="31.24488068" lon="34.80531693"><ele>286.0</ele><time>2013-11-19T08:09:09.0000000+00:00</time></trkpt><trkpt lat="31.24495697" lon="34.80523682"><ele>285.2</ele><time>2013-11-19T08:09:14.0000000+00:00</time></trkpt><trkpt lat="31.24512863" lon="34.80505753"><ele>284.0</ele><time>2013-11-19T08:09:19.0000000+00:00</time></trkpt><trkpt lat="31.2453537" lon="34.80485535"><ele>282.1</ele><time>2013-11-19T08:09:24.0000000+00:00</time></trkpt><trkpt lat="31.2455864" lon="34.80470276"><ele>282.3</ele><time>2013-11-19T08:09:29.0000000+00:00</time></trkpt><trkpt lat="31.24580956" lon="34.80457687"><ele>284.5</ele><time>2013-11-19T08:09:34.0000000+00:00</time></trkpt><trkpt lat="31.24600029" lon="34.80447388"><ele>288.0</ele><time>2013-11-19T08:09:39.0000000+00:00</time></trkpt><trkpt lat="31.24611855" lon="34.80437851"><ele>292.6</ele><time>2013-11-19T08:09:44.0000000+00:00</time></trkpt><trkpt lat="31.24628258" lon="34.80433655"><ele>292.6</ele><time>2013-11-19T08:09:49.0000000+00:00</time></trkpt><trkpt lat="31.24646378" lon="34.80427933"><ele>292.3</ele><time>2013-11-19T08:09:54.0000000+00:00</time></trkpt><trkpt lat="31.24664116" lon="34.80417252"><ele>296.3</ele><time>2013-11-19T08:09:59.0000000+00:00</time></trkpt><trkpt lat="31.24684143" lon="34.80403519"><ele>300.5</ele><time>2013-11-19T08:10:04.0000000+00:00</time></trkpt><trkpt lat="31.24706459" lon="34.80385208"><ele>304.1</ele><time>2013-11-19T08:10:09.0000000+00:00</time></trkpt><trkpt lat="31.24729919" lon="34.80368424"><ele>302.6</ele><time>2013-11-19T08:10:14.0000000+00:00</time></trkpt><trkpt lat="31.24752426" lon="34.8035202"><ele>298.8</ele><time>2013-11-19T08:10:19.0000000+00:00</time></trkpt><trkpt lat="31.24767494" lon="34.80335236"><ele>300.0</ele><time>2013-11-19T08:10:24.0000000+00:00</time></trkpt><trkpt lat="31.247715" lon="34.80332184"><ele>299.2</ele><time>2013-11-19T08:10:29.0000000+00:00</time></trkpt><trkpt lat="31.24771309" lon="34.80332565"><ele>299.2</ele><time>2013-11-19T08:10:34.0000000+00:00</time></trkpt><trkpt lat="31.24771309" lon="34.80332565"><ele>299.2</ele><time>2013-11-19T08:10:39.0000000+00:00</time></trkpt><trkpt lat="31.24771309" lon="34.80332565"><ele>299.1</ele><time>2013-11-19T08:10:44.0000000+00:00</time></trkpt><trkpt lat="31.24771118" lon="34.80332565"><ele>299.1</ele><time>2013-11-19T08:10:49.0000000+00:00</time></trkpt><trkpt lat="31.24771118" lon="34.80332565"><ele>299.1</ele><time>2013-11-19T08:10:54.0000000+00:00</time></trkpt><trkpt lat="31.24770927" lon="34.80332565"><ele>299.1</ele><time>2013-11-19T08:10:59.0000000+00:00</time></trkpt><trkpt lat="31.24770927" lon="34.80332565"><ele>299.3</ele><time>2013-11-19T08:11:04.0000000+00:00</time></trkpt><trkpt lat="31.24770927" lon="34.80332947"><ele>299.4</ele><time>2013-11-19T08:11:09.0000000+00:00</time></trkpt><trkpt lat="31.24770737" lon="34.80332947"><ele>299.5</ele><time>2013-11-19T08:11:14.0000000+00:00</time></trkpt><trkpt lat="31.24770737" lon="34.80332947"><ele>299.5</ele><time>2013-11-19T08:11:19.0000000+00:00</time></trkpt><trkpt lat="31.24770737" lon="34.80332947"><ele>299.5</ele><time>2013-11-19T08:11:24.0000000+00:00</time></trkpt><trkpt lat="31.24770737" lon="34.80332947"><ele>299.6</ele><time>2013-11-19T08:11:29.0000000+00:00</time></trkpt><trkpt lat="31.24770737" lon="34.80332947"><ele>299.6</ele><time>2013-11-19T08:11:34.0000000+00:00</time></trkpt><trkpt lat="31.24770546" lon="34.80332947"><ele>299.6</ele><time>2013-11-19T08:11:39.0000000+00:00</time></trkpt><trkpt lat="31.24770546" lon="34.80332947"><ele>299.6</ele><time>2013-11-19T08:11:44.0000000+00:00</time></trkpt><trkpt lat="31.24770355" lon="34.80333328"><ele>299.7</ele><time>2013-11-19T08:11:49.0000000+00:00</time></trkpt><trkpt lat="31.24770165" lon="34.80333328"><ele>299.9</ele><time>2013-11-19T08:11:54.0000000+00:00</time></trkpt><trkpt lat="31.24769974" lon="34.80333328"><ele>300.2</ele><time>2013-11-19T08:11:59.0000000+00:00</time></trkpt><trkpt lat="31.24769783" lon="34.8033371"><ele>300.4</ele><time>2013-11-19T08:12:04.0000000+00:00</time></trkpt><trkpt lat="31.24769592" lon="34.8033371"><ele>300.6</ele><time>2013-11-19T08:12:09.0000000+00:00</time></trkpt><trkpt lat="31.24769402" lon="34.80334091"><ele>300.8</ele><time>2013-11-19T08:12:14.0000000+00:00</time></trkpt><trkpt lat="31.24769211" lon="34.80334091"><ele>301.0</ele><time>2013-11-19T08:12:19.0000000+00:00</time></trkpt><trkpt lat="31.2476902" lon="34.80334473"><ele>301.1</ele><time>2013-11-19T08:12:24.0000000+00:00</time></trkpt><trkpt lat="31.24768829" lon="34.80334473"><ele>301.3</ele><time>2013-11-19T08:12:29.0000000+00:00</time></trkpt><trkpt lat="31.24768639" lon="34.80334473"><ele>301.5</ele><time>2013-11-19T08:12:34.0000000+00:00</time></trkpt><trkpt lat="31.24769592" lon="34.8033371"><ele>302.1</ele><time>2013-11-19T08:12:39.0000000+00:00</time></trkpt><trkpt lat="31.24774361" lon="34.80327225"><ele>303.9</ele><time>2013-11-19T08:12:44.0000000+00:00</time></trkpt><trkpt lat="31.24775314" lon="34.80324554"><ele>304.2</ele><time>2013-11-19T08:12:49.0000000+00:00</time></trkpt><trkpt lat="31.24774742" lon="34.80324936"><ele>305.0</ele><time>2013-11-19T08:12:54.0000000+00:00</time></trkpt><trkpt lat="31.24774933" lon="34.80323792"><ele>304.9</ele><time>2013-11-19T08:12:59.0000000+00:00</time></trkpt><trkpt lat="31.24773216" lon="34.80307007"><ele>302.0</ele><time>2013-11-19T08:13:04.0000000+00:00</time></trkpt><trkpt lat="31.24777985" lon="34.80306625"><ele>300.1</ele><time>2013-11-19T08:13:09.0000000+00:00</time></trkpt><trkpt lat="31.24775696" lon="34.80319595"><ele>299.3</ele><time>2013-11-19T08:13:14.0000000+00:00</time></trkpt><trkpt lat="31.24781418" lon="34.8033638"><ele>297.5</ele><time>2013-11-19T08:13:19.0000000+00:00</time></trkpt><trkpt lat="31.24775314" lon="34.80346298"><ele>296.8</ele><time>2013-11-19T08:13:24.0000000+00:00</time></trkpt><trkpt lat="31.24768829" lon="34.80348969"><ele>298.7</ele><time>2013-11-19T08:13:29.0000000+00:00</time></trkpt><trkpt lat="31.24768829" lon="34.80348969"><ele>299.3</ele><time>2013-11-19T08:13:34.0000000+00:00</time></trkpt><trkpt lat="31.2476902" lon="34.80348969"><ele>300.4</ele><time>2013-11-19T08:13:39.0000000+00:00</time></trkpt><trkpt lat="31.2476902" lon="34.80348969"><ele>301.5</ele><time>2013-11-19T08:13:44.0000000+00:00</time></trkpt><trkpt lat="31.24769211" lon="34.80348206"><ele>302.5</ele><time>2013-11-19T08:13:49.0000000+00:00</time></trkpt><trkpt lat="31.24768639" lon="34.80347824"><ele>303.6</ele><time>2013-11-19T08:13:54.0000000+00:00</time></trkpt><trkpt lat="31.24751854" lon="34.80356216"><ele>303.9</ele><time>2013-11-19T08:13:59.0000000+00:00</time></trkpt><trkpt lat="31.24727249" lon="34.80368805"><ele>304.8</ele><time>2013-11-19T08:14:04.0000000+00:00</time></trkpt><trkpt lat="31.24706841" lon="34.80381775"><ele>307.3</ele><time>2013-11-19T08:14:09.0000000+00:00</time></trkpt><trkpt lat="31.24684715" lon="34.80393982"><ele>308.4</ele><time>2013-11-19T08:14:14.0000000+00:00</time></trkpt><trkpt lat="31.24658394" lon="34.80405045"><ele>309.4</ele><time>2013-11-19T08:14:19.0000000+00:00</time></trkpt><trkpt lat="31.24628639" lon="34.80400848"><ele>311.9</ele><time>2013-11-19T08:14:24.0000000+00:00</time></trkpt><trkpt lat="31.24611855" lon="34.80408096"><ele>315.4</ele><time>2013-11-19T08:14:29.0000000+00:00</time></trkpt><trkpt lat="31.24590874" lon="34.80415344"><ele>320.3</ele><time>2013-11-19T08:14:34.0000000+00:00</time></trkpt><trkpt lat="31.24574089" lon="34.80424881"><ele>324.6</ele><time>2013-11-19T08:14:39.0000000+00:00</time></trkpt><trkpt lat="31.24560928" lon="34.80434418"><ele>332.7</ele><time>2013-11-19T08:14:44.0000000+00:00</time></trkpt><trkpt lat="31.24532318" lon="34.80435562"><ele>339.5</ele><time>2013-11-19T08:14:49.0000000+00:00</time></trkpt><trkpt lat="31.24513245" lon="34.80437851"><ele>346.0</ele><time>2013-11-19T08:14:54.0000000+00:00</time></trkpt><trkpt lat="31.24497986" lon="34.80417633"><ele>346.8</ele><time>2013-11-19T08:14:59.0000000+00:00</time></trkpt><trkpt lat="31.24478912" lon="34.80395126"><ele>349.8</ele><time>2013-11-19T08:15:04.0000000+00:00</time></trkpt><trkpt lat="31.24457169" lon="34.80369949"><ele>349.7</ele><time>2013-11-19T08:15:09.0000000+00:00</time></trkpt><trkpt lat="31.24435806" lon="34.80364227"><ele>337.8</ele><time>2013-11-19T08:15:14.0000000+00:00</time></trkpt><trkpt lat="31.24415779" lon="34.80338287"><ele>332.9</ele><time>2013-11-19T08:15:19.0000000+00:00</time></trkpt><trkpt lat="31.24401665" lon="34.80308914"><ele>325.0</ele><time>2013-11-19T08:15:24.0000000+00:00</time></trkpt><trkpt lat="31.24375725" lon="34.80302048"><ele>314.0</ele><time>2013-11-19T08:15:29.0000000+00:00</time></trkpt><trkpt lat="31.24349976" lon="34.8029213"><ele>308.1</ele><time>2013-11-19T08:15:34.0000000+00:00</time></trkpt><trkpt lat="31.24334526" lon="34.80276871"><ele>302.3</ele><time>2013-11-19T08:15:39.0000000+00:00</time></trkpt><trkpt lat="31.24319649" lon="34.80264282"><ele>302.4</ele><time>2013-11-19T08:15:44.0000000+00:00</time></trkpt><trkpt lat="31.24305344" lon="34.80253983"><ele>304.9</ele><time>2013-11-19T08:15:49.0000000+00:00</time></trkpt><trkpt lat="31.24291229" lon="34.80244446"><ele>304.6</ele><time>2013-11-19T08:15:54.0000000+00:00</time></trkpt><trkpt lat="31.24285317" lon="34.80239868"><ele>305.9</ele><time>2013-11-19T08:15:59.0000000+00:00</time></trkpt><trkpt lat="31.24287415" lon="34.80239868"><ele>305.9</ele><time>2013-11-19T08:16:04.0000000+00:00</time></trkpt><trkpt lat="31.24285317" lon="34.80236435"><ele>308.0</ele><time>2013-11-19T08:16:09.0000000+00:00</time></trkpt><trkpt lat="31.24268532" lon="34.80224228"><ele>306.5</ele><time>2013-11-19T08:16:14.0000000+00:00</time></trkpt><trkpt lat="31.24247742" lon="34.80210114"><ele>306.7</ele><time>2013-11-19T08:16:19.0000000+00:00</time></trkpt><trkpt lat="31.24220085" lon="34.80190659"><ele>304.6</ele><time>2013-11-19T08:16:24.0000000+00:00</time></trkpt><trkpt lat="31.24195671" lon="34.80173492"><ele>300.5</ele><time>2013-11-19T08:16:29.0000000+00:00</time></trkpt><trkpt lat="31.24170685" lon="34.80154038"><ele>298.5</ele><time>2013-11-19T08:16:34.0000000+00:00</time></trkpt><trkpt lat="31.24143219" lon="34.80129242"><ele>297.9</ele><time>2013-11-19T08:16:39.0000000+00:00</time></trkpt><trkpt lat="31.24135399" lon="34.80119705"><ele>294.9</ele><time>2013-11-19T08:16:44.0000000+00:00</time></trkpt><trkpt lat="31.2413311" lon="34.80117798"><ele>293.9</ele><time>2013-11-19T08:16:49.0000000+00:00</time></trkpt><trkpt lat="31.24132538" lon="34.80117798"><ele>293.8</ele><time>2013-11-19T08:16:54.0000000+00:00</time></trkpt><trkpt lat="31.24132156" lon="34.80117416"><ele>293.8</ele><time>2013-11-19T08:16:59.0000000+00:00</time></trkpt><trkpt lat="31.24129486" lon="34.80113602"><ele>293.4</ele><time>2013-11-19T08:17:04.0000000+00:00</time></trkpt><trkpt lat="31.24117851" lon="34.80099106"><ele>292.0</ele><time>2013-11-19T08:17:09.0000000+00:00</time></trkpt><trkpt lat="31.24101067" lon="34.80076218"><ele>291.0</ele><time>2013-11-19T08:17:14.0000000+00:00</time></trkpt><trkpt lat="31.24080658" lon="34.80050278"><ele>291.9</ele><time>2013-11-19T08:17:19.0000000+00:00</time></trkpt><trkpt lat="31.2406559" lon="34.8002739"><ele>288.8</ele><time>2013-11-19T08:17:24.0000000+00:00</time></trkpt><trkpt lat="31.240448" lon="34.79999542"><ele>287.7</ele><time>2013-11-19T08:17:29.0000000+00:00</time></trkpt><trkpt lat="31.24031067" lon="34.79959869"><ele>286.9</ele><time>2013-11-19T08:17:34.0000000+00:00</time></trkpt><trkpt lat="31.24016571" lon="34.79921341"><ele>284.9</ele><time>2013-11-19T08:17:39.0000000+00:00</time></trkpt><trkpt lat="31.2400322" lon="34.79874802"><ele>281.8</ele><time>2013-11-19T08:17:44.0000000+00:00</time></trkpt><trkpt lat="31.23988915" lon="34.79843903"><ele>281.8</ele><time>2013-11-19T08:17:49.0000000+00:00</time></trkpt><trkpt lat="31.23980331" lon="34.79814529"><ele>279.0</ele><time>2013-11-19T08:17:54.0000000+00:00</time></trkpt><trkpt lat="31.23974419" lon="34.79782867"><ele>277.3</ele><time>2013-11-19T08:17:59.0000000+00:00</time></trkpt><trkpt lat="31.23963738" lon="34.79747772"><ele>275.0</ele><time>2013-11-19T08:18:04.0000000+00:00</time></trkpt><trkpt lat="31.23950958" lon="34.79709625"><ele>272.8</ele><time>2013-11-19T08:18:09.0000000+00:00</time></trkpt><trkpt lat="31.23935318" lon="34.79676437"><ele>273.3</ele><time>2013-11-19T08:18:14.0000000+00:00</time></trkpt><trkpt lat="31.23915482" lon="34.79653931"><ele>268.1</ele><time>2013-11-19T08:18:19.0000000+00:00</time></trkpt><trkpt lat="31.23900795" lon="34.79627609"><ele>271.6</ele><time>2013-11-19T08:18:24.0000000+00:00</time></trkpt><trkpt lat="31.23885346" lon="34.79593277"><ele>270.0</ele><time>2013-11-19T08:18:29.0000000+00:00</time></trkpt><trkpt lat="31.23869896" lon="34.79555512"><ele>269.1</ele><time>2013-11-19T08:18:34.0000000+00:00</time></trkpt><trkpt lat="31.23868179" lon="34.79543304"><ele>268.2</ele><time>2013-11-19T08:18:39.0000000+00:00</time></trkpt><trkpt lat="31.2386837" lon="34.79543686"><ele>268.6</ele><time>2013-11-19T08:18:44.0000000+00:00</time></trkpt><trkpt lat="31.23866463" lon="34.79528427"><ele>269.0</ele><time>2013-11-19T08:18:49.0000000+00:00</time></trkpt><trkpt lat="31.23858261" lon="34.7950325"><ele>270.3</ele><time>2013-11-19T08:18:54.0000000+00:00</time></trkpt><trkpt lat="31.23847199" lon="34.79479599"><ele>271.3</ele><time>2013-11-19T08:18:59.0000000+00:00</time></trkpt><trkpt lat="31.23840714" lon="34.79460144"><ele>273.5</ele><time>2013-11-19T08:19:04.0000000+00:00</time></trkpt><trkpt lat="31.23827171" lon="34.79437637"><ele>274.6</ele><time>2013-11-19T08:19:09.0000000+00:00</time></trkpt><trkpt lat="31.23825645" lon="34.79434204"><ele>274.4</ele><time>2013-11-19T08:19:14.0000000+00:00</time></trkpt><trkpt lat="31.23825836" lon="34.79434204"><ele>274.5</ele><time>2013-11-19T08:19:19.0000000+00:00</time></trkpt><trkpt lat="31.23826027" lon="34.79433441"><ele>274.4</ele><time>2013-11-19T08:19:24.0000000+00:00</time></trkpt><trkpt lat="31.23826408" lon="34.7943306"><ele>274.4</ele><time>2013-11-19T08:19:29.0000000+00:00</time></trkpt><trkpt lat="31.23826599" lon="34.79432678"><ele>274.5</ele><time>2013-11-19T08:19:34.0000000+00:00</time></trkpt><trkpt lat="31.23826218" lon="34.7943306"><ele>274.6</ele><time>2013-11-19T08:19:39.0000000+00:00</time></trkpt><trkpt lat="31.23825645" lon="34.79433441"><ele>274.6</ele><time>2013-11-19T08:19:44.0000000+00:00</time></trkpt><trkpt lat="31.23825264" lon="34.79433823"><ele>274.7</ele><time>2013-11-19T08:19:49.0000000+00:00</time></trkpt><trkpt lat="31.23824692" lon="34.79434204"><ele>274.7</ele><time>2013-11-19T08:19:54.0000000+00:00</time></trkpt><trkpt lat="31.23824883" lon="34.79433823"><ele>274.8</ele><time>2013-11-19T08:19:59.0000000+00:00</time></trkpt><trkpt lat="31.23825073" lon="34.79433441"><ele>274.8</ele><time>2013-11-19T08:20:04.0000000+00:00</time></trkpt><trkpt lat="31.23825455" lon="34.79433441"><ele>275.0</ele><time>2013-11-19T08:20:09.0000000+00:00</time></trkpt><trkpt lat="31.23825645" lon="34.7943306"><ele>275.2</ele><time>2013-11-19T08:20:14.0000000+00:00</time></trkpt><trkpt lat="31.23825836" lon="34.7943306"><ele>275.4</ele><time>2013-11-19T08:20:19.0000000+00:00</time></trkpt><trkpt lat="31.23826218" lon="34.79432678"><ele>275.5</ele><time>2013-11-19T08:20:24.0000000+00:00</time></trkpt><trkpt lat="31.23826027" lon="34.7943306"><ele>275.6</ele><time>2013-11-19T08:20:29.0000000+00:00</time></trkpt><trkpt lat="31.23826218" lon="34.7943306"><ele>275.6</ele><time>2013-11-19T08:20:34.0000000+00:00</time></trkpt><trkpt lat="31.23827553" lon="34.79442215"><ele>275.4</ele><time>2013-11-19T08:20:39.0000000+00:00</time></trkpt><trkpt lat="31.23833084" lon="34.79459763"><ele>275.7</ele><time>2013-11-19T08:20:44.0000000+00:00</time></trkpt><trkpt lat="31.23841286" lon="34.79483032"><ele>275.0</ele><time>2013-11-19T08:20:49.0000000+00:00</time></trkpt><trkpt lat="31.23851395" lon="34.79504395"><ele>274.9</ele><time>2013-11-19T08:20:54.0000000+00:00</time></trkpt><trkpt lat="31.23859596" lon="34.7951355"><ele>275.2</ele><time>2013-11-19T08:20:59.0000000+00:00</time></trkpt><trkpt lat="31.23857498" lon="34.7951889"><ele>274.8</ele><time>2013-11-19T08:21:04.0000000+00:00</time></trkpt><trkpt lat="31.23855591" lon="34.79521561"><ele>275.2</ele><time>2013-11-19T08:21:09.0000000+00:00</time></trkpt><trkpt lat="31.23860931" lon="34.79533768"><ele>275.7</ele><time>2013-11-19T08:21:14.0000000+00:00</time></trkpt><trkpt lat="31.23871613" lon="34.79547882"><ele>275.7</ele><time>2013-11-19T08:21:19.0000000+00:00</time></trkpt><trkpt lat="31.23875046" lon="34.79564667"><ele>275.4</ele><time>2013-11-19T08:21:24.0000000+00:00</time></trkpt><trkpt lat="31.23879433" lon="34.79578018"><ele>273.6</ele><time>2013-11-19T08:21:29.0000000+00:00</time></trkpt><trkpt lat="31.23884964" lon="34.79595184"><ele>272.8</ele><time>2013-11-19T08:21:34.0000000+00:00</time></trkpt><trkpt lat="31.23888016" lon="34.79612732"><ele>272.1</ele><time>2013-11-19T08:21:39.0000000+00:00</time></trkpt><trkpt lat="31.23892975" lon="34.79631424"><ele>272.3</ele><time>2013-11-19T08:21:44.0000000+00:00</time></trkpt><trkpt lat="31.23900795" lon="34.79647446"><ele>272.9</ele><time>2013-11-19T08:21:49.0000000+00:00</time></trkpt><trkpt lat="31.23908234" lon="34.79667282"><ele>273.4</ele><time>2013-11-19T08:21:54.0000000+00:00</time></trkpt><trkpt lat="31.2391243" lon="34.79679871"><ele>276.0</ele><time>2013-11-19T08:21:59.0000000+00:00</time></trkpt><trkpt lat="31.23916626" lon="34.79698563"><ele>277.4</ele><time>2013-11-19T08:22:04.0000000+00:00</time></trkpt><trkpt lat="31.23919869" lon="34.79714203"><ele>277.1</ele><time>2013-11-19T08:22:09.0000000+00:00</time></trkpt><trkpt lat="31.23922157" lon="34.7972641"><ele>277.5</ele><time>2013-11-19T08:22:14.0000000+00:00</time></trkpt><trkpt lat="31.23925781" lon="34.79738617"><ele>277.5</ele><time>2013-11-19T08:22:19.0000000+00:00</time></trkpt><trkpt lat="31.23929977" lon="34.79744721"><ele>278.5</ele><time>2013-11-19T08:22:24.0000000+00:00</time></trkpt><trkpt lat="31.23928261" lon="34.79751205"><ele>279.8</ele><time>2013-11-19T08:22:29.0000000+00:00</time></trkpt><trkpt lat="31.23929405" lon="34.79751205"><ele>279.3</ele><time>2013-11-19T08:22:34.0000000+00:00</time></trkpt><trkpt lat="31.23929405" lon="34.79751205"><ele>279.3</ele><time>2013-11-19T08:22:39.0000000+00:00</time></trkpt><trkpt lat="31.23929596" lon="34.79751205"><ele>279.1</ele><time>2013-11-19T08:22:44.0000000+00:00</time></trkpt><trkpt lat="31.23929596" lon="34.79751587"><ele>278.9</ele><time>2013-11-19T08:22:49.0000000+00:00</time></trkpt><trkpt lat="31.23929596" lon="34.79751587"><ele>278.6</ele><time>2013-11-19T08:22:54.0000000+00:00</time></trkpt><trkpt lat="31.23929787" lon="34.79751587"><ele>278.5</ele><time>2013-11-19T08:22:59.0000000+00:00</time></trkpt><trkpt lat="31.23929787" lon="34.79751587"><ele>278.3</ele><time>2013-11-19T08:23:04.0000000+00:00</time></trkpt><trkpt lat="31.23929787" lon="34.79751587"><ele>278.2</ele><time>2013-11-19T08:23:09.0000000+00:00</time></trkpt><trkpt lat="31.23929787" lon="34.79751968"><ele>278.2</ele><time>2013-11-19T08:23:14.0000000+00:00</time></trkpt><trkpt lat="31.23929787" lon="34.79751968"><ele>278.1</ele><time>2013-11-19T08:23:19.0000000+00:00</time></trkpt><trkpt lat="31.23929787" lon="34.79751968"><ele>278.1</ele><time>2013-11-19T08:23:24.0000000+00:00</time></trkpt><trkpt lat="31.23929787" lon="34.79751968"><ele>278.1</ele><time>2013-11-19T08:23:29.0000000+00:00</time></trkpt><trkpt lat="31.23929787" lon="34.79751968"><ele>278.1</ele><time>2013-11-19T08:23:34.0000000+00:00</time></trkpt><trkpt lat="31.23929787" lon="34.79751968"><ele>278.0</ele><time>2013-11-19T08:23:39.0000000+00:00</time></trkpt><trkpt lat="31.2393055" lon="34.7975235"><ele>277.3</ele><time>2013-11-19T08:23:44.0000000+00:00</time></trkpt><trkpt lat="31.2393074" lon="34.79752731"><ele>276.8</ele><time>2013-11-19T08:23:49.0000000+00:00</time></trkpt><trkpt lat="31.23931503" lon="34.79753876"><ele>276.3</ele><time>2013-11-19T08:23:54.0000000+00:00</time></trkpt><trkpt lat="31.23932266" lon="34.79754639"><ele>275.8</ele><time>2013-11-19T08:23:59.0000000+00:00</time></trkpt><trkpt lat="31.23933411" lon="34.79755783"><ele>275.3</ele><time>2013-11-19T08:24:04.0000000+00:00</time></trkpt><trkpt lat="31.23934364" lon="34.79756546"><ele>274.9</ele><time>2013-11-19T08:24:09.0000000+00:00</time></trkpt><trkpt lat="31.23935509" lon="34.79758072"><ele>274.7</ele><time>2013-11-19T08:24:14.0000000+00:00</time></trkpt><trkpt lat="31.23936272" lon="34.79759216"><ele>275.1</ele><time>2013-11-19T08:24:19.0000000+00:00</time></trkpt><trkpt lat="31.23934937" lon="34.79759979"><ele>275.5</ele><time>2013-11-19T08:24:24.0000000+00:00</time></trkpt><trkpt lat="31.23934937" lon="34.79760361"><ele>275.5</ele><time>2013-11-19T08:24:29.0000000+00:00</time></trkpt><trkpt lat="31.23934937" lon="34.79760361"><ele>275.5</ele><time>2013-11-19T08:24:34.0000000+00:00</time></trkpt><trkpt lat="31.23934937" lon="34.79760361"><ele>275.6</ele><time>2013-11-19T08:24:39.0000000+00:00</time></trkpt><trkpt lat="31.23934937" lon="34.79760361"><ele>275.6</ele><time>2013-11-19T08:24:44.0000000+00:00</time></trkpt><trkpt lat="31.23932648" lon="34.79761124"><ele>275.0</ele><time>2013-11-19T08:24:49.0000000+00:00</time></trkpt><trkpt lat="31.23924065" lon="34.79764175"><ele>277.0</ele><time>2013-11-19T08:24:54.0000000+00:00</time></trkpt><trkpt lat="31.23911858" lon="34.79769135"><ele>277.4</ele><time>2013-11-19T08:24:59.0000000+00:00</time></trkpt><trkpt lat="31.23904228" lon="34.79767609"><ele>275.3</ele><time>2013-11-19T08:25:04.0000000+00:00</time></trkpt><trkpt lat="31.23887253" lon="34.79778671"><ele>274.0</ele><time>2013-11-19T08:25:09.0000000+00:00</time></trkpt><trkpt lat="31.23866844" lon="34.79790878"><ele>275.1</ele><time>2013-11-19T08:25:14.0000000+00:00</time></trkpt><trkpt lat="31.23844338" lon="34.79798126"><ele>271.7</ele><time>2013-11-19T08:25:19.0000000+00:00</time></trkpt><trkpt lat="31.23824883" lon="34.79806137"><ele>269.7</ele><time>2013-11-19T08:25:24.0000000+00:00</time></trkpt><trkpt lat="31.23814964" lon="34.7980957"><ele>268.8</ele><time>2013-11-19T08:25:29.0000000+00:00</time></trkpt><trkpt lat="31.23795891" lon="34.79813385"><ele>268.8</ele><time>2013-11-19T08:25:34.0000000+00:00</time></trkpt><trkpt lat="31.23775482" lon="34.79819489"><ele>267.8</ele><time>2013-11-19T08:25:39.0000000+00:00</time></trkpt><trkpt lat="31.23755264" lon="34.79827118"><ele>266.3</ele><time>2013-11-19T08:25:44.0000000+00:00</time></trkpt><trkpt lat="31.23734856" lon="34.7983284"><ele>265.9</ele><time>2013-11-19T08:25:49.0000000+00:00</time></trkpt><trkpt lat="31.23718071" lon="34.7984314"><ele>268.6</ele><time>2013-11-19T08:25:54.0000000+00:00</time></trkpt><trkpt lat="31.23702049" lon="34.79856491"><ele>269.0</ele><time>2013-11-19T08:25:59.0000000+00:00</time></trkpt><trkpt lat="31.23685455" lon="34.79868317"><ele>269.8</ele><time>2013-11-19T08:26:04.0000000+00:00</time></trkpt><trkpt lat="31.23671532" lon="34.79881668"><ele>270.7</ele><time>2013-11-19T08:26:09.0000000+00:00</time></trkpt><trkpt lat="31.23659515" lon="34.79886627"><ele>270.6</ele><time>2013-11-19T08:26:14.0000000+00:00</time></trkpt><trkpt lat="31.23656464" lon="34.79884338"><ele>270.1</ele><time>2013-11-19T08:26:19.0000000+00:00</time></trkpt><trkpt lat="31.23656082" lon="34.79883957"><ele>270.3</ele><time>2013-11-19T08:26:24.0000000+00:00</time></trkpt><trkpt lat="31.23656082" lon="34.79883575"><ele>270.3</ele><time>2013-11-19T08:26:29.0000000+00:00</time></trkpt><trkpt lat="31.23655891" lon="34.79883575"><ele>270.2</ele><time>2013-11-19T08:26:34.0000000+00:00</time></trkpt><trkpt lat="31.23656082" lon="34.79883957"><ele>270.1</ele><time>2013-11-19T08:26:39.0000000+00:00</time></trkpt><trkpt lat="31.23656082" lon="34.79883957"><ele>270.1</ele><time>2013-11-19T08:26:44.0000000+00:00</time></trkpt><trkpt lat="31.23652268" lon="34.79886627"><ele>269.8</ele><time>2013-11-19T08:26:49.0000000+00:00</time></trkpt><trkpt lat="31.23643684" lon="34.79896927"><ele>270.1</ele><time>2013-11-19T08:26:54.0000000+00:00</time></trkpt><trkpt lat="31.2364006" lon="34.79909134"><ele>273.6</ele><time>2013-11-19T08:26:59.0000000+00:00</time></trkpt><trkpt lat="31.23627281" lon="34.79924011"><ele>272.1</ele><time>2013-11-19T08:27:04.0000000+00:00</time></trkpt><trkpt lat="31.2361393" lon="34.79943466"><ele>272.0</ele><time>2013-11-19T08:27:09.0000000+00:00</time></trkpt><trkpt lat="31.23595619" lon="34.79960632"><ele>269.5</ele><time>2013-11-19T08:27:14.0000000+00:00</time></trkpt><trkpt lat="31.23579788" lon="34.79981995"><ele>268.5</ele><time>2013-11-19T08:27:19.0000000+00:00</time></trkpt><trkpt lat="31.23564529" lon="34.80001831"><ele>268.6</ele><time>2013-11-19T08:27:24.0000000+00:00</time></trkpt><trkpt lat="31.23552704" lon="34.8001442"><ele>268.6</ele><time>2013-11-19T08:27:29.0000000+00:00</time></trkpt><trkpt lat="31.23540306" lon="34.80023193"><ele>267.3</ele><time>2013-11-19T08:27:34.0000000+00:00</time></trkpt><trkpt lat="31.23526382" lon="34.80027771"><ele>264.1</ele><time>2013-11-19T08:27:39.0000000+00:00</time></trkpt><trkpt lat="31.2351532" lon="34.80031204"><ele>263.4</ele><time>2013-11-19T08:27:44.0000000+00:00</time></trkpt><trkpt lat="31.23507309" lon="34.80038834"><ele>262.2</ele><time>2013-11-19T08:27:49.0000000+00:00</time></trkpt><trkpt lat="31.23496246" lon="34.800457"><ele>263.6</ele><time>2013-11-19T08:27:54.0000000+00:00</time></trkpt><trkpt lat="31.23480225" lon="34.80058289"><ele>267.0</ele><time>2013-11-19T08:27:59.0000000+00:00</time></trkpt><trkpt lat="31.23459625" lon="34.80070114"><ele>268.5</ele><time>2013-11-19T08:28:04.0000000+00:00</time></trkpt><trkpt lat="31.23437691" lon="34.8008461"><ele>269.5</ele><time>2013-11-19T08:28:09.0000000+00:00</time></trkpt><trkpt lat="31.23414993" lon="34.80098724"><ele>268.7</ele><time>2013-11-19T08:28:14.0000000+00:00</time></trkpt><trkpt lat="31.23392677" lon="34.8011055"><ele>269.8</ele><time>2013-11-19T08:28:19.0000000+00:00</time></trkpt><trkpt lat="31.2337532" lon="34.80120468"><ele>271.4</ele><time>2013-11-19T08:28:24.0000000+00:00</time></trkpt><trkpt lat="31.23377228" lon="34.80121231"><ele>270.9</ele><time>2013-11-19T08:28:29.0000000+00:00</time></trkpt><trkpt lat="31.23377228" lon="34.80121231"><ele>270.8</ele><time>2013-11-19T08:28:34.0000000+00:00</time></trkpt><trkpt lat="31.23377228" lon="34.80121231"><ele>270.9</ele><time>2013-11-19T08:28:39.0000000+00:00</time></trkpt><trkpt lat="31.23377419" lon="34.80121231"><ele>270.9</ele><time>2013-11-19T08:28:44.0000000+00:00</time></trkpt><trkpt lat="31.23377419" lon="34.80121231"><ele>270.9</ele><time>2013-11-19T08:28:49.0000000+00:00</time></trkpt><trkpt lat="31.23370171" lon="34.80125427"><ele>270.0</ele><time>2013-11-19T08:28:54.0000000+00:00</time></trkpt><trkpt lat="31.23352623" lon="34.80133057"><ele>269.3</ele><time>2013-11-19T08:28:59.0000000+00:00</time></trkpt><trkpt lat="31.23332405" lon="34.80144501"><ele>270.2</ele><time>2013-11-19T08:29:04.0000000+00:00</time></trkpt><trkpt lat="31.23309898" lon="34.80154419"><ele>269.2</ele><time>2013-11-19T08:29:09.0000000+00:00</time></trkpt><trkpt lat="31.23287964" lon="34.801651"><ele>268.4</ele><time>2013-11-19T08:29:14.0000000+00:00</time></trkpt><trkpt lat="31.2326622" lon="34.80175781"><ele>267.2</ele><time>2013-11-19T08:29:19.0000000+00:00</time></trkpt><trkpt lat="31.23246002" lon="34.80186844"><ele>267.5</ele><time>2013-11-19T08:29:24.0000000+00:00</time></trkpt><trkpt lat="31.23223686" lon="34.80195618"><ele>267.2</ele><time>2013-11-19T08:29:29.0000000+00:00</time></trkpt><trkpt lat="31.2320137" lon="34.80205154"><ele>265.6</ele><time>2013-11-19T08:29:34.0000000+00:00</time></trkpt><trkpt lat="31.23180008" lon="34.8021431"><ele>264.7</ele><time>2013-11-19T08:29:39.0000000+00:00</time></trkpt><trkpt lat="31.23159218" lon="34.80221176"><ele>263.1</ele><time>2013-11-19T08:29:44.0000000+00:00</time></trkpt><trkpt lat="31.23138619" lon="34.80224991"><ele>261.0</ele><time>2013-11-19T08:29:49.0000000+00:00</time></trkpt><trkpt lat="31.23117256" lon="34.80231857"><ele>258.2</ele><time>2013-11-19T08:29:54.0000000+00:00</time></trkpt><trkpt lat="31.23092651" lon="34.80234528"><ele>256.2</ele><time>2013-11-19T08:29:59.0000000+00:00</time></trkpt><trkpt lat="31.2307682" lon="34.80238342"><ele>257.5</ele><time>2013-11-19T08:30:04.0000000+00:00</time></trkpt><trkpt lat="31.23068428" lon="34.80239868"><ele>257.1</ele><time>2013-11-19T08:30:09.0000000+00:00</time></trkpt><trkpt lat="31.23070145" lon="34.80239487"><ele>258.2</ele><time>2013-11-19T08:30:14.0000000+00:00</time></trkpt><trkpt lat="31.23070145" lon="34.80239487"><ele>258.2</ele><time>2013-11-19T08:30:19.0000000+00:00</time></trkpt><trkpt lat="31.23070335" lon="34.80239868"><ele>258.2</ele><time>2013-11-19T08:30:24.0000000+00:00</time></trkpt><trkpt lat="31.23070526" lon="34.80239868"><ele>258.2</ele><time>2013-11-19T08:30:29.0000000+00:00</time></trkpt><trkpt lat="31.23070526" lon="34.80239868"><ele>258.1</ele><time>2013-11-19T08:30:34.0000000+00:00</time></trkpt><trkpt lat="31.23070717" lon="34.80239868"><ele>258.1</ele><time>2013-11-19T08:30:39.0000000+00:00</time></trkpt><trkpt lat="31.23070145" lon="34.80239487"><ele>258.5</ele><time>2013-11-19T08:30:44.0000000+00:00</time></trkpt><trkpt lat="31.23068619" lon="34.80239105"><ele>258.0</ele><time>2013-11-19T08:30:49.0000000+00:00</time></trkpt><trkpt lat="31.23068619" lon="34.80239105"><ele>257.5</ele><time>2013-11-19T08:30:54.0000000+00:00</time></trkpt><trkpt lat="31.23068619" lon="34.80239105"><ele>257.5</ele><time>2013-11-19T08:30:59.0000000+00:00</time></trkpt><trkpt lat="31.23068619" lon="34.80239105"><ele>257.5</ele><time>2013-11-19T08:31:04.0000000+00:00</time></trkpt><trkpt lat="31.23068619" lon="34.80239105"><ele>257.5</ele><time>2013-11-19T08:31:09.0000000+00:00</time></trkpt><trkpt lat="31.23068619" lon="34.80239105"><ele>257.4</ele><time>2013-11-19T08:31:14.0000000+00:00</time></trkpt><trkpt lat="31.23068428" lon="34.80239105"><ele>257.4</ele><time>2013-11-19T08:31:19.0000000+00:00</time></trkpt><trkpt lat="31.23068428" lon="34.80239105"><ele>257.4</ele><time>2013-11-19T08:31:24.0000000+00:00</time></trkpt><trkpt lat="31.23068428" lon="34.80239105"><ele>257.3</ele><time>2013-11-19T08:31:29.0000000+00:00</time></trkpt><trkpt lat="31.23068428" lon="34.80239105"><ele>257.3</ele><time>2013-11-19T08:31:34.0000000+00:00</time></trkpt><trkpt lat="31.23068428" lon="34.80239105"><ele>257.3</ele><time>2013-11-19T08:31:39.0000000+00:00</time></trkpt><trkpt lat="31.23068428" lon="34.80239105"><ele>257.3</ele><time>2013-11-19T08:31:44.0000000+00:00</time></trkpt><trkpt lat="31.23068428" lon="34.80239105"><ele>257.3</ele><time>2013-11-19T08:31:49.0000000+00:00</time></trkpt><trkpt lat="31.23068428" lon="34.80239105"><ele>257.2</ele><time>2013-11-19T08:31:54.0000000+00:00</time></trkpt><trkpt lat="31.23068428" lon="34.80239105"><ele>257.2</ele><time>2013-11-19T08:31:59.0000000+00:00</time></trkpt><trkpt lat="31.23068428" lon="34.80239105"><ele>257.2</ele><time>2013-11-19T08:32:04.0000000+00:00</time></trkpt><trkpt lat="31.23068428" lon="34.80239487"><ele>257.2</ele><time>2013-11-19T08:32:09.0000000+00:00</time></trkpt><trkpt lat="31.23068428" lon="34.80239487"><ele>257.1</ele><time>2013-11-19T08:32:14.0000000+00:00</time></trkpt><trkpt lat="31.23068428" lon="34.80239487"><ele>257.1</ele><time>2013-11-19T08:32:19.0000000+00:00</time></trkpt><trkpt lat="31.23068428" lon="34.80239487"><ele>257.1</ele><time>2013-11-19T08:32:24.0000000+00:00</time></trkpt><trkpt lat="31.23068237" lon="34.80239487"><ele>257.1</ele><time>2013-11-19T08:32:29.0000000+00:00</time></trkpt><trkpt lat="31.23068237" lon="34.80239105"><ele>257.1</ele><time>2013-11-19T08:32:34.0000000+00:00</time></trkpt><trkpt lat="31.23068237" lon="34.80239487"><ele>257.0</ele><time>2013-11-19T08:32:39.0000000+00:00</time></trkpt><trkpt lat="31.23068237" lon="34.80239487"><ele>257.0</ele><time>2013-11-19T08:32:44.0000000+00:00</time></trkpt><trkpt lat="31.23068237" lon="34.80239487"><ele>257.0</ele><time>2013-11-19T08:32:49.0000000+00:00</time></trkpt><trkpt lat="31.23068237" lon="34.80239487"><ele>257.0</ele><time>2013-11-19T08:32:54.0000000+00:00</time></trkpt><trkpt lat="31.23068237" lon="34.80239487"><ele>257.0</ele><time>2013-11-19T08:32:59.0000000+00:00</time></trkpt><trkpt lat="31.23068237" lon="34.80239487"><ele>257.0</ele><time>2013-11-19T08:33:04.0000000+00:00</time></trkpt><trkpt lat="31.23061943" lon="34.80230331"><ele>257.0</ele><time>2013-11-19T08:33:09.0000000+00:00</time></trkpt><trkpt lat="31.23055458" lon="34.8020668"><ele>259.2</ele><time>2013-11-19T08:33:14.0000000+00:00</time></trkpt><trkpt lat="31.23051262" lon="34.80172348"><ele>260.2</ele><time>2013-11-19T08:33:19.0000000+00:00</time></trkpt><trkpt lat="31.23047829" lon="34.80134583"><ele>259.6</ele><time>2013-11-19T08:33:24.0000000+00:00</time></trkpt><trkpt lat="31.23042297" lon="34.80099487"><ele>259.6</ele><time>2013-11-19T08:33:29.0000000+00:00</time></trkpt><trkpt lat="31.23035812" lon="34.80066681"><ele>258.6</ele><time>2013-11-19T08:33:34.0000000+00:00</time></trkpt><trkpt lat="31.23029137" lon="34.80034256"><ele>259.1</ele><time>2013-11-19T08:33:39.0000000+00:00</time></trkpt><trkpt lat="31.23022652" lon="34.80001068"><ele>259.6</ele><time>2013-11-19T08:33:44.0000000+00:00</time></trkpt><trkpt lat="31.23027992" lon="34.79969788"><ele>260.3</ele><time>2013-11-19T08:33:49.0000000+00:00</time></trkpt><trkpt lat="31.23028946" lon="34.79937363"><ele>260.7</ele><time>2013-11-19T08:33:54.0000000+00:00</time></trkpt><trkpt lat="31.23022652" lon="34.79900742"><ele>260.0</ele><time>2013-11-19T08:33:59.0000000+00:00</time></trkpt><trkpt lat="31.23019981" lon="34.79864883"><ele>259.5</ele><time>2013-11-19T08:34:04.0000000+00:00</time></trkpt><trkpt lat="31.23018265" lon="34.79830933"><ele>259.0</ele><time>2013-11-19T08:34:09.0000000+00:00</time></trkpt><trkpt lat="31.2301693" lon="34.79798889"><ele>258.5</ele><time>2013-11-19T08:34:14.0000000+00:00</time></trkpt><trkpt lat="31.23010826" lon="34.79777145"><ele>259.9</ele><time>2013-11-19T08:34:19.0000000+00:00</time></trkpt><trkpt lat="31.23018074" lon="34.79764175"><ele>261.1</ele><time>2013-11-19T08:34:24.0000000+00:00</time></trkpt><trkpt lat="31.23021889" lon="34.7976265"><ele>263.0</ele><time>2013-11-19T08:34:29.0000000+00:00</time></trkpt><trkpt lat="31.23021698" lon="34.79763031"><ele>262.7</ele><time>2013-11-19T08:34:34.0000000+00:00</time></trkpt><trkpt lat="31.23021507" lon="34.79763031"><ele>262.7</ele><time>2013-11-19T08:34:39.0000000+00:00</time></trkpt><trkpt lat="31.23021507" lon="34.79763031"><ele>262.7</ele><time>2013-11-19T08:34:44.0000000+00:00</time></trkpt><trkpt lat="31.23021317" lon="34.79763031"><ele>262.7</ele><time>2013-11-19T08:34:49.0000000+00:00</time></trkpt><trkpt lat="31.23021317" lon="34.7976265"><ele>262.3</ele><time>2013-11-19T08:34:54.0000000+00:00</time></trkpt><trkpt lat="31.23021317" lon="34.7976265"><ele>262.2</ele><time>2013-11-19T08:34:59.0000000+00:00</time></trkpt><trkpt lat="31.23021126" lon="34.7976265"><ele>262.2</ele><time>2013-11-19T08:35:04.0000000+00:00</time></trkpt><trkpt lat="31.23021126" lon="34.79763031"><ele>262.2</ele><time>2013-11-19T08:35:09.0000000+00:00</time></trkpt><trkpt lat="31.23021126" lon="34.79763031"><ele>262.2</ele><time>2013-11-19T08:35:14.0000000+00:00</time></trkpt><trkpt lat="31.23021126" lon="34.79763031"><ele>262.2</ele><time>2013-11-19T08:35:19.0000000+00:00</time></trkpt><trkpt lat="31.23029327" lon="34.79756165"><ele>263.4</ele><time>2013-11-19T08:35:24.0000000+00:00</time></trkpt><trkpt lat="31.23045158" lon="34.79745102"><ele>263.3</ele><time>2013-11-19T08:35:29.0000000+00:00</time></trkpt><trkpt lat="31.23064995" lon="34.79732513"><ele>263.6</ele><time>2013-11-19T08:35:34.0000000+00:00</time></trkpt><trkpt lat="31.23079681" lon="34.79722977"><ele>262.6</ele><time>2013-11-19T08:35:39.0000000+00:00</time></trkpt><trkpt lat="31.2308197" lon="34.79722595"><ele>262.7</ele><time>2013-11-19T08:35:44.0000000+00:00</time></trkpt><trkpt lat="31.2308178" lon="34.79718018"><ele>262.0</ele><time>2013-11-19T08:35:49.0000000+00:00</time></trkpt><trkpt lat="31.23081398" lon="34.7970314"><ele>262.9</ele><time>2013-11-19T08:35:54.0000000+00:00</time></trkpt><trkpt lat="31.23082352" lon="34.79689407"><ele>262.9</ele><time>2013-11-19T08:35:59.0000000+00:00</time></trkpt><trkpt lat="31.23073959" lon="34.79670334"><ele>263.1</ele><time>2013-11-19T08:36:04.0000000+00:00</time></trkpt><trkpt lat="31.2306366" lon="34.79647064"><ele>265.3</ele><time>2013-11-19T08:36:09.0000000+00:00</time></trkpt><trkpt lat="31.23052788" lon="34.79622269"><ele>267.7</ele><time>2013-11-19T08:36:14.0000000+00:00</time></trkpt><trkpt lat="31.23039436" lon="34.79600143"><ele>271.7</ele><time>2013-11-19T08:36:19.0000000+00:00</time></trkpt><trkpt lat="31.23027802" lon="34.79577255"><ele>275.1</ele><time>2013-11-19T08:36:24.0000000+00:00</time></trkpt><trkpt lat="31.2301693" lon="34.79554749"><ele>275.0</ele><time>2013-11-19T08:36:29.0000000+00:00</time></trkpt><trkpt lat="31.230093" lon="34.79536057"><ele>275.5</ele><time>2013-11-19T08:36:34.0000000+00:00</time></trkpt><trkpt lat="31.23006249" lon="34.79528427"><ele>272.2</ele><time>2013-11-19T08:36:39.0000000+00:00</time></trkpt><trkpt lat="31.23011971" lon="34.79517746"><ele>271.6</ele><time>2013-11-19T08:36:44.0000000+00:00</time></trkpt><trkpt lat="31.23028565" lon="34.79512024"><ele>272.5</ele><time>2013-11-19T08:36:49.0000000+00:00</time></trkpt><trkpt lat="31.23046684" lon="34.79507828"><ele>274.6</ele><time>2013-11-19T08:36:54.0000000+00:00</time></trkpt><trkpt lat="31.23068047" lon="34.79504013"><ele>274.7</ele><time>2013-11-19T08:36:59.0000000+00:00</time></trkpt><trkpt lat="31.23089027" lon="34.79501724"><ele>277.4</ele><time>2013-11-19T08:37:04.0000000+00:00</time></trkpt><trkpt lat="31.23110199" lon="34.79496002"><ele>280.8</ele><time>2013-11-19T08:37:09.0000000+00:00</time></trkpt><trkpt lat="31.23134804" lon="34.79486466"><ele>284.8</ele><time>2013-11-19T08:37:14.0000000+00:00</time></trkpt><trkpt lat="31.23156548" lon="34.7947731"><ele>285.8</ele><time>2013-11-19T08:37:19.0000000+00:00</time></trkpt><trkpt lat="31.23174477" lon="34.79472733"><ele>284.9</ele><time>2013-11-19T08:37:24.0000000+00:00</time></trkpt><trkpt lat="31.23178864" lon="34.7945137"><ele>285.1</ele><time>2013-11-19T08:37:29.0000000+00:00</time></trkpt><trkpt lat="31.23175812" lon="34.79427719"><ele>286.0</ele><time>2013-11-19T08:37:34.0000000+00:00</time></trkpt><trkpt lat="31.23172379" lon="34.79405594"><ele>285.1</ele><time>2013-11-19T08:37:39.0000000+00:00</time></trkpt><trkpt lat="31.23174095" lon="34.79385376"><ele>284.3</ele><time>2013-11-19T08:37:44.0000000+00:00</time></trkpt><trkpt lat="31.23189926" lon="34.79377747"><ele>283.9</ele><time>2013-11-19T08:37:49.0000000+00:00</time></trkpt><trkpt lat="31.2320919" lon="34.79370499"><ele>283.2</ele><time>2013-11-19T08:37:54.0000000+00:00</time></trkpt><trkpt lat="31.23217583" lon="34.79344177"><ele>283.4</ele><time>2013-11-19T08:37:59.0000000+00:00</time></trkpt><trkpt lat="31.23215866" lon="34.79313278"><ele>283.6</ele><time>2013-11-19T08:38:04.0000000+00:00</time></trkpt><trkpt lat="31.23217773" lon="34.79280853"><ele>283.2</ele><time>2013-11-19T08:38:09.0000000+00:00</time></trkpt><trkpt lat="31.23217392" lon="34.79249191"><ele>281.6</ele><time>2013-11-19T08:38:14.0000000+00:00</time></trkpt><trkpt lat="31.23217011" lon="34.79218674"><ele>280.8</ele><time>2013-11-19T08:38:19.0000000+00:00</time></trkpt><trkpt lat="31.23216248" lon="34.79190064"><ele>281.8</ele><time>2013-11-19T08:38:24.0000000+00:00</time></trkpt><trkpt lat="31.23215675" lon="34.7916069"><ele>280.6</ele><time>2013-11-19T08:38:29.0000000+00:00</time></trkpt><trkpt lat="31.23214912" lon="34.79132462"><ele>280.2</ele><time>2013-11-19T08:38:34.0000000+00:00</time></trkpt><trkpt lat="31.23224068" lon="34.79122162"><ele>280.3</ele><time>2013-11-19T08:38:39.0000000+00:00</time></trkpt><trkpt lat="31.23241997" lon="34.79124069"><ele>280.8</ele><time>2013-11-19T08:38:44.0000000+00:00</time></trkpt><trkpt lat="31.23263359" lon="34.7912674"><ele>281.6</ele><time>2013-11-19T08:38:49.0000000+00:00</time></trkpt><trkpt lat="31.23285103" lon="34.79125595"><ele>280.5</ele><time>2013-11-19T08:38:54.0000000+00:00</time></trkpt><trkpt lat="31.23300743" lon="34.79124832"><ele>279.4</ele><time>2013-11-19T08:38:59.0000000+00:00</time></trkpt><trkpt lat="31.23310471" lon="34.7912674"><ele>279.8</ele><time>2013-11-19T08:39:04.0000000+00:00</time></trkpt><trkpt lat="31.23310089" lon="34.79127121"><ele>279.8</ele><time>2013-11-19T08:39:09.0000000+00:00</time></trkpt><trkpt lat="31.23310089" lon="34.79127121"><ele>279.9</ele><time>2013-11-19T08:39:14.0000000+00:00</time></trkpt><trkpt lat="31.23310661" lon="34.7912674"><ele>279.7</ele><time>2013-11-19T08:39:19.0000000+00:00</time></trkpt><trkpt lat="31.23310852" lon="34.79126358"><ele>279.6</ele><time>2013-11-19T08:39:24.0000000+00:00</time></trkpt><trkpt lat="31.23311234" lon="34.79125977"><ele>279.4</ele><time>2013-11-19T08:39:29.0000000+00:00</time></trkpt><trkpt lat="31.23312378" lon="34.79127502"><ele>279.8</ele><time>2013-11-19T08:39:34.0000000+00:00</time></trkpt><trkpt lat="31.23312187" lon="34.79127121"><ele>279.6</ele><time>2013-11-19T08:39:39.0000000+00:00</time></trkpt><trkpt lat="31.23312378" lon="34.79127121"><ele>279.4</ele><time>2013-11-19T08:39:44.0000000+00:00</time></trkpt><trkpt lat="31.23313141" lon="34.79127121"><ele>279.1</ele><time>2013-11-19T08:39:49.0000000+00:00</time></trkpt><trkpt lat="31.23311043" lon="34.79125214"><ele>281.7</ele><time>2013-11-19T08:39:54.0000000+00:00</time></trkpt><trkpt lat="31.23305702" lon="34.79125214"><ele>283.1</ele><time>2013-11-19T08:39:59.0000000+00:00</time></trkpt><trkpt lat="31.23297691" lon="34.7912674"><ele>286.1</ele><time>2013-11-19T08:40:04.0000000+00:00</time></trkpt><trkpt lat="31.23291969" lon="34.79128265"><ele>287.3</ele><time>2013-11-19T08:40:09.0000000+00:00</time></trkpt><trkpt lat="31.23283768" lon="34.79128647"><ele>288.8</ele><time>2013-11-19T08:40:14.0000000+00:00</time></trkpt><trkpt lat="31.23275566" lon="34.7912674"><ele>288.5</ele><time>2013-11-19T08:40:19.0000000+00:00</time></trkpt><trkpt lat="31.23267746" lon="34.79127121"><ele>288.3</ele><time>2013-11-19T08:40:24.0000000+00:00</time></trkpt><trkpt lat="31.23258781" lon="34.79125977"><ele>287.8</ele><time>2013-11-19T08:40:29.0000000+00:00</time></trkpt><trkpt lat="31.2325058" lon="34.79122925"><ele>287.1</ele><time>2013-11-19T08:40:34.0000000+00:00</time></trkpt><trkpt lat="31.23228455" lon="34.79114914"><ele>288.7</ele><time>2013-11-19T08:40:39.0000000+00:00</time></trkpt><trkpt lat="31.23218155" lon="34.79115295"><ele>291.2</ele><time>2013-11-19T08:40:44.0000000+00:00</time></trkpt><trkpt lat="31.23208427" lon="34.79114533"><ele>292.5</ele><time>2013-11-19T08:40:49.0000000+00:00</time></trkpt><trkpt lat="31.23197937" lon="34.79114914"><ele>292.8</ele><time>2013-11-19T08:40:54.0000000+00:00</time></trkpt><trkpt lat="31.23186302" lon="34.79115295"><ele>291.6</ele><time>2013-11-19T08:40:59.0000000+00:00</time></trkpt><trkpt lat="31.23179245" lon="34.79116058"><ele>289.3</ele><time>2013-11-19T08:41:04.0000000+00:00</time></trkpt><trkpt lat="31.23170662" lon="34.79117203"><ele>288.4</ele><time>2013-11-19T08:41:09.0000000+00:00</time></trkpt><trkpt lat="31.23162842" lon="34.79119873"><ele>285.6</ele><time>2013-11-19T08:41:14.0000000+00:00</time></trkpt><trkpt lat="31.2315197" lon="34.79120255"><ele>283.8</ele><time>2013-11-19T08:41:19.0000000+00:00</time></trkpt><trkpt lat="31.23143196" lon="34.79123306"><ele>285.1</ele><time>2013-11-19T08:41:24.0000000+00:00</time></trkpt><trkpt lat="31.23133278" lon="34.79125214"><ele>283.6</ele><time>2013-11-19T08:41:29.0000000+00:00</time></trkpt><trkpt lat="31.23122215" lon="34.79127884"><ele>282.1</ele><time>2013-11-19T08:41:34.0000000+00:00</time></trkpt><trkpt lat="31.23108864" lon="34.79126358"><ele>278.1</ele><time>2013-11-19T08:41:39.0000000+00:00</time></trkpt><trkpt lat="31.23100472" lon="34.79127884"><ele>275.3</ele><time>2013-11-19T08:41:44.0000000+00:00</time></trkpt><trkpt lat="31.2308979" lon="34.7912941"><ele>271.2</ele><time>2013-11-19T08:41:49.0000000+00:00</time></trkpt><trkpt lat="31.230793" lon="34.79131699"><ele>270.2</ele><time>2013-11-19T08:41:54.0000000+00:00</time></trkpt><trkpt lat="31.23068619" lon="34.79138565"><ele>268.8</ele><time>2013-11-19T08:41:59.0000000+00:00</time></trkpt><trkpt lat="31.23056793" lon="34.79143906"><ele>266.4</ele><time>2013-11-19T08:42:04.0000000+00:00</time></trkpt><trkpt lat="31.23045158" lon="34.79144287"><ele>265.1</ele><time>2013-11-19T08:42:09.0000000+00:00</time></trkpt><trkpt lat="31.23030663" lon="34.79142761"><ele>268.5</ele><time>2013-11-19T08:42:14.0000000+00:00</time></trkpt><trkpt lat="31.23022461" lon="34.79148483"><ele>266.4</ele><time>2013-11-19T08:42:19.0000000+00:00</time></trkpt><trkpt lat="31.23011208" lon="34.79154205"><ele>263.6</ele><time>2013-11-19T08:42:24.0000000+00:00</time></trkpt><trkpt lat="31.22999191" lon="34.79159927"><ele>262.9</ele><time>2013-11-19T08:42:29.0000000+00:00</time></trkpt><trkpt lat="31.22984886" lon="34.79167175"><ele>262.5</ele><time>2013-11-19T08:42:34.0000000+00:00</time></trkpt><trkpt lat="31.22970581" lon="34.79177094"><ele>260.7</ele><time>2013-11-19T08:42:39.0000000+00:00</time></trkpt><trkpt lat="31.22952461" lon="34.79184723"><ele>259.5</ele><time>2013-11-19T08:42:44.0000000+00:00</time></trkpt><trkpt lat="31.22933769" lon="34.7918663"><ele>256.3</ele><time>2013-11-19T08:42:49.0000000+00:00</time></trkpt><trkpt lat="31.22917366" lon="34.79193878"><ele>256.4</ele><time>2013-11-19T08:42:54.0000000+00:00</time></trkpt><trkpt lat="31.22903824" lon="34.79203415"><ele>258.6</ele><time>2013-11-19T08:42:59.0000000+00:00</time></trkpt><trkpt lat="31.22890854" lon="34.79206848"><ele>261.8</ele><time>2013-11-19T08:43:04.0000000+00:00</time></trkpt><trkpt lat="31.22876358" lon="34.79206848"><ele>257.1</ele><time>2013-11-19T08:43:09.0000000+00:00</time></trkpt><trkpt lat="31.22865105" lon="34.79210663"><ele>255.4</ele><time>2013-11-19T08:43:14.0000000+00:00</time></trkpt><trkpt lat="31.22855759" lon="34.7921257"><ele>254.4</ele><time>2013-11-19T08:43:19.0000000+00:00</time></trkpt><trkpt lat="31.22845078" lon="34.79214859"><ele>252.6</ele><time>2013-11-19T08:43:24.0000000+00:00</time></trkpt><trkpt lat="31.2283535" lon="34.79215622"><ele>255.0</ele><time>2013-11-19T08:43:29.0000000+00:00</time></trkpt><trkpt lat="31.22827148" lon="34.79222488"><ele>257.1</ele><time>2013-11-19T08:43:34.0000000+00:00</time></trkpt><trkpt lat="31.22820664" lon="34.79236984"><ele>258.1</ele><time>2013-11-19T08:43:39.0000000+00:00</time></trkpt><trkpt lat="31.22821426" lon="34.7925911"><ele>263.1</ele><time>2013-11-19T08:43:44.0000000+00:00</time></trkpt><trkpt lat="31.22829056" lon="34.7928009"><ele>267.6</ele><time>2013-11-19T08:43:49.0000000+00:00</time></trkpt><trkpt lat="31.22831535" lon="34.79292297"><ele>272.3</ele><time>2013-11-19T08:43:54.0000000+00:00</time></trkpt><trkpt lat="31.22830772" lon="34.79300308"><ele>275.6</ele><time>2013-11-19T08:43:59.0000000+00:00</time></trkpt><trkpt lat="31.22824669" lon="34.79302979"><ele>276.6</ele><time>2013-11-19T08:44:04.0000000+00:00</time></trkpt><trkpt lat="31.22823906" lon="34.79291916"><ele>275.6</ele><time>2013-11-19T08:44:09.0000000+00:00</time></trkpt><trkpt lat="31.22823525" lon="34.79277802"><ele>274.2</ele><time>2013-11-19T08:44:14.0000000+00:00</time></trkpt><trkpt lat="31.22824097" lon="34.79260254"><ele>272.9</ele><time>2013-11-19T08:44:19.0000000+00:00</time></trkpt><trkpt lat="31.22820282" lon="34.79250336"><ele>272.0</ele><time>2013-11-19T08:44:24.0000000+00:00</time></trkpt><trkpt lat="31.22821617" lon="34.79243088"><ele>271.8</ele><time>2013-11-19T08:44:29.0000000+00:00</time></trkpt><trkpt lat="31.22826958" lon="34.79228973"><ele>271.9</ele><time>2013-11-19T08:44:34.0000000+00:00</time></trkpt><trkpt lat="31.22821426" lon="34.79211044"><ele>270.0</ele><time>2013-11-19T08:44:39.0000000+00:00</time></trkpt><trkpt lat="31.22808647" lon="34.79188538"><ele>265.6</ele><time>2013-11-19T08:44:44.0000000+00:00</time></trkpt><trkpt lat="31.22796822" lon="34.79161835"><ele>263.1</ele><time>2013-11-19T08:44:49.0000000+00:00</time></trkpt><trkpt lat="31.22791481" lon="34.79130173"><ele>259.4</ele><time>2013-11-19T08:44:54.0000000+00:00</time></trkpt><trkpt lat="31.22792053" lon="34.791008"><ele>256.6</ele><time>2013-11-19T08:44:59.0000000+00:00</time></trkpt><trkpt lat="31.22783279" lon="34.790802"><ele>254.4</ele><time>2013-11-19T08:45:04.0000000+00:00</time></trkpt><trkpt lat="31.22774506" lon="34.79073334"><ele>251.3</ele><time>2013-11-19T08:45:09.0000000+00:00</time></trkpt><trkpt lat="31.22767448" lon="34.79078674"><ele>249.0</ele><time>2013-11-19T08:45:14.0000000+00:00</time></trkpt><trkpt lat="31.22765923" lon="34.79094315"><ele>247.7</ele><time>2013-11-19T08:45:19.0000000+00:00</time></trkpt><trkpt lat="31.22763825" lon="34.79112244"><ele>246.9</ele><time>2013-11-19T08:45:24.0000000+00:00</time></trkpt><trkpt lat="31.22758484" lon="34.79133987"><ele>245.8</ele><time>2013-11-19T08:45:29.0000000+00:00</time></trkpt><trkpt lat="31.22757149" lon="34.79154968"><ele>244.6</ele><time>2013-11-19T08:45:34.0000000+00:00</time></trkpt><trkpt lat="31.22753143" lon="34.79178238"><ele>243.5</ele><time>2013-11-19T08:45:39.0000000+00:00</time></trkpt><trkpt lat="31.22754097" lon="34.79202652"><ele>242.1</ele><time>2013-11-19T08:45:44.0000000+00:00</time></trkpt><trkpt lat="31.2275238" lon="34.79227066"><ele>240.9</ele><time>2013-11-19T08:45:49.0000000+00:00</time></trkpt><trkpt lat="31.22749329" lon="34.79250717"><ele>239.1</ele><time>2013-11-19T08:45:54.0000000+00:00</time></trkpt><trkpt lat="31.2274971" lon="34.79275131"><ele>237.9</ele><time>2013-11-19T08:45:59.0000000+00:00</time></trkpt><trkpt lat="31.22747803" lon="34.79299927"><ele>236.5</ele><time>2013-11-19T08:46:04.0000000+00:00</time></trkpt><trkpt lat="31.22748184" lon="34.79326248"><ele>235.7</ele><time>2013-11-19T08:46:09.0000000+00:00</time></trkpt><trkpt lat="31.22749329" lon="34.79348755"><ele>234.9</ele><time>2013-11-19T08:46:14.0000000+00:00</time></trkpt><trkpt lat="31.22746277" lon="34.79371643"><ele>234.7</ele><time>2013-11-19T08:46:19.0000000+00:00</time></trkpt><trkpt lat="31.22746277" lon="34.79396057"><ele>234.4</ele><time>2013-11-19T08:46:24.0000000+00:00</time></trkpt><trkpt lat="31.22744751" lon="34.79421997"><ele>234.3</ele><time>2013-11-19T08:46:29.0000000+00:00</time></trkpt><trkpt lat="31.22742462" lon="34.79444885"><ele>234.5</ele><time>2013-11-19T08:46:34.0000000+00:00</time></trkpt><trkpt lat="31.22739029" lon="34.79467773"><ele>234.7</ele><time>2013-11-19T08:46:39.0000000+00:00</time></trkpt><trkpt lat="31.22737885" lon="34.79483795"><ele>234.3</ele><time>2013-11-19T08:46:44.0000000+00:00</time></trkpt><trkpt lat="31.22739792" lon="34.79502106"><ele>234.4</ele><time>2013-11-19T08:46:49.0000000+00:00</time></trkpt><trkpt lat="31.22740555" lon="34.79524612"><ele>234.8</ele><time>2013-11-19T08:46:54.0000000+00:00</time></trkpt><trkpt lat="31.22737312" lon="34.79548645"><ele>234.6</ele><time>2013-11-19T08:46:59.0000000+00:00</time></trkpt><trkpt lat="31.22734642" lon="34.79574966"><ele>233.9</ele><time>2013-11-19T08:47:04.0000000+00:00</time></trkpt><trkpt lat="31.227314" lon="34.79598999"><ele>234.5</ele><time>2013-11-19T08:47:09.0000000+00:00</time></trkpt><trkpt lat="31.22730255" lon="34.79624176"><ele>234.1</ele><time>2013-11-19T08:47:14.0000000+00:00</time></trkpt><trkpt lat="31.22732735" lon="34.79650116"><ele>235.1</ele><time>2013-11-19T08:47:19.0000000+00:00</time></trkpt><trkpt lat="31.2273407" lon="34.79674149"><ele>235.5</ele><time>2013-11-19T08:47:24.0000000+00:00</time></trkpt><trkpt lat="31.22732925" lon="34.79689026"><ele>232.9</ele><time>2013-11-19T08:47:29.0000000+00:00</time></trkpt><trkpt lat="31.22733879" lon="34.79698563"><ele>232.8</ele><time>2013-11-19T08:47:34.0000000+00:00</time></trkpt><trkpt lat="31.2273407" lon="34.79710007"><ele>231.6</ele><time>2013-11-19T08:47:39.0000000+00:00</time></trkpt><trkpt lat="31.22735024" lon="34.79720306"><ele>232.1</ele><time>2013-11-19T08:47:44.0000000+00:00</time></trkpt><trkpt lat="31.22734451" lon="34.79727936"><ele>231.7</ele><time>2013-11-19T08:47:49.0000000+00:00</time></trkpt><trkpt lat="31.22737503" lon="34.79738998"><ele>232.2</ele><time>2013-11-19T08:47:54.0000000+00:00</time></trkpt><trkpt lat="31.22745895" lon="34.79747772"><ele>232.7</ele><time>2013-11-19T08:47:59.0000000+00:00</time></trkpt><trkpt lat="31.22756577" lon="34.79750824"><ele>233.8</ele><time>2013-11-19T08:48:04.0000000+00:00</time></trkpt><trkpt lat="31.22763062" lon="34.79751968"><ele>234.7</ele><time>2013-11-19T08:48:09.0000000+00:00</time></trkpt><trkpt lat="31.22754669" lon="34.79756165"><ele>234.0</ele><time>2013-11-19T08:48:14.0000000+00:00</time></trkpt><trkpt lat="31.22734833" lon="34.79758453"><ele>230.5</ele><time>2013-11-19T08:48:19.0000000+00:00</time></trkpt><trkpt lat="31.22709656" lon="34.79759216"><ele>228.8</ele><time>2013-11-19T08:48:24.0000000+00:00</time></trkpt><trkpt lat="31.22685432" lon="34.79759598"><ele>229.8</ele><time>2013-11-19T08:48:29.0000000+00:00</time></trkpt><trkpt lat="31.2266407" lon="34.79761124"><ele>229.9</ele><time>2013-11-19T08:48:34.0000000+00:00</time></trkpt><trkpt lat="31.22643471" lon="34.79764557"><ele>230.7</ele><time>2013-11-19T08:48:39.0000000+00:00</time></trkpt><trkpt lat="31.22622871" lon="34.79768372"><ele>231.1</ele><time>2013-11-19T08:48:44.0000000+00:00</time></trkpt><trkpt lat="31.22599793" lon="34.79772568"><ele>230.9</ele><time>2013-11-19T08:48:49.0000000+00:00</time></trkpt><trkpt lat="31.22577477" lon="34.79776001"><ele>231.4</ele><time>2013-11-19T08:48:54.0000000+00:00</time></trkpt><trkpt lat="31.22555924" lon="34.79779053"><ele>231.8</ele><time>2013-11-19T08:48:59.0000000+00:00</time></trkpt><trkpt lat="31.22541046" lon="34.79784393"><ele>232.1</ele><time>2013-11-19T08:49:04.0000000+00:00</time></trkpt><trkpt lat="31.22525597" lon="34.7978859"><ele>232.9</ele><time>2013-11-19T08:49:09.0000000+00:00</time></trkpt><trkpt lat="31.22508431" lon="34.79797745"><ele>234.6</ele><time>2013-11-19T08:49:14.0000000+00:00</time></trkpt><trkpt lat="31.22487068" lon="34.79805374"><ele>233.6</ele><time>2013-11-19T08:49:19.0000000+00:00</time></trkpt><trkpt lat="31.22464371" lon="34.79811859"><ele>231.6</ele><time>2013-11-19T08:49:24.0000000+00:00</time></trkpt><trkpt lat="31.22442818" lon="34.79821014"><ele>230.4</ele><time>2013-11-19T08:49:29.0000000+00:00</time></trkpt><trkpt lat="31.22422218" lon="34.79833221"><ele>229.6</ele><time>2013-11-19T08:49:34.0000000+00:00</time></trkpt><trkpt lat="31.22400284" lon="34.79838562"><ele>229.0</ele><time>2013-11-19T08:49:39.0000000+00:00</time></trkpt><trkpt lat="31.22383118" lon="34.7984581"><ele>229.0</ele><time>2013-11-19T08:49:44.0000000+00:00</time></trkpt><trkpt lat="31.22365379" lon="34.79851914"><ele>229.8</ele><time>2013-11-19T08:49:49.0000000+00:00</time></trkpt><trkpt lat="31.22350121" lon="34.79856491"><ele>231.1</ele><time>2013-11-19T08:49:54.0000000+00:00</time></trkpt><trkpt lat="31.22339821" lon="34.79865265"><ele>233.0</ele><time>2013-11-19T08:49:59.0000000+00:00</time></trkpt><trkpt lat="31.22333336" lon="34.79869461"><ele>235.5</ele><time>2013-11-19T08:50:04.0000000+00:00</time></trkpt><trkpt lat="31.22328949" lon="34.79873276"><ele>237.7</ele><time>2013-11-19T08:50:09.0000000+00:00</time></trkpt><trkpt lat="31.22331619" lon="34.79883194"><ele>239.6</ele><time>2013-11-19T08:50:14.0000000+00:00</time></trkpt><trkpt lat="31.22335434" lon="34.79892731"><ele>242.8</ele><time>2013-11-19T08:50:19.0000000+00:00</time></trkpt><trkpt lat="31.2233963" lon="34.79904556"><ele>245.6</ele><time>2013-11-19T08:50:24.0000000+00:00</time></trkpt><trkpt lat="31.22344971" lon="34.79920578"><ele>246.9</ele><time>2013-11-19T08:50:29.0000000+00:00</time></trkpt><trkpt lat="31.22347641" lon="34.79928589"><ele>246.6</ele><time>2013-11-19T08:50:34.0000000+00:00</time></trkpt><trkpt lat="31.22347832" lon="34.79931259"><ele>245.4</ele><time>2013-11-19T08:50:39.0000000+00:00</time></trkpt><trkpt lat="31.22346878" lon="34.79932785"><ele>245.1</ele><time>2013-11-19T08:50:44.0000000+00:00</time></trkpt><trkpt lat="31.22346115" lon="34.79935455"><ele>245.3</ele><time>2013-11-19T08:50:49.0000000+00:00</time></trkpt><trkpt lat="31.22349548" lon="34.79953003"><ele>246.0</ele><time>2013-11-19T08:50:54.0000000+00:00</time></trkpt><trkpt lat="31.22358131" lon="34.79975128"><ele>246.7</ele><time>2013-11-19T08:50:59.0000000+00:00</time></trkpt><trkpt lat="31.22359848" lon="34.79989624"><ele>247.1</ele><time>2013-11-19T08:51:04.0000000+00:00</time></trkpt><trkpt lat="31.22348213" lon="34.79993439"><ele>248.9</ele><time>2013-11-19T08:51:09.0000000+00:00</time></trkpt><trkpt lat="31.22332573" lon="34.79997253"><ele>249.9</ele><time>2013-11-19T08:51:14.0000000+00:00</time></trkpt><trkpt lat="31.22311211" lon="34.79999542"><ele>252.2</ele><time>2013-11-19T08:51:19.0000000+00:00</time></trkpt><trkpt lat="31.22292709" lon="34.80006027"><ele>253.6</ele><time>2013-11-19T08:51:24.0000000+00:00</time></trkpt><trkpt lat="31.22271538" lon="34.80012512"><ele>255.3</ele><time>2013-11-19T08:51:29.0000000+00:00</time></trkpt><trkpt lat="31.22250748" lon="34.8001976"><ele>257.4</ele><time>2013-11-19T08:51:34.0000000+00:00</time></trkpt><trkpt lat="31.22231293" lon="34.80025482"><ele>260.0</ele><time>2013-11-19T08:51:39.0000000+00:00</time></trkpt><trkpt lat="31.2220993" lon="34.80034256"><ele>262.4</ele><time>2013-11-19T08:51:44.0000000+00:00</time></trkpt><trkpt lat="31.22189903" lon="34.80043411"><ele>264.8</ele><time>2013-11-19T08:51:49.0000000+00:00</time></trkpt><trkpt lat="31.22172165" lon="34.80046463"><ele>266.9</ele><time>2013-11-19T08:51:54.0000000+00:00</time></trkpt><trkpt lat="31.22153854" lon="34.80054092"><ele>268.2</ele><time>2013-11-19T08:51:59.0000000+00:00</time></trkpt><trkpt lat="31.22135735" lon="34.80058289"><ele>269.6</ele><time>2013-11-19T08:52:04.0000000+00:00</time></trkpt><trkpt lat="31.22118759" lon="34.80067825"><ele>270.3</ele><time>2013-11-19T08:52:09.0000000+00:00</time></trkpt><trkpt lat="31.22104454" lon="34.80083084"><ele>268.0</ele><time>2013-11-19T08:52:14.0000000+00:00</time></trkpt><trkpt lat="31.22110367" lon="34.80110931"><ele>267.1</ele><time>2013-11-19T08:52:19.0000000+00:00</time></trkpt><trkpt lat="31.22118759" lon="34.80138016"><ele>267.3</ele><time>2013-11-19T08:52:24.0000000+00:00</time></trkpt><trkpt lat="31.22107697" lon="34.80155182"><ele>267.0</ele><time>2013-11-19T08:52:29.0000000+00:00</time></trkpt><trkpt lat="31.22084999" lon="34.80161667"><ele>264.2</ele><time>2013-11-19T08:52:34.0000000+00:00</time></trkpt><trkpt lat="31.22061157" lon="34.80168533"><ele>263.6</ele><time>2013-11-19T08:52:39.0000000+00:00</time></trkpt><trkpt lat="31.22039986" lon="34.80175781"><ele>262.3</ele><time>2013-11-19T08:52:44.0000000+00:00</time></trkpt><trkpt lat="31.22020149" lon="34.8017807"><ele>259.3</ele><time>2013-11-19T08:52:49.0000000+00:00</time></trkpt><trkpt lat="31.22010994" lon="34.80177307"><ele>258.6</ele><time>2013-11-19T08:52:54.0000000+00:00</time></trkpt><trkpt lat="31.22008324" lon="34.80191422"><ele>256.3</ele><time>2013-11-19T08:52:59.0000000+00:00</time></trkpt><trkpt lat="31.22009468" lon="34.80212021"><ele>253.9</ele><time>2013-11-19T08:53:04.0000000+00:00</time></trkpt><trkpt lat="31.22009087" lon="34.80234528"><ele>252.5</ele><time>2013-11-19T08:53:09.0000000+00:00</time></trkpt><trkpt lat="31.22011375" lon="34.80255127"><ele>250.7</ele><time>2013-11-19T08:53:14.0000000+00:00</time></trkpt><trkpt lat="31.22010803" lon="34.80277252"><ele>248.2</ele><time>2013-11-19T08:53:19.0000000+00:00</time></trkpt><trkpt lat="31.22008896" lon="34.80297089"><ele>246.6</ele><time>2013-11-19T08:53:24.0000000+00:00</time></trkpt><trkpt lat="31.22006035" lon="34.80311203"><ele>242.2</ele><time>2013-11-19T08:53:29.0000000+00:00</time></trkpt><trkpt lat="31.22013092" lon="34.80335999"><ele>241.6</ele><time>2013-11-19T08:53:34.0000000+00:00</time></trkpt><trkpt lat="31.22018814" lon="34.80361939"><ele>242.6</ele><time>2013-11-19T08:53:39.0000000+00:00</time></trkpt><trkpt lat="31.22018814" lon="34.80382538"><ele>241.6</ele><time>2013-11-19T08:53:44.0000000+00:00</time></trkpt><trkpt lat="31.22016716" lon="34.80404663"><ele>241.1</ele><time>2013-11-19T08:53:49.0000000+00:00</time></trkpt><trkpt lat="31.22015572" lon="34.80424881"><ele>238.6</ele><time>2013-11-19T08:53:54.0000000+00:00</time></trkpt><trkpt lat="31.22014046" lon="34.8043747"><ele>239.3</ele><time>2013-11-19T08:53:59.0000000+00:00</time></trkpt><trkpt lat="31.22012901" lon="34.80446625"><ele>239.6</ele><time>2013-11-19T08:54:04.0000000+00:00</time></trkpt><trkpt lat="31.22015762" lon="34.80448914"><ele>240.1</ele><time>2013-11-19T08:54:09.0000000+00:00</time></trkpt><trkpt lat="31.22015572" lon="34.80448914"><ele>239.9</ele><time>2013-11-19T08:54:14.0000000+00:00</time></trkpt><trkpt lat="31.22015762" lon="34.80448914"><ele>239.9</ele><time>2013-11-19T08:54:19.0000000+00:00</time></trkpt><trkpt lat="31.22015762" lon="34.80448914"><ele>240.0</ele><time>2013-11-19T08:54:24.0000000+00:00</time></trkpt><trkpt lat="31.22015572" lon="34.80448914"><ele>240.0</ele><time>2013-11-19T08:54:29.0000000+00:00</time></trkpt><trkpt lat="31.22015572" lon="34.80448914"><ele>239.9</ele><time>2013-11-19T08:54:34.0000000+00:00</time></trkpt><trkpt lat="31.22015572" lon="34.80449295"><ele>239.8</ele><time>2013-11-19T08:54:39.0000000+00:00</time></trkpt><trkpt lat="31.22015572" lon="34.80449295"><ele>239.8</ele><time>2013-11-19T08:54:44.0000000+00:00</time></trkpt><trkpt lat="31.22015762" lon="34.80449295"><ele>239.8</ele><time>2013-11-19T08:54:49.0000000+00:00</time></trkpt><trkpt lat="31.22015762" lon="34.80449295"><ele>239.7</ele><time>2013-11-19T08:54:54.0000000+00:00</time></trkpt><trkpt lat="31.22015762" lon="34.80449295"><ele>239.7</ele><time>2013-11-19T08:54:59.0000000+00:00</time></trkpt><trkpt lat="31.22015762" lon="34.80449295"><ele>239.7</ele><time>2013-11-19T08:55:04.0000000+00:00</time></trkpt><trkpt lat="31.22015953" lon="34.80449295"><ele>239.8</ele><time>2013-11-19T08:55:09.0000000+00:00</time></trkpt><trkpt lat="31.22015953" lon="34.80449295"><ele>239.8</ele><time>2013-11-19T08:55:14.0000000+00:00</time></trkpt><trkpt lat="31.22015953" lon="34.80449295"><ele>239.7</ele><time>2013-11-19T08:55:19.0000000+00:00</time></trkpt><trkpt lat="31.22015953" lon="34.80449295"><ele>239.7</ele><time>2013-11-19T08:55:24.0000000+00:00</time></trkpt><trkpt lat="31.22015953" lon="34.80449295"><ele>239.7</ele><time>2013-11-19T08:55:29.0000000+00:00</time></trkpt><trkpt lat="31.22016144" lon="34.80449295"><ele>239.7</ele><time>2013-11-19T08:55:34.0000000+00:00</time></trkpt><trkpt lat="31.22016144" lon="34.80449295"><ele>239.7</ele><time>2013-11-19T08:55:39.0000000+00:00</time></trkpt><trkpt lat="31.22024727" lon="34.80448532"><ele>240.2</ele><time>2013-11-19T08:55:44.0000000+00:00</time></trkpt><trkpt lat="31.2203579" lon="34.80446625"><ele>241.8</ele><time>2013-11-19T08:55:49.0000000+00:00</time></trkpt><trkpt lat="31.22046089" lon="34.80443573"><ele>244.9</ele><time>2013-11-19T08:55:54.0000000+00:00</time></trkpt><trkpt lat="31.22054482" lon="34.80443955"><ele>245.7</ele><time>2013-11-19T08:55:59.0000000+00:00</time></trkpt><trkpt lat="31.22055817" lon="34.80444717"><ele>247.4</ele><time>2013-11-19T08:56:04.0000000+00:00</time></trkpt><trkpt lat="31.22055626" lon="34.80444336"><ele>246.8</ele><time>2013-11-19T08:56:09.0000000+00:00</time></trkpt><trkpt lat="31.22055435" lon="34.80444336"><ele>246.2</ele><time>2013-11-19T08:56:14.0000000+00:00</time></trkpt><trkpt lat="31.22055244" lon="34.80443955"><ele>245.6</ele><time>2013-11-19T08:56:19.0000000+00:00</time></trkpt><trkpt lat="31.22055054" lon="34.80443955"><ele>245.1</ele><time>2013-11-19T08:56:24.0000000+00:00</time></trkpt><trkpt lat="31.22054863" lon="34.80443573"><ele>244.6</ele><time>2013-11-19T08:56:29.0000000+00:00</time></trkpt><trkpt lat="31.22054672" lon="34.80443573"><ele>244.3</ele><time>2013-11-19T08:56:34.0000000+00:00</time></trkpt><trkpt lat="31.22054672" lon="34.80443573"><ele>244.4</ele><time>2013-11-19T08:56:39.0000000+00:00</time></trkpt><trkpt lat="31.22054672" lon="34.80443573"><ele>244.4</ele><time>2013-11-19T08:56:44.0000000+00:00</time></trkpt><trkpt lat="31.22054672" lon="34.80443573"><ele>244.5</ele><time>2013-11-19T08:56:49.0000000+00:00</time></trkpt><trkpt lat="31.22054672" lon="34.80443573"><ele>244.6</ele><time>2013-11-19T08:56:54.0000000+00:00</time></trkpt><trkpt lat="31.22054672" lon="34.80443573"><ele>244.7</ele><time>2013-11-19T08:56:59.0000000+00:00</time></trkpt><trkpt lat="31.22054672" lon="34.80443573"><ele>244.8</ele><time>2013-11-19T08:57:04.0000000+00:00</time></trkpt><trkpt lat="31.22054672" lon="34.80443573"><ele>244.9</ele><time>2013-11-19T08:57:09.0000000+00:00</time></trkpt><trkpt lat="31.22054863" lon="34.80443573"><ele>245.0</ele><time>2013-11-19T08:57:14.0000000+00:00</time></trkpt><trkpt lat="31.22054863" lon="34.80443573"><ele>245.2</ele><time>2013-11-19T08:57:19.0000000+00:00</time></trkpt><trkpt lat="31.22054863" lon="34.80443573"><ele>245.3</ele><time>2013-11-19T08:57:24.0000000+00:00</time></trkpt><trkpt lat="31.22054863" lon="34.80443573"><ele>245.3</ele><time>2013-11-19T08:57:29.0000000+00:00</time></trkpt><trkpt lat="31.22054863" lon="34.80443573"><ele>245.3</ele><time>2013-11-19T08:57:34.0000000+00:00</time></trkpt><trkpt lat="31.22054863" lon="34.80443573"><ele>245.4</ele><time>2013-11-19T08:57:39.0000000+00:00</time></trkpt><trkpt lat="31.22054863" lon="34.80443573"><ele>245.4</ele><time>2013-11-19T08:57:44.0000000+00:00</time></trkpt><trkpt lat="31.22054863" lon="34.80443573"><ele>245.5</ele><time>2013-11-19T08:57:49.0000000+00:00</time></trkpt><trkpt lat="31.22054863" lon="34.80443573"><ele>245.6</ele><time>2013-11-19T08:57:54.0000000+00:00</time></trkpt><trkpt lat="31.22054863" lon="34.80443573"><ele>245.7</ele><time>2013-11-19T08:57:59.0000000+00:00</time></trkpt><trkpt lat="31.22054863" lon="34.80443573"><ele>245.8</ele><time>2013-11-19T08:58:04.0000000+00:00</time></trkpt><trkpt lat="31.22054863" lon="34.80443573"><ele>245.9</ele><time>2013-11-19T08:58:09.0000000+00:00</time></trkpt><trkpt lat="31.22054863" lon="34.80443573"><ele>246.0</ele><time>2013-11-19T08:58:14.0000000+00:00</time></trkpt><trkpt lat="31.22054863" lon="34.80443573"><ele>246.0</ele><time>2013-11-19T08:58:19.0000000+00:00</time></trkpt><trkpt lat="31.22054863" lon="34.80443573"><ele>246.0</ele><time>2013-11-19T08:58:24.0000000+00:00</time></trkpt><trkpt lat="31.22054863" lon="34.80443573"><ele>246.1</ele><time>2013-11-19T08:58:29.0000000+00:00</time></trkpt><trkpt lat="31.22054863" lon="34.80443573"><ele>246.1</ele><time>2013-11-19T08:58:34.0000000+00:00</time></trkpt><trkpt lat="31.22054863" lon="34.80443573"><ele>246.2</ele><time>2013-11-19T08:58:39.0000000+00:00</time></trkpt><trkpt lat="31.22054863" lon="34.80443573"><ele>246.3</ele><time>2013-11-19T08:58:44.0000000+00:00</time></trkpt><trkpt lat="31.22054863" lon="34.80443573"><ele>246.5</ele><time>2013-11-19T08:58:49.0000000+00:00</time></trkpt><trkpt lat="31.22054863" lon="34.80444336"><ele>247.4</ele><time>2013-11-19T08:58:54.0000000+00:00</time></trkpt><trkpt lat="31.22054863" lon="34.80444336"><ele>247.4</ele><time>2013-11-19T08:58:59.0000000+00:00</time></trkpt><trkpt lat="31.22054863" lon="34.80444336"><ele>247.4</ele><time>2013-11-19T08:59:04.0000000+00:00</time></trkpt><trkpt lat="31.22054863" lon="34.80444336"><ele>247.4</ele><time>2013-11-19T08:59:09.0000000+00:00</time></trkpt><trkpt lat="31.22054863" lon="34.80444336"><ele>247.5</ele><time>2013-11-19T08:59:14.0000000+00:00</time></trkpt><trkpt lat="31.22054863" lon="34.80444717"><ele>247.5</ele><time>2013-11-19T08:59:19.0000000+00:00</time></trkpt><trkpt lat="31.22055054" lon="34.80444717"><ele>247.6</ele><time>2013-11-19T08:59:24.0000000+00:00</time></trkpt><trkpt lat="31.22055054" lon="34.80444717"><ele>247.6</ele><time>2013-11-19T08:59:29.0000000+00:00</time></trkpt><trkpt lat="31.22055054" lon="34.80444717"><ele>247.6</ele><time>2013-11-19T08:59:34.0000000+00:00</time></trkpt><trkpt lat="31.22055054" lon="34.80444717"><ele>247.6</ele><time>2013-11-19T08:59:39.0000000+00:00</time></trkpt><trkpt lat="31.22055054" lon="34.80444717"><ele>247.6</ele><time>2013-11-19T08:59:44.0000000+00:00</time></trkpt><trkpt lat="31.22055054" lon="34.80444717"><ele>247.7</ele><time>2013-11-19T08:59:49.0000000+00:00</time></trkpt><trkpt lat="31.22055054" lon="34.80444717"><ele>247.7</ele><time>2013-11-19T08:59:54.0000000+00:00</time></trkpt><trkpt lat="31.22055054" lon="34.80444717"><ele>247.8</ele><time>2013-11-19T08:59:59.0000000+00:00</time></trkpt><trkpt lat="31.22055054" lon="34.80444717"><ele>247.8</ele><time>2013-11-19T09:00:04.0000000+00:00</time></trkpt><trkpt lat="31.22055054" lon="34.80444717"><ele>247.8</ele><time>2013-11-19T09:00:09.0000000+00:00</time></trkpt><trkpt lat="31.22055244" lon="34.80444717"><ele>247.9</ele><time>2013-11-19T09:00:14.0000000+00:00</time></trkpt><trkpt lat="31.22055244" lon="34.80445099"><ele>247.9</ele><time>2013-11-19T09:00:19.0000000+00:00</time></trkpt><trkpt lat="31.22055244" lon="34.80445099"><ele>247.9</ele><time>2013-11-19T09:00:24.0000000+00:00</time></trkpt><trkpt lat="31.22055244" lon="34.80445099"><ele>247.9</ele><time>2013-11-19T09:00:29.0000000+00:00</time></trkpt><trkpt lat="31.22055244" lon="34.80445099"><ele>247.9</ele><time>2013-11-19T09:00:34.0000000+00:00</time></trkpt><trkpt lat="31.22055244" lon="34.80445099"><ele>248.0</ele><time>2013-11-19T09:00:39.0000000+00:00</time></trkpt><trkpt lat="31.22055244" lon="34.80445099"><ele>248.0</ele><time>2013-11-19T09:00:44.0000000+00:00</time></trkpt><trkpt lat="31.22055244" lon="34.80445099"><ele>248.0</ele><time>2013-11-19T09:00:49.0000000+00:00</time></trkpt><trkpt lat="31.22055244" lon="34.80445099"><ele>248.0</ele><time>2013-11-19T09:00:54.0000000+00:00</time></trkpt><trkpt lat="31.22055244" lon="34.80445099"><ele>248.0</ele><time>2013-11-19T09:00:59.0000000+00:00</time></trkpt><trkpt lat="31.22055244" lon="34.80445099"><ele>248.0</ele><time>2013-11-19T09:01:04.0000000+00:00</time></trkpt><trkpt lat="31.22055435" lon="34.80445099"><ele>248.0</ele><time>2013-11-19T09:01:09.0000000+00:00</time></trkpt><trkpt lat="31.22055435" lon="34.80445099"><ele>248.0</ele><time>2013-11-19T09:01:14.0000000+00:00</time></trkpt><trkpt lat="31.22055435" lon="34.80445099"><ele>248.1</ele><time>2013-11-19T09:01:19.0000000+00:00</time></trkpt><trkpt lat="31.22055626" lon="34.80445099"><ele>248.0</ele><time>2013-11-19T09:01:24.0000000+00:00</time></trkpt><trkpt lat="31.22074699" lon="34.80443192"><ele>248.9</ele><time>2013-11-19T09:01:29.0000000+00:00</time></trkpt><trkpt lat="31.22095108" lon="34.80440521"><ele>253.3</ele><time>2013-11-19T09:01:34.0000000+00:00</time></trkpt><trkpt lat="31.22113419" lon="34.8043747"><ele>252.0</ele><time>2013-11-19T09:01:39.0000000+00:00</time></trkpt><trkpt lat="31.22127342" lon="34.80437088"><ele>252.5</ele><time>2013-11-19T09:01:44.0000000+00:00</time></trkpt><trkpt lat="31.22129059" lon="34.80437088"><ele>253.5</ele><time>2013-11-19T09:01:49.0000000+00:00</time></trkpt><trkpt lat="31.22129059" lon="34.80436707"><ele>253.4</ele><time>2013-11-19T09:01:54.0000000+00:00</time></trkpt><trkpt lat="31.22129059" lon="34.80437088"><ele>253.5</ele><time>2013-11-19T09:01:59.0000000+00:00</time></trkpt><trkpt lat="31.2212925" lon="34.80437088"><ele>253.6</ele><time>2013-11-19T09:02:04.0000000+00:00</time></trkpt><trkpt lat="31.2212925" lon="34.80437088"><ele>253.6</ele><time>2013-11-19T09:02:09.0000000+00:00</time></trkpt><trkpt lat="31.2212925" lon="34.80437088"><ele>253.6</ele><time>2013-11-19T09:02:14.0000000+00:00</time></trkpt><trkpt lat="31.2212925" lon="34.80437088"><ele>253.6</ele><time>2013-11-19T09:02:19.0000000+00:00</time></trkpt><trkpt lat="31.2212925" lon="34.80437088"><ele>253.7</ele><time>2013-11-19T09:02:24.0000000+00:00</time></trkpt><trkpt lat="31.2212925" lon="34.80437088"><ele>253.7</ele><time>2013-11-19T09:02:29.0000000+00:00</time></trkpt><trkpt lat="31.2212925" lon="34.80437088"><ele>253.7</ele><time>2013-11-19T09:02:34.0000000+00:00</time></trkpt><trkpt lat="31.2212925" lon="34.80437088"><ele>253.7</ele><time>2013-11-19T09:02:39.0000000+00:00</time></trkpt><trkpt lat="31.2212925" lon="34.80437088"><ele>253.7</ele><time>2013-11-19T09:02:44.0000000+00:00</time></trkpt><trkpt lat="31.2212925" lon="34.80437088"><ele>253.8</ele><time>2013-11-19T09:02:49.0000000+00:00</time></trkpt><trkpt lat="31.2212925" lon="34.80437088"><ele>253.8</ele><time>2013-11-19T09:02:54.0000000+00:00</time></trkpt><trkpt lat="31.2212944" lon="34.80437088"><ele>253.8</ele><time>2013-11-19T09:02:59.0000000+00:00</time></trkpt><trkpt lat="31.2212944" lon="34.80437088"><ele>253.8</ele><time>2013-11-19T09:03:04.0000000+00:00</time></trkpt><trkpt lat="31.2212944" lon="34.80437088"><ele>253.8</ele><time>2013-11-19T09:03:09.0000000+00:00</time></trkpt><trkpt lat="31.22138596" lon="34.8043747"><ele>254.9</ele><time>2013-11-19T09:03:14.0000000+00:00</time></trkpt><trkpt lat="31.22151756" lon="34.80436707"><ele>256.3</ele><time>2013-11-19T09:03:19.0000000+00:00</time></trkpt><trkpt lat="31.22163773" lon="34.80428696"><ele>257.4</ele><time>2013-11-19T09:03:24.0000000+00:00</time></trkpt><trkpt lat="31.22168541" lon="34.80417633"><ele>259.4</ele><time>2013-11-19T09:03:29.0000000+00:00</time></trkpt><trkpt lat="31.22171593" lon="34.80408478"><ele>259.2</ele><time>2013-11-19T09:03:34.0000000+00:00</time></trkpt><trkpt lat="31.2217865" lon="34.80400848"><ele>259.0</ele><time>2013-11-19T09:03:39.0000000+00:00</time></trkpt><trkpt lat="31.22190476" lon="34.80397415"><ele>260.0</ele><time>2013-11-19T09:03:44.0000000+00:00</time></trkpt><trkpt lat="31.22204399" lon="34.80395889"><ele>260.6</ele><time>2013-11-19T09:03:49.0000000+00:00</time></trkpt><trkpt lat="31.22223091" lon="34.80393601"><ele>261.3</ele><time>2013-11-19T09:03:54.0000000+00:00</time></trkpt><trkpt lat="31.22241783" lon="34.80389404"><ele>261.8</ele><time>2013-11-19T09:03:59.0000000+00:00</time></trkpt><trkpt lat="31.22258186" lon="34.80385208"><ele>264.0</ele><time>2013-11-19T09:04:04.0000000+00:00</time></trkpt><trkpt lat="31.22268295" lon="34.80381012"><ele>266.7</ele><time>2013-11-19T09:04:09.0000000+00:00</time></trkpt><trkpt lat="31.22268486" lon="34.80368042"><ele>265.1</ele><time>2013-11-19T09:04:14.0000000+00:00</time></trkpt><trkpt lat="31.22269821" lon="34.80360031"><ele>262.4</ele><time>2013-11-19T09:04:19.0000000+00:00</time></trkpt><trkpt lat="31.22264481" lon="34.80358505"><ele>261.6</ele><time>2013-11-19T09:04:24.0000000+00:00</time></trkpt><trkpt lat="31.22261047" lon="34.80358124"><ele>262.1</ele><time>2013-11-19T09:04:29.0000000+00:00</time></trkpt><trkpt lat="31.22259903" lon="34.80352402"><ele>261.9</ele><time>2013-11-19T09:04:34.0000000+00:00</time></trkpt><trkpt lat="31.22257805" lon="34.80347443"><ele>261.4</ele><time>2013-11-19T09:04:39.0000000+00:00</time></trkpt><trkpt lat="31.22257996" lon="34.80345917"><ele>260.7</ele><time>2013-11-19T09:04:44.0000000+00:00</time></trkpt><trkpt lat="31.22257805" lon="34.80350494"><ele>260.3</ele><time>2013-11-19T09:04:49.0000000+00:00</time></trkpt><trkpt lat="31.22252846" lon="34.80354691"><ele>260.5</ele><time>2013-11-19T09:04:54.0000000+00:00</time></trkpt><trkpt lat="31.22248459" lon="34.80356979"><ele>260.4</ele><time>2013-11-19T09:04:59.0000000+00:00</time></trkpt><trkpt lat="31.22247505" lon="34.80360413"><ele>260.9</ele><time>2013-11-19T09:05:04.0000000+00:00</time></trkpt><trkpt lat="31.22247315" lon="34.80362701"><ele>260.9</ele><time>2013-11-19T09:05:09.0000000+00:00</time></trkpt><trkpt lat="31.22247696" lon="34.80368805"><ele>261.5</ele><time>2013-11-19T09:05:14.0000000+00:00</time></trkpt><trkpt lat="31.22242355" lon="34.80373383"><ele>260.8</ele><time>2013-11-19T09:05:19.0000000+00:00</time></trkpt><trkpt lat="31.22237587" lon="34.80375671"><ele>261.1</ele><time>2013-11-19T09:05:24.0000000+00:00</time></trkpt><trkpt lat="31.22235489" lon="34.8037796"><ele>261.2</ele><time>2013-11-19T09:05:29.0000000+00:00</time></trkpt><trkpt lat="31.22221947" lon="34.80376816"><ele>259.4</ele><time>2013-11-19T09:05:34.0000000+00:00</time></trkpt><trkpt lat="31.22210121" lon="34.8037796"><ele>260.4</ele><time>2013-11-19T09:05:39.0000000+00:00</time></trkpt><trkpt lat="31.22201729" lon="34.80379868"><ele>258.1</ele><time>2013-11-19T09:05:44.0000000+00:00</time></trkpt><trkpt lat="31.22194862" lon="34.80382156"><ele>259.1</ele><time>2013-11-19T09:05:49.0000000+00:00</time></trkpt><trkpt lat="31.22189903" lon="34.80389786"><ele>259.3</ele><time>2013-11-19T09:05:54.0000000+00:00</time></trkpt><trkpt lat="31.22182465" lon="34.80393982"><ele>259.8</ele><time>2013-11-19T09:05:59.0000000+00:00</time></trkpt><trkpt lat="31.22172356" lon="34.80394745"><ele>260.5</ele><time>2013-11-19T09:06:04.0000000+00:00</time></trkpt><trkpt lat="31.22163773" lon="34.8039856"><ele>261.6</ele><time>2013-11-19T09:06:09.0000000+00:00</time></trkpt><trkpt lat="31.22154617" lon="34.80402756"><ele>261.3</ele><time>2013-11-19T09:06:14.0000000+00:00</time></trkpt><trkpt lat="31.22143745" lon="34.80404663"><ele>263.2</ele><time>2013-11-19T09:06:19.0000000+00:00</time></trkpt><trkpt lat="31.22130966" lon="34.80403137"><ele>263.0</ele><time>2013-11-19T09:06:24.0000000+00:00</time></trkpt><trkpt lat="31.22118759" lon="34.80403137"><ele>264.3</ele><time>2013-11-19T09:06:29.0000000+00:00</time></trkpt><trkpt lat="31.2210598" lon="34.80406189"><ele>265.1</ele><time>2013-11-19T09:06:34.0000000+00:00</time></trkpt><trkpt lat="31.22096634" lon="34.80395508"><ele>262.2</ele><time>2013-11-19T09:06:39.0000000+00:00</time></trkpt><trkpt lat="31.22091484" lon="34.80381393"><ele>262.6</ele><time>2013-11-19T09:06:44.0000000+00:00</time></trkpt><trkpt lat="31.22091484" lon="34.80367661"><ele>263.8</ele><time>2013-11-19T09:06:49.0000000+00:00</time></trkpt><trkpt lat="31.22094917" lon="34.80354691"><ele>266.2</ele><time>2013-11-19T09:06:54.0000000+00:00</time></trkpt><trkpt lat="31.22093201" lon="34.8033905"><ele>265.8</ele><time>2013-11-19T09:06:59.0000000+00:00</time></trkpt><trkpt lat="31.22088432" lon="34.80319977"><ele>263.5</ele><time>2013-11-19T09:07:04.0000000+00:00</time></trkpt><trkpt lat="31.22081947" lon="34.80303192"><ele>262.8</ele><time>2013-11-19T09:07:09.0000000+00:00</time></trkpt><trkpt lat="31.22062111" lon="34.80303574"><ele>265.0</ele><time>2013-11-19T09:07:14.0000000+00:00</time></trkpt><trkpt lat="31.22045326" lon="34.80299759"><ele>264.5</ele><time>2013-11-19T09:07:19.0000000+00:00</time></trkpt><trkpt lat="31.2202549" lon="34.8030014"><ele>263.6</ele><time>2013-11-19T09:07:24.0000000+00:00</time></trkpt><trkpt lat="31.22016525" lon="34.80316544"><ele>261.0</ele><time>2013-11-19T09:07:29.0000000+00:00</time></trkpt><trkpt lat="31.22021294" lon="34.80341339"><ele>259.4</ele><time>2013-11-19T09:07:34.0000000+00:00</time></trkpt><trkpt lat="31.22022438" lon="34.80365753"><ele>258.0</ele><time>2013-11-19T09:07:39.0000000+00:00</time></trkpt><trkpt lat="31.2202034" lon="34.80389404"><ele>256.6</ele><time>2013-11-19T09:07:44.0000000+00:00</time></trkpt><trkpt lat="31.2201786" lon="34.80415344"><ele>256.5</ele><time>2013-11-19T09:07:49.0000000+00:00</time></trkpt><trkpt lat="31.22015953" lon="34.80435562"><ele>255.5</ele><time>2013-11-19T09:07:54.0000000+00:00</time></trkpt><trkpt lat="31.22013474" lon="34.80449677"><ele>254.3</ele><time>2013-11-19T09:07:59.0000000+00:00</time></trkpt><trkpt lat="31.22003174" lon="34.80460358"><ele>256.0</ele><time>2013-11-19T09:08:04.0000000+00:00</time></trkpt><trkpt lat="31.21987534" lon="34.80462647"><ele>257.6</ele><time>2013-11-19T09:08:09.0000000+00:00</time></trkpt><trkpt lat="31.21969032" lon="34.80462265"><ele>257.7</ele><time>2013-11-19T09:08:14.0000000+00:00</time></trkpt><trkpt lat="31.21950913" lon="34.80463028"><ele>258.0</ele><time>2013-11-19T09:08:19.0000000+00:00</time></trkpt><trkpt lat="31.21932221" lon="34.80469513"><ele>257.9</ele><time>2013-11-19T09:08:24.0000000+00:00</time></trkpt><trkpt lat="31.21919251" lon="34.80475998"><ele>257.4</ele><time>2013-11-19T09:08:29.0000000+00:00</time></trkpt><trkpt lat="31.21906662" lon="34.80478668"><ele>257.4</ele><time>2013-11-19T09:08:34.0000000+00:00</time></trkpt><trkpt lat="31.21895027" lon="34.80480194"><ele>256.9</ele><time>2013-11-19T09:08:39.0000000+00:00</time></trkpt><trkpt lat="31.21882629" lon="34.80482864"><ele>257.9</ele><time>2013-11-19T09:08:44.0000000+00:00</time></trkpt><trkpt lat="31.21865082" lon="34.80487061"><ele>257.6</ele><time>2013-11-19T09:08:49.0000000+00:00</time></trkpt><trkpt lat="31.2184391" lon="34.80490112"><ele>257.9</ele><time>2013-11-19T09:08:54.0000000+00:00</time></trkpt><trkpt lat="31.21819496" lon="34.80490112"><ele>258.4</ele><time>2013-11-19T09:08:59.0000000+00:00</time></trkpt><trkpt lat="31.21793747" lon="34.80488968"><ele>259.8</ele><time>2013-11-19T09:09:04.0000000+00:00</time></trkpt><trkpt lat="31.21766281" lon="34.80485535"><ele>261.1</ele><time>2013-11-19T09:09:09.0000000+00:00</time></trkpt><trkpt lat="31.21738434" lon="34.80481339"><ele>260.5</ele><time>2013-11-19T09:09:14.0000000+00:00</time></trkpt><trkpt lat="31.21709251" lon="34.80475617"><ele>260.3</ele><time>2013-11-19T09:09:19.0000000+00:00</time></trkpt><trkpt lat="31.21681023" lon="34.8046875"><ele>259.3</ele><time>2013-11-19T09:09:24.0000000+00:00</time></trkpt><trkpt lat="31.21650505" lon="34.8045845"><ele>258.8</ele><time>2013-11-19T09:09:29.0000000+00:00</time></trkpt><trkpt lat="31.21621323" lon="34.80447388"><ele>258.2</ele><time>2013-11-19T09:09:34.0000000+00:00</time></trkpt><trkpt lat="31.21592903" lon="34.80432892"><ele>258.5</ele><time>2013-11-19T09:09:39.0000000+00:00</time></trkpt><trkpt lat="31.21564674" lon="34.80417633"><ele>257.6</ele><time>2013-11-19T09:09:44.0000000+00:00</time></trkpt><trkpt lat="31.21537781" lon="34.80400085"><ele>257.3</ele><time>2013-11-19T09:09:49.0000000+00:00</time></trkpt><trkpt lat="31.21514511" lon="34.80382538"><ele>257.8</ele><time>2013-11-19T09:09:54.0000000+00:00</time></trkpt><trkpt lat="31.21492958" lon="34.80366135"><ele>258.0</ele><time>2013-11-19T09:09:59.0000000+00:00</time></trkpt><trkpt lat="31.21469879" lon="34.80348206"><ele>259.3</ele><time>2013-11-19T09:10:04.0000000+00:00</time></trkpt><trkpt lat="31.21445847" lon="34.80331421"><ele>259.8</ele><time>2013-11-19T09:10:09.0000000+00:00</time></trkpt><trkpt lat="31.21425629" lon="34.80316544"><ele>261.3</ele><time>2013-11-19T09:10:14.0000000+00:00</time></trkpt><trkpt lat="31.21404457" lon="34.80302811"><ele>261.9</ele><time>2013-11-19T09:10:19.0000000+00:00</time></trkpt><trkpt lat="31.2138176" lon="34.80287933"><ele>262.7</ele><time>2013-11-19T09:10:24.0000000+00:00</time></trkpt><trkpt lat="31.21355248" lon="34.80270004"><ele>265.0</ele><time>2013-11-19T09:10:29.0000000+00:00</time></trkpt><trkpt lat="31.21334839" lon="34.80258179"><ele>266.6</ele><time>2013-11-19T09:10:34.0000000+00:00</time></trkpt><trkpt lat="31.21313667" lon="34.80248642"><ele>266.7</ele><time>2013-11-19T09:10:39.0000000+00:00</time></trkpt><trkpt lat="31.21291351" lon="34.80239868"><ele>267.7</ele><time>2013-11-19T09:10:44.0000000+00:00</time></trkpt><trkpt lat="31.21268463" lon="34.80230713"><ele>268.2</ele><time>2013-11-19T09:10:49.0000000+00:00</time></trkpt><trkpt lat="31.21245384" lon="34.80223465"><ele>267.8</ele><time>2013-11-19T09:10:54.0000000+00:00</time></trkpt><trkpt lat="31.21219826" lon="34.80213547"><ele>268.8</ele><time>2013-11-19T09:10:59.0000000+00:00</time></trkpt><trkpt lat="31.21194458" lon="34.80205536"><ele>270.0</ele><time>2013-11-19T09:11:04.0000000+00:00</time></trkpt><trkpt lat="31.21169853" lon="34.80198669"><ele>270.8</ele><time>2013-11-19T09:11:09.0000000+00:00</time></trkpt><trkpt lat="31.21141815" lon="34.80193329"><ele>272.0</ele><time>2013-11-19T09:11:14.0000000+00:00</time></trkpt><trkpt lat="31.21109963" lon="34.80185318"><ele>273.5</ele><time>2013-11-19T09:11:19.0000000+00:00</time></trkpt><trkpt lat="31.21081734" lon="34.80183411"><ele>273.5</ele><time>2013-11-19T09:11:24.0000000+00:00</time></trkpt><trkpt lat="31.21054268" lon="34.8018074"><ele>274.0</ele><time>2013-11-19T09:11:29.0000000+00:00</time></trkpt><trkpt lat="31.21028519" lon="34.80178452"><ele>274.1</ele><time>2013-11-19T09:11:34.0000000+00:00</time></trkpt><trkpt lat="31.21005249" lon="34.80177689"><ele>275.4</ele><time>2013-11-19T09:11:39.0000000+00:00</time></trkpt><trkpt lat="31.20982933" lon="34.80177689"><ele>275.8</ele><time>2013-11-19T09:11:44.0000000+00:00</time></trkpt><trkpt lat="31.20961571" lon="34.80180359"><ele>275.0</ele><time>2013-11-19T09:11:49.0000000+00:00</time></trkpt><trkpt lat="31.20941544" lon="34.80183411"><ele>276.2</ele><time>2013-11-19T09:11:54.0000000+00:00</time></trkpt><trkpt lat="31.20919991" lon="34.80189514"><ele>279.9</ele><time>2013-11-19T09:11:59.0000000+00:00</time></trkpt><trkpt lat="31.20897102" lon="34.80191422"><ele>281.3</ele><time>2013-11-19T09:12:04.0000000+00:00</time></trkpt><trkpt lat="31.20872498" lon="34.80192566"><ele>281.6</ele><time>2013-11-19T09:12:09.0000000+00:00</time></trkpt><trkpt lat="31.20848846" lon="34.80196762"><ele>282.9</ele><time>2013-11-19T09:12:14.0000000+00:00</time></trkpt><trkpt lat="31.20837784" lon="34.80198288"><ele>282.6</ele><time>2013-11-19T09:12:19.0000000+00:00</time></trkpt><trkpt lat="31.20835877" lon="34.80197907"><ele>282.7</ele><time>2013-11-19T09:12:24.0000000+00:00</time></trkpt><trkpt lat="31.20833397" lon="34.80197907"><ele>282.6</ele><time>2013-11-19T09:12:29.0000000+00:00</time></trkpt><trkpt lat="31.20833206" lon="34.80198288"><ele>282.5</ele><time>2013-11-19T09:12:34.0000000+00:00</time></trkpt><trkpt lat="31.20833588" lon="34.80197525"><ele>282.5</ele><time>2013-11-19T09:12:39.0000000+00:00</time></trkpt><trkpt lat="31.20833206" lon="34.80196762"><ele>282.6</ele><time>2013-11-19T09:12:44.0000000+00:00</time></trkpt><trkpt lat="31.20833397" lon="34.80196381"><ele>282.7</ele><time>2013-11-19T09:12:49.0000000+00:00</time></trkpt><trkpt lat="31.20833397" lon="34.80196762"><ele>282.7</ele><time>2013-11-19T09:12:54.0000000+00:00</time></trkpt><trkpt lat="31.20833206" lon="34.80197144"><ele>282.7</ele><time>2013-11-19T09:12:59.0000000+00:00</time></trkpt><trkpt lat="31.20833206" lon="34.80198288"><ele>282.7</ele><time>2013-11-19T09:13:04.0000000+00:00</time></trkpt><trkpt lat="31.20833397" lon="34.80200195"><ele>282.8</ele><time>2013-11-19T09:13:09.0000000+00:00</time></trkpt><trkpt lat="31.20833588" lon="34.80202103"><ele>282.8</ele><time>2013-11-19T09:13:14.0000000+00:00</time></trkpt><trkpt lat="31.20833969" lon="34.8020401"><ele>282.9</ele><time>2013-11-19T09:13:19.0000000+00:00</time></trkpt><trkpt lat="31.20834351" lon="34.80205917"><ele>282.9</ele><time>2013-11-19T09:13:24.0000000+00:00</time></trkpt><trkpt lat="31.20835495" lon="34.80207443"><ele>283.0</ele><time>2013-11-19T09:13:29.0000000+00:00</time></trkpt><trkpt lat="31.20836449" lon="34.80208206"><ele>283.0</ele><time>2013-11-19T09:13:34.0000000+00:00</time></trkpt><trkpt lat="31.20836639" lon="34.80208206"><ele>282.6</ele><time>2013-11-19T09:13:39.0000000+00:00</time></trkpt><trkpt lat="31.20836639" lon="34.80208206"><ele>282.6</ele><time>2013-11-19T09:13:44.0000000+00:00</time></trkpt><trkpt lat="31.20836639" lon="34.80208206"><ele>282.6</ele><time>2013-11-19T09:13:49.0000000+00:00</time></trkpt><trkpt lat="31.20836639" lon="34.80208206"><ele>282.5</ele><time>2013-11-19T09:13:54.0000000+00:00</time></trkpt><trkpt lat="31.20836639" lon="34.80208206"><ele>282.5</ele><time>2013-11-19T09:13:59.0000000+00:00</time></trkpt><trkpt lat="31.20836639" lon="34.80208206"><ele>282.5</ele><time>2013-11-19T09:14:04.0000000+00:00</time></trkpt><trkpt lat="31.20836639" lon="34.80208206"><ele>282.5</ele><time>2013-11-19T09:14:09.0000000+00:00</time></trkpt><trkpt lat="31.20836639" lon="34.80208206"><ele>282.5</ele><time>2013-11-19T09:14:14.0000000+00:00</time></trkpt><trkpt lat="31.20836639" lon="34.80208206"><ele>282.5</ele><time>2013-11-19T09:14:19.0000000+00:00</time></trkpt><trkpt lat="31.20836639" lon="34.80208206"><ele>282.5</ele><time>2013-11-19T09:14:24.0000000+00:00</time></trkpt><trkpt lat="31.20836639" lon="34.80208206"><ele>282.5</ele><time>2013-11-19T09:14:29.0000000+00:00</time></trkpt><trkpt lat="31.20836639" lon="34.80208206"><ele>282.5</ele><time>2013-11-19T09:14:34.0000000+00:00</time></trkpt><trkpt lat="31.20836639" lon="34.80208206"><ele>282.5</ele><time>2013-11-19T09:14:39.0000000+00:00</time></trkpt><trkpt lat="31.20836639" lon="34.80208206"><ele>282.5</ele><time>2013-11-19T09:14:44.0000000+00:00</time></trkpt><trkpt lat="31.20836639" lon="34.80208206"><ele>282.5</ele><time>2013-11-19T09:14:49.0000000+00:00</time></trkpt><trkpt lat="31.20836639" lon="34.80208206"><ele>282.5</ele><time>2013-11-19T09:14:54.0000000+00:00</time></trkpt><trkpt lat="31.20836639" lon="34.80208206"><ele>282.5</ele><time>2013-11-19T09:14:59.0000000+00:00</time></trkpt><trkpt lat="31.20836639" lon="34.80208206"><ele>282.5</ele><time>2013-11-19T09:15:04.0000000+00:00</time></trkpt><trkpt lat="31.20836639" lon="34.80208206"><ele>282.5</ele><time>2013-11-19T09:15:09.0000000+00:00</time></trkpt><trkpt lat="31.20836639" lon="34.80208206"><ele>282.5</ele><time>2013-11-19T09:15:14.0000000+00:00</time></trkpt><trkpt lat="31.20836639" lon="34.80208206"><ele>282.5</ele><time>2013-11-19T09:15:19.0000000+00:00</time></trkpt><trkpt lat="31.20836639" lon="34.80208206"><ele>282.5</ele><time>2013-11-19T09:15:24.0000000+00:00</time></trkpt><trkpt lat="31.20836639" lon="34.80208206"><ele>282.5</ele><time>2013-11-19T09:15:29.0000000+00:00</time></trkpt><trkpt lat="31.20836639" lon="34.80208206"><ele>282.5</ele><time>2013-11-19T09:15:34.0000000+00:00</time></trkpt><trkpt lat="31.20836639" lon="34.80208206"><ele>282.5</ele><time>2013-11-19T09:15:39.0000000+00:00</time></trkpt><trkpt lat="31.20836639" lon="34.80208206"><ele>282.5</ele><time>2013-11-19T09:15:44.0000000+00:00</time></trkpt><trkpt lat="31.20836639" lon="34.80208206"><ele>282.5</ele><time>2013-11-19T09:15:49.0000000+00:00</time></trkpt><trkpt lat="31.20836639" lon="34.80208206"><ele>282.5</ele><time>2013-11-19T09:15:54.0000000+00:00</time></trkpt><trkpt lat="31.20836639" lon="34.80208206"><ele>282.4</ele><time>2013-11-19T09:15:59.0000000+00:00</time></trkpt><trkpt lat="31.20836639" lon="34.80208206"><ele>282.4</ele><time>2013-11-19T09:16:04.0000000+00:00</time></trkpt><trkpt lat="31.20836639" lon="34.80208206"><ele>282.4</ele><time>2013-11-19T09:16:09.0000000+00:00</time></trkpt><trkpt lat="31.20836639" lon="34.80208206"><ele>282.4</ele><time>2013-11-19T09:16:14.0000000+00:00</time></trkpt><trkpt lat="31.20836639" lon="34.80208206"><ele>282.4</ele><time>2013-11-19T09:16:19.0000000+00:00</time></trkpt><trkpt lat="31.20836639" lon="34.80208206"><ele>282.4</ele><time>2013-11-19T09:16:24.0000000+00:00</time></trkpt><trkpt lat="31.20836639" lon="34.80208206"><ele>282.4</ele><time>2013-11-19T09:16:29.0000000+00:00</time></trkpt><trkpt lat="31.20836639" lon="34.80208206"><ele>282.4</ele><time>2013-11-19T09:16:34.0000000+00:00</time></trkpt><trkpt lat="31.20836639" lon="34.80208206"><ele>282.4</ele><time>2013-11-19T09:16:39.0000000+00:00</time></trkpt><trkpt lat="31.20836639" lon="34.80208206"><ele>282.4</ele><time>2013-11-19T09:16:44.0000000+00:00</time></trkpt><trkpt lat="31.20836639" lon="34.80208206"><ele>282.4</ele><time>2013-11-19T09:16:49.0000000+00:00</time></trkpt><trkpt lat="31.20836639" lon="34.80208206"><ele>282.5</ele><time>2013-11-19T09:16:54.0000000+00:00</time></trkpt><trkpt lat="31.20836639" lon="34.80208206"><ele>282.5</ele><time>2013-11-19T09:16:59.0000000+00:00</time></trkpt><trkpt lat="31.20836639" lon="34.80208206"><ele>282.5</ele><time>2013-11-19T09:17:04.0000000+00:00</time></trkpt><trkpt lat="31.20836639" lon="34.80208206"><ele>282.5</ele><time>2013-11-19T09:17:09.0000000+00:00</time></trkpt><trkpt lat="31.20836639" lon="34.80208206"><ele>282.5</ele><time>2013-11-19T09:17:14.0000000+00:00</time></trkpt><trkpt lat="31.20836639" lon="34.80208206"><ele>282.5</ele><time>2013-11-19T09:17:19.0000000+00:00</time></trkpt><trkpt lat="31.20836639" lon="34.80208206"><ele>282.5</ele><time>2013-11-19T09:17:24.0000000+00:00</time></trkpt><trkpt lat="31.20836639" lon="34.80208206"><ele>282.5</ele><time>2013-11-19T09:17:29.0000000+00:00</time></trkpt><trkpt lat="31.20836639" lon="34.80208206"><ele>282.5</ele><time>2013-11-19T09:17:34.0000000+00:00</time></trkpt><trkpt lat="31.20836639" lon="34.80208206"><ele>282.5</ele><time>2013-11-19T09:17:39.0000000+00:00</time></trkpt><trkpt lat="31.20836639" lon="34.80208206"><ele>282.5</ele><time>2013-11-19T09:17:44.0000000+00:00</time></trkpt><trkpt lat="31.20836639" lon="34.80208206"><ele>282.6</ele><time>2013-11-19T09:17:49.0000000+00:00</time></trkpt><trkpt lat="31.20836639" lon="34.80208206"><ele>282.6</ele><time>2013-11-19T09:17:54.0000000+00:00</time></trkpt><trkpt lat="31.20836639" lon="34.80208206"><ele>282.6</ele><time>2013-11-19T09:17:59.0000000+00:00</time></trkpt><trkpt lat="31.20836449" lon="34.80208206"><ele>282.6</ele><time>2013-11-19T09:18:04.0000000+00:00</time></trkpt><trkpt lat="31.20836449" lon="34.80208206"><ele>282.6</ele><time>2013-11-19T09:18:09.0000000+00:00</time></trkpt><trkpt lat="31.20836449" lon="34.80208206"><ele>282.6</ele><time>2013-11-19T09:18:14.0000000+00:00</time></trkpt><trkpt lat="31.20836449" lon="34.80208206"><ele>282.6</ele><time>2013-11-19T09:18:19.0000000+00:00</time></trkpt><trkpt lat="31.20836449" lon="34.80207825"><ele>282.6</ele><time>2013-11-19T09:18:24.0000000+00:00</time></trkpt><trkpt lat="31.20836449" lon="34.80207825"><ele>282.6</ele><time>2013-11-19T09:18:29.0000000+00:00</time></trkpt><trkpt lat="31.20836449" lon="34.80207825"><ele>282.6</ele><time>2013-11-19T09:18:34.0000000+00:00</time></trkpt><trkpt lat="31.20836449" lon="34.80207825"><ele>282.6</ele><time>2013-11-19T09:18:39.0000000+00:00</time></trkpt><trkpt lat="31.20836449" lon="34.80207825"><ele>282.6</ele><time>2013-11-19T09:18:44.0000000+00:00</time></trkpt><trkpt lat="31.20836449" lon="34.80207825"><ele>282.6</ele><time>2013-11-19T09:18:49.0000000+00:00</time></trkpt><trkpt lat="31.20836449" lon="34.80207825"><ele>282.6</ele><time>2013-11-19T09:18:54.0000000+00:00</time></trkpt><trkpt lat="31.20836449" lon="34.80207825"><ele>282.6</ele><time>2013-11-19T09:18:59.0000000+00:00</time></trkpt><trkpt lat="31.20836449" lon="34.80207825"><ele>282.6</ele><time>2013-11-19T09:19:04.0000000+00:00</time></trkpt><trkpt lat="31.20836449" lon="34.80207825"><ele>282.6</ele><time>2013-11-19T09:19:09.0000000+00:00</time></trkpt><trkpt lat="31.20836449" lon="34.80207825"><ele>282.6</ele><time>2013-11-19T09:19:14.0000000+00:00</time></trkpt><trkpt lat="31.20836449" lon="34.80207825"><ele>282.7</ele><time>2013-11-19T09:19:19.0000000+00:00</time></trkpt><trkpt lat="31.20836449" lon="34.80207825"><ele>282.7</ele><time>2013-11-19T09:19:24.0000000+00:00</time></trkpt><trkpt lat="31.20836449" lon="34.80207825"><ele>282.7</ele><time>2013-11-19T09:19:29.0000000+00:00</time></trkpt><trkpt lat="31.20836449" lon="34.80207825"><ele>282.7</ele><time>2013-11-19T09:19:34.0000000+00:00</time></trkpt><trkpt lat="31.20836449" lon="34.80207825"><ele>282.7</ele><time>2013-11-19T09:19:39.0000000+00:00</time></trkpt><trkpt lat="31.20836639" lon="34.80207825"><ele>282.7</ele><time>2013-11-19T09:19:44.0000000+00:00</time></trkpt><trkpt lat="31.20836449" lon="34.80207825"><ele>282.7</ele><time>2013-11-19T09:19:49.0000000+00:00</time></trkpt><trkpt lat="31.20836449" lon="34.80207825"><ele>282.7</ele><time>2013-11-19T09:19:54.0000000+00:00</time></trkpt><trkpt lat="31.20836449" lon="34.80207825"><ele>282.8</ele><time>2013-11-19T09:19:59.0000000+00:00</time></trkpt><trkpt lat="31.20836449" lon="34.80207825"><ele>282.8</ele><time>2013-11-19T09:20:04.0000000+00:00</time></trkpt><trkpt lat="31.20836449" lon="34.80207825"><ele>282.8</ele><time>2013-11-19T09:20:09.0000000+00:00</time></trkpt><trkpt lat="31.20836449" lon="34.80207825"><ele>282.8</ele><time>2013-11-19T09:20:14.0000000+00:00</time></trkpt><trkpt lat="31.20836449" lon="34.80207825"><ele>282.8</ele><time>2013-11-19T09:20:19.0000000+00:00</time></trkpt><trkpt lat="31.20836449" lon="34.80207825"><ele>282.8</ele><time>2013-11-19T09:20:24.0000000+00:00</time></trkpt><trkpt lat="31.20836449" lon="34.80207825"><ele>282.8</ele><time>2013-11-19T09:20:29.0000000+00:00</time></trkpt><trkpt lat="31.20836639" lon="34.80207825"><ele>282.8</ele><time>2013-11-19T09:20:34.0000000+00:00</time></trkpt><trkpt lat="31.20836639" lon="34.80207825"><ele>282.8</ele><time>2013-11-19T09:20:39.0000000+00:00</time></trkpt><trkpt lat="31.20836639" lon="34.80207825"><ele>282.8</ele><time>2013-11-19T09:20:44.0000000+00:00</time></trkpt><trkpt lat="31.20836639" lon="34.80207825"><ele>282.8</ele><time>2013-11-19T09:20:49.0000000+00:00</time></trkpt><trkpt lat="31.20836639" lon="34.80207825"><ele>282.8</ele><time>2013-11-19T09:20:54.0000000+00:00</time></trkpt><trkpt lat="31.20836639" lon="34.80208206"><ele>282.8</ele><time>2013-11-19T09:20:59.0000000+00:00</time></trkpt><trkpt lat="31.20836639" lon="34.80208206"><ele>282.8</ele><time>2013-11-19T09:21:04.0000000+00:00</time></trkpt><trkpt lat="31.20836639" lon="34.80208206"><ele>282.8</ele><time>2013-11-19T09:21:09.0000000+00:00</time></trkpt><trkpt lat="31.20836639" lon="34.80208206"><ele>282.8</ele><time>2013-11-19T09:21:14.0000000+00:00</time></trkpt><trkpt lat="31.20836639" lon="34.80208206"><ele>282.9</ele><time>2013-11-19T09:21:19.0000000+00:00</time></trkpt><trkpt lat="31.20836639" lon="34.80208206"><ele>282.9</ele><time>2013-11-19T09:21:24.0000000+00:00</time></trkpt><trkpt lat="31.20836639" lon="34.80208206"><ele>282.9</ele><time>2013-11-19T09:21:29.0000000+00:00</time></trkpt><trkpt lat="31.20836639" lon="34.80208206"><ele>282.9</ele><time>2013-11-19T09:21:34.0000000+00:00</time></trkpt><trkpt lat="31.20836639" lon="34.80208206"><ele>282.9</ele><time>2013-11-19T09:21:39.0000000+00:00</time></trkpt><trkpt lat="31.20836639" lon="34.80208206"><ele>282.9</ele><time>2013-11-19T09:21:44.0000000+00:00</time></trkpt><trkpt lat="31.20836639" lon="34.80208206"><ele>282.9</ele><time>2013-11-19T09:21:49.0000000+00:00</time></trkpt><trkpt lat="31.20836639" lon="34.80208206"><ele>282.9</ele><time>2013-11-19T09:21:54.0000000+00:00</time></trkpt><trkpt lat="31.20836639" lon="34.80208206"><ele>282.9</ele><time>2013-11-19T09:21:59.0000000+00:00</time></trkpt><trkpt lat="31.20836639" lon="34.80208206"><ele>282.9</ele><time>2013-11-19T09:22:04.0000000+00:00</time></trkpt><trkpt lat="31.20836639" lon="34.80208206"><ele>282.9</ele><time>2013-11-19T09:22:09.0000000+00:00</time></trkpt><trkpt lat="31.20836639" lon="34.80208206"><ele>282.9</ele><time>2013-11-19T09:22:14.0000000+00:00</time></trkpt><trkpt lat="31.20837593" lon="34.80208206"><ele>283.1</ele><time>2013-11-19T09:22:19.0000000+00:00</time></trkpt><trkpt lat="31.20837784" lon="34.80208588"><ele>283.1</ele><time>2013-11-19T09:22:24.0000000+00:00</time></trkpt><trkpt lat="31.20837975" lon="34.80208969"><ele>283.1</ele><time>2013-11-19T09:22:29.0000000+00:00</time></trkpt><trkpt lat="31.20837975" lon="34.80208969"><ele>283.1</ele><time>2013-11-19T09:22:34.0000000+00:00</time></trkpt><trkpt lat="31.20837784" lon="34.80208969"><ele>283.1</ele><time>2013-11-19T09:22:39.0000000+00:00</time></trkpt><trkpt lat="31.20837784" lon="34.80208969"><ele>283.1</ele><time>2013-11-19T09:22:44.0000000+00:00</time></trkpt><trkpt lat="31.20837784" lon="34.80208969"><ele>283.1</ele><time>2013-11-19T09:22:49.0000000+00:00</time></trkpt><trkpt lat="31.20837784" lon="34.80208969"><ele>283.1</ele><time>2013-11-19T09:22:54.0000000+00:00</time></trkpt><trkpt lat="31.20837784" lon="34.80208969"><ele>283.0</ele><time>2013-11-19T09:22:59.0000000+00:00</time></trkpt><trkpt lat="31.20837784" lon="34.80208969"><ele>283.0</ele><time>2013-11-19T09:23:04.0000000+00:00</time></trkpt><trkpt lat="31.20837784" lon="34.80208969"><ele>283.0</ele><time>2013-11-19T09:23:09.0000000+00:00</time></trkpt><trkpt lat="31.20837784" lon="34.80208969"><ele>283.0</ele><time>2013-11-19T09:23:14.0000000+00:00</time></trkpt><trkpt lat="31.20837784" lon="34.80208969"><ele>283.0</ele><time>2013-11-19T09:23:19.0000000+00:00</time></trkpt><trkpt lat="31.20837784" lon="34.80208969"><ele>283.0</ele><time>2013-11-19T09:23:24.0000000+00:00</time></trkpt><trkpt lat="31.20837784" lon="34.80208969"><ele>283.0</ele><time>2013-11-19T09:23:29.0000000+00:00</time></trkpt><trkpt lat="31.20837784" lon="34.80208969"><ele>283.0</ele><time>2013-11-19T09:23:34.0000000+00:00</time></trkpt><trkpt lat="31.20837784" lon="34.80208969"><ele>283.0</ele><time>2013-11-19T09:23:39.0000000+00:00</time></trkpt><trkpt lat="31.20837784" lon="34.80208969"><ele>283.0</ele><time>2013-11-19T09:23:44.0000000+00:00</time></trkpt><trkpt lat="31.20837975" lon="34.80208969"><ele>282.9</ele><time>2013-11-19T09:23:49.0000000+00:00</time></trkpt><trkpt lat="31.20837975" lon="34.80208969"><ele>282.9</ele><time>2013-11-19T09:23:54.0000000+00:00</time></trkpt><trkpt lat="31.20837975" lon="34.80208969"><ele>282.9</ele><time>2013-11-19T09:23:59.0000000+00:00</time></trkpt><trkpt lat="31.20837975" lon="34.80208969"><ele>282.8</ele><time>2013-11-19T09:24:04.0000000+00:00</time></trkpt><trkpt lat="31.20837975" lon="34.80208969"><ele>282.8</ele><time>2013-11-19T09:24:09.0000000+00:00</time></trkpt><trkpt lat="31.20837975" lon="34.80208969"><ele>282.7</ele><time>2013-11-19T09:24:14.0000000+00:00</time></trkpt><trkpt lat="31.20837975" lon="34.80208969"><ele>282.7</ele><time>2013-11-19T09:24:19.0000000+00:00</time></trkpt><trkpt lat="31.20837975" lon="34.80208969"><ele>282.7</ele><time>2013-11-19T09:24:24.0000000+00:00</time></trkpt><trkpt lat="31.20837975" lon="34.80208969"><ele>282.7</ele><time>2013-11-19T09:24:29.0000000+00:00</time></trkpt><trkpt lat="31.20837975" lon="34.80208969"><ele>282.6</ele><time>2013-11-19T09:24:34.0000000+00:00</time></trkpt><trkpt lat="31.20837975" lon="34.80208969"><ele>282.6</ele><time>2013-11-19T09:24:39.0000000+00:00</time></trkpt><trkpt lat="31.20837975" lon="34.80208588"><ele>282.6</ele><time>2013-11-19T09:24:44.0000000+00:00</time></trkpt><trkpt lat="31.20838165" lon="34.80208588"><ele>282.5</ele><time>2013-11-19T09:24:49.0000000+00:00</time></trkpt><trkpt lat="31.20838165" lon="34.80208588"><ele>282.5</ele><time>2013-11-19T09:24:54.0000000+00:00</time></trkpt><trkpt lat="31.20833206" lon="34.80202103"><ele>280.8</ele><time>2013-11-19T09:24:59.0000000+00:00</time></trkpt><trkpt lat="31.2081852" lon="34.80199814"><ele>280.0</ele><time>2013-11-19T09:25:04.0000000+00:00</time></trkpt><trkpt lat="31.20795631" lon="34.80202103"><ele>280.0</ele><time>2013-11-19T09:25:09.0000000+00:00</time></trkpt><trkpt lat="31.20777321" lon="34.80203629"><ele>282.3</ele><time>2013-11-19T09:25:14.0000000+00:00</time></trkpt><trkpt lat="31.20776367" lon="34.80203629"><ele>283.9</ele><time>2013-11-19T09:25:19.0000000+00:00</time></trkpt><trkpt lat="31.20776367" lon="34.80203629"><ele>283.9</ele><time>2013-11-19T09:25:24.0000000+00:00</time></trkpt><trkpt lat="31.20770836" lon="34.80204392"><ele>283.9</ele><time>2013-11-19T09:25:29.0000000+00:00</time></trkpt><trkpt lat="31.20753479" lon="34.8020668"><ele>283.9</ele><time>2013-11-19T09:25:34.0000000+00:00</time></trkpt><trkpt lat="31.20731354" lon="34.80209732"><ele>283.7</ele><time>2013-11-19T09:25:39.0000000+00:00</time></trkpt><trkpt lat="31.20707321" lon="34.80213165"><ele>283.5</ele><time>2013-11-19T09:25:44.0000000+00:00</time></trkpt><trkpt lat="31.20682335" lon="34.80216599"><ele>283.1</ele><time>2013-11-19T09:25:49.0000000+00:00</time></trkpt><trkpt lat="31.20657158" lon="34.80219269"><ele>282.4</ele><time>2013-11-19T09:25:54.0000000+00:00</time></trkpt><trkpt lat="31.20630455" lon="34.80223084"><ele>282.1</ele><time>2013-11-19T09:25:59.0000000+00:00</time></trkpt><trkpt lat="31.20608139" lon="34.80224228"><ele>282.1</ele><time>2013-11-19T09:26:04.0000000+00:00</time></trkpt><trkpt lat="31.20598602" lon="34.80221176"><ele>280.8</ele><time>2013-11-19T09:26:09.0000000+00:00</time></trkpt><trkpt lat="31.20597076" lon="34.8021431"><ele>279.6</ele><time>2013-11-19T09:26:14.0000000+00:00</time></trkpt><trkpt lat="31.2060318" lon="34.80211639"><ele>280.0</ele><time>2013-11-19T09:26:19.0000000+00:00</time></trkpt><trkpt lat="31.20607185" lon="34.80202484"><ele>279.3</ele><time>2013-11-19T09:26:24.0000000+00:00</time></trkpt><trkpt lat="31.20601082" lon="34.80197907"><ele>279.0</ele><time>2013-11-19T09:26:29.0000000+00:00</time></trkpt><trkpt lat="31.20594025" lon="34.80198669"><ele>279.8</ele><time>2013-11-19T09:26:34.0000000+00:00</time></trkpt><trkpt lat="31.20583916" lon="34.80198669"><ele>281.8</ele><time>2013-11-19T09:26:39.0000000+00:00</time></trkpt><trkpt lat="31.20573998" lon="34.80198288"><ele>283.6</ele><time>2013-11-19T09:26:44.0000000+00:00</time></trkpt><trkpt lat="31.20564079" lon="34.80199051"><ele>284.0</ele><time>2013-11-19T09:26:49.0000000+00:00</time></trkpt><trkpt lat="31.205513" lon="34.80199051"><ele>284.1</ele><time>2013-11-19T09:26:54.0000000+00:00</time></trkpt><trkpt lat="31.20537376" lon="34.80198669"><ele>284.9</ele><time>2013-11-19T09:26:59.0000000+00:00</time></trkpt><trkpt lat="31.20520592" lon="34.80199051"><ele>284.2</ele><time>2013-11-19T09:27:04.0000000+00:00</time></trkpt><trkpt lat="31.20502472" lon="34.8020134"><ele>284.2</ele><time>2013-11-19T09:27:09.0000000+00:00</time></trkpt><trkpt lat="31.2048378" lon="34.80205154"><ele>285.2</ele><time>2013-11-19T09:27:14.0000000+00:00</time></trkpt><trkpt lat="31.20466805" lon="34.80209351"><ele>285.4</ele><time>2013-11-19T09:27:19.0000000+00:00</time></trkpt><trkpt lat="31.20445252" lon="34.80213165"><ele>283.6</ele><time>2013-11-19T09:27:24.0000000+00:00</time></trkpt><trkpt lat="31.20410347" lon="34.80213165"><ele>282.4</ele><time>2013-11-19T09:27:29.0000000+00:00</time></trkpt><trkpt lat="31.20379067" lon="34.8021431"><ele>280.7</ele><time>2013-11-19T09:27:34.0000000+00:00</time></trkpt><trkpt lat="31.20351219" lon="34.80216217"><ele>281.4</ele><time>2013-11-19T09:27:39.0000000+00:00</time></trkpt><trkpt lat="31.2033062" lon="34.80212021"><ele>282.7</ele><time>2013-11-19T09:27:44.0000000+00:00</time></trkpt><trkpt lat="31.20311737" lon="34.80210495"><ele>284.2</ele><time>2013-11-19T09:27:49.0000000+00:00</time></trkpt><trkpt lat="31.20293617" lon="34.80210877"><ele>285.3</ele><time>2013-11-19T09:27:54.0000000+00:00</time></trkpt><trkpt lat="31.20277214" lon="34.80211258"><ele>286.6</ele><time>2013-11-19T09:27:59.0000000+00:00</time></trkpt><trkpt lat="31.20260239" lon="34.80213547"><ele>287.8</ele><time>2013-11-19T09:28:04.0000000+00:00</time></trkpt><trkpt lat="31.20242882" lon="34.8021698"><ele>289.0</ele><time>2013-11-19T09:28:09.0000000+00:00</time></trkpt><trkpt lat="31.20226097" lon="34.80220795"><ele>289.8</ele><time>2013-11-19T09:28:14.0000000+00:00</time></trkpt><trkpt lat="31.20207214" lon="34.80224609"><ele>289.4</ele><time>2013-11-19T09:28:19.0000000+00:00</time></trkpt><trkpt lat="31.20184326" lon="34.80228806"><ele>288.5</ele><time>2013-11-19T09:28:24.0000000+00:00</time></trkpt><trkpt lat="31.20165443" lon="34.80233383"><ele>289.5</ele><time>2013-11-19T09:28:29.0000000+00:00</time></trkpt><trkpt lat="31.20147324" lon="34.80237198"><ele>291.2</ele><time>2013-11-19T09:28:34.0000000+00:00</time></trkpt><trkpt lat="31.20128059" lon="34.80240631"><ele>293.0</ele><time>2013-11-19T09:28:39.0000000+00:00</time></trkpt><trkpt lat="31.20108414" lon="34.80244064"><ele>294.7</ele><time>2013-11-19T09:28:44.0000000+00:00</time></trkpt><trkpt lat="31.2008934" lon="34.80249023"><ele>296.0</ele><time>2013-11-19T09:28:49.0000000+00:00</time></trkpt><trkpt lat="31.20073319" lon="34.80253601"><ele>297.1</ele><time>2013-11-19T09:28:54.0000000+00:00</time></trkpt><trkpt lat="31.20055962" lon="34.80256271"><ele>298.0</ele><time>2013-11-19T09:28:59.0000000+00:00</time></trkpt><trkpt lat="31.20038796" lon="34.80258942"><ele>298.1</ele><time>2013-11-19T09:29:04.0000000+00:00</time></trkpt><trkpt lat="31.20023727" lon="34.80263519"><ele>298.0</ele><time>2013-11-19T09:29:09.0000000+00:00</time></trkpt><trkpt lat="31.20008659" lon="34.80265427"><ele>298.0</ele><time>2013-11-19T09:29:14.0000000+00:00</time></trkpt><trkpt lat="31.1999054" lon="34.80267716"><ele>298.2</ele><time>2013-11-19T09:29:19.0000000+00:00</time></trkpt><trkpt lat="31.1997509" lon="34.80270004"><ele>298.3</ele><time>2013-11-19T09:29:24.0000000+00:00</time></trkpt><trkpt lat="31.1995945" lon="34.80270386"><ele>298.2</ele><time>2013-11-19T09:29:29.0000000+00:00</time></trkpt><trkpt lat="31.19941521" lon="34.80272675"><ele>298.1</ele><time>2013-11-19T09:29:34.0000000+00:00</time></trkpt><trkpt lat="31.19922638" lon="34.80274582"><ele>297.8</ele><time>2013-11-19T09:29:39.0000000+00:00</time></trkpt><trkpt lat="31.19903755" lon="34.80276489"><ele>297.6</ele><time>2013-11-19T09:29:44.0000000+00:00</time></trkpt><trkpt lat="31.198843" lon="34.80278778"><ele>297.3</ele><time>2013-11-19T09:29:49.0000000+00:00</time></trkpt><trkpt lat="31.19862938" lon="34.80280304"><ele>297.6</ele><time>2013-11-19T09:29:54.0000000+00:00</time></trkpt><trkpt lat="31.19844437" lon="34.80282593"><ele>298.1</ele><time>2013-11-19T09:29:59.0000000+00:00</time></trkpt><trkpt lat="31.19820023" lon="34.80286408"><ele>296.7</ele><time>2013-11-19T09:30:04.0000000+00:00</time></trkpt><trkpt lat="31.1978817" lon="34.80290222"><ele>295.3</ele><time>2013-11-19T09:30:09.0000000+00:00</time></trkpt><trkpt lat="31.19769669" lon="34.80302811"><ele>297.3</ele><time>2013-11-19T09:30:14.0000000+00:00</time></trkpt><trkpt lat="31.19753838" lon="34.80310059"><ele>299.0</ele><time>2013-11-19T09:30:19.0000000+00:00</time></trkpt><trkpt lat="31.19735909" lon="34.80317688"><ele>299.9</ele><time>2013-11-19T09:30:24.0000000+00:00</time></trkpt><trkpt lat="31.19719887" lon="34.8032074"><ele>300.4</ele><time>2013-11-19T09:30:29.0000000+00:00</time></trkpt><trkpt lat="31.19703293" lon="34.80326462"><ele>300.1</ele><time>2013-11-19T09:30:34.0000000+00:00</time></trkpt><trkpt lat="31.19683075" lon="34.80325699"><ele>298.1</ele><time>2013-11-19T09:30:39.0000000+00:00</time></trkpt><trkpt lat="31.19663429" lon="34.80327988"><ele>296.6</ele><time>2013-11-19T09:30:44.0000000+00:00</time></trkpt><trkpt lat="31.19643974" lon="34.80331421"><ele>296.3</ele><time>2013-11-19T09:30:49.0000000+00:00</time></trkpt><trkpt lat="31.1962719" lon="34.80338669"><ele>295.3</ele><time>2013-11-19T09:30:54.0000000+00:00</time></trkpt><trkpt lat="31.19612312" lon="34.80348969"><ele>297.2</ele><time>2013-11-19T09:30:59.0000000+00:00</time></trkpt><trkpt lat="31.19596863" lon="34.80356598"><ele>297.4</ele><time>2013-11-19T09:31:04.0000000+00:00</time></trkpt><trkpt lat="31.19577217" lon="34.80364227"><ele>296.5</ele><time>2013-11-19T09:31:09.0000000+00:00</time></trkpt><trkpt lat="31.19566345" lon="34.80369186"><ele>297.2</ele><time>2013-11-19T09:31:14.0000000+00:00</time></trkpt><trkpt lat="31.19553947" lon="34.80372238"><ele>297.4</ele><time>2013-11-19T09:31:19.0000000+00:00</time></trkpt><trkpt lat="31.19541931" lon="34.80374527"><ele>297.2</ele><time>2013-11-19T09:31:24.0000000+00:00</time></trkpt><trkpt lat="31.19533157" lon="34.80377197"><ele>297.5</ele><time>2013-11-19T09:31:29.0000000+00:00</time></trkpt><trkpt lat="31.19519424" lon="34.80380631"><ele>297.3</ele><time>2013-11-19T09:31:34.0000000+00:00</time></trkpt><trkpt lat="31.19501114" lon="34.80385971"><ele>297.1</ele><time>2013-11-19T09:31:39.0000000+00:00</time></trkpt><trkpt lat="31.1948452" lon="34.80390167"><ele>297.3</ele><time>2013-11-19T09:31:44.0000000+00:00</time></trkpt><trkpt lat="31.19468689" lon="34.80393982"><ele>297.8</ele><time>2013-11-19T09:31:49.0000000+00:00</time></trkpt><trkpt lat="31.19451904" lon="34.80399704"><ele>300.9</ele><time>2013-11-19T09:31:54.0000000+00:00</time></trkpt><trkpt lat="31.1943779" lon="34.80404282"><ele>302.7</ele><time>2013-11-19T09:31:59.0000000+00:00</time></trkpt><trkpt lat="31.19421387" lon="34.80410385"><ele>304.8</ele><time>2013-11-19T09:32:04.0000000+00:00</time></trkpt><trkpt lat="31.19405174" lon="34.80416489"><ele>306.2</ele><time>2013-11-19T09:32:09.0000000+00:00</time></trkpt><trkpt lat="31.19391441" lon="34.80420685"><ele>307.4</ele><time>2013-11-19T09:32:14.0000000+00:00</time></trkpt><trkpt lat="31.19377518" lon="34.80425263"><ele>308.3</ele><time>2013-11-19T09:32:19.0000000+00:00</time></trkpt><trkpt lat="31.1936245" lon="34.8042984"><ele>308.9</ele><time>2013-11-19T09:32:24.0000000+00:00</time></trkpt><trkpt lat="31.19348335" lon="34.80435181"><ele>309.0</ele><time>2013-11-19T09:32:29.0000000+00:00</time></trkpt><trkpt lat="31.19333839" lon="34.80439758"><ele>309.5</ele><time>2013-11-19T09:32:34.0000000+00:00</time></trkpt><trkpt lat="31.19317246" lon="34.80444717"><ele>309.5</ele><time>2013-11-19T09:32:39.0000000+00:00</time></trkpt><trkpt lat="31.19302177" lon="34.80450058"><ele>310.6</ele><time>2013-11-19T09:32:44.0000000+00:00</time></trkpt><trkpt lat="31.19287109" lon="34.8045578"><ele>311.3</ele><time>2013-11-19T09:32:49.0000000+00:00</time></trkpt><trkpt lat="31.1927433" lon="34.80463409"><ele>312.4</ele><time>2013-11-19T09:32:54.0000000+00:00</time></trkpt><trkpt lat="31.19258118" lon="34.80473328"><ele>312.7</ele><time>2013-11-19T09:32:59.0000000+00:00</time></trkpt><trkpt lat="31.19239426" lon="34.80485153"><ele>312.6</ele><time>2013-11-19T09:33:04.0000000+00:00</time></trkpt><trkpt lat="31.19217873" lon="34.80495453"><ele>312.2</ele><time>2013-11-19T09:33:09.0000000+00:00</time></trkpt><trkpt lat="31.19191742" lon="34.8049469"><ele>311.4</ele><time>2013-11-19T09:33:14.0000000+00:00</time></trkpt><trkpt lat="31.1916275" lon="34.80493546"><ele>311.3</ele><time>2013-11-19T09:33:19.0000000+00:00</time></trkpt><trkpt lat="31.19135475" lon="34.8049736"><ele>310.8</ele><time>2013-11-19T09:33:24.0000000+00:00</time></trkpt><trkpt lat="31.19109154" lon="34.80500794"><ele>311.0</ele><time>2013-11-19T09:33:29.0000000+00:00</time></trkpt><trkpt lat="31.1908493" lon="34.80506516"><ele>311.8</ele><time>2013-11-19T09:33:34.0000000+00:00</time></trkpt><trkpt lat="31.19070053" lon="34.80516052"><ele>312.3</ele><time>2013-11-19T09:33:39.0000000+00:00</time></trkpt><trkpt lat="31.1905632" lon="34.80522919"><ele>312.7</ele><time>2013-11-19T09:33:44.0000000+00:00</time></trkpt><trkpt lat="31.19048691" lon="34.80526352"><ele>311.9</ele><time>2013-11-19T09:33:49.0000000+00:00</time></trkpt><trkpt lat="31.1903553" lon="34.80533981"><ele>310.7</ele><time>2013-11-19T09:33:54.0000000+00:00</time></trkpt><trkpt lat="31.1901474" lon="34.80542755"><ele>310.6</ele><time>2013-11-19T09:33:59.0000000+00:00</time></trkpt><trkpt lat="31.18993187" lon="34.80550385"><ele>311.9</ele><time>2013-11-19T09:34:04.0000000+00:00</time></trkpt><trkpt lat="31.18968964" lon="34.80557632"><ele>311.6</ele><time>2013-11-19T09:34:09.0000000+00:00</time></trkpt><trkpt lat="31.18945694" lon="34.80564117"><ele>312.3</ele><time>2013-11-19T09:34:14.0000000+00:00</time></trkpt><trkpt lat="31.18922424" lon="34.80570221"><ele>311.6</ele><time>2013-11-19T09:34:19.0000000+00:00</time></trkpt><trkpt lat="31.18902016" lon="34.80575943"><ele>311.9</ele><time>2013-11-19T09:34:24.0000000+00:00</time></trkpt><trkpt lat="31.1888237" lon="34.80582809"><ele>312.0</ele><time>2013-11-19T09:34:29.0000000+00:00</time></trkpt><trkpt lat="31.18860245" lon="34.80589676"><ele>311.2</ele><time>2013-11-19T09:34:34.0000000+00:00</time></trkpt><trkpt lat="31.1884079" lon="34.80595398"><ele>313.5</ele><time>2013-11-19T09:34:39.0000000+00:00</time></trkpt><trkpt lat="31.18818855" lon="34.80602264"><ele>313.3</ele><time>2013-11-19T09:34:44.0000000+00:00</time></trkpt><trkpt lat="31.18798256" lon="34.80607224"><ele>313.1</ele><time>2013-11-19T09:34:49.0000000+00:00</time></trkpt><trkpt lat="31.18779755" lon="34.80617523"><ele>313.0</ele><time>2013-11-19T09:34:54.0000000+00:00</time></trkpt><trkpt lat="31.18760872" lon="34.80627823"><ele>313.0</ele><time>2013-11-19T09:34:59.0000000+00:00</time></trkpt><trkpt lat="31.18740463" lon="34.8063736"><ele>313.5</ele><time>2013-11-19T09:35:04.0000000+00:00</time></trkpt><trkpt lat="31.18717957" lon="34.80644989"><ele>314.0</ele><time>2013-11-19T09:35:09.0000000+00:00</time></trkpt><trkpt lat="31.18701935" lon="34.80648041"><ele>314.6</ele><time>2013-11-19T09:35:14.0000000+00:00</time></trkpt><trkpt lat="31.1868763" lon="34.80652237"><ele>314.9</ele><time>2013-11-19T09:35:19.0000000+00:00</time></trkpt><trkpt lat="31.1866951" lon="34.80656433"><ele>315.1</ele><time>2013-11-19T09:35:24.0000000+00:00</time></trkpt><trkpt lat="31.18654633" lon="34.80657578"><ele>316.6</ele><time>2013-11-19T09:35:29.0000000+00:00</time></trkpt><trkpt lat="31.18640328" lon="34.80657959"><ele>317.9</ele><time>2013-11-19T09:35:34.0000000+00:00</time></trkpt><trkpt lat="31.1862278" lon="34.80659866"><ele>317.2</ele><time>2013-11-19T09:35:39.0000000+00:00</time></trkpt><trkpt lat="31.18606377" lon="34.80660248"><ele>317.3</ele><time>2013-11-19T09:35:44.0000000+00:00</time></trkpt><trkpt lat="31.18589401" lon="34.80661011"><ele>317.2</ele><time>2013-11-19T09:35:49.0000000+00:00</time></trkpt><trkpt lat="31.18572807" lon="34.80662537"><ele>318.4</ele><time>2013-11-19T09:35:54.0000000+00:00</time></trkpt><trkpt lat="31.18555832" lon="34.80661392"><ele>318.5</ele><time>2013-11-19T09:35:59.0000000+00:00</time></trkpt><trkpt lat="31.18540764" lon="34.80654526"><ele>319.4</ele><time>2013-11-19T09:36:04.0000000+00:00</time></trkpt><trkpt lat="31.18529129" lon="34.80641174"><ele>321.8</ele><time>2013-11-19T09:36:09.0000000+00:00</time></trkpt><trkpt lat="31.18517113" lon="34.80626679"><ele>324.0</ele><time>2013-11-19T09:36:14.0000000+00:00</time></trkpt><trkpt lat="31.18504715" lon="34.80612564"><ele>325.1</ele><time>2013-11-19T09:36:19.0000000+00:00</time></trkpt><trkpt lat="31.1849308" lon="34.80599213"><ele>325.9</ele><time>2013-11-19T09:36:24.0000000+00:00</time></trkpt><trkpt lat="31.18480301" lon="34.8058548"><ele>326.1</ele><time>2013-11-19T09:36:29.0000000+00:00</time></trkpt><trkpt lat="31.18466187" lon="34.80572891"><ele>327.6</ele><time>2013-11-19T09:36:34.0000000+00:00</time></trkpt><trkpt lat="31.18450356" lon="34.80561447"><ele>327.9</ele><time>2013-11-19T09:36:39.0000000+00:00</time></trkpt><trkpt lat="31.18431473" lon="34.80555725"><ele>327.3</ele><time>2013-11-19T09:36:44.0000000+00:00</time></trkpt><trkpt lat="31.18412781" lon="34.8055687"><ele>327.9</ele><time>2013-11-19T09:36:49.0000000+00:00</time></trkpt><trkpt lat="31.18393517" lon="34.80572128"><ele>328.7</ele><time>2013-11-19T09:36:54.0000000+00:00</time></trkpt><trkpt lat="31.18371773" lon="34.80592346"><ele>327.8</ele><time>2013-11-19T09:36:59.0000000+00:00</time></trkpt><trkpt lat="31.18349075" lon="34.80613709"><ele>327.1</ele><time>2013-11-19T09:37:04.0000000+00:00</time></trkpt><trkpt lat="31.18325424" lon="34.80635071"><ele>325.8</ele><time>2013-11-19T09:37:09.0000000+00:00</time></trkpt><trkpt lat="31.18301582" lon="34.80654526"><ele>325.1</ele><time>2013-11-19T09:37:14.0000000+00:00</time></trkpt><trkpt lat="31.18279839" lon="34.8066864"><ele>324.5</ele><time>2013-11-19T09:37:19.0000000+00:00</time></trkpt><trkpt lat="31.18254662" lon="34.80673599"><ele>324.1</ele><time>2013-11-19T09:37:24.0000000+00:00</time></trkpt><trkpt lat="31.18226624" lon="34.80675507"><ele>322.5</ele><time>2013-11-19T09:37:29.0000000+00:00</time></trkpt><trkpt lat="31.18201447" lon="34.80675507"><ele>323.0</ele><time>2013-11-19T09:37:34.0000000+00:00</time></trkpt><trkpt lat="31.18175125" lon="34.8067627"><ele>322.6</ele><time>2013-11-19T09:37:39.0000000+00:00</time></trkpt><trkpt lat="31.1814785" lon="34.80676651"><ele>322.8</ele><time>2013-11-19T09:37:44.0000000+00:00</time></trkpt><trkpt lat="31.18120575" lon="34.80677033"><ele>322.5</ele><time>2013-11-19T09:37:49.0000000+00:00</time></trkpt><trkpt lat="31.18095589" lon="34.80677795"><ele>322.7</ele><time>2013-11-19T09:37:54.0000000+00:00</time></trkpt><trkpt lat="31.18070221" lon="34.80678177"><ele>322.8</ele><time>2013-11-19T09:37:59.0000000+00:00</time></trkpt><trkpt lat="31.18043327" lon="34.8067894"><ele>322.9</ele><time>2013-11-19T09:38:04.0000000+00:00</time></trkpt><trkpt lat="31.18015289" lon="34.80680466"><ele>323.5</ele><time>2013-11-19T09:38:09.0000000+00:00</time></trkpt><trkpt lat="31.17987442" lon="34.80681992"><ele>323.6</ele><time>2013-11-19T09:38:14.0000000+00:00</time></trkpt><trkpt lat="31.1795826" lon="34.80682373"><ele>323.7</ele><time>2013-11-19T09:38:19.0000000+00:00</time></trkpt><trkpt lat="31.1792984" lon="34.80683518"><ele>323.8</ele><time>2013-11-19T09:38:24.0000000+00:00</time></trkpt><trkpt lat="31.17900467" lon="34.80687714"><ele>323.6</ele><time>2013-11-19T09:38:29.0000000+00:00</time></trkpt><trkpt lat="31.1787262" lon="34.80695725"><ele>323.7</ele><time>2013-11-19T09:38:34.0000000+00:00</time></trkpt><trkpt lat="31.17844391" lon="34.80698776"><ele>323.9</ele><time>2013-11-19T09:38:39.0000000+00:00</time></trkpt><trkpt lat="31.17818832" lon="34.80696869"><ele>324.8</ele><time>2013-11-19T09:38:44.0000000+00:00</time></trkpt><trkpt lat="31.17792511" lon="34.80693817"><ele>325.1</ele><time>2013-11-19T09:38:49.0000000+00:00</time></trkpt><trkpt lat="31.17765999" lon="34.80691528"><ele>324.9</ele><time>2013-11-19T09:38:54.0000000+00:00</time></trkpt><trkpt lat="31.17743874" lon="34.80690765"><ele>325.2</ele><time>2013-11-19T09:38:59.0000000+00:00</time></trkpt><trkpt lat="31.17733002" lon="34.8068924"><ele>324.5</ele><time>2013-11-19T09:39:04.0000000+00:00</time></trkpt><trkpt lat="31.1773262" lon="34.8068924"><ele>324.2</ele><time>2013-11-19T09:39:09.0000000+00:00</time></trkpt><trkpt lat="31.17730713" lon="34.80688858"><ele>324.1</ele><time>2013-11-19T09:39:14.0000000+00:00</time></trkpt><trkpt lat="31.17720223" lon="34.80686951"><ele>324.1</ele><time>2013-11-19T09:39:19.0000000+00:00</time></trkpt><trkpt lat="31.1770401" lon="34.80685043"><ele>324.3</ele><time>2013-11-19T09:39:24.0000000+00:00</time></trkpt><trkpt lat="31.17682838" lon="34.80680847"><ele>324.2</ele><time>2013-11-19T09:39:29.0000000+00:00</time></trkpt><trkpt lat="31.17658997" lon="34.80675507"><ele>324.6</ele><time>2013-11-19T09:39:34.0000000+00:00</time></trkpt><trkpt lat="31.17632675" lon="34.80669403"><ele>325.4</ele><time>2013-11-19T09:39:39.0000000+00:00</time></trkpt><trkpt lat="31.17606545" lon="34.80662155"><ele>326.3</ele><time>2013-11-19T09:39:44.0000000+00:00</time></trkpt><trkpt lat="31.17579651" lon="34.80655289"><ele>326.9</ele><time>2013-11-19T09:39:49.0000000+00:00</time></trkpt><trkpt lat="31.17551422" lon="34.80646896"><ele>327.4</ele><time>2013-11-19T09:39:54.0000000+00:00</time></trkpt><trkpt lat="31.17522812" lon="34.80638504"><ele>327.6</ele><time>2013-11-19T09:39:59.0000000+00:00</time></trkpt><trkpt lat="31.1749382" lon="34.8062973"><ele>328.1</ele><time>2013-11-19T09:40:04.0000000+00:00</time></trkpt><trkpt lat="31.17463875" lon="34.80622101"><ele>328.5</ele><time>2013-11-19T09:40:09.0000000+00:00</time></trkpt><trkpt lat="31.17433739" lon="34.80614853"><ele>328.5</ele><time>2013-11-19T09:40:14.0000000+00:00</time></trkpt><trkpt lat="31.1740284" lon="34.80607605"><ele>328.5</ele><time>2013-11-19T09:40:19.0000000+00:00</time></trkpt><trkpt lat="31.17372704" lon="34.80599976"><ele>329.1</ele><time>2013-11-19T09:40:24.0000000+00:00</time></trkpt><trkpt lat="31.17343712" lon="34.80592346"><ele>329.4</ele><time>2013-11-19T09:40:29.0000000+00:00</time></trkpt><trkpt lat="31.17316437" lon="34.80587006"><ele>328.9</ele><time>2013-11-19T09:40:34.0000000+00:00</time></trkpt><trkpt lat="31.17287827" lon="34.80582809"><ele>328.6</ele><time>2013-11-19T09:40:39.0000000+00:00</time></trkpt><trkpt lat="31.17258644" lon="34.80577087"><ele>328.4</ele><time>2013-11-19T09:40:44.0000000+00:00</time></trkpt><trkpt lat="31.17229271" lon="34.80570221"><ele>328.5</ele><time>2013-11-19T09:40:49.0000000+00:00</time></trkpt><trkpt lat="31.17201996" lon="34.80564117"><ele>328.1</ele><time>2013-11-19T09:40:54.0000000+00:00</time></trkpt><trkpt lat="31.1717453" lon="34.80558395"><ele>328.0</ele><time>2013-11-19T09:40:59.0000000+00:00</time></trkpt><trkpt lat="31.17146301" lon="34.80552292"><ele>328.2</ele><time>2013-11-19T09:41:04.0000000+00:00</time></trkpt><trkpt lat="31.17117882" lon="34.80545425"><ele>328.4</ele><time>2013-11-19T09:41:09.0000000+00:00</time></trkpt><trkpt lat="31.17091179" lon="34.80536652"><ele>328.5</ele><time>2013-11-19T09:41:14.0000000+00:00</time></trkpt><trkpt lat="31.17064095" lon="34.80529022"><ele>328.7</ele><time>2013-11-19T09:41:19.0000000+00:00</time></trkpt><trkpt lat="31.17036438" lon="34.80521393"><ele>328.7</ele><time>2013-11-19T09:41:24.0000000+00:00</time></trkpt><trkpt lat="31.17008591" lon="34.80514145"><ele>329.0</ele><time>2013-11-19T09:41:29.0000000+00:00</time></trkpt><trkpt lat="31.16982079" lon="34.80506134"><ele>329.2</ele><time>2013-11-19T09:41:34.0000000+00:00</time></trkpt><trkpt lat="31.16957855" lon="34.80499268"><ele>329.3</ele><time>2013-11-19T09:41:39.0000000+00:00</time></trkpt><trkpt lat="31.16932106" lon="34.80493927"><ele>330.0</ele><time>2013-11-19T09:41:44.0000000+00:00</time></trkpt><trkpt lat="31.16906357" lon="34.80486298"><ele>330.7</ele><time>2013-11-19T09:41:49.0000000+00:00</time></trkpt><trkpt lat="31.16881943" lon="34.80479431"><ele>331.2</ele><time>2013-11-19T09:41:54.0000000+00:00</time></trkpt><trkpt lat="31.16856766" lon="34.80472183"><ele>331.5</ele><time>2013-11-19T09:41:59.0000000+00:00</time></trkpt><trkpt lat="31.16829872" lon="34.80464172"><ele>331.6</ele><time>2013-11-19T09:42:04.0000000+00:00</time></trkpt><trkpt lat="31.16805267" lon="34.80457306"><ele>331.9</ele><time>2013-11-19T09:42:09.0000000+00:00</time></trkpt><trkpt lat="31.16779137" lon="34.80450058"><ele>332.0</ele><time>2013-11-19T09:42:14.0000000+00:00</time></trkpt><trkpt lat="31.16755867" lon="34.80443192"><ele>332.1</ele><time>2013-11-19T09:42:19.0000000+00:00</time></trkpt><trkpt lat="31.16731834" lon="34.80434036"><ele>332.2</ele><time>2013-11-19T09:42:24.0000000+00:00</time></trkpt><trkpt lat="31.16708183" lon="34.80424881"><ele>332.4</ele><time>2013-11-19T09:42:29.0000000+00:00</time></trkpt><trkpt lat="31.16684151" lon="34.80415344"><ele>332.5</ele><time>2013-11-19T09:42:34.0000000+00:00</time></trkpt><trkpt lat="31.16663742" lon="34.8040657"><ele>332.3</ele><time>2013-11-19T09:42:39.0000000+00:00</time></trkpt><trkpt lat="31.16641617" lon="34.80399704"><ele>332.8</ele><time>2013-11-19T09:42:44.0000000+00:00</time></trkpt><trkpt lat="31.16618347" lon="34.80393601"><ele>333.3</ele><time>2013-11-19T09:42:49.0000000+00:00</time></trkpt><trkpt lat="31.16593742" lon="34.80387497"><ele>333.2</ele><time>2013-11-19T09:42:54.0000000+00:00</time></trkpt><trkpt lat="31.16568565" lon="34.80381012"><ele>333.7</ele><time>2013-11-19T09:42:59.0000000+00:00</time></trkpt><trkpt lat="31.16542625" lon="34.80373764"><ele>334.1</ele><time>2013-11-19T09:43:04.0000000+00:00</time></trkpt><trkpt lat="31.16518402" lon="34.80367279"><ele>334.4</ele><time>2013-11-19T09:43:09.0000000+00:00</time></trkpt><trkpt lat="31.16491509" lon="34.80360794"><ele>334.4</ele><time>2013-11-19T09:43:14.0000000+00:00</time></trkpt><trkpt lat="31.16463471" lon="34.80356216"><ele>334.4</ele><time>2013-11-19T09:43:19.0000000+00:00</time></trkpt><trkpt lat="31.16435623" lon="34.80360031"><ele>333.8</ele><time>2013-11-19T09:43:24.0000000+00:00</time></trkpt><trkpt lat="31.16409493" lon="34.80362701"><ele>333.7</ele><time>2013-11-19T09:43:29.0000000+00:00</time></trkpt><trkpt lat="31.16379929" lon="34.80361176"><ele>333.5</ele><time>2013-11-19T09:43:34.0000000+00:00</time></trkpt><trkpt lat="31.16349793" lon="34.8035965"><ele>333.2</ele><time>2013-11-19T09:43:39.0000000+00:00</time></trkpt><trkpt lat="31.16319847" lon="34.80363464"><ele>332.8</ele><time>2013-11-19T09:43:44.0000000+00:00</time></trkpt><trkpt lat="31.16291618" lon="34.80368424"><ele>331.6</ele><time>2013-11-19T09:43:49.0000000+00:00</time></trkpt><trkpt lat="31.16263962" lon="34.80373383"><ele>330.7</ele><time>2013-11-19T09:43:54.0000000+00:00</time></trkpt><trkpt lat="31.16236305" lon="34.80379105"><ele>329.9</ele><time>2013-11-19T09:43:59.0000000+00:00</time></trkpt><trkpt lat="31.16205978" lon="34.80385208"><ele>328.9</ele><time>2013-11-19T09:44:04.0000000+00:00</time></trkpt><trkpt lat="31.16174507" lon="34.8039093"><ele>327.8</ele><time>2013-11-19T09:44:09.0000000+00:00</time></trkpt><trkpt lat="31.16142273" lon="34.80393982"><ele>326.5</ele><time>2013-11-19T09:44:14.0000000+00:00</time></trkpt><trkpt lat="31.16109467" lon="34.80398178"><ele>325.9</ele><time>2013-11-19T09:44:19.0000000+00:00</time></trkpt><trkpt lat="31.16075707" lon="34.80403519"><ele>325.3</ele><time>2013-11-19T09:44:24.0000000+00:00</time></trkpt><trkpt lat="31.16040802" lon="34.80410385"><ele>323.8</ele><time>2013-11-19T09:44:29.0000000+00:00</time></trkpt><trkpt lat="31.16004753" lon="34.80415726"><ele>322.2</ele><time>2013-11-19T09:44:34.0000000+00:00</time></trkpt><trkpt lat="31.15967178" lon="34.80423355"><ele>320.8</ele><time>2013-11-19T09:44:39.0000000+00:00</time></trkpt><trkpt lat="31.15929222" lon="34.80418396"><ele>319.4</ele><time>2013-11-19T09:44:44.0000000+00:00</time></trkpt><trkpt lat="31.15891457" lon="34.80403137"><ele>318.0</ele><time>2013-11-19T09:44:49.0000000+00:00</time></trkpt><trkpt lat="31.15857506" lon="34.8039856"><ele>318.7</ele><time>2013-11-19T09:44:54.0000000+00:00</time></trkpt><trkpt lat="31.15830612" lon="34.8040123"><ele>319.8</ele><time>2013-11-19T09:44:59.0000000+00:00</time></trkpt><trkpt lat="31.15810394" lon="34.80408096"><ele>321.1</ele><time>2013-11-19T09:45:04.0000000+00:00</time></trkpt><trkpt lat="31.15794373" lon="34.80419159"><ele>322.3</ele><time>2013-11-19T09:45:09.0000000+00:00</time></trkpt><trkpt lat="31.15785217" lon="34.80428696"><ele>323.4</ele><time>2013-11-19T09:45:14.0000000+00:00</time></trkpt><trkpt lat="31.15777779" lon="34.80441666"><ele>324.9</ele><time>2013-11-19T09:45:19.0000000+00:00</time></trkpt><trkpt lat="31.15767479" lon="34.80455399"><ele>325.8</ele><time>2013-11-19T09:45:24.0000000+00:00</time></trkpt><trkpt lat="31.15753174" lon="34.80461884"><ele>325.8</ele><time>2013-11-19T09:45:29.0000000+00:00</time></trkpt><trkpt lat="31.15734291" lon="34.8046608"><ele>325.6</ele><time>2013-11-19T09:45:34.0000000+00:00</time></trkpt><trkpt lat="31.15711975" lon="34.80470276"><ele>324.8</ele><time>2013-11-19T09:45:39.0000000+00:00</time></trkpt><trkpt lat="31.15689659" lon="34.80473328"><ele>324.2</ele><time>2013-11-19T09:45:44.0000000+00:00</time></trkpt><trkpt lat="31.15670586" lon="34.80475998"><ele>324.2</ele><time>2013-11-19T09:45:49.0000000+00:00</time></trkpt><trkpt lat="31.15652466" lon="34.80478287"><ele>324.4</ele><time>2013-11-19T09:45:54.0000000+00:00</time></trkpt><trkpt lat="31.15633392" lon="34.80482101"><ele>324.5</ele><time>2013-11-19T09:45:59.0000000+00:00</time></trkpt><trkpt lat="31.15613556" lon="34.80485535"><ele>324.8</ele><time>2013-11-19T09:46:04.0000000+00:00</time></trkpt><trkpt lat="31.15594292" lon="34.80488968"><ele>325.6</ele><time>2013-11-19T09:46:09.0000000+00:00</time></trkpt><trkpt lat="31.15578079" lon="34.80492401"><ele>326.3</ele><time>2013-11-19T09:46:14.0000000+00:00</time></trkpt><trkpt lat="31.15561485" lon="34.80495834"><ele>327.5</ele><time>2013-11-19T09:46:19.0000000+00:00</time></trkpt><trkpt lat="31.15546608" lon="34.80499268"><ele>328.3</ele><time>2013-11-19T09:46:24.0000000+00:00</time></trkpt><trkpt lat="31.15530205" lon="34.80502701"><ele>328.7</ele><time>2013-11-19T09:46:29.0000000+00:00</time></trkpt><trkpt lat="31.15512848" lon="34.80506897"><ele>328.8</ele><time>2013-11-19T09:46:34.0000000+00:00</time></trkpt><trkpt lat="31.15500832" lon="34.80508804"><ele>329.7</ele><time>2013-11-19T09:46:39.0000000+00:00</time></trkpt><trkpt lat="31.15488434" lon="34.80510712"><ele>331.0</ele><time>2013-11-19T09:46:44.0000000+00:00</time></trkpt><trkpt lat="31.15474701" lon="34.80513382"><ele>331.5</ele><time>2013-11-19T09:46:49.0000000+00:00</time></trkpt><trkpt lat="31.1545887" lon="34.80516815"><ele>331.3</ele><time>2013-11-19T09:46:54.0000000+00:00</time></trkpt><trkpt lat="31.15440941" lon="34.80519104"><ele>331.1</ele><time>2013-11-19T09:46:59.0000000+00:00</time></trkpt><trkpt lat="31.15418243" lon="34.80521393"><ele>330.5</ele><time>2013-11-19T09:47:04.0000000+00:00</time></trkpt><trkpt lat="31.15388298" lon="34.80524063"><ele>328.5</ele><time>2013-11-19T09:47:09.0000000+00:00</time></trkpt><trkpt lat="31.15352249" lon="34.80526733"><ele>325.9</ele><time>2013-11-19T09:47:14.0000000+00:00</time></trkpt><trkpt lat="31.15311432" lon="34.80525589"><ele>325.3</ele><time>2013-11-19T09:47:19.0000000+00:00</time></trkpt><trkpt lat="31.15267181" lon="34.80523682"><ele>323.1</ele><time>2013-11-19T09:47:24.0000000+00:00</time></trkpt><trkpt lat="31.15225411" lon="34.80522156"><ele>323.0</ele><time>2013-11-19T09:47:29.0000000+00:00</time></trkpt><trkpt lat="31.15214729" lon="34.80521393"><ele>322.5</ele><time>2013-11-19T09:47:34.0000000+00:00</time></trkpt><trkpt lat="31.1521492" lon="34.80521774"><ele>322.4</ele><time>2013-11-19T09:47:39.0000000+00:00</time></trkpt><trkpt lat="31.1521492" lon="34.80521774"><ele>322.4</ele><time>2013-11-19T09:47:44.0000000+00:00</time></trkpt><trkpt lat="31.1521492" lon="34.80521774"><ele>322.4</ele><time>2013-11-19T09:47:49.0000000+00:00</time></trkpt><trkpt lat="31.1521492" lon="34.80521774"><ele>322.4</ele><time>2013-11-19T09:47:54.0000000+00:00</time></trkpt><trkpt lat="31.1521492" lon="34.80521774"><ele>322.3</ele><time>2013-11-19T09:47:59.0000000+00:00</time></trkpt><trkpt lat="31.15212822" lon="34.80522156"><ele>322.1</ele><time>2013-11-19T09:48:04.0000000+00:00</time></trkpt><trkpt lat="31.15200615" lon="34.80522156"><ele>322.0</ele><time>2013-11-19T09:48:09.0000000+00:00</time></trkpt><trkpt lat="31.15184975" lon="34.80521011"><ele>322.0</ele><time>2013-11-19T09:48:14.0000000+00:00</time></trkpt><trkpt lat="31.15168572" lon="34.80519486"><ele>322.4</ele><time>2013-11-19T09:48:19.0000000+00:00</time></trkpt><trkpt lat="31.15152931" lon="34.80517197"><ele>322.6</ele><time>2013-11-19T09:48:24.0000000+00:00</time></trkpt><trkpt lat="31.15135956" lon="34.80514908"><ele>323.1</ele><time>2013-11-19T09:48:29.0000000+00:00</time></trkpt><trkpt lat="31.15119362" lon="34.80511856"><ele>323.6</ele><time>2013-11-19T09:48:34.0000000+00:00</time></trkpt><trkpt lat="31.15101051" lon="34.80511475"><ele>323.6</ele><time>2013-11-19T09:48:39.0000000+00:00</time></trkpt><trkpt lat="31.15094566" lon="34.80512238"><ele>323.7</ele><time>2013-11-19T09:48:44.0000000+00:00</time></trkpt><trkpt lat="31.15095711" lon="34.80508423"><ele>323.7</ele><time>2013-11-19T09:48:49.0000000+00:00</time></trkpt><trkpt lat="31.15104294" lon="34.80505753"><ele>325.5</ele><time>2013-11-19T09:48:54.0000000+00:00</time></trkpt><trkpt lat="31.15110207" lon="34.80500412"><ele>326.8</ele><time>2013-11-19T09:48:59.0000000+00:00</time></trkpt><trkpt lat="31.1511364" lon="34.80493546"><ele>328.2</ele><time>2013-11-19T09:49:04.0000000+00:00</time></trkpt><trkpt lat="31.1511116" lon="34.80485535"><ele>329.8</ele><time>2013-11-19T09:49:09.0000000+00:00</time></trkpt><trkpt lat="31.15107918" lon="34.80476761"><ele>331.1</ele><time>2013-11-19T09:49:14.0000000+00:00</time></trkpt><trkpt lat="31.15104675" lon="34.80467987"><ele>332.2</ele><time>2013-11-19T09:49:19.0000000+00:00</time></trkpt><trkpt lat="31.15102005" lon="34.8045578"><ele>333.7</ele><time>2013-11-19T09:49:24.0000000+00:00</time></trkpt><trkpt lat="31.15100861" lon="34.8044281"><ele>334.5</ele><time>2013-11-19T09:49:29.0000000+00:00</time></trkpt><trkpt lat="31.15099907" lon="34.80434036"><ele>335.1</ele><time>2013-11-19T09:49:34.0000000+00:00</time></trkpt><trkpt lat="31.15100288" lon="34.80431747"><ele>334.8</ele><time>2013-11-19T09:49:39.0000000+00:00</time></trkpt><trkpt lat="31.15098572" lon="34.8042984"><ele>336.1</ele><time>2013-11-19T09:49:44.0000000+00:00</time></trkpt><trkpt lat="31.1509819" lon="34.80429459"><ele>336.2</ele><time>2013-11-19T09:49:49.0000000+00:00</time></trkpt><trkpt lat="31.15098381" lon="34.80429459"><ele>336.3</ele><time>2013-11-19T09:49:54.0000000+00:00</time></trkpt><trkpt lat="31.15098953" lon="34.80429459"><ele>336.3</ele><time>2013-11-19T09:49:59.0000000+00:00</time></trkpt><trkpt lat="31.15098953" lon="34.80429459"><ele>336.4</ele><time>2013-11-19T09:50:04.0000000+00:00</time></trkpt><trkpt lat="31.15099526" lon="34.80429459"><ele>336.5</ele><time>2013-11-19T09:50:09.0000000+00:00</time></trkpt><trkpt lat="31.15099526" lon="34.80429459"><ele>336.6</ele><time>2013-11-19T09:50:14.0000000+00:00</time></trkpt><trkpt lat="31.15099526" lon="34.80429459"><ele>336.6</ele><time>2013-11-19T09:50:19.0000000+00:00</time></trkpt><trkpt lat="31.15099716" lon="34.80429459"><ele>336.6</ele><time>2013-11-19T09:50:24.0000000+00:00</time></trkpt><trkpt lat="31.15099716" lon="34.80429459"><ele>336.6</ele><time>2013-11-19T09:50:29.0000000+00:00</time></trkpt><trkpt lat="31.15099716" lon="34.80429459"><ele>336.6</ele><time>2013-11-19T09:50:34.0000000+00:00</time></trkpt><trkpt lat="31.15099716" lon="34.80429459"><ele>336.6</ele><time>2013-11-19T09:50:39.0000000+00:00</time></trkpt><trkpt lat="31.15099716" lon="34.80429459"><ele>336.6</ele><time>2013-11-19T09:50:44.0000000+00:00</time></trkpt><trkpt lat="31.15099716" lon="34.80429459"><ele>336.6</ele><time>2013-11-19T09:50:49.0000000+00:00</time></trkpt><trkpt lat="31.15099716" lon="34.80429459"><ele>336.6</ele><time>2013-11-19T09:50:54.0000000+00:00</time></trkpt><trkpt lat="31.15099716" lon="34.80429459"><ele>336.6</ele><time>2013-11-19T09:50:59.0000000+00:00</time></trkpt><trkpt lat="31.15099716" lon="34.80429459"><ele>336.6</ele><time>2013-11-19T09:51:04.0000000+00:00</time></trkpt><trkpt lat="31.15099716" lon="34.80429459"><ele>336.6</ele><time>2013-11-19T09:51:09.0000000+00:00</time></trkpt><trkpt lat="31.15099907" lon="34.80429459"><ele>336.6</ele><time>2013-11-19T09:51:14.0000000+00:00</time></trkpt><trkpt lat="31.15099907" lon="34.80429459"><ele>336.6</ele><time>2013-11-19T09:51:19.0000000+00:00</time></trkpt><trkpt lat="31.15099907" lon="34.80429459"><ele>336.6</ele><time>2013-11-19T09:51:24.0000000+00:00</time></trkpt><trkpt lat="31.15099907" lon="34.80429459"><ele>336.6</ele><time>2013-11-19T09:51:29.0000000+00:00</time></trkpt><trkpt lat="31.15099907" lon="34.80429459"><ele>336.6</ele><time>2013-11-19T09:51:34.0000000+00:00</time></trkpt><trkpt lat="31.15099907" lon="34.80429459"><ele>336.6</ele><time>2013-11-19T09:51:39.0000000+00:00</time></trkpt><trkpt lat="31.15099907" lon="34.80429459"><ele>336.6</ele><time>2013-11-19T09:51:44.0000000+00:00</time></trkpt><trkpt lat="31.15099907" lon="34.80429459"><ele>336.6</ele><time>2013-11-19T09:51:49.0000000+00:00</time></trkpt><trkpt lat="31.15099907" lon="34.80429459"><ele>336.6</ele><time>2013-11-19T09:51:54.0000000+00:00</time></trkpt><trkpt lat="31.15100098" lon="34.80429459"><ele>336.7</ele><time>2013-11-19T09:51:59.0000000+00:00</time></trkpt><trkpt lat="31.15100098" lon="34.80429459"><ele>336.7</ele><time>2013-11-19T09:52:04.0000000+00:00</time></trkpt><trkpt lat="31.15100098" lon="34.80429459"><ele>336.7</ele><time>2013-11-19T09:52:09.0000000+00:00</time></trkpt><trkpt lat="31.15100098" lon="34.80429459"><ele>336.7</ele><time>2013-11-19T09:52:14.0000000+00:00</time></trkpt><trkpt lat="31.15100098" lon="34.80429459"><ele>336.7</ele><time>2013-11-19T09:52:19.0000000+00:00</time></trkpt><trkpt lat="31.15100098" lon="34.80429459"><ele>336.7</ele><time>2013-11-19T09:52:24.0000000+00:00</time></trkpt><trkpt lat="31.15100288" lon="34.80429459"><ele>336.7</ele><time>2013-11-19T09:52:29.0000000+00:00</time></trkpt><trkpt lat="31.15100288" lon="34.80429459"><ele>336.7</ele><time>2013-11-19T09:52:34.0000000+00:00</time></trkpt><trkpt lat="31.15100288" lon="34.80429459"><ele>336.7</ele><time>2013-11-19T09:52:39.0000000+00:00</time></trkpt><trkpt lat="31.15100288" lon="34.80429459"><ele>336.7</ele><time>2013-11-19T09:52:44.0000000+00:00</time></trkpt><trkpt lat="31.15100288" lon="34.80429459"><ele>336.7</ele><time>2013-11-19T09:52:49.0000000+00:00</time></trkpt><trkpt lat="31.15100288" lon="34.80429459"><ele>336.7</ele><time>2013-11-19T09:52:54.0000000+00:00</time></trkpt><trkpt lat="31.15100288" lon="34.80429459"><ele>336.7</ele><time>2013-11-19T09:52:59.0000000+00:00</time></trkpt><trkpt lat="31.15100479" lon="34.80429459"><ele>336.7</ele><time>2013-11-19T09:53:04.0000000+00:00</time></trkpt><trkpt lat="31.15100479" lon="34.80429459"><ele>336.7</ele><time>2013-11-19T09:53:09.0000000+00:00</time></trkpt><trkpt lat="31.15100479" lon="34.80429459"><ele>336.7</ele><time>2013-11-19T09:53:14.0000000+00:00</time></trkpt><trkpt lat="31.15100479" lon="34.80429459"><ele>336.7</ele><time>2013-11-19T09:53:19.0000000+00:00</time></trkpt><trkpt lat="31.15100479" lon="34.80429459"><ele>336.7</ele><time>2013-11-19T09:53:24.0000000+00:00</time></trkpt><trkpt lat="31.15100479" lon="34.80429459"><ele>336.7</ele><time>2013-11-19T09:53:29.0000000+00:00</time></trkpt><trkpt lat="31.15100479" lon="34.80429459"><ele>336.7</ele><time>2013-11-19T09:53:34.0000000+00:00</time></trkpt><trkpt lat="31.15100479" lon="34.80429459"><ele>336.7</ele><time>2013-11-19T09:53:39.0000000+00:00</time></trkpt><trkpt lat="31.15100479" lon="34.80429459"><ele>336.7</ele><time>2013-11-19T09:53:44.0000000+00:00</time></trkpt><trkpt lat="31.15100479" lon="34.80429459"><ele>336.7</ele><time>2013-11-19T09:53:49.0000000+00:00</time></trkpt><trkpt lat="31.15100479" lon="34.80429459"><ele>336.7</ele><time>2013-11-19T09:53:54.0000000+00:00</time></trkpt><trkpt lat="31.1510067" lon="34.80429459"><ele>336.7</ele><time>2013-11-19T09:53:59.0000000+00:00</time></trkpt><trkpt lat="31.1510067" lon="34.80429459"><ele>336.7</ele><time>2013-11-19T09:54:04.0000000+00:00</time></trkpt><trkpt lat="31.1510067" lon="34.80429459"><ele>336.7</ele><time>2013-11-19T09:54:09.0000000+00:00</time></trkpt><trkpt lat="31.1510067" lon="34.80429459"><ele>336.7</ele><time>2013-11-19T09:54:14.0000000+00:00</time></trkpt><trkpt lat="31.1510067" lon="34.80429459"><ele>336.7</ele><time>2013-11-19T09:54:19.0000000+00:00</time></trkpt><trkpt lat="31.1510067" lon="34.80429459"><ele>336.7</ele><time>2013-11-19T09:54:24.0000000+00:00</time></trkpt><trkpt lat="31.1510067" lon="34.80429459"><ele>336.7</ele><time>2013-11-19T09:54:29.0000000+00:00</time></trkpt><trkpt lat="31.1510067" lon="34.80429459"><ele>336.7</ele><time>2013-11-19T09:54:34.0000000+00:00</time></trkpt><trkpt lat="31.1510067" lon="34.80429459"><ele>336.7</ele><time>2013-11-19T09:54:39.0000000+00:00</time></trkpt><trkpt lat="31.1510067" lon="34.80429459"><ele>336.7</ele><time>2013-11-19T09:54:44.0000000+00:00</time></trkpt><trkpt lat="31.1510067" lon="34.80429459"><ele>336.7</ele><time>2013-11-19T09:54:49.0000000+00:00</time></trkpt><trkpt lat="31.1510067" lon="34.80429459"><ele>336.7</ele><time>2013-11-19T09:54:54.0000000+00:00</time></trkpt><trkpt lat="31.1510067" lon="34.80429459"><ele>336.6</ele><time>2013-11-19T09:54:59.0000000+00:00</time></trkpt><trkpt lat="31.15100479" lon="34.80429459"><ele>336.6</ele><time>2013-11-19T09:55:04.0000000+00:00</time></trkpt><trkpt lat="31.15100479" lon="34.80429459"><ele>336.5</ele><time>2013-11-19T09:55:09.0000000+00:00</time></trkpt><trkpt lat="31.15100288" lon="34.80429459"><ele>336.5</ele><time>2013-11-19T09:55:14.0000000+00:00</time></trkpt><trkpt lat="31.15100288" lon="34.80429459"><ele>336.4</ele><time>2013-11-19T09:55:19.0000000+00:00</time></trkpt><trkpt lat="31.15100098" lon="34.80429077"><ele>336.4</ele><time>2013-11-19T09:55:24.0000000+00:00</time></trkpt><trkpt lat="31.15099716" lon="34.80429077"><ele>336.3</ele><time>2013-11-19T09:55:29.0000000+00:00</time></trkpt><trkpt lat="31.15099716" lon="34.80429077"><ele>336.3</ele><time>2013-11-19T09:55:34.0000000+00:00</time></trkpt><trkpt lat="31.15099526" lon="34.80429077"><ele>336.2</ele><time>2013-11-19T09:55:39.0000000+00:00</time></trkpt><trkpt lat="31.15099526" lon="34.80429077"><ele>336.2</ele><time>2013-11-19T09:55:44.0000000+00:00</time></trkpt><trkpt lat="31.15099335" lon="34.80429077"><ele>336.1</ele><time>2013-11-19T09:55:49.0000000+00:00</time></trkpt><trkpt lat="31.15099335" lon="34.80429077"><ele>336.1</ele><time>2013-11-19T09:55:54.0000000+00:00</time></trkpt><trkpt lat="31.15099144" lon="34.80429077"><ele>336.0</ele><time>2013-11-19T09:55:59.0000000+00:00</time></trkpt><trkpt lat="31.15099144" lon="34.80429077"><ele>336.0</ele><time>2013-11-19T09:56:04.0000000+00:00</time></trkpt><trkpt lat="31.15099144" lon="34.80429077"><ele>336.0</ele><time>2013-11-19T09:56:09.0000000+00:00</time></trkpt><trkpt lat="31.15099144" lon="34.80429077"><ele>336.0</ele><time>2013-11-19T09:56:14.0000000+00:00</time></trkpt><trkpt lat="31.15099144" lon="34.80429077"><ele>336.0</ele><time>2013-11-19T09:56:19.0000000+00:00</time></trkpt><trkpt lat="31.15099144" lon="34.80429077"><ele>336.0</ele><time>2013-11-19T09:56:24.0000000+00:00</time></trkpt><trkpt lat="31.15099144" lon="34.80429077"><ele>335.9</ele><time>2013-11-19T09:56:29.0000000+00:00</time></trkpt><trkpt lat="31.15099144" lon="34.80429077"><ele>335.9</ele><time>2013-11-19T09:56:34.0000000+00:00</time></trkpt><trkpt lat="31.15098953" lon="34.80429077"><ele>335.9</ele><time>2013-11-19T09:56:39.0000000+00:00</time></trkpt><trkpt lat="31.15099144" lon="34.80429077"><ele>335.9</ele><time>2013-11-19T09:56:44.0000000+00:00</time></trkpt><trkpt lat="31.15099144" lon="34.80429077"><ele>335.9</ele><time>2013-11-19T09:56:49.0000000+00:00</time></trkpt><trkpt lat="31.15099144" lon="34.80429077"><ele>335.9</ele><time>2013-11-19T09:56:54.0000000+00:00</time></trkpt><trkpt lat="31.15099144" lon="34.80429077"><ele>335.9</ele><time>2013-11-19T09:56:59.0000000+00:00</time></trkpt><trkpt lat="31.15099144" lon="34.80429077"><ele>335.9</ele><time>2013-11-19T09:57:04.0000000+00:00</time></trkpt><trkpt lat="31.15099144" lon="34.80429077"><ele>335.9</ele><time>2013-11-19T09:57:09.0000000+00:00</time></trkpt><trkpt lat="31.15099144" lon="34.80429077"><ele>335.9</ele><time>2013-11-19T09:57:14.0000000+00:00</time></trkpt><trkpt lat="31.15099144" lon="34.80429077"><ele>335.9</ele><time>2013-11-19T09:57:19.0000000+00:00</time></trkpt><trkpt lat="31.15099144" lon="34.80429077"><ele>335.9</ele><time>2013-11-19T09:57:24.0000000+00:00</time></trkpt><trkpt lat="31.15099144" lon="34.80429077"><ele>336.0</ele><time>2013-11-19T09:57:29.0000000+00:00</time></trkpt><trkpt lat="31.15099144" lon="34.80429077"><ele>336.0</ele><time>2013-11-19T09:57:34.0000000+00:00</time></trkpt><trkpt lat="31.15098953" lon="34.80429077"><ele>336.0</ele><time>2013-11-19T09:57:39.0000000+00:00</time></trkpt><trkpt lat="31.15098953" lon="34.80429077"><ele>336.0</ele><time>2013-11-19T09:57:44.0000000+00:00</time></trkpt><trkpt lat="31.15098953" lon="34.80429077"><ele>336.0</ele><time>2013-11-19T09:57:49.0000000+00:00</time></trkpt><trkpt lat="31.15098953" lon="34.80429077"><ele>336.0</ele><time>2013-11-19T09:57:54.0000000+00:00</time></trkpt><trkpt lat="31.15098953" lon="34.80429077"><ele>336.0</ele><time>2013-11-19T09:57:59.0000000+00:00</time></trkpt><trkpt lat="31.15098953" lon="34.80429077"><ele>336.0</ele><time>2013-11-19T09:58:04.0000000+00:00</time></trkpt><trkpt lat="31.15098953" lon="34.80429077"><ele>336.1</ele><time>2013-11-19T09:58:09.0000000+00:00</time></trkpt><trkpt lat="31.15098953" lon="34.80429077"><ele>336.1</ele><time>2013-11-19T09:58:14.0000000+00:00</time></trkpt><trkpt lat="31.15098953" lon="34.80429077"><ele>336.1</ele><time>2013-11-19T09:58:19.0000000+00:00</time></trkpt><trkpt lat="31.15098953" lon="34.80430222"><ele>336.1</ele><time>2013-11-19T09:58:24.0000000+00:00</time></trkpt><trkpt lat="31.15100861" lon="34.80442429"><ele>336.2</ele><time>2013-11-19T09:58:29.0000000+00:00</time></trkpt><trkpt lat="31.15102005" lon="34.80458069"><ele>335.6</ele><time>2013-11-19T09:58:34.0000000+00:00</time></trkpt><trkpt lat="31.15107918" lon="34.80475235"><ele>334.6</ele><time>2013-11-19T09:58:39.0000000+00:00</time></trkpt><trkpt lat="31.15113068" lon="34.80492401"><ele>333.9</ele><time>2013-11-19T09:58:44.0000000+00:00</time></trkpt><trkpt lat="31.15108872" lon="34.80503464"><ele>333.4</ele><time>2013-11-19T09:58:49.0000000+00:00</time></trkpt><trkpt lat="31.15094566" lon="34.80506897"><ele>330.6</ele><time>2013-11-19T09:58:54.0000000+00:00</time></trkpt><trkpt lat="31.1507225" lon="34.80504227"><ele>329.9</ele><time>2013-11-19T09:58:59.0000000+00:00</time></trkpt><trkpt lat="31.15044785" lon="34.80500412"><ele>328.1</ele><time>2013-11-19T09:59:04.0000000+00:00</time></trkpt><trkpt lat="31.15013313" lon="34.80496216"><ele>326.0</ele><time>2013-11-19T09:59:09.0000000+00:00</time></trkpt><trkpt lat="31.14980888" lon="34.8049202"><ele>324.9</ele><time>2013-11-19T09:59:14.0000000+00:00</time></trkpt><trkpt lat="31.14951706" lon="34.80488205"><ele>324.7</ele><time>2013-11-19T09:59:19.0000000+00:00</time></trkpt><trkpt lat="31.14924431" lon="34.80485535"><ele>324.4</ele><time>2013-11-19T09:59:24.0000000+00:00</time></trkpt><trkpt lat="31.148983" lon="34.80482864"><ele>324.8</ele><time>2013-11-19T09:59:29.0000000+00:00</time></trkpt><trkpt lat="31.14872551" lon="34.8047905"><ele>324.6</ele><time>2013-11-19T09:59:34.0000000+00:00</time></trkpt><trkpt lat="31.14845085" lon="34.80475998"><ele>323.5</ele><time>2013-11-19T09:59:39.0000000+00:00</time></trkpt><trkpt lat="31.14812279" lon="34.80474091"><ele>321.4</ele><time>2013-11-19T09:59:44.0000000+00:00</time></trkpt><trkpt lat="31.14775276" lon="34.80473328"><ele>319.5</ele><time>2013-11-19T09:59:49.0000000+00:00</time></trkpt><trkpt lat="31.14743042" lon="34.8047142"><ele>319.6</ele><time>2013-11-19T09:59:54.0000000+00:00</time></trkpt><trkpt lat="31.14716339" lon="34.80469894"><ele>319.0</ele><time>2013-11-19T09:59:59.0000000+00:00</time></trkpt><trkpt lat="31.14686012" lon="34.80469894"><ele>316.3</ele><time>2013-11-19T10:00:04.0000000+00:00</time></trkpt><trkpt lat="31.14650345" lon="34.80468369"><ele>314.0</ele><time>2013-11-19T10:00:09.0000000+00:00</time></trkpt><trkpt lat="31.14616394" lon="34.80446625"><ele>310.0</ele><time>2013-11-19T10:00:14.0000000+00:00</time></trkpt><trkpt lat="31.1458416" lon="34.8041153"><ele>306.9</ele><time>2013-11-19T10:00:19.0000000+00:00</time></trkpt><trkpt lat="31.14562225" lon="34.8039856"><ele>307.4</ele><time>2013-11-19T10:00:24.0000000+00:00</time></trkpt><trkpt lat="31.14564705" lon="34.8037796"><ele>306.8</ele><time>2013-11-19T10:00:29.0000000+00:00</time></trkpt><trkpt lat="31.14565659" lon="34.80360031"><ele>306.8</ele><time>2013-11-19T10:00:34.0000000+00:00</time></trkpt><trkpt lat="31.14566231" lon="34.80349731"><ele>306.6</ele><time>2013-11-19T10:00:39.0000000+00:00</time></trkpt><trkpt lat="31.14566994" lon="34.80341339"><ele>306.4</ele><time>2013-11-19T10:00:44.0000000+00:00</time></trkpt><trkpt lat="31.14564705" lon="34.8033371"><ele>306.7</ele><time>2013-11-19T10:00:49.0000000+00:00</time></trkpt><trkpt lat="31.14562607" lon="34.80339432"><ele>306.6</ele><time>2013-11-19T10:00:54.0000000+00:00</time></trkpt><trkpt lat="31.14562798" lon="34.80356598"><ele>307.6</ele><time>2013-11-19T10:00:59.0000000+00:00</time></trkpt><trkpt lat="31.14562416" lon="34.80379486"><ele>307.7</ele><time>2013-11-19T10:01:04.0000000+00:00</time></trkpt><trkpt lat="31.1456089" lon="34.80399704"><ele>308.0</ele><time>2013-11-19T10:01:09.0000000+00:00</time></trkpt><trkpt lat="31.14544487" lon="34.8040657"><ele>308.1</ele><time>2013-11-19T10:01:14.0000000+00:00</time></trkpt><trkpt lat="31.14533043" lon="34.80421066"><ele>308.3</ele><time>2013-11-19T10:01:19.0000000+00:00</time></trkpt><trkpt lat="31.14526558" lon="34.8043747"><ele>309.3</ele><time>2013-11-19T10:01:24.0000000+00:00</time></trkpt><trkpt lat="31.14520836" lon="34.80451202"><ele>311.6</ele><time>2013-11-19T10:01:29.0000000+00:00</time></trkpt><trkpt lat="31.14513207" lon="34.8046608"><ele>311.7</ele><time>2013-11-19T10:01:34.0000000+00:00</time></trkpt><trkpt lat="31.14498138" lon="34.80473709"><ele>311.1</ele><time>2013-11-19T10:01:39.0000000+00:00</time></trkpt><trkpt lat="31.14482117" lon="34.80475235"><ele>310.7</ele><time>2013-11-19T10:01:44.0000000+00:00</time></trkpt><trkpt lat="31.14464569" lon="34.80474091"><ele>310.8</ele><time>2013-11-19T10:01:49.0000000+00:00</time></trkpt><trkpt lat="31.1444931" lon="34.80473328"><ele>310.5</ele><time>2013-11-19T10:01:54.0000000+00:00</time></trkpt><trkpt lat="31.14438629" lon="34.80474472"><ele>310.3</ele><time>2013-11-19T10:01:59.0000000+00:00</time></trkpt><trkpt lat="31.14427757" lon="34.80473709"><ele>309.7</ele><time>2013-11-19T10:02:04.0000000+00:00</time></trkpt><trkpt lat="31.14414597" lon="34.80472946"><ele>309.6</ele><time>2013-11-19T10:02:09.0000000+00:00</time></trkpt><trkpt lat="31.14401245" lon="34.80472946"><ele>310.0</ele><time>2013-11-19T10:02:14.0000000+00:00</time></trkpt><trkpt lat="31.1438961" lon="34.80473328"><ele>310.2</ele><time>2013-11-19T10:02:19.0000000+00:00</time></trkpt><trkpt lat="31.14376259" lon="34.80472946"><ele>310.5</ele><time>2013-11-19T10:02:24.0000000+00:00</time></trkpt><trkpt lat="31.1436367" lon="34.80472565"><ele>310.9</ele><time>2013-11-19T10:02:29.0000000+00:00</time></trkpt><trkpt lat="31.14349937" lon="34.80470657"><ele>311.3</ele><time>2013-11-19T10:02:34.0000000+00:00</time></trkpt><trkpt lat="31.14336395" lon="34.80468369"><ele>312.1</ele><time>2013-11-19T10:02:39.0000000+00:00</time></trkpt><trkpt lat="31.14323235" lon="34.8046608"><ele>312.7</ele><time>2013-11-19T10:02:44.0000000+00:00</time></trkpt><trkpt lat="31.14310265" lon="34.80464172"><ele>313.0</ele><time>2013-11-19T10:02:49.0000000+00:00</time></trkpt><trkpt lat="31.14297104" lon="34.80461884"><ele>313.5</ele><time>2013-11-19T10:02:54.0000000+00:00</time></trkpt><trkpt lat="31.14284325" lon="34.80458832"><ele>314.3</ele><time>2013-11-19T10:02:59.0000000+00:00</time></trkpt><trkpt lat="31.14271164" lon="34.80456543"><ele>314.9</ele><time>2013-11-19T10:03:04.0000000+00:00</time></trkpt><trkpt lat="31.14258194" lon="34.80454254"><ele>315.4</ele><time>2013-11-19T10:03:09.0000000+00:00</time></trkpt><trkpt lat="31.1424675" lon="34.80452347"><ele>315.8</ele><time>2013-11-19T10:03:14.0000000+00:00</time></trkpt><trkpt lat="31.14245796" lon="34.80452347"><ele>316.6</ele><time>2013-11-19T10:03:19.0000000+00:00</time></trkpt><trkpt lat="31.14255142" lon="34.80454636"><ele>318.0</ele><time>2013-11-19T10:03:24.0000000+00:00</time></trkpt><trkpt lat="31.14258003" lon="34.80456162"><ele>319.1</ele><time>2013-11-19T10:03:29.0000000+00:00</time></trkpt><trkpt lat="31.14258766" lon="34.80456543"><ele>319.5</ele><time>2013-11-19T10:03:34.0000000+00:00</time></trkpt><trkpt lat="31.14258766" lon="34.80456543"><ele>319.5</ele><time>2013-11-19T10:03:39.0000000+00:00</time></trkpt><trkpt lat="31.14258766" lon="34.80456543"><ele>319.6</ele><time>2013-11-19T10:03:44.0000000+00:00</time></trkpt><trkpt lat="31.14258766" lon="34.80456543"><ele>319.6</ele><time>2013-11-19T10:03:49.0000000+00:00</time></trkpt><trkpt lat="31.14258766" lon="34.80456543"><ele>319.6</ele><time>2013-11-19T10:03:54.0000000+00:00</time></trkpt><trkpt lat="31.14258766" lon="34.80456543"><ele>319.5</ele><time>2013-11-19T10:03:59.0000000+00:00</time></trkpt><trkpt lat="31.14258766" lon="34.80456543"><ele>319.6</ele><time>2013-11-19T10:04:04.0000000+00:00</time></trkpt><trkpt lat="31.14258766" lon="34.80456543"><ele>319.6</ele><time>2013-11-19T10:04:09.0000000+00:00</time></trkpt><trkpt lat="31.14258766" lon="34.80455017"><ele>319.5</ele><time>2013-11-19T10:04:14.0000000+00:00</time></trkpt><trkpt lat="31.14253807" lon="34.80455017"><ele>319.1</ele><time>2013-11-19T10:04:19.0000000+00:00</time></trkpt><trkpt lat="31.14241219" lon="34.80450821"><ele>319.8</ele><time>2013-11-19T10:04:24.0000000+00:00</time></trkpt><trkpt lat="31.14228058" lon="34.80447769"><ele>321.0</ele><time>2013-11-19T10:04:29.0000000+00:00</time></trkpt><trkpt lat="31.14215469" lon="34.8044548"><ele>321.5</ele><time>2013-11-19T10:04:34.0000000+00:00</time></trkpt><trkpt lat="31.14201927" lon="34.80443573"><ele>322.1</ele><time>2013-11-19T10:04:39.0000000+00:00</time></trkpt><trkpt lat="31.14187622" lon="34.80440903"><ele>321.7</ele><time>2013-11-19T10:04:44.0000000+00:00</time></trkpt><trkpt lat="31.14171982" lon="34.80438995"><ele>321.4</ele><time>2013-11-19T10:04:49.0000000+00:00</time></trkpt><trkpt lat="31.14158058" lon="34.80436325"><ele>321.4</ele><time>2013-11-19T10:04:54.0000000+00:00</time></trkpt><trkpt lat="31.14141274" lon="34.80433273"><ele>321.5</ele><time>2013-11-19T10:04:59.0000000+00:00</time></trkpt><trkpt lat="31.14123535" lon="34.80430603"><ele>321.0</ele><time>2013-11-19T10:05:04.0000000+00:00</time></trkpt><trkpt lat="31.14108849" lon="34.8042717"><ele>321.7</ele><time>2013-11-19T10:05:09.0000000+00:00</time></trkpt><trkpt lat="31.14091873" lon="34.80425263"><ele>321.1</ele><time>2013-11-19T10:05:14.0000000+00:00</time></trkpt><trkpt lat="31.1407547" lon="34.80422974"><ele>321.2</ele><time>2013-11-19T10:05:19.0000000+00:00</time></trkpt><trkpt lat="31.14057541" lon="34.80422211"><ele>320.6</ele><time>2013-11-19T10:05:24.0000000+00:00</time></trkpt><trkpt lat="31.14041328" lon="34.80421448"><ele>320.3</ele><time>2013-11-19T10:05:29.0000000+00:00</time></trkpt><trkpt lat="31.14021874" lon="34.80421829"><ele>319.5</ele><time>2013-11-19T10:05:34.0000000+00:00</time></trkpt><trkpt lat="31.14000893" lon="34.80421448"><ele>319.5</ele><time>2013-11-19T10:05:39.0000000+00:00</time></trkpt><trkpt lat="31.13977242" lon="34.80421066"><ele>319.8</ele><time>2013-11-19T10:05:44.0000000+00:00</time></trkpt><trkpt lat="31.1395607" lon="34.80420303"><ele>319.9</ele><time>2013-11-19T10:05:49.0000000+00:00</time></trkpt><trkpt lat="31.13933182" lon="34.80419159"><ele>320.0</ele><time>2013-11-19T10:05:54.0000000+00:00</time></trkpt><trkpt lat="31.13908005" lon="34.80418015"><ele>319.5</ele><time>2013-11-19T10:05:59.0000000+00:00</time></trkpt><trkpt lat="31.13882637" lon="34.80421448"><ele>318.3</ele><time>2013-11-19T10:06:04.0000000+00:00</time></trkpt><trkpt lat="31.13859558" lon="34.80429077"><ele>318.2</ele><time>2013-11-19T10:06:09.0000000+00:00</time></trkpt><trkpt lat="31.13835526" lon="34.80434418"><ele>318.1</ele><time>2013-11-19T10:06:14.0000000+00:00</time></trkpt><trkpt lat="31.13808441" lon="34.8043251"><ele>317.9</ele><time>2013-11-19T10:06:19.0000000+00:00</time></trkpt><trkpt lat="31.13779259" lon="34.80431747"><ele>316.9</ele><time>2013-11-19T10:06:24.0000000+00:00</time></trkpt><trkpt lat="31.13749504" lon="34.80433655"><ele>315.5</ele><time>2013-11-19T10:06:29.0000000+00:00</time></trkpt><trkpt lat="31.13718224" lon="34.80438995"><ele>314.5</ele><time>2013-11-19T10:06:34.0000000+00:00</time></trkpt><trkpt lat="31.13691521" lon="34.80454254"><ele>315.0</ele><time>2013-11-19T10:06:39.0000000+00:00</time></trkpt><trkpt lat="31.1366806" lon="34.8046608"><ele>316.5</ele><time>2013-11-19T10:06:44.0000000+00:00</time></trkpt><trkpt lat="31.1364708" lon="34.80470276"><ele>315.7</ele><time>2013-11-19T10:06:49.0000000+00:00</time></trkpt><trkpt lat="31.13640022" lon="34.80470276"><ele>315.0</ele><time>2013-11-19T10:06:54.0000000+00:00</time></trkpt><trkpt lat="31.13632774" lon="34.80471802"><ele>314.4</ele><time>2013-11-19T10:06:59.0000000+00:00</time></trkpt><trkpt lat="31.1362381" lon="34.80473709"><ele>314.5</ele><time>2013-11-19T10:07:04.0000000+00:00</time></trkpt><trkpt lat="31.13613701" lon="34.80474854"><ele>313.6</ele><time>2013-11-19T10:07:09.0000000+00:00</time></trkpt><trkpt lat="31.13602829" lon="34.80469513"><ele>314.2</ele><time>2013-11-19T10:07:14.0000000+00:00</time></trkpt><trkpt lat="31.13599777" lon="34.80452728"><ele>315.8</ele><time>2013-11-19T10:07:19.0000000+00:00</time></trkpt><trkpt lat="31.13601875" lon="34.80431366"><ele>316.5</ele><time>2013-11-19T10:07:24.0000000+00:00</time></trkpt><trkpt lat="31.1360302" lon="34.80408478"><ele>316.9</ele><time>2013-11-19T10:07:29.0000000+00:00</time></trkpt><trkpt lat="31.13601303" lon="34.8038826"><ele>318.5</ele><time>2013-11-19T10:07:34.0000000+00:00</time></trkpt><trkpt lat="31.13591957" lon="34.80381012"><ele>319.0</ele><time>2013-11-19T10:07:39.0000000+00:00</time></trkpt><trkpt lat="31.1358242" lon="34.80381393"><ele>318.5</ele><time>2013-11-19T10:07:44.0000000+00:00</time></trkpt><trkpt lat="31.13573074" lon="34.80382156"><ele>317.0</ele><time>2013-11-19T10:07:49.0000000+00:00</time></trkpt><trkpt lat="31.13571549" lon="34.80380631"><ele>317.4</ele><time>2013-11-19T10:07:54.0000000+00:00</time></trkpt><trkpt lat="31.13570976" lon="34.80379486"><ele>317.5</ele><time>2013-11-19T10:07:59.0000000+00:00</time></trkpt><trkpt lat="31.13568306" lon="34.80365372"><ele>318.9</ele><time>2013-11-19T10:08:04.0000000+00:00</time></trkpt><trkpt lat="31.13571739" lon="34.80344009"><ele>318.9</ele><time>2013-11-19T10:08:09.0000000+00:00</time></trkpt><trkpt lat="31.13571739" lon="34.80323029"><ele>318.7</ele><time>2013-11-19T10:08:14.0000000+00:00</time></trkpt><trkpt lat="31.13556862" lon="34.80319214"><ele>317.9</ele><time>2013-11-19T10:08:19.0000000+00:00</time></trkpt><trkpt lat="31.13545227" lon="34.8032608"><ele>316.7</ele><time>2013-11-19T10:08:24.0000000+00:00</time></trkpt><trkpt lat="31.13539124" lon="34.80337524"><ele>315.7</ele><time>2013-11-19T10:08:29.0000000+00:00</time></trkpt><trkpt lat="31.13527489" lon="34.80351639"><ele>314.2</ele><time>2013-11-19T10:08:34.0000000+00:00</time></trkpt><trkpt lat="31.13514328" lon="34.80363464"><ele>312.6</ele><time>2013-11-19T10:08:39.0000000+00:00</time></trkpt><trkpt lat="31.13502884" lon="34.80372238"><ele>311.1</ele><time>2013-11-19T10:08:44.0000000+00:00</time></trkpt><trkpt lat="31.13501167" lon="34.80371475"><ele>311.2</ele><time>2013-11-19T10:08:49.0000000+00:00</time></trkpt><trkpt lat="31.13501167" lon="34.80371475"><ele>311.0</ele><time>2013-11-19T10:08:54.0000000+00:00</time></trkpt><trkpt lat="31.13501358" lon="34.80371475"><ele>311.0</ele><time>2013-11-19T10:08:59.0000000+00:00</time></trkpt><trkpt lat="31.13501358" lon="34.80371475"><ele>311.0</ele><time>2013-11-19T10:09:04.0000000+00:00</time></trkpt><trkpt lat="31.13501358" lon="34.80371475"><ele>311.0</ele><time>2013-11-19T10:09:09.0000000+00:00</time></trkpt><trkpt lat="31.13496399" lon="34.8037529"><ele>311.2</ele><time>2013-11-19T10:09:14.0000000+00:00</time></trkpt><trkpt lat="31.13485909" lon="34.80383682"><ele>310.9</ele><time>2013-11-19T10:09:19.0000000+00:00</time></trkpt><trkpt lat="31.13473511" lon="34.80397797"><ele>310.5</ele><time>2013-11-19T10:09:24.0000000+00:00</time></trkpt><trkpt lat="31.13461494" lon="34.80415344"><ele>310.4</ele><time>2013-11-19T10:09:29.0000000+00:00</time></trkpt><trkpt lat="31.13449478" lon="34.80437088"><ele>309.6</ele><time>2013-11-19T10:09:34.0000000+00:00</time></trkpt><trkpt lat="31.13436127" lon="34.8046875"><ele>308.1</ele><time>2013-11-19T10:09:39.0000000+00:00</time></trkpt><trkpt lat="31.13419914" lon="34.80503845"><ele>306.4</ele><time>2013-11-19T10:09:44.0000000+00:00</time></trkpt><trkpt lat="31.13387299" lon="34.80505371"><ele>305.6</ele><time>2013-11-19T10:09:49.0000000+00:00</time></trkpt><trkpt lat="31.1334877" lon="34.80505753"><ele>304.0</ele><time>2013-11-19T10:09:54.0000000+00:00</time></trkpt><trkpt lat="31.13312912" lon="34.80512238"><ele>302.7</ele><time>2013-11-19T10:09:59.0000000+00:00</time></trkpt><trkpt lat="31.13279915" lon="34.80516434"><ele>302.1</ele><time>2013-11-19T10:10:04.0000000+00:00</time></trkpt><trkpt lat="31.13252449" lon="34.80509949"><ele>302.5</ele><time>2013-11-19T10:10:09.0000000+00:00</time></trkpt><trkpt lat="31.13227081" lon="34.80506516"><ele>302.7</ele><time>2013-11-19T10:10:14.0000000+00:00</time></trkpt><trkpt lat="31.13202477" lon="34.80514145"><ele>302.6</ele><time>2013-11-19T10:10:19.0000000+00:00</time></trkpt><trkpt lat="31.13182259" lon="34.80524445"><ele>302.6</ele><time>2013-11-19T10:10:24.0000000+00:00</time></trkpt><trkpt lat="31.13166428" lon="34.80532837"><ele>302.8</ele><time>2013-11-19T10:10:29.0000000+00:00</time></trkpt><trkpt lat="31.13150215" lon="34.80541611"><ele>302.6</ele><time>2013-11-19T10:10:34.0000000+00:00</time></trkpt><trkpt lat="31.13132477" lon="34.80548096"><ele>302.7</ele><time>2013-11-19T10:10:39.0000000+00:00</time></trkpt><trkpt lat="31.1311245" lon="34.80554581"><ele>303.0</ele><time>2013-11-19T10:10:44.0000000+00:00</time></trkpt><trkpt lat="31.13093948" lon="34.80560684"><ele>303.0</ele><time>2013-11-19T10:10:49.0000000+00:00</time></trkpt><trkpt lat="31.13076973" lon="34.80566788"><ele>303.0</ele><time>2013-11-19T10:10:54.0000000+00:00</time></trkpt><trkpt lat="31.13057327" lon="34.80571365"><ele>303.2</ele><time>2013-11-19T10:10:59.0000000+00:00</time></trkpt><trkpt lat="31.13039017" lon="34.80577087"><ele>303.6</ele><time>2013-11-19T10:11:04.0000000+00:00</time></trkpt><trkpt lat="31.13021278" lon="34.80578995"><ele>304.8</ele><time>2013-11-19T10:11:09.0000000+00:00</time></trkpt><trkpt lat="31.13010025" lon="34.80581284"><ele>305.4</ele><time>2013-11-19T10:11:14.0000000+00:00</time></trkpt><trkpt lat="31.129982" lon="34.80583191"><ele>306.1</ele><time>2013-11-19T10:11:19.0000000+00:00</time></trkpt><trkpt lat="31.12984276" lon="34.80584717"><ele>306.5</ele><time>2013-11-19T10:11:24.0000000+00:00</time></trkpt><trkpt lat="31.12971115" lon="34.80587006"><ele>306.5</ele><time>2013-11-19T10:11:29.0000000+00:00</time></trkpt><trkpt lat="31.12961006" lon="34.80589676"><ele>307.2</ele><time>2013-11-19T10:11:34.0000000+00:00</time></trkpt><trkpt lat="31.12948418" lon="34.80593872"><ele>307.9</ele><time>2013-11-19T10:11:39.0000000+00:00</time></trkpt><trkpt lat="31.12934876" lon="34.80598831"><ele>308.1</ele><time>2013-11-19T10:11:44.0000000+00:00</time></trkpt><trkpt lat="31.12924957" lon="34.80604553"><ele>308.4</ele><time>2013-11-19T10:11:49.0000000+00:00</time></trkpt><trkpt lat="31.12909508" lon="34.80612946"><ele>308.7</ele><time>2013-11-19T10:11:54.0000000+00:00</time></trkpt><trkpt lat="31.12889671" lon="34.80619812"><ele>308.2</ele><time>2013-11-19T10:11:59.0000000+00:00</time></trkpt><trkpt lat="31.12868309" lon="34.80622482"><ele>308.9</ele><time>2013-11-19T10:12:04.0000000+00:00</time></trkpt><trkpt lat="31.12848854" lon="34.80619049"><ele>310.7</ele><time>2013-11-19T10:12:09.0000000+00:00</time></trkpt><trkpt lat="31.12832642" lon="34.80614471"><ele>312.1</ele><time>2013-11-19T10:12:14.0000000+00:00</time></trkpt><trkpt lat="31.12817192" lon="34.80608749"><ele>313.8</ele><time>2013-11-19T10:12:19.0000000+00:00</time></trkpt><trkpt lat="31.12799454" lon="34.80605316"><ele>313.9</ele><time>2013-11-19T10:12:24.0000000+00:00</time></trkpt><trkpt lat="31.12779617" lon="34.80606079"><ele>313.8</ele><time>2013-11-19T10:12:29.0000000+00:00</time></trkpt><trkpt lat="31.12759399" lon="34.80611038"><ele>314.1</ele><time>2013-11-19T10:12:34.0000000+00:00</time></trkpt><trkpt lat="31.12740898" lon="34.80618668"><ele>314.1</ele><time>2013-11-19T10:12:39.0000000+00:00</time></trkpt><trkpt lat="31.12721443" lon="34.80628967"><ele>314.6</ele><time>2013-11-19T10:12:44.0000000+00:00</time></trkpt><trkpt lat="31.12701225" lon="34.80643463"><ele>315.0</ele><time>2013-11-19T10:12:49.0000000+00:00</time></trkpt><trkpt lat="31.12680817" lon="34.80662537"><ele>314.4</ele><time>2013-11-19T10:12:54.0000000+00:00</time></trkpt><trkpt lat="31.12661934" lon="34.80680084"><ele>314.8</ele><time>2013-11-19T10:12:59.0000000+00:00</time></trkpt><trkpt lat="31.12642098" lon="34.80696487"><ele>313.6</ele><time>2013-11-19T10:13:04.0000000+00:00</time></trkpt><trkpt lat="31.12621689" lon="34.80714035"><ele>313.4</ele><time>2013-11-19T10:13:09.0000000+00:00</time></trkpt><trkpt lat="31.12599564" lon="34.80731201"><ele>313.6</ele><time>2013-11-19T10:13:14.0000000+00:00</time></trkpt><trkpt lat="31.12577438" lon="34.80745316"><ele>313.1</ele><time>2013-11-19T10:13:19.0000000+00:00</time></trkpt><trkpt lat="31.12557793" lon="34.80758667"><ele>312.4</ele><time>2013-11-19T10:13:24.0000000+00:00</time></trkpt><trkpt lat="31.12536812" lon="34.80770111"><ele>312.7</ele><time>2013-11-19T10:13:29.0000000+00:00</time></trkpt><trkpt lat="31.12515068" lon="34.80782318"><ele>313.1</ele><time>2013-11-19T10:13:34.0000000+00:00</time></trkpt><trkpt lat="31.12488174" lon="34.80789948"><ele>312.1</ele><time>2013-11-19T10:13:39.0000000+00:00</time></trkpt><trkpt lat="31.12461853" lon="34.8079567"><ele>311.0</ele><time>2013-11-19T10:13:44.0000000+00:00</time></trkpt><trkpt lat="31.12436104" lon="34.80805969"><ele>311.0</ele><time>2013-11-19T10:13:49.0000000+00:00</time></trkpt><trkpt lat="31.1241169" lon="34.80820847"><ele>310.7</ele><time>2013-11-19T10:13:54.0000000+00:00</time></trkpt><trkpt lat="31.12390709" lon="34.80840683"><ele>309.5</ele><time>2013-11-19T10:13:59.0000000+00:00</time></trkpt><trkpt lat="31.123703" lon="34.80860138"><ele>309.0</ele><time>2013-11-19T10:14:04.0000000+00:00</time></trkpt><trkpt lat="31.12348366" lon="34.80879211"><ele>307.8</ele><time>2013-11-19T10:14:09.0000000+00:00</time></trkpt><trkpt lat="31.12327385" lon="34.80897903"><ele>306.9</ele><time>2013-11-19T10:14:14.0000000+00:00</time></trkpt><trkpt lat="31.12304115" lon="34.8091774"><ele>305.8</ele><time>2013-11-19T10:14:19.0000000+00:00</time></trkpt><trkpt lat="31.12285423" lon="34.80934143"><ele>306.2</ele><time>2013-11-19T10:14:24.0000000+00:00</time></trkpt><trkpt lat="31.12272644" lon="34.8094368"><ele>305.8</ele><time>2013-11-19T10:14:29.0000000+00:00</time></trkpt><trkpt lat="31.12257958" lon="34.80950546"><ele>306.3</ele><time>2013-11-19T10:14:34.0000000+00:00</time></trkpt><trkpt lat="31.12243652" lon="34.80958939"><ele>306.2</ele><time>2013-11-19T10:14:39.0000000+00:00</time></trkpt><trkpt lat="31.12231827" lon="34.80966187"><ele>305.7</ele><time>2013-11-19T10:14:44.0000000+00:00</time></trkpt><trkpt lat="31.12220764" lon="34.80973053"><ele>305.1</ele><time>2013-11-19T10:14:49.0000000+00:00</time></trkpt><trkpt lat="31.12205315" lon="34.80981827"><ele>307.8</ele><time>2013-11-19T10:14:54.0000000+00:00</time></trkpt><trkpt lat="31.1219101" lon="34.80990982"><ele>308.8</ele><time>2013-11-19T10:14:59.0000000+00:00</time></trkpt><trkpt lat="31.1217804" lon="34.80998993"><ele>309.4</ele><time>2013-11-19T10:15:04.0000000+00:00</time></trkpt><trkpt lat="31.12163734" lon="34.81008911"><ele>310.6</ele><time>2013-11-19T10:15:09.0000000+00:00</time></trkpt><trkpt lat="31.12148857" lon="34.81018448"><ele>310.5</ele><time>2013-11-19T10:15:14.0000000+00:00</time></trkpt><trkpt lat="31.12131882" lon="34.81027985"><ele>310.4</ele><time>2013-11-19T10:15:19.0000000+00:00</time></trkpt><trkpt lat="31.12114716" lon="34.81038666"><ele>312.8</ele><time>2013-11-19T10:15:24.0000000+00:00</time></trkpt><trkpt lat="31.12100029" lon="34.81047821"><ele>312.9</ele><time>2013-11-19T10:15:29.0000000+00:00</time></trkpt><trkpt lat="31.12083435" lon="34.81057739"><ele>313.8</ele><time>2013-11-19T10:15:34.0000000+00:00</time></trkpt><trkpt lat="31.1206913" lon="34.81066513"><ele>314.0</ele><time>2013-11-19T10:15:39.0000000+00:00</time></trkpt><trkpt lat="31.12053299" lon="34.81073761"><ele>314.0</ele><time>2013-11-19T10:15:44.0000000+00:00</time></trkpt><trkpt lat="31.12038231" lon="34.81082535"><ele>313.0</ele><time>2013-11-19T10:15:49.0000000+00:00</time></trkpt><trkpt lat="31.12023354" lon="34.81090164"><ele>313.0</ele><time>2013-11-19T10:15:54.0000000+00:00</time></trkpt><trkpt lat="31.12005615" lon="34.81098175"><ele>312.2</ele><time>2013-11-19T10:15:59.0000000+00:00</time></trkpt><trkpt lat="31.11985397" lon="34.81106186"><ele>312.2</ele><time>2013-11-19T10:16:04.0000000+00:00</time></trkpt><trkpt lat="31.11967087" lon="34.8111496"><ele>312.1</ele><time>2013-11-19T10:16:09.0000000+00:00</time></trkpt><trkpt lat="31.11946678" lon="34.81126022"><ele>311.5</ele><time>2013-11-19T10:16:14.0000000+00:00</time></trkpt><trkpt lat="31.11929512" lon="34.81137085"><ele>312.0</ele><time>2013-11-19T10:16:19.0000000+00:00</time></trkpt><trkpt lat="31.11913681" lon="34.81149674"><ele>311.5</ele><time>2013-11-19T10:16:24.0000000+00:00</time></trkpt><trkpt lat="31.11897659" lon="34.81159592"><ele>311.4</ele><time>2013-11-19T10:16:29.0000000+00:00</time></trkpt><trkpt lat="31.11881256" lon="34.8117218"><ele>311.4</ele><time>2013-11-19T10:16:34.0000000+00:00</time></trkpt><trkpt lat="31.11869431" lon="34.81179047"><ele>311.2</ele><time>2013-11-19T10:16:39.0000000+00:00</time></trkpt><trkpt lat="31.1186161" lon="34.81184006"><ele>311.4</ele><time>2013-11-19T10:16:44.0000000+00:00</time></trkpt><trkpt lat="31.11853027" lon="34.81188583"><ele>311.3</ele><time>2013-11-19T10:16:49.0000000+00:00</time></trkpt><trkpt lat="31.11845017" lon="34.81193924"><ele>310.7</ele><time>2013-11-19T10:16:54.0000000+00:00</time></trkpt><trkpt lat="31.11838341" lon="34.81195831"><ele>310.4</ele><time>2013-11-19T10:16:59.0000000+00:00</time></trkpt><trkpt lat="31.11828613" lon="34.8120575"><ele>310.5</ele><time>2013-11-19T10:17:04.0000000+00:00</time></trkpt><trkpt lat="31.11816979" lon="34.81215668"><ele>310.3</ele><time>2013-11-19T10:17:09.0000000+00:00</time></trkpt><trkpt lat="31.11802864" lon="34.8122673"><ele>309.8</ele><time>2013-11-19T10:17:14.0000000+00:00</time></trkpt><trkpt lat="31.11791229" lon="34.81236267"><ele>310.0</ele><time>2013-11-19T10:17:19.0000000+00:00</time></trkpt><trkpt lat="31.11782074" lon="34.81243897"><ele>309.5</ele><time>2013-11-19T10:17:24.0000000+00:00</time></trkpt><trkpt lat="31.11773872" lon="34.81251907"><ele>309.8</ele><time>2013-11-19T10:17:29.0000000+00:00</time></trkpt><trkpt lat="31.11766243" lon="34.81259155"><ele>311.3</ele><time>2013-11-19T10:17:34.0000000+00:00</time></trkpt><trkpt lat="31.11757088" lon="34.81269836"><ele>313.0</ele><time>2013-11-19T10:17:39.0000000+00:00</time></trkpt><trkpt lat="31.11749077" lon="34.81278992"><ele>314.4</ele><time>2013-11-19T10:17:44.0000000+00:00</time></trkpt><trkpt lat="31.11740875" lon="34.81290436"><ele>315.4</ele><time>2013-11-19T10:17:49.0000000+00:00</time></trkpt><trkpt lat="31.117342" lon="34.81301117"><ele>316.8</ele><time>2013-11-19T10:17:54.0000000+00:00</time></trkpt><trkpt lat="31.11726189" lon="34.81310654"><ele>317.6</ele><time>2013-11-19T10:17:59.0000000+00:00</time></trkpt><trkpt lat="31.11718369" lon="34.81317902"><ele>319.8</ele><time>2013-11-19T10:18:04.0000000+00:00</time></trkpt><trkpt lat="31.11708641" lon="34.81329727"><ele>321.2</ele><time>2013-11-19T10:18:09.0000000+00:00</time></trkpt><trkpt lat="31.11699677" lon="34.81340408"><ele>322.4</ele><time>2013-11-19T10:18:14.0000000+00:00</time></trkpt><trkpt lat="31.11689758" lon="34.81350708"><ele>324.2</ele><time>2013-11-19T10:18:19.0000000+00:00</time></trkpt><trkpt lat="31.11681366" lon="34.81358719"><ele>324.9</ele><time>2013-11-19T10:18:24.0000000+00:00</time></trkpt><trkpt lat="31.11671829" lon="34.81368637"><ele>325.9</ele><time>2013-11-19T10:18:29.0000000+00:00</time></trkpt><trkpt lat="31.11662483" lon="34.81378174"><ele>326.0</ele><time>2013-11-19T10:18:34.0000000+00:00</time></trkpt><trkpt lat="31.11652756" lon="34.81385422"><ele>325.4</ele><time>2013-11-19T10:18:39.0000000+00:00</time></trkpt><trkpt lat="31.11642075" lon="34.81393051"><ele>326.3</ele><time>2013-11-19T10:18:44.0000000+00:00</time></trkpt><trkpt lat="31.11633492" lon="34.81396866"><ele>326.6</ele><time>2013-11-19T10:18:49.0000000+00:00</time></trkpt><trkpt lat="31.11622047" lon="34.81404114"><ele>326.4</ele><time>2013-11-19T10:18:54.0000000+00:00</time></trkpt><trkpt lat="31.11610413" lon="34.81412506"><ele>327.1</ele><time>2013-11-19T10:18:59.0000000+00:00</time></trkpt><trkpt lat="31.11602974" lon="34.81418228"><ele>328.2</ele><time>2013-11-19T10:19:04.0000000+00:00</time></trkpt><trkpt lat="31.11593628" lon="34.8142128"><ele>329.3</ele><time>2013-11-19T10:19:09.0000000+00:00</time></trkpt><trkpt lat="31.11586189" lon="34.81427765"><ele>328.7</ele><time>2013-11-19T10:19:14.0000000+00:00</time></trkpt><trkpt lat="31.11575508" lon="34.8143158"><ele>328.9</ele><time>2013-11-19T10:19:19.0000000+00:00</time></trkpt><trkpt lat="31.11564446" lon="34.81434631"><ele>328.7</ele><time>2013-11-19T10:19:24.0000000+00:00</time></trkpt><trkpt lat="31.11554527" lon="34.81435776"><ele>329.3</ele><time>2013-11-19T10:19:29.0000000+00:00</time></trkpt><trkpt lat="31.11546326" lon="34.81438065"><ele>328.6</ele><time>2013-11-19T10:19:34.0000000+00:00</time></trkpt><trkpt lat="31.11538506" lon="34.81440353"><ele>327.9</ele><time>2013-11-19T10:19:39.0000000+00:00</time></trkpt><trkpt lat="31.11533356" lon="34.81441879"><ele>327.0</ele><time>2013-11-19T10:19:44.0000000+00:00</time></trkpt><trkpt lat="31.11532593" lon="34.81442261"><ele>326.4</ele><time>2013-11-19T10:19:49.0000000+00:00</time></trkpt><trkpt lat="31.11530113" lon="34.8144455"><ele>326.1</ele><time>2013-11-19T10:19:54.0000000+00:00</time></trkpt><trkpt lat="31.11525536" lon="34.81447601"><ele>325.9</ele><time>2013-11-19T10:19:59.0000000+00:00</time></trkpt><trkpt lat="31.11521149" lon="34.81450653"><ele>325.8</ele><time>2013-11-19T10:20:04.0000000+00:00</time></trkpt><trkpt lat="31.1151619" lon="34.8145256"><ele>325.5</ele><time>2013-11-19T10:20:09.0000000+00:00</time></trkpt><trkpt lat="31.11510849" lon="34.8145256"><ele>325.5</ele><time>2013-11-19T10:20:14.0000000+00:00</time></trkpt><trkpt lat="31.11507225" lon="34.81453323"><ele>325.3</ele><time>2013-11-19T10:20:19.0000000+00:00</time></trkpt><trkpt lat="31.11503792" lon="34.81456757"><ele>325.4</ele><time>2013-11-19T10:20:24.0000000+00:00</time></trkpt><trkpt lat="31.11499786" lon="34.81458664"><ele>325.7</ele><time>2013-11-19T10:20:29.0000000+00:00</time></trkpt><trkpt lat="31.11495972" lon="34.81460953"><ele>326.2</ele><time>2013-11-19T10:20:34.0000000+00:00</time></trkpt><trkpt lat="31.11491966" lon="34.81464386"><ele>326.9</ele><time>2013-11-19T10:20:39.0000000+00:00</time></trkpt><trkpt lat="31.1148777" lon="34.81466675"><ele>327.4</ele><time>2013-11-19T10:20:44.0000000+00:00</time></trkpt><trkpt lat="31.11483192" lon="34.81469345"><ele>327.4</ele><time>2013-11-19T10:20:49.0000000+00:00</time></trkpt><trkpt lat="31.11478424" lon="34.81472397"><ele>327.6</ele><time>2013-11-19T10:20:54.0000000+00:00</time></trkpt><trkpt lat="31.11474037" lon="34.8147316"><ele>327.9</ele><time>2013-11-19T10:20:59.0000000+00:00</time></trkpt><trkpt lat="31.11470985" lon="34.81476975"><ele>328.2</ele><time>2013-11-19T10:21:04.0000000+00:00</time></trkpt><trkpt lat="31.11464882" lon="34.81480026"><ele>329.1</ele><time>2013-11-19T10:21:09.0000000+00:00</time></trkpt><trkpt lat="31.1145916" lon="34.81483078"><ele>329.6</ele><time>2013-11-19T10:21:14.0000000+00:00</time></trkpt><trkpt lat="31.11453056" lon="34.81485748"><ele>329.5</ele><time>2013-11-19T10:21:19.0000000+00:00</time></trkpt><trkpt lat="31.11448288" lon="34.81488419"><ele>329.6</ele><time>2013-11-19T10:21:24.0000000+00:00</time></trkpt><trkpt lat="31.11442757" lon="34.81490326"><ele>329.5</ele><time>2013-11-19T10:21:29.0000000+00:00</time></trkpt><trkpt lat="31.11437798" lon="34.81494141"><ele>329.6</ele><time>2013-11-19T10:21:34.0000000+00:00</time></trkpt><trkpt lat="31.11433983" lon="34.81496429"><ele>329.6</ele><time>2013-11-19T10:21:39.0000000+00:00</time></trkpt><trkpt lat="31.11429596" lon="34.81500626"><ele>329.6</ele><time>2013-11-19T10:21:44.0000000+00:00</time></trkpt><trkpt lat="31.114254" lon="34.81505966"><ele>329.3</ele><time>2013-11-19T10:21:49.0000000+00:00</time></trkpt><trkpt lat="31.11423111" lon="34.8151207"><ele>328.7</ele><time>2013-11-19T10:21:54.0000000+00:00</time></trkpt><trkpt lat="31.11418533" lon="34.81517792"><ele>328.6</ele><time>2013-11-19T10:21:59.0000000+00:00</time></trkpt><trkpt lat="31.11413765" lon="34.81524277"><ele>329.2</ele><time>2013-11-19T10:22:04.0000000+00:00</time></trkpt><trkpt lat="31.11411285" lon="34.81528854"><ele>329.1</ele><time>2013-11-19T10:22:09.0000000+00:00</time></trkpt><trkpt lat="31.11408424" lon="34.81534195"><ele>328.4</ele><time>2013-11-19T10:22:14.0000000+00:00</time></trkpt><trkpt lat="31.11406136" lon="34.81538773"><ele>328.1</ele><time>2013-11-19T10:22:19.0000000+00:00</time></trkpt><trkpt lat="31.11403465" lon="34.81544113"><ele>327.6</ele><time>2013-11-19T10:22:24.0000000+00:00</time></trkpt><trkpt lat="31.11398888" lon="34.81550598"><ele>327.6</ele><time>2013-11-19T10:22:29.0000000+00:00</time></trkpt><trkpt lat="31.11395836" lon="34.81556702"><ele>327.3</ele><time>2013-11-19T10:22:34.0000000+00:00</time></trkpt><trkpt lat="31.11392212" lon="34.81562042"><ele>328.4</ele><time>2013-11-19T10:22:39.0000000+00:00</time></trkpt><trkpt lat="31.11389351" lon="34.81567001"><ele>328.5</ele><time>2013-11-19T10:22:44.0000000+00:00</time></trkpt><trkpt lat="31.11385918" lon="34.81570816"><ele>328.8</ele><time>2013-11-19T10:22:49.0000000+00:00</time></trkpt><trkpt lat="31.11381722" lon="34.81575775"><ele>328.4</ele><time>2013-11-19T10:22:54.0000000+00:00</time></trkpt><trkpt lat="31.11380386" lon="34.81579971"><ele>328.3</ele><time>2013-11-19T10:22:59.0000000+00:00</time></trkpt><trkpt lat="31.11380577" lon="34.81586456"><ele>327.7</ele><time>2013-11-19T10:23:04.0000000+00:00</time></trkpt><trkpt lat="31.11382484" lon="34.81591797"><ele>327.3</ele><time>2013-11-19T10:23:09.0000000+00:00</time></trkpt><trkpt lat="31.11383057" lon="34.81596756"><ele>327.7</ele><time>2013-11-19T10:23:14.0000000+00:00</time></trkpt><trkpt lat="31.11383247" lon="34.81600952"><ele>328.7</ele><time>2013-11-19T10:23:19.0000000+00:00</time></trkpt><trkpt lat="31.11382675" lon="34.81605148"><ele>329.1</ele><time>2013-11-19T10:23:24.0000000+00:00</time></trkpt><trkpt lat="31.11382484" lon="34.81608963"><ele>329.7</ele><time>2013-11-19T10:23:29.0000000+00:00</time></trkpt><trkpt lat="31.11381531" lon="34.81612778"><ele>330.8</ele><time>2013-11-19T10:23:34.0000000+00:00</time></trkpt><trkpt lat="31.11380386" lon="34.81615448"><ele>331.9</ele><time>2013-11-19T10:23:39.0000000+00:00</time></trkpt><trkpt lat="31.11379623" lon="34.81616211"><ele>331.9</ele><time>2013-11-19T10:23:44.0000000+00:00</time></trkpt><trkpt lat="31.11378861" lon="34.81616974"><ele>331.8</ele><time>2013-11-19T10:23:49.0000000+00:00</time></trkpt><trkpt lat="31.11378479" lon="34.81616974"><ele>331.8</ele><time>2013-11-19T10:23:54.0000000+00:00</time></trkpt><trkpt lat="31.11378098" lon="34.81617355"><ele>331.8</ele><time>2013-11-19T10:23:59.0000000+00:00</time></trkpt><trkpt lat="31.11377907" lon="34.81617355"><ele>331.8</ele><time>2013-11-19T10:24:04.0000000+00:00</time></trkpt><trkpt lat="31.11377525" lon="34.81617355"><ele>331.8</ele><time>2013-11-19T10:24:09.0000000+00:00</time></trkpt><trkpt lat="31.11376953" lon="34.81617737"><ele>331.8</ele><time>2013-11-19T10:24:14.0000000+00:00</time></trkpt><trkpt lat="31.11376572" lon="34.81618118"><ele>331.7</ele><time>2013-11-19T10:24:19.0000000+00:00</time></trkpt><trkpt lat="31.1137619" lon="34.81618118"><ele>331.7</ele><time>2013-11-19T10:24:24.0000000+00:00</time></trkpt><trkpt lat="31.11376" lon="34.81618118"><ele>331.7</ele><time>2013-11-19T10:24:29.0000000+00:00</time></trkpt><trkpt lat="31.11375618" lon="34.81618118"><ele>331.7</ele><time>2013-11-19T10:24:34.0000000+00:00</time></trkpt><trkpt lat="31.11375427" lon="34.81618118"><ele>331.7</ele><time>2013-11-19T10:24:39.0000000+00:00</time></trkpt><trkpt lat="31.11375427" lon="34.81617737"><ele>331.7</ele><time>2013-11-19T10:24:44.0000000+00:00</time></trkpt><trkpt lat="31.11375618" lon="34.81617355"><ele>331.7</ele><time>2013-11-19T10:24:49.0000000+00:00</time></trkpt><trkpt lat="31.1137619" lon="34.81616974"><ele>331.8</ele><time>2013-11-19T10:24:54.0000000+00:00</time></trkpt><trkpt lat="31.11376381" lon="34.81616974"><ele>331.7</ele><time>2013-11-19T10:24:59.0000000+00:00</time></trkpt><trkpt lat="31.11376572" lon="34.81616974"><ele>331.7</ele><time>2013-11-19T10:25:04.0000000+00:00</time></trkpt><trkpt lat="31.11376381" lon="34.81616974"><ele>331.7</ele><time>2013-11-19T10:25:09.0000000+00:00</time></trkpt><trkpt lat="31.11375809" lon="34.81617737"><ele>331.6</ele><time>2013-11-19T10:25:14.0000000+00:00</time></trkpt><trkpt lat="31.11377144" lon="34.81616974"><ele>331.0</ele><time>2013-11-19T10:25:19.0000000+00:00</time></trkpt><trkpt lat="31.11375618" lon="34.81621552"><ele>330.0</ele><time>2013-11-19T10:25:24.0000000+00:00</time></trkpt><trkpt lat="31.11368179" lon="34.81629944"><ele>329.8</ele><time>2013-11-19T10:25:29.0000000+00:00</time></trkpt><trkpt lat="31.11357498" lon="34.81641769"><ele>329.2</ele><time>2013-11-19T10:25:34.0000000+00:00</time></trkpt><trkpt lat="31.11343384" lon="34.81654739"><ele>328.7</ele><time>2013-11-19T10:25:39.0000000+00:00</time></trkpt><trkpt lat="31.11329079" lon="34.81669235"><ele>327.9</ele><time>2013-11-19T10:25:44.0000000+00:00</time></trkpt><trkpt lat="31.11311913" lon="34.8168602"><ele>327.0</ele><time>2013-11-19T10:25:49.0000000+00:00</time></trkpt><trkpt lat="31.112957" lon="34.81701279"><ele>326.1</ele><time>2013-11-19T10:25:54.0000000+00:00</time></trkpt><trkpt lat="31.1128006" lon="34.81716919"><ele>325.4</ele><time>2013-11-19T10:25:59.0000000+00:00</time></trkpt><trkpt lat="31.11261177" lon="34.81733704"><ele>325.5</ele><time>2013-11-19T10:26:04.0000000+00:00</time></trkpt><trkpt lat="31.11241722" lon="34.81752014"><ele>325.0</ele><time>2013-11-19T10:26:09.0000000+00:00</time></trkpt><trkpt lat="31.11221504" lon="34.81770325"><ele>324.6</ele><time>2013-11-19T10:26:14.0000000+00:00</time></trkpt><trkpt lat="31.11203003" lon="34.81789017"><ele>323.9</ele><time>2013-11-19T10:26:19.0000000+00:00</time></trkpt><trkpt lat="31.11184692" lon="34.8180542"><ele>323.9</ele><time>2013-11-19T10:26:24.0000000+00:00</time></trkpt><trkpt lat="31.11162758" lon="34.81826782"><ele>322.9</ele><time>2013-11-19T10:26:29.0000000+00:00</time></trkpt><trkpt lat="31.11142731" lon="34.81846619"><ele>322.3</ele><time>2013-11-19T10:26:34.0000000+00:00</time></trkpt><trkpt lat="31.1112442" lon="34.8186264"><ele>322.6</ele><time>2013-11-19T10:26:39.0000000+00:00</time></trkpt><trkpt lat="31.11108398" lon="34.81876755"><ele>323.0</ele><time>2013-11-19T10:26:44.0000000+00:00</time></trkpt><trkpt lat="31.11092567" lon="34.81893158"><ele>323.1</ele><time>2013-11-19T10:26:49.0000000+00:00</time></trkpt><trkpt lat="31.1107502" lon="34.81911087"><ele>323.5</ele><time>2013-11-19T10:26:54.0000000+00:00</time></trkpt><trkpt lat="31.11056709" lon="34.81927872"><ele>324.4</ele><time>2013-11-19T10:26:59.0000000+00:00</time></trkpt><trkpt lat="31.11042023" lon="34.81942368"><ele>326.4</ele><time>2013-11-19T10:27:04.0000000+00:00</time></trkpt><trkpt lat="31.11026192" lon="34.81957626"><ele>325.9</ele><time>2013-11-19T10:27:09.0000000+00:00</time></trkpt><trkpt lat="31.11011887" lon="34.81970596"><ele>328.1</ele><time>2013-11-19T10:27:14.0000000+00:00</time></trkpt><trkpt lat="31.10997582" lon="34.81984329"><ele>329.1</ele><time>2013-11-19T10:27:19.0000000+00:00</time></trkpt><trkpt lat="31.10987282" lon="34.81994247"><ele>330.3</ele><time>2013-11-19T10:27:24.0000000+00:00</time></trkpt><trkpt lat="31.1097641" lon="34.8200531"><ele>331.9</ele><time>2013-11-19T10:27:29.0000000+00:00</time></trkpt><trkpt lat="31.1096344" lon="34.8201828"><ele>332.6</ele><time>2013-11-19T10:27:34.0000000+00:00</time></trkpt><trkpt lat="31.10951042" lon="34.82028961"><ele>333.6</ele><time>2013-11-19T10:27:39.0000000+00:00</time></trkpt><trkpt lat="31.1093998" lon="34.82039642"><ele>335.3</ele><time>2013-11-19T10:27:44.0000000+00:00</time></trkpt><trkpt lat="31.10926437" lon="34.82051849"><ele>337.0</ele><time>2013-11-19T10:27:49.0000000+00:00</time></trkpt><trkpt lat="31.10917473" lon="34.82059479"><ele>338.4</ele><time>2013-11-19T10:27:54.0000000+00:00</time></trkpt><trkpt lat="31.1090641" lon="34.82068253"><ele>341.1</ele><time>2013-11-19T10:27:59.0000000+00:00</time></trkpt><trkpt lat="31.10893631" lon="34.82078934"><ele>341.5</ele><time>2013-11-19T10:28:04.0000000+00:00</time></trkpt><trkpt lat="31.10880661" lon="34.82092285"><ele>342.7</ele><time>2013-11-19T10:28:09.0000000+00:00</time></trkpt><trkpt lat="31.108675" lon="34.82105637"><ele>343.2</ele><time>2013-11-19T10:28:14.0000000+00:00</time></trkpt><trkpt lat="31.10853386" lon="34.82119751"><ele>344.3</ele><time>2013-11-19T10:28:19.0000000+00:00</time></trkpt><trkpt lat="31.10839462" lon="34.8213234"><ele>345.3</ele><time>2013-11-19T10:28:24.0000000+00:00</time></trkpt><trkpt lat="31.10826492" lon="34.82144928"><ele>346.0</ele><time>2013-11-19T10:28:29.0000000+00:00</time></trkpt><trkpt lat="31.10813332" lon="34.82157135"><ele>346.8</ele><time>2013-11-19T10:28:34.0000000+00:00</time></trkpt><trkpt lat="31.10799027" lon="34.82170105"><ele>348.6</ele><time>2013-11-19T10:28:39.0000000+00:00</time></trkpt><trkpt lat="31.1078434" lon="34.82182694"><ele>349.9</ele><time>2013-11-19T10:28:44.0000000+00:00</time></trkpt><trkpt lat="31.10771561" lon="34.82194519"><ele>350.4</ele><time>2013-11-19T10:28:49.0000000+00:00</time></trkpt><trkpt lat="31.10757256" lon="34.82207871"><ele>351.4</ele><time>2013-11-19T10:28:54.0000000+00:00</time></trkpt><trkpt lat="31.10744286" lon="34.82220078"><ele>352.2</ele><time>2013-11-19T10:28:59.0000000+00:00</time></trkpt><trkpt lat="31.10730553" lon="34.82231903"><ele>353.7</ele><time>2013-11-19T10:29:04.0000000+00:00</time></trkpt><trkpt lat="31.1071682" lon="34.82244873"><ele>354.6</ele><time>2013-11-19T10:29:09.0000000+00:00</time></trkpt><trkpt lat="31.1070118" lon="34.8225975"><ele>356.5</ele><time>2013-11-19T10:29:14.0000000+00:00</time></trkpt><trkpt lat="31.10688019" lon="34.82272339"><ele>356.7</ele><time>2013-11-19T10:29:19.0000000+00:00</time></trkpt><trkpt lat="31.10673904" lon="34.82284546"><ele>356.4</ele><time>2013-11-19T10:29:24.0000000+00:00</time></trkpt><trkpt lat="31.10659027" lon="34.8229866"><ele>357.0</ele><time>2013-11-19T10:29:29.0000000+00:00</time></trkpt><trkpt lat="31.10643578" lon="34.82313156"><ele>357.1</ele><time>2013-11-19T10:29:34.0000000+00:00</time></trkpt><trkpt lat="31.10627365" lon="34.82327652"><ele>358.7</ele><time>2013-11-19T10:29:39.0000000+00:00</time></trkpt><trkpt lat="31.10612106" lon="34.82341385"><ele>358.8</ele><time>2013-11-19T10:29:44.0000000+00:00</time></trkpt><trkpt lat="31.10596466" lon="34.82357025"><ele>357.6</ele><time>2013-11-19T10:29:49.0000000+00:00</time></trkpt><trkpt lat="31.1058178" lon="34.82371521"><ele>357.2</ele><time>2013-11-19T10:29:54.0000000+00:00</time></trkpt><trkpt lat="31.10564041" lon="34.82386398"><ele>357.6</ele><time>2013-11-19T10:29:59.0000000+00:00</time></trkpt><trkpt lat="31.10546303" lon="34.82402039"><ele>357.6</ele><time>2013-11-19T10:30:04.0000000+00:00</time></trkpt><trkpt lat="31.10528755" lon="34.82416534"><ele>357.9</ele><time>2013-11-19T10:30:09.0000000+00:00</time></trkpt><trkpt lat="31.10512352" lon="34.82427979"><ele>357.9</ele><time>2013-11-19T10:30:14.0000000+00:00</time></trkpt><trkpt lat="31.10497093" lon="34.82429886"><ele>354.8</ele><time>2013-11-19T10:30:19.0000000+00:00</time></trkpt><trkpt lat="31.1048317" lon="34.82426834"><ele>352.5</ele><time>2013-11-19T10:30:24.0000000+00:00</time></trkpt><trkpt lat="31.10473824" lon="34.82420731"><ele>350.4</ele><time>2013-11-19T10:30:29.0000000+00:00</time></trkpt><trkpt lat="31.10466576" lon="34.8241539"><ele>349.3</ele><time>2013-11-19T10:30:34.0000000+00:00</time></trkpt><trkpt lat="31.10468864" lon="34.82413483"><ele>348.7</ele><time>2013-11-19T10:30:39.0000000+00:00</time></trkpt><trkpt lat="31.10469055" lon="34.82413483"><ele>348.6</ele><time>2013-11-19T10:30:44.0000000+00:00</time></trkpt><trkpt lat="31.10469055" lon="34.82413483"><ele>348.5</ele><time>2013-11-19T10:30:49.0000000+00:00</time></trkpt><trkpt lat="31.10469055" lon="34.82413483"><ele>348.6</ele><time>2013-11-19T10:30:54.0000000+00:00</time></trkpt><trkpt lat="31.10469055" lon="34.82413483"><ele>348.6</ele><time>2013-11-19T10:30:59.0000000+00:00</time></trkpt><trkpt lat="31.10469055" lon="34.82413483"><ele>348.5</ele><time>2013-11-19T10:31:04.0000000+00:00</time></trkpt><trkpt lat="31.10469246" lon="34.82413483"><ele>348.5</ele><time>2013-11-19T10:31:09.0000000+00:00</time></trkpt><trkpt lat="31.10469246" lon="34.82413483"><ele>348.5</ele><time>2013-11-19T10:31:14.0000000+00:00</time></trkpt><trkpt lat="31.10469246" lon="34.82413483"><ele>348.6</ele><time>2013-11-19T10:31:19.0000000+00:00</time></trkpt><trkpt lat="31.10469246" lon="34.82413483"><ele>348.6</ele><time>2013-11-19T10:31:24.0000000+00:00</time></trkpt><trkpt lat="31.10466576" lon="34.82413483"><ele>348.5</ele><time>2013-11-19T10:31:29.0000000+00:00</time></trkpt><trkpt lat="31.10460854" lon="34.82415772"><ele>349.5</ele><time>2013-11-19T10:31:34.0000000+00:00</time></trkpt><trkpt lat="31.10457039" lon="34.8241539"><ele>348.8</ele><time>2013-11-19T10:31:39.0000000+00:00</time></trkpt><trkpt lat="31.10456657" lon="34.82415009"><ele>348.8</ele><time>2013-11-19T10:31:44.0000000+00:00</time></trkpt><trkpt lat="31.10456467" lon="34.82411957"><ele>350.6</ele><time>2013-11-19T10:31:49.0000000+00:00</time></trkpt><trkpt lat="31.10455513" lon="34.8241272"><ele>350.7</ele><time>2013-11-19T10:31:54.0000000+00:00</time></trkpt><trkpt lat="31.10455132" lon="34.8241272"><ele>350.8</ele><time>2013-11-19T10:31:59.0000000+00:00</time></trkpt><trkpt lat="31.10454941" lon="34.82413101"><ele>350.8</ele><time>2013-11-19T10:32:04.0000000+00:00</time></trkpt><trkpt lat="31.1045475" lon="34.82413101"><ele>350.8</ele><time>2013-11-19T10:32:09.0000000+00:00</time></trkpt><trkpt lat="31.10454941" lon="34.82413101"><ele>350.8</ele><time>2013-11-19T10:32:14.0000000+00:00</time></trkpt><trkpt lat="31.10454941" lon="34.82413101"><ele>350.8</ele><time>2013-11-19T10:32:19.0000000+00:00</time></trkpt><trkpt lat="31.10454941" lon="34.82413101"><ele>350.8</ele><time>2013-11-19T10:32:24.0000000+00:00</time></trkpt><trkpt lat="31.10454941" lon="34.82413101"><ele>350.8</ele><time>2013-11-19T10:32:29.0000000+00:00</time></trkpt><trkpt lat="31.10454941" lon="34.82413101"><ele>350.8</ele><time>2013-11-19T10:32:34.0000000+00:00</time></trkpt><trkpt lat="31.10454941" lon="34.82413101"><ele>350.8</ele><time>2013-11-19T10:32:39.0000000+00:00</time></trkpt><trkpt lat="31.10454941" lon="34.82413101"><ele>350.8</ele><time>2013-11-19T10:32:44.0000000+00:00</time></trkpt><trkpt lat="31.1045475" lon="34.82413101"><ele>350.7</ele><time>2013-11-19T10:32:49.0000000+00:00</time></trkpt><trkpt lat="31.1045475" lon="34.82413101"><ele>350.7</ele><time>2013-11-19T10:32:54.0000000+00:00</time></trkpt><trkpt lat="31.1045475" lon="34.82413101"><ele>350.8</ele><time>2013-11-19T10:32:59.0000000+00:00</time></trkpt><trkpt lat="31.1045475" lon="34.82413101"><ele>350.8</ele><time>2013-11-19T10:33:04.0000000+00:00</time></trkpt><trkpt lat="31.1045475" lon="34.82413101"><ele>350.8</ele><time>2013-11-19T10:33:09.0000000+00:00</time></trkpt><trkpt lat="31.1045475" lon="34.82413101"><ele>350.8</ele><time>2013-11-19T10:33:14.0000000+00:00</time></trkpt><trkpt lat="31.1045475" lon="34.82413101"><ele>350.8</ele><time>2013-11-19T10:33:19.0000000+00:00</time></trkpt><trkpt lat="31.1045475" lon="34.82413101"><ele>350.8</ele><time>2013-11-19T10:33:24.0000000+00:00</time></trkpt><trkpt lat="31.1045475" lon="34.82413101"><ele>350.7</ele><time>2013-11-19T10:33:29.0000000+00:00</time></trkpt><trkpt lat="31.1045475" lon="34.82413101"><ele>350.7</ele><time>2013-11-19T10:33:34.0000000+00:00</time></trkpt><trkpt lat="31.1045475" lon="34.82413101"><ele>350.7</ele><time>2013-11-19T10:33:39.0000000+00:00</time></trkpt><trkpt lat="31.1045475" lon="34.82413101"><ele>350.7</ele><time>2013-11-19T10:33:44.0000000+00:00</time></trkpt><trkpt lat="31.1045475" lon="34.82413101"><ele>350.7</ele><time>2013-11-19T10:33:49.0000000+00:00</time></trkpt><trkpt lat="31.1045475" lon="34.82413101"><ele>350.7</ele><time>2013-11-19T10:33:54.0000000+00:00</time></trkpt><trkpt lat="31.1045475" lon="34.82413101"><ele>350.7</ele><time>2013-11-19T10:33:59.0000000+00:00</time></trkpt><trkpt lat="31.1045475" lon="34.82413101"><ele>350.7</ele><time>2013-11-19T10:34:04.0000000+00:00</time></trkpt><trkpt lat="31.1045475" lon="34.82413101"><ele>350.7</ele><time>2013-11-19T10:34:09.0000000+00:00</time></trkpt><trkpt lat="31.1045475" lon="34.82413101"><ele>350.7</ele><time>2013-11-19T10:34:14.0000000+00:00</time></trkpt><trkpt lat="31.1045475" lon="34.82413101"><ele>350.7</ele><time>2013-11-19T10:34:19.0000000+00:00</time></trkpt><trkpt lat="31.10454559" lon="34.82413101"><ele>350.7</ele><time>2013-11-19T10:34:24.0000000+00:00</time></trkpt><trkpt lat="31.10454559" lon="34.82413101"><ele>350.7</ele><time>2013-11-19T10:34:29.0000000+00:00</time></trkpt><trkpt lat="31.10454559" lon="34.82413101"><ele>350.7</ele><time>2013-11-19T10:34:34.0000000+00:00</time></trkpt><trkpt lat="31.10454559" lon="34.82413101"><ele>350.7</ele><time>2013-11-19T10:34:39.0000000+00:00</time></trkpt><trkpt lat="31.10454559" lon="34.82413101"><ele>350.7</ele><time>2013-11-19T10:34:44.0000000+00:00</time></trkpt><trkpt lat="31.10454559" lon="34.82413101"><ele>350.7</ele><time>2013-11-19T10:34:49.0000000+00:00</time></trkpt><trkpt lat="31.10454559" lon="34.82413101"><ele>350.6</ele><time>2013-11-19T10:34:54.0000000+00:00</time></trkpt><trkpt lat="31.10454559" lon="34.82413101"><ele>350.6</ele><time>2013-11-19T10:34:59.0000000+00:00</time></trkpt><trkpt lat="31.10454559" lon="34.82413101"><ele>350.6</ele><time>2013-11-19T10:35:04.0000000+00:00</time></trkpt><trkpt lat="31.10454559" lon="34.82413101"><ele>350.6</ele><time>2013-11-19T10:35:09.0000000+00:00</time></trkpt><trkpt lat="31.10454559" lon="34.82413101"><ele>350.6</ele><time>2013-11-19T10:35:14.0000000+00:00</time></trkpt><trkpt lat="31.10454559" lon="34.82413101"><ele>350.6</ele><time>2013-11-19T10:35:19.0000000+00:00</time></trkpt><trkpt lat="31.10454559" lon="34.82413101"><ele>350.6</ele><time>2013-11-19T10:35:24.0000000+00:00</time></trkpt><trkpt lat="31.10454559" lon="34.82413101"><ele>350.6</ele><time>2013-11-19T10:35:29.0000000+00:00</time></trkpt><trkpt lat="31.10454559" lon="34.82413101"><ele>350.6</ele><time>2013-11-19T10:35:34.0000000+00:00</time></trkpt><trkpt lat="31.10454559" lon="34.82413101"><ele>350.6</ele><time>2013-11-19T10:35:39.0000000+00:00</time></trkpt><trkpt lat="31.10454369" lon="34.82413101"><ele>350.6</ele><time>2013-11-19T10:35:44.0000000+00:00</time></trkpt><trkpt lat="31.10454369" lon="34.82413101"><ele>350.6</ele><time>2013-11-19T10:35:49.0000000+00:00</time></trkpt><trkpt lat="31.10454369" lon="34.82413101"><ele>350.6</ele><time>2013-11-19T10:35:54.0000000+00:00</time></trkpt><trkpt lat="31.10454369" lon="34.8241272"><ele>350.6</ele><time>2013-11-19T10:35:59.0000000+00:00</time></trkpt><trkpt lat="31.10454369" lon="34.8241272"><ele>350.6</ele><time>2013-11-19T10:36:04.0000000+00:00</time></trkpt><trkpt lat="31.10454369" lon="34.8241272"><ele>350.6</ele><time>2013-11-19T10:36:09.0000000+00:00</time></trkpt><trkpt lat="31.10454369" lon="34.8241272"><ele>350.5</ele><time>2013-11-19T10:36:14.0000000+00:00</time></trkpt><trkpt lat="31.10454369" lon="34.8241272"><ele>350.5</ele><time>2013-11-19T10:36:19.0000000+00:00</time></trkpt><trkpt lat="31.10454369" lon="34.8241272"><ele>350.5</ele><time>2013-11-19T10:36:24.0000000+00:00</time></trkpt><trkpt lat="31.10454369" lon="34.8241272"><ele>350.5</ele><time>2013-11-19T10:36:29.0000000+00:00</time></trkpt><trkpt lat="31.10454369" lon="34.8241272"><ele>350.5</ele><time>2013-11-19T10:36:34.0000000+00:00</time></trkpt><trkpt lat="31.10454369" lon="34.8241272"><ele>350.5</ele><time>2013-11-19T10:36:39.0000000+00:00</time></trkpt><trkpt lat="31.10454178" lon="34.8241272"><ele>350.5</ele><time>2013-11-19T10:36:44.0000000+00:00</time></trkpt><trkpt lat="31.10454178" lon="34.8241272"><ele>350.5</ele><time>2013-11-19T10:36:49.0000000+00:00</time></trkpt><trkpt lat="31.10454178" lon="34.8241272"><ele>350.5</ele><time>2013-11-19T10:36:54.0000000+00:00</time></trkpt><trkpt lat="31.10454178" lon="34.8241272"><ele>350.5</ele><time>2013-11-19T10:36:59.0000000+00:00</time></trkpt><trkpt lat="31.10454178" lon="34.8241272"><ele>350.5</ele><time>2013-11-19T10:37:04.0000000+00:00</time></trkpt><trkpt lat="31.10454178" lon="34.8241272"><ele>350.5</ele><time>2013-11-19T10:37:09.0000000+00:00</time></trkpt><trkpt lat="31.10454178" lon="34.8241272"><ele>350.5</ele><time>2013-11-19T10:37:14.0000000+00:00</time></trkpt><trkpt lat="31.10454178" lon="34.8241272"><ele>350.5</ele><time>2013-11-19T10:37:19.0000000+00:00</time></trkpt><trkpt lat="31.10454178" lon="34.8241272"><ele>350.5</ele><time>2013-11-19T10:37:24.0000000+00:00</time></trkpt><trkpt lat="31.10454178" lon="34.8241272"><ele>350.5</ele><time>2013-11-19T10:37:29.0000000+00:00</time></trkpt><trkpt lat="31.10454178" lon="34.8241272"><ele>350.5</ele><time>2013-11-19T10:37:34.0000000+00:00</time></trkpt><trkpt lat="31.10454178" lon="34.8241272"><ele>350.5</ele><time>2013-11-19T10:37:39.0000000+00:00</time></trkpt><trkpt lat="31.10454178" lon="34.8241272"><ele>350.5</ele><time>2013-11-19T10:37:44.0000000+00:00</time></trkpt><trkpt lat="31.10454178" lon="34.8241272"><ele>350.5</ele><time>2013-11-19T10:37:49.0000000+00:00</time></trkpt><trkpt lat="31.10454178" lon="34.8241272"><ele>350.5</ele><time>2013-11-19T10:37:54.0000000+00:00</time></trkpt><trkpt lat="31.10454178" lon="34.8241272"><ele>350.5</ele><time>2013-11-19T10:37:59.0000000+00:00</time></trkpt><trkpt lat="31.10454178" lon="34.8241272"><ele>350.5</ele><time>2013-11-19T10:38:04.0000000+00:00</time></trkpt><trkpt lat="31.10454178" lon="34.8241272"><ele>350.5</ele><time>2013-11-19T10:38:09.0000000+00:00</time></trkpt><trkpt lat="31.10454178" lon="34.8241272"><ele>350.5</ele><time>2013-11-19T10:38:14.0000000+00:00</time></trkpt><trkpt lat="31.10453987" lon="34.8241272"><ele>350.5</ele><time>2013-11-19T10:38:19.0000000+00:00</time></trkpt><trkpt lat="31.10453987" lon="34.8241272"><ele>350.5</ele><time>2013-11-19T10:38:24.0000000+00:00</time></trkpt><trkpt lat="31.10453987" lon="34.8241272"><ele>350.5</ele><time>2013-11-19T10:38:29.0000000+00:00</time></trkpt><trkpt lat="31.10453987" lon="34.8241272"><ele>350.5</ele><time>2013-11-19T10:38:34.0000000+00:00</time></trkpt><trkpt lat="31.10453987" lon="34.8241272"><ele>350.5</ele><time>2013-11-19T10:38:39.0000000+00:00</time></trkpt><trkpt lat="31.10453987" lon="34.8241272"><ele>350.5</ele><time>2013-11-19T10:38:44.0000000+00:00</time></trkpt><trkpt lat="31.10453987" lon="34.8241272"><ele>350.5</ele><time>2013-11-19T10:38:49.0000000+00:00</time></trkpt><trkpt lat="31.10453987" lon="34.8241272"><ele>350.5</ele><time>2013-11-19T10:38:54.0000000+00:00</time></trkpt><trkpt lat="31.10453987" lon="34.8241272"><ele>350.5</ele><time>2013-11-19T10:38:59.0000000+00:00</time></trkpt><trkpt lat="31.10453987" lon="34.8241272"><ele>350.5</ele><time>2013-11-19T10:39:04.0000000+00:00</time></trkpt><trkpt lat="31.10453987" lon="34.8241272"><ele>350.5</ele><time>2013-11-19T10:39:09.0000000+00:00</time></trkpt><trkpt lat="31.10453796" lon="34.8241272"><ele>350.6</ele><time>2013-11-19T10:39:14.0000000+00:00</time></trkpt><trkpt lat="31.10453796" lon="34.8241272"><ele>350.6</ele><time>2013-11-19T10:39:19.0000000+00:00</time></trkpt><trkpt lat="31.10453796" lon="34.8241272"><ele>350.6</ele><time>2013-11-19T10:39:24.0000000+00:00</time></trkpt><trkpt lat="31.10453796" lon="34.8241272"><ele>350.6</ele><time>2013-11-19T10:39:29.0000000+00:00</time></trkpt><trkpt lat="31.10453796" lon="34.8241272"><ele>350.6</ele><time>2013-11-19T10:39:34.0000000+00:00</time></trkpt><trkpt lat="31.10453796" lon="34.8241272"><ele>350.6</ele><time>2013-11-19T10:39:39.0000000+00:00</time></trkpt><trkpt lat="31.10453796" lon="34.8241272"><ele>350.6</ele><time>2013-11-19T10:39:44.0000000+00:00</time></trkpt><trkpt lat="31.10453796" lon="34.8241272"><ele>350.6</ele><time>2013-11-19T10:39:49.0000000+00:00</time></trkpt><trkpt lat="31.10453796" lon="34.8241272"><ele>350.6</ele><time>2013-11-19T10:39:54.0000000+00:00</time></trkpt><trkpt lat="31.10453796" lon="34.8241272"><ele>350.6</ele><time>2013-11-19T10:39:59.0000000+00:00</time></trkpt><trkpt lat="31.10453796" lon="34.8241272"><ele>350.5</ele><time>2013-11-19T10:40:04.0000000+00:00</time></trkpt><trkpt lat="31.10453796" lon="34.8241272"><ele>350.5</ele><time>2013-11-19T10:40:09.0000000+00:00</time></trkpt><trkpt lat="31.10453796" lon="34.82412338"><ele>350.5</ele><time>2013-11-19T10:40:14.0000000+00:00</time></trkpt><trkpt lat="31.10453796" lon="34.82412338"><ele>350.5</ele><time>2013-11-19T10:40:19.0000000+00:00</time></trkpt><trkpt lat="31.10453606" lon="34.82412338"><ele>350.5</ele><time>2013-11-19T10:40:24.0000000+00:00</time></trkpt><trkpt lat="31.10453606" lon="34.82412338"><ele>350.5</ele><time>2013-11-19T10:40:29.0000000+00:00</time></trkpt><trkpt lat="31.10453606" lon="34.82412338"><ele>350.4</ele><time>2013-11-19T10:40:34.0000000+00:00</time></trkpt><trkpt lat="31.10453606" lon="34.82412338"><ele>350.4</ele><time>2013-11-19T10:40:39.0000000+00:00</time></trkpt><trkpt lat="31.10453606" lon="34.82412338"><ele>350.4</ele><time>2013-11-19T10:40:44.0000000+00:00</time></trkpt><trkpt lat="31.10453606" lon="34.82412338"><ele>350.4</ele><time>2013-11-19T10:40:49.0000000+00:00</time></trkpt><trkpt lat="31.10453606" lon="34.82412338"><ele>350.4</ele><time>2013-11-19T10:40:54.0000000+00:00</time></trkpt><trkpt lat="31.10453606" lon="34.82412338"><ele>350.3</ele><time>2013-11-19T10:40:59.0000000+00:00</time></trkpt><trkpt lat="31.10453606" lon="34.82412338"><ele>350.3</ele><time>2013-11-19T10:41:04.0000000+00:00</time></trkpt><trkpt lat="31.10453606" lon="34.82412338"><ele>350.3</ele><time>2013-11-19T10:41:09.0000000+00:00</time></trkpt><trkpt lat="31.10453415" lon="34.82412338"><ele>350.3</ele><time>2013-11-19T10:41:14.0000000+00:00</time></trkpt><trkpt lat="31.10453415" lon="34.82412338"><ele>350.3</ele><time>2013-11-19T10:41:19.0000000+00:00</time></trkpt><trkpt lat="31.10453415" lon="34.82412338"><ele>350.3</ele><time>2013-11-19T10:41:24.0000000+00:00</time></trkpt><trkpt lat="31.10453415" lon="34.82412338"><ele>350.3</ele><time>2013-11-19T10:41:29.0000000+00:00</time></trkpt><trkpt lat="31.10453415" lon="34.82412338"><ele>350.3</ele><time>2013-11-19T10:41:34.0000000+00:00</time></trkpt><trkpt lat="31.10453415" lon="34.82412338"><ele>350.3</ele><time>2013-11-19T10:41:39.0000000+00:00</time></trkpt><trkpt lat="31.10453415" lon="34.82411957"><ele>350.3</ele><time>2013-11-19T10:41:44.0000000+00:00</time></trkpt><trkpt lat="31.10453415" lon="34.82411957"><ele>350.3</ele><time>2013-11-19T10:41:49.0000000+00:00</time></trkpt><trkpt lat="31.10453415" lon="34.82411957"><ele>350.3</ele><time>2013-11-19T10:41:54.0000000+00:00</time></trkpt><trkpt lat="31.10453415" lon="34.82411957"><ele>350.2</ele><time>2013-11-19T10:41:59.0000000+00:00</time></trkpt><trkpt lat="31.10453415" lon="34.82411957"><ele>350.2</ele><time>2013-11-19T10:42:04.0000000+00:00</time></trkpt><trkpt lat="31.10453415" lon="34.82411957"><ele>350.2</ele><time>2013-11-19T10:42:09.0000000+00:00</time></trkpt><trkpt lat="31.10453415" lon="34.82411957"><ele>350.2</ele><time>2013-11-19T10:42:14.0000000+00:00</time></trkpt><trkpt lat="31.10453224" lon="34.82411957"><ele>350.1</ele><time>2013-11-19T10:42:19.0000000+00:00</time></trkpt><trkpt lat="31.10453224" lon="34.82411957"><ele>350.1</ele><time>2013-11-19T10:42:24.0000000+00:00</time></trkpt><trkpt lat="31.10453224" lon="34.82411957"><ele>350.1</ele><time>2013-11-19T10:42:29.0000000+00:00</time></trkpt><trkpt lat="31.10453224" lon="34.82411957"><ele>350.0</ele><time>2013-11-19T10:42:34.0000000+00:00</time></trkpt><trkpt lat="31.10453224" lon="34.82411957"><ele>350.0</ele><time>2013-11-19T10:42:39.0000000+00:00</time></trkpt><trkpt lat="31.10453224" lon="34.82411957"><ele>350.0</ele><time>2013-11-19T10:42:44.0000000+00:00</time></trkpt><trkpt lat="31.10453224" lon="34.82411957"><ele>350.0</ele><time>2013-11-19T10:42:49.0000000+00:00</time></trkpt><trkpt lat="31.10453224" lon="34.82411957"><ele>350.0</ele><time>2013-11-19T10:42:54.0000000+00:00</time></trkpt><trkpt lat="31.10453224" lon="34.82411957"><ele>350.0</ele><time>2013-11-19T10:42:59.0000000+00:00</time></trkpt><trkpt lat="31.10453033" lon="34.82411957"><ele>350.0</ele><time>2013-11-19T10:43:04.0000000+00:00</time></trkpt><trkpt lat="31.10453033" lon="34.82411957"><ele>350.0</ele><time>2013-11-19T10:43:09.0000000+00:00</time></trkpt><trkpt lat="31.10453033" lon="34.82411957"><ele>350.0</ele><time>2013-11-19T10:43:14.0000000+00:00</time></trkpt><trkpt lat="31.10453033" lon="34.82411957"><ele>350.0</ele><time>2013-11-19T10:43:19.0000000+00:00</time></trkpt><trkpt lat="31.10453033" lon="34.82411957"><ele>350.0</ele><time>2013-11-19T10:43:24.0000000+00:00</time></trkpt><trkpt lat="31.10453033" lon="34.82411957"><ele>350.0</ele><time>2013-11-19T10:43:29.0000000+00:00</time></trkpt><trkpt lat="31.10453033" lon="34.82411957"><ele>350.0</ele><time>2013-11-19T10:43:34.0000000+00:00</time></trkpt><trkpt lat="31.10453033" lon="34.82411957"><ele>350.0</ele><time>2013-11-19T10:43:39.0000000+00:00</time></trkpt><trkpt lat="31.10453033" lon="34.82411957"><ele>350.0</ele><time>2013-11-19T10:43:44.0000000+00:00</time></trkpt><trkpt lat="31.10453033" lon="34.82411575"><ele>350.0</ele><time>2013-11-19T10:43:49.0000000+00:00</time></trkpt><trkpt lat="31.10453033" lon="34.82411575"><ele>350.0</ele><time>2013-11-19T10:43:54.0000000+00:00</time></trkpt><trkpt lat="31.10453033" lon="34.82411575"><ele>350.0</ele><time>2013-11-19T10:43:59.0000000+00:00</time></trkpt><trkpt lat="31.10453033" lon="34.82411575"><ele>349.9</ele><time>2013-11-19T10:44:04.0000000+00:00</time></trkpt><trkpt lat="31.10453033" lon="34.82411575"><ele>349.9</ele><time>2013-11-19T10:44:09.0000000+00:00</time></trkpt><trkpt lat="31.10453033" lon="34.82411575"><ele>349.9</ele><time>2013-11-19T10:44:14.0000000+00:00</time></trkpt><trkpt lat="31.10453033" lon="34.82411575"><ele>349.9</ele><time>2013-11-19T10:44:19.0000000+00:00</time></trkpt><trkpt lat="31.10453033" lon="34.82411575"><ele>349.9</ele><time>2013-11-19T10:44:24.0000000+00:00</time></trkpt><trkpt lat="31.10453033" lon="34.82411575"><ele>349.9</ele><time>2013-11-19T10:44:29.0000000+00:00</time></trkpt><trkpt lat="31.10453033" lon="34.82411575"><ele>349.9</ele><time>2013-11-19T10:44:34.0000000+00:00</time></trkpt><trkpt lat="31.10453033" lon="34.82411575"><ele>349.9</ele><time>2013-11-19T10:44:39.0000000+00:00</time></trkpt><trkpt lat="31.10453033" lon="34.82411575"><ele>349.9</ele><time>2013-11-19T10:44:44.0000000+00:00</time></trkpt><trkpt lat="31.10453033" lon="34.82411575"><ele>349.9</ele><time>2013-11-19T10:44:49.0000000+00:00</time></trkpt><trkpt lat="31.10453033" lon="34.82411575"><ele>349.9</ele><time>2013-11-19T10:44:54.0000000+00:00</time></trkpt><trkpt lat="31.10453033" lon="34.82411575"><ele>349.8</ele><time>2013-11-19T10:44:59.0000000+00:00</time></trkpt><trkpt lat="31.10452843" lon="34.82411575"><ele>349.8</ele><time>2013-11-19T10:45:04.0000000+00:00</time></trkpt><trkpt lat="31.10452843" lon="34.82411575"><ele>349.8</ele><time>2013-11-19T10:45:09.0000000+00:00</time></trkpt><trkpt lat="31.10452843" lon="34.82411575"><ele>349.8</ele><time>2013-11-19T10:45:14.0000000+00:00</time></trkpt><trkpt lat="31.10452843" lon="34.82411575"><ele>349.8</ele><time>2013-11-19T10:45:19.0000000+00:00</time></trkpt><trkpt lat="31.10452843" lon="34.82411575"><ele>349.8</ele><time>2013-11-19T10:45:24.0000000+00:00</time></trkpt><trkpt lat="31.10452843" lon="34.82411575"><ele>349.8</ele><time>2013-11-19T10:45:29.0000000+00:00</time></trkpt><trkpt lat="31.10452843" lon="34.82411575"><ele>349.8</ele><time>2013-11-19T10:45:34.0000000+00:00</time></trkpt><trkpt lat="31.10452843" lon="34.82411575"><ele>349.8</ele><time>2013-11-19T10:45:39.0000000+00:00</time></trkpt><trkpt lat="31.10452843" lon="34.82411575"><ele>349.8</ele><time>2013-11-19T10:45:44.0000000+00:00</time></trkpt><trkpt lat="31.10452843" lon="34.82411575"><ele>349.8</ele><time>2013-11-19T10:45:49.0000000+00:00</time></trkpt><trkpt lat="31.10453033" lon="34.82411575"><ele>349.8</ele><time>2013-11-19T10:45:54.0000000+00:00</time></trkpt><trkpt lat="31.10453033" lon="34.82411575"><ele>349.8</ele><time>2013-11-19T10:45:59.0000000+00:00</time></trkpt><trkpt lat="31.10453033" lon="34.82411575"><ele>349.8</ele><time>2013-11-19T10:46:04.0000000+00:00</time></trkpt><trkpt lat="31.10453033" lon="34.82411575"><ele>349.8</ele><time>2013-11-19T10:46:09.0000000+00:00</time></trkpt><trkpt lat="31.10453033" lon="34.82411575"><ele>349.8</ele><time>2013-11-19T10:46:14.0000000+00:00</time></trkpt><trkpt lat="31.10453033" lon="34.82411575"><ele>349.8</ele><time>2013-11-19T10:46:19.0000000+00:00</time></trkpt><trkpt lat="31.10453033" lon="34.82411575"><ele>349.8</ele><time>2013-11-19T10:46:24.0000000+00:00</time></trkpt><trkpt lat="31.10453033" lon="34.82411575"><ele>349.8</ele><time>2013-11-19T10:46:29.0000000+00:00</time></trkpt><trkpt lat="31.10453033" lon="34.82411575"><ele>349.9</ele><time>2013-11-19T10:46:34.0000000+00:00</time></trkpt><trkpt lat="31.10453033" lon="34.82411575"><ele>349.9</ele><time>2013-11-19T10:46:39.0000000+00:00</time></trkpt><trkpt lat="31.10453033" lon="34.82411575"><ele>349.9</ele><time>2013-11-19T10:46:44.0000000+00:00</time></trkpt><trkpt lat="31.10453033" lon="34.82411575"><ele>350.0</ele><time>2013-11-19T10:46:49.0000000+00:00</time></trkpt><trkpt lat="31.10453033" lon="34.82411575"><ele>350.0</ele><time>2013-11-19T10:46:54.0000000+00:00</time></trkpt><trkpt lat="31.10453033" lon="34.82411575"><ele>350.0</ele><time>2013-11-19T10:46:59.0000000+00:00</time></trkpt><trkpt lat="31.10453033" lon="34.82411575"><ele>350.0</ele><time>2013-11-19T10:47:04.0000000+00:00</time></trkpt><trkpt lat="31.10453033" lon="34.82411575"><ele>350.1</ele><time>2013-11-19T10:47:09.0000000+00:00</time></trkpt><trkpt lat="31.10451889" lon="34.82413101"><ele>351.8</ele><time>2013-11-19T10:47:14.0000000+00:00</time></trkpt><trkpt lat="31.10452271" lon="34.82413483"><ele>352.5</ele><time>2013-11-19T10:47:19.0000000+00:00</time></trkpt><trkpt lat="31.10452271" lon="34.82413483"><ele>352.6</ele><time>2013-11-19T10:47:24.0000000+00:00</time></trkpt><trkpt lat="31.10450554" lon="34.82415772"><ele>352.7</ele><time>2013-11-19T10:47:29.0000000+00:00</time></trkpt><trkpt lat="31.10448837" lon="34.82419205"><ele>353.1</ele><time>2013-11-19T10:47:34.0000000+00:00</time></trkpt><trkpt lat="31.10442734" lon="34.82424927"><ele>354.4</ele><time>2013-11-19T10:47:39.0000000+00:00</time></trkpt><trkpt lat="31.10438347" lon="34.82429886"><ele>355.0</ele><time>2013-11-19T10:47:44.0000000+00:00</time></trkpt><trkpt lat="31.10434723" lon="34.82435989"><ele>357.4</ele><time>2013-11-19T10:47:49.0000000+00:00</time></trkpt><trkpt lat="31.10433388" lon="34.82438278"><ele>358.4</ele><time>2013-11-19T10:47:54.0000000+00:00</time></trkpt><trkpt lat="31.10440445" lon="34.82441711"><ele>357.7</ele><time>2013-11-19T10:47:59.0000000+00:00</time></trkpt><trkpt lat="31.10439301" lon="34.82446289"><ele>356.6</ele><time>2013-11-19T10:48:04.0000000+00:00</time></trkpt><trkpt lat="31.1043911" lon="34.82446671"><ele>356.3</ele><time>2013-11-19T10:48:09.0000000+00:00</time></trkpt><trkpt lat="31.1043911" lon="34.82447052"><ele>355.9</ele><time>2013-11-19T10:48:14.0000000+00:00</time></trkpt><trkpt lat="31.10439301" lon="34.82446671"><ele>356.3</ele><time>2013-11-19T10:48:19.0000000+00:00</time></trkpt><trkpt lat="31.10439301" lon="34.82446671"><ele>356.3</ele><time>2013-11-19T10:48:24.0000000+00:00</time></trkpt><trkpt lat="31.10439301" lon="34.82446671"><ele>356.3</ele><time>2013-11-19T10:48:29.0000000+00:00</time></trkpt><trkpt lat="31.10438538" lon="34.82446289"><ele>357.1</ele><time>2013-11-19T10:48:34.0000000+00:00</time></trkpt><trkpt lat="31.10438538" lon="34.82447815"><ele>357.5</ele><time>2013-11-19T10:48:39.0000000+00:00</time></trkpt><trkpt lat="31.1043911" lon="34.82448959"><ele>357.1</ele><time>2013-11-19T10:48:44.0000000+00:00</time></trkpt><trkpt lat="31.1043911" lon="34.82448959"><ele>357.1</ele><time>2013-11-19T10:48:49.0000000+00:00</time></trkpt><trkpt lat="31.1043911" lon="34.82448959"><ele>357.1</ele><time>2013-11-19T10:48:54.0000000+00:00</time></trkpt><trkpt lat="31.1043911" lon="34.82448959"><ele>357.1</ele><time>2013-11-19T10:48:59.0000000+00:00</time></trkpt><trkpt lat="31.10439301" lon="34.82449341"><ele>357.1</ele><time>2013-11-19T10:49:04.0000000+00:00</time></trkpt><trkpt lat="31.10439301" lon="34.82449341"><ele>357.1</ele><time>2013-11-19T10:49:09.0000000+00:00</time></trkpt><trkpt lat="31.10439301" lon="34.82449341"><ele>357.1</ele><time>2013-11-19T10:49:14.0000000+00:00</time></trkpt><trkpt lat="31.10439301" lon="34.82449341"><ele>357.1</ele><time>2013-11-19T10:49:19.0000000+00:00</time></trkpt><trkpt lat="31.10439301" lon="34.82449341"><ele>357.1</ele><time>2013-11-19T10:49:24.0000000+00:00</time></trkpt><trkpt lat="31.10439301" lon="34.82449341"><ele>357.1</ele><time>2013-11-19T10:49:29.0000000+00:00</time></trkpt><trkpt lat="31.10439301" lon="34.82449341"><ele>357.1</ele><time>2013-11-19T10:49:34.0000000+00:00</time></trkpt><trkpt lat="31.10439301" lon="34.82449341"><ele>357.1</ele><time>2013-11-19T10:49:39.0000000+00:00</time></trkpt><trkpt lat="31.10439301" lon="34.82449341"><ele>357.2</ele><time>2013-11-19T10:49:44.0000000+00:00</time></trkpt><trkpt lat="31.10439301" lon="34.82449722"><ele>357.2</ele><time>2013-11-19T10:49:49.0000000+00:00</time></trkpt><trkpt lat="31.10439301" lon="34.82449722"><ele>357.2</ele><time>2013-11-19T10:49:54.0000000+00:00</time></trkpt><trkpt lat="31.10439301" lon="34.82449722"><ele>357.2</ele><time>2013-11-19T10:49:59.0000000+00:00</time></trkpt><trkpt lat="31.10439301" lon="34.82449722"><ele>357.3</ele><time>2013-11-19T10:50:04.0000000+00:00</time></trkpt><trkpt lat="31.10439301" lon="34.82449722"><ele>357.3</ele><time>2013-11-19T10:50:09.0000000+00:00</time></trkpt><trkpt lat="31.10439301" lon="34.82449722"><ele>357.3</ele><time>2013-11-19T10:50:14.0000000+00:00</time></trkpt><trkpt lat="31.1043911" lon="34.82449722"><ele>357.4</ele><time>2013-11-19T10:50:19.0000000+00:00</time></trkpt><trkpt lat="31.1043911" lon="34.82449722"><ele>357.4</ele><time>2013-11-19T10:50:24.0000000+00:00</time></trkpt><trkpt lat="31.1043911" lon="34.82450104"><ele>357.4</ele><time>2013-11-19T10:50:29.0000000+00:00</time></trkpt><trkpt lat="31.1043911" lon="34.82450104"><ele>357.4</ele><time>2013-11-19T10:50:34.0000000+00:00</time></trkpt><trkpt lat="31.1043911" lon="34.82450104"><ele>357.4</ele><time>2013-11-19T10:50:39.0000000+00:00</time></trkpt><trkpt lat="31.1043911" lon="34.82450104"><ele>357.4</ele><time>2013-11-19T10:50:44.0000000+00:00</time></trkpt><trkpt lat="31.1043911" lon="34.82450104"><ele>357.4</ele><time>2013-11-19T10:50:49.0000000+00:00</time></trkpt><trkpt lat="31.1043911" lon="34.82450104"><ele>357.4</ele><time>2013-11-19T10:50:54.0000000+00:00</time></trkpt><trkpt lat="31.10439301" lon="34.82450104"><ele>357.4</ele><time>2013-11-19T10:50:59.0000000+00:00</time></trkpt><trkpt lat="31.10439301" lon="34.82450104"><ele>357.5</ele><time>2013-11-19T10:51:04.0000000+00:00</time></trkpt><trkpt lat="31.10439301" lon="34.82450104"><ele>357.5</ele><time>2013-11-19T10:51:09.0000000+00:00</time></trkpt><trkpt lat="31.10439301" lon="34.82450104"><ele>357.5</ele><time>2013-11-19T10:51:14.0000000+00:00</time></trkpt><trkpt lat="31.10439301" lon="34.82450485"><ele>357.5</ele><time>2013-11-19T10:51:19.0000000+00:00</time></trkpt><trkpt lat="31.10439301" lon="34.82450485"><ele>357.5</ele><time>2013-11-19T10:51:24.0000000+00:00</time></trkpt><trkpt lat="31.10439301" lon="34.82450485"><ele>357.5</ele><time>2013-11-19T10:51:29.0000000+00:00</time></trkpt><trkpt lat="31.10439301" lon="34.82450485"><ele>357.6</ele><time>2013-11-19T10:51:34.0000000+00:00</time></trkpt><trkpt lat="31.10439301" lon="34.82450485"><ele>357.6</ele><time>2013-11-19T10:51:39.0000000+00:00</time></trkpt><trkpt lat="31.10439491" lon="34.82450485"><ele>357.6</ele><time>2013-11-19T10:51:44.0000000+00:00</time></trkpt><trkpt lat="31.10443306" lon="34.82455063"><ele>358.9</ele><time>2013-11-19T10:51:49.0000000+00:00</time></trkpt><trkpt lat="31.10450554" lon="34.82465363"><ele>359.8</ele><time>2013-11-19T10:51:54.0000000+00:00</time></trkpt><trkpt lat="31.10450935" lon="34.82484055"><ele>360.5</ele><time>2013-11-19T10:51:59.0000000+00:00</time></trkpt><trkpt lat="31.10442162" lon="34.82501602"><ele>360.3</ele><time>2013-11-19T10:52:04.0000000+00:00</time></trkpt><trkpt lat="31.1042347" lon="34.82516098"><ele>360.3</ele><time>2013-11-19T10:52:09.0000000+00:00</time></trkpt><trkpt lat="31.1040535" lon="34.82530975"><ele>357.9</ele><time>2013-11-19T10:52:14.0000000+00:00</time></trkpt><trkpt lat="31.1038456" lon="34.82545471"><ele>358.0</ele><time>2013-11-19T10:52:19.0000000+00:00</time></trkpt><trkpt lat="31.10364914" lon="34.82558441"><ele>357.3</ele><time>2013-11-19T10:52:24.0000000+00:00</time></trkpt><trkpt lat="31.10344124" lon="34.8257103"><ele>355.7</ele><time>2013-11-19T10:52:29.0000000+00:00</time></trkpt><trkpt lat="31.1032238" lon="34.82583237"><ele>354.0</ele><time>2013-11-19T10:52:34.0000000+00:00</time></trkpt><trkpt lat="31.10300827" lon="34.82593536"><ele>353.7</ele><time>2013-11-19T10:52:39.0000000+00:00</time></trkpt><trkpt lat="31.10280037" lon="34.8260231"><ele>352.8</ele><time>2013-11-19T10:52:44.0000000+00:00</time></trkpt><trkpt lat="31.1025753" lon="34.82610321"><ele>352.7</ele><time>2013-11-19T10:52:49.0000000+00:00</time></trkpt><trkpt lat="31.10233879" lon="34.82618713"><ele>352.1</ele><time>2013-11-19T10:52:54.0000000+00:00</time></trkpt><trkpt lat="31.10210991" lon="34.82626343"><ele>351.0</ele><time>2013-11-19T10:52:59.0000000+00:00</time></trkpt><trkpt lat="31.10186768" lon="34.82632446"><ele>350.1</ele><time>2013-11-19T10:53:04.0000000+00:00</time></trkpt><trkpt lat="31.10162926" lon="34.8263855"><ele>349.7</ele><time>2013-11-19T10:53:09.0000000+00:00</time></trkpt><trkpt lat="31.10139275" lon="34.82644272"><ele>349.8</ele><time>2013-11-19T10:53:14.0000000+00:00</time></trkpt><trkpt lat="31.1011467" lon="34.82652664"><ele>348.7</ele><time>2013-11-19T10:53:19.0000000+00:00</time></trkpt><trkpt lat="31.10088158" lon="34.82659531"><ele>348.7</ele><time>2013-11-19T10:53:24.0000000+00:00</time></trkpt><trkpt lat="31.10062408" lon="34.82667542"><ele>348.4</ele><time>2013-11-19T10:53:29.0000000+00:00</time></trkpt><trkpt lat="31.10036469" lon="34.82676697"><ele>347.5</ele><time>2013-11-19T10:53:34.0000000+00:00</time></trkpt><trkpt lat="31.10013771" lon="34.82682419"><ele>346.1</ele><time>2013-11-19T10:53:39.0000000+00:00</time></trkpt><trkpt lat="31.10001183" lon="34.826828"><ele>346.8</ele><time>2013-11-19T10:53:44.0000000+00:00</time></trkpt><trkpt lat="31.10000801" lon="34.82682037"><ele>347.3</ele><time>2013-11-19T10:53:49.0000000+00:00</time></trkpt><trkpt lat="31.10000801" lon="34.82681656"><ele>347.5</ele><time>2013-11-19T10:53:54.0000000+00:00</time></trkpt><trkpt lat="31.10000992" lon="34.82681656"><ele>347.7</ele><time>2013-11-19T10:53:59.0000000+00:00</time></trkpt><trkpt lat="31.10000992" lon="34.82681656"><ele>347.7</ele><time>2013-11-19T10:54:04.0000000+00:00</time></trkpt><trkpt lat="31.10000992" lon="34.82682037"><ele>347.7</ele><time>2013-11-19T10:54:09.0000000+00:00</time></trkpt><trkpt lat="31.10000992" lon="34.82681656"><ele>347.8</ele><time>2013-11-19T10:54:14.0000000+00:00</time></trkpt><trkpt lat="31.10000992" lon="34.82682037"><ele>347.8</ele><time>2013-11-19T10:54:19.0000000+00:00</time></trkpt><trkpt lat="31.10000992" lon="34.82682037"><ele>347.8</ele><time>2013-11-19T10:54:24.0000000+00:00</time></trkpt><trkpt lat="31.10000992" lon="34.82682037"><ele>347.8</ele><time>2013-11-19T10:54:29.0000000+00:00</time></trkpt><trkpt lat="31.10000992" lon="34.82682037"><ele>347.8</ele><time>2013-11-19T10:54:34.0000000+00:00</time></trkpt><trkpt lat="31.10001183" lon="34.82682037"><ele>347.8</ele><time>2013-11-19T10:54:39.0000000+00:00</time></trkpt><trkpt lat="31.10001183" lon="34.82682037"><ele>347.8</ele><time>2013-11-19T10:54:44.0000000+00:00</time></trkpt><trkpt lat="31.10001183" lon="34.82682037"><ele>347.8</ele><time>2013-11-19T10:54:49.0000000+00:00</time></trkpt><trkpt lat="31.10001183" lon="34.82682037"><ele>347.8</ele><time>2013-11-19T10:54:54.0000000+00:00</time></trkpt><trkpt lat="31.10001183" lon="34.82682037"><ele>347.9</ele><time>2013-11-19T10:54:59.0000000+00:00</time></trkpt><trkpt lat="31.10001183" lon="34.82681656"><ele>347.9</ele><time>2013-11-19T10:55:04.0000000+00:00</time></trkpt><trkpt lat="31.10001183" lon="34.82681656"><ele>347.9</ele><time>2013-11-19T10:55:09.0000000+00:00</time></trkpt><trkpt lat="31.10001183" lon="34.82681656"><ele>347.9</ele><time>2013-11-19T10:55:14.0000000+00:00</time></trkpt><trkpt lat="31.09991264" lon="34.82685089"><ele>348.1</ele><time>2013-11-19T10:55:19.0000000+00:00</time></trkpt><trkpt lat="31.09972572" lon="34.82689285"><ele>348.0</ele><time>2013-11-19T10:55:24.0000000+00:00</time></trkpt><trkpt lat="31.09949875" lon="34.82695389"><ele>347.3</ele><time>2013-11-19T10:55:29.0000000+00:00</time></trkpt><trkpt lat="31.09925842" lon="34.82701874"><ele>346.6</ele><time>2013-11-19T10:55:34.0000000+00:00</time></trkpt><trkpt lat="31.09902" lon="34.82709122"><ele>345.7</ele><time>2013-11-19T10:55:39.0000000+00:00</time></trkpt><trkpt lat="31.09877586" lon="34.82715988"><ele>344.4</ele><time>2013-11-19T10:55:44.0000000+00:00</time></trkpt><trkpt lat="31.09851456" lon="34.82723236"><ele>343.4</ele><time>2013-11-19T10:55:49.0000000+00:00</time></trkpt><trkpt lat="31.09827042" lon="34.82731247"><ele>342.8</ele><time>2013-11-19T10:55:54.0000000+00:00</time></trkpt><trkpt lat="31.09801483" lon="34.82738495"><ele>343.2</ele><time>2013-11-19T10:55:59.0000000+00:00</time></trkpt><trkpt lat="31.09776878" lon="34.8274498"><ele>343.4</ele><time>2013-11-19T10:56:04.0000000+00:00</time></trkpt><trkpt lat="31.09752655" lon="34.82752228"><ele>342.0</ele><time>2013-11-19T10:56:09.0000000+00:00</time></trkpt><trkpt lat="31.09728622" lon="34.82760239"><ele>341.5</ele><time>2013-11-19T10:56:14.0000000+00:00</time></trkpt><trkpt lat="31.09704208" lon="34.8276825"><ele>340.6</ele><time>2013-11-19T10:56:19.0000000+00:00</time></trkpt><trkpt lat="31.09679794" lon="34.82776642"><ele>339.0</ele><time>2013-11-19T10:56:24.0000000+00:00</time></trkpt><trkpt lat="31.09653854" lon="34.82785416"><ele>338.3</ele><time>2013-11-19T10:56:29.0000000+00:00</time></trkpt><trkpt lat="31.0962677" lon="34.82793808"><ele>337.5</ele><time>2013-11-19T10:56:34.0000000+00:00</time></trkpt><trkpt lat="31.09599495" lon="34.828022"><ele>337.0</ele><time>2013-11-19T10:56:39.0000000+00:00</time></trkpt><trkpt lat="31.09573555" lon="34.82810211"><ele>336.8</ele><time>2013-11-19T10:56:44.0000000+00:00</time></trkpt><trkpt lat="31.09549141" lon="34.82818222"><ele>335.9</ele><time>2013-11-19T10:56:49.0000000+00:00</time></trkpt><trkpt lat="31.09526444" lon="34.82825851"><ele>336.0</ele><time>2013-11-19T10:56:54.0000000+00:00</time></trkpt><trkpt lat="31.09505272" lon="34.82832336"><ele>335.4</ele><time>2013-11-19T10:56:59.0000000+00:00</time></trkpt><trkpt lat="31.09483147" lon="34.82839203"><ele>334.5</ele><time>2013-11-19T10:57:04.0000000+00:00</time></trkpt><trkpt lat="31.09466934" lon="34.82843781"><ele>333.5</ele><time>2013-11-19T10:57:09.0000000+00:00</time></trkpt><trkpt lat="31.09451485" lon="34.82846832"><ele>333.4</ele><time>2013-11-19T10:57:14.0000000+00:00</time></trkpt><trkpt lat="31.09451294" lon="34.82846451"><ele>334.1</ele><time>2013-11-19T10:57:19.0000000+00:00</time></trkpt><trkpt lat="31.09451294" lon="34.82846451"><ele>334.1</ele><time>2013-11-19T10:57:24.0000000+00:00</time></trkpt><trkpt lat="31.09451294" lon="34.82846832"><ele>334.1</ele><time>2013-11-19T10:57:29.0000000+00:00</time></trkpt><trkpt lat="31.09451485" lon="34.82846832"><ele>334.0</ele><time>2013-11-19T10:57:34.0000000+00:00</time></trkpt><trkpt lat="31.09451485" lon="34.82846451"><ele>334.0</ele><time>2013-11-19T10:57:39.0000000+00:00</time></trkpt><trkpt lat="31.09451485" lon="34.82846832"><ele>334.1</ele><time>2013-11-19T10:57:44.0000000+00:00</time></trkpt><trkpt lat="31.09451485" lon="34.82846832"><ele>334.2</ele><time>2013-11-19T10:57:49.0000000+00:00</time></trkpt><trkpt lat="31.09451675" lon="34.82846832"><ele>334.3</ele><time>2013-11-19T10:57:54.0000000+00:00</time></trkpt><trkpt lat="31.09451675" lon="34.82846832"><ele>334.3</ele><time>2013-11-19T10:57:59.0000000+00:00</time></trkpt><trkpt lat="31.09451675" lon="34.82846832"><ele>334.3</ele><time>2013-11-19T10:58:04.0000000+00:00</time></trkpt><trkpt lat="31.09451675" lon="34.82846832"><ele>334.3</ele><time>2013-11-19T10:58:09.0000000+00:00</time></trkpt><trkpt lat="31.09451675" lon="34.82846832"><ele>334.3</ele><time>2013-11-19T10:58:14.0000000+00:00</time></trkpt><trkpt lat="31.09449196" lon="34.82846451"><ele>334.1</ele><time>2013-11-19T10:58:19.0000000+00:00</time></trkpt><trkpt lat="31.09437561" lon="34.82850266"><ele>334.2</ele><time>2013-11-19T10:58:24.0000000+00:00</time></trkpt><trkpt lat="31.09420586" lon="34.82853699"><ele>334.8</ele><time>2013-11-19T10:58:29.0000000+00:00</time></trkpt><trkpt lat="31.09399986" lon="34.82856751"><ele>335.6</ele><time>2013-11-19T10:58:34.0000000+00:00</time></trkpt><trkpt lat="31.09377861" lon="34.82862091"><ele>335.1</ele><time>2013-11-19T10:58:39.0000000+00:00</time></trkpt><trkpt lat="31.09353256" lon="34.82868576"><ele>334.1</ele><time>2013-11-19T10:58:44.0000000+00:00</time></trkpt><trkpt lat="31.09327316" lon="34.82874298"><ele>333.3</ele><time>2013-11-19T10:58:49.0000000+00:00</time></trkpt><trkpt lat="31.0930233" lon="34.82879257"><ele>333.8</ele><time>2013-11-19T10:58:54.0000000+00:00</time></trkpt><trkpt lat="31.09278488" lon="34.82885361"><ele>333.7</ele><time>2013-11-19T10:58:59.0000000+00:00</time></trkpt><trkpt lat="31.09254265" lon="34.82889175"><ele>334.2</ele><time>2013-11-19T10:59:04.0000000+00:00</time></trkpt><trkpt lat="31.09229469" lon="34.82892609"><ele>335.3</ele><time>2013-11-19T10:59:09.0000000+00:00</time></trkpt><trkpt lat="31.09203529" lon="34.82897568"><ele>335.7</ele><time>2013-11-19T10:59:14.0000000+00:00</time></trkpt><trkpt lat="31.09174538" lon="34.82901764"><ele>335.8</ele><time>2013-11-19T10:59:19.0000000+00:00</time></trkpt><trkpt lat="31.09145927" lon="34.82907486"><ele>336.5</ele><time>2013-11-19T10:59:24.0000000+00:00</time></trkpt><trkpt lat="31.09119988" lon="34.82912064"><ele>337.3</ele><time>2013-11-19T10:59:29.0000000+00:00</time></trkpt><trkpt lat="31.09094429" lon="34.8291893"><ele>337.3</ele><time>2013-11-19T10:59:34.0000000+00:00</time></trkpt><trkpt lat="31.09071159" lon="34.82926559"><ele>336.6</ele><time>2013-11-19T10:59:39.0000000+00:00</time></trkpt><trkpt lat="31.09046745" lon="34.82936096"><ele>336.5</ele><time>2013-11-19T10:59:44.0000000+00:00</time></trkpt><trkpt lat="31.09025765" lon="34.82946014"><ele>337.9</ele><time>2013-11-19T10:59:49.0000000+00:00</time></trkpt><trkpt lat="31.09004021" lon="34.82957077"><ele>339.4</ele><time>2013-11-19T10:59:54.0000000+00:00</time></trkpt><trkpt lat="31.08980179" lon="34.82971573"><ele>338.9</ele><time>2013-11-19T10:59:59.0000000+00:00</time></trkpt><trkpt lat="31.08957672" lon="34.82988739"><ele>339.8</ele><time>2013-11-19T11:00:04.0000000+00:00</time></trkpt><trkpt lat="31.08937073" lon="34.83004379"><ele>338.1</ele><time>2013-11-19T11:00:09.0000000+00:00</time></trkpt><trkpt lat="31.08916664" lon="34.83021545"><ele>339.4</ele><time>2013-11-19T11:00:14.0000000+00:00</time></trkpt><trkpt lat="31.08896446" lon="34.83044815"><ele>337.7</ele><time>2013-11-19T11:00:19.0000000+00:00</time></trkpt><trkpt lat="31.08880425" lon="34.83063889"><ele>336.2</ele><time>2013-11-19T11:00:24.0000000+00:00</time></trkpt><trkpt lat="31.08865929" lon="34.83081818"><ele>335.1</ele><time>2013-11-19T11:00:29.0000000+00:00</time></trkpt><trkpt lat="31.08850288" lon="34.83099747"><ele>334.7</ele><time>2013-11-19T11:00:34.0000000+00:00</time></trkpt><trkpt lat="31.08831978" lon="34.83120346"><ele>335.6</ele><time>2013-11-19T11:00:39.0000000+00:00</time></trkpt><trkpt lat="31.08818054" lon="34.83136368"><ele>334.9</ele><time>2013-11-19T11:00:44.0000000+00:00</time></trkpt><trkpt lat="31.08804512" lon="34.83152008"><ele>334.4</ele><time>2013-11-19T11:00:49.0000000+00:00</time></trkpt><trkpt lat="31.08792877" lon="34.83165741"><ele>334.5</ele><time>2013-11-19T11:00:54.0000000+00:00</time></trkpt><trkpt lat="31.08782959" lon="34.83176041"><ele>336.0</ele><time>2013-11-19T11:00:59.0000000+00:00</time></trkpt><trkpt lat="31.08770561" lon="34.83190918"><ele>336.1</ele><time>2013-11-19T11:01:04.0000000+00:00</time></trkpt><trkpt lat="31.08756828" lon="34.83207703"><ele>337.6</ele><time>2013-11-19T11:01:09.0000000+00:00</time></trkpt><trkpt lat="31.08740044" lon="34.83226395"><ele>338.8</ele><time>2013-11-19T11:01:14.0000000+00:00</time></trkpt><trkpt lat="31.08725548" lon="34.83242416"><ele>339.3</ele><time>2013-11-19T11:01:19.0000000+00:00</time></trkpt><trkpt lat="31.08713722" lon="34.83255768"><ele>339.3</ele><time>2013-11-19T11:01:24.0000000+00:00</time></trkpt><trkpt lat="31.08700371" lon="34.83269501"><ele>339.3</ele><time>2013-11-19T11:01:29.0000000+00:00</time></trkpt><trkpt lat="31.08683395" lon="34.83287048"><ele>339.0</ele><time>2013-11-19T11:01:34.0000000+00:00</time></trkpt><trkpt lat="31.08663559" lon="34.83304977"><ele>338.7</ele><time>2013-11-19T11:01:39.0000000+00:00</time></trkpt><trkpt lat="31.08643532" lon="34.83320618"><ele>337.9</ele><time>2013-11-19T11:01:44.0000000+00:00</time></trkpt><trkpt lat="31.08623505" lon="34.83336258"><ele>337.7</ele><time>2013-11-19T11:01:49.0000000+00:00</time></trkpt><trkpt lat="31.08602333" lon="34.83350754"><ele>338.3</ele><time>2013-11-19T11:01:54.0000000+00:00</time></trkpt><trkpt lat="31.08579826" lon="34.83366394"><ele>337.6</ele><time>2013-11-19T11:01:59.0000000+00:00</time></trkpt><trkpt lat="31.08557129" lon="34.83380127"><ele>338.1</ele><time>2013-11-19T11:02:04.0000000+00:00</time></trkpt><trkpt lat="31.08535957" lon="34.83391571"><ele>338.3</ele><time>2013-11-19T11:02:09.0000000+00:00</time></trkpt><trkpt lat="31.08515358" lon="34.83403397"><ele>338.4</ele><time>2013-11-19T11:02:14.0000000+00:00</time></trkpt><trkpt lat="31.08491325" lon="34.83414078"><ele>338.2</ele><time>2013-11-19T11:02:19.0000000+00:00</time></trkpt><trkpt lat="31.08468437" lon="34.83422852"><ele>338.6</ele><time>2013-11-19T11:02:24.0000000+00:00</time></trkpt><trkpt lat="31.08445358" lon="34.83431244"><ele>339.0</ele><time>2013-11-19T11:02:29.0000000+00:00</time></trkpt><trkpt lat="31.08419609" lon="34.83439636"><ele>338.5</ele><time>2013-11-19T11:02:34.0000000+00:00</time></trkpt><trkpt lat="31.08395767" lon="34.8344574"><ele>338.8</ele><time>2013-11-19T11:02:39.0000000+00:00</time></trkpt><trkpt lat="31.08384705" lon="34.83447647"><ele>340.1</ele><time>2013-11-19T11:02:44.0000000+00:00</time></trkpt><trkpt lat="31.08385086" lon="34.83448029"><ele>340.1</ele><time>2013-11-19T11:02:49.0000000+00:00</time></trkpt><trkpt lat="31.08384895" lon="34.83448029"><ele>340.0</ele><time>2013-11-19T11:02:54.0000000+00:00</time></trkpt><trkpt lat="31.08384895" lon="34.83448029"><ele>340.0</ele><time>2013-11-19T11:02:59.0000000+00:00</time></trkpt><trkpt lat="31.08384895" lon="34.83448029"><ele>340.0</ele><time>2013-11-19T11:03:04.0000000+00:00</time></trkpt><trkpt lat="31.08384895" lon="34.83448029"><ele>340.0</ele><time>2013-11-19T11:03:09.0000000+00:00</time></trkpt><trkpt lat="31.08384705" lon="34.83448029"><ele>340.0</ele><time>2013-11-19T11:03:14.0000000+00:00</time></trkpt><trkpt lat="31.08384705" lon="34.83448029"><ele>339.9</ele><time>2013-11-19T11:03:19.0000000+00:00</time></trkpt><trkpt lat="31.08384705" lon="34.83448029"><ele>339.9</ele><time>2013-11-19T11:03:24.0000000+00:00</time></trkpt><trkpt lat="31.08384705" lon="34.83448029"><ele>339.9</ele><time>2013-11-19T11:03:29.0000000+00:00</time></trkpt><trkpt lat="31.08384705" lon="34.83448029"><ele>339.9</ele><time>2013-11-19T11:03:34.0000000+00:00</time></trkpt><trkpt lat="31.08384705" lon="34.83448029"><ele>339.9</ele><time>2013-11-19T11:03:39.0000000+00:00</time></trkpt><trkpt lat="31.08384514" lon="34.83448029"><ele>339.9</ele><time>2013-11-19T11:03:44.0000000+00:00</time></trkpt><trkpt lat="31.08384514" lon="34.83448029"><ele>339.9</ele><time>2013-11-19T11:03:49.0000000+00:00</time></trkpt><trkpt lat="31.08384514" lon="34.83448029"><ele>339.9</ele><time>2013-11-19T11:03:54.0000000+00:00</time></trkpt><trkpt lat="31.08384514" lon="34.83448029"><ele>339.9</ele><time>2013-11-19T11:03:59.0000000+00:00</time></trkpt><trkpt lat="31.08384514" lon="34.83448029"><ele>339.9</ele><time>2013-11-19T11:04:04.0000000+00:00</time></trkpt><trkpt lat="31.08384514" lon="34.83448029"><ele>339.9</ele><time>2013-11-19T11:04:09.0000000+00:00</time></trkpt><trkpt lat="31.08384514" lon="34.83448029"><ele>339.9</ele><time>2013-11-19T11:04:14.0000000+00:00</time></trkpt><trkpt lat="31.08384514" lon="34.83448029"><ele>339.9</ele><time>2013-11-19T11:04:19.0000000+00:00</time></trkpt><trkpt lat="31.08384514" lon="34.83447647"><ele>339.8</ele><time>2013-11-19T11:04:24.0000000+00:00</time></trkpt><trkpt lat="31.08384514" lon="34.83447647"><ele>339.8</ele><time>2013-11-19T11:04:29.0000000+00:00</time></trkpt><trkpt lat="31.08384323" lon="34.83447647"><ele>339.8</ele><time>2013-11-19T11:04:34.0000000+00:00</time></trkpt><trkpt lat="31.08384323" lon="34.83447647"><ele>339.8</ele><time>2013-11-19T11:04:39.0000000+00:00</time></trkpt><trkpt lat="31.08384323" lon="34.83447647"><ele>339.8</ele><time>2013-11-19T11:04:44.0000000+00:00</time></trkpt><trkpt lat="31.08384323" lon="34.83447647"><ele>339.8</ele><time>2013-11-19T11:04:49.0000000+00:00</time></trkpt><trkpt lat="31.08384323" lon="34.83447647"><ele>339.7</ele><time>2013-11-19T11:04:54.0000000+00:00</time></trkpt><trkpt lat="31.08384323" lon="34.83447647"><ele>339.7</ele><time>2013-11-19T11:04:59.0000000+00:00</time></trkpt><trkpt lat="31.08384323" lon="34.83447647"><ele>339.7</ele><time>2013-11-19T11:05:04.0000000+00:00</time></trkpt><trkpt lat="31.08384132" lon="34.83447647"><ele>339.7</ele><time>2013-11-19T11:05:09.0000000+00:00</time></trkpt><trkpt lat="31.08384132" lon="34.83447647"><ele>339.6</ele><time>2013-11-19T11:05:14.0000000+00:00</time></trkpt><trkpt lat="31.08384132" lon="34.83447647"><ele>339.6</ele><time>2013-11-19T11:05:19.0000000+00:00</time></trkpt><trkpt lat="31.08384132" lon="34.83447647"><ele>339.6</ele><time>2013-11-19T11:05:24.0000000+00:00</time></trkpt><trkpt lat="31.08384132" lon="34.83447647"><ele>339.6</ele><time>2013-11-19T11:05:29.0000000+00:00</time></trkpt><trkpt lat="31.08384132" lon="34.83447647"><ele>339.6</ele><time>2013-11-19T11:05:34.0000000+00:00</time></trkpt><trkpt lat="31.08384132" lon="34.83447647"><ele>339.5</ele><time>2013-11-19T11:05:39.0000000+00:00</time></trkpt><trkpt lat="31.08383942" lon="34.83447647"><ele>339.5</ele><time>2013-11-19T11:05:44.0000000+00:00</time></trkpt><trkpt lat="31.08383942" lon="34.83447647"><ele>339.5</ele><time>2013-11-19T11:05:49.0000000+00:00</time></trkpt><trkpt lat="31.08383751" lon="34.83447647"><ele>339.4</ele><time>2013-11-19T11:05:54.0000000+00:00</time></trkpt><trkpt lat="31.08372307" lon="34.83451462"><ele>339.8</ele><time>2013-11-19T11:05:59.0000000+00:00</time></trkpt><trkpt lat="31.08351898" lon="34.83458328"><ele>339.6</ele><time>2013-11-19T11:06:04.0000000+00:00</time></trkpt><trkpt lat="31.08328819" lon="34.83465195"><ele>340.4</ele><time>2013-11-19T11:06:09.0000000+00:00</time></trkpt><trkpt lat="31.08305168" lon="34.83474731"><ele>337.1</ele><time>2013-11-19T11:06:14.0000000+00:00</time></trkpt><trkpt lat="31.0828228" lon="34.83481216"><ele>338.6</ele><time>2013-11-19T11:06:19.0000000+00:00</time></trkpt><trkpt lat="31.08273697" lon="34.83483124"><ele>338.9</ele><time>2013-11-19T11:06:24.0000000+00:00</time></trkpt><trkpt lat="31.08263588" lon="34.83485794"><ele>338.6</ele><time>2013-11-19T11:06:29.0000000+00:00</time></trkpt><trkpt lat="31.08246803" lon="34.83490753"><ele>338.6</ele><time>2013-11-19T11:06:34.0000000+00:00</time></trkpt><trkpt lat="31.08224678" lon="34.83498001"><ele>337.9</ele><time>2013-11-19T11:06:39.0000000+00:00</time></trkpt><trkpt lat="31.08201408" lon="34.83505249"><ele>337.6</ele><time>2013-11-19T11:06:44.0000000+00:00</time></trkpt><trkpt lat="31.0817852" lon="34.83512878"><ele>337.5</ele><time>2013-11-19T11:06:49.0000000+00:00</time></trkpt><trkpt lat="31.08152771" lon="34.83520508"><ele>337.5</ele><time>2013-11-19T11:06:54.0000000+00:00</time></trkpt><trkpt lat="31.08127976" lon="34.83526993"><ele>336.7</ele><time>2013-11-19T11:06:59.0000000+00:00</time></trkpt><trkpt lat="31.08101463" lon="34.83535385"><ele>336.1</ele><time>2013-11-19T11:07:04.0000000+00:00</time></trkpt><trkpt lat="31.08078194" lon="34.83540726"><ele>336.3</ele><time>2013-11-19T11:07:09.0000000+00:00</time></trkpt><trkpt lat="31.08053589" lon="34.83549118"><ele>336.5</ele><time>2013-11-19T11:07:14.0000000+00:00</time></trkpt><trkpt lat="31.08028793" lon="34.83553696"><ele>338.6</ele><time>2013-11-19T11:07:19.0000000+00:00</time></trkpt><trkpt lat="31.08003235" lon="34.83563614"><ele>337.8</ele><time>2013-11-19T11:07:24.0000000+00:00</time></trkpt><trkpt lat="31.07978439" lon="34.83572006"><ele>338.7</ele><time>2013-11-19T11:07:29.0000000+00:00</time></trkpt><trkpt lat="31.07956886" lon="34.83579254"><ele>339.1</ele><time>2013-11-19T11:07:34.0000000+00:00</time></trkpt><trkpt lat="31.07933807" lon="34.83586884"><ele>340.1</ele><time>2013-11-19T11:07:39.0000000+00:00</time></trkpt><trkpt lat="31.07913017" lon="34.83592987"><ele>340.9</ele><time>2013-11-19T11:07:44.0000000+00:00</time></trkpt><trkpt lat="31.07889366" lon="34.83599854"><ele>341.0</ele><time>2013-11-19T11:07:49.0000000+00:00</time></trkpt><trkpt lat="31.07866097" lon="34.83607864"><ele>341.5</ele><time>2013-11-19T11:07:54.0000000+00:00</time></trkpt><trkpt lat="31.07840729" lon="34.83617783"><ele>341.5</ele><time>2013-11-19T11:07:59.0000000+00:00</time></trkpt><trkpt lat="31.07815743" lon="34.83621597"><ele>346.5</ele><time>2013-11-19T11:08:04.0000000+00:00</time></trkpt><trkpt lat="31.07790756" lon="34.8363266"><ele>347.1</ele><time>2013-11-19T11:08:09.0000000+00:00</time></trkpt><trkpt lat="31.07768059" lon="34.83646011"><ele>347.2</ele><time>2013-11-19T11:08:14.0000000+00:00</time></trkpt><trkpt lat="31.07745171" lon="34.83660889"><ele>347.4</ele><time>2013-11-19T11:08:19.0000000+00:00</time></trkpt><trkpt lat="31.07723045" lon="34.8367691"><ele>348.2</ele><time>2013-11-19T11:08:24.0000000+00:00</time></trkpt><trkpt lat="31.07702255" lon="34.83694077"><ele>347.9</ele><time>2013-11-19T11:08:29.0000000+00:00</time></trkpt><trkpt lat="31.076828" lon="34.83712387"><ele>347.5</ele><time>2013-11-19T11:08:34.0000000+00:00</time></trkpt><trkpt lat="31.0766182" lon="34.83732605"><ele>348.0</ele><time>2013-11-19T11:08:39.0000000+00:00</time></trkpt><trkpt lat="31.07644844" lon="34.83750916"><ele>347.7</ele><time>2013-11-19T11:08:44.0000000+00:00</time></trkpt><trkpt lat="31.07627106" lon="34.83770371"><ele>347.2</ele><time>2013-11-19T11:08:49.0000000+00:00</time></trkpt><trkpt lat="31.0761013" lon="34.83789444"><ele>346.7</ele><time>2013-11-19T11:08:54.0000000+00:00</time></trkpt><trkpt lat="31.07593727" lon="34.83807755"><ele>345.7</ele><time>2013-11-19T11:08:59.0000000+00:00</time></trkpt><trkpt lat="31.0757637" lon="34.83826065"><ele>345.4</ele><time>2013-11-19T11:09:04.0000000+00:00</time></trkpt><trkpt lat="31.0755825" lon="34.83842087"><ele>345.0</ele><time>2013-11-19T11:09:09.0000000+00:00</time></trkpt><trkpt lat="31.07539368" lon="34.83856964"><ele>344.2</ele><time>2013-11-19T11:09:14.0000000+00:00</time></trkpt><trkpt lat="31.07522011" lon="34.83869553"><ele>343.1</ele><time>2013-11-19T11:09:19.0000000+00:00</time></trkpt><trkpt lat="31.07499123" lon="34.83880997"><ele>341.5</ele><time>2013-11-19T11:09:24.0000000+00:00</time></trkpt><trkpt lat="31.07478333" lon="34.83893204"><ele>341.1</ele><time>2013-11-19T11:09:29.0000000+00:00</time></trkpt><trkpt lat="31.07460213" lon="34.83905792"><ele>342.6</ele><time>2013-11-19T11:09:34.0000000+00:00</time></trkpt><trkpt lat="31.07436752" lon="34.83917999"><ele>344.4</ele><time>2013-11-19T11:09:39.0000000+00:00</time></trkpt><trkpt lat="31.07415009" lon="34.8392601"><ele>345.1</ele><time>2013-11-19T11:09:44.0000000+00:00</time></trkpt><trkpt lat="31.07391739" lon="34.83934403"><ele>345.0</ele><time>2013-11-19T11:09:49.0000000+00:00</time></trkpt><trkpt lat="31.07368279" lon="34.83940506"><ele>345.0</ele><time>2013-11-19T11:09:54.0000000+00:00</time></trkpt><trkpt lat="31.07343292" lon="34.83944321"><ele>346.5</ele><time>2013-11-19T11:09:59.0000000+00:00</time></trkpt><trkpt lat="31.07320213" lon="34.83946991"><ele>347.5</ele><time>2013-11-19T11:10:04.0000000+00:00</time></trkpt><trkpt lat="31.07294083" lon="34.83950806"><ele>348.5</ele><time>2013-11-19T11:10:09.0000000+00:00</time></trkpt><trkpt lat="31.07269669" lon="34.83951569"><ele>348.2</ele><time>2013-11-19T11:10:14.0000000+00:00</time></trkpt><trkpt lat="31.07243347" lon="34.83950806"><ele>348.8</ele><time>2013-11-19T11:10:19.0000000+00:00</time></trkpt><trkpt lat="31.0721817" lon="34.83948135"><ele>349.4</ele><time>2013-11-19T11:10:24.0000000+00:00</time></trkpt><trkpt lat="31.07192612" lon="34.83943939"><ele>349.8</ele><time>2013-11-19T11:10:29.0000000+00:00</time></trkpt><trkpt lat="31.07169914" lon="34.83940125"><ele>351.0</ele><time>2013-11-19T11:10:34.0000000+00:00</time></trkpt><trkpt lat="31.07146263" lon="34.83934403"><ele>352.4</ele><time>2013-11-19T11:10:39.0000000+00:00</time></trkpt><trkpt lat="31.07121849" lon="34.83927155"><ele>352.7</ele><time>2013-11-19T11:10:44.0000000+00:00</time></trkpt><trkpt lat="31.07097435" lon="34.83920288"><ele>352.7</ele><time>2013-11-19T11:10:49.0000000+00:00</time></trkpt><trkpt lat="31.07073212" lon="34.83914185"><ele>352.8</ele><time>2013-11-19T11:10:54.0000000+00:00</time></trkpt><trkpt lat="31.07053185" lon="34.83908844"><ele>353.0</ele><time>2013-11-19T11:10:59.0000000+00:00</time></trkpt><trkpt lat="31.07037163" lon="34.83905029"><ele>353.1</ele><time>2013-11-19T11:11:04.0000000+00:00</time></trkpt><trkpt lat="31.07021523" lon="34.83900452"><ele>353.2</ele><time>2013-11-19T11:11:09.0000000+00:00</time></trkpt><trkpt lat="31.07007599" lon="34.83897018"><ele>353.5</ele><time>2013-11-19T11:11:14.0000000+00:00</time></trkpt><trkpt lat="31.06992912" lon="34.83893585"><ele>354.0</ele><time>2013-11-19T11:11:19.0000000+00:00</time></trkpt><trkpt lat="31.06976318" lon="34.83888245"><ele>354.2</ele><time>2013-11-19T11:11:24.0000000+00:00</time></trkpt><trkpt lat="31.06960297" lon="34.83884049"><ele>355.8</ele><time>2013-11-19T11:11:29.0000000+00:00</time></trkpt><trkpt lat="31.06943703" lon="34.83879852"><ele>355.3</ele><time>2013-11-19T11:11:34.0000000+00:00</time></trkpt><trkpt lat="31.06931305" lon="34.83876419"><ele>355.6</ele><time>2013-11-19T11:11:39.0000000+00:00</time></trkpt><trkpt lat="31.06919479" lon="34.83873367"><ele>355.8</ele><time>2013-11-19T11:11:44.0000000+00:00</time></trkpt><trkpt lat="31.06905365" lon="34.83869171"><ele>356.2</ele><time>2013-11-19T11:11:49.0000000+00:00</time></trkpt><trkpt lat="31.06890678" lon="34.83865738"><ele>356.8</ele><time>2013-11-19T11:11:54.0000000+00:00</time></trkpt><trkpt lat="31.0687561" lon="34.83860779"><ele>357.6</ele><time>2013-11-19T11:11:59.0000000+00:00</time></trkpt><trkpt lat="31.06857491" lon="34.83855438"><ele>357.6</ele><time>2013-11-19T11:12:04.0000000+00:00</time></trkpt><trkpt lat="31.06837463" lon="34.83849716"><ele>357.3</ele><time>2013-11-19T11:12:09.0000000+00:00</time></trkpt><trkpt lat="31.06820488" lon="34.83846283"><ele>357.9</ele><time>2013-11-19T11:12:14.0000000+00:00</time></trkpt><trkpt lat="31.06807709" lon="34.83843613"><ele>358.0</ele><time>2013-11-19T11:12:19.0000000+00:00</time></trkpt><trkpt lat="31.06796455" lon="34.83842087"><ele>359.7</ele><time>2013-11-19T11:12:24.0000000+00:00</time></trkpt><trkpt lat="31.06780434" lon="34.83839417"><ele>360.0</ele><time>2013-11-19T11:12:29.0000000+00:00</time></trkpt><trkpt lat="31.06760788" lon="34.83837891"><ele>360.1</ele><time>2013-11-19T11:12:34.0000000+00:00</time></trkpt><trkpt lat="31.06742859" lon="34.83836365"><ele>359.3</ele><time>2013-11-19T11:12:39.0000000+00:00</time></trkpt><trkpt lat="31.06729889" lon="34.83835983"><ele>360.2</ele><time>2013-11-19T11:12:44.0000000+00:00</time></trkpt><trkpt lat="31.06718445" lon="34.83835602"><ele>360.1</ele><time>2013-11-19T11:12:49.0000000+00:00</time></trkpt><trkpt lat="31.0670433" lon="34.8383522"><ele>360.1</ele><time>2013-11-19T11:12:54.0000000+00:00</time></trkpt><trkpt lat="31.0669384" lon="34.83835602"><ele>359.9</ele><time>2013-11-19T11:12:59.0000000+00:00</time></trkpt><trkpt lat="31.06682587" lon="34.8383522"><ele>359.8</ele><time>2013-11-19T11:13:04.0000000+00:00</time></trkpt><trkpt lat="31.06678009" lon="34.8383522"><ele>359.1</ele><time>2013-11-19T11:13:09.0000000+00:00</time></trkpt><trkpt lat="31.06678009" lon="34.8383522"><ele>359.4</ele><time>2013-11-19T11:13:14.0000000+00:00</time></trkpt><trkpt lat="31.06678009" lon="34.83835602"><ele>359.4</ele><time>2013-11-19T11:13:19.0000000+00:00</time></trkpt><trkpt lat="31.06677818" lon="34.83835602"><ele>359.5</ele><time>2013-11-19T11:13:24.0000000+00:00</time></trkpt><trkpt lat="31.06677246" lon="34.83836365"><ele>359.4</ele><time>2013-11-19T11:13:29.0000000+00:00</time></trkpt><trkpt lat="31.06676483" lon="34.83837509"><ele>359.4</ele><time>2013-11-19T11:13:34.0000000+00:00</time></trkpt><trkpt lat="31.0667572" lon="34.83837891"><ele>359.4</ele><time>2013-11-19T11:13:39.0000000+00:00</time></trkpt><trkpt lat="31.06675339" lon="34.83839035"><ele>359.5</ele><time>2013-11-19T11:13:44.0000000+00:00</time></trkpt><trkpt lat="31.06674957" lon="34.83839417"><ele>359.5</ele><time>2013-11-19T11:13:49.0000000+00:00</time></trkpt><trkpt lat="31.06674767" lon="34.83839417"><ele>359.4</ele><time>2013-11-19T11:13:54.0000000+00:00</time></trkpt><trkpt lat="31.06674767" lon="34.83839798"><ele>359.5</ele><time>2013-11-19T11:13:59.0000000+00:00</time></trkpt><trkpt lat="31.06674576" lon="34.83839798"><ele>359.5</ele><time>2013-11-19T11:14:04.0000000+00:00</time></trkpt><trkpt lat="31.06674576" lon="34.83839798"><ele>359.5</ele><time>2013-11-19T11:14:09.0000000+00:00</time></trkpt><trkpt lat="31.06674576" lon="34.83839798"><ele>359.5</ele><time>2013-11-19T11:14:14.0000000+00:00</time></trkpt><trkpt lat="31.06674385" lon="34.83839798"><ele>359.5</ele><time>2013-11-19T11:14:19.0000000+00:00</time></trkpt><trkpt lat="31.06674385" lon="34.83839798"><ele>359.5</ele><time>2013-11-19T11:14:24.0000000+00:00</time></trkpt><trkpt lat="31.06674385" lon="34.83840179"><ele>359.4</ele><time>2013-11-19T11:14:29.0000000+00:00</time></trkpt><trkpt lat="31.06674385" lon="34.83840179"><ele>359.4</ele><time>2013-11-19T11:14:34.0000000+00:00</time></trkpt><trkpt lat="31.06674385" lon="34.83840179"><ele>359.4</ele><time>2013-11-19T11:14:39.0000000+00:00</time></trkpt><trkpt lat="31.06674194" lon="34.83840179"><ele>359.4</ele><time>2013-11-19T11:14:44.0000000+00:00</time></trkpt><trkpt lat="31.06674194" lon="34.83840179"><ele>359.3</ele><time>2013-11-19T11:14:49.0000000+00:00</time></trkpt><trkpt lat="31.06674194" lon="34.83840179"><ele>359.3</ele><time>2013-11-19T11:14:54.0000000+00:00</time></trkpt><trkpt lat="31.06674194" lon="34.83840179"><ele>359.3</ele><time>2013-11-19T11:14:59.0000000+00:00</time></trkpt><trkpt lat="31.06674194" lon="34.83840179"><ele>359.3</ele><time>2013-11-19T11:15:04.0000000+00:00</time></trkpt><trkpt lat="31.06674004" lon="34.83840179"><ele>359.3</ele><time>2013-11-19T11:15:09.0000000+00:00</time></trkpt><trkpt lat="31.06674004" lon="34.83840179"><ele>359.3</ele><time>2013-11-19T11:15:14.0000000+00:00</time></trkpt><trkpt lat="31.06674004" lon="34.83840179"><ele>359.3</ele><time>2013-11-19T11:15:19.0000000+00:00</time></trkpt><trkpt lat="31.06674004" lon="34.83840179"><ele>359.3</ele><time>2013-11-19T11:15:24.0000000+00:00</time></trkpt><trkpt lat="31.06674004" lon="34.83840179"><ele>359.3</ele><time>2013-11-19T11:15:29.0000000+00:00</time></trkpt><trkpt lat="31.06674004" lon="34.83840179"><ele>359.3</ele><time>2013-11-19T11:15:34.0000000+00:00</time></trkpt><trkpt lat="31.06674004" lon="34.83840179"><ele>359.2</ele><time>2013-11-19T11:15:39.0000000+00:00</time></trkpt><trkpt lat="31.06674004" lon="34.83840179"><ele>359.2</ele><time>2013-11-19T11:15:44.0000000+00:00</time></trkpt><trkpt lat="31.06673813" lon="34.83840179"><ele>359.2</ele><time>2013-11-19T11:15:49.0000000+00:00</time></trkpt><trkpt lat="31.06674004" lon="34.83840179"><ele>359.3</ele><time>2013-11-19T11:15:54.0000000+00:00</time></trkpt><trkpt lat="31.06673813" lon="34.83840561"><ele>359.3</ele><time>2013-11-19T11:15:59.0000000+00:00</time></trkpt><trkpt lat="31.06673813" lon="34.83840561"><ele>359.3</ele><time>2013-11-19T11:16:04.0000000+00:00</time></trkpt><trkpt lat="31.06673431" lon="34.83840179"><ele>359.2</ele><time>2013-11-19T11:16:09.0000000+00:00</time></trkpt><trkpt lat="31.06667137" lon="34.83840942"><ele>361.1</ele><time>2013-11-19T11:16:14.0000000+00:00</time></trkpt><trkpt lat="31.06653786" lon="34.83839417"><ele>361.1</ele><time>2013-11-19T11:16:19.0000000+00:00</time></trkpt><trkpt lat="31.06634903" lon="34.83840942"><ele>360.7</ele><time>2013-11-19T11:16:24.0000000+00:00</time></trkpt><trkpt lat="31.06614494" lon="34.83842468"><ele>360.8</ele><time>2013-11-19T11:16:29.0000000+00:00</time></trkpt><trkpt lat="31.06595421" lon="34.83841705"><ele>360.6</ele><time>2013-11-19T11:16:34.0000000+00:00</time></trkpt><trkpt lat="31.06576157" lon="34.83844376"><ele>360.1</ele><time>2013-11-19T11:16:39.0000000+00:00</time></trkpt><trkpt lat="31.06555367" lon="34.83847046"><ele>359.9</ele><time>2013-11-19T11:16:44.0000000+00:00</time></trkpt><trkpt lat="31.06533241" lon="34.83848953"><ele>360.2</ele><time>2013-11-19T11:16:49.0000000+00:00</time></trkpt><trkpt lat="31.06513214" lon="34.83850479"><ele>360.6</ele><time>2013-11-19T11:16:54.0000000+00:00</time></trkpt><trkpt lat="31.06491852" lon="34.83852387"><ele>360.6</ele><time>2013-11-19T11:16:59.0000000+00:00</time></trkpt><trkpt lat="31.06468773" lon="34.83852768"><ele>361.3</ele><time>2013-11-19T11:17:04.0000000+00:00</time></trkpt><trkpt lat="31.06446266" lon="34.83850861"><ele>361.8</ele><time>2013-11-19T11:17:09.0000000+00:00</time></trkpt><trkpt lat="31.06422234" lon="34.8384552"><ele>362.2</ele><time>2013-11-19T11:17:14.0000000+00:00</time></trkpt><trkpt lat="31.06400871" lon="34.83840942"><ele>363.1</ele><time>2013-11-19T11:17:19.0000000+00:00</time></trkpt><trkpt lat="31.06376457" lon="34.83834457"><ele>363.3</ele><time>2013-11-19T11:17:24.0000000+00:00</time></trkpt><trkpt lat="31.06353188" lon="34.83826065"><ele>364.3</ele><time>2013-11-19T11:17:29.0000000+00:00</time></trkpt><trkpt lat="31.0633049" lon="34.83816528"><ele>364.7</ele><time>2013-11-19T11:17:34.0000000+00:00</time></trkpt><trkpt lat="31.06316376" lon="34.83808899"><ele>366.2</ele><time>2013-11-19T11:17:39.0000000+00:00</time></trkpt><trkpt lat="31.06302643" lon="34.83800888"><ele>367.1</ele><time>2013-11-19T11:17:44.0000000+00:00</time></trkpt><trkpt lat="31.06297112" lon="34.83787155"><ele>365.7</ele><time>2013-11-19T11:17:49.0000000+00:00</time></trkpt><trkpt lat="31.06293488" lon="34.83781815"><ele>365.6</ele><time>2013-11-19T11:17:54.0000000+00:00</time></trkpt><trkpt lat="31.06292534" lon="34.83778381"><ele>366.1</ele><time>2013-11-19T11:17:59.0000000+00:00</time></trkpt><trkpt lat="31.06291771" lon="34.83773041"><ele>366.1</ele><time>2013-11-19T11:18:04.0000000+00:00</time></trkpt><trkpt lat="31.06292343" lon="34.83770371"><ele>365.4</ele><time>2013-11-19T11:18:09.0000000+00:00</time></trkpt><trkpt lat="31.06292725" lon="34.83766937"><ele>366.1</ele><time>2013-11-19T11:18:14.0000000+00:00</time></trkpt><trkpt lat="31.06286621" lon="34.83758164"><ele>366.0</ele><time>2013-11-19T11:18:19.0000000+00:00</time></trkpt><trkpt lat="31.06272507" lon="34.83749771"><ele>366.1</ele><time>2013-11-19T11:18:24.0000000+00:00</time></trkpt><trkpt lat="31.06256867" lon="34.83740234"><ele>366.6</ele><time>2013-11-19T11:18:29.0000000+00:00</time></trkpt><trkpt lat="31.06238937" lon="34.8373642"><ele>366.6</ele><time>2013-11-19T11:18:34.0000000+00:00</time></trkpt><trkpt lat="31.06222916" lon="34.83731079"><ele>366.5</ele><time>2013-11-19T11:18:39.0000000+00:00</time></trkpt><trkpt lat="31.06210327" lon="34.83718491"><ele>366.8</ele><time>2013-11-19T11:18:44.0000000+00:00</time></trkpt><trkpt lat="31.06196404" lon="34.83706284"><ele>367.9</ele><time>2013-11-19T11:18:49.0000000+00:00</time></trkpt><trkpt lat="31.0618248" lon="34.83693314"><ele>369.1</ele><time>2013-11-19T11:18:54.0000000+00:00</time></trkpt><trkpt lat="31.06167793" lon="34.83679581"><ele>369.7</ele><time>2013-11-19T11:18:59.0000000+00:00</time></trkpt><trkpt lat="31.06157875" lon="34.83670044"><ele>369.7</ele><time>2013-11-19T11:19:04.0000000+00:00</time></trkpt><trkpt lat="31.06151962" lon="34.83664703"><ele>370.0</ele><time>2013-11-19T11:19:09.0000000+00:00</time></trkpt><trkpt lat="31.06145477" lon="34.836586"><ele>371.3</ele><time>2013-11-19T11:19:14.0000000+00:00</time></trkpt><trkpt lat="31.06135368" lon="34.83650971"><ele>372.0</ele><time>2013-11-19T11:19:19.0000000+00:00</time></trkpt><trkpt lat="31.06125641" lon="34.83641434"><ele>373.0</ele><time>2013-11-19T11:19:24.0000000+00:00</time></trkpt><trkpt lat="31.06115532" lon="34.83633423"><ele>373.9</ele><time>2013-11-19T11:19:29.0000000+00:00</time></trkpt><trkpt lat="31.06105423" lon="34.83623123"><ele>375.0</ele><time>2013-11-19T11:19:34.0000000+00:00</time></trkpt><trkpt lat="31.06095505" lon="34.83614349"><ele>376.2</ele><time>2013-11-19T11:19:39.0000000+00:00</time></trkpt><trkpt lat="31.06088066" lon="34.8360672"><ele>377.1</ele><time>2013-11-19T11:19:44.0000000+00:00</time></trkpt><trkpt lat="31.06079292" lon="34.83597565"><ele>377.4</ele><time>2013-11-19T11:19:49.0000000+00:00</time></trkpt><trkpt lat="31.06072426" lon="34.83589554"><ele>378.0</ele><time>2013-11-19T11:19:54.0000000+00:00</time></trkpt><trkpt lat="31.06067658" lon="34.83582687"><ele>378.6</ele><time>2013-11-19T11:19:59.0000000+00:00</time></trkpt><trkpt lat="31.06061745" lon="34.83576202"><ele>379.5</ele><time>2013-11-19T11:20:04.0000000+00:00</time></trkpt><trkpt lat="31.06055069" lon="34.83568573"><ele>380.4</ele><time>2013-11-19T11:20:09.0000000+00:00</time></trkpt><trkpt lat="31.06049156" lon="34.83562088"><ele>381.8</ele><time>2013-11-19T11:20:14.0000000+00:00</time></trkpt><trkpt lat="31.06043053" lon="34.83556366"><ele>382.8</ele><time>2013-11-19T11:20:19.0000000+00:00</time></trkpt><trkpt lat="31.06041527" lon="34.83554077"><ele>383.4</ele><time>2013-11-19T11:20:24.0000000+00:00</time></trkpt><trkpt lat="31.06038284" lon="34.83551025"><ele>384.6</ele><time>2013-11-19T11:20:29.0000000+00:00</time></trkpt><trkpt lat="31.06035423" lon="34.83547592"><ele>385.2</ele><time>2013-11-19T11:20:34.0000000+00:00</time></trkpt><trkpt lat="31.06031609" lon="34.83544159"><ele>386.0</ele><time>2013-11-19T11:20:39.0000000+00:00</time></trkpt><trkpt lat="31.06028938" lon="34.83541107"><ele>386.9</ele><time>2013-11-19T11:20:44.0000000+00:00</time></trkpt><trkpt lat="31.06025505" lon="34.83537674"><ele>387.9</ele><time>2013-11-19T11:20:49.0000000+00:00</time></trkpt><trkpt lat="31.06023026" lon="34.83533478"><ele>388.3</ele><time>2013-11-19T11:20:54.0000000+00:00</time></trkpt><trkpt lat="31.06021309" lon="34.835289"><ele>388.9</ele><time>2013-11-19T11:20:59.0000000+00:00</time></trkpt><trkpt lat="31.06019592" lon="34.83522797"><ele>389.2</ele><time>2013-11-19T11:21:04.0000000+00:00</time></trkpt><trkpt lat="31.06018639" lon="34.8351593"><ele>389.6</ele><time>2013-11-19T11:21:09.0000000+00:00</time></trkpt><trkpt lat="31.06017685" lon="34.83509827"><ele>390.1</ele><time>2013-11-19T11:21:14.0000000+00:00</time></trkpt><trkpt lat="31.06016541" lon="34.83504486"><ele>390.2</ele><time>2013-11-19T11:21:19.0000000+00:00</time></trkpt><trkpt lat="31.06015396" lon="34.83498383"><ele>390.4</ele><time>2013-11-19T11:21:24.0000000+00:00</time></trkpt><trkpt lat="31.06015015" lon="34.83492279"><ele>390.4</ele><time>2013-11-19T11:21:29.0000000+00:00</time></trkpt><trkpt lat="31.0601387" lon="34.83485413"><ele>390.4</ele><time>2013-11-19T11:21:34.0000000+00:00</time></trkpt><trkpt lat="31.06011963" lon="34.83478546"><ele>390.7</ele><time>2013-11-19T11:21:39.0000000+00:00</time></trkpt><trkpt lat="31.06010628" lon="34.83472824"><ele>391.1</ele><time>2013-11-19T11:21:44.0000000+00:00</time></trkpt><trkpt lat="31.06011772" lon="34.83467484"><ele>391.6</ele><time>2013-11-19T11:21:49.0000000+00:00</time></trkpt><trkpt lat="31.06012917" lon="34.83462906"><ele>392.3</ele><time>2013-11-19T11:21:54.0000000+00:00</time></trkpt><trkpt lat="31.06015778" lon="34.83458328"><ele>393.3</ele><time>2013-11-19T11:21:59.0000000+00:00</time></trkpt><trkpt lat="31.06017304" lon="34.83452988"><ele>394.1</ele><time>2013-11-19T11:22:04.0000000+00:00</time></trkpt><trkpt lat="31.06019783" lon="34.83449554"><ele>394.6</ele><time>2013-11-19T11:22:09.0000000+00:00</time></trkpt><trkpt lat="31.06020546" lon="34.83443832"><ele>394.8</ele><time>2013-11-19T11:22:14.0000000+00:00</time></trkpt><trkpt lat="31.06021118" lon="34.83442688"><ele>394.8</ele><time>2013-11-19T11:22:19.0000000+00:00</time></trkpt><trkpt lat="31.060215" lon="34.83442688"><ele>394.9</ele><time>2013-11-19T11:22:24.0000000+00:00</time></trkpt><trkpt lat="31.0602169" lon="34.83442688"><ele>395.0</ele><time>2013-11-19T11:22:29.0000000+00:00</time></trkpt><trkpt lat="31.06021309" lon="34.83442307"><ele>395.1</ele><time>2013-11-19T11:22:34.0000000+00:00</time></trkpt><trkpt lat="31.06023026" lon="34.83438873"><ele>394.8</ele><time>2013-11-19T11:22:39.0000000+00:00</time></trkpt><trkpt lat="31.06025887" lon="34.83428574"><ele>393.2</ele><time>2013-11-19T11:22:44.0000000+00:00</time></trkpt><trkpt lat="31.06027794" lon="34.83423615"><ele>393.0</ele><time>2013-11-19T11:22:49.0000000+00:00</time></trkpt><trkpt lat="31.06033516" lon="34.83404541"><ele>385.1</ele><time>2013-11-19T11:22:54.0000000+00:00</time></trkpt><trkpt lat="31.06043816" lon="34.83359528"><ele>377.2</ele><time>2013-11-19T11:22:59.0000000+00:00</time></trkpt><trkpt lat="31.06047821" lon="34.83315659"><ele>374.3</ele><time>2013-11-19T11:23:04.0000000+00:00</time></trkpt><trkpt lat="31.06044769" lon="34.83283234"><ele>372.4</ele><time>2013-11-19T11:23:09.0000000+00:00</time></trkpt><trkpt lat="31.06030273" lon="34.83270645"><ele>374.0</ele><time>2013-11-19T11:23:14.0000000+00:00</time></trkpt><trkpt lat="31.0602169" lon="34.83264923"><ele>375.5</ele><time>2013-11-19T11:23:19.0000000+00:00</time></trkpt><trkpt lat="31.06012535" lon="34.8325882"><ele>376.6</ele><time>2013-11-19T11:23:24.0000000+00:00</time></trkpt><trkpt lat="31.06005287" lon="34.83253861"><ele>377.1</ele><time>2013-11-19T11:23:29.0000000+00:00</time></trkpt><trkpt lat="31.06004524" lon="34.83254242"><ele>377.8</ele><time>2013-11-19T11:23:34.0000000+00:00</time></trkpt><trkpt lat="31.06004524" lon="34.83254242"><ele>377.8</ele><time>2013-11-19T11:23:39.0000000+00:00</time></trkpt><trkpt lat="31.06004524" lon="34.83254242"><ele>377.7</ele><time>2013-11-19T11:23:44.0000000+00:00</time></trkpt><trkpt lat="31.06004524" lon="34.83254242"><ele>377.7</ele><time>2013-11-19T11:23:49.0000000+00:00</time></trkpt><trkpt lat="31.06004524" lon="34.83254242"><ele>377.7</ele><time>2013-11-19T11:23:54.0000000+00:00</time></trkpt><trkpt lat="31.06004524" lon="34.83254242"><ele>377.7</ele><time>2013-11-19T11:23:59.0000000+00:00</time></trkpt><trkpt lat="31.06004524" lon="34.83254242"><ele>377.7</ele><time>2013-11-19T11:24:04.0000000+00:00</time></trkpt><trkpt lat="31.06004524" lon="34.83254623"><ele>377.7</ele><time>2013-11-19T11:24:09.0000000+00:00</time></trkpt><trkpt lat="31.06004524" lon="34.83254623"><ele>377.7</ele><time>2013-11-19T11:24:14.0000000+00:00</time></trkpt><trkpt lat="31.06004524" lon="34.83254623"><ele>377.7</ele><time>2013-11-19T11:24:19.0000000+00:00</time></trkpt><trkpt lat="31.06004524" lon="34.83254623"><ele>377.7</ele><time>2013-11-19T11:24:24.0000000+00:00</time></trkpt><trkpt lat="31.06004524" lon="34.83254623"><ele>377.7</ele><time>2013-11-19T11:24:29.0000000+00:00</time></trkpt><trkpt lat="31.06004524" lon="34.83254623"><ele>377.7</ele><time>2013-11-19T11:24:34.0000000+00:00</time></trkpt><trkpt lat="31.06004524" lon="34.83254623"><ele>377.7</ele><time>2013-11-19T11:24:39.0000000+00:00</time></trkpt><trkpt lat="31.06004524" lon="34.83254623"><ele>377.7</ele><time>2013-11-19T11:24:44.0000000+00:00</time></trkpt><trkpt lat="31.06004524" lon="34.83254623"><ele>377.8</ele><time>2013-11-19T11:24:49.0000000+00:00</time></trkpt><trkpt lat="31.06004524" lon="34.83254623"><ele>377.8</ele><time>2013-11-19T11:24:54.0000000+00:00</time></trkpt><trkpt lat="31.06004524" lon="34.83254623"><ele>377.8</ele><time>2013-11-19T11:24:59.0000000+00:00</time></trkpt><trkpt lat="31.06004524" lon="34.83254623"><ele>377.8</ele><time>2013-11-19T11:25:04.0000000+00:00</time></trkpt><trkpt lat="31.06004715" lon="34.83254623"><ele>377.8</ele><time>2013-11-19T11:25:09.0000000+00:00</time></trkpt><trkpt lat="31.06004524" lon="34.83254623"><ele>377.8</ele><time>2013-11-19T11:25:14.0000000+00:00</time></trkpt><trkpt lat="31.06004524" lon="34.83254623"><ele>377.8</ele><time>2013-11-19T11:25:19.0000000+00:00</time></trkpt><trkpt lat="31.06004524" lon="34.83254623"><ele>377.8</ele><time>2013-11-19T11:25:24.0000000+00:00</time></trkpt><trkpt lat="31.06004715" lon="34.83254623"><ele>377.8</ele><time>2013-11-19T11:25:29.0000000+00:00</time></trkpt><trkpt lat="31.06004715" lon="34.83254623"><ele>377.8</ele><time>2013-11-19T11:25:34.0000000+00:00</time></trkpt><trkpt lat="31.06004715" lon="34.83254623"><ele>377.8</ele><time>2013-11-19T11:25:39.0000000+00:00</time></trkpt><trkpt lat="31.06004715" lon="34.83254623"><ele>377.8</ele><time>2013-11-19T11:25:44.0000000+00:00</time></trkpt><trkpt lat="31.06004715" lon="34.83254623"><ele>377.8</ele><time>2013-11-19T11:25:49.0000000+00:00</time></trkpt><trkpt lat="31.06004715" lon="34.83254623"><ele>377.8</ele><time>2013-11-19T11:25:54.0000000+00:00</time></trkpt><trkpt lat="31.06004715" lon="34.83254623"><ele>377.8</ele><time>2013-11-19T11:25:59.0000000+00:00</time></trkpt><trkpt lat="31.06004715" lon="34.83254623"><ele>377.8</ele><time>2013-11-19T11:26:04.0000000+00:00</time></trkpt><trkpt lat="31.06004715" lon="34.83254623"><ele>377.8</ele><time>2013-11-19T11:26:09.0000000+00:00</time></trkpt><trkpt lat="31.06004715" lon="34.83254623"><ele>377.8</ele><time>2013-11-19T11:26:14.0000000+00:00</time></trkpt><trkpt lat="31.06004715" lon="34.83254623"><ele>377.8</ele><time>2013-11-19T11:26:19.0000000+00:00</time></trkpt><trkpt lat="31.06004524" lon="34.83254623"><ele>377.8</ele><time>2013-11-19T11:26:24.0000000+00:00</time></trkpt><trkpt lat="31.06004524" lon="34.83254623"><ele>377.8</ele><time>2013-11-19T11:26:29.0000000+00:00</time></trkpt><trkpt lat="31.06004524" lon="34.83254623"><ele>377.8</ele><time>2013-11-19T11:26:34.0000000+00:00</time></trkpt><trkpt lat="31.06004715" lon="34.83255005"><ele>377.8</ele><time>2013-11-19T11:26:39.0000000+00:00</time></trkpt><trkpt lat="31.06004715" lon="34.83255005"><ele>377.8</ele><time>2013-11-19T11:26:44.0000000+00:00</time></trkpt><trkpt lat="31.06004715" lon="34.83255005"><ele>377.8</ele><time>2013-11-19T11:26:49.0000000+00:00</time></trkpt><trkpt lat="31.06004715" lon="34.83255005"><ele>377.8</ele><time>2013-11-19T11:26:54.0000000+00:00</time></trkpt><trkpt lat="31.06004715" lon="34.83255005"><ele>377.7</ele><time>2013-11-19T11:26:59.0000000+00:00</time></trkpt><trkpt lat="31.06004715" lon="34.83255005"><ele>377.8</ele><time>2013-11-19T11:27:04.0000000+00:00</time></trkpt><trkpt lat="31.06004715" lon="34.83255005"><ele>377.8</ele><time>2013-11-19T11:27:09.0000000+00:00</time></trkpt><trkpt lat="31.06004715" lon="34.83255005"><ele>377.8</ele><time>2013-11-19T11:27:14.0000000+00:00</time></trkpt><trkpt lat="31.06004715" lon="34.83255005"><ele>377.8</ele><time>2013-11-19T11:27:19.0000000+00:00</time></trkpt><trkpt lat="31.06004715" lon="34.83255005"><ele>377.8</ele><time>2013-11-19T11:27:24.0000000+00:00</time></trkpt><trkpt lat="31.06004715" lon="34.83255005"><ele>377.8</ele><time>2013-11-19T11:27:29.0000000+00:00</time></trkpt><trkpt lat="31.06004715" lon="34.83255005"><ele>377.7</ele><time>2013-11-19T11:27:34.0000000+00:00</time></trkpt><trkpt lat="31.06004715" lon="34.83255005"><ele>377.7</ele><time>2013-11-19T11:27:39.0000000+00:00</time></trkpt><trkpt lat="31.06004715" lon="34.83255005"><ele>377.7</ele><time>2013-11-19T11:27:44.0000000+00:00</time></trkpt><trkpt lat="31.06004715" lon="34.83255005"><ele>377.7</ele><time>2013-11-19T11:27:49.0000000+00:00</time></trkpt><trkpt lat="31.06004715" lon="34.83255005"><ele>377.7</ele><time>2013-11-19T11:27:54.0000000+00:00</time></trkpt><trkpt lat="31.06004715" lon="34.83255005"><ele>377.7</ele><time>2013-11-19T11:27:59.0000000+00:00</time></trkpt><trkpt lat="31.06004715" lon="34.83255005"><ele>377.7</ele><time>2013-11-19T11:28:04.0000000+00:00</time></trkpt><trkpt lat="31.06004715" lon="34.83255005"><ele>377.7</ele><time>2013-11-19T11:28:09.0000000+00:00</time></trkpt><trkpt lat="31.06004715" lon="34.83255005"><ele>377.6</ele><time>2013-11-19T11:28:14.0000000+00:00</time></trkpt><trkpt lat="31.06004715" lon="34.83255005"><ele>377.6</ele><time>2013-11-19T11:28:19.0000000+00:00</time></trkpt><trkpt lat="31.06004715" lon="34.83255005"><ele>377.6</ele><time>2013-11-19T11:28:24.0000000+00:00</time></trkpt><trkpt lat="31.06004715" lon="34.83255005"><ele>377.6</ele><time>2013-11-19T11:28:29.0000000+00:00</time></trkpt><trkpt lat="31.06004524" lon="34.83255005"><ele>377.6</ele><time>2013-11-19T11:28:34.0000000+00:00</time></trkpt><trkpt lat="31.06004524" lon="34.83255005"><ele>377.6</ele><time>2013-11-19T11:28:39.0000000+00:00</time></trkpt><trkpt lat="31.06004334" lon="34.83255005"><ele>377.5</ele><time>2013-11-19T11:28:44.0000000+00:00</time></trkpt><trkpt lat="31.06004334" lon="34.83255005"><ele>377.5</ele><time>2013-11-19T11:28:49.0000000+00:00</time></trkpt><trkpt lat="31.06004334" lon="34.83255005"><ele>377.5</ele><time>2013-11-19T11:28:54.0000000+00:00</time></trkpt><trkpt lat="31.06004334" lon="34.83255005"><ele>377.5</ele><time>2013-11-19T11:28:59.0000000+00:00</time></trkpt><trkpt lat="31.06004334" lon="34.83255005"><ele>377.4</ele><time>2013-11-19T11:29:04.0000000+00:00</time></trkpt><trkpt lat="31.06004334" lon="34.83255005"><ele>377.4</ele><time>2013-11-19T11:29:09.0000000+00:00</time></trkpt><trkpt lat="31.06004334" lon="34.83255005"><ele>377.4</ele><time>2013-11-19T11:29:14.0000000+00:00</time></trkpt><trkpt lat="31.06004143" lon="34.83255005"><ele>377.4</ele><time>2013-11-19T11:29:19.0000000+00:00</time></trkpt><trkpt lat="31.060112" lon="34.83253098"><ele>376.8</ele><time>2013-11-19T11:29:24.0000000+00:00</time></trkpt><trkpt lat="31.06028557" lon="34.83255386"><ele>376.1</ele><time>2013-11-19T11:29:29.0000000+00:00</time></trkpt><trkpt lat="31.06046867" lon="34.83256149"><ele>375.5</ele><time>2013-11-19T11:29:34.0000000+00:00</time></trkpt><trkpt lat="31.06064224" lon="34.8325882"><ele>375.4</ele><time>2013-11-19T11:29:39.0000000+00:00</time></trkpt><trkpt lat="31.06078529" lon="34.83266449"><ele>375.5</ele><time>2013-11-19T11:29:44.0000000+00:00</time></trkpt><trkpt lat="31.06092072" lon="34.83279038"><ele>375.7</ele><time>2013-11-19T11:29:49.0000000+00:00</time></trkpt><trkpt lat="31.06104851" lon="34.83290863"><ele>375.9</ele><time>2013-11-19T11:29:54.0000000+00:00</time></trkpt><trkpt lat="31.06115723" lon="34.83301926"><ele>376.1</ele><time>2013-11-19T11:29:59.0000000+00:00</time></trkpt><trkpt lat="31.061203" lon="34.83305359"><ele>376.5</ele><time>2013-11-19T11:30:04.0000000+00:00</time></trkpt><trkpt lat="31.0612011" lon="34.83304977"><ele>376.7</ele><time>2013-11-19T11:30:09.0000000+00:00</time></trkpt><trkpt lat="31.0612011" lon="34.83304977"><ele>376.6</ele><time>2013-11-19T11:30:14.0000000+00:00</time></trkpt><trkpt lat="31.0612011" lon="34.83304977"><ele>376.6</ele><time>2013-11-19T11:30:19.0000000+00:00</time></trkpt><trkpt lat="31.0612011" lon="34.83304977"><ele>376.5</ele><time>2013-11-19T11:30:24.0000000+00:00</time></trkpt><trkpt lat="31.0612011" lon="34.83304977"><ele>376.5</ele><time>2013-11-19T11:30:29.0000000+00:00</time></trkpt><trkpt lat="31.0612011" lon="34.83304977"><ele>376.4</ele><time>2013-11-19T11:30:34.0000000+00:00</time></trkpt><trkpt lat="31.0612011" lon="34.83304977"><ele>376.4</ele><time>2013-11-19T11:30:39.0000000+00:00</time></trkpt><trkpt lat="31.0612011" lon="34.83304977"><ele>376.4</ele><time>2013-11-19T11:30:44.0000000+00:00</time></trkpt><trkpt lat="31.0612011" lon="34.83304977"><ele>376.4</ele><time>2013-11-19T11:30:49.0000000+00:00</time></trkpt><trkpt lat="31.0612011" lon="34.83304977"><ele>376.4</ele><time>2013-11-19T11:30:54.0000000+00:00</time></trkpt><trkpt lat="31.0612011" lon="34.83304977"><ele>376.4</ele><time>2013-11-19T11:30:59.0000000+00:00</time></trkpt><trkpt lat="31.0612011" lon="34.83304977"><ele>376.4</ele><time>2013-11-19T11:31:04.0000000+00:00</time></trkpt><trkpt lat="31.0612011" lon="34.83304977"><ele>376.4</ele><time>2013-11-19T11:31:09.0000000+00:00</time></trkpt><trkpt lat="31.06119919" lon="34.83304977"><ele>376.4</ele><time>2013-11-19T11:31:14.0000000+00:00</time></trkpt><trkpt lat="31.06119919" lon="34.83304977"><ele>376.4</ele><time>2013-11-19T11:31:19.0000000+00:00</time></trkpt><trkpt lat="31.06119919" lon="34.83304977"><ele>376.3</ele><time>2013-11-19T11:31:24.0000000+00:00</time></trkpt><trkpt lat="31.06119919" lon="34.83304977"><ele>376.3</ele><time>2013-11-19T11:31:29.0000000+00:00</time></trkpt><trkpt lat="31.06119919" lon="34.83304977"><ele>376.3</ele><time>2013-11-19T11:31:34.0000000+00:00</time></trkpt><trkpt lat="31.06119919" lon="34.83304977"><ele>376.3</ele><time>2013-11-19T11:31:39.0000000+00:00</time></trkpt><trkpt lat="31.06119919" lon="34.83304977"><ele>376.3</ele><time>2013-11-19T11:31:44.0000000+00:00</time></trkpt><trkpt lat="31.06119919" lon="34.83304977"><ele>376.3</ele><time>2013-11-19T11:31:49.0000000+00:00</time></trkpt><trkpt lat="31.06119919" lon="34.83304977"><ele>376.3</ele><time>2013-11-19T11:31:54.0000000+00:00</time></trkpt><trkpt lat="31.06119919" lon="34.83304977"><ele>376.3</ele><time>2013-11-19T11:31:59.0000000+00:00</time></trkpt><trkpt lat="31.06119919" lon="34.83304977"><ele>376.3</ele><time>2013-11-19T11:32:04.0000000+00:00</time></trkpt><trkpt lat="31.06119919" lon="34.83304977"><ele>376.3</ele><time>2013-11-19T11:32:09.0000000+00:00</time></trkpt><trkpt lat="31.06119919" lon="34.83304977"><ele>376.3</ele><time>2013-11-19T11:32:14.0000000+00:00</time></trkpt><trkpt lat="31.06119919" lon="34.83304977"><ele>376.3</ele><time>2013-11-19T11:32:19.0000000+00:00</time></trkpt><trkpt lat="31.06119919" lon="34.83304977"><ele>376.3</ele><time>2013-11-19T11:32:24.0000000+00:00</time></trkpt><trkpt lat="31.06119919" lon="34.83304977"><ele>376.3</ele><time>2013-11-19T11:32:29.0000000+00:00</time></trkpt><trkpt lat="31.06119919" lon="34.83304596"><ele>376.3</ele><time>2013-11-19T11:32:34.0000000+00:00</time></trkpt><trkpt lat="31.06119919" lon="34.83304596"><ele>376.3</ele><time>2013-11-19T11:32:39.0000000+00:00</time></trkpt><trkpt lat="31.06119728" lon="34.83304596"><ele>376.3</ele><time>2013-11-19T11:32:44.0000000+00:00</time></trkpt><trkpt lat="31.06119728" lon="34.83304596"><ele>376.3</ele><time>2013-11-19T11:32:49.0000000+00:00</time></trkpt><trkpt lat="31.06119728" lon="34.83304596"><ele>376.3</ele><time>2013-11-19T11:32:54.0000000+00:00</time></trkpt><trkpt lat="31.06119728" lon="34.83304596"><ele>376.3</ele><time>2013-11-19T11:32:59.0000000+00:00</time></trkpt><trkpt lat="31.06119728" lon="34.83304596"><ele>376.3</ele><time>2013-11-19T11:33:04.0000000+00:00</time></trkpt><trkpt lat="31.06119728" lon="34.83304596"><ele>376.3</ele><time>2013-11-19T11:33:09.0000000+00:00</time></trkpt><trkpt lat="31.06119728" lon="34.83304596"><ele>376.3</ele><time>2013-11-19T11:33:14.0000000+00:00</time></trkpt><trkpt lat="31.06119728" lon="34.83304596"><ele>376.3</ele><time>2013-11-19T11:33:19.0000000+00:00</time></trkpt><trkpt lat="31.06119728" lon="34.83304596"><ele>376.3</ele><time>2013-11-19T11:33:24.0000000+00:00</time></trkpt><trkpt lat="31.06119728" lon="34.83304596"><ele>376.3</ele><time>2013-11-19T11:33:29.0000000+00:00</time></trkpt><trkpt lat="31.06119728" lon="34.83304596"><ele>376.3</ele><time>2013-11-19T11:33:34.0000000+00:00</time></trkpt><trkpt lat="31.06119728" lon="34.83304596"><ele>376.3</ele><time>2013-11-19T11:33:39.0000000+00:00</time></trkpt><trkpt lat="31.06119728" lon="34.83304596"><ele>376.3</ele><time>2013-11-19T11:33:44.0000000+00:00</time></trkpt><trkpt lat="31.06119728" lon="34.83304596"><ele>376.3</ele><time>2013-11-19T11:33:49.0000000+00:00</time></trkpt><trkpt lat="31.06119728" lon="34.83304596"><ele>376.3</ele><time>2013-11-19T11:33:54.0000000+00:00</time></trkpt><trkpt lat="31.06119728" lon="34.83304596"><ele>376.3</ele><time>2013-11-19T11:33:59.0000000+00:00</time></trkpt><trkpt lat="31.06119728" lon="34.83304596"><ele>376.3</ele><time>2013-11-19T11:34:04.0000000+00:00</time></trkpt><trkpt lat="31.06119728" lon="34.83304596"><ele>376.3</ele><time>2013-11-19T11:34:09.0000000+00:00</time></trkpt><trkpt lat="31.06119728" lon="34.83304596"><ele>376.4</ele><time>2013-11-19T11:34:14.0000000+00:00</time></trkpt><trkpt lat="31.06119728" lon="34.83304215"><ele>376.4</ele><time>2013-11-19T11:34:19.0000000+00:00</time></trkpt><trkpt lat="31.06119728" lon="34.83304215"><ele>376.4</ele><time>2013-11-19T11:34:24.0000000+00:00</time></trkpt><trkpt lat="31.06119728" lon="34.83304215"><ele>376.4</ele><time>2013-11-19T11:34:29.0000000+00:00</time></trkpt><trkpt lat="31.06119728" lon="34.83304215"><ele>376.5</ele><time>2013-11-19T11:34:34.0000000+00:00</time></trkpt><trkpt lat="31.06119728" lon="34.83304215"><ele>376.5</ele><time>2013-11-19T11:34:39.0000000+00:00</time></trkpt><trkpt lat="31.06119728" lon="34.83304215"><ele>376.5</ele><time>2013-11-19T11:34:44.0000000+00:00</time></trkpt><trkpt lat="31.06119728" lon="34.83304215"><ele>376.6</ele><time>2013-11-19T11:34:49.0000000+00:00</time></trkpt><trkpt lat="31.06119728" lon="34.83304215"><ele>376.6</ele><time>2013-11-19T11:34:54.0000000+00:00</time></trkpt><trkpt lat="31.06119728" lon="34.83304215"><ele>376.6</ele><time>2013-11-19T11:34:59.0000000+00:00</time></trkpt><trkpt lat="31.06119728" lon="34.83304215"><ele>376.6</ele><time>2013-11-19T11:35:04.0000000+00:00</time></trkpt><trkpt lat="31.06119728" lon="34.83304215"><ele>376.6</ele><time>2013-11-19T11:35:09.0000000+00:00</time></trkpt><trkpt lat="31.06119728" lon="34.83304215"><ele>376.7</ele><time>2013-11-19T11:35:14.0000000+00:00</time></trkpt><trkpt lat="31.06119919" lon="34.83304215"><ele>376.7</ele><time>2013-11-19T11:35:19.0000000+00:00</time></trkpt><trkpt lat="31.06119919" lon="34.83304215"><ele>376.7</ele><time>2013-11-19T11:35:24.0000000+00:00</time></trkpt><trkpt lat="31.06119919" lon="34.83304215"><ele>376.7</ele><time>2013-11-19T11:35:29.0000000+00:00</time></trkpt><trkpt lat="31.06119919" lon="34.83304215"><ele>376.7</ele><time>2013-11-19T11:35:34.0000000+00:00</time></trkpt><trkpt lat="31.06119919" lon="34.83304215"><ele>376.7</ele><time>2013-11-19T11:35:39.0000000+00:00</time></trkpt><trkpt lat="31.06119919" lon="34.83304215"><ele>376.8</ele><time>2013-11-19T11:35:44.0000000+00:00</time></trkpt><trkpt lat="31.0612011" lon="34.83304215"><ele>376.8</ele><time>2013-11-19T11:35:49.0000000+00:00</time></trkpt><trkpt lat="31.0612011" lon="34.83304215"><ele>376.8</ele><time>2013-11-19T11:35:54.0000000+00:00</time></trkpt><trkpt lat="31.0612011" lon="34.83304215"><ele>376.8</ele><time>2013-11-19T11:35:59.0000000+00:00</time></trkpt><trkpt lat="31.0612011" lon="34.83304215"><ele>376.9</ele><time>2013-11-19T11:36:04.0000000+00:00</time></trkpt><trkpt lat="31.0612011" lon="34.83304215"><ele>376.9</ele><time>2013-11-19T11:36:09.0000000+00:00</time></trkpt><trkpt lat="31.0612011" lon="34.83304215"><ele>376.9</ele><time>2013-11-19T11:36:14.0000000+00:00</time></trkpt><trkpt lat="31.061203" lon="34.83304215"><ele>376.9</ele><time>2013-11-19T11:36:19.0000000+00:00</time></trkpt><trkpt lat="31.061203" lon="34.83304215"><ele>377.0</ele><time>2013-11-19T11:36:24.0000000+00:00</time></trkpt><trkpt lat="31.061203" lon="34.83304215"><ele>377.0</ele><time>2013-11-19T11:36:29.0000000+00:00</time></trkpt><trkpt lat="31.061203" lon="34.83304215"><ele>377.0</ele><time>2013-11-19T11:36:34.0000000+00:00</time></trkpt><trkpt lat="31.061203" lon="34.83304215"><ele>377.1</ele><time>2013-11-19T11:36:39.0000000+00:00</time></trkpt><trkpt lat="31.061203" lon="34.83303833"><ele>377.2</ele><time>2013-11-19T11:36:44.0000000+00:00</time></trkpt><trkpt lat="31.06119347" lon="34.83302689"><ele>377.4</ele><time>2013-11-19T11:36:49.0000000+00:00</time></trkpt><trkpt lat="31.06112289" lon="34.83295441"><ele>378.0</ele><time>2013-11-19T11:36:54.0000000+00:00</time></trkpt><trkpt lat="31.0610199" lon="34.83285523"><ele>378.2</ele><time>2013-11-19T11:36:59.0000000+00:00</time></trkpt><trkpt lat="31.06089973" lon="34.83274841"><ele>379.1</ele><time>2013-11-19T11:37:04.0000000+00:00</time></trkpt><trkpt lat="31.06077576" lon="34.83261871"><ele>379.3</ele><time>2013-11-19T11:37:09.0000000+00:00</time></trkpt><trkpt lat="31.06061363" lon="34.83253098"><ele>378.8</ele><time>2013-11-19T11:37:14.0000000+00:00</time></trkpt><trkpt lat="31.06049156" lon="34.83250427"><ele>379.6</ele><time>2013-11-19T11:37:19.0000000+00:00</time></trkpt><trkpt lat="31.06040001" lon="34.83250046"><ele>381.1</ele><time>2013-11-19T11:37:24.0000000+00:00</time></trkpt><trkpt lat="31.06026268" lon="34.83250809"><ele>381.6</ele><time>2013-11-19T11:37:29.0000000+00:00</time></trkpt><trkpt lat="31.06016159" lon="34.83252716"><ele>382.8</ele><time>2013-11-19T11:37:34.0000000+00:00</time></trkpt><trkpt lat="31.0600605" lon="34.83250046"><ele>383.2</ele><time>2013-11-19T11:37:39.0000000+00:00</time></trkpt><trkpt lat="31.05994034" lon="34.83240509"><ele>383.6</ele><time>2013-11-19T11:37:44.0000000+00:00</time></trkpt><trkpt lat="31.05980873" lon="34.83229446"><ele>384.3</ele><time>2013-11-19T11:37:49.0000000+00:00</time></trkpt><trkpt lat="31.05965996" lon="34.83215714"><ele>384.7</ele><time>2013-11-19T11:37:54.0000000+00:00</time></trkpt><trkpt lat="31.05952454" lon="34.83204269"><ele>385.3</ele><time>2013-11-19T11:37:59.0000000+00:00</time></trkpt><trkpt lat="31.05939102" lon="34.83195114"><ele>385.4</ele><time>2013-11-19T11:38:04.0000000+00:00</time></trkpt><trkpt lat="31.0592556" lon="34.83187866"><ele>385.6</ele><time>2013-11-19T11:38:09.0000000+00:00</time></trkpt><trkpt lat="31.05911446" lon="34.83184052"><ele>386.1</ele><time>2013-11-19T11:38:14.0000000+00:00</time></trkpt><trkpt lat="31.05898094" lon="34.83182144"><ele>386.8</ele><time>2013-11-19T11:38:19.0000000+00:00</time></trkpt><trkpt lat="31.05883026" lon="34.83181763"><ele>387.2</ele><time>2013-11-19T11:38:24.0000000+00:00</time></trkpt><trkpt lat="31.05867386" lon="34.83179855"><ele>387.9</ele><time>2013-11-19T11:38:29.0000000+00:00</time></trkpt><trkpt lat="31.05850792" lon="34.8317833"><ele>388.7</ele><time>2013-11-19T11:38:34.0000000+00:00</time></trkpt><trkpt lat="31.05836487" lon="34.8317833"><ele>389.1</ele><time>2013-11-19T11:38:39.0000000+00:00</time></trkpt><trkpt lat="31.05820274" lon="34.83179474"><ele>389.7</ele><time>2013-11-19T11:38:44.0000000+00:00</time></trkpt><trkpt lat="31.05805016" lon="34.83182144"><ele>390.4</ele><time>2013-11-19T11:38:49.0000000+00:00</time></trkpt><trkpt lat="31.05787277" lon="34.83186722"><ele>391.5</ele><time>2013-11-19T11:38:54.0000000+00:00</time></trkpt><trkpt lat="31.05771637" lon="34.83190537"><ele>392.6</ele><time>2013-11-19T11:38:59.0000000+00:00</time></trkpt><trkpt lat="31.05757141" lon="34.8319397"><ele>393.4</ele><time>2013-11-19T11:39:04.0000000+00:00</time></trkpt><trkpt lat="31.05741119" lon="34.83196259"><ele>393.9</ele><time>2013-11-19T11:39:09.0000000+00:00</time></trkpt><trkpt lat="31.0572567" lon="34.83197784"><ele>394.5</ele><time>2013-11-19T11:39:14.0000000+00:00</time></trkpt><trkpt lat="31.05710411" lon="34.8319664"><ele>395.2</ele><time>2013-11-19T11:39:19.0000000+00:00</time></trkpt><trkpt lat="31.05694962" lon="34.83194351"><ele>396.3</ele><time>2013-11-19T11:39:24.0000000+00:00</time></trkpt><trkpt lat="31.05678177" lon="34.83187866"><ele>396.8</ele><time>2013-11-19T11:39:29.0000000+00:00</time></trkpt><trkpt lat="31.05660439" lon="34.83180237"><ele>397.3</ele><time>2013-11-19T11:39:34.0000000+00:00</time></trkpt><trkpt lat="31.05644226" lon="34.83174515"><ele>397.5</ele><time>2013-11-19T11:39:39.0000000+00:00</time></trkpt><trkpt lat="31.05625725" lon="34.83167267"><ele>397.6</ele><time>2013-11-19T11:39:44.0000000+00:00</time></trkpt><trkpt lat="31.05609703" lon="34.83161163"><ele>397.9</ele><time>2013-11-19T11:39:49.0000000+00:00</time></trkpt><trkpt lat="31.05592537" lon="34.83153153"><ele>397.9</ele><time>2013-11-19T11:39:54.0000000+00:00</time></trkpt><trkpt lat="31.05578041" lon="34.83143234"><ele>397.8</ele><time>2013-11-19T11:39:59.0000000+00:00</time></trkpt><trkpt lat="31.0557003" lon="34.83137512"><ele>397.5</ele><time>2013-11-19T11:40:04.0000000+00:00</time></trkpt><trkpt lat="31.05561638" lon="34.83129883"><ele>397.4</ele><time>2013-11-19T11:40:09.0000000+00:00</time></trkpt><trkpt lat="31.05555344" lon="34.83124161"><ele>397.3</ele><time>2013-11-19T11:40:14.0000000+00:00</time></trkpt><trkpt lat="31.05544472" lon="34.83115768"><ele>397.5</ele><time>2013-11-19T11:40:19.0000000+00:00</time></trkpt><trkpt lat="31.05536079" lon="34.83107376"><ele>397.3</ele><time>2013-11-19T11:40:24.0000000+00:00</time></trkpt><trkpt lat="31.0552845" lon="34.83100128"><ele>397.3</ele><time>2013-11-19T11:40:29.0000000+00:00</time></trkpt><trkpt lat="31.05517006" lon="34.83090591"><ele>397.7</ele><time>2013-11-19T11:40:34.0000000+00:00</time></trkpt><trkpt lat="31.05506897" lon="34.83081818"><ele>398.1</ele><time>2013-11-19T11:40:39.0000000+00:00</time></trkpt><trkpt lat="31.05493164" lon="34.83070755"><ele>398.9</ele><time>2013-11-19T11:40:44.0000000+00:00</time></trkpt><trkpt lat="31.05483437" lon="34.83058929"><ele>399.3</ele><time>2013-11-19T11:40:49.0000000+00:00</time></trkpt><trkpt lat="31.05474472" lon="34.83049011"><ele>399.7</ele><time>2013-11-19T11:40:54.0000000+00:00</time></trkpt><trkpt lat="31.05465698" lon="34.83039475"><ele>400.0</ele><time>2013-11-19T11:40:59.0000000+00:00</time></trkpt><trkpt lat="31.05453491" lon="34.83026886"><ele>400.5</ele><time>2013-11-19T11:41:04.0000000+00:00</time></trkpt><trkpt lat="31.05441856" lon="34.83008575"><ele>400.9</ele><time>2013-11-19T11:41:09.0000000+00:00</time></trkpt><trkpt lat="31.05434609" lon="34.82991409"><ele>401.0</ele><time>2013-11-19T11:41:14.0000000+00:00</time></trkpt><trkpt lat="31.05425644" lon="34.82978821"><ele>401.2</ele><time>2013-11-19T11:41:19.0000000+00:00</time></trkpt><trkpt lat="31.05418778" lon="34.82958984"><ele>401.3</ele><time>2013-11-19T11:41:24.0000000+00:00</time></trkpt><trkpt lat="31.0540905" lon="34.82938767"><ele>401.1</ele><time>2013-11-19T11:41:29.0000000+00:00</time></trkpt><trkpt lat="31.05397987" lon="34.82917786"><ele>401.0</ele><time>2013-11-19T11:41:34.0000000+00:00</time></trkpt><trkpt lat="31.05384255" lon="34.82898712"><ele>400.8</ele><time>2013-11-19T11:41:39.0000000+00:00</time></trkpt><trkpt lat="31.05369759" lon="34.8288002"><ele>400.7</ele><time>2013-11-19T11:41:44.0000000+00:00</time></trkpt><trkpt lat="31.05354691" lon="34.82861328"><ele>401.9</ele><time>2013-11-19T11:41:49.0000000+00:00</time></trkpt><trkpt lat="31.05340195" lon="34.8284111"><ele>402.4</ele><time>2013-11-19T11:41:54.0000000+00:00</time></trkpt><trkpt lat="31.05325508" lon="34.82817841"><ele>401.3</ele><time>2013-11-19T11:41:59.0000000+00:00</time></trkpt><trkpt lat="31.05311585" lon="34.82788467"><ele>400.6</ele><time>2013-11-19T11:42:04.0000000+00:00</time></trkpt><trkpt lat="31.05296707" lon="34.82756043"><ele>399.5</ele><time>2013-11-19T11:42:09.0000000+00:00</time></trkpt><trkpt lat="31.05282402" lon="34.82723618"><ele>399.2</ele><time>2013-11-19T11:42:14.0000000+00:00</time></trkpt><trkpt lat="31.05268478" lon="34.82691574"><ele>398.9</ele><time>2013-11-19T11:42:19.0000000+00:00</time></trkpt><trkpt lat="31.05251694" lon="34.82662201"><ele>398.3</ele><time>2013-11-19T11:42:24.0000000+00:00</time></trkpt><trkpt lat="31.05234909" lon="34.82633591"><ele>397.8</ele><time>2013-11-19T11:42:29.0000000+00:00</time></trkpt><trkpt lat="31.0521965" lon="34.82608414"><ele>397.5</ele><time>2013-11-19T11:42:34.0000000+00:00</time></trkpt><trkpt lat="31.0520668" lon="34.82579804"><ele>397.5</ele><time>2013-11-19T11:42:39.0000000+00:00</time></trkpt><trkpt lat="31.05195618" lon="34.82552719"><ele>397.9</ele><time>2013-11-19T11:42:44.0000000+00:00</time></trkpt><trkpt lat="31.05186462" lon="34.82529831"><ele>398.4</ele><time>2013-11-19T11:42:49.0000000+00:00</time></trkpt><trkpt lat="31.05172348" lon="34.82511902"><ele>398.0</ele><time>2013-11-19T11:42:54.0000000+00:00</time></trkpt><trkpt lat="31.05155563" lon="34.8249321"><ele>398.5</ele><time>2013-11-19T11:42:59.0000000+00:00</time></trkpt><trkpt lat="31.05134201" lon="34.8248024"><ele>398.2</ele><time>2013-11-19T11:43:04.0000000+00:00</time></trkpt><trkpt lat="31.05112839" lon="34.82463837"><ele>398.0</ele><time>2013-11-19T11:43:09.0000000+00:00</time></trkpt><trkpt lat="31.0508976" lon="34.82448959"><ele>397.5</ele><time>2013-11-19T11:43:14.0000000+00:00</time></trkpt><trkpt lat="31.0506897" lon="34.82434845"><ele>397.2</ele><time>2013-11-19T11:43:19.0000000+00:00</time></trkpt><trkpt lat="31.0505333" lon="34.82411957"><ele>397.2</ele><time>2013-11-19T11:43:24.0000000+00:00</time></trkpt><trkpt lat="31.05041122" lon="34.82385635"><ele>397.3</ele><time>2013-11-19T11:43:29.0000000+00:00</time></trkpt><trkpt lat="31.05025864" lon="34.82359314"><ele>397.1</ele><time>2013-11-19T11:43:34.0000000+00:00</time></trkpt><trkpt lat="31.05003357" lon="34.82337189"><ele>396.8</ele><time>2013-11-19T11:43:39.0000000+00:00</time></trkpt><trkpt lat="31.04980469" lon="34.82310486"><ele>395.3</ele><time>2013-11-19T11:43:44.0000000+00:00</time></trkpt><trkpt lat="31.04956818" lon="34.82278442"><ele>394.4</ele><time>2013-11-19T11:43:49.0000000+00:00</time></trkpt><trkpt lat="31.04935074" lon="34.82244492"><ele>393.9</ele><time>2013-11-19T11:43:54.0000000+00:00</time></trkpt><trkpt lat="31.04912186" lon="34.82215118"><ele>393.4</ele><time>2013-11-19T11:43:59.0000000+00:00</time></trkpt><trkpt lat="31.04884338" lon="34.82188416"><ele>391.8</ele><time>2013-11-19T11:44:04.0000000+00:00</time></trkpt><trkpt lat="31.04857063" lon="34.82161331"><ele>391.7</ele><time>2013-11-19T11:44:09.0000000+00:00</time></trkpt><trkpt lat="31.0483551" lon="34.82133865"><ele>391.8</ele><time>2013-11-19T11:44:14.0000000+00:00</time></trkpt><trkpt lat="31.0481739" lon="34.82109451"><ele>392.4</ele><time>2013-11-19T11:44:19.0000000+00:00</time></trkpt><trkpt lat="31.04801941" lon="34.82086563"><ele>393.1</ele><time>2013-11-19T11:44:24.0000000+00:00</time></trkpt><trkpt lat="31.04785156" lon="34.82062531"><ele>392.9</ele><time>2013-11-19T11:44:29.0000000+00:00</time></trkpt><trkpt lat="31.04768753" lon="34.8203125"><ele>391.4</ele><time>2013-11-19T11:44:34.0000000+00:00</time></trkpt><trkpt lat="31.04748344" lon="34.81993103"><ele>389.1</ele><time>2013-11-19T11:44:39.0000000+00:00</time></trkpt><trkpt lat="31.04727745" lon="34.81950378"><ele>388.3</ele><time>2013-11-19T11:44:44.0000000+00:00</time></trkpt><trkpt lat="31.04711151" lon="34.81905747"><ele>387.9</ele><time>2013-11-19T11:44:49.0000000+00:00</time></trkpt><trkpt lat="31.04693985" lon="34.81865692"><ele>387.0</ele><time>2013-11-19T11:44:54.0000000+00:00</time></trkpt><trkpt lat="31.04667473" lon="34.81827927"><ele>385.7</ele><time>2013-11-19T11:44:59.0000000+00:00</time></trkpt><trkpt lat="31.0464077" lon="34.81790543"><ele>385.4</ele><time>2013-11-19T11:45:04.0000000+00:00</time></trkpt><trkpt lat="31.046175" lon="34.81755447"><ele>385.6</ele><time>2013-11-19T11:45:09.0000000+00:00</time></trkpt><trkpt lat="31.04598618" lon="34.81723785"><ele>386.0</ele><time>2013-11-19T11:45:14.0000000+00:00</time></trkpt><trkpt lat="31.04580689" lon="34.81697083"><ele>386.4</ele><time>2013-11-19T11:45:19.0000000+00:00</time></trkpt><trkpt lat="31.04562187" lon="34.81669235"><ele>385.7</ele><time>2013-11-19T11:45:24.0000000+00:00</time></trkpt><trkpt lat="31.04540634" lon="34.81641388"><ele>385.2</ele><time>2013-11-19T11:45:29.0000000+00:00</time></trkpt><trkpt lat="31.04520989" lon="34.81612396"><ele>385.2</ele><time>2013-11-19T11:45:34.0000000+00:00</time></trkpt><trkpt lat="31.04500389" lon="34.81585693"><ele>385.9</ele><time>2013-11-19T11:45:39.0000000+00:00</time></trkpt><trkpt lat="31.04478836" lon="34.81563187"><ele>387.3</ele><time>2013-11-19T11:45:44.0000000+00:00</time></trkpt><trkpt lat="31.04459" lon="34.81547165"><ele>388.3</ele><time>2013-11-19T11:45:49.0000000+00:00</time></trkpt><trkpt lat="31.04439354" lon="34.81533051"><ele>388.3</ele><time>2013-11-19T11:45:54.0000000+00:00</time></trkpt><trkpt lat="31.04416847" lon="34.81519318"><ele>387.8</ele><time>2013-11-19T11:45:59.0000000+00:00</time></trkpt><trkpt lat="31.04394722" lon="34.81499863"><ele>387.1</ele><time>2013-11-19T11:46:04.0000000+00:00</time></trkpt><trkpt lat="31.04370689" lon="34.81473541"><ele>386.4</ele><time>2013-11-19T11:46:09.0000000+00:00</time></trkpt><trkpt lat="31.04345512" lon="34.81448746"><ele>386.8</ele><time>2013-11-19T11:46:14.0000000+00:00</time></trkpt><trkpt lat="31.0432148" lon="34.81423569"><ele>387.0</ele><time>2013-11-19T11:46:19.0000000+00:00</time></trkpt><trkpt lat="31.04298782" lon="34.81393814"><ele>386.1</ele><time>2013-11-19T11:46:24.0000000+00:00</time></trkpt><trkpt lat="31.04273415" lon="34.81363678"><ele>385.1</ele><time>2013-11-19T11:46:29.0000000+00:00</time></trkpt><trkpt lat="31.04247475" lon="34.81332779"><ele>384.6</ele><time>2013-11-19T11:46:34.0000000+00:00</time></trkpt><trkpt lat="31.04223633" lon="34.81301117"><ele>384.1</ele><time>2013-11-19T11:46:39.0000000+00:00</time></trkpt><trkpt lat="31.04198074" lon="34.81268692"><ele>382.8</ele><time>2013-11-19T11:46:44.0000000+00:00</time></trkpt><trkpt lat="31.04172707" lon="34.81235123"><ele>382.4</ele><time>2013-11-19T11:46:49.0000000+00:00</time></trkpt><trkpt lat="31.04152298" lon="34.81209946"><ele>382.4</ele><time>2013-11-19T11:46:54.0000000+00:00</time></trkpt><trkpt lat="31.04141617" lon="34.81195068"><ele>382.5</ele><time>2013-11-19T11:46:59.0000000+00:00</time></trkpt><trkpt lat="31.04139519" lon="34.81193924"><ele>380.6</ele><time>2013-11-19T11:47:04.0000000+00:00</time></trkpt><trkpt lat="31.04139519" lon="34.81193924"><ele>380.6</ele><time>2013-11-19T11:47:09.0000000+00:00</time></trkpt><trkpt lat="31.04139519" lon="34.81193924"><ele>380.5</ele><time>2013-11-19T11:47:14.0000000+00:00</time></trkpt><trkpt lat="31.04139519" lon="34.81193924"><ele>380.5</ele><time>2013-11-19T11:47:19.0000000+00:00</time></trkpt><trkpt lat="31.04139519" lon="34.81193924"><ele>380.4</ele><time>2013-11-19T11:47:24.0000000+00:00</time></trkpt><trkpt lat="31.04139519" lon="34.81193924"><ele>380.4</ele><time>2013-11-19T11:47:29.0000000+00:00</time></trkpt><trkpt lat="31.04138565" lon="34.81192398"><ele>379.6</ele><time>2013-11-19T11:47:34.0000000+00:00</time></trkpt><trkpt lat="31.04138374" lon="34.81192398"><ele>379.4</ele><time>2013-11-19T11:47:39.0000000+00:00</time></trkpt><trkpt lat="31.04138565" lon="34.81192398"><ele>379.4</ele><time>2013-11-19T11:47:44.0000000+00:00</time></trkpt><trkpt lat="31.04138565" lon="34.81192398"><ele>379.4</ele><time>2013-11-19T11:47:49.0000000+00:00</time></trkpt><trkpt lat="31.04138374" lon="34.81192398"><ele>379.3</ele><time>2013-11-19T11:47:54.0000000+00:00</time></trkpt><trkpt lat="31.04137421" lon="34.81190872"><ele>379.2</ele><time>2013-11-19T11:47:59.0000000+00:00</time></trkpt><trkpt lat="31.04131126" lon="34.81183624"><ele>378.5</ele><time>2013-11-19T11:48:04.0000000+00:00</time></trkpt><trkpt lat="31.04122543" lon="34.81172562"><ele>378.1</ele><time>2013-11-19T11:48:09.0000000+00:00</time></trkpt><trkpt lat="31.04113579" lon="34.8115921"><ele>377.7</ele><time>2013-11-19T11:48:14.0000000+00:00</time></trkpt><trkpt lat="31.04102898" lon="34.81142426"><ele>376.7</ele><time>2013-11-19T11:48:19.0000000+00:00</time></trkpt><trkpt lat="31.04088593" lon="34.81120682"><ele>376.0</ele><time>2013-11-19T11:48:24.0000000+00:00</time></trkpt><trkpt lat="31.04070664" lon="34.81095505"><ele>375.3</ele><time>2013-11-19T11:48:29.0000000+00:00</time></trkpt><trkpt lat="31.04051781" lon="34.81071854"><ele>375.3</ele><time>2013-11-19T11:48:34.0000000+00:00</time></trkpt><trkpt lat="31.04033852" lon="34.81049728"><ele>374.6</ele><time>2013-11-19T11:48:39.0000000+00:00</time></trkpt><trkpt lat="31.04016876" lon="34.81025696"><ele>374.9</ele><time>2013-11-19T11:48:44.0000000+00:00</time></trkpt><trkpt lat="31.04000282" lon="34.81001282"><ele>374.7</ele><time>2013-11-19T11:48:49.0000000+00:00</time></trkpt><trkpt lat="31.03987122" lon="34.80973434"><ele>374.3</ele><time>2013-11-19T11:48:54.0000000+00:00</time></trkpt><trkpt lat="31.03972626" lon="34.8094635"><ele>373.8</ele><time>2013-11-19T11:48:59.0000000+00:00</time></trkpt><trkpt lat="31.0395813" lon="34.80915451"><ele>372.9</ele><time>2013-11-19T11:49:04.0000000+00:00</time></trkpt><trkpt lat="31.03939438" lon="34.80882645"><ele>371.6</ele><time>2013-11-19T11:49:09.0000000+00:00</time></trkpt><trkpt lat="31.03913307" lon="34.80849838"><ele>370.0</ele><time>2013-11-19T11:49:14.0000000+00:00</time></trkpt><trkpt lat="31.03885269" lon="34.80815888"><ele>369.2</ele><time>2013-11-19T11:49:19.0000000+00:00</time></trkpt><trkpt lat="31.03857231" lon="34.80785751"><ele>369.2</ele><time>2013-11-19T11:49:24.0000000+00:00</time></trkpt><trkpt lat="31.03841591" lon="34.80773163"><ele>369.3</ele><time>2013-11-19T11:49:29.0000000+00:00</time></trkpt><trkpt lat="31.03833771" lon="34.8076973"><ele>368.9</ele><time>2013-11-19T11:49:34.0000000+00:00</time></trkpt><trkpt lat="31.03830338" lon="34.80765915"><ele>367.3</ele><time>2013-11-19T11:49:39.0000000+00:00</time></trkpt><trkpt lat="31.03830528" lon="34.80765915"><ele>367.1</ele><time>2013-11-19T11:49:44.0000000+00:00</time></trkpt><trkpt lat="31.03830719" lon="34.80765915"><ele>367.1</ele><time>2013-11-19T11:49:49.0000000+00:00</time></trkpt><trkpt lat="31.03831101" lon="34.80765915"><ele>367.1</ele><time>2013-11-19T11:49:54.0000000+00:00</time></trkpt><trkpt lat="31.03829384" lon="34.80764008"><ele>367.5</ele><time>2013-11-19T11:49:59.0000000+00:00</time></trkpt><trkpt lat="31.03825569" lon="34.8075943"><ele>368.2</ele><time>2013-11-19T11:50:04.0000000+00:00</time></trkpt><trkpt lat="31.03824043" lon="34.8075676"><ele>368.5</ele><time>2013-11-19T11:50:09.0000000+00:00</time></trkpt><trkpt lat="31.03814316" lon="34.80747604"><ele>369.1</ele><time>2013-11-19T11:50:14.0000000+00:00</time></trkpt><trkpt lat="31.03799248" lon="34.8073616"><ele>369.7</ele><time>2013-11-19T11:50:19.0000000+00:00</time></trkpt><trkpt lat="31.03783226" lon="34.80723953"><ele>369.8</ele><time>2013-11-19T11:50:24.0000000+00:00</time></trkpt><trkpt lat="31.03767586" lon="34.80711365"><ele>370.4</ele><time>2013-11-19T11:50:29.0000000+00:00</time></trkpt><trkpt lat="31.03751946" lon="34.80698013"><ele>370.8</ele><time>2013-11-19T11:50:34.0000000+00:00</time></trkpt><trkpt lat="31.03738785" lon="34.8068428"><ele>371.3</ele><time>2013-11-19T11:50:39.0000000+00:00</time></trkpt><trkpt lat="31.03726769" lon="34.80667496"><ele>372.0</ele><time>2013-11-19T11:50:44.0000000+00:00</time></trkpt><trkpt lat="31.0371666" lon="34.80648422"><ele>372.0</ele><time>2013-11-19T11:50:49.0000000+00:00</time></trkpt><trkpt lat="31.03708649" lon="34.80629349"><ele>372.0</ele><time>2013-11-19T11:50:54.0000000+00:00</time></trkpt><trkpt lat="31.03701019" lon="34.80611801"><ele>372.3</ele><time>2013-11-19T11:50:59.0000000+00:00</time></trkpt><trkpt lat="31.03692055" lon="34.80589676"><ele>371.8</ele><time>2013-11-19T11:51:04.0000000+00:00</time></trkpt><trkpt lat="31.03680801" lon="34.80569458"><ele>371.3</ele><time>2013-11-19T11:51:09.0000000+00:00</time></trkpt><trkpt lat="31.03669357" lon="34.80548477"><ele>371.0</ele><time>2013-11-19T11:51:14.0000000+00:00</time></trkpt><trkpt lat="31.03655434" lon="34.80527115"><ele>371.0</ele><time>2013-11-19T11:51:19.0000000+00:00</time></trkpt><trkpt lat="31.03641129" lon="34.80504608"><ele>370.8</ele><time>2013-11-19T11:51:24.0000000+00:00</time></trkpt><trkpt lat="31.03629303" lon="34.80479431"><ele>370.6</ele><time>2013-11-19T11:51:29.0000000+00:00</time></trkpt><trkpt lat="31.03618622" lon="34.80453873"><ele>370.3</ele><time>2013-11-19T11:51:34.0000000+00:00</time></trkpt><trkpt lat="31.03607369" lon="34.80431747"><ele>370.7</ele><time>2013-11-19T11:51:39.0000000+00:00</time></trkpt><trkpt lat="31.03590012" lon="34.80410385"><ele>370.7</ele><time>2013-11-19T11:51:44.0000000+00:00</time></trkpt><trkpt lat="31.03567123" lon="34.80390549"><ele>370.2</ele><time>2013-11-19T11:51:49.0000000+00:00</time></trkpt><trkpt lat="31.03539658" lon="34.80371094"><ele>369.7</ele><time>2013-11-19T11:51:54.0000000+00:00</time></trkpt><trkpt lat="31.03515053" lon="34.80352402"><ele>369.6</ele><time>2013-11-19T11:51:59.0000000+00:00</time></trkpt><trkpt lat="31.03495026" lon="34.80334091"><ele>370.6</ele><time>2013-11-19T11:52:04.0000000+00:00</time></trkpt><trkpt lat="31.03476334" lon="34.80316162"><ele>372.1</ele><time>2013-11-19T11:52:09.0000000+00:00</time></trkpt><trkpt lat="31.03456307" lon="34.80299759"><ele>372.9</ele><time>2013-11-19T11:52:14.0000000+00:00</time></trkpt><trkpt lat="31.03436279" lon="34.80287552"><ele>372.9</ele><time>2013-11-19T11:52:19.0000000+00:00</time></trkpt><trkpt lat="31.03412819" lon="34.80277252"><ele>371.2</ele><time>2013-11-19T11:52:24.0000000+00:00</time></trkpt><trkpt lat="31.03386116" lon="34.80259705"><ele>370.6</ele><time>2013-11-19T11:52:29.0000000+00:00</time></trkpt><trkpt lat="31.03364182" lon="34.80241776"><ele>371.3</ele><time>2013-11-19T11:52:34.0000000+00:00</time></trkpt><trkpt lat="31.03345108" lon="34.80224991"><ele>372.0</ele><time>2013-11-19T11:52:39.0000000+00:00</time></trkpt><trkpt lat="31.03325081" lon="34.80209351"><ele>373.4</ele><time>2013-11-19T11:52:44.0000000+00:00</time></trkpt><trkpt lat="31.03300476" lon="34.8019371"><ele>373.5</ele><time>2013-11-19T11:52:49.0000000+00:00</time></trkpt><trkpt lat="31.0327816" lon="34.80178452"><ele>373.6</ele><time>2013-11-19T11:52:54.0000000+00:00</time></trkpt><trkpt lat="31.03255272" lon="34.80162048"><ele>373.5</ele><time>2013-11-19T11:52:59.0000000+00:00</time></trkpt><trkpt lat="31.03232575" lon="34.80144882"><ele>373.1</ele><time>2013-11-19T11:53:04.0000000+00:00</time></trkpt><trkpt lat="31.03213501" lon="34.80127335"><ele>374.2</ele><time>2013-11-19T11:53:09.0000000+00:00</time></trkpt><trkpt lat="31.0319519" lon="34.80111313"><ele>374.5</ele><time>2013-11-19T11:53:14.0000000+00:00</time></trkpt><trkpt lat="31.03174591" lon="34.80099106"><ele>374.3</ele><time>2013-11-19T11:53:19.0000000+00:00</time></trkpt><trkpt lat="31.03149796" lon="34.80086136"><ele>372.9</ele><time>2013-11-19T11:53:24.0000000+00:00</time></trkpt><trkpt lat="31.0312252" lon="34.80073547"><ele>371.7</ele><time>2013-11-19T11:53:29.0000000+00:00</time></trkpt><trkpt lat="31.03095627" lon="34.80062485"><ele>370.6</ele><time>2013-11-19T11:53:34.0000000+00:00</time></trkpt><trkpt lat="31.03071022" lon="34.80051041"><ele>370.3</ele><time>2013-11-19T11:53:39.0000000+00:00</time></trkpt><trkpt lat="31.03050232" lon="34.80036926"><ele>370.1</ele><time>2013-11-19T11:53:44.0000000+00:00</time></trkpt><trkpt lat="31.03037453" lon="34.80022812"><ele>367.4</ele><time>2013-11-19T11:53:49.0000000+00:00</time></trkpt><trkpt lat="31.03024292" lon="34.80017471"><ele>367.7</ele><time>2013-11-19T11:53:54.0000000+00:00</time></trkpt><trkpt lat="31.03007126" lon="34.80007172"><ele>368.0</ele><time>2013-11-19T11:53:59.0000000+00:00</time></trkpt><trkpt lat="31.02988243" lon="34.79993057"><ele>369.4</ele><time>2013-11-19T11:54:04.0000000+00:00</time></trkpt><trkpt lat="31.02972031" lon="34.7998085"><ele>370.5</ele><time>2013-11-19T11:54:09.0000000+00:00</time></trkpt><trkpt lat="31.02960205" lon="34.79970551"><ele>372.4</ele><time>2013-11-19T11:54:14.0000000+00:00</time></trkpt><trkpt lat="31.02952004" lon="34.79963303"><ele>374.2</ele><time>2013-11-19T11:54:19.0000000+00:00</time></trkpt><trkpt lat="31.02941895" lon="34.79952622"><ele>375.3</ele><time>2013-11-19T11:54:24.0000000+00:00</time></trkpt><trkpt lat="31.02932549" lon="34.79940033"><ele>377.3</ele><time>2013-11-19T11:54:29.0000000+00:00</time></trkpt><trkpt lat="31.02920723" lon="34.79928589"><ele>376.9</ele><time>2013-11-19T11:54:34.0000000+00:00</time></trkpt><trkpt lat="31.0290699" lon="34.79909897"><ele>375.3</ele><time>2013-11-19T11:54:39.0000000+00:00</time></trkpt><trkpt lat="31.02890015" lon="34.7988472"><ele>374.3</ele><time>2013-11-19T11:54:44.0000000+00:00</time></trkpt><trkpt lat="31.02872467" lon="34.79859924"><ele>373.7</ele><time>2013-11-19T11:54:49.0000000+00:00</time></trkpt><trkpt lat="31.0285511" lon="34.79833984"><ele>373.9</ele><time>2013-11-19T11:54:54.0000000+00:00</time></trkpt><trkpt lat="31.02836227" lon="34.79811859"><ele>373.9</ele><time>2013-11-19T11:54:59.0000000+00:00</time></trkpt><trkpt lat="31.02814102" lon="34.79790878"><ele>374.0</ele><time>2013-11-19T11:55:04.0000000+00:00</time></trkpt><trkpt lat="31.02789497" lon="34.7977066"><ele>372.4</ele><time>2013-11-19T11:55:09.0000000+00:00</time></trkpt><trkpt lat="31.02759934" lon="34.79745102"><ele>370.1</ele><time>2013-11-19T11:55:14.0000000+00:00</time></trkpt><trkpt lat="31.02729797" lon="34.79718399"><ele>370.2</ele><time>2013-11-19T11:55:19.0000000+00:00</time></trkpt><trkpt lat="31.02709007" lon="34.79694367"><ele>370.5</ele><time>2013-11-19T11:55:24.0000000+00:00</time></trkpt><trkpt lat="31.02692413" lon="34.79675674"><ele>371.2</ele><time>2013-11-19T11:55:29.0000000+00:00</time></trkpt><trkpt lat="31.02674484" lon="34.79657364"><ele>371.4</ele><time>2013-11-19T11:55:34.0000000+00:00</time></trkpt><trkpt lat="31.02656555" lon="34.79636383"><ele>372.2</ele><time>2013-11-19T11:55:39.0000000+00:00</time></trkpt><trkpt lat="31.02636719" lon="34.79616547"><ele>372.2</ele><time>2013-11-19T11:55:44.0000000+00:00</time></trkpt><trkpt lat="31.02617264" lon="34.79600143"><ele>371.8</ele><time>2013-11-19T11:55:49.0000000+00:00</time></trkpt><trkpt lat="31.02594566" lon="34.79586029"><ele>371.5</ele><time>2013-11-19T11:55:54.0000000+00:00</time></trkpt><trkpt lat="31.02573967" lon="34.79569244"><ele>372.0</ele><time>2013-11-19T11:55:59.0000000+00:00</time></trkpt><trkpt lat="31.02552414" lon="34.79552078"><ele>372.4</ele><time>2013-11-19T11:56:04.0000000+00:00</time></trkpt><trkpt lat="31.0253315" lon="34.79532623"><ele>373.3</ele><time>2013-11-19T11:56:09.0000000+00:00</time></trkpt><trkpt lat="31.02518654" lon="34.79506683"><ele>371.6</ele><time>2013-11-19T11:56:14.0000000+00:00</time></trkpt><trkpt lat="31.02501488" lon="34.79479599"><ele>369.5</ele><time>2013-11-19T11:56:19.0000000+00:00</time></trkpt><trkpt lat="31.02485466" lon="34.79454804"><ele>370.2</ele><time>2013-11-19T11:56:24.0000000+00:00</time></trkpt><trkpt lat="31.02469444" lon="34.7943306"><ele>370.7</ele><time>2013-11-19T11:56:29.0000000+00:00</time></trkpt><trkpt lat="31.02451897" lon="34.7940979"><ele>371.3</ele><time>2013-11-19T11:56:34.0000000+00:00</time></trkpt><trkpt lat="31.02436066" lon="34.7939415"><ele>371.8</ele><time>2013-11-19T11:56:39.0000000+00:00</time></trkpt><trkpt lat="31.02420807" lon="34.79380798"><ele>372.5</ele><time>2013-11-19T11:56:44.0000000+00:00</time></trkpt><trkpt lat="31.02406502" lon="34.79369736"><ele>372.7</ele><time>2013-11-19T11:56:49.0000000+00:00</time></trkpt><trkpt lat="31.02396393" lon="34.79359055"><ele>373.2</ele><time>2013-11-19T11:56:54.0000000+00:00</time></trkpt><trkpt lat="31.02381134" lon="34.79347992"><ele>373.0</ele><time>2013-11-19T11:56:59.0000000+00:00</time></trkpt><trkpt lat="31.02371407" lon="34.79333878"><ele>372.8</ele><time>2013-11-19T11:57:04.0000000+00:00</time></trkpt><trkpt lat="31.02362442" lon="34.79320908"><ele>373.4</ele><time>2013-11-19T11:57:09.0000000+00:00</time></trkpt><trkpt lat="31.02356148" lon="34.79307938"><ele>373.0</ele><time>2013-11-19T11:57:14.0000000+00:00</time></trkpt><trkpt lat="31.02350235" lon="34.79300308"><ele>372.6</ele><time>2013-11-19T11:57:19.0000000+00:00</time></trkpt><trkpt lat="31.02346993" lon="34.79297257"><ele>372.4</ele><time>2013-11-19T11:57:24.0000000+00:00</time></trkpt><trkpt lat="31.02346802" lon="34.79296875"><ele>372.2</ele><time>2013-11-19T11:57:29.0000000+00:00</time></trkpt><trkpt lat="31.02346993" lon="34.79296875"><ele>372.2</ele><time>2013-11-19T11:57:34.0000000+00:00</time></trkpt><trkpt lat="31.02346993" lon="34.79296875"><ele>372.2</ele><time>2013-11-19T11:57:39.0000000+00:00</time></trkpt><trkpt lat="31.02346993" lon="34.79296875"><ele>372.2</ele><time>2013-11-19T11:57:44.0000000+00:00</time></trkpt><trkpt lat="31.02346993" lon="34.79296875"><ele>372.3</ele><time>2013-11-19T11:57:49.0000000+00:00</time></trkpt><trkpt lat="31.02346993" lon="34.79296875"><ele>372.3</ele><time>2013-11-19T11:57:54.0000000+00:00</time></trkpt><trkpt lat="31.02347183" lon="34.79296875"><ele>372.4</ele><time>2013-11-19T11:57:59.0000000+00:00</time></trkpt><trkpt lat="31.02347183" lon="34.79296875"><ele>372.4</ele><time>2013-11-19T11:58:04.0000000+00:00</time></trkpt><trkpt lat="31.02347183" lon="34.79296875"><ele>372.4</ele><time>2013-11-19T11:58:09.0000000+00:00</time></trkpt><trkpt lat="31.02347183" lon="34.79296875"><ele>372.4</ele><time>2013-11-19T11:58:14.0000000+00:00</time></trkpt><trkpt lat="31.02347183" lon="34.79296875"><ele>372.4</ele><time>2013-11-19T11:58:19.0000000+00:00</time></trkpt><trkpt lat="31.02347183" lon="34.79296494"><ele>372.4</ele><time>2013-11-19T11:58:24.0000000+00:00</time></trkpt><trkpt lat="31.02347183" lon="34.79296494"><ele>372.4</ele><time>2013-11-19T11:58:29.0000000+00:00</time></trkpt><trkpt lat="31.02347183" lon="34.79296494"><ele>372.4</ele><time>2013-11-19T11:58:34.0000000+00:00</time></trkpt><trkpt lat="31.02347183" lon="34.79296494"><ele>372.4</ele><time>2013-11-19T11:58:39.0000000+00:00</time></trkpt><trkpt lat="31.02347183" lon="34.79296494"><ele>372.4</ele><time>2013-11-19T11:58:44.0000000+00:00</time></trkpt><trkpt lat="31.02347183" lon="34.79296494"><ele>372.4</ele><time>2013-11-19T11:58:49.0000000+00:00</time></trkpt><trkpt lat="31.02347183" lon="34.79296494"><ele>372.4</ele><time>2013-11-19T11:58:54.0000000+00:00</time></trkpt><trkpt lat="31.02347183" lon="34.79296494"><ele>372.4</ele><time>2013-11-19T11:58:59.0000000+00:00</time></trkpt><trkpt lat="31.02347183" lon="34.79296494"><ele>372.4</ele><time>2013-11-19T11:59:04.0000000+00:00</time></trkpt><trkpt lat="31.02347183" lon="34.79296494"><ele>372.4</ele><time>2013-11-19T11:59:09.0000000+00:00</time></trkpt><trkpt lat="31.02347183" lon="34.79296494"><ele>372.4</ele><time>2013-11-19T11:59:14.0000000+00:00</time></trkpt><trkpt lat="31.02347183" lon="34.79296494"><ele>372.4</ele><time>2013-11-19T11:59:19.0000000+00:00</time></trkpt><trkpt lat="31.02347183" lon="34.79296494"><ele>372.4</ele><time>2013-11-19T11:59:24.0000000+00:00</time></trkpt><trkpt lat="31.02347183" lon="34.79296494"><ele>372.3</ele><time>2013-11-19T11:59:29.0000000+00:00</time></trkpt><trkpt lat="31.02347183" lon="34.79296494"><ele>372.3</ele><time>2013-11-19T11:59:34.0000000+00:00</time></trkpt><trkpt lat="31.02347183" lon="34.79296494"><ele>372.3</ele><time>2013-11-19T11:59:39.0000000+00:00</time></trkpt><trkpt lat="31.02347183" lon="34.79296494"><ele>372.3</ele><time>2013-11-19T11:59:44.0000000+00:00</time></trkpt><trkpt lat="31.02347183" lon="34.79296494"><ele>372.3</ele><time>2013-11-19T11:59:49.0000000+00:00</time></trkpt><trkpt lat="31.02347183" lon="34.79296494"><ele>372.3</ele><time>2013-11-19T11:59:54.0000000+00:00</time></trkpt><trkpt lat="31.02347183" lon="34.79296494"><ele>372.3</ele><time>2013-11-19T11:59:59.0000000+00:00</time></trkpt><trkpt lat="31.02347183" lon="34.79296494"><ele>372.3</ele><time>2013-11-19T12:00:04.0000000+00:00</time></trkpt><trkpt lat="31.02347183" lon="34.79296494"><ele>372.3</ele><time>2013-11-19T12:00:09.0000000+00:00</time></trkpt><trkpt lat="31.02347183" lon="34.79296494"><ele>372.3</ele><time>2013-11-19T12:00:14.0000000+00:00</time></trkpt><trkpt lat="31.02347183" lon="34.79296494"><ele>372.3</ele><time>2013-11-19T12:00:19.0000000+00:00</time></trkpt><trkpt lat="31.02347183" lon="34.79296494"><ele>372.3</ele><time>2013-11-19T12:00:24.0000000+00:00</time></trkpt><trkpt lat="31.02347183" lon="34.79296494"><ele>372.3</ele><time>2013-11-19T12:00:29.0000000+00:00</time></trkpt><trkpt lat="31.02347183" lon="34.79296494"><ele>372.3</ele><time>2013-11-19T12:00:34.0000000+00:00</time></trkpt><trkpt lat="31.02347183" lon="34.79296494"><ele>372.3</ele><time>2013-11-19T12:00:39.0000000+00:00</time></trkpt><trkpt lat="31.02347183" lon="34.79296494"><ele>372.2</ele><time>2013-11-19T12:00:44.0000000+00:00</time></trkpt><trkpt lat="31.02346802" lon="34.79296494"><ele>372.2</ele><time>2013-11-19T12:00:49.0000000+00:00</time></trkpt><trkpt lat="31.02339935" lon="34.79302979"><ele>371.5</ele><time>2013-11-19T12:00:54.0000000+00:00</time></trkpt><trkpt lat="31.02336693" lon="34.79308701"><ele>370.6</ele><time>2013-11-19T12:00:59.0000000+00:00</time></trkpt><trkpt lat="31.02337074" lon="34.79302979"><ele>369.4</ele><time>2013-11-19T12:01:04.0000000+00:00</time></trkpt><trkpt lat="31.02347755" lon="34.79289627"><ele>367.4</ele><time>2013-11-19T12:01:09.0000000+00:00</time></trkpt><trkpt lat="31.02350235" lon="34.79275131"><ele>366.5</ele><time>2013-11-19T12:01:14.0000000+00:00</time></trkpt><trkpt lat="31.02337074" lon="34.79262924"><ele>367.3</ele><time>2013-11-19T12:01:19.0000000+00:00</time></trkpt><trkpt lat="31.02323723" lon="34.79247284"><ele>367.5</ele><time>2013-11-19T12:01:24.0000000+00:00</time></trkpt><trkpt lat="31.02316666" lon="34.79236984"><ele>367.4</ele><time>2013-11-19T12:01:29.0000000+00:00</time></trkpt><trkpt lat="31.02305412" lon="34.7922554"><ele>367.4</ele><time>2013-11-19T12:01:34.0000000+00:00</time></trkpt><trkpt lat="31.02293015" lon="34.79208756"><ele>367.4</ele><time>2013-11-19T12:01:39.0000000+00:00</time></trkpt><trkpt lat="31.02280617" lon="34.79191589"><ele>366.7</ele><time>2013-11-19T12:01:44.0000000+00:00</time></trkpt><trkpt lat="31.02270126" lon="34.79175186"><ele>366.5</ele><time>2013-11-19T12:01:49.0000000+00:00</time></trkpt><trkpt lat="31.0226078" lon="34.79159546"><ele>366.3</ele><time>2013-11-19T12:01:54.0000000+00:00</time></trkpt><trkpt lat="31.0225296" lon="34.79140472"><ele>366.6</ele><time>2013-11-19T12:01:59.0000000+00:00</time></trkpt><trkpt lat="31.02246475" lon="34.79122925"><ele>366.4</ele><time>2013-11-19T12:02:04.0000000+00:00</time></trkpt><trkpt lat="31.02238083" lon="34.79103851"><ele>366.0</ele><time>2013-11-19T12:02:09.0000000+00:00</time></trkpt><trkpt lat="31.02229691" lon="34.79083633"><ele>365.6</ele><time>2013-11-19T12:02:14.0000000+00:00</time></trkpt><trkpt lat="31.02218628" lon="34.79063416"><ele>365.2</ele><time>2013-11-19T12:02:19.0000000+00:00</time></trkpt><trkpt lat="31.02207565" lon="34.79042435"><ele>365.6</ele><time>2013-11-19T12:02:24.0000000+00:00</time></trkpt><trkpt lat="31.0220108" lon="34.79022598"><ele>364.8</ele><time>2013-11-19T12:02:29.0000000+00:00</time></trkpt><trkpt lat="31.02196693" lon="34.79004288"><ele>363.5</ele><time>2013-11-19T12:02:34.0000000+00:00</time></trkpt><trkpt lat="31.02189636" lon="34.78984451"><ele>362.3</ele><time>2013-11-19T12:02:39.0000000+00:00</time></trkpt><trkpt lat="31.0218544" lon="34.78962326"><ele>359.9</ele><time>2013-11-19T12:02:44.0000000+00:00</time></trkpt><trkpt lat="31.02184105" lon="34.78945541"><ele>358.4</ele><time>2013-11-19T12:02:49.0000000+00:00</time></trkpt><trkpt lat="31.02184296" lon="34.78937149"><ele>357.7</ele><time>2013-11-19T12:02:54.0000000+00:00</time></trkpt><trkpt lat="31.02187347" lon="34.78939056"><ele>359.0</ele><time>2013-11-19T12:02:59.0000000+00:00</time></trkpt><trkpt lat="31.02183723" lon="34.78953171"><ele>360.3</ele><time>2013-11-19T12:03:04.0000000+00:00</time></trkpt><trkpt lat="31.02175522" lon="34.78966904"><ele>362.1</ele><time>2013-11-19T12:03:09.0000000+00:00</time></trkpt><trkpt lat="31.02171135" lon="34.78982163"><ele>363.0</ele><time>2013-11-19T12:03:14.0000000+00:00</time></trkpt><trkpt lat="31.02165985" lon="34.78998566"><ele>363.4</ele><time>2013-11-19T12:03:19.0000000+00:00</time></trkpt><trkpt lat="31.02158737" lon="34.79014206"><ele>363.6</ele><time>2013-11-19T12:03:24.0000000+00:00</time></trkpt><trkpt lat="31.02152634" lon="34.7902832"><ele>363.5</ele><time>2013-11-19T12:03:29.0000000+00:00</time></trkpt><trkpt lat="31.02146721" lon="34.79040909"><ele>364.0</ele><time>2013-11-19T12:03:34.0000000+00:00</time></trkpt><trkpt lat="31.02132416" lon="34.79052353"><ele>363.8</ele><time>2013-11-19T12:03:39.0000000+00:00</time></trkpt><trkpt lat="31.02119446" lon="34.79062653"><ele>363.9</ele><time>2013-11-19T12:03:44.0000000+00:00</time></trkpt><trkpt lat="31.02107048" lon="34.79065323"><ele>363.8</ele><time>2013-11-19T12:03:49.0000000+00:00</time></trkpt><trkpt lat="31.02098274" lon="34.79061127"><ele>364.3</ele><time>2013-11-19T12:03:54.0000000+00:00</time></trkpt><trkpt lat="31.02084732" lon="34.7905159"><ele>365.1</ele><time>2013-11-19T12:03:59.0000000+00:00</time></trkpt><trkpt lat="31.02071953" lon="34.79038239"><ele>365.3</ele><time>2013-11-19T12:04:04.0000000+00:00</time></trkpt><trkpt lat="31.02064514" lon="34.79021835"><ele>365.7</ele><time>2013-11-19T12:04:09.0000000+00:00</time></trkpt><trkpt lat="31.0205555" lon="34.79002762"><ele>365.8</ele><time>2013-11-19T12:04:14.0000000+00:00</time></trkpt><trkpt lat="31.0204773" lon="34.78983688"><ele>365.9</ele><time>2013-11-19T12:04:19.0000000+00:00</time></trkpt><trkpt lat="31.02038193" lon="34.78964996"><ele>365.8</ele><time>2013-11-19T12:04:24.0000000+00:00</time></trkpt><trkpt lat="31.02026177" lon="34.78947449"><ele>364.5</ele><time>2013-11-19T12:04:29.0000000+00:00</time></trkpt><trkpt lat="31.02017784" lon="34.78927994"><ele>364.3</ele><time>2013-11-19T12:04:34.0000000+00:00</time></trkpt><trkpt lat="31.02007675" lon="34.78917694"><ele>365.4</ele><time>2013-11-19T12:04:39.0000000+00:00</time></trkpt><trkpt lat="31.01994705" lon="34.78910828"><ele>365.6</ele><time>2013-11-19T12:04:44.0000000+00:00</time></trkpt><trkpt lat="31.01980209" lon="34.78897476"><ele>366.5</ele><time>2013-11-19T12:04:49.0000000+00:00</time></trkpt><trkpt lat="31.01968002" lon="34.78888321"><ele>367.4</ele><time>2013-11-19T12:04:54.0000000+00:00</time></trkpt><trkpt lat="31.01960182" lon="34.78892136"><ele>367.5</ele><time>2013-11-19T12:04:59.0000000+00:00</time></trkpt><trkpt lat="31.01950645" lon="34.78899765"><ele>366.4</ele><time>2013-11-19T12:05:04.0000000+00:00</time></trkpt><trkpt lat="31.01928139" lon="34.7890892"><ele>365.2</ele><time>2013-11-19T12:05:09.0000000+00:00</time></trkpt><trkpt lat="31.01914978" lon="34.7892189"><ele>365.4</ele><time>2013-11-19T12:05:14.0000000+00:00</time></trkpt><trkpt lat="31.01898575" lon="34.78922272"><ele>365.3</ele><time>2013-11-19T12:05:19.0000000+00:00</time></trkpt><trkpt lat="31.01883698" lon="34.78910446"><ele>364.6</ele><time>2013-11-19T12:05:24.0000000+00:00</time></trkpt><trkpt lat="31.01868439" lon="34.78898239"><ele>363.4</ele><time>2013-11-19T12:05:29.0000000+00:00</time></trkpt><trkpt lat="31.01852799" lon="34.78882217"><ele>363.0</ele><time>2013-11-19T12:05:34.0000000+00:00</time></trkpt><trkpt lat="31.01833534" lon="34.78864288"><ele>362.9</ele><time>2013-11-19T12:05:39.0000000+00:00</time></trkpt><trkpt lat="31.01811981" lon="34.78845596"><ele>362.9</ele><time>2013-11-19T12:05:44.0000000+00:00</time></trkpt><trkpt lat="31.01789093" lon="34.7882576"><ele>362.8</ele><time>2013-11-19T12:05:49.0000000+00:00</time></trkpt><trkpt lat="31.01765633" lon="34.78807449"><ele>362.9</ele><time>2013-11-19T12:05:54.0000000+00:00</time></trkpt><trkpt lat="31.017416" lon="34.7878952"><ele>362.1</ele><time>2013-11-19T12:05:59.0000000+00:00</time></trkpt><trkpt lat="31.01720619" lon="34.78768539"><ele>361.3</ele><time>2013-11-19T12:06:04.0000000+00:00</time></trkpt><trkpt lat="31.01706314" lon="34.78744888"><ele>360.9</ele><time>2013-11-19T12:06:09.0000000+00:00</time></trkpt><trkpt lat="31.01691628" lon="34.78717804"><ele>359.8</ele><time>2013-11-19T12:06:14.0000000+00:00</time></trkpt><trkpt lat="31.01676941" lon="34.78691101"><ele>359.3</ele><time>2013-11-19T12:06:19.0000000+00:00</time></trkpt><trkpt lat="31.01663208" lon="34.7866745"><ele>358.2</ele><time>2013-11-19T12:06:24.0000000+00:00</time></trkpt><trkpt lat="31.01651955" lon="34.78643799"><ele>358.0</ele><time>2013-11-19T12:06:29.0000000+00:00</time></trkpt><trkpt lat="31.01640701" lon="34.78616333"><ele>357.7</ele><time>2013-11-19T12:06:34.0000000+00:00</time></trkpt><trkpt lat="31.01626778" lon="34.78587341"><ele>357.2</ele><time>2013-11-19T12:06:39.0000000+00:00</time></trkpt><trkpt lat="31.01612473" lon="34.78558731"><ele>356.8</ele><time>2013-11-19T12:06:44.0000000+00:00</time></trkpt><trkpt lat="31.0159874" lon="34.7853241"><ele>355.7</ele><time>2013-11-19T12:06:49.0000000+00:00</time></trkpt><trkpt lat="31.01586151" lon="34.78507233"><ele>355.0</ele><time>2013-11-19T12:06:54.0000000+00:00</time></trkpt><trkpt lat="31.01573563" lon="34.784832"><ele>355.1</ele><time>2013-11-19T12:06:59.0000000+00:00</time></trkpt><trkpt lat="31.01559639" lon="34.78458405"><ele>355.3</ele><time>2013-11-19T12:07:04.0000000+00:00</time></trkpt><trkpt lat="31.01546288" lon="34.78429413"><ele>355.3</ele><time>2013-11-19T12:07:09.0000000+00:00</time></trkpt><trkpt lat="31.01531601" lon="34.78401184"><ele>355.6</ele><time>2013-11-19T12:07:14.0000000+00:00</time></trkpt><trkpt lat="31.01516914" lon="34.78372192"><ele>355.2</ele><time>2013-11-19T12:07:19.0000000+00:00</time></trkpt><trkpt lat="31.01502991" lon="34.78343964"><ele>355.0</ele><time>2013-11-19T12:07:24.0000000+00:00</time></trkpt><trkpt lat="31.01488495" lon="34.78315735"><ele>354.8</ele><time>2013-11-19T12:07:29.0000000+00:00</time></trkpt><trkpt lat="31.01471901" lon="34.78287888"><ele>355.0</ele><time>2013-11-19T12:07:34.0000000+00:00</time></trkpt><trkpt lat="31.01457596" lon="34.78260803"><ele>355.2</ele><time>2013-11-19T12:07:39.0000000+00:00</time></trkpt><trkpt lat="31.014431" lon="34.78232575"><ele>355.5</ele><time>2013-11-19T12:07:44.0000000+00:00</time></trkpt><trkpt lat="31.01429367" lon="34.78204727"><ele>355.4</ele><time>2013-11-19T12:07:49.0000000+00:00</time></trkpt><trkpt lat="31.01416206" lon="34.7817955"><ele>355.0</ele><time>2013-11-19T12:07:54.0000000+00:00</time></trkpt><trkpt lat="31.01403809" lon="34.78152847"><ele>354.9</ele><time>2013-11-19T12:07:59.0000000+00:00</time></trkpt><trkpt lat="31.01392555" lon="34.78126526"><ele>354.2</ele><time>2013-11-19T12:08:04.0000000+00:00</time></trkpt><trkpt lat="31.01379395" lon="34.78102112"><ele>354.5</ele><time>2013-11-19T12:08:09.0000000+00:00</time></trkpt><trkpt lat="31.01368141" lon="34.78076935"><ele>354.7</ele><time>2013-11-19T12:08:14.0000000+00:00</time></trkpt><trkpt lat="31.01355934" lon="34.78052902"><ele>355.0</ele><time>2013-11-19T12:08:19.0000000+00:00</time></trkpt><trkpt lat="31.01343155" lon="34.78027725"><ele>355.5</ele><time>2013-11-19T12:08:24.0000000+00:00</time></trkpt><trkpt lat="31.01332665" lon="34.78007889"><ele>356.6</ele><time>2013-11-19T12:08:29.0000000+00:00</time></trkpt><trkpt lat="31.01324654" lon="34.77993774"><ele>357.7</ele><time>2013-11-19T12:08:34.0000000+00:00</time></trkpt><trkpt lat="31.01313973" lon="34.77978134"><ele>358.2</ele><time>2013-11-19T12:08:39.0000000+00:00</time></trkpt><trkpt lat="31.01304436" lon="34.77960968"><ele>358.1</ele><time>2013-11-19T12:08:44.0000000+00:00</time></trkpt><trkpt lat="31.01293373" lon="34.77944946"><ele>357.0</ele><time>2013-11-19T12:08:49.0000000+00:00</time></trkpt><trkpt lat="31.01274109" lon="34.77922058"><ele>355.1</ele><time>2013-11-19T12:08:54.0000000+00:00</time></trkpt><trkpt lat="31.01251221" lon="34.77896118"><ele>353.8</ele><time>2013-11-19T12:08:59.0000000+00:00</time></trkpt><trkpt lat="31.01225853" lon="34.77867889"><ele>352.3</ele><time>2013-11-19T12:09:04.0000000+00:00</time></trkpt><trkpt lat="31.01201439" lon="34.77839279"><ele>351.7</ele><time>2013-11-19T12:09:09.0000000+00:00</time></trkpt><trkpt lat="31.01175499" lon="34.77819061"><ele>352.4</ele><time>2013-11-19T12:09:14.0000000+00:00</time></trkpt><trkpt lat="31.01149559" lon="34.77806091"><ele>352.0</ele><time>2013-11-19T12:09:19.0000000+00:00</time></trkpt><trkpt lat="31.01137543" lon="34.77783585"><ele>352.1</ele><time>2013-11-19T12:09:24.0000000+00:00</time></trkpt><trkpt lat="31.0113945" lon="34.77761841"><ele>351.2</ele><time>2013-11-19T12:09:29.0000000+00:00</time></trkpt><trkpt lat="31.01140785" lon="34.77746964"><ele>350.2</ele><time>2013-11-19T12:09:34.0000000+00:00</time></trkpt><trkpt lat="31.01145363" lon="34.77729034"><ele>349.0</ele><time>2013-11-19T12:09:39.0000000+00:00</time></trkpt><trkpt lat="31.01150322" lon="34.77707672"><ele>348.1</ele><time>2013-11-19T12:09:44.0000000+00:00</time></trkpt><trkpt lat="31.01155472" lon="34.77684784"><ele>347.5</ele><time>2013-11-19T12:09:49.0000000+00:00</time></trkpt><trkpt lat="31.01161575" lon="34.77659988"><ele>346.8</ele><time>2013-11-19T12:09:54.0000000+00:00</time></trkpt><trkpt lat="31.01168633" lon="34.77633667"><ele>346.0</ele><time>2013-11-19T12:09:59.0000000+00:00</time></trkpt><trkpt lat="31.01176071" lon="34.77605057"><ele>345.6</ele><time>2013-11-19T12:10:04.0000000+00:00</time></trkpt><trkpt lat="31.01182556" lon="34.77576828"><ele>345.0</ele><time>2013-11-19T12:10:09.0000000+00:00</time></trkpt><trkpt lat="31.01191139" lon="34.77547073"><ele>344.3</ele><time>2013-11-19T12:10:14.0000000+00:00</time></trkpt><trkpt lat="31.0119915" lon="34.77516556"><ele>343.6</ele><time>2013-11-19T12:10:19.0000000+00:00</time></trkpt><trkpt lat="31.01207924" lon="34.77484512"><ele>342.0</ele><time>2013-11-19T12:10:24.0000000+00:00</time></trkpt><trkpt lat="31.0121727" lon="34.7745285"><ele>340.5</ele><time>2013-11-19T12:10:29.0000000+00:00</time></trkpt><trkpt lat="31.01226807" lon="34.77421188"><ele>339.0</ele><time>2013-11-19T12:10:34.0000000+00:00</time></trkpt><trkpt lat="31.01235008" lon="34.77388763"><ele>337.4</ele><time>2013-11-19T12:10:39.0000000+00:00</time></trkpt><trkpt lat="31.01244927" lon="34.77353668"><ele>336.1</ele><time>2013-11-19T12:10:44.0000000+00:00</time></trkpt><trkpt lat="31.01254463" lon="34.77318192"><ele>335.0</ele><time>2013-11-19T12:10:49.0000000+00:00</time></trkpt><trkpt lat="31.01262474" lon="34.77282715"><ele>333.0</ele><time>2013-11-19T12:10:54.0000000+00:00</time></trkpt><trkpt lat="31.01271629" lon="34.77247238"><ele>332.0</ele><time>2013-11-19T12:10:59.0000000+00:00</time></trkpt><trkpt lat="31.01282311" lon="34.77210999"><ele>330.9</ele><time>2013-11-19T12:11:04.0000000+00:00</time></trkpt><trkpt lat="31.01292229" lon="34.77174377"><ele>329.9</ele><time>2013-11-19T12:11:09.0000000+00:00</time></trkpt><trkpt lat="31.01301765" lon="34.77138519"><ele>329.2</ele><time>2013-11-19T12:11:14.0000000+00:00</time></trkpt><trkpt lat="31.01309967" lon="34.77104187"><ele>328.6</ele><time>2013-11-19T12:11:19.0000000+00:00</time></trkpt><trkpt lat="31.01319122" lon="34.77069473"><ele>327.8</ele><time>2013-11-19T12:11:24.0000000+00:00</time></trkpt><trkpt lat="31.01328659" lon="34.7703476"><ele>326.9</ele><time>2013-11-19T12:11:29.0000000+00:00</time></trkpt><trkpt lat="31.0133667" lon="34.77001953"><ele>326.0</ele><time>2013-11-19T12:11:34.0000000+00:00</time></trkpt><trkpt lat="31.01344299" lon="34.76971054"><ele>325.0</ele><time>2013-11-19T12:11:39.0000000+00:00</time></trkpt><trkpt lat="31.0135231" lon="34.76939774"><ele>324.2</ele><time>2013-11-19T12:11:44.0000000+00:00</time></trkpt><trkpt lat="31.0135994" lon="34.76907349"><ele>323.9</ele><time>2013-11-19T12:11:49.0000000+00:00</time></trkpt><trkpt lat="31.01366425" lon="34.76877213"><ele>323.0</ele><time>2013-11-19T12:11:54.0000000+00:00</time></trkpt><trkpt lat="31.01374054" lon="34.76848602"><ele>322.4</ele><time>2013-11-19T12:11:59.0000000+00:00</time></trkpt><trkpt lat="31.01381874" lon="34.76818466"><ele>322.1</ele><time>2013-11-19T12:12:04.0000000+00:00</time></trkpt><trkpt lat="31.01392365" lon="34.76784134"><ele>321.7</ele><time>2013-11-19T12:12:09.0000000+00:00</time></trkpt><trkpt lat="31.01403046" lon="34.7674942"><ele>321.0</ele><time>2013-11-19T12:12:14.0000000+00:00</time></trkpt><trkpt lat="31.01413727" lon="34.76716614"><ele>320.3</ele><time>2013-11-19T12:12:19.0000000+00:00</time></trkpt><trkpt lat="31.01423645" lon="34.76685333"><ele>320.0</ele><time>2013-11-19T12:12:24.0000000+00:00</time></trkpt><trkpt lat="31.01434135" lon="34.7665329"><ele>319.4</ele><time>2013-11-19T12:12:29.0000000+00:00</time></trkpt><trkpt lat="31.01444817" lon="34.76622772"><ele>319.1</ele><time>2013-11-19T12:12:34.0000000+00:00</time></trkpt><trkpt lat="31.01453972" lon="34.76596832"><ele>318.4</ele><time>2013-11-19T12:12:39.0000000+00:00</time></trkpt><trkpt lat="31.01461411" lon="34.76574326"><ele>318.0</ele><time>2013-11-19T12:12:44.0000000+00:00</time></trkpt><trkpt lat="31.01467896" lon="34.76553345"><ele>317.2</ele><time>2013-11-19T12:12:49.0000000+00:00</time></trkpt><trkpt lat="31.01473808" lon="34.7653389"><ele>316.4</ele><time>2013-11-19T12:12:54.0000000+00:00</time></trkpt><trkpt lat="31.01479912" lon="34.76514816"><ele>316.9</ele><time>2013-11-19T12:12:59.0000000+00:00</time></trkpt><trkpt lat="31.01484299" lon="34.76501465"><ele>316.4</ele><time>2013-11-19T12:13:04.0000000+00:00</time></trkpt><trkpt lat="31.01488495" lon="34.76489258"><ele>315.8</ele><time>2013-11-19T12:13:09.0000000+00:00</time></trkpt><trkpt lat="31.01491165" lon="34.76480484"><ele>315.0</ele><time>2013-11-19T12:13:14.0000000+00:00</time></trkpt><trkpt lat="31.01491165" lon="34.76480484"><ele>314.7</ele><time>2013-11-19T12:13:19.0000000+00:00</time></trkpt><trkpt lat="31.01491165" lon="34.76480484"><ele>314.7</ele><time>2013-11-19T12:13:24.0000000+00:00</time></trkpt><trkpt lat="31.01491928" lon="34.76478195"><ele>314.5</ele><time>2013-11-19T12:13:29.0000000+00:00</time></trkpt><trkpt lat="31.01495934" lon="34.76465988"><ele>314.1</ele><time>2013-11-19T12:13:34.0000000+00:00</time></trkpt><trkpt lat="31.01502228" lon="34.76447678"><ele>314.2</ele><time>2013-11-19T12:13:39.0000000+00:00</time></trkpt><trkpt lat="31.0150795" lon="34.76426697"><ele>313.3</ele><time>2013-11-19T12:13:44.0000000+00:00</time></trkpt><trkpt lat="31.01514626" lon="34.76406097"><ele>312.9</ele><time>2013-11-19T12:13:49.0000000+00:00</time></trkpt><trkpt lat="31.01520729" lon="34.76387024"><ele>311.9</ele><time>2013-11-19T12:13:54.0000000+00:00</time></trkpt><trkpt lat="31.0152874" lon="34.76366043"><ele>311.2</ele><time>2013-11-19T12:13:59.0000000+00:00</time></trkpt><trkpt lat="31.0153656" lon="34.76345444"><ele>310.6</ele><time>2013-11-19T12:14:04.0000000+00:00</time></trkpt><trkpt lat="31.01543617" lon="34.7632637"><ele>310.0</ele><time>2013-11-19T12:14:09.0000000+00:00</time></trkpt><trkpt lat="31.01551056" lon="34.7630806"><ele>310.1</ele><time>2013-11-19T12:14:14.0000000+00:00</time></trkpt><trkpt lat="31.0155983" lon="34.76295471"><ele>309.9</ele><time>2013-11-19T12:14:19.0000000+00:00</time></trkpt><trkpt lat="31.01567078" lon="34.76285172"><ele>309.5</ele><time>2013-11-19T12:14:24.0000000+00:00</time></trkpt><trkpt lat="31.01571274" lon="34.76275253"><ele>310.3</ele><time>2013-11-19T12:14:29.0000000+00:00</time></trkpt><trkpt lat="31.01574135" lon="34.7626648"><ele>309.4</ele><time>2013-11-19T12:14:34.0000000+00:00</time></trkpt><trkpt lat="31.01573753" lon="34.7626648"><ele>309.2</ele><time>2013-11-19T12:14:39.0000000+00:00</time></trkpt><trkpt lat="31.01573563" lon="34.7626648"><ele>309.2</ele><time>2013-11-19T12:14:44.0000000+00:00</time></trkpt><trkpt lat="31.01573563" lon="34.7626648"><ele>309.1</ele><time>2013-11-19T12:14:49.0000000+00:00</time></trkpt><trkpt lat="31.01573563" lon="34.7626648"><ele>309.1</ele><time>2013-11-19T12:14:54.0000000+00:00</time></trkpt><trkpt lat="31.01573753" lon="34.76266098"><ele>309.0</ele><time>2013-11-19T12:14:59.0000000+00:00</time></trkpt><trkpt lat="31.01577377" lon="34.76256561"><ele>308.8</ele><time>2013-11-19T12:15:04.0000000+00:00</time></trkpt><trkpt lat="31.01582146" lon="34.7624588"><ele>308.9</ele><time>2013-11-19T12:15:09.0000000+00:00</time></trkpt><trkpt lat="31.01589966" lon="34.76242828"><ele>309.1</ele><time>2013-11-19T12:15:14.0000000+00:00</time></trkpt><trkpt lat="31.01598549" lon="34.76240921"><ele>310.2</ele><time>2013-11-19T12:15:19.0000000+00:00</time></trkpt><trkpt lat="31.01599312" lon="34.76239395"><ele>310.1</ele><time>2013-11-19T12:15:24.0000000+00:00</time></trkpt><trkpt lat="31.01599503" lon="34.76239395"><ele>310.1</ele><time>2013-11-19T12:15:29.0000000+00:00</time></trkpt><trkpt lat="31.01600075" lon="34.76243591"><ele>311.0</ele><time>2013-11-19T12:15:34.0000000+00:00</time></trkpt><trkpt lat="31.0159874" lon="34.76244354"><ele>312.6</ele><time>2013-11-19T12:15:39.0000000+00:00</time></trkpt><trkpt lat="31.01597595" lon="34.76243973"><ele>313.8</ele><time>2013-11-19T12:15:44.0000000+00:00</time></trkpt><trkpt lat="31.01597405" lon="34.76243591"><ele>314.1</ele><time>2013-11-19T12:15:49.0000000+00:00</time></trkpt><trkpt lat="31.01597405" lon="34.76243591"><ele>314.2</ele><time>2013-11-19T12:15:54.0000000+00:00</time></trkpt><trkpt lat="31.01597405" lon="34.76243591"><ele>314.2</ele><time>2013-11-19T12:15:59.0000000+00:00</time></trkpt><trkpt lat="31.01594734" lon="34.7624855"><ele>315.6</ele><time>2013-11-19T12:16:04.0000000+00:00</time></trkpt><trkpt lat="31.01588059" lon="34.76253891"><ele>317.6</ele><time>2013-11-19T12:16:09.0000000+00:00</time></trkpt><trkpt lat="31.01587677" lon="34.76255798"><ele>318.9</ele><time>2013-11-19T12:16:14.0000000+00:00</time></trkpt><trkpt lat="31.01587486" lon="34.76256943"><ele>319.4</ele><time>2013-11-19T12:16:19.0000000+00:00</time></trkpt><trkpt lat="31.01587486" lon="34.76256943"><ele>319.4</ele><time>2013-11-19T12:16:24.0000000+00:00</time></trkpt><trkpt lat="31.01587486" lon="34.76256943"><ele>319.5</ele><time>2013-11-19T12:16:29.0000000+00:00</time></trkpt><trkpt lat="31.01586914" lon="34.76253891"><ele>320.1</ele><time>2013-11-19T12:16:34.0000000+00:00</time></trkpt><trkpt lat="31.0159359" lon="34.7624588"><ele>320.6</ele><time>2013-11-19T12:16:39.0000000+00:00</time></trkpt><trkpt lat="31.0159874" lon="34.76235962"><ele>320.8</ele><time>2013-11-19T12:16:44.0000000+00:00</time></trkpt><trkpt lat="31.01603317" lon="34.76224899"><ele>320.8</ele><time>2013-11-19T12:16:49.0000000+00:00</time></trkpt><trkpt lat="31.01603508" lon="34.76211548"><ele>321.0</ele><time>2013-11-19T12:16:54.0000000+00:00</time></trkpt><trkpt lat="31.01607132" lon="34.76198959"><ele>320.2</ele><time>2013-11-19T12:16:59.0000000+00:00</time></trkpt><trkpt lat="31.01609612" lon="34.76184082"><ele>319.1</ele><time>2013-11-19T12:17:04.0000000+00:00</time></trkpt><trkpt lat="31.0161438" lon="34.76171875"><ele>318.0</ele><time>2013-11-19T12:17:09.0000000+00:00</time></trkpt><trkpt lat="31.01622772" lon="34.76168823"><ele>317.4</ele><time>2013-11-19T12:17:14.0000000+00:00</time></trkpt><trkpt lat="31.0163269" lon="34.76168823"><ele>317.1</ele><time>2013-11-19T12:17:19.0000000+00:00</time></trkpt><trkpt lat="31.01642799" lon="34.76168442"><ele>316.4</ele><time>2013-11-19T12:17:24.0000000+00:00</time></trkpt><trkpt lat="31.01647568" lon="34.76170731"><ele>316.6</ele><time>2013-11-19T12:17:29.0000000+00:00</time></trkpt><trkpt lat="31.01647186" lon="34.76170731"><ele>316.3</ele><time>2013-11-19T12:17:34.0000000+00:00</time></trkpt><trkpt lat="31.01647186" lon="34.76170731"><ele>316.4</ele><time>2013-11-19T12:17:39.0000000+00:00</time></trkpt><trkpt lat="31.01647186" lon="34.76170731"><ele>316.4</ele><time>2013-11-19T12:17:44.0000000+00:00</time></trkpt><trkpt lat="31.01647186" lon="34.76170731"><ele>316.4</ele><time>2013-11-19T12:17:49.0000000+00:00</time></trkpt><trkpt lat="31.01647186" lon="34.76170731"><ele>316.3</ele><time>2013-11-19T12:17:54.0000000+00:00</time></trkpt><trkpt lat="31.01647186" lon="34.76170731"><ele>316.3</ele><time>2013-11-19T12:17:59.0000000+00:00</time></trkpt><trkpt lat="31.01646996" lon="34.76170731"><ele>316.3</ele><time>2013-11-19T12:18:04.0000000+00:00</time></trkpt><trkpt lat="31.01646996" lon="34.76170731"><ele>316.3</ele><time>2013-11-19T12:18:09.0000000+00:00</time></trkpt><trkpt lat="31.01646996" lon="34.76170731"><ele>316.3</ele><time>2013-11-19T12:18:14.0000000+00:00</time></trkpt><trkpt lat="31.01646996" lon="34.76170731"><ele>316.3</ele><time>2013-11-19T12:18:19.0000000+00:00</time></trkpt><trkpt lat="31.01646996" lon="34.76170731"><ele>316.3</ele><time>2013-11-19T12:18:24.0000000+00:00</time></trkpt><trkpt lat="31.01646996" lon="34.76170731"><ele>316.3</ele><time>2013-11-19T12:18:29.0000000+00:00</time></trkpt><trkpt lat="31.01646996" lon="34.76170349"><ele>316.2</ele><time>2013-11-19T12:18:34.0000000+00:00</time></trkpt><trkpt lat="31.01646996" lon="34.76170349"><ele>316.2</ele><time>2013-11-19T12:18:39.0000000+00:00</time></trkpt><trkpt lat="31.01646996" lon="34.76170349"><ele>316.2</ele><time>2013-11-19T12:18:44.0000000+00:00</time></trkpt><trkpt lat="31.01646805" lon="34.76170349"><ele>316.2</ele><time>2013-11-19T12:18:49.0000000+00:00</time></trkpt><trkpt lat="31.01646996" lon="34.76170731"><ele>316.5</ele><time>2013-11-19T12:18:54.0000000+00:00</time></trkpt><trkpt lat="31.01646996" lon="34.76170731"><ele>316.5</ele><time>2013-11-19T12:18:59.0000000+00:00</time></trkpt><trkpt lat="31.01646996" lon="34.76170731"><ele>316.5</ele><time>2013-11-19T12:19:04.0000000+00:00</time></trkpt><trkpt lat="31.01647186" lon="34.76170731"><ele>316.5</ele><time>2013-11-19T12:19:09.0000000+00:00</time></trkpt><trkpt lat="31.01646805" lon="34.76170731"><ele>316.4</ele><time>2013-11-19T12:19:14.0000000+00:00</time></trkpt><trkpt lat="31.01646423" lon="34.76170731"><ele>315.9</ele><time>2013-11-19T12:19:19.0000000+00:00</time></trkpt><trkpt lat="31.01646423" lon="34.76170731"><ele>315.9</ele><time>2013-11-19T12:19:24.0000000+00:00</time></trkpt><trkpt lat="31.01646423" lon="34.76170731"><ele>315.9</ele><time>2013-11-19T12:19:29.0000000+00:00</time></trkpt><trkpt lat="31.01646423" lon="34.76170731"><ele>315.9</ele><time>2013-11-19T12:19:34.0000000+00:00</time></trkpt><trkpt lat="31.01646423" lon="34.76170731"><ele>315.9</ele><time>2013-11-19T12:19:39.0000000+00:00</time></trkpt><trkpt lat="31.01646423" lon="34.76170731"><ele>315.9</ele><time>2013-11-19T12:19:44.0000000+00:00</time></trkpt><trkpt lat="31.01646423" lon="34.76170731"><ele>315.9</ele><time>2013-11-19T12:19:49.0000000+00:00</time></trkpt><trkpt lat="31.01646423" lon="34.76170731"><ele>315.9</ele><time>2013-11-19T12:19:54.0000000+00:00</time></trkpt><trkpt lat="31.01646423" lon="34.76170731"><ele>315.9</ele><time>2013-11-19T12:19:59.0000000+00:00</time></trkpt><trkpt lat="31.01650429" lon="34.76176071"><ele>316.6</ele><time>2013-11-19T12:20:04.0000000+00:00</time></trkpt><trkpt lat="31.01655579" lon="34.76185226"><ele>317.4</ele><time>2013-11-19T12:20:09.0000000+00:00</time></trkpt><trkpt lat="31.01655579" lon="34.76185608"><ele>318.1</ele><time>2013-11-19T12:20:14.0000000+00:00</time></trkpt><trkpt lat="31.01659584" lon="34.76189041"><ele>319.3</ele><time>2013-11-19T12:20:19.0000000+00:00</time></trkpt><trkpt lat="31.01663399" lon="34.76190949"><ele>319.3</ele><time>2013-11-19T12:20:24.0000000+00:00</time></trkpt><trkpt lat="31.01666832" lon="34.76191711"><ele>319.2</ele><time>2013-11-19T12:20:29.0000000+00:00</time></trkpt><trkpt lat="31.01668358" lon="34.76196289"><ele>319.6</ele><time>2013-11-19T12:20:34.0000000+00:00</time></trkpt><trkpt lat="31.01670075" lon="34.76207352"><ele>320.0</ele><time>2013-11-19T12:20:39.0000000+00:00</time></trkpt><trkpt lat="31.01667595" lon="34.76218414"><ele>319.9</ele><time>2013-11-19T12:20:44.0000000+00:00</time></trkpt><trkpt lat="31.01665306" lon="34.76230621"><ele>320.2</ele><time>2013-11-19T12:20:49.0000000+00:00</time></trkpt><trkpt lat="31.01662064" lon="34.76241684"><ele>320.7</ele><time>2013-11-19T12:20:54.0000000+00:00</time></trkpt><trkpt lat="31.01660729" lon="34.76250076"><ele>320.8</ele><time>2013-11-19T12:20:59.0000000+00:00</time></trkpt><trkpt lat="31.01659584" lon="34.76260376"><ele>320.9</ele><time>2013-11-19T12:21:04.0000000+00:00</time></trkpt><trkpt lat="31.0166111" lon="34.76269913"><ele>321.2</ele><time>2013-11-19T12:21:09.0000000+00:00</time></trkpt><trkpt lat="31.01666451" lon="34.76273346"><ele>320.6</ele><time>2013-11-19T12:21:14.0000000+00:00</time></trkpt><trkpt lat="31.01668739" lon="34.7626648"><ele>320.1</ele><time>2013-11-19T12:21:19.0000000+00:00</time></trkpt><trkpt lat="31.01669121" lon="34.76259232"><ele>319.9</ele><time>2013-11-19T12:21:24.0000000+00:00</time></trkpt><trkpt lat="31.01670265" lon="34.76256943"><ele>319.1</ele><time>2013-11-19T12:21:29.0000000+00:00</time></trkpt><trkpt lat="31.0167408" lon="34.76253891"><ele>319.2</ele><time>2013-11-19T12:21:34.0000000+00:00</time></trkpt><trkpt lat="31.01677322" lon="34.76251984"><ele>319.1</ele><time>2013-11-19T12:21:39.0000000+00:00</time></trkpt><trkpt lat="31.01681519" lon="34.76253128"><ele>318.6</ele><time>2013-11-19T12:21:44.0000000+00:00</time></trkpt><trkpt lat="31.01686096" lon="34.76254273"><ele>318.7</ele><time>2013-11-19T12:21:49.0000000+00:00</time></trkpt><trkpt lat="31.01690483" lon="34.76254273"><ele>318.7</ele><time>2013-11-19T12:21:54.0000000+00:00</time></trkpt><trkpt lat="31.01695252" lon="34.76252747"><ele>318.7</ele><time>2013-11-19T12:21:59.0000000+00:00</time></trkpt><trkpt lat="31.01699638" lon="34.76253891"><ele>319.1</ele><time>2013-11-19T12:22:04.0000000+00:00</time></trkpt><trkpt lat="31.01703453" lon="34.76252747"><ele>319.6</ele><time>2013-11-19T12:22:09.0000000+00:00</time></trkpt><trkpt lat="31.01704979" lon="34.76250839"><ele>319.7</ele><time>2013-11-19T12:22:14.0000000+00:00</time></trkpt><trkpt lat="31.01708984" lon="34.76239014"><ele>319.2</ele><time>2013-11-19T12:22:19.0000000+00:00</time></trkpt><trkpt lat="31.01712036" lon="34.76228714"><ele>319.5</ele><time>2013-11-19T12:22:24.0000000+00:00</time></trkpt><trkpt lat="31.01714706" lon="34.76217651"><ele>319.1</ele><time>2013-11-19T12:22:29.0000000+00:00</time></trkpt><trkpt lat="31.01719284" lon="34.76205444"><ele>318.8</ele><time>2013-11-19T12:22:34.0000000+00:00</time></trkpt><trkpt lat="31.01725197" lon="34.76192856"><ele>318.7</ele><time>2013-11-19T12:22:39.0000000+00:00</time></trkpt><trkpt lat="31.01730919" lon="34.76180267"><ele>319.1</ele><time>2013-11-19T12:22:44.0000000+00:00</time></trkpt><trkpt lat="31.01737785" lon="34.76165772"><ele>319.2</ele><time>2013-11-19T12:22:49.0000000+00:00</time></trkpt><trkpt lat="31.01744843" lon="34.76152039"><ele>319.3</ele><time>2013-11-19T12:22:54.0000000+00:00</time></trkpt><trkpt lat="31.01749992" lon="34.76139832"><ele>319.1</ele><time>2013-11-19T12:22:59.0000000+00:00</time></trkpt><trkpt lat="31.01754952" lon="34.76128006"><ele>318.9</ele><time>2013-11-19T12:23:04.0000000+00:00</time></trkpt><trkpt lat="31.01758003" lon="34.76115418"><ele>319.1</ele><time>2013-11-19T12:23:09.0000000+00:00</time></trkpt><trkpt lat="31.01760292" lon="34.76101685"><ele>319.5</ele><time>2013-11-19T12:23:14.0000000+00:00</time></trkpt><trkpt lat="31.01756287" lon="34.76089478"><ele>319.4</ele><time>2013-11-19T12:23:19.0000000+00:00</time></trkpt><trkpt lat="31.01749229" lon="34.76078796"><ele>320.2</ele><time>2013-11-19T12:23:24.0000000+00:00</time></trkpt><trkpt lat="31.01742744" lon="34.76066208"><ele>320.4</ele><time>2013-11-19T12:23:29.0000000+00:00</time></trkpt><trkpt lat="31.01740456" lon="34.76052094"><ele>320.5</ele><time>2013-11-19T12:23:34.0000000+00:00</time></trkpt><trkpt lat="31.01741791" lon="34.76034546"><ele>319.9</ele><time>2013-11-19T12:23:39.0000000+00:00</time></trkpt><trkpt lat="31.01740074" lon="34.76018524"><ele>319.6</ele><time>2013-11-19T12:23:44.0000000+00:00</time></trkpt><trkpt lat="31.01737213" lon="34.76013184"><ele>319.5</ele><time>2013-11-19T12:23:49.0000000+00:00</time></trkpt><trkpt lat="31.0173645" lon="34.76012802"><ele>320.0</ele><time>2013-11-19T12:23:54.0000000+00:00</time></trkpt><trkpt lat="31.01733971" lon="34.76011276"><ele>319.8</ele><time>2013-11-19T12:23:59.0000000+00:00</time></trkpt><trkpt lat="31.01730919" lon="34.76011658"><ele>320.6</ele><time>2013-11-19T12:24:04.0000000+00:00</time></trkpt><trkpt lat="31.01722717" lon="34.76016617"><ele>321.0</ele><time>2013-11-19T12:24:09.0000000+00:00</time></trkpt><trkpt lat="31.01715088" lon="34.76023102"><ele>321.6</ele><time>2013-11-19T12:24:14.0000000+00:00</time></trkpt><trkpt lat="31.01708221" lon="34.7603302"><ele>322.2</ele><time>2013-11-19T12:24:19.0000000+00:00</time></trkpt><trkpt lat="31.01701546" lon="34.76042938"><ele>322.6</ele><time>2013-11-19T12:24:24.0000000+00:00</time></trkpt><trkpt lat="31.01694679" lon="34.76053619"><ele>323.6</ele><time>2013-11-19T12:24:29.0000000+00:00</time></trkpt><trkpt lat="31.01687622" lon="34.76064682"><ele>324.2</ele><time>2013-11-19T12:24:34.0000000+00:00</time></trkpt><trkpt lat="31.01678658" lon="34.76074219"><ele>324.4</ele><time>2013-11-19T12:24:39.0000000+00:00</time></trkpt><trkpt lat="31.01668739" lon="34.76083374"><ele>324.3</ele><time>2013-11-19T12:24:44.0000000+00:00</time></trkpt><trkpt lat="31.01658249" lon="34.76093292"><ele>324.8</ele><time>2013-11-19T12:24:49.0000000+00:00</time></trkpt><trkpt lat="31.01646042" lon="34.76104736"><ele>325.5</ele><time>2013-11-19T12:24:54.0000000+00:00</time></trkpt><trkpt lat="31.01636696" lon="34.76115418"><ele>325.8</ele><time>2013-11-19T12:24:59.0000000+00:00</time></trkpt><trkpt lat="31.01625443" lon="34.76123047"><ele>326.6</ele><time>2013-11-19T12:25:04.0000000+00:00</time></trkpt><trkpt lat="31.01621628" lon="34.76117325"><ele>328.1</ele><time>2013-11-19T12:25:09.0000000+00:00</time></trkpt><trkpt lat="31.01618195" lon="34.7611084"><ele>328.9</ele><time>2013-11-19T12:25:14.0000000+00:00</time></trkpt><trkpt lat="31.01617432" lon="34.76107788"><ele>329.5</ele><time>2013-11-19T12:25:19.0000000+00:00</time></trkpt><trkpt lat="31.01616097" lon="34.76106644"><ele>330.0</ele><time>2013-11-19T12:25:24.0000000+00:00</time></trkpt><trkpt lat="31.01615143" lon="34.76105499"><ele>330.1</ele><time>2013-11-19T12:25:29.0000000+00:00</time></trkpt><trkpt lat="31.01615334" lon="34.760952"><ele>330.4</ele><time>2013-11-19T12:25:34.0000000+00:00</time></trkpt><trkpt lat="31.01604462" lon="34.76081848"><ele>330.6</ele><time>2013-11-19T12:25:39.0000000+00:00</time></trkpt><trkpt lat="31.01593018" lon="34.76073074"><ele>333.2</ele><time>2013-11-19T12:25:44.0000000+00:00</time></trkpt><trkpt lat="31.01576614" lon="34.76060104"><ele>334.6</ele><time>2013-11-19T12:25:49.0000000+00:00</time></trkpt><trkpt lat="31.01560593" lon="34.76047134"><ele>335.1</ele><time>2013-11-19T12:25:54.0000000+00:00</time></trkpt><trkpt lat="31.01544762" lon="34.76034164"><ele>335.4</ele><time>2013-11-19T12:25:59.0000000+00:00</time></trkpt><trkpt lat="31.01529503" lon="34.76021957"><ele>335.7</ele><time>2013-11-19T12:26:04.0000000+00:00</time></trkpt><trkpt lat="31.01515579" lon="34.76011276"><ele>336.0</ele><time>2013-11-19T12:26:09.0000000+00:00</time></trkpt><trkpt lat="31.01503182" lon="34.76002121"><ele>336.1</ele><time>2013-11-19T12:26:14.0000000+00:00</time></trkpt><trkpt lat="31.01494217" lon="34.75995636"><ele>336.0</ele><time>2013-11-19T12:26:19.0000000+00:00</time></trkpt><trkpt lat="31.01482964" lon="34.75986862"><ele>336.1</ele><time>2013-11-19T12:26:24.0000000+00:00</time></trkpt><trkpt lat="31.01469231" lon="34.7597847"><ele>335.9</ele><time>2013-11-19T12:26:29.0000000+00:00</time></trkpt><trkpt lat="31.01453781" lon="34.75971603"><ele>335.7</ele><time>2013-11-19T12:26:34.0000000+00:00</time></trkpt><trkpt lat="31.01439667" lon="34.75965881"><ele>335.6</ele><time>2013-11-19T12:26:39.0000000+00:00</time></trkpt><trkpt lat="31.01428032" lon="34.75963974"><ele>336.0</ele><time>2013-11-19T12:26:44.0000000+00:00</time></trkpt><trkpt lat="31.01423073" lon="34.75963593"><ele>336.4</ele><time>2013-11-19T12:26:49.0000000+00:00</time></trkpt><trkpt lat="31.01420021" lon="34.75963211"><ele>336.2</ele><time>2013-11-19T12:26:54.0000000+00:00</time></trkpt><trkpt lat="31.01412582" lon="34.75963211"><ele>335.7</ele><time>2013-11-19T12:26:59.0000000+00:00</time></trkpt><trkpt lat="31.01405907" lon="34.75966263"><ele>335.4</ele><time>2013-11-19T12:27:04.0000000+00:00</time></trkpt><trkpt lat="31.01411438" lon="34.75966263"><ele>335.0</ele><time>2013-11-19T12:27:09.0000000+00:00</time></trkpt><trkpt lat="31.01416588" lon="34.75965881"><ele>334.5</ele><time>2013-11-19T12:27:14.0000000+00:00</time></trkpt><trkpt lat="31.01423073" lon="34.75967026"><ele>334.2</ele><time>2013-11-19T12:27:19.0000000+00:00</time></trkpt><trkpt lat="31.01428223" lon="34.7596817"><ele>333.9</ele><time>2013-11-19T12:27:24.0000000+00:00</time></trkpt><trkpt lat="31.01431656" lon="34.75967407"><ele>333.7</ele><time>2013-11-19T12:27:29.0000000+00:00</time></trkpt><trkpt lat="31.01437378" lon="34.75967789"><ele>333.5</ele><time>2013-11-19T12:27:34.0000000+00:00</time></trkpt><trkpt lat="31.01442909" lon="34.75970459"><ele>333.4</ele><time>2013-11-19T12:27:39.0000000+00:00</time></trkpt><trkpt lat="31.01451302" lon="34.75974655"><ele>332.5</ele><time>2013-11-19T12:27:44.0000000+00:00</time></trkpt><trkpt lat="31.01458359" lon="34.75977707"><ele>332.0</ele><time>2013-11-19T12:27:49.0000000+00:00</time></trkpt><trkpt lat="31.01468086" lon="34.75982285"><ele>332.2</ele><time>2013-11-19T12:27:54.0000000+00:00</time></trkpt><trkpt lat="31.01476479" lon="34.75990677"><ele>332.7</ele><time>2013-11-19T12:27:59.0000000+00:00</time></trkpt><trkpt lat="31.01486588" lon="34.75996399"><ele>331.7</ele><time>2013-11-19T12:28:04.0000000+00:00</time></trkpt><trkpt lat="31.01495743" lon="34.75998688"><ele>331.5</ele><time>2013-11-19T12:28:09.0000000+00:00</time></trkpt><trkpt lat="31.01502419" lon="34.76002884"><ele>331.4</ele><time>2013-11-19T12:28:14.0000000+00:00</time></trkpt><trkpt lat="31.01511574" lon="34.76014328"><ele>331.2</ele><time>2013-11-19T12:28:19.0000000+00:00</time></trkpt><trkpt lat="31.01524735" lon="34.76026917"><ele>330.6</ele><time>2013-11-19T12:28:24.0000000+00:00</time></trkpt><trkpt lat="31.01537132" lon="34.76037979"><ele>330.4</ele><time>2013-11-19T12:28:29.0000000+00:00</time></trkpt><trkpt lat="31.01551819" lon="34.76050186"><ele>329.7</ele><time>2013-11-19T12:28:34.0000000+00:00</time></trkpt><trkpt lat="31.01564026" lon="34.7606163"><ele>329.4</ele><time>2013-11-19T12:28:39.0000000+00:00</time></trkpt><trkpt lat="31.01577759" lon="34.76071549"><ele>328.8</ele><time>2013-11-19T12:28:44.0000000+00:00</time></trkpt><trkpt lat="31.0158844" lon="34.76079941"><ele>326.8</ele><time>2013-11-19T12:28:49.0000000+00:00</time></trkpt><trkpt lat="31.01603508" lon="34.76088333"><ele>326.9</ele><time>2013-11-19T12:28:54.0000000+00:00</time></trkpt><trkpt lat="31.01617241" lon="34.760746"><ele>326.2</ele><time>2013-11-19T12:28:59.0000000+00:00</time></trkpt><trkpt lat="31.01625443" lon="34.76052094"><ele>325.8</ele><time>2013-11-19T12:29:04.0000000+00:00</time></trkpt><trkpt lat="31.01633835" lon="34.76029205"><ele>325.2</ele><time>2013-11-19T12:29:09.0000000+00:00</time></trkpt><trkpt lat="31.01641464" lon="34.76003647"><ele>324.2</ele><time>2013-11-19T12:29:14.0000000+00:00</time></trkpt><trkpt lat="31.01649666" lon="34.75981522"><ele>324.3</ele><time>2013-11-19T12:29:19.0000000+00:00</time></trkpt><trkpt lat="31.0165596" lon="34.75957871"><ele>325.0</ele><time>2013-11-19T12:29:24.0000000+00:00</time></trkpt><trkpt lat="31.01664543" lon="34.75933075"><ele>323.9</ele><time>2013-11-19T12:29:29.0000000+00:00</time></trkpt><trkpt lat="31.01673889" lon="34.75908279"><ele>323.7</ele><time>2013-11-19T12:29:34.0000000+00:00</time></trkpt><trkpt lat="31.01683235" lon="34.75883102"><ele>323.9</ele><time>2013-11-19T12:29:39.0000000+00:00</time></trkpt><trkpt lat="31.01693726" lon="34.75856781"><ele>324.8</ele><time>2013-11-19T12:29:44.0000000+00:00</time></trkpt><trkpt lat="31.01703644" lon="34.75829697"><ele>324.8</ele><time>2013-11-19T12:29:49.0000000+00:00</time></trkpt><trkpt lat="31.01708603" lon="34.75810242"><ele>325.9</ele><time>2013-11-19T12:29:54.0000000+00:00</time></trkpt><trkpt lat="31.01700783" lon="34.75801086"><ele>327.3</ele><time>2013-11-19T12:29:59.0000000+00:00</time></trkpt><trkpt lat="31.01699448" lon="34.75788498"><ele>326.2</ele><time>2013-11-19T12:30:04.0000000+00:00</time></trkpt><trkpt lat="31.01703453" lon="34.75776291"><ele>325.4</ele><time>2013-11-19T12:30:09.0000000+00:00</time></trkpt><trkpt lat="31.01708603" lon="34.75762558"><ele>324.7</ele><time>2013-11-19T12:30:14.0000000+00:00</time></trkpt><trkpt lat="31.01715851" lon="34.75747681"><ele>324.4</ele><time>2013-11-19T12:30:19.0000000+00:00</time></trkpt><trkpt lat="31.0172596" lon="34.75727081"><ele>323.4</ele><time>2013-11-19T12:30:24.0000000+00:00</time></trkpt><trkpt lat="31.01739121" lon="34.75706863"><ele>323.9</ele><time>2013-11-19T12:30:29.0000000+00:00</time></trkpt><trkpt lat="31.01751709" lon="34.75685883"><ele>324.8</ele><time>2013-11-19T12:30:34.0000000+00:00</time></trkpt><trkpt lat="31.01751328" lon="34.7566452"><ele>324.5</ele><time>2013-11-19T12:30:39.0000000+00:00</time></trkpt><trkpt lat="31.01743698" lon="34.75646591"><ele>324.1</ele><time>2013-11-19T12:30:44.0000000+00:00</time></trkpt><trkpt lat="31.01741219" lon="34.7563858"><ele>324.2</ele><time>2013-11-19T12:30:49.0000000+00:00</time></trkpt><trkpt lat="31.01741028" lon="34.75638962"><ele>324.4</ele><time>2013-11-19T12:30:54.0000000+00:00</time></trkpt><trkpt lat="31.01741028" lon="34.75638962"><ele>324.4</ele><time>2013-11-19T12:30:59.0000000+00:00</time></trkpt><trkpt lat="31.01741028" lon="34.75638962"><ele>324.3</ele><time>2013-11-19T12:31:04.0000000+00:00</time></trkpt><trkpt lat="31.01740074" lon="34.75635147"><ele>324.5</ele><time>2013-11-19T12:31:09.0000000+00:00</time></trkpt><trkpt lat="31.01739883" lon="34.75633621"><ele>324.1</ele><time>2013-11-19T12:31:14.0000000+00:00</time></trkpt><trkpt lat="31.01739883" lon="34.75633621"><ele>324.1</ele><time>2013-11-19T12:31:19.0000000+00:00</time></trkpt><trkpt lat="31.01739883" lon="34.75633621"><ele>324.1</ele><time>2013-11-19T12:31:24.0000000+00:00</time></trkpt><trkpt lat="31.01739883" lon="34.75633621"><ele>324.1</ele><time>2013-11-19T12:31:29.0000000+00:00</time></trkpt><trkpt lat="31.01739883" lon="34.75633621"><ele>324.1</ele><time>2013-11-19T12:31:34.0000000+00:00</time></trkpt><trkpt lat="31.01739883" lon="34.7563324"><ele>324.1</ele><time>2013-11-19T12:31:39.0000000+00:00</time></trkpt><trkpt lat="31.0173893" lon="34.75632858"><ele>324.4</ele><time>2013-11-19T12:31:44.0000000+00:00</time></trkpt><trkpt lat="31.0173893" lon="34.75632477"><ele>324.4</ele><time>2013-11-19T12:31:49.0000000+00:00</time></trkpt><trkpt lat="31.01737213" lon="34.75628281"><ele>324.4</ele><time>2013-11-19T12:31:54.0000000+00:00</time></trkpt><trkpt lat="31.01736069" lon="34.75626373"><ele>324.2</ele><time>2013-11-19T12:31:59.0000000+00:00</time></trkpt><trkpt lat="31.01735306" lon="34.75624847"><ele>324.3</ele><time>2013-11-19T12:32:04.0000000+00:00</time></trkpt><trkpt lat="31.01735306" lon="34.75624847"><ele>324.4</ele><time>2013-11-19T12:32:09.0000000+00:00</time></trkpt><trkpt lat="31.01735306" lon="34.75624847"><ele>324.4</ele><time>2013-11-19T12:32:14.0000000+00:00</time></trkpt><trkpt lat="31.01735306" lon="34.75624847"><ele>324.4</ele><time>2013-11-19T12:32:19.0000000+00:00</time></trkpt><trkpt lat="31.01735306" lon="34.75624847"><ele>324.4</ele><time>2013-11-19T12:32:24.0000000+00:00</time></trkpt><trkpt lat="31.01735306" lon="34.75624847"><ele>324.4</ele><time>2013-11-19T12:32:29.0000000+00:00</time></trkpt><trkpt lat="31.01735306" lon="34.75624847"><ele>324.4</ele><time>2013-11-19T12:32:34.0000000+00:00</time></trkpt><trkpt lat="31.01735306" lon="34.75624847"><ele>324.4</ele><time>2013-11-19T12:32:39.0000000+00:00</time></trkpt><trkpt lat="31.01735306" lon="34.75624847"><ele>324.4</ele><time>2013-11-19T12:32:44.0000000+00:00</time></trkpt><trkpt lat="31.01735306" lon="34.75624847"><ele>324.4</ele><time>2013-11-19T12:32:49.0000000+00:00</time></trkpt><trkpt lat="31.01735306" lon="34.75624847"><ele>324.4</ele><time>2013-11-19T12:32:54.0000000+00:00</time></trkpt><trkpt lat="31.01735306" lon="34.75624847"><ele>324.4</ele><time>2013-11-19T12:32:59.0000000+00:00</time></trkpt><trkpt lat="31.01734734" lon="34.75624847"><ele>324.4</ele><time>2013-11-19T12:33:04.0000000+00:00</time></trkpt><trkpt lat="31.01734352" lon="34.75625229"><ele>324.5</ele><time>2013-11-19T12:33:09.0000000+00:00</time></trkpt><trkpt lat="31.01734352" lon="34.75619507"><ele>323.8</ele><time>2013-11-19T12:33:14.0000000+00:00</time></trkpt><trkpt lat="31.01738548" lon="34.75610733"><ele>323.0</ele><time>2013-11-19T12:33:19.0000000+00:00</time></trkpt><trkpt lat="31.01737785" lon="34.75597763"><ele>322.9</ele><time>2013-11-19T12:33:24.0000000+00:00</time></trkpt><trkpt lat="31.01734924" lon="34.75580978"><ele>322.8</ele><time>2013-11-19T12:33:29.0000000+00:00</time></trkpt><trkpt lat="31.01729393" lon="34.75565338"><ele>322.7</ele><time>2013-11-19T12:33:34.0000000+00:00</time></trkpt><trkpt lat="31.01726341" lon="34.75551605"><ele>322.6</ele><time>2013-11-19T12:33:39.0000000+00:00</time></trkpt><trkpt lat="31.0172596" lon="34.7553978"><ele>322.2</ele><time>2013-11-19T12:33:44.0000000+00:00</time></trkpt><trkpt lat="31.0172348" lon="34.75526428"><ele>321.9</ele><time>2013-11-19T12:33:49.0000000+00:00</time></trkpt><trkpt lat="31.01716423" lon="34.75508881"><ele>321.9</ele><time>2013-11-19T12:33:54.0000000+00:00</time></trkpt><trkpt lat="31.0170269" lon="34.75493622"><ele>321.4</ele><time>2013-11-19T12:33:59.0000000+00:00</time></trkpt><trkpt lat="31.01686287" lon="34.75480652"><ele>321.3</ele><time>2013-11-19T12:34:04.0000000+00:00</time></trkpt><trkpt lat="31.01669693" lon="34.75468445"><ele>321.6</ele><time>2013-11-19T12:34:09.0000000+00:00</time></trkpt><trkpt lat="31.0165596" lon="34.75456619"><ele>321.3</ele><time>2013-11-19T12:34:14.0000000+00:00</time></trkpt><trkpt lat="31.0164299" lon="34.75443268"><ele>321.1</ele><time>2013-11-19T12:34:19.0000000+00:00</time></trkpt><trkpt lat="31.01631165" lon="34.75432968"><ele>320.7</ele><time>2013-11-19T12:34:24.0000000+00:00</time></trkpt><trkpt lat="31.01624489" lon="34.75419998"><ele>321.0</ele><time>2013-11-19T12:34:29.0000000+00:00</time></trkpt><trkpt lat="31.01622391" lon="34.75403214"><ele>320.9</ele><time>2013-11-19T12:34:34.0000000+00:00</time></trkpt><trkpt lat="31.01623726" lon="34.75382233"><ele>320.8</ele><time>2013-11-19T12:34:39.0000000+00:00</time></trkpt><trkpt lat="31.01626205" lon="34.75362396"><ele>320.4</ele><time>2013-11-19T12:34:44.0000000+00:00</time></trkpt><trkpt lat="31.01628113" lon="34.75347519"><ele>320.4</ele><time>2013-11-19T12:34:49.0000000+00:00</time></trkpt><trkpt lat="31.01633263" lon="34.75331879"><ele>320.3</ele><time>2013-11-19T12:34:54.0000000+00:00</time></trkpt><trkpt lat="31.01638031" lon="34.75314713"><ele>320.1</ele><time>2013-11-19T12:34:59.0000000+00:00</time></trkpt><trkpt lat="31.0164032" lon="34.75297546"><ele>319.0</ele><time>2013-11-19T12:35:04.0000000+00:00</time></trkpt><trkpt lat="31.01645279" lon="34.75279617"><ele>320.8</ele><time>2013-11-19T12:35:09.0000000+00:00</time></trkpt><trkpt lat="31.01649475" lon="34.75259018"><ele>320.8</ele><time>2013-11-19T12:35:14.0000000+00:00</time></trkpt><trkpt lat="31.01653481" lon="34.75237656"><ele>321.3</ele><time>2013-11-19T12:35:19.0000000+00:00</time></trkpt><trkpt lat="31.01656914" lon="34.75214768"><ele>321.3</ele><time>2013-11-19T12:35:24.0000000+00:00</time></trkpt><trkpt lat="31.01659775" lon="34.75191879"><ele>321.2</ele><time>2013-11-19T12:35:29.0000000+00:00</time></trkpt><trkpt lat="31.01664352" lon="34.75168991"><ele>321.2</ele><time>2013-11-19T12:35:34.0000000+00:00</time></trkpt><trkpt lat="31.01668167" lon="34.75150299"><ele>321.4</ele><time>2013-11-19T12:35:39.0000000+00:00</time></trkpt><trkpt lat="31.01670265" lon="34.75131607"><ele>321.4</ele><time>2013-11-19T12:35:44.0000000+00:00</time></trkpt><trkpt lat="31.01674843" lon="34.75109863"><ele>321.4</ele><time>2013-11-19T12:35:49.0000000+00:00</time></trkpt><trkpt lat="31.01679802" lon="34.75089264"><ele>321.4</ele><time>2013-11-19T12:35:54.0000000+00:00</time></trkpt><trkpt lat="31.0168438" lon="34.75068283"><ele>321.8</ele><time>2013-11-19T12:35:59.0000000+00:00</time></trkpt><trkpt lat="31.01686096" lon="34.75048447"><ele>322.6</ele><time>2013-11-19T12:36:04.0000000+00:00</time></trkpt><trkpt lat="31.0168457" lon="34.75035477"><ele>322.8</ele><time>2013-11-19T12:36:09.0000000+00:00</time></trkpt><trkpt lat="31.01683426" lon="34.75021744"><ele>322.9</ele><time>2013-11-19T12:36:14.0000000+00:00</time></trkpt><trkpt lat="31.01683426" lon="34.75006867"><ele>323.4</ele><time>2013-11-19T12:36:19.0000000+00:00</time></trkpt><trkpt lat="31.01682663" lon="34.75002289"><ele>323.7</ele><time>2013-11-19T12:36:24.0000000+00:00</time></trkpt><trkpt lat="31.01682472" lon="34.74997711"><ele>324.2</ele><time>2013-11-19T12:36:29.0000000+00:00</time></trkpt><trkpt lat="31.01683235" lon="34.74992752"><ele>324.7</ele><time>2013-11-19T12:36:34.0000000+00:00</time></trkpt><trkpt lat="31.01683998" lon="34.74987412"><ele>325.0</ele><time>2013-11-19T12:36:39.0000000+00:00</time></trkpt><trkpt lat="31.01683998" lon="34.74980927"><ele>325.6</ele><time>2013-11-19T12:36:44.0000000+00:00</time></trkpt><trkpt lat="31.01686096" lon="34.74975586"><ele>326.4</ele><time>2013-11-19T12:36:49.0000000+00:00</time></trkpt><trkpt lat="31.01688767" lon="34.74970627"><ele>327.1</ele><time>2013-11-19T12:36:54.0000000+00:00</time></trkpt><trkpt lat="31.01690292" lon="34.74966431"><ele>327.2</ele><time>2013-11-19T12:36:59.0000000+00:00</time></trkpt><trkpt lat="31.01692772" lon="34.74961472"><ele>327.4</ele><time>2013-11-19T12:37:04.0000000+00:00</time></trkpt><trkpt lat="31.01692963" lon="34.74960709"><ele>327.1</ele><time>2013-11-19T12:37:09.0000000+00:00</time></trkpt><trkpt lat="31.01692772" lon="34.74960709"><ele>327.1</ele><time>2013-11-19T12:37:14.0000000+00:00</time></trkpt><trkpt lat="31.01692772" lon="34.74960709"><ele>327.1</ele><time>2013-11-19T12:37:19.0000000+00:00</time></trkpt><trkpt lat="31.01692772" lon="34.74960709"><ele>327.1</ele><time>2013-11-19T12:37:24.0000000+00:00</time></trkpt><trkpt lat="31.01692772" lon="34.74960709"><ele>327.1</ele><time>2013-11-19T12:37:29.0000000+00:00</time></trkpt><trkpt lat="31.01692772" lon="34.74960709"><ele>327.1</ele><time>2013-11-19T12:37:34.0000000+00:00</time></trkpt><trkpt lat="31.01692963" lon="34.74960709"><ele>327.0</ele><time>2013-11-19T12:37:39.0000000+00:00</time></trkpt><trkpt lat="31.01695633" lon="34.74953461"><ele>327.5</ele><time>2013-11-19T12:37:44.0000000+00:00</time></trkpt><trkpt lat="31.0170002" lon="34.74940109"><ele>327.5</ele><time>2013-11-19T12:37:49.0000000+00:00</time></trkpt><trkpt lat="31.01706505" lon="34.74926758"><ele>326.8</ele><time>2013-11-19T12:37:54.0000000+00:00</time></trkpt><trkpt lat="31.01712418" lon="34.74917603"><ele>326.2</ele><time>2013-11-19T12:37:59.0000000+00:00</time></trkpt><trkpt lat="31.01712608" lon="34.7491684"><ele>325.9</ele><time>2013-11-19T12:38:04.0000000+00:00</time></trkpt><trkpt lat="31.01712608" lon="34.74916458"><ele>325.8</ele><time>2013-11-19T12:38:09.0000000+00:00</time></trkpt><trkpt lat="31.01712608" lon="34.74917984"><ele>325.5</ele><time>2013-11-19T12:38:14.0000000+00:00</time></trkpt><trkpt lat="31.01707649" lon="34.74923325"><ele>326.3</ele><time>2013-11-19T12:38:19.0000000+00:00</time></trkpt><trkpt lat="31.01701927" lon="34.74934769"><ele>327.1</ele><time>2013-11-19T12:38:24.0000000+00:00</time></trkpt><trkpt lat="31.01697731" lon="34.74950409"><ele>327.3</ele><time>2013-11-19T12:38:29.0000000+00:00</time></trkpt><trkpt lat="31.01690865" lon="34.74962997"><ele>327.3</ele><time>2013-11-19T12:38:34.0000000+00:00</time></trkpt><trkpt lat="31.01684952" lon="34.7497406"><ele>326.2</ele><time>2013-11-19T12:38:39.0000000+00:00</time></trkpt><trkpt lat="31.01682854" lon="34.74986267"><ele>324.9</ele><time>2013-11-19T12:38:44.0000000+00:00</time></trkpt><trkpt lat="31.0168438" lon="34.74996185"><ele>324.5</ele><time>2013-11-19T12:38:49.0000000+00:00</time></trkpt><trkpt lat="31.01684761" lon="34.75012207"><ele>323.3</ele><time>2013-11-19T12:38:54.0000000+00:00</time></trkpt><trkpt lat="31.01684189" lon="34.75030518"><ele>322.7</ele><time>2013-11-19T12:38:59.0000000+00:00</time></trkpt><trkpt lat="31.01685143" lon="34.75049973"><ele>322.2</ele><time>2013-11-19T12:39:04.0000000+00:00</time></trkpt><trkpt lat="31.0168438" lon="34.75073242"><ele>321.8</ele><time>2013-11-19T12:39:09.0000000+00:00</time></trkpt><trkpt lat="31.01678658" lon="34.7509613"><ele>321.6</ele><time>2013-11-19T12:39:14.0000000+00:00</time></trkpt><trkpt lat="31.01673126" lon="34.751194"><ele>321.6</ele><time>2013-11-19T12:39:19.0000000+00:00</time></trkpt><trkpt lat="31.01669502" lon="34.75140762"><ele>321.6</ele><time>2013-11-19T12:39:24.0000000+00:00</time></trkpt><trkpt lat="31.01665688" lon="34.75161362"><ele>321.1</ele><time>2013-11-19T12:39:29.0000000+00:00</time></trkpt><trkpt lat="31.01660729" lon="34.7518425"><ele>321.0</ele><time>2013-11-19T12:39:34.0000000+00:00</time></trkpt><trkpt lat="31.01658058" lon="34.75209808"><ele>321.4</ele><time>2013-11-19T12:39:39.0000000+00:00</time></trkpt><trkpt lat="31.01655388" lon="34.75235367"><ele>321.7</ele><time>2013-11-19T12:39:44.0000000+00:00</time></trkpt><trkpt lat="31.01652908" lon="34.75257874"><ele>321.6</ele><time>2013-11-19T12:39:49.0000000+00:00</time></trkpt><trkpt lat="31.01647949" lon="34.75280762"><ele>321.4</ele><time>2013-11-19T12:39:54.0000000+00:00</time></trkpt><trkpt lat="31.01644135" lon="34.75300217"><ele>321.2</ele><time>2013-11-19T12:39:59.0000000+00:00</time></trkpt><trkpt lat="31.01638985" lon="34.75317383"><ele>321.0</ele><time>2013-11-19T12:40:04.0000000+00:00</time></trkpt><trkpt lat="31.01636505" lon="34.75336838"><ele>320.7</ele><time>2013-11-19T12:40:09.0000000+00:00</time></trkpt><trkpt lat="31.01630592" lon="34.75357056"><ele>320.6</ele><time>2013-11-19T12:40:14.0000000+00:00</time></trkpt><trkpt lat="31.01627541" lon="34.75378037"><ele>320.7</ele><time>2013-11-19T12:40:19.0000000+00:00</time></trkpt><trkpt lat="31.01623917" lon="34.7539978"><ele>321.1</ele><time>2013-11-19T12:40:24.0000000+00:00</time></trkpt><trkpt lat="31.01626396" lon="34.75419617"><ele>320.6</ele><time>2013-11-19T12:40:29.0000000+00:00</time></trkpt><trkpt lat="31.01629829" lon="34.75432968"><ele>321.6</ele><time>2013-11-19T12:40:34.0000000+00:00</time></trkpt><trkpt lat="31.01642799" lon="34.75443649"><ele>322.2</ele><time>2013-11-19T12:40:39.0000000+00:00</time></trkpt><trkpt lat="31.01656723" lon="34.75461197"><ele>321.7</ele><time>2013-11-19T12:40:44.0000000+00:00</time></trkpt><trkpt lat="31.0166378" lon="34.75484848"><ele>321.5</ele><time>2013-11-19T12:40:49.0000000+00:00</time></trkpt><trkpt lat="31.01675987" lon="34.75504684"><ele>321.2</ele><time>2013-11-19T12:40:54.0000000+00:00</time></trkpt><trkpt lat="31.01687431" lon="34.75526428"><ele>320.9</ele><time>2013-11-19T12:40:59.0000000+00:00</time></trkpt><trkpt lat="31.01696968" lon="34.75544357"><ele>321.5</ele><time>2013-11-19T12:41:04.0000000+00:00</time></trkpt><trkpt lat="31.01707077" lon="34.75561142"><ele>321.0</ele><time>2013-11-19T12:41:09.0000000+00:00</time></trkpt><trkpt lat="31.01714897" lon="34.75578308"><ele>321.2</ele><time>2013-11-19T12:41:14.0000000+00:00</time></trkpt><trkpt lat="31.01718521" lon="34.75594711"><ele>321.3</ele><time>2013-11-19T12:41:19.0000000+00:00</time></trkpt><trkpt lat="31.0172329" lon="34.75610352"><ele>321.7</ele><time>2013-11-19T12:41:24.0000000+00:00</time></trkpt><trkpt lat="31.01726723" lon="34.75621796"><ele>321.9</ele><time>2013-11-19T12:41:29.0000000+00:00</time></trkpt><trkpt lat="31.01728821" lon="34.75627518"><ele>322.0</ele><time>2013-11-19T12:41:34.0000000+00:00</time></trkpt><trkpt lat="31.01730919" lon="34.75632858"><ele>322.1</ele><time>2013-11-19T12:41:39.0000000+00:00</time></trkpt><trkpt lat="31.01732063" lon="34.7563858"><ele>322.3</ele><time>2013-11-19T12:41:44.0000000+00:00</time></trkpt><trkpt lat="31.01733971" lon="34.75644684"><ele>322.1</ele><time>2013-11-19T12:41:49.0000000+00:00</time></trkpt><trkpt lat="31.01740265" lon="34.75656128"><ele>322.6</ele><time>2013-11-19T12:41:54.0000000+00:00</time></trkpt><trkpt lat="31.01745987" lon="34.75667572"><ele>322.5</ele><time>2013-11-19T12:41:59.0000000+00:00</time></trkpt><trkpt lat="31.01749229" lon="34.75681686"><ele>322.0</ele><time>2013-11-19T12:42:04.0000000+00:00</time></trkpt><trkpt lat="31.01747704" lon="34.75695038"><ele>321.8</ele><time>2013-11-19T12:42:09.0000000+00:00</time></trkpt><trkpt lat="31.01739311" lon="34.75708771"><ele>322.6</ele><time>2013-11-19T12:42:14.0000000+00:00</time></trkpt><trkpt lat="31.01729584" lon="34.75723648"><ele>323.3</ele><time>2013-11-19T12:42:19.0000000+00:00</time></trkpt><trkpt lat="31.01721573" lon="34.75741196"><ele>323.8</ele><time>2013-11-19T12:42:24.0000000+00:00</time></trkpt><trkpt lat="31.01712608" lon="34.75757217"><ele>323.9</ele><time>2013-11-19T12:42:29.0000000+00:00</time></trkpt><trkpt lat="31.01701355" lon="34.75769424"><ele>325.2</ele><time>2013-11-19T12:42:34.0000000+00:00</time></trkpt><trkpt lat="31.01694489" lon="34.75784683"><ele>327.2</ele><time>2013-11-19T12:42:39.0000000+00:00</time></trkpt><trkpt lat="31.01697922" lon="34.75798798"><ele>328.7</ele><time>2013-11-19T12:42:44.0000000+00:00</time></trkpt><trkpt lat="31.0171032" lon="34.75801849"><ele>328.6</ele><time>2013-11-19T12:42:49.0000000+00:00</time></trkpt><trkpt lat="31.01722908" lon="34.75785828"><ele>327.8</ele><time>2013-11-19T12:42:54.0000000+00:00</time></trkpt><trkpt lat="31.01735115" lon="34.75765991"><ele>327.6</ele><time>2013-11-19T12:42:59.0000000+00:00</time></trkpt><trkpt lat="31.01750183" lon="34.75744629"><ele>327.3</ele><time>2013-11-19T12:43:04.0000000+00:00</time></trkpt><trkpt lat="31.01766777" lon="34.75723267"><ele>326.7</ele><time>2013-11-19T12:43:09.0000000+00:00</time></trkpt><trkpt lat="31.01785088" lon="34.75703049"><ele>326.4</ele><time>2013-11-19T12:43:14.0000000+00:00</time></trkpt><trkpt lat="31.01804352" lon="34.75684357"><ele>325.5</ele><time>2013-11-19T12:43:19.0000000+00:00</time></trkpt><trkpt lat="31.01825142" lon="34.75666046"><ele>324.9</ele><time>2013-11-19T12:43:24.0000000+00:00</time></trkpt><trkpt lat="31.0184536" lon="34.75651932"><ele>324.6</ele><time>2013-11-19T12:43:29.0000000+00:00</time></trkpt><trkpt lat="31.0186863" lon="34.75638199"><ele>323.9</ele><time>2013-11-19T12:43:34.0000000+00:00</time></trkpt><trkpt lat="31.01891136" lon="34.75626755"><ele>323.7</ele><time>2013-11-19T12:43:39.0000000+00:00</time></trkpt><trkpt lat="31.01916504" lon="34.75615311"><ele>323.4</ele><time>2013-11-19T12:43:44.0000000+00:00</time></trkpt><trkpt lat="31.01940346" lon="34.75603485"><ele>323.0</ele><time>2013-11-19T12:43:49.0000000+00:00</time></trkpt><trkpt lat="31.01961899" lon="34.75592423"><ele>323.0</ele><time>2013-11-19T12:43:54.0000000+00:00</time></trkpt><trkpt lat="31.0198555" lon="34.75580978"><ele>322.7</ele><time>2013-11-19T12:43:59.0000000+00:00</time></trkpt><trkpt lat="31.02010918" lon="34.75567627"><ele>322.4</ele><time>2013-11-19T12:44:04.0000000+00:00</time></trkpt><trkpt lat="31.02033234" lon="34.75556946"><ele>322.3</ele><time>2013-11-19T12:44:09.0000000+00:00</time></trkpt><trkpt lat="31.02050972" lon="34.75547409"><ele>321.8</ele><time>2013-11-19T12:44:14.0000000+00:00</time></trkpt><trkpt lat="31.02067375" lon="34.75539017"><ele>321.5</ele><time>2013-11-19T12:44:19.0000000+00:00</time></trkpt><trkpt lat="31.02080727" lon="34.75533295"><ele>321.5</ele><time>2013-11-19T12:44:24.0000000+00:00</time></trkpt><trkpt lat="31.02091599" lon="34.75525665"><ele>320.9</ele><time>2013-11-19T12:44:29.0000000+00:00</time></trkpt><trkpt lat="31.02102852" lon="34.75521469"><ele>319.4</ele><time>2013-11-19T12:44:34.0000000+00:00</time></trkpt><trkpt lat="31.02103043" lon="34.75530624"><ele>319.2</ele><time>2013-11-19T12:44:39.0000000+00:00</time></trkpt><trkpt lat="31.02090263" lon="34.75540924"><ele>320.2</ele><time>2013-11-19T12:44:44.0000000+00:00</time></trkpt><trkpt lat="31.02071571" lon="34.75551605"><ele>320.9</ele><time>2013-11-19T12:44:49.0000000+00:00</time></trkpt><trkpt lat="31.02052307" lon="34.75566101"><ele>321.1</ele><time>2013-11-19T12:44:54.0000000+00:00</time></trkpt><trkpt lat="31.02031899" lon="34.75581741"><ele>321.7</ele><time>2013-11-19T12:44:59.0000000+00:00</time></trkpt><trkpt lat="31.02011681" lon="34.75598145"><ele>322.1</ele><time>2013-11-19T12:45:04.0000000+00:00</time></trkpt><trkpt lat="31.01992416" lon="34.75615692"><ele>322.5</ele><time>2013-11-19T12:45:09.0000000+00:00</time></trkpt><trkpt lat="31.01973724" lon="34.75631332"><ele>322.7</ele><time>2013-11-19T12:45:14.0000000+00:00</time></trkpt><trkpt lat="31.01954651" lon="34.75646591"><ele>322.4</ele><time>2013-11-19T12:45:19.0000000+00:00</time></trkpt><trkpt lat="31.01934815" lon="34.75663376"><ele>321.9</ele><time>2013-11-19T12:45:24.0000000+00:00</time></trkpt><trkpt lat="31.01913452" lon="34.75679398"><ele>320.2</ele><time>2013-11-19T12:45:29.0000000+00:00</time></trkpt><trkpt lat="31.01904106" lon="34.75689697"><ele>320.1</ele><time>2013-11-19T12:45:34.0000000+00:00</time></trkpt><trkpt lat="31.01902962" lon="34.75691223"><ele>320.2</ele><time>2013-11-19T12:45:39.0000000+00:00</time></trkpt><trkpt lat="31.01902962" lon="34.75691223"><ele>320.2</ele><time>2013-11-19T12:45:44.0000000+00:00</time></trkpt><trkpt lat="31.01902962" lon="34.75691223"><ele>320.2</ele><time>2013-11-19T12:45:49.0000000+00:00</time></trkpt><trkpt lat="31.0190258" lon="34.75691986"><ele>320.2</ele><time>2013-11-19T12:45:54.0000000+00:00</time></trkpt><trkpt lat="31.01902771" lon="34.75703049"><ele>319.9</ele><time>2013-11-19T12:45:59.0000000+00:00</time></trkpt><trkpt lat="31.01906014" lon="34.75717545"><ele>321.0</ele><time>2013-11-19T12:46:04.0000000+00:00</time></trkpt><trkpt lat="31.01912689" lon="34.75730896"><ele>321.8</ele><time>2013-11-19T12:46:09.0000000+00:00</time></trkpt><trkpt lat="31.01922035" lon="34.75743485"><ele>321.8</ele><time>2013-11-19T12:46:14.0000000+00:00</time></trkpt><trkpt lat="31.01931191" lon="34.75760269"><ele>321.6</ele><time>2013-11-19T12:46:19.0000000+00:00</time></trkpt><trkpt lat="31.01936913" lon="34.75778961"><ele>321.6</ele><time>2013-11-19T12:46:24.0000000+00:00</time></trkpt><trkpt lat="31.01943779" lon="34.75796509"><ele>321.9</ele><time>2013-11-19T12:46:29.0000000+00:00</time></trkpt><trkpt lat="31.0195179" lon="34.75811386"><ele>322.2</ele><time>2013-11-19T12:46:34.0000000+00:00</time></trkpt><trkpt lat="31.01958466" lon="34.75824356"><ele>323.2</ele><time>2013-11-19T12:46:39.0000000+00:00</time></trkpt><trkpt lat="31.01963806" lon="34.75836563"><ele>324.1</ele><time>2013-11-19T12:46:44.0000000+00:00</time></trkpt><trkpt lat="31.01967621" lon="34.75847244"><ele>324.6</ele><time>2013-11-19T12:46:49.0000000+00:00</time></trkpt><trkpt lat="31.01972008" lon="34.75860596"><ele>325.1</ele><time>2013-11-19T12:46:54.0000000+00:00</time></trkpt><trkpt lat="31.01976776" lon="34.75872421"><ele>325.8</ele><time>2013-11-19T12:46:59.0000000+00:00</time></trkpt><trkpt lat="31.01979637" lon="34.75885391"><ele>326.8</ele><time>2013-11-19T12:47:04.0000000+00:00</time></trkpt><trkpt lat="31.01980972" lon="34.75898361"><ele>327.1</ele><time>2013-11-19T12:47:09.0000000+00:00</time></trkpt><trkpt lat="31.019804" lon="34.75911331"><ele>326.9</ele><time>2013-11-19T12:47:14.0000000+00:00</time></trkpt><trkpt lat="31.01977921" lon="34.75923157"><ele>326.9</ele><time>2013-11-19T12:47:19.0000000+00:00</time></trkpt><trkpt lat="31.01975441" lon="34.75932312"><ele>327.5</ele><time>2013-11-19T12:47:24.0000000+00:00</time></trkpt><trkpt lat="31.01973534" lon="34.7593956"><ele>327.9</ele><time>2013-11-19T12:47:29.0000000+00:00</time></trkpt><trkpt lat="31.01971245" lon="34.75946045"><ele>328.5</ele><time>2013-11-19T12:47:34.0000000+00:00</time></trkpt><trkpt lat="31.01968765" lon="34.75953293"><ele>329.0</ele><time>2013-11-19T12:47:39.0000000+00:00</time></trkpt><trkpt lat="31.01965714" lon="34.75960541"><ele>329.4</ele><time>2013-11-19T12:47:44.0000000+00:00</time></trkpt><trkpt lat="31.01962662" lon="34.75966644"><ele>329.9</ele><time>2013-11-19T12:47:49.0000000+00:00</time></trkpt><trkpt lat="31.01958847" lon="34.75973129"><ele>330.4</ele><time>2013-11-19T12:47:54.0000000+00:00</time></trkpt><trkpt lat="31.01956558" lon="34.75979614"><ele>330.8</ele><time>2013-11-19T12:47:59.0000000+00:00</time></trkpt><trkpt lat="31.01953888" lon="34.75986862"><ele>331.4</ele><time>2013-11-19T12:48:04.0000000+00:00</time></trkpt><trkpt lat="31.01949692" lon="34.75992966"><ele>331.9</ele><time>2013-11-19T12:48:09.0000000+00:00</time></trkpt><trkpt lat="31.01947212" lon="34.76000214"><ele>332.5</ele><time>2013-11-19T12:48:14.0000000+00:00</time></trkpt><trkpt lat="31.01943016" lon="34.76006699"><ele>333.2</ele><time>2013-11-19T12:48:19.0000000+00:00</time></trkpt><trkpt lat="31.01939583" lon="34.76013565"><ele>333.7</ele><time>2013-11-19T12:48:24.0000000+00:00</time></trkpt><trkpt lat="31.01936531" lon="34.76021576"><ele>334.2</ele><time>2013-11-19T12:48:29.0000000+00:00</time></trkpt><trkpt lat="31.01933098" lon="34.76028061"><ele>334.7</ele><time>2013-11-19T12:48:34.0000000+00:00</time></trkpt><trkpt lat="31.01930237" lon="34.76034927"><ele>335.2</ele><time>2013-11-19T12:48:39.0000000+00:00</time></trkpt><trkpt lat="31.01926994" lon="34.76041412"><ele>336.1</ele><time>2013-11-19T12:48:44.0000000+00:00</time></trkpt><trkpt lat="31.01924133" lon="34.76046372"><ele>336.8</ele><time>2013-11-19T12:48:49.0000000+00:00</time></trkpt><trkpt lat="31.01922035" lon="34.76050186"><ele>337.5</ele><time>2013-11-19T12:48:54.0000000+00:00</time></trkpt><trkpt lat="31.01921654" lon="34.76050568"><ele>337.8</ele><time>2013-11-19T12:48:59.0000000+00:00</time></trkpt><trkpt lat="31.01917458" lon="34.76055145"><ele>337.9</ele><time>2013-11-19T12:49:04.0000000+00:00</time></trkpt><trkpt lat="31.01912689" lon="34.76062775"><ele>338.4</ele><time>2013-11-19T12:49:09.0000000+00:00</time></trkpt><trkpt lat="31.01906776" lon="34.76070023"><ele>338.9</ele><time>2013-11-19T12:49:14.0000000+00:00</time></trkpt><trkpt lat="31.01899529" lon="34.76078033"><ele>339.4</ele><time>2013-11-19T12:49:19.0000000+00:00</time></trkpt><trkpt lat="31.01891899" lon="34.76084518"><ele>339.7</ele><time>2013-11-19T12:49:24.0000000+00:00</time></trkpt><trkpt lat="31.01885986" lon="34.76089478"><ele>340.5</ele><time>2013-11-19T12:49:29.0000000+00:00</time></trkpt><trkpt lat="31.01880074" lon="34.76094055"><ele>340.9</ele><time>2013-11-19T12:49:34.0000000+00:00</time></trkpt><trkpt lat="31.01873398" lon="34.7609787"><ele>341.5</ele><time>2013-11-19T12:49:39.0000000+00:00</time></trkpt><trkpt lat="31.01867867" lon="34.76101303"><ele>342.3</ele><time>2013-11-19T12:49:44.0000000+00:00</time></trkpt><trkpt lat="31.01862335" lon="34.76104355"><ele>342.7</ele><time>2013-11-19T12:49:49.0000000+00:00</time></trkpt><trkpt lat="31.01856422" lon="34.76106644"><ele>343.2</ele><time>2013-11-19T12:49:54.0000000+00:00</time></trkpt><trkpt lat="31.01848221" lon="34.76109314"><ele>343.6</ele><time>2013-11-19T12:49:59.0000000+00:00</time></trkpt><trkpt lat="31.01840973" lon="34.76109314"><ele>344.0</ele><time>2013-11-19T12:50:04.0000000+00:00</time></trkpt><trkpt lat="31.01838684" lon="34.76109314"><ele>344.6</ele><time>2013-11-19T12:50:09.0000000+00:00</time></trkpt><trkpt lat="31.01838493" lon="34.76108551"><ele>344.4</ele><time>2013-11-19T12:50:14.0000000+00:00</time></trkpt><trkpt lat="31.01838684" lon="34.76108551"><ele>344.4</ele><time>2013-11-19T12:50:19.0000000+00:00</time></trkpt><trkpt lat="31.01838684" lon="34.76108551"><ele>344.4</ele><time>2013-11-19T12:50:24.0000000+00:00</time></trkpt><trkpt lat="31.01838684" lon="34.76108551"><ele>344.4</ele><time>2013-11-19T12:50:29.0000000+00:00</time></trkpt><trkpt lat="31.01838684" lon="34.76108551"><ele>344.4</ele><time>2013-11-19T12:50:34.0000000+00:00</time></trkpt><trkpt lat="31.01838684" lon="34.76108551"><ele>344.4</ele><time>2013-11-19T12:50:39.0000000+00:00</time></trkpt><trkpt lat="31.01838684" lon="34.76108551"><ele>344.4</ele><time>2013-11-19T12:50:44.0000000+00:00</time></trkpt><trkpt lat="31.01838684" lon="34.76108551"><ele>344.4</ele><time>2013-11-19T12:50:49.0000000+00:00</time></trkpt><trkpt lat="31.01838684" lon="34.76108551"><ele>344.4</ele><time>2013-11-19T12:50:54.0000000+00:00</time></trkpt><trkpt lat="31.01838684" lon="34.76108551"><ele>344.3</ele><time>2013-11-19T12:50:59.0000000+00:00</time></trkpt><trkpt lat="31.01838684" lon="34.76108551"><ele>344.3</ele><time>2013-11-19T12:51:04.0000000+00:00</time></trkpt><trkpt lat="31.01838684" lon="34.76108551"><ele>344.3</ele><time>2013-11-19T12:51:09.0000000+00:00</time></trkpt><trkpt lat="31.01838684" lon="34.76108551"><ele>344.3</ele><time>2013-11-19T12:51:14.0000000+00:00</time></trkpt><trkpt lat="31.01838684" lon="34.76108551"><ele>344.3</ele><time>2013-11-19T12:51:19.0000000+00:00</time></trkpt><trkpt lat="31.01838684" lon="34.76108551"><ele>344.3</ele><time>2013-11-19T12:51:24.0000000+00:00</time></trkpt><trkpt lat="31.01838875" lon="34.76108551"><ele>344.3</ele><time>2013-11-19T12:51:29.0000000+00:00</time></trkpt><trkpt lat="31.01838875" lon="34.76108551"><ele>344.3</ele><time>2013-11-19T12:51:34.0000000+00:00</time></trkpt><trkpt lat="31.01838875" lon="34.76108551"><ele>344.2</ele><time>2013-11-19T12:51:39.0000000+00:00</time></trkpt><trkpt lat="31.01838875" lon="34.76108551"><ele>344.2</ele><time>2013-11-19T12:51:44.0000000+00:00</time></trkpt><trkpt lat="31.01838875" lon="34.76108551"><ele>344.2</ele><time>2013-11-19T12:51:49.0000000+00:00</time></trkpt><trkpt lat="31.01838875" lon="34.76108551"><ele>344.2</ele><time>2013-11-19T12:51:54.0000000+00:00</time></trkpt><trkpt lat="31.01838875" lon="34.76108551"><ele>344.2</ele><time>2013-11-19T12:51:59.0000000+00:00</time></trkpt><trkpt lat="31.01838875" lon="34.76108551"><ele>344.2</ele><time>2013-11-19T12:52:04.0000000+00:00</time></trkpt><trkpt lat="31.01838875" lon="34.76108551"><ele>344.2</ele><time>2013-11-19T12:52:09.0000000+00:00</time></trkpt><trkpt lat="31.01838875" lon="34.76108551"><ele>344.2</ele><time>2013-11-19T12:52:14.0000000+00:00</time></trkpt><trkpt lat="31.01838875" lon="34.76108551"><ele>344.2</ele><time>2013-11-19T12:52:19.0000000+00:00</time></trkpt><trkpt lat="31.01838875" lon="34.76108551"><ele>344.1</ele><time>2013-11-19T12:52:24.0000000+00:00</time></trkpt><trkpt lat="31.01838875" lon="34.76108551"><ele>344.1</ele><time>2013-11-19T12:52:29.0000000+00:00</time></trkpt><trkpt lat="31.01838875" lon="34.76108551"><ele>344.1</ele><time>2013-11-19T12:52:34.0000000+00:00</time></trkpt><trkpt lat="31.01838875" lon="34.76108551"><ele>344.1</ele><time>2013-11-19T12:52:39.0000000+00:00</time></trkpt><trkpt lat="31.01838875" lon="34.76108551"><ele>344.1</ele><time>2013-11-19T12:52:44.0000000+00:00</time></trkpt><trkpt lat="31.01838875" lon="34.76108551"><ele>344.1</ele><time>2013-11-19T12:52:49.0000000+00:00</time></trkpt><trkpt lat="31.01839638" lon="34.7611084"><ele>344.3</ele><time>2013-11-19T12:52:54.0000000+00:00</time></trkpt><trkpt lat="31.0184536" lon="34.76114655"><ele>344.4</ele><time>2013-11-19T12:52:59.0000000+00:00</time></trkpt><trkpt lat="31.01852608" lon="34.76116562"><ele>344.0</ele><time>2013-11-19T12:53:04.0000000+00:00</time></trkpt><trkpt lat="31.0185833" lon="34.76117325"><ele>343.5</ele><time>2013-11-19T12:53:09.0000000+00:00</time></trkpt><trkpt lat="31.01862335" lon="34.76121521"><ele>343.6</ele><time>2013-11-19T12:53:14.0000000+00:00</time></trkpt><trkpt lat="31.01864052" lon="34.76128006"><ele>344.0</ele><time>2013-11-19T12:53:19.0000000+00:00</time></trkpt><trkpt lat="31.01866531" lon="34.76132202"><ele>343.8</ele><time>2013-11-19T12:53:24.0000000+00:00</time></trkpt><trkpt lat="31.01866722" lon="34.76136398"><ele>343.4</ele><time>2013-11-19T12:53:29.0000000+00:00</time></trkpt><trkpt lat="31.01869202" lon="34.76144409"><ele>343.9</ele><time>2013-11-19T12:53:34.0000000+00:00</time></trkpt><trkpt lat="31.01868057" lon="34.76148224"><ele>343.9</ele><time>2013-11-19T12:53:39.0000000+00:00</time></trkpt><trkpt lat="31.01864243" lon="34.76153183"><ele>343.8</ele><time>2013-11-19T12:53:44.0000000+00:00</time></trkpt><trkpt lat="31.01859665" lon="34.76162338"><ele>343.9</ele><time>2013-11-19T12:53:49.0000000+00:00</time></trkpt><trkpt lat="31.01854134" lon="34.76171875"><ele>343.4</ele><time>2013-11-19T12:53:54.0000000+00:00</time></trkpt><trkpt lat="31.0185051" lon="34.76179504"><ele>342.7</ele><time>2013-11-19T12:53:59.0000000+00:00</time></trkpt><trkpt lat="31.01848984" lon="34.76184845"><ele>342.0</ele><time>2013-11-19T12:54:04.0000000+00:00</time></trkpt><trkpt lat="31.01848984" lon="34.76184845"><ele>341.8</ele><time>2013-11-19T12:54:09.0000000+00:00</time></trkpt><trkpt lat="31.01848984" lon="34.76184464"><ele>341.7</ele><time>2013-11-19T12:54:14.0000000+00:00</time></trkpt><trkpt lat="31.01849175" lon="34.76184845"><ele>341.7</ele><time>2013-11-19T12:54:19.0000000+00:00</time></trkpt><trkpt lat="31.01849175" lon="34.76185226"><ele>341.7</ele><time>2013-11-19T12:54:24.0000000+00:00</time></trkpt><trkpt lat="31.01850319" lon="34.76182938"><ele>341.8</ele><time>2013-11-19T12:54:29.0000000+00:00</time></trkpt><trkpt lat="31.01855087" lon="34.76173019"><ele>340.4</ele><time>2013-11-19T12:54:34.0000000+00:00</time></trkpt><trkpt lat="31.01859856" lon="34.76161957"><ele>339.7</ele><time>2013-11-19T12:54:39.0000000+00:00</time></trkpt><trkpt lat="31.01865196" lon="34.76149368"><ele>337.8</ele><time>2013-11-19T12:54:44.0000000+00:00</time></trkpt><trkpt lat="31.01871872" lon="34.7613411"><ele>334.8</ele><time>2013-11-19T12:54:49.0000000+00:00</time></trkpt><trkpt lat="31.01880646" lon="34.7611618"><ele>332.3</ele><time>2013-11-19T12:54:54.0000000+00:00</time></trkpt><trkpt lat="31.01891136" lon="34.76097107"><ele>328.0</ele><time>2013-11-19T12:54:59.0000000+00:00</time></trkpt><trkpt lat="31.01910782" lon="34.760746"><ele>323.5</ele><time>2013-11-19T12:55:04.0000000+00:00</time></trkpt><trkpt lat="31.01924515" lon="34.76056671"><ele>320.5</ele><time>2013-11-19T12:55:09.0000000+00:00</time></trkpt><trkpt lat="31.01938057" lon="34.76032257"><ele>317.2</ele><time>2013-11-19T12:55:14.0000000+00:00</time></trkpt><trkpt lat="31.01951981" lon="34.76002121"><ele>313.2</ele><time>2013-11-19T12:55:19.0000000+00:00</time></trkpt><trkpt lat="31.01965904" lon="34.75972748"><ele>309.2</ele><time>2013-11-19T12:55:24.0000000+00:00</time></trkpt><trkpt lat="31.01977539" lon="34.75940323"><ele>306.0</ele><time>2013-11-19T12:55:29.0000000+00:00</time></trkpt><trkpt lat="31.01988602" lon="34.75918961"><ele>303.8</ele><time>2013-11-19T12:55:34.0000000+00:00</time></trkpt><trkpt lat="31.02001762" lon="34.75910568"><ele>302.3</ele><time>2013-11-19T12:55:39.0000000+00:00</time></trkpt><trkpt lat="31.02007866" lon="34.75915146"><ele>303.3</ele><time>2013-11-19T12:55:44.0000000+00:00</time></trkpt><trkpt lat="31.02013207" lon="34.75932694"><ele>305.2</ele><time>2013-11-19T12:55:49.0000000+00:00</time></trkpt><trkpt lat="31.02015495" lon="34.75951386"><ele>308.6</ele><time>2013-11-19T12:55:54.0000000+00:00</time></trkpt><trkpt lat="31.02018738" lon="34.75970459"><ele>310.2</ele><time>2013-11-19T12:55:59.0000000+00:00</time></trkpt><trkpt lat="31.02023125" lon="34.75990295"><ele>311.1</ele><time>2013-11-19T12:56:04.0000000+00:00</time></trkpt><trkpt lat="31.02027893" lon="34.76009369"><ele>312.5</ele><time>2013-11-19T12:56:09.0000000+00:00</time></trkpt><trkpt lat="31.02031899" lon="34.76028442"><ele>314.1</ele><time>2013-11-19T12:56:14.0000000+00:00</time></trkpt><trkpt lat="31.02033234" lon="34.7604599"><ele>316.2</ele><time>2013-11-19T12:56:19.0000000+00:00</time></trkpt><trkpt lat="31.02031899" lon="34.76065445"><ele>318.4</ele><time>2013-11-19T12:56:24.0000000+00:00</time></trkpt><trkpt lat="31.02029038" lon="34.76083374"><ele>320.4</ele><time>2013-11-19T12:56:29.0000000+00:00</time></trkpt><trkpt lat="31.02027512" lon="34.76103973"><ele>320.5</ele><time>2013-11-19T12:56:34.0000000+00:00</time></trkpt><trkpt lat="31.02028084" lon="34.76126099"><ele>320.9</ele><time>2013-11-19T12:56:39.0000000+00:00</time></trkpt><trkpt lat="31.02029038" lon="34.76144791"><ele>321.6</ele><time>2013-11-19T12:56:44.0000000+00:00</time></trkpt><trkpt lat="31.0202713" lon="34.76162338"><ele>322.4</ele><time>2013-11-19T12:56:49.0000000+00:00</time></trkpt><trkpt lat="31.02024841" lon="34.76178742"><ele>322.7</ele><time>2013-11-19T12:56:54.0000000+00:00</time></trkpt><trkpt lat="31.02021408" lon="34.76197434"><ele>322.6</ele><time>2013-11-19T12:56:59.0000000+00:00</time></trkpt><trkpt lat="31.02015877" lon="34.76215363"><ele>322.5</ele><time>2013-11-19T12:57:04.0000000+00:00</time></trkpt><trkpt lat="31.02009773" lon="34.76234436"><ele>322.7</ele><time>2013-11-19T12:57:09.0000000+00:00</time></trkpt><trkpt lat="31.02003479" lon="34.76250839"><ele>323.1</ele><time>2013-11-19T12:57:14.0000000+00:00</time></trkpt><trkpt lat="31.01996994" lon="34.76267624"><ele>323.5</ele><time>2013-11-19T12:57:19.0000000+00:00</time></trkpt><trkpt lat="31.01991844" lon="34.76282501"><ele>323.9</ele><time>2013-11-19T12:57:24.0000000+00:00</time></trkpt><trkpt lat="31.0198555" lon="34.76298904"><ele>323.8</ele><time>2013-11-19T12:57:29.0000000+00:00</time></trkpt><trkpt lat="31.01978684" lon="34.76315689"><ele>324.1</ele><time>2013-11-19T12:57:34.0000000+00:00</time></trkpt><trkpt lat="31.01972199" lon="34.76330948"><ele>324.1</ele><time>2013-11-19T12:57:39.0000000+00:00</time></trkpt><trkpt lat="31.01966286" lon="34.76349258"><ele>324.2</ele><time>2013-11-19T12:57:44.0000000+00:00</time></trkpt><trkpt lat="31.01961517" lon="34.76368332"><ele>325.1</ele><time>2013-11-19T12:57:49.0000000+00:00</time></trkpt><trkpt lat="31.01957512" lon="34.7638855"><ele>325.5</ele><time>2013-11-19T12:57:54.0000000+00:00</time></trkpt><trkpt lat="31.01953697" lon="34.76406097"><ele>325.6</ele><time>2013-11-19T12:57:59.0000000+00:00</time></trkpt><trkpt lat="31.01950455" lon="34.76425552"><ele>326.0</ele><time>2013-11-19T12:58:04.0000000+00:00</time></trkpt><trkpt lat="31.01947403" lon="34.76441956"><ele>325.9</ele><time>2013-11-19T12:58:09.0000000+00:00</time></trkpt><trkpt lat="31.01944351" lon="34.76459122"><ele>325.8</ele><time>2013-11-19T12:58:14.0000000+00:00</time></trkpt><trkpt lat="31.01940918" lon="34.76477051"><ele>325.9</ele><time>2013-11-19T12:58:19.0000000+00:00</time></trkpt><trkpt lat="31.01937485" lon="34.76496506"><ele>325.5</ele><time>2013-11-19T12:58:24.0000000+00:00</time></trkpt><trkpt lat="31.01934242" lon="34.76515961"><ele>325.5</ele><time>2013-11-19T12:58:29.0000000+00:00</time></trkpt><trkpt lat="31.01930809" lon="34.76535797"><ele>325.5</ele><time>2013-11-19T12:58:34.0000000+00:00</time></trkpt><trkpt lat="31.01927376" lon="34.76557541"><ele>325.8</ele><time>2013-11-19T12:58:39.0000000+00:00</time></trkpt><trkpt lat="31.01925087" lon="34.76574326"><ele>325.9</ele><time>2013-11-19T12:58:44.0000000+00:00</time></trkpt><trkpt lat="31.01922035" lon="34.76594162"><ele>326.2</ele><time>2013-11-19T12:58:49.0000000+00:00</time></trkpt><trkpt lat="31.01920128" lon="34.76610947"><ele>326.8</ele><time>2013-11-19T12:58:54.0000000+00:00</time></trkpt><trkpt lat="31.01917648" lon="34.76626587"><ele>327.0</ele><time>2013-11-19T12:58:59.0000000+00:00</time></trkpt><trkpt lat="31.01914406" lon="34.7664566"><ele>327.6</ele><time>2013-11-19T12:59:04.0000000+00:00</time></trkpt><trkpt lat="31.019104" lon="34.76665115"><ele>328.0</ele><time>2013-11-19T12:59:09.0000000+00:00</time></trkpt><trkpt lat="31.01906204" lon="34.76681519"><ele>328.7</ele><time>2013-11-19T12:59:14.0000000+00:00</time></trkpt><trkpt lat="31.01900864" lon="34.76698685"><ele>328.9</ele><time>2013-11-19T12:59:19.0000000+00:00</time></trkpt><trkpt lat="31.01897049" lon="34.76715469"><ele>329.1</ele><time>2013-11-19T12:59:24.0000000+00:00</time></trkpt><trkpt lat="31.01895142" lon="34.76730728"><ele>329.3</ele><time>2013-11-19T12:59:29.0000000+00:00</time></trkpt><trkpt lat="31.01893807" lon="34.76741028"><ele>330.2</ele><time>2013-11-19T12:59:34.0000000+00:00</time></trkpt><trkpt lat="31.01893425" lon="34.76748276"><ele>330.8</ele><time>2013-11-19T12:59:39.0000000+00:00</time></trkpt><trkpt lat="31.01892853" lon="34.76754761"><ele>331.0</ele><time>2013-11-19T12:59:44.0000000+00:00</time></trkpt><trkpt lat="31.01892471" lon="34.76760483"><ele>331.1</ele><time>2013-11-19T12:59:49.0000000+00:00</time></trkpt><trkpt lat="31.01892281" lon="34.76766586"><ele>331.3</ele><time>2013-11-19T12:59:54.0000000+00:00</time></trkpt><trkpt lat="31.0189209" lon="34.76766968"><ele>331.5</ele><time>2013-11-19T12:59:59.0000000+00:00</time></trkpt><trkpt lat="31.0189209" lon="34.76766586"><ele>331.5</ele><time>2013-11-19T13:00:04.0000000+00:00</time></trkpt><trkpt lat="31.0189209" lon="34.76766586"><ele>331.5</ele><time>2013-11-19T13:00:09.0000000+00:00</time></trkpt><trkpt lat="31.01891708" lon="34.76767731"><ele>331.6</ele><time>2013-11-19T13:00:14.0000000+00:00</time></trkpt><trkpt lat="31.0188961" lon="34.76764679"><ele>330.9</ele><time>2013-11-19T13:00:19.0000000+00:00</time></trkpt><trkpt lat="31.01891327" lon="34.7674942"><ele>329.9</ele><time>2013-11-19T13:00:24.0000000+00:00</time></trkpt><trkpt lat="31.01893616" lon="34.76728821"><ele>328.5</ele><time>2013-11-19T13:00:29.0000000+00:00</time></trkpt><trkpt lat="31.01897621" lon="34.76705933"><ele>327.6</ele><time>2013-11-19T13:00:34.0000000+00:00</time></trkpt><trkpt lat="31.01902771" lon="34.7668457"><ele>326.6</ele><time>2013-11-19T13:00:39.0000000+00:00</time></trkpt><trkpt lat="31.01908302" lon="34.76661682"><ele>324.7</ele><time>2013-11-19T13:00:44.0000000+00:00</time></trkpt><trkpt lat="31.01913071" lon="34.76634979"><ele>322.7</ele><time>2013-11-19T13:00:49.0000000+00:00</time></trkpt><trkpt lat="31.01917076" lon="34.76608658"><ele>321.4</ele><time>2013-11-19T13:00:54.0000000+00:00</time></trkpt><trkpt lat="31.01920509" lon="34.76582336"><ele>320.4</ele><time>2013-11-19T13:00:59.0000000+00:00</time></trkpt><trkpt lat="31.01923752" lon="34.76559448"><ele>318.8</ele><time>2013-11-19T13:01:04.0000000+00:00</time></trkpt><trkpt lat="31.01927567" lon="34.76538467"><ele>318.1</ele><time>2013-11-19T13:01:09.0000000+00:00</time></trkpt><trkpt lat="31.01930618" lon="34.76520157"><ele>316.9</ele><time>2013-11-19T13:01:14.0000000+00:00</time></trkpt><trkpt lat="31.01934433" lon="34.76501846"><ele>316.0</ele><time>2013-11-19T13:01:19.0000000+00:00</time></trkpt><trkpt lat="31.01937485" lon="34.76483154"><ele>315.1</ele><time>2013-11-19T13:01:24.0000000+00:00</time></trkpt><trkpt lat="31.01940727" lon="34.76463318"><ele>314.2</ele><time>2013-11-19T13:01:29.0000000+00:00</time></trkpt><trkpt lat="31.01945877" lon="34.76441956"><ele>313.3</ele><time>2013-11-19T13:01:34.0000000+00:00</time></trkpt><trkpt lat="31.01950264" lon="34.76420593"><ele>311.9</ele><time>2013-11-19T13:01:39.0000000+00:00</time></trkpt><trkpt lat="31.01954651" lon="34.76397705"><ele>310.8</ele><time>2013-11-19T13:01:44.0000000+00:00</time></trkpt><trkpt lat="31.01960182" lon="34.76373673"><ele>310.1</ele><time>2013-11-19T13:01:49.0000000+00:00</time></trkpt><trkpt lat="31.01966095" lon="34.76350403"><ele>309.0</ele><time>2013-11-19T13:01:54.0000000+00:00</time></trkpt><trkpt lat="31.01973152" lon="34.76328278"><ele>308.0</ele><time>2013-11-19T13:01:59.0000000+00:00</time></trkpt><trkpt lat="31.01980209" lon="34.76307678"><ele>307.3</ele><time>2013-11-19T13:02:04.0000000+00:00</time></trkpt><trkpt lat="31.0198803" lon="34.76286316"><ele>306.8</ele><time>2013-11-19T13:02:09.0000000+00:00</time></trkpt><trkpt lat="31.01994515" lon="34.76268005"><ele>306.1</ele><time>2013-11-19T13:02:14.0000000+00:00</time></trkpt><trkpt lat="31.02000809" lon="34.76251602"><ele>305.4</ele><time>2013-11-19T13:02:19.0000000+00:00</time></trkpt><trkpt lat="31.02006912" lon="34.76234055"><ele>304.4</ele><time>2013-11-19T13:02:24.0000000+00:00</time></trkpt><trkpt lat="31.02012444" lon="34.76215744"><ele>303.8</ele><time>2013-11-19T13:02:29.0000000+00:00</time></trkpt><trkpt lat="31.02017975" lon="34.76193237"><ele>303.4</ele><time>2013-11-19T13:02:34.0000000+00:00</time></trkpt><trkpt lat="31.02022171" lon="34.76169968"><ele>303.3</ele><time>2013-11-19T13:02:39.0000000+00:00</time></trkpt><trkpt lat="31.02024651" lon="34.76145172"><ele>302.3</ele><time>2013-11-19T13:02:44.0000000+00:00</time></trkpt><trkpt lat="31.02024078" lon="34.76118088"><ele>301.7</ele><time>2013-11-19T13:02:49.0000000+00:00</time></trkpt><trkpt lat="31.0202446" lon="34.76091766"><ele>301.4</ele><time>2013-11-19T13:02:54.0000000+00:00</time></trkpt><trkpt lat="31.02027512" lon="34.76070023"><ele>300.6</ele><time>2013-11-19T13:02:59.0000000+00:00</time></trkpt><trkpt lat="31.02029991" lon="34.76045227"><ele>299.9</ele><time>2013-11-19T13:03:04.0000000+00:00</time></trkpt><trkpt lat="31.02026558" lon="34.7601738"><ele>299.9</ele><time>2013-11-19T13:03:09.0000000+00:00</time></trkpt><trkpt lat="31.02020073" lon="34.75992203"><ele>299.7</ele><time>2013-11-19T13:03:14.0000000+00:00</time></trkpt><trkpt lat="31.02014351" lon="34.75966263"><ele>299.1</ele><time>2013-11-19T13:03:19.0000000+00:00</time></trkpt><trkpt lat="31.02010918" lon="34.75942612"><ele>299.2</ele><time>2013-11-19T13:03:24.0000000+00:00</time></trkpt><trkpt lat="31.02004623" lon="34.75917053"><ele>299.0</ele><time>2013-11-19T13:03:29.0000000+00:00</time></trkpt><trkpt lat="31.01990509" lon="34.75890732"><ele>299.9</ele><time>2013-11-19T13:03:34.0000000+00:00</time></trkpt><trkpt lat="31.0197506" lon="34.75866318"><ele>299.7</ele><time>2013-11-19T13:03:39.0000000+00:00</time></trkpt><trkpt lat="31.01963234" lon="34.75838852"><ele>298.7</ele><time>2013-11-19T13:03:44.0000000+00:00</time></trkpt><trkpt lat="31.01947975" lon="34.75809097"><ele>297.1</ele><time>2013-11-19T13:03:49.0000000+00:00</time></trkpt><trkpt lat="31.01932526" lon="34.75777817"><ele>296.3</ele><time>2013-11-19T13:03:54.0000000+00:00</time></trkpt><trkpt lat="31.01924324" lon="34.75749588"><ele>296.5</ele><time>2013-11-19T13:03:59.0000000+00:00</time></trkpt><trkpt lat="31.01912117" lon="34.75733566"><ele>298.2</ele><time>2013-11-19T13:04:04.0000000+00:00</time></trkpt><trkpt lat="31.0190239" lon="34.75718308"><ele>297.4</ele><time>2013-11-19T13:04:09.0000000+00:00</time></trkpt><trkpt lat="31.01902771" lon="34.75692368"><ele>295.9</ele><time>2013-11-19T13:04:14.0000000+00:00</time></trkpt><trkpt lat="31.01919556" lon="34.75677872"><ele>296.0</ele><time>2013-11-19T13:04:19.0000000+00:00</time></trkpt><trkpt lat="31.01935768" lon="34.75667572"><ele>296.9</ele><time>2013-11-19T13:04:24.0000000+00:00</time></trkpt><trkpt lat="31.0194912" lon="34.75657272"><ele>297.3</ele><time>2013-11-19T13:04:29.0000000+00:00</time></trkpt><trkpt lat="31.01963615" lon="34.75644684"><ele>297.6</ele><time>2013-11-19T13:04:34.0000000+00:00</time></trkpt><trkpt lat="31.01979065" lon="34.75630951"><ele>297.5</ele><time>2013-11-19T13:04:39.0000000+00:00</time></trkpt><trkpt lat="31.01995659" lon="34.75617981"><ele>297.5</ele><time>2013-11-19T13:04:44.0000000+00:00</time></trkpt><trkpt lat="31.02011871" lon="34.7560463"><ele>297.6</ele><time>2013-11-19T13:04:49.0000000+00:00</time></trkpt><trkpt lat="31.02028084" lon="34.75588226"><ele>297.1</ele><time>2013-11-19T13:04:54.0000000+00:00</time></trkpt><trkpt lat="31.02046394" lon="34.7557106"><ele>296.3</ele><time>2013-11-19T13:04:59.0000000+00:00</time></trkpt><trkpt lat="31.02064705" lon="34.75557709"><ele>295.7</ele><time>2013-11-19T13:05:04.0000000+00:00</time></trkpt><trkpt lat="31.0208416" lon="34.75545883"><ele>295.3</ele><time>2013-11-19T13:05:09.0000000+00:00</time></trkpt><trkpt lat="31.020998" lon="34.75536728"><ele>295.2</ele><time>2013-11-19T13:05:14.0000000+00:00</time></trkpt><trkpt lat="31.02108955" lon="34.75521088"><ele>294.1</ele><time>2013-11-19T13:05:19.0000000+00:00</time></trkpt><trkpt lat="31.02119827" lon="34.75508118"><ele>294.0</ele><time>2013-11-19T13:05:24.0000000+00:00</time></trkpt><trkpt lat="31.02136803" lon="34.75495529"><ele>294.0</ele><time>2013-11-19T13:05:29.0000000+00:00</time></trkpt><trkpt lat="31.02155495" lon="34.75481796"><ele>294.1</ele><time>2013-11-19T13:05:34.0000000+00:00</time></trkpt><trkpt lat="31.02171516" lon="34.75469589"><ele>294.1</ele><time>2013-11-19T13:05:39.0000000+00:00</time></trkpt><trkpt lat="31.02188873" lon="34.75455475"><ele>294.2</ele><time>2013-11-19T13:05:44.0000000+00:00</time></trkpt><trkpt lat="31.02209282" lon="34.75437927"><ele>294.0</ele><time>2013-11-19T13:05:49.0000000+00:00</time></trkpt><trkpt lat="31.02229691" lon="34.75420761"><ele>293.6</ele><time>2013-11-19T13:05:54.0000000+00:00</time></trkpt><trkpt lat="31.02251244" lon="34.75401688"><ele>293.5</ele><time>2013-11-19T13:05:59.0000000+00:00</time></trkpt><trkpt lat="31.02273369" lon="34.75382996"><ele>293.3</ele><time>2013-11-19T13:06:04.0000000+00:00</time></trkpt><trkpt lat="31.02295685" lon="34.75363922"><ele>292.7</ele><time>2013-11-19T13:06:09.0000000+00:00</time></trkpt><trkpt lat="31.02318955" lon="34.75343323"><ele>291.9</ele><time>2013-11-19T13:06:14.0000000+00:00</time></trkpt><trkpt lat="31.02341843" lon="34.75323868"><ele>291.3</ele><time>2013-11-19T13:06:19.0000000+00:00</time></trkpt><trkpt lat="31.02363968" lon="34.75305176"><ele>291.5</ele><time>2013-11-19T13:06:24.0000000+00:00</time></trkpt><trkpt lat="31.02388382" lon="34.75284195"><ele>291.3</ele><time>2013-11-19T13:06:29.0000000+00:00</time></trkpt><trkpt lat="31.02411842" lon="34.75264359"><ele>291.4</ele><time>2013-11-19T13:06:34.0000000+00:00</time></trkpt><trkpt lat="31.02433586" lon="34.75244904"><ele>291.6</ele><time>2013-11-19T13:06:39.0000000+00:00</time></trkpt><trkpt lat="31.0245533" lon="34.75226593"><ele>292.0</ele><time>2013-11-19T13:06:44.0000000+00:00</time></trkpt><trkpt lat="31.02478027" lon="34.75207901"><ele>292.1</ele><time>2013-11-19T13:06:49.0000000+00:00</time></trkpt><trkpt lat="31.02500534" lon="34.75189591"><ele>292.0</ele><time>2013-11-19T13:06:54.0000000+00:00</time></trkpt><trkpt lat="31.02521896" lon="34.75172806"><ele>291.8</ele><time>2013-11-19T13:06:59.0000000+00:00</time></trkpt><trkpt lat="31.02541924" lon="34.75158691"><ele>291.3</ele><time>2013-11-19T13:07:04.0000000+00:00</time></trkpt><trkpt lat="31.02563667" lon="34.75143051"><ele>291.3</ele><time>2013-11-19T13:07:09.0000000+00:00</time></trkpt><trkpt lat="31.02585411" lon="34.75127792"><ele>292.4</ele><time>2013-11-19T13:07:14.0000000+00:00</time></trkpt><trkpt lat="31.02606201" lon="34.75113678"><ele>293.1</ele><time>2013-11-19T13:07:19.0000000+00:00</time></trkpt><trkpt lat="31.02625275" lon="34.75100327"><ele>293.4</ele><time>2013-11-19T13:07:24.0000000+00:00</time></trkpt><trkpt lat="31.02641487" lon="34.75089264"><ele>293.9</ele><time>2013-11-19T13:07:29.0000000+00:00</time></trkpt><trkpt lat="31.02659416" lon="34.75079346"><ele>294.2</ele><time>2013-11-19T13:07:34.0000000+00:00</time></trkpt><trkpt lat="31.02675438" lon="34.75071335"><ele>294.5</ele><time>2013-11-19T13:07:39.0000000+00:00</time></trkpt><trkpt lat="31.02695656" lon="34.75064087"><ele>295.1</ele><time>2013-11-19T13:07:44.0000000+00:00</time></trkpt><trkpt lat="31.02714539" lon="34.75059509"><ele>295.6</ele><time>2013-11-19T13:07:49.0000000+00:00</time></trkpt><trkpt lat="31.0272789" lon="34.75056839"><ele>295.9</ele><time>2013-11-19T13:07:54.0000000+00:00</time></trkpt><trkpt lat="31.02743149" lon="34.75054169"><ele>296.5</ele><time>2013-11-19T13:07:59.0000000+00:00</time></trkpt><trkpt lat="31.02755165" lon="34.75052261"><ele>297.2</ele><time>2013-11-19T13:08:04.0000000+00:00</time></trkpt><trkpt lat="31.02769661" lon="34.75049973"><ele>297.4</ele><time>2013-11-19T13:08:09.0000000+00:00</time></trkpt><trkpt lat="31.02788162" lon="34.75046539"><ele>297.1</ele><time>2013-11-19T13:08:14.0000000+00:00</time></trkpt><trkpt lat="31.02809334" lon="34.75043106"><ele>297.2</ele><time>2013-11-19T13:08:19.0000000+00:00</time></trkpt><trkpt lat="31.02829361" lon="34.75040054"><ele>297.2</ele><time>2013-11-19T13:08:24.0000000+00:00</time></trkpt><trkpt lat="31.02845001" lon="34.75037766"><ele>297.2</ele><time>2013-11-19T13:08:29.0000000+00:00</time></trkpt><trkpt lat="31.02860642" lon="34.75035095"><ele>297.2</ele><time>2013-11-19T13:08:34.0000000+00:00</time></trkpt><trkpt lat="31.02879334" lon="34.75032425"><ele>297.1</ele><time>2013-11-19T13:08:39.0000000+00:00</time></trkpt><trkpt lat="31.02899742" lon="34.75028992"><ele>296.8</ele><time>2013-11-19T13:08:44.0000000+00:00</time></trkpt><trkpt lat="31.02918625" lon="34.75026703"><ele>297.0</ele><time>2013-11-19T13:08:49.0000000+00:00</time></trkpt><trkpt lat="31.02940559" lon="34.7502327"><ele>296.8</ele><time>2013-11-19T13:08:54.0000000+00:00</time></trkpt><trkpt lat="31.02962875" lon="34.75020218"><ele>296.1</ele><time>2013-11-19T13:08:59.0000000+00:00</time></trkpt><trkpt lat="31.02985191" lon="34.75016785"><ele>295.9</ele><time>2013-11-19T13:09:04.0000000+00:00</time></trkpt><trkpt lat="31.03009987" lon="34.75013733"><ele>295.6</ele><time>2013-11-19T13:09:09.0000000+00:00</time></trkpt><trkpt lat="31.03035355" lon="34.750103"><ele>295.5</ele><time>2013-11-19T13:09:14.0000000+00:00</time></trkpt><trkpt lat="31.03061104" lon="34.75006485"><ele>294.5</ele><time>2013-11-19T13:09:19.0000000+00:00</time></trkpt><trkpt lat="31.03083611" lon="34.75003433"><ele>294.0</ele><time>2013-11-19T13:09:24.0000000+00:00</time></trkpt><trkpt lat="31.03107262" lon="34.74999619"><ele>294.0</ele><time>2013-11-19T13:09:29.0000000+00:00</time></trkpt><trkpt lat="31.03132057" lon="34.74995804"><ele>294.1</ele><time>2013-11-19T13:09:34.0000000+00:00</time></trkpt><trkpt lat="31.03152847" lon="34.74993515"><ele>294.2</ele><time>2013-11-19T13:09:39.0000000+00:00</time></trkpt><trkpt lat="31.03173256" lon="34.74991226"><ele>294.3</ele><time>2013-11-19T13:09:44.0000000+00:00</time></trkpt><trkpt lat="31.03197289" lon="34.74987793"><ele>294.6</ele><time>2013-11-19T13:09:49.0000000+00:00</time></trkpt><trkpt lat="31.03221893" lon="34.7498436"><ele>294.7</ele><time>2013-11-19T13:09:54.0000000+00:00</time></trkpt><trkpt lat="31.03244019" lon="34.74982452"><ele>295.5</ele><time>2013-11-19T13:09:59.0000000+00:00</time></trkpt><trkpt lat="31.03268814" lon="34.74979782"><ele>296.6</ele><time>2013-11-19T13:10:04.0000000+00:00</time></trkpt><trkpt lat="31.03292084" lon="34.74977112"><ele>296.7</ele><time>2013-11-19T13:10:09.0000000+00:00</time></trkpt><trkpt lat="31.03315163" lon="34.74974442"><ele>297.7</ele><time>2013-11-19T13:10:14.0000000+00:00</time></trkpt><trkpt lat="31.03341484" lon="34.7497139"><ele>297.9</ele><time>2013-11-19T13:10:19.0000000+00:00</time></trkpt><trkpt lat="31.03367233" lon="34.74968338"><ele>297.6</ele><time>2013-11-19T13:10:24.0000000+00:00</time></trkpt><trkpt lat="31.0339241" lon="34.74962997"><ele>299.0</ele><time>2013-11-19T13:10:29.0000000+00:00</time></trkpt><trkpt lat="31.0341835" lon="34.74959946"><ele>299.0</ele><time>2013-11-19T13:10:34.0000000+00:00</time></trkpt><trkpt lat="31.0344429" lon="34.74955368"><ele>299.3</ele><time>2013-11-19T13:10:39.0000000+00:00</time></trkpt><trkpt lat="31.03470993" lon="34.74951935"><ele>299.5</ele><time>2013-11-19T13:10:44.0000000+00:00</time></trkpt><trkpt lat="31.03495979" lon="34.7494545"><ele>300.1</ele><time>2013-11-19T13:10:49.0000000+00:00</time></trkpt><trkpt lat="31.0352211" lon="34.74933624"><ele>301.2</ele><time>2013-11-19T13:10:54.0000000+00:00</time></trkpt><trkpt lat="31.03547478" lon="34.74921417"><ele>303.2</ele><time>2013-11-19T13:10:59.0000000+00:00</time></trkpt><trkpt lat="31.03570366" lon="34.7490654"><ele>303.1</ele><time>2013-11-19T13:11:04.0000000+00:00</time></trkpt><trkpt lat="31.03591728" lon="34.748909"><ele>300.7</ele><time>2013-11-19T13:11:09.0000000+00:00</time></trkpt><trkpt lat="31.03612518" lon="34.74874115"><ele>299.2</ele><time>2013-11-19T13:11:14.0000000+00:00</time></trkpt><trkpt lat="31.03635788" lon="34.74852753"><ele>297.8</ele><time>2013-11-19T13:11:19.0000000+00:00</time></trkpt><trkpt lat="31.03656197" lon="34.7483139"><ele>297.3</ele><time>2013-11-19T13:11:24.0000000+00:00</time></trkpt><trkpt lat="31.03673744" lon="34.74808502"><ele>296.5</ele><time>2013-11-19T13:11:29.0000000+00:00</time></trkpt><trkpt lat="31.03689766" lon="34.74784088"><ele>296.8</ele><time>2013-11-19T13:11:34.0000000+00:00</time></trkpt><trkpt lat="31.03704834" lon="34.74760437"><ele>295.9</ele><time>2013-11-19T13:11:39.0000000+00:00</time></trkpt><trkpt lat="31.03717041" lon="34.74738312"><ele>296.2</ele><time>2013-11-19T13:11:44.0000000+00:00</time></trkpt><trkpt lat="31.03728485" lon="34.74714661"><ele>295.8</ele><time>2013-11-19T13:11:49.0000000+00:00</time></trkpt><trkpt lat="31.03738785" lon="34.74692154"><ele>295.8</ele><time>2013-11-19T13:11:54.0000000+00:00</time></trkpt><trkpt lat="31.03749847" lon="34.74668121"><ele>294.4</ele><time>2013-11-19T13:11:59.0000000+00:00</time></trkpt><trkpt lat="31.03760147" lon="34.74646378"><ele>293.7</ele><time>2013-11-19T13:12:04.0000000+00:00</time></trkpt><trkpt lat="31.03771401" lon="34.74620438"><ele>292.0</ele><time>2013-11-19T13:12:09.0000000+00:00</time></trkpt><trkpt lat="31.03783798" lon="34.74595261"><ele>291.1</ele><time>2013-11-19T13:12:14.0000000+00:00</time></trkpt><trkpt lat="31.03796959" lon="34.74565888"><ele>290.0</ele><time>2013-11-19T13:12:19.0000000+00:00</time></trkpt><trkpt lat="31.0381012" lon="34.74537277"><ele>289.2</ele><time>2013-11-19T13:12:24.0000000+00:00</time></trkpt><trkpt lat="31.03822136" lon="34.74510193"><ele>287.9</ele><time>2013-11-19T13:12:29.0000000+00:00</time></trkpt><trkpt lat="31.03833389" lon="34.74483872"><ele>286.8</ele><time>2013-11-19T13:12:34.0000000+00:00</time></trkpt><trkpt lat="31.03845215" lon="34.74458313"><ele>285.8</ele><time>2013-11-19T13:12:39.0000000+00:00</time></trkpt><trkpt lat="31.03856087" lon="34.74433899"><ele>285.3</ele><time>2013-11-19T13:12:44.0000000+00:00</time></trkpt><trkpt lat="31.0386734" lon="34.74407196"><ele>284.8</ele><time>2013-11-19T13:12:49.0000000+00:00</time></trkpt><trkpt lat="31.03878021" lon="34.74382401"><ele>283.9</ele><time>2013-11-19T13:12:54.0000000+00:00</time></trkpt><trkpt lat="31.03888702" lon="34.74358368"><ele>283.3</ele><time>2013-11-19T13:12:59.0000000+00:00</time></trkpt><trkpt lat="31.03899956" lon="34.74331284"><ele>282.3</ele><time>2013-11-19T13:13:04.0000000+00:00</time></trkpt><trkpt lat="31.03911591" lon="34.74305725"><ele>281.5</ele><time>2013-11-19T13:13:09.0000000+00:00</time></trkpt><trkpt lat="31.03922844" lon="34.7428093"><ele>281.2</ele><time>2013-11-19T13:13:14.0000000+00:00</time></trkpt><trkpt lat="31.03933907" lon="34.74257278"><ele>280.5</ele><time>2013-11-19T13:13:19.0000000+00:00</time></trkpt><trkpt lat="31.03945351" lon="34.7423172"><ele>280.1</ele><time>2013-11-19T13:13:24.0000000+00:00</time></trkpt><trkpt lat="31.03957558" lon="34.74202347"><ele>279.7</ele><time>2013-11-19T13:13:29.0000000+00:00</time></trkpt><trkpt lat="31.03970718" lon="34.74171829"><ele>279.6</ele><time>2013-11-19T13:13:34.0000000+00:00</time></trkpt><trkpt lat="31.03983116" lon="34.74142456"><ele>279.3</ele><time>2013-11-19T13:13:39.0000000+00:00</time></trkpt><trkpt lat="31.03995132" lon="34.74114227"><ele>278.6</ele><time>2013-11-19T13:13:44.0000000+00:00</time></trkpt><trkpt lat="31.03997421" lon="34.74108124"><ele>279.1</ele><time>2013-11-19T13:13:49.0000000+00:00</time></trkpt><trkpt lat="31.03997231" lon="34.74108505"><ele>279.2</ele><time>2013-11-19T13:13:54.0000000+00:00</time></trkpt><trkpt lat="31.0399704" lon="34.74108505"><ele>279.2</ele><time>2013-11-19T13:13:59.0000000+00:00</time></trkpt><trkpt lat="31.0399704" lon="34.74108505"><ele>279.1</ele><time>2013-11-19T13:14:04.0000000+00:00</time></trkpt><trkpt lat="31.0399704" lon="34.74108505"><ele>279.1</ele><time>2013-11-19T13:14:09.0000000+00:00</time></trkpt><trkpt lat="31.03998184" lon="34.74105454"><ele>279.3</ele><time>2013-11-19T13:14:14.0000000+00:00</time></trkpt><trkpt lat="31.04003143" lon="34.74094009"><ele>279.3</ele><time>2013-11-19T13:14:19.0000000+00:00</time></trkpt><trkpt lat="31.04009438" lon="34.74080277"><ele>279.1</ele><time>2013-11-19T13:14:24.0000000+00:00</time></trkpt><trkpt lat="31.04018021" lon="34.7406311"><ele>278.0</ele><time>2013-11-19T13:14:29.0000000+00:00</time></trkpt><trkpt lat="31.04027939" lon="34.7404213"><ele>276.7</ele><time>2013-11-19T13:14:34.0000000+00:00</time></trkpt><trkpt lat="31.04039574" lon="34.74016953"><ele>275.4</ele><time>2013-11-19T13:14:39.0000000+00:00</time></trkpt><trkpt lat="31.04052734" lon="34.73986816"><ele>273.5</ele><time>2013-11-19T13:14:44.0000000+00:00</time></trkpt><trkpt lat="31.04068375" lon="34.73952103"><ele>271.3</ele><time>2013-11-19T13:14:49.0000000+00:00</time></trkpt><trkpt lat="31.04086304" lon="34.7391243"><ele>269.0</ele><time>2013-11-19T13:14:54.0000000+00:00</time></trkpt><trkpt lat="31.04104996" lon="34.73870468"><ele>267.2</ele><time>2013-11-19T13:14:59.0000000+00:00</time></trkpt><trkpt lat="31.04122925" lon="34.73830414"><ele>266.5</ele><time>2013-11-19T13:15:04.0000000+00:00</time></trkpt><trkpt lat="31.04137993" lon="34.73795319"><ele>266.4</ele><time>2013-11-19T13:15:09.0000000+00:00</time></trkpt><trkpt lat="31.04151154" lon="34.73766327"><ele>266.5</ele><time>2013-11-19T13:15:14.0000000+00:00</time></trkpt><trkpt lat="31.04162788" lon="34.73740006"><ele>266.7</ele><time>2013-11-19T13:15:19.0000000+00:00</time></trkpt><trkpt lat="31.04174805" lon="34.73713303"><ele>267.0</ele><time>2013-11-19T13:15:24.0000000+00:00</time></trkpt><trkpt lat="31.04187012" lon="34.73685074"><ele>267.1</ele><time>2013-11-19T13:15:29.0000000+00:00</time></trkpt><trkpt lat="31.04198647" lon="34.73659134"><ele>267.5</ele><time>2013-11-19T13:15:34.0000000+00:00</time></trkpt><trkpt lat="31.04211617" lon="34.73629379"><ele>267.8</ele><time>2013-11-19T13:15:39.0000000+00:00</time></trkpt><trkpt lat="31.04224205" lon="34.73601532"><ele>268.1</ele><time>2013-11-19T13:15:44.0000000+00:00</time></trkpt><trkpt lat="31.04236412" lon="34.73575211"><ele>268.6</ele><time>2013-11-19T13:15:49.0000000+00:00</time></trkpt><trkpt lat="31.0424614" lon="34.73552704"><ele>269.2</ele><time>2013-11-19T13:15:54.0000000+00:00</time></trkpt><trkpt lat="31.0425663" lon="34.73529434"><ele>269.4</ele><time>2013-11-19T13:15:59.0000000+00:00</time></trkpt><trkpt lat="31.04266167" lon="34.73508072"><ele>269.4</ele><time>2013-11-19T13:16:04.0000000+00:00</time></trkpt><trkpt lat="31.04277611" lon="34.73489761"><ele>269.9</ele><time>2013-11-19T13:16:09.0000000+00:00</time></trkpt><trkpt lat="31.04292107" lon="34.73467255"><ele>270.5</ele><time>2013-11-19T13:16:14.0000000+00:00</time></trkpt><trkpt lat="31.04307175" lon="34.73445511"><ele>271.6</ele><time>2013-11-19T13:16:19.0000000+00:00</time></trkpt><trkpt lat="31.04320145" lon="34.73429871"><ele>272.9</ele><time>2013-11-19T13:16:24.0000000+00:00</time></trkpt><trkpt lat="31.04334831" lon="34.73412323"><ele>274.0</ele><time>2013-11-19T13:16:29.0000000+00:00</time></trkpt><trkpt lat="31.04350853" lon="34.73395157"><ele>275.1</ele><time>2013-11-19T13:16:34.0000000+00:00</time></trkpt><trkpt lat="31.04369164" lon="34.73379135"><ele>276.0</ele><time>2013-11-19T13:16:39.0000000+00:00</time></trkpt><trkpt lat="31.04390907" lon="34.73364258"><ele>277.3</ele><time>2013-11-19T13:16:44.0000000+00:00</time></trkpt><trkpt lat="31.04413605" lon="34.73349762"><ele>278.2</ele><time>2013-11-19T13:16:49.0000000+00:00</time></trkpt><trkpt lat="31.04437828" lon="34.73335266"><ele>277.7</ele><time>2013-11-19T13:16:54.0000000+00:00</time></trkpt><trkpt lat="31.04461098" lon="34.73321915"><ele>277.1</ele><time>2013-11-19T13:16:59.0000000+00:00</time></trkpt><trkpt lat="31.04483986" lon="34.73308182"><ele>276.3</ele><time>2013-11-19T13:17:04.0000000+00:00</time></trkpt><trkpt lat="31.04506302" lon="34.73295212"><ele>275.5</ele><time>2013-11-19T13:17:09.0000000+00:00</time></trkpt><trkpt lat="31.04527855" lon="34.73282623"><ele>274.6</ele><time>2013-11-19T13:17:14.0000000+00:00</time></trkpt><trkpt lat="31.0454998" lon="34.73270035"><ele>273.7</ele><time>2013-11-19T13:17:19.0000000+00:00</time></trkpt><trkpt lat="31.04572487" lon="34.7325592"><ele>272.7</ele><time>2013-11-19T13:17:24.0000000+00:00</time></trkpt><trkpt lat="31.04595947" lon="34.73241425"><ele>271.0</ele><time>2013-11-19T13:17:29.0000000+00:00</time></trkpt><trkpt lat="31.04620552" lon="34.73226166"><ele>270.1</ele><time>2013-11-19T13:17:34.0000000+00:00</time></trkpt><trkpt lat="31.04644013" lon="34.73209381"><ele>268.9</ele><time>2013-11-19T13:17:39.0000000+00:00</time></trkpt><trkpt lat="31.0466671" lon="34.73191834"><ele>267.5</ele><time>2013-11-19T13:17:44.0000000+00:00</time></trkpt><trkpt lat="31.04689217" lon="34.73173142"><ele>266.3</ele><time>2013-11-19T13:17:49.0000000+00:00</time></trkpt><trkpt lat="31.04711914" lon="34.73152924"><ele>264.8</ele><time>2013-11-19T13:17:54.0000000+00:00</time></trkpt><trkpt lat="31.04734421" lon="34.7313118"><ele>263.4</ele><time>2013-11-19T13:17:59.0000000+00:00</time></trkpt><trkpt lat="31.04757309" lon="34.73109818"><ele>262.4</ele><time>2013-11-19T13:18:04.0000000+00:00</time></trkpt><trkpt lat="31.04779625" lon="34.73088074"><ele>261.4</ele><time>2013-11-19T13:18:09.0000000+00:00</time></trkpt><trkpt lat="31.04800606" lon="34.73064804"><ele>260.5</ele><time>2013-11-19T13:18:14.0000000+00:00</time></trkpt><trkpt lat="31.04823303" lon="34.73041534"><ele>259.1</ele><time>2013-11-19T13:18:19.0000000+00:00</time></trkpt><trkpt lat="31.04846573" lon="34.73018265"><ele>257.7</ele><time>2013-11-19T13:18:24.0000000+00:00</time></trkpt><trkpt lat="31.04869843" lon="34.72994232"><ele>256.4</ele><time>2013-11-19T13:18:29.0000000+00:00</time></trkpt><trkpt lat="31.04893303" lon="34.72969437"><ele>255.2</ele><time>2013-11-19T13:18:34.0000000+00:00</time></trkpt><trkpt lat="31.04916191" lon="34.72945023"><ele>254.0</ele><time>2013-11-19T13:18:39.0000000+00:00</time></trkpt><trkpt lat="31.04937172" lon="34.7292099"><ele>253.4</ele><time>2013-11-19T13:18:44.0000000+00:00</time></trkpt><trkpt lat="31.04956627" lon="34.72900391"><ele>252.6</ele><time>2013-11-19T13:18:49.0000000+00:00</time></trkpt><trkpt lat="31.04975891" lon="34.72880936"><ele>251.9</ele><time>2013-11-19T13:18:54.0000000+00:00</time></trkpt><trkpt lat="31.0499363" lon="34.72861099"><ele>252.2</ele><time>2013-11-19T13:18:59.0000000+00:00</time></trkpt><trkpt lat="31.0501194" lon="34.728405"><ele>251.7</ele><time>2013-11-19T13:19:04.0000000+00:00</time></trkpt><trkpt lat="31.05028915" lon="34.72821045"><ele>252.7</ele><time>2013-11-19T13:19:09.0000000+00:00</time></trkpt><trkpt lat="31.05045128" lon="34.72800446"><ele>252.6</ele><time>2013-11-19T13:19:14.0000000+00:00</time></trkpt><trkpt lat="31.05059624" lon="34.72779083"><ele>252.1</ele><time>2013-11-19T13:19:19.0000000+00:00</time></trkpt><trkpt lat="31.05071068" lon="34.72761154"><ele>252.2</ele><time>2013-11-19T13:19:24.0000000+00:00</time></trkpt><trkpt lat="31.05077934" lon="34.72747803"><ele>252.6</ele><time>2013-11-19T13:19:29.0000000+00:00</time></trkpt><trkpt lat="31.05079842" lon="34.72732163"><ele>252.3</ele><time>2013-11-19T13:19:34.0000000+00:00</time></trkpt><trkpt lat="31.05068588" lon="34.72722626"><ele>254.1</ele><time>2013-11-19T13:19:39.0000000+00:00</time></trkpt><trkpt lat="31.05061913" lon="34.72719574"><ele>255.6</ele><time>2013-11-19T13:19:44.0000000+00:00</time></trkpt><trkpt lat="31.05055428" lon="34.72714996"><ele>255.8</ele><time>2013-11-19T13:19:49.0000000+00:00</time></trkpt><trkpt lat="31.05045319" lon="34.7270546"><ele>257.0</ele><time>2013-11-19T13:19:54.0000000+00:00</time></trkpt><trkpt lat="31.0503273" lon="34.72694016"><ele>257.7</ele><time>2013-11-19T13:19:59.0000000+00:00</time></trkpt><trkpt lat="31.05018234" lon="34.72679138"><ele>259.6</ele><time>2013-11-19T13:20:04.0000000+00:00</time></trkpt><trkpt lat="31.05005074" lon="34.72665787"><ele>259.8</ele><time>2013-11-19T13:20:09.0000000+00:00</time></trkpt><trkpt lat="31.04993439" lon="34.72655106"><ele>260.4</ele><time>2013-11-19T13:20:14.0000000+00:00</time></trkpt><trkpt lat="31.04980087" lon="34.72641373"><ele>260.4</ele><time>2013-11-19T13:20:19.0000000+00:00</time></trkpt><trkpt lat="31.04963493" lon="34.7262497"><ele>261.3</ele><time>2013-11-19T13:20:24.0000000+00:00</time></trkpt><trkpt lat="31.04946327" lon="34.72608185"><ele>261.4</ele><time>2013-11-19T13:20:29.0000000+00:00</time></trkpt><trkpt lat="31.0492897" lon="34.72591019"><ele>262.1</ele><time>2013-11-19T13:20:34.0000000+00:00</time></trkpt><trkpt lat="31.04910469" lon="34.72574234"><ele>262.7</ele><time>2013-11-19T13:20:39.0000000+00:00</time></trkpt><trkpt lat="31.04892921" lon="34.72556305"><ele>263.1</ele><time>2013-11-19T13:20:44.0000000+00:00</time></trkpt><trkpt lat="31.0487442" lon="34.72539139"><ele>263.6</ele><time>2013-11-19T13:20:49.0000000+00:00</time></trkpt><trkpt lat="31.04857254" lon="34.7252121"><ele>263.6</ele><time>2013-11-19T13:20:54.0000000+00:00</time></trkpt><trkpt lat="31.0484066" lon="34.72504807"><ele>263.7</ele><time>2013-11-19T13:20:59.0000000+00:00</time></trkpt><trkpt lat="31.04825592" lon="34.72489929"><ele>263.3</ele><time>2013-11-19T13:21:04.0000000+00:00</time></trkpt><trkpt lat="31.04811478" lon="34.72473908"><ele>263.6</ele><time>2013-11-19T13:21:09.0000000+00:00</time></trkpt><trkpt lat="31.04794884" lon="34.72457504"><ele>263.8</ele><time>2013-11-19T13:21:14.0000000+00:00</time></trkpt><trkpt lat="31.04780388" lon="34.72444153"><ele>264.0</ele><time>2013-11-19T13:21:19.0000000+00:00</time></trkpt><trkpt lat="31.04774094" lon="34.72432327"><ele>264.1</ele><time>2013-11-19T13:21:24.0000000+00:00</time></trkpt><trkpt lat="31.04768181" lon="34.72426224"><ele>264.8</ele><time>2013-11-19T13:21:29.0000000+00:00</time></trkpt><trkpt lat="31.04757881" lon="34.72422791"><ele>264.8</ele><time>2013-11-19T13:21:34.0000000+00:00</time></trkpt><trkpt lat="31.04746628" lon="34.72415924"><ele>265.3</ele><time>2013-11-19T13:21:39.0000000+00:00</time></trkpt><trkpt lat="31.04738045" lon="34.72409821"><ele>265.4</ele><time>2013-11-19T13:21:44.0000000+00:00</time></trkpt><trkpt lat="31.04731369" lon="34.72405624"><ele>265.7</ele><time>2013-11-19T13:21:49.0000000+00:00</time></trkpt><trkpt lat="31.04722023" lon="34.72402573"><ele>266.3</ele><time>2013-11-19T13:21:54.0000000+00:00</time></trkpt><trkpt lat="31.04713059" lon="34.72399521"><ele>267.1</ele><time>2013-11-19T13:21:59.0000000+00:00</time></trkpt><trkpt lat="31.04705048" lon="34.72394943"><ele>268.2</ele><time>2013-11-19T13:22:04.0000000+00:00</time></trkpt><trkpt lat="31.04694176" lon="34.72390747"><ele>268.8</ele><time>2013-11-19T13:22:09.0000000+00:00</time></trkpt><trkpt lat="31.04683113" lon="34.72387695"><ele>269.6</ele><time>2013-11-19T13:22:14.0000000+00:00</time></trkpt><trkpt lat="31.04668999" lon="34.72386551"><ele>269.9</ele><time>2013-11-19T13:22:19.0000000+00:00</time></trkpt><trkpt lat="31.04653931" lon="34.72386551"><ele>270.1</ele><time>2013-11-19T13:22:24.0000000+00:00</time></trkpt><trkpt lat="31.04637718" lon="34.72386169"><ele>269.5</ele><time>2013-11-19T13:22:29.0000000+00:00</time></trkpt><trkpt lat="31.0462265" lon="34.72388458"><ele>269.0</ele><time>2013-11-19T13:22:34.0000000+00:00</time></trkpt><trkpt lat="31.04606056" lon="34.72391892"><ele>269.5</ele><time>2013-11-19T13:22:39.0000000+00:00</time></trkpt><trkpt lat="31.04587555" lon="34.72398758"><ele>269.4</ele><time>2013-11-19T13:22:44.0000000+00:00</time></trkpt><trkpt lat="31.04569435" lon="34.72408295"><ele>269.8</ele><time>2013-11-19T13:22:49.0000000+00:00</time></trkpt><trkpt lat="31.04553032" lon="34.72416687"><ele>269.9</ele><time>2013-11-19T13:22:54.0000000+00:00</time></trkpt><trkpt lat="31.04537964" lon="34.72423554"><ele>270.3</ele><time>2013-11-19T13:22:59.0000000+00:00</time></trkpt><trkpt lat="31.04525948" lon="34.72428894"><ele>270.7</ele><time>2013-11-19T13:23:04.0000000+00:00</time></trkpt><trkpt lat="31.04516411" lon="34.72431564"><ele>270.9</ele><time>2013-11-19T13:23:09.0000000+00:00</time></trkpt><trkpt lat="31.04506302" lon="34.72433472"><ele>270.9</ele><time>2013-11-19T13:23:14.0000000+00:00</time></trkpt><trkpt lat="31.04496384" lon="34.72436142"><ele>271.4</ele><time>2013-11-19T13:23:19.0000000+00:00</time></trkpt><trkpt lat="31.0448246" lon="34.72437668"><ele>271.1</ele><time>2013-11-19T13:23:24.0000000+00:00</time></trkpt><trkpt lat="31.04467773" lon="34.72437286"><ele>271.4</ele><time>2013-11-19T13:23:29.0000000+00:00</time></trkpt><trkpt lat="31.04452324" lon="34.72432709"><ele>272.0</ele><time>2013-11-19T13:23:34.0000000+00:00</time></trkpt><trkpt lat="31.04437256" lon="34.72429276"><ele>272.2</ele><time>2013-11-19T13:23:39.0000000+00:00</time></trkpt><trkpt lat="31.04423142" lon="34.72428513"><ele>272.3</ele><time>2013-11-19T13:23:44.0000000+00:00</time></trkpt><trkpt lat="31.04410934" lon="34.72426605"><ele>272.8</ele><time>2013-11-19T13:23:49.0000000+00:00</time></trkpt><trkpt lat="31.04403114" lon="34.72424698"><ele>273.2</ele><time>2013-11-19T13:23:54.0000000+00:00</time></trkpt><trkpt lat="31.04395104" lon="34.72421646"><ele>273.4</ele><time>2013-11-19T13:23:59.0000000+00:00</time></trkpt><trkpt lat="31.04387474" lon="34.72418213"><ele>273.5</ele><time>2013-11-19T13:24:04.0000000+00:00</time></trkpt><trkpt lat="31.04376411" lon="34.72418213"><ele>274.3</ele><time>2013-11-19T13:24:09.0000000+00:00</time></trkpt><trkpt lat="31.04362869" lon="34.72412109"><ele>274.2</ele><time>2013-11-19T13:24:14.0000000+00:00</time></trkpt><trkpt lat="31.04350662" lon="34.72405243"><ele>274.1</ele><time>2013-11-19T13:24:19.0000000+00:00</time></trkpt><trkpt lat="31.0433712" lon="34.72400665"><ele>274.9</ele><time>2013-11-19T13:24:24.0000000+00:00</time></trkpt><trkpt lat="31.04324913" lon="34.72393417"><ele>275.2</ele><time>2013-11-19T13:24:29.0000000+00:00</time></trkpt><trkpt lat="31.04309654" lon="34.72385407"><ele>275.3</ele><time>2013-11-19T13:24:34.0000000+00:00</time></trkpt><trkpt lat="31.04294777" lon="34.7237854"><ele>275.7</ele><time>2013-11-19T13:24:39.0000000+00:00</time></trkpt><trkpt lat="31.04278946" lon="34.72370529"><ele>275.6</ele><time>2013-11-19T13:24:44.0000000+00:00</time></trkpt><trkpt lat="31.04264069" lon="34.72363663"><ele>276.2</ele><time>2013-11-19T13:24:49.0000000+00:00</time></trkpt><trkpt lat="31.0425396" lon="34.72359467"><ele>276.0</ele><time>2013-11-19T13:24:54.0000000+00:00</time></trkpt><trkpt lat="31.04241943" lon="34.72352982"><ele>276.5</ele><time>2013-11-19T13:24:59.0000000+00:00</time></trkpt><trkpt lat="31.04229546" lon="34.72345734"><ele>276.4</ele><time>2013-11-19T13:25:04.0000000+00:00</time></trkpt><trkpt lat="31.04216957" lon="34.72338867"><ele>276.9</ele><time>2013-11-19T13:25:09.0000000+00:00</time></trkpt><trkpt lat="31.04205513" lon="34.72331238"><ele>276.4</ele><time>2013-11-19T13:25:14.0000000+00:00</time></trkpt><trkpt lat="31.04197121" lon="34.72322464"><ele>275.5</ele><time>2013-11-19T13:25:19.0000000+00:00</time></trkpt><trkpt lat="31.04187965" lon="34.72309494"><ele>275.6</ele><time>2013-11-19T13:25:24.0000000+00:00</time></trkpt><trkpt lat="31.04178429" lon="34.7229538"><ele>275.1</ele><time>2013-11-19T13:25:29.0000000+00:00</time></trkpt><trkpt lat="31.04169273" lon="34.72281265"><ele>274.5</ele><time>2013-11-19T13:25:34.0000000+00:00</time></trkpt><trkpt lat="31.04162788" lon="34.72270584"><ele>274.1</ele><time>2013-11-19T13:25:39.0000000+00:00</time></trkpt><trkpt lat="31.04154968" lon="34.72256851"><ele>273.8</ele><time>2013-11-19T13:25:44.0000000+00:00</time></trkpt><trkpt lat="31.04146767" lon="34.722435"><ele>273.0</ele><time>2013-11-19T13:25:49.0000000+00:00</time></trkpt><trkpt lat="31.0413971" lon="34.72232056"><ele>272.5</ele><time>2013-11-19T13:25:54.0000000+00:00</time></trkpt><trkpt lat="31.04132652" lon="34.72219467"><ele>271.8</ele><time>2013-11-19T13:25:59.0000000+00:00</time></trkpt><trkpt lat="31.04125786" lon="34.7220726"><ele>271.3</ele><time>2013-11-19T13:26:04.0000000+00:00</time></trkpt><trkpt lat="31.04120064" lon="34.72198868"><ele>271.2</ele><time>2013-11-19T13:26:09.0000000+00:00</time></trkpt><trkpt lat="31.04115105" lon="34.72189713"><ele>271.9</ele><time>2013-11-19T13:26:14.0000000+00:00</time></trkpt><trkpt lat="31.04110909" lon="34.72180557"><ele>271.4</ele><time>2013-11-19T13:26:19.0000000+00:00</time></trkpt><trkpt lat="31.04105949" lon="34.72171021"><ele>271.2</ele><time>2013-11-19T13:26:24.0000000+00:00</time></trkpt><trkpt lat="31.04101753" lon="34.72162628"><ele>270.8</ele><time>2013-11-19T13:26:29.0000000+00:00</time></trkpt><trkpt lat="31.04097748" lon="34.72156525"><ele>270.5</ele><time>2013-11-19T13:26:34.0000000+00:00</time></trkpt><trkpt lat="31.04094315" lon="34.72150803"><ele>270.0</ele><time>2013-11-19T13:26:39.0000000+00:00</time></trkpt><trkpt lat="31.0409317" lon="34.72154236"><ele>269.3</ele><time>2013-11-19T13:26:44.0000000+00:00</time></trkpt><trkpt lat="31.04101753" lon="34.72168732"><ele>269.2</ele><time>2013-11-19T13:26:49.0000000+00:00</time></trkpt><trkpt lat="31.04111099" lon="34.72184372"><ele>269.3</ele><time>2013-11-19T13:26:54.0000000+00:00</time></trkpt><trkpt lat="31.04121208" lon="34.7220192"><ele>269.9</ele><time>2013-11-19T13:26:59.0000000+00:00</time></trkpt><trkpt lat="31.04131317" lon="34.72219467"><ele>270.4</ele><time>2013-11-19T13:27:04.0000000+00:00</time></trkpt><trkpt lat="31.04141045" lon="34.72236252"><ele>271.1</ele><time>2013-11-19T13:27:09.0000000+00:00</time></trkpt><trkpt lat="31.04150391" lon="34.72252274"><ele>272.1</ele><time>2013-11-19T13:27:14.0000000+00:00</time></trkpt><trkpt lat="31.04159737" lon="34.72269058"><ele>273.0</ele><time>2013-11-19T13:27:19.0000000+00:00</time></trkpt><trkpt lat="31.04169464" lon="34.7228508"><ele>273.7</ele><time>2013-11-19T13:27:24.0000000+00:00</time></trkpt><trkpt lat="31.04181099" lon="34.72304153"><ele>274.7</ele><time>2013-11-19T13:27:29.0000000+00:00</time></trkpt><trkpt lat="31.04193115" lon="34.72321701"><ele>275.7</ele><time>2013-11-19T13:27:34.0000000+00:00</time></trkpt><trkpt lat="31.04208374" lon="34.72335815"><ele>276.9</ele><time>2013-11-19T13:27:39.0000000+00:00</time></trkpt><trkpt lat="31.04225159" lon="34.72345734"><ele>276.4</ele><time>2013-11-19T13:27:44.0000000+00:00</time></trkpt><trkpt lat="31.04239082" lon="34.72353363"><ele>275.9</ele><time>2013-11-19T13:27:49.0000000+00:00</time></trkpt><trkpt lat="31.04251099" lon="34.72359848"><ele>275.9</ele><time>2013-11-19T13:27:54.0000000+00:00</time></trkpt><trkpt lat="31.04265404" lon="34.72366715"><ele>276.7</ele><time>2013-11-19T13:27:59.0000000+00:00</time></trkpt><trkpt lat="31.04280853" lon="34.72373581"><ele>276.4</ele><time>2013-11-19T13:28:04.0000000+00:00</time></trkpt><trkpt lat="31.04298973" lon="34.72382355"><ele>276.4</ele><time>2013-11-19T13:28:09.0000000+00:00</time></trkpt><trkpt lat="31.04318237" lon="34.72393417"><ele>276.4</ele><time>2013-11-19T13:28:14.0000000+00:00</time></trkpt><trkpt lat="31.04337692" lon="34.72403336"><ele>276.5</ele><time>2013-11-19T13:28:19.0000000+00:00</time></trkpt><trkpt lat="31.04355812" lon="34.72412872"><ele>275.9</ele><time>2013-11-19T13:28:24.0000000+00:00</time></trkpt><trkpt lat="31.04371452" lon="34.72422791"><ele>276.3</ele><time>2013-11-19T13:28:29.0000000+00:00</time></trkpt><trkpt lat="31.04389191" lon="34.72425079"><ele>276.7</ele><time>2013-11-19T13:28:34.0000000+00:00</time></trkpt><trkpt lat="31.04406548" lon="34.72431564"><ele>276.7</ele><time>2013-11-19T13:28:39.0000000+00:00</time></trkpt><trkpt lat="31.04419518" lon="34.72436142"><ele>276.9</ele><time>2013-11-19T13:28:44.0000000+00:00</time></trkpt><trkpt lat="31.04432678" lon="34.72441101"><ele>277.5</ele><time>2013-11-19T13:28:49.0000000+00:00</time></trkpt><trkpt lat="31.04446602" lon="34.7244339"><ele>278.7</ele><time>2013-11-19T13:28:54.0000000+00:00</time></trkpt><trkpt lat="31.04460144" lon="34.72445297"><ele>279.9</ele><time>2013-11-19T13:28:59.0000000+00:00</time></trkpt><trkpt lat="31.04469109" lon="34.72446442"><ele>281.5</ele><time>2013-11-19T13:29:04.0000000+00:00</time></trkpt><trkpt lat="31.04463005" lon="34.72439957"><ele>281.6</ele><time>2013-11-19T13:29:09.0000000+00:00</time></trkpt><trkpt lat="31.04447365" lon="34.72436905"><ele>280.7</ele><time>2013-11-19T13:29:14.0000000+00:00</time></trkpt><trkpt lat="31.04430389" lon="34.72433472"><ele>280.1</ele><time>2013-11-19T13:29:19.0000000+00:00</time></trkpt><trkpt lat="31.04414177" lon="34.72428894"><ele>279.1</ele><time>2013-11-19T13:29:24.0000000+00:00</time></trkpt><trkpt lat="31.04400063" lon="34.72423935"><ele>278.5</ele><time>2013-11-19T13:29:29.0000000+00:00</time></trkpt><trkpt lat="31.04384041" lon="34.72419739"><ele>277.4</ele><time>2013-11-19T13:29:34.0000000+00:00</time></trkpt><trkpt lat="31.04367447" lon="34.72413254"><ele>277.6</ele><time>2013-11-19T13:29:39.0000000+00:00</time></trkpt><trkpt lat="31.04353142" lon="34.7240448"><ele>277.6</ele><time>2013-11-19T13:29:44.0000000+00:00</time></trkpt><trkpt lat="31.04337692" lon="34.72396851"><ele>278.0</ele><time>2013-11-19T13:29:49.0000000+00:00</time></trkpt><trkpt lat="31.04324341" lon="34.72389603"><ele>276.5</ele><time>2013-11-19T13:29:54.0000000+00:00</time></trkpt><trkpt lat="31.04307747" lon="34.72381592"><ele>277.1</ele><time>2013-11-19T13:29:59.0000000+00:00</time></trkpt><trkpt lat="31.04290009" lon="34.72372818"><ele>276.9</ele><time>2013-11-19T13:30:04.0000000+00:00</time></trkpt><trkpt lat="31.04274559" lon="34.7236557"><ele>277.4</ele><time>2013-11-19T13:30:09.0000000+00:00</time></trkpt><trkpt lat="31.04257774" lon="34.72356796"><ele>277.2</ele><time>2013-11-19T13:30:14.0000000+00:00</time></trkpt><trkpt lat="31.04240036" lon="34.72348785"><ele>276.5</ele><time>2013-11-19T13:30:19.0000000+00:00</time></trkpt><trkpt lat="31.04225922" lon="34.72341156"><ele>276.4</ele><time>2013-11-19T13:30:24.0000000+00:00</time></trkpt><trkpt lat="31.04213333" lon="34.72332764"><ele>275.1</ele><time>2013-11-19T13:30:29.0000000+00:00</time></trkpt><trkpt lat="31.04200745" lon="34.72320557"><ele>275.3</ele><time>2013-11-19T13:30:34.0000000+00:00</time></trkpt><trkpt lat="31.04187965" lon="34.72302628"><ele>275.5</ele><time>2013-11-19T13:30:39.0000000+00:00</time></trkpt><trkpt lat="31.04174614" lon="34.72282791"><ele>274.3</ele><time>2013-11-19T13:30:44.0000000+00:00</time></trkpt><trkpt lat="31.04160881" lon="34.72259903"><ele>273.5</ele><time>2013-11-19T13:30:49.0000000+00:00</time></trkpt><trkpt lat="31.04146767" lon="34.72234726"><ele>272.6</ele><time>2013-11-19T13:30:54.0000000+00:00</time></trkpt><trkpt lat="31.04131889" lon="34.72207642"><ele>271.9</ele><time>2013-11-19T13:30:59.0000000+00:00</time></trkpt><trkpt lat="31.04115868" lon="34.72180176"><ele>271.3</ele><time>2013-11-19T13:31:04.0000000+00:00</time></trkpt><trkpt lat="31.04100227" lon="34.72153473"><ele>271.1</ele><time>2013-11-19T13:31:09.0000000+00:00</time></trkpt><trkpt lat="31.04083824" lon="34.72130203"><ele>270.5</ele><time>2013-11-19T13:31:14.0000000+00:00</time></trkpt><trkpt lat="31.04065895" lon="34.72112656"><ele>270.2</ele><time>2013-11-19T13:31:19.0000000+00:00</time></trkpt><trkpt lat="31.04057694" lon="34.72095871"><ele>271.3</ele><time>2013-11-19T13:31:24.0000000+00:00</time></trkpt><trkpt lat="31.04065514" lon="34.72080612"><ele>271.0</ele><time>2013-11-19T13:31:29.0000000+00:00</time></trkpt><trkpt lat="31.04073715" lon="34.72066498"><ele>270.4</ele><time>2013-11-19T13:31:34.0000000+00:00</time></trkpt><trkpt lat="31.04081726" lon="34.72053528"><ele>270.0</ele><time>2013-11-19T13:31:39.0000000+00:00</time></trkpt><trkpt lat="31.04089546" lon="34.72041321"><ele>269.5</ele><time>2013-11-19T13:31:44.0000000+00:00</time></trkpt><trkpt lat="31.04096794" lon="34.72030258"><ele>268.7</ele><time>2013-11-19T13:31:49.0000000+00:00</time></trkpt><trkpt lat="31.04104042" lon="34.72021866"><ele>268.8</ele><time>2013-11-19T13:31:54.0000000+00:00</time></trkpt><trkpt lat="31.04104805" lon="34.72021103"><ele>269.0</ele><time>2013-11-19T13:31:59.0000000+00:00</time></trkpt><trkpt lat="31.04104805" lon="34.72021103"><ele>268.8</ele><time>2013-11-19T13:32:04.0000000+00:00</time></trkpt><trkpt lat="31.04111671" lon="34.72025299"><ele>271.0</ele><time>2013-11-19T13:32:09.0000000+00:00</time></trkpt><trkpt lat="31.04120827" lon="34.7203064"><ele>271.9</ele><time>2013-11-19T13:32:14.0000000+00:00</time></trkpt><trkpt lat="31.04125214" lon="34.72034454"><ele>273.4</ele><time>2013-11-19T13:32:19.0000000+00:00</time></trkpt><trkpt lat="31.04125404" lon="34.72034454"><ele>274.1</ele><time>2013-11-19T13:32:24.0000000+00:00</time></trkpt><trkpt lat="31.04127693" lon="34.7203598"><ele>275.0</ele><time>2013-11-19T13:32:29.0000000+00:00</time></trkpt><trkpt lat="31.04131317" lon="34.72035217"><ele>275.3</ele><time>2013-11-19T13:32:34.0000000+00:00</time></trkpt><trkpt lat="31.04132271" lon="34.7203598"><ele>275.1</ele><time>2013-11-19T13:32:39.0000000+00:00</time></trkpt><trkpt lat="31.04132271" lon="34.72036362"><ele>275.3</ele><time>2013-11-19T13:32:44.0000000+00:00</time></trkpt><trkpt lat="31.04132271" lon="34.72036362"><ele>275.5</ele><time>2013-11-19T13:32:49.0000000+00:00</time></trkpt><trkpt lat="31.0413208" lon="34.72036743"><ele>275.7</ele><time>2013-11-19T13:32:54.0000000+00:00</time></trkpt><trkpt lat="31.04132652" lon="34.72037125"><ele>276.2</ele><time>2013-11-19T13:32:59.0000000+00:00</time></trkpt><trkpt lat="31.04132843" lon="34.72037506"><ele>276.5</ele><time>2013-11-19T13:33:04.0000000+00:00</time></trkpt><trkpt lat="31.04132843" lon="34.72037506"><ele>276.5</ele><time>2013-11-19T13:33:09.0000000+00:00</time></trkpt><trkpt lat="31.04132462" lon="34.72039032"><ele>276.7</ele><time>2013-11-19T13:33:14.0000000+00:00</time></trkpt><trkpt lat="31.04132462" lon="34.72039032"><ele>277.0</ele><time>2013-11-19T13:33:19.0000000+00:00</time></trkpt><trkpt lat="31.04132462" lon="34.72038651"><ele>277.0</ele><time>2013-11-19T13:33:24.0000000+00:00</time></trkpt><trkpt lat="31.04133034" lon="34.72037506"><ele>276.9</ele><time>2013-11-19T13:33:29.0000000+00:00</time></trkpt><trkpt lat="31.04133606" lon="34.72036743"><ele>276.9</ele><time>2013-11-19T13:33:34.0000000+00:00</time></trkpt><trkpt lat="31.04134178" lon="34.7203598"><ele>276.9</ele><time>2013-11-19T13:33:39.0000000+00:00</time></trkpt><trkpt lat="31.0413456" lon="34.72035217"><ele>277.0</ele><time>2013-11-19T13:33:44.0000000+00:00</time></trkpt><trkpt lat="31.04134941" lon="34.72034454"><ele>276.9</ele><time>2013-11-19T13:33:49.0000000+00:00</time></trkpt><trkpt lat="31.04135323" lon="34.72034073"><ele>276.9</ele><time>2013-11-19T13:33:54.0000000+00:00</time></trkpt><trkpt lat="31.04135323" lon="34.72034073"><ele>276.9</ele><time>2013-11-19T13:33:59.0000000+00:00</time></trkpt><trkpt lat="31.04135323" lon="34.72034073"><ele>276.9</ele><time>2013-11-19T13:34:04.0000000+00:00</time></trkpt><trkpt lat="31.04135323" lon="34.72034454"><ele>276.9</ele><time>2013-11-19T13:34:09.0000000+00:00</time></trkpt><trkpt lat="31.04135323" lon="34.72034454"><ele>276.9</ele><time>2013-11-19T13:34:14.0000000+00:00</time></trkpt><trkpt lat="31.04135323" lon="34.72034454"><ele>277.0</ele><time>2013-11-19T13:34:19.0000000+00:00</time></trkpt><trkpt lat="31.04135323" lon="34.72034454"><ele>277.0</ele><time>2013-11-19T13:34:24.0000000+00:00</time></trkpt><trkpt lat="31.04135323" lon="34.72034454"><ele>277.0</ele><time>2013-11-19T13:34:29.0000000+00:00</time></trkpt><trkpt lat="31.04135323" lon="34.72034454"><ele>277.0</ele><time>2013-11-19T13:34:34.0000000+00:00</time></trkpt><trkpt lat="31.04135323" lon="34.72034454"><ele>277.0</ele><time>2013-11-19T13:34:39.0000000+00:00</time></trkpt><trkpt lat="31.04135323" lon="34.72034836"><ele>277.0</ele><time>2013-11-19T13:34:44.0000000+00:00</time></trkpt><trkpt lat="31.04135323" lon="34.72034836"><ele>277.0</ele><time>2013-11-19T13:34:49.0000000+00:00</time></trkpt><trkpt lat="31.04135323" lon="34.72034836"><ele>277.0</ele><time>2013-11-19T13:34:54.0000000+00:00</time></trkpt><trkpt lat="31.04135323" lon="34.72034836"><ele>277.0</ele><time>2013-11-19T13:34:59.0000000+00:00</time></trkpt><trkpt lat="31.04135323" lon="34.72034836"><ele>276.9</ele><time>2013-11-19T13:35:04.0000000+00:00</time></trkpt><trkpt lat="31.04135323" lon="34.72034836"><ele>276.9</ele><time>2013-11-19T13:35:09.0000000+00:00</time></trkpt><trkpt lat="31.04135323" lon="34.72034836"><ele>276.9</ele><time>2013-11-19T13:35:14.0000000+00:00</time></trkpt><trkpt lat="31.04135323" lon="34.72034836"><ele>277.0</ele><time>2013-11-19T13:35:19.0000000+00:00</time></trkpt><trkpt lat="31.04135323" lon="34.72034836"><ele>277.0</ele><time>2013-11-19T13:35:24.0000000+00:00</time></trkpt><trkpt lat="31.04135323" lon="34.72034836"><ele>277.0</ele><time>2013-11-19T13:35:29.0000000+00:00</time></trkpt><trkpt lat="31.04135323" lon="34.72034836"><ele>277.0</ele><time>2013-11-19T13:35:34.0000000+00:00</time></trkpt><trkpt lat="31.04135323" lon="34.72034836"><ele>277.0</ele><time>2013-11-19T13:35:39.0000000+00:00</time></trkpt><trkpt lat="31.04135323" lon="34.72034836"><ele>277.0</ele><time>2013-11-19T13:35:44.0000000+00:00</time></trkpt><trkpt lat="31.04135323" lon="34.72034836"><ele>277.0</ele><time>2013-11-19T13:35:49.0000000+00:00</time></trkpt><trkpt lat="31.04135323" lon="34.72034836"><ele>277.0</ele><time>2013-11-19T13:35:54.0000000+00:00</time></trkpt><trkpt lat="31.04135323" lon="34.72034836"><ele>277.0</ele><time>2013-11-19T13:35:59.0000000+00:00</time></trkpt><trkpt lat="31.04135323" lon="34.72034836"><ele>277.0</ele><time>2013-11-19T13:36:04.0000000+00:00</time></trkpt><trkpt lat="31.04135323" lon="34.72034836"><ele>277.1</ele><time>2013-11-19T13:36:09.0000000+00:00</time></trkpt><trkpt lat="31.04135323" lon="34.72034836"><ele>277.1</ele><time>2013-11-19T13:36:14.0000000+00:00</time></trkpt><trkpt lat="31.04135323" lon="34.72034836"><ele>277.1</ele><time>2013-11-19T13:36:19.0000000+00:00</time></trkpt><trkpt lat="31.04135323" lon="34.72034836"><ele>277.1</ele><time>2013-11-19T13:36:24.0000000+00:00</time></trkpt><trkpt lat="31.04135323" lon="34.72034836"><ele>277.2</ele><time>2013-11-19T13:36:29.0000000+00:00</time></trkpt><trkpt lat="31.04135323" lon="34.72034836"><ele>277.3</ele><time>2013-11-19T13:36:34.0000000+00:00</time></trkpt><trkpt lat="31.04135323" lon="34.72034454"><ele>277.3</ele><time>2013-11-19T13:36:39.0000000+00:00</time></trkpt><trkpt lat="31.04135132" lon="34.72034836"><ele>277.3</ele><time>2013-11-19T13:36:44.0000000+00:00</time></trkpt><trkpt lat="31.0413475" lon="34.72035217"><ele>277.3</ele><time>2013-11-19T13:36:49.0000000+00:00</time></trkpt><trkpt lat="31.04134178" lon="34.72035599"><ele>277.3</ele><time>2013-11-19T13:36:54.0000000+00:00</time></trkpt><trkpt lat="31.04133797" lon="34.72032547"><ele>277.2</ele><time>2013-11-19T13:36:59.0000000+00:00</time></trkpt><trkpt lat="31.04133415" lon="34.72031021"><ele>277.3</ele><time>2013-11-19T13:37:04.0000000+00:00</time></trkpt><trkpt lat="31.04130936" lon="34.72027969"><ele>278.6</ele><time>2013-11-19T13:37:09.0000000+00:00</time></trkpt><trkpt lat="31.04131317" lon="34.72027969"><ele>278.6</ele><time>2013-11-19T13:37:14.0000000+00:00</time></trkpt><trkpt lat="31.04131317" lon="34.72027588"><ele>278.7</ele><time>2013-11-19T13:37:19.0000000+00:00</time></trkpt><trkpt lat="31.04131317" lon="34.72026825"><ele>278.7</ele><time>2013-11-19T13:37:24.0000000+00:00</time></trkpt><trkpt lat="31.04131508" lon="34.72026062"><ele>278.8</ele><time>2013-11-19T13:37:29.0000000+00:00</time></trkpt><trkpt lat="31.04131699" lon="34.72025681"><ele>278.8</ele><time>2013-11-19T13:37:34.0000000+00:00</time></trkpt><trkpt lat="31.0413208" lon="34.72025299"><ele>278.8</ele><time>2013-11-19T13:37:39.0000000+00:00</time></trkpt><trkpt lat="31.0413208" lon="34.72024918"><ele>278.8</ele><time>2013-11-19T13:37:44.0000000+00:00</time></trkpt><trkpt lat="31.0413208" lon="34.72024536"><ele>278.9</ele><time>2013-11-19T13:37:49.0000000+00:00</time></trkpt><trkpt lat="31.0413208" lon="34.72024536"><ele>278.9</ele><time>2013-11-19T13:37:54.0000000+00:00</time></trkpt><trkpt lat="31.04131889" lon="34.72024918"><ele>279.0</ele><time>2013-11-19T13:37:59.0000000+00:00</time></trkpt><trkpt lat="31.04131889" lon="34.72024918"><ele>279.1</ele><time>2013-11-19T13:38:04.0000000+00:00</time></trkpt><trkpt lat="31.04131889" lon="34.72024918"><ele>279.1</ele><time>2013-11-19T13:38:09.0000000+00:00</time></trkpt><trkpt lat="31.04131889" lon="34.72024918"><ele>279.1</ele><time>2013-11-19T13:38:14.0000000+00:00</time></trkpt><trkpt lat="31.04131889" lon="34.72024918"><ele>279.2</ele><time>2013-11-19T13:38:19.0000000+00:00</time></trkpt><trkpt lat="31.04131699" lon="34.72024918"><ele>279.2</ele><time>2013-11-19T13:38:24.0000000+00:00</time></trkpt><trkpt lat="31.04131699" lon="34.72024918"><ele>279.2</ele><time>2013-11-19T13:38:29.0000000+00:00</time></trkpt><trkpt lat="31.04131699" lon="34.72024918"><ele>279.3</ele><time>2013-11-19T13:38:34.0000000+00:00</time></trkpt><trkpt lat="31.04131699" lon="34.72024918"><ele>279.3</ele><time>2013-11-19T13:38:39.0000000+00:00</time></trkpt><trkpt lat="31.04131699" lon="34.72024536"><ele>279.4</ele><time>2013-11-19T13:38:44.0000000+00:00</time></trkpt><trkpt lat="31.04131699" lon="34.72024536"><ele>279.4</ele><time>2013-11-19T13:38:49.0000000+00:00</time></trkpt><trkpt lat="31.04131508" lon="34.72024536"><ele>279.4</ele><time>2013-11-19T13:38:54.0000000+00:00</time></trkpt><trkpt lat="31.04131508" lon="34.72024536"><ele>279.5</ele><time>2013-11-19T13:38:59.0000000+00:00</time></trkpt><trkpt lat="31.04131508" lon="34.72024536"><ele>279.5</ele><time>2013-11-19T13:39:04.0000000+00:00</time></trkpt><trkpt lat="31.04131508" lon="34.72024536"><ele>279.5</ele><time>2013-11-19T13:39:09.0000000+00:00</time></trkpt><trkpt lat="31.04131508" lon="34.72024536"><ele>279.6</ele><time>2013-11-19T13:39:14.0000000+00:00</time></trkpt><trkpt lat="31.04131508" lon="34.72024536"><ele>279.6</ele><time>2013-11-19T13:39:19.0000000+00:00</time></trkpt><trkpt lat="31.04131317" lon="34.72024536"><ele>279.7</ele><time>2013-11-19T13:39:24.0000000+00:00</time></trkpt><trkpt lat="31.04131317" lon="34.72024536"><ele>279.7</ele><time>2013-11-19T13:39:29.0000000+00:00</time></trkpt><trkpt lat="31.04131317" lon="34.72024155"><ele>279.7</ele><time>2013-11-19T13:39:34.0000000+00:00</time></trkpt><trkpt lat="31.04131317" lon="34.72024155"><ele>279.8</ele><time>2013-11-19T13:39:39.0000000+00:00</time></trkpt><trkpt lat="31.04131317" lon="34.72024155"><ele>279.8</ele><time>2013-11-19T13:39:44.0000000+00:00</time></trkpt><trkpt lat="31.04131317" lon="34.72024155"><ele>279.8</ele><time>2013-11-19T13:39:49.0000000+00:00</time></trkpt><trkpt lat="31.04131126" lon="34.72024155"><ele>279.9</ele><time>2013-11-19T13:39:54.0000000+00:00</time></trkpt><trkpt lat="31.04131126" lon="34.72024155"><ele>279.9</ele><time>2013-11-19T13:39:59.0000000+00:00</time></trkpt><trkpt lat="31.04131126" lon="34.72024155"><ele>279.9</ele><time>2013-11-19T13:40:04.0000000+00:00</time></trkpt><trkpt lat="31.04131126" lon="34.72024155"><ele>279.8</ele><time>2013-11-19T13:40:09.0000000+00:00</time></trkpt><trkpt lat="31.04131126" lon="34.72024155"><ele>279.9</ele><time>2013-11-19T13:40:14.0000000+00:00</time></trkpt><trkpt lat="31.04131126" lon="34.72024155"><ele>279.8</ele><time>2013-11-19T13:40:19.0000000+00:00</time></trkpt><trkpt lat="31.04131126" lon="34.72023773"><ele>279.8</ele><time>2013-11-19T13:40:24.0000000+00:00</time></trkpt><trkpt lat="31.04131126" lon="34.72023773"><ele>279.8</ele><time>2013-11-19T13:40:29.0000000+00:00</time></trkpt><trkpt lat="31.04131126" lon="34.72023773"><ele>279.8</ele><time>2013-11-19T13:40:34.0000000+00:00</time></trkpt><trkpt lat="31.04131126" lon="34.72023773"><ele>279.8</ele><time>2013-11-19T13:40:39.0000000+00:00</time></trkpt><trkpt lat="31.04131126" lon="34.72023773"><ele>279.8</ele><time>2013-11-19T13:40:44.0000000+00:00</time></trkpt><trkpt lat="31.04131126" lon="34.72023773"><ele>279.8</ele><time>2013-11-19T13:40:49.0000000+00:00</time></trkpt><trkpt lat="31.04131126" lon="34.72023773"><ele>279.8</ele><time>2013-11-19T13:40:54.0000000+00:00</time></trkpt><trkpt lat="31.04131126" lon="34.72023773"><ele>279.8</ele><time>2013-11-19T13:40:59.0000000+00:00</time></trkpt><trkpt lat="31.04131126" lon="34.72023773"><ele>279.8</ele><time>2013-11-19T13:41:04.0000000+00:00</time></trkpt><trkpt lat="31.04131126" lon="34.72023773"><ele>279.9</ele><time>2013-11-19T13:41:09.0000000+00:00</time></trkpt><trkpt lat="31.04131126" lon="34.72023773"><ele>279.9</ele><time>2013-11-19T13:41:14.0000000+00:00</time></trkpt><trkpt lat="31.04131126" lon="34.72023773"><ele>279.9</ele><time>2013-11-19T13:41:19.0000000+00:00</time></trkpt><trkpt lat="31.04130936" lon="34.72023773"><ele>279.9</ele><time>2013-11-19T13:41:24.0000000+00:00</time></trkpt><trkpt lat="31.04130936" lon="34.72023773"><ele>279.9</ele><time>2013-11-19T13:41:29.0000000+00:00</time></trkpt><trkpt lat="31.04130936" lon="34.72023773"><ele>280.0</ele><time>2013-11-19T13:41:34.0000000+00:00</time></trkpt><trkpt lat="31.04130936" lon="34.72023773"><ele>280.0</ele><time>2013-11-19T13:41:39.0000000+00:00</time></trkpt><trkpt lat="31.04130745" lon="34.72023773"><ele>280.1</ele><time>2013-11-19T13:41:44.0000000+00:00</time></trkpt><trkpt lat="31.04130745" lon="34.72023773"><ele>280.1</ele><time>2013-11-19T13:41:49.0000000+00:00</time></trkpt><trkpt lat="31.04130745" lon="34.72023773"><ele>280.2</ele><time>2013-11-19T13:41:54.0000000+00:00</time></trkpt><trkpt lat="31.04130554" lon="34.72023773"><ele>280.2</ele><time>2013-11-19T13:41:59.0000000+00:00</time></trkpt><trkpt lat="31.04130554" lon="34.72023773"><ele>280.2</ele><time>2013-11-19T13:42:04.0000000+00:00</time></trkpt><trkpt lat="31.04130554" lon="34.72023773"><ele>280.3</ele><time>2013-11-19T13:42:09.0000000+00:00</time></trkpt><trkpt lat="31.04130554" lon="34.72023773"><ele>280.3</ele><time>2013-11-19T13:42:14.0000000+00:00</time></trkpt><trkpt lat="31.04130364" lon="34.72023773"><ele>280.4</ele><time>2013-11-19T13:42:19.0000000+00:00</time></trkpt><trkpt lat="31.04130364" lon="34.72023773"><ele>280.4</ele><time>2013-11-19T13:42:24.0000000+00:00</time></trkpt><trkpt lat="31.04130364" lon="34.72023773"><ele>280.4</ele><time>2013-11-19T13:42:29.0000000+00:00</time></trkpt><trkpt lat="31.04130364" lon="34.72023773"><ele>280.5</ele><time>2013-11-19T13:42:34.0000000+00:00</time></trkpt><trkpt lat="31.04130173" lon="34.72023773"><ele>280.5</ele><time>2013-11-19T13:42:39.0000000+00:00</time></trkpt><trkpt lat="31.04130173" lon="34.72023392"><ele>280.6</ele><time>2013-11-19T13:42:44.0000000+00:00</time></trkpt><trkpt lat="31.04130173" lon="34.72023392"><ele>280.6</ele><time>2013-11-19T13:42:49.0000000+00:00</time></trkpt><trkpt lat="31.04130173" lon="34.72023392"><ele>280.7</ele><time>2013-11-19T13:42:54.0000000+00:00</time></trkpt><trkpt lat="31.04130173" lon="34.72023392"><ele>280.7</ele><time>2013-11-19T13:42:59.0000000+00:00</time></trkpt><trkpt lat="31.04130173" lon="34.72023392"><ele>280.7</ele><time>2013-11-19T13:43:04.0000000+00:00</time></trkpt><trkpt lat="31.04130173" lon="34.72023392"><ele>280.7</ele><time>2013-11-19T13:43:09.0000000+00:00</time></trkpt><trkpt lat="31.04130173" lon="34.72023392"><ele>280.7</ele><time>2013-11-19T13:43:14.0000000+00:00</time></trkpt><trkpt lat="31.04130173" lon="34.7202301"><ele>280.8</ele><time>2013-11-19T13:43:19.0000000+00:00</time></trkpt><trkpt lat="31.04130173" lon="34.7202301"><ele>280.8</ele><time>2013-11-19T13:43:24.0000000+00:00</time></trkpt><trkpt lat="31.04130173" lon="34.7202301"><ele>280.8</ele><time>2013-11-19T13:43:29.0000000+00:00</time></trkpt><trkpt lat="31.04129982" lon="34.7202301"><ele>280.9</ele><time>2013-11-19T13:43:34.0000000+00:00</time></trkpt><trkpt lat="31.04129982" lon="34.7202301"><ele>280.9</ele><time>2013-11-19T13:43:39.0000000+00:00</time></trkpt><trkpt lat="31.04129982" lon="34.72022629"><ele>280.9</ele><time>2013-11-19T13:43:44.0000000+00:00</time></trkpt><trkpt lat="31.04129982" lon="34.72022629"><ele>280.9</ele><time>2013-11-19T13:43:49.0000000+00:00</time></trkpt><trkpt lat="31.04129982" lon="34.72022629"><ele>280.9</ele><time>2013-11-19T13:43:54.0000000+00:00</time></trkpt><trkpt lat="31.04129982" lon="34.72022629"><ele>281.0</ele><time>2013-11-19T13:43:59.0000000+00:00</time></trkpt><trkpt lat="31.04129982" lon="34.72022629"><ele>281.0</ele><time>2013-11-19T13:44:04.0000000+00:00</time></trkpt><trkpt lat="31.04129982" lon="34.72022247"><ele>281.1</ele><time>2013-11-19T13:44:09.0000000+00:00</time></trkpt><trkpt lat="31.04129791" lon="34.72022247"><ele>281.1</ele><time>2013-11-19T13:44:14.0000000+00:00</time></trkpt><trkpt lat="31.04129791" lon="34.72022247"><ele>281.2</ele><time>2013-11-19T13:44:19.0000000+00:00</time></trkpt><trkpt lat="31.04129791" lon="34.72022247"><ele>281.3</ele><time>2013-11-19T13:44:24.0000000+00:00</time></trkpt><trkpt lat="31.04129791" lon="34.72022247"><ele>281.3</ele><time>2013-11-19T13:44:29.0000000+00:00</time></trkpt><trkpt lat="31.04129601" lon="34.72022247"><ele>281.4</ele><time>2013-11-19T13:44:34.0000000+00:00</time></trkpt><trkpt lat="31.04129601" lon="34.72022247"><ele>281.5</ele><time>2013-11-19T13:44:39.0000000+00:00</time></trkpt><trkpt lat="31.04129601" lon="34.72022247"><ele>281.5</ele><time>2013-11-19T13:44:44.0000000+00:00</time></trkpt><trkpt lat="31.04129601" lon="34.72022247"><ele>281.6</ele><time>2013-11-19T13:44:49.0000000+00:00</time></trkpt><trkpt lat="31.04129601" lon="34.72021866"><ele>281.6</ele><time>2013-11-19T13:44:54.0000000+00:00</time></trkpt><trkpt lat="31.0412941" lon="34.72021866"><ele>281.7</ele><time>2013-11-19T13:44:59.0000000+00:00</time></trkpt><trkpt lat="31.0412941" lon="34.72021866"><ele>281.7</ele><time>2013-11-19T13:45:04.0000000+00:00</time></trkpt><trkpt lat="31.0412941" lon="34.72021866"><ele>281.8</ele><time>2013-11-19T13:45:09.0000000+00:00</time></trkpt><trkpt lat="31.0412941" lon="34.72021866"><ele>281.8</ele><time>2013-11-19T13:45:14.0000000+00:00</time></trkpt><trkpt lat="31.0412941" lon="34.72021484"><ele>281.9</ele><time>2013-11-19T13:45:19.0000000+00:00</time></trkpt><trkpt lat="31.0412941" lon="34.72021484"><ele>281.9</ele><time>2013-11-19T13:45:24.0000000+00:00</time></trkpt><trkpt lat="31.0412941" lon="34.72021484"><ele>282.0</ele><time>2013-11-19T13:45:29.0000000+00:00</time></trkpt><trkpt lat="31.04129219" lon="34.72021484"><ele>282.0</ele><time>2013-11-19T13:45:34.0000000+00:00</time></trkpt><trkpt lat="31.04129219" lon="34.72021484"><ele>282.1</ele><time>2013-11-19T13:45:39.0000000+00:00</time></trkpt><trkpt lat="31.04129219" lon="34.72021484"><ele>282.1</ele><time>2013-11-19T13:45:44.0000000+00:00</time></trkpt><trkpt lat="31.04129219" lon="34.72021484"><ele>282.1</ele><time>2013-11-19T13:45:49.0000000+00:00</time></trkpt><trkpt lat="31.04129219" lon="34.72021103"><ele>282.2</ele><time>2013-11-19T13:45:54.0000000+00:00</time></trkpt><trkpt lat="31.04129219" lon="34.72021103"><ele>282.2</ele><time>2013-11-19T13:45:59.0000000+00:00</time></trkpt><trkpt lat="31.04129028" lon="34.72021103"><ele>282.3</ele><time>2013-11-19T13:46:04.0000000+00:00</time></trkpt><trkpt lat="31.04129028" lon="34.72021103"><ele>282.3</ele><time>2013-11-19T13:46:09.0000000+00:00</time></trkpt><trkpt lat="31.04129028" lon="34.72021103"><ele>282.4</ele><time>2013-11-19T13:46:14.0000000+00:00</time></trkpt><trkpt lat="31.04129028" lon="34.72021103"><ele>282.4</ele><time>2013-11-19T13:46:19.0000000+00:00</time></trkpt><trkpt lat="31.04129028" lon="34.72021103"><ele>282.4</ele><time>2013-11-19T13:46:24.0000000+00:00</time></trkpt><trkpt lat="31.04129028" lon="34.72021103"><ele>282.5</ele><time>2013-11-19T13:46:29.0000000+00:00</time></trkpt><trkpt lat="31.04129028" lon="34.72021103"><ele>282.5</ele><time>2013-11-19T13:46:34.0000000+00:00</time></trkpt><trkpt lat="31.04129028" lon="34.72021103"><ele>282.5</ele><time>2013-11-19T13:46:39.0000000+00:00</time></trkpt><trkpt lat="31.04129028" lon="34.72021103"><ele>282.5</ele><time>2013-11-19T13:46:44.0000000+00:00</time></trkpt><trkpt lat="31.04129028" lon="34.72021103"><ele>282.6</ele><time>2013-11-19T13:46:49.0000000+00:00</time></trkpt><trkpt lat="31.04129028" lon="34.72020721"><ele>282.6</ele><time>2013-11-19T13:46:54.0000000+00:00</time></trkpt><trkpt lat="31.04129028" lon="34.72020721"><ele>282.7</ele><time>2013-11-19T13:46:59.0000000+00:00</time></trkpt><trkpt lat="31.04129028" lon="34.72020721"><ele>282.7</ele><time>2013-11-19T13:47:04.0000000+00:00</time></trkpt><trkpt lat="31.04129028" lon="34.72020721"><ele>282.8</ele><time>2013-11-19T13:47:09.0000000+00:00</time></trkpt><trkpt lat="31.04129028" lon="34.72020721"><ele>282.8</ele><time>2013-11-19T13:47:14.0000000+00:00</time></trkpt><trkpt lat="31.04129028" lon="34.72020721"><ele>282.8</ele><time>2013-11-19T13:47:19.0000000+00:00</time></trkpt><trkpt lat="31.04129028" lon="34.72020721"><ele>282.9</ele><time>2013-11-19T13:47:24.0000000+00:00</time></trkpt><trkpt lat="31.04129028" lon="34.72020721"><ele>282.9</ele><time>2013-11-19T13:47:29.0000000+00:00</time></trkpt><trkpt lat="31.04129028" lon="34.72020721"><ele>283.0</ele><time>2013-11-19T13:47:34.0000000+00:00</time></trkpt><trkpt lat="31.04129028" lon="34.72020721"><ele>283.0</ele><time>2013-11-19T13:47:39.0000000+00:00</time></trkpt><trkpt lat="31.04129028" lon="34.72020721"><ele>283.1</ele><time>2013-11-19T13:47:44.0000000+00:00</time></trkpt><trkpt lat="31.04129028" lon="34.72020721"><ele>283.1</ele><time>2013-11-19T13:47:49.0000000+00:00</time></trkpt><trkpt lat="31.04129028" lon="34.72020721"><ele>283.2</ele><time>2013-11-19T13:47:54.0000000+00:00</time></trkpt><trkpt lat="31.04129219" lon="34.72020721"><ele>283.2</ele><time>2013-11-19T13:47:59.0000000+00:00</time></trkpt><trkpt lat="31.04129028" lon="34.72020721"><ele>283.3</ele><time>2013-11-19T13:48:04.0000000+00:00</time></trkpt><trkpt lat="31.04129028" lon="34.72020721"><ele>283.4</ele><time>2013-11-19T13:48:09.0000000+00:00</time></trkpt><trkpt lat="31.04129028" lon="34.72020721"><ele>283.4</ele><time>2013-11-19T13:48:14.0000000+00:00</time></trkpt><trkpt lat="31.04129028" lon="34.72020721"><ele>283.5</ele><time>2013-11-19T13:48:19.0000000+00:00</time></trkpt><trkpt lat="31.04129028" lon="34.72020721"><ele>283.6</ele><time>2013-11-19T13:48:24.0000000+00:00</time></trkpt><trkpt lat="31.04129028" lon="34.72020721"><ele>283.7</ele><time>2013-11-19T13:48:29.0000000+00:00</time></trkpt><trkpt lat="31.04129028" lon="34.72020721"><ele>283.7</ele><time>2013-11-19T13:48:34.0000000+00:00</time></trkpt><trkpt lat="31.04129028" lon="34.72020721"><ele>283.8</ele><time>2013-11-19T13:48:39.0000000+00:00</time></trkpt><trkpt lat="31.04129028" lon="34.72020721"><ele>283.9</ele><time>2013-11-19T13:48:44.0000000+00:00</time></trkpt><trkpt lat="31.04129028" lon="34.72020721"><ele>283.9</ele><time>2013-11-19T13:48:49.0000000+00:00</time></trkpt><trkpt lat="31.04129028" lon="34.72020721"><ele>284.0</ele><time>2013-11-19T13:48:54.0000000+00:00</time></trkpt><trkpt lat="31.04129028" lon="34.72020721"><ele>284.0</ele><time>2013-11-19T13:48:59.0000000+00:00</time></trkpt><trkpt lat="31.04128838" lon="34.72021103"><ele>284.1</ele><time>2013-11-19T13:49:04.0000000+00:00</time></trkpt><trkpt lat="31.04128838" lon="34.72021103"><ele>284.1</ele><time>2013-11-19T13:49:09.0000000+00:00</time></trkpt><trkpt lat="31.04128838" lon="34.72021103"><ele>284.2</ele><time>2013-11-19T13:49:14.0000000+00:00</time></trkpt><trkpt lat="31.04128838" lon="34.72021103"><ele>284.3</ele><time>2013-11-19T13:49:19.0000000+00:00</time></trkpt><trkpt lat="31.04128838" lon="34.72021103"><ele>284.3</ele><time>2013-11-19T13:49:24.0000000+00:00</time></trkpt><trkpt lat="31.04128838" lon="34.72021103"><ele>284.4</ele><time>2013-11-19T13:49:29.0000000+00:00</time></trkpt><trkpt lat="31.04128838" lon="34.72021103"><ele>284.5</ele><time>2013-11-19T13:49:34.0000000+00:00</time></trkpt><trkpt lat="31.04128838" lon="34.72021103"><ele>284.5</ele><time>2013-11-19T13:49:39.0000000+00:00</time></trkpt><trkpt lat="31.04128838" lon="34.72021103"><ele>284.6</ele><time>2013-11-19T13:49:44.0000000+00:00</time></trkpt><trkpt lat="31.04128838" lon="34.72021103"><ele>284.6</ele><time>2013-11-19T13:49:49.0000000+00:00</time></trkpt><trkpt lat="31.04128838" lon="34.72021103"><ele>284.6</ele><time>2013-11-19T13:49:54.0000000+00:00</time></trkpt><trkpt lat="31.04128838" lon="34.72021103"><ele>284.7</ele><time>2013-11-19T13:49:59.0000000+00:00</time></trkpt><trkpt lat="31.04128647" lon="34.72021103"><ele>284.7</ele><time>2013-11-19T13:50:04.0000000+00:00</time></trkpt><trkpt lat="31.04128647" lon="34.72021103"><ele>284.8</ele><time>2013-11-19T13:50:09.0000000+00:00</time></trkpt><trkpt lat="31.04128647" lon="34.72021103"><ele>284.8</ele><time>2013-11-19T13:50:14.0000000+00:00</time></trkpt><trkpt lat="31.04128647" lon="34.72020721"><ele>284.8</ele><time>2013-11-19T13:50:19.0000000+00:00</time></trkpt><trkpt lat="31.04128647" lon="34.72020721"><ele>284.9</ele><time>2013-11-19T13:50:24.0000000+00:00</time></trkpt><trkpt lat="31.04128647" lon="34.72020721"><ele>285.0</ele><time>2013-11-19T13:50:29.0000000+00:00</time></trkpt><trkpt lat="31.04128647" lon="34.72020721"><ele>285.0</ele><time>2013-11-19T13:50:34.0000000+00:00</time></trkpt><trkpt lat="31.04128647" lon="34.72020721"><ele>285.1</ele><time>2013-11-19T13:50:39.0000000+00:00</time></trkpt><trkpt lat="31.04128647" lon="34.72020721"><ele>285.1</ele><time>2013-11-19T13:50:44.0000000+00:00</time></trkpt><trkpt lat="31.04128647" lon="34.72020721"><ele>285.2</ele><time>2013-11-19T13:50:49.0000000+00:00</time></trkpt><trkpt lat="31.04128456" lon="34.72020721"><ele>285.3</ele><time>2013-11-19T13:50:54.0000000+00:00</time></trkpt><trkpt lat="31.04128456" lon="34.72020721"><ele>285.3</ele><time>2013-11-19T13:50:59.0000000+00:00</time></trkpt><trkpt lat="31.04128456" lon="34.72020721"><ele>285.4</ele><time>2013-11-19T13:51:04.0000000+00:00</time></trkpt><trkpt lat="31.04128456" lon="34.72020721"><ele>285.4</ele><time>2013-11-19T13:51:09.0000000+00:00</time></trkpt><trkpt lat="31.04128456" lon="34.72020721"><ele>285.4</ele><time>2013-11-19T13:51:14.0000000+00:00</time></trkpt><trkpt lat="31.04128456" lon="34.72020721"><ele>285.4</ele><time>2013-11-19T13:51:19.0000000+00:00</time></trkpt><trkpt lat="31.04128265" lon="34.72020721"><ele>285.5</ele><time>2013-11-19T13:51:24.0000000+00:00</time></trkpt><trkpt lat="31.04128265" lon="34.72020721"><ele>285.5</ele><time>2013-11-19T13:51:29.0000000+00:00</time></trkpt><trkpt lat="31.04128265" lon="34.7202034"><ele>285.6</ele><time>2013-11-19T13:51:34.0000000+00:00</time></trkpt><trkpt lat="31.04128265" lon="34.7202034"><ele>285.6</ele><time>2013-11-19T13:51:39.0000000+00:00</time></trkpt><trkpt lat="31.04128265" lon="34.7202034"><ele>285.7</ele><time>2013-11-19T13:51:44.0000000+00:00</time></trkpt><trkpt lat="31.04128265" lon="34.7202034"><ele>285.8</ele><time>2013-11-19T13:51:49.0000000+00:00</time></trkpt><trkpt lat="31.04128265" lon="34.7202034"><ele>285.8</ele><time>2013-11-19T13:51:54.0000000+00:00</time></trkpt><trkpt lat="31.04128265" lon="34.7202034"><ele>285.9</ele><time>2013-11-19T13:51:59.0000000+00:00</time></trkpt><trkpt lat="31.04128265" lon="34.7202034"><ele>286.0</ele><time>2013-11-19T13:52:04.0000000+00:00</time></trkpt><trkpt lat="31.04128265" lon="34.7202034"><ele>286.0</ele><time>2013-11-19T13:52:09.0000000+00:00</time></trkpt><trkpt lat="31.04128075" lon="34.7202034"><ele>286.1</ele><time>2013-11-19T13:52:14.0000000+00:00</time></trkpt><trkpt lat="31.04128075" lon="34.7202034"><ele>286.1</ele><time>2013-11-19T13:52:19.0000000+00:00</time></trkpt><trkpt lat="31.04128075" lon="34.7202034"><ele>286.2</ele><time>2013-11-19T13:52:24.0000000+00:00</time></trkpt><trkpt lat="31.04128075" lon="34.7202034"><ele>286.3</ele><time>2013-11-19T13:52:29.0000000+00:00</time></trkpt><trkpt lat="31.04128075" lon="34.7202034"><ele>286.4</ele><time>2013-11-19T13:52:34.0000000+00:00</time></trkpt><trkpt lat="31.04128075" lon="34.7202034"><ele>286.4</ele><time>2013-11-19T13:52:39.0000000+00:00</time></trkpt><trkpt lat="31.04128075" lon="34.7202034"><ele>286.4</ele><time>2013-11-19T13:52:44.0000000+00:00</time></trkpt><trkpt lat="31.04128075" lon="34.7202034"><ele>286.5</ele><time>2013-11-19T13:52:49.0000000+00:00</time></trkpt><trkpt lat="31.04128075" lon="34.7202034"><ele>286.6</ele><time>2013-11-19T13:52:54.0000000+00:00</time></trkpt><trkpt lat="31.04128075" lon="34.7202034"><ele>286.6</ele><time>2013-11-19T13:52:59.0000000+00:00</time></trkpt><trkpt lat="31.04128075" lon="34.7202034"><ele>286.7</ele><time>2013-11-19T13:53:04.0000000+00:00</time></trkpt><trkpt lat="31.04127884" lon="34.7202034"><ele>286.7</ele><time>2013-11-19T13:53:09.0000000+00:00</time></trkpt><trkpt lat="31.04127884" lon="34.7202034"><ele>286.7</ele><time>2013-11-19T13:53:14.0000000+00:00</time></trkpt><trkpt lat="31.04127884" lon="34.7202034"><ele>286.8</ele><time>2013-11-19T13:53:19.0000000+00:00</time></trkpt><trkpt lat="31.04127884" lon="34.7202034"><ele>286.9</ele><time>2013-11-19T13:53:24.0000000+00:00</time></trkpt><trkpt lat="31.04127884" lon="34.7202034"><ele>286.9</ele><time>2013-11-19T13:53:29.0000000+00:00</time></trkpt><trkpt lat="31.04127884" lon="34.7202034"><ele>287.0</ele><time>2013-11-19T13:53:34.0000000+00:00</time></trkpt><trkpt lat="31.04127884" lon="34.7202034"><ele>287.0</ele><time>2013-11-19T13:53:39.0000000+00:00</time></trkpt><trkpt lat="31.04127884" lon="34.7202034"><ele>287.1</ele><time>2013-11-19T13:53:44.0000000+00:00</time></trkpt><trkpt lat="31.04127693" lon="34.7202034"><ele>287.1</ele><time>2013-11-19T13:53:49.0000000+00:00</time></trkpt><trkpt lat="31.04127693" lon="34.7202034"><ele>287.2</ele><time>2013-11-19T13:53:54.0000000+00:00</time></trkpt><trkpt lat="31.04127693" lon="34.7202034"><ele>287.2</ele><time>2013-11-19T13:53:59.0000000+00:00</time></trkpt><trkpt lat="31.04127693" lon="34.7202034"><ele>287.3</ele><time>2013-11-19T13:54:04.0000000+00:00</time></trkpt><trkpt lat="31.04127693" lon="34.7202034"><ele>287.3</ele><time>2013-11-19T13:54:09.0000000+00:00</time></trkpt><trkpt lat="31.04127693" lon="34.7202034"><ele>287.4</ele><time>2013-11-19T13:54:14.0000000+00:00</time></trkpt><trkpt lat="31.04127502" lon="34.7202034"><ele>287.4</ele><time>2013-11-19T13:54:19.0000000+00:00</time></trkpt><trkpt lat="31.04127502" lon="34.7202034"><ele>287.5</ele><time>2013-11-19T13:54:24.0000000+00:00</time></trkpt><trkpt lat="31.04127502" lon="34.7202034"><ele>287.5</ele><time>2013-11-19T13:54:29.0000000+00:00</time></trkpt><trkpt lat="31.04127502" lon="34.7202034"><ele>287.5</ele><time>2013-11-19T13:54:34.0000000+00:00</time></trkpt><trkpt lat="31.04127502" lon="34.7202034"><ele>287.5</ele><time>2013-11-19T13:54:39.0000000+00:00</time></trkpt><trkpt lat="31.04127502" lon="34.72019959"><ele>287.6</ele><time>2013-11-19T13:54:44.0000000+00:00</time></trkpt><trkpt lat="31.04127502" lon="34.72019959"><ele>287.6</ele><time>2013-11-19T13:54:49.0000000+00:00</time></trkpt><trkpt lat="31.04127502" lon="34.72019959"><ele>287.7</ele><time>2013-11-19T13:54:54.0000000+00:00</time></trkpt><trkpt lat="31.04127502" lon="34.72019959"><ele>287.7</ele><time>2013-11-19T13:54:59.0000000+00:00</time></trkpt><trkpt lat="31.04127502" lon="34.72019959"><ele>287.7</ele><time>2013-11-19T13:55:04.0000000+00:00</time></trkpt><trkpt lat="31.04127502" lon="34.72019959"><ele>287.8</ele><time>2013-11-19T13:55:09.0000000+00:00</time></trkpt><trkpt lat="31.04127502" lon="34.7202034"><ele>287.8</ele><time>2013-11-19T13:55:14.0000000+00:00</time></trkpt><trkpt lat="31.04127502" lon="34.7202034"><ele>287.9</ele><time>2013-11-19T13:55:19.0000000+00:00</time></trkpt><trkpt lat="31.04127312" lon="34.7202034"><ele>287.9</ele><time>2013-11-19T13:55:24.0000000+00:00</time></trkpt><trkpt lat="31.04127312" lon="34.7202034"><ele>287.9</ele><time>2013-11-19T13:55:29.0000000+00:00</time></trkpt><trkpt lat="31.04127312" lon="34.72019959"><ele>287.9</ele><time>2013-11-19T13:55:34.0000000+00:00</time></trkpt><trkpt lat="31.04127312" lon="34.72019959"><ele>287.9</ele><time>2013-11-19T13:55:39.0000000+00:00</time></trkpt><trkpt lat="31.04127312" lon="34.72019959"><ele>288.0</ele><time>2013-11-19T13:55:44.0000000+00:00</time></trkpt><trkpt lat="31.04127312" lon="34.72019959"><ele>288.0</ele><time>2013-11-19T13:55:49.0000000+00:00</time></trkpt><trkpt lat="31.04127121" lon="34.72019959"><ele>288.0</ele><time>2013-11-19T13:55:54.0000000+00:00</time></trkpt><trkpt lat="31.04127121" lon="34.72019959"><ele>288.0</ele><time>2013-11-19T13:55:59.0000000+00:00</time></trkpt><trkpt lat="31.04127121" lon="34.72019959"><ele>288.0</ele><time>2013-11-19T13:56:04.0000000+00:00</time></trkpt><trkpt lat="31.04127121" lon="34.72019959"><ele>287.9</ele><time>2013-11-19T13:56:09.0000000+00:00</time></trkpt><trkpt lat="31.04127121" lon="34.72019959"><ele>287.9</ele><time>2013-11-19T13:56:14.0000000+00:00</time></trkpt><trkpt lat="31.04127121" lon="34.72019959"><ele>287.8</ele><time>2013-11-19T13:56:19.0000000+00:00</time></trkpt><trkpt lat="31.0412693" lon="34.72019959"><ele>287.8</ele><time>2013-11-19T13:56:24.0000000+00:00</time></trkpt><trkpt lat="31.0412693" lon="34.72019959"><ele>287.8</ele><time>2013-11-19T13:56:29.0000000+00:00</time></trkpt><trkpt lat="31.0412693" lon="34.72019959"><ele>287.8</ele><time>2013-11-19T13:56:34.0000000+00:00</time></trkpt><trkpt lat="31.0412693" lon="34.72019959"><ele>287.8</ele><time>2013-11-19T13:56:39.0000000+00:00</time></trkpt><trkpt lat="31.0412693" lon="34.72019959"><ele>287.7</ele><time>2013-11-19T13:56:44.0000000+00:00</time></trkpt><trkpt lat="31.0412674" lon="34.72019959"><ele>287.7</ele><time>2013-11-19T13:56:49.0000000+00:00</time></trkpt><trkpt lat="31.0412674" lon="34.72019959"><ele>287.8</ele><time>2013-11-19T13:56:54.0000000+00:00</time></trkpt><trkpt lat="31.0412674" lon="34.72019959"><ele>287.8</ele><time>2013-11-19T13:56:59.0000000+00:00</time></trkpt><trkpt lat="31.0412674" lon="34.72019959"><ele>287.8</ele><time>2013-11-19T13:57:04.0000000+00:00</time></trkpt><trkpt lat="31.04126549" lon="34.72019959"><ele>287.8</ele><time>2013-11-19T13:57:09.0000000+00:00</time></trkpt><trkpt lat="31.04126549" lon="34.72019959"><ele>287.8</ele><time>2013-11-19T13:57:14.0000000+00:00</time></trkpt><trkpt lat="31.04126549" lon="34.72019959"><ele>287.8</ele><time>2013-11-19T13:57:19.0000000+00:00</time></trkpt><trkpt lat="31.04126549" lon="34.72019959"><ele>287.8</ele><time>2013-11-19T13:57:24.0000000+00:00</time></trkpt><trkpt lat="31.04126549" lon="34.72019959"><ele>287.8</ele><time>2013-11-19T13:57:29.0000000+00:00</time></trkpt><trkpt lat="31.04126358" lon="34.72019959"><ele>287.8</ele><time>2013-11-19T13:57:34.0000000+00:00</time></trkpt><trkpt lat="31.04126358" lon="34.72019959"><ele>287.8</ele><time>2013-11-19T13:57:39.0000000+00:00</time></trkpt><trkpt lat="31.04126358" lon="34.72019959"><ele>287.8</ele><time>2013-11-19T13:57:44.0000000+00:00</time></trkpt><trkpt lat="31.04126167" lon="34.72019959"><ele>287.8</ele><time>2013-11-19T13:57:49.0000000+00:00</time></trkpt><trkpt lat="31.04126167" lon="34.72019959"><ele>287.9</ele><time>2013-11-19T13:57:54.0000000+00:00</time></trkpt><trkpt lat="31.04126167" lon="34.72019959"><ele>287.9</ele><time>2013-11-19T13:57:59.0000000+00:00</time></trkpt><trkpt lat="31.04125977" lon="34.72019959"><ele>287.9</ele><time>2013-11-19T13:58:04.0000000+00:00</time></trkpt><trkpt lat="31.04125977" lon="34.72019959"><ele>287.9</ele><time>2013-11-19T13:58:09.0000000+00:00</time></trkpt><trkpt lat="31.04125977" lon="34.72019959"><ele>287.9</ele><time>2013-11-19T13:58:14.0000000+00:00</time></trkpt><trkpt lat="31.04125977" lon="34.72019959"><ele>288.0</ele><time>2013-11-19T13:58:19.0000000+00:00</time></trkpt><trkpt lat="31.04125977" lon="34.72019959"><ele>287.9</ele><time>2013-11-19T13:58:24.0000000+00:00</time></trkpt><trkpt lat="31.04125786" lon="34.72019959"><ele>287.9</ele><time>2013-11-19T13:58:29.0000000+00:00</time></trkpt><trkpt lat="31.04125786" lon="34.72019959"><ele>287.9</ele><time>2013-11-19T13:58:34.0000000+00:00</time></trkpt><trkpt lat="31.04125786" lon="34.72019959"><ele>287.9</ele><time>2013-11-19T13:58:39.0000000+00:00</time></trkpt><trkpt lat="31.04125786" lon="34.72019959"><ele>287.9</ele><time>2013-11-19T13:58:44.0000000+00:00</time></trkpt><trkpt lat="31.04125786" lon="34.72019959"><ele>287.9</ele><time>2013-11-19T13:58:49.0000000+00:00</time></trkpt><trkpt lat="31.04125786" lon="34.72019959"><ele>287.9</ele><time>2013-11-19T13:58:54.0000000+00:00</time></trkpt><trkpt lat="31.04125786" lon="34.72019959"><ele>287.9</ele><time>2013-11-19T13:58:59.0000000+00:00</time></trkpt><trkpt lat="31.04125786" lon="34.72019959"><ele>287.9</ele><time>2013-11-19T13:59:04.0000000+00:00</time></trkpt><trkpt lat="31.04125786" lon="34.72019959"><ele>287.9</ele><time>2013-11-19T13:59:09.0000000+00:00</time></trkpt><trkpt lat="31.04125786" lon="34.72019959"><ele>287.9</ele><time>2013-11-19T13:59:14.0000000+00:00</time></trkpt><trkpt lat="31.04125595" lon="34.72019959"><ele>287.9</ele><time>2013-11-19T13:59:19.0000000+00:00</time></trkpt><trkpt lat="31.04125595" lon="34.72019959"><ele>288.0</ele><time>2013-11-19T13:59:24.0000000+00:00</time></trkpt><trkpt lat="31.04125595" lon="34.72019959"><ele>288.0</ele><time>2013-11-19T13:59:29.0000000+00:00</time></trkpt><trkpt lat="31.04125595" lon="34.72019959"><ele>288.0</ele><time>2013-11-19T13:59:34.0000000+00:00</time></trkpt><trkpt lat="31.04125404" lon="34.72019959"><ele>288.0</ele><time>2013-11-19T13:59:39.0000000+00:00</time></trkpt><trkpt lat="31.04125404" lon="34.72019959"><ele>288.0</ele><time>2013-11-19T13:59:44.0000000+00:00</time></trkpt><trkpt lat="31.04125404" lon="34.72019959"><ele>287.9</ele><time>2013-11-19T13:59:49.0000000+00:00</time></trkpt></trkseg><trkseg><trkpt lat="31.04132843" lon="34.72027206"><ele>273.5</ele><time>2013-11-20T06:16:04.0000000+00:00</time></trkpt><trkpt lat="31.04135704" lon="34.72028351"><ele>268.5</ele><time>2013-11-20T06:16:09.0000000+00:00</time></trkpt><trkpt lat="31.04135704" lon="34.72030258"><ele>267.5</ele><time>2013-11-20T06:16:14.0000000+00:00</time></trkpt><trkpt lat="31.04135895" lon="34.7203064"><ele>268.0</ele><time>2013-11-20T06:16:19.0000000+00:00</time></trkpt><trkpt lat="31.04135704" lon="34.7203064"><ele>268.7</ele><time>2013-11-20T06:16:24.0000000+00:00</time></trkpt><trkpt lat="31.04136086" lon="34.7203064"><ele>269.0</ele><time>2013-11-20T06:16:29.0000000+00:00</time></trkpt><trkpt lat="31.04136467" lon="34.72030258"><ele>268.1</ele><time>2013-11-20T06:16:34.0000000+00:00</time></trkpt><trkpt lat="31.04136086" lon="34.72029877"><ele>269.5</ele><time>2013-11-20T06:16:39.0000000+00:00</time></trkpt><trkpt lat="31.04136086" lon="34.72029877"><ele>269.5</ele><time>2013-11-20T06:16:44.0000000+00:00</time></trkpt><trkpt lat="31.04136086" lon="34.72029877"><ele>269.6</ele><time>2013-11-20T06:16:49.0000000+00:00</time></trkpt><trkpt lat="31.04136086" lon="34.72029877"><ele>269.6</ele><time>2013-11-20T06:16:54.0000000+00:00</time></trkpt><trkpt lat="31.04136086" lon="34.72029877"><ele>269.6</ele><time>2013-11-20T06:16:59.0000000+00:00</time></trkpt><trkpt lat="31.04135895" lon="34.72029877"><ele>269.6</ele><time>2013-11-20T06:17:04.0000000+00:00</time></trkpt><trkpt lat="31.04135895" lon="34.72029877"><ele>269.7</ele><time>2013-11-20T06:17:09.0000000+00:00</time></trkpt><trkpt lat="31.04135895" lon="34.72029877"><ele>269.7</ele><time>2013-11-20T06:17:14.0000000+00:00</time></trkpt><trkpt lat="31.04135895" lon="34.72029877"><ele>269.7</ele><time>2013-11-20T06:17:19.0000000+00:00</time></trkpt><trkpt lat="31.04135895" lon="34.72029877"><ele>269.7</ele><time>2013-11-20T06:17:24.0000000+00:00</time></trkpt><trkpt lat="31.04135895" lon="34.72029877"><ele>269.8</ele><time>2013-11-20T06:17:29.0000000+00:00</time></trkpt><trkpt lat="31.04135895" lon="34.72029877"><ele>269.8</ele><time>2013-11-20T06:17:34.0000000+00:00</time></trkpt><trkpt lat="31.04135895" lon="34.72029877"><ele>269.8</ele><time>2013-11-20T06:17:39.0000000+00:00</time></trkpt><trkpt lat="31.04135895" lon="34.72029877"><ele>269.8</ele><time>2013-11-20T06:17:44.0000000+00:00</time></trkpt><trkpt lat="31.04135895" lon="34.72029877"><ele>269.8</ele><time>2013-11-20T06:17:49.0000000+00:00</time></trkpt><trkpt lat="31.04135704" lon="34.72029877"><ele>269.8</ele><time>2013-11-20T06:17:54.0000000+00:00</time></trkpt><trkpt lat="31.04135704" lon="34.72029877"><ele>269.8</ele><time>2013-11-20T06:17:59.0000000+00:00</time></trkpt><trkpt lat="31.04135704" lon="34.72029877"><ele>269.8</ele><time>2013-11-20T06:18:04.0000000+00:00</time></trkpt><trkpt lat="31.04135704" lon="34.72029877"><ele>269.8</ele><time>2013-11-20T06:18:09.0000000+00:00</time></trkpt><trkpt lat="31.04135704" lon="34.72029877"><ele>269.9</ele><time>2013-11-20T06:18:14.0000000+00:00</time></trkpt><trkpt lat="31.04135704" lon="34.72029877"><ele>269.9</ele><time>2013-11-20T06:18:19.0000000+00:00</time></trkpt><trkpt lat="31.04135704" lon="34.72029877"><ele>269.9</ele><time>2013-11-20T06:18:24.0000000+00:00</time></trkpt><trkpt lat="31.04135704" lon="34.72029877"><ele>269.9</ele><time>2013-11-20T06:18:29.0000000+00:00</time></trkpt><trkpt lat="31.04135704" lon="34.72029877"><ele>269.8</ele><time>2013-11-20T06:18:34.0000000+00:00</time></trkpt><trkpt lat="31.04135704" lon="34.72029877"><ele>269.8</ele><time>2013-11-20T06:18:39.0000000+00:00</time></trkpt><trkpt lat="31.04135704" lon="34.72029877"><ele>269.8</ele><time>2013-11-20T06:18:44.0000000+00:00</time></trkpt><trkpt lat="31.04135513" lon="34.72029877"><ele>269.8</ele><time>2013-11-20T06:18:49.0000000+00:00</time></trkpt><trkpt lat="31.04135513" lon="34.72029495"><ele>269.9</ele><time>2013-11-20T06:18:54.0000000+00:00</time></trkpt><trkpt lat="31.04135513" lon="34.72029495"><ele>269.9</ele><time>2013-11-20T06:18:59.0000000+00:00</time></trkpt><trkpt lat="31.04135323" lon="34.72029495"><ele>269.9</ele><time>2013-11-20T06:19:04.0000000+00:00</time></trkpt><trkpt lat="31.04135323" lon="34.72029495"><ele>269.9</ele><time>2013-11-20T06:19:09.0000000+00:00</time></trkpt><trkpt lat="31.04135323" lon="34.72029495"><ele>270.0</ele><time>2013-11-20T06:19:14.0000000+00:00</time></trkpt><trkpt lat="31.04135323" lon="34.72029495"><ele>270.0</ele><time>2013-11-20T06:19:19.0000000+00:00</time></trkpt><trkpt lat="31.04135323" lon="34.72029495"><ele>270.0</ele><time>2013-11-20T06:19:24.0000000+00:00</time></trkpt><trkpt lat="31.04135132" lon="34.72029114"><ele>270.0</ele><time>2013-11-20T06:19:29.0000000+00:00</time></trkpt><trkpt lat="31.04135132" lon="34.72029114"><ele>270.0</ele><time>2013-11-20T06:19:34.0000000+00:00</time></trkpt><trkpt lat="31.04135132" lon="34.72029114"><ele>270.0</ele><time>2013-11-20T06:19:39.0000000+00:00</time></trkpt><trkpt lat="31.04135132" lon="34.72029114"><ele>270.1</ele><time>2013-11-20T06:19:44.0000000+00:00</time></trkpt><trkpt lat="31.04134941" lon="34.72029114"><ele>270.2</ele><time>2013-11-20T06:19:49.0000000+00:00</time></trkpt><trkpt lat="31.0413475" lon="34.72028732"><ele>270.3</ele><time>2013-11-20T06:19:54.0000000+00:00</time></trkpt><trkpt lat="31.0413475" lon="34.72028732"><ele>270.5</ele><time>2013-11-20T06:19:59.0000000+00:00</time></trkpt><trkpt lat="31.0413475" lon="34.72028732"><ele>270.6</ele><time>2013-11-20T06:20:04.0000000+00:00</time></trkpt><trkpt lat="31.0413475" lon="34.72028732"><ele>270.6</ele><time>2013-11-20T06:20:09.0000000+00:00</time></trkpt><trkpt lat="31.0413475" lon="34.72028732"><ele>270.6</ele><time>2013-11-20T06:20:14.0000000+00:00</time></trkpt><trkpt lat="31.0413475" lon="34.72028732"><ele>270.6</ele><time>2013-11-20T06:20:19.0000000+00:00</time></trkpt><trkpt lat="31.0413456" lon="34.72028732"><ele>270.7</ele><time>2013-11-20T06:20:24.0000000+00:00</time></trkpt><trkpt lat="31.0413456" lon="34.72028732"><ele>270.7</ele><time>2013-11-20T06:20:29.0000000+00:00</time></trkpt><trkpt lat="31.0413456" lon="34.72028732"><ele>270.8</ele><time>2013-11-20T06:20:34.0000000+00:00</time></trkpt><trkpt lat="31.0413456" lon="34.72028732"><ele>270.8</ele><time>2013-11-20T06:20:39.0000000+00:00</time></trkpt><trkpt lat="31.0413456" lon="34.72028732"><ele>270.9</ele><time>2013-11-20T06:20:44.0000000+00:00</time></trkpt><trkpt lat="31.0413456" lon="34.72028732"><ele>271.0</ele><time>2013-11-20T06:20:49.0000000+00:00</time></trkpt><trkpt lat="31.04134369" lon="34.72028351"><ele>271.1</ele><time>2013-11-20T06:20:54.0000000+00:00</time></trkpt><trkpt lat="31.04134369" lon="34.72028351"><ele>271.2</ele><time>2013-11-20T06:20:59.0000000+00:00</time></trkpt><trkpt lat="31.04134369" lon="34.72028351"><ele>271.3</ele><time>2013-11-20T06:21:04.0000000+00:00</time></trkpt><trkpt lat="31.04134369" lon="34.72028351"><ele>271.4</ele><time>2013-11-20T06:21:09.0000000+00:00</time></trkpt><trkpt lat="31.04134369" lon="34.72028351"><ele>271.5</ele><time>2013-11-20T06:21:14.0000000+00:00</time></trkpt><trkpt lat="31.04134178" lon="34.72028351"><ele>271.6</ele><time>2013-11-20T06:21:19.0000000+00:00</time></trkpt><trkpt lat="31.04134178" lon="34.72028351"><ele>271.8</ele><time>2013-11-20T06:21:24.0000000+00:00</time></trkpt><trkpt lat="31.04134178" lon="34.72028351"><ele>271.9</ele><time>2013-11-20T06:21:29.0000000+00:00</time></trkpt><trkpt lat="31.04133987" lon="34.72027969"><ele>272.2</ele><time>2013-11-20T06:21:34.0000000+00:00</time></trkpt><trkpt lat="31.04133987" lon="34.72027969"><ele>272.5</ele><time>2013-11-20T06:21:39.0000000+00:00</time></trkpt><trkpt lat="31.04133797" lon="34.72027969"><ele>273.0</ele><time>2013-11-20T06:21:44.0000000+00:00</time></trkpt><trkpt lat="31.04133606" lon="34.72027969"><ele>273.6</ele><time>2013-11-20T06:21:49.0000000+00:00</time></trkpt><trkpt lat="31.04133225" lon="34.72027969"><ele>274.3</ele><time>2013-11-20T06:21:54.0000000+00:00</time></trkpt><trkpt lat="31.04133034" lon="34.72027969"><ele>275.0</ele><time>2013-11-20T06:21:59.0000000+00:00</time></trkpt><trkpt lat="31.04132843" lon="34.72027969"><ele>275.8</ele><time>2013-11-20T06:22:04.0000000+00:00</time></trkpt><trkpt lat="31.04132652" lon="34.72028351"><ele>276.7</ele><time>2013-11-20T06:22:09.0000000+00:00</time></trkpt><trkpt lat="31.04132271" lon="34.72027969"><ele>277.6</ele><time>2013-11-20T06:22:14.0000000+00:00</time></trkpt><trkpt lat="31.04131889" lon="34.72027969"><ele>278.7</ele><time>2013-11-20T06:22:19.0000000+00:00</time></trkpt><trkpt lat="31.04131508" lon="34.72027969"><ele>279.8</ele><time>2013-11-20T06:22:24.0000000+00:00</time></trkpt><trkpt lat="31.04131508" lon="34.72027969"><ele>280.2</ele><time>2013-11-20T06:22:29.0000000+00:00</time></trkpt><trkpt lat="31.04131317" lon="34.72028351"><ele>280.4</ele><time>2013-11-20T06:22:34.0000000+00:00</time></trkpt><trkpt lat="31.04131317" lon="34.72028351"><ele>280.4</ele><time>2013-11-20T06:22:39.0000000+00:00</time></trkpt><trkpt lat="31.04131317" lon="34.72028351"><ele>280.4</ele><time>2013-11-20T06:22:44.0000000+00:00</time></trkpt><trkpt lat="31.04131317" lon="34.72028351"><ele>280.4</ele><time>2013-11-20T06:22:49.0000000+00:00</time></trkpt><trkpt lat="31.04131317" lon="34.72028351"><ele>280.4</ele><time>2013-11-20T06:22:54.0000000+00:00</time></trkpt><trkpt lat="31.04131317" lon="34.72028351"><ele>280.4</ele><time>2013-11-20T06:22:59.0000000+00:00</time></trkpt><trkpt lat="31.04131317" lon="34.72028351"><ele>280.4</ele><time>2013-11-20T06:23:04.0000000+00:00</time></trkpt><trkpt lat="31.04131317" lon="34.72028351"><ele>280.4</ele><time>2013-11-20T06:23:09.0000000+00:00</time></trkpt><trkpt lat="31.04131317" lon="34.72028351"><ele>280.4</ele><time>2013-11-20T06:23:14.0000000+00:00</time></trkpt><trkpt lat="31.04131317" lon="34.72028351"><ele>280.4</ele><time>2013-11-20T06:23:19.0000000+00:00</time></trkpt><trkpt lat="31.04131317" lon="34.72028351"><ele>280.4</ele><time>2013-11-20T06:23:24.0000000+00:00</time></trkpt><trkpt lat="31.04131317" lon="34.72028351"><ele>280.4</ele><time>2013-11-20T06:23:29.0000000+00:00</time></trkpt><trkpt lat="31.04131317" lon="34.72028351"><ele>280.4</ele><time>2013-11-20T06:23:34.0000000+00:00</time></trkpt><trkpt lat="31.04131126" lon="34.72028351"><ele>280.4</ele><time>2013-11-20T06:23:39.0000000+00:00</time></trkpt><trkpt lat="31.04131126" lon="34.72028351"><ele>280.3</ele><time>2013-11-20T06:23:44.0000000+00:00</time></trkpt><trkpt lat="31.04131126" lon="34.72028351"><ele>280.3</ele><time>2013-11-20T06:23:49.0000000+00:00</time></trkpt><trkpt lat="31.04131126" lon="34.72028351"><ele>280.3</ele><time>2013-11-20T06:23:54.0000000+00:00</time></trkpt><trkpt lat="31.04131126" lon="34.72028351"><ele>280.3</ele><time>2013-11-20T06:23:59.0000000+00:00</time></trkpt><trkpt lat="31.04131126" lon="34.72028351"><ele>280.3</ele><time>2013-11-20T06:24:04.0000000+00:00</time></trkpt><trkpt lat="31.04131126" lon="34.72028351"><ele>280.3</ele><time>2013-11-20T06:24:09.0000000+00:00</time></trkpt><trkpt lat="31.04131126" lon="34.72028351"><ele>280.3</ele><time>2013-11-20T06:24:14.0000000+00:00</time></trkpt><trkpt lat="31.04131126" lon="34.72028351"><ele>280.3</ele><time>2013-11-20T06:24:19.0000000+00:00</time></trkpt><trkpt lat="31.04131126" lon="34.72028351"><ele>280.3</ele><time>2013-11-20T06:24:24.0000000+00:00</time></trkpt><trkpt lat="31.04131126" lon="34.72028351"><ele>280.4</ele><time>2013-11-20T06:24:29.0000000+00:00</time></trkpt><trkpt lat="31.04131126" lon="34.72028351"><ele>280.4</ele><time>2013-11-20T06:24:34.0000000+00:00</time></trkpt><trkpt lat="31.04131126" lon="34.72028351"><ele>280.4</ele><time>2013-11-20T06:24:39.0000000+00:00</time></trkpt><trkpt lat="31.04131126" lon="34.72028351"><ele>280.4</ele><time>2013-11-20T06:24:44.0000000+00:00</time></trkpt><trkpt lat="31.04131126" lon="34.72028351"><ele>280.4</ele><time>2013-11-20T06:24:49.0000000+00:00</time></trkpt><trkpt lat="31.04131126" lon="34.72028351"><ele>280.4</ele><time>2013-11-20T06:24:54.0000000+00:00</time></trkpt><trkpt lat="31.04131126" lon="34.72028351"><ele>280.3</ele><time>2013-11-20T06:24:59.0000000+00:00</time></trkpt><trkpt lat="31.04131126" lon="34.72028351"><ele>280.3</ele><time>2013-11-20T06:25:04.0000000+00:00</time></trkpt><trkpt lat="31.04131126" lon="34.72028351"><ele>280.3</ele><time>2013-11-20T06:25:09.0000000+00:00</time></trkpt><trkpt lat="31.04131126" lon="34.72028351"><ele>280.3</ele><time>2013-11-20T06:25:14.0000000+00:00</time></trkpt><trkpt lat="31.04131126" lon="34.72028351"><ele>280.3</ele><time>2013-11-20T06:25:19.0000000+00:00</time></trkpt><trkpt lat="31.04131126" lon="34.72028351"><ele>280.3</ele><time>2013-11-20T06:25:24.0000000+00:00</time></trkpt><trkpt lat="31.04131126" lon="34.72028351"><ele>280.3</ele><time>2013-11-20T06:25:29.0000000+00:00</time></trkpt><trkpt lat="31.04131126" lon="34.72028351"><ele>280.3</ele><time>2013-11-20T06:25:34.0000000+00:00</time></trkpt><trkpt lat="31.04131126" lon="34.72028351"><ele>280.3</ele><time>2013-11-20T06:25:39.0000000+00:00</time></trkpt><trkpt lat="31.04130936" lon="34.72028351"><ele>280.3</ele><time>2013-11-20T06:25:44.0000000+00:00</time></trkpt><trkpt lat="31.04131126" lon="34.72028351"><ele>280.3</ele><time>2013-11-20T06:25:49.0000000+00:00</time></trkpt><trkpt lat="31.04130936" lon="34.72028351"><ele>280.3</ele><time>2013-11-20T06:25:54.0000000+00:00</time></trkpt><trkpt lat="31.04130745" lon="34.72027969"><ele>280.3</ele><time>2013-11-20T06:25:59.0000000+00:00</time></trkpt><trkpt lat="31.04130745" lon="34.72027969"><ele>280.3</ele><time>2013-11-20T06:26:04.0000000+00:00</time></trkpt><trkpt lat="31.04130745" lon="34.72027969"><ele>280.3</ele><time>2013-11-20T06:26:09.0000000+00:00</time></trkpt><trkpt lat="31.04130745" lon="34.72027969"><ele>280.3</ele><time>2013-11-20T06:26:14.0000000+00:00</time></trkpt><trkpt lat="31.04130745" lon="34.72027969"><ele>280.3</ele><time>2013-11-20T06:26:19.0000000+00:00</time></trkpt><trkpt lat="31.04130745" lon="34.72027969"><ele>280.3</ele><time>2013-11-20T06:26:24.0000000+00:00</time></trkpt><trkpt lat="31.04130745" lon="34.72027969"><ele>280.3</ele><time>2013-11-20T06:26:29.0000000+00:00</time></trkpt><trkpt lat="31.04130936" lon="34.72027969"><ele>280.3</ele><time>2013-11-20T06:26:34.0000000+00:00</time></trkpt><trkpt lat="31.04130936" lon="34.72028351"><ele>280.3</ele><time>2013-11-20T06:26:39.0000000+00:00</time></trkpt><trkpt lat="31.04130936" lon="34.72028351"><ele>280.5</ele><time>2013-11-20T06:26:44.0000000+00:00</time></trkpt><trkpt lat="31.04130936" lon="34.72028351"><ele>280.5</ele><time>2013-11-20T06:26:49.0000000+00:00</time></trkpt><trkpt lat="31.04130745" lon="34.72028351"><ele>280.5</ele><time>2013-11-20T06:26:54.0000000+00:00</time></trkpt><trkpt lat="31.04130745" lon="34.72028351"><ele>280.5</ele><time>2013-11-20T06:26:59.0000000+00:00</time></trkpt><trkpt lat="31.04130745" lon="34.72028351"><ele>280.5</ele><time>2013-11-20T06:27:04.0000000+00:00</time></trkpt><trkpt lat="31.04130745" lon="34.72028732"><ele>280.5</ele><time>2013-11-20T06:27:09.0000000+00:00</time></trkpt><trkpt lat="31.04130745" lon="34.72028732"><ele>280.5</ele><time>2013-11-20T06:27:14.0000000+00:00</time></trkpt><trkpt lat="31.04130745" lon="34.72028732"><ele>280.5</ele><time>2013-11-20T06:27:19.0000000+00:00</time></trkpt><trkpt lat="31.04130745" lon="34.72028732"><ele>280.5</ele><time>2013-11-20T06:27:24.0000000+00:00</time></trkpt><trkpt lat="31.04130745" lon="34.72028732"><ele>280.6</ele><time>2013-11-20T06:27:29.0000000+00:00</time></trkpt><trkpt lat="31.04130745" lon="34.72029114"><ele>280.6</ele><time>2013-11-20T06:27:34.0000000+00:00</time></trkpt><trkpt lat="31.04130745" lon="34.72029495"><ele>280.6</ele><time>2013-11-20T06:27:39.0000000+00:00</time></trkpt><trkpt lat="31.04130554" lon="34.72030258"><ele>280.7</ele><time>2013-11-20T06:27:44.0000000+00:00</time></trkpt><trkpt lat="31.04130745" lon="34.72031021"><ele>280.8</ele><time>2013-11-20T06:27:49.0000000+00:00</time></trkpt><trkpt lat="31.04130554" lon="34.72031403"><ele>280.9</ele><time>2013-11-20T06:27:54.0000000+00:00</time></trkpt><trkpt lat="31.04130745" lon="34.72032547"><ele>281.1</ele><time>2013-11-20T06:27:59.0000000+00:00</time></trkpt><trkpt lat="31.04130745" lon="34.7203331"><ele>281.2</ele><time>2013-11-20T06:28:04.0000000+00:00</time></trkpt><trkpt lat="31.04130745" lon="34.72033691"><ele>281.4</ele><time>2013-11-20T06:28:09.0000000+00:00</time></trkpt><trkpt lat="31.04130745" lon="34.72034073"><ele>281.6</ele><time>2013-11-20T06:28:14.0000000+00:00</time></trkpt><trkpt lat="31.04130554" lon="34.72033691"><ele>281.8</ele><time>2013-11-20T06:28:19.0000000+00:00</time></trkpt><trkpt lat="31.04130364" lon="34.72032929"><ele>282.0</ele><time>2013-11-20T06:28:24.0000000+00:00</time></trkpt><trkpt lat="31.04130173" lon="34.72032166"><ele>282.3</ele><time>2013-11-20T06:28:29.0000000+00:00</time></trkpt><trkpt lat="31.04129791" lon="34.72031021"><ele>282.5</ele><time>2013-11-20T06:28:34.0000000+00:00</time></trkpt><trkpt lat="31.04129601" lon="34.72029495"><ele>282.7</ele><time>2013-11-20T06:28:39.0000000+00:00</time></trkpt><trkpt lat="31.0412941" lon="34.72028351"><ele>282.9</ele><time>2013-11-20T06:28:44.0000000+00:00</time></trkpt><trkpt lat="31.04129219" lon="34.72027206"><ele>283.2</ele><time>2013-11-20T06:28:49.0000000+00:00</time></trkpt><trkpt lat="31.04128838" lon="34.72026062"><ele>283.4</ele><time>2013-11-20T06:28:54.0000000+00:00</time></trkpt><trkpt lat="31.04128647" lon="34.72025299"><ele>283.6</ele><time>2013-11-20T06:28:59.0000000+00:00</time></trkpt><trkpt lat="31.04128647" lon="34.72025299"><ele>283.9</ele><time>2013-11-20T06:29:04.0000000+00:00</time></trkpt><trkpt lat="31.04128647" lon="34.72025299"><ele>284.3</ele><time>2013-11-20T06:29:09.0000000+00:00</time></trkpt><trkpt lat="31.04128456" lon="34.72025299"><ele>284.6</ele><time>2013-11-20T06:29:14.0000000+00:00</time></trkpt><trkpt lat="31.04128456" lon="34.72025299"><ele>284.6</ele><time>2013-11-20T06:29:19.0000000+00:00</time></trkpt><trkpt lat="31.04128456" lon="34.72025299"><ele>284.6</ele><time>2013-11-20T06:29:24.0000000+00:00</time></trkpt><trkpt lat="31.04128456" lon="34.72025299"><ele>284.6</ele><time>2013-11-20T06:29:29.0000000+00:00</time></trkpt><trkpt lat="31.04128456" lon="34.72025299"><ele>284.6</ele><time>2013-11-20T06:29:34.0000000+00:00</time></trkpt><trkpt lat="31.04128456" lon="34.72025299"><ele>284.6</ele><time>2013-11-20T06:29:39.0000000+00:00</time></trkpt><trkpt lat="31.04128456" lon="34.72025299"><ele>284.6</ele><time>2013-11-20T06:29:44.0000000+00:00</time></trkpt><trkpt lat="31.04128456" lon="34.72025299"><ele>284.6</ele><time>2013-11-20T06:29:49.0000000+00:00</time></trkpt><trkpt lat="31.04128456" lon="34.72025299"><ele>284.6</ele><time>2013-11-20T06:29:54.0000000+00:00</time></trkpt><trkpt lat="31.04128647" lon="34.72025299"><ele>284.6</ele><time>2013-11-20T06:29:59.0000000+00:00</time></trkpt><trkpt lat="31.04128647" lon="34.72025299"><ele>284.6</ele><time>2013-11-20T06:30:04.0000000+00:00</time></trkpt><trkpt lat="31.04128647" lon="34.72025299"><ele>284.6</ele><time>2013-11-20T06:30:09.0000000+00:00</time></trkpt><trkpt lat="31.04128647" lon="34.72025299"><ele>284.6</ele><time>2013-11-20T06:30:14.0000000+00:00</time></trkpt><trkpt lat="31.04128647" lon="34.72025299"><ele>284.6</ele><time>2013-11-20T06:30:19.0000000+00:00</time></trkpt><trkpt lat="31.04128647" lon="34.72025299"><ele>284.6</ele><time>2013-11-20T06:30:24.0000000+00:00</time></trkpt><trkpt lat="31.04128647" lon="34.72025299"><ele>284.6</ele><time>2013-11-20T06:30:29.0000000+00:00</time></trkpt><trkpt lat="31.04128647" lon="34.72025299"><ele>284.6</ele><time>2013-11-20T06:30:34.0000000+00:00</time></trkpt><trkpt lat="31.04128647" lon="34.72025299"><ele>284.6</ele><time>2013-11-20T06:30:39.0000000+00:00</time></trkpt><trkpt lat="31.04128456" lon="34.72025681"><ele>284.6</ele><time>2013-11-20T06:30:44.0000000+00:00</time></trkpt><trkpt lat="31.04128075" lon="34.72025681"><ele>284.7</ele><time>2013-11-20T06:30:49.0000000+00:00</time></trkpt><trkpt lat="31.04127884" lon="34.72026062"><ele>284.8</ele><time>2013-11-20T06:30:54.0000000+00:00</time></trkpt><trkpt lat="31.04127693" lon="34.72026825"><ele>284.9</ele><time>2013-11-20T06:30:59.0000000+00:00</time></trkpt><trkpt lat="31.04127502" lon="34.72027206"><ele>285.1</ele><time>2013-11-20T06:31:04.0000000+00:00</time></trkpt><trkpt lat="31.04127502" lon="34.72027206"><ele>285.2</ele><time>2013-11-20T06:31:09.0000000+00:00</time></trkpt><trkpt lat="31.04127693" lon="34.72027588"><ele>285.1</ele><time>2013-11-20T06:31:14.0000000+00:00</time></trkpt><trkpt lat="31.04127693" lon="34.72027588"><ele>285.1</ele><time>2013-11-20T06:31:19.0000000+00:00</time></trkpt><trkpt lat="31.04127693" lon="34.72027588"><ele>285.1</ele><time>2013-11-20T06:31:24.0000000+00:00</time></trkpt><trkpt lat="31.04127884" lon="34.72027588"><ele>285.0</ele><time>2013-11-20T06:31:29.0000000+00:00</time></trkpt><trkpt lat="31.04127884" lon="34.72027588"><ele>284.8</ele><time>2013-11-20T06:31:34.0000000+00:00</time></trkpt><trkpt lat="31.04127884" lon="34.72027588"><ele>284.6</ele><time>2013-11-20T06:31:39.0000000+00:00</time></trkpt><trkpt lat="31.04127884" lon="34.72027588"><ele>284.7</ele><time>2013-11-20T06:31:44.0000000+00:00</time></trkpt><trkpt lat="31.04128075" lon="34.72027588"><ele>284.7</ele><time>2013-11-20T06:31:49.0000000+00:00</time></trkpt><trkpt lat="31.04128075" lon="34.72027588"><ele>284.7</ele><time>2013-11-20T06:31:54.0000000+00:00</time></trkpt><trkpt lat="31.04128075" lon="34.72027588"><ele>284.7</ele><time>2013-11-20T06:31:59.0000000+00:00</time></trkpt><trkpt lat="31.04128075" lon="34.72027588"><ele>284.7</ele><time>2013-11-20T06:32:04.0000000+00:00</time></trkpt><trkpt lat="31.04127884" lon="34.72027588"><ele>284.7</ele><time>2013-11-20T06:32:09.0000000+00:00</time></trkpt><trkpt lat="31.04127884" lon="34.72027588"><ele>284.7</ele><time>2013-11-20T06:32:14.0000000+00:00</time></trkpt><trkpt lat="31.04128075" lon="34.72027588"><ele>284.7</ele><time>2013-11-20T06:32:19.0000000+00:00</time></trkpt><trkpt lat="31.04127884" lon="34.72027588"><ele>284.8</ele><time>2013-11-20T06:32:24.0000000+00:00</time></trkpt><trkpt lat="31.04128075" lon="34.72027588"><ele>284.8</ele><time>2013-11-20T06:32:29.0000000+00:00</time></trkpt><trkpt lat="31.04128075" lon="34.72027588"><ele>284.8</ele><time>2013-11-20T06:32:34.0000000+00:00</time></trkpt><trkpt lat="31.04128075" lon="34.72027588"><ele>284.8</ele><time>2013-11-20T06:32:39.0000000+00:00</time></trkpt><trkpt lat="31.04128075" lon="34.72027588"><ele>284.8</ele><time>2013-11-20T06:32:44.0000000+00:00</time></trkpt><trkpt lat="31.04127884" lon="34.72027588"><ele>284.8</ele><time>2013-11-20T06:32:49.0000000+00:00</time></trkpt><trkpt lat="31.04128075" lon="34.72027588"><ele>284.8</ele><time>2013-11-20T06:32:54.0000000+00:00</time></trkpt><trkpt lat="31.04128075" lon="34.72027969"><ele>284.7</ele><time>2013-11-20T06:32:59.0000000+00:00</time></trkpt><trkpt lat="31.04128075" lon="34.72027969"><ele>284.7</ele><time>2013-11-20T06:33:04.0000000+00:00</time></trkpt><trkpt lat="31.04128075" lon="34.72027969"><ele>284.6</ele><time>2013-11-20T06:33:09.0000000+00:00</time></trkpt><trkpt lat="31.04128075" lon="34.72027969"><ele>284.6</ele><time>2013-11-20T06:33:14.0000000+00:00</time></trkpt><trkpt lat="31.04128075" lon="34.72027969"><ele>284.6</ele><time>2013-11-20T06:33:19.0000000+00:00</time></trkpt><trkpt lat="31.04128075" lon="34.72027969"><ele>284.6</ele><time>2013-11-20T06:33:24.0000000+00:00</time></trkpt><trkpt lat="31.04127693" lon="34.72027588"><ele>284.6</ele><time>2013-11-20T06:33:29.0000000+00:00</time></trkpt><trkpt lat="31.04127693" lon="34.72027206"><ele>284.6</ele><time>2013-11-20T06:33:34.0000000+00:00</time></trkpt><trkpt lat="31.04127693" lon="34.72027206"><ele>284.6</ele><time>2013-11-20T06:33:39.0000000+00:00</time></trkpt><trkpt lat="31.04127502" lon="34.72026825"><ele>284.6</ele><time>2013-11-20T06:33:44.0000000+00:00</time></trkpt><trkpt lat="31.04127312" lon="34.72026825"><ele>284.6</ele><time>2013-11-20T06:33:49.0000000+00:00</time></trkpt><trkpt lat="31.04127121" lon="34.72026825"><ele>284.6</ele><time>2013-11-20T06:33:54.0000000+00:00</time></trkpt><trkpt lat="31.04127121" lon="34.72026444"><ele>284.6</ele><time>2013-11-20T06:33:59.0000000+00:00</time></trkpt><trkpt lat="31.04127312" lon="34.72026062"><ele>284.5</ele><time>2013-11-20T06:34:04.0000000+00:00</time></trkpt><trkpt lat="31.04127502" lon="34.72026062"><ele>284.5</ele><time>2013-11-20T06:34:09.0000000+00:00</time></trkpt><trkpt lat="31.04127502" lon="34.72026444"><ele>284.4</ele><time>2013-11-20T06:34:14.0000000+00:00</time></trkpt><trkpt lat="31.04127502" lon="34.72026444"><ele>284.4</ele><time>2013-11-20T06:34:19.0000000+00:00</time></trkpt><trkpt lat="31.04127502" lon="34.72026444"><ele>284.4</ele><time>2013-11-20T06:34:24.0000000+00:00</time></trkpt><trkpt lat="31.04127502" lon="34.72026444"><ele>284.4</ele><time>2013-11-20T06:34:29.0000000+00:00</time></trkpt><trkpt lat="31.04127502" lon="34.72026444"><ele>284.4</ele><time>2013-11-20T06:34:34.0000000+00:00</time></trkpt><trkpt lat="31.04127502" lon="34.72026444"><ele>284.4</ele><time>2013-11-20T06:34:39.0000000+00:00</time></trkpt><trkpt lat="31.04127312" lon="34.72026444"><ele>284.4</ele><time>2013-11-20T06:34:44.0000000+00:00</time></trkpt><trkpt lat="31.04127121" lon="34.72026444"><ele>284.5</ele><time>2013-11-20T06:34:49.0000000+00:00</time></trkpt><trkpt lat="31.04127121" lon="34.72026444"><ele>284.6</ele><time>2013-11-20T06:34:54.0000000+00:00</time></trkpt><trkpt lat="31.04127312" lon="34.72026444"><ele>284.8</ele><time>2013-11-20T06:34:59.0000000+00:00</time></trkpt><trkpt lat="31.04127693" lon="34.72026444"><ele>284.9</ele><time>2013-11-20T06:35:04.0000000+00:00</time></trkpt><trkpt lat="31.04128075" lon="34.72026444"><ele>285.0</ele><time>2013-11-20T06:35:09.0000000+00:00</time></trkpt><trkpt lat="31.04128647" lon="34.72026062"><ele>285.1</ele><time>2013-11-20T06:35:14.0000000+00:00</time></trkpt><trkpt lat="31.04129219" lon="34.72026062"><ele>285.2</ele><time>2013-11-20T06:35:19.0000000+00:00</time></trkpt><trkpt lat="31.04129791" lon="34.72025681"><ele>285.3</ele><time>2013-11-20T06:35:24.0000000+00:00</time></trkpt><trkpt lat="31.04129982" lon="34.72025681"><ele>285.5</ele><time>2013-11-20T06:35:29.0000000+00:00</time></trkpt><trkpt lat="31.04129982" lon="34.72025681"><ele>285.6</ele><time>2013-11-20T06:35:34.0000000+00:00</time></trkpt><trkpt lat="31.04129982" lon="34.72025681"><ele>285.8</ele><time>2013-11-20T06:35:39.0000000+00:00</time></trkpt><trkpt lat="31.04129982" lon="34.72025681"><ele>285.8</ele><time>2013-11-20T06:35:44.0000000+00:00</time></trkpt><trkpt lat="31.04129791" lon="34.72025681"><ele>285.7</ele><time>2013-11-20T06:35:49.0000000+00:00</time></trkpt><trkpt lat="31.04129791" lon="34.72025681"><ele>285.7</ele><time>2013-11-20T06:35:54.0000000+00:00</time></trkpt><trkpt lat="31.04129982" lon="34.72025681"><ele>285.7</ele><time>2013-11-20T06:35:59.0000000+00:00</time></trkpt><trkpt lat="31.04133034" lon="34.72023392"><ele>285.8</ele><time>2013-11-20T06:36:04.0000000+00:00</time></trkpt><trkpt lat="31.04145622" lon="34.72018051"><ele>285.1</ele><time>2013-11-20T06:36:09.0000000+00:00</time></trkpt><trkpt lat="31.04159164" lon="34.72019959"><ele>284.4</ele><time>2013-11-20T06:36:14.0000000+00:00</time></trkpt><trkpt lat="31.04175949" lon="34.72028351"><ele>283.1</ele><time>2013-11-20T06:36:19.0000000+00:00</time></trkpt><trkpt lat="31.04189682" lon="34.72034836"><ele>282.3</ele><time>2013-11-20T06:36:24.0000000+00:00</time></trkpt><trkpt lat="31.04202461" lon="34.72042847"><ele>281.5</ele><time>2013-11-20T06:36:29.0000000+00:00</time></trkpt><trkpt lat="31.04219818" lon="34.72036743"><ele>281.4</ele><time>2013-11-20T06:36:34.0000000+00:00</time></trkpt><trkpt lat="31.04235268" lon="34.72027588"><ele>280.9</ele><time>2013-11-20T06:36:39.0000000+00:00</time></trkpt><trkpt lat="31.04251862" lon="34.72012711"><ele>280.9</ele><time>2013-11-20T06:36:44.0000000+00:00</time></trkpt><trkpt lat="31.04273605" lon="34.71999741"><ele>281.5</ele><time>2013-11-20T06:36:49.0000000+00:00</time></trkpt><trkpt lat="31.04298973" lon="34.71988297"><ele>281.0</ele><time>2013-11-20T06:36:54.0000000+00:00</time></trkpt><trkpt lat="31.04321289" lon="34.7197876"><ele>280.5</ele><time>2013-11-20T06:36:59.0000000+00:00</time></trkpt><trkpt lat="31.04342079" lon="34.71971893"><ele>279.3</ele><time>2013-11-20T06:37:04.0000000+00:00</time></trkpt><trkpt lat="31.04366303" lon="34.71971512"><ele>277.4</ele><time>2013-11-20T06:37:09.0000000+00:00</time></trkpt><trkpt lat="31.04389381" lon="34.71982193"><ele>277.1</ele><time>2013-11-20T06:37:14.0000000+00:00</time></trkpt><trkpt lat="31.04408646" lon="34.71997452"><ele>276.5</ele><time>2013-11-20T06:37:19.0000000+00:00</time></trkpt><trkpt lat="31.04425812" lon="34.72008514"><ele>274.6</ele><time>2013-11-20T06:37:24.0000000+00:00</time></trkpt><trkpt lat="31.04444504" lon="34.71995926"><ele>275.2</ele><time>2013-11-20T06:37:29.0000000+00:00</time></trkpt><trkpt lat="31.04467201" lon="34.71982575"><ele>276.1</ele><time>2013-11-20T06:37:34.0000000+00:00</time></trkpt><trkpt lat="31.04489899" lon="34.71969223"><ele>277.0</ele><time>2013-11-20T06:37:39.0000000+00:00</time></trkpt><trkpt lat="31.04510117" lon="34.71953201"><ele>276.9</ele><time>2013-11-20T06:37:44.0000000+00:00</time></trkpt><trkpt lat="31.0453167" lon="34.71938705"><ele>277.5</ele><time>2013-11-20T06:37:49.0000000+00:00</time></trkpt><trkpt lat="31.04554176" lon="34.71926117"><ele>278.5</ele><time>2013-11-20T06:37:54.0000000+00:00</time></trkpt><trkpt lat="31.04571533" lon="34.71912766"><ele>279.1</ele><time>2013-11-20T06:37:59.0000000+00:00</time></trkpt><trkpt lat="31.04595947" lon="34.71908951"><ele>277.9</ele><time>2013-11-20T06:38:04.0000000+00:00</time></trkpt><trkpt lat="31.04607201" lon="34.71922684"><ele>277.8</ele><time>2013-11-20T06:38:09.0000000+00:00</time></trkpt><trkpt lat="31.04603767" lon="34.7191658"><ele>277.2</ele><time>2013-11-20T06:38:14.0000000+00:00</time></trkpt><trkpt lat="31.04598427" lon="34.71899033"><ele>277.1</ele><time>2013-11-20T06:38:19.0000000+00:00</time></trkpt><trkpt lat="31.0459137" lon="34.71877289"><ele>276.3</ele><time>2013-11-20T06:38:24.0000000+00:00</time></trkpt><trkpt lat="31.04581451" lon="34.71854782"><ele>275.8</ele><time>2013-11-20T06:38:29.0000000+00:00</time></trkpt><trkpt lat="31.0457058" lon="34.71832657"><ele>275.6</ele><time>2013-11-20T06:38:34.0000000+00:00</time></trkpt><trkpt lat="31.04556656" lon="34.71818543"><ele>274.8</ele><time>2013-11-20T06:38:39.0000000+00:00</time></trkpt><trkpt lat="31.04545212" lon="34.71799851"><ele>273.4</ele><time>2013-11-20T06:38:44.0000000+00:00</time></trkpt><trkpt lat="31.04535294" lon="34.71780014"><ele>273.2</ele><time>2013-11-20T06:38:49.0000000+00:00</time></trkpt><trkpt lat="31.04529953" lon="34.7176857"><ele>273.2</ele><time>2013-11-20T06:38:54.0000000+00:00</time></trkpt><trkpt lat="31.04527283" lon="34.71763229"><ele>273.8</ele><time>2013-11-20T06:38:59.0000000+00:00</time></trkpt><trkpt lat="31.04527473" lon="34.71763229"><ele>273.6</ele><time>2013-11-20T06:39:04.0000000+00:00</time></trkpt><trkpt lat="31.04527283" lon="34.71763229"><ele>273.7</ele><time>2013-11-20T06:39:09.0000000+00:00</time></trkpt><trkpt lat="31.04527283" lon="34.71763229"><ele>273.7</ele><time>2013-11-20T06:39:14.0000000+00:00</time></trkpt><trkpt lat="31.04526901" lon="34.71763229"><ele>273.9</ele><time>2013-11-20T06:39:19.0000000+00:00</time></trkpt><trkpt lat="31.0452652" lon="34.71762848"><ele>273.9</ele><time>2013-11-20T06:39:24.0000000+00:00</time></trkpt><trkpt lat="31.04526711" lon="34.71763229"><ele>273.9</ele><time>2013-11-20T06:39:29.0000000+00:00</time></trkpt><trkpt lat="31.04526901" lon="34.71763229"><ele>273.9</ele><time>2013-11-20T06:39:34.0000000+00:00</time></trkpt><trkpt lat="31.04526901" lon="34.71763229"><ele>273.9</ele><time>2013-11-20T06:39:39.0000000+00:00</time></trkpt><trkpt lat="31.04526901" lon="34.71763611"><ele>273.9</ele><time>2013-11-20T06:39:44.0000000+00:00</time></trkpt><trkpt lat="31.04526329" lon="34.71761704"><ele>274.0</ele><time>2013-11-20T06:39:49.0000000+00:00</time></trkpt><trkpt lat="31.04520607" lon="34.71752548"><ele>274.7</ele><time>2013-11-20T06:39:54.0000000+00:00</time></trkpt><trkpt lat="31.04515266" lon="34.71743774"><ele>275.7</ele><time>2013-11-20T06:39:59.0000000+00:00</time></trkpt><trkpt lat="31.04510307" lon="34.71736145"><ele>276.7</ele><time>2013-11-20T06:40:04.0000000+00:00</time></trkpt><trkpt lat="31.045084" lon="34.71734238"><ele>276.9</ele><time>2013-11-20T06:40:09.0000000+00:00</time></trkpt><trkpt lat="31.04505158" lon="34.71730423"><ele>277.1</ele><time>2013-11-20T06:40:14.0000000+00:00</time></trkpt><trkpt lat="31.04500198" lon="34.71721268"><ele>276.9</ele><time>2013-11-20T06:40:19.0000000+00:00</time></trkpt><trkpt lat="31.04495812" lon="34.71713257"><ele>276.0</ele><time>2013-11-20T06:40:24.0000000+00:00</time></trkpt><trkpt lat="31.04494667" lon="34.71707153"><ele>275.3</ele><time>2013-11-20T06:40:29.0000000+00:00</time></trkpt><trkpt lat="31.04494667" lon="34.71705246"><ele>275.2</ele><time>2013-11-20T06:40:34.0000000+00:00</time></trkpt><trkpt lat="31.04494667" lon="34.71705246"><ele>274.6</ele><time>2013-11-20T06:40:39.0000000+00:00</time></trkpt><trkpt lat="31.04494476" lon="34.71705246"><ele>274.0</ele><time>2013-11-20T06:40:44.0000000+00:00</time></trkpt><trkpt lat="31.04494095" lon="34.71705246"><ele>273.5</ele><time>2013-11-20T06:40:49.0000000+00:00</time></trkpt><trkpt lat="31.04494095" lon="34.71705627"><ele>273.2</ele><time>2013-11-20T06:40:54.0000000+00:00</time></trkpt><trkpt lat="31.04493904" lon="34.71705627"><ele>273.1</ele><time>2013-11-20T06:40:59.0000000+00:00</time></trkpt><trkpt lat="31.04493904" lon="34.71705627"><ele>273.1</ele><time>2013-11-20T06:41:04.0000000+00:00</time></trkpt><trkpt lat="31.04493141" lon="34.71704483"><ele>273.0</ele><time>2013-11-20T06:41:09.0000000+00:00</time></trkpt><trkpt lat="31.04490662" lon="34.71696472"><ele>272.3</ele><time>2013-11-20T06:41:14.0000000+00:00</time></trkpt><trkpt lat="31.04485512" lon="34.71691895"><ele>272.3</ele><time>2013-11-20T06:41:19.0000000+00:00</time></trkpt><trkpt lat="31.04476357" lon="34.7168808"><ele>272.5</ele><time>2013-11-20T06:41:24.0000000+00:00</time></trkpt><trkpt lat="31.04468346" lon="34.71685791"><ele>273.0</ele><time>2013-11-20T06:41:29.0000000+00:00</time></trkpt><trkpt lat="31.04459572" lon="34.71684647"><ele>273.6</ele><time>2013-11-20T06:41:34.0000000+00:00</time></trkpt><trkpt lat="31.04449463" lon="34.71683121"><ele>274.4</ele><time>2013-11-20T06:41:39.0000000+00:00</time></trkpt><trkpt lat="31.04438973" lon="34.7169075"><ele>275.6</ele><time>2013-11-20T06:41:44.0000000+00:00</time></trkpt><trkpt lat="31.0443058" lon="34.71701431"><ele>276.8</ele><time>2013-11-20T06:41:49.0000000+00:00</time></trkpt><trkpt lat="31.04425049" lon="34.71708298"><ele>278.1</ele><time>2013-11-20T06:41:54.0000000+00:00</time></trkpt><trkpt lat="31.04416657" lon="34.71711731"><ele>280.0</ele><time>2013-11-20T06:41:59.0000000+00:00</time></trkpt><trkpt lat="31.04417992" lon="34.71719742"><ele>281.9</ele><time>2013-11-20T06:42:04.0000000+00:00</time></trkpt><trkpt lat="31.04424286" lon="34.71730423"><ele>283.2</ele><time>2013-11-20T06:42:09.0000000+00:00</time></trkpt><trkpt lat="31.04429627" lon="34.71740341"><ele>284.0</ele><time>2013-11-20T06:42:14.0000000+00:00</time></trkpt><trkpt lat="31.04437828" lon="34.71749497"><ele>285.5</ele><time>2013-11-20T06:42:19.0000000+00:00</time></trkpt><trkpt lat="31.04439354" lon="34.71760941"><ele>286.7</ele><time>2013-11-20T06:42:24.0000000+00:00</time></trkpt><trkpt lat="31.04435539" lon="34.71764755"><ele>287.4</ele><time>2013-11-20T06:42:29.0000000+00:00</time></trkpt><trkpt lat="31.04434776" lon="34.71764755"><ele>288.1</ele><time>2013-11-20T06:42:34.0000000+00:00</time></trkpt><trkpt lat="31.04434967" lon="34.71765518"><ele>289.2</ele><time>2013-11-20T06:42:39.0000000+00:00</time></trkpt><trkpt lat="31.04435349" lon="34.71766281"><ele>290.2</ele><time>2013-11-20T06:42:44.0000000+00:00</time></trkpt><trkpt lat="31.04434776" lon="34.71766663"><ele>291.2</ele><time>2013-11-20T06:42:49.0000000+00:00</time></trkpt><trkpt lat="31.04434204" lon="34.71767044"><ele>292.1</ele><time>2013-11-20T06:42:54.0000000+00:00</time></trkpt><trkpt lat="31.0443325" lon="34.71767044"><ele>293.1</ele><time>2013-11-20T06:42:59.0000000+00:00</time></trkpt><trkpt lat="31.04432106" lon="34.71766281"><ele>294.0</ele><time>2013-11-20T06:43:04.0000000+00:00</time></trkpt><trkpt lat="31.04434395" lon="34.7176857"><ele>293.4</ele><time>2013-11-20T06:43:09.0000000+00:00</time></trkpt><trkpt lat="31.04442787" lon="34.7177124"><ele>292.7</ele><time>2013-11-20T06:43:14.0000000+00:00</time></trkpt><trkpt lat="31.04457855" lon="34.71770477"><ele>291.7</ele><time>2013-11-20T06:43:19.0000000+00:00</time></trkpt><trkpt lat="31.04467011" lon="34.71767426"><ele>290.4</ele><time>2013-11-20T06:43:24.0000000+00:00</time></trkpt><trkpt lat="31.04467201" lon="34.71770859"><ele>288.8</ele><time>2013-11-20T06:43:29.0000000+00:00</time></trkpt><trkpt lat="31.04467201" lon="34.71770477"><ele>288.7</ele><time>2013-11-20T06:43:34.0000000+00:00</time></trkpt><trkpt lat="31.04466629" lon="34.71770859"><ele>288.6</ele><time>2013-11-20T06:43:39.0000000+00:00</time></trkpt><trkpt lat="31.04470253" lon="34.71766663"><ele>287.9</ele><time>2013-11-20T06:43:44.0000000+00:00</time></trkpt><trkpt lat="31.04469299" lon="34.71766663"><ele>286.9</ele><time>2013-11-20T06:43:49.0000000+00:00</time></trkpt><trkpt lat="31.04465675" lon="34.71763611"><ele>285.2</ele><time>2013-11-20T06:43:54.0000000+00:00</time></trkpt><trkpt lat="31.04457665" lon="34.71772766"><ele>284.5</ele><time>2013-11-20T06:43:59.0000000+00:00</time></trkpt><trkpt lat="31.04449844" lon="34.71786118"><ele>282.8</ele><time>2013-11-20T06:44:04.0000000+00:00</time></trkpt><trkpt lat="31.04445839" lon="34.71799851"><ele>281.3</ele><time>2013-11-20T06:44:09.0000000+00:00</time></trkpt><trkpt lat="31.04445267" lon="34.71816254"><ele>280.6</ele><time>2013-11-20T06:44:14.0000000+00:00</time></trkpt><trkpt lat="31.04439545" lon="34.71843338"><ele>279.3</ele><time>2013-11-20T06:44:19.0000000+00:00</time></trkpt><trkpt lat="31.04430962" lon="34.71878433"><ele>275.7</ele><time>2013-11-20T06:44:24.0000000+00:00</time></trkpt><trkpt lat="31.04418755" lon="34.71911621"><ele>274.7</ele><time>2013-11-20T06:44:29.0000000+00:00</time></trkpt><trkpt lat="31.04411697" lon="34.71943665"><ele>273.0</ele><time>2013-11-20T06:44:34.0000000+00:00</time></trkpt><trkpt lat="31.04410362" lon="34.71971893"><ele>272.4</ele><time>2013-11-20T06:44:39.0000000+00:00</time></trkpt><trkpt lat="31.04402733" lon="34.71990585"><ele>270.5</ele><time>2013-11-20T06:44:44.0000000+00:00</time></trkpt><trkpt lat="31.0438385" lon="34.71981049"><ele>270.4</ele><time>2013-11-20T06:44:49.0000000+00:00</time></trkpt><trkpt lat="31.04364586" lon="34.71969223"><ele>272.2</ele><time>2013-11-20T06:44:54.0000000+00:00</time></trkpt><trkpt lat="31.04342079" lon="34.71970367"><ele>272.8</ele><time>2013-11-20T06:44:59.0000000+00:00</time></trkpt><trkpt lat="31.0432148" lon="34.71976852"><ele>272.1</ele><time>2013-11-20T06:45:04.0000000+00:00</time></trkpt><trkpt lat="31.04302406" lon="34.71987915"><ele>271.1</ele><time>2013-11-20T06:45:09.0000000+00:00</time></trkpt><trkpt lat="31.04283524" lon="34.71996689"><ele>268.9</ele><time>2013-11-20T06:45:14.0000000+00:00</time></trkpt><trkpt lat="31.04265785" lon="34.72006226"><ele>269.4</ele><time>2013-11-20T06:45:19.0000000+00:00</time></trkpt><trkpt lat="31.04249382" lon="34.72015381"><ele>269.8</ele><time>2013-11-20T06:45:24.0000000+00:00</time></trkpt><trkpt lat="31.04237747" lon="34.72023392"><ele>271.5</ele><time>2013-11-20T06:45:29.0000000+00:00</time></trkpt><trkpt lat="31.04226685" lon="34.72018051"><ele>273.0</ele><time>2013-11-20T06:45:34.0000000+00:00</time></trkpt><trkpt lat="31.04209518" lon="34.7200737"><ele>272.0</ele><time>2013-11-20T06:45:39.0000000+00:00</time></trkpt><trkpt lat="31.04188919" lon="34.719944"><ele>272.0</ele><time>2013-11-20T06:45:44.0000000+00:00</time></trkpt><trkpt lat="31.04172516" lon="34.71982575"><ele>271.8</ele><time>2013-11-20T06:45:49.0000000+00:00</time></trkpt><trkpt lat="31.04153252" lon="34.71969986"><ele>273.0</ele><time>2013-11-20T06:45:54.0000000+00:00</time></trkpt><trkpt lat="31.04134178" lon="34.71961212"><ele>272.3</ele><time>2013-11-20T06:45:59.0000000+00:00</time></trkpt><trkpt lat="31.04120827" lon="34.71975708"><ele>270.6</ele><time>2013-11-20T06:46:04.0000000+00:00</time></trkpt><trkpt lat="31.04110336" lon="34.71993256"><ele>269.5</ele><time>2013-11-20T06:46:09.0000000+00:00</time></trkpt><trkpt lat="31.04102516" lon="34.72008896"><ele>269.1</ele><time>2013-11-20T06:46:14.0000000+00:00</time></trkpt><trkpt lat="31.04097557" lon="34.7201767"><ele>267.5</ele><time>2013-11-20T06:46:19.0000000+00:00</time></trkpt><trkpt lat="31.0409317" lon="34.72022629"><ele>267.6</ele><time>2013-11-20T06:46:24.0000000+00:00</time></trkpt><trkpt lat="31.04092598" lon="34.72023773"><ele>267.3</ele><time>2013-11-20T06:46:29.0000000+00:00</time></trkpt><trkpt lat="31.04092598" lon="34.72023773"><ele>267.2</ele><time>2013-11-20T06:46:34.0000000+00:00</time></trkpt><trkpt lat="31.04092598" lon="34.72023773"><ele>267.2</ele><time>2013-11-20T06:46:39.0000000+00:00</time></trkpt><trkpt lat="31.04092598" lon="34.72023392"><ele>267.1</ele><time>2013-11-20T06:46:44.0000000+00:00</time></trkpt><trkpt lat="31.04092598" lon="34.7202301"><ele>266.9</ele><time>2013-11-20T06:46:49.0000000+00:00</time></trkpt><trkpt lat="31.04092598" lon="34.72023392"><ele>266.8</ele><time>2013-11-20T06:46:54.0000000+00:00</time></trkpt><trkpt lat="31.04092217" lon="34.72024155"><ele>266.9</ele><time>2013-11-20T06:46:59.0000000+00:00</time></trkpt><trkpt lat="31.0408783" lon="34.72028732"><ele>266.6</ele><time>2013-11-20T06:47:04.0000000+00:00</time></trkpt><trkpt lat="31.04083633" lon="34.7203598"><ele>266.3</ele><time>2013-11-20T06:47:09.0000000+00:00</time></trkpt><trkpt lat="31.04077148" lon="34.72045136"><ele>266.2</ele><time>2013-11-20T06:47:14.0000000+00:00</time></trkpt><trkpt lat="31.04070473" lon="34.72056198"><ele>266.0</ele><time>2013-11-20T06:47:19.0000000+00:00</time></trkpt><trkpt lat="31.0406208" lon="34.7206955"><ele>266.2</ele><time>2013-11-20T06:47:24.0000000+00:00</time></trkpt><trkpt lat="31.04052353" lon="34.7208519"><ele>265.8</ele><time>2013-11-20T06:47:29.0000000+00:00</time></trkpt><trkpt lat="31.04037094" lon="34.7208519"><ele>265.5</ele><time>2013-11-20T06:47:34.0000000+00:00</time></trkpt><trkpt lat="31.04024124" lon="34.72070694"><ele>265.9</ele><time>2013-11-20T06:47:39.0000000+00:00</time></trkpt><trkpt lat="31.0401001" lon="34.72055435"><ele>266.4</ele><time>2013-11-20T06:47:44.0000000+00:00</time></trkpt><trkpt lat="31.03993225" lon="34.72037888"><ele>266.9</ele><time>2013-11-20T06:47:49.0000000+00:00</time></trkpt><trkpt lat="31.03977966" lon="34.72022629"><ele>267.3</ele><time>2013-11-20T06:47:54.0000000+00:00</time></trkpt><trkpt lat="31.03963471" lon="34.72005844"><ele>268.2</ele><time>2013-11-20T06:47:59.0000000+00:00</time></trkpt><trkpt lat="31.03947067" lon="34.71990967"><ele>269.0</ele><time>2013-11-20T06:48:04.0000000+00:00</time></trkpt><trkpt lat="31.03931999" lon="34.71976471"><ele>270.1</ele><time>2013-11-20T06:48:09.0000000+00:00</time></trkpt><trkpt lat="31.03918076" lon="34.71958542"><ele>270.4</ele><time>2013-11-20T06:48:14.0000000+00:00</time></trkpt><trkpt lat="31.03913879" lon="34.71934128"><ele>270.9</ele><time>2013-11-20T06:48:19.0000000+00:00</time></trkpt><trkpt lat="31.03919029" lon="34.71905899"><ele>272.7</ele><time>2013-11-20T06:48:24.0000000+00:00</time></trkpt><trkpt lat="31.03926659" lon="34.71878815"><ele>272.0</ele><time>2013-11-20T06:48:29.0000000+00:00</time></trkpt><trkpt lat="31.03935623" lon="34.71852875"><ele>271.5</ele><time>2013-11-20T06:48:34.0000000+00:00</time></trkpt><trkpt lat="31.03941727" lon="34.71828842"><ele>269.0</ele><time>2013-11-20T06:48:39.0000000+00:00</time></trkpt><trkpt lat="31.03948021" lon="34.71809769"><ele>266.9</ele><time>2013-11-20T06:48:44.0000000+00:00</time></trkpt><trkpt lat="31.03950501" lon="34.71801376"><ele>264.2</ele><time>2013-11-20T06:48:49.0000000+00:00</time></trkpt><trkpt lat="31.03952217" lon="34.7180748"><ele>264.8</ele><time>2013-11-20T06:48:54.0000000+00:00</time></trkpt><trkpt lat="31.03950691" lon="34.71809006"><ele>263.1</ele><time>2013-11-20T06:48:59.0000000+00:00</time></trkpt><trkpt lat="31.0395031" lon="34.71809769"><ele>261.9</ele><time>2013-11-20T06:49:04.0000000+00:00</time></trkpt><trkpt lat="31.03949738" lon="34.71810532"><ele>260.9</ele><time>2013-11-20T06:49:09.0000000+00:00</time></trkpt><trkpt lat="31.03949738" lon="34.71810532"><ele>260.0</ele><time>2013-11-20T06:49:14.0000000+00:00</time></trkpt><trkpt lat="31.03949738" lon="34.71810913"><ele>259.2</ele><time>2013-11-20T06:49:19.0000000+00:00</time></trkpt><trkpt lat="31.03949928" lon="34.71811295"><ele>258.6</ele><time>2013-11-20T06:49:24.0000000+00:00</time></trkpt><trkpt lat="31.0395031" lon="34.71811676"><ele>258.2</ele><time>2013-11-20T06:49:29.0000000+00:00</time></trkpt><trkpt lat="31.03950501" lon="34.71811676"><ele>258.4</ele><time>2013-11-20T06:49:34.0000000+00:00</time></trkpt><trkpt lat="31.03950501" lon="34.71811676"><ele>258.4</ele><time>2013-11-20T06:49:39.0000000+00:00</time></trkpt><trkpt lat="31.03950501" lon="34.71811676"><ele>258.4</ele><time>2013-11-20T06:49:44.0000000+00:00</time></trkpt><trkpt lat="31.03950501" lon="34.71811676"><ele>258.4</ele><time>2013-11-20T06:49:49.0000000+00:00</time></trkpt><trkpt lat="31.0395031" lon="34.71811676"><ele>258.4</ele><time>2013-11-20T06:49:54.0000000+00:00</time></trkpt><trkpt lat="31.0395031" lon="34.71811676"><ele>258.4</ele><time>2013-11-20T06:49:59.0000000+00:00</time></trkpt><trkpt lat="31.0395031" lon="34.71811676"><ele>258.4</ele><time>2013-11-20T06:50:04.0000000+00:00</time></trkpt><trkpt lat="31.0395031" lon="34.71811676"><ele>258.5</ele><time>2013-11-20T06:50:09.0000000+00:00</time></trkpt><trkpt lat="31.0395031" lon="34.71811676"><ele>258.5</ele><time>2013-11-20T06:50:14.0000000+00:00</time></trkpt><trkpt lat="31.03950119" lon="34.71811676"><ele>258.8</ele><time>2013-11-20T06:50:19.0000000+00:00</time></trkpt><trkpt lat="31.03949356" lon="34.71812058"><ele>260.9</ele><time>2013-11-20T06:50:24.0000000+00:00</time></trkpt><trkpt lat="31.03949356" lon="34.71812058"><ele>262.9</ele><time>2013-11-20T06:50:29.0000000+00:00</time></trkpt><trkpt lat="31.03949165" lon="34.71812439"><ele>264.4</ele><time>2013-11-20T06:50:34.0000000+00:00</time></trkpt><trkpt lat="31.03949165" lon="34.71812439"><ele>265.6</ele><time>2013-11-20T06:50:39.0000000+00:00</time></trkpt><trkpt lat="31.03948784" lon="34.71812439"><ele>267.0</ele><time>2013-11-20T06:50:44.0000000+00:00</time></trkpt><trkpt lat="31.03948593" lon="34.7181282"><ele>268.0</ele><time>2013-11-20T06:50:49.0000000+00:00</time></trkpt><trkpt lat="31.0394783" lon="34.7181282"><ele>269.2</ele><time>2013-11-20T06:50:54.0000000+00:00</time></trkpt><trkpt lat="31.03947449" lon="34.71813202"><ele>270.5</ele><time>2013-11-20T06:50:59.0000000+00:00</time></trkpt><trkpt lat="31.03947067" lon="34.7181282"><ele>270.9</ele><time>2013-11-20T06:51:04.0000000+00:00</time></trkpt><trkpt lat="31.03947067" lon="34.7181282"><ele>270.9</ele><time>2013-11-20T06:51:09.0000000+00:00</time></trkpt><trkpt lat="31.03947067" lon="34.7181282"><ele>270.9</ele><time>2013-11-20T06:51:14.0000000+00:00</time></trkpt><trkpt lat="31.03947067" lon="34.7181282"><ele>271.0</ele><time>2013-11-20T06:51:19.0000000+00:00</time></trkpt><trkpt lat="31.03947067" lon="34.7181282"><ele>271.0</ele><time>2013-11-20T06:51:24.0000000+00:00</time></trkpt><trkpt lat="31.03947067" lon="34.7181282"><ele>271.0</ele><time>2013-11-20T06:51:29.0000000+00:00</time></trkpt><trkpt lat="31.03947067" lon="34.7181282"><ele>271.0</ele><time>2013-11-20T06:51:34.0000000+00:00</time></trkpt><trkpt lat="31.03947067" lon="34.7181282"><ele>271.0</ele><time>2013-11-20T06:51:39.0000000+00:00</time></trkpt><trkpt lat="31.03947067" lon="34.7181282"><ele>271.1</ele><time>2013-11-20T06:51:44.0000000+00:00</time></trkpt><trkpt lat="31.03947067" lon="34.7181282"><ele>271.1</ele><time>2013-11-20T06:51:49.0000000+00:00</time></trkpt><trkpt lat="31.03947067" lon="34.7181282"><ele>271.1</ele><time>2013-11-20T06:51:54.0000000+00:00</time></trkpt><trkpt lat="31.03947067" lon="34.7181282"><ele>271.1</ele><time>2013-11-20T06:51:59.0000000+00:00</time></trkpt><trkpt lat="31.03947067" lon="34.7181282"><ele>271.1</ele><time>2013-11-20T06:52:04.0000000+00:00</time></trkpt><trkpt lat="31.03947067" lon="34.7181282"><ele>271.2</ele><time>2013-11-20T06:52:09.0000000+00:00</time></trkpt><trkpt lat="31.03947067" lon="34.7181282"><ele>271.2</ele><time>2013-11-20T06:52:14.0000000+00:00</time></trkpt><trkpt lat="31.03947067" lon="34.7181282"><ele>271.2</ele><time>2013-11-20T06:52:19.0000000+00:00</time></trkpt><trkpt lat="31.03947067" lon="34.7181282"><ele>271.2</ele><time>2013-11-20T06:52:24.0000000+00:00</time></trkpt><trkpt lat="31.03947067" lon="34.7181282"><ele>271.2</ele><time>2013-11-20T06:52:29.0000000+00:00</time></trkpt><trkpt lat="31.03947067" lon="34.7181282"><ele>271.2</ele><time>2013-11-20T06:52:34.0000000+00:00</time></trkpt><trkpt lat="31.03947067" lon="34.7181282"><ele>271.3</ele><time>2013-11-20T06:52:39.0000000+00:00</time></trkpt><trkpt lat="31.03947067" lon="34.7181282"><ele>271.3</ele><time>2013-11-20T06:52:44.0000000+00:00</time></trkpt><trkpt lat="31.03947067" lon="34.7181282"><ele>271.3</ele><time>2013-11-20T06:52:49.0000000+00:00</time></trkpt><trkpt lat="31.03947067" lon="34.7181282"><ele>271.4</ele><time>2013-11-20T06:52:54.0000000+00:00</time></trkpt><trkpt lat="31.03947067" lon="34.7181282"><ele>271.4</ele><time>2013-11-20T06:52:59.0000000+00:00</time></trkpt><trkpt lat="31.03947067" lon="34.7181282"><ele>271.4</ele><time>2013-11-20T06:53:04.0000000+00:00</time></trkpt><trkpt lat="31.03947067" lon="34.7181282"><ele>271.5</ele><time>2013-11-20T06:53:09.0000000+00:00</time></trkpt><trkpt lat="31.03947067" lon="34.7181282"><ele>271.5</ele><time>2013-11-20T06:53:14.0000000+00:00</time></trkpt><trkpt lat="31.03947067" lon="34.7181282"><ele>271.5</ele><time>2013-11-20T06:53:19.0000000+00:00</time></trkpt><trkpt lat="31.03947067" lon="34.7181282"><ele>271.6</ele><time>2013-11-20T06:53:24.0000000+00:00</time></trkpt><trkpt lat="31.03947067" lon="34.7181282"><ele>271.6</ele><time>2013-11-20T06:53:29.0000000+00:00</time></trkpt><trkpt lat="31.03947067" lon="34.7181282"><ele>271.6</ele><time>2013-11-20T06:53:34.0000000+00:00</time></trkpt><trkpt lat="31.03947067" lon="34.7181282"><ele>271.6</ele><time>2013-11-20T06:53:39.0000000+00:00</time></trkpt><trkpt lat="31.03947067" lon="34.7181282"><ele>271.6</ele><time>2013-11-20T06:53:44.0000000+00:00</time></trkpt><trkpt lat="31.03947067" lon="34.7181282"><ele>271.6</ele><time>2013-11-20T06:53:49.0000000+00:00</time></trkpt><trkpt lat="31.03947067" lon="34.7181282"><ele>271.6</ele><time>2013-11-20T06:53:54.0000000+00:00</time></trkpt><trkpt lat="31.03947067" lon="34.7181282"><ele>271.6</ele><time>2013-11-20T06:53:59.0000000+00:00</time></trkpt><trkpt lat="31.03947067" lon="34.7181282"><ele>271.7</ele><time>2013-11-20T06:54:04.0000000+00:00</time></trkpt><trkpt lat="31.03947067" lon="34.7181282"><ele>271.7</ele><time>2013-11-20T06:54:09.0000000+00:00</time></trkpt><trkpt lat="31.03947067" lon="34.7181282"><ele>271.7</ele><time>2013-11-20T06:54:14.0000000+00:00</time></trkpt><trkpt lat="31.03947067" lon="34.7181282"><ele>271.7</ele><time>2013-11-20T06:54:19.0000000+00:00</time></trkpt><trkpt lat="31.03947067" lon="34.7181282"><ele>271.8</ele><time>2013-11-20T06:54:24.0000000+00:00</time></trkpt><trkpt lat="31.03947067" lon="34.7181282"><ele>271.8</ele><time>2013-11-20T06:54:29.0000000+00:00</time></trkpt><trkpt lat="31.03947067" lon="34.7181282"><ele>271.8</ele><time>2013-11-20T06:54:34.0000000+00:00</time></trkpt><trkpt lat="31.03947067" lon="34.7181282"><ele>271.8</ele><time>2013-11-20T06:54:39.0000000+00:00</time></trkpt><trkpt lat="31.03947067" lon="34.7181282"><ele>271.8</ele><time>2013-11-20T06:54:44.0000000+00:00</time></trkpt><trkpt lat="31.03947067" lon="34.7181282"><ele>271.9</ele><time>2013-11-20T06:54:49.0000000+00:00</time></trkpt><trkpt lat="31.03947067" lon="34.7181282"><ele>271.9</ele><time>2013-11-20T06:54:54.0000000+00:00</time></trkpt><trkpt lat="31.03947067" lon="34.71812439"><ele>271.9</ele><time>2013-11-20T06:54:59.0000000+00:00</time></trkpt><trkpt lat="31.03947067" lon="34.71812439"><ele>272.0</ele><time>2013-11-20T06:55:04.0000000+00:00</time></trkpt><trkpt lat="31.03947067" lon="34.71812439"><ele>272.0</ele><time>2013-11-20T06:55:09.0000000+00:00</time></trkpt><trkpt lat="31.03946877" lon="34.71812439"><ele>272.0</ele><time>2013-11-20T06:55:14.0000000+00:00</time></trkpt><trkpt lat="31.03946877" lon="34.71812439"><ele>272.1</ele><time>2013-11-20T06:55:19.0000000+00:00</time></trkpt><trkpt lat="31.03946877" lon="34.71812439"><ele>272.1</ele><time>2013-11-20T06:55:24.0000000+00:00</time></trkpt><trkpt lat="31.03946877" lon="34.71812439"><ele>272.1</ele><time>2013-11-20T06:55:29.0000000+00:00</time></trkpt><trkpt lat="31.03946877" lon="34.71812439"><ele>272.2</ele><time>2013-11-20T06:55:34.0000000+00:00</time></trkpt><trkpt lat="31.03946877" lon="34.71812439"><ele>272.2</ele><time>2013-11-20T06:55:39.0000000+00:00</time></trkpt><trkpt lat="31.03946877" lon="34.71812439"><ele>272.2</ele><time>2013-11-20T06:55:44.0000000+00:00</time></trkpt><trkpt lat="31.03946686" lon="34.71812439"><ele>272.3</ele><time>2013-11-20T06:55:49.0000000+00:00</time></trkpt><trkpt lat="31.03946686" lon="34.71812439"><ele>272.3</ele><time>2013-11-20T06:55:54.0000000+00:00</time></trkpt><trkpt lat="31.03946686" lon="34.71812439"><ele>272.3</ele><time>2013-11-20T06:55:59.0000000+00:00</time></trkpt><trkpt lat="31.03946686" lon="34.71812439"><ele>272.4</ele><time>2013-11-20T06:56:04.0000000+00:00</time></trkpt><trkpt lat="31.03946686" lon="34.71812439"><ele>272.4</ele><time>2013-11-20T06:56:09.0000000+00:00</time></trkpt><trkpt lat="31.03946686" lon="34.71812439"><ele>272.4</ele><time>2013-11-20T06:56:14.0000000+00:00</time></trkpt><trkpt lat="31.03946686" lon="34.71812439"><ele>272.4</ele><time>2013-11-20T06:56:19.0000000+00:00</time></trkpt><trkpt lat="31.03946686" lon="34.7181282"><ele>272.5</ele><time>2013-11-20T06:56:24.0000000+00:00</time></trkpt><trkpt lat="31.03946686" lon="34.7181282"><ele>272.5</ele><time>2013-11-20T06:56:29.0000000+00:00</time></trkpt><trkpt lat="31.03946686" lon="34.7181282"><ele>272.5</ele><time>2013-11-20T06:56:34.0000000+00:00</time></trkpt><trkpt lat="31.03946686" lon="34.7181282"><ele>272.5</ele><time>2013-11-20T06:56:39.0000000+00:00</time></trkpt><trkpt lat="31.03946686" lon="34.71812439"><ele>272.6</ele><time>2013-11-20T06:56:44.0000000+00:00</time></trkpt><trkpt lat="31.03946686" lon="34.71812439"><ele>272.6</ele><time>2013-11-20T06:56:49.0000000+00:00</time></trkpt><trkpt lat="31.03946686" lon="34.71812439"><ele>272.6</ele><time>2013-11-20T06:56:54.0000000+00:00</time></trkpt><trkpt lat="31.03946686" lon="34.71812439"><ele>272.7</ele><time>2013-11-20T06:56:59.0000000+00:00</time></trkpt><trkpt lat="31.03946686" lon="34.71812439"><ele>272.7</ele><time>2013-11-20T06:57:04.0000000+00:00</time></trkpt><trkpt lat="31.03946686" lon="34.71812439"><ele>272.7</ele><time>2013-11-20T06:57:09.0000000+00:00</time></trkpt><trkpt lat="31.03946877" lon="34.71812439"><ele>272.8</ele><time>2013-11-20T06:57:14.0000000+00:00</time></trkpt><trkpt lat="31.03946877" lon="34.71812439"><ele>272.9</ele><time>2013-11-20T06:57:19.0000000+00:00</time></trkpt><trkpt lat="31.03946877" lon="34.71812439"><ele>272.9</ele><time>2013-11-20T06:57:24.0000000+00:00</time></trkpt><trkpt lat="31.03946686" lon="34.71812439"><ele>273.0</ele><time>2013-11-20T06:57:29.0000000+00:00</time></trkpt><trkpt lat="31.03946686" lon="34.71812439"><ele>273.0</ele><time>2013-11-20T06:57:34.0000000+00:00</time></trkpt><trkpt lat="31.03946686" lon="34.71812439"><ele>273.1</ele><time>2013-11-20T06:57:39.0000000+00:00</time></trkpt><trkpt lat="31.03946686" lon="34.71812439"><ele>273.1</ele><time>2013-11-20T06:57:44.0000000+00:00</time></trkpt><trkpt lat="31.03946686" lon="34.71812439"><ele>273.2</ele><time>2013-11-20T06:57:49.0000000+00:00</time></trkpt><trkpt lat="31.03946686" lon="34.71812439"><ele>273.3</ele><time>2013-11-20T06:57:54.0000000+00:00</time></trkpt><trkpt lat="31.03946686" lon="34.71812439"><ele>273.3</ele><time>2013-11-20T06:57:59.0000000+00:00</time></trkpt><trkpt lat="31.03946686" lon="34.71812439"><ele>273.4</ele><time>2013-11-20T06:58:04.0000000+00:00</time></trkpt><trkpt lat="31.03946686" lon="34.71812058"><ele>273.4</ele><time>2013-11-20T06:58:09.0000000+00:00</time></trkpt><trkpt lat="31.03946686" lon="34.71812058"><ele>273.5</ele><time>2013-11-20T06:58:14.0000000+00:00</time></trkpt><trkpt lat="31.03946686" lon="34.71812058"><ele>273.5</ele><time>2013-11-20T06:58:19.0000000+00:00</time></trkpt><trkpt lat="31.03946686" lon="34.71812058"><ele>273.6</ele><time>2013-11-20T06:58:24.0000000+00:00</time></trkpt><trkpt lat="31.03946495" lon="34.71812058"><ele>273.6</ele><time>2013-11-20T06:58:29.0000000+00:00</time></trkpt><trkpt lat="31.03946495" lon="34.71812058"><ele>273.7</ele><time>2013-11-20T06:58:34.0000000+00:00</time></trkpt><trkpt lat="31.03946495" lon="34.71812058"><ele>273.7</ele><time>2013-11-20T06:58:39.0000000+00:00</time></trkpt><trkpt lat="31.03946495" lon="34.71812058"><ele>273.8</ele><time>2013-11-20T06:58:44.0000000+00:00</time></trkpt><trkpt lat="31.03946495" lon="34.71812058"><ele>273.8</ele><time>2013-11-20T06:58:49.0000000+00:00</time></trkpt><trkpt lat="31.03946495" lon="34.71812058"><ele>273.8</ele><time>2013-11-20T06:58:54.0000000+00:00</time></trkpt><trkpt lat="31.03946495" lon="34.71812058"><ele>273.9</ele><time>2013-11-20T06:58:59.0000000+00:00</time></trkpt><trkpt lat="31.03946495" lon="34.71812058"><ele>273.9</ele><time>2013-11-20T06:59:04.0000000+00:00</time></trkpt><trkpt lat="31.03946495" lon="34.71812058"><ele>274.0</ele><time>2013-11-20T06:59:09.0000000+00:00</time></trkpt><trkpt lat="31.03946495" lon="34.71812058"><ele>274.0</ele><time>2013-11-20T06:59:14.0000000+00:00</time></trkpt><trkpt lat="31.03946495" lon="34.71812058"><ele>274.0</ele><time>2013-11-20T06:59:19.0000000+00:00</time></trkpt><trkpt lat="31.03946304" lon="34.71812058"><ele>274.1</ele><time>2013-11-20T06:59:24.0000000+00:00</time></trkpt><trkpt lat="31.03946304" lon="34.71812058"><ele>274.1</ele><time>2013-11-20T06:59:29.0000000+00:00</time></trkpt><trkpt lat="31.03946304" lon="34.71812058"><ele>274.1</ele><time>2013-11-20T06:59:34.0000000+00:00</time></trkpt><trkpt lat="31.03946304" lon="34.71812058"><ele>274.2</ele><time>2013-11-20T06:59:39.0000000+00:00</time></trkpt><trkpt lat="31.03946304" lon="34.71812058"><ele>274.2</ele><time>2013-11-20T06:59:44.0000000+00:00</time></trkpt><trkpt lat="31.03946304" lon="34.71812058"><ele>274.2</ele><time>2013-11-20T06:59:49.0000000+00:00</time></trkpt><trkpt lat="31.03946304" lon="34.71812058"><ele>274.3</ele><time>2013-11-20T06:59:54.0000000+00:00</time></trkpt><trkpt lat="31.03946304" lon="34.71812058"><ele>274.3</ele><time>2013-11-20T06:59:59.0000000+00:00</time></trkpt><trkpt lat="31.03946304" lon="34.71812058"><ele>274.3</ele><time>2013-11-20T07:00:04.0000000+00:00</time></trkpt><trkpt lat="31.03946304" lon="34.71812058"><ele>274.3</ele><time>2013-11-20T07:00:09.0000000+00:00</time></trkpt><trkpt lat="31.03946304" lon="34.71812058"><ele>274.4</ele><time>2013-11-20T07:00:14.0000000+00:00</time></trkpt><trkpt lat="31.03946114" lon="34.71812058"><ele>274.4</ele><time>2013-11-20T07:00:19.0000000+00:00</time></trkpt><trkpt lat="31.03946114" lon="34.71812058"><ele>274.4</ele><time>2013-11-20T07:00:24.0000000+00:00</time></trkpt><trkpt lat="31.03946114" lon="34.71812058"><ele>274.5</ele><time>2013-11-20T07:00:29.0000000+00:00</time></trkpt><trkpt lat="31.03946114" lon="34.71812058"><ele>274.5</ele><time>2013-11-20T07:00:34.0000000+00:00</time></trkpt><trkpt lat="31.03946114" lon="34.71812058"><ele>274.5</ele><time>2013-11-20T07:00:39.0000000+00:00</time></trkpt><trkpt lat="31.03946114" lon="34.71812058"><ele>274.6</ele><time>2013-11-20T07:00:44.0000000+00:00</time></trkpt><trkpt lat="31.03946114" lon="34.71812058"><ele>274.6</ele><time>2013-11-20T07:00:49.0000000+00:00</time></trkpt><trkpt lat="31.03946114" lon="34.71812058"><ele>274.6</ele><time>2013-11-20T07:00:54.0000000+00:00</time></trkpt><trkpt lat="31.03945923" lon="34.71812058"><ele>274.7</ele><time>2013-11-20T07:00:59.0000000+00:00</time></trkpt><trkpt lat="31.03945923" lon="34.71812058"><ele>274.7</ele><time>2013-11-20T07:01:04.0000000+00:00</time></trkpt><trkpt lat="31.03945923" lon="34.71812058"><ele>274.8</ele><time>2013-11-20T07:01:09.0000000+00:00</time></trkpt><trkpt lat="31.03945923" lon="34.71812058"><ele>274.8</ele><time>2013-11-20T07:01:14.0000000+00:00</time></trkpt><trkpt lat="31.03945923" lon="34.71812058"><ele>274.9</ele><time>2013-11-20T07:01:19.0000000+00:00</time></trkpt><trkpt lat="31.03945923" lon="34.71812058"><ele>274.9</ele><time>2013-11-20T07:01:24.0000000+00:00</time></trkpt><trkpt lat="31.03945923" lon="34.71812058"><ele>275.0</ele><time>2013-11-20T07:01:29.0000000+00:00</time></trkpt><trkpt lat="31.03945923" lon="34.71812058"><ele>275.0</ele><time>2013-11-20T07:01:34.0000000+00:00</time></trkpt><trkpt lat="31.03945923" lon="34.71812058"><ele>275.0</ele><time>2013-11-20T07:01:39.0000000+00:00</time></trkpt><trkpt lat="31.03945923" lon="34.71812058"><ele>275.1</ele><time>2013-11-20T07:01:44.0000000+00:00</time></trkpt><trkpt lat="31.03945923" lon="34.71812058"><ele>275.1</ele><time>2013-11-20T07:01:49.0000000+00:00</time></trkpt><trkpt lat="31.03945923" lon="34.71812058"><ele>275.1</ele><time>2013-11-20T07:01:54.0000000+00:00</time></trkpt><trkpt lat="31.03945732" lon="34.71812058"><ele>275.2</ele><time>2013-11-20T07:01:59.0000000+00:00</time></trkpt><trkpt lat="31.03945732" lon="34.71812058"><ele>275.2</ele><time>2013-11-20T07:02:04.0000000+00:00</time></trkpt><trkpt lat="31.03945732" lon="34.71812058"><ele>275.2</ele><time>2013-11-20T07:02:09.0000000+00:00</time></trkpt><trkpt lat="31.03945732" lon="34.71812058"><ele>275.3</ele><time>2013-11-20T07:02:14.0000000+00:00</time></trkpt><trkpt lat="31.03945732" lon="34.71812058"><ele>275.3</ele><time>2013-11-20T07:02:19.0000000+00:00</time></trkpt><trkpt lat="31.03945732" lon="34.71812058"><ele>275.3</ele><time>2013-11-20T07:02:24.0000000+00:00</time></trkpt><trkpt lat="31.03945732" lon="34.71812058"><ele>275.4</ele><time>2013-11-20T07:02:29.0000000+00:00</time></trkpt><trkpt lat="31.03945732" lon="34.71811676"><ele>275.4</ele><time>2013-11-20T07:02:34.0000000+00:00</time></trkpt><trkpt lat="31.03945732" lon="34.71811676"><ele>275.5</ele><time>2013-11-20T07:02:39.0000000+00:00</time></trkpt><trkpt lat="31.03945732" lon="34.71811676"><ele>275.5</ele><time>2013-11-20T07:02:44.0000000+00:00</time></trkpt><trkpt lat="31.03945732" lon="34.71811676"><ele>275.5</ele><time>2013-11-20T07:02:49.0000000+00:00</time></trkpt><trkpt lat="31.03945541" lon="34.71811676"><ele>275.6</ele><time>2013-11-20T07:02:54.0000000+00:00</time></trkpt><trkpt lat="31.03945541" lon="34.71811676"><ele>275.6</ele><time>2013-11-20T07:02:59.0000000+00:00</time></trkpt><trkpt lat="31.03945541" lon="34.71811676"><ele>275.6</ele><time>2013-11-20T07:03:04.0000000+00:00</time></trkpt><trkpt lat="31.03945541" lon="34.71811676"><ele>275.7</ele><time>2013-11-20T07:03:09.0000000+00:00</time></trkpt><trkpt lat="31.03945541" lon="34.71811676"><ele>275.7</ele><time>2013-11-20T07:03:14.0000000+00:00</time></trkpt><trkpt lat="31.03945541" lon="34.71811676"><ele>275.8</ele><time>2013-11-20T07:03:19.0000000+00:00</time></trkpt><trkpt lat="31.03945541" lon="34.71811676"><ele>275.8</ele><time>2013-11-20T07:03:24.0000000+00:00</time></trkpt><trkpt lat="31.03945541" lon="34.71811676"><ele>275.9</ele><time>2013-11-20T07:03:29.0000000+00:00</time></trkpt><trkpt lat="31.03945541" lon="34.71811676"><ele>275.9</ele><time>2013-11-20T07:03:34.0000000+00:00</time></trkpt><trkpt lat="31.03945541" lon="34.71811676"><ele>275.9</ele><time>2013-11-20T07:03:39.0000000+00:00</time></trkpt><trkpt lat="31.03945541" lon="34.71811676"><ele>276.0</ele><time>2013-11-20T07:03:44.0000000+00:00</time></trkpt><trkpt lat="31.03945541" lon="34.71811676"><ele>276.0</ele><time>2013-11-20T07:03:49.0000000+00:00</time></trkpt><trkpt lat="31.03945541" lon="34.71811676"><ele>276.0</ele><time>2013-11-20T07:03:54.0000000+00:00</time></trkpt><trkpt lat="31.03945541" lon="34.71811676"><ele>276.0</ele><time>2013-11-20T07:03:59.0000000+00:00</time></trkpt><trkpt lat="31.03945541" lon="34.71811676"><ele>276.1</ele><time>2013-11-20T07:04:04.0000000+00:00</time></trkpt><trkpt lat="31.03945541" lon="34.71811676"><ele>276.1</ele><time>2013-11-20T07:04:09.0000000+00:00</time></trkpt><trkpt lat="31.03945541" lon="34.71811676"><ele>276.1</ele><time>2013-11-20T07:04:14.0000000+00:00</time></trkpt><trkpt lat="31.03945541" lon="34.71811676"><ele>276.1</ele><time>2013-11-20T07:04:19.0000000+00:00</time></trkpt><trkpt lat="31.03945541" lon="34.71811676"><ele>276.2</ele><time>2013-11-20T07:04:24.0000000+00:00</time></trkpt><trkpt lat="31.03945541" lon="34.71811676"><ele>276.2</ele><time>2013-11-20T07:04:29.0000000+00:00</time></trkpt><trkpt lat="31.03945541" lon="34.71811676"><ele>276.2</ele><time>2013-11-20T07:04:34.0000000+00:00</time></trkpt><trkpt lat="31.03945541" lon="34.71811676"><ele>276.3</ele><time>2013-11-20T07:04:39.0000000+00:00</time></trkpt><trkpt lat="31.03945541" lon="34.71811676"><ele>276.3</ele><time>2013-11-20T07:04:44.0000000+00:00</time></trkpt><trkpt lat="31.03945541" lon="34.71811676"><ele>276.3</ele><time>2013-11-20T07:04:49.0000000+00:00</time></trkpt><trkpt lat="31.03945541" lon="34.71811676"><ele>276.4</ele><time>2013-11-20T07:04:54.0000000+00:00</time></trkpt><trkpt lat="31.03945541" lon="34.71811676"><ele>276.4</ele><time>2013-11-20T07:04:59.0000000+00:00</time></trkpt><trkpt lat="31.03945541" lon="34.71811676"><ele>276.4</ele><time>2013-11-20T07:05:04.0000000+00:00</time></trkpt><trkpt lat="31.03945541" lon="34.71811676"><ele>276.5</ele><time>2013-11-20T07:05:09.0000000+00:00</time></trkpt><trkpt lat="31.03945541" lon="34.71811676"><ele>276.5</ele><time>2013-11-20T07:05:14.0000000+00:00</time></trkpt><trkpt lat="31.03945541" lon="34.71811676"><ele>276.5</ele><time>2013-11-20T07:05:19.0000000+00:00</time></trkpt><trkpt lat="31.03945351" lon="34.71811676"><ele>276.6</ele><time>2013-11-20T07:05:24.0000000+00:00</time></trkpt><trkpt lat="31.03945351" lon="34.71811676"><ele>276.6</ele><time>2013-11-20T07:05:29.0000000+00:00</time></trkpt><trkpt lat="31.03945351" lon="34.71811676"><ele>276.6</ele><time>2013-11-20T07:05:34.0000000+00:00</time></trkpt><trkpt lat="31.03945351" lon="34.71811676"><ele>276.7</ele><time>2013-11-20T07:05:39.0000000+00:00</time></trkpt><trkpt lat="31.03945351" lon="34.71811676"><ele>276.7</ele><time>2013-11-20T07:05:44.0000000+00:00</time></trkpt><trkpt lat="31.03945351" lon="34.71811676"><ele>276.7</ele><time>2013-11-20T07:05:49.0000000+00:00</time></trkpt><trkpt lat="31.03945351" lon="34.71811676"><ele>276.8</ele><time>2013-11-20T07:05:54.0000000+00:00</time></trkpt><trkpt lat="31.03945351" lon="34.71811676"><ele>276.8</ele><time>2013-11-20T07:05:59.0000000+00:00</time></trkpt><trkpt lat="31.03945351" lon="34.71811676"><ele>276.8</ele><time>2013-11-20T07:06:04.0000000+00:00</time></trkpt><trkpt lat="31.03945351" lon="34.71811676"><ele>276.8</ele><time>2013-11-20T07:06:09.0000000+00:00</time></trkpt><trkpt lat="31.03945351" lon="34.71811676"><ele>276.8</ele><time>2013-11-20T07:06:14.0000000+00:00</time></trkpt><trkpt lat="31.03945351" lon="34.71811676"><ele>276.9</ele><time>2013-11-20T07:06:19.0000000+00:00</time></trkpt><trkpt lat="31.03945351" lon="34.71811676"><ele>276.9</ele><time>2013-11-20T07:06:24.0000000+00:00</time></trkpt><trkpt lat="31.03945351" lon="34.71811676"><ele>276.9</ele><time>2013-11-20T07:06:29.0000000+00:00</time></trkpt><trkpt lat="31.03945351" lon="34.71811676"><ele>276.9</ele><time>2013-11-20T07:06:34.0000000+00:00</time></trkpt><trkpt lat="31.03945541" lon="34.71811676"><ele>276.9</ele><time>2013-11-20T07:06:39.0000000+00:00</time></trkpt><trkpt lat="31.03945351" lon="34.71811676"><ele>276.9</ele><time>2013-11-20T07:06:44.0000000+00:00</time></trkpt><trkpt lat="31.03945541" lon="34.71811676"><ele>276.9</ele><time>2013-11-20T07:06:49.0000000+00:00</time></trkpt><trkpt lat="31.03945541" lon="34.71811676"><ele>276.9</ele><time>2013-11-20T07:06:54.0000000+00:00</time></trkpt><trkpt lat="31.03945541" lon="34.71811676"><ele>277.0</ele><time>2013-11-20T07:06:59.0000000+00:00</time></trkpt><trkpt lat="31.03945541" lon="34.71811676"><ele>277.0</ele><time>2013-11-20T07:07:04.0000000+00:00</time></trkpt><trkpt lat="31.03945541" lon="34.71811676"><ele>277.0</ele><time>2013-11-20T07:07:09.0000000+00:00</time></trkpt><trkpt lat="31.03945541" lon="34.71811676"><ele>277.0</ele><time>2013-11-20T07:07:14.0000000+00:00</time></trkpt><trkpt lat="31.03945541" lon="34.71811676"><ele>277.1</ele><time>2013-11-20T07:07:19.0000000+00:00</time></trkpt><trkpt lat="31.03945541" lon="34.71811676"><ele>277.1</ele><time>2013-11-20T07:07:24.0000000+00:00</time></trkpt><trkpt lat="31.03945541" lon="34.71811676"><ele>277.1</ele><time>2013-11-20T07:07:29.0000000+00:00</time></trkpt><trkpt lat="31.03945541" lon="34.71811676"><ele>277.1</ele><time>2013-11-20T07:07:34.0000000+00:00</time></trkpt><trkpt lat="31.03945351" lon="34.71811676"><ele>277.1</ele><time>2013-11-20T07:07:39.0000000+00:00</time></trkpt><trkpt lat="31.03945351" lon="34.71811676"><ele>277.1</ele><time>2013-11-20T07:07:44.0000000+00:00</time></trkpt><trkpt lat="31.03945351" lon="34.71811676"><ele>277.1</ele><time>2013-11-20T07:07:49.0000000+00:00</time></trkpt><trkpt lat="31.03945351" lon="34.71811676"><ele>277.1</ele><time>2013-11-20T07:07:54.0000000+00:00</time></trkpt><trkpt lat="31.03945351" lon="34.71811676"><ele>277.2</ele><time>2013-11-20T07:07:59.0000000+00:00</time></trkpt><trkpt lat="31.03945351" lon="34.71811676"><ele>277.2</ele><time>2013-11-20T07:08:04.0000000+00:00</time></trkpt><trkpt lat="31.03945351" lon="34.71811676"><ele>277.2</ele><time>2013-11-20T07:08:09.0000000+00:00</time></trkpt><trkpt lat="31.03945351" lon="34.71811676"><ele>277.2</ele><time>2013-11-20T07:08:14.0000000+00:00</time></trkpt><trkpt lat="31.03945351" lon="34.71811676"><ele>277.2</ele><time>2013-11-20T07:08:19.0000000+00:00</time></trkpt><trkpt lat="31.03945351" lon="34.71811676"><ele>277.2</ele><time>2013-11-20T07:08:24.0000000+00:00</time></trkpt><trkpt lat="31.03945351" lon="34.71811676"><ele>277.3</ele><time>2013-11-20T07:08:29.0000000+00:00</time></trkpt><trkpt lat="31.03945351" lon="34.71811676"><ele>277.3</ele><time>2013-11-20T07:08:34.0000000+00:00</time></trkpt><trkpt lat="31.03945351" lon="34.71811676"><ele>277.3</ele><time>2013-11-20T07:08:39.0000000+00:00</time></trkpt><trkpt lat="31.03945351" lon="34.71811676"><ele>277.3</ele><time>2013-11-20T07:08:44.0000000+00:00</time></trkpt><trkpt lat="31.03945351" lon="34.71811676"><ele>277.4</ele><time>2013-11-20T07:08:49.0000000+00:00</time></trkpt><trkpt lat="31.03945351" lon="34.71811676"><ele>277.4</ele><time>2013-11-20T07:08:54.0000000+00:00</time></trkpt><trkpt lat="31.03945351" lon="34.71811676"><ele>277.5</ele><time>2013-11-20T07:08:59.0000000+00:00</time></trkpt><trkpt lat="31.03945351" lon="34.71811676"><ele>277.5</ele><time>2013-11-20T07:09:04.0000000+00:00</time></trkpt><trkpt lat="31.03945351" lon="34.71811295"><ele>277.5</ele><time>2013-11-20T07:09:09.0000000+00:00</time></trkpt><trkpt lat="31.03945351" lon="34.71811295"><ele>277.6</ele><time>2013-11-20T07:09:14.0000000+00:00</time></trkpt><trkpt lat="31.03945351" lon="34.71811295"><ele>277.6</ele><time>2013-11-20T07:09:19.0000000+00:00</time></trkpt><trkpt lat="31.03945351" lon="34.71811295"><ele>277.6</ele><time>2013-11-20T07:09:24.0000000+00:00</time></trkpt><trkpt lat="31.03945351" lon="34.71811295"><ele>277.7</ele><time>2013-11-20T07:09:29.0000000+00:00</time></trkpt><trkpt lat="31.03945351" lon="34.71811295"><ele>277.7</ele><time>2013-11-20T07:09:34.0000000+00:00</time></trkpt><trkpt lat="31.03945351" lon="34.71811295"><ele>277.7</ele><time>2013-11-20T07:09:39.0000000+00:00</time></trkpt><trkpt lat="31.03945351" lon="34.71811295"><ele>277.8</ele><time>2013-11-20T07:09:44.0000000+00:00</time></trkpt><trkpt lat="31.03945351" lon="34.71811295"><ele>277.8</ele><time>2013-11-20T07:09:49.0000000+00:00</time></trkpt><trkpt lat="31.03945351" lon="34.71811295"><ele>277.8</ele><time>2013-11-20T07:09:54.0000000+00:00</time></trkpt><trkpt lat="31.03945351" lon="34.71811295"><ele>277.9</ele><time>2013-11-20T07:09:59.0000000+00:00</time></trkpt><trkpt lat="31.03945351" lon="34.71811295"><ele>277.9</ele><time>2013-11-20T07:10:04.0000000+00:00</time></trkpt><trkpt lat="31.0394516" lon="34.71811295"><ele>277.9</ele><time>2013-11-20T07:10:09.0000000+00:00</time></trkpt><trkpt lat="31.0394516" lon="34.71811295"><ele>278.0</ele><time>2013-11-20T07:10:14.0000000+00:00</time></trkpt><trkpt lat="31.0394516" lon="34.71811295"><ele>278.1</ele><time>2013-11-20T07:10:19.0000000+00:00</time></trkpt><trkpt lat="31.0394516" lon="34.71811295"><ele>278.1</ele><time>2013-11-20T07:10:24.0000000+00:00</time></trkpt><trkpt lat="31.0394516" lon="34.71811295"><ele>278.1</ele><time>2013-11-20T07:10:29.0000000+00:00</time></trkpt><trkpt lat="31.0394516" lon="34.71810913"><ele>278.2</ele><time>2013-11-20T07:10:34.0000000+00:00</time></trkpt><trkpt lat="31.03944969" lon="34.71810913"><ele>278.2</ele><time>2013-11-20T07:10:39.0000000+00:00</time></trkpt><trkpt lat="31.03944969" lon="34.71810913"><ele>278.3</ele><time>2013-11-20T07:10:44.0000000+00:00</time></trkpt><trkpt lat="31.03944969" lon="34.71810913"><ele>278.3</ele><time>2013-11-20T07:10:49.0000000+00:00</time></trkpt><trkpt lat="31.03944969" lon="34.71810913"><ele>278.4</ele><time>2013-11-20T07:10:54.0000000+00:00</time></trkpt><trkpt lat="31.03944969" lon="34.71810913"><ele>278.4</ele><time>2013-11-20T07:10:59.0000000+00:00</time></trkpt><trkpt lat="31.03944969" lon="34.71810913"><ele>278.5</ele><time>2013-11-20T07:11:04.0000000+00:00</time></trkpt><trkpt lat="31.03944969" lon="34.71810913"><ele>278.5</ele><time>2013-11-20T07:11:09.0000000+00:00</time></trkpt><trkpt lat="31.03944778" lon="34.71810913"><ele>278.6</ele><time>2013-11-20T07:11:14.0000000+00:00</time></trkpt><trkpt lat="31.03944778" lon="34.71810913"><ele>278.6</ele><time>2013-11-20T07:11:19.0000000+00:00</time></trkpt><trkpt lat="31.03944778" lon="34.71810913"><ele>278.6</ele><time>2013-11-20T07:11:24.0000000+00:00</time></trkpt><trkpt lat="31.03944778" lon="34.71810913"><ele>278.7</ele><time>2013-11-20T07:11:29.0000000+00:00</time></trkpt><trkpt lat="31.03944778" lon="34.71810913"><ele>278.7</ele><time>2013-11-20T07:11:34.0000000+00:00</time></trkpt><trkpt lat="31.03944588" lon="34.71810913"><ele>278.7</ele><time>2013-11-20T07:11:39.0000000+00:00</time></trkpt><trkpt lat="31.03944588" lon="34.71810913"><ele>278.8</ele><time>2013-11-20T07:11:44.0000000+00:00</time></trkpt><trkpt lat="31.03944588" lon="34.71810913"><ele>278.8</ele><time>2013-11-20T07:11:49.0000000+00:00</time></trkpt><trkpt lat="31.03944588" lon="34.71810913"><ele>278.8</ele><time>2013-11-20T07:11:54.0000000+00:00</time></trkpt><trkpt lat="31.03944588" lon="34.71810913"><ele>278.8</ele><time>2013-11-20T07:11:59.0000000+00:00</time></trkpt><trkpt lat="31.03944588" lon="34.71810913"><ele>278.9</ele><time>2013-11-20T07:12:04.0000000+00:00</time></trkpt><trkpt lat="31.03944397" lon="34.71810913"><ele>278.9</ele><time>2013-11-20T07:12:09.0000000+00:00</time></trkpt><trkpt lat="31.03944397" lon="34.71810913"><ele>278.9</ele><time>2013-11-20T07:12:14.0000000+00:00</time></trkpt><trkpt lat="31.03944397" lon="34.71810913"><ele>278.9</ele><time>2013-11-20T07:12:19.0000000+00:00</time></trkpt><trkpt lat="31.03944397" lon="34.71810913"><ele>279.0</ele><time>2013-11-20T07:12:24.0000000+00:00</time></trkpt><trkpt lat="31.03944397" lon="34.71810913"><ele>279.0</ele><time>2013-11-20T07:12:29.0000000+00:00</time></trkpt><trkpt lat="31.03944397" lon="34.71810913"><ele>279.0</ele><time>2013-11-20T07:12:34.0000000+00:00</time></trkpt><trkpt lat="31.03944206" lon="34.71810913"><ele>279.1</ele><time>2013-11-20T07:12:39.0000000+00:00</time></trkpt><trkpt lat="31.03944206" lon="34.71810913"><ele>279.1</ele><time>2013-11-20T07:12:44.0000000+00:00</time></trkpt><trkpt lat="31.03944206" lon="34.71810913"><ele>279.1</ele><time>2013-11-20T07:12:49.0000000+00:00</time></trkpt><trkpt lat="31.03944206" lon="34.71810913"><ele>279.1</ele><time>2013-11-20T07:12:54.0000000+00:00</time></trkpt><trkpt lat="31.03944206" lon="34.71810913"><ele>279.2</ele><time>2013-11-20T07:12:59.0000000+00:00</time></trkpt><trkpt lat="31.03944206" lon="34.71810913"><ele>279.2</ele><time>2013-11-20T07:13:04.0000000+00:00</time></trkpt><trkpt lat="31.03944206" lon="34.71810913"><ele>279.2</ele><time>2013-11-20T07:13:09.0000000+00:00</time></trkpt><trkpt lat="31.03944206" lon="34.71810913"><ele>279.2</ele><time>2013-11-20T07:13:14.0000000+00:00</time></trkpt><trkpt lat="31.03944016" lon="34.71810913"><ele>279.3</ele><time>2013-11-20T07:13:19.0000000+00:00</time></trkpt><trkpt lat="31.03944016" lon="34.71810913"><ele>279.3</ele><time>2013-11-20T07:13:24.0000000+00:00</time></trkpt><trkpt lat="31.03944016" lon="34.71810532"><ele>279.3</ele><time>2013-11-20T07:13:29.0000000+00:00</time></trkpt><trkpt lat="31.03944016" lon="34.71810532"><ele>279.3</ele><time>2013-11-20T07:13:34.0000000+00:00</time></trkpt><trkpt lat="31.03944016" lon="34.71810532"><ele>279.4</ele><time>2013-11-20T07:13:39.0000000+00:00</time></trkpt><trkpt lat="31.03944016" lon="34.71810532"><ele>279.4</ele><time>2013-11-20T07:13:44.0000000+00:00</time></trkpt><trkpt lat="31.03943825" lon="34.71810532"><ele>279.4</ele><time>2013-11-20T07:13:49.0000000+00:00</time></trkpt><trkpt lat="31.03943825" lon="34.71810532"><ele>279.4</ele><time>2013-11-20T07:13:54.0000000+00:00</time></trkpt><trkpt lat="31.03943825" lon="34.71810532"><ele>279.4</ele><time>2013-11-20T07:13:59.0000000+00:00</time></trkpt><trkpt lat="31.03943825" lon="34.71810532"><ele>279.5</ele><time>2013-11-20T07:14:04.0000000+00:00</time></trkpt><trkpt lat="31.03943825" lon="34.71810532"><ele>279.5</ele><time>2013-11-20T07:14:09.0000000+00:00</time></trkpt><trkpt lat="31.03943825" lon="34.71810532"><ele>279.5</ele><time>2013-11-20T07:14:14.0000000+00:00</time></trkpt><trkpt lat="31.03943825" lon="34.71810532"><ele>279.5</ele><time>2013-11-20T07:14:19.0000000+00:00</time></trkpt><trkpt lat="31.03943634" lon="34.71810532"><ele>279.6</ele><time>2013-11-20T07:14:24.0000000+00:00</time></trkpt><trkpt lat="31.03943634" lon="34.71810532"><ele>279.6</ele><time>2013-11-20T07:14:29.0000000+00:00</time></trkpt><trkpt lat="31.03943634" lon="34.71810532"><ele>279.6</ele><time>2013-11-20T07:14:34.0000000+00:00</time></trkpt><trkpt lat="31.03943634" lon="34.71810532"><ele>279.7</ele><time>2013-11-20T07:14:39.0000000+00:00</time></trkpt><trkpt lat="31.03943634" lon="34.71810532"><ele>279.7</ele><time>2013-11-20T07:14:44.0000000+00:00</time></trkpt><trkpt lat="31.03943634" lon="34.71810532"><ele>279.7</ele><time>2013-11-20T07:14:49.0000000+00:00</time></trkpt><trkpt lat="31.03943634" lon="34.71810532"><ele>279.7</ele><time>2013-11-20T07:14:54.0000000+00:00</time></trkpt><trkpt lat="31.03943634" lon="34.71810532"><ele>279.7</ele><time>2013-11-20T07:14:59.0000000+00:00</time></trkpt><trkpt lat="31.03943443" lon="34.71810532"><ele>279.8</ele><time>2013-11-20T07:15:04.0000000+00:00</time></trkpt><trkpt lat="31.03943443" lon="34.71810532"><ele>279.8</ele><time>2013-11-20T07:15:09.0000000+00:00</time></trkpt><trkpt lat="31.03943443" lon="34.71810532"><ele>279.8</ele><time>2013-11-20T07:15:14.0000000+00:00</time></trkpt><trkpt lat="31.03943443" lon="34.71810532"><ele>279.9</ele><time>2013-11-20T07:15:19.0000000+00:00</time></trkpt><trkpt lat="31.03943443" lon="34.71810532"><ele>279.9</ele><time>2013-11-20T07:15:24.0000000+00:00</time></trkpt><trkpt lat="31.03943443" lon="34.71810532"><ele>279.9</ele><time>2013-11-20T07:15:29.0000000+00:00</time></trkpt><trkpt lat="31.03943443" lon="34.71810532"><ele>279.9</ele><time>2013-11-20T07:15:34.0000000+00:00</time></trkpt><trkpt lat="31.03943253" lon="34.71810532"><ele>280.0</ele><time>2013-11-20T07:15:39.0000000+00:00</time></trkpt><trkpt lat="31.03943253" lon="34.71810532"><ele>280.0</ele><time>2013-11-20T07:15:44.0000000+00:00</time></trkpt><trkpt lat="31.03943253" lon="34.71810532"><ele>280.0</ele><time>2013-11-20T07:15:49.0000000+00:00</time></trkpt><trkpt lat="31.03943253" lon="34.71810532"><ele>280.0</ele><time>2013-11-20T07:15:54.0000000+00:00</time></trkpt><trkpt lat="31.03943253" lon="34.71810532"><ele>280.1</ele><time>2013-11-20T07:15:59.0000000+00:00</time></trkpt><trkpt lat="31.03943253" lon="34.71810532"><ele>280.1</ele><time>2013-11-20T07:16:04.0000000+00:00</time></trkpt><trkpt lat="31.03943253" lon="34.71810532"><ele>280.1</ele><time>2013-11-20T07:16:09.0000000+00:00</time></trkpt><trkpt lat="31.03943253" lon="34.71810532"><ele>280.2</ele><time>2013-11-20T07:16:14.0000000+00:00</time></trkpt><trkpt lat="31.03943253" lon="34.71810532"><ele>280.2</ele><time>2013-11-20T07:16:19.0000000+00:00</time></trkpt><trkpt lat="31.03943062" lon="34.71810532"><ele>280.2</ele><time>2013-11-20T07:16:24.0000000+00:00</time></trkpt><trkpt lat="31.03943062" lon="34.71810532"><ele>280.3</ele><time>2013-11-20T07:16:29.0000000+00:00</time></trkpt><trkpt lat="31.03943062" lon="34.71810532"><ele>280.3</ele><time>2013-11-20T07:16:34.0000000+00:00</time></trkpt><trkpt lat="31.03943062" lon="34.71810532"><ele>280.3</ele><time>2013-11-20T07:16:39.0000000+00:00</time></trkpt><trkpt lat="31.03943062" lon="34.71810532"><ele>280.3</ele><time>2013-11-20T07:16:44.0000000+00:00</time></trkpt><trkpt lat="31.03943062" lon="34.71810532"><ele>280.4</ele><time>2013-11-20T07:16:49.0000000+00:00</time></trkpt><trkpt lat="31.03942871" lon="34.71810532"><ele>280.4</ele><time>2013-11-20T07:16:54.0000000+00:00</time></trkpt><trkpt lat="31.03942871" lon="34.71810532"><ele>280.4</ele><time>2013-11-20T07:16:59.0000000+00:00</time></trkpt><trkpt lat="31.03942871" lon="34.71810532"><ele>280.4</ele><time>2013-11-20T07:17:04.0000000+00:00</time></trkpt><trkpt lat="31.03942871" lon="34.71810532"><ele>280.5</ele><time>2013-11-20T07:17:09.0000000+00:00</time></trkpt><trkpt lat="31.03942871" lon="34.71810532"><ele>280.5</ele><time>2013-11-20T07:17:14.0000000+00:00</time></trkpt><trkpt lat="31.03942871" lon="34.71810532"><ele>280.5</ele><time>2013-11-20T07:17:19.0000000+00:00</time></trkpt><trkpt lat="31.03942871" lon="34.71810532"><ele>280.5</ele><time>2013-11-20T07:17:24.0000000+00:00</time></trkpt><trkpt lat="31.03942871" lon="34.71810532"><ele>280.6</ele><time>2013-11-20T07:17:29.0000000+00:00</time></trkpt><trkpt lat="31.03942871" lon="34.71810532"><ele>280.6</ele><time>2013-11-20T07:17:34.0000000+00:00</time></trkpt><trkpt lat="31.0394268" lon="34.71810532"><ele>280.6</ele><time>2013-11-20T07:17:39.0000000+00:00</time></trkpt><trkpt lat="31.0394268" lon="34.71810532"><ele>280.7</ele><time>2013-11-20T07:17:44.0000000+00:00</time></trkpt><trkpt lat="31.0394268" lon="34.71810532"><ele>280.7</ele><time>2013-11-20T07:17:49.0000000+00:00</time></trkpt><trkpt lat="31.0394268" lon="34.71810532"><ele>280.7</ele><time>2013-11-20T07:17:54.0000000+00:00</time></trkpt><trkpt lat="31.0394268" lon="34.71810532"><ele>280.8</ele><time>2013-11-20T07:17:59.0000000+00:00</time></trkpt><trkpt lat="31.0394268" lon="34.71810532"><ele>280.8</ele><time>2013-11-20T07:18:04.0000000+00:00</time></trkpt><trkpt lat="31.0394249" lon="34.71810532"><ele>280.8</ele><time>2013-11-20T07:18:09.0000000+00:00</time></trkpt><trkpt lat="31.0394249" lon="34.71810532"><ele>280.9</ele><time>2013-11-20T07:18:14.0000000+00:00</time></trkpt><trkpt lat="31.0394249" lon="34.71810532"><ele>280.9</ele><time>2013-11-20T07:18:19.0000000+00:00</time></trkpt><trkpt lat="31.0394249" lon="34.71810532"><ele>280.9</ele><time>2013-11-20T07:18:24.0000000+00:00</time></trkpt><trkpt lat="31.0394249" lon="34.71810532"><ele>280.9</ele><time>2013-11-20T07:18:29.0000000+00:00</time></trkpt><trkpt lat="31.0394249" lon="34.71810532"><ele>281.0</ele><time>2013-11-20T07:18:34.0000000+00:00</time></trkpt><trkpt lat="31.0394249" lon="34.71810532"><ele>281.0</ele><time>2013-11-20T07:18:39.0000000+00:00</time></trkpt><trkpt lat="31.0394249" lon="34.71810532"><ele>281.0</ele><time>2013-11-20T07:18:44.0000000+00:00</time></trkpt><trkpt lat="31.0394249" lon="34.71810532"><ele>281.0</ele><time>2013-11-20T07:18:49.0000000+00:00</time></trkpt><trkpt lat="31.0394249" lon="34.71810532"><ele>281.0</ele><time>2013-11-20T07:18:54.0000000+00:00</time></trkpt><trkpt lat="31.03942299" lon="34.71810532"><ele>281.1</ele><time>2013-11-20T07:18:59.0000000+00:00</time></trkpt><trkpt lat="31.03942299" lon="34.71810532"><ele>281.1</ele><time>2013-11-20T07:19:04.0000000+00:00</time></trkpt><trkpt lat="31.03942299" lon="34.71810532"><ele>281.1</ele><time>2013-11-20T07:19:09.0000000+00:00</time></trkpt><trkpt lat="31.03942299" lon="34.71810532"><ele>281.1</ele><time>2013-11-20T07:19:14.0000000+00:00</time></trkpt><trkpt lat="31.03942299" lon="34.71810532"><ele>281.2</ele><time>2013-11-20T07:19:19.0000000+00:00</time></trkpt><trkpt lat="31.03942299" lon="34.71810532"><ele>281.2</ele><time>2013-11-20T07:19:24.0000000+00:00</time></trkpt><trkpt lat="31.03942299" lon="34.71810532"><ele>281.2</ele><time>2013-11-20T07:19:29.0000000+00:00</time></trkpt><trkpt lat="31.03942299" lon="34.71810532"><ele>281.2</ele><time>2013-11-20T07:19:34.0000000+00:00</time></trkpt><trkpt lat="31.03942299" lon="34.71810532"><ele>281.2</ele><time>2013-11-20T07:19:39.0000000+00:00</time></trkpt><trkpt lat="31.03942299" lon="34.71810532"><ele>281.3</ele><time>2013-11-20T07:19:44.0000000+00:00</time></trkpt><trkpt lat="31.03942299" lon="34.71810532"><ele>281.3</ele><time>2013-11-20T07:19:49.0000000+00:00</time></trkpt><trkpt lat="31.03942299" lon="34.71810913"><ele>281.3</ele><time>2013-11-20T07:19:54.0000000+00:00</time></trkpt><trkpt lat="31.03942299" lon="34.71810913"><ele>281.3</ele><time>2013-11-20T07:19:59.0000000+00:00</time></trkpt><trkpt lat="31.03942299" lon="34.71810913"><ele>281.3</ele><time>2013-11-20T07:20:04.0000000+00:00</time></trkpt><trkpt lat="31.03942299" lon="34.71810913"><ele>281.4</ele><time>2013-11-20T07:20:09.0000000+00:00</time></trkpt><trkpt lat="31.03942299" lon="34.71810913"><ele>281.4</ele><time>2013-11-20T07:20:14.0000000+00:00</time></trkpt><trkpt lat="31.03942299" lon="34.71810913"><ele>281.4</ele><time>2013-11-20T07:20:19.0000000+00:00</time></trkpt><trkpt lat="31.03942299" lon="34.71810913"><ele>281.4</ele><time>2013-11-20T07:20:24.0000000+00:00</time></trkpt><trkpt lat="31.03942299" lon="34.71810913"><ele>281.5</ele><time>2013-11-20T07:20:29.0000000+00:00</time></trkpt><trkpt lat="31.03942299" lon="34.71810913"><ele>281.5</ele><time>2013-11-20T07:20:34.0000000+00:00</time></trkpt><trkpt lat="31.03942299" lon="34.71810913"><ele>281.5</ele><time>2013-11-20T07:20:39.0000000+00:00</time></trkpt><trkpt lat="31.03942299" lon="34.71810913"><ele>281.5</ele><time>2013-11-20T07:20:44.0000000+00:00</time></trkpt><trkpt lat="31.03942299" lon="34.71810913"><ele>281.5</ele><time>2013-11-20T07:20:49.0000000+00:00</time></trkpt><trkpt lat="31.03942299" lon="34.71810913"><ele>281.4</ele><time>2013-11-20T07:20:54.0000000+00:00</time></trkpt><trkpt lat="31.03942299" lon="34.71810913"><ele>281.4</ele><time>2013-11-20T07:20:59.0000000+00:00</time></trkpt><trkpt lat="31.03942299" lon="34.71810913"><ele>281.4</ele><time>2013-11-20T07:21:04.0000000+00:00</time></trkpt><trkpt lat="31.03942299" lon="34.71810913"><ele>281.4</ele><time>2013-11-20T07:21:09.0000000+00:00</time></trkpt><trkpt lat="31.03942299" lon="34.71810913"><ele>281.3</ele><time>2013-11-20T07:21:14.0000000+00:00</time></trkpt><trkpt lat="31.03942299" lon="34.71810913"><ele>281.3</ele><time>2013-11-20T07:21:19.0000000+00:00</time></trkpt><trkpt lat="31.0394249" lon="34.71810913"><ele>281.3</ele><time>2013-11-20T07:21:24.0000000+00:00</time></trkpt><trkpt lat="31.0394249" lon="34.71810913"><ele>281.2</ele><time>2013-11-20T07:21:29.0000000+00:00</time></trkpt><trkpt lat="31.0394249" lon="34.71810913"><ele>281.2</ele><time>2013-11-20T07:21:34.0000000+00:00</time></trkpt><trkpt lat="31.0394249" lon="34.71810913"><ele>281.2</ele><time>2013-11-20T07:21:39.0000000+00:00</time></trkpt><trkpt lat="31.0394249" lon="34.71810913"><ele>281.2</ele><time>2013-11-20T07:21:44.0000000+00:00</time></trkpt><trkpt lat="31.0394249" lon="34.71810913"><ele>281.1</ele><time>2013-11-20T07:21:49.0000000+00:00</time></trkpt><trkpt lat="31.0394249" lon="34.71810913"><ele>281.1</ele><time>2013-11-20T07:21:54.0000000+00:00</time></trkpt><trkpt lat="31.0394249" lon="34.71810913"><ele>281.1</ele><time>2013-11-20T07:21:59.0000000+00:00</time></trkpt><trkpt lat="31.0394249" lon="34.71810913"><ele>281.1</ele><time>2013-11-20T07:22:04.0000000+00:00</time></trkpt><trkpt lat="31.0394249" lon="34.71810913"><ele>281.1</ele><time>2013-11-20T07:22:09.0000000+00:00</time></trkpt><trkpt lat="31.0394249" lon="34.71810913"><ele>281.1</ele><time>2013-11-20T07:22:14.0000000+00:00</time></trkpt><trkpt lat="31.0394249" lon="34.71810913"><ele>281.0</ele><time>2013-11-20T07:22:19.0000000+00:00</time></trkpt><trkpt lat="31.0394249" lon="34.71810913"><ele>281.0</ele><time>2013-11-20T07:22:24.0000000+00:00</time></trkpt><trkpt lat="31.0394249" lon="34.71810913"><ele>281.0</ele><time>2013-11-20T07:22:29.0000000+00:00</time></trkpt><trkpt lat="31.0394249" lon="34.71810913"><ele>281.0</ele><time>2013-11-20T07:22:34.0000000+00:00</time></trkpt><trkpt lat="31.0394249" lon="34.71810913"><ele>281.0</ele><time>2013-11-20T07:22:39.0000000+00:00</time></trkpt><trkpt lat="31.0394249" lon="34.71810913"><ele>281.0</ele><time>2013-11-20T07:22:44.0000000+00:00</time></trkpt><trkpt lat="31.0394268" lon="34.71810913"><ele>281.0</ele><time>2013-11-20T07:22:49.0000000+00:00</time></trkpt><trkpt lat="31.0394268" lon="34.71810913"><ele>281.0</ele><time>2013-11-20T07:22:54.0000000+00:00</time></trkpt><trkpt lat="31.0394268" lon="34.71810913"><ele>281.0</ele><time>2013-11-20T07:22:59.0000000+00:00</time></trkpt><trkpt lat="31.0394268" lon="34.71810913"><ele>281.0</ele><time>2013-11-20T07:23:04.0000000+00:00</time></trkpt><trkpt lat="31.0394268" lon="34.71810913"><ele>281.0</ele><time>2013-11-20T07:23:09.0000000+00:00</time></trkpt><trkpt lat="31.0394268" lon="34.71810913"><ele>280.9</ele><time>2013-11-20T07:23:14.0000000+00:00</time></trkpt><trkpt lat="31.0394268" lon="34.71810913"><ele>281.0</ele><time>2013-11-20T07:23:19.0000000+00:00</time></trkpt><trkpt lat="31.0394268" lon="34.71811295"><ele>280.9</ele><time>2013-11-20T07:23:24.0000000+00:00</time></trkpt><trkpt lat="31.0394268" lon="34.71811295"><ele>280.9</ele><time>2013-11-20T07:23:29.0000000+00:00</time></trkpt><trkpt lat="31.0394268" lon="34.71811295"><ele>280.9</ele><time>2013-11-20T07:23:34.0000000+00:00</time></trkpt><trkpt lat="31.0394268" lon="34.71811295"><ele>280.9</ele><time>2013-11-20T07:23:39.0000000+00:00</time></trkpt><trkpt lat="31.0394268" lon="34.71811295"><ele>280.9</ele><time>2013-11-20T07:23:44.0000000+00:00</time></trkpt><trkpt lat="31.0394268" lon="34.71811295"><ele>280.9</ele><time>2013-11-20T07:23:49.0000000+00:00</time></trkpt><trkpt lat="31.0394268" lon="34.71811295"><ele>280.9</ele><time>2013-11-20T07:23:54.0000000+00:00</time></trkpt><trkpt lat="31.0394268" lon="34.71811295"><ele>280.9</ele><time>2013-11-20T07:23:59.0000000+00:00</time></trkpt><trkpt lat="31.0394268" lon="34.71811295"><ele>280.9</ele><time>2013-11-20T07:24:04.0000000+00:00</time></trkpt><trkpt lat="31.03942871" lon="34.71811295"><ele>280.9</ele><time>2013-11-20T07:24:09.0000000+00:00</time></trkpt><trkpt lat="31.03942871" lon="34.71811295"><ele>280.9</ele><time>2013-11-20T07:24:14.0000000+00:00</time></trkpt><trkpt lat="31.03942871" lon="34.71811295"><ele>280.9</ele><time>2013-11-20T07:24:19.0000000+00:00</time></trkpt><trkpt lat="31.03942871" lon="34.71811676"><ele>280.9</ele><time>2013-11-20T07:24:24.0000000+00:00</time></trkpt><trkpt lat="31.03942871" lon="34.71811676"><ele>281.0</ele><time>2013-11-20T07:24:29.0000000+00:00</time></trkpt><trkpt lat="31.03942871" lon="34.71811676"><ele>280.9</ele><time>2013-11-20T07:24:34.0000000+00:00</time></trkpt><trkpt lat="31.03942871" lon="34.71811676"><ele>280.9</ele><time>2013-11-20T07:24:39.0000000+00:00</time></trkpt><trkpt lat="31.03942871" lon="34.71811676"><ele>280.9</ele><time>2013-11-20T07:24:44.0000000+00:00</time></trkpt><trkpt lat="31.03942871" lon="34.71811676"><ele>280.9</ele><time>2013-11-20T07:24:49.0000000+00:00</time></trkpt><trkpt lat="31.0394249" lon="34.71812058"><ele>281.6</ele><time>2013-11-20T07:24:54.0000000+00:00</time></trkpt><trkpt lat="31.0393734" lon="34.71810532"><ele>281.6</ele><time>2013-11-20T07:24:59.0000000+00:00</time></trkpt><trkpt lat="31.03929901" lon="34.71821976"><ele>280.9</ele><time>2013-11-20T07:25:04.0000000+00:00</time></trkpt><trkpt lat="31.03926849" lon="34.71839905"><ele>279.5</ele><time>2013-11-20T07:25:09.0000000+00:00</time></trkpt><trkpt lat="31.03924751" lon="34.71858978"><ele>280.4</ele><time>2013-11-20T07:25:14.0000000+00:00</time></trkpt><trkpt lat="31.03920937" lon="34.71878433"><ele>280.1</ele><time>2013-11-20T07:25:19.0000000+00:00</time></trkpt><trkpt lat="31.03917313" lon="34.71898651"><ele>280.3</ele><time>2013-11-20T07:25:24.0000000+00:00</time></trkpt><trkpt lat="31.03913689" lon="34.71918106"><ele>280.6</ele><time>2013-11-20T07:25:29.0000000+00:00</time></trkpt><trkpt lat="31.03912735" lon="34.71938705"><ele>280.5</ele><time>2013-11-20T07:25:34.0000000+00:00</time></trkpt><trkpt lat="31.03916931" lon="34.71962357"><ele>280.0</ele><time>2013-11-20T07:25:39.0000000+00:00</time></trkpt><trkpt lat="31.03925896" lon="34.71982575"><ele>281.5</ele><time>2013-11-20T07:25:44.0000000+00:00</time></trkpt><trkpt lat="31.03941155" lon="34.72000885"><ele>280.9</ele><time>2013-11-20T07:25:49.0000000+00:00</time></trkpt><trkpt lat="31.03959274" lon="34.72018051"><ele>279.7</ele><time>2013-11-20T07:25:54.0000000+00:00</time></trkpt><trkpt lat="31.03977203" lon="34.72037506"><ele>278.5</ele><time>2013-11-20T07:25:59.0000000+00:00</time></trkpt><trkpt lat="31.03996658" lon="34.72055435"><ele>277.5</ele><time>2013-11-20T07:26:04.0000000+00:00</time></trkpt><trkpt lat="31.04015541" lon="34.7207489"><ele>276.9</ele><time>2013-11-20T07:26:09.0000000+00:00</time></trkpt><trkpt lat="31.0403347" lon="34.72093582"><ele>277.5</ele><time>2013-11-20T07:26:14.0000000+00:00</time></trkpt><trkpt lat="31.04051399" lon="34.72111511"><ele>279.2</ele><time>2013-11-20T07:26:19.0000000+00:00</time></trkpt><trkpt lat="31.04069901" lon="34.72129822"><ele>280.0</ele><time>2013-11-20T07:26:24.0000000+00:00</time></trkpt><trkpt lat="31.04086876" lon="34.72148895"><ele>279.6</ele><time>2013-11-20T07:26:29.0000000+00:00</time></trkpt><trkpt lat="31.04099083" lon="34.72171783"><ele>280.3</ele><time>2013-11-20T07:26:34.0000000+00:00</time></trkpt><trkpt lat="31.04111862" lon="34.72193527"><ele>280.5</ele><time>2013-11-20T07:26:39.0000000+00:00</time></trkpt><trkpt lat="31.04123306" lon="34.72214127"><ele>281.5</ele><time>2013-11-20T07:26:44.0000000+00:00</time></trkpt><trkpt lat="31.04133987" lon="34.72234726"><ele>281.0</ele><time>2013-11-20T07:26:49.0000000+00:00</time></trkpt><trkpt lat="31.04145622" lon="34.72254944"><ele>281.0</ele><time>2013-11-20T07:26:54.0000000+00:00</time></trkpt><trkpt lat="31.04156876" lon="34.72274399"><ele>282.4</ele><time>2013-11-20T07:26:59.0000000+00:00</time></trkpt><trkpt lat="31.04167748" lon="34.72293472"><ele>279.6</ele><time>2013-11-20T07:27:04.0000000+00:00</time></trkpt><trkpt lat="31.04179001" lon="34.72310638"><ele>279.8</ele><time>2013-11-20T07:27:09.0000000+00:00</time></trkpt><trkpt lat="31.0419178" lon="34.7232666"><ele>279.3</ele><time>2013-11-20T07:27:14.0000000+00:00</time></trkpt><trkpt lat="31.04206276" lon="34.72339249"><ele>278.4</ele><time>2013-11-20T07:27:19.0000000+00:00</time></trkpt><trkpt lat="31.04225922" lon="34.72349167"><ele>278.7</ele><time>2013-11-20T07:27:24.0000000+00:00</time></trkpt><trkpt lat="31.04248619" lon="34.7236023"><ele>278.3</ele><time>2013-11-20T07:27:29.0000000+00:00</time></trkpt><trkpt lat="31.0426693" lon="34.72367477"><ele>277.3</ele><time>2013-11-20T07:27:34.0000000+00:00</time></trkpt><trkpt lat="31.0428524" lon="34.72378922"><ele>276.1</ele><time>2013-11-20T07:27:39.0000000+00:00</time></trkpt><trkpt lat="31.04310036" lon="34.7239418"><ele>275.9</ele><time>2013-11-20T07:27:44.0000000+00:00</time></trkpt><trkpt lat="31.04339027" lon="34.7240715"><ele>275.5</ele><time>2013-11-20T07:27:49.0000000+00:00</time></trkpt><trkpt lat="31.04369354" lon="34.72419739"><ele>276.2</ele><time>2013-11-20T07:27:54.0000000+00:00</time></trkpt><trkpt lat="31.04395866" lon="34.72428131"><ele>275.3</ele><time>2013-11-20T07:27:59.0000000+00:00</time></trkpt><trkpt lat="31.04420662" lon="34.72435761"><ele>275.8</ele><time>2013-11-20T07:28:04.0000000+00:00</time></trkpt><trkpt lat="31.044487" lon="34.72440338"><ele>274.6</ele><time>2013-11-20T07:28:09.0000000+00:00</time></trkpt><trkpt lat="31.04477882" lon="34.72439575"><ele>275.4</ele><time>2013-11-20T07:28:14.0000000+00:00</time></trkpt><trkpt lat="31.04504395" lon="34.72433853"><ele>279.3</ele><time>2013-11-20T07:28:19.0000000+00:00</time></trkpt><trkpt lat="31.04533005" lon="34.72424316"><ele>282.2</ele><time>2013-11-20T07:28:24.0000000+00:00</time></trkpt><trkpt lat="31.04556847" lon="34.72412109"><ele>283.0</ele><time>2013-11-20T07:28:29.0000000+00:00</time></trkpt><trkpt lat="31.045681" lon="34.72408295"><ele>281.7</ele><time>2013-11-20T07:28:34.0000000+00:00</time></trkpt><trkpt lat="31.04580689" lon="34.72402191"><ele>281.0</ele><time>2013-11-20T07:28:39.0000000+00:00</time></trkpt><trkpt lat="31.04597664" lon="34.72395325"><ele>280.2</ele><time>2013-11-20T07:28:44.0000000+00:00</time></trkpt><trkpt lat="31.04614639" lon="34.72392654"><ele>280.4</ele><time>2013-11-20T07:28:49.0000000+00:00</time></trkpt><trkpt lat="31.04630661" lon="34.72389984"><ele>281.5</ele><time>2013-11-20T07:28:54.0000000+00:00</time></trkpt><trkpt lat="31.04648209" lon="34.72387695"><ele>281.0</ele><time>2013-11-20T07:28:59.0000000+00:00</time></trkpt><trkpt lat="31.04666328" lon="34.72387314"><ele>280.8</ele><time>2013-11-20T07:29:04.0000000+00:00</time></trkpt><trkpt lat="31.04684639" lon="34.72391129"><ele>278.9</ele><time>2013-11-20T07:29:09.0000000+00:00</time></trkpt><trkpt lat="31.04704857" lon="34.72397995"><ele>277.9</ele><time>2013-11-20T07:29:14.0000000+00:00</time></trkpt><trkpt lat="31.04727936" lon="34.72408676"><ele>276.8</ele><time>2013-11-20T07:29:19.0000000+00:00</time></trkpt><trkpt lat="31.04750633" lon="34.72424698"><ele>277.5</ele><time>2013-11-20T07:29:24.0000000+00:00</time></trkpt><trkpt lat="31.04771233" lon="34.72443771"><ele>277.7</ele><time>2013-11-20T07:29:29.0000000+00:00</time></trkpt><trkpt lat="31.04792976" lon="34.72465897"><ele>277.1</ele><time>2013-11-20T07:29:34.0000000+00:00</time></trkpt><trkpt lat="31.04813957" lon="34.72487259"><ele>276.4</ele><time>2013-11-20T07:29:39.0000000+00:00</time></trkpt><trkpt lat="31.04835129" lon="34.72507477"><ele>276.4</ele><time>2013-11-20T07:29:44.0000000+00:00</time></trkpt><trkpt lat="31.04855919" lon="34.72528076"><ele>275.5</ele><time>2013-11-20T07:29:49.0000000+00:00</time></trkpt><trkpt lat="31.04877472" lon="34.7254982"><ele>274.3</ele><time>2013-11-20T07:29:54.0000000+00:00</time></trkpt><trkpt lat="31.04898453" lon="34.72570801"><ele>272.8</ele><time>2013-11-20T07:29:59.0000000+00:00</time></trkpt><trkpt lat="31.04919243" lon="34.72592545"><ele>271.9</ele><time>2013-11-20T07:30:04.0000000+00:00</time></trkpt><trkpt lat="31.04940414" lon="34.72615051"><ele>272.1</ele><time>2013-11-20T07:30:09.0000000+00:00</time></trkpt><trkpt lat="31.04962158" lon="34.72635651"><ele>272.9</ele><time>2013-11-20T07:30:14.0000000+00:00</time></trkpt><trkpt lat="31.04983139" lon="34.72657394"><ele>272.1</ele><time>2013-11-20T07:30:19.0000000+00:00</time></trkpt><trkpt lat="31.05004501" lon="34.72677231"><ele>271.5</ele><time>2013-11-20T07:30:24.0000000+00:00</time></trkpt><trkpt lat="31.0502491" lon="34.72698212"><ele>270.2</ele><time>2013-11-20T07:30:29.0000000+00:00</time></trkpt><trkpt lat="31.05046845" lon="34.72720718"><ele>269.5</ele><time>2013-11-20T07:30:34.0000000+00:00</time></trkpt><trkpt lat="31.05059242" lon="34.72747803"><ele>269.6</ele><time>2013-11-20T07:30:39.0000000+00:00</time></trkpt><trkpt lat="31.05044556" lon="34.7277565"><ele>270.1</ele><time>2013-11-20T07:30:44.0000000+00:00</time></trkpt><trkpt lat="31.05029106" lon="34.72797775"><ele>269.2</ele><time>2013-11-20T07:30:49.0000000+00:00</time></trkpt><trkpt lat="31.0501461" lon="34.72817612"><ele>269.9</ele><time>2013-11-20T07:30:54.0000000+00:00</time></trkpt><trkpt lat="31.04999161" lon="34.7283783"><ele>271.7</ele><time>2013-11-20T07:30:59.0000000+00:00</time></trkpt><trkpt lat="31.04984283" lon="34.72856522"><ele>272.8</ele><time>2013-11-20T07:31:04.0000000+00:00</time></trkpt><trkpt lat="31.04967499" lon="34.72874069"><ele>275.1</ele><time>2013-11-20T07:31:09.0000000+00:00</time></trkpt><trkpt lat="31.04952622" lon="34.72891998"><ele>275.9</ele><time>2013-11-20T07:31:14.0000000+00:00</time></trkpt><trkpt lat="31.04940224" lon="34.72907257"><ele>277.1</ele><time>2013-11-20T07:31:19.0000000+00:00</time></trkpt><trkpt lat="31.04923821" lon="34.72921753"><ele>277.6</ele><time>2013-11-20T07:31:24.0000000+00:00</time></trkpt><trkpt lat="31.04909325" lon="34.7293663"><ele>276.6</ele><time>2013-11-20T07:31:29.0000000+00:00</time></trkpt><trkpt lat="31.04893875" lon="34.72951889"><ele>276.9</ele><time>2013-11-20T07:31:34.0000000+00:00</time></trkpt><trkpt lat="31.04878807" lon="34.72967148"><ele>277.2</ele><time>2013-11-20T07:31:39.0000000+00:00</time></trkpt><trkpt lat="31.0486393" lon="34.72983933"><ele>276.2</ele><time>2013-11-20T07:31:44.0000000+00:00</time></trkpt><trkpt lat="31.04848862" lon="34.73000336"><ele>276.6</ele><time>2013-11-20T07:31:49.0000000+00:00</time></trkpt><trkpt lat="31.04833221" lon="34.73015595"><ele>277.7</ele><time>2013-11-20T07:31:54.0000000+00:00</time></trkpt><trkpt lat="31.04818153" lon="34.73030472"><ele>277.6</ele><time>2013-11-20T07:31:59.0000000+00:00</time></trkpt><trkpt lat="31.04804611" lon="34.73046875"><ele>281.7</ele><time>2013-11-20T07:32:04.0000000+00:00</time></trkpt><trkpt lat="31.04791451" lon="34.73062134"><ele>282.1</ele><time>2013-11-20T07:32:09.0000000+00:00</time></trkpt><trkpt lat="31.04777718" lon="34.7307663"><ele>282.6</ele><time>2013-11-20T07:32:14.0000000+00:00</time></trkpt><trkpt lat="31.04764366" lon="34.730896"><ele>282.0</ele><time>2013-11-20T07:32:19.0000000+00:00</time></trkpt><trkpt lat="31.04750443" lon="34.7310257"><ele>281.2</ele><time>2013-11-20T07:32:24.0000000+00:00</time></trkpt><trkpt lat="31.04735756" lon="34.73117065"><ele>283.4</ele><time>2013-11-20T07:32:29.0000000+00:00</time></trkpt><trkpt lat="31.04721069" lon="34.73129654"><ele>283.2</ele><time>2013-11-20T07:32:34.0000000+00:00</time></trkpt><trkpt lat="31.04706192" lon="34.73143005"><ele>283.5</ele><time>2013-11-20T07:32:39.0000000+00:00</time></trkpt><trkpt lat="31.04689598" lon="34.73158264"><ele>283.8</ele><time>2013-11-20T07:32:44.0000000+00:00</time></trkpt><trkpt lat="31.04674149" lon="34.73171616"><ele>284.0</ele><time>2013-11-20T07:32:49.0000000+00:00</time></trkpt><trkpt lat="31.04659653" lon="34.73184586"><ele>284.0</ele><time>2013-11-20T07:32:54.0000000+00:00</time></trkpt><trkpt lat="31.04644966" lon="34.73195267"><ele>283.9</ele><time>2013-11-20T07:32:59.0000000+00:00</time></trkpt><trkpt lat="31.04628563" lon="34.73205948"><ele>284.4</ele><time>2013-11-20T07:33:04.0000000+00:00</time></trkpt><trkpt lat="31.04611969" lon="34.73216248"><ele>285.4</ele><time>2013-11-20T07:33:09.0000000+00:00</time></trkpt><trkpt lat="31.04595184" lon="34.73227692"><ele>284.4</ele><time>2013-11-20T07:33:14.0000000+00:00</time></trkpt><trkpt lat="31.04576874" lon="34.73239899"><ele>283.7</ele><time>2013-11-20T07:33:19.0000000+00:00</time></trkpt><trkpt lat="31.04559326" lon="34.73250198"><ele>285.2</ele><time>2013-11-20T07:33:24.0000000+00:00</time></trkpt><trkpt lat="31.04542542" lon="34.73260498"><ele>287.2</ele><time>2013-11-20T07:33:29.0000000+00:00</time></trkpt><trkpt lat="31.04526329" lon="34.73268509"><ele>286.5</ele><time>2013-11-20T07:33:34.0000000+00:00</time></trkpt><trkpt lat="31.04509926" lon="34.73277664"><ele>286.3</ele><time>2013-11-20T07:33:39.0000000+00:00</time></trkpt><trkpt lat="31.04491615" lon="34.73286438"><ele>286.2</ele><time>2013-11-20T07:33:44.0000000+00:00</time></trkpt><trkpt lat="31.04474449" lon="34.73295975"><ele>287.0</ele><time>2013-11-20T07:33:49.0000000+00:00</time></trkpt><trkpt lat="31.04457474" lon="34.73305893"><ele>287.8</ele><time>2013-11-20T07:33:54.0000000+00:00</time></trkpt><trkpt lat="31.04439735" lon="34.73315811"><ele>287.8</ele><time>2013-11-20T07:33:59.0000000+00:00</time></trkpt><trkpt lat="31.04422569" lon="34.73325729"><ele>288.1</ele><time>2013-11-20T07:34:04.0000000+00:00</time></trkpt><trkpt lat="31.0440464" lon="34.73335266"><ele>289.5</ele><time>2013-11-20T07:34:09.0000000+00:00</time></trkpt><trkpt lat="31.04387474" lon="34.73345947"><ele>290.6</ele><time>2013-11-20T07:34:14.0000000+00:00</time></trkpt><trkpt lat="31.04368973" lon="34.73358917"><ele>292.7</ele><time>2013-11-20T07:34:19.0000000+00:00</time></trkpt><trkpt lat="31.04350853" lon="34.73373032"><ele>292.8</ele><time>2013-11-20T07:34:24.0000000+00:00</time></trkpt><trkpt lat="31.04333496" lon="34.73389053"><ele>293.5</ele><time>2013-11-20T07:34:29.0000000+00:00</time></trkpt><trkpt lat="31.04316902" lon="34.73405838"><ele>292.7</ele><time>2013-11-20T07:34:34.0000000+00:00</time></trkpt><trkpt lat="31.0430088" lon="34.73424912"><ele>292.0</ele><time>2013-11-20T07:34:39.0000000+00:00</time></trkpt><trkpt lat="31.04285431" lon="34.73445511"><ele>291.4</ele><time>2013-11-20T07:34:44.0000000+00:00</time></trkpt><trkpt lat="31.04269028" lon="34.73468018"><ele>290.1</ele><time>2013-11-20T07:34:49.0000000+00:00</time></trkpt><trkpt lat="31.0425396" lon="34.73492813"><ele>289.5</ele><time>2013-11-20T07:34:54.0000000+00:00</time></trkpt><trkpt lat="31.0424099" lon="34.7351799"><ele>289.1</ele><time>2013-11-20T07:34:59.0000000+00:00</time></trkpt><trkpt lat="31.0422821" lon="34.73546219"><ele>288.5</ele><time>2013-11-20T07:35:04.0000000+00:00</time></trkpt><trkpt lat="31.04215241" lon="34.73575592"><ele>288.3</ele><time>2013-11-20T07:35:09.0000000+00:00</time></trkpt><trkpt lat="31.04203033" lon="34.73604584"><ele>287.2</ele><time>2013-11-20T07:35:14.0000000+00:00</time></trkpt><trkpt lat="31.04189873" lon="34.73633957"><ele>287.4</ele><time>2013-11-20T07:35:19.0000000+00:00</time></trkpt><trkpt lat="31.04176903" lon="34.73663712"><ele>287.3</ele><time>2013-11-20T07:35:24.0000000+00:00</time></trkpt><trkpt lat="31.0416317" lon="34.73693466"><ele>288.1</ele><time>2013-11-20T07:35:29.0000000+00:00</time></trkpt><trkpt lat="31.04150391" lon="34.73722839"><ele>288.0</ele><time>2013-11-20T07:35:34.0000000+00:00</time></trkpt><trkpt lat="31.04137802" lon="34.73752213"><ele>288.2</ele><time>2013-11-20T07:35:39.0000000+00:00</time></trkpt><trkpt lat="31.04125214" lon="34.73781204"><ele>287.8</ele><time>2013-11-20T07:35:44.0000000+00:00</time></trkpt><trkpt lat="31.04111862" lon="34.7381134"><ele>288.6</ele><time>2013-11-20T07:35:49.0000000+00:00</time></trkpt><trkpt lat="31.04099274" lon="34.73840714"><ele>288.3</ele><time>2013-11-20T07:35:54.0000000+00:00</time></trkpt><trkpt lat="31.04087639" lon="34.73868179"><ele>288.7</ele><time>2013-11-20T07:35:59.0000000+00:00</time></trkpt><trkpt lat="31.04075432" lon="34.73892975"><ele>289.5</ele><time>2013-11-20T07:36:04.0000000+00:00</time></trkpt><trkpt lat="31.04065704" lon="34.73916626"><ele>291.0</ele><time>2013-11-20T07:36:09.0000000+00:00</time></trkpt><trkpt lat="31.04056358" lon="34.7393837"><ele>291.2</ele><time>2013-11-20T07:36:14.0000000+00:00</time></trkpt><trkpt lat="31.0404644" lon="34.73959732"><ele>291.6</ele><time>2013-11-20T07:36:19.0000000+00:00</time></trkpt><trkpt lat="31.04037476" lon="34.73981094"><ele>293.1</ele><time>2013-11-20T07:36:24.0000000+00:00</time></trkpt><trkpt lat="31.0402832" lon="34.74001694"><ele>295.3</ele><time>2013-11-20T07:36:29.0000000+00:00</time></trkpt><trkpt lat="31.04018593" lon="34.74023438"><ele>295.3</ele><time>2013-11-20T07:36:34.0000000+00:00</time></trkpt><trkpt lat="31.04009247" lon="34.74045181"><ele>296.0</ele><time>2013-11-20T07:36:39.0000000+00:00</time></trkpt><trkpt lat="31.04000092" lon="34.74065781"><ele>298.0</ele><time>2013-11-20T07:36:44.0000000+00:00</time></trkpt><trkpt lat="31.03990555" lon="34.7408638"><ele>298.1</ele><time>2013-11-20T07:36:49.0000000+00:00</time></trkpt><trkpt lat="31.03981209" lon="34.74108124"><ele>298.9</ele><time>2013-11-20T07:36:54.0000000+00:00</time></trkpt><trkpt lat="31.03971481" lon="34.74130631"><ele>299.5</ele><time>2013-11-20T07:36:59.0000000+00:00</time></trkpt><trkpt lat="31.03961182" lon="34.74153137"><ele>299.9</ele><time>2013-11-20T07:37:04.0000000+00:00</time></trkpt><trkpt lat="31.03950882" lon="34.74176788"><ele>300.2</ele><time>2013-11-20T07:37:09.0000000+00:00</time></trkpt><trkpt lat="31.0394001" lon="34.74201965"><ele>300.4</ele><time>2013-11-20T07:37:14.0000000+00:00</time></trkpt><trkpt lat="31.03929138" lon="34.74227142"><ele>301.1</ele><time>2013-11-20T07:37:19.0000000+00:00</time></trkpt><trkpt lat="31.03918648" lon="34.74252701"><ele>301.9</ele><time>2013-11-20T07:37:24.0000000+00:00</time></trkpt><trkpt lat="31.03907013" lon="34.74277496"><ele>302.1</ele><time>2013-11-20T07:37:29.0000000+00:00</time></trkpt><trkpt lat="31.03895569" lon="34.74302673"><ele>302.5</ele><time>2013-11-20T07:37:34.0000000+00:00</time></trkpt><trkpt lat="31.03884506" lon="34.74327469"><ele>303.0</ele><time>2013-11-20T07:37:39.0000000+00:00</time></trkpt><trkpt lat="31.03873634" lon="34.74352646"><ele>303.4</ele><time>2013-11-20T07:37:44.0000000+00:00</time></trkpt><trkpt lat="31.03863335" lon="34.74377441"><ele>303.7</ele><time>2013-11-20T07:37:49.0000000+00:00</time></trkpt><trkpt lat="31.03852081" lon="34.74402618"><ele>304.1</ele><time>2013-11-20T07:37:54.0000000+00:00</time></trkpt><trkpt lat="31.03840828" lon="34.74428177"><ele>304.7</ele><time>2013-11-20T07:37:59.0000000+00:00</time></trkpt><trkpt lat="31.03829765" lon="34.74454117"><ele>305.2</ele><time>2013-11-20T07:38:04.0000000+00:00</time></trkpt><trkpt lat="31.03818131" lon="34.74480057"><ele>305.4</ele><time>2013-11-20T07:38:09.0000000+00:00</time></trkpt><trkpt lat="31.03806114" lon="34.74507141"><ele>306.1</ele><time>2013-11-20T07:38:14.0000000+00:00</time></trkpt><trkpt lat="31.03793716" lon="34.74534226"><ele>305.9</ele><time>2013-11-20T07:38:19.0000000+00:00</time></trkpt><trkpt lat="31.03782272" lon="34.74562073"><ele>306.5</ele><time>2013-11-20T07:38:24.0000000+00:00</time></trkpt><trkpt lat="31.0377121" lon="34.74588013"><ele>306.2</ele><time>2013-11-20T07:38:29.0000000+00:00</time></trkpt><trkpt lat="31.03760338" lon="34.74615479"><ele>307.9</ele><time>2013-11-20T07:38:34.0000000+00:00</time></trkpt><trkpt lat="31.03749085" lon="34.74641037"><ele>308.2</ele><time>2013-11-20T07:38:39.0000000+00:00</time></trkpt><trkpt lat="31.03737831" lon="34.74665833"><ele>307.9</ele><time>2013-11-20T07:38:44.0000000+00:00</time></trkpt><trkpt lat="31.03726769" lon="34.74689865"><ele>307.4</ele><time>2013-11-20T07:38:49.0000000+00:00</time></trkpt><trkpt lat="31.03715134" lon="34.74715805"><ele>307.0</ele><time>2013-11-20T07:38:54.0000000+00:00</time></trkpt><trkpt lat="31.03701019" lon="34.74742889"><ele>306.5</ele><time>2013-11-20T07:38:59.0000000+00:00</time></trkpt><trkpt lat="31.03682709" lon="34.74772644"><ele>304.8</ele><time>2013-11-20T07:39:04.0000000+00:00</time></trkpt><trkpt lat="31.03664208" lon="34.7480278"><ele>304.6</ele><time>2013-11-20T07:39:09.0000000+00:00</time></trkpt><trkpt lat="31.03644371" lon="34.74828339"><ele>304.2</ele><time>2013-11-20T07:39:14.0000000+00:00</time></trkpt><trkpt lat="31.03622437" lon="34.74850464"><ele>304.9</ele><time>2013-11-20T07:39:19.0000000+00:00</time></trkpt><trkpt lat="31.03602219" lon="34.74868774"><ele>305.6</ele><time>2013-11-20T07:39:24.0000000+00:00</time></trkpt><trkpt lat="31.03581619" lon="34.74884796"><ele>306.7</ele><time>2013-11-20T07:39:29.0000000+00:00</time></trkpt><trkpt lat="31.03559685" lon="34.74898529"><ele>307.8</ele><time>2013-11-20T07:39:34.0000000+00:00</time></trkpt><trkpt lat="31.03537369" lon="34.7490921"><ele>308.0</ele><time>2013-11-20T07:39:39.0000000+00:00</time></trkpt><trkpt lat="31.03515053" lon="34.74918747"><ele>308.0</ele><time>2013-11-20T07:39:44.0000000+00:00</time></trkpt><trkpt lat="31.03492546" lon="34.74927139"><ele>309.0</ele><time>2013-11-20T07:39:49.0000000+00:00</time></trkpt><trkpt lat="31.03469658" lon="34.74933624"><ele>309.3</ele><time>2013-11-20T07:39:54.0000000+00:00</time></trkpt><trkpt lat="31.0344696" lon="34.74937439"><ele>310.4</ele><time>2013-11-20T07:39:59.0000000+00:00</time></trkpt><trkpt lat="31.03425407" lon="34.74940491"><ele>310.5</ele><time>2013-11-20T07:40:04.0000000+00:00</time></trkpt><trkpt lat="31.03402519" lon="34.74943924"><ele>310.7</ele><time>2013-11-20T07:40:09.0000000+00:00</time></trkpt><trkpt lat="31.03379059" lon="34.74947357"><ele>311.0</ele><time>2013-11-20T07:40:14.0000000+00:00</time></trkpt><trkpt lat="31.03354454" lon="34.74950409"><ele>310.8</ele><time>2013-11-20T07:40:19.0000000+00:00</time></trkpt><trkpt lat="31.03330612" lon="34.74954224"><ele>311.2</ele><time>2013-11-20T07:40:24.0000000+00:00</time></trkpt><trkpt lat="31.0330677" lon="34.74956894"><ele>311.0</ele><time>2013-11-20T07:40:29.0000000+00:00</time></trkpt><trkpt lat="31.03282929" lon="34.74960327"><ele>311.2</ele><time>2013-11-20T07:40:34.0000000+00:00</time></trkpt><trkpt lat="31.03259087" lon="34.74964142"><ele>311.4</ele><time>2013-11-20T07:40:39.0000000+00:00</time></trkpt><trkpt lat="31.03235817" lon="34.74967194"><ele>311.4</ele><time>2013-11-20T07:40:44.0000000+00:00</time></trkpt><trkpt lat="31.03211403" lon="34.74969864"><ele>311.4</ele><time>2013-11-20T07:40:49.0000000+00:00</time></trkpt><trkpt lat="31.03186798" lon="34.7497406"><ele>311.6</ele><time>2013-11-20T07:40:54.0000000+00:00</time></trkpt><trkpt lat="31.03162003" lon="34.74977875"><ele>311.7</ele><time>2013-11-20T07:40:59.0000000+00:00</time></trkpt><trkpt lat="31.03137016" lon="34.74981308"><ele>311.8</ele><time>2013-11-20T07:41:04.0000000+00:00</time></trkpt><trkpt lat="31.03111267" lon="34.74985123"><ele>311.8</ele><time>2013-11-20T07:41:09.0000000+00:00</time></trkpt><trkpt lat="31.03085899" lon="34.74988937"><ele>311.9</ele><time>2013-11-20T07:41:14.0000000+00:00</time></trkpt><trkpt lat="31.03060722" lon="34.74993134"><ele>312.4</ele><time>2013-11-20T07:41:19.0000000+00:00</time></trkpt><trkpt lat="31.03036308" lon="34.74996567"><ele>312.9</ele><time>2013-11-20T07:41:24.0000000+00:00</time></trkpt><trkpt lat="31.03009987" lon="34.75000382"><ele>313.3</ele><time>2013-11-20T07:41:29.0000000+00:00</time></trkpt><trkpt lat="31.02984428" lon="34.75003433"><ele>313.0</ele><time>2013-11-20T07:41:34.0000000+00:00</time></trkpt><trkpt lat="31.02959633" lon="34.75007629"><ele>313.1</ele><time>2013-11-20T07:41:39.0000000+00:00</time></trkpt><trkpt lat="31.02934074" lon="34.75011444"><ele>313.1</ele><time>2013-11-20T07:41:44.0000000+00:00</time></trkpt><trkpt lat="31.0290947" lon="34.75013351"><ele>313.0</ele><time>2013-11-20T07:41:49.0000000+00:00</time></trkpt><trkpt lat="31.02884674" lon="34.75017166"><ele>313.0</ele><time>2013-11-20T07:41:54.0000000+00:00</time></trkpt><trkpt lat="31.02859879" lon="34.75020599"><ele>313.2</ele><time>2013-11-20T07:41:59.0000000+00:00</time></trkpt><trkpt lat="31.02834511" lon="34.75024414"><ele>313.3</ele><time>2013-11-20T07:42:04.0000000+00:00</time></trkpt><trkpt lat="31.02809334" lon="34.75028229"><ele>313.1</ele><time>2013-11-20T07:42:09.0000000+00:00</time></trkpt><trkpt lat="31.02784157" lon="34.75031281"><ele>312.9</ele><time>2013-11-20T07:42:14.0000000+00:00</time></trkpt><trkpt lat="31.0275898" lon="34.75035095"><ele>312.6</ele><time>2013-11-20T07:42:19.0000000+00:00</time></trkpt><trkpt lat="31.0273304" lon="34.75039291"><ele>312.2</ele><time>2013-11-20T07:42:24.0000000+00:00</time></trkpt><trkpt lat="31.02705956" lon="34.75044632"><ele>311.6</ele><time>2013-11-20T07:42:29.0000000+00:00</time></trkpt><trkpt lat="31.02679825" lon="34.75052643"><ele>310.8</ele><time>2013-11-20T07:42:34.0000000+00:00</time></trkpt><trkpt lat="31.02653503" lon="34.75064468"><ele>310.0</ele><time>2013-11-20T07:42:39.0000000+00:00</time></trkpt><trkpt lat="31.0262661" lon="34.75080109"><ele>309.3</ele><time>2013-11-20T07:42:44.0000000+00:00</time></trkpt><trkpt lat="31.02600098" lon="34.75098801"><ele>308.4</ele><time>2013-11-20T07:42:49.0000000+00:00</time></trkpt><trkpt lat="31.02573395" lon="34.75119782"><ele>308.6</ele><time>2013-11-20T07:42:54.0000000+00:00</time></trkpt><trkpt lat="31.02547836" lon="34.75139999"><ele>309.0</ele><time>2013-11-20T07:42:59.0000000+00:00</time></trkpt><trkpt lat="31.02523804" lon="34.75156403"><ele>309.2</ele><time>2013-11-20T07:43:04.0000000+00:00</time></trkpt><trkpt lat="31.02500153" lon="34.75173569"><ele>309.8</ele><time>2013-11-20T07:43:09.0000000+00:00</time></trkpt><trkpt lat="31.02477264" lon="34.75191498"><ele>309.9</ele><time>2013-11-20T07:43:14.0000000+00:00</time></trkpt><trkpt lat="31.02454758" lon="34.7521019"><ele>310.6</ele><time>2013-11-20T07:43:19.0000000+00:00</time></trkpt><trkpt lat="31.02433395" lon="34.75229263"><ele>310.4</ele><time>2013-11-20T07:43:24.0000000+00:00</time></trkpt><trkpt lat="31.02411842" lon="34.75247574"><ele>310.3</ele><time>2013-11-20T07:43:29.0000000+00:00</time></trkpt><trkpt lat="31.0239048" lon="34.75266266"><ele>310.2</ele><time>2013-11-20T07:43:34.0000000+00:00</time></trkpt><trkpt lat="31.02369309" lon="34.75284958"><ele>310.7</ele><time>2013-11-20T07:43:39.0000000+00:00</time></trkpt><trkpt lat="31.02348518" lon="34.75303268"><ele>310.6</ele><time>2013-11-20T07:43:44.0000000+00:00</time></trkpt><trkpt lat="31.02327347" lon="34.7532196"><ele>311.4</ele><time>2013-11-20T07:43:49.0000000+00:00</time></trkpt><trkpt lat="31.02305985" lon="34.75337982"><ele>310.9</ele><time>2013-11-20T07:43:54.0000000+00:00</time></trkpt><trkpt lat="31.02285385" lon="34.75355148"><ele>311.1</ele><time>2013-11-20T07:43:59.0000000+00:00</time></trkpt><trkpt lat="31.02264595" lon="34.75372696"><ele>312.1</ele><time>2013-11-20T07:44:04.0000000+00:00</time></trkpt><trkpt lat="31.02244186" lon="34.75390244"><ele>312.7</ele><time>2013-11-20T07:44:09.0000000+00:00</time></trkpt><trkpt lat="31.02223587" lon="34.75407791"><ele>313.3</ele><time>2013-11-20T07:44:14.0000000+00:00</time></trkpt><trkpt lat="31.0220356" lon="34.75426102"><ele>313.6</ele><time>2013-11-20T07:44:19.0000000+00:00</time></trkpt><trkpt lat="31.02182198" lon="34.75443268"><ele>313.8</ele><time>2013-11-20T07:44:24.0000000+00:00</time></trkpt><trkpt lat="31.02160645" lon="34.75460053"><ele>314.2</ele><time>2013-11-20T07:44:29.0000000+00:00</time></trkpt><trkpt lat="31.02138901" lon="34.75476074"><ele>314.0</ele><time>2013-11-20T07:44:34.0000000+00:00</time></trkpt><trkpt lat="31.02116585" lon="34.75492096"><ele>314.2</ele><time>2013-11-20T07:44:39.0000000+00:00</time></trkpt><trkpt lat="31.02093887" lon="34.75507355"><ele>314.3</ele><time>2013-11-20T07:44:44.0000000+00:00</time></trkpt><trkpt lat="31.02070427" lon="34.75521851"><ele>314.1</ele><time>2013-11-20T07:44:49.0000000+00:00</time></trkpt><trkpt lat="31.02046394" lon="34.75534821"><ele>314.1</ele><time>2013-11-20T07:44:54.0000000+00:00</time></trkpt><trkpt lat="31.02022171" lon="34.75546265"><ele>314.2</ele><time>2013-11-20T07:44:59.0000000+00:00</time></trkpt><trkpt lat="31.01998329" lon="34.75557709"><ele>313.9</ele><time>2013-11-20T07:45:04.0000000+00:00</time></trkpt><trkpt lat="31.01973915" lon="34.75569534"><ele>313.7</ele><time>2013-11-20T07:45:09.0000000+00:00</time></trkpt><trkpt lat="31.01949883" lon="34.75580597"><ele>313.5</ele><time>2013-11-20T07:45:14.0000000+00:00</time></trkpt><trkpt lat="31.01926041" lon="34.75592804"><ele>313.3</ele><time>2013-11-20T07:45:19.0000000+00:00</time></trkpt><trkpt lat="31.0190239" lon="34.75604248"><ele>313.6</ele><time>2013-11-20T07:45:24.0000000+00:00</time></trkpt><trkpt lat="31.01878357" lon="34.75616837"><ele>313.4</ele><time>2013-11-20T07:45:29.0000000+00:00</time></trkpt><trkpt lat="31.01854897" lon="34.75629807"><ele>313.6</ele><time>2013-11-20T07:45:34.0000000+00:00</time></trkpt><trkpt lat="31.01832199" lon="34.75643921"><ele>313.8</ele><time>2013-11-20T07:45:39.0000000+00:00</time></trkpt><trkpt lat="31.01810646" lon="34.75659561"><ele>313.1</ele><time>2013-11-20T07:45:44.0000000+00:00</time></trkpt><trkpt lat="31.01789475" lon="34.75677872"><ele>312.6</ele><time>2013-11-20T07:45:49.0000000+00:00</time></trkpt><trkpt lat="31.01769638" lon="34.75698471"><ele>312.6</ele><time>2013-11-20T07:45:54.0000000+00:00</time></trkpt><trkpt lat="31.01750565" lon="34.75721359"><ele>313.2</ele><time>2013-11-20T07:45:59.0000000+00:00</time></trkpt><trkpt lat="31.01732636" lon="34.75746155"><ele>313.7</ele><time>2013-11-20T07:46:04.0000000+00:00</time></trkpt><trkpt lat="31.01716614" lon="34.75771713"><ele>315.2</ele><time>2013-11-20T07:46:09.0000000+00:00</time></trkpt><trkpt lat="31.01703262" lon="34.75797653"><ele>316.0</ele><time>2013-11-20T07:46:14.0000000+00:00</time></trkpt><trkpt lat="31.01690102" lon="34.75823593"><ele>315.0</ele><time>2013-11-20T07:46:19.0000000+00:00</time></trkpt><trkpt lat="31.01680565" lon="34.75852203"><ele>316.6</ele><time>2013-11-20T07:46:24.0000000+00:00</time></trkpt><trkpt lat="31.016716" lon="34.75881577"><ele>318.0</ele><time>2013-11-20T07:46:29.0000000+00:00</time></trkpt><trkpt lat="31.01661873" lon="34.75911713"><ele>317.5</ele><time>2013-11-20T07:46:34.0000000+00:00</time></trkpt><trkpt lat="31.01653481" lon="34.75941467"><ele>317.7</ele><time>2013-11-20T07:46:39.0000000+00:00</time></trkpt><trkpt lat="31.01643181" lon="34.75971222"><ele>317.1</ele><time>2013-11-20T07:46:44.0000000+00:00</time></trkpt><trkpt lat="31.01634407" lon="34.76000214"><ele>316.8</ele><time>2013-11-20T07:46:49.0000000+00:00</time></trkpt><trkpt lat="31.01623726" lon="34.76026917"><ele>315.6</ele><time>2013-11-20T07:46:54.0000000+00:00</time></trkpt><trkpt lat="31.01613617" lon="34.76054764"><ele>316.5</ele><time>2013-11-20T07:46:59.0000000+00:00</time></trkpt><trkpt lat="31.01598358" lon="34.76075363"><ele>318.2</ele><time>2013-11-20T07:47:04.0000000+00:00</time></trkpt><trkpt lat="31.01574516" lon="34.76062012"><ele>318.4</ele><time>2013-11-20T07:47:09.0000000+00:00</time></trkpt><trkpt lat="31.01551247" lon="34.7604332"><ele>318.0</ele><time>2013-11-20T07:47:14.0000000+00:00</time></trkpt><trkpt lat="31.01529884" lon="34.76024628"><ele>320.6</ele><time>2013-11-20T07:47:19.0000000+00:00</time></trkpt><trkpt lat="31.01508331" lon="34.76007843"><ele>321.5</ele><time>2013-11-20T07:47:24.0000000+00:00</time></trkpt><trkpt lat="31.01487351" lon="34.75991821"><ele>322.9</ele><time>2013-11-20T07:47:29.0000000+00:00</time></trkpt><trkpt lat="31.01467133" lon="34.75980377"><ele>321.3</ele><time>2013-11-20T07:47:34.0000000+00:00</time></trkpt><trkpt lat="31.01447487" lon="34.75968933"><ele>320.0</ele><time>2013-11-20T07:47:39.0000000+00:00</time></trkpt><trkpt lat="31.01424027" lon="34.7596283"><ele>319.0</ele><time>2013-11-20T07:47:44.0000000+00:00</time></trkpt><trkpt lat="31.01398659" lon="34.75961304"><ele>318.2</ele><time>2013-11-20T07:47:49.0000000+00:00</time></trkpt><trkpt lat="31.013731" lon="34.75958252"><ele>318.5</ele><time>2013-11-20T07:47:54.0000000+00:00</time></trkpt><trkpt lat="31.01347542" lon="34.75957489"><ele>317.7</ele><time>2013-11-20T07:47:59.0000000+00:00</time></trkpt><trkpt lat="31.01321793" lon="34.75955963"><ele>318.1</ele><time>2013-11-20T07:48:04.0000000+00:00</time></trkpt><trkpt lat="31.01295853" lon="34.75955963"><ele>318.6</ele><time>2013-11-20T07:48:09.0000000+00:00</time></trkpt><trkpt lat="31.01271248" lon="34.75954819"><ele>319.5</ele><time>2013-11-20T07:48:14.0000000+00:00</time></trkpt><trkpt lat="31.01252747" lon="34.7595253"><ele>320.1</ele><time>2013-11-20T07:48:19.0000000+00:00</time></trkpt><trkpt lat="31.01230049" lon="34.75951004"><ele>319.5</ele><time>2013-11-20T07:48:24.0000000+00:00</time></trkpt><trkpt lat="31.01202774" lon="34.75950623"><ele>319.4</ele><time>2013-11-20T07:48:29.0000000+00:00</time></trkpt><trkpt lat="31.0117588" lon="34.75950623"><ele>320.4</ele><time>2013-11-20T07:48:34.0000000+00:00</time></trkpt><trkpt lat="31.01149941" lon="34.7594986"><ele>319.3</ele><time>2013-11-20T07:48:39.0000000+00:00</time></trkpt><trkpt lat="31.01124954" lon="34.7594986"><ele>319.6</ele><time>2013-11-20T07:48:44.0000000+00:00</time></trkpt><trkpt lat="31.01099396" lon="34.7594986"><ele>318.9</ele><time>2013-11-20T07:48:49.0000000+00:00</time></trkpt><trkpt lat="31.0107441" lon="34.75948715"><ele>318.6</ele><time>2013-11-20T07:48:54.0000000+00:00</time></trkpt><trkpt lat="31.01049233" lon="34.75948334"><ele>319.1</ele><time>2013-11-20T07:48:59.0000000+00:00</time></trkpt><trkpt lat="31.010252" lon="34.75945282"><ele>319.5</ele><time>2013-11-20T07:49:04.0000000+00:00</time></trkpt><trkpt lat="31.01000977" lon="34.75939941"><ele>319.6</ele><time>2013-11-20T07:49:09.0000000+00:00</time></trkpt><trkpt lat="31.00976753" lon="34.75934982"><ele>320.5</ele><time>2013-11-20T07:49:14.0000000+00:00</time></trkpt><trkpt lat="31.0095253" lon="34.75929642"><ele>320.9</ele><time>2013-11-20T07:49:19.0000000+00:00</time></trkpt><trkpt lat="31.00928307" lon="34.75924301"><ele>320.8</ele><time>2013-11-20T07:49:24.0000000+00:00</time></trkpt><trkpt lat="31.00903893" lon="34.75918198"><ele>321.0</ele><time>2013-11-20T07:49:29.0000000+00:00</time></trkpt><trkpt lat="31.00880623" lon="34.75912476"><ele>321.0</ele><time>2013-11-20T07:49:34.0000000+00:00</time></trkpt><trkpt lat="31.00858688" lon="34.75906372"><ele>321.0</ele><time>2013-11-20T07:49:39.0000000+00:00</time></trkpt><trkpt lat="31.00836372" lon="34.75901032"><ele>322.3</ele><time>2013-11-20T07:49:44.0000000+00:00</time></trkpt><trkpt lat="31.00814056" lon="34.75895691"><ele>323.0</ele><time>2013-11-20T07:49:49.0000000+00:00</time></trkpt><trkpt lat="31.00791931" lon="34.7589035"><ele>323.5</ele><time>2013-11-20T07:49:54.0000000+00:00</time></trkpt><trkpt lat="31.00769043" lon="34.7588501"><ele>324.3</ele><time>2013-11-20T07:49:59.0000000+00:00</time></trkpt><trkpt lat="31.00747299" lon="34.75879669"><ele>324.6</ele><time>2013-11-20T07:50:04.0000000+00:00</time></trkpt><trkpt lat="31.0072403" lon="34.75874329"><ele>324.6</ele><time>2013-11-20T07:50:09.0000000+00:00</time></trkpt><trkpt lat="31.00700188" lon="34.7586937"><ele>323.8</ele><time>2013-11-20T07:50:14.0000000+00:00</time></trkpt><trkpt lat="31.00677109" lon="34.75865173"><ele>323.8</ele><time>2013-11-20T07:50:19.0000000+00:00</time></trkpt><trkpt lat="31.00654221" lon="34.75859833"><ele>324.5</ele><time>2013-11-20T07:50:24.0000000+00:00</time></trkpt><trkpt lat="31.00633049" lon="34.75853729"><ele>325.9</ele><time>2013-11-20T07:50:29.0000000+00:00</time></trkpt><trkpt lat="31.0061245" lon="34.75849915"><ele>325.6</ele><time>2013-11-20T07:50:34.0000000+00:00</time></trkpt><trkpt lat="31.00590706" lon="34.75845337"><ele>327.5</ele><time>2013-11-20T07:50:39.0000000+00:00</time></trkpt><trkpt lat="31.0056839" lon="34.75840378"><ele>327.4</ele><time>2013-11-20T07:50:44.0000000+00:00</time></trkpt><trkpt lat="31.0054493" lon="34.75835037"><ele>327.7</ele><time>2013-11-20T07:50:49.0000000+00:00</time></trkpt><trkpt lat="31.00522423" lon="34.75830078"><ele>327.4</ele><time>2013-11-20T07:50:54.0000000+00:00</time></trkpt><trkpt lat="31.00500107" lon="34.75824356"><ele>326.6</ele><time>2013-11-20T07:50:59.0000000+00:00</time></trkpt><trkpt lat="31.00475884" lon="34.75819016"><ele>326.1</ele><time>2013-11-20T07:51:04.0000000+00:00</time></trkpt><trkpt lat="31.00452614" lon="34.75812912"><ele>325.9</ele><time>2013-11-20T07:51:09.0000000+00:00</time></trkpt><trkpt lat="31.00429344" lon="34.75806046"><ele>326.1</ele><time>2013-11-20T07:51:14.0000000+00:00</time></trkpt><trkpt lat="31.00407219" lon="34.75800324"><ele>326.3</ele><time>2013-11-20T07:51:19.0000000+00:00</time></trkpt><trkpt lat="31.00386047" lon="34.75795364"><ele>327.0</ele><time>2013-11-20T07:51:24.0000000+00:00</time></trkpt><trkpt lat="31.00366592" lon="34.75788879"><ele>327.1</ele><time>2013-11-20T07:51:29.0000000+00:00</time></trkpt><trkpt lat="31.00345612" lon="34.75782394"><ele>326.8</ele><time>2013-11-20T07:51:34.0000000+00:00</time></trkpt><trkpt lat="31.00324822" lon="34.75776291"><ele>326.9</ele><time>2013-11-20T07:51:39.0000000+00:00</time></trkpt><trkpt lat="31.00302887" lon="34.75771713"><ele>327.8</ele><time>2013-11-20T07:51:44.0000000+00:00</time></trkpt><trkpt lat="31.00280953" lon="34.75773621"><ele>329.1</ele><time>2013-11-20T07:51:49.0000000+00:00</time></trkpt><trkpt lat="31.00260162" lon="34.75784302"><ele>330.0</ele><time>2013-11-20T07:51:54.0000000+00:00</time></trkpt><trkpt lat="31.00240707" lon="34.75801849"><ele>329.8</ele><time>2013-11-20T07:51:59.0000000+00:00</time></trkpt><trkpt lat="31.00220108" lon="34.75819778"><ele>329.9</ele><time>2013-11-20T07:52:04.0000000+00:00</time></trkpt><trkpt lat="31.00202179" lon="34.75835419"><ele>330.1</ele><time>2013-11-20T07:52:09.0000000+00:00</time></trkpt><trkpt lat="31.00183487" lon="34.7585144"><ele>330.2</ele><time>2013-11-20T07:52:14.0000000+00:00</time></trkpt><trkpt lat="31.00164032" lon="34.7586441"><ele>331.0</ele><time>2013-11-20T07:52:19.0000000+00:00</time></trkpt><trkpt lat="31.00144005" lon="34.75874329"><ele>331.5</ele><time>2013-11-20T07:52:24.0000000+00:00</time></trkpt><trkpt lat="31.00123978" lon="34.75883102"><ele>331.8</ele><time>2013-11-20T07:52:29.0000000+00:00</time></trkpt><trkpt lat="31.00104332" lon="34.75891113"><ele>332.3</ele><time>2013-11-20T07:52:34.0000000+00:00</time></trkpt><trkpt lat="31.00085449" lon="34.75899506"><ele>332.9</ele><time>2013-11-20T07:52:39.0000000+00:00</time></trkpt><trkpt lat="31.00066376" lon="34.75907135"><ele>333.6</ele><time>2013-11-20T07:52:44.0000000+00:00</time></trkpt><trkpt lat="31.00048637" lon="34.7591362"><ele>334.8</ele><time>2013-11-20T07:52:49.0000000+00:00</time></trkpt><trkpt lat="31.00029945" lon="34.75922394"><ele>335.6</ele><time>2013-11-20T07:52:54.0000000+00:00</time></trkpt><trkpt lat="31.00011063" lon="34.75930405"><ele>336.1</ele><time>2013-11-20T07:52:59.0000000+00:00</time></trkpt><trkpt lat="30.99991608" lon="34.75938797"><ele>336.1</ele><time>2013-11-20T07:53:04.0000000+00:00</time></trkpt><trkpt lat="30.9997139" lon="34.75946426"><ele>336.2</ele><time>2013-11-20T07:53:09.0000000+00:00</time></trkpt><trkpt lat="30.99951553" lon="34.75955582"><ele>336.8</ele><time>2013-11-20T07:53:14.0000000+00:00</time></trkpt><trkpt lat="30.99930763" lon="34.75963974"><ele>337.5</ele><time>2013-11-20T07:53:19.0000000+00:00</time></trkpt><trkpt lat="30.99910355" lon="34.75973129"><ele>337.7</ele><time>2013-11-20T07:53:24.0000000+00:00</time></trkpt><trkpt lat="30.99889565" lon="34.75981903"><ele>338.5</ele><time>2013-11-20T07:53:29.0000000+00:00</time></trkpt><trkpt lat="30.99868965" lon="34.75990677"><ele>338.9</ele><time>2013-11-20T07:53:34.0000000+00:00</time></trkpt><trkpt lat="30.9984932" lon="34.75999832"><ele>339.1</ele><time>2013-11-20T07:53:39.0000000+00:00</time></trkpt><trkpt lat="30.99828529" lon="34.76008606"><ele>339.6</ele><time>2013-11-20T07:53:44.0000000+00:00</time></trkpt><trkpt lat="30.9980793" lon="34.76017761"><ele>339.9</ele><time>2013-11-20T07:53:49.0000000+00:00</time></trkpt><trkpt lat="30.99789238" lon="34.76026154"><ele>340.0</ele><time>2013-11-20T07:53:54.0000000+00:00</time></trkpt><trkpt lat="30.99770355" lon="34.76034927"><ele>340.6</ele><time>2013-11-20T07:53:59.0000000+00:00</time></trkpt><trkpt lat="30.9975071" lon="34.7604332"><ele>340.7</ele><time>2013-11-20T07:54:04.0000000+00:00</time></trkpt><trkpt lat="30.99731255" lon="34.76052475"><ele>341.1</ele><time>2013-11-20T07:54:09.0000000+00:00</time></trkpt><trkpt lat="30.99710274" lon="34.76060867"><ele>341.6</ele><time>2013-11-20T07:54:14.0000000+00:00</time></trkpt><trkpt lat="30.99690056" lon="34.7606926"><ele>342.7</ele><time>2013-11-20T07:54:19.0000000+00:00</time></trkpt><trkpt lat="30.99669647" lon="34.76078033"><ele>343.6</ele><time>2013-11-20T07:54:24.0000000+00:00</time></trkpt><trkpt lat="30.99649429" lon="34.76086426"><ele>344.1</ele><time>2013-11-20T07:54:29.0000000+00:00</time></trkpt><trkpt lat="30.99629021" lon="34.760952"><ele>344.3</ele><time>2013-11-20T07:54:34.0000000+00:00</time></trkpt><trkpt lat="30.99610329" lon="34.7610321"><ele>344.6</ele><time>2013-11-20T07:54:39.0000000+00:00</time></trkpt><trkpt lat="30.99590874" lon="34.76111984"><ele>344.5</ele><time>2013-11-20T07:54:44.0000000+00:00</time></trkpt><trkpt lat="30.99569511" lon="34.7612114"><ele>345.0</ele><time>2013-11-20T07:54:49.0000000+00:00</time></trkpt><trkpt lat="30.99548912" lon="34.76129913"><ele>345.1</ele><time>2013-11-20T07:54:54.0000000+00:00</time></trkpt><trkpt lat="30.99527931" lon="34.7613945"><ele>345.2</ele><time>2013-11-20T07:54:59.0000000+00:00</time></trkpt><trkpt lat="30.99506569" lon="34.76148224"><ele>345.3</ele><time>2013-11-20T07:55:04.0000000+00:00</time></trkpt><trkpt lat="30.99485016" lon="34.76157379"><ele>345.5</ele><time>2013-11-20T07:55:09.0000000+00:00</time></trkpt><trkpt lat="30.99463081" lon="34.76167297"><ele>345.6</ele><time>2013-11-20T07:55:14.0000000+00:00</time></trkpt><trkpt lat="30.99440956" lon="34.76177216"><ele>345.6</ele><time>2013-11-20T07:55:19.0000000+00:00</time></trkpt><trkpt lat="30.99420548" lon="34.76186371"><ele>346.3</ele><time>2013-11-20T07:55:24.0000000+00:00</time></trkpt><trkpt lat="30.99398994" lon="34.76195908"><ele>346.3</ele><time>2013-11-20T07:55:29.0000000+00:00</time></trkpt><trkpt lat="30.99384308" lon="34.76201248"><ele>346.1</ele><time>2013-11-20T07:55:34.0000000+00:00</time></trkpt><trkpt lat="30.9937954" lon="34.7620163"><ele>346.5</ele><time>2013-11-20T07:55:39.0000000+00:00</time></trkpt><trkpt lat="30.9937973" lon="34.7620163"><ele>346.3</ele><time>2013-11-20T07:55:44.0000000+00:00</time></trkpt><trkpt lat="30.9937973" lon="34.7620163"><ele>346.3</ele><time>2013-11-20T07:55:49.0000000+00:00</time></trkpt><trkpt lat="30.99380493" lon="34.76200867"><ele>346.4</ele><time>2013-11-20T07:55:54.0000000+00:00</time></trkpt><trkpt lat="30.99380112" lon="34.76200867"><ele>346.3</ele><time>2013-11-20T07:55:59.0000000+00:00</time></trkpt><trkpt lat="30.99380684" lon="34.76201248"><ele>346.4</ele><time>2013-11-20T07:56:04.0000000+00:00</time></trkpt><trkpt lat="30.99380112" lon="34.76200867"><ele>346.9</ele><time>2013-11-20T07:56:09.0000000+00:00</time></trkpt><trkpt lat="30.99380302" lon="34.76200485"><ele>347.1</ele><time>2013-11-20T07:56:14.0000000+00:00</time></trkpt><trkpt lat="30.99380493" lon="34.76199722"><ele>347.3</ele><time>2013-11-20T07:56:19.0000000+00:00</time></trkpt><trkpt lat="30.99379921" lon="34.76199722"><ele>347.8</ele><time>2013-11-20T07:56:24.0000000+00:00</time></trkpt><trkpt lat="30.9937954" lon="34.76200867"><ele>348.1</ele><time>2013-11-20T07:56:29.0000000+00:00</time></trkpt><trkpt lat="30.99374008" lon="34.76203537"><ele>348.0</ele><time>2013-11-20T07:56:34.0000000+00:00</time></trkpt><trkpt lat="30.99361992" lon="34.76210403"><ele>348.5</ele><time>2013-11-20T07:56:39.0000000+00:00</time></trkpt><trkpt lat="30.99345779" lon="34.7621727"><ele>349.3</ele><time>2013-11-20T07:56:44.0000000+00:00</time></trkpt><trkpt lat="30.99327278" lon="34.76225281"><ele>350.2</ele><time>2013-11-20T07:56:49.0000000+00:00</time></trkpt><trkpt lat="30.99305534" lon="34.76233673"><ele>351.4</ele><time>2013-11-20T07:56:54.0000000+00:00</time></trkpt><trkpt lat="30.99284172" lon="34.76242828"><ele>351.8</ele><time>2013-11-20T07:56:59.0000000+00:00</time></trkpt><trkpt lat="30.99262238" lon="34.76252747"><ele>351.8</ele><time>2013-11-20T07:57:04.0000000+00:00</time></trkpt><trkpt lat="30.99240494" lon="34.7626152"><ele>353.0</ele><time>2013-11-20T07:57:09.0000000+00:00</time></trkpt><trkpt lat="30.99219513" lon="34.76268768"><ele>353.5</ele><time>2013-11-20T07:57:14.0000000+00:00</time></trkpt><trkpt lat="30.99198914" lon="34.76270294"><ele>353.7</ele><time>2013-11-20T07:57:19.0000000+00:00</time></trkpt><trkpt lat="30.99177742" lon="34.7626152"><ele>354.0</ele><time>2013-11-20T07:57:24.0000000+00:00</time></trkpt><trkpt lat="30.99155808" lon="34.7624855"><ele>354.0</ele><time>2013-11-20T07:57:29.0000000+00:00</time></trkpt><trkpt lat="30.9913559" lon="34.76233292"><ele>354.7</ele><time>2013-11-20T07:57:34.0000000+00:00</time></trkpt><trkpt lat="30.99114227" lon="34.76218414"><ele>355.2</ele><time>2013-11-20T07:57:39.0000000+00:00</time></trkpt><trkpt lat="30.99093819" lon="34.76203919"><ele>358.2</ele><time>2013-11-20T07:57:44.0000000+00:00</time></trkpt><trkpt lat="30.99074554" lon="34.76191711"><ele>358.2</ele><time>2013-11-20T07:57:49.0000000+00:00</time></trkpt><trkpt lat="30.99059296" lon="34.76192093"><ele>359.8</ele><time>2013-11-20T07:57:54.0000000+00:00</time></trkpt><trkpt lat="30.99048424" lon="34.76210022"><ele>354.8</ele><time>2013-11-20T07:57:59.0000000+00:00</time></trkpt><trkpt lat="30.99043655" lon="34.76228333"><ele>353.1</ele><time>2013-11-20T07:58:04.0000000+00:00</time></trkpt><trkpt lat="30.99045181" lon="34.7623558"><ele>353.4</ele><time>2013-11-20T07:58:09.0000000+00:00</time></trkpt><trkpt lat="30.99050331" lon="34.76240921"><ele>354.8</ele><time>2013-11-20T07:58:14.0000000+00:00</time></trkpt><trkpt lat="30.99055862" lon="34.76253128"><ele>354.0</ele><time>2013-11-20T07:58:19.0000000+00:00</time></trkpt><trkpt lat="30.99069214" lon="34.76267242"><ele>353.2</ele><time>2013-11-20T07:58:24.0000000+00:00</time></trkpt><trkpt lat="30.9907856" lon="34.76289749"><ele>351.3</ele><time>2013-11-20T07:58:29.0000000+00:00</time></trkpt><trkpt lat="30.99068642" lon="34.76314545"><ele>350.8</ele><time>2013-11-20T07:58:34.0000000+00:00</time></trkpt><trkpt lat="30.99057198" lon="34.76335907"><ele>350.1</ele><time>2013-11-20T07:58:39.0000000+00:00</time></trkpt><trkpt lat="30.99046135" lon="34.76356125"><ele>350.3</ele><time>2013-11-20T07:58:44.0000000+00:00</time></trkpt><trkpt lat="30.99033928" lon="34.76374435"><ele>352.0</ele><time>2013-11-20T07:58:49.0000000+00:00</time></trkpt><trkpt lat="30.99019432" lon="34.76391983"><ele>353.2</ele><time>2013-11-20T07:58:54.0000000+00:00</time></trkpt><trkpt lat="30.99002647" lon="34.76407623"><ele>355.0</ele><time>2013-11-20T07:58:59.0000000+00:00</time></trkpt><trkpt lat="30.98984909" lon="34.76421356"><ele>356.9</ele><time>2013-11-20T07:59:04.0000000+00:00</time></trkpt><trkpt lat="30.98967552" lon="34.76433945"><ele>358.0</ele><time>2013-11-20T07:59:09.0000000+00:00</time></trkpt><trkpt lat="30.98950386" lon="34.76446915"><ele>359.7</ele><time>2013-11-20T07:59:14.0000000+00:00</time></trkpt><trkpt lat="30.98933411" lon="34.76459503"><ele>360.2</ele><time>2013-11-20T07:59:19.0000000+00:00</time></trkpt><trkpt lat="30.98916626" lon="34.76473999"><ele>358.8</ele><time>2013-11-20T07:59:24.0000000+00:00</time></trkpt><trkpt lat="30.98898125" lon="34.76488113"><ele>357.7</ele><time>2013-11-20T07:59:29.0000000+00:00</time></trkpt><trkpt lat="30.98880959" lon="34.76502228"><ele>358.4</ele><time>2013-11-20T07:59:34.0000000+00:00</time></trkpt><trkpt lat="30.98864555" lon="34.76514435"><ele>358.9</ele><time>2013-11-20T07:59:39.0000000+00:00</time></trkpt><trkpt lat="30.98847008" lon="34.76527023"><ele>360.1</ele><time>2013-11-20T07:59:44.0000000+00:00</time></trkpt><trkpt lat="30.98830986" lon="34.76539612"><ele>360.3</ele><time>2013-11-20T07:59:49.0000000+00:00</time></trkpt><trkpt lat="30.98814774" lon="34.76552963"><ele>360.4</ele><time>2013-11-20T07:59:54.0000000+00:00</time></trkpt><trkpt lat="30.98797989" lon="34.76567841"><ele>361.5</ele><time>2013-11-20T07:59:59.0000000+00:00</time></trkpt><trkpt lat="30.98781395" lon="34.76583481"><ele>362.6</ele><time>2013-11-20T08:00:04.0000000+00:00</time></trkpt><trkpt lat="30.98766899" lon="34.76599884"><ele>363.7</ele><time>2013-11-20T08:00:09.0000000+00:00</time></trkpt><trkpt lat="30.98755455" lon="34.76617813"><ele>364.2</ele><time>2013-11-20T08:00:14.0000000+00:00</time></trkpt><trkpt lat="30.98741341" lon="34.76636887"><ele>363.9</ele><time>2013-11-20T08:00:19.0000000+00:00</time></trkpt><trkpt lat="30.98727226" lon="34.7665596"><ele>363.5</ele><time>2013-11-20T08:00:24.0000000+00:00</time></trkpt><trkpt lat="30.98714066" lon="34.76675415"><ele>363.1</ele><time>2013-11-20T08:00:29.0000000+00:00</time></trkpt><trkpt lat="30.98697662" lon="34.76693726"><ele>364.8</ele><time>2013-11-20T08:00:34.0000000+00:00</time></trkpt><trkpt lat="30.98683357" lon="34.7671051"><ele>363.5</ele><time>2013-11-20T08:00:39.0000000+00:00</time></trkpt><trkpt lat="30.98670578" lon="34.76728439"><ele>365.8</ele><time>2013-11-20T08:00:44.0000000+00:00</time></trkpt><trkpt lat="30.98657227" lon="34.7674675"><ele>365.5</ele><time>2013-11-20T08:00:49.0000000+00:00</time></trkpt><trkpt lat="30.98644638" lon="34.76764679"><ele>366.2</ele><time>2013-11-20T08:00:54.0000000+00:00</time></trkpt><trkpt lat="30.98629952" lon="34.76782608"><ele>367.8</ele><time>2013-11-20T08:00:59.0000000+00:00</time></trkpt><trkpt lat="30.98616982" lon="34.76802063"><ele>366.9</ele><time>2013-11-20T08:01:04.0000000+00:00</time></trkpt><trkpt lat="30.98602486" lon="34.76820755"><ele>366.7</ele><time>2013-11-20T08:01:09.0000000+00:00</time></trkpt><trkpt lat="30.98588371" lon="34.7684021"><ele>366.6</ele><time>2013-11-20T08:01:14.0000000+00:00</time></trkpt><trkpt lat="30.98573494" lon="34.76858902"><ele>367.0</ele><time>2013-11-20T08:01:19.0000000+00:00</time></trkpt><trkpt lat="30.98558617" lon="34.76878357"><ele>368.6</ele><time>2013-11-20T08:01:24.0000000+00:00</time></trkpt><trkpt lat="30.98543167" lon="34.76896668"><ele>369.6</ele><time>2013-11-20T08:01:29.0000000+00:00</time></trkpt><trkpt lat="30.98529244" lon="34.76914978"><ele>368.8</ele><time>2013-11-20T08:01:34.0000000+00:00</time></trkpt><trkpt lat="30.98515892" lon="34.76932144"><ele>368.8</ele><time>2013-11-20T08:01:39.0000000+00:00</time></trkpt><trkpt lat="30.98502922" lon="34.76948929"><ele>367.0</ele><time>2013-11-20T08:01:44.0000000+00:00</time></trkpt><trkpt lat="30.98488426" lon="34.76964188"><ele>367.6</ele><time>2013-11-20T08:01:49.0000000+00:00</time></trkpt><trkpt lat="30.9847393" lon="34.76979446"><ele>369.3</ele><time>2013-11-20T08:01:54.0000000+00:00</time></trkpt><trkpt lat="30.98458862" lon="34.76993942"><ele>370.7</ele><time>2013-11-20T08:01:59.0000000+00:00</time></trkpt><trkpt lat="30.98442078" lon="34.77008057"><ele>371.5</ele><time>2013-11-20T08:02:04.0000000+00:00</time></trkpt><trkpt lat="30.98427582" lon="34.77022171"><ele>371.6</ele><time>2013-11-20T08:02:09.0000000+00:00</time></trkpt><trkpt lat="30.98411751" lon="34.77035141"><ele>373.5</ele><time>2013-11-20T08:02:14.0000000+00:00</time></trkpt><trkpt lat="30.98398018" lon="34.7704773"><ele>374.2</ele><time>2013-11-20T08:02:19.0000000+00:00</time></trkpt><trkpt lat="30.98382187" lon="34.770607"><ele>376.1</ele><time>2013-11-20T08:02:24.0000000+00:00</time></trkpt><trkpt lat="30.98364258" lon="34.77072144"><ele>377.3</ele><time>2013-11-20T08:02:29.0000000+00:00</time></trkpt><trkpt lat="30.98346138" lon="34.77083588"><ele>378.0</ele><time>2013-11-20T08:02:34.0000000+00:00</time></trkpt><trkpt lat="30.98328018" lon="34.77095032"><ele>380.0</ele><time>2013-11-20T08:02:39.0000000+00:00</time></trkpt><trkpt lat="30.98308373" lon="34.77107239"><ele>380.0</ele><time>2013-11-20T08:02:44.0000000+00:00</time></trkpt><trkpt lat="30.98288918" lon="34.77118683"><ele>380.7</ele><time>2013-11-20T08:02:49.0000000+00:00</time></trkpt><trkpt lat="30.98268509" lon="34.7713089"><ele>382.1</ele><time>2013-11-20T08:02:54.0000000+00:00</time></trkpt><trkpt lat="30.98248291" lon="34.77142716"><ele>383.2</ele><time>2013-11-20T08:02:59.0000000+00:00</time></trkpt><trkpt lat="30.98227501" lon="34.7715416"><ele>383.7</ele><time>2013-11-20T08:03:04.0000000+00:00</time></trkpt><trkpt lat="30.98207092" lon="34.77164459"><ele>385.3</ele><time>2013-11-20T08:03:09.0000000+00:00</time></trkpt><trkpt lat="30.98185158" lon="34.77175903"><ele>384.4</ele><time>2013-11-20T08:03:14.0000000+00:00</time></trkpt><trkpt lat="30.98161697" lon="34.77185822"><ele>383.1</ele><time>2013-11-20T08:03:19.0000000+00:00</time></trkpt><trkpt lat="30.98140335" lon="34.77193832"><ele>385.9</ele><time>2013-11-20T08:03:24.0000000+00:00</time></trkpt><trkpt lat="30.98119545" lon="34.77201462"><ele>390.8</ele><time>2013-11-20T08:03:29.0000000+00:00</time></trkpt><trkpt lat="30.98096657" lon="34.77208328"><ele>391.4</ele><time>2013-11-20T08:03:34.0000000+00:00</time></trkpt><trkpt lat="30.98073959" lon="34.77214813"><ele>393.2</ele><time>2013-11-20T08:03:39.0000000+00:00</time></trkpt><trkpt lat="30.98052788" lon="34.77221298"><ele>393.5</ele><time>2013-11-20T08:03:44.0000000+00:00</time></trkpt><trkpt lat="30.98029709" lon="34.7722702"><ele>391.8</ele><time>2013-11-20T08:03:49.0000000+00:00</time></trkpt><trkpt lat="30.98007202" lon="34.77232361"><ele>392.2</ele><time>2013-11-20T08:03:54.0000000+00:00</time></trkpt><trkpt lat="30.97985268" lon="34.77236176"><ele>391.1</ele><time>2013-11-20T08:03:59.0000000+00:00</time></trkpt><trkpt lat="30.97962189" lon="34.77239609"><ele>390.3</ele><time>2013-11-20T08:04:04.0000000+00:00</time></trkpt><trkpt lat="30.97940064" lon="34.77242661"><ele>390.7</ele><time>2013-11-20T08:04:09.0000000+00:00</time></trkpt><trkpt lat="30.97917366" lon="34.77245712"><ele>388.8</ele><time>2013-11-20T08:04:14.0000000+00:00</time></trkpt><trkpt lat="30.97896385" lon="34.7724762"><ele>387.5</ele><time>2013-11-20T08:04:19.0000000+00:00</time></trkpt><trkpt lat="30.97875214" lon="34.77246857"><ele>389.0</ele><time>2013-11-20T08:04:24.0000000+00:00</time></trkpt><trkpt lat="30.97854424" lon="34.77246857"><ele>391.2</ele><time>2013-11-20T08:04:29.0000000+00:00</time></trkpt><trkpt lat="30.97833443" lon="34.77246094"><ele>393.3</ele><time>2013-11-20T08:04:34.0000000+00:00</time></trkpt><trkpt lat="30.97813606" lon="34.77245331"><ele>394.6</ele><time>2013-11-20T08:04:39.0000000+00:00</time></trkpt><trkpt lat="30.97795296" lon="34.77244186"><ele>395.8</ele><time>2013-11-20T08:04:44.0000000+00:00</time></trkpt><trkpt lat="30.97775459" lon="34.77243424"><ele>397.3</ele><time>2013-11-20T08:04:49.0000000+00:00</time></trkpt><trkpt lat="30.97755241" lon="34.77243042"><ele>395.8</ele><time>2013-11-20T08:04:54.0000000+00:00</time></trkpt><trkpt lat="30.97735596" lon="34.77243805"><ele>393.9</ele><time>2013-11-20T08:04:59.0000000+00:00</time></trkpt><trkpt lat="30.97717094" lon="34.77243805"><ele>394.0</ele><time>2013-11-20T08:05:04.0000000+00:00</time></trkpt><trkpt lat="30.97698021" lon="34.77242661"><ele>393.3</ele><time>2013-11-20T08:05:09.0000000+00:00</time></trkpt><trkpt lat="30.97679138" lon="34.77242279"><ele>395.3</ele><time>2013-11-20T08:05:14.0000000+00:00</time></trkpt><trkpt lat="30.97659683" lon="34.77241516"><ele>398.3</ele><time>2013-11-20T08:05:19.0000000+00:00</time></trkpt><trkpt lat="30.97641563" lon="34.77240753"><ele>400.1</ele><time>2013-11-20T08:05:24.0000000+00:00</time></trkpt><trkpt lat="30.97623253" lon="34.7723999"><ele>401.4</ele><time>2013-11-20T08:05:29.0000000+00:00</time></trkpt><trkpt lat="30.97604561" lon="34.77241516"><ele>401.7</ele><time>2013-11-20T08:05:34.0000000+00:00</time></trkpt><trkpt lat="30.97586632" lon="34.77240753"><ele>402.6</ele><time>2013-11-20T08:05:39.0000000+00:00</time></trkpt><trkpt lat="30.97568512" lon="34.7723999"><ele>403.1</ele><time>2013-11-20T08:05:44.0000000+00:00</time></trkpt><trkpt lat="30.97550774" lon="34.77239227"><ele>404.3</ele><time>2013-11-20T08:05:49.0000000+00:00</time></trkpt><trkpt lat="30.97533226" lon="34.77239227"><ele>402.7</ele><time>2013-11-20T08:05:54.0000000+00:00</time></trkpt><trkpt lat="30.97515869" lon="34.77239609"><ele>401.5</ele><time>2013-11-20T08:05:59.0000000+00:00</time></trkpt><trkpt lat="30.97497559" lon="34.77239227"><ele>401.4</ele><time>2013-11-20T08:06:04.0000000+00:00</time></trkpt><trkpt lat="30.9747982" lon="34.7723999"><ele>400.6</ele><time>2013-11-20T08:06:09.0000000+00:00</time></trkpt><trkpt lat="30.97460175" lon="34.7723732"><ele>399.4</ele><time>2013-11-20T08:06:14.0000000+00:00</time></trkpt><trkpt lat="30.97440147" lon="34.77236939"><ele>400.6</ele><time>2013-11-20T08:06:19.0000000+00:00</time></trkpt><trkpt lat="30.97420502" lon="34.77236557"><ele>401.3</ele><time>2013-11-20T08:06:24.0000000+00:00</time></trkpt><trkpt lat="30.97402382" lon="34.77236557"><ele>403.5</ele><time>2013-11-20T08:06:29.0000000+00:00</time></trkpt><trkpt lat="30.97383308" lon="34.77235794"><ele>405.5</ele><time>2013-11-20T08:06:34.0000000+00:00</time></trkpt><trkpt lat="30.97365189" lon="34.77235031"><ele>406.1</ele><time>2013-11-20T08:06:39.0000000+00:00</time></trkpt><trkpt lat="30.97346878" lon="34.77234268"><ele>408.2</ele><time>2013-11-20T08:06:44.0000000+00:00</time></trkpt><trkpt lat="30.97327614" lon="34.77235413"><ele>410.1</ele><time>2013-11-20T08:06:49.0000000+00:00</time></trkpt><trkpt lat="30.97308159" lon="34.77236939"><ele>412.9</ele><time>2013-11-20T08:06:54.0000000+00:00</time></trkpt><trkpt lat="30.97286606" lon="34.77240753"><ele>409.9</ele><time>2013-11-20T08:06:59.0000000+00:00</time></trkpt><trkpt lat="30.97266007" lon="34.77244568"><ele>409.2</ele><time>2013-11-20T08:07:04.0000000+00:00</time></trkpt><trkpt lat="30.97244835" lon="34.77248001"><ele>407.5</ele><time>2013-11-20T08:07:09.0000000+00:00</time></trkpt><trkpt lat="30.97221947" lon="34.77254105"><ele>408.9</ele><time>2013-11-20T08:07:14.0000000+00:00</time></trkpt><trkpt lat="30.9720211" lon="34.7726059"><ele>411.1</ele><time>2013-11-20T08:07:19.0000000+00:00</time></trkpt><trkpt lat="30.97182465" lon="34.77269745"><ele>413.4</ele><time>2013-11-20T08:07:24.0000000+00:00</time></trkpt><trkpt lat="30.97161865" lon="34.77280045"><ele>410.5</ele><time>2013-11-20T08:07:29.0000000+00:00</time></trkpt><trkpt lat="30.97141266" lon="34.7729187"><ele>410.0</ele><time>2013-11-20T08:07:34.0000000+00:00</time></trkpt><trkpt lat="30.9712162" lon="34.77306747"><ele>411.1</ele><time>2013-11-20T08:07:39.0000000+00:00</time></trkpt><trkpt lat="30.97101975" lon="34.77320862"><ele>409.9</ele><time>2013-11-20T08:07:44.0000000+00:00</time></trkpt><trkpt lat="30.97083473" lon="34.77336121"><ele>406.9</ele><time>2013-11-20T08:07:49.0000000+00:00</time></trkpt><trkpt lat="30.97065544" lon="34.77351379"><ele>407.9</ele><time>2013-11-20T08:07:54.0000000+00:00</time></trkpt><trkpt lat="30.97047043" lon="34.77368927"><ele>407.4</ele><time>2013-11-20T08:07:59.0000000+00:00</time></trkpt><trkpt lat="30.97027969" lon="34.77385712"><ele>408.4</ele><time>2013-11-20T08:08:04.0000000+00:00</time></trkpt><trkpt lat="30.9700985" lon="34.77402115"><ele>408.7</ele><time>2013-11-20T08:08:09.0000000+00:00</time></trkpt><trkpt lat="30.96991921" lon="34.77418137"><ele>409.4</ele><time>2013-11-20T08:08:14.0000000+00:00</time></trkpt><trkpt lat="30.96974945" lon="34.77434158"><ele>409.7</ele><time>2013-11-20T08:08:19.0000000+00:00</time></trkpt><trkpt lat="30.9695797" lon="34.77449799"><ele>410.2</ele><time>2013-11-20T08:08:24.0000000+00:00</time></trkpt><trkpt lat="30.96941567" lon="34.77464294"><ele>412.0</ele><time>2013-11-20T08:08:29.0000000+00:00</time></trkpt><trkpt lat="30.96923447" lon="34.77478027"><ele>413.9</ele><time>2013-11-20T08:08:34.0000000+00:00</time></trkpt><trkpt lat="30.9690609" lon="34.77492142"><ele>416.9</ele><time>2013-11-20T08:08:39.0000000+00:00</time></trkpt><trkpt lat="30.96890068" lon="34.77505493"><ele>420.1</ele><time>2013-11-20T08:08:44.0000000+00:00</time></trkpt><trkpt lat="30.96871185" lon="34.77518845"><ele>419.7</ele><time>2013-11-20T08:08:49.0000000+00:00</time></trkpt><trkpt lat="30.96854591" lon="34.77535248"><ele>419.8</ele><time>2013-11-20T08:08:54.0000000+00:00</time></trkpt><trkpt lat="30.96837616" lon="34.77550888"><ele>417.5</ele><time>2013-11-20T08:08:59.0000000+00:00</time></trkpt><trkpt lat="30.96820831" lon="34.77564621"><ele>416.2</ele><time>2013-11-20T08:09:04.0000000+00:00</time></trkpt><trkpt lat="30.96806145" lon="34.77577972"><ele>416.2</ele><time>2013-11-20T08:09:09.0000000+00:00</time></trkpt><trkpt lat="30.9679203" lon="34.77590179"><ele>417.0</ele><time>2013-11-20T08:09:14.0000000+00:00</time></trkpt><trkpt lat="30.96776772" lon="34.77603149"><ele>418.2</ele><time>2013-11-20T08:09:19.0000000+00:00</time></trkpt><trkpt lat="30.96761322" lon="34.77615738"><ele>416.7</ele><time>2013-11-20T08:09:24.0000000+00:00</time></trkpt><trkpt lat="30.96746635" lon="34.77626419"><ele>417.1</ele><time>2013-11-20T08:09:29.0000000+00:00</time></trkpt><trkpt lat="30.96731949" lon="34.77637482"><ele>419.1</ele><time>2013-11-20T08:09:34.0000000+00:00</time></trkpt><trkpt lat="30.9671936" lon="34.77647781"><ele>420.0</ele><time>2013-11-20T08:09:39.0000000+00:00</time></trkpt><trkpt lat="30.96707535" lon="34.776577"><ele>420.5</ele><time>2013-11-20T08:09:44.0000000+00:00</time></trkpt><trkpt lat="30.96695328" lon="34.77669144"><ele>422.5</ele><time>2013-11-20T08:09:49.0000000+00:00</time></trkpt><trkpt lat="30.96683312" lon="34.77679443"><ele>426.8</ele><time>2013-11-20T08:09:54.0000000+00:00</time></trkpt><trkpt lat="30.96672249" lon="34.77690888"><ele>429.3</ele><time>2013-11-20T08:09:59.0000000+00:00</time></trkpt><trkpt lat="30.96660042" lon="34.77701569"><ele>432.3</ele><time>2013-11-20T08:10:04.0000000+00:00</time></trkpt><trkpt lat="30.96647263" lon="34.77712631"><ele>432.7</ele><time>2013-11-20T08:10:09.0000000+00:00</time></trkpt><trkpt lat="30.96637344" lon="34.77724838"><ele>434.7</ele><time>2013-11-20T08:10:14.0000000+00:00</time></trkpt><trkpt lat="30.96624756" lon="34.77735901"><ele>434.2</ele><time>2013-11-20T08:10:19.0000000+00:00</time></trkpt><trkpt lat="30.96611595" lon="34.77746964"><ele>436.7</ele><time>2013-11-20T08:10:24.0000000+00:00</time></trkpt><trkpt lat="30.96599388" lon="34.77757263"><ele>434.1</ele><time>2013-11-20T08:10:29.0000000+00:00</time></trkpt><trkpt lat="30.96587372" lon="34.77768326"><ele>433.8</ele><time>2013-11-20T08:10:34.0000000+00:00</time></trkpt><trkpt lat="30.96574783" lon="34.77780914"><ele>433.2</ele><time>2013-11-20T08:10:39.0000000+00:00</time></trkpt><trkpt lat="30.96561432" lon="34.77793503"><ele>434.3</ele><time>2013-11-20T08:10:44.0000000+00:00</time></trkpt><trkpt lat="30.96547699" lon="34.77806091"><ele>433.6</ele><time>2013-11-20T08:10:49.0000000+00:00</time></trkpt><trkpt lat="30.96534348" lon="34.77818298"><ele>432.7</ele><time>2013-11-20T08:10:54.0000000+00:00</time></trkpt><trkpt lat="30.96520615" lon="34.77832031"><ele>434.0</ele><time>2013-11-20T08:10:59.0000000+00:00</time></trkpt><trkpt lat="30.96503449" lon="34.7784195"><ele>436.1</ele><time>2013-11-20T08:11:04.0000000+00:00</time></trkpt><trkpt lat="30.9648838" lon="34.77856827"><ele>435.1</ele><time>2013-11-20T08:11:09.0000000+00:00</time></trkpt><trkpt lat="30.96473503" lon="34.7787323"><ele>433.4</ele><time>2013-11-20T08:11:14.0000000+00:00</time></trkpt><trkpt lat="30.96457672" lon="34.77890396"><ele>433.8</ele><time>2013-11-20T08:11:19.0000000+00:00</time></trkpt><trkpt lat="30.96439171" lon="34.77907944"><ele>433.7</ele><time>2013-11-20T08:11:24.0000000+00:00</time></trkpt><trkpt lat="30.96421623" lon="34.77925873"><ele>433.8</ele><time>2013-11-20T08:11:29.0000000+00:00</time></trkpt><trkpt lat="30.96402741" lon="34.77947235"><ele>433.1</ele><time>2013-11-20T08:11:34.0000000+00:00</time></trkpt><trkpt lat="30.96384811" lon="34.77970886"><ele>433.4</ele><time>2013-11-20T08:11:39.0000000+00:00</time></trkpt><trkpt lat="30.96365738" lon="34.779953"><ele>433.0</ele><time>2013-11-20T08:11:44.0000000+00:00</time></trkpt><trkpt lat="30.96345711" lon="34.78022385"><ele>432.8</ele><time>2013-11-20T08:11:49.0000000+00:00</time></trkpt><trkpt lat="30.9632988" lon="34.78052521"><ele>431.1</ele><time>2013-11-20T08:11:54.0000000+00:00</time></trkpt><trkpt lat="30.96312523" lon="34.78078842"><ele>431.1</ele><time>2013-11-20T08:11:59.0000000+00:00</time></trkpt><trkpt lat="30.9629879" lon="34.78102493"><ele>431.1</ele><time>2013-11-20T08:12:04.0000000+00:00</time></trkpt><trkpt lat="30.96284866" lon="34.78123474"><ele>430.3</ele><time>2013-11-20T08:12:09.0000000+00:00</time></trkpt><trkpt lat="30.96268463" lon="34.78142929"><ele>431.3</ele><time>2013-11-20T08:12:14.0000000+00:00</time></trkpt><trkpt lat="30.96255684" lon="34.78157044"><ele>430.3</ele><time>2013-11-20T08:12:19.0000000+00:00</time></trkpt><trkpt lat="30.96245575" lon="34.78168106"><ele>432.8</ele><time>2013-11-20T08:12:24.0000000+00:00</time></trkpt><trkpt lat="30.96235085" lon="34.78177261"><ele>436.8</ele><time>2013-11-20T08:12:29.0000000+00:00</time></trkpt><trkpt lat="30.96226692" lon="34.78190994"><ele>437.7</ele><time>2013-11-20T08:12:34.0000000+00:00</time></trkpt><trkpt lat="30.96224594" lon="34.78206253"><ele>438.3</ele><time>2013-11-20T08:12:39.0000000+00:00</time></trkpt><trkpt lat="30.96221542" lon="34.7821579"><ele>439.7</ele><time>2013-11-20T08:12:44.0000000+00:00</time></trkpt><trkpt lat="30.962183" lon="34.78222656"><ele>440.1</ele><time>2013-11-20T08:12:49.0000000+00:00</time></trkpt><trkpt lat="30.96214294" lon="34.78230286"><ele>441.6</ele><time>2013-11-20T08:12:54.0000000+00:00</time></trkpt><trkpt lat="30.96210671" lon="34.78239059"><ele>442.0</ele><time>2013-11-20T08:12:59.0000000+00:00</time></trkpt><trkpt lat="30.96207237" lon="34.78245926"><ele>442.1</ele><time>2013-11-20T08:13:04.0000000+00:00</time></trkpt><trkpt lat="30.96200752" lon="34.78252029"><ele>442.5</ele><time>2013-11-20T08:13:09.0000000+00:00</time></trkpt><trkpt lat="30.96193886" lon="34.78259277"><ele>442.7</ele><time>2013-11-20T08:13:14.0000000+00:00</time></trkpt><trkpt lat="30.96190071" lon="34.78263092"><ele>443.9</ele><time>2013-11-20T08:13:19.0000000+00:00</time></trkpt><trkpt lat="30.96190071" lon="34.78263474"><ele>443.9</ele><time>2013-11-20T08:13:24.0000000+00:00</time></trkpt><trkpt lat="30.96190071" lon="34.78263474"><ele>443.9</ele><time>2013-11-20T08:13:29.0000000+00:00</time></trkpt><trkpt lat="30.96190071" lon="34.78263474"><ele>444.0</ele><time>2013-11-20T08:13:34.0000000+00:00</time></trkpt><trkpt lat="30.9618988" lon="34.78263855"><ele>444.0</ele><time>2013-11-20T08:13:39.0000000+00:00</time></trkpt><trkpt lat="30.96189308" lon="34.78264237"><ele>444.0</ele><time>2013-11-20T08:13:44.0000000+00:00</time></trkpt><trkpt lat="30.96189499" lon="34.78264237"><ele>444.0</ele><time>2013-11-20T08:13:49.0000000+00:00</time></trkpt><trkpt lat="30.9618969" lon="34.78263855"><ele>444.0</ele><time>2013-11-20T08:13:54.0000000+00:00</time></trkpt><trkpt lat="30.9618988" lon="34.78263474"><ele>444.1</ele><time>2013-11-20T08:13:59.0000000+00:00</time></trkpt><trkpt lat="30.9618988" lon="34.78263092"><ele>444.1</ele><time>2013-11-20T08:14:04.0000000+00:00</time></trkpt><trkpt lat="30.9618988" lon="34.78263092"><ele>444.0</ele><time>2013-11-20T08:14:09.0000000+00:00</time></trkpt><trkpt lat="30.9618988" lon="34.78263092"><ele>444.0</ele><time>2013-11-20T08:14:14.0000000+00:00</time></trkpt><trkpt lat="30.9618988" lon="34.78263092"><ele>444.0</ele><time>2013-11-20T08:14:19.0000000+00:00</time></trkpt><trkpt lat="30.96188736" lon="34.78264237"><ele>444.0</ele><time>2013-11-20T08:14:24.0000000+00:00</time></trkpt><trkpt lat="30.96187782" lon="34.78265381"><ele>444.1</ele><time>2013-11-20T08:14:29.0000000+00:00</time></trkpt><trkpt lat="30.96187592" lon="34.78265381"><ele>444.3</ele><time>2013-11-20T08:14:34.0000000+00:00</time></trkpt><trkpt lat="30.96188164" lon="34.78267288"><ele>444.4</ele><time>2013-11-20T08:14:39.0000000+00:00</time></trkpt><trkpt lat="30.96189308" lon="34.7826767"><ele>444.3</ele><time>2013-11-20T08:14:44.0000000+00:00</time></trkpt><trkpt lat="30.96188355" lon="34.78269577"><ele>445.0</ele><time>2013-11-20T08:14:49.0000000+00:00</time></trkpt><trkpt lat="30.96189499" lon="34.78274918"><ele>445.4</ele><time>2013-11-20T08:14:54.0000000+00:00</time></trkpt><trkpt lat="30.9618969" lon="34.78281403"><ele>444.6</ele><time>2013-11-20T08:14:59.0000000+00:00</time></trkpt><trkpt lat="30.96186638" lon="34.78289414"><ele>444.9</ele><time>2013-11-20T08:15:04.0000000+00:00</time></trkpt><trkpt lat="30.96183205" lon="34.78294373"><ele>444.1</ele><time>2013-11-20T08:15:09.0000000+00:00</time></trkpt><trkpt lat="30.96181107" lon="34.78301239"><ele>444.0</ele><time>2013-11-20T08:15:14.0000000+00:00</time></trkpt><trkpt lat="30.96179199" lon="34.78308868"><ele>442.9</ele><time>2013-11-20T08:15:19.0000000+00:00</time></trkpt><trkpt lat="30.96174431" lon="34.78314209"><ele>442.0</ele><time>2013-11-20T08:15:24.0000000+00:00</time></trkpt><trkpt lat="30.96167755" lon="34.78316116"><ele>441.4</ele><time>2013-11-20T08:15:29.0000000+00:00</time></trkpt><trkpt lat="30.96161079" lon="34.78316116"><ele>441.1</ele><time>2013-11-20T08:15:34.0000000+00:00</time></trkpt><trkpt lat="30.96156693" lon="34.78316879"><ele>442.2</ele><time>2013-11-20T08:15:39.0000000+00:00</time></trkpt><trkpt lat="30.96157265" lon="34.78314591"><ele>443.8</ele><time>2013-11-20T08:15:44.0000000+00:00</time></trkpt><trkpt lat="30.96157837" lon="34.78314591"><ele>444.4</ele><time>2013-11-20T08:15:49.0000000+00:00</time></trkpt><trkpt lat="30.96156502" lon="34.78313446"><ele>444.5</ele><time>2013-11-20T08:15:54.0000000+00:00</time></trkpt><trkpt lat="30.96156693" lon="34.78313446"><ele>444.5</ele><time>2013-11-20T08:15:59.0000000+00:00</time></trkpt><trkpt lat="30.96156693" lon="34.78313828"><ele>444.4</ele><time>2013-11-20T08:16:04.0000000+00:00</time></trkpt><trkpt lat="30.96156883" lon="34.78313828"><ele>444.4</ele><time>2013-11-20T08:16:09.0000000+00:00</time></trkpt><trkpt lat="30.96156883" lon="34.78313828"><ele>444.5</ele><time>2013-11-20T08:16:14.0000000+00:00</time></trkpt><trkpt lat="30.96156883" lon="34.78313828"><ele>444.5</ele><time>2013-11-20T08:16:19.0000000+00:00</time></trkpt><trkpt lat="30.96157074" lon="34.78313828"><ele>444.5</ele><time>2013-11-20T08:16:24.0000000+00:00</time></trkpt><trkpt lat="30.96157074" lon="34.78313828"><ele>444.6</ele><time>2013-11-20T08:16:29.0000000+00:00</time></trkpt><trkpt lat="30.96157074" lon="34.78313828"><ele>444.6</ele><time>2013-11-20T08:16:34.0000000+00:00</time></trkpt><trkpt lat="30.96157074" lon="34.78313828"><ele>444.6</ele><time>2013-11-20T08:16:39.0000000+00:00</time></trkpt><trkpt lat="30.96157074" lon="34.78313828"><ele>444.6</ele><time>2013-11-20T08:16:44.0000000+00:00</time></trkpt><trkpt lat="30.96157074" lon="34.78313828"><ele>444.6</ele><time>2013-11-20T08:16:49.0000000+00:00</time></trkpt><trkpt lat="30.96157074" lon="34.78313828"><ele>444.6</ele><time>2013-11-20T08:16:54.0000000+00:00</time></trkpt><trkpt lat="30.96157074" lon="34.78313828"><ele>444.6</ele><time>2013-11-20T08:16:59.0000000+00:00</time></trkpt><trkpt lat="30.96157074" lon="34.78313828"><ele>444.6</ele><time>2013-11-20T08:17:04.0000000+00:00</time></trkpt><trkpt lat="30.96157074" lon="34.78313828"><ele>444.6</ele><time>2013-11-20T08:17:09.0000000+00:00</time></trkpt><trkpt lat="30.96157074" lon="34.78313828"><ele>444.6</ele><time>2013-11-20T08:17:14.0000000+00:00</time></trkpt><trkpt lat="30.96157074" lon="34.78313828"><ele>444.6</ele><time>2013-11-20T08:17:19.0000000+00:00</time></trkpt><trkpt lat="30.96157074" lon="34.78313828"><ele>444.6</ele><time>2013-11-20T08:17:24.0000000+00:00</time></trkpt><trkpt lat="30.96157074" lon="34.78313828"><ele>444.6</ele><time>2013-11-20T08:17:29.0000000+00:00</time></trkpt><trkpt lat="30.96157074" lon="34.78313828"><ele>444.6</ele><time>2013-11-20T08:17:34.0000000+00:00</time></trkpt><trkpt lat="30.96157074" lon="34.78313828"><ele>444.6</ele><time>2013-11-20T08:17:39.0000000+00:00</time></trkpt><trkpt lat="30.96157074" lon="34.78313828"><ele>444.7</ele><time>2013-11-20T08:17:44.0000000+00:00</time></trkpt><trkpt lat="30.96157074" lon="34.78313828"><ele>444.7</ele><time>2013-11-20T08:17:49.0000000+00:00</time></trkpt><trkpt lat="30.96157074" lon="34.78313828"><ele>444.7</ele><time>2013-11-20T08:17:54.0000000+00:00</time></trkpt><trkpt lat="30.96157074" lon="34.78313828"><ele>444.7</ele><time>2013-11-20T08:17:59.0000000+00:00</time></trkpt><trkpt lat="30.96157074" lon="34.78313828"><ele>444.7</ele><time>2013-11-20T08:18:04.0000000+00:00</time></trkpt><trkpt lat="30.96157074" lon="34.78313828"><ele>444.7</ele><time>2013-11-20T08:18:09.0000000+00:00</time></trkpt><trkpt lat="30.96157074" lon="34.78313828"><ele>444.7</ele><time>2013-11-20T08:18:14.0000000+00:00</time></trkpt><trkpt lat="30.96157074" lon="34.78313828"><ele>444.7</ele><time>2013-11-20T08:18:19.0000000+00:00</time></trkpt><trkpt lat="30.96157074" lon="34.78313828"><ele>444.7</ele><time>2013-11-20T08:18:24.0000000+00:00</time></trkpt><trkpt lat="30.96157074" lon="34.78313828"><ele>444.7</ele><time>2013-11-20T08:18:29.0000000+00:00</time></trkpt><trkpt lat="30.96157074" lon="34.78313828"><ele>444.7</ele><time>2013-11-20T08:18:34.0000000+00:00</time></trkpt><trkpt lat="30.96157074" lon="34.78313828"><ele>444.7</ele><time>2013-11-20T08:18:39.0000000+00:00</time></trkpt><trkpt lat="30.96157074" lon="34.78313828"><ele>444.7</ele><time>2013-11-20T08:18:44.0000000+00:00</time></trkpt><trkpt lat="30.96157074" lon="34.78313828"><ele>444.7</ele><time>2013-11-20T08:18:49.0000000+00:00</time></trkpt><trkpt lat="30.96157074" lon="34.78313828"><ele>444.7</ele><time>2013-11-20T08:18:54.0000000+00:00</time></trkpt><trkpt lat="30.96157074" lon="34.78313828"><ele>444.6</ele><time>2013-11-20T08:18:59.0000000+00:00</time></trkpt><trkpt lat="30.96157074" lon="34.78313828"><ele>444.6</ele><time>2013-11-20T08:19:04.0000000+00:00</time></trkpt><trkpt lat="30.96157074" lon="34.78313828"><ele>444.6</ele><time>2013-11-20T08:19:09.0000000+00:00</time></trkpt><trkpt lat="30.96157074" lon="34.78313446"><ele>444.6</ele><time>2013-11-20T08:19:14.0000000+00:00</time></trkpt><trkpt lat="30.96157074" lon="34.78313446"><ele>444.6</ele><time>2013-11-20T08:19:19.0000000+00:00</time></trkpt><trkpt lat="30.96157074" lon="34.78313446"><ele>444.6</ele><time>2013-11-20T08:19:24.0000000+00:00</time></trkpt><trkpt lat="30.96157074" lon="34.78313446"><ele>444.5</ele><time>2013-11-20T08:19:29.0000000+00:00</time></trkpt><trkpt lat="30.96157074" lon="34.78313446"><ele>444.5</ele><time>2013-11-20T08:19:34.0000000+00:00</time></trkpt><trkpt lat="30.96157074" lon="34.78313446"><ele>444.4</ele><time>2013-11-20T08:19:39.0000000+00:00</time></trkpt><trkpt lat="30.96157074" lon="34.78313446"><ele>444.4</ele><time>2013-11-20T08:19:44.0000000+00:00</time></trkpt><trkpt lat="30.96157074" lon="34.78313446"><ele>444.4</ele><time>2013-11-20T08:19:49.0000000+00:00</time></trkpt><trkpt lat="30.96157074" lon="34.78313446"><ele>444.3</ele><time>2013-11-20T08:19:54.0000000+00:00</time></trkpt><trkpt lat="30.96157074" lon="34.78313446"><ele>444.3</ele><time>2013-11-20T08:19:59.0000000+00:00</time></trkpt><trkpt lat="30.96157074" lon="34.78313446"><ele>444.3</ele><time>2013-11-20T08:20:04.0000000+00:00</time></trkpt><trkpt lat="30.96157074" lon="34.78313446"><ele>444.3</ele><time>2013-11-20T08:20:09.0000000+00:00</time></trkpt><trkpt lat="30.96157074" lon="34.78313446"><ele>444.3</ele><time>2013-11-20T08:20:14.0000000+00:00</time></trkpt><trkpt lat="30.96157074" lon="34.78313446"><ele>444.2</ele><time>2013-11-20T08:20:19.0000000+00:00</time></trkpt><trkpt lat="30.96157074" lon="34.78313446"><ele>444.2</ele><time>2013-11-20T08:20:24.0000000+00:00</time></trkpt><trkpt lat="30.96157074" lon="34.78313446"><ele>444.2</ele><time>2013-11-20T08:20:29.0000000+00:00</time></trkpt><trkpt lat="30.96157074" lon="34.78313446"><ele>444.1</ele><time>2013-11-20T08:20:34.0000000+00:00</time></trkpt><trkpt lat="30.96157265" lon="34.78313446"><ele>444.1</ele><time>2013-11-20T08:20:39.0000000+00:00</time></trkpt><trkpt lat="30.96157074" lon="34.78313446"><ele>444.1</ele><time>2013-11-20T08:20:44.0000000+00:00</time></trkpt><trkpt lat="30.96157265" lon="34.78313446"><ele>444.1</ele><time>2013-11-20T08:20:49.0000000+00:00</time></trkpt><trkpt lat="30.96157265" lon="34.78313446"><ele>444.1</ele><time>2013-11-20T08:20:54.0000000+00:00</time></trkpt><trkpt lat="30.96157265" lon="34.78313065"><ele>444.1</ele><time>2013-11-20T08:20:59.0000000+00:00</time></trkpt><trkpt lat="30.96157265" lon="34.78313065"><ele>444.1</ele><time>2013-11-20T08:21:04.0000000+00:00</time></trkpt><trkpt lat="30.96157265" lon="34.78313065"><ele>444.1</ele><time>2013-11-20T08:21:09.0000000+00:00</time></trkpt><trkpt lat="30.96157265" lon="34.78313065"><ele>444.1</ele><time>2013-11-20T08:21:14.0000000+00:00</time></trkpt><trkpt lat="30.96157265" lon="34.78313065"><ele>444.0</ele><time>2013-11-20T08:21:19.0000000+00:00</time></trkpt><trkpt lat="30.96157265" lon="34.78313065"><ele>444.0</ele><time>2013-11-20T08:21:24.0000000+00:00</time></trkpt><trkpt lat="30.96157265" lon="34.78313065"><ele>444.0</ele><time>2013-11-20T08:21:29.0000000+00:00</time></trkpt><trkpt lat="30.96157265" lon="34.78313065"><ele>444.0</ele><time>2013-11-20T08:21:34.0000000+00:00</time></trkpt><trkpt lat="30.96157265" lon="34.78313065"><ele>444.0</ele><time>2013-11-20T08:21:39.0000000+00:00</time></trkpt><trkpt lat="30.96157265" lon="34.78313065"><ele>444.0</ele><time>2013-11-20T08:21:44.0000000+00:00</time></trkpt><trkpt lat="30.96157265" lon="34.78313065"><ele>443.9</ele><time>2013-11-20T08:21:49.0000000+00:00</time></trkpt><trkpt lat="30.96157265" lon="34.78313065"><ele>443.9</ele><time>2013-11-20T08:21:54.0000000+00:00</time></trkpt><trkpt lat="30.96157265" lon="34.78313065"><ele>443.9</ele><time>2013-11-20T08:21:59.0000000+00:00</time></trkpt><trkpt lat="30.96157265" lon="34.78313065"><ele>443.9</ele><time>2013-11-20T08:22:04.0000000+00:00</time></trkpt><trkpt lat="30.96157265" lon="34.78313065"><ele>443.8</ele><time>2013-11-20T08:22:09.0000000+00:00</time></trkpt><trkpt lat="30.96157265" lon="34.78313065"><ele>443.8</ele><time>2013-11-20T08:22:14.0000000+00:00</time></trkpt><trkpt lat="30.96157265" lon="34.78313065"><ele>443.8</ele><time>2013-11-20T08:22:19.0000000+00:00</time></trkpt><trkpt lat="30.96157265" lon="34.78313065"><ele>443.8</ele><time>2013-11-20T08:22:24.0000000+00:00</time></trkpt><trkpt lat="30.96157265" lon="34.78313065"><ele>443.8</ele><time>2013-11-20T08:22:29.0000000+00:00</time></trkpt><trkpt lat="30.96157265" lon="34.78313065"><ele>443.7</ele><time>2013-11-20T08:22:34.0000000+00:00</time></trkpt><trkpt lat="30.96157265" lon="34.78313065"><ele>443.7</ele><time>2013-11-20T08:22:39.0000000+00:00</time></trkpt><trkpt lat="30.96157265" lon="34.78313065"><ele>443.7</ele><time>2013-11-20T08:22:44.0000000+00:00</time></trkpt><trkpt lat="30.96157265" lon="34.78313065"><ele>443.7</ele><time>2013-11-20T08:22:49.0000000+00:00</time></trkpt><trkpt lat="30.96157265" lon="34.78312683"><ele>443.7</ele><time>2013-11-20T08:22:54.0000000+00:00</time></trkpt><trkpt lat="30.96157265" lon="34.78312683"><ele>443.6</ele><time>2013-11-20T08:22:59.0000000+00:00</time></trkpt><trkpt lat="30.96157265" lon="34.78312683"><ele>443.6</ele><time>2013-11-20T08:23:04.0000000+00:00</time></trkpt><trkpt lat="30.96157265" lon="34.78312683"><ele>443.6</ele><time>2013-11-20T08:23:09.0000000+00:00</time></trkpt><trkpt lat="30.96157265" lon="34.78312683"><ele>443.6</ele><time>2013-11-20T08:23:14.0000000+00:00</time></trkpt><trkpt lat="30.96157265" lon="34.78312683"><ele>443.5</ele><time>2013-11-20T08:23:19.0000000+00:00</time></trkpt><trkpt lat="30.96157265" lon="34.78312683"><ele>443.5</ele><time>2013-11-20T08:23:24.0000000+00:00</time></trkpt><trkpt lat="30.96157265" lon="34.78312683"><ele>443.5</ele><time>2013-11-20T08:23:29.0000000+00:00</time></trkpt><trkpt lat="30.96157265" lon="34.78312683"><ele>443.5</ele><time>2013-11-20T08:23:34.0000000+00:00</time></trkpt><trkpt lat="30.96157265" lon="34.78312683"><ele>443.5</ele><time>2013-11-20T08:23:39.0000000+00:00</time></trkpt><trkpt lat="30.96157265" lon="34.78312683"><ele>443.5</ele><time>2013-11-20T08:23:44.0000000+00:00</time></trkpt><trkpt lat="30.96157265" lon="34.78312683"><ele>443.4</ele><time>2013-11-20T08:23:49.0000000+00:00</time></trkpt><trkpt lat="30.96157265" lon="34.78312683"><ele>443.4</ele><time>2013-11-20T08:23:54.0000000+00:00</time></trkpt><trkpt lat="30.96157265" lon="34.78312683"><ele>443.4</ele><time>2013-11-20T08:23:59.0000000+00:00</time></trkpt><trkpt lat="30.96157265" lon="34.78312683"><ele>443.4</ele><time>2013-11-20T08:24:04.0000000+00:00</time></trkpt><trkpt lat="30.96157265" lon="34.78312683"><ele>443.4</ele><time>2013-11-20T08:24:09.0000000+00:00</time></trkpt><trkpt lat="30.96157265" lon="34.78312683"><ele>443.3</ele><time>2013-11-20T08:24:14.0000000+00:00</time></trkpt><trkpt lat="30.96157265" lon="34.78312683"><ele>443.3</ele><time>2013-11-20T08:24:19.0000000+00:00</time></trkpt><trkpt lat="30.96157265" lon="34.78312302"><ele>443.3</ele><time>2013-11-20T08:24:24.0000000+00:00</time></trkpt><trkpt lat="30.96157265" lon="34.78312302"><ele>443.3</ele><time>2013-11-20T08:24:29.0000000+00:00</time></trkpt><trkpt lat="30.96157265" lon="34.78312302"><ele>443.3</ele><time>2013-11-20T08:24:34.0000000+00:00</time></trkpt><trkpt lat="30.96157265" lon="34.78312302"><ele>443.3</ele><time>2013-11-20T08:24:39.0000000+00:00</time></trkpt><trkpt lat="30.96157265" lon="34.78312302"><ele>443.3</ele><time>2013-11-20T08:24:44.0000000+00:00</time></trkpt><trkpt lat="30.96157265" lon="34.78312302"><ele>443.3</ele><time>2013-11-20T08:24:49.0000000+00:00</time></trkpt><trkpt lat="30.96157265" lon="34.78312302"><ele>443.2</ele><time>2013-11-20T08:24:54.0000000+00:00</time></trkpt><trkpt lat="30.96157265" lon="34.78312302"><ele>443.2</ele><time>2013-11-20T08:24:59.0000000+00:00</time></trkpt><trkpt lat="30.96157265" lon="34.78312302"><ele>443.2</ele><time>2013-11-20T08:25:04.0000000+00:00</time></trkpt><trkpt lat="30.96157265" lon="34.78312302"><ele>443.2</ele><time>2013-11-20T08:25:09.0000000+00:00</time></trkpt><trkpt lat="30.96157265" lon="34.78312302"><ele>443.2</ele><time>2013-11-20T08:25:14.0000000+00:00</time></trkpt><trkpt lat="30.96157265" lon="34.78312302"><ele>443.2</ele><time>2013-11-20T08:25:19.0000000+00:00</time></trkpt><trkpt lat="30.96157265" lon="34.78312302"><ele>443.2</ele><time>2013-11-20T08:25:24.0000000+00:00</time></trkpt><trkpt lat="30.96157265" lon="34.78312302"><ele>443.2</ele><time>2013-11-20T08:25:29.0000000+00:00</time></trkpt><trkpt lat="30.96157265" lon="34.78312302"><ele>443.2</ele><time>2013-11-20T08:25:34.0000000+00:00</time></trkpt><trkpt lat="30.96157265" lon="34.78312302"><ele>443.1</ele><time>2013-11-20T08:25:39.0000000+00:00</time></trkpt><trkpt lat="30.96157265" lon="34.78312302"><ele>443.1</ele><time>2013-11-20T08:25:44.0000000+00:00</time></trkpt><trkpt lat="30.96157265" lon="34.78312302"><ele>443.1</ele><time>2013-11-20T08:25:49.0000000+00:00</time></trkpt><trkpt lat="30.96157265" lon="34.78312302"><ele>443.1</ele><time>2013-11-20T08:25:54.0000000+00:00</time></trkpt><trkpt lat="30.96157265" lon="34.78312302"><ele>443.1</ele><time>2013-11-20T08:25:59.0000000+00:00</time></trkpt><trkpt lat="30.96157265" lon="34.78312302"><ele>443.1</ele><time>2013-11-20T08:26:04.0000000+00:00</time></trkpt><trkpt lat="30.96157265" lon="34.78312302"><ele>443.1</ele><time>2013-11-20T08:26:09.0000000+00:00</time></trkpt><trkpt lat="30.96157265" lon="34.78312302"><ele>443.1</ele><time>2013-11-20T08:26:14.0000000+00:00</time></trkpt><trkpt lat="30.96157265" lon="34.78312302"><ele>443.0</ele><time>2013-11-20T08:26:19.0000000+00:00</time></trkpt><trkpt lat="30.96157265" lon="34.78312302"><ele>443.0</ele><time>2013-11-20T08:26:24.0000000+00:00</time></trkpt><trkpt lat="30.96157265" lon="34.78312302"><ele>443.0</ele><time>2013-11-20T08:26:29.0000000+00:00</time></trkpt><trkpt lat="30.96157265" lon="34.7831192"><ele>443.0</ele><time>2013-11-20T08:26:34.0000000+00:00</time></trkpt><trkpt lat="30.96157265" lon="34.7831192"><ele>443.0</ele><time>2013-11-20T08:26:39.0000000+00:00</time></trkpt><trkpt lat="30.96157265" lon="34.7831192"><ele>443.0</ele><time>2013-11-20T08:26:44.0000000+00:00</time></trkpt><trkpt lat="30.96157265" lon="34.7831192"><ele>443.0</ele><time>2013-11-20T08:26:49.0000000+00:00</time></trkpt><trkpt lat="30.96157265" lon="34.7831192"><ele>442.9</ele><time>2013-11-20T08:26:54.0000000+00:00</time></trkpt><trkpt lat="30.96157265" lon="34.7831192"><ele>442.9</ele><time>2013-11-20T08:26:59.0000000+00:00</time></trkpt><trkpt lat="30.96157265" lon="34.7831192"><ele>442.9</ele><time>2013-11-20T08:27:04.0000000+00:00</time></trkpt><trkpt lat="30.96157265" lon="34.7831192"><ele>442.9</ele><time>2013-11-20T08:27:09.0000000+00:00</time></trkpt><trkpt lat="30.96157265" lon="34.7831192"><ele>442.9</ele><time>2013-11-20T08:27:14.0000000+00:00</time></trkpt><trkpt lat="30.96157265" lon="34.7831192"><ele>442.9</ele><time>2013-11-20T08:27:19.0000000+00:00</time></trkpt><trkpt lat="30.96157265" lon="34.7831192"><ele>442.9</ele><time>2013-11-20T08:27:24.0000000+00:00</time></trkpt><trkpt lat="30.96157265" lon="34.7831192"><ele>442.9</ele><time>2013-11-20T08:27:29.0000000+00:00</time></trkpt><trkpt lat="30.96157265" lon="34.7831192"><ele>442.9</ele><time>2013-11-20T08:27:34.0000000+00:00</time></trkpt><trkpt lat="30.96157265" lon="34.7831192"><ele>442.9</ele><time>2013-11-20T08:27:39.0000000+00:00</time></trkpt><trkpt lat="30.96157265" lon="34.7831192"><ele>442.9</ele><time>2013-11-20T08:27:44.0000000+00:00</time></trkpt><trkpt lat="30.96157074" lon="34.7831192"><ele>442.8</ele><time>2013-11-20T08:27:49.0000000+00:00</time></trkpt><trkpt lat="30.96157074" lon="34.7831192"><ele>442.8</ele><time>2013-11-20T08:27:54.0000000+00:00</time></trkpt><trkpt lat="30.96157074" lon="34.7831192"><ele>442.8</ele><time>2013-11-20T08:27:59.0000000+00:00</time></trkpt><trkpt lat="30.96157074" lon="34.7831192"><ele>442.8</ele><time>2013-11-20T08:28:04.0000000+00:00</time></trkpt><trkpt lat="30.96157074" lon="34.7831192"><ele>442.8</ele><time>2013-11-20T08:28:09.0000000+00:00</time></trkpt><trkpt lat="30.96157074" lon="34.7831192"><ele>442.8</ele><time>2013-11-20T08:28:14.0000000+00:00</time></trkpt><trkpt lat="30.96157074" lon="34.7831192"><ele>442.8</ele><time>2013-11-20T08:28:19.0000000+00:00</time></trkpt><trkpt lat="30.96157074" lon="34.7831192"><ele>442.8</ele><time>2013-11-20T08:28:24.0000000+00:00</time></trkpt><trkpt lat="30.96157265" lon="34.7831192"><ele>442.8</ele><time>2013-11-20T08:28:29.0000000+00:00</time></trkpt><trkpt lat="30.96157265" lon="34.7831192"><ele>442.7</ele><time>2013-11-20T08:28:34.0000000+00:00</time></trkpt><trkpt lat="30.96157265" lon="34.7831192"><ele>442.7</ele><time>2013-11-20T08:28:39.0000000+00:00</time></trkpt><trkpt lat="30.96157265" lon="34.7831192"><ele>442.7</ele><time>2013-11-20T08:28:44.0000000+00:00</time></trkpt><trkpt lat="30.96157265" lon="34.7831192"><ele>442.7</ele><time>2013-11-20T08:28:49.0000000+00:00</time></trkpt><trkpt lat="30.96157265" lon="34.7831192"><ele>442.7</ele><time>2013-11-20T08:28:54.0000000+00:00</time></trkpt><trkpt lat="30.96157265" lon="34.7831192"><ele>442.7</ele><time>2013-11-20T08:28:59.0000000+00:00</time></trkpt><trkpt lat="30.96157265" lon="34.7831192"><ele>442.7</ele><time>2013-11-20T08:29:04.0000000+00:00</time></trkpt><trkpt lat="30.96157265" lon="34.7831192"><ele>442.7</ele><time>2013-11-20T08:29:09.0000000+00:00</time></trkpt><trkpt lat="30.96157265" lon="34.7831192"><ele>442.7</ele><time>2013-11-20T08:29:14.0000000+00:00</time></trkpt><trkpt lat="30.96157265" lon="34.7831192"><ele>442.7</ele><time>2013-11-20T08:29:19.0000000+00:00</time></trkpt><trkpt lat="30.96157265" lon="34.7831192"><ele>442.7</ele><time>2013-11-20T08:29:24.0000000+00:00</time></trkpt><trkpt lat="30.96157265" lon="34.7831192"><ele>442.7</ele><time>2013-11-20T08:29:29.0000000+00:00</time></trkpt><trkpt lat="30.96157265" lon="34.7831192"><ele>442.7</ele><time>2013-11-20T08:29:34.0000000+00:00</time></trkpt><trkpt lat="30.96157265" lon="34.7831192"><ele>442.7</ele><time>2013-11-20T08:29:39.0000000+00:00</time></trkpt><trkpt lat="30.96157265" lon="34.7831192"><ele>442.6</ele><time>2013-11-20T08:29:44.0000000+00:00</time></trkpt><trkpt lat="30.96157265" lon="34.7831192"><ele>442.6</ele><time>2013-11-20T08:29:49.0000000+00:00</time></trkpt><trkpt lat="30.96157265" lon="34.7831192"><ele>442.6</ele><time>2013-11-20T08:29:54.0000000+00:00</time></trkpt><trkpt lat="30.96157265" lon="34.7831192"><ele>442.6</ele><time>2013-11-20T08:29:59.0000000+00:00</time></trkpt><trkpt lat="30.96157265" lon="34.7831192"><ele>442.6</ele><time>2013-11-20T08:30:04.0000000+00:00</time></trkpt><trkpt lat="30.96157455" lon="34.7831192"><ele>442.6</ele><time>2013-11-20T08:30:09.0000000+00:00</time></trkpt><trkpt lat="30.96157455" lon="34.78312302"><ele>442.4</ele><time>2013-11-20T08:30:14.0000000+00:00</time></trkpt><trkpt lat="30.9615612" lon="34.78314972"><ele>442.1</ele><time>2013-11-20T08:30:19.0000000+00:00</time></trkpt><trkpt lat="30.96156311" lon="34.78316116"><ele>442.0</ele><time>2013-11-20T08:30:24.0000000+00:00</time></trkpt><trkpt lat="30.96156311" lon="34.78316116"><ele>442.0</ele><time>2013-11-20T08:30:29.0000000+00:00</time></trkpt><trkpt lat="30.96156311" lon="34.78316116"><ele>442.0</ele><time>2013-11-20T08:30:34.0000000+00:00</time></trkpt><trkpt lat="30.96156502" lon="34.78316116"><ele>442.0</ele><time>2013-11-20T08:30:39.0000000+00:00</time></trkpt><trkpt lat="30.96156502" lon="34.78316116"><ele>442.0</ele><time>2013-11-20T08:30:44.0000000+00:00</time></trkpt><trkpt lat="30.96155739" lon="34.78316498"><ele>442.2</ele><time>2013-11-20T08:30:49.0000000+00:00</time></trkpt><trkpt lat="30.96153641" lon="34.78316879"><ele>442.2</ele><time>2013-11-20T08:30:54.0000000+00:00</time></trkpt><trkpt lat="30.96152115" lon="34.78317642"><ele>442.4</ele><time>2013-11-20T08:30:59.0000000+00:00</time></trkpt><trkpt lat="30.961483" lon="34.78319168"><ele>441.9</ele><time>2013-11-20T08:31:04.0000000+00:00</time></trkpt><trkpt lat="30.96141625" lon="34.7831955"><ele>441.9</ele><time>2013-11-20T08:31:09.0000000+00:00</time></trkpt><trkpt lat="30.96134567" lon="34.78319168"><ele>442.4</ele><time>2013-11-20T08:31:14.0000000+00:00</time></trkpt><trkpt lat="30.96129036" lon="34.7831955"><ele>443.1</ele><time>2013-11-20T08:31:19.0000000+00:00</time></trkpt><trkpt lat="30.96121979" lon="34.78321457"><ele>443.6</ele><time>2013-11-20T08:31:24.0000000+00:00</time></trkpt><trkpt lat="30.96113396" lon="34.78321838"><ele>445.1</ele><time>2013-11-20T08:31:29.0000000+00:00</time></trkpt><trkpt lat="30.9610405" lon="34.78322601"><ele>446.3</ele><time>2013-11-20T08:31:34.0000000+00:00</time></trkpt><trkpt lat="30.96097565" lon="34.78327179"><ele>446.6</ele><time>2013-11-20T08:31:39.0000000+00:00</time></trkpt><trkpt lat="30.96094322" lon="34.78332901"><ele>447.0</ele><time>2013-11-20T08:31:44.0000000+00:00</time></trkpt><trkpt lat="30.9609375" lon="34.78336716"><ele>445.7</ele><time>2013-11-20T08:31:49.0000000+00:00</time></trkpt><trkpt lat="30.96090889" lon="34.78340149"><ele>445.8</ele><time>2013-11-20T08:31:54.0000000+00:00</time></trkpt><trkpt lat="30.96083069" lon="34.78345871"><ele>446.3</ele><time>2013-11-20T08:31:59.0000000+00:00</time></trkpt><trkpt lat="30.96068001" lon="34.7834549"><ele>447.5</ele><time>2013-11-20T08:32:04.0000000+00:00</time></trkpt><trkpt lat="30.96051788" lon="34.78344727"><ele>447.4</ele><time>2013-11-20T08:32:09.0000000+00:00</time></trkpt><trkpt lat="30.96035957" lon="34.78343582"><ele>450.5</ele><time>2013-11-20T08:32:14.0000000+00:00</time></trkpt><trkpt lat="30.9602356" lon="34.78343582"><ele>453.4</ele><time>2013-11-20T08:32:19.0000000+00:00</time></trkpt><trkpt lat="30.9601078" lon="34.78343582"><ele>454.2</ele><time>2013-11-20T08:32:24.0000000+00:00</time></trkpt><trkpt lat="30.9599762" lon="34.78343964"><ele>454.4</ele><time>2013-11-20T08:32:29.0000000+00:00</time></trkpt><trkpt lat="30.95986557" lon="34.7834549"><ele>454.8</ele><time>2013-11-20T08:32:34.0000000+00:00</time></trkpt><trkpt lat="30.95975304" lon="34.7834549"><ele>455.5</ele><time>2013-11-20T08:32:39.0000000+00:00</time></trkpt><trkpt lat="30.95962715" lon="34.78344727"><ele>456.4</ele><time>2013-11-20T08:32:44.0000000+00:00</time></trkpt><trkpt lat="30.95947838" lon="34.7834816"><ele>456.6</ele><time>2013-11-20T08:32:49.0000000+00:00</time></trkpt><trkpt lat="30.9593792" lon="34.78358841"><ele>457.1</ele><time>2013-11-20T08:32:54.0000000+00:00</time></trkpt><trkpt lat="30.95930672" lon="34.78374863"><ele>454.6</ele><time>2013-11-20T08:32:59.0000000+00:00</time></trkpt><trkpt lat="30.95924187" lon="34.78393555"><ele>452.6</ele><time>2013-11-20T08:33:04.0000000+00:00</time></trkpt><trkpt lat="30.95911789" lon="34.7840271"><ele>451.6</ele><time>2013-11-20T08:33:09.0000000+00:00</time></trkpt><trkpt lat="30.95898628" lon="34.78395462"><ele>451.0</ele><time>2013-11-20T08:33:14.0000000+00:00</time></trkpt><trkpt lat="30.95882607" lon="34.78388596"><ele>449.4</ele><time>2013-11-20T08:33:19.0000000+00:00</time></trkpt><trkpt lat="30.958704" lon="34.78391266"><ele>448.8</ele><time>2013-11-20T08:33:24.0000000+00:00</time></trkpt><trkpt lat="30.95858002" lon="34.78401566"><ele>451.8</ele><time>2013-11-20T08:33:29.0000000+00:00</time></trkpt><trkpt lat="30.95843887" lon="34.78410339"><ele>452.0</ele><time>2013-11-20T08:33:34.0000000+00:00</time></trkpt><trkpt lat="30.9582901" lon="34.78421783"><ele>450.9</ele><time>2013-11-20T08:33:39.0000000+00:00</time></trkpt><trkpt lat="30.95812416" lon="34.78434372"><ele>453.1</ele><time>2013-11-20T08:33:44.0000000+00:00</time></trkpt><trkpt lat="30.95794296" lon="34.78448486"><ele>452.9</ele><time>2013-11-20T08:33:49.0000000+00:00</time></trkpt><trkpt lat="30.95775604" lon="34.78462219"><ele>450.6</ele><time>2013-11-20T08:33:54.0000000+00:00</time></trkpt><trkpt lat="30.95756149" lon="34.78477478"><ele>450.8</ele><time>2013-11-20T08:33:59.0000000+00:00</time></trkpt><trkpt lat="30.95742226" lon="34.78487778"><ele>451.0</ele><time>2013-11-20T08:34:04.0000000+00:00</time></trkpt><trkpt lat="30.95727539" lon="34.78496933"><ele>451.0</ele><time>2013-11-20T08:34:09.0000000+00:00</time></trkpt><trkpt lat="30.95711899" lon="34.78507614"><ele>453.4</ele><time>2013-11-20T08:34:14.0000000+00:00</time></trkpt><trkpt lat="30.95697975" lon="34.78519821"><ele>453.7</ele><time>2013-11-20T08:34:19.0000000+00:00</time></trkpt><trkpt lat="30.95678902" lon="34.78532791"><ele>448.8</ele><time>2013-11-20T08:34:24.0000000+00:00</time></trkpt><trkpt lat="30.95660591" lon="34.78545761"><ele>447.8</ele><time>2013-11-20T08:34:29.0000000+00:00</time></trkpt><trkpt lat="30.9564991" lon="34.78551483"><ele>454.3</ele><time>2013-11-20T08:34:34.0000000+00:00</time></trkpt><trkpt lat="30.95638466" lon="34.78557968"><ele>455.6</ele><time>2013-11-20T08:34:39.0000000+00:00</time></trkpt><trkpt lat="30.95628738" lon="34.78565979"><ele>455.6</ele><time>2013-11-20T08:34:44.0000000+00:00</time></trkpt><trkpt lat="30.95616531" lon="34.7857666"><ele>454.5</ele><time>2013-11-20T08:34:49.0000000+00:00</time></trkpt><trkpt lat="30.95602799" lon="34.78585434"><ele>456.3</ele><time>2013-11-20T08:34:54.0000000+00:00</time></trkpt><trkpt lat="30.95588112" lon="34.78592682"><ele>456.5</ele><time>2013-11-20T08:34:59.0000000+00:00</time></trkpt><trkpt lat="30.95572472" lon="34.78601837"><ele>456.7</ele><time>2013-11-20T08:35:04.0000000+00:00</time></trkpt><trkpt lat="30.95557404" lon="34.78613663"><ele>456.3</ele><time>2013-11-20T08:35:09.0000000+00:00</time></trkpt><trkpt lat="30.95541573" lon="34.78625488"><ele>457.1</ele><time>2013-11-20T08:35:14.0000000+00:00</time></trkpt><trkpt lat="30.95526314" lon="34.78638458"><ele>457.1</ele><time>2013-11-20T08:35:19.0000000+00:00</time></trkpt><trkpt lat="30.95509529" lon="34.78648377"><ele>456.6</ele><time>2013-11-20T08:35:24.0000000+00:00</time></trkpt><trkpt lat="30.95492363" lon="34.78660584"><ele>454.9</ele><time>2013-11-20T08:35:29.0000000+00:00</time></trkpt><trkpt lat="30.95474434" lon="34.78678894"><ele>453.4</ele><time>2013-11-20T08:35:34.0000000+00:00</time></trkpt><trkpt lat="30.95456886" lon="34.78697968"><ele>454.3</ele><time>2013-11-20T08:35:39.0000000+00:00</time></trkpt><trkpt lat="30.95438194" lon="34.78710556"><ele>454.1</ele><time>2013-11-20T08:35:44.0000000+00:00</time></trkpt><trkpt lat="30.95422363" lon="34.78720093"><ele>452.8</ele><time>2013-11-20T08:35:49.0000000+00:00</time></trkpt><trkpt lat="30.95408821" lon="34.787323"><ele>451.1</ele><time>2013-11-20T08:35:54.0000000+00:00</time></trkpt><trkpt lat="30.95396996" lon="34.78739929"><ele>451.4</ele><time>2013-11-20T08:35:59.0000000+00:00</time></trkpt><trkpt lat="30.9538517" lon="34.78746033"><ele>449.1</ele><time>2013-11-20T08:36:04.0000000+00:00</time></trkpt><trkpt lat="30.95375633" lon="34.78753281"><ele>450.4</ele><time>2013-11-20T08:36:09.0000000+00:00</time></trkpt><trkpt lat="30.95366669" lon="34.78759384"><ele>459.3</ele><time>2013-11-20T08:36:14.0000000+00:00</time></trkpt><trkpt lat="30.95358276" lon="34.78765488"><ele>463.7</ele><time>2013-11-20T08:36:19.0000000+00:00</time></trkpt><trkpt lat="30.95348549" lon="34.78771973"><ele>467.3</ele><time>2013-11-20T08:36:24.0000000+00:00</time></trkpt><trkpt lat="30.95337486" lon="34.78778458"><ele>469.9</ele><time>2013-11-20T08:36:29.0000000+00:00</time></trkpt><trkpt lat="30.95325851" lon="34.78785324"><ele>469.2</ele><time>2013-11-20T08:36:34.0000000+00:00</time></trkpt><trkpt lat="30.95311356" lon="34.78794098"><ele>466.3</ele><time>2013-11-20T08:36:39.0000000+00:00</time></trkpt><trkpt lat="30.95296097" lon="34.78804016"><ele>462.7</ele><time>2013-11-20T08:36:44.0000000+00:00</time></trkpt><trkpt lat="30.95279121" lon="34.78807449"><ele>460.9</ele><time>2013-11-20T08:36:49.0000000+00:00</time></trkpt><trkpt lat="30.95267296" lon="34.78801346"><ele>460.7</ele><time>2013-11-20T08:36:54.0000000+00:00</time></trkpt><trkpt lat="30.95252991" lon="34.78800583"><ele>460.7</ele><time>2013-11-20T08:36:59.0000000+00:00</time></trkpt><trkpt lat="30.95238876" lon="34.78807449"><ele>460.3</ele><time>2013-11-20T08:37:04.0000000+00:00</time></trkpt><trkpt lat="30.95230103" lon="34.7881012"><ele>461.2</ele><time>2013-11-20T08:37:09.0000000+00:00</time></trkpt><trkpt lat="30.95227814" lon="34.78810883"><ele>461.0</ele><time>2013-11-20T08:37:14.0000000+00:00</time></trkpt><trkpt lat="30.95225334" lon="34.78812408"><ele>461.2</ele><time>2013-11-20T08:37:19.0000000+00:00</time></trkpt><trkpt lat="30.95222664" lon="34.78817368"><ele>461.9</ele><time>2013-11-20T08:37:24.0000000+00:00</time></trkpt><trkpt lat="30.95218277" lon="34.78819656"><ele>462.5</ele><time>2013-11-20T08:37:29.0000000+00:00</time></trkpt><trkpt lat="30.95214462" lon="34.7882309"><ele>463.3</ele><time>2013-11-20T08:37:34.0000000+00:00</time></trkpt><trkpt lat="30.95210075" lon="34.78826904"><ele>463.2</ele><time>2013-11-20T08:37:39.0000000+00:00</time></trkpt><trkpt lat="30.9520855" lon="34.78828812"><ele>462.9</ele><time>2013-11-20T08:37:44.0000000+00:00</time></trkpt><trkpt lat="30.95202828" lon="34.78832626"><ele>463.1</ele><time>2013-11-20T08:37:49.0000000+00:00</time></trkpt><trkpt lat="30.95193481" lon="34.78836441"><ele>463.9</ele><time>2013-11-20T08:37:54.0000000+00:00</time></trkpt><trkpt lat="30.95182037" lon="34.788414"><ele>464.8</ele><time>2013-11-20T08:37:59.0000000+00:00</time></trkpt><trkpt lat="30.95170784" lon="34.78848648"><ele>465.1</ele><time>2013-11-20T08:38:04.0000000+00:00</time></trkpt><trkpt lat="30.9515934" lon="34.78853989"><ele>465.8</ele><time>2013-11-20T08:38:09.0000000+00:00</time></trkpt><trkpt lat="30.95147514" lon="34.78858948"><ele>465.4</ele><time>2013-11-20T08:38:14.0000000+00:00</time></trkpt><trkpt lat="30.95128632" lon="34.78868866"><ele>464.2</ele><time>2013-11-20T08:38:19.0000000+00:00</time></trkpt><trkpt lat="30.95107842" lon="34.78882217"><ele>464.6</ele><time>2013-11-20T08:38:24.0000000+00:00</time></trkpt><trkpt lat="30.95087242" lon="34.78892517"><ele>465.3</ele><time>2013-11-20T08:38:29.0000000+00:00</time></trkpt><trkpt lat="30.95073128" lon="34.78903961"><ele>465.4</ele><time>2013-11-20T08:38:34.0000000+00:00</time></trkpt><trkpt lat="30.95062065" lon="34.78916931"><ele>463.6</ele><time>2013-11-20T08:38:39.0000000+00:00</time></trkpt><trkpt lat="30.95054627" lon="34.78932953"><ele>463.0</ele><time>2013-11-20T08:38:44.0000000+00:00</time></trkpt><trkpt lat="30.95052147" lon="34.78949738"><ele>462.6</ele><time>2013-11-20T08:38:49.0000000+00:00</time></trkpt><trkpt lat="30.95050049" lon="34.78961563"><ele>464.5</ele><time>2013-11-20T08:38:54.0000000+00:00</time></trkpt><trkpt lat="30.95046616" lon="34.78971863"><ele>465.7</ele><time>2013-11-20T08:38:59.0000000+00:00</time></trkpt><trkpt lat="30.95038986" lon="34.78979874"><ele>467.6</ele><time>2013-11-20T08:39:04.0000000+00:00</time></trkpt><trkpt lat="30.95030022" lon="34.78985596"><ele>473.8</ele><time>2013-11-20T08:39:09.0000000+00:00</time></trkpt><trkpt lat="30.95019722" lon="34.78988648"><ele>474.9</ele><time>2013-11-20T08:39:14.0000000+00:00</time></trkpt><trkpt lat="30.95008278" lon="34.78990936"><ele>476.1</ele><time>2013-11-20T08:39:19.0000000+00:00</time></trkpt><trkpt lat="30.94994927" lon="34.78989792"><ele>476.7</ele><time>2013-11-20T08:39:24.0000000+00:00</time></trkpt><trkpt lat="30.94979668" lon="34.78985977"><ele>479.0</ele><time>2013-11-20T08:39:29.0000000+00:00</time></trkpt><trkpt lat="30.94963646" lon="34.78982163"><ele>480.5</ele><time>2013-11-20T08:39:34.0000000+00:00</time></trkpt><trkpt lat="30.94946671" lon="34.78977966"><ele>481.0</ele><time>2013-11-20T08:39:39.0000000+00:00</time></trkpt><trkpt lat="30.94927597" lon="34.78974533"><ele>480.3</ele><time>2013-11-20T08:39:44.0000000+00:00</time></trkpt><trkpt lat="30.94907379" lon="34.78968811"><ele>480.7</ele><time>2013-11-20T08:39:49.0000000+00:00</time></trkpt><trkpt lat="30.94890404" lon="34.78964615"><ele>482.1</ele><time>2013-11-20T08:39:54.0000000+00:00</time></trkpt><trkpt lat="30.94873428" lon="34.78961182"><ele>484.4</ele><time>2013-11-20T08:39:59.0000000+00:00</time></trkpt><trkpt lat="30.94857216" lon="34.78955841"><ele>483.7</ele><time>2013-11-20T08:40:04.0000000+00:00</time></trkpt><trkpt lat="30.94841385" lon="34.78952789"><ele>483.2</ele><time>2013-11-20T08:40:09.0000000+00:00</time></trkpt><trkpt lat="30.94828224" lon="34.78947449"><ele>483.9</ele><time>2013-11-20T08:40:14.0000000+00:00</time></trkpt><trkpt lat="30.94818115" lon="34.78945541"><ele>484.4</ele><time>2013-11-20T08:40:19.0000000+00:00</time></trkpt><trkpt lat="30.94809723" lon="34.78943634"><ele>484.6</ele><time>2013-11-20T08:40:24.0000000+00:00</time></trkpt><trkpt lat="30.94801331" lon="34.78939056"><ele>485.1</ele><time>2013-11-20T08:40:29.0000000+00:00</time></trkpt><trkpt lat="30.94794273" lon="34.78938294"><ele>486.5</ele><time>2013-11-20T08:40:34.0000000+00:00</time></trkpt><trkpt lat="30.94786072" lon="34.78937912"><ele>489.3</ele><time>2013-11-20T08:40:39.0000000+00:00</time></trkpt><trkpt lat="30.94778061" lon="34.78935623"><ele>489.7</ele><time>2013-11-20T08:40:44.0000000+00:00</time></trkpt><trkpt lat="30.94768524" lon="34.78932953"><ele>489.7</ele><time>2013-11-20T08:40:49.0000000+00:00</time></trkpt><trkpt lat="30.94760323" lon="34.7892952"><ele>490.7</ele><time>2013-11-20T08:40:54.0000000+00:00</time></trkpt><trkpt lat="30.94752502" lon="34.78928375"><ele>490.0</ele><time>2013-11-20T08:40:59.0000000+00:00</time></trkpt><trkpt lat="30.94744492" lon="34.78926086"><ele>489.6</ele><time>2013-11-20T08:41:04.0000000+00:00</time></trkpt><trkpt lat="30.94735909" lon="34.78924942"><ele>489.8</ele><time>2013-11-20T08:41:09.0000000+00:00</time></trkpt><trkpt lat="30.94728661" lon="34.78923416"><ele>491.3</ele><time>2013-11-20T08:41:14.0000000+00:00</time></trkpt><trkpt lat="30.94720841" lon="34.78923416"><ele>493.3</ele><time>2013-11-20T08:41:19.0000000+00:00</time></trkpt><trkpt lat="30.94713402" lon="34.78923416"><ele>494.8</ele><time>2013-11-20T08:41:24.0000000+00:00</time></trkpt><trkpt lat="30.94699478" lon="34.78921127"><ele>492.7</ele><time>2013-11-20T08:41:29.0000000+00:00</time></trkpt><trkpt lat="30.94673157" lon="34.78916931"><ele>492.3</ele><time>2013-11-20T08:41:34.0000000+00:00</time></trkpt><trkpt lat="30.94654274" lon="34.78914261"><ele>492.6</ele><time>2013-11-20T08:41:39.0000000+00:00</time></trkpt><trkpt lat="30.946455" lon="34.78912354"><ele>493.1</ele><time>2013-11-20T08:41:44.0000000+00:00</time></trkpt><trkpt lat="30.94640732" lon="34.78912735"><ele>493.8</ele><time>2013-11-20T08:41:49.0000000+00:00</time></trkpt><trkpt lat="30.94640923" lon="34.78912354"><ele>493.9</ele><time>2013-11-20T08:41:54.0000000+00:00</time></trkpt><trkpt lat="30.94640732" lon="34.78911972"><ele>494.0</ele><time>2013-11-20T08:41:59.0000000+00:00</time></trkpt><trkpt lat="30.94641113" lon="34.78911209"><ele>494.0</ele><time>2013-11-20T08:42:04.0000000+00:00</time></trkpt><trkpt lat="30.94640541" lon="34.78915787"><ele>494.4</ele><time>2013-11-20T08:42:09.0000000+00:00</time></trkpt><trkpt lat="30.94639397" lon="34.78916168"><ele>494.2</ele><time>2013-11-20T08:42:14.0000000+00:00</time></trkpt><trkpt lat="30.94639397" lon="34.78916168"><ele>494.2</ele><time>2013-11-20T08:42:19.0000000+00:00</time></trkpt><trkpt lat="30.94639206" lon="34.78916168"><ele>494.1</ele><time>2013-11-20T08:42:24.0000000+00:00</time></trkpt><trkpt lat="30.94639206" lon="34.78916168"><ele>494.1</ele><time>2013-11-20T08:42:29.0000000+00:00</time></trkpt><trkpt lat="30.94639206" lon="34.78916168"><ele>494.1</ele><time>2013-11-20T08:42:34.0000000+00:00</time></trkpt><trkpt lat="30.94639206" lon="34.78916168"><ele>494.1</ele><time>2013-11-20T08:42:39.0000000+00:00</time></trkpt><trkpt lat="30.94639206" lon="34.78916168"><ele>494.1</ele><time>2013-11-20T08:42:44.0000000+00:00</time></trkpt><trkpt lat="30.94639206" lon="34.78916168"><ele>494.1</ele><time>2013-11-20T08:42:49.0000000+00:00</time></trkpt><trkpt lat="30.94639206" lon="34.78916168"><ele>494.1</ele><time>2013-11-20T08:42:54.0000000+00:00</time></trkpt><trkpt lat="30.94639206" lon="34.78916168"><ele>494.1</ele><time>2013-11-20T08:42:59.0000000+00:00</time></trkpt><trkpt lat="30.94639206" lon="34.7891655"><ele>494.1</ele><time>2013-11-20T08:43:04.0000000+00:00</time></trkpt><trkpt lat="30.94639206" lon="34.7891655"><ele>494.1</ele><time>2013-11-20T08:43:09.0000000+00:00</time></trkpt><trkpt lat="30.94639206" lon="34.7891655"><ele>494.1</ele><time>2013-11-20T08:43:14.0000000+00:00</time></trkpt><trkpt lat="30.94639206" lon="34.7891655"><ele>494.1</ele><time>2013-11-20T08:43:19.0000000+00:00</time></trkpt><trkpt lat="30.94639206" lon="34.7891655"><ele>494.2</ele><time>2013-11-20T08:43:24.0000000+00:00</time></trkpt><trkpt lat="30.94639206" lon="34.7891655"><ele>494.2</ele><time>2013-11-20T08:43:29.0000000+00:00</time></trkpt><trkpt lat="30.94639397" lon="34.78916168"><ele>494.2</ele><time>2013-11-20T08:43:34.0000000+00:00</time></trkpt><trkpt lat="30.94639397" lon="34.7891655"><ele>494.3</ele><time>2013-11-20T08:43:39.0000000+00:00</time></trkpt><trkpt lat="30.94639397" lon="34.7891655"><ele>494.3</ele><time>2013-11-20T08:43:44.0000000+00:00</time></trkpt><trkpt lat="30.94639587" lon="34.7891655"><ele>494.3</ele><time>2013-11-20T08:43:49.0000000+00:00</time></trkpt><trkpt lat="30.94639587" lon="34.7891655"><ele>494.3</ele><time>2013-11-20T08:43:54.0000000+00:00</time></trkpt><trkpt lat="30.94639587" lon="34.7891655"><ele>494.3</ele><time>2013-11-20T08:43:59.0000000+00:00</time></trkpt><trkpt lat="30.94639587" lon="34.7891655"><ele>494.3</ele><time>2013-11-20T08:44:04.0000000+00:00</time></trkpt><trkpt lat="30.94639587" lon="34.7891655"><ele>494.4</ele><time>2013-11-20T08:44:09.0000000+00:00</time></trkpt><trkpt lat="30.94639587" lon="34.7891655"><ele>494.4</ele><time>2013-11-20T08:44:14.0000000+00:00</time></trkpt><trkpt lat="30.94639587" lon="34.7891655"><ele>494.4</ele><time>2013-11-20T08:44:19.0000000+00:00</time></trkpt><trkpt lat="30.94639587" lon="34.7891655"><ele>494.4</ele><time>2013-11-20T08:44:24.0000000+00:00</time></trkpt><trkpt lat="30.94639587" lon="34.7891655"><ele>494.4</ele><time>2013-11-20T08:44:29.0000000+00:00</time></trkpt><trkpt lat="30.94639587" lon="34.7891655"><ele>494.4</ele><time>2013-11-20T08:44:34.0000000+00:00</time></trkpt><trkpt lat="30.94639587" lon="34.7891655"><ele>494.4</ele><time>2013-11-20T08:44:39.0000000+00:00</time></trkpt><trkpt lat="30.94639778" lon="34.7891655"><ele>494.4</ele><time>2013-11-20T08:44:44.0000000+00:00</time></trkpt><trkpt lat="30.94639778" lon="34.7891655"><ele>494.4</ele><time>2013-11-20T08:44:49.0000000+00:00</time></trkpt><trkpt lat="30.94639778" lon="34.78916931"><ele>494.4</ele><time>2013-11-20T08:44:54.0000000+00:00</time></trkpt><trkpt lat="30.94639778" lon="34.78916931"><ele>494.4</ele><time>2013-11-20T08:44:59.0000000+00:00</time></trkpt><trkpt lat="30.94639778" lon="34.78916931"><ele>494.4</ele><time>2013-11-20T08:45:04.0000000+00:00</time></trkpt><trkpt lat="30.94639778" lon="34.78916931"><ele>494.4</ele><time>2013-11-20T08:45:09.0000000+00:00</time></trkpt><trkpt lat="30.94639778" lon="34.78916931"><ele>494.4</ele><time>2013-11-20T08:45:14.0000000+00:00</time></trkpt><trkpt lat="30.94639778" lon="34.78916931"><ele>494.4</ele><time>2013-11-20T08:45:19.0000000+00:00</time></trkpt><trkpt lat="30.94639778" lon="34.78916931"><ele>494.4</ele><time>2013-11-20T08:45:24.0000000+00:00</time></trkpt><trkpt lat="30.94639778" lon="34.78916931"><ele>494.4</ele><time>2013-11-20T08:45:29.0000000+00:00</time></trkpt><trkpt lat="30.94639778" lon="34.78916931"><ele>494.4</ele><time>2013-11-20T08:45:34.0000000+00:00</time></trkpt><trkpt lat="30.94639778" lon="34.78916931"><ele>494.4</ele><time>2013-11-20T08:45:39.0000000+00:00</time></trkpt><trkpt lat="30.94639778" lon="34.78916931"><ele>494.4</ele><time>2013-11-20T08:45:44.0000000+00:00</time></trkpt><trkpt lat="30.94639778" lon="34.78916931"><ele>494.3</ele><time>2013-11-20T08:45:49.0000000+00:00</time></trkpt><trkpt lat="30.94639778" lon="34.78916931"><ele>494.3</ele><time>2013-11-20T08:45:54.0000000+00:00</time></trkpt><trkpt lat="30.94639778" lon="34.78916931"><ele>494.2</ele><time>2013-11-20T08:45:59.0000000+00:00</time></trkpt><trkpt lat="30.94639778" lon="34.78916931"><ele>494.2</ele><time>2013-11-20T08:46:04.0000000+00:00</time></trkpt><trkpt lat="30.94639778" lon="34.78916931"><ele>494.2</ele><time>2013-11-20T08:46:09.0000000+00:00</time></trkpt><trkpt lat="30.94639778" lon="34.78916931"><ele>494.1</ele><time>2013-11-20T08:46:14.0000000+00:00</time></trkpt><trkpt lat="30.94639778" lon="34.78916931"><ele>494.1</ele><time>2013-11-20T08:46:19.0000000+00:00</time></trkpt><trkpt lat="30.94639778" lon="34.78916931"><ele>494.1</ele><time>2013-11-20T08:46:24.0000000+00:00</time></trkpt><trkpt lat="30.94639778" lon="34.78916931"><ele>494.0</ele><time>2013-11-20T08:46:29.0000000+00:00</time></trkpt><trkpt lat="30.94639778" lon="34.78916931"><ele>494.0</ele><time>2013-11-20T08:46:34.0000000+00:00</time></trkpt><trkpt lat="30.94639778" lon="34.78916931"><ele>494.0</ele><time>2013-11-20T08:46:39.0000000+00:00</time></trkpt><trkpt lat="30.94639778" lon="34.78916931"><ele>493.9</ele><time>2013-11-20T08:46:44.0000000+00:00</time></trkpt><trkpt lat="30.94639778" lon="34.78916931"><ele>493.9</ele><time>2013-11-20T08:46:49.0000000+00:00</time></trkpt><trkpt lat="30.94639778" lon="34.78916931"><ele>493.9</ele><time>2013-11-20T08:46:54.0000000+00:00</time></trkpt><trkpt lat="30.94639778" lon="34.78916931"><ele>493.8</ele><time>2013-11-20T08:46:59.0000000+00:00</time></trkpt><trkpt lat="30.94639778" lon="34.78916931"><ele>493.8</ele><time>2013-11-20T08:47:04.0000000+00:00</time></trkpt><trkpt lat="30.94639778" lon="34.78916931"><ele>493.8</ele><time>2013-11-20T08:47:09.0000000+00:00</time></trkpt><trkpt lat="30.94639778" lon="34.78916931"><ele>493.7</ele><time>2013-11-20T08:47:14.0000000+00:00</time></trkpt><trkpt lat="30.94639778" lon="34.78916931"><ele>493.7</ele><time>2013-11-20T08:47:19.0000000+00:00</time></trkpt><trkpt lat="30.94639587" lon="34.78916931"><ele>493.6</ele><time>2013-11-20T08:47:24.0000000+00:00</time></trkpt><trkpt lat="30.94639587" lon="34.78916931"><ele>493.6</ele><time>2013-11-20T08:47:29.0000000+00:00</time></trkpt><trkpt lat="30.94639587" lon="34.78916931"><ele>493.6</ele><time>2013-11-20T08:47:34.0000000+00:00</time></trkpt><trkpt lat="30.94639587" lon="34.78916931"><ele>493.5</ele><time>2013-11-20T08:47:39.0000000+00:00</time></trkpt><trkpt lat="30.94639587" lon="34.78916931"><ele>493.5</ele><time>2013-11-20T08:47:44.0000000+00:00</time></trkpt><trkpt lat="30.94639587" lon="34.78916931"><ele>493.4</ele><time>2013-11-20T08:47:49.0000000+00:00</time></trkpt><trkpt lat="30.94639587" lon="34.78916931"><ele>493.4</ele><time>2013-11-20T08:47:54.0000000+00:00</time></trkpt><trkpt lat="30.94639587" lon="34.78916931"><ele>493.4</ele><time>2013-11-20T08:47:59.0000000+00:00</time></trkpt><trkpt lat="30.94639587" lon="34.78916931"><ele>493.3</ele><time>2013-11-20T08:48:04.0000000+00:00</time></trkpt><trkpt lat="30.94639587" lon="34.78916931"><ele>493.3</ele><time>2013-11-20T08:48:09.0000000+00:00</time></trkpt><trkpt lat="30.94639587" lon="34.78916931"><ele>493.2</ele><time>2013-11-20T08:48:14.0000000+00:00</time></trkpt><trkpt lat="30.94639587" lon="34.78916931"><ele>493.1</ele><time>2013-11-20T08:48:19.0000000+00:00</time></trkpt><trkpt lat="30.94639587" lon="34.78916931"><ele>493.1</ele><time>2013-11-20T08:48:24.0000000+00:00</time></trkpt><trkpt lat="30.94639587" lon="34.78916931"><ele>493.1</ele><time>2013-11-20T08:48:29.0000000+00:00</time></trkpt><trkpt lat="30.94639587" lon="34.78916931"><ele>493.0</ele><time>2013-11-20T08:48:34.0000000+00:00</time></trkpt><trkpt lat="30.94639587" lon="34.78916931"><ele>493.0</ele><time>2013-11-20T08:48:39.0000000+00:00</time></trkpt><trkpt lat="30.94639587" lon="34.78916931"><ele>492.9</ele><time>2013-11-20T08:48:44.0000000+00:00</time></trkpt><trkpt lat="30.94639397" lon="34.78916931"><ele>492.9</ele><time>2013-11-20T08:48:49.0000000+00:00</time></trkpt><trkpt lat="30.94639397" lon="34.78916931"><ele>492.8</ele><time>2013-11-20T08:48:54.0000000+00:00</time></trkpt><trkpt lat="30.94639397" lon="34.7891655"><ele>492.8</ele><time>2013-11-20T08:48:59.0000000+00:00</time></trkpt><trkpt lat="30.94639397" lon="34.7891655"><ele>492.8</ele><time>2013-11-20T08:49:04.0000000+00:00</time></trkpt><trkpt lat="30.94639397" lon="34.7891655"><ele>492.7</ele><time>2013-11-20T08:49:09.0000000+00:00</time></trkpt><trkpt lat="30.94639397" lon="34.7891655"><ele>492.6</ele><time>2013-11-20T08:49:14.0000000+00:00</time></trkpt><trkpt lat="30.94639397" lon="34.7891655"><ele>492.6</ele><time>2013-11-20T08:49:19.0000000+00:00</time></trkpt><trkpt lat="30.94639397" lon="34.7891655"><ele>492.5</ele><time>2013-11-20T08:49:24.0000000+00:00</time></trkpt><trkpt lat="30.94639397" lon="34.7891655"><ele>492.5</ele><time>2013-11-20T08:49:29.0000000+00:00</time></trkpt><trkpt lat="30.94639397" lon="34.7891655"><ele>492.5</ele><time>2013-11-20T08:49:34.0000000+00:00</time></trkpt><trkpt lat="30.94639397" lon="34.7891655"><ele>492.4</ele><time>2013-11-20T08:49:39.0000000+00:00</time></trkpt><trkpt lat="30.94639397" lon="34.7891655"><ele>492.4</ele><time>2013-11-20T08:49:44.0000000+00:00</time></trkpt><trkpt lat="30.94639397" lon="34.7891655"><ele>492.3</ele><time>2013-11-20T08:49:49.0000000+00:00</time></trkpt><trkpt lat="30.94639397" lon="34.7891655"><ele>492.3</ele><time>2013-11-20T08:49:54.0000000+00:00</time></trkpt><trkpt lat="30.94639397" lon="34.7891655"><ele>492.2</ele><time>2013-11-20T08:49:59.0000000+00:00</time></trkpt><trkpt lat="30.94639397" lon="34.7891655"><ele>492.2</ele><time>2013-11-20T08:50:04.0000000+00:00</time></trkpt><trkpt lat="30.94639397" lon="34.7891655"><ele>492.2</ele><time>2013-11-20T08:50:09.0000000+00:00</time></trkpt><trkpt lat="30.94639397" lon="34.7891655"><ele>492.1</ele><time>2013-11-20T08:50:14.0000000+00:00</time></trkpt><trkpt lat="30.94639397" lon="34.7891655"><ele>492.1</ele><time>2013-11-20T08:50:19.0000000+00:00</time></trkpt><trkpt lat="30.94639397" lon="34.7891655"><ele>492.0</ele><time>2013-11-20T08:50:24.0000000+00:00</time></trkpt><trkpt lat="30.94639206" lon="34.7891655"><ele>492.0</ele><time>2013-11-20T08:50:29.0000000+00:00</time></trkpt><trkpt lat="30.94639206" lon="34.7891655"><ele>492.0</ele><time>2013-11-20T08:50:34.0000000+00:00</time></trkpt><trkpt lat="30.94639206" lon="34.7891655"><ele>491.9</ele><time>2013-11-20T08:50:39.0000000+00:00</time></trkpt><trkpt lat="30.94639206" lon="34.7891655"><ele>491.8</ele><time>2013-11-20T08:50:44.0000000+00:00</time></trkpt><trkpt lat="30.94638443" lon="34.78914642"><ele>491.0</ele><time>2013-11-20T08:50:49.0000000+00:00</time></trkpt><trkpt lat="30.94634628" lon="34.78911591"><ele>489.9</ele><time>2013-11-20T08:50:54.0000000+00:00</time></trkpt><trkpt lat="30.9462204" lon="34.7890892"><ele>488.4</ele><time>2013-11-20T08:50:59.0000000+00:00</time></trkpt><trkpt lat="30.9460144" lon="34.7890358"><ele>483.6</ele><time>2013-11-20T08:51:04.0000000+00:00</time></trkpt><trkpt lat="30.94568253" lon="34.78896713"><ele>479.2</ele><time>2013-11-20T08:51:09.0000000+00:00</time></trkpt><trkpt lat="30.94524765" lon="34.7888794"><ele>479.6</ele><time>2013-11-20T08:51:14.0000000+00:00</time></trkpt><trkpt lat="30.94493103" lon="34.78878403"><ele>479.1</ele><time>2013-11-20T08:51:19.0000000+00:00</time></trkpt><trkpt lat="30.94471359" lon="34.78870773"><ele>478.1</ele><time>2013-11-20T08:51:24.0000000+00:00</time></trkpt><trkpt lat="30.94449997" lon="34.78868485"><ele>474.8</ele><time>2013-11-20T08:51:29.0000000+00:00</time></trkpt><trkpt lat="30.94430351" lon="34.78871918"><ele>471.6</ele><time>2013-11-20T08:51:34.0000000+00:00</time></trkpt><trkpt lat="30.94408989" lon="34.78870773"><ele>469.3</ele><time>2013-11-20T08:51:39.0000000+00:00</time></trkpt><trkpt lat="30.94392395" lon="34.78866577"><ele>468.9</ele><time>2013-11-20T08:51:44.0000000+00:00</time></trkpt><trkpt lat="30.9438324" lon="34.78865433"><ele>468.1</ele><time>2013-11-20T08:51:49.0000000+00:00</time></trkpt><trkpt lat="30.94372177" lon="34.78863144"><ele>469.9</ele><time>2013-11-20T08:51:54.0000000+00:00</time></trkpt><trkpt lat="30.94362831" lon="34.78860474"><ele>468.2</ele><time>2013-11-20T08:51:59.0000000+00:00</time></trkpt><trkpt lat="30.94354248" lon="34.78858948"><ele>470.9</ele><time>2013-11-20T08:52:04.0000000+00:00</time></trkpt><trkpt lat="30.94343948" lon="34.78856659"><ele>471.4</ele><time>2013-11-20T08:52:09.0000000+00:00</time></trkpt><trkpt lat="30.94334793" lon="34.78855133"><ele>473.3</ele><time>2013-11-20T08:52:14.0000000+00:00</time></trkpt><trkpt lat="30.94322586" lon="34.78853607"><ele>474.8</ele><time>2013-11-20T08:52:19.0000000+00:00</time></trkpt><trkpt lat="30.94309616" lon="34.788517"><ele>476.2</ele><time>2013-11-20T08:52:24.0000000+00:00</time></trkpt><trkpt lat="30.94295692" lon="34.7884903"><ele>478.0</ele><time>2013-11-20T08:52:29.0000000+00:00</time></trkpt><trkpt lat="30.94282913" lon="34.78845596"><ele>479.2</ele><time>2013-11-20T08:52:34.0000000+00:00</time></trkpt><trkpt lat="30.94267845" lon="34.78842545"><ele>478.2</ele><time>2013-11-20T08:52:39.0000000+00:00</time></trkpt><trkpt lat="30.94254494" lon="34.78839874"><ele>478.0</ele><time>2013-11-20T08:52:44.0000000+00:00</time></trkpt><trkpt lat="30.94241715" lon="34.78837967"><ele>478.7</ele><time>2013-11-20T08:52:49.0000000+00:00</time></trkpt><trkpt lat="30.94223785" lon="34.78834534"><ele>476.6</ele><time>2013-11-20T08:52:54.0000000+00:00</time></trkpt><trkpt lat="30.94206047" lon="34.78832245"><ele>477.9</ele><time>2013-11-20T08:52:59.0000000+00:00</time></trkpt><trkpt lat="30.9418602" lon="34.78828812"><ele>477.2</ele><time>2013-11-20T08:53:04.0000000+00:00</time></trkpt><trkpt lat="30.94162941" lon="34.78823471"><ele>476.1</ele><time>2013-11-20T08:53:09.0000000+00:00</time></trkpt><trkpt lat="30.94146156" lon="34.78818893"><ele>478.0</ele><time>2013-11-20T08:53:14.0000000+00:00</time></trkpt><trkpt lat="30.94133377" lon="34.78813553"><ele>477.1</ele><time>2013-11-20T08:53:19.0000000+00:00</time></trkpt><trkpt lat="30.94112778" lon="34.78800201"><ele>473.2</ele><time>2013-11-20T08:53:24.0000000+00:00</time></trkpt><trkpt lat="30.9409008" lon="34.78783417"><ele>473.0</ele><time>2013-11-20T08:53:29.0000000+00:00</time></trkpt><trkpt lat="30.94074631" lon="34.78772736"><ele>475.0</ele><time>2013-11-20T08:53:34.0000000+00:00</time></trkpt><trkpt lat="30.94065476" lon="34.78768158"><ele>476.1</ele><time>2013-11-20T08:53:39.0000000+00:00</time></trkpt><trkpt lat="30.94057846" lon="34.7876358"><ele>478.7</ele><time>2013-11-20T08:53:44.0000000+00:00</time></trkpt><trkpt lat="30.94050407" lon="34.78759003"><ele>480.7</ele><time>2013-11-20T08:53:49.0000000+00:00</time></trkpt><trkpt lat="30.94042969" lon="34.78754044"><ele>483.7</ele><time>2013-11-20T08:53:54.0000000+00:00</time></trkpt><trkpt lat="30.94035149" lon="34.78748703"><ele>486.3</ele><time>2013-11-20T08:53:59.0000000+00:00</time></trkpt><trkpt lat="30.94027901" lon="34.78743362"><ele>486.6</ele><time>2013-11-20T08:54:04.0000000+00:00</time></trkpt><trkpt lat="30.94016647" lon="34.78734207"><ele>486.3</ele><time>2013-11-20T08:54:09.0000000+00:00</time></trkpt><trkpt lat="30.94006538" lon="34.78727341"><ele>486.4</ele><time>2013-11-20T08:54:14.0000000+00:00</time></trkpt><trkpt lat="30.93994904" lon="34.7871933"><ele>485.1</ele><time>2013-11-20T08:54:19.0000000+00:00</time></trkpt><trkpt lat="30.93971062" lon="34.78704834"><ele>481.3</ele><time>2013-11-20T08:54:24.0000000+00:00</time></trkpt><trkpt lat="30.93942833" lon="34.78685761"><ele>480.9</ele><time>2013-11-20T08:54:29.0000000+00:00</time></trkpt><trkpt lat="30.93921471" lon="34.78671265"><ele>478.4</ele><time>2013-11-20T08:54:34.0000000+00:00</time></trkpt><trkpt lat="30.93901253" lon="34.78659439"><ele>479.4</ele><time>2013-11-20T08:54:39.0000000+00:00</time></trkpt><trkpt lat="30.9388504" lon="34.78650665"><ele>480.6</ele><time>2013-11-20T08:54:44.0000000+00:00</time></trkpt><trkpt lat="30.93872452" lon="34.78643036"><ele>482.3</ele><time>2013-11-20T08:54:49.0000000+00:00</time></trkpt><trkpt lat="30.93860817" lon="34.78635025"><ele>482.9</ele><time>2013-11-20T08:54:54.0000000+00:00</time></trkpt><trkpt lat="30.93852425" lon="34.7862854"><ele>486.1</ele><time>2013-11-20T08:54:59.0000000+00:00</time></trkpt><trkpt lat="30.93843079" lon="34.78622055"><ele>487.1</ele><time>2013-11-20T08:55:04.0000000+00:00</time></trkpt><trkpt lat="30.93836975" lon="34.78617096"><ele>488.5</ele><time>2013-11-20T08:55:09.0000000+00:00</time></trkpt><trkpt lat="30.93829155" lon="34.78611374"><ele>488.3</ele><time>2013-11-20T08:55:14.0000000+00:00</time></trkpt><trkpt lat="30.93821716" lon="34.78607178"><ele>488.3</ele><time>2013-11-20T08:55:19.0000000+00:00</time></trkpt><trkpt lat="30.93814087" lon="34.78601837"><ele>490.2</ele><time>2013-11-20T08:55:24.0000000+00:00</time></trkpt><trkpt lat="30.93806076" lon="34.78596115"><ele>490.9</ele><time>2013-11-20T08:55:29.0000000+00:00</time></trkpt><trkpt lat="30.9379673" lon="34.7858963"><ele>490.7</ele><time>2013-11-20T08:55:34.0000000+00:00</time></trkpt><trkpt lat="30.93787956" lon="34.78583908"><ele>493.7</ele><time>2013-11-20T08:55:39.0000000+00:00</time></trkpt><trkpt lat="30.93779564" lon="34.78577805"><ele>496.8</ele><time>2013-11-20T08:55:44.0000000+00:00</time></trkpt><trkpt lat="30.93770027" lon="34.78572464"><ele>500.7</ele><time>2013-11-20T08:55:49.0000000+00:00</time></trkpt><trkpt lat="30.9375782" lon="34.78566361"><ele>499.5</ele><time>2013-11-20T08:55:54.0000000+00:00</time></trkpt><trkpt lat="30.93742561" lon="34.78559113"><ele>498.1</ele><time>2013-11-20T08:55:59.0000000+00:00</time></trkpt><trkpt lat="30.93721771" lon="34.78549194"><ele>498.9</ele><time>2013-11-20T08:56:04.0000000+00:00</time></trkpt><trkpt lat="30.93706703" lon="34.78543472"><ele>500.3</ele><time>2013-11-20T08:56:09.0000000+00:00</time></trkpt><trkpt lat="30.93690872" lon="34.7853775"><ele>497.6</ele><time>2013-11-20T08:56:14.0000000+00:00</time></trkpt><trkpt lat="30.93675041" lon="34.78531647"><ele>498.9</ele><time>2013-11-20T08:56:19.0000000+00:00</time></trkpt><trkpt lat="30.93657112" lon="34.78524017"><ele>497.4</ele><time>2013-11-20T08:56:24.0000000+00:00</time></trkpt><trkpt lat="30.93640709" lon="34.78516007"><ele>494.1</ele><time>2013-11-20T08:56:29.0000000+00:00</time></trkpt><trkpt lat="30.93624306" lon="34.7850647"><ele>493.2</ele><time>2013-11-20T08:56:34.0000000+00:00</time></trkpt><trkpt lat="30.93608856" lon="34.78498459"><ele>496.0</ele><time>2013-11-20T08:56:39.0000000+00:00</time></trkpt><trkpt lat="30.93594551" lon="34.78491211"><ele>497.4</ele><time>2013-11-20T08:56:44.0000000+00:00</time></trkpt><trkpt lat="30.93581772" lon="34.78485107"><ele>501.1</ele><time>2013-11-20T08:56:49.0000000+00:00</time></trkpt><trkpt lat="30.93569183" lon="34.78479767"><ele>501.8</ele><time>2013-11-20T08:56:54.0000000+00:00</time></trkpt><trkpt lat="30.93556023" lon="34.78474426"><ele>501.2</ele><time>2013-11-20T08:56:59.0000000+00:00</time></trkpt><trkpt lat="30.93544197" lon="34.78468704"><ele>500.9</ele><time>2013-11-20T08:57:04.0000000+00:00</time></trkpt><trkpt lat="30.93531799" lon="34.78463364"><ele>500.6</ele><time>2013-11-20T08:57:09.0000000+00:00</time></trkpt><trkpt lat="30.9351902" lon="34.78458023"><ele>501.5</ele><time>2013-11-20T08:57:14.0000000+00:00</time></trkpt><trkpt lat="30.93504906" lon="34.78450012"><ele>500.2</ele><time>2013-11-20T08:57:19.0000000+00:00</time></trkpt><trkpt lat="30.93496704" lon="34.78447342"><ele>508.0</ele><time>2013-11-20T08:57:24.0000000+00:00</time></trkpt><trkpt lat="30.9349041" lon="34.78444672"><ele>512.3</ele><time>2013-11-20T08:57:29.0000000+00:00</time></trkpt><trkpt lat="30.93483353" lon="34.78442001"><ele>514.7</ele><time>2013-11-20T08:57:34.0000000+00:00</time></trkpt><trkpt lat="30.93476677" lon="34.78437424"><ele>515.4</ele><time>2013-11-20T08:57:39.0000000+00:00</time></trkpt><trkpt lat="30.93468857" lon="34.78432465"><ele>516.2</ele><time>2013-11-20T08:57:44.0000000+00:00</time></trkpt><trkpt lat="30.93457413" lon="34.78427887"><ele>515.6</ele><time>2013-11-20T08:57:49.0000000+00:00</time></trkpt><trkpt lat="30.93445969" lon="34.78423309"><ele>516.4</ele><time>2013-11-20T08:57:54.0000000+00:00</time></trkpt><trkpt lat="30.93433189" lon="34.78416443"><ele>513.3</ele><time>2013-11-20T08:57:59.0000000+00:00</time></trkpt><trkpt lat="30.93418884" lon="34.78407669"><ele>510.1</ele><time>2013-11-20T08:58:04.0000000+00:00</time></trkpt><trkpt lat="30.93400574" lon="34.78397751"><ele>507.4</ele><time>2013-11-20T08:58:09.0000000+00:00</time></trkpt><trkpt lat="30.93384552" lon="34.78394318"><ele>509.2</ele><time>2013-11-20T08:58:14.0000000+00:00</time></trkpt><trkpt lat="30.93372345" lon="34.78390884"><ele>509.2</ele><time>2013-11-20T08:58:19.0000000+00:00</time></trkpt><trkpt lat="30.93364143" lon="34.78388214"><ele>513.7</ele><time>2013-11-20T08:58:24.0000000+00:00</time></trkpt><trkpt lat="30.93356133" lon="34.78384018"><ele>513.2</ele><time>2013-11-20T08:58:29.0000000+00:00</time></trkpt><trkpt lat="30.93347168" lon="34.78380203"><ele>512.0</ele><time>2013-11-20T08:58:34.0000000+00:00</time></trkpt><trkpt lat="30.93338394" lon="34.78376389"><ele>512.2</ele><time>2013-11-20T08:58:39.0000000+00:00</time></trkpt><trkpt lat="30.9332962" lon="34.78372192"><ele>512.0</ele><time>2013-11-20T08:58:44.0000000+00:00</time></trkpt><trkpt lat="30.93321991" lon="34.78368378"><ele>514.1</ele><time>2013-11-20T08:58:49.0000000+00:00</time></trkpt><trkpt lat="30.93314171" lon="34.78364182"><ele>515.1</ele><time>2013-11-20T08:58:54.0000000+00:00</time></trkpt><trkpt lat="30.93309212" lon="34.78359985"><ele>517.8</ele><time>2013-11-20T08:58:59.0000000+00:00</time></trkpt><trkpt lat="30.93305206" lon="34.78357315"><ele>518.4</ele><time>2013-11-20T08:59:04.0000000+00:00</time></trkpt><trkpt lat="30.93304825" lon="34.78357315"><ele>517.8</ele><time>2013-11-20T08:59:09.0000000+00:00</time></trkpt><trkpt lat="30.93305397" lon="34.78356934"><ele>517.8</ele><time>2013-11-20T08:59:14.0000000+00:00</time></trkpt><trkpt lat="30.93305397" lon="34.78356934"><ele>517.8</ele><time>2013-11-20T08:59:19.0000000+00:00</time></trkpt><trkpt lat="30.93305588" lon="34.78356934"><ele>517.8</ele><time>2013-11-20T08:59:24.0000000+00:00</time></trkpt><trkpt lat="30.93305969" lon="34.78356552"><ele>518.1</ele><time>2013-11-20T08:59:29.0000000+00:00</time></trkpt><trkpt lat="30.93305969" lon="34.78356552"><ele>518.4</ele><time>2013-11-20T08:59:34.0000000+00:00</time></trkpt><trkpt lat="30.9330616" lon="34.78356552"><ele>518.5</ele><time>2013-11-20T08:59:39.0000000+00:00</time></trkpt><trkpt lat="30.9330616" lon="34.78356552"><ele>518.6</ele><time>2013-11-20T08:59:44.0000000+00:00</time></trkpt><trkpt lat="30.9330616" lon="34.78356552"><ele>518.6</ele><time>2013-11-20T08:59:49.0000000+00:00</time></trkpt><trkpt lat="30.9330616" lon="34.78356552"><ele>518.6</ele><time>2013-11-20T08:59:54.0000000+00:00</time></trkpt><trkpt lat="30.9330616" lon="34.78356552"><ele>518.6</ele><time>2013-11-20T08:59:59.0000000+00:00</time></trkpt><trkpt lat="30.9330616" lon="34.78356552"><ele>518.6</ele><time>2013-11-20T09:00:04.0000000+00:00</time></trkpt><trkpt lat="30.9330616" lon="34.78356552"><ele>518.6</ele><time>2013-11-20T09:00:09.0000000+00:00</time></trkpt><trkpt lat="30.9330616" lon="34.78356552"><ele>518.6</ele><time>2013-11-20T09:00:14.0000000+00:00</time></trkpt><trkpt lat="30.9330616" lon="34.78356552"><ele>518.6</ele><time>2013-11-20T09:00:19.0000000+00:00</time></trkpt><trkpt lat="30.93304062" lon="34.78356171"><ele>518.5</ele><time>2013-11-20T09:00:24.0000000+00:00</time></trkpt><trkpt lat="30.93291855" lon="34.78350449"><ele>518.2</ele><time>2013-11-20T09:00:29.0000000+00:00</time></trkpt><trkpt lat="30.93271637" lon="34.78341293"><ele>517.5</ele><time>2013-11-20T09:00:34.0000000+00:00</time></trkpt><trkpt lat="30.93240166" lon="34.78327942"><ele>513.8</ele><time>2013-11-20T09:00:39.0000000+00:00</time></trkpt><trkpt lat="30.93208885" lon="34.78314209"><ele>513.4</ele><time>2013-11-20T09:00:44.0000000+00:00</time></trkpt><trkpt lat="30.93179512" lon="34.78300476"><ele>512.7</ele><time>2013-11-20T09:00:49.0000000+00:00</time></trkpt><trkpt lat="30.93152428" lon="34.78288269"><ele>511.8</ele><time>2013-11-20T09:00:54.0000000+00:00</time></trkpt><trkpt lat="30.93125343" lon="34.78277206"><ele>510.2</ele><time>2013-11-20T09:00:59.0000000+00:00</time></trkpt><trkpt lat="30.93087387" lon="34.7826004"><ele>504.8</ele><time>2013-11-20T09:01:04.0000000+00:00</time></trkpt><trkpt lat="30.93053055" lon="34.78245544"><ele>506.0</ele><time>2013-11-20T09:01:09.0000000+00:00</time></trkpt><trkpt lat="30.93022919" lon="34.78231812"><ele>502.2</ele><time>2013-11-20T09:01:14.0000000+00:00</time></trkpt><trkpt lat="30.92980957" lon="34.78213882"><ele>498.4</ele><time>2013-11-20T09:01:19.0000000+00:00</time></trkpt><trkpt lat="30.92937851" lon="34.78195953"><ele>496.7</ele><time>2013-11-20T09:01:24.0000000+00:00</time></trkpt><trkpt lat="30.92893791" lon="34.78176498"><ele>496.3</ele><time>2013-11-20T09:01:29.0000000+00:00</time></trkpt><trkpt lat="30.92850876" lon="34.78158569"><ele>495.0</ele><time>2013-11-20T09:01:34.0000000+00:00</time></trkpt><trkpt lat="30.92808914" lon="34.7814064"><ele>494.5</ele><time>2013-11-20T09:01:39.0000000+00:00</time></trkpt><trkpt lat="30.92769623" lon="34.78120804"><ele>493.7</ele><time>2013-11-20T09:01:44.0000000+00:00</time></trkpt><trkpt lat="30.92729569" lon="34.78103256"><ele>494.0</ele><time>2013-11-20T09:01:49.0000000+00:00</time></trkpt><trkpt lat="30.92694664" lon="34.78091431"><ele>496.6</ele><time>2013-11-20T09:01:54.0000000+00:00</time></trkpt><trkpt lat="30.92667007" lon="34.78079987"><ele>497.9</ele><time>2013-11-20T09:01:59.0000000+00:00</time></trkpt><trkpt lat="30.92642212" lon="34.78070831"><ele>497.3</ele><time>2013-11-20T09:02:04.0000000+00:00</time></trkpt><trkpt lat="30.92606163" lon="34.78055573"><ele>490.5</ele><time>2013-11-20T09:02:09.0000000+00:00</time></trkpt><trkpt lat="30.92572594" lon="34.78042221"><ele>493.5</ele><time>2013-11-20T09:02:14.0000000+00:00</time></trkpt><trkpt lat="30.92546463" lon="34.7803154"><ele>492.4</ele><time>2013-11-20T09:02:19.0000000+00:00</time></trkpt><trkpt lat="30.9251442" lon="34.78016663"><ele>491.5</ele><time>2013-11-20T09:02:24.0000000+00:00</time></trkpt><trkpt lat="30.92492676" lon="34.78006744"><ele>495.1</ele><time>2013-11-20T09:02:29.0000000+00:00</time></trkpt><trkpt lat="30.92477799" lon="34.78002167"><ele>496.8</ele><time>2013-11-20T09:02:34.0000000+00:00</time></trkpt><trkpt lat="30.92465782" lon="34.77999497"><ele>496.7</ele><time>2013-11-20T09:02:39.0000000+00:00</time></trkpt><trkpt lat="30.92452431" lon="34.77995682"><ele>496.8</ele><time>2013-11-20T09:02:44.0000000+00:00</time></trkpt><trkpt lat="30.92429543" lon="34.77994537"><ele>496.0</ele><time>2013-11-20T09:02:49.0000000+00:00</time></trkpt><trkpt lat="30.92391205" lon="34.779953"><ele>493.5</ele><time>2013-11-20T09:02:54.0000000+00:00</time></trkpt><trkpt lat="30.92359161" lon="34.77997971"><ele>496.6</ele><time>2013-11-20T09:02:59.0000000+00:00</time></trkpt><trkpt lat="30.9233551" lon="34.77999115"><ele>497.7</ele><time>2013-11-20T09:03:04.0000000+00:00</time></trkpt><trkpt lat="30.92300606" lon="34.77997971"><ele>492.7</ele><time>2013-11-20T09:03:09.0000000+00:00</time></trkpt><trkpt lat="30.92259407" lon="34.77997971"><ele>489.7</ele><time>2013-11-20T09:03:14.0000000+00:00</time></trkpt><trkpt lat="30.92224884" lon="34.77999115"><ele>486.8</ele><time>2013-11-20T09:03:19.0000000+00:00</time></trkpt><trkpt lat="30.92185974" lon="34.78000259"><ele>480.7</ele><time>2013-11-20T09:03:24.0000000+00:00</time></trkpt><trkpt lat="30.92135048" lon="34.77999878"><ele>474.3</ele><time>2013-11-20T09:03:29.0000000+00:00</time></trkpt><trkpt lat="30.92093658" lon="34.77998352"><ele>473.9</ele><time>2013-11-20T09:03:34.0000000+00:00</time></trkpt><trkpt lat="30.9207325" lon="34.77998352"><ele>476.5</ele><time>2013-11-20T09:03:39.0000000+00:00</time></trkpt><trkpt lat="30.9206562" lon="34.77998734"><ele>476.3</ele><time>2013-11-20T09:03:44.0000000+00:00</time></trkpt><trkpt lat="30.9205761" lon="34.77999115"><ele>478.4</ele><time>2013-11-20T09:03:49.0000000+00:00</time></trkpt><trkpt lat="30.92048836" lon="34.77999115"><ele>480.5</ele><time>2013-11-20T09:03:54.0000000+00:00</time></trkpt><trkpt lat="30.9204216" lon="34.77998734"><ele>481.5</ele><time>2013-11-20T09:03:59.0000000+00:00</time></trkpt><trkpt lat="30.92032814" lon="34.77998734"><ele>482.8</ele><time>2013-11-20T09:04:04.0000000+00:00</time></trkpt><trkpt lat="30.92022896" lon="34.77998352"><ele>484.3</ele><time>2013-11-20T09:04:09.0000000+00:00</time></trkpt><trkpt lat="30.92017174" lon="34.77998734"><ele>485.7</ele><time>2013-11-20T09:04:14.0000000+00:00</time></trkpt><trkpt lat="30.92010498" lon="34.77999497"><ele>485.1</ele><time>2013-11-20T09:04:19.0000000+00:00</time></trkpt><trkpt lat="30.92004776" lon="34.78002548"><ele>485.2</ele><time>2013-11-20T09:04:24.0000000+00:00</time></trkpt><trkpt lat="30.92001343" lon="34.78003693"><ele>485.0</ele><time>2013-11-20T09:04:29.0000000+00:00</time></trkpt><trkpt lat="30.91975594" lon="34.78004074"><ele>481.4</ele><time>2013-11-20T09:04:34.0000000+00:00</time></trkpt><trkpt lat="30.91933632" lon="34.78007507"><ele>476.4</ele><time>2013-11-20T09:04:39.0000000+00:00</time></trkpt><trkpt lat="30.91888428" lon="34.78013229"><ele>471.1</ele><time>2013-11-20T09:04:44.0000000+00:00</time></trkpt><trkpt lat="30.91830254" lon="34.78018189"><ele>467.0</ele><time>2013-11-20T09:04:49.0000000+00:00</time></trkpt><trkpt lat="30.91773987" lon="34.78019714"><ele>462.6</ele><time>2013-11-20T09:04:54.0000000+00:00</time></trkpt><trkpt lat="30.91718102" lon="34.78020096"><ele>454.8</ele><time>2013-11-20T09:04:59.0000000+00:00</time></trkpt><trkpt lat="30.91665268" lon="34.78029251"><ele>449.4</ele><time>2013-11-20T09:05:04.0000000+00:00</time></trkpt><trkpt lat="30.91618919" lon="34.78036881"><ele>444.1</ele><time>2013-11-20T09:05:09.0000000+00:00</time></trkpt><trkpt lat="30.91586876" lon="34.78038406"><ele>444.9</ele><time>2013-11-20T09:05:14.0000000+00:00</time></trkpt><trkpt lat="30.91571236" lon="34.78038025"><ele>445.3</ele><time>2013-11-20T09:05:19.0000000+00:00</time></trkpt><trkpt lat="30.91555595" lon="34.78039169"><ele>447.5</ele><time>2013-11-20T09:05:24.0000000+00:00</time></trkpt><trkpt lat="30.91534615" lon="34.78044128"><ele>446.9</ele><time>2013-11-20T09:05:29.0000000+00:00</time></trkpt><trkpt lat="30.91517067" lon="34.78045654"><ele>450.4</ele><time>2013-11-20T09:05:34.0000000+00:00</time></trkpt><trkpt lat="30.91500092" lon="34.78048325"><ele>451.4</ele><time>2013-11-20T09:05:39.0000000+00:00</time></trkpt><trkpt lat="30.91480827" lon="34.78051376"><ele>452.4</ele><time>2013-11-20T09:05:44.0000000+00:00</time></trkpt><trkpt lat="30.91460037" lon="34.78053284"><ele>453.3</ele><time>2013-11-20T09:05:49.0000000+00:00</time></trkpt><trkpt lat="30.91440964" lon="34.78055573"><ele>455.4</ele><time>2013-11-20T09:05:54.0000000+00:00</time></trkpt><trkpt lat="30.91426086" lon="34.78057861"><ele>457.5</ele><time>2013-11-20T09:05:59.0000000+00:00</time></trkpt><trkpt lat="30.91409111" lon="34.78059006"><ele>457.6</ele><time>2013-11-20T09:06:04.0000000+00:00</time></trkpt><trkpt lat="30.91390801" lon="34.78059387"><ele>458.2</ele><time>2013-11-20T09:06:09.0000000+00:00</time></trkpt><trkpt lat="30.91375923" lon="34.78061676"><ele>464.7</ele><time>2013-11-20T09:06:14.0000000+00:00</time></trkpt><trkpt lat="30.91363525" lon="34.78064346"><ele>466.7</ele><time>2013-11-20T09:06:19.0000000+00:00</time></trkpt><trkpt lat="30.91352081" lon="34.78067398"><ele>472.5</ele><time>2013-11-20T09:06:24.0000000+00:00</time></trkpt><trkpt lat="30.91337585" lon="34.78068924"><ele>475.0</ele><time>2013-11-20T09:06:29.0000000+00:00</time></trkpt><trkpt lat="30.91316605" lon="34.78068924"><ele>474.4</ele><time>2013-11-20T09:06:34.0000000+00:00</time></trkpt><trkpt lat="30.91287422" lon="34.7807045"><ele>472.7</ele><time>2013-11-20T09:06:39.0000000+00:00</time></trkpt><trkpt lat="30.91260529" lon="34.78071594"><ele>473.2</ele><time>2013-11-20T09:06:44.0000000+00:00</time></trkpt><trkpt lat="30.91240501" lon="34.78071594"><ele>473.9</ele><time>2013-11-20T09:06:49.0000000+00:00</time></trkpt><trkpt lat="30.91222191" lon="34.78071594"><ele>475.7</ele><time>2013-11-20T09:06:54.0000000+00:00</time></trkpt><trkpt lat="30.91207123" lon="34.78072739"><ele>477.8</ele><time>2013-11-20T09:06:59.0000000+00:00</time></trkpt><trkpt lat="30.91195869" lon="34.78073502"><ele>480.2</ele><time>2013-11-20T09:07:04.0000000+00:00</time></trkpt><trkpt lat="30.9118557" lon="34.7807579"><ele>482.4</ele><time>2013-11-20T09:07:09.0000000+00:00</time></trkpt><trkpt lat="30.91174507" lon="34.78076172"><ele>483.2</ele><time>2013-11-20T09:07:14.0000000+00:00</time></trkpt><trkpt lat="30.91160584" lon="34.78077698"><ele>482.9</ele><time>2013-11-20T09:07:19.0000000+00:00</time></trkpt><trkpt lat="30.91137695" lon="34.78078461"><ele>480.9</ele><time>2013-11-20T09:07:24.0000000+00:00</time></trkpt><trkpt lat="30.91112709" lon="34.78079987"><ele>482.0</ele><time>2013-11-20T09:07:29.0000000+00:00</time></trkpt><trkpt lat="30.91090965" lon="34.78082275"><ele>481.1</ele><time>2013-11-20T09:07:34.0000000+00:00</time></trkpt><trkpt lat="30.91065979" lon="34.7808609"><ele>479.7</ele><time>2013-11-20T09:07:39.0000000+00:00</time></trkpt><trkpt lat="30.91049957" lon="34.78087616"><ele>478.6</ele><time>2013-11-20T09:07:44.0000000+00:00</time></trkpt><trkpt lat="30.91039276" lon="34.78083801"><ele>480.9</ele><time>2013-11-20T09:07:49.0000000+00:00</time></trkpt><trkpt lat="30.91025162" lon="34.78084564"><ele>483.2</ele><time>2013-11-20T09:07:54.0000000+00:00</time></trkpt><trkpt lat="30.91010857" lon="34.78077316"><ele>482.4</ele><time>2013-11-20T09:07:59.0000000+00:00</time></trkpt><trkpt lat="30.90991211" lon="34.78064346"><ele>479.8</ele><time>2013-11-20T09:08:04.0000000+00:00</time></trkpt><trkpt lat="30.90973091" lon="34.78048325"><ele>477.7</ele><time>2013-11-20T09:08:09.0000000+00:00</time></trkpt><trkpt lat="30.90957451" lon="34.78038025"><ele>475.4</ele><time>2013-11-20T09:08:14.0000000+00:00</time></trkpt><trkpt lat="30.90942955" lon="34.78026962"><ele>475.8</ele><time>2013-11-20T09:08:19.0000000+00:00</time></trkpt><trkpt lat="30.90928078" lon="34.78017044"><ele>475.9</ele><time>2013-11-20T09:08:24.0000000+00:00</time></trkpt><trkpt lat="30.90923119" lon="34.78001404"><ele>475.6</ele><time>2013-11-20T09:08:29.0000000+00:00</time></trkpt><trkpt lat="30.90925789" lon="34.77983856"><ele>475.9</ele><time>2013-11-20T09:08:34.0000000+00:00</time></trkpt><trkpt lat="30.90931702" lon="34.77962875"><ele>473.1</ele><time>2013-11-20T09:08:39.0000000+00:00</time></trkpt><trkpt lat="30.90941429" lon="34.77935791"><ele>471.7</ele><time>2013-11-20T09:08:44.0000000+00:00</time></trkpt><trkpt lat="30.90953064" lon="34.77909088"><ele>471.1</ele><time>2013-11-20T09:08:49.0000000+00:00</time></trkpt><trkpt lat="30.90963364" lon="34.77882767"><ele>470.7</ele><time>2013-11-20T09:08:54.0000000+00:00</time></trkpt><trkpt lat="30.9097271" lon="34.77858353"><ele>469.5</ele><time>2013-11-20T09:08:59.0000000+00:00</time></trkpt><trkpt lat="30.90981102" lon="34.77840424"><ele>469.5</ele><time>2013-11-20T09:09:04.0000000+00:00</time></trkpt><trkpt lat="30.90979958" lon="34.77824783"><ele>469.2</ele><time>2013-11-20T09:09:09.0000000+00:00</time></trkpt><trkpt lat="30.90982819" lon="34.77812958"><ele>469.7</ele><time>2013-11-20T09:09:14.0000000+00:00</time></trkpt><trkpt lat="30.90981484" lon="34.77807236"><ele>469.1</ele><time>2013-11-20T09:09:19.0000000+00:00</time></trkpt><trkpt lat="30.90975189" lon="34.77799606"><ele>468.1</ele><time>2013-11-20T09:09:24.0000000+00:00</time></trkpt><trkpt lat="30.90963936" lon="34.77799988"><ele>468.5</ele><time>2013-11-20T09:09:29.0000000+00:00</time></trkpt><trkpt lat="30.90950584" lon="34.77801895"><ele>468.4</ele><time>2013-11-20T09:09:34.0000000+00:00</time></trkpt><trkpt lat="30.90932846" lon="34.77804184"><ele>468.7</ele><time>2013-11-20T09:09:39.0000000+00:00</time></trkpt><trkpt lat="30.909132" lon="34.77806473"><ele>468.4</ele><time>2013-11-20T09:09:44.0000000+00:00</time></trkpt><trkpt lat="30.90891647" lon="34.77801895"><ele>469.1</ele><time>2013-11-20T09:09:49.0000000+00:00</time></trkpt><trkpt lat="30.90869713" lon="34.77789307"><ele>472.3</ele><time>2013-11-20T09:09:54.0000000+00:00</time></trkpt><trkpt lat="30.90854454" lon="34.7776947"><ele>473.0</ele><time>2013-11-20T09:09:59.0000000+00:00</time></trkpt><trkpt lat="30.90847015" lon="34.77743912"><ele>472.6</ele><time>2013-11-20T09:10:04.0000000+00:00</time></trkpt><trkpt lat="30.90835571" lon="34.77720642"><ele>472.8</ele><time>2013-11-20T09:10:09.0000000+00:00</time></trkpt><trkpt lat="30.90821457" lon="34.77700043"><ele>474.6</ele><time>2013-11-20T09:10:14.0000000+00:00</time></trkpt><trkpt lat="30.90808868" lon="34.77682495"><ele>474.9</ele><time>2013-11-20T09:10:19.0000000+00:00</time></trkpt><trkpt lat="30.90797615" lon="34.7766571"><ele>475.1</ele><time>2013-11-20T09:10:24.0000000+00:00</time></trkpt><trkpt lat="30.9078331" lon="34.77644348"><ele>475.8</ele><time>2013-11-20T09:10:29.0000000+00:00</time></trkpt><trkpt lat="30.90771103" lon="34.77627564"><ele>477.4</ele><time>2013-11-20T09:10:34.0000000+00:00</time></trkpt><trkpt lat="30.9075737" lon="34.77606964"><ele>478.9</ele><time>2013-11-20T09:10:39.0000000+00:00</time></trkpt><trkpt lat="30.90750122" lon="34.77585602"><ele>476.1</ele><time>2013-11-20T09:10:44.0000000+00:00</time></trkpt><trkpt lat="30.90749168" lon="34.77562332"><ele>477.3</ele><time>2013-11-20T09:10:49.0000000+00:00</time></trkpt><trkpt lat="30.90742683" lon="34.77534103"><ele>473.8</ele><time>2013-11-20T09:10:54.0000000+00:00</time></trkpt><trkpt lat="30.90732765" lon="34.77507782"><ele>472.8</ele><time>2013-11-20T09:10:59.0000000+00:00</time></trkpt><trkpt lat="30.90717316" lon="34.77482605"><ele>471.8</ele><time>2013-11-20T09:11:04.0000000+00:00</time></trkpt><trkpt lat="30.90701103" lon="34.77458954"><ele>471.0</ele><time>2013-11-20T09:11:09.0000000+00:00</time></trkpt><trkpt lat="30.90687943" lon="34.77434921"><ele>470.4</ele><time>2013-11-20T09:11:14.0000000+00:00</time></trkpt><trkpt lat="30.90678597" lon="34.77407074"><ele>466.3</ele><time>2013-11-20T09:11:19.0000000+00:00</time></trkpt><trkpt lat="30.90663528" lon="34.77379227"><ele>464.3</ele><time>2013-11-20T09:11:24.0000000+00:00</time></trkpt><trkpt lat="30.90644074" lon="34.77357483"><ele>464.6</ele><time>2013-11-20T09:11:29.0000000+00:00</time></trkpt><trkpt lat="30.90628243" lon="34.77337647"><ele>465.3</ele><time>2013-11-20T09:11:34.0000000+00:00</time></trkpt><trkpt lat="30.90616798" lon="34.77317047"><ele>465.3</ele><time>2013-11-20T09:11:39.0000000+00:00</time></trkpt><trkpt lat="30.90616989" lon="34.77295685"><ele>460.9</ele><time>2013-11-20T09:11:44.0000000+00:00</time></trkpt><trkpt lat="30.90618706" lon="34.77271652"><ele>456.4</ele><time>2013-11-20T09:11:49.0000000+00:00</time></trkpt><trkpt lat="30.90623856" lon="34.77246475"><ele>456.2</ele><time>2013-11-20T09:11:54.0000000+00:00</time></trkpt><trkpt lat="30.90618706" lon="34.77228546"><ele>457.0</ele><time>2013-11-20T09:11:59.0000000+00:00</time></trkpt><trkpt lat="30.90598869" lon="34.7722168"><ele>458.7</ele><time>2013-11-20T09:12:04.0000000+00:00</time></trkpt><trkpt lat="30.90581131" lon="34.7721405"><ele>460.6</ele><time>2013-11-20T09:12:09.0000000+00:00</time></trkpt><trkpt lat="30.90564156" lon="34.77207565"><ele>462.5</ele><time>2013-11-20T09:12:14.0000000+00:00</time></trkpt><trkpt lat="30.90545845" lon="34.77201843"><ele>463.3</ele><time>2013-11-20T09:12:19.0000000+00:00</time></trkpt><trkpt lat="30.90527535" lon="34.77196121"><ele>464.5</ele><time>2013-11-20T09:12:24.0000000+00:00</time></trkpt><trkpt lat="30.90510178" lon="34.77191925"><ele>465.6</ele><time>2013-11-20T09:12:29.0000000+00:00</time></trkpt><trkpt lat="30.90493393" lon="34.77187729"><ele>466.5</ele><time>2013-11-20T09:12:34.0000000+00:00</time></trkpt><trkpt lat="30.90473557" lon="34.77178192"><ele>464.4</ele><time>2013-11-20T09:12:39.0000000+00:00</time></trkpt><trkpt lat="30.90450668" lon="34.77167511"><ele>464.1</ele><time>2013-11-20T09:12:44.0000000+00:00</time></trkpt><trkpt lat="30.90428925" lon="34.7715416"><ele>465.4</ele><time>2013-11-20T09:12:49.0000000+00:00</time></trkpt><trkpt lat="30.90407372" lon="34.7714653"><ele>467.9</ele><time>2013-11-20T09:12:54.0000000+00:00</time></trkpt><trkpt lat="30.90389252" lon="34.77139282"><ele>467.8</ele><time>2013-11-20T09:12:59.0000000+00:00</time></trkpt><trkpt lat="30.90370941" lon="34.77132034"><ele>468.9</ele><time>2013-11-20T09:13:04.0000000+00:00</time></trkpt><trkpt lat="30.90354347" lon="34.77127075"><ele>469.6</ele><time>2013-11-20T09:13:09.0000000+00:00</time></trkpt><trkpt lat="30.90333557" lon="34.7712059"><ele>467.8</ele><time>2013-11-20T09:13:14.0000000+00:00</time></trkpt><trkpt lat="30.9031086" lon="34.77117157"><ele>466.7</ele><time>2013-11-20T09:13:19.0000000+00:00</time></trkpt><trkpt lat="30.90291786" lon="34.77106857"><ele>467.3</ele><time>2013-11-20T09:13:24.0000000+00:00</time></trkpt><trkpt lat="30.90274048" lon="34.77099991"><ele>466.6</ele><time>2013-11-20T09:13:29.0000000+00:00</time></trkpt><trkpt lat="30.90249062" lon="34.77090836"><ele>464.5</ele><time>2013-11-20T09:13:34.0000000+00:00</time></trkpt><trkpt lat="30.90227318" lon="34.77082825"><ele>461.8</ele><time>2013-11-20T09:13:39.0000000+00:00</time></trkpt><trkpt lat="30.90215492" lon="34.77080917"><ele>461.2</ele><time>2013-11-20T09:13:44.0000000+00:00</time></trkpt><trkpt lat="30.90216065" lon="34.77079773"><ele>461.0</ele><time>2013-11-20T09:13:49.0000000+00:00</time></trkpt><trkpt lat="30.90216255" lon="34.77079773"><ele>460.9</ele><time>2013-11-20T09:13:54.0000000+00:00</time></trkpt><trkpt lat="30.90216255" lon="34.7707901"><ele>460.9</ele><time>2013-11-20T09:13:59.0000000+00:00</time></trkpt><trkpt lat="30.90213585" lon="34.7707901"><ele>460.8</ele><time>2013-11-20T09:14:04.0000000+00:00</time></trkpt><trkpt lat="30.90210152" lon="34.77076721"><ele>460.3</ele><time>2013-11-20T09:14:09.0000000+00:00</time></trkpt><trkpt lat="30.90209961" lon="34.7707634"><ele>460.3</ele><time>2013-11-20T09:14:14.0000000+00:00</time></trkpt><trkpt lat="30.90202141" lon="34.77075577"><ele>460.7</ele><time>2013-11-20T09:14:19.0000000+00:00</time></trkpt><trkpt lat="30.90186501" lon="34.77079392"><ele>461.2</ele><time>2013-11-20T09:14:24.0000000+00:00</time></trkpt><trkpt lat="30.90167999" lon="34.77085877"><ele>460.5</ele><time>2013-11-20T09:14:29.0000000+00:00</time></trkpt><trkpt lat="30.90146446" lon="34.77093887"><ele>459.4</ele><time>2013-11-20T09:14:34.0000000+00:00</time></trkpt><trkpt lat="30.90122223" lon="34.77104569"><ele>457.5</ele><time>2013-11-20T09:14:39.0000000+00:00</time></trkpt><trkpt lat="30.90097618" lon="34.77115631"><ele>458.2</ele><time>2013-11-20T09:14:44.0000000+00:00</time></trkpt><trkpt lat="30.90074539" lon="34.77124405"><ele>458.3</ele><time>2013-11-20T09:14:49.0000000+00:00</time></trkpt><trkpt lat="30.9005127" lon="34.77132416"><ele>458.1</ele><time>2013-11-20T09:14:54.0000000+00:00</time></trkpt><trkpt lat="30.90027809" lon="34.77140427"><ele>458.1</ele><time>2013-11-20T09:14:59.0000000+00:00</time></trkpt><trkpt lat="30.90006256" lon="34.77147675"><ele>457.8</ele><time>2013-11-20T09:15:04.0000000+00:00</time></trkpt><trkpt lat="30.89983749" lon="34.77153397"><ele>457.9</ele><time>2013-11-20T09:15:09.0000000+00:00</time></trkpt><trkpt lat="30.89960671" lon="34.77160263"><ele>458.1</ele><time>2013-11-20T09:15:14.0000000+00:00</time></trkpt><trkpt lat="30.89938736" lon="34.77166367"><ele>458.0</ele><time>2013-11-20T09:15:19.0000000+00:00</time></trkpt><trkpt lat="30.89916992" lon="34.77174377"><ele>458.4</ele><time>2013-11-20T09:15:24.0000000+00:00</time></trkpt><trkpt lat="30.89896774" lon="34.77182388"><ele>459.0</ele><time>2013-11-20T09:15:29.0000000+00:00</time></trkpt><trkpt lat="30.8987484" lon="34.77190018"><ele>458.4</ele><time>2013-11-20T09:15:34.0000000+00:00</time></trkpt><trkpt lat="30.89852524" lon="34.77198029"><ele>458.2</ele><time>2013-11-20T09:15:39.0000000+00:00</time></trkpt><trkpt lat="30.8983078" lon="34.77204895"><ele>457.7</ele><time>2013-11-20T09:15:44.0000000+00:00</time></trkpt><trkpt lat="30.8980732" lon="34.77213287"><ele>457.1</ele><time>2013-11-20T09:15:49.0000000+00:00</time></trkpt><trkpt lat="30.89786339" lon="34.77219772"><ele>457.2</ele><time>2013-11-20T09:15:54.0000000+00:00</time></trkpt><trkpt lat="30.89763832" lon="34.77228546"><ele>456.6</ele><time>2013-11-20T09:15:59.0000000+00:00</time></trkpt><trkpt lat="30.89743424" lon="34.77236939"><ele>457.1</ele><time>2013-11-20T09:16:04.0000000+00:00</time></trkpt><trkpt lat="30.8972168" lon="34.77248383"><ele>456.5</ele><time>2013-11-20T09:16:09.0000000+00:00</time></trkpt><trkpt lat="30.89695358" lon="34.7725029"><ele>455.4</ele><time>2013-11-20T09:16:14.0000000+00:00</time></trkpt><trkpt lat="30.89671516" lon="34.77254486"><ele>455.8</ele><time>2013-11-20T09:16:19.0000000+00:00</time></trkpt><trkpt lat="30.89648819" lon="34.77261734"><ele>456.0</ele><time>2013-11-20T09:16:24.0000000+00:00</time></trkpt><trkpt lat="30.8962822" lon="34.77272797"><ele>455.5</ele><time>2013-11-20T09:16:29.0000000+00:00</time></trkpt><trkpt lat="30.89609909" lon="34.77281952"><ele>455.9</ele><time>2013-11-20T09:16:34.0000000+00:00</time></trkpt><trkpt lat="30.89588738" lon="34.772892"><ele>456.9</ele><time>2013-11-20T09:16:39.0000000+00:00</time></trkpt><trkpt lat="30.8956852" lon="34.77296448"><ele>457.8</ele><time>2013-11-20T09:16:44.0000000+00:00</time></trkpt><trkpt lat="30.89549255" lon="34.77306366"><ele>457.5</ele><time>2013-11-20T09:16:49.0000000+00:00</time></trkpt><trkpt lat="30.89529228" lon="34.77312851"><ele>458.3</ele><time>2013-11-20T09:16:54.0000000+00:00</time></trkpt><trkpt lat="30.89510155" lon="34.77319717"><ele>459.0</ele><time>2013-11-20T09:16:59.0000000+00:00</time></trkpt><trkpt lat="30.89490318" lon="34.77326584"><ele>458.2</ele><time>2013-11-20T09:17:04.0000000+00:00</time></trkpt><trkpt lat="30.89472008" lon="34.77333069"><ele>458.6</ele><time>2013-11-20T09:17:09.0000000+00:00</time></trkpt><trkpt lat="30.89452553" lon="34.77339172"><ele>458.5</ele><time>2013-11-20T09:17:14.0000000+00:00</time></trkpt><trkpt lat="30.89434052" lon="34.77346039"><ele>459.6</ele><time>2013-11-20T09:17:19.0000000+00:00</time></trkpt><trkpt lat="30.89414215" lon="34.77352905"><ele>459.9</ele><time>2013-11-20T09:17:24.0000000+00:00</time></trkpt><trkpt lat="30.89394569" lon="34.77360916"><ele>460.2</ele><time>2013-11-20T09:17:29.0000000+00:00</time></trkpt><trkpt lat="30.89373398" lon="34.77368927"><ele>459.7</ele><time>2013-11-20T09:17:34.0000000+00:00</time></trkpt><trkpt lat="30.89350891" lon="34.77375794"><ele>459.7</ele><time>2013-11-20T09:17:39.0000000+00:00</time></trkpt><trkpt lat="30.89328384" lon="34.77383041"><ele>459.6</ele><time>2013-11-20T09:17:44.0000000+00:00</time></trkpt><trkpt lat="30.89307404" lon="34.77389908"><ele>460.4</ele><time>2013-11-20T09:17:49.0000000+00:00</time></trkpt><trkpt lat="30.89286995" lon="34.77397919"><ele>460.9</ele><time>2013-11-20T09:17:54.0000000+00:00</time></trkpt><trkpt lat="30.89266396" lon="34.7740593"><ele>461.6</ele><time>2013-11-20T09:17:59.0000000+00:00</time></trkpt><trkpt lat="30.89245987" lon="34.77412796"><ele>462.2</ele><time>2013-11-20T09:18:04.0000000+00:00</time></trkpt><trkpt lat="30.89225197" lon="34.77420425"><ele>461.6</ele><time>2013-11-20T09:18:09.0000000+00:00</time></trkpt><trkpt lat="30.89203644" lon="34.77425003"><ele>461.7</ele><time>2013-11-20T09:18:14.0000000+00:00</time></trkpt><trkpt lat="30.89183044" lon="34.77432632"><ele>461.8</ele><time>2013-11-20T09:18:19.0000000+00:00</time></trkpt><trkpt lat="30.89160538" lon="34.7743988"><ele>461.3</ele><time>2013-11-20T09:18:24.0000000+00:00</time></trkpt><trkpt lat="30.89138413" lon="34.77449036"><ele>461.1</ele><time>2013-11-20T09:18:29.0000000+00:00</time></trkpt><trkpt lat="30.89117241" lon="34.77457047"><ele>461.1</ele><time>2013-11-20T09:18:34.0000000+00:00</time></trkpt><trkpt lat="30.89095116" lon="34.77465439"><ele>460.7</ele><time>2013-11-20T09:18:39.0000000+00:00</time></trkpt><trkpt lat="30.8907299" lon="34.77471542"><ele>461.1</ele><time>2013-11-20T09:18:44.0000000+00:00</time></trkpt><trkpt lat="30.89050102" lon="34.77477646"><ele>461.0</ele><time>2013-11-20T09:18:49.0000000+00:00</time></trkpt><trkpt lat="30.89029312" lon="34.77483368"><ele>460.9</ele><time>2013-11-20T09:18:54.0000000+00:00</time></trkpt><trkpt lat="30.89006043" lon="34.77484894"><ele>460.0</ele><time>2013-11-20T09:18:59.0000000+00:00</time></trkpt><trkpt lat="30.88984871" lon="34.77486038"><ele>459.3</ele><time>2013-11-20T09:19:04.0000000+00:00</time></trkpt><trkpt lat="30.8896389" lon="34.77487564"><ele>459.3</ele><time>2013-11-20T09:19:09.0000000+00:00</time></trkpt><trkpt lat="30.88941193" lon="34.77490616"><ele>459.4</ele><time>2013-11-20T09:19:14.0000000+00:00</time></trkpt><trkpt lat="30.88919067" lon="34.77492905"><ele>460.1</ele><time>2013-11-20T09:19:19.0000000+00:00</time></trkpt><trkpt lat="30.88896561" lon="34.77497482"><ele>460.5</ele><time>2013-11-20T09:19:24.0000000+00:00</time></trkpt><trkpt lat="30.88874626" lon="34.77501679"><ele>460.6</ele><time>2013-11-20T09:19:29.0000000+00:00</time></trkpt><trkpt lat="30.88853645" lon="34.77505112"><ele>461.0</ele><time>2013-11-20T09:19:34.0000000+00:00</time></trkpt><trkpt lat="30.88832283" lon="34.77508164"><ele>461.0</ele><time>2013-11-20T09:19:39.0000000+00:00</time></trkpt><trkpt lat="30.88809204" lon="34.77509689"><ele>461.5</ele><time>2013-11-20T09:19:44.0000000+00:00</time></trkpt><trkpt lat="30.88786507" lon="34.77510834"><ele>461.8</ele><time>2013-11-20T09:19:49.0000000+00:00</time></trkpt><trkpt lat="30.88764" lon="34.77512741"><ele>461.7</ele><time>2013-11-20T09:19:54.0000000+00:00</time></trkpt><trkpt lat="30.88741303" lon="34.7751503"><ele>462.4</ele><time>2013-11-20T09:19:59.0000000+00:00</time></trkpt><trkpt lat="30.88718605" lon="34.7751503"><ele>462.6</ele><time>2013-11-20T09:20:04.0000000+00:00</time></trkpt><trkpt lat="30.8869648" lon="34.77516174"><ele>463.6</ele><time>2013-11-20T09:20:09.0000000+00:00</time></trkpt><trkpt lat="30.88677025" lon="34.77521515"><ele>464.9</ele><time>2013-11-20T09:20:14.0000000+00:00</time></trkpt><trkpt lat="30.88660049" lon="34.77523422"><ele>464.6</ele><time>2013-11-20T09:20:19.0000000+00:00</time></trkpt><trkpt lat="30.88652229" lon="34.77522278"><ele>464.0</ele><time>2013-11-20T09:20:24.0000000+00:00</time></trkpt><trkpt lat="30.88653565" lon="34.77526093"><ele>464.0</ele><time>2013-11-20T09:20:29.0000000+00:00</time></trkpt><trkpt lat="30.88662148" lon="34.77529526"><ele>463.9</ele><time>2013-11-20T09:20:34.0000000+00:00</time></trkpt><trkpt lat="30.88664246" lon="34.77529526"><ele>463.4</ele><time>2013-11-20T09:20:39.0000000+00:00</time></trkpt><trkpt lat="30.88664246" lon="34.77529526"><ele>463.4</ele><time>2013-11-20T09:20:44.0000000+00:00</time></trkpt><trkpt lat="30.88664246" lon="34.77529526"><ele>463.4</ele><time>2013-11-20T09:20:49.0000000+00:00</time></trkpt><trkpt lat="30.88664246" lon="34.77529526"><ele>463.4</ele><time>2013-11-20T09:20:54.0000000+00:00</time></trkpt><trkpt lat="30.88664627" lon="34.77528381"><ele>463.2</ele><time>2013-11-20T09:20:59.0000000+00:00</time></trkpt><trkpt lat="30.88666344" lon="34.77526093"><ele>462.0</ele><time>2013-11-20T09:21:04.0000000+00:00</time></trkpt><trkpt lat="30.88666534" lon="34.77526093"><ele>461.7</ele><time>2013-11-20T09:21:09.0000000+00:00</time></trkpt><trkpt lat="30.88666534" lon="34.77526093"><ele>461.7</ele><time>2013-11-20T09:21:14.0000000+00:00</time></trkpt><trkpt lat="30.88666534" lon="34.77526093"><ele>461.7</ele><time>2013-11-20T09:21:19.0000000+00:00</time></trkpt><trkpt lat="30.88666534" lon="34.77526093"><ele>461.7</ele><time>2013-11-20T09:21:24.0000000+00:00</time></trkpt><trkpt lat="30.88666534" lon="34.77526093"><ele>461.6</ele><time>2013-11-20T09:21:29.0000000+00:00</time></trkpt><trkpt lat="30.88666534" lon="34.77526093"><ele>461.6</ele><time>2013-11-20T09:21:34.0000000+00:00</time></trkpt><trkpt lat="30.88666534" lon="34.77526093"><ele>461.6</ele><time>2013-11-20T09:21:39.0000000+00:00</time></trkpt><trkpt lat="30.88666534" lon="34.77526093"><ele>461.6</ele><time>2013-11-20T09:21:44.0000000+00:00</time></trkpt><trkpt lat="30.88666153" lon="34.77526093"><ele>461.6</ele><time>2013-11-20T09:21:49.0000000+00:00</time></trkpt><trkpt lat="30.88654327" lon="34.77526474"><ele>461.6</ele><time>2013-11-20T09:21:54.0000000+00:00</time></trkpt><trkpt lat="30.88637543" lon="34.77526474"><ele>461.6</ele><time>2013-11-20T09:21:59.0000000+00:00</time></trkpt><trkpt lat="30.8861866" lon="34.77526856"><ele>461.0</ele><time>2013-11-20T09:22:04.0000000+00:00</time></trkpt><trkpt lat="30.88599777" lon="34.77528381"><ele>460.0</ele><time>2013-11-20T09:22:09.0000000+00:00</time></trkpt><trkpt lat="30.88579559" lon="34.77527618"><ele>460.0</ele><time>2013-11-20T09:22:14.0000000+00:00</time></trkpt><trkpt lat="30.88558769" lon="34.77526093"><ele>459.9</ele><time>2013-11-20T09:22:19.0000000+00:00</time></trkpt><trkpt lat="30.88537598" lon="34.77529144"><ele>460.0</ele><time>2013-11-20T09:22:24.0000000+00:00</time></trkpt><trkpt lat="30.88516235" lon="34.77532578"><ele>459.0</ele><time>2013-11-20T09:22:29.0000000+00:00</time></trkpt><trkpt lat="30.88495636" lon="34.77533722"><ele>458.4</ele><time>2013-11-20T09:22:34.0000000+00:00</time></trkpt><trkpt lat="30.88477707" lon="34.77535248"><ele>458.0</ele><time>2013-11-20T09:22:39.0000000+00:00</time></trkpt><trkpt lat="30.88460922" lon="34.77538681"><ele>458.3</ele><time>2013-11-20T09:22:44.0000000+00:00</time></trkpt><trkpt lat="30.88443565" lon="34.77538681"><ele>455.4</ele><time>2013-11-20T09:22:49.0000000+00:00</time></trkpt><trkpt lat="30.88422012" lon="34.7754097"><ele>458.2</ele><time>2013-11-20T09:22:54.0000000+00:00</time></trkpt><trkpt lat="30.88399506" lon="34.77544022"><ele>457.2</ele><time>2013-11-20T09:22:59.0000000+00:00</time></trkpt><trkpt lat="30.88379288" lon="34.77553558"><ele>456.6</ele><time>2013-11-20T09:23:04.0000000+00:00</time></trkpt><trkpt lat="30.88358688" lon="34.77555847"><ele>456.2</ele><time>2013-11-20T09:23:09.0000000+00:00</time></trkpt><trkpt lat="30.88338661" lon="34.77557755"><ele>455.7</ele><time>2013-11-20T09:23:14.0000000+00:00</time></trkpt><trkpt lat="30.88315773" lon="34.77561188"><ele>455.2</ele><time>2013-11-20T09:23:19.0000000+00:00</time></trkpt><trkpt lat="30.88295174" lon="34.77574539"><ele>455.2</ele><time>2013-11-20T09:23:24.0000000+00:00</time></trkpt><trkpt lat="30.88276482" lon="34.77587128"><ele>455.3</ele><time>2013-11-20T09:23:29.0000000+00:00</time></trkpt><trkpt lat="30.88258553" lon="34.77603531"><ele>455.8</ele><time>2013-11-20T09:23:34.0000000+00:00</time></trkpt><trkpt lat="30.88242722" lon="34.77618027"><ele>456.4</ele><time>2013-11-20T09:23:39.0000000+00:00</time></trkpt><trkpt lat="30.88227272" lon="34.776371"><ele>458.7</ele><time>2013-11-20T09:23:44.0000000+00:00</time></trkpt><trkpt lat="30.88211441" lon="34.77653503"><ele>460.0</ele><time>2013-11-20T09:23:49.0000000+00:00</time></trkpt><trkpt lat="30.88197517" lon="34.77674103"><ele>461.4</ele><time>2013-11-20T09:23:54.0000000+00:00</time></trkpt><trkpt lat="30.88186073" lon="34.77694702"><ele>461.5</ele><time>2013-11-20T09:23:59.0000000+00:00</time></trkpt><trkpt lat="30.88174248" lon="34.77716065"><ele>462.5</ele><time>2013-11-20T09:24:04.0000000+00:00</time></trkpt><trkpt lat="30.88161469" lon="34.77734375"><ele>463.6</ele><time>2013-11-20T09:24:09.0000000+00:00</time></trkpt><trkpt lat="30.88148689" lon="34.7775383"><ele>465.4</ele><time>2013-11-20T09:24:14.0000000+00:00</time></trkpt><trkpt lat="30.88136864" lon="34.77774811"><ele>466.0</ele><time>2013-11-20T09:24:19.0000000+00:00</time></trkpt><trkpt lat="30.88124847" lon="34.77796555"><ele>466.4</ele><time>2013-11-20T09:24:24.0000000+00:00</time></trkpt><trkpt lat="30.88116646" lon="34.77821732"><ele>468.9</ele><time>2013-11-20T09:24:29.0000000+00:00</time></trkpt><trkpt lat="30.88110161" lon="34.77846527"><ele>469.9</ele><time>2013-11-20T09:24:34.0000000+00:00</time></trkpt><trkpt lat="30.88101196" lon="34.77867889"><ele>468.9</ele><time>2013-11-20T09:24:39.0000000+00:00</time></trkpt><trkpt lat="30.88087463" lon="34.7788887"><ele>467.8</ele><time>2013-11-20T09:24:44.0000000+00:00</time></trkpt><trkpt lat="30.88075638" lon="34.77909088"><ele>466.2</ele><time>2013-11-20T09:24:49.0000000+00:00</time></trkpt><trkpt lat="30.88062477" lon="34.77927399"><ele>465.4</ele><time>2013-11-20T09:24:54.0000000+00:00</time></trkpt><trkpt lat="30.88051033" lon="34.77949905"><ele>466.4</ele><time>2013-11-20T09:24:59.0000000+00:00</time></trkpt><trkpt lat="30.88041496" lon="34.77969742"><ele>469.2</ele><time>2013-11-20T09:25:04.0000000+00:00</time></trkpt><trkpt lat="30.88030815" lon="34.77991486"><ele>470.7</ele><time>2013-11-20T09:25:09.0000000+00:00</time></trkpt><trkpt lat="30.8801899" lon="34.78009415"><ele>472.3</ele><time>2013-11-20T09:25:14.0000000+00:00</time></trkpt><trkpt lat="30.88006783" lon="34.7802887"><ele>473.4</ele><time>2013-11-20T09:25:19.0000000+00:00</time></trkpt><trkpt lat="30.87995529" lon="34.78049851"><ele>474.4</ele><time>2013-11-20T09:25:24.0000000+00:00</time></trkpt><trkpt lat="30.8798523" lon="34.78071594"><ele>475.0</ele><time>2013-11-20T09:25:29.0000000+00:00</time></trkpt><trkpt lat="30.87975311" lon="34.78091812"><ele>474.0</ele><time>2013-11-20T09:25:34.0000000+00:00</time></trkpt><trkpt lat="30.87964058" lon="34.78114319"><ele>474.5</ele><time>2013-11-20T09:25:39.0000000+00:00</time></trkpt><trkpt lat="30.8795166" lon="34.78133392"><ele>472.7</ele><time>2013-11-20T09:25:44.0000000+00:00</time></trkpt><trkpt lat="30.87940979" lon="34.78152847"><ele>472.1</ele><time>2013-11-20T09:25:49.0000000+00:00</time></trkpt><trkpt lat="30.87931252" lon="34.78171921"><ele>473.6</ele><time>2013-11-20T09:25:54.0000000+00:00</time></trkpt><trkpt lat="30.87921524" lon="34.78189468"><ele>472.6</ele><time>2013-11-20T09:25:59.0000000+00:00</time></trkpt><trkpt lat="30.87911987" lon="34.78208542"><ele>473.3</ele><time>2013-11-20T09:26:04.0000000+00:00</time></trkpt><trkpt lat="30.87901878" lon="34.7822876"><ele>471.8</ele><time>2013-11-20T09:26:09.0000000+00:00</time></trkpt><trkpt lat="30.87890244" lon="34.78244782"><ele>468.4</ele><time>2013-11-20T09:26:14.0000000+00:00</time></trkpt><trkpt lat="30.87879372" lon="34.78262711"><ele>470.0</ele><time>2013-11-20T09:26:19.0000000+00:00</time></trkpt><trkpt lat="30.87872124" lon="34.78281021"><ele>468.8</ele><time>2013-11-20T09:26:24.0000000+00:00</time></trkpt><trkpt lat="30.87863159" lon="34.7829895"><ele>467.6</ele><time>2013-11-20T09:26:29.0000000+00:00</time></trkpt><trkpt lat="30.87853241" lon="34.78318024"><ele>468.1</ele><time>2013-11-20T09:26:34.0000000+00:00</time></trkpt><trkpt lat="30.87841988" lon="34.7833519"><ele>468.1</ele><time>2013-11-20T09:26:39.0000000+00:00</time></trkpt><trkpt lat="30.87833595" lon="34.78350067"><ele>468.2</ele><time>2013-11-20T09:26:44.0000000+00:00</time></trkpt><trkpt lat="30.87823868" lon="34.78370285"><ele>468.3</ele><time>2013-11-20T09:26:49.0000000+00:00</time></trkpt><trkpt lat="30.87813377" lon="34.7838707"><ele>467.9</ele><time>2013-11-20T09:26:54.0000000+00:00</time></trkpt><trkpt lat="30.87801933" lon="34.78402329"><ele>468.5</ele><time>2013-11-20T09:26:59.0000000+00:00</time></trkpt><trkpt lat="30.8778801" lon="34.78413773"><ele>470.0</ele><time>2013-11-20T09:27:04.0000000+00:00</time></trkpt><trkpt lat="30.87774086" lon="34.7842598"><ele>470.4</ele><time>2013-11-20T09:27:09.0000000+00:00</time></trkpt><trkpt lat="30.87761498" lon="34.78439331"><ele>469.4</ele><time>2013-11-20T09:27:14.0000000+00:00</time></trkpt><trkpt lat="30.87747002" lon="34.78447723"><ele>471.0</ele><time>2013-11-20T09:27:19.0000000+00:00</time></trkpt><trkpt lat="30.87732697" lon="34.78461456"><ele>472.1</ele><time>2013-11-20T09:27:24.0000000+00:00</time></trkpt><trkpt lat="30.8772316" lon="34.78478241"><ele>471.8</ele><time>2013-11-20T09:27:29.0000000+00:00</time></trkpt><trkpt lat="30.87708473" lon="34.78495026"><ele>473.0</ele><time>2013-11-20T09:27:34.0000000+00:00</time></trkpt><trkpt lat="30.8769474" lon="34.78508759"><ele>473.9</ele><time>2013-11-20T09:27:39.0000000+00:00</time></trkpt><trkpt lat="30.87682533" lon="34.78520966"><ele>472.9</ele><time>2013-11-20T09:27:44.0000000+00:00</time></trkpt><trkpt lat="30.87668991" lon="34.78535843"><ele>473.0</ele><time>2013-11-20T09:27:49.0000000+00:00</time></trkpt><trkpt lat="30.87658501" lon="34.7855072"><ele>470.5</ele><time>2013-11-20T09:27:54.0000000+00:00</time></trkpt><trkpt lat="30.87642479" lon="34.78565598"><ele>469.6</ele><time>2013-11-20T09:27:59.0000000+00:00</time></trkpt><trkpt lat="30.87624359" lon="34.7857933"><ele>470.1</ele><time>2013-11-20T09:28:04.0000000+00:00</time></trkpt><trkpt lat="30.876091" lon="34.78591919"><ele>469.6</ele><time>2013-11-20T09:28:09.0000000+00:00</time></trkpt><trkpt lat="30.87592125" lon="34.78614044"><ele>466.7</ele><time>2013-11-20T09:28:14.0000000+00:00</time></trkpt><trkpt lat="30.87575722" lon="34.78632355"><ele>463.0</ele><time>2013-11-20T09:28:19.0000000+00:00</time></trkpt><trkpt lat="30.87557411" lon="34.78644943"><ele>462.5</ele><time>2013-11-20T09:28:24.0000000+00:00</time></trkpt><trkpt lat="30.87540245" lon="34.78656387"><ele>467.4</ele><time>2013-11-20T09:28:29.0000000+00:00</time></trkpt><trkpt lat="30.87529755" lon="34.78658295"><ele>472.0</ele><time>2013-11-20T09:28:34.0000000+00:00</time></trkpt><trkpt lat="30.87526894" lon="34.78649139"><ele>472.9</ele><time>2013-11-20T09:28:39.0000000+00:00</time></trkpt><trkpt lat="30.87519836" lon="34.78635407"><ele>475.1</ele><time>2013-11-20T09:28:44.0000000+00:00</time></trkpt><trkpt lat="30.87510109" lon="34.78622437"><ele>476.8</ele><time>2013-11-20T09:28:49.0000000+00:00</time></trkpt><trkpt lat="30.8749752" lon="34.78606796"><ele>471.4</ele><time>2013-11-20T09:28:54.0000000+00:00</time></trkpt><trkpt lat="30.87486267" lon="34.78591919"><ele>468.6</ele><time>2013-11-20T09:28:59.0000000+00:00</time></trkpt><trkpt lat="30.87477684" lon="34.78580475"><ele>468.5</ele><time>2013-11-20T09:29:04.0000000+00:00</time></trkpt><trkpt lat="30.87470627" lon="34.78571701"><ele>468.2</ele><time>2013-11-20T09:29:09.0000000+00:00</time></trkpt><trkpt lat="30.87465096" lon="34.78564072"><ele>468.6</ele><time>2013-11-20T09:29:14.0000000+00:00</time></trkpt><trkpt lat="30.87466049" lon="34.78554535"><ele>466.0</ele><time>2013-11-20T09:29:19.0000000+00:00</time></trkpt><trkpt lat="30.87462616" lon="34.78546524"><ele>466.0</ele><time>2013-11-20T09:29:24.0000000+00:00</time></trkpt><trkpt lat="30.87451172" lon="34.78535843"><ele>465.9</ele><time>2013-11-20T09:29:29.0000000+00:00</time></trkpt><trkpt lat="30.87438583" lon="34.7852211"><ele>465.7</ele><time>2013-11-20T09:29:34.0000000+00:00</time></trkpt><trkpt lat="30.87429237" lon="34.78515625"><ele>468.3</ele><time>2013-11-20T09:29:39.0000000+00:00</time></trkpt><trkpt lat="30.87419891" lon="34.78504944"><ele>469.6</ele><time>2013-11-20T09:29:44.0000000+00:00</time></trkpt><trkpt lat="30.87413597" lon="34.78495026"><ele>470.3</ele><time>2013-11-20T09:29:49.0000000+00:00</time></trkpt><trkpt lat="30.87409401" lon="34.78485107"><ele>470.9</ele><time>2013-11-20T09:29:54.0000000+00:00</time></trkpt><trkpt lat="30.87404633" lon="34.78475189"><ele>470.5</ele><time>2013-11-20T09:29:59.0000000+00:00</time></trkpt><trkpt lat="30.8739872" lon="34.78469467"><ele>468.6</ele><time>2013-11-20T09:30:04.0000000+00:00</time></trkpt><trkpt lat="30.87392235" lon="34.78465271"><ele>470.2</ele><time>2013-11-20T09:30:09.0000000+00:00</time></trkpt><trkpt lat="30.87384987" lon="34.78459549"><ele>471.8</ele><time>2013-11-20T09:30:14.0000000+00:00</time></trkpt><trkpt lat="30.8737545" lon="34.78451157"><ele>472.6</ele><time>2013-11-20T09:30:19.0000000+00:00</time></trkpt><trkpt lat="30.87365913" lon="34.78442001"><ele>475.9</ele><time>2013-11-20T09:30:24.0000000+00:00</time></trkpt><trkpt lat="30.8735714" lon="34.78430939"><ele>476.1</ele><time>2013-11-20T09:30:29.0000000+00:00</time></trkpt><trkpt lat="30.87344742" lon="34.7841835"><ele>477.0</ele><time>2013-11-20T09:30:34.0000000+00:00</time></trkpt><trkpt lat="30.87332535" lon="34.78406143"><ele>479.1</ele><time>2013-11-20T09:30:39.0000000+00:00</time></trkpt><trkpt lat="30.87317467" lon="34.78390884"><ele>480.4</ele><time>2013-11-20T09:30:44.0000000+00:00</time></trkpt><trkpt lat="30.87304878" lon="34.78377914"><ele>479.7</ele><time>2013-11-20T09:30:49.0000000+00:00</time></trkpt><trkpt lat="30.87293243" lon="34.78367233"><ele>480.5</ele><time>2013-11-20T09:30:54.0000000+00:00</time></trkpt><trkpt lat="30.87285233" lon="34.78358841"><ele>482.2</ele><time>2013-11-20T09:30:59.0000000+00:00</time></trkpt><trkpt lat="30.87272835" lon="34.78352737"><ele>483.3</ele><time>2013-11-20T09:31:04.0000000+00:00</time></trkpt><trkpt lat="30.87260819" lon="34.78340912"><ele>481.6</ele><time>2013-11-20T09:31:09.0000000+00:00</time></trkpt><trkpt lat="30.87251473" lon="34.78326798"><ele>479.5</ele><time>2013-11-20T09:31:14.0000000+00:00</time></trkpt><trkpt lat="30.87237549" lon="34.78313065"><ele>478.8</ele><time>2013-11-20T09:31:19.0000000+00:00</time></trkpt><trkpt lat="30.8722496" lon="34.7829895"><ele>478.4</ele><time>2013-11-20T09:31:24.0000000+00:00</time></trkpt><trkpt lat="30.87213326" lon="34.78283691"><ele>477.8</ele><time>2013-11-20T09:31:29.0000000+00:00</time></trkpt><trkpt lat="30.87205315" lon="34.78273773"><ele>475.3</ele><time>2013-11-20T09:31:34.0000000+00:00</time></trkpt><trkpt lat="30.87195969" lon="34.78268814"><ele>473.1</ele><time>2013-11-20T09:31:39.0000000+00:00</time></trkpt><trkpt lat="30.87183571" lon="34.78259659"><ele>473.8</ele><time>2013-11-20T09:31:44.0000000+00:00</time></trkpt><trkpt lat="30.8717556" lon="34.7824173"><ele>473.4</ele><time>2013-11-20T09:31:49.0000000+00:00</time></trkpt><trkpt lat="30.87165451" lon="34.78225708"><ele>473.3</ele><time>2013-11-20T09:31:54.0000000+00:00</time></trkpt><trkpt lat="30.87157822" lon="34.78210449"><ele>473.9</ele><time>2013-11-20T09:31:59.0000000+00:00</time></trkpt><trkpt lat="30.87148857" lon="34.78194428"><ele>473.6</ele><time>2013-11-20T09:32:04.0000000+00:00</time></trkpt><trkpt lat="30.87140465" lon="34.78177643"><ele>473.8</ele><time>2013-11-20T09:32:09.0000000+00:00</time></trkpt><trkpt lat="30.87130737" lon="34.7816124"><ele>473.7</ele><time>2013-11-20T09:32:14.0000000+00:00</time></trkpt><trkpt lat="30.87115097" lon="34.78142166"><ele>474.1</ele><time>2013-11-20T09:32:19.0000000+00:00</time></trkpt><trkpt lat="30.87098503" lon="34.78125763"><ele>474.6</ele><time>2013-11-20T09:32:24.0000000+00:00</time></trkpt><trkpt lat="30.87082672" lon="34.78113937"><ele>475.2</ele><time>2013-11-20T09:32:29.0000000+00:00</time></trkpt><trkpt lat="30.87065315" lon="34.78102112"><ele>475.5</ele><time>2013-11-20T09:32:34.0000000+00:00</time></trkpt><trkpt lat="30.87049294" lon="34.78091431"><ele>475.6</ele><time>2013-11-20T09:32:39.0000000+00:00</time></trkpt><trkpt lat="30.87033844" lon="34.78083038"><ele>478.2</ele><time>2013-11-20T09:32:44.0000000+00:00</time></trkpt><trkpt lat="30.87018585" lon="34.78073883"><ele>478.8</ele><time>2013-11-20T09:32:49.0000000+00:00</time></trkpt><trkpt lat="30.87000084" lon="34.78064346"><ele>479.3</ele><time>2013-11-20T09:32:54.0000000+00:00</time></trkpt><trkpt lat="30.8698082" lon="34.78053665"><ele>480.1</ele><time>2013-11-20T09:32:59.0000000+00:00</time></trkpt><trkpt lat="30.86964035" lon="34.7804718"><ele>481.0</ele><time>2013-11-20T09:33:04.0000000+00:00</time></trkpt><trkpt lat="30.86946869" lon="34.78038406"><ele>480.1</ele><time>2013-11-20T09:33:09.0000000+00:00</time></trkpt><trkpt lat="30.86932945" lon="34.78030396"><ele>480.2</ele><time>2013-11-20T09:33:14.0000000+00:00</time></trkpt><trkpt lat="30.86914825" lon="34.7802124"><ele>479.8</ele><time>2013-11-20T09:33:19.0000000+00:00</time></trkpt><trkpt lat="30.86893272" lon="34.78009415"><ele>479.0</ele><time>2013-11-20T09:33:24.0000000+00:00</time></trkpt><trkpt lat="30.86868095" lon="34.779953"><ele>479.9</ele><time>2013-11-20T09:33:29.0000000+00:00</time></trkpt><trkpt lat="30.86846352" lon="34.77981186"><ele>477.2</ele><time>2013-11-20T09:33:34.0000000+00:00</time></trkpt><trkpt lat="30.86826706" lon="34.77972794"><ele>476.6</ele><time>2013-11-20T09:33:39.0000000+00:00</time></trkpt><trkpt lat="30.8680706" lon="34.77960968"><ele>476.0</ele><time>2013-11-20T09:33:44.0000000+00:00</time></trkpt><trkpt lat="30.86787796" lon="34.77949524"><ele>475.9</ele><time>2013-11-20T09:33:49.0000000+00:00</time></trkpt><trkpt lat="30.86767578" lon="34.77937698"><ele>476.2</ele><time>2013-11-20T09:33:54.0000000+00:00</time></trkpt><trkpt lat="30.86748505" lon="34.77926254"><ele>478.8</ele><time>2013-11-20T09:33:59.0000000+00:00</time></trkpt><trkpt lat="30.8672905" lon="34.77914047"><ele>479.4</ele><time>2013-11-20T09:34:04.0000000+00:00</time></trkpt><trkpt lat="30.86709595" lon="34.77901077"><ele>479.3</ele><time>2013-11-20T09:34:09.0000000+00:00</time></trkpt><trkpt lat="30.86690521" lon="34.77889633"><ele>479.5</ele><time>2013-11-20T09:34:14.0000000+00:00</time></trkpt><trkpt lat="30.86669922" lon="34.77877808"><ele>480.1</ele><time>2013-11-20T09:34:19.0000000+00:00</time></trkpt><trkpt lat="30.86648941" lon="34.77863312"><ele>478.1</ele><time>2013-11-20T09:34:24.0000000+00:00</time></trkpt><trkpt lat="30.86628151" lon="34.77849579"><ele>478.2</ele><time>2013-11-20T09:34:29.0000000+00:00</time></trkpt><trkpt lat="30.86608696" lon="34.77837372"><ele>478.5</ele><time>2013-11-20T09:34:34.0000000+00:00</time></trkpt><trkpt lat="30.86588478" lon="34.77823639"><ele>479.6</ele><time>2013-11-20T09:34:39.0000000+00:00</time></trkpt><trkpt lat="30.86569977" lon="34.77811813"><ele>480.2</ele><time>2013-11-20T09:34:44.0000000+00:00</time></trkpt><trkpt lat="30.86556053" lon="34.77791214"><ele>481.0</ele><time>2013-11-20T09:34:49.0000000+00:00</time></trkpt><trkpt lat="30.86539269" lon="34.77775192"><ele>480.7</ele><time>2013-11-20T09:34:54.0000000+00:00</time></trkpt><trkpt lat="30.86521721" lon="34.77765656"><ele>481.7</ele><time>2013-11-20T09:34:59.0000000+00:00</time></trkpt><trkpt lat="30.86501885" lon="34.77754593"><ele>480.1</ele><time>2013-11-20T09:35:04.0000000+00:00</time></trkpt><trkpt lat="30.86481857" lon="34.77744675"><ele>480.1</ele><time>2013-11-20T09:35:09.0000000+00:00</time></trkpt><trkpt lat="30.86462784" lon="34.77735138"><ele>481.9</ele><time>2013-11-20T09:35:14.0000000+00:00</time></trkpt><trkpt lat="30.86444092" lon="34.77724075"><ele>481.5</ele><time>2013-11-20T09:35:19.0000000+00:00</time></trkpt><trkpt lat="30.86429215" lon="34.77714539"><ele>482.7</ele><time>2013-11-20T09:35:24.0000000+00:00</time></trkpt><trkpt lat="30.86411476" lon="34.77701187"><ele>481.7</ele><time>2013-11-20T09:35:29.0000000+00:00</time></trkpt><trkpt lat="30.86393929" lon="34.77689362"><ele>480.8</ele><time>2013-11-20T09:35:34.0000000+00:00</time></trkpt><trkpt lat="30.86375618" lon="34.7767601"><ele>482.7</ele><time>2013-11-20T09:35:39.0000000+00:00</time></trkpt><trkpt lat="30.86360931" lon="34.77664185"><ele>482.6</ele><time>2013-11-20T09:35:44.0000000+00:00</time></trkpt><trkpt lat="30.86348534" lon="34.77649689"><ele>482.5</ele><time>2013-11-20T09:35:49.0000000+00:00</time></trkpt><trkpt lat="30.86331558" lon="34.77637863"><ele>482.4</ele><time>2013-11-20T09:35:54.0000000+00:00</time></trkpt><trkpt lat="30.86314392" lon="34.77625656"><ele>482.6</ele><time>2013-11-20T09:35:59.0000000+00:00</time></trkpt><trkpt lat="30.86300659" lon="34.7761116"><ele>482.5</ele><time>2013-11-20T09:36:04.0000000+00:00</time></trkpt><trkpt lat="30.86282349" lon="34.77600098"><ele>483.9</ele><time>2013-11-20T09:36:09.0000000+00:00</time></trkpt><trkpt lat="30.86264992" lon="34.77589417"><ele>484.1</ele><time>2013-11-20T09:36:14.0000000+00:00</time></trkpt><trkpt lat="30.86249161" lon="34.77578354"><ele>483.4</ele><time>2013-11-20T09:36:19.0000000+00:00</time></trkpt><trkpt lat="30.86231613" lon="34.77567291"><ele>482.5</ele><time>2013-11-20T09:36:24.0000000+00:00</time></trkpt><trkpt lat="30.86213684" lon="34.77555084"><ele>483.1</ele><time>2013-11-20T09:36:29.0000000+00:00</time></trkpt><trkpt lat="30.86195946" lon="34.77544403"><ele>483.3</ele><time>2013-11-20T09:36:34.0000000+00:00</time></trkpt><trkpt lat="30.86179543" lon="34.77533341"><ele>483.7</ele><time>2013-11-20T09:36:39.0000000+00:00</time></trkpt><trkpt lat="30.8616333" lon="34.7752533"><ele>482.0</ele><time>2013-11-20T09:36:44.0000000+00:00</time></trkpt><trkpt lat="30.86144638" lon="34.77515411"><ele>482.2</ele><time>2013-11-20T09:36:49.0000000+00:00</time></trkpt><trkpt lat="30.86127853" lon="34.77505493"><ele>482.7</ele><time>2013-11-20T09:36:54.0000000+00:00</time></trkpt><trkpt lat="30.86113167" lon="34.77496338"><ele>483.6</ele><time>2013-11-20T09:36:59.0000000+00:00</time></trkpt><trkpt lat="30.86099625" lon="34.77488709"><ele>483.4</ele><time>2013-11-20T09:37:04.0000000+00:00</time></trkpt><trkpt lat="30.86084557" lon="34.7747879"><ele>482.3</ele><time>2013-11-20T09:37:09.0000000+00:00</time></trkpt><trkpt lat="30.86068153" lon="34.77469254"><ele>482.8</ele><time>2013-11-20T09:37:14.0000000+00:00</time></trkpt><trkpt lat="30.8605175" lon="34.77458191"><ele>483.4</ele><time>2013-11-20T09:37:19.0000000+00:00</time></trkpt><trkpt lat="30.86038399" lon="34.77448654"><ele>482.1</ele><time>2013-11-20T09:37:24.0000000+00:00</time></trkpt><trkpt lat="30.86027718" lon="34.77448273"><ele>484.0</ele><time>2013-11-20T09:37:29.0000000+00:00</time></trkpt><trkpt lat="30.86025429" lon="34.77451706"><ele>483.5</ele><time>2013-11-20T09:37:34.0000000+00:00</time></trkpt><trkpt lat="30.86023903" lon="34.77453232"><ele>483.6</ele><time>2013-11-20T09:37:39.0000000+00:00</time></trkpt><trkpt lat="30.86013031" lon="34.77457809"><ele>483.8</ele><time>2013-11-20T09:37:44.0000000+00:00</time></trkpt><trkpt lat="30.85992622" lon="34.77463913"><ele>481.3</ele><time>2013-11-20T09:37:49.0000000+00:00</time></trkpt><trkpt lat="30.8597908" lon="34.77454376"><ele>480.8</ele><time>2013-11-20T09:37:54.0000000+00:00</time></trkpt><trkpt lat="30.85961151" lon="34.77445602"><ele>481.9</ele><time>2013-11-20T09:37:59.0000000+00:00</time></trkpt><trkpt lat="30.85943413" lon="34.7743454"><ele>483.1</ele><time>2013-11-20T09:38:04.0000000+00:00</time></trkpt><trkpt lat="30.85925865" lon="34.77422333"><ele>483.3</ele><time>2013-11-20T09:38:09.0000000+00:00</time></trkpt><trkpt lat="30.85913849" lon="34.77412796"><ele>484.2</ele><time>2013-11-20T09:38:14.0000000+00:00</time></trkpt><trkpt lat="30.85900688" lon="34.77401352"><ele>484.9</ele><time>2013-11-20T09:38:19.0000000+00:00</time></trkpt><trkpt lat="30.8588562" lon="34.7739563"><ele>484.4</ele><time>2013-11-20T09:38:24.0000000+00:00</time></trkpt><trkpt lat="30.85867119" lon="34.7738533"><ele>482.7</ele><time>2013-11-20T09:38:29.0000000+00:00</time></trkpt><trkpt lat="30.85851669" lon="34.77374268"><ele>482.7</ele><time>2013-11-20T09:38:34.0000000+00:00</time></trkpt><trkpt lat="30.85834885" lon="34.77363968"><ele>483.4</ele><time>2013-11-20T09:38:39.0000000+00:00</time></trkpt><trkpt lat="30.85818291" lon="34.77351761"><ele>484.3</ele><time>2013-11-20T09:38:44.0000000+00:00</time></trkpt><trkpt lat="30.85802651" lon="34.77339554"><ele>485.1</ele><time>2013-11-20T09:38:49.0000000+00:00</time></trkpt><trkpt lat="30.85788155" lon="34.7733078"><ele>485.4</ele><time>2013-11-20T09:38:54.0000000+00:00</time></trkpt><trkpt lat="30.85770989" lon="34.77320099"><ele>488.5</ele><time>2013-11-20T09:38:59.0000000+00:00</time></trkpt><trkpt lat="30.85754585" lon="34.77309418"><ele>489.2</ele><time>2013-11-20T09:39:04.0000000+00:00</time></trkpt><trkpt lat="30.85739517" lon="34.772995"><ele>487.8</ele><time>2013-11-20T09:39:09.0000000+00:00</time></trkpt><trkpt lat="30.85723305" lon="34.77290726"><ele>486.9</ele><time>2013-11-20T09:39:14.0000000+00:00</time></trkpt><trkpt lat="30.85706329" lon="34.7728157"><ele>487.2</ele><time>2013-11-20T09:39:19.0000000+00:00</time></trkpt><trkpt lat="30.85689926" lon="34.77269745"><ele>487.0</ele><time>2013-11-20T09:39:24.0000000+00:00</time></trkpt><trkpt lat="30.85671997" lon="34.77254105"><ele>486.5</ele><time>2013-11-20T09:39:29.0000000+00:00</time></trkpt><trkpt lat="30.85657311" lon="34.77238846"><ele>488.1</ele><time>2013-11-20T09:39:34.0000000+00:00</time></trkpt><trkpt lat="30.85640717" lon="34.77226639"><ele>488.4</ele><time>2013-11-20T09:39:39.0000000+00:00</time></trkpt><trkpt lat="30.8562603" lon="34.77217484"><ele>487.2</ele><time>2013-11-20T09:39:44.0000000+00:00</time></trkpt><trkpt lat="30.85606766" lon="34.77210617"><ele>488.2</ele><time>2013-11-20T09:39:49.0000000+00:00</time></trkpt><trkpt lat="30.85589409" lon="34.77199936"><ele>488.9</ele><time>2013-11-20T09:39:54.0000000+00:00</time></trkpt><trkpt lat="30.85573769" lon="34.77188492"><ele>488.8</ele><time>2013-11-20T09:39:59.0000000+00:00</time></trkpt><trkpt lat="30.85558319" lon="34.77176285"><ele>489.5</ele><time>2013-11-20T09:40:04.0000000+00:00</time></trkpt><trkpt lat="30.85542488" lon="34.7716713"><ele>488.8</ele><time>2013-11-20T09:40:09.0000000+00:00</time></trkpt><trkpt lat="30.85527229" lon="34.77151489"><ele>487.7</ele><time>2013-11-20T09:40:14.0000000+00:00</time></trkpt><trkpt lat="30.85509491" lon="34.77138519"><ele>487.0</ele><time>2013-11-20T09:40:19.0000000+00:00</time></trkpt><trkpt lat="30.85491562" lon="34.77124023"><ele>487.3</ele><time>2013-11-20T09:40:24.0000000+00:00</time></trkpt><trkpt lat="30.8547287" lon="34.77110672"><ele>487.6</ele><time>2013-11-20T09:40:29.0000000+00:00</time></trkpt><trkpt lat="30.8545742" lon="34.77097702"><ele>489.1</ele><time>2013-11-20T09:40:34.0000000+00:00</time></trkpt><trkpt lat="30.85440254" lon="34.77090073"><ele>490.8</ele><time>2013-11-20T09:40:39.0000000+00:00</time></trkpt><trkpt lat="30.85424233" lon="34.77088928"><ele>490.4</ele><time>2013-11-20T09:40:44.0000000+00:00</time></trkpt><trkpt lat="30.85414887" lon="34.77098465"><ele>490.1</ele><time>2013-11-20T09:40:49.0000000+00:00</time></trkpt><trkpt lat="30.85408974" lon="34.77111816"><ele>489.5</ele><time>2013-11-20T09:40:54.0000000+00:00</time></trkpt><trkpt lat="30.85403061" lon="34.77132416"><ele>488.9</ele><time>2013-11-20T09:40:59.0000000+00:00</time></trkpt><trkpt lat="30.85394859" lon="34.77158737"><ele>487.4</ele><time>2013-11-20T09:41:04.0000000+00:00</time></trkpt><trkpt lat="30.85387802" lon="34.77186966"><ele>487.5</ele><time>2013-11-20T09:41:09.0000000+00:00</time></trkpt><trkpt lat="30.85381317" lon="34.77215576"><ele>487.0</ele><time>2013-11-20T09:41:14.0000000+00:00</time></trkpt><trkpt lat="30.85373688" lon="34.77248383"><ele>487.9</ele><time>2013-11-20T09:41:19.0000000+00:00</time></trkpt><trkpt lat="30.85364533" lon="34.77280808"><ele>488.1</ele><time>2013-11-20T09:41:24.0000000+00:00</time></trkpt><trkpt lat="30.85356522" lon="34.77313614"><ele>488.2</ele><time>2013-11-20T09:41:29.0000000+00:00</time></trkpt><trkpt lat="30.85348702" lon="34.7734642"><ele>487.0</ele><time>2013-11-20T09:41:34.0000000+00:00</time></trkpt><trkpt lat="30.85341644" lon="34.77380371"><ele>484.1</ele><time>2013-11-20T09:41:39.0000000+00:00</time></trkpt><trkpt lat="30.85332489" lon="34.77416611"><ele>482.7</ele><time>2013-11-20T09:41:44.0000000+00:00</time></trkpt><trkpt lat="30.85321045" lon="34.77452469"><ele>483.5</ele><time>2013-11-20T09:41:49.0000000+00:00</time></trkpt><trkpt lat="30.85306549" lon="34.77484131"><ele>483.0</ele><time>2013-11-20T09:41:54.0000000+00:00</time></trkpt><trkpt lat="30.85289764" lon="34.77513886"><ele>481.7</ele><time>2013-11-20T09:41:59.0000000+00:00</time></trkpt><trkpt lat="30.85273552" lon="34.77542496"><ele>482.3</ele><time>2013-11-20T09:42:04.0000000+00:00</time></trkpt><trkpt lat="30.85255051" lon="34.77570725"><ele>481.6</ele><time>2013-11-20T09:42:09.0000000+00:00</time></trkpt><trkpt lat="30.85236168" lon="34.7759819"><ele>481.0</ele><time>2013-11-20T09:42:14.0000000+00:00</time></trkpt><trkpt lat="30.85217285" lon="34.77625275"><ele>480.7</ele><time>2013-11-20T09:42:19.0000000+00:00</time></trkpt><trkpt lat="30.85201454" lon="34.77651215"><ele>481.5</ele><time>2013-11-20T09:42:24.0000000+00:00</time></trkpt><trkpt lat="30.85185623" lon="34.77675629"><ele>481.0</ele><time>2013-11-20T09:42:29.0000000+00:00</time></trkpt><trkpt lat="30.85167313" lon="34.77700424"><ele>479.4</ele><time>2013-11-20T09:42:34.0000000+00:00</time></trkpt><trkpt lat="30.85150909" lon="34.77724838"><ele>478.8</ele><time>2013-11-20T09:42:39.0000000+00:00</time></trkpt><trkpt lat="30.85133553" lon="34.77749252"><ele>476.9</ele><time>2013-11-20T09:42:44.0000000+00:00</time></trkpt><trkpt lat="30.85116196" lon="34.77773666"><ele>477.8</ele><time>2013-11-20T09:42:49.0000000+00:00</time></trkpt><trkpt lat="30.85099793" lon="34.77797318"><ele>478.4</ele><time>2013-11-20T09:42:54.0000000+00:00</time></trkpt><trkpt lat="30.85083389" lon="34.77820969"><ele>480.9</ele><time>2013-11-20T09:42:59.0000000+00:00</time></trkpt><trkpt lat="30.85066414" lon="34.77844238"><ele>481.8</ele><time>2013-11-20T09:43:04.0000000+00:00</time></trkpt><trkpt lat="30.85051537" lon="34.77864838"><ele>481.5</ele><time>2013-11-20T09:43:09.0000000+00:00</time></trkpt><trkpt lat="30.85042572" lon="34.77879715"><ele>480.5</ele><time>2013-11-20T09:43:14.0000000+00:00</time></trkpt><trkpt lat="30.85041809" lon="34.77891541"><ele>482.3</ele><time>2013-11-20T09:43:19.0000000+00:00</time></trkpt><trkpt lat="30.8504467" lon="34.77895355"><ele>482.8</ele><time>2013-11-20T09:43:24.0000000+00:00</time></trkpt><trkpt lat="30.8504467" lon="34.77895355"><ele>482.8</ele><time>2013-11-20T09:43:29.0000000+00:00</time></trkpt><trkpt lat="30.8504467" lon="34.77895355"><ele>482.8</ele><time>2013-11-20T09:43:34.0000000+00:00</time></trkpt><trkpt lat="30.8504467" lon="34.77895355"><ele>482.7</ele><time>2013-11-20T09:43:39.0000000+00:00</time></trkpt><trkpt lat="30.8504467" lon="34.77895355"><ele>482.7</ele><time>2013-11-20T09:43:44.0000000+00:00</time></trkpt><trkpt lat="30.8504467" lon="34.77895355"><ele>482.7</ele><time>2013-11-20T09:43:49.0000000+00:00</time></trkpt><trkpt lat="30.8504467" lon="34.77895737"><ele>482.8</ele><time>2013-11-20T09:43:54.0000000+00:00</time></trkpt><trkpt lat="30.8504467" lon="34.77895737"><ele>482.8</ele><time>2013-11-20T09:43:59.0000000+00:00</time></trkpt><trkpt lat="30.8504467" lon="34.77895737"><ele>482.8</ele><time>2013-11-20T09:44:04.0000000+00:00</time></trkpt><trkpt lat="30.8504467" lon="34.77895737"><ele>482.8</ele><time>2013-11-20T09:44:09.0000000+00:00</time></trkpt><trkpt lat="30.8504467" lon="34.77895737"><ele>482.8</ele><time>2013-11-20T09:44:14.0000000+00:00</time></trkpt><trkpt lat="30.8504467" lon="34.77895737"><ele>482.8</ele><time>2013-11-20T09:44:19.0000000+00:00</time></trkpt><trkpt lat="30.8504467" lon="34.77895737"><ele>482.8</ele><time>2013-11-20T09:44:24.0000000+00:00</time></trkpt><trkpt lat="30.8504467" lon="34.77895737"><ele>482.8</ele><time>2013-11-20T09:44:29.0000000+00:00</time></trkpt><trkpt lat="30.8504467" lon="34.77895737"><ele>482.8</ele><time>2013-11-20T09:44:34.0000000+00:00</time></trkpt><trkpt lat="30.8504467" lon="34.77895737"><ele>482.8</ele><time>2013-11-20T09:44:39.0000000+00:00</time></trkpt><trkpt lat="30.85044479" lon="34.77895737"><ele>482.8</ele><time>2013-11-20T09:44:44.0000000+00:00</time></trkpt><trkpt lat="30.85044479" lon="34.77895737"><ele>482.8</ele><time>2013-11-20T09:44:49.0000000+00:00</time></trkpt><trkpt lat="30.85044479" lon="34.77895737"><ele>482.8</ele><time>2013-11-20T09:44:54.0000000+00:00</time></trkpt><trkpt lat="30.85044479" lon="34.77895737"><ele>482.8</ele><time>2013-11-20T09:44:59.0000000+00:00</time></trkpt><trkpt lat="30.85044479" lon="34.77895737"><ele>482.8</ele><time>2013-11-20T09:45:04.0000000+00:00</time></trkpt><trkpt lat="30.85044479" lon="34.77895737"><ele>482.8</ele><time>2013-11-20T09:45:09.0000000+00:00</time></trkpt><trkpt lat="30.8504467" lon="34.77895737"><ele>482.8</ele><time>2013-11-20T09:45:14.0000000+00:00</time></trkpt><trkpt lat="30.8504467" lon="34.77896118"><ele>482.8</ele><time>2013-11-20T09:45:19.0000000+00:00</time></trkpt><trkpt lat="30.8504467" lon="34.77896118"><ele>482.8</ele><time>2013-11-20T09:45:24.0000000+00:00</time></trkpt><trkpt lat="30.85044479" lon="34.77896118"><ele>482.8</ele><time>2013-11-20T09:45:29.0000000+00:00</time></trkpt><trkpt lat="30.8504467" lon="34.77896118"><ele>482.8</ele><time>2013-11-20T09:45:34.0000000+00:00</time></trkpt><trkpt lat="30.8504467" lon="34.77895737"><ele>482.8</ele><time>2013-11-20T09:45:39.0000000+00:00</time></trkpt><trkpt lat="30.8504467" lon="34.77896118"><ele>482.7</ele><time>2013-11-20T09:45:44.0000000+00:00</time></trkpt><trkpt lat="30.8504467" lon="34.77896118"><ele>482.7</ele><time>2013-11-20T09:45:49.0000000+00:00</time></trkpt><trkpt lat="30.8504467" lon="34.77896118"><ele>482.7</ele><time>2013-11-20T09:45:54.0000000+00:00</time></trkpt><trkpt lat="30.8504467" lon="34.77896118"><ele>482.7</ele><time>2013-11-20T09:45:59.0000000+00:00</time></trkpt><trkpt lat="30.8504467" lon="34.77895737"><ele>482.7</ele><time>2013-11-20T09:46:04.0000000+00:00</time></trkpt><trkpt lat="30.8504467" lon="34.77896118"><ele>482.7</ele><time>2013-11-20T09:46:09.0000000+00:00</time></trkpt><trkpt lat="30.8504467" lon="34.77896118"><ele>482.7</ele><time>2013-11-20T09:46:14.0000000+00:00</time></trkpt><trkpt lat="30.8504467" lon="34.77896118"><ele>482.7</ele><time>2013-11-20T09:46:19.0000000+00:00</time></trkpt><trkpt lat="30.8504467" lon="34.77896118"><ele>482.7</ele><time>2013-11-20T09:46:24.0000000+00:00</time></trkpt><trkpt lat="30.8504467" lon="34.77895737"><ele>482.7</ele><time>2013-11-20T09:46:29.0000000+00:00</time></trkpt><trkpt lat="30.8504467" lon="34.77895737"><ele>482.8</ele><time>2013-11-20T09:46:34.0000000+00:00</time></trkpt><trkpt lat="30.8504467" lon="34.77895737"><ele>482.8</ele><time>2013-11-20T09:46:39.0000000+00:00</time></trkpt><trkpt lat="30.8504467" lon="34.77895737"><ele>482.7</ele><time>2013-11-20T09:46:44.0000000+00:00</time></trkpt><trkpt lat="30.8504467" lon="34.77895737"><ele>482.7</ele><time>2013-11-20T09:46:49.0000000+00:00</time></trkpt><trkpt lat="30.8504467" lon="34.77895737"><ele>482.7</ele><time>2013-11-20T09:46:54.0000000+00:00</time></trkpt><trkpt lat="30.8504467" lon="34.77895737"><ele>482.7</ele><time>2013-11-20T09:46:59.0000000+00:00</time></trkpt><trkpt lat="30.8504467" lon="34.77895737"><ele>482.7</ele><time>2013-11-20T09:47:04.0000000+00:00</time></trkpt><trkpt lat="30.8504467" lon="34.77895737"><ele>482.7</ele><time>2013-11-20T09:47:09.0000000+00:00</time></trkpt><trkpt lat="30.8504467" lon="34.77895737"><ele>482.6</ele><time>2013-11-20T09:47:14.0000000+00:00</time></trkpt><trkpt lat="30.8504467" lon="34.77895737"><ele>482.6</ele><time>2013-11-20T09:47:19.0000000+00:00</time></trkpt><trkpt lat="30.8504467" lon="34.77895737"><ele>482.6</ele><time>2013-11-20T09:47:24.0000000+00:00</time></trkpt><trkpt lat="30.8504467" lon="34.77895737"><ele>482.6</ele><time>2013-11-20T09:47:29.0000000+00:00</time></trkpt><trkpt lat="30.85044861" lon="34.77895737"><ele>482.6</ele><time>2013-11-20T09:47:34.0000000+00:00</time></trkpt><trkpt lat="30.8504467" lon="34.77895737"><ele>482.6</ele><time>2013-11-20T09:47:39.0000000+00:00</time></trkpt><trkpt lat="30.8504467" lon="34.77895737"><ele>482.6</ele><time>2013-11-20T09:47:44.0000000+00:00</time></trkpt><trkpt lat="30.8504467" lon="34.77895737"><ele>482.6</ele><time>2013-11-20T09:47:49.0000000+00:00</time></trkpt><trkpt lat="30.8504467" lon="34.77896118"><ele>482.6</ele><time>2013-11-20T09:47:54.0000000+00:00</time></trkpt><trkpt lat="30.8504467" lon="34.77896118"><ele>482.5</ele><time>2013-11-20T09:47:59.0000000+00:00</time></trkpt><trkpt lat="30.8504467" lon="34.77896118"><ele>482.5</ele><time>2013-11-20T09:48:04.0000000+00:00</time></trkpt><trkpt lat="30.85041809" lon="34.77903748"><ele>482.7</ele><time>2013-11-20T09:48:09.0000000+00:00</time></trkpt><trkpt lat="30.85035515" lon="34.77918243"><ele>482.4</ele><time>2013-11-20T09:48:14.0000000+00:00</time></trkpt><trkpt lat="30.85019684" lon="34.77928162"><ele>482.7</ele><time>2013-11-20T09:48:19.0000000+00:00</time></trkpt><trkpt lat="30.85004234" lon="34.77943802"><ele>482.2</ele><time>2013-11-20T09:48:24.0000000+00:00</time></trkpt><trkpt lat="30.84994698" lon="34.77965546"><ele>481.5</ele><time>2013-11-20T09:48:29.0000000+00:00</time></trkpt><trkpt lat="30.84990883" lon="34.7798233"><ele>481.7</ele><time>2013-11-20T09:48:34.0000000+00:00</time></trkpt><trkpt lat="30.84991264" lon="34.78002548"><ele>483.0</ele><time>2013-11-20T09:48:39.0000000+00:00</time></trkpt><trkpt lat="30.84992981" lon="34.78024674"><ele>483.1</ele><time>2013-11-20T09:48:44.0000000+00:00</time></trkpt><trkpt lat="30.8499794" lon="34.78051376"><ele>484.2</ele><time>2013-11-20T09:48:49.0000000+00:00</time></trkpt><trkpt lat="30.85003471" lon="34.78078079"><ele>484.4</ele><time>2013-11-20T09:48:54.0000000+00:00</time></trkpt><trkpt lat="30.85008431" lon="34.78105927"><ele>484.7</ele><time>2013-11-20T09:48:59.0000000+00:00</time></trkpt><trkpt lat="30.85012245" lon="34.78134155"><ele>484.0</ele><time>2013-11-20T09:49:04.0000000+00:00</time></trkpt><trkpt lat="30.85017204" lon="34.7816391"><ele>483.3</ele><time>2013-11-20T09:49:09.0000000+00:00</time></trkpt><trkpt lat="30.85022354" lon="34.78192139"><ele>482.0</ele><time>2013-11-20T09:49:14.0000000+00:00</time></trkpt><trkpt lat="30.85027123" lon="34.78219986"><ele>481.8</ele><time>2013-11-20T09:49:19.0000000+00:00</time></trkpt><trkpt lat="30.85033035" lon="34.78245163"><ele>482.9</ele><time>2013-11-20T09:49:24.0000000+00:00</time></trkpt><trkpt lat="30.85039902" lon="34.78265381"><ele>483.6</ele><time>2013-11-20T09:49:29.0000000+00:00</time></trkpt><trkpt lat="30.85042" lon="34.78272247"><ele>485.2</ele><time>2013-11-20T09:49:34.0000000+00:00</time></trkpt><trkpt lat="30.85041618" lon="34.78287125"><ele>484.6</ele><time>2013-11-20T09:49:39.0000000+00:00</time></trkpt><trkpt lat="30.85045242" lon="34.78312302"><ele>486.0</ele><time>2013-11-20T09:49:44.0000000+00:00</time></trkpt><trkpt lat="30.85051537" lon="34.78327942"><ele>488.0</ele><time>2013-11-20T09:49:49.0000000+00:00</time></trkpt><trkpt lat="30.85058785" lon="34.7833252"><ele>489.1</ele><time>2013-11-20T09:49:54.0000000+00:00</time></trkpt><trkpt lat="30.85066032" lon="34.78339768"><ele>488.7</ele><time>2013-11-20T09:49:59.0000000+00:00</time></trkpt><trkpt lat="30.85067749" lon="34.78341675"><ele>487.5</ele><time>2013-11-20T09:50:04.0000000+00:00</time></trkpt><trkpt lat="30.8506794" lon="34.78341675"><ele>487.5</ele><time>2013-11-20T09:50:09.0000000+00:00</time></trkpt><trkpt lat="30.8506794" lon="34.78341675"><ele>487.5</ele><time>2013-11-20T09:50:14.0000000+00:00</time></trkpt><trkpt lat="30.8506794" lon="34.78341293"><ele>487.5</ele><time>2013-11-20T09:50:19.0000000+00:00</time></trkpt><trkpt lat="30.85068321" lon="34.78342438"><ele>487.6</ele><time>2013-11-20T09:50:24.0000000+00:00</time></trkpt><trkpt lat="30.85068512" lon="34.78342438"><ele>487.5</ele><time>2013-11-20T09:50:29.0000000+00:00</time></trkpt><trkpt lat="30.85068512" lon="34.78342438"><ele>487.4</ele><time>2013-11-20T09:50:34.0000000+00:00</time></trkpt><trkpt lat="30.85068512" lon="34.78342438"><ele>487.4</ele><time>2013-11-20T09:50:39.0000000+00:00</time></trkpt><trkpt lat="30.85068703" lon="34.78342438"><ele>487.4</ele><time>2013-11-20T09:50:44.0000000+00:00</time></trkpt><trkpt lat="30.85068703" lon="34.78342438"><ele>487.3</ele><time>2013-11-20T09:50:49.0000000+00:00</time></trkpt><trkpt lat="30.85068703" lon="34.78342438"><ele>487.3</ele><time>2013-11-20T09:50:54.0000000+00:00</time></trkpt><trkpt lat="30.85068703" lon="34.78342438"><ele>487.3</ele><time>2013-11-20T09:50:59.0000000+00:00</time></trkpt><trkpt lat="30.85068703" lon="34.78342438"><ele>487.2</ele><time>2013-11-20T09:51:04.0000000+00:00</time></trkpt><trkpt lat="30.85068703" lon="34.78342438"><ele>487.2</ele><time>2013-11-20T09:51:09.0000000+00:00</time></trkpt><trkpt lat="30.85068703" lon="34.78342438"><ele>487.2</ele><time>2013-11-20T09:51:14.0000000+00:00</time></trkpt><trkpt lat="30.85068703" lon="34.78342438"><ele>487.2</ele><time>2013-11-20T09:51:19.0000000+00:00</time></trkpt><trkpt lat="30.85068703" lon="34.78342438"><ele>487.1</ele><time>2013-11-20T09:51:24.0000000+00:00</time></trkpt><trkpt lat="30.85068703" lon="34.78342438"><ele>487.1</ele><time>2013-11-20T09:51:29.0000000+00:00</time></trkpt><trkpt lat="30.85068893" lon="34.78342438"><ele>487.1</ele><time>2013-11-20T09:51:34.0000000+00:00</time></trkpt><trkpt lat="30.85068893" lon="34.78342438"><ele>487.1</ele><time>2013-11-20T09:51:39.0000000+00:00</time></trkpt><trkpt lat="30.85068893" lon="34.78342438"><ele>487.1</ele><time>2013-11-20T09:51:44.0000000+00:00</time></trkpt><trkpt lat="30.85068893" lon="34.78342438"><ele>487.1</ele><time>2013-11-20T09:51:49.0000000+00:00</time></trkpt><trkpt lat="30.85068893" lon="34.78342438"><ele>487.0</ele><time>2013-11-20T09:51:54.0000000+00:00</time></trkpt><trkpt lat="30.85068893" lon="34.78342819"><ele>487.0</ele><time>2013-11-20T09:51:59.0000000+00:00</time></trkpt><trkpt lat="30.85068893" lon="34.78342819"><ele>487.0</ele><time>2013-11-20T09:52:04.0000000+00:00</time></trkpt><trkpt lat="30.85068893" lon="34.78342819"><ele>487.0</ele><time>2013-11-20T09:52:09.0000000+00:00</time></trkpt><trkpt lat="30.85068893" lon="34.78342819"><ele>487.0</ele><time>2013-11-20T09:52:14.0000000+00:00</time></trkpt><trkpt lat="30.85068893" lon="34.78342819"><ele>487.0</ele><time>2013-11-20T09:52:19.0000000+00:00</time></trkpt><trkpt lat="30.85068893" lon="34.78342819"><ele>487.0</ele><time>2013-11-20T09:52:24.0000000+00:00</time></trkpt><trkpt lat="30.85068893" lon="34.78342819"><ele>486.9</ele><time>2013-11-20T09:52:29.0000000+00:00</time></trkpt><trkpt lat="30.85068893" lon="34.78342819"><ele>486.9</ele><time>2013-11-20T09:52:34.0000000+00:00</time></trkpt><trkpt lat="30.85068893" lon="34.78342819"><ele>486.9</ele><time>2013-11-20T09:52:39.0000000+00:00</time></trkpt><trkpt lat="30.85068893" lon="34.78342819"><ele>486.9</ele><time>2013-11-20T09:52:44.0000000+00:00</time></trkpt><trkpt lat="30.85068893" lon="34.78342819"><ele>486.9</ele><time>2013-11-20T09:52:49.0000000+00:00</time></trkpt><trkpt lat="30.85068893" lon="34.78342819"><ele>486.8</ele><time>2013-11-20T09:52:54.0000000+00:00</time></trkpt><trkpt lat="30.85068893" lon="34.78342819"><ele>486.8</ele><time>2013-11-20T09:52:59.0000000+00:00</time></trkpt><trkpt lat="30.85068893" lon="34.78342819"><ele>486.8</ele><time>2013-11-20T09:53:04.0000000+00:00</time></trkpt><trkpt lat="30.85068893" lon="34.78342819"><ele>486.8</ele><time>2013-11-20T09:53:09.0000000+00:00</time></trkpt><trkpt lat="30.85068893" lon="34.78342438"><ele>486.7</ele><time>2013-11-20T09:53:14.0000000+00:00</time></trkpt><trkpt lat="30.85068893" lon="34.78342438"><ele>486.7</ele><time>2013-11-20T09:53:19.0000000+00:00</time></trkpt><trkpt lat="30.85068893" lon="34.78342438"><ele>486.7</ele><time>2013-11-20T09:53:24.0000000+00:00</time></trkpt><trkpt lat="30.85068893" lon="34.78342438"><ele>486.6</ele><time>2013-11-20T09:53:29.0000000+00:00</time></trkpt><trkpt lat="30.85068893" lon="34.78342438"><ele>486.6</ele><time>2013-11-20T09:53:34.0000000+00:00</time></trkpt><trkpt lat="30.85068893" lon="34.78342438"><ele>486.6</ele><time>2013-11-20T09:53:39.0000000+00:00</time></trkpt><trkpt lat="30.85068893" lon="34.78342438"><ele>486.6</ele><time>2013-11-20T09:53:44.0000000+00:00</time></trkpt><trkpt lat="30.85068893" lon="34.78342438"><ele>486.6</ele><time>2013-11-20T09:53:49.0000000+00:00</time></trkpt><trkpt lat="30.85068893" lon="34.78342438"><ele>486.6</ele><time>2013-11-20T09:53:54.0000000+00:00</time></trkpt><trkpt lat="30.85068893" lon="34.78342438"><ele>486.6</ele><time>2013-11-20T09:53:59.0000000+00:00</time></trkpt><trkpt lat="30.85068893" lon="34.78342438"><ele>486.6</ele><time>2013-11-20T09:54:04.0000000+00:00</time></trkpt><trkpt lat="30.85068893" lon="34.78342438"><ele>486.6</ele><time>2013-11-20T09:54:09.0000000+00:00</time></trkpt><trkpt lat="30.85068893" lon="34.78342438"><ele>486.6</ele><time>2013-11-20T09:54:14.0000000+00:00</time></trkpt><trkpt lat="30.85068893" lon="34.78342438"><ele>486.6</ele><time>2013-11-20T09:54:19.0000000+00:00</time></trkpt><trkpt lat="30.85068893" lon="34.78342438"><ele>486.6</ele><time>2013-11-20T09:54:24.0000000+00:00</time></trkpt><trkpt lat="30.85068893" lon="34.78342438"><ele>486.6</ele><time>2013-11-20T09:54:29.0000000+00:00</time></trkpt><trkpt lat="30.85068893" lon="34.78342438"><ele>486.7</ele><time>2013-11-20T09:54:34.0000000+00:00</time></trkpt><trkpt lat="30.85068893" lon="34.78342438"><ele>486.7</ele><time>2013-11-20T09:54:39.0000000+00:00</time></trkpt><trkpt lat="30.85068893" lon="34.78342438"><ele>486.7</ele><time>2013-11-20T09:54:44.0000000+00:00</time></trkpt><trkpt lat="30.85068893" lon="34.78342438"><ele>486.7</ele><time>2013-11-20T09:54:49.0000000+00:00</time></trkpt><trkpt lat="30.85068893" lon="34.78342438"><ele>486.7</ele><time>2013-11-20T09:54:54.0000000+00:00</time></trkpt><trkpt lat="30.85068893" lon="34.78342438"><ele>486.8</ele><time>2013-11-20T09:54:59.0000000+00:00</time></trkpt><trkpt lat="30.85068893" lon="34.78342438"><ele>486.8</ele><time>2013-11-20T09:55:04.0000000+00:00</time></trkpt><trkpt lat="30.85068893" lon="34.78342438"><ele>486.8</ele><time>2013-11-20T09:55:09.0000000+00:00</time></trkpt><trkpt lat="30.85068893" lon="34.78342438"><ele>486.8</ele><time>2013-11-20T09:55:14.0000000+00:00</time></trkpt><trkpt lat="30.85068893" lon="34.78342438"><ele>486.8</ele><time>2013-11-20T09:55:19.0000000+00:00</time></trkpt><trkpt lat="30.85068893" lon="34.78342438"><ele>486.8</ele><time>2013-11-20T09:55:24.0000000+00:00</time></trkpt><trkpt lat="30.85068893" lon="34.78342438"><ele>486.8</ele><time>2013-11-20T09:55:29.0000000+00:00</time></trkpt><trkpt lat="30.85068893" lon="34.78342438"><ele>486.8</ele><time>2013-11-20T09:55:34.0000000+00:00</time></trkpt><trkpt lat="30.85068893" lon="34.78342438"><ele>486.9</ele><time>2013-11-20T09:55:39.0000000+00:00</time></trkpt><trkpt lat="30.85068893" lon="34.78342438"><ele>486.9</ele><time>2013-11-20T09:55:44.0000000+00:00</time></trkpt><trkpt lat="30.85068893" lon="34.78342438"><ele>486.9</ele><time>2013-11-20T09:55:49.0000000+00:00</time></trkpt><trkpt lat="30.85068893" lon="34.78342438"><ele>486.9</ele><time>2013-11-20T09:55:54.0000000+00:00</time></trkpt><trkpt lat="30.85068893" lon="34.78342438"><ele>486.9</ele><time>2013-11-20T09:55:59.0000000+00:00</time></trkpt><trkpt lat="30.85068893" lon="34.78342438"><ele>486.9</ele><time>2013-11-20T09:56:04.0000000+00:00</time></trkpt><trkpt lat="30.85068893" lon="34.78342438"><ele>486.9</ele><time>2013-11-20T09:56:09.0000000+00:00</time></trkpt><trkpt lat="30.85068893" lon="34.78342438"><ele>486.9</ele><time>2013-11-20T09:56:14.0000000+00:00</time></trkpt><trkpt lat="30.85068893" lon="34.78342438"><ele>487.0</ele><time>2013-11-20T09:56:19.0000000+00:00</time></trkpt><trkpt lat="30.85068893" lon="34.78342438"><ele>487.0</ele><time>2013-11-20T09:56:24.0000000+00:00</time></trkpt><trkpt lat="30.85068893" lon="34.78342438"><ele>487.0</ele><time>2013-11-20T09:56:29.0000000+00:00</time></trkpt><trkpt lat="30.85068893" lon="34.78342438"><ele>487.0</ele><time>2013-11-20T09:56:34.0000000+00:00</time></trkpt><trkpt lat="30.85068893" lon="34.78342438"><ele>487.0</ele><time>2013-11-20T09:56:39.0000000+00:00</time></trkpt><trkpt lat="30.85068893" lon="34.78342438"><ele>487.0</ele><time>2013-11-20T09:56:44.0000000+00:00</time></trkpt><trkpt lat="30.85068893" lon="34.78342438"><ele>487.0</ele><time>2013-11-20T09:56:49.0000000+00:00</time></trkpt><trkpt lat="30.85068893" lon="34.78342438"><ele>487.0</ele><time>2013-11-20T09:56:54.0000000+00:00</time></trkpt><trkpt lat="30.85068893" lon="34.78342438"><ele>487.0</ele><time>2013-11-20T09:56:59.0000000+00:00</time></trkpt><trkpt lat="30.85068703" lon="34.78342819"><ele>487.0</ele><time>2013-11-20T09:57:04.0000000+00:00</time></trkpt><trkpt lat="30.85068703" lon="34.78342819"><ele>487.0</ele><time>2013-11-20T09:57:09.0000000+00:00</time></trkpt><trkpt lat="30.85068703" lon="34.78342819"><ele>486.9</ele><time>2013-11-20T09:57:14.0000000+00:00</time></trkpt><trkpt lat="30.85068703" lon="34.78342819"><ele>486.9</ele><time>2013-11-20T09:57:19.0000000+00:00</time></trkpt><trkpt lat="30.85068703" lon="34.78342819"><ele>486.9</ele><time>2013-11-20T09:57:24.0000000+00:00</time></trkpt><trkpt lat="30.85068512" lon="34.78342819"><ele>486.8</ele><time>2013-11-20T09:57:29.0000000+00:00</time></trkpt><trkpt lat="30.85068512" lon="34.78342819"><ele>486.8</ele><time>2013-11-20T09:57:34.0000000+00:00</time></trkpt><trkpt lat="30.85068512" lon="34.78342819"><ele>486.8</ele><time>2013-11-20T09:57:39.0000000+00:00</time></trkpt><trkpt lat="30.85068512" lon="34.78342819"><ele>486.8</ele><time>2013-11-20T09:57:44.0000000+00:00</time></trkpt><trkpt lat="30.85068512" lon="34.78342819"><ele>486.8</ele><time>2013-11-20T09:57:49.0000000+00:00</time></trkpt><trkpt lat="30.85068512" lon="34.78342819"><ele>486.8</ele><time>2013-11-20T09:57:54.0000000+00:00</time></trkpt><trkpt lat="30.85068512" lon="34.78342819"><ele>486.8</ele><time>2013-11-20T09:57:59.0000000+00:00</time></trkpt><trkpt lat="30.85068512" lon="34.78342819"><ele>486.8</ele><time>2013-11-20T09:58:04.0000000+00:00</time></trkpt><trkpt lat="30.85068512" lon="34.78342819"><ele>486.7</ele><time>2013-11-20T09:58:09.0000000+00:00</time></trkpt><trkpt lat="30.85068321" lon="34.78342819"><ele>486.7</ele><time>2013-11-20T09:58:14.0000000+00:00</time></trkpt><trkpt lat="30.85068321" lon="34.78342819"><ele>486.7</ele><time>2013-11-20T09:58:19.0000000+00:00</time></trkpt><trkpt lat="30.85068321" lon="34.78342819"><ele>486.7</ele><time>2013-11-20T09:58:24.0000000+00:00</time></trkpt><trkpt lat="30.85068321" lon="34.78342819"><ele>486.7</ele><time>2013-11-20T09:58:29.0000000+00:00</time></trkpt><trkpt lat="30.85068321" lon="34.78342819"><ele>486.6</ele><time>2013-11-20T09:58:34.0000000+00:00</time></trkpt><trkpt lat="30.85068131" lon="34.78342819"><ele>486.6</ele><time>2013-11-20T09:58:39.0000000+00:00</time></trkpt><trkpt lat="30.85068131" lon="34.78342819"><ele>486.6</ele><time>2013-11-20T09:58:44.0000000+00:00</time></trkpt><trkpt lat="30.85068131" lon="34.78342819"><ele>486.6</ele><time>2013-11-20T09:58:49.0000000+00:00</time></trkpt><trkpt lat="30.85068131" lon="34.78342819"><ele>486.5</ele><time>2013-11-20T09:58:54.0000000+00:00</time></trkpt><trkpt lat="30.85068131" lon="34.78342819"><ele>486.5</ele><time>2013-11-20T09:58:59.0000000+00:00</time></trkpt><trkpt lat="30.85068131" lon="34.78342819"><ele>486.5</ele><time>2013-11-20T09:59:04.0000000+00:00</time></trkpt><trkpt lat="30.8506794" lon="34.78342819"><ele>486.5</ele><time>2013-11-20T09:59:09.0000000+00:00</time></trkpt><trkpt lat="30.8506794" lon="34.78342819"><ele>486.5</ele><time>2013-11-20T09:59:14.0000000+00:00</time></trkpt><trkpt lat="30.8506794" lon="34.78342819"><ele>486.5</ele><time>2013-11-20T09:59:19.0000000+00:00</time></trkpt><trkpt lat="30.8506794" lon="34.78342819"><ele>486.5</ele><time>2013-11-20T09:59:24.0000000+00:00</time></trkpt><trkpt lat="30.8506794" lon="34.78342819"><ele>486.5</ele><time>2013-11-20T09:59:29.0000000+00:00</time></trkpt><trkpt lat="30.8506794" lon="34.78342819"><ele>486.4</ele><time>2013-11-20T09:59:34.0000000+00:00</time></trkpt><trkpt lat="30.8506794" lon="34.78342819"><ele>486.4</ele><time>2013-11-20T09:59:39.0000000+00:00</time></trkpt><trkpt lat="30.8506794" lon="34.78342819"><ele>486.4</ele><time>2013-11-20T09:59:44.0000000+00:00</time></trkpt><trkpt lat="30.8506794" lon="34.78342819"><ele>486.4</ele><time>2013-11-20T09:59:49.0000000+00:00</time></trkpt><trkpt lat="30.8506794" lon="34.78342819"><ele>486.3</ele><time>2013-11-20T09:59:54.0000000+00:00</time></trkpt><trkpt lat="30.8506794" lon="34.78342819"><ele>486.3</ele><time>2013-11-20T09:59:59.0000000+00:00</time></trkpt><trkpt lat="30.8506794" lon="34.78342819"><ele>486.3</ele><time>2013-11-20T10:00:04.0000000+00:00</time></trkpt><trkpt lat="30.85068131" lon="34.78342819"><ele>486.3</ele><time>2013-11-20T10:00:09.0000000+00:00</time></trkpt><trkpt lat="30.85068131" lon="34.78342819"><ele>486.3</ele><time>2013-11-20T10:00:14.0000000+00:00</time></trkpt><trkpt lat="30.85068131" lon="34.78342819"><ele>486.3</ele><time>2013-11-20T10:00:19.0000000+00:00</time></trkpt><trkpt lat="30.85068131" lon="34.78342819"><ele>486.3</ele><time>2013-11-20T10:00:24.0000000+00:00</time></trkpt><trkpt lat="30.85068131" lon="34.78342819"><ele>486.3</ele><time>2013-11-20T10:00:29.0000000+00:00</time></trkpt><trkpt lat="30.85068131" lon="34.78342819"><ele>486.3</ele><time>2013-11-20T10:00:34.0000000+00:00</time></trkpt><trkpt lat="30.85068131" lon="34.78342819"><ele>486.3</ele><time>2013-11-20T10:00:39.0000000+00:00</time></trkpt><trkpt lat="30.8506794" lon="34.78342819"><ele>486.3</ele><time>2013-11-20T10:00:44.0000000+00:00</time></trkpt><trkpt lat="30.8506794" lon="34.78342819"><ele>486.2</ele><time>2013-11-20T10:00:49.0000000+00:00</time></trkpt><trkpt lat="30.8506794" lon="34.78342819"><ele>486.2</ele><time>2013-11-20T10:00:54.0000000+00:00</time></trkpt><trkpt lat="30.8506794" lon="34.78342819"><ele>486.2</ele><time>2013-11-20T10:00:59.0000000+00:00</time></trkpt><trkpt lat="30.8506794" lon="34.78342819"><ele>486.2</ele><time>2013-11-20T10:01:04.0000000+00:00</time></trkpt><trkpt lat="30.8506794" lon="34.78342819"><ele>486.2</ele><time>2013-11-20T10:01:09.0000000+00:00</time></trkpt><trkpt lat="30.8506794" lon="34.78342819"><ele>486.2</ele><time>2013-11-20T10:01:14.0000000+00:00</time></trkpt><trkpt lat="30.8506794" lon="34.78342819"><ele>486.2</ele><time>2013-11-20T10:01:19.0000000+00:00</time></trkpt><trkpt lat="30.8506794" lon="34.78342819"><ele>486.2</ele><time>2013-11-20T10:01:24.0000000+00:00</time></trkpt><trkpt lat="30.8506794" lon="34.78342819"><ele>486.1</ele><time>2013-11-20T10:01:29.0000000+00:00</time></trkpt><trkpt lat="30.8506794" lon="34.78342819"><ele>486.1</ele><time>2013-11-20T10:01:34.0000000+00:00</time></trkpt><trkpt lat="30.85068131" lon="34.78342819"><ele>486.1</ele><time>2013-11-20T10:01:39.0000000+00:00</time></trkpt><trkpt lat="30.85068131" lon="34.78342819"><ele>486.1</ele><time>2013-11-20T10:01:44.0000000+00:00</time></trkpt><trkpt lat="30.85068131" lon="34.78343201"><ele>486.2</ele><time>2013-11-20T10:01:49.0000000+00:00</time></trkpt><trkpt lat="30.85068321" lon="34.78343201"><ele>486.2</ele><time>2013-11-20T10:01:54.0000000+00:00</time></trkpt><trkpt lat="30.85068321" lon="34.78342819"><ele>486.2</ele><time>2013-11-20T10:01:59.0000000+00:00</time></trkpt><trkpt lat="30.85068321" lon="34.78342819"><ele>486.2</ele><time>2013-11-20T10:02:04.0000000+00:00</time></trkpt><trkpt lat="30.85068321" lon="34.78342819"><ele>486.2</ele><time>2013-11-20T10:02:09.0000000+00:00</time></trkpt><trkpt lat="30.85068321" lon="34.78342819"><ele>486.2</ele><time>2013-11-20T10:02:14.0000000+00:00</time></trkpt><trkpt lat="30.85068512" lon="34.78342819"><ele>486.2</ele><time>2013-11-20T10:02:19.0000000+00:00</time></trkpt><trkpt lat="30.85068512" lon="34.78342819"><ele>486.2</ele><time>2013-11-20T10:02:24.0000000+00:00</time></trkpt><trkpt lat="30.85068512" lon="34.78342819"><ele>486.2</ele><time>2013-11-20T10:02:29.0000000+00:00</time></trkpt><trkpt lat="30.85068512" lon="34.78342819"><ele>486.2</ele><time>2013-11-20T10:02:34.0000000+00:00</time></trkpt><trkpt lat="30.85068512" lon="34.78342819"><ele>486.2</ele><time>2013-11-20T10:02:39.0000000+00:00</time></trkpt><trkpt lat="30.85068512" lon="34.78342819"><ele>486.1</ele><time>2013-11-20T10:02:44.0000000+00:00</time></trkpt><trkpt lat="30.85068512" lon="34.78342819"><ele>486.1</ele><time>2013-11-20T10:02:49.0000000+00:00</time></trkpt><trkpt lat="30.85068512" lon="34.78342819"><ele>486.1</ele><time>2013-11-20T10:02:54.0000000+00:00</time></trkpt><trkpt lat="30.85068512" lon="34.78342819"><ele>486.1</ele><time>2013-11-20T10:02:59.0000000+00:00</time></trkpt><trkpt lat="30.85068512" lon="34.78342819"><ele>486.1</ele><time>2013-11-20T10:03:04.0000000+00:00</time></trkpt><trkpt lat="30.85068512" lon="34.78342819"><ele>486.0</ele><time>2013-11-20T10:03:09.0000000+00:00</time></trkpt><trkpt lat="30.85068512" lon="34.78342819"><ele>486.0</ele><time>2013-11-20T10:03:14.0000000+00:00</time></trkpt><trkpt lat="30.85068321" lon="34.78342819"><ele>486.0</ele><time>2013-11-20T10:03:19.0000000+00:00</time></trkpt><trkpt lat="30.85068321" lon="34.78342819"><ele>486.0</ele><time>2013-11-20T10:03:24.0000000+00:00</time></trkpt><trkpt lat="30.85068321" lon="34.78342819"><ele>486.0</ele><time>2013-11-20T10:03:29.0000000+00:00</time></trkpt><trkpt lat="30.85068321" lon="34.78342819"><ele>486.0</ele><time>2013-11-20T10:03:34.0000000+00:00</time></trkpt><trkpt lat="30.85068321" lon="34.78342819"><ele>486.0</ele><time>2013-11-20T10:03:39.0000000+00:00</time></trkpt><trkpt lat="30.85068321" lon="34.78342819"><ele>486.0</ele><time>2013-11-20T10:03:44.0000000+00:00</time></trkpt><trkpt lat="30.85068321" lon="34.78343201"><ele>485.9</ele><time>2013-11-20T10:03:49.0000000+00:00</time></trkpt><trkpt lat="30.85068321" lon="34.78343201"><ele>485.9</ele><time>2013-11-20T10:03:54.0000000+00:00</time></trkpt><trkpt lat="30.85068321" lon="34.78343201"><ele>485.9</ele><time>2013-11-20T10:03:59.0000000+00:00</time></trkpt><trkpt lat="30.85068321" lon="34.78343201"><ele>485.9</ele><time>2013-11-20T10:04:04.0000000+00:00</time></trkpt><trkpt lat="30.85068321" lon="34.78343201"><ele>485.9</ele><time>2013-11-20T10:04:09.0000000+00:00</time></trkpt><trkpt lat="30.85068321" lon="34.78343201"><ele>485.9</ele><time>2013-11-20T10:04:14.0000000+00:00</time></trkpt><trkpt lat="30.85068321" lon="34.78343201"><ele>485.9</ele><time>2013-11-20T10:04:19.0000000+00:00</time></trkpt><trkpt lat="30.85068321" lon="34.78343201"><ele>485.9</ele><time>2013-11-20T10:04:24.0000000+00:00</time></trkpt><trkpt lat="30.85068321" lon="34.78343201"><ele>485.9</ele><time>2013-11-20T10:04:29.0000000+00:00</time></trkpt><trkpt lat="30.85068321" lon="34.78343201"><ele>485.9</ele><time>2013-11-20T10:04:34.0000000+00:00</time></trkpt><trkpt lat="30.85068321" lon="34.78343201"><ele>485.9</ele><time>2013-11-20T10:04:39.0000000+00:00</time></trkpt><trkpt lat="30.85068321" lon="34.78343201"><ele>485.9</ele><time>2013-11-20T10:04:44.0000000+00:00</time></trkpt><trkpt lat="30.85068321" lon="34.78343201"><ele>485.8</ele><time>2013-11-20T10:04:49.0000000+00:00</time></trkpt><trkpt lat="30.85068321" lon="34.78343201"><ele>485.8</ele><time>2013-11-20T10:04:54.0000000+00:00</time></trkpt><trkpt lat="30.85068321" lon="34.78343201"><ele>485.8</ele><time>2013-11-20T10:04:59.0000000+00:00</time></trkpt><trkpt lat="30.85068321" lon="34.78343201"><ele>485.8</ele><time>2013-11-20T10:05:04.0000000+00:00</time></trkpt><trkpt lat="30.85068321" lon="34.78343201"><ele>485.8</ele><time>2013-11-20T10:05:09.0000000+00:00</time></trkpt><trkpt lat="30.85068321" lon="34.78343201"><ele>485.8</ele><time>2013-11-20T10:05:14.0000000+00:00</time></trkpt><trkpt lat="30.85068321" lon="34.78343201"><ele>485.8</ele><time>2013-11-20T10:05:19.0000000+00:00</time></trkpt><trkpt lat="30.85068321" lon="34.78343201"><ele>485.8</ele><time>2013-11-20T10:05:24.0000000+00:00</time></trkpt><trkpt lat="30.85068321" lon="34.78343201"><ele>485.8</ele><time>2013-11-20T10:05:29.0000000+00:00</time></trkpt><trkpt lat="30.85068321" lon="34.78343201"><ele>485.7</ele><time>2013-11-20T10:05:34.0000000+00:00</time></trkpt><trkpt lat="30.85068512" lon="34.78343201"><ele>485.7</ele><time>2013-11-20T10:05:39.0000000+00:00</time></trkpt><trkpt lat="30.85068512" lon="34.78343201"><ele>485.7</ele><time>2013-11-20T10:05:44.0000000+00:00</time></trkpt><trkpt lat="30.85068512" lon="34.78343201"><ele>485.7</ele><time>2013-11-20T10:05:49.0000000+00:00</time></trkpt><trkpt lat="30.85068512" lon="34.78343201"><ele>485.7</ele><time>2013-11-20T10:05:54.0000000+00:00</time></trkpt><trkpt lat="30.85068512" lon="34.78343201"><ele>485.7</ele><time>2013-11-20T10:05:59.0000000+00:00</time></trkpt><trkpt lat="30.85068512" lon="34.78343201"><ele>485.7</ele><time>2013-11-20T10:06:04.0000000+00:00</time></trkpt><trkpt lat="30.85068512" lon="34.78343201"><ele>485.7</ele><time>2013-11-20T10:06:09.0000000+00:00</time></trkpt><trkpt lat="30.85068512" lon="34.78343201"><ele>485.7</ele><time>2013-11-20T10:06:14.0000000+00:00</time></trkpt><trkpt lat="30.85068512" lon="34.78343201"><ele>485.7</ele><time>2013-11-20T10:06:19.0000000+00:00</time></trkpt><trkpt lat="30.85068512" lon="34.78343201"><ele>485.7</ele><time>2013-11-20T10:06:24.0000000+00:00</time></trkpt><trkpt lat="30.85068512" lon="34.78343201"><ele>485.7</ele><time>2013-11-20T10:06:29.0000000+00:00</time></trkpt><trkpt lat="30.85068703" lon="34.78343201"><ele>485.7</ele><time>2013-11-20T10:06:34.0000000+00:00</time></trkpt><trkpt lat="30.85068703" lon="34.78343201"><ele>485.7</ele><time>2013-11-20T10:06:39.0000000+00:00</time></trkpt><trkpt lat="30.85068703" lon="34.78343582"><ele>485.7</ele><time>2013-11-20T10:06:44.0000000+00:00</time></trkpt><trkpt lat="30.85068703" lon="34.78343582"><ele>485.7</ele><time>2013-11-20T10:06:49.0000000+00:00</time></trkpt><trkpt lat="30.85068703" lon="34.78343582"><ele>485.7</ele><time>2013-11-20T10:06:54.0000000+00:00</time></trkpt><trkpt lat="30.85068703" lon="34.78343582"><ele>485.7</ele><time>2013-11-20T10:06:59.0000000+00:00</time></trkpt><trkpt lat="30.85068703" lon="34.78343582"><ele>485.7</ele><time>2013-11-20T10:07:04.0000000+00:00</time></trkpt><trkpt lat="30.85068703" lon="34.78343582"><ele>485.7</ele><time>2013-11-20T10:07:09.0000000+00:00</time></trkpt><trkpt lat="30.85068703" lon="34.78343582"><ele>485.7</ele><time>2013-11-20T10:07:14.0000000+00:00</time></trkpt><trkpt lat="30.85068703" lon="34.78343582"><ele>485.7</ele><time>2013-11-20T10:07:19.0000000+00:00</time></trkpt><trkpt lat="30.85068893" lon="34.78343582"><ele>485.7</ele><time>2013-11-20T10:07:24.0000000+00:00</time></trkpt><trkpt lat="30.85068893" lon="34.78343582"><ele>485.7</ele><time>2013-11-20T10:07:29.0000000+00:00</time></trkpt><trkpt lat="30.85068893" lon="34.78343582"><ele>485.7</ele><time>2013-11-20T10:07:34.0000000+00:00</time></trkpt><trkpt lat="30.85068893" lon="34.78343582"><ele>485.7</ele><time>2013-11-20T10:07:39.0000000+00:00</time></trkpt><trkpt lat="30.85069084" lon="34.78343582"><ele>485.7</ele><time>2013-11-20T10:07:44.0000000+00:00</time></trkpt><trkpt lat="30.85069084" lon="34.78343582"><ele>485.7</ele><time>2013-11-20T10:07:49.0000000+00:00</time></trkpt><trkpt lat="30.85069084" lon="34.78343582"><ele>485.7</ele><time>2013-11-20T10:07:54.0000000+00:00</time></trkpt><trkpt lat="30.85069275" lon="34.78343582"><ele>485.7</ele><time>2013-11-20T10:07:59.0000000+00:00</time></trkpt><trkpt lat="30.85069275" lon="34.78343582"><ele>485.7</ele><time>2013-11-20T10:08:04.0000000+00:00</time></trkpt><trkpt lat="30.85069275" lon="34.78343582"><ele>485.7</ele><time>2013-11-20T10:08:09.0000000+00:00</time></trkpt><trkpt lat="30.85069275" lon="34.78343582"><ele>485.7</ele><time>2013-11-20T10:08:14.0000000+00:00</time></trkpt><trkpt lat="30.85069466" lon="34.78343582"><ele>485.6</ele><time>2013-11-20T10:08:19.0000000+00:00</time></trkpt><trkpt lat="30.85069466" lon="34.78343201"><ele>485.7</ele><time>2013-11-20T10:08:24.0000000+00:00</time></trkpt><trkpt lat="30.85069466" lon="34.78343201"><ele>485.7</ele><time>2013-11-20T10:08:29.0000000+00:00</time></trkpt><trkpt lat="30.85069466" lon="34.78343201"><ele>485.6</ele><time>2013-11-20T10:08:34.0000000+00:00</time></trkpt><trkpt lat="30.85069656" lon="34.78343201"><ele>485.6</ele><time>2013-11-20T10:08:39.0000000+00:00</time></trkpt><trkpt lat="30.85069656" lon="34.78343201"><ele>485.6</ele><time>2013-11-20T10:08:44.0000000+00:00</time></trkpt><trkpt lat="30.85069656" lon="34.78343201"><ele>485.6</ele><time>2013-11-20T10:08:49.0000000+00:00</time></trkpt><trkpt lat="30.85069656" lon="34.78343201"><ele>485.6</ele><time>2013-11-20T10:08:54.0000000+00:00</time></trkpt><trkpt lat="30.85069656" lon="34.78343201"><ele>485.6</ele><time>2013-11-20T10:08:59.0000000+00:00</time></trkpt><trkpt lat="30.85069656" lon="34.78343201"><ele>485.6</ele><time>2013-11-20T10:09:04.0000000+00:00</time></trkpt><trkpt lat="30.85069656" lon="34.78343201"><ele>485.6</ele><time>2013-11-20T10:09:09.0000000+00:00</time></trkpt><trkpt lat="30.85069656" lon="34.78343201"><ele>485.5</ele><time>2013-11-20T10:09:14.0000000+00:00</time></trkpt><trkpt lat="30.85069847" lon="34.78343201"><ele>485.5</ele><time>2013-11-20T10:09:19.0000000+00:00</time></trkpt><trkpt lat="30.85069847" lon="34.78343201"><ele>485.5</ele><time>2013-11-20T10:09:24.0000000+00:00</time></trkpt><trkpt lat="30.85069847" lon="34.78343201"><ele>485.5</ele><time>2013-11-20T10:09:29.0000000+00:00</time></trkpt><trkpt lat="30.85069847" lon="34.78343201"><ele>485.5</ele><time>2013-11-20T10:09:34.0000000+00:00</time></trkpt><trkpt lat="30.85069847" lon="34.78343201"><ele>485.5</ele><time>2013-11-20T10:09:39.0000000+00:00</time></trkpt><trkpt lat="30.85069847" lon="34.78343201"><ele>485.4</ele><time>2013-11-20T10:09:44.0000000+00:00</time></trkpt><trkpt lat="30.85069847" lon="34.78343201"><ele>485.4</ele><time>2013-11-20T10:09:49.0000000+00:00</time></trkpt><trkpt lat="30.85069847" lon="34.78343201"><ele>485.4</ele><time>2013-11-20T10:09:54.0000000+00:00</time></trkpt><trkpt lat="30.85069847" lon="34.78343201"><ele>485.4</ele><time>2013-11-20T10:09:59.0000000+00:00</time></trkpt><trkpt lat="30.85070038" lon="34.78343201"><ele>485.4</ele><time>2013-11-20T10:10:04.0000000+00:00</time></trkpt><trkpt lat="30.85070038" lon="34.78343201"><ele>485.4</ele><time>2013-11-20T10:10:09.0000000+00:00</time></trkpt><trkpt lat="30.85070038" lon="34.78343201"><ele>485.4</ele><time>2013-11-20T10:10:14.0000000+00:00</time></trkpt><trkpt lat="30.85070038" lon="34.78343201"><ele>485.3</ele><time>2013-11-20T10:10:19.0000000+00:00</time></trkpt><trkpt lat="30.85070038" lon="34.78343201"><ele>485.3</ele><time>2013-11-20T10:10:24.0000000+00:00</time></trkpt><trkpt lat="30.85070038" lon="34.78343201"><ele>485.3</ele><time>2013-11-20T10:10:29.0000000+00:00</time></trkpt><trkpt lat="30.85070038" lon="34.78343201"><ele>485.3</ele><time>2013-11-20T10:10:34.0000000+00:00</time></trkpt><trkpt lat="30.85070229" lon="34.78343201"><ele>485.3</ele><time>2013-11-20T10:10:39.0000000+00:00</time></trkpt><trkpt lat="30.85070229" lon="34.78343201"><ele>485.3</ele><time>2013-11-20T10:10:44.0000000+00:00</time></trkpt><trkpt lat="30.85070229" lon="34.78343201"><ele>485.3</ele><time>2013-11-20T10:10:49.0000000+00:00</time></trkpt><trkpt lat="30.85070229" lon="34.78343201"><ele>485.3</ele><time>2013-11-20T10:10:54.0000000+00:00</time></trkpt><trkpt lat="30.85070229" lon="34.78343201"><ele>485.3</ele><time>2013-11-20T10:10:59.0000000+00:00</time></trkpt><trkpt lat="30.85070229" lon="34.78343201"><ele>485.3</ele><time>2013-11-20T10:11:04.0000000+00:00</time></trkpt><trkpt lat="30.85070419" lon="34.78343201"><ele>485.3</ele><time>2013-11-20T10:11:09.0000000+00:00</time></trkpt><trkpt lat="30.85070419" lon="34.78343201"><ele>485.3</ele><time>2013-11-20T10:11:14.0000000+00:00</time></trkpt><trkpt lat="30.85070419" lon="34.78343201"><ele>485.4</ele><time>2013-11-20T10:11:19.0000000+00:00</time></trkpt><trkpt lat="30.85070419" lon="34.78343582"><ele>485.4</ele><time>2013-11-20T10:11:24.0000000+00:00</time></trkpt><trkpt lat="30.85070419" lon="34.78343582"><ele>485.4</ele><time>2013-11-20T10:11:29.0000000+00:00</time></trkpt><trkpt lat="30.85070419" lon="34.78343582"><ele>485.4</ele><time>2013-11-20T10:11:34.0000000+00:00</time></trkpt><trkpt lat="30.85070419" lon="34.78343582"><ele>485.4</ele><time>2013-11-20T10:11:39.0000000+00:00</time></trkpt><trkpt lat="30.85070419" lon="34.78343582"><ele>485.4</ele><time>2013-11-20T10:11:44.0000000+00:00</time></trkpt><trkpt lat="30.85070419" lon="34.78343582"><ele>485.4</ele><time>2013-11-20T10:11:49.0000000+00:00</time></trkpt><trkpt lat="30.85070419" lon="34.78343582"><ele>485.4</ele><time>2013-11-20T10:11:54.0000000+00:00</time></trkpt><trkpt lat="30.85070419" lon="34.78343582"><ele>485.4</ele><time>2013-11-20T10:11:59.0000000+00:00</time></trkpt><trkpt lat="30.85070419" lon="34.78343582"><ele>485.4</ele><time>2013-11-20T10:12:04.0000000+00:00</time></trkpt><trkpt lat="30.85070419" lon="34.78343582"><ele>485.4</ele><time>2013-11-20T10:12:09.0000000+00:00</time></trkpt><trkpt lat="30.85070419" lon="34.78343582"><ele>485.4</ele><time>2013-11-20T10:12:14.0000000+00:00</time></trkpt><trkpt lat="30.85070419" lon="34.78343582"><ele>485.4</ele><time>2013-11-20T10:12:19.0000000+00:00</time></trkpt><trkpt lat="30.85070419" lon="34.78343582"><ele>485.4</ele><time>2013-11-20T10:12:24.0000000+00:00</time></trkpt><trkpt lat="30.85070419" lon="34.78343582"><ele>485.4</ele><time>2013-11-20T10:12:29.0000000+00:00</time></trkpt><trkpt lat="30.85070419" lon="34.78343582"><ele>485.4</ele><time>2013-11-20T10:12:34.0000000+00:00</time></trkpt><trkpt lat="30.85070419" lon="34.78343582"><ele>485.4</ele><time>2013-11-20T10:12:39.0000000+00:00</time></trkpt><trkpt lat="30.85070419" lon="34.78343582"><ele>485.4</ele><time>2013-11-20T10:12:44.0000000+00:00</time></trkpt><trkpt lat="30.8507061" lon="34.78343582"><ele>485.4</ele><time>2013-11-20T10:12:49.0000000+00:00</time></trkpt><trkpt lat="30.8507061" lon="34.78343582"><ele>485.3</ele><time>2013-11-20T10:12:54.0000000+00:00</time></trkpt><trkpt lat="30.8507061" lon="34.78343582"><ele>485.3</ele><time>2013-11-20T10:12:59.0000000+00:00</time></trkpt><trkpt lat="30.8507061" lon="34.78343582"><ele>485.3</ele><time>2013-11-20T10:13:04.0000000+00:00</time></trkpt><trkpt lat="30.8507061" lon="34.78343582"><ele>485.3</ele><time>2013-11-20T10:13:09.0000000+00:00</time></trkpt><trkpt lat="30.8507061" lon="34.78343582"><ele>485.3</ele><time>2013-11-20T10:13:14.0000000+00:00</time></trkpt><trkpt lat="30.85070801" lon="34.78343582"><ele>485.2</ele><time>2013-11-20T10:13:19.0000000+00:00</time></trkpt><trkpt lat="30.85070801" lon="34.78343582"><ele>485.2</ele><time>2013-11-20T10:13:24.0000000+00:00</time></trkpt><trkpt lat="30.85070801" lon="34.78343582"><ele>485.2</ele><time>2013-11-20T10:13:29.0000000+00:00</time></trkpt><trkpt lat="30.85070801" lon="34.78343582"><ele>485.1</ele><time>2013-11-20T10:13:34.0000000+00:00</time></trkpt><trkpt lat="30.85070801" lon="34.78343201"><ele>485.1</ele><time>2013-11-20T10:13:39.0000000+00:00</time></trkpt><trkpt lat="30.85070801" lon="34.78343201"><ele>485.1</ele><time>2013-11-20T10:13:44.0000000+00:00</time></trkpt><trkpt lat="30.85070801" lon="34.78343201"><ele>485.0</ele><time>2013-11-20T10:13:49.0000000+00:00</time></trkpt><trkpt lat="30.85070801" lon="34.78343201"><ele>485.0</ele><time>2013-11-20T10:13:54.0000000+00:00</time></trkpt><trkpt lat="30.85070801" lon="34.78343201"><ele>485.0</ele><time>2013-11-20T10:13:59.0000000+00:00</time></trkpt><trkpt lat="30.85070801" lon="34.78343201"><ele>484.9</ele><time>2013-11-20T10:14:04.0000000+00:00</time></trkpt><trkpt lat="30.85070801" lon="34.78343201"><ele>484.9</ele><time>2013-11-20T10:14:09.0000000+00:00</time></trkpt><trkpt lat="30.85070801" lon="34.78343201"><ele>484.8</ele><time>2013-11-20T10:14:14.0000000+00:00</time></trkpt><trkpt lat="30.85070801" lon="34.78343201"><ele>484.8</ele><time>2013-11-20T10:14:19.0000000+00:00</time></trkpt><trkpt lat="30.85070801" lon="34.78343201"><ele>484.8</ele><time>2013-11-20T10:14:24.0000000+00:00</time></trkpt><trkpt lat="30.85070801" lon="34.78343201"><ele>484.7</ele><time>2013-11-20T10:14:29.0000000+00:00</time></trkpt><trkpt lat="30.85070992" lon="34.78343201"><ele>484.7</ele><time>2013-11-20T10:14:34.0000000+00:00</time></trkpt><trkpt lat="30.85070992" lon="34.78343201"><ele>484.6</ele><time>2013-11-20T10:14:39.0000000+00:00</time></trkpt><trkpt lat="30.85070992" lon="34.78343201"><ele>484.6</ele><time>2013-11-20T10:14:44.0000000+00:00</time></trkpt><trkpt lat="30.85070992" lon="34.78343201"><ele>484.5</ele><time>2013-11-20T10:14:49.0000000+00:00</time></trkpt><trkpt lat="30.85070992" lon="34.78342819"><ele>484.4</ele><time>2013-11-20T10:14:54.0000000+00:00</time></trkpt><trkpt lat="30.85070992" lon="34.78342819"><ele>484.4</ele><time>2013-11-20T10:14:59.0000000+00:00</time></trkpt><trkpt lat="30.85070992" lon="34.78342819"><ele>484.3</ele><time>2013-11-20T10:15:04.0000000+00:00</time></trkpt><trkpt lat="30.85070992" lon="34.78342819"><ele>484.3</ele><time>2013-11-20T10:15:09.0000000+00:00</time></trkpt><trkpt lat="30.85070992" lon="34.78342819"><ele>484.2</ele><time>2013-11-20T10:15:14.0000000+00:00</time></trkpt><trkpt lat="30.85070992" lon="34.78342819"><ele>484.2</ele><time>2013-11-20T10:15:19.0000000+00:00</time></trkpt><trkpt lat="30.85070992" lon="34.78342819"><ele>484.1</ele><time>2013-11-20T10:15:24.0000000+00:00</time></trkpt><trkpt lat="30.85070992" lon="34.78342819"><ele>484.1</ele><time>2013-11-20T10:15:29.0000000+00:00</time></trkpt><trkpt lat="30.85070992" lon="34.78342819"><ele>484.0</ele><time>2013-11-20T10:15:34.0000000+00:00</time></trkpt><trkpt lat="30.85070992" lon="34.78342819"><ele>484.0</ele><time>2013-11-20T10:15:39.0000000+00:00</time></trkpt><trkpt lat="30.85070992" lon="34.78342819"><ele>483.9</ele><time>2013-11-20T10:15:44.0000000+00:00</time></trkpt><trkpt lat="30.85070992" lon="34.78342819"><ele>483.9</ele><time>2013-11-20T10:15:49.0000000+00:00</time></trkpt><trkpt lat="30.85070992" lon="34.78342819"><ele>483.9</ele><time>2013-11-20T10:15:54.0000000+00:00</time></trkpt><trkpt lat="30.85070992" lon="34.78342819"><ele>483.9</ele><time>2013-11-20T10:15:59.0000000+00:00</time></trkpt><trkpt lat="30.85070801" lon="34.78342819"><ele>483.8</ele><time>2013-11-20T10:16:04.0000000+00:00</time></trkpt><trkpt lat="30.85070801" lon="34.78342819"><ele>483.8</ele><time>2013-11-20T10:16:09.0000000+00:00</time></trkpt><trkpt lat="30.85070801" lon="34.78342438"><ele>483.7</ele><time>2013-11-20T10:16:14.0000000+00:00</time></trkpt><trkpt lat="30.85070801" lon="34.78342438"><ele>483.6</ele><time>2013-11-20T10:16:19.0000000+00:00</time></trkpt><trkpt lat="30.85070801" lon="34.78342438"><ele>483.6</ele><time>2013-11-20T10:16:24.0000000+00:00</time></trkpt><trkpt lat="30.85070801" lon="34.78342438"><ele>483.5</ele><time>2013-11-20T10:16:29.0000000+00:00</time></trkpt><trkpt lat="30.85070801" lon="34.78342438"><ele>483.5</ele><time>2013-11-20T10:16:34.0000000+00:00</time></trkpt><trkpt lat="30.8507061" lon="34.78342438"><ele>483.4</ele><time>2013-11-20T10:16:39.0000000+00:00</time></trkpt><trkpt lat="30.8507061" lon="34.78342438"><ele>483.4</ele><time>2013-11-20T10:16:44.0000000+00:00</time></trkpt><trkpt lat="30.8507061" lon="34.78342438"><ele>483.2</ele><time>2013-11-20T10:16:49.0000000+00:00</time></trkpt><trkpt lat="30.8507061" lon="34.78342438"><ele>483.1</ele><time>2013-11-20T10:16:54.0000000+00:00</time></trkpt><trkpt lat="30.8507061" lon="34.78342056"><ele>483.0</ele><time>2013-11-20T10:16:59.0000000+00:00</time></trkpt><trkpt lat="30.8507061" lon="34.78342056"><ele>483.0</ele><time>2013-11-20T10:17:04.0000000+00:00</time></trkpt><trkpt lat="30.8507061" lon="34.78342056"><ele>482.9</ele><time>2013-11-20T10:17:09.0000000+00:00</time></trkpt><trkpt lat="30.8507061" lon="34.78342056"><ele>482.9</ele><time>2013-11-20T10:17:14.0000000+00:00</time></trkpt><trkpt lat="30.85070419" lon="34.78342056"><ele>482.8</ele><time>2013-11-20T10:17:19.0000000+00:00</time></trkpt><trkpt lat="30.85070419" lon="34.78342056"><ele>482.8</ele><time>2013-11-20T10:17:24.0000000+00:00</time></trkpt><trkpt lat="30.85070419" lon="34.78342056"><ele>482.7</ele><time>2013-11-20T10:17:29.0000000+00:00</time></trkpt><trkpt lat="30.85070419" lon="34.78342056"><ele>482.6</ele><time>2013-11-20T10:17:34.0000000+00:00</time></trkpt><trkpt lat="30.85070419" lon="34.78342056"><ele>482.6</ele><time>2013-11-20T10:17:39.0000000+00:00</time></trkpt><trkpt lat="30.85070419" lon="34.78342056"><ele>482.6</ele><time>2013-11-20T10:17:44.0000000+00:00</time></trkpt><trkpt lat="30.85070419" lon="34.78342056"><ele>482.6</ele><time>2013-11-20T10:17:49.0000000+00:00</time></trkpt><trkpt lat="30.85070419" lon="34.78342056"><ele>482.6</ele><time>2013-11-20T10:17:54.0000000+00:00</time></trkpt><trkpt lat="30.85070419" lon="34.78341675"><ele>482.6</ele><time>2013-11-20T10:17:59.0000000+00:00</time></trkpt><trkpt lat="30.85070419" lon="34.78341675"><ele>482.6</ele><time>2013-11-20T10:18:04.0000000+00:00</time></trkpt><trkpt lat="30.85070419" lon="34.78341675"><ele>482.6</ele><time>2013-11-20T10:18:09.0000000+00:00</time></trkpt><trkpt lat="30.85070419" lon="34.78341675"><ele>482.5</ele><time>2013-11-20T10:18:14.0000000+00:00</time></trkpt><trkpt lat="30.85070419" lon="34.78341675"><ele>482.5</ele><time>2013-11-20T10:18:19.0000000+00:00</time></trkpt><trkpt lat="30.85070419" lon="34.78341675"><ele>482.5</ele><time>2013-11-20T10:18:24.0000000+00:00</time></trkpt><trkpt lat="30.85070419" lon="34.78341675"><ele>482.5</ele><time>2013-11-20T10:18:29.0000000+00:00</time></trkpt><trkpt lat="30.85070419" lon="34.78341675"><ele>482.5</ele><time>2013-11-20T10:18:34.0000000+00:00</time></trkpt><trkpt lat="30.85070419" lon="34.78341675"><ele>482.5</ele><time>2013-11-20T10:18:39.0000000+00:00</time></trkpt><trkpt lat="30.85070419" lon="34.78341675"><ele>482.5</ele><time>2013-11-20T10:18:44.0000000+00:00</time></trkpt><trkpt lat="30.85070419" lon="34.78341675"><ele>482.5</ele><time>2013-11-20T10:18:49.0000000+00:00</time></trkpt><trkpt lat="30.85070419" lon="34.78341675"><ele>482.5</ele><time>2013-11-20T10:18:54.0000000+00:00</time></trkpt><trkpt lat="30.85070419" lon="34.78341293"><ele>482.5</ele><time>2013-11-20T10:18:59.0000000+00:00</time></trkpt><trkpt lat="30.85070419" lon="34.78341293"><ele>482.6</ele><time>2013-11-20T10:19:04.0000000+00:00</time></trkpt><trkpt lat="30.85070419" lon="34.78341293"><ele>482.6</ele><time>2013-11-20T10:19:09.0000000+00:00</time></trkpt><trkpt lat="30.85070419" lon="34.78341293"><ele>482.6</ele><time>2013-11-20T10:19:14.0000000+00:00</time></trkpt><trkpt lat="30.85070419" lon="34.78341293"><ele>482.7</ele><time>2013-11-20T10:19:19.0000000+00:00</time></trkpt><trkpt lat="30.85070419" lon="34.78341293"><ele>482.7</ele><time>2013-11-20T10:19:24.0000000+00:00</time></trkpt><trkpt lat="30.85070419" lon="34.78341293"><ele>482.7</ele><time>2013-11-20T10:19:29.0000000+00:00</time></trkpt><trkpt lat="30.85070419" lon="34.78341293"><ele>482.8</ele><time>2013-11-20T10:19:34.0000000+00:00</time></trkpt><trkpt lat="30.85070229" lon="34.78341293"><ele>482.8</ele><time>2013-11-20T10:19:39.0000000+00:00</time></trkpt><trkpt lat="30.85070229" lon="34.78340912"><ele>482.8</ele><time>2013-11-20T10:19:44.0000000+00:00</time></trkpt><trkpt lat="30.85070229" lon="34.78340912"><ele>482.9</ele><time>2013-11-20T10:19:49.0000000+00:00</time></trkpt><trkpt lat="30.85070229" lon="34.78340912"><ele>482.9</ele><time>2013-11-20T10:19:54.0000000+00:00</time></trkpt><trkpt lat="30.85070229" lon="34.78340912"><ele>482.9</ele><time>2013-11-20T10:19:59.0000000+00:00</time></trkpt><trkpt lat="30.85070229" lon="34.78340912"><ele>482.9</ele><time>2013-11-20T10:20:04.0000000+00:00</time></trkpt><trkpt lat="30.85070229" lon="34.78340912"><ele>482.9</ele><time>2013-11-20T10:20:09.0000000+00:00</time></trkpt><trkpt lat="30.85070229" lon="34.78340912"><ele>482.9</ele><time>2013-11-20T10:20:14.0000000+00:00</time></trkpt><trkpt lat="30.85070229" lon="34.7834053"><ele>482.9</ele><time>2013-11-20T10:20:19.0000000+00:00</time></trkpt><trkpt lat="30.85070229" lon="34.7834053"><ele>482.9</ele><time>2013-11-20T10:20:24.0000000+00:00</time></trkpt><trkpt lat="30.85070229" lon="34.7834053"><ele>482.9</ele><time>2013-11-20T10:20:29.0000000+00:00</time></trkpt><trkpt lat="30.85070229" lon="34.7834053"><ele>482.9</ele><time>2013-11-20T10:20:34.0000000+00:00</time></trkpt><trkpt lat="30.85070229" lon="34.7834053"><ele>482.9</ele><time>2013-11-20T10:20:39.0000000+00:00</time></trkpt><trkpt lat="30.85070229" lon="34.7834053"><ele>482.8</ele><time>2013-11-20T10:20:44.0000000+00:00</time></trkpt><trkpt lat="30.85070229" lon="34.7834053"><ele>482.8</ele><time>2013-11-20T10:20:49.0000000+00:00</time></trkpt><trkpt lat="30.85070229" lon="34.7834053"><ele>482.8</ele><time>2013-11-20T10:20:54.0000000+00:00</time></trkpt><trkpt lat="30.85070229" lon="34.7834053"><ele>482.7</ele><time>2013-11-20T10:20:59.0000000+00:00</time></trkpt><trkpt lat="30.85070419" lon="34.7834053"><ele>482.7</ele><time>2013-11-20T10:21:04.0000000+00:00</time></trkpt><trkpt lat="30.85070419" lon="34.78340149"><ele>482.6</ele><time>2013-11-20T10:21:09.0000000+00:00</time></trkpt><trkpt lat="30.85070419" lon="34.78340149"><ele>482.6</ele><time>2013-11-20T10:21:14.0000000+00:00</time></trkpt><trkpt lat="30.85070419" lon="34.78340149"><ele>482.5</ele><time>2013-11-20T10:21:19.0000000+00:00</time></trkpt><trkpt lat="30.85070419" lon="34.78340149"><ele>482.5</ele><time>2013-11-20T10:21:24.0000000+00:00</time></trkpt><trkpt lat="30.85070419" lon="34.78340149"><ele>482.5</ele><time>2013-11-20T10:21:29.0000000+00:00</time></trkpt><trkpt lat="30.85070419" lon="34.78340149"><ele>482.4</ele><time>2013-11-20T10:21:34.0000000+00:00</time></trkpt><trkpt lat="30.85070419" lon="34.78340149"><ele>482.4</ele><time>2013-11-20T10:21:39.0000000+00:00</time></trkpt><trkpt lat="30.85070419" lon="34.78340149"><ele>482.3</ele><time>2013-11-20T10:21:44.0000000+00:00</time></trkpt><trkpt lat="30.85070419" lon="34.78340149"><ele>482.3</ele><time>2013-11-20T10:21:49.0000000+00:00</time></trkpt><trkpt lat="30.85070419" lon="34.78339768"><ele>482.2</ele><time>2013-11-20T10:21:54.0000000+00:00</time></trkpt><trkpt lat="30.85070419" lon="34.78339768"><ele>482.2</ele><time>2013-11-20T10:21:59.0000000+00:00</time></trkpt><trkpt lat="30.85070419" lon="34.78339768"><ele>482.1</ele><time>2013-11-20T10:22:04.0000000+00:00</time></trkpt><trkpt lat="30.85070419" lon="34.78339768"><ele>482.1</ele><time>2013-11-20T10:22:09.0000000+00:00</time></trkpt><trkpt lat="30.85070419" lon="34.78339768"><ele>482.1</ele><time>2013-11-20T10:22:14.0000000+00:00</time></trkpt><trkpt lat="30.85070419" lon="34.78339768"><ele>482.1</ele><time>2013-11-20T10:22:19.0000000+00:00</time></trkpt><trkpt lat="30.85070419" lon="34.78339768"><ele>482.0</ele><time>2013-11-20T10:22:24.0000000+00:00</time></trkpt><trkpt lat="30.85070419" lon="34.78339768"><ele>482.0</ele><time>2013-11-20T10:22:29.0000000+00:00</time></trkpt><trkpt lat="30.85070419" lon="34.78339768"><ele>481.9</ele><time>2013-11-20T10:22:34.0000000+00:00</time></trkpt><trkpt lat="30.85070419" lon="34.78339768"><ele>481.9</ele><time>2013-11-20T10:22:39.0000000+00:00</time></trkpt><trkpt lat="30.85070419" lon="34.78339768"><ele>481.9</ele><time>2013-11-20T10:22:44.0000000+00:00</time></trkpt><trkpt lat="30.85070419" lon="34.78339768"><ele>481.8</ele><time>2013-11-20T10:22:49.0000000+00:00</time></trkpt><trkpt lat="30.85070419" lon="34.78339768"><ele>481.8</ele><time>2013-11-20T10:22:54.0000000+00:00</time></trkpt><trkpt lat="30.85070419" lon="34.78339768"><ele>481.8</ele><time>2013-11-20T10:22:59.0000000+00:00</time></trkpt><trkpt lat="30.85070419" lon="34.78339768"><ele>481.8</ele><time>2013-11-20T10:23:04.0000000+00:00</time></trkpt><trkpt lat="30.85070419" lon="34.78339768"><ele>481.7</ele><time>2013-11-20T10:23:09.0000000+00:00</time></trkpt><trkpt lat="30.85070419" lon="34.78339386"><ele>481.7</ele><time>2013-11-20T10:23:14.0000000+00:00</time></trkpt><trkpt lat="30.85070419" lon="34.78339386"><ele>481.7</ele><time>2013-11-20T10:23:19.0000000+00:00</time></trkpt><trkpt lat="30.85070419" lon="34.78339386"><ele>481.7</ele><time>2013-11-20T10:23:24.0000000+00:00</time></trkpt><trkpt lat="30.85070419" lon="34.78339386"><ele>481.6</ele><time>2013-11-20T10:23:29.0000000+00:00</time></trkpt><trkpt lat="30.85070419" lon="34.78339386"><ele>481.6</ele><time>2013-11-20T10:23:34.0000000+00:00</time></trkpt><trkpt lat="30.85070419" lon="34.78339386"><ele>481.6</ele><time>2013-11-20T10:23:39.0000000+00:00</time></trkpt><trkpt lat="30.85070229" lon="34.78339768"><ele>481.6</ele><time>2013-11-20T10:23:44.0000000+00:00</time></trkpt><trkpt lat="30.85070229" lon="34.78339768"><ele>481.6</ele><time>2013-11-20T10:23:49.0000000+00:00</time></trkpt><trkpt lat="30.85070229" lon="34.78339768"><ele>481.5</ele><time>2013-11-20T10:23:54.0000000+00:00</time></trkpt><trkpt lat="30.85070229" lon="34.78339768"><ele>481.5</ele><time>2013-11-20T10:23:59.0000000+00:00</time></trkpt><trkpt lat="30.85070229" lon="34.78339768"><ele>481.5</ele><time>2013-11-20T10:24:04.0000000+00:00</time></trkpt><trkpt lat="30.85070229" lon="34.78339768"><ele>481.5</ele><time>2013-11-20T10:24:09.0000000+00:00</time></trkpt><trkpt lat="30.85070229" lon="34.78339768"><ele>481.5</ele><time>2013-11-20T10:24:14.0000000+00:00</time></trkpt><trkpt lat="30.85070229" lon="34.78339768"><ele>481.5</ele><time>2013-11-20T10:24:19.0000000+00:00</time></trkpt><trkpt lat="30.85070229" lon="34.78339768"><ele>481.5</ele><time>2013-11-20T10:24:24.0000000+00:00</time></trkpt><trkpt lat="30.85070229" lon="34.78339768"><ele>481.4</ele><time>2013-11-20T10:24:29.0000000+00:00</time></trkpt><trkpt lat="30.85070229" lon="34.78339768"><ele>481.4</ele><time>2013-11-20T10:24:34.0000000+00:00</time></trkpt><trkpt lat="30.85070229" lon="34.78339768"><ele>481.4</ele><time>2013-11-20T10:24:39.0000000+00:00</time></trkpt><trkpt lat="30.85070229" lon="34.78339768"><ele>481.3</ele><time>2013-11-20T10:24:44.0000000+00:00</time></trkpt><trkpt lat="30.85070419" lon="34.78339768"><ele>481.3</ele><time>2013-11-20T10:24:49.0000000+00:00</time></trkpt><trkpt lat="30.85070419" lon="34.78339768"><ele>481.3</ele><time>2013-11-20T10:24:54.0000000+00:00</time></trkpt><trkpt lat="30.85070419" lon="34.78339768"><ele>481.2</ele><time>2013-11-20T10:24:59.0000000+00:00</time></trkpt><trkpt lat="30.85070419" lon="34.78339768"><ele>481.1</ele><time>2013-11-20T10:25:04.0000000+00:00</time></trkpt><trkpt lat="30.85070419" lon="34.78339768"><ele>481.1</ele><time>2013-11-20T10:25:09.0000000+00:00</time></trkpt><trkpt lat="30.85070419" lon="34.78339768"><ele>481.0</ele><time>2013-11-20T10:25:14.0000000+00:00</time></trkpt><trkpt lat="30.85070419" lon="34.78339768"><ele>481.0</ele><time>2013-11-20T10:25:19.0000000+00:00</time></trkpt><trkpt lat="30.85070419" lon="34.78339768"><ele>481.0</ele><time>2013-11-20T10:25:24.0000000+00:00</time></trkpt><trkpt lat="30.85070419" lon="34.78339768"><ele>480.9</ele><time>2013-11-20T10:25:29.0000000+00:00</time></trkpt><trkpt lat="30.85070419" lon="34.78339768"><ele>480.9</ele><time>2013-11-20T10:25:34.0000000+00:00</time></trkpt><trkpt lat="30.85070419" lon="34.78339768"><ele>480.9</ele><time>2013-11-20T10:25:39.0000000+00:00</time></trkpt><trkpt lat="30.85070419" lon="34.78339768"><ele>480.9</ele><time>2013-11-20T10:25:44.0000000+00:00</time></trkpt><trkpt lat="30.85070419" lon="34.78339768"><ele>480.9</ele><time>2013-11-20T10:25:49.0000000+00:00</time></trkpt><trkpt lat="30.85070419" lon="34.78339768"><ele>480.9</ele><time>2013-11-20T10:25:54.0000000+00:00</time></trkpt><trkpt lat="30.85070419" lon="34.78339768"><ele>480.9</ele><time>2013-11-20T10:25:59.0000000+00:00</time></trkpt><trkpt lat="30.85070419" lon="34.78339768"><ele>480.9</ele><time>2013-11-20T10:26:04.0000000+00:00</time></trkpt><trkpt lat="30.85070419" lon="34.78339768"><ele>480.9</ele><time>2013-11-20T10:26:09.0000000+00:00</time></trkpt><trkpt lat="30.85070419" lon="34.78339768"><ele>480.8</ele><time>2013-11-20T10:26:14.0000000+00:00</time></trkpt><trkpt lat="30.85070419" lon="34.78339768"><ele>480.8</ele><time>2013-11-20T10:26:19.0000000+00:00</time></trkpt><trkpt lat="30.85070419" lon="34.78339768"><ele>480.8</ele><time>2013-11-20T10:26:24.0000000+00:00</time></trkpt><trkpt lat="30.85070419" lon="34.78339768"><ele>480.9</ele><time>2013-11-20T10:26:29.0000000+00:00</time></trkpt><trkpt lat="30.85070419" lon="34.78339768"><ele>480.9</ele><time>2013-11-20T10:26:34.0000000+00:00</time></trkpt><trkpt lat="30.85070419" lon="34.78339768"><ele>480.9</ele><time>2013-11-20T10:26:39.0000000+00:00</time></trkpt><trkpt lat="30.85070419" lon="34.78339768"><ele>480.9</ele><time>2013-11-20T10:26:44.0000000+00:00</time></trkpt><trkpt lat="30.85070419" lon="34.78339768"><ele>480.9</ele><time>2013-11-20T10:26:49.0000000+00:00</time></trkpt><trkpt lat="30.85070419" lon="34.78339768"><ele>480.9</ele><time>2013-11-20T10:26:54.0000000+00:00</time></trkpt><trkpt lat="30.85070419" lon="34.78339768"><ele>480.9</ele><time>2013-11-20T10:26:59.0000000+00:00</time></trkpt><trkpt lat="30.85070419" lon="34.78339768"><ele>480.9</ele><time>2013-11-20T10:27:04.0000000+00:00</time></trkpt><trkpt lat="30.85070419" lon="34.78339768"><ele>480.9</ele><time>2013-11-20T10:27:09.0000000+00:00</time></trkpt><trkpt lat="30.85070419" lon="34.78339768"><ele>480.9</ele><time>2013-11-20T10:27:14.0000000+00:00</time></trkpt><trkpt lat="30.85070419" lon="34.78339768"><ele>480.9</ele><time>2013-11-20T10:27:19.0000000+00:00</time></trkpt><trkpt lat="30.85070229" lon="34.78339768"><ele>481.0</ele><time>2013-11-20T10:27:24.0000000+00:00</time></trkpt><trkpt lat="30.85070229" lon="34.78339768"><ele>481.0</ele><time>2013-11-20T10:27:29.0000000+00:00</time></trkpt><trkpt lat="30.85070229" lon="34.78339768"><ele>481.0</ele><time>2013-11-20T10:27:34.0000000+00:00</time></trkpt><trkpt lat="30.85070229" lon="34.78339768"><ele>481.0</ele><time>2013-11-20T10:27:39.0000000+00:00</time></trkpt><trkpt lat="30.85070419" lon="34.78339768"><ele>481.0</ele><time>2013-11-20T10:27:44.0000000+00:00</time></trkpt><trkpt lat="30.85070229" lon="34.78339768"><ele>481.1</ele><time>2013-11-20T10:27:49.0000000+00:00</time></trkpt><trkpt lat="30.85070419" lon="34.78339768"><ele>481.1</ele><time>2013-11-20T10:27:54.0000000+00:00</time></trkpt><trkpt lat="30.85070419" lon="34.78339768"><ele>481.1</ele><time>2013-11-20T10:27:59.0000000+00:00</time></trkpt><trkpt lat="30.85070419" lon="34.78339768"><ele>481.2</ele><time>2013-11-20T10:28:04.0000000+00:00</time></trkpt><trkpt lat="30.85070419" lon="34.78339768"><ele>481.2</ele><time>2013-11-20T10:28:09.0000000+00:00</time></trkpt><trkpt lat="30.85070419" lon="34.78339768"><ele>481.3</ele><time>2013-11-20T10:28:14.0000000+00:00</time></trkpt><trkpt lat="30.85070419" lon="34.78339768"><ele>481.3</ele><time>2013-11-20T10:28:19.0000000+00:00</time></trkpt><trkpt lat="30.85070419" lon="34.78339386"><ele>481.4</ele><time>2013-11-20T10:28:24.0000000+00:00</time></trkpt><trkpt lat="30.85070419" lon="34.78339386"><ele>481.4</ele><time>2013-11-20T10:28:29.0000000+00:00</time></trkpt><trkpt lat="30.85070419" lon="34.78339386"><ele>481.4</ele><time>2013-11-20T10:28:34.0000000+00:00</time></trkpt><trkpt lat="30.85070419" lon="34.78339386"><ele>481.4</ele><time>2013-11-20T10:28:39.0000000+00:00</time></trkpt><trkpt lat="30.85070419" lon="34.78339386"><ele>481.4</ele><time>2013-11-20T10:28:44.0000000+00:00</time></trkpt><trkpt lat="30.85070419" lon="34.78339386"><ele>481.4</ele><time>2013-11-20T10:28:49.0000000+00:00</time></trkpt><trkpt lat="30.85070419" lon="34.78339386"><ele>481.4</ele><time>2013-11-20T10:28:54.0000000+00:00</time></trkpt><trkpt lat="30.85070419" lon="34.78339386"><ele>481.4</ele><time>2013-11-20T10:28:59.0000000+00:00</time></trkpt><trkpt lat="30.85070419" lon="34.78339386"><ele>481.4</ele><time>2013-11-20T10:29:04.0000000+00:00</time></trkpt><trkpt lat="30.85070419" lon="34.78339386"><ele>481.5</ele><time>2013-11-20T10:29:09.0000000+00:00</time></trkpt><trkpt lat="30.85070419" lon="34.78339386"><ele>481.5</ele><time>2013-11-20T10:29:14.0000000+00:00</time></trkpt><trkpt lat="30.85070419" lon="34.78339386"><ele>481.5</ele><time>2013-11-20T10:29:19.0000000+00:00</time></trkpt><trkpt lat="30.85070229" lon="34.78339386"><ele>481.6</ele><time>2013-11-20T10:29:24.0000000+00:00</time></trkpt><trkpt lat="30.85070229" lon="34.78339768"><ele>481.6</ele><time>2013-11-20T10:29:29.0000000+00:00</time></trkpt><trkpt lat="30.85070229" lon="34.78339768"><ele>481.7</ele><time>2013-11-20T10:29:34.0000000+00:00</time></trkpt><trkpt lat="30.85070229" lon="34.78339768"><ele>481.7</ele><time>2013-11-20T10:29:39.0000000+00:00</time></trkpt><trkpt lat="30.85070229" lon="34.78339386"><ele>481.7</ele><time>2013-11-20T10:29:44.0000000+00:00</time></trkpt><trkpt lat="30.85070229" lon="34.78339386"><ele>481.7</ele><time>2013-11-20T10:29:49.0000000+00:00</time></trkpt><trkpt lat="30.85070229" lon="34.78339386"><ele>481.8</ele><time>2013-11-20T10:29:54.0000000+00:00</time></trkpt><trkpt lat="30.85070229" lon="34.78339768"><ele>481.8</ele><time>2013-11-20T10:29:59.0000000+00:00</time></trkpt><trkpt lat="30.85070229" lon="34.78339768"><ele>481.9</ele><time>2013-11-20T10:30:04.0000000+00:00</time></trkpt><trkpt lat="30.85070229" lon="34.78339768"><ele>482.0</ele><time>2013-11-20T10:30:09.0000000+00:00</time></trkpt><trkpt lat="30.85070229" lon="34.78339768"><ele>482.0</ele><time>2013-11-20T10:30:14.0000000+00:00</time></trkpt><trkpt lat="30.85070419" lon="34.78339768"><ele>482.1</ele><time>2013-11-20T10:30:19.0000000+00:00</time></trkpt><trkpt lat="30.85070419" lon="34.78339768"><ele>482.1</ele><time>2013-11-20T10:30:24.0000000+00:00</time></trkpt><trkpt lat="30.85070419" lon="34.78339386"><ele>482.1</ele><time>2013-11-20T10:30:29.0000000+00:00</time></trkpt><trkpt lat="30.8507061" lon="34.78339386"><ele>482.1</ele><time>2013-11-20T10:30:34.0000000+00:00</time></trkpt><trkpt lat="30.8507061" lon="34.78339386"><ele>482.1</ele><time>2013-11-20T10:30:39.0000000+00:00</time></trkpt><trkpt lat="30.8507061" lon="34.78339386"><ele>482.0</ele><time>2013-11-20T10:30:44.0000000+00:00</time></trkpt><trkpt lat="30.8507061" lon="34.78339386"><ele>482.0</ele><time>2013-11-20T10:30:49.0000000+00:00</time></trkpt><trkpt lat="30.8507061" lon="34.78339386"><ele>482.0</ele><time>2013-11-20T10:30:54.0000000+00:00</time></trkpt><trkpt lat="30.85070801" lon="34.78339386"><ele>481.9</ele><time>2013-11-20T10:30:59.0000000+00:00</time></trkpt><trkpt lat="30.85070801" lon="34.78339386"><ele>481.9</ele><time>2013-11-20T10:31:04.0000000+00:00</time></trkpt><trkpt lat="30.85070801" lon="34.78339005"><ele>481.8</ele><time>2013-11-20T10:31:09.0000000+00:00</time></trkpt><trkpt lat="30.85070801" lon="34.78339005"><ele>481.8</ele><time>2013-11-20T10:31:14.0000000+00:00</time></trkpt><trkpt lat="30.85070801" lon="34.78339005"><ele>481.7</ele><time>2013-11-20T10:31:19.0000000+00:00</time></trkpt><trkpt lat="30.85070801" lon="34.78339005"><ele>481.7</ele><time>2013-11-20T10:31:24.0000000+00:00</time></trkpt><trkpt lat="30.8507061" lon="34.78339005"><ele>481.7</ele><time>2013-11-20T10:31:29.0000000+00:00</time></trkpt><trkpt lat="30.8507061" lon="34.78339005"><ele>481.6</ele><time>2013-11-20T10:31:34.0000000+00:00</time></trkpt><trkpt lat="30.8507061" lon="34.78339005"><ele>481.6</ele><time>2013-11-20T10:31:39.0000000+00:00</time></trkpt><trkpt lat="30.8507061" lon="34.78338623"><ele>481.6</ele><time>2013-11-20T10:31:44.0000000+00:00</time></trkpt><trkpt lat="30.8507061" lon="34.78338623"><ele>481.6</ele><time>2013-11-20T10:31:49.0000000+00:00</time></trkpt><trkpt lat="30.8507061" lon="34.78338623"><ele>481.5</ele><time>2013-11-20T10:31:54.0000000+00:00</time></trkpt><trkpt lat="30.8507061" lon="34.78338623"><ele>481.5</ele><time>2013-11-20T10:31:59.0000000+00:00</time></trkpt><trkpt lat="30.8507061" lon="34.78338623"><ele>481.5</ele><time>2013-11-20T10:32:04.0000000+00:00</time></trkpt><trkpt lat="30.8507061" lon="34.78338623"><ele>481.5</ele><time>2013-11-20T10:32:09.0000000+00:00</time></trkpt><trkpt lat="30.8507061" lon="34.78338623"><ele>481.5</ele><time>2013-11-20T10:32:14.0000000+00:00</time></trkpt><trkpt lat="30.8507061" lon="34.78338623"><ele>481.4</ele><time>2013-11-20T10:32:19.0000000+00:00</time></trkpt><trkpt lat="30.8507061" lon="34.78338623"><ele>481.4</ele><time>2013-11-20T10:32:24.0000000+00:00</time></trkpt><trkpt lat="30.85070801" lon="34.78338623"><ele>481.4</ele><time>2013-11-20T10:32:29.0000000+00:00</time></trkpt><trkpt lat="30.85070801" lon="34.78338242"><ele>481.4</ele><time>2013-11-20T10:32:34.0000000+00:00</time></trkpt><trkpt lat="30.85070801" lon="34.78338242"><ele>481.4</ele><time>2013-11-20T10:32:39.0000000+00:00</time></trkpt><trkpt lat="30.85070801" lon="34.78338242"><ele>481.4</ele><time>2013-11-20T10:32:44.0000000+00:00</time></trkpt><trkpt lat="30.85070801" lon="34.78338242"><ele>481.4</ele><time>2013-11-20T10:32:49.0000000+00:00</time></trkpt><trkpt lat="30.85070801" lon="34.78338242"><ele>481.4</ele><time>2013-11-20T10:32:54.0000000+00:00</time></trkpt><trkpt lat="30.85070801" lon="34.78338242"><ele>481.4</ele><time>2013-11-20T10:32:59.0000000+00:00</time></trkpt><trkpt lat="30.85070801" lon="34.78338242"><ele>481.4</ele><time>2013-11-20T10:33:04.0000000+00:00</time></trkpt><trkpt lat="30.85070801" lon="34.78338242"><ele>481.4</ele><time>2013-11-20T10:33:09.0000000+00:00</time></trkpt><trkpt lat="30.85070801" lon="34.78338242"><ele>481.4</ele><time>2013-11-20T10:33:14.0000000+00:00</time></trkpt><trkpt lat="30.85070801" lon="34.78338242"><ele>481.3</ele><time>2013-11-20T10:33:19.0000000+00:00</time></trkpt><trkpt lat="30.85070801" lon="34.78338242"><ele>481.3</ele><time>2013-11-20T10:33:24.0000000+00:00</time></trkpt><trkpt lat="30.85070992" lon="34.7833786"><ele>481.3</ele><time>2013-11-20T10:33:29.0000000+00:00</time></trkpt><trkpt lat="30.85070992" lon="34.7833786"><ele>481.3</ele><time>2013-11-20T10:33:34.0000000+00:00</time></trkpt><trkpt lat="30.85070992" lon="34.7833786"><ele>481.3</ele><time>2013-11-20T10:33:39.0000000+00:00</time></trkpt><trkpt lat="30.85070992" lon="34.7833786"><ele>481.2</ele><time>2013-11-20T10:33:44.0000000+00:00</time></trkpt><trkpt lat="30.85070992" lon="34.7833786"><ele>481.2</ele><time>2013-11-20T10:33:49.0000000+00:00</time></trkpt><trkpt lat="30.85070992" lon="34.7833786"><ele>481.2</ele><time>2013-11-20T10:33:54.0000000+00:00</time></trkpt><trkpt lat="30.85070992" lon="34.7833786"><ele>481.1</ele><time>2013-11-20T10:33:59.0000000+00:00</time></trkpt><trkpt lat="30.85070992" lon="34.78337479"><ele>481.1</ele><time>2013-11-20T10:34:04.0000000+00:00</time></trkpt><trkpt lat="30.85070992" lon="34.78337479"><ele>481.0</ele><time>2013-11-20T10:34:09.0000000+00:00</time></trkpt><trkpt lat="30.85070992" lon="34.78337479"><ele>481.0</ele><time>2013-11-20T10:34:14.0000000+00:00</time></trkpt><trkpt lat="30.85070992" lon="34.78337479"><ele>480.9</ele><time>2013-11-20T10:34:19.0000000+00:00</time></trkpt><trkpt lat="30.85070992" lon="34.78337479"><ele>480.9</ele><time>2013-11-20T10:34:24.0000000+00:00</time></trkpt><trkpt lat="30.85070992" lon="34.78337479"><ele>480.9</ele><time>2013-11-20T10:34:29.0000000+00:00</time></trkpt><trkpt lat="30.85070992" lon="34.78337479"><ele>480.9</ele><time>2013-11-20T10:34:34.0000000+00:00</time></trkpt><trkpt lat="30.85070992" lon="34.78337479"><ele>480.9</ele><time>2013-11-20T10:34:39.0000000+00:00</time></trkpt><trkpt lat="30.85070992" lon="34.78337479"><ele>480.9</ele><time>2013-11-20T10:34:44.0000000+00:00</time></trkpt><trkpt lat="30.85071182" lon="34.78337479"><ele>480.9</ele><time>2013-11-20T10:34:49.0000000+00:00</time></trkpt><trkpt lat="30.85071182" lon="34.78337479"><ele>481.0</ele><time>2013-11-20T10:34:54.0000000+00:00</time></trkpt><trkpt lat="30.85071182" lon="34.78337097"><ele>481.0</ele><time>2013-11-20T10:34:59.0000000+00:00</time></trkpt><trkpt lat="30.85071182" lon="34.78337097"><ele>481.0</ele><time>2013-11-20T10:35:04.0000000+00:00</time></trkpt><trkpt lat="30.85071373" lon="34.78337097"><ele>481.1</ele><time>2013-11-20T10:35:09.0000000+00:00</time></trkpt><trkpt lat="30.85071373" lon="34.78337097"><ele>481.2</ele><time>2013-11-20T10:35:14.0000000+00:00</time></trkpt><trkpt lat="30.85071373" lon="34.78337097"><ele>481.2</ele><time>2013-11-20T10:35:19.0000000+00:00</time></trkpt><trkpt lat="30.85071564" lon="34.78337097"><ele>481.2</ele><time>2013-11-20T10:35:24.0000000+00:00</time></trkpt><trkpt lat="30.85071564" lon="34.78337097"><ele>481.3</ele><time>2013-11-20T10:35:29.0000000+00:00</time></trkpt><trkpt lat="30.85071564" lon="34.78337097"><ele>481.3</ele><time>2013-11-20T10:35:34.0000000+00:00</time></trkpt><trkpt lat="30.85071564" lon="34.78337097"><ele>481.3</ele><time>2013-11-20T10:35:39.0000000+00:00</time></trkpt><trkpt lat="30.85071564" lon="34.78337097"><ele>481.3</ele><time>2013-11-20T10:35:44.0000000+00:00</time></trkpt><trkpt lat="30.85071564" lon="34.78337097"><ele>481.3</ele><time>2013-11-20T10:35:49.0000000+00:00</time></trkpt><trkpt lat="30.85071755" lon="34.78337097"><ele>481.3</ele><time>2013-11-20T10:35:54.0000000+00:00</time></trkpt><trkpt lat="30.85071755" lon="34.78337097"><ele>481.2</ele><time>2013-11-20T10:35:59.0000000+00:00</time></trkpt><trkpt lat="30.85071564" lon="34.78337097"><ele>481.2</ele><time>2013-11-20T10:36:04.0000000+00:00</time></trkpt><trkpt lat="30.85071564" lon="34.78337097"><ele>481.2</ele><time>2013-11-20T10:36:09.0000000+00:00</time></trkpt><trkpt lat="30.85071564" lon="34.78337097"><ele>481.1</ele><time>2013-11-20T10:36:14.0000000+00:00</time></trkpt><trkpt lat="30.85071564" lon="34.78337097"><ele>481.1</ele><time>2013-11-20T10:36:19.0000000+00:00</time></trkpt><trkpt lat="30.85071564" lon="34.78337097"><ele>481.1</ele><time>2013-11-20T10:36:24.0000000+00:00</time></trkpt><trkpt lat="30.85071564" lon="34.78337097"><ele>481.0</ele><time>2013-11-20T10:36:29.0000000+00:00</time></trkpt><trkpt lat="30.85071564" lon="34.78337097"><ele>480.9</ele><time>2013-11-20T10:36:34.0000000+00:00</time></trkpt><trkpt lat="30.85071564" lon="34.78337097"><ele>480.9</ele><time>2013-11-20T10:36:39.0000000+00:00</time></trkpt><trkpt lat="30.85071564" lon="34.78337097"><ele>480.8</ele><time>2013-11-20T10:36:44.0000000+00:00</time></trkpt><trkpt lat="30.85071564" lon="34.78337097"><ele>480.8</ele><time>2013-11-20T10:36:49.0000000+00:00</time></trkpt><trkpt lat="30.85071564" lon="34.78337097"><ele>480.7</ele><time>2013-11-20T10:36:54.0000000+00:00</time></trkpt><trkpt lat="30.85071564" lon="34.78337097"><ele>480.7</ele><time>2013-11-20T10:36:59.0000000+00:00</time></trkpt><trkpt lat="30.85071564" lon="34.78337097"><ele>480.6</ele><time>2013-11-20T10:37:04.0000000+00:00</time></trkpt><trkpt lat="30.85071564" lon="34.78337097"><ele>480.5</ele><time>2013-11-20T10:37:09.0000000+00:00</time></trkpt><trkpt lat="30.85071564" lon="34.78337097"><ele>480.5</ele><time>2013-11-20T10:37:14.0000000+00:00</time></trkpt><trkpt lat="30.85071564" lon="34.78337097"><ele>480.4</ele><time>2013-11-20T10:37:19.0000000+00:00</time></trkpt><trkpt lat="30.85071564" lon="34.78337097"><ele>480.4</ele><time>2013-11-20T10:37:24.0000000+00:00</time></trkpt><trkpt lat="30.85071564" lon="34.78337097"><ele>480.4</ele><time>2013-11-20T10:37:29.0000000+00:00</time></trkpt><trkpt lat="30.85071373" lon="34.78337097"><ele>480.3</ele><time>2013-11-20T10:37:34.0000000+00:00</time></trkpt><trkpt lat="30.85071373" lon="34.78337097"><ele>480.3</ele><time>2013-11-20T10:37:39.0000000+00:00</time></trkpt><trkpt lat="30.85071373" lon="34.78337097"><ele>480.3</ele><time>2013-11-20T10:37:44.0000000+00:00</time></trkpt><trkpt lat="30.85071373" lon="34.78337097"><ele>480.3</ele><time>2013-11-20T10:37:49.0000000+00:00</time></trkpt><trkpt lat="30.85071373" lon="34.78337097"><ele>480.3</ele><time>2013-11-20T10:37:54.0000000+00:00</time></trkpt><trkpt lat="30.85071373" lon="34.78337097"><ele>480.3</ele><time>2013-11-20T10:37:59.0000000+00:00</time></trkpt><trkpt lat="30.85071373" lon="34.78337097"><ele>480.3</ele><time>2013-11-20T10:38:04.0000000+00:00</time></trkpt><trkpt lat="30.85071373" lon="34.78337097"><ele>480.3</ele><time>2013-11-20T10:38:09.0000000+00:00</time></trkpt><trkpt lat="30.85071373" lon="34.78337097"><ele>480.2</ele><time>2013-11-20T10:38:14.0000000+00:00</time></trkpt><trkpt lat="30.85071373" lon="34.78337097"><ele>480.2</ele><time>2013-11-20T10:38:19.0000000+00:00</time></trkpt><trkpt lat="30.85071182" lon="34.78337097"><ele>480.2</ele><time>2013-11-20T10:38:24.0000000+00:00</time></trkpt><trkpt lat="30.85071182" lon="34.78337097"><ele>480.2</ele><time>2013-11-20T10:38:29.0000000+00:00</time></trkpt><trkpt lat="30.85071182" lon="34.78337097"><ele>480.2</ele><time>2013-11-20T10:38:34.0000000+00:00</time></trkpt><trkpt lat="30.85071182" lon="34.78337097"><ele>480.1</ele><time>2013-11-20T10:38:39.0000000+00:00</time></trkpt><trkpt lat="30.85071182" lon="34.78337097"><ele>480.1</ele><time>2013-11-20T10:38:44.0000000+00:00</time></trkpt><trkpt lat="30.85070992" lon="34.78337097"><ele>480.1</ele><time>2013-11-20T10:38:49.0000000+00:00</time></trkpt><trkpt lat="30.85070992" lon="34.78337097"><ele>480.1</ele><time>2013-11-20T10:38:54.0000000+00:00</time></trkpt><trkpt lat="30.85070992" lon="34.78337097"><ele>480.0</ele><time>2013-11-20T10:38:59.0000000+00:00</time></trkpt><trkpt lat="30.85070992" lon="34.78337097"><ele>480.0</ele><time>2013-11-20T10:39:04.0000000+00:00</time></trkpt><trkpt lat="30.85070801" lon="34.78337097"><ele>480.0</ele><time>2013-11-20T10:39:09.0000000+00:00</time></trkpt><trkpt lat="30.85070801" lon="34.78337097"><ele>479.9</ele><time>2013-11-20T10:39:14.0000000+00:00</time></trkpt><trkpt lat="30.85070801" lon="34.78337097"><ele>479.9</ele><time>2013-11-20T10:39:19.0000000+00:00</time></trkpt><trkpt lat="30.85070801" lon="34.78337097"><ele>479.9</ele><time>2013-11-20T10:39:24.0000000+00:00</time></trkpt><trkpt lat="30.85070801" lon="34.78337097"><ele>479.8</ele><time>2013-11-20T10:39:29.0000000+00:00</time></trkpt><trkpt lat="30.8507061" lon="34.78337097"><ele>479.8</ele><time>2013-11-20T10:39:34.0000000+00:00</time></trkpt><trkpt lat="30.8507061" lon="34.78337097"><ele>479.8</ele><time>2013-11-20T10:39:39.0000000+00:00</time></trkpt><trkpt lat="30.8507061" lon="34.78337097"><ele>479.8</ele><time>2013-11-20T10:39:44.0000000+00:00</time></trkpt><trkpt lat="30.8507061" lon="34.78337097"><ele>479.8</ele><time>2013-11-20T10:39:49.0000000+00:00</time></trkpt><trkpt lat="30.8507061" lon="34.78337097"><ele>479.8</ele><time>2013-11-20T10:39:54.0000000+00:00</time></trkpt><trkpt lat="30.85070419" lon="34.78337097"><ele>479.8</ele><time>2013-11-20T10:39:59.0000000+00:00</time></trkpt><trkpt lat="30.85070419" lon="34.78337097"><ele>479.8</ele><time>2013-11-20T10:40:04.0000000+00:00</time></trkpt><trkpt lat="30.85070419" lon="34.78337097"><ele>479.8</ele><time>2013-11-20T10:40:09.0000000+00:00</time></trkpt><trkpt lat="30.85070419" lon="34.78337097"><ele>479.9</ele><time>2013-11-20T10:40:14.0000000+00:00</time></trkpt><trkpt lat="30.85070419" lon="34.78337097"><ele>479.9</ele><time>2013-11-20T10:40:19.0000000+00:00</time></trkpt><trkpt lat="30.85070419" lon="34.78337097"><ele>479.9</ele><time>2013-11-20T10:40:24.0000000+00:00</time></trkpt><trkpt lat="30.85070229" lon="34.78337097"><ele>480.0</ele><time>2013-11-20T10:40:29.0000000+00:00</time></trkpt><trkpt lat="30.85070229" lon="34.78337097"><ele>480.0</ele><time>2013-11-20T10:40:34.0000000+00:00</time></trkpt><trkpt lat="30.85070229" lon="34.78337097"><ele>480.0</ele><time>2013-11-20T10:40:39.0000000+00:00</time></trkpt><trkpt lat="30.85070229" lon="34.78337097"><ele>480.0</ele><time>2013-11-20T10:40:44.0000000+00:00</time></trkpt><trkpt lat="30.85070229" lon="34.78337097"><ele>480.1</ele><time>2013-11-20T10:40:49.0000000+00:00</time></trkpt><trkpt lat="30.85070229" lon="34.78337097"><ele>480.1</ele><time>2013-11-20T10:40:54.0000000+00:00</time></trkpt><trkpt lat="30.85070038" lon="34.78337097"><ele>480.1</ele><time>2013-11-20T10:40:59.0000000+00:00</time></trkpt><trkpt lat="30.85070038" lon="34.78337097"><ele>480.1</ele><time>2013-11-20T10:41:04.0000000+00:00</time></trkpt><trkpt lat="30.85070038" lon="34.78337097"><ele>480.1</ele><time>2013-11-20T10:41:09.0000000+00:00</time></trkpt><trkpt lat="30.85070038" lon="34.78337097"><ele>480.1</ele><time>2013-11-20T10:41:14.0000000+00:00</time></trkpt><trkpt lat="30.85070038" lon="34.78337097"><ele>480.1</ele><time>2013-11-20T10:41:19.0000000+00:00</time></trkpt><trkpt lat="30.85070038" lon="34.78337097"><ele>480.1</ele><time>2013-11-20T10:41:24.0000000+00:00</time></trkpt><trkpt lat="30.85070038" lon="34.78337097"><ele>480.1</ele><time>2013-11-20T10:41:29.0000000+00:00</time></trkpt><trkpt lat="30.85070038" lon="34.78337097"><ele>480.0</ele><time>2013-11-20T10:41:34.0000000+00:00</time></trkpt><trkpt lat="30.85070038" lon="34.78337097"><ele>480.0</ele><time>2013-11-20T10:41:39.0000000+00:00</time></trkpt><trkpt lat="30.85070038" lon="34.78337097"><ele>480.0</ele><time>2013-11-20T10:41:44.0000000+00:00</time></trkpt><trkpt lat="30.85070038" lon="34.78337097"><ele>480.0</ele><time>2013-11-20T10:41:49.0000000+00:00</time></trkpt><trkpt lat="30.85070038" lon="34.78337097"><ele>480.0</ele><time>2013-11-20T10:41:54.0000000+00:00</time></trkpt><trkpt lat="30.85070038" lon="34.78337097"><ele>480.0</ele><time>2013-11-20T10:41:59.0000000+00:00</time></trkpt><trkpt lat="30.85070038" lon="34.78336716"><ele>480.0</ele><time>2013-11-20T10:42:04.0000000+00:00</time></trkpt><trkpt lat="30.85070229" lon="34.78336716"><ele>480.0</ele><time>2013-11-20T10:42:09.0000000+00:00</time></trkpt><trkpt lat="30.85070229" lon="34.78336716"><ele>480.0</ele><time>2013-11-20T10:42:14.0000000+00:00</time></trkpt><trkpt lat="30.85070419" lon="34.78336716"><ele>480.0</ele><time>2013-11-20T10:42:19.0000000+00:00</time></trkpt><trkpt lat="30.85070419" lon="34.78336334"><ele>480.0</ele><time>2013-11-20T10:42:24.0000000+00:00</time></trkpt><trkpt lat="30.85070419" lon="34.78336334"><ele>480.0</ele><time>2013-11-20T10:42:29.0000000+00:00</time></trkpt><trkpt lat="30.85070419" lon="34.78336334"><ele>480.0</ele><time>2013-11-20T10:42:34.0000000+00:00</time></trkpt><trkpt lat="30.85070419" lon="34.78335953"><ele>480.0</ele><time>2013-11-20T10:42:39.0000000+00:00</time></trkpt><trkpt lat="30.85070419" lon="34.78335953"><ele>480.0</ele><time>2013-11-20T10:42:44.0000000+00:00</time></trkpt><trkpt lat="30.85070419" lon="34.78335953"><ele>480.0</ele><time>2013-11-20T10:42:49.0000000+00:00</time></trkpt><trkpt lat="30.8507061" lon="34.78335953"><ele>480.0</ele><time>2013-11-20T10:42:54.0000000+00:00</time></trkpt><trkpt lat="30.8507061" lon="34.78335571"><ele>480.0</ele><time>2013-11-20T10:42:59.0000000+00:00</time></trkpt><trkpt lat="30.8507061" lon="34.78335571"><ele>480.0</ele><time>2013-11-20T10:43:04.0000000+00:00</time></trkpt><trkpt lat="30.8507061" lon="34.78335571"><ele>480.0</ele><time>2013-11-20T10:43:09.0000000+00:00</time></trkpt><trkpt lat="30.8507061" lon="34.78335571"><ele>480.0</ele><time>2013-11-20T10:43:14.0000000+00:00</time></trkpt><trkpt lat="30.8507061" lon="34.78335571"><ele>480.0</ele><time>2013-11-20T10:43:19.0000000+00:00</time></trkpt><trkpt lat="30.8507061" lon="34.78335571"><ele>480.0</ele><time>2013-11-20T10:43:24.0000000+00:00</time></trkpt><trkpt lat="30.8507061" lon="34.78335571"><ele>480.0</ele><time>2013-11-20T10:43:29.0000000+00:00</time></trkpt><trkpt lat="30.85070801" lon="34.78335571"><ele>480.0</ele><time>2013-11-20T10:43:34.0000000+00:00</time></trkpt><trkpt lat="30.85070801" lon="34.78335571"><ele>480.0</ele><time>2013-11-20T10:43:39.0000000+00:00</time></trkpt><trkpt lat="30.85070801" lon="34.78335571"><ele>480.1</ele><time>2013-11-20T10:43:44.0000000+00:00</time></trkpt><trkpt lat="30.85070801" lon="34.78335571"><ele>480.0</ele><time>2013-11-20T10:43:49.0000000+00:00</time></trkpt><trkpt lat="30.85070801" lon="34.78335571"><ele>480.0</ele><time>2013-11-20T10:43:54.0000000+00:00</time></trkpt><trkpt lat="30.85070801" lon="34.78335571"><ele>480.0</ele><time>2013-11-20T10:43:59.0000000+00:00</time></trkpt><trkpt lat="30.85070801" lon="34.78335571"><ele>480.0</ele><time>2013-11-20T10:44:04.0000000+00:00</time></trkpt><trkpt lat="30.85070801" lon="34.78335571"><ele>479.9</ele><time>2013-11-20T10:44:09.0000000+00:00</time></trkpt><trkpt lat="30.85070992" lon="34.78335571"><ele>479.9</ele><time>2013-11-20T10:44:14.0000000+00:00</time></trkpt><trkpt lat="30.85070992" lon="34.78335571"><ele>479.9</ele><time>2013-11-20T10:44:19.0000000+00:00</time></trkpt><trkpt lat="30.85070992" lon="34.78335571"><ele>479.9</ele><time>2013-11-20T10:44:24.0000000+00:00</time></trkpt><trkpt lat="30.85070992" lon="34.78335571"><ele>479.9</ele><time>2013-11-20T10:44:29.0000000+00:00</time></trkpt><trkpt lat="30.85070992" lon="34.78335571"><ele>479.9</ele><time>2013-11-20T10:44:34.0000000+00:00</time></trkpt><trkpt lat="30.85070992" lon="34.78335571"><ele>479.9</ele><time>2013-11-20T10:44:39.0000000+00:00</time></trkpt><trkpt lat="30.85070992" lon="34.78335571"><ele>480.0</ele><time>2013-11-20T10:44:44.0000000+00:00</time></trkpt><trkpt lat="30.85070992" lon="34.78335571"><ele>480.0</ele><time>2013-11-20T10:44:49.0000000+00:00</time></trkpt><trkpt lat="30.85070801" lon="34.78335571"><ele>479.9</ele><time>2013-11-20T10:44:54.0000000+00:00</time></trkpt><trkpt lat="30.85070992" lon="34.78335571"><ele>479.9</ele><time>2013-11-20T10:44:59.0000000+00:00</time></trkpt><trkpt lat="30.85070992" lon="34.78335571"><ele>479.9</ele><time>2013-11-20T10:45:04.0000000+00:00</time></trkpt><trkpt lat="30.85070992" lon="34.78335571"><ele>479.9</ele><time>2013-11-20T10:45:09.0000000+00:00</time></trkpt><trkpt lat="30.85070992" lon="34.78335571"><ele>479.9</ele><time>2013-11-20T10:45:14.0000000+00:00</time></trkpt><trkpt lat="30.85070992" lon="34.78335571"><ele>479.9</ele><time>2013-11-20T10:45:19.0000000+00:00</time></trkpt><trkpt lat="30.85070992" lon="34.78335571"><ele>479.9</ele><time>2013-11-20T10:45:24.0000000+00:00</time></trkpt><trkpt lat="30.85070992" lon="34.78335571"><ele>479.9</ele><time>2013-11-20T10:45:29.0000000+00:00</time></trkpt><trkpt lat="30.85070992" lon="34.78335571"><ele>479.9</ele><time>2013-11-20T10:45:34.0000000+00:00</time></trkpt><trkpt lat="30.85070992" lon="34.78335571"><ele>479.9</ele><time>2013-11-20T10:45:39.0000000+00:00</time></trkpt><trkpt lat="30.85070992" lon="34.78335571"><ele>479.9</ele><time>2013-11-20T10:45:44.0000000+00:00</time></trkpt><trkpt lat="30.85070992" lon="34.78335571"><ele>479.9</ele><time>2013-11-20T10:45:49.0000000+00:00</time></trkpt><trkpt lat="30.85070992" lon="34.78335571"><ele>479.9</ele><time>2013-11-20T10:45:54.0000000+00:00</time></trkpt><trkpt lat="30.85070992" lon="34.78335571"><ele>479.9</ele><time>2013-11-20T10:45:59.0000000+00:00</time></trkpt><trkpt lat="30.85070992" lon="34.78335571"><ele>479.9</ele><time>2013-11-20T10:46:04.0000000+00:00</time></trkpt><trkpt lat="30.85070992" lon="34.78335571"><ele>479.9</ele><time>2013-11-20T10:46:09.0000000+00:00</time></trkpt><trkpt lat="30.85070992" lon="34.78335571"><ele>479.9</ele><time>2013-11-20T10:46:14.0000000+00:00</time></trkpt><trkpt lat="30.85070992" lon="34.78335571"><ele>479.9</ele><time>2013-11-20T10:46:19.0000000+00:00</time></trkpt><trkpt lat="30.85070992" lon="34.78335571"><ele>479.8</ele><time>2013-11-20T10:46:24.0000000+00:00</time></trkpt><trkpt lat="30.85070992" lon="34.78335571"><ele>479.8</ele><time>2013-11-20T10:46:29.0000000+00:00</time></trkpt><trkpt lat="30.85070992" lon="34.78335571"><ele>479.8</ele><time>2013-11-20T10:46:34.0000000+00:00</time></trkpt><trkpt lat="30.85070992" lon="34.78335571"><ele>479.8</ele><time>2013-11-20T10:46:39.0000000+00:00</time></trkpt><trkpt lat="30.85070992" lon="34.78335571"><ele>479.8</ele><time>2013-11-20T10:46:44.0000000+00:00</time></trkpt><trkpt lat="30.85070992" lon="34.78335571"><ele>479.8</ele><time>2013-11-20T10:46:49.0000000+00:00</time></trkpt><trkpt lat="30.85070992" lon="34.78335571"><ele>479.8</ele><time>2013-11-20T10:46:54.0000000+00:00</time></trkpt><trkpt lat="30.85070992" lon="34.78335571"><ele>479.8</ele><time>2013-11-20T10:46:59.0000000+00:00</time></trkpt><trkpt lat="30.85070992" lon="34.78335571"><ele>479.8</ele><time>2013-11-20T10:47:04.0000000+00:00</time></trkpt><trkpt lat="30.85070992" lon="34.78335571"><ele>479.8</ele><time>2013-11-20T10:47:09.0000000+00:00</time></trkpt><trkpt lat="30.85070992" lon="34.78335571"><ele>479.7</ele><time>2013-11-20T10:47:14.0000000+00:00</time></trkpt><trkpt lat="30.85070992" lon="34.78335571"><ele>479.7</ele><time>2013-11-20T10:47:19.0000000+00:00</time></trkpt><trkpt lat="30.85070992" lon="34.78335571"><ele>479.7</ele><time>2013-11-20T10:47:24.0000000+00:00</time></trkpt><trkpt lat="30.85070992" lon="34.78335571"><ele>479.7</ele><time>2013-11-20T10:47:29.0000000+00:00</time></trkpt><trkpt lat="30.85070992" lon="34.78335571"><ele>479.7</ele><time>2013-11-20T10:47:34.0000000+00:00</time></trkpt><trkpt lat="30.85070992" lon="34.78335571"><ele>479.7</ele><time>2013-11-20T10:47:39.0000000+00:00</time></trkpt><trkpt lat="30.85070992" lon="34.78335571"><ele>479.7</ele><time>2013-11-20T10:47:44.0000000+00:00</time></trkpt><trkpt lat="30.85070992" lon="34.78335571"><ele>479.7</ele><time>2013-11-20T10:47:49.0000000+00:00</time></trkpt><trkpt lat="30.85070992" lon="34.78335571"><ele>479.6</ele><time>2013-11-20T10:47:54.0000000+00:00</time></trkpt><trkpt lat="30.85070992" lon="34.78335571"><ele>479.6</ele><time>2013-11-20T10:47:59.0000000+00:00</time></trkpt><trkpt lat="30.85070992" lon="34.78335571"><ele>479.6</ele><time>2013-11-20T10:48:04.0000000+00:00</time></trkpt><trkpt lat="30.85070992" lon="34.78335571"><ele>479.6</ele><time>2013-11-20T10:48:09.0000000+00:00</time></trkpt><trkpt lat="30.85070992" lon="34.78335571"><ele>479.6</ele><time>2013-11-20T10:48:14.0000000+00:00</time></trkpt><trkpt lat="30.85070992" lon="34.78335571"><ele>479.6</ele><time>2013-11-20T10:48:19.0000000+00:00</time></trkpt><trkpt lat="30.85070992" lon="34.78335571"><ele>479.6</ele><time>2013-11-20T10:48:24.0000000+00:00</time></trkpt><trkpt lat="30.85071182" lon="34.78335571"><ele>479.6</ele><time>2013-11-20T10:48:29.0000000+00:00</time></trkpt><trkpt lat="30.85070992" lon="34.78335571"><ele>479.6</ele><time>2013-11-20T10:48:34.0000000+00:00</time></trkpt><trkpt lat="30.85071182" lon="34.78335571"><ele>479.6</ele><time>2013-11-20T10:48:39.0000000+00:00</time></trkpt><trkpt lat="30.85071182" lon="34.78335571"><ele>479.6</ele><time>2013-11-20T10:48:44.0000000+00:00</time></trkpt><trkpt lat="30.85071182" lon="34.78335571"><ele>479.6</ele><time>2013-11-20T10:48:49.0000000+00:00</time></trkpt><trkpt lat="30.85071182" lon="34.78335571"><ele>479.6</ele><time>2013-11-20T10:48:54.0000000+00:00</time></trkpt><trkpt lat="30.85071182" lon="34.78335571"><ele>479.6</ele><time>2013-11-20T10:48:59.0000000+00:00</time></trkpt><trkpt lat="30.85071182" lon="34.78335953"><ele>479.6</ele><time>2013-11-20T10:49:04.0000000+00:00</time></trkpt><trkpt lat="30.85071182" lon="34.78335953"><ele>479.6</ele><time>2013-11-20T10:49:09.0000000+00:00</time></trkpt><trkpt lat="30.85071373" lon="34.78335953"><ele>479.6</ele><time>2013-11-20T10:49:14.0000000+00:00</time></trkpt><trkpt lat="30.85071373" lon="34.78335953"><ele>479.6</ele><time>2013-11-20T10:49:19.0000000+00:00</time></trkpt><trkpt lat="30.85071373" lon="34.78335953"><ele>479.6</ele><time>2013-11-20T10:49:24.0000000+00:00</time></trkpt><trkpt lat="30.85071564" lon="34.78335953"><ele>479.6</ele><time>2013-11-20T10:49:29.0000000+00:00</time></trkpt><trkpt lat="30.85071564" lon="34.78335953"><ele>479.6</ele><time>2013-11-20T10:49:34.0000000+00:00</time></trkpt><trkpt lat="30.85071564" lon="34.78335953"><ele>479.6</ele><time>2013-11-20T10:49:39.0000000+00:00</time></trkpt><trkpt lat="30.85071564" lon="34.78335953"><ele>479.6</ele><time>2013-11-20T10:49:44.0000000+00:00</time></trkpt><trkpt lat="30.85071755" lon="34.78335953"><ele>479.6</ele><time>2013-11-20T10:49:49.0000000+00:00</time></trkpt><trkpt lat="30.85071755" lon="34.78335953"><ele>479.6</ele><time>2013-11-20T10:49:54.0000000+00:00</time></trkpt><trkpt lat="30.85071755" lon="34.78335953"><ele>479.6</ele><time>2013-11-20T10:49:59.0000000+00:00</time></trkpt><trkpt lat="30.85071945" lon="34.78335953"><ele>479.6</ele><time>2013-11-20T10:50:04.0000000+00:00</time></trkpt><trkpt lat="30.8507309" lon="34.78340912"><ele>479.6</ele><time>2013-11-20T10:50:09.0000000+00:00</time></trkpt><trkpt lat="30.85078621" lon="34.783535"><ele>479.9</ele><time>2013-11-20T10:50:14.0000000+00:00</time></trkpt><trkpt lat="30.85071945" lon="34.78368378"><ele>478.2</ele><time>2013-11-20T10:50:19.0000000+00:00</time></trkpt><trkpt lat="30.85058594" lon="34.78373337"><ele>477.3</ele><time>2013-11-20T10:50:24.0000000+00:00</time></trkpt><trkpt lat="30.85041809" lon="34.78378296"><ele>477.0</ele><time>2013-11-20T10:50:29.0000000+00:00</time></trkpt><trkpt lat="30.85027123" lon="34.78388977"><ele>477.0</ele><time>2013-11-20T10:50:34.0000000+00:00</time></trkpt><trkpt lat="30.8502121" lon="34.78404999"><ele>478.2</ele><time>2013-11-20T10:50:39.0000000+00:00</time></trkpt><trkpt lat="30.8501606" lon="34.78420639"><ele>477.7</ele><time>2013-11-20T10:50:44.0000000+00:00</time></trkpt><trkpt lat="30.85021019" lon="34.78443909"><ele>474.2</ele><time>2013-11-20T10:50:49.0000000+00:00</time></trkpt><trkpt lat="30.85023499" lon="34.78463364"><ele>473.0</ele><time>2013-11-20T10:50:54.0000000+00:00</time></trkpt><trkpt lat="30.8502903" lon="34.78486252"><ele>473.7</ele><time>2013-11-20T10:50:59.0000000+00:00</time></trkpt><trkpt lat="30.85033989" lon="34.78510284"><ele>473.4</ele><time>2013-11-20T10:51:04.0000000+00:00</time></trkpt><trkpt lat="30.8503933" lon="34.78533936"><ele>474.9</ele><time>2013-11-20T10:51:09.0000000+00:00</time></trkpt><trkpt lat="30.85043716" lon="34.78556824"><ele>473.4</ele><time>2013-11-20T10:51:14.0000000+00:00</time></trkpt><trkpt lat="30.85046387" lon="34.78577423"><ele>473.4</ele><time>2013-11-20T10:51:19.0000000+00:00</time></trkpt><trkpt lat="30.85050011" lon="34.786026"><ele>473.2</ele><time>2013-11-20T10:51:24.0000000+00:00</time></trkpt><trkpt lat="30.85054779" lon="34.78629303"><ele>471.8</ele><time>2013-11-20T10:51:29.0000000+00:00</time></trkpt><trkpt lat="30.85057068" lon="34.78654862"><ele>471.0</ele><time>2013-11-20T10:51:34.0000000+00:00</time></trkpt><trkpt lat="30.85061073" lon="34.78679276"><ele>472.8</ele><time>2013-11-20T10:51:39.0000000+00:00</time></trkpt><trkpt lat="30.85062981" lon="34.78701401"><ele>472.2</ele><time>2013-11-20T10:51:44.0000000+00:00</time></trkpt><trkpt lat="30.85058403" lon="34.78712463"><ele>472.8</ele><time>2013-11-20T10:51:49.0000000+00:00</time></trkpt><trkpt lat="30.85050774" lon="34.78727722"><ele>471.8</ele><time>2013-11-20T10:51:54.0000000+00:00</time></trkpt><trkpt lat="30.8504467" lon="34.78749847"><ele>474.0</ele><time>2013-11-20T10:51:59.0000000+00:00</time></trkpt><trkpt lat="30.85038376" lon="34.78769684"><ele>473.4</ele><time>2013-11-20T10:52:04.0000000+00:00</time></trkpt><trkpt lat="30.85029602" lon="34.78787613"><ele>474.9</ele><time>2013-11-20T10:52:09.0000000+00:00</time></trkpt><trkpt lat="30.85020828" lon="34.78804398"><ele>475.8</ele><time>2013-11-20T10:52:14.0000000+00:00</time></trkpt><trkpt lat="30.85013962" lon="34.78821182"><ele>476.7</ele><time>2013-11-20T10:52:19.0000000+00:00</time></trkpt><trkpt lat="30.85011864" lon="34.78841019"><ele>475.5</ele><time>2013-11-20T10:52:24.0000000+00:00</time></trkpt><trkpt lat="30.85015488" lon="34.78851318"><ele>475.5</ele><time>2013-11-20T10:52:29.0000000+00:00</time></trkpt><trkpt lat="30.85020638" lon="34.78855133"><ele>475.9</ele><time>2013-11-20T10:52:34.0000000+00:00</time></trkpt><trkpt lat="30.85026741" lon="34.78855515"><ele>475.9</ele><time>2013-11-20T10:52:39.0000000+00:00</time></trkpt><trkpt lat="30.85039139" lon="34.78854752"><ele>475.6</ele><time>2013-11-20T10:52:44.0000000+00:00</time></trkpt><trkpt lat="30.850523" lon="34.78860092"><ele>475.0</ele><time>2013-11-20T10:52:49.0000000+00:00</time></trkpt><trkpt lat="30.85065651" lon="34.78864288"><ele>474.5</ele><time>2013-11-20T10:52:54.0000000+00:00</time></trkpt><trkpt lat="30.85079575" lon="34.7887764"><ele>473.9</ele><time>2013-11-20T10:52:59.0000000+00:00</time></trkpt><trkpt lat="30.85092926" lon="34.78892136"><ele>473.8</ele><time>2013-11-20T10:53:04.0000000+00:00</time></trkpt><trkpt lat="30.85109329" lon="34.78903198"><ele>472.7</ele><time>2013-11-20T10:53:09.0000000+00:00</time></trkpt><trkpt lat="30.85124207" lon="34.78913117"><ele>473.7</ele><time>2013-11-20T10:53:14.0000000+00:00</time></trkpt><trkpt lat="30.8513794" lon="34.78922653"><ele>473.4</ele><time>2013-11-20T10:53:19.0000000+00:00</time></trkpt><trkpt lat="30.85146523" lon="34.78932953"><ele>473.2</ele><time>2013-11-20T10:53:24.0000000+00:00</time></trkpt><trkpt lat="30.85153198" lon="34.78949356"><ele>471.6</ele><time>2013-11-20T10:53:29.0000000+00:00</time></trkpt><trkpt lat="30.8515892" lon="34.78966522"><ele>471.2</ele><time>2013-11-20T10:53:34.0000000+00:00</time></trkpt><trkpt lat="30.85167694" lon="34.78980637"><ele>471.5</ele><time>2013-11-20T10:53:39.0000000+00:00</time></trkpt><trkpt lat="30.85172463" lon="34.78997803"><ele>470.5</ele><time>2013-11-20T10:53:44.0000000+00:00</time></trkpt><trkpt lat="30.85175896" lon="34.79013443"><ele>471.2</ele><time>2013-11-20T10:53:49.0000000+00:00</time></trkpt><trkpt lat="30.85186768" lon="34.79026794"><ele>470.5</ele><time>2013-11-20T10:53:54.0000000+00:00</time></trkpt><trkpt lat="30.85198593" lon="34.79049683"><ele>470.1</ele><time>2013-11-20T10:53:59.0000000+00:00</time></trkpt><trkpt lat="30.85201836" lon="34.79073715"><ele>470.3</ele><time>2013-11-20T10:54:04.0000000+00:00</time></trkpt><trkpt lat="30.85202789" lon="34.79094696"><ele>470.7</ele><time>2013-11-20T10:54:09.0000000+00:00</time></trkpt><trkpt lat="30.85200501" lon="34.79109573"><ele>470.8</ele><time>2013-11-20T10:54:14.0000000+00:00</time></trkpt><trkpt lat="30.85194016" lon="34.79118729"><ele>471.2</ele><time>2013-11-20T10:54:19.0000000+00:00</time></trkpt><trkpt lat="30.8518486" lon="34.79127502"><ele>471.1</ele><time>2013-11-20T10:54:24.0000000+00:00</time></trkpt><trkpt lat="30.85180855" lon="34.79132462"><ele>471.7</ele><time>2013-11-20T10:54:29.0000000+00:00</time></trkpt><trkpt lat="30.85178566" lon="34.79133225"><ele>472.0</ele><time>2013-11-20T10:54:34.0000000+00:00</time></trkpt><trkpt lat="30.85178185" lon="34.79133606"><ele>472.0</ele><time>2013-11-20T10:54:39.0000000+00:00</time></trkpt><trkpt lat="30.85177994" lon="34.79133987"><ele>472.0</ele><time>2013-11-20T10:54:44.0000000+00:00</time></trkpt><trkpt lat="30.85178185" lon="34.79133987"><ele>472.0</ele><time>2013-11-20T10:54:49.0000000+00:00</time></trkpt><trkpt lat="30.85177994" lon="34.79133987"><ele>472.0</ele><time>2013-11-20T10:54:54.0000000+00:00</time></trkpt><trkpt lat="30.85177994" lon="34.79133987"><ele>472.0</ele><time>2013-11-20T10:54:59.0000000+00:00</time></trkpt><trkpt lat="30.85177994" lon="34.79133987"><ele>472.0</ele><time>2013-11-20T10:55:04.0000000+00:00</time></trkpt><trkpt lat="30.85177994" lon="34.79134369"><ele>472.0</ele><time>2013-11-20T10:55:09.0000000+00:00</time></trkpt><trkpt lat="30.85184288" lon="34.79134369"><ele>472.1</ele><time>2013-11-20T10:55:14.0000000+00:00</time></trkpt><trkpt lat="30.85200501" lon="34.79134369"><ele>472.8</ele><time>2013-11-20T10:55:19.0000000+00:00</time></trkpt><trkpt lat="30.85216713" lon="34.7914238"><ele>472.7</ele><time>2013-11-20T10:55:24.0000000+00:00</time></trkpt><trkpt lat="30.85233498" lon="34.79145813"><ele>472.5</ele><time>2013-11-20T10:55:29.0000000+00:00</time></trkpt><trkpt lat="30.85249329" lon="34.7913971"><ele>472.0</ele><time>2013-11-20T10:55:34.0000000+00:00</time></trkpt><trkpt lat="30.85269165" lon="34.79140472"><ele>471.7</ele><time>2013-11-20T10:55:39.0000000+00:00</time></trkpt><trkpt lat="30.85286522" lon="34.79151535"><ele>471.8</ele><time>2013-11-20T10:55:44.0000000+00:00</time></trkpt><trkpt lat="30.85298538" lon="34.7916832"><ele>471.5</ele><time>2013-11-20T10:55:49.0000000+00:00</time></trkpt><trkpt lat="30.85304642" lon="34.79191589"><ele>471.3</ele><time>2013-11-20T10:55:54.0000000+00:00</time></trkpt><trkpt lat="30.85307503" lon="34.79214096"><ele>472.4</ele><time>2013-11-20T10:55:59.0000000+00:00</time></trkpt><trkpt lat="30.85309219" lon="34.79230881"><ele>472.8</ele><time>2013-11-20T10:56:04.0000000+00:00</time></trkpt><trkpt lat="30.85306358" lon="34.79253388"><ele>470.4</ele><time>2013-11-20T10:56:09.0000000+00:00</time></trkpt><trkpt lat="30.85311317" lon="34.79282761"><ele>467.6</ele><time>2013-11-20T10:56:14.0000000+00:00</time></trkpt><trkpt lat="30.85315704" lon="34.79313278"><ele>470.7</ele><time>2013-11-20T10:56:19.0000000+00:00</time></trkpt><trkpt lat="30.85319519" lon="34.79338074"><ele>472.6</ele><time>2013-11-20T10:56:24.0000000+00:00</time></trkpt><trkpt lat="30.85323525" lon="34.79365921"><ele>471.8</ele><time>2013-11-20T10:56:29.0000000+00:00</time></trkpt><trkpt lat="30.85324097" lon="34.79388046"><ele>472.6</ele><time>2013-11-20T10:56:34.0000000+00:00</time></trkpt><trkpt lat="30.85322952" lon="34.79411697"><ele>471.9</ele><time>2013-11-20T10:56:39.0000000+00:00</time></trkpt><trkpt lat="30.85323143" lon="34.79435349"><ele>471.9</ele><time>2013-11-20T10:56:44.0000000+00:00</time></trkpt><trkpt lat="30.85328293" lon="34.79456329"><ele>471.6</ele><time>2013-11-20T10:56:49.0000000+00:00</time></trkpt><trkpt lat="30.85336685" lon="34.79474258"><ele>470.1</ele><time>2013-11-20T10:56:54.0000000+00:00</time></trkpt><trkpt lat="30.853508" lon="34.79484558"><ele>470.8</ele><time>2013-11-20T10:56:59.0000000+00:00</time></trkpt><trkpt lat="30.85368919" lon="34.79489899"><ele>471.0</ele><time>2013-11-20T10:57:04.0000000+00:00</time></trkpt><trkpt lat="30.85388184" lon="34.79493713"><ele>471.9</ele><time>2013-11-20T10:57:09.0000000+00:00</time></trkpt><trkpt lat="30.85406494" lon="34.79497528"><ele>468.5</ele><time>2013-11-20T10:57:14.0000000+00:00</time></trkpt><trkpt lat="30.85428047" lon="34.79502487"><ele>468.6</ele><time>2013-11-20T10:57:19.0000000+00:00</time></trkpt><trkpt lat="30.85446549" lon="34.79506683"><ele>468.4</ele><time>2013-11-20T10:57:24.0000000+00:00</time></trkpt><trkpt lat="30.8546505" lon="34.79499817"><ele>467.5</ele><time>2013-11-20T10:57:29.0000000+00:00</time></trkpt><trkpt lat="30.8548069" lon="34.79498673"><ele>470.1</ele><time>2013-11-20T10:57:34.0000000+00:00</time></trkpt><trkpt lat="30.85493851" lon="34.79513931"><ele>470.2</ele><time>2013-11-20T10:57:39.0000000+00:00</time></trkpt><trkpt lat="30.85508728" lon="34.79525757"><ele>468.9</ele><time>2013-11-20T10:57:44.0000000+00:00</time></trkpt><trkpt lat="30.85521126" lon="34.79540634"><ele>470.1</ele><time>2013-11-20T10:57:49.0000000+00:00</time></trkpt><trkpt lat="30.85532379" lon="34.79551315"><ele>470.9</ele><time>2013-11-20T10:57:54.0000000+00:00</time></trkpt><trkpt lat="30.85542488" lon="34.79563522"><ele>471.7</ele><time>2013-11-20T10:57:59.0000000+00:00</time></trkpt><trkpt lat="30.85552979" lon="34.79580689"><ele>473.0</ele><time>2013-11-20T10:58:04.0000000+00:00</time></trkpt><trkpt lat="30.85564613" lon="34.7959671"><ele>474.7</ele><time>2013-11-20T10:58:09.0000000+00:00</time></trkpt><trkpt lat="30.85575867" lon="34.79615402"><ele>472.8</ele><time>2013-11-20T10:58:14.0000000+00:00</time></trkpt><trkpt lat="30.85587883" lon="34.79632568"><ele>469.0</ele><time>2013-11-20T10:58:19.0000000+00:00</time></trkpt><trkpt lat="30.85601997" lon="34.7964859"><ele>464.8</ele><time>2013-11-20T10:58:24.0000000+00:00</time></trkpt><trkpt lat="30.85616493" lon="34.79664993"><ele>463.3</ele><time>2013-11-20T10:58:29.0000000+00:00</time></trkpt><trkpt lat="30.85626221" lon="34.7967453"><ele>463.5</ele><time>2013-11-20T10:58:34.0000000+00:00</time></trkpt><trkpt lat="30.8564167" lon="34.79688644"><ele>466.3</ele><time>2013-11-20T10:58:39.0000000+00:00</time></trkpt><trkpt lat="30.85655212" lon="34.79701996"><ele>468.1</ele><time>2013-11-20T10:58:44.0000000+00:00</time></trkpt><trkpt lat="30.85670281" lon="34.79713821"><ele>468.6</ele><time>2013-11-20T10:58:49.0000000+00:00</time></trkpt><trkpt lat="30.85686112" lon="34.79726791"><ele>470.3</ele><time>2013-11-20T10:58:54.0000000+00:00</time></trkpt><trkpt lat="30.85699272" lon="34.79738236"><ele>471.7</ele><time>2013-11-20T10:58:59.0000000+00:00</time></trkpt><trkpt lat="30.85711289" lon="34.79746628"><ele>471.9</ele><time>2013-11-20T10:59:04.0000000+00:00</time></trkpt><trkpt lat="30.85718918" lon="34.79759598"><ele>470.4</ele><time>2013-11-20T10:59:09.0000000+00:00</time></trkpt><trkpt lat="30.85723877" lon="34.79786301"><ele>469.4</ele><time>2013-11-20T10:59:14.0000000+00:00</time></trkpt><trkpt lat="30.85728645" lon="34.79815292"><ele>470.1</ele><time>2013-11-20T10:59:19.0000000+00:00</time></trkpt><trkpt lat="30.85734177" lon="34.79841232"><ele>470.1</ele><time>2013-11-20T10:59:24.0000000+00:00</time></trkpt><trkpt lat="30.85737419" lon="34.79864121"><ele>470.5</ele><time>2013-11-20T10:59:29.0000000+00:00</time></trkpt><trkpt lat="30.85741425" lon="34.79885864"><ele>470.7</ele><time>2013-11-20T10:59:34.0000000+00:00</time></trkpt><trkpt lat="30.85746193" lon="34.79908371"><ele>471.0</ele><time>2013-11-20T10:59:39.0000000+00:00</time></trkpt><trkpt lat="30.85750389" lon="34.79931259"><ele>470.1</ele><time>2013-11-20T10:59:44.0000000+00:00</time></trkpt><trkpt lat="30.8575592" lon="34.79953766"><ele>470.2</ele><time>2013-11-20T10:59:49.0000000+00:00</time></trkpt><trkpt lat="30.85760117" lon="34.79978561"><ele>470.0</ele><time>2013-11-20T10:59:54.0000000+00:00</time></trkpt><trkpt lat="30.85765076" lon="34.80002213"><ele>471.0</ele><time>2013-11-20T10:59:59.0000000+00:00</time></trkpt><trkpt lat="30.85768509" lon="34.80025864"><ele>472.0</ele><time>2013-11-20T11:00:04.0000000+00:00</time></trkpt><trkpt lat="30.8577137" lon="34.80050659"><ele>472.5</ele><time>2013-11-20T11:00:09.0000000+00:00</time></trkpt><trkpt lat="30.85772324" lon="34.80075455"><ele>473.4</ele><time>2013-11-20T11:00:14.0000000+00:00</time></trkpt><trkpt lat="30.85773087" lon="34.80101013"><ele>472.9</ele><time>2013-11-20T11:00:19.0000000+00:00</time></trkpt><trkpt lat="30.85771751" lon="34.8012619"><ele>472.6</ele><time>2013-11-20T11:00:24.0000000+00:00</time></trkpt><trkpt lat="30.85770798" lon="34.80149841"><ele>473.0</ele><time>2013-11-20T11:00:29.0000000+00:00</time></trkpt><trkpt lat="30.85762024" lon="34.80162811"><ele>473.5</ele><time>2013-11-20T11:00:34.0000000+00:00</time></trkpt><trkpt lat="30.85745049" lon="34.80173111"><ele>472.3</ele><time>2013-11-20T11:00:39.0000000+00:00</time></trkpt><trkpt lat="30.85730171" lon="34.80189896"><ele>473.1</ele><time>2013-11-20T11:00:44.0000000+00:00</time></trkpt><trkpt lat="30.85712051" lon="34.80207443"><ele>473.2</ele><time>2013-11-20T11:00:49.0000000+00:00</time></trkpt><trkpt lat="30.85695648" lon="34.80226517"><ele>473.5</ele><time>2013-11-20T11:00:54.0000000+00:00</time></trkpt><trkpt lat="30.85678673" lon="34.80244827"><ele>475.5</ele><time>2013-11-20T11:00:59.0000000+00:00</time></trkpt><trkpt lat="30.85661888" lon="34.80263138"><ele>475.7</ele><time>2013-11-20T11:01:04.0000000+00:00</time></trkpt><trkpt lat="30.85643005" lon="34.8027916"><ele>476.7</ele><time>2013-11-20T11:01:09.0000000+00:00</time></trkpt><trkpt lat="30.85626411" lon="34.80295181"><ele>477.1</ele><time>2013-11-20T11:01:14.0000000+00:00</time></trkpt><trkpt lat="30.85615349" lon="34.80315781"><ele>475.6</ele><time>2013-11-20T11:01:19.0000000+00:00</time></trkpt><trkpt lat="30.85616112" lon="34.80343247"><ele>474.8</ele><time>2013-11-20T11:01:24.0000000+00:00</time></trkpt><trkpt lat="30.85617256" lon="34.80371857"><ele>473.7</ele><time>2013-11-20T11:01:29.0000000+00:00</time></trkpt><trkpt lat="30.8560791" lon="34.80394745"><ele>472.5</ele><time>2013-11-20T11:01:34.0000000+00:00</time></trkpt><trkpt lat="30.8559475" lon="34.8041687"><ele>474.1</ele><time>2013-11-20T11:01:39.0000000+00:00</time></trkpt><trkpt lat="30.85585976" lon="34.80440521"><ele>474.9</ele><time>2013-11-20T11:01:44.0000000+00:00</time></trkpt><trkpt lat="30.85582733" lon="34.80451584"><ele>476.8</ele><time>2013-11-20T11:01:49.0000000+00:00</time></trkpt><trkpt lat="30.85587692" lon="34.80456543"><ele>476.5</ele><time>2013-11-20T11:01:54.0000000+00:00</time></trkpt><trkpt lat="30.8558979" lon="34.80473328"><ele>476.1</ele><time>2013-11-20T11:01:59.0000000+00:00</time></trkpt><trkpt lat="30.85585213" lon="34.80491638"><ele>474.7</ele><time>2013-11-20T11:02:04.0000000+00:00</time></trkpt><trkpt lat="30.85579872" lon="34.80500031"><ele>473.9</ele><time>2013-11-20T11:02:09.0000000+00:00</time></trkpt><trkpt lat="30.85577965" lon="34.80502701"><ele>472.8</ele><time>2013-11-20T11:02:14.0000000+00:00</time></trkpt><trkpt lat="30.85577583" lon="34.80502701"><ele>472.4</ele><time>2013-11-20T11:02:19.0000000+00:00</time></trkpt><trkpt lat="30.85577393" lon="34.80502701"><ele>472.4</ele><time>2013-11-20T11:02:24.0000000+00:00</time></trkpt><trkpt lat="30.85577011" lon="34.80503082"><ele>472.3</ele><time>2013-11-20T11:02:29.0000000+00:00</time></trkpt><trkpt lat="30.85577011" lon="34.80503082"><ele>472.3</ele><time>2013-11-20T11:02:34.0000000+00:00</time></trkpt><trkpt lat="30.85577011" lon="34.80503082"><ele>472.3</ele><time>2013-11-20T11:02:39.0000000+00:00</time></trkpt><trkpt lat="30.85577011" lon="34.80503082"><ele>472.4</ele><time>2013-11-20T11:02:44.0000000+00:00</time></trkpt><trkpt lat="30.85577011" lon="34.80503082"><ele>472.4</ele><time>2013-11-20T11:02:49.0000000+00:00</time></trkpt><trkpt lat="30.85577011" lon="34.80503082"><ele>472.3</ele><time>2013-11-20T11:02:54.0000000+00:00</time></trkpt><trkpt lat="30.85577011" lon="34.80503082"><ele>472.3</ele><time>2013-11-20T11:02:59.0000000+00:00</time></trkpt><trkpt lat="30.85577011" lon="34.80503082"><ele>472.4</ele><time>2013-11-20T11:03:04.0000000+00:00</time></trkpt><trkpt lat="30.85577011" lon="34.80503082"><ele>472.4</ele><time>2013-11-20T11:03:09.0000000+00:00</time></trkpt><trkpt lat="30.85577011" lon="34.80503082"><ele>472.4</ele><time>2013-11-20T11:03:14.0000000+00:00</time></trkpt><trkpt lat="30.85577011" lon="34.80503082"><ele>472.4</ele><time>2013-11-20T11:03:19.0000000+00:00</time></trkpt><trkpt lat="30.85577011" lon="34.80503082"><ele>472.4</ele><time>2013-11-20T11:03:24.0000000+00:00</time></trkpt><trkpt lat="30.85577011" lon="34.80503082"><ele>472.4</ele><time>2013-11-20T11:03:29.0000000+00:00</time></trkpt><trkpt lat="30.85577011" lon="34.80503082"><ele>472.4</ele><time>2013-11-20T11:03:34.0000000+00:00</time></trkpt><trkpt lat="30.85577011" lon="34.80503082"><ele>472.4</ele><time>2013-11-20T11:03:39.0000000+00:00</time></trkpt><trkpt lat="30.85577011" lon="34.80503082"><ele>472.4</ele><time>2013-11-20T11:03:44.0000000+00:00</time></trkpt><trkpt lat="30.85577011" lon="34.80503082"><ele>472.4</ele><time>2013-11-20T11:03:49.0000000+00:00</time></trkpt><trkpt lat="30.85577011" lon="34.80503082"><ele>472.5</ele><time>2013-11-20T11:03:54.0000000+00:00</time></trkpt><trkpt lat="30.85577011" lon="34.80503082"><ele>472.5</ele><time>2013-11-20T11:03:59.0000000+00:00</time></trkpt><trkpt lat="30.85577011" lon="34.80503082"><ele>472.5</ele><time>2013-11-20T11:04:04.0000000+00:00</time></trkpt><trkpt lat="30.85577011" lon="34.80503082"><ele>472.5</ele><time>2013-11-20T11:04:09.0000000+00:00</time></trkpt><trkpt lat="30.85577011" lon="34.80503082"><ele>472.5</ele><time>2013-11-20T11:04:14.0000000+00:00</time></trkpt><trkpt lat="30.85577011" lon="34.80503082"><ele>472.5</ele><time>2013-11-20T11:04:19.0000000+00:00</time></trkpt><trkpt lat="30.85577011" lon="34.80503082"><ele>472.5</ele><time>2013-11-20T11:04:24.0000000+00:00</time></trkpt><trkpt lat="30.85577011" lon="34.80503082"><ele>472.5</ele><time>2013-11-20T11:04:29.0000000+00:00</time></trkpt><trkpt lat="30.8557682" lon="34.80506516"><ele>472.5</ele><time>2013-11-20T11:04:34.0000000+00:00</time></trkpt><trkpt lat="30.85575867" lon="34.80502319"><ele>473.0</ele><time>2013-11-20T11:04:39.0000000+00:00</time></trkpt><trkpt lat="30.85583878" lon="34.80493546"><ele>474.0</ele><time>2013-11-20T11:04:44.0000000+00:00</time></trkpt><trkpt lat="30.85595131" lon="34.80476379"><ele>473.8</ele><time>2013-11-20T11:04:49.0000000+00:00</time></trkpt><trkpt lat="30.85608864" lon="34.80460358"><ele>473.6</ele><time>2013-11-20T11:04:54.0000000+00:00</time></trkpt><trkpt lat="30.85626411" lon="34.80455017"><ele>475.0</ele><time>2013-11-20T11:04:59.0000000+00:00</time></trkpt><trkpt lat="30.8564415" lon="34.80450821"><ele>474.7</ele><time>2013-11-20T11:05:04.0000000+00:00</time></trkpt><trkpt lat="30.85661125" lon="34.80447769"><ele>475.2</ele><time>2013-11-20T11:05:09.0000000+00:00</time></trkpt><trkpt lat="30.85679436" lon="34.80455017"><ele>473.0</ele><time>2013-11-20T11:05:14.0000000+00:00</time></trkpt><trkpt lat="30.85697746" lon="34.80467987"><ele>471.9</ele><time>2013-11-20T11:05:19.0000000+00:00</time></trkpt><trkpt lat="30.85714531" lon="34.80484009"><ele>473.4</ele><time>2013-11-20T11:05:24.0000000+00:00</time></trkpt><trkpt lat="30.85730362" lon="34.80495071"><ele>473.2</ele><time>2013-11-20T11:05:29.0000000+00:00</time></trkpt><trkpt lat="30.85748291" lon="34.80506897"><ele>472.6</ele><time>2013-11-20T11:05:34.0000000+00:00</time></trkpt><trkpt lat="30.85769272" lon="34.80515289"><ele>472.7</ele><time>2013-11-20T11:05:39.0000000+00:00</time></trkpt><trkpt lat="30.85788536" lon="34.80521393"><ele>471.7</ele><time>2013-11-20T11:05:44.0000000+00:00</time></trkpt><trkpt lat="30.85808563" lon="34.80524445"><ele>471.9</ele><time>2013-11-20T11:05:49.0000000+00:00</time></trkpt><trkpt lat="30.85828018" lon="34.80528259"><ele>469.8</ele><time>2013-11-20T11:05:54.0000000+00:00</time></trkpt><trkpt lat="30.8584652" lon="34.80533218"><ele>469.9</ele><time>2013-11-20T11:05:59.0000000+00:00</time></trkpt><trkpt lat="30.85865021" lon="34.80541611"><ele>470.6</ele><time>2013-11-20T11:06:04.0000000+00:00</time></trkpt><trkpt lat="30.85880661" lon="34.8055191"><ele>470.5</ele><time>2013-11-20T11:06:09.0000000+00:00</time></trkpt><trkpt lat="30.85896301" lon="34.80552673"><ele>471.7</ele><time>2013-11-20T11:06:14.0000000+00:00</time></trkpt><trkpt lat="30.85910797" lon="34.8055191"><ele>473.8</ele><time>2013-11-20T11:06:19.0000000+00:00</time></trkpt><trkpt lat="30.85925293" lon="34.80559158"><ele>473.5</ele><time>2013-11-20T11:06:24.0000000+00:00</time></trkpt><trkpt lat="30.85943985" lon="34.80569458"><ele>472.3</ele><time>2013-11-20T11:06:29.0000000+00:00</time></trkpt><trkpt lat="30.85965729" lon="34.80570984"><ele>472.6</ele><time>2013-11-20T11:06:34.0000000+00:00</time></trkpt><trkpt lat="30.85984421" lon="34.80568695"><ele>472.7</ele><time>2013-11-20T11:06:39.0000000+00:00</time></trkpt><trkpt lat="30.85998917" lon="34.80561447"><ele>474.8</ele><time>2013-11-20T11:06:44.0000000+00:00</time></trkpt><trkpt lat="30.86015511" lon="34.80553818"><ele>472.7</ele><time>2013-11-20T11:06:49.0000000+00:00</time></trkpt><trkpt lat="30.86030197" lon="34.80562973"><ele>472.8</ele><time>2013-11-20T11:06:54.0000000+00:00</time></trkpt><trkpt lat="30.86040497" lon="34.80573273"><ele>473.7</ele><time>2013-11-20T11:06:59.0000000+00:00</time></trkpt><trkpt lat="30.86056519" lon="34.80581665"><ele>473.4</ele><time>2013-11-20T11:07:04.0000000+00:00</time></trkpt><trkpt lat="30.8607254" lon="34.80587769"><ele>472.0</ele><time>2013-11-20T11:07:09.0000000+00:00</time></trkpt><trkpt lat="30.86089516" lon="34.80593872"><ele>472.8</ele><time>2013-11-20T11:07:14.0000000+00:00</time></trkpt><trkpt lat="30.86105347" lon="34.8060112"><ele>472.4</ele><time>2013-11-20T11:07:19.0000000+00:00</time></trkpt><trkpt lat="30.86121559" lon="34.80607987"><ele>474.0</ele><time>2013-11-20T11:07:24.0000000+00:00</time></trkpt><trkpt lat="30.86139488" lon="34.80616379"><ele>473.1</ele><time>2013-11-20T11:07:29.0000000+00:00</time></trkpt><trkpt lat="30.86156464" lon="34.80623627"><ele>472.8</ele><time>2013-11-20T11:07:34.0000000+00:00</time></trkpt><trkpt lat="30.86173058" lon="34.80632019"><ele>474.2</ele><time>2013-11-20T11:07:39.0000000+00:00</time></trkpt><trkpt lat="30.86189461" lon="34.8064003"><ele>476.3</ele><time>2013-11-20T11:07:44.0000000+00:00</time></trkpt><trkpt lat="30.86206245" lon="34.80647278"><ele>475.1</ele><time>2013-11-20T11:07:49.0000000+00:00</time></trkpt><trkpt lat="30.86223602" lon="34.80653763"><ele>473.8</ele><time>2013-11-20T11:07:54.0000000+00:00</time></trkpt><trkpt lat="30.86241913" lon="34.80660629"><ele>472.7</ele><time>2013-11-20T11:07:59.0000000+00:00</time></trkpt><trkpt lat="30.86259079" lon="34.8066597"><ele>471.2</ele><time>2013-11-20T11:08:04.0000000+00:00</time></trkpt><trkpt lat="30.86274719" lon="34.80671692"><ele>473.0</ele><time>2013-11-20T11:08:09.0000000+00:00</time></trkpt><trkpt lat="30.86291313" lon="34.80677795"><ele>473.4</ele><time>2013-11-20T11:08:14.0000000+00:00</time></trkpt><trkpt lat="30.86307526" lon="34.80683518"><ele>475.8</ele><time>2013-11-20T11:08:19.0000000+00:00</time></trkpt><trkpt lat="30.86324501" lon="34.8068924"><ele>475.5</ele><time>2013-11-20T11:08:24.0000000+00:00</time></trkpt><trkpt lat="30.86340141" lon="34.80696487"><ele>476.8</ele><time>2013-11-20T11:08:29.0000000+00:00</time></trkpt><trkpt lat="30.86350632" lon="34.80708313"><ele>476.2</ele><time>2013-11-20T11:08:34.0000000+00:00</time></trkpt><trkpt lat="30.8635788" lon="34.80725098"><ele>476.9</ele><time>2013-11-20T11:08:39.0000000+00:00</time></trkpt><trkpt lat="30.86365318" lon="34.80740738"><ele>477.2</ele><time>2013-11-20T11:08:44.0000000+00:00</time></trkpt><trkpt lat="30.86372566" lon="34.80759049"><ele>477.9</ele><time>2013-11-20T11:08:49.0000000+00:00</time></trkpt><trkpt lat="30.86377907" lon="34.80777359"><ele>479.5</ele><time>2013-11-20T11:08:54.0000000+00:00</time></trkpt><trkpt lat="30.8638134" lon="34.80797577"><ele>480.8</ele><time>2013-11-20T11:08:59.0000000+00:00</time></trkpt><trkpt lat="30.86389732" lon="34.80817032"><ele>482.3</ele><time>2013-11-20T11:09:04.0000000+00:00</time></trkpt><trkpt lat="30.86398506" lon="34.80832291"><ele>481.2</ele><time>2013-11-20T11:09:09.0000000+00:00</time></trkpt><trkpt lat="30.86407852" lon="34.80847168"><ele>480.9</ele><time>2013-11-20T11:09:14.0000000+00:00</time></trkpt><trkpt lat="30.8641777" lon="34.80861664"><ele>483.0</ele><time>2013-11-20T11:09:19.0000000+00:00</time></trkpt><trkpt lat="30.864254" lon="34.80878067"><ele>481.7</ele><time>2013-11-20T11:09:24.0000000+00:00</time></trkpt><trkpt lat="30.86432838" lon="34.80896759"><ele>483.6</ele><time>2013-11-20T11:09:29.0000000+00:00</time></trkpt><trkpt lat="30.8644619" lon="34.80912018"><ele>483.1</ele><time>2013-11-20T11:09:34.0000000+00:00</time></trkpt><trkpt lat="30.86458588" lon="34.80926514"><ele>482.4</ele><time>2013-11-20T11:09:39.0000000+00:00</time></trkpt><trkpt lat="30.86467362" lon="34.80942154"><ele>481.6</ele><time>2013-11-20T11:09:44.0000000+00:00</time></trkpt><trkpt lat="30.86474419" lon="34.80961227"><ele>482.1</ele><time>2013-11-20T11:09:49.0000000+00:00</time></trkpt><trkpt lat="30.86482048" lon="34.80977249"><ele>483.6</ele><time>2013-11-20T11:09:54.0000000+00:00</time></trkpt><trkpt lat="30.86492539" lon="34.80992127"><ele>484.6</ele><time>2013-11-20T11:09:59.0000000+00:00</time></trkpt><trkpt lat="30.86504173" lon="34.81006622"><ele>485.3</ele><time>2013-11-20T11:10:04.0000000+00:00</time></trkpt><trkpt lat="30.8651371" lon="34.81022644"><ele>484.6</ele><time>2013-11-20T11:10:09.0000000+00:00</time></trkpt><trkpt lat="30.86520195" lon="34.81038666"><ele>484.5</ele><time>2013-11-20T11:10:14.0000000+00:00</time></trkpt><trkpt lat="30.86525917" lon="34.81055069"><ele>484.9</ele><time>2013-11-20T11:10:19.0000000+00:00</time></trkpt><trkpt lat="30.86532402" lon="34.81072235"><ele>486.3</ele><time>2013-11-20T11:10:24.0000000+00:00</time></trkpt><trkpt lat="30.86538506" lon="34.81088638"><ele>486.2</ele><time>2013-11-20T11:10:29.0000000+00:00</time></trkpt><trkpt lat="30.86545944" lon="34.81106186"><ele>486.8</ele><time>2013-11-20T11:10:34.0000000+00:00</time></trkpt><trkpt lat="30.8654995" lon="34.81122589"><ele>486.5</ele><time>2013-11-20T11:10:39.0000000+00:00</time></trkpt><trkpt lat="30.86553764" lon="34.81140518"><ele>486.9</ele><time>2013-11-20T11:10:44.0000000+00:00</time></trkpt><trkpt lat="30.86556816" lon="34.81157684"><ele>488.7</ele><time>2013-11-20T11:10:49.0000000+00:00</time></trkpt><trkpt lat="30.86555862" lon="34.81177521"><ele>490.1</ele><time>2013-11-20T11:10:54.0000000+00:00</time></trkpt><trkpt lat="30.86555862" lon="34.81197357"><ele>489.1</ele><time>2013-11-20T11:10:59.0000000+00:00</time></trkpt><trkpt lat="30.86557961" lon="34.81215286"><ele>488.4</ele><time>2013-11-20T11:11:04.0000000+00:00</time></trkpt><trkpt lat="30.86556244" lon="34.81233978"><ele>488.3</ele><time>2013-11-20T11:11:09.0000000+00:00</time></trkpt><trkpt lat="30.86555862" lon="34.81251907"><ele>489.6</ele><time>2013-11-20T11:11:14.0000000+00:00</time></trkpt><trkpt lat="30.86555672" lon="34.81268692"><ele>491.2</ele><time>2013-11-20T11:11:19.0000000+00:00</time></trkpt><trkpt lat="30.86549187" lon="34.8128624"><ele>491.5</ele><time>2013-11-20T11:11:24.0000000+00:00</time></trkpt><trkpt lat="30.86540222" lon="34.8129921"><ele>493.6</ele><time>2013-11-20T11:11:29.0000000+00:00</time></trkpt><trkpt lat="30.8652916" lon="34.81311035"><ele>493.6</ele><time>2013-11-20T11:11:34.0000000+00:00</time></trkpt><trkpt lat="30.8651638" lon="34.81323242"><ele>492.2</ele><time>2013-11-20T11:11:39.0000000+00:00</time></trkpt><trkpt lat="30.86502457" lon="34.81333542"><ele>490.4</ele><time>2013-11-20T11:11:44.0000000+00:00</time></trkpt><trkpt lat="30.8649025" lon="34.81346512"><ele>490.7</ele><time>2013-11-20T11:11:49.0000000+00:00</time></trkpt><trkpt lat="30.86480141" lon="34.81362534"><ele>490.0</ele><time>2013-11-20T11:11:54.0000000+00:00</time></trkpt><trkpt lat="30.86465454" lon="34.81374741"><ele>490.8</ele><time>2013-11-20T11:11:59.0000000+00:00</time></trkpt><trkpt lat="30.86451721" lon="34.81384277"><ele>491.8</ele><time>2013-11-20T11:12:04.0000000+00:00</time></trkpt><trkpt lat="30.86439133" lon="34.81396103"><ele>493.4</ele><time>2013-11-20T11:12:09.0000000+00:00</time></trkpt><trkpt lat="30.86427116" lon="34.8140564"><ele>494.6</ele><time>2013-11-20T11:12:14.0000000+00:00</time></trkpt><trkpt lat="30.86414719" lon="34.81420136"><ele>494.3</ele><time>2013-11-20T11:12:19.0000000+00:00</time></trkpt><trkpt lat="30.86403275" lon="34.81432343"><ele>495.0</ele><time>2013-11-20T11:12:24.0000000+00:00</time></trkpt><trkpt lat="30.86390495" lon="34.81446838"><ele>495.2</ele><time>2013-11-20T11:12:29.0000000+00:00</time></trkpt><trkpt lat="30.8638401" lon="34.81464005"><ele>495.2</ele><time>2013-11-20T11:12:34.0000000+00:00</time></trkpt><trkpt lat="30.86375427" lon="34.81481171"><ele>495.7</ele><time>2013-11-20T11:12:39.0000000+00:00</time></trkpt><trkpt lat="30.86368561" lon="34.81499863"><ele>496.8</ele><time>2013-11-20T11:12:44.0000000+00:00</time></trkpt><trkpt lat="30.86364365" lon="34.81512451"><ele>497.5</ele><time>2013-11-20T11:12:49.0000000+00:00</time></trkpt><trkpt lat="30.86362839" lon="34.8152504"><ele>496.8</ele><time>2013-11-20T11:12:54.0000000+00:00</time></trkpt><trkpt lat="30.8636837" lon="34.81544113"><ele>498.2</ele><time>2013-11-20T11:12:59.0000000+00:00</time></trkpt><trkpt lat="30.86375427" lon="34.81557846"><ele>499.2</ele><time>2013-11-20T11:13:04.0000000+00:00</time></trkpt><trkpt lat="30.86379623" lon="34.81563568"><ele>500.4</ele><time>2013-11-20T11:13:09.0000000+00:00</time></trkpt><trkpt lat="30.86384392" lon="34.81570053"><ele>500.0</ele><time>2013-11-20T11:13:14.0000000+00:00</time></trkpt><trkpt lat="30.86388207" lon="34.81576538"><ele>501.1</ele><time>2013-11-20T11:13:19.0000000+00:00</time></trkpt><trkpt lat="30.86391068" lon="34.81584168"><ele>502.3</ele><time>2013-11-20T11:13:24.0000000+00:00</time></trkpt><trkpt lat="30.8639431" lon="34.81587982"><ele>503.4</ele><time>2013-11-20T11:13:29.0000000+00:00</time></trkpt><trkpt lat="30.86394692" lon="34.81587601"><ele>503.7</ele><time>2013-11-20T11:13:34.0000000+00:00</time></trkpt><trkpt lat="30.86396027" lon="34.81589508"><ele>503.7</ele><time>2013-11-20T11:13:39.0000000+00:00</time></trkpt><trkpt lat="30.86398315" lon="34.81593704"><ele>503.9</ele><time>2013-11-20T11:13:44.0000000+00:00</time></trkpt><trkpt lat="30.86400604" lon="34.81597138"><ele>503.5</ele><time>2013-11-20T11:13:49.0000000+00:00</time></trkpt><trkpt lat="30.86401939" lon="34.81599045"><ele>503.9</ele><time>2013-11-20T11:13:54.0000000+00:00</time></trkpt><trkpt lat="30.86401939" lon="34.81598663"><ele>504.1</ele><time>2013-11-20T11:13:59.0000000+00:00</time></trkpt><trkpt lat="30.86401939" lon="34.81599045"><ele>504.6</ele><time>2013-11-20T11:14:04.0000000+00:00</time></trkpt><trkpt lat="30.86401939" lon="34.81599045"><ele>505.0</ele><time>2013-11-20T11:14:09.0000000+00:00</time></trkpt><trkpt lat="30.86401939" lon="34.81599045"><ele>505.1</ele><time>2013-11-20T11:14:14.0000000+00:00</time></trkpt><trkpt lat="30.86401939" lon="34.81599045"><ele>505.1</ele><time>2013-11-20T11:14:19.0000000+00:00</time></trkpt><trkpt lat="30.86401939" lon="34.81599045"><ele>505.1</ele><time>2013-11-20T11:14:24.0000000+00:00</time></trkpt><trkpt lat="30.86401939" lon="34.81599045"><ele>505.1</ele><time>2013-11-20T11:14:29.0000000+00:00</time></trkpt><trkpt lat="30.864048" lon="34.81602097"><ele>505.7</ele><time>2013-11-20T11:14:34.0000000+00:00</time></trkpt><trkpt lat="30.86407471" lon="34.81606293"><ele>505.9</ele><time>2013-11-20T11:14:39.0000000+00:00</time></trkpt><trkpt lat="30.86408615" lon="34.81611252"><ele>506.0</ele><time>2013-11-20T11:14:44.0000000+00:00</time></trkpt><trkpt lat="30.86409187" lon="34.81617737"><ele>506.2</ele><time>2013-11-20T11:14:49.0000000+00:00</time></trkpt><trkpt lat="30.86411476" lon="34.81621933"><ele>506.2</ele><time>2013-11-20T11:14:54.0000000+00:00</time></trkpt><trkpt lat="30.86413956" lon="34.81626129"><ele>506.9</ele><time>2013-11-20T11:14:59.0000000+00:00</time></trkpt><trkpt lat="30.86416054" lon="34.81629944"><ele>507.8</ele><time>2013-11-20T11:15:04.0000000+00:00</time></trkpt><trkpt lat="30.86418343" lon="34.8163414"><ele>508.3</ele><time>2013-11-20T11:15:09.0000000+00:00</time></trkpt><trkpt lat="30.86419106" lon="34.8163414"><ele>508.1</ele><time>2013-11-20T11:15:14.0000000+00:00</time></trkpt><trkpt lat="30.86417389" lon="34.81634522"><ele>508.8</ele><time>2013-11-20T11:15:19.0000000+00:00</time></trkpt><trkpt lat="30.86417961" lon="34.81635284"><ele>509.0</ele><time>2013-11-20T11:15:24.0000000+00:00</time></trkpt><trkpt lat="30.86420822" lon="34.81638718"><ele>508.7</ele><time>2013-11-20T11:15:29.0000000+00:00</time></trkpt><trkpt lat="30.86422157" lon="34.81644058"><ele>509.5</ele><time>2013-11-20T11:15:34.0000000+00:00</time></trkpt><trkpt lat="30.86426354" lon="34.8164711"><ele>510.3</ele><time>2013-11-20T11:15:39.0000000+00:00</time></trkpt><trkpt lat="30.86428642" lon="34.81650543"><ele>510.9</ele><time>2013-11-20T11:15:44.0000000+00:00</time></trkpt><trkpt lat="30.8643074" lon="34.81650925"><ele>511.0</ele><time>2013-11-20T11:15:49.0000000+00:00</time></trkpt><trkpt lat="30.86431122" lon="34.81651306"><ele>511.3</ele><time>2013-11-20T11:15:54.0000000+00:00</time></trkpt><trkpt lat="30.86432648" lon="34.81657028"><ele>511.7</ele><time>2013-11-20T11:15:59.0000000+00:00</time></trkpt><trkpt lat="30.86435127" lon="34.81661224"><ele>511.8</ele><time>2013-11-20T11:16:04.0000000+00:00</time></trkpt><trkpt lat="30.86436653" lon="34.81665039"><ele>512.6</ele><time>2013-11-20T11:16:09.0000000+00:00</time></trkpt><trkpt lat="30.86437416" lon="34.81669998"><ele>513.4</ele><time>2013-11-20T11:16:14.0000000+00:00</time></trkpt><trkpt lat="30.86440086" lon="34.81675339"><ele>514.4</ele><time>2013-11-20T11:16:19.0000000+00:00</time></trkpt><trkpt lat="30.86442947" lon="34.81679153"><ele>515.7</ele><time>2013-11-20T11:16:24.0000000+00:00</time></trkpt><trkpt lat="30.86442375" lon="34.81679535"><ele>515.9</ele><time>2013-11-20T11:16:29.0000000+00:00</time></trkpt><trkpt lat="30.86444283" lon="34.81684113"><ele>516.8</ele><time>2013-11-20T11:16:34.0000000+00:00</time></trkpt><trkpt lat="30.86446571" lon="34.81688309"><ele>516.9</ele><time>2013-11-20T11:16:39.0000000+00:00</time></trkpt><trkpt lat="30.86447525" lon="34.81692505"><ele>517.1</ele><time>2013-11-20T11:16:44.0000000+00:00</time></trkpt><trkpt lat="30.86447907" lon="34.81697464"><ele>517.7</ele><time>2013-11-20T11:16:49.0000000+00:00</time></trkpt><trkpt lat="30.86448669" lon="34.81700134"><ele>517.7</ele><time>2013-11-20T11:16:54.0000000+00:00</time></trkpt><trkpt lat="30.86449242" lon="34.81705475"><ele>518.3</ele><time>2013-11-20T11:16:59.0000000+00:00</time></trkpt><trkpt lat="30.86449814" lon="34.81710815"><ele>518.8</ele><time>2013-11-20T11:17:04.0000000+00:00</time></trkpt><trkpt lat="30.86448669" lon="34.81713104"><ele>518.8</ele><time>2013-11-20T11:17:09.0000000+00:00</time></trkpt><trkpt lat="30.86447907" lon="34.81720352"><ele>519.7</ele><time>2013-11-20T11:17:14.0000000+00:00</time></trkpt><trkpt lat="30.86447525" lon="34.81731033"><ele>519.7</ele><time>2013-11-20T11:17:19.0000000+00:00</time></trkpt><trkpt lat="30.86446762" lon="34.81739807"><ele>522.1</ele><time>2013-11-20T11:17:24.0000000+00:00</time></trkpt><trkpt lat="30.86447144" lon="34.81748962"><ele>522.8</ele><time>2013-11-20T11:17:29.0000000+00:00</time></trkpt><trkpt lat="30.86449432" lon="34.81757736"><ele>522.9</ele><time>2013-11-20T11:17:34.0000000+00:00</time></trkpt><trkpt lat="30.86451721" lon="34.81767654"><ele>523.5</ele><time>2013-11-20T11:17:39.0000000+00:00</time></trkpt><trkpt lat="30.86450958" lon="34.81777573"><ele>524.2</ele><time>2013-11-20T11:17:44.0000000+00:00</time></trkpt><trkpt lat="30.86451721" lon="34.81787872"><ele>525.4</ele><time>2013-11-20T11:17:49.0000000+00:00</time></trkpt><trkpt lat="30.86452866" lon="34.81798935"><ele>525.7</ele><time>2013-11-20T11:17:54.0000000+00:00</time></trkpt><trkpt lat="30.86454773" lon="34.81808853"><ele>527.1</ele><time>2013-11-20T11:17:59.0000000+00:00</time></trkpt><trkpt lat="30.86454201" lon="34.81820679"><ele>529.4</ele><time>2013-11-20T11:18:04.0000000+00:00</time></trkpt><trkpt lat="30.86453819" lon="34.81830597"><ele>529.9</ele><time>2013-11-20T11:18:09.0000000+00:00</time></trkpt><trkpt lat="30.86455154" lon="34.81839371"><ele>530.4</ele><time>2013-11-20T11:18:14.0000000+00:00</time></trkpt><trkpt lat="30.86455154" lon="34.81850052"><ele>530.3</ele><time>2013-11-20T11:18:19.0000000+00:00</time></trkpt><trkpt lat="30.8645668" lon="34.81861115"><ele>531.0</ele><time>2013-11-20T11:18:24.0000000+00:00</time></trkpt><trkpt lat="30.86457825" lon="34.81872177"><ele>532.0</ele><time>2013-11-20T11:18:29.0000000+00:00</time></trkpt><trkpt lat="30.86459923" lon="34.81881714"><ele>533.0</ele><time>2013-11-20T11:18:34.0000000+00:00</time></trkpt><trkpt lat="30.86460114" lon="34.81893158"><ele>533.1</ele><time>2013-11-20T11:18:39.0000000+00:00</time></trkpt><trkpt lat="30.8646183" lon="34.81904602"><ele>531.9</ele><time>2013-11-20T11:18:44.0000000+00:00</time></trkpt><trkpt lat="30.86463547" lon="34.81917191"><ele>530.9</ele><time>2013-11-20T11:18:49.0000000+00:00</time></trkpt><trkpt lat="30.86462021" lon="34.81929398"><ele>532.0</ele><time>2013-11-20T11:18:54.0000000+00:00</time></trkpt><trkpt lat="30.86454582" lon="34.81941223"><ele>533.1</ele><time>2013-11-20T11:18:59.0000000+00:00</time></trkpt><trkpt lat="30.86446953" lon="34.81953812"><ele>535.1</ele><time>2013-11-20T11:19:04.0000000+00:00</time></trkpt><trkpt lat="30.86440849" lon="34.819664"><ele>535.7</ele><time>2013-11-20T11:19:09.0000000+00:00</time></trkpt><trkpt lat="30.86434937" lon="34.8197937"><ele>535.1</ele><time>2013-11-20T11:19:14.0000000+00:00</time></trkpt><trkpt lat="30.86427116" lon="34.81992722"><ele>535.3</ele><time>2013-11-20T11:19:19.0000000+00:00</time></trkpt><trkpt lat="30.86421204" lon="34.82004166"><ele>534.6</ele><time>2013-11-20T11:19:24.0000000+00:00</time></trkpt><trkpt lat="30.86414528" lon="34.82014847"><ele>536.2</ele><time>2013-11-20T11:19:29.0000000+00:00</time></trkpt><trkpt lat="30.86406899" lon="34.82025909"><ele>536.9</ele><time>2013-11-20T11:19:34.0000000+00:00</time></trkpt><trkpt lat="30.86399078" lon="34.82036972"><ele>538.5</ele><time>2013-11-20T11:19:39.0000000+00:00</time></trkpt><trkpt lat="30.86390877" lon="34.82046509"><ele>540.5</ele><time>2013-11-20T11:19:44.0000000+00:00</time></trkpt><trkpt lat="30.86383629" lon="34.82055664"><ele>541.0</ele><time>2013-11-20T11:19:49.0000000+00:00</time></trkpt><trkpt lat="30.8637867" lon="34.82066345"><ele>539.0</ele><time>2013-11-20T11:19:54.0000000+00:00</time></trkpt><trkpt lat="30.86374474" lon="34.82075119"><ele>538.4</ele><time>2013-11-20T11:19:59.0000000+00:00</time></trkpt><trkpt lat="30.86372376" lon="34.82076645"><ele>538.3</ele><time>2013-11-20T11:20:04.0000000+00:00</time></trkpt><trkpt lat="30.8637104" lon="34.82075501"><ele>538.1</ele><time>2013-11-20T11:20:09.0000000+00:00</time></trkpt><trkpt lat="30.86371803" lon="34.82076645"><ele>538.9</ele><time>2013-11-20T11:20:14.0000000+00:00</time></trkpt><trkpt lat="30.86370277" lon="34.82079697"><ele>540.8</ele><time>2013-11-20T11:20:19.0000000+00:00</time></trkpt><trkpt lat="30.86370468" lon="34.82079697"><ele>540.8</ele><time>2013-11-20T11:20:24.0000000+00:00</time></trkpt><trkpt lat="30.86370468" lon="34.82079697"><ele>540.8</ele><time>2013-11-20T11:20:29.0000000+00:00</time></trkpt><trkpt lat="30.86370468" lon="34.82079697"><ele>540.8</ele><time>2013-11-20T11:20:34.0000000+00:00</time></trkpt><trkpt lat="30.86370468" lon="34.82079697"><ele>540.8</ele><time>2013-11-20T11:20:39.0000000+00:00</time></trkpt><trkpt lat="30.86370468" lon="34.82079697"><ele>540.8</ele><time>2013-11-20T11:20:44.0000000+00:00</time></trkpt><trkpt lat="30.86370468" lon="34.82079697"><ele>540.8</ele><time>2013-11-20T11:20:49.0000000+00:00</time></trkpt><trkpt lat="30.86370468" lon="34.82079697"><ele>540.8</ele><time>2013-11-20T11:20:54.0000000+00:00</time></trkpt><trkpt lat="30.86370468" lon="34.82079697"><ele>540.8</ele><time>2013-11-20T11:20:59.0000000+00:00</time></trkpt><trkpt lat="30.86370468" lon="34.82079697"><ele>540.8</ele><time>2013-11-20T11:21:04.0000000+00:00</time></trkpt><trkpt lat="30.86370468" lon="34.82079697"><ele>540.8</ele><time>2013-11-20T11:21:09.0000000+00:00</time></trkpt><trkpt lat="30.86370468" lon="34.82079697"><ele>540.8</ele><time>2013-11-20T11:21:14.0000000+00:00</time></trkpt><trkpt lat="30.86370468" lon="34.82079315"><ele>540.8</ele><time>2013-11-20T11:21:19.0000000+00:00</time></trkpt><trkpt lat="30.86370277" lon="34.82079315"><ele>540.9</ele><time>2013-11-20T11:21:24.0000000+00:00</time></trkpt><trkpt lat="30.86370277" lon="34.82079315"><ele>540.9</ele><time>2013-11-20T11:21:29.0000000+00:00</time></trkpt><trkpt lat="30.86370277" lon="34.82079315"><ele>540.9</ele><time>2013-11-20T11:21:34.0000000+00:00</time></trkpt><trkpt lat="30.86370277" lon="34.82079315"><ele>540.9</ele><time>2013-11-20T11:21:39.0000000+00:00</time></trkpt><trkpt lat="30.86370277" lon="34.82079315"><ele>540.9</ele><time>2013-11-20T11:21:44.0000000+00:00</time></trkpt><trkpt lat="30.86370277" lon="34.82079315"><ele>540.9</ele><time>2013-11-20T11:21:49.0000000+00:00</time></trkpt><trkpt lat="30.86370468" lon="34.82079315"><ele>540.9</ele><time>2013-11-20T11:21:54.0000000+00:00</time></trkpt><trkpt lat="30.86370277" lon="34.82079315"><ele>540.9</ele><time>2013-11-20T11:21:59.0000000+00:00</time></trkpt><trkpt lat="30.86370277" lon="34.82079315"><ele>540.9</ele><time>2013-11-20T11:22:04.0000000+00:00</time></trkpt><trkpt lat="30.86370277" lon="34.82079315"><ele>540.9</ele><time>2013-11-20T11:22:09.0000000+00:00</time></trkpt><trkpt lat="30.86370277" lon="34.82079315"><ele>540.9</ele><time>2013-11-20T11:22:14.0000000+00:00</time></trkpt><trkpt lat="30.86370277" lon="34.82079315"><ele>540.9</ele><time>2013-11-20T11:22:19.0000000+00:00</time></trkpt><trkpt lat="30.86370277" lon="34.82079315"><ele>540.9</ele><time>2013-11-20T11:22:24.0000000+00:00</time></trkpt><trkpt lat="30.86370277" lon="34.82079315"><ele>540.9</ele><time>2013-11-20T11:22:29.0000000+00:00</time></trkpt><trkpt lat="30.86370277" lon="34.82079315"><ele>540.9</ele><time>2013-11-20T11:22:34.0000000+00:00</time></trkpt><trkpt lat="30.86370277" lon="34.82079315"><ele>540.9</ele><time>2013-11-20T11:22:39.0000000+00:00</time></trkpt><trkpt lat="30.86370277" lon="34.82079315"><ele>540.9</ele><time>2013-11-20T11:22:44.0000000+00:00</time></trkpt><trkpt lat="30.86370277" lon="34.82079315"><ele>540.9</ele><time>2013-11-20T11:22:49.0000000+00:00</time></trkpt><trkpt lat="30.86370277" lon="34.82079315"><ele>540.9</ele><time>2013-11-20T11:22:54.0000000+00:00</time></trkpt><trkpt lat="30.86370277" lon="34.82079315"><ele>540.9</ele><time>2013-11-20T11:22:59.0000000+00:00</time></trkpt><trkpt lat="30.86370277" lon="34.82079315"><ele>540.9</ele><time>2013-11-20T11:23:04.0000000+00:00</time></trkpt><trkpt lat="30.86370468" lon="34.82079315"><ele>541.0</ele><time>2013-11-20T11:23:09.0000000+00:00</time></trkpt><trkpt lat="30.86370468" lon="34.82079697"><ele>541.0</ele><time>2013-11-20T11:23:14.0000000+00:00</time></trkpt><trkpt lat="30.86370468" lon="34.82079697"><ele>541.0</ele><time>2013-11-20T11:23:19.0000000+00:00</time></trkpt><trkpt lat="30.86370468" lon="34.82079697"><ele>541.0</ele><time>2013-11-20T11:23:24.0000000+00:00</time></trkpt><trkpt lat="30.86370659" lon="34.82079697"><ele>541.0</ele><time>2013-11-20T11:23:29.0000000+00:00</time></trkpt><trkpt lat="30.86370659" lon="34.82079697"><ele>541.0</ele><time>2013-11-20T11:23:34.0000000+00:00</time></trkpt><trkpt lat="30.8637085" lon="34.82079697"><ele>541.0</ele><time>2013-11-20T11:23:39.0000000+00:00</time></trkpt><trkpt lat="30.8637085" lon="34.82079697"><ele>541.0</ele><time>2013-11-20T11:23:44.0000000+00:00</time></trkpt><trkpt lat="30.86370659" lon="34.82079697"><ele>541.1</ele><time>2013-11-20T11:23:49.0000000+00:00</time></trkpt><trkpt lat="30.8637085" lon="34.82079697"><ele>541.1</ele><time>2013-11-20T11:23:54.0000000+00:00</time></trkpt><trkpt lat="30.86377907" lon="34.820858"><ele>538.6</ele><time>2013-11-20T11:23:59.0000000+00:00</time></trkpt><trkpt lat="30.86390495" lon="34.82105637"><ele>536.1</ele><time>2013-11-20T11:24:04.0000000+00:00</time></trkpt><trkpt lat="30.86399841" lon="34.82128143"><ele>535.9</ele><time>2013-11-20T11:24:09.0000000+00:00</time></trkpt><trkpt lat="30.86408997" lon="34.8213234"><ele>533.0</ele><time>2013-11-20T11:24:14.0000000+00:00</time></trkpt><trkpt lat="30.86419296" lon="34.82128525"><ele>532.7</ele><time>2013-11-20T11:24:19.0000000+00:00</time></trkpt><trkpt lat="30.86435318" lon="34.8212471"><ele>532.7</ele><time>2013-11-20T11:24:24.0000000+00:00</time></trkpt><trkpt lat="30.86449432" lon="34.8212204"><ele>532.1</ele><time>2013-11-20T11:24:29.0000000+00:00</time></trkpt><trkpt lat="30.86464119" lon="34.82121277"><ele>530.0</ele><time>2013-11-20T11:24:34.0000000+00:00</time></trkpt><trkpt lat="30.86483765" lon="34.82125092"><ele>529.4</ele><time>2013-11-20T11:24:39.0000000+00:00</time></trkpt><trkpt lat="30.86500549" lon="34.82129288"><ele>528.2</ele><time>2013-11-20T11:24:44.0000000+00:00</time></trkpt><trkpt lat="30.86518288" lon="34.82133102"><ele>527.5</ele><time>2013-11-20T11:24:49.0000000+00:00</time></trkpt><trkpt lat="30.8652935" lon="34.82134247"><ele>526.5</ele><time>2013-11-20T11:24:54.0000000+00:00</time></trkpt><trkpt lat="30.86545181" lon="34.82133865"><ele>520.3</ele><time>2013-11-20T11:24:59.0000000+00:00</time></trkpt><trkpt lat="30.86561585" lon="34.82134628"><ele>516.3</ele><time>2013-11-20T11:25:04.0000000+00:00</time></trkpt><trkpt lat="30.86574936" lon="34.82133102"><ele>514.6</ele><time>2013-11-20T11:25:09.0000000+00:00</time></trkpt><trkpt lat="30.86594963" lon="34.82133484"><ele>513.1</ele><time>2013-11-20T11:25:14.0000000+00:00</time></trkpt><trkpt lat="30.86617851" lon="34.82137299"><ele>510.9</ele><time>2013-11-20T11:25:19.0000000+00:00</time></trkpt><trkpt lat="30.86641121" lon="34.82148743"><ele>508.5</ele><time>2013-11-20T11:25:24.0000000+00:00</time></trkpt><trkpt lat="30.86657524" lon="34.82164764"><ele>508.9</ele><time>2013-11-20T11:25:29.0000000+00:00</time></trkpt><trkpt lat="30.86666489" lon="34.82189941"><ele>509.7</ele><time>2013-11-20T11:25:34.0000000+00:00</time></trkpt><trkpt lat="30.86662674" lon="34.82217789"><ele>507.3</ele><time>2013-11-20T11:25:39.0000000+00:00</time></trkpt><trkpt lat="30.86656952" lon="34.82240677"><ele>507.4</ele><time>2013-11-20T11:25:44.0000000+00:00</time></trkpt><trkpt lat="30.86652756" lon="34.82263184"><ele>508.5</ele><time>2013-11-20T11:25:49.0000000+00:00</time></trkpt><trkpt lat="30.86650085" lon="34.82283783"><ele>508.9</ele><time>2013-11-20T11:25:54.0000000+00:00</time></trkpt><trkpt lat="30.86644554" lon="34.82302094"><ele>510.7</ele><time>2013-11-20T11:25:59.0000000+00:00</time></trkpt><trkpt lat="30.86639404" lon="34.82317352"><ele>512.6</ele><time>2013-11-20T11:26:04.0000000+00:00</time></trkpt><trkpt lat="30.86632729" lon="34.82336426"><ele>512.5</ele><time>2013-11-20T11:26:09.0000000+00:00</time></trkpt><trkpt lat="30.86628151" lon="34.82357407"><ele>511.8</ele><time>2013-11-20T11:26:14.0000000+00:00</time></trkpt><trkpt lat="30.86623764" lon="34.82374573"><ele>509.9</ele><time>2013-11-20T11:26:19.0000000+00:00</time></trkpt><trkpt lat="30.86625671" lon="34.82394791"><ele>510.2</ele><time>2013-11-20T11:26:24.0000000+00:00</time></trkpt><trkpt lat="30.86621475" lon="34.82417297"><ele>512.6</ele><time>2013-11-20T11:26:29.0000000+00:00</time></trkpt><trkpt lat="30.8661747" lon="34.82437515"><ele>512.3</ele><time>2013-11-20T11:26:34.0000000+00:00</time></trkpt><trkpt lat="30.86613083" lon="34.82458115"><ele>511.8</ele><time>2013-11-20T11:26:39.0000000+00:00</time></trkpt><trkpt lat="30.86606216" lon="34.82476044"><ele>512.7</ele><time>2013-11-20T11:26:44.0000000+00:00</time></trkpt><trkpt lat="30.86600876" lon="34.82492447"><ele>513.3</ele><time>2013-11-20T11:26:49.0000000+00:00</time></trkpt><trkpt lat="30.86596108" lon="34.82509613"><ele>512.2</ele><time>2013-11-20T11:26:54.0000000+00:00</time></trkpt><trkpt lat="30.86590576" lon="34.82527924"><ele>512.2</ele><time>2013-11-20T11:26:59.0000000+00:00</time></trkpt><trkpt lat="30.86585236" lon="34.82545471"><ele>512.5</ele><time>2013-11-20T11:27:04.0000000+00:00</time></trkpt><trkpt lat="30.86579132" lon="34.82563782"><ele>513.1</ele><time>2013-11-20T11:27:09.0000000+00:00</time></trkpt><trkpt lat="30.86573029" lon="34.82582092"><ele>514.0</ele><time>2013-11-20T11:27:14.0000000+00:00</time></trkpt><trkpt lat="30.86567116" lon="34.8260231"><ele>514.4</ele><time>2013-11-20T11:27:19.0000000+00:00</time></trkpt><trkpt lat="30.86561394" lon="34.82621384"><ele>515.3</ele><time>2013-11-20T11:27:24.0000000+00:00</time></trkpt><trkpt lat="30.86556816" lon="34.82641602"><ele>517.1</ele><time>2013-11-20T11:27:29.0000000+00:00</time></trkpt><trkpt lat="30.86554909" lon="34.8266182"><ele>519.5</ele><time>2013-11-20T11:27:34.0000000+00:00</time></trkpt><trkpt lat="30.86553383" lon="34.82680512"><ele>521.0</ele><time>2013-11-20T11:27:39.0000000+00:00</time></trkpt><trkpt lat="30.86551666" lon="34.82696915"><ele>522.7</ele><time>2013-11-20T11:27:44.0000000+00:00</time></trkpt><trkpt lat="30.86549187" lon="34.82715607"><ele>522.8</ele><time>2013-11-20T11:27:49.0000000+00:00</time></trkpt><trkpt lat="30.86548615" lon="34.82735825"><ele>521.1</ele><time>2013-11-20T11:27:54.0000000+00:00</time></trkpt><trkpt lat="30.86551476" lon="34.82753754"><ele>521.3</ele><time>2013-11-20T11:27:59.0000000+00:00</time></trkpt><trkpt lat="30.86551666" lon="34.82771301"><ele>521.2</ele><time>2013-11-20T11:28:04.0000000+00:00</time></trkpt><trkpt lat="30.86551094" lon="34.82785797"><ele>521.8</ele><time>2013-11-20T11:28:09.0000000+00:00</time></trkpt><trkpt lat="30.86546135" lon="34.82796097"><ele>522.8</ele><time>2013-11-20T11:28:14.0000000+00:00</time></trkpt><trkpt lat="30.86541367" lon="34.82808685"><ele>522.9</ele><time>2013-11-20T11:28:19.0000000+00:00</time></trkpt><trkpt lat="30.8653698" lon="34.82820892"><ele>523.8</ele><time>2013-11-20T11:28:24.0000000+00:00</time></trkpt><trkpt lat="30.86543274" lon="34.82836533"><ele>525.5</ele><time>2013-11-20T11:28:29.0000000+00:00</time></trkpt><trkpt lat="30.8655014" lon="34.8285141"><ele>525.4</ele><time>2013-11-20T11:28:34.0000000+00:00</time></trkpt><trkpt lat="30.86555862" lon="34.82863998"><ele>524.7</ele><time>2013-11-20T11:28:39.0000000+00:00</time></trkpt><trkpt lat="30.86561775" lon="34.8287735"><ele>525.4</ele><time>2013-11-20T11:28:44.0000000+00:00</time></trkpt><trkpt lat="30.86567688" lon="34.82888031"><ele>526.1</ele><time>2013-11-20T11:28:49.0000000+00:00</time></trkpt><trkpt lat="30.86575127" lon="34.82888794"><ele>526.1</ele><time>2013-11-20T11:28:54.0000000+00:00</time></trkpt><trkpt lat="30.86583138" lon="34.8289299"><ele>525.9</ele><time>2013-11-20T11:28:59.0000000+00:00</time></trkpt><trkpt lat="30.86588478" lon="34.8290062"><ele>527.7</ele><time>2013-11-20T11:29:04.0000000+00:00</time></trkpt><trkpt lat="30.86593819" lon="34.82909393"><ele>528.0</ele><time>2013-11-20T11:29:09.0000000+00:00</time></trkpt><trkpt lat="30.86596108" lon="34.82918549"><ele>527.9</ele><time>2013-11-20T11:29:14.0000000+00:00</time></trkpt><trkpt lat="30.86598587" lon="34.82926941"><ele>528.6</ele><time>2013-11-20T11:29:19.0000000+00:00</time></trkpt><trkpt lat="30.86600876" lon="34.82934952"><ele>528.4</ele><time>2013-11-20T11:29:24.0000000+00:00</time></trkpt><trkpt lat="30.86603355" lon="34.82944489"><ele>527.9</ele><time>2013-11-20T11:29:29.0000000+00:00</time></trkpt><trkpt lat="30.86605644" lon="34.82952881"><ele>528.3</ele><time>2013-11-20T11:29:34.0000000+00:00</time></trkpt><trkpt lat="30.86609268" lon="34.82960129"><ele>528.7</ele><time>2013-11-20T11:29:39.0000000+00:00</time></trkpt><trkpt lat="30.86613274" lon="34.82966232"><ele>529.2</ele><time>2013-11-20T11:29:44.0000000+00:00</time></trkpt><trkpt lat="30.8661747" lon="34.8297348"><ele>529.7</ele><time>2013-11-20T11:29:49.0000000+00:00</time></trkpt><trkpt lat="30.86623573" lon="34.82979584"><ele>530.7</ele><time>2013-11-20T11:29:54.0000000+00:00</time></trkpt><trkpt lat="30.86628342" lon="34.82987976"><ele>531.5</ele><time>2013-11-20T11:29:59.0000000+00:00</time></trkpt><trkpt lat="30.8663311" lon="34.82999039"><ele>532.2</ele><time>2013-11-20T11:30:04.0000000+00:00</time></trkpt><trkpt lat="30.86642456" lon="34.83008575"><ele>531.7</ele><time>2013-11-20T11:30:09.0000000+00:00</time></trkpt><trkpt lat="30.86649323" lon="34.83016586"><ele>530.4</ele><time>2013-11-20T11:30:14.0000000+00:00</time></trkpt><trkpt lat="30.86655235" lon="34.83027268"><ele>531.3</ele><time>2013-11-20T11:30:19.0000000+00:00</time></trkpt><trkpt lat="30.86662102" lon="34.83036423"><ele>532.3</ele><time>2013-11-20T11:30:24.0000000+00:00</time></trkpt><trkpt lat="30.86672401" lon="34.83043671"><ele>533.0</ele><time>2013-11-20T11:30:29.0000000+00:00</time></trkpt><trkpt lat="30.8668232" lon="34.83051682"><ele>532.6</ele><time>2013-11-20T11:30:34.0000000+00:00</time></trkpt><trkpt lat="30.86691475" lon="34.83059692"><ele>533.0</ele><time>2013-11-20T11:30:39.0000000+00:00</time></trkpt><trkpt lat="30.86696816" lon="34.83066559"><ele>532.8</ele><time>2013-11-20T11:30:44.0000000+00:00</time></trkpt><trkpt lat="30.86704254" lon="34.83073425"><ele>533.6</ele><time>2013-11-20T11:30:49.0000000+00:00</time></trkpt><trkpt lat="30.86709976" lon="34.8307991"><ele>534.2</ele><time>2013-11-20T11:30:54.0000000+00:00</time></trkpt><trkpt lat="30.86721993" lon="34.83085251"><ele>534.7</ele><time>2013-11-20T11:30:59.0000000+00:00</time></trkpt><trkpt lat="30.86748314" lon="34.83086395"><ele>533.1</ele><time>2013-11-20T11:31:04.0000000+00:00</time></trkpt><trkpt lat="30.86775208" lon="34.83089447"><ele>528.7</ele><time>2013-11-20T11:31:09.0000000+00:00</time></trkpt><trkpt lat="30.86799812" lon="34.83097458"><ele>527.9</ele><time>2013-11-20T11:31:14.0000000+00:00</time></trkpt><trkpt lat="30.86824799" lon="34.8309021"><ele>525.5</ele><time>2013-11-20T11:31:19.0000000+00:00</time></trkpt><trkpt lat="30.86847687" lon="34.8308754"><ele>525.7</ele><time>2013-11-20T11:31:24.0000000+00:00</time></trkpt><trkpt lat="30.86865807" lon="34.83089066"><ele>527.6</ele><time>2013-11-20T11:31:29.0000000+00:00</time></trkpt><trkpt lat="30.8688488" lon="34.83086777"><ele>530.0</ele><time>2013-11-20T11:31:34.0000000+00:00</time></trkpt><trkpt lat="30.86905479" lon="34.83080292"><ele>531.3</ele><time>2013-11-20T11:31:39.0000000+00:00</time></trkpt><trkpt lat="30.86923599" lon="34.83078003"><ele>532.6</ele><time>2013-11-20T11:31:44.0000000+00:00</time></trkpt><trkpt lat="30.86943245" lon="34.83078003"><ele>529.8</ele><time>2013-11-20T11:31:49.0000000+00:00</time></trkpt><trkpt lat="30.86960793" lon="34.83080673"><ele>528.3</ele><time>2013-11-20T11:31:54.0000000+00:00</time></trkpt><trkpt lat="30.86978531" lon="34.83085632"><ele>529.0</ele><time>2013-11-20T11:31:59.0000000+00:00</time></trkpt><trkpt lat="30.86995125" lon="34.83091736"><ele>528.6</ele><time>2013-11-20T11:32:04.0000000+00:00</time></trkpt><trkpt lat="30.870121" lon="34.8308754"><ele>528.8</ele><time>2013-11-20T11:32:09.0000000+00:00</time></trkpt><trkpt lat="30.87033081" lon="34.83090591"><ele>526.5</ele><time>2013-11-20T11:32:14.0000000+00:00</time></trkpt><trkpt lat="30.87057877" lon="34.83099365"><ele>527.3</ele><time>2013-11-20T11:32:19.0000000+00:00</time></trkpt><trkpt lat="30.8707161" lon="34.83106995"><ele>527.5</ele><time>2013-11-20T11:32:24.0000000+00:00</time></trkpt><trkpt lat="30.87082481" lon="34.83117294"><ele>528.9</ele><time>2013-11-20T11:32:29.0000000+00:00</time></trkpt><trkpt lat="30.87094498" lon="34.83123398"><ele>528.6</ele><time>2013-11-20T11:32:34.0000000+00:00</time></trkpt><trkpt lat="30.87107086" lon="34.83123779"><ele>528.2</ele><time>2013-11-20T11:32:39.0000000+00:00</time></trkpt><trkpt lat="30.87120819" lon="34.83124924"><ele>528.6</ele><time>2013-11-20T11:32:44.0000000+00:00</time></trkpt><trkpt lat="30.87130547" lon="34.83124161"><ele>530.5</ele><time>2013-11-20T11:32:49.0000000+00:00</time></trkpt><trkpt lat="30.87140656" lon="34.83125305"><ele>531.2</ele><time>2013-11-20T11:32:54.0000000+00:00</time></trkpt><trkpt lat="30.87153244" lon="34.83129501"><ele>533.0</ele><time>2013-11-20T11:32:59.0000000+00:00</time></trkpt><trkpt lat="30.87165642" lon="34.83134079"><ele>533.4</ele><time>2013-11-20T11:33:04.0000000+00:00</time></trkpt><trkpt lat="30.87179375" lon="34.83145142"><ele>534.7</ele><time>2013-11-20T11:33:09.0000000+00:00</time></trkpt><trkpt lat="30.87195206" lon="34.83140945"><ele>533.3</ele><time>2013-11-20T11:33:14.0000000+00:00</time></trkpt><trkpt lat="30.87209511" lon="34.83140564"><ele>533.0</ele><time>2013-11-20T11:33:19.0000000+00:00</time></trkpt><trkpt lat="30.87221527" lon="34.83143234"><ele>533.2</ele><time>2013-11-20T11:33:24.0000000+00:00</time></trkpt><trkpt lat="30.87234497" lon="34.83147812"><ele>533.3</ele><time>2013-11-20T11:33:29.0000000+00:00</time></trkpt><trkpt lat="30.87244415" lon="34.83145142"><ele>535.0</ele><time>2013-11-20T11:33:34.0000000+00:00</time></trkpt><trkpt lat="30.87253189" lon="34.83142853"><ele>537.2</ele><time>2013-11-20T11:33:39.0000000+00:00</time></trkpt><trkpt lat="30.87258911" lon="34.83140564"><ele>536.7</ele><time>2013-11-20T11:33:44.0000000+00:00</time></trkpt><trkpt lat="30.87270737" lon="34.83141708"><ele>535.4</ele><time>2013-11-20T11:33:49.0000000+00:00</time></trkpt><trkpt lat="30.87285805" lon="34.8314743"><ele>535.0</ele><time>2013-11-20T11:33:54.0000000+00:00</time></trkpt><trkpt lat="30.87299728" lon="34.83153915"><ele>534.1</ele><time>2013-11-20T11:33:59.0000000+00:00</time></trkpt><trkpt lat="30.87312889" lon="34.83157349"><ele>535.1</ele><time>2013-11-20T11:34:04.0000000+00:00</time></trkpt><trkpt lat="30.87328529" lon="34.83164215"><ele>535.5</ele><time>2013-11-20T11:34:09.0000000+00:00</time></trkpt><trkpt lat="30.87338829" lon="34.83172226"><ele>534.7</ele><time>2013-11-20T11:34:14.0000000+00:00</time></trkpt><trkpt lat="30.87347794" lon="34.83181763"><ele>532.5</ele><time>2013-11-20T11:34:19.0000000+00:00</time></trkpt><trkpt lat="30.87352753" lon="34.83180237"><ele>533.1</ele><time>2013-11-20T11:34:24.0000000+00:00</time></trkpt><trkpt lat="30.87354851" lon="34.83180237"><ele>533.2</ele><time>2013-11-20T11:34:29.0000000+00:00</time></trkpt><trkpt lat="30.87355995" lon="34.83180237"><ele>533.3</ele><time>2013-11-20T11:34:34.0000000+00:00</time></trkpt><trkpt lat="30.87360001" lon="34.83181"><ele>532.8</ele><time>2013-11-20T11:34:39.0000000+00:00</time></trkpt><trkpt lat="30.87363243" lon="34.83180237"><ele>532.9</ele><time>2013-11-20T11:34:44.0000000+00:00</time></trkpt><trkpt lat="30.87370682" lon="34.83183289"><ele>533.2</ele><time>2013-11-20T11:34:49.0000000+00:00</time></trkpt><trkpt lat="30.87382317" lon="34.83185577"><ele>533.9</ele><time>2013-11-20T11:34:54.0000000+00:00</time></trkpt><trkpt lat="30.87394333" lon="34.83190918"><ele>534.5</ele><time>2013-11-20T11:34:59.0000000+00:00</time></trkpt><trkpt lat="30.87406731" lon="34.83192062"><ele>535.2</ele><time>2013-11-20T11:35:04.0000000+00:00</time></trkpt><trkpt lat="30.87423325" lon="34.83191299"><ele>536.4</ele><time>2013-11-20T11:35:09.0000000+00:00</time></trkpt><trkpt lat="30.87436867" lon="34.83195114"><ele>538.5</ele><time>2013-11-20T11:35:14.0000000+00:00</time></trkpt><trkpt lat="30.87449455" lon="34.83193207"><ele>539.9</ele><time>2013-11-20T11:35:19.0000000+00:00</time></trkpt><trkpt lat="30.8746376" lon="34.83192444"><ele>539.5</ele><time>2013-11-20T11:35:24.0000000+00:00</time></trkpt><trkpt lat="30.87477303" lon="34.83193207"><ele>540.7</ele><time>2013-11-20T11:35:29.0000000+00:00</time></trkpt><trkpt lat="30.87489319" lon="34.83201981"><ele>538.9</ele><time>2013-11-20T11:35:34.0000000+00:00</time></trkpt><trkpt lat="30.8750267" lon="34.83211136"><ele>538.2</ele><time>2013-11-20T11:35:39.0000000+00:00</time></trkpt><trkpt lat="30.87512207" lon="34.8321991"><ele>537.2</ele><time>2013-11-20T11:35:44.0000000+00:00</time></trkpt><trkpt lat="30.87514114" lon="34.83224869"><ele>538.0</ele><time>2013-11-20T11:35:49.0000000+00:00</time></trkpt><trkpt lat="30.87516594" lon="34.83224869"><ele>539.4</ele><time>2013-11-20T11:35:54.0000000+00:00</time></trkpt><trkpt lat="30.87521935" lon="34.83223343"><ele>541.3</ele><time>2013-11-20T11:35:59.0000000+00:00</time></trkpt><trkpt lat="30.87534142" lon="34.83223343"><ele>541.3</ele><time>2013-11-20T11:36:04.0000000+00:00</time></trkpt><trkpt lat="30.87544823" lon="34.8322258"><ele>541.8</ele><time>2013-11-20T11:36:09.0000000+00:00</time></trkpt><trkpt lat="30.87556839" lon="34.83211899"><ele>544.9</ele><time>2013-11-20T11:36:14.0000000+00:00</time></trkpt><trkpt lat="30.8757019" lon="34.8320694"><ele>546.1</ele><time>2013-11-20T11:36:19.0000000+00:00</time></trkpt><trkpt lat="30.87581825" lon="34.83210754"><ele>543.5</ele><time>2013-11-20T11:36:24.0000000+00:00</time></trkpt><trkpt lat="30.8759861" lon="34.83220673"><ele>541.6</ele><time>2013-11-20T11:36:29.0000000+00:00</time></trkpt><trkpt lat="30.87623787" lon="34.83221436"><ele>539.4</ele><time>2013-11-20T11:36:34.0000000+00:00</time></trkpt><trkpt lat="30.8763752" lon="34.83213425"><ele>540.6</ele><time>2013-11-20T11:36:39.0000000+00:00</time></trkpt><trkpt lat="30.8765316" lon="34.83216858"><ele>540.9</ele><time>2013-11-20T11:36:44.0000000+00:00</time></trkpt><trkpt lat="30.87670517" lon="34.83224106"><ele>539.0</ele><time>2013-11-20T11:36:49.0000000+00:00</time></trkpt><trkpt lat="30.876894" lon="34.83227158"><ele>538.7</ele><time>2013-11-20T11:36:54.0000000+00:00</time></trkpt><trkpt lat="30.8770504" lon="34.83229446"><ele>539.1</ele><time>2013-11-20T11:36:59.0000000+00:00</time></trkpt><trkpt lat="30.87723541" lon="34.83238602"><ele>534.3</ele><time>2013-11-20T11:37:04.0000000+00:00</time></trkpt><trkpt lat="30.87746239" lon="34.83243561"><ele>533.4</ele><time>2013-11-20T11:37:09.0000000+00:00</time></trkpt><trkpt lat="30.87769127" lon="34.8324585"><ele>531.8</ele><time>2013-11-20T11:37:14.0000000+00:00</time></trkpt><trkpt lat="30.87787247" lon="34.83257675"><ele>530.0</ele><time>2013-11-20T11:37:19.0000000+00:00</time></trkpt><trkpt lat="30.87802887" lon="34.83268356"><ele>531.2</ele><time>2013-11-20T11:37:24.0000000+00:00</time></trkpt><trkpt lat="30.87824249" lon="34.83273697"><ele>529.3</ele><time>2013-11-20T11:37:29.0000000+00:00</time></trkpt><trkpt lat="30.87848282" lon="34.83275986"><ele>528.5</ele><time>2013-11-20T11:37:34.0000000+00:00</time></trkpt><trkpt lat="30.87873268" lon="34.83279038"><ele>525.9</ele><time>2013-11-20T11:37:39.0000000+00:00</time></trkpt><trkpt lat="30.87898636" lon="34.83282089"><ele>524.3</ele><time>2013-11-20T11:37:44.0000000+00:00</time></trkpt><trkpt lat="30.8792305" lon="34.83284378"><ele>525.7</ele><time>2013-11-20T11:37:49.0000000+00:00</time></trkpt><trkpt lat="30.87944412" lon="34.83280563"><ele>525.8</ele><time>2013-11-20T11:37:54.0000000+00:00</time></trkpt><trkpt lat="30.87968636" lon="34.83282089"><ele>524.9</ele><time>2013-11-20T11:37:59.0000000+00:00</time></trkpt><trkpt lat="30.87990379" lon="34.8328743"><ele>523.5</ele><time>2013-11-20T11:38:04.0000000+00:00</time></trkpt><trkpt lat="30.88012123" lon="34.83285141"><ele>523.8</ele><time>2013-11-20T11:38:09.0000000+00:00</time></trkpt><trkpt lat="30.88028336" lon="34.83281708"><ele>521.5</ele><time>2013-11-20T11:38:14.0000000+00:00</time></trkpt><trkpt lat="30.88040543" lon="34.83267975"><ele>522.0</ele><time>2013-11-20T11:38:19.0000000+00:00</time></trkpt><trkpt lat="30.88053131" lon="34.83255386"><ele>521.7</ele><time>2013-11-20T11:38:24.0000000+00:00</time></trkpt><trkpt lat="30.88069916" lon="34.83249283"><ele>524.0</ele><time>2013-11-20T11:38:29.0000000+00:00</time></trkpt><trkpt lat="30.8808918" lon="34.83242798"><ele>523.7</ele><time>2013-11-20T11:38:34.0000000+00:00</time></trkpt><trkpt lat="30.88100815" lon="34.83222961"><ele>523.5</ele><time>2013-11-20T11:38:39.0000000+00:00</time></trkpt><trkpt lat="30.88111877" lon="34.83208084"><ele>524.2</ele><time>2013-11-20T11:38:44.0000000+00:00</time></trkpt><trkpt lat="30.88120842" lon="34.83189011"><ele>523.0</ele><time>2013-11-20T11:38:49.0000000+00:00</time></trkpt><trkpt lat="30.88131523" lon="34.83170319"><ele>522.5</ele><time>2013-11-20T11:38:54.0000000+00:00</time></trkpt><trkpt lat="30.88145065" lon="34.8315506"><ele>521.5</ele><time>2013-11-20T11:38:59.0000000+00:00</time></trkpt><trkpt lat="30.88156319" lon="34.83139038"><ele>522.4</ele><time>2013-11-20T11:39:04.0000000+00:00</time></trkpt><trkpt lat="30.88166618" lon="34.83121872"><ele>522.7</ele><time>2013-11-20T11:39:09.0000000+00:00</time></trkpt><trkpt lat="30.88184929" lon="34.83111572"><ele>520.8</ele><time>2013-11-20T11:39:14.0000000+00:00</time></trkpt><trkpt lat="30.88201332" lon="34.83099747"><ele>519.5</ele><time>2013-11-20T11:39:19.0000000+00:00</time></trkpt><trkpt lat="30.88221359" lon="34.83091736"><ele>519.0</ele><time>2013-11-20T11:39:24.0000000+00:00</time></trkpt><trkpt lat="30.88240624" lon="34.83073807"><ele>517.7</ele><time>2013-11-20T11:39:29.0000000+00:00</time></trkpt><trkpt lat="30.8826294" lon="34.83063889"><ele>515.9</ele><time>2013-11-20T11:39:34.0000000+00:00</time></trkpt><trkpt lat="30.88282967" lon="34.83058929"><ele>514.7</ele><time>2013-11-20T11:39:39.0000000+00:00</time></trkpt><trkpt lat="30.88297653" lon="34.83047485"><ele>515.3</ele><time>2013-11-20T11:39:44.0000000+00:00</time></trkpt><trkpt lat="30.88311768" lon="34.83030319"><ele>515.3</ele><time>2013-11-20T11:39:49.0000000+00:00</time></trkpt><trkpt lat="30.88325119" lon="34.83013535"><ele>514.2</ele><time>2013-11-20T11:39:54.0000000+00:00</time></trkpt><trkpt lat="30.88338471" lon="34.82995987"><ele>513.8</ele><time>2013-11-20T11:39:59.0000000+00:00</time></trkpt><trkpt lat="30.88350678" lon="34.82975769"><ele>513.8</ele><time>2013-11-20T11:40:04.0000000+00:00</time></trkpt><trkpt lat="30.88364601" lon="34.82957459"><ele>515.1</ele><time>2013-11-20T11:40:09.0000000+00:00</time></trkpt><trkpt lat="30.88379669" lon="34.82936859"><ele>514.9</ele><time>2013-11-20T11:40:14.0000000+00:00</time></trkpt><trkpt lat="30.88394165" lon="34.82917786"><ele>513.6</ele><time>2013-11-20T11:40:19.0000000+00:00</time></trkpt><trkpt lat="30.88407898" lon="34.82899857"><ele>510.6</ele><time>2013-11-20T11:40:24.0000000+00:00</time></trkpt><trkpt lat="30.88422012" lon="34.82883072"><ele>508.9</ele><time>2013-11-20T11:40:29.0000000+00:00</time></trkpt><trkpt lat="30.88436317" lon="34.82863998"><ele>508.0</ele><time>2013-11-20T11:40:34.0000000+00:00</time></trkpt><trkpt lat="30.88453102" lon="34.82846832"><ele>508.0</ele><time>2013-11-20T11:40:39.0000000+00:00</time></trkpt><trkpt lat="30.88468552" lon="34.82830429"><ele>509.3</ele><time>2013-11-20T11:40:44.0000000+00:00</time></trkpt><trkpt lat="30.88480759" lon="34.82810974"><ele>511.8</ele><time>2013-11-20T11:40:49.0000000+00:00</time></trkpt><trkpt lat="30.88496208" lon="34.82794571"><ele>512.8</ele><time>2013-11-20T11:40:54.0000000+00:00</time></trkpt><trkpt lat="30.88511276" lon="34.82777023"><ele>512.0</ele><time>2013-11-20T11:40:59.0000000+00:00</time></trkpt><trkpt lat="30.88524437" lon="34.8275795"><ele>511.5</ele><time>2013-11-20T11:41:04.0000000+00:00</time></trkpt><trkpt lat="30.88535881" lon="34.82736206"><ele>510.6</ele><time>2013-11-20T11:41:09.0000000+00:00</time></trkpt><trkpt lat="30.88552856" lon="34.82716751"><ele>508.8</ele><time>2013-11-20T11:41:14.0000000+00:00</time></trkpt><trkpt lat="30.88562584" lon="34.82695007"><ele>508.7</ele><time>2013-11-20T11:41:19.0000000+00:00</time></trkpt><trkpt lat="30.88571358" lon="34.82673645"><ele>508.7</ele><time>2013-11-20T11:41:24.0000000+00:00</time></trkpt><trkpt lat="30.88578033" lon="34.82666016"><ele>508.8</ele><time>2013-11-20T11:41:29.0000000+00:00</time></trkpt><trkpt lat="30.8859272" lon="34.82662201"><ele>509.2</ele><time>2013-11-20T11:41:34.0000000+00:00</time></trkpt><trkpt lat="30.88610649" lon="34.82659531"><ele>509.1</ele><time>2013-11-20T11:41:39.0000000+00:00</time></trkpt><trkpt lat="30.88627815" lon="34.82649231"><ele>508.1</ele><time>2013-11-20T11:41:44.0000000+00:00</time></trkpt><trkpt lat="30.8864193" lon="34.82633591"><ele>507.6</ele><time>2013-11-20T11:41:49.0000000+00:00</time></trkpt><trkpt lat="30.88659287" lon="34.82622147"><ele>508.4</ele><time>2013-11-20T11:41:54.0000000+00:00</time></trkpt><trkpt lat="30.88677788" lon="34.82615662"><ele>509.0</ele><time>2013-11-20T11:41:59.0000000+00:00</time></trkpt><trkpt lat="30.88695908" lon="34.82608414"><ele>508.6</ele><time>2013-11-20T11:42:04.0000000+00:00</time></trkpt><trkpt lat="30.88708305" lon="34.82600784"><ele>510.0</ele><time>2013-11-20T11:42:09.0000000+00:00</time></trkpt><trkpt lat="30.88720322" lon="34.82584763"><ele>509.8</ele><time>2013-11-20T11:42:14.0000000+00:00</time></trkpt><trkpt lat="30.88730431" lon="34.82564545"><ele>509.2</ele><time>2013-11-20T11:42:19.0000000+00:00</time></trkpt><trkpt lat="30.88742638" lon="34.82548523"><ele>509.7</ele><time>2013-11-20T11:42:24.0000000+00:00</time></trkpt><trkpt lat="30.88756371" lon="34.8253479"><ele>509.2</ele><time>2013-11-20T11:42:29.0000000+00:00</time></trkpt><trkpt lat="30.88769531" lon="34.82518005"><ele>509.5</ele><time>2013-11-20T11:42:34.0000000+00:00</time></trkpt><trkpt lat="30.88782692" lon="34.82499695"><ele>506.7</ele><time>2013-11-20T11:42:39.0000000+00:00</time></trkpt><trkpt lat="30.88798332" lon="34.82485962"><ele>505.5</ele><time>2013-11-20T11:42:44.0000000+00:00</time></trkpt><trkpt lat="30.88817787" lon="34.82473755"><ele>505.9</ele><time>2013-11-20T11:42:49.0000000+00:00</time></trkpt><trkpt lat="30.88832474" lon="34.82461929"><ele>506.5</ele><time>2013-11-20T11:42:54.0000000+00:00</time></trkpt><trkpt lat="30.8883419" lon="34.8245163"><ele>506.7</ele><time>2013-11-20T11:42:59.0000000+00:00</time></trkpt><trkpt lat="30.88820648" lon="34.82437134"><ele>506.3</ele><time>2013-11-20T11:43:04.0000000+00:00</time></trkpt><trkpt lat="30.88807297" lon="34.82423401"><ele>507.6</ele><time>2013-11-20T11:43:09.0000000+00:00</time></trkpt><trkpt lat="30.88791275" lon="34.82407379"><ele>504.5</ele><time>2013-11-20T11:43:14.0000000+00:00</time></trkpt><trkpt lat="30.88770866" lon="34.82387924"><ele>505.2</ele><time>2013-11-20T11:43:19.0000000+00:00</time></trkpt><trkpt lat="30.88754845" lon="34.82372284"><ele>507.5</ele><time>2013-11-20T11:43:24.0000000+00:00</time></trkpt><trkpt lat="30.88741875" lon="34.82356262"><ele>506.5</ele><time>2013-11-20T11:43:29.0000000+00:00</time></trkpt><trkpt lat="30.88729477" lon="34.82333756"><ele>506.3</ele><time>2013-11-20T11:43:34.0000000+00:00</time></trkpt><trkpt lat="30.88718033" lon="34.82310486"><ele>506.0</ele><time>2013-11-20T11:43:39.0000000+00:00</time></trkpt><trkpt lat="30.88706589" lon="34.82286835"><ele>505.5</ele><time>2013-11-20T11:43:44.0000000+00:00</time></trkpt><trkpt lat="30.88695717" lon="34.8226471"><ele>505.7</ele><time>2013-11-20T11:43:49.0000000+00:00</time></trkpt><trkpt lat="30.88681412" lon="34.8224678"><ele>505.6</ele><time>2013-11-20T11:43:54.0000000+00:00</time></trkpt><trkpt lat="30.88662338" lon="34.82240677"><ele>504.5</ele><time>2013-11-20T11:43:59.0000000+00:00</time></trkpt><trkpt lat="30.88642502" lon="34.82234955"><ele>504.4</ele><time>2013-11-20T11:44:04.0000000+00:00</time></trkpt><trkpt lat="30.88626289" lon="34.82220078"><ele>505.1</ele><time>2013-11-20T11:44:09.0000000+00:00</time></trkpt><trkpt lat="30.88616371" lon="34.82195664"><ele>505.0</ele><time>2013-11-20T11:44:14.0000000+00:00</time></trkpt><trkpt lat="30.88607216" lon="34.82171631"><ele>504.3</ele><time>2013-11-20T11:44:19.0000000+00:00</time></trkpt><trkpt lat="30.88596726" lon="34.82146454"><ele>503.3</ele><time>2013-11-20T11:44:24.0000000+00:00</time></trkpt><trkpt lat="30.88589287" lon="34.82122421"><ele>501.6</ele><time>2013-11-20T11:44:29.0000000+00:00</time></trkpt><trkpt lat="30.88577271" lon="34.82098007"><ele>501.3</ele><time>2013-11-20T11:44:34.0000000+00:00</time></trkpt><trkpt lat="30.88564682" lon="34.8207283"><ele>501.6</ele><time>2013-11-20T11:44:39.0000000+00:00</time></trkpt><trkpt lat="30.88552284" lon="34.82048416"><ele>501.8</ele><time>2013-11-20T11:44:44.0000000+00:00</time></trkpt><trkpt lat="30.88541031" lon="34.82025147"><ele>502.3</ele><time>2013-11-20T11:44:49.0000000+00:00</time></trkpt><trkpt lat="30.88530159" lon="34.82000351"><ele>501.5</ele><time>2013-11-20T11:44:54.0000000+00:00</time></trkpt><trkpt lat="30.88519287" lon="34.81973267"><ele>501.1</ele><time>2013-11-20T11:44:59.0000000+00:00</time></trkpt><trkpt lat="30.88506889" lon="34.81949234"><ele>500.7</ele><time>2013-11-20T11:45:04.0000000+00:00</time></trkpt><trkpt lat="30.88492394" lon="34.81929398"><ele>500.5</ele><time>2013-11-20T11:45:09.0000000+00:00</time></trkpt><trkpt lat="30.88477516" lon="34.81913376"><ele>501.5</ele><time>2013-11-20T11:45:14.0000000+00:00</time></trkpt><trkpt lat="30.88464356" lon="34.81893921"><ele>500.9</ele><time>2013-11-20T11:45:19.0000000+00:00</time></trkpt><trkpt lat="30.88452721" lon="34.81875229"><ele>499.5</ele><time>2013-11-20T11:45:24.0000000+00:00</time></trkpt><trkpt lat="30.88443947" lon="34.81861115"><ele>498.3</ele><time>2013-11-20T11:45:29.0000000+00:00</time></trkpt><trkpt lat="30.88436508" lon="34.81851196"><ele>497.4</ele><time>2013-11-20T11:45:34.0000000+00:00</time></trkpt><trkpt lat="30.88430786" lon="34.81843567"><ele>497.8</ele><time>2013-11-20T11:45:39.0000000+00:00</time></trkpt><trkpt lat="30.8842659" lon="34.818367"><ele>496.7</ele><time>2013-11-20T11:45:44.0000000+00:00</time></trkpt><trkpt lat="30.88421631" lon="34.81830597"><ele>497.4</ele><time>2013-11-20T11:45:49.0000000+00:00</time></trkpt><trkpt lat="30.8841629" lon="34.81823349"><ele>496.9</ele><time>2013-11-20T11:45:54.0000000+00:00</time></trkpt><trkpt lat="30.88409233" lon="34.8181572"><ele>497.1</ele><time>2013-11-20T11:45:59.0000000+00:00</time></trkpt><trkpt lat="30.88403893" lon="34.81808853"><ele>497.2</ele><time>2013-11-20T11:46:04.0000000+00:00</time></trkpt><trkpt lat="30.88398933" lon="34.81800842"><ele>497.7</ele><time>2013-11-20T11:46:09.0000000+00:00</time></trkpt><trkpt lat="30.88393974" lon="34.81793213"><ele>498.7</ele><time>2013-11-20T11:46:14.0000000+00:00</time></trkpt><trkpt lat="30.8838768" lon="34.81783295"><ele>498.8</ele><time>2013-11-20T11:46:19.0000000+00:00</time></trkpt><trkpt lat="30.88378906" lon="34.81771088"><ele>498.2</ele><time>2013-11-20T11:46:24.0000000+00:00</time></trkpt><trkpt lat="30.88369751" lon="34.81756592"><ele>495.6</ele><time>2013-11-20T11:46:29.0000000+00:00</time></trkpt><trkpt lat="30.88360596" lon="34.81741333"><ele>494.8</ele><time>2013-11-20T11:46:34.0000000+00:00</time></trkpt><trkpt lat="30.8835125" lon="34.81724548"><ele>496.8</ele><time>2013-11-20T11:46:39.0000000+00:00</time></trkpt><trkpt lat="30.88341713" lon="34.81707764"><ele>496.5</ele><time>2013-11-20T11:46:44.0000000+00:00</time></trkpt><trkpt lat="30.88330841" lon="34.81691361"><ele>497.9</ele><time>2013-11-20T11:46:49.0000000+00:00</time></trkpt><trkpt lat="30.88319778" lon="34.8167038"><ele>497.5</ele><time>2013-11-20T11:46:54.0000000+00:00</time></trkpt><trkpt lat="30.88307571" lon="34.81650162"><ele>497.3</ele><time>2013-11-20T11:46:59.0000000+00:00</time></trkpt><trkpt lat="30.88295746" lon="34.81629944"><ele>496.2</ele><time>2013-11-20T11:47:04.0000000+00:00</time></trkpt><trkpt lat="30.88283157" lon="34.81609345"><ele>497.1</ele><time>2013-11-20T11:47:09.0000000+00:00</time></trkpt><trkpt lat="30.88271713" lon="34.81587982"><ele>496.6</ele><time>2013-11-20T11:47:14.0000000+00:00</time></trkpt><trkpt lat="30.8826046" lon="34.81566238"><ele>495.0</ele><time>2013-11-20T11:47:19.0000000+00:00</time></trkpt><trkpt lat="30.88250732" lon="34.81544495"><ele>495.4</ele><time>2013-11-20T11:47:24.0000000+00:00</time></trkpt><trkpt lat="30.88240051" lon="34.81520081"><ele>494.5</ele><time>2013-11-20T11:47:29.0000000+00:00</time></trkpt><trkpt lat="30.88229752" lon="34.81495285"><ele>494.9</ele><time>2013-11-20T11:47:34.0000000+00:00</time></trkpt><trkpt lat="30.88221169" lon="34.81469345"><ele>494.9</ele><time>2013-11-20T11:47:39.0000000+00:00</time></trkpt><trkpt lat="30.88214874" lon="34.81443787"><ele>493.9</ele><time>2013-11-20T11:47:44.0000000+00:00</time></trkpt><trkpt lat="30.88208962" lon="34.81418991"><ele>493.3</ele><time>2013-11-20T11:47:49.0000000+00:00</time></trkpt><trkpt lat="30.88202477" lon="34.81393433"><ele>492.8</ele><time>2013-11-20T11:47:54.0000000+00:00</time></trkpt><trkpt lat="30.88196373" lon="34.81368637"><ele>491.3</ele><time>2013-11-20T11:47:59.0000000+00:00</time></trkpt><trkpt lat="30.88189507" lon="34.81345367"><ele>492.4</ele><time>2013-11-20T11:48:04.0000000+00:00</time></trkpt><trkpt lat="30.88184929" lon="34.81323242"><ele>492.9</ele><time>2013-11-20T11:48:09.0000000+00:00</time></trkpt><trkpt lat="30.88177872" lon="34.81297684"><ele>494.1</ele><time>2013-11-20T11:48:14.0000000+00:00</time></trkpt><trkpt lat="30.88170433" lon="34.81272125"><ele>494.0</ele><time>2013-11-20T11:48:19.0000000+00:00</time></trkpt><trkpt lat="30.88164902" lon="34.81246948"><ele>492.4</ele><time>2013-11-20T11:48:24.0000000+00:00</time></trkpt><trkpt lat="30.88160324" lon="34.81221008"><ele>490.9</ele><time>2013-11-20T11:48:29.0000000+00:00</time></trkpt><trkpt lat="30.88154411" lon="34.81197357"><ele>492.1</ele><time>2013-11-20T11:48:34.0000000+00:00</time></trkpt><trkpt lat="30.88151169" lon="34.81171799"><ele>493.5</ele><time>2013-11-20T11:48:39.0000000+00:00</time></trkpt><trkpt lat="30.88150597" lon="34.81146622"><ele>492.4</ele><time>2013-11-20T11:48:44.0000000+00:00</time></trkpt><trkpt lat="30.88148689" lon="34.81122208"><ele>492.3</ele><time>2013-11-20T11:48:49.0000000+00:00</time></trkpt><trkpt lat="30.88148308" lon="34.81096649"><ele>492.3</ele><time>2013-11-20T11:48:54.0000000+00:00</time></trkpt><trkpt lat="30.88147736" lon="34.81072617"><ele>492.3</ele><time>2013-11-20T11:48:59.0000000+00:00</time></trkpt><trkpt lat="30.88147354" lon="34.81047058"><ele>491.0</ele><time>2013-11-20T11:49:04.0000000+00:00</time></trkpt><trkpt lat="30.88148499" lon="34.81023789"><ele>490.1</ele><time>2013-11-20T11:49:09.0000000+00:00</time></trkpt><trkpt lat="30.88150215" lon="34.81000137"><ele>491.5</ele><time>2013-11-20T11:49:14.0000000+00:00</time></trkpt><trkpt lat="30.88161469" lon="34.80978394"><ele>491.9</ele><time>2013-11-20T11:49:19.0000000+00:00</time></trkpt><trkpt lat="30.88172913" lon="34.80958557"><ele>493.8</ele><time>2013-11-20T11:49:24.0000000+00:00</time></trkpt><trkpt lat="30.88173294" lon="34.80933762"><ele>494.3</ele><time>2013-11-20T11:49:29.0000000+00:00</time></trkpt><trkpt lat="30.88169289" lon="34.80909729"><ele>493.4</ele><time>2013-11-20T11:49:34.0000000+00:00</time></trkpt><trkpt lat="30.8816433" lon="34.80886459"><ele>493.2</ele><time>2013-11-20T11:49:39.0000000+00:00</time></trkpt><trkpt lat="30.88158608" lon="34.80858612"><ele>492.4</ele><time>2013-11-20T11:49:44.0000000+00:00</time></trkpt><trkpt lat="30.88155174" lon="34.80832672"><ele>492.6</ele><time>2013-11-20T11:49:49.0000000+00:00</time></trkpt><trkpt lat="30.88150215" lon="34.80804443"><ele>492.1</ele><time>2013-11-20T11:49:54.0000000+00:00</time></trkpt><trkpt lat="30.88144493" lon="34.80775833"><ele>492.5</ele><time>2013-11-20T11:49:59.0000000+00:00</time></trkpt><trkpt lat="30.88138199" lon="34.80746841"><ele>492.2</ele><time>2013-11-20T11:50:04.0000000+00:00</time></trkpt><trkpt lat="30.88133621" lon="34.80718613"><ele>491.6</ele><time>2013-11-20T11:50:09.0000000+00:00</time></trkpt><trkpt lat="30.88127518" lon="34.80690384"><ele>490.5</ele><time>2013-11-20T11:50:14.0000000+00:00</time></trkpt><trkpt lat="30.88120842" lon="34.80662918"><ele>490.8</ele><time>2013-11-20T11:50:19.0000000+00:00</time></trkpt><trkpt lat="30.88115311" lon="34.80636978"><ele>489.8</ele><time>2013-11-20T11:50:24.0000000+00:00</time></trkpt><trkpt lat="30.88108254" lon="34.80609512"><ele>489.0</ele><time>2013-11-20T11:50:29.0000000+00:00</time></trkpt><trkpt lat="30.88100624" lon="34.80581665"><ele>487.3</ele><time>2013-11-20T11:50:34.0000000+00:00</time></trkpt><trkpt lat="30.88090897" lon="34.80553818"><ele>487.1</ele><time>2013-11-20T11:50:39.0000000+00:00</time></trkpt><trkpt lat="30.88082695" lon="34.80528259"><ele>487.1</ele><time>2013-11-20T11:50:44.0000000+00:00</time></trkpt><trkpt lat="30.88072777" lon="34.80504227"><ele>486.1</ele><time>2013-11-20T11:50:49.0000000+00:00</time></trkpt><trkpt lat="30.88062668" lon="34.80480576"><ele>486.0</ele><time>2013-11-20T11:50:54.0000000+00:00</time></trkpt><trkpt lat="30.88053131" lon="34.80456162"><ele>487.2</ele><time>2013-11-20T11:50:59.0000000+00:00</time></trkpt><trkpt lat="30.88042069" lon="34.80426025"><ele>487.6</ele><time>2013-11-20T11:51:04.0000000+00:00</time></trkpt><trkpt lat="30.88033676" lon="34.80400085"><ele>488.8</ele><time>2013-11-20T11:51:09.0000000+00:00</time></trkpt><trkpt lat="30.88026619" lon="34.80374527"><ele>486.8</ele><time>2013-11-20T11:51:14.0000000+00:00</time></trkpt><trkpt lat="30.88019371" lon="34.80348969"><ele>486.3</ele><time>2013-11-20T11:51:19.0000000+00:00</time></trkpt><trkpt lat="30.88012505" lon="34.80322647"><ele>485.3</ele><time>2013-11-20T11:51:24.0000000+00:00</time></trkpt><trkpt lat="30.88005066" lon="34.80297089"><ele>485.7</ele><time>2013-11-20T11:51:29.0000000+00:00</time></trkpt><trkpt lat="30.879982" lon="34.8027153"><ele>485.4</ele><time>2013-11-20T11:51:34.0000000+00:00</time></trkpt><trkpt lat="30.87990379" lon="34.80246353"><ele>484.3</ele><time>2013-11-20T11:51:39.0000000+00:00</time></trkpt><trkpt lat="30.87982559" lon="34.80221176"><ele>485.1</ele><time>2013-11-20T11:51:44.0000000+00:00</time></trkpt><trkpt lat="30.87973785" lon="34.8019371"><ele>483.9</ele><time>2013-11-20T11:51:49.0000000+00:00</time></trkpt><trkpt lat="30.87965584" lon="34.80168915"><ele>484.1</ele><time>2013-11-20T11:51:54.0000000+00:00</time></trkpt><trkpt lat="30.87957192" lon="34.80145645"><ele>484.7</ele><time>2013-11-20T11:51:59.0000000+00:00</time></trkpt><trkpt lat="30.87944222" lon="34.80131531"><ele>485.8</ele><time>2013-11-20T11:52:04.0000000+00:00</time></trkpt><trkpt lat="30.87926674" lon="34.80125427"><ele>486.2</ele><time>2013-11-20T11:52:09.0000000+00:00</time></trkpt><trkpt lat="30.87918472" lon="34.80104065"><ele>486.5</ele><time>2013-11-20T11:52:14.0000000+00:00</time></trkpt><trkpt lat="30.87913704" lon="34.80081558"><ele>486.6</ele><time>2013-11-20T11:52:19.0000000+00:00</time></trkpt><trkpt lat="30.87908554" lon="34.80057526"><ele>485.2</ele><time>2013-11-20T11:52:24.0000000+00:00</time></trkpt><trkpt lat="30.87902451" lon="34.80034256"><ele>483.9</ele><time>2013-11-20T11:52:29.0000000+00:00</time></trkpt><trkpt lat="30.87895966" lon="34.80006027"><ele>482.6</ele><time>2013-11-20T11:52:34.0000000+00:00</time></trkpt><trkpt lat="30.87888336" lon="34.79977036"><ele>481.4</ele><time>2013-11-20T11:52:39.0000000+00:00</time></trkpt><trkpt lat="30.87880707" lon="34.79947662"><ele>481.4</ele><time>2013-11-20T11:52:44.0000000+00:00</time></trkpt><trkpt lat="30.87875748" lon="34.79921722"><ele>481.9</ele><time>2013-11-20T11:52:49.0000000+00:00</time></trkpt><trkpt lat="30.87871361" lon="34.79894638"><ele>481.4</ele><time>2013-11-20T11:52:54.0000000+00:00</time></trkpt><trkpt lat="30.8786583" lon="34.79866409"><ele>482.9</ele><time>2013-11-20T11:52:59.0000000+00:00</time></trkpt><trkpt lat="30.87862587" lon="34.79835892"><ele>481.4</ele><time>2013-11-20T11:53:04.0000000+00:00</time></trkpt><trkpt lat="30.87861061" lon="34.79805756"><ele>480.8</ele><time>2013-11-20T11:53:09.0000000+00:00</time></trkpt><trkpt lat="30.87861252" lon="34.79776001"><ele>479.8</ele><time>2013-11-20T11:53:14.0000000+00:00</time></trkpt><trkpt lat="30.87861443" lon="34.79745102"><ele>479.0</ele><time>2013-11-20T11:53:19.0000000+00:00</time></trkpt><trkpt lat="30.87860298" lon="34.79716492"><ele>479.6</ele><time>2013-11-20T11:53:24.0000000+00:00</time></trkpt><trkpt lat="30.87858391" lon="34.796875"><ele>479.7</ele><time>2013-11-20T11:53:29.0000000+00:00</time></trkpt><trkpt lat="30.87857437" lon="34.79658508"><ele>480.8</ele><time>2013-11-20T11:53:34.0000000+00:00</time></trkpt><trkpt lat="30.87857628" lon="34.79628754"><ele>480.7</ele><time>2013-11-20T11:53:39.0000000+00:00</time></trkpt><trkpt lat="30.87856674" lon="34.79598999"><ele>480.0</ele><time>2013-11-20T11:53:44.0000000+00:00</time></trkpt><trkpt lat="30.87853432" lon="34.79567719"><ele>478.4</ele><time>2013-11-20T11:53:49.0000000+00:00</time></trkpt><trkpt lat="30.87846184" lon="34.79537964"><ele>478.6</ele><time>2013-11-20T11:53:54.0000000+00:00</time></trkpt><trkpt lat="30.87834549" lon="34.79510117"><ele>479.0</ele><time>2013-11-20T11:53:59.0000000+00:00</time></trkpt><trkpt lat="30.87821198" lon="34.79486084"><ele>478.5</ele><time>2013-11-20T11:54:04.0000000+00:00</time></trkpt><trkpt lat="30.87808609" lon="34.79463196"><ele>479.2</ele><time>2013-11-20T11:54:09.0000000+00:00</time></trkpt><trkpt lat="30.87797928" lon="34.79440308"><ele>479.7</ele><time>2013-11-20T11:54:14.0000000+00:00</time></trkpt><trkpt lat="30.87796211" lon="34.79418182"><ele>480.8</ele><time>2013-11-20T11:54:19.0000000+00:00</time></trkpt><trkpt lat="30.87798309" lon="34.79413986"><ele>481.5</ele><time>2013-11-20T11:54:24.0000000+00:00</time></trkpt><trkpt lat="30.87798309" lon="34.79413986"><ele>481.7</ele><time>2013-11-20T11:54:29.0000000+00:00</time></trkpt><trkpt lat="30.87798691" lon="34.79413986"><ele>481.6</ele><time>2013-11-20T11:54:34.0000000+00:00</time></trkpt><trkpt lat="30.877985" lon="34.79413986"><ele>481.6</ele><time>2013-11-20T11:54:39.0000000+00:00</time></trkpt><trkpt lat="30.877985" lon="34.79413986"><ele>481.7</ele><time>2013-11-20T11:54:44.0000000+00:00</time></trkpt><trkpt lat="30.877985" lon="34.79413986"><ele>481.7</ele><time>2013-11-20T11:54:49.0000000+00:00</time></trkpt><trkpt lat="30.877985" lon="34.79413986"><ele>481.7</ele><time>2013-11-20T11:54:54.0000000+00:00</time></trkpt><trkpt lat="30.877985" lon="34.79413986"><ele>481.7</ele><time>2013-11-20T11:54:59.0000000+00:00</time></trkpt><trkpt lat="30.877985" lon="34.79413986"><ele>481.7</ele><time>2013-11-20T11:55:04.0000000+00:00</time></trkpt><trkpt lat="30.877985" lon="34.79414368"><ele>481.7</ele><time>2013-11-20T11:55:09.0000000+00:00</time></trkpt><trkpt lat="30.87798309" lon="34.79414368"><ele>481.7</ele><time>2013-11-20T11:55:14.0000000+00:00</time></trkpt><trkpt lat="30.87798309" lon="34.79414368"><ele>481.7</ele><time>2013-11-20T11:55:19.0000000+00:00</time></trkpt><trkpt lat="30.87798309" lon="34.79414368"><ele>481.6</ele><time>2013-11-20T11:55:24.0000000+00:00</time></trkpt><trkpt lat="30.87798309" lon="34.79414368"><ele>481.6</ele><time>2013-11-20T11:55:29.0000000+00:00</time></trkpt><trkpt lat="30.87798309" lon="34.79414368"><ele>481.6</ele><time>2013-11-20T11:55:34.0000000+00:00</time></trkpt><trkpt lat="30.87798309" lon="34.79414368"><ele>481.6</ele><time>2013-11-20T11:55:39.0000000+00:00</time></trkpt><trkpt lat="30.87798309" lon="34.79414368"><ele>481.6</ele><time>2013-11-20T11:55:44.0000000+00:00</time></trkpt><trkpt lat="30.87798309" lon="34.79414368"><ele>481.6</ele><time>2013-11-20T11:55:49.0000000+00:00</time></trkpt><trkpt lat="30.87798309" lon="34.79414368"><ele>481.6</ele><time>2013-11-20T11:55:54.0000000+00:00</time></trkpt><trkpt lat="30.87801552" lon="34.79411316"><ele>481.5</ele><time>2013-11-20T11:55:59.0000000+00:00</time></trkpt><trkpt lat="30.87818718" lon="34.79402542"><ele>481.0</ele><time>2013-11-20T11:56:04.0000000+00:00</time></trkpt><trkpt lat="30.87839699" lon="34.79397202"><ele>480.0</ele><time>2013-11-20T11:56:09.0000000+00:00</time></trkpt><trkpt lat="30.87863922" lon="34.7939148"><ele>477.9</ele><time>2013-11-20T11:56:14.0000000+00:00</time></trkpt><trkpt lat="30.87885857" lon="34.79385376"><ele>479.0</ele><time>2013-11-20T11:56:19.0000000+00:00</time></trkpt><trkpt lat="30.87908173" lon="34.79381943"><ele>479.9</ele><time>2013-11-20T11:56:24.0000000+00:00</time></trkpt><trkpt lat="30.8793087" lon="34.79374695"><ele>478.3</ele><time>2013-11-20T11:56:29.0000000+00:00</time></trkpt><trkpt lat="30.87952614" lon="34.79363632"><ele>479.0</ele><time>2013-11-20T11:56:34.0000000+00:00</time></trkpt><trkpt lat="30.87970352" lon="34.79349136"><ele>479.9</ele><time>2013-11-20T11:56:39.0000000+00:00</time></trkpt><trkpt lat="30.87985802" lon="34.79333115"><ele>480.3</ele><time>2013-11-20T11:56:44.0000000+00:00</time></trkpt><trkpt lat="30.87994194" lon="34.79320908"><ele>481.6</ele><time>2013-11-20T11:56:49.0000000+00:00</time></trkpt><trkpt lat="30.88003731" lon="34.79305267"><ele>482.4</ele><time>2013-11-20T11:56:54.0000000+00:00</time></trkpt><trkpt lat="30.88011169" lon="34.79291916"><ele>482.2</ele><time>2013-11-20T11:56:59.0000000+00:00</time></trkpt><trkpt lat="30.88018036" lon="34.79281616"><ele>482.2</ele><time>2013-11-20T11:57:04.0000000+00:00</time></trkpt><trkpt lat="30.88022423" lon="34.79276657"><ele>482.6</ele><time>2013-11-20T11:57:09.0000000+00:00</time></trkpt><trkpt lat="30.88023567" lon="34.79276276"><ele>482.2</ele><time>2013-11-20T11:57:14.0000000+00:00</time></trkpt><trkpt lat="30.88023377" lon="34.79276657"><ele>482.3</ele><time>2013-11-20T11:57:19.0000000+00:00</time></trkpt><trkpt lat="30.88023186" lon="34.79276657"><ele>482.3</ele><time>2013-11-20T11:57:24.0000000+00:00</time></trkpt><trkpt lat="30.88023758" lon="34.7927742"><ele>482.4</ele><time>2013-11-20T11:57:29.0000000+00:00</time></trkpt><trkpt lat="30.88023949" lon="34.79277039"><ele>482.4</ele><time>2013-11-20T11:57:34.0000000+00:00</time></trkpt><trkpt lat="30.88023567" lon="34.79276657"><ele>482.4</ele><time>2013-11-20T11:57:39.0000000+00:00</time></trkpt><trkpt lat="30.88023567" lon="34.79276657"><ele>482.4</ele><time>2013-11-20T11:57:44.0000000+00:00</time></trkpt><trkpt lat="30.88023567" lon="34.79276657"><ele>482.4</ele><time>2013-11-20T11:57:49.0000000+00:00</time></trkpt><trkpt lat="30.88023567" lon="34.79276657"><ele>482.4</ele><time>2013-11-20T11:57:54.0000000+00:00</time></trkpt><trkpt lat="30.88023567" lon="34.79276657"><ele>482.5</ele><time>2013-11-20T11:57:59.0000000+00:00</time></trkpt><trkpt lat="30.88023567" lon="34.79276657"><ele>482.5</ele><time>2013-11-20T11:58:04.0000000+00:00</time></trkpt><trkpt lat="30.88023567" lon="34.79276657"><ele>482.5</ele><time>2013-11-20T11:58:09.0000000+00:00</time></trkpt><trkpt lat="30.88023567" lon="34.79276657"><ele>482.5</ele><time>2013-11-20T11:58:14.0000000+00:00</time></trkpt><trkpt lat="30.88023567" lon="34.79276657"><ele>482.4</ele><time>2013-11-20T11:58:19.0000000+00:00</time></trkpt><trkpt lat="30.88024902" lon="34.79274368"><ele>482.3</ele><time>2013-11-20T11:58:24.0000000+00:00</time></trkpt><trkpt lat="30.88025475" lon="34.79257584"><ele>480.7</ele><time>2013-11-20T11:58:29.0000000+00:00</time></trkpt><trkpt lat="30.88011932" lon="34.79237747"><ele>478.2</ele><time>2013-11-20T11:58:34.0000000+00:00</time></trkpt><trkpt lat="30.87992477" lon="34.79221344"><ele>475.0</ele><time>2013-11-20T11:58:39.0000000+00:00</time></trkpt><trkpt lat="30.8797226" lon="34.79205322"><ele>473.8</ele><time>2013-11-20T11:58:44.0000000+00:00</time></trkpt><trkpt lat="30.8795166" lon="34.7918663"><ele>473.3</ele><time>2013-11-20T11:58:49.0000000+00:00</time></trkpt><trkpt lat="30.87932396" lon="34.79167557"><ele>471.0</ele><time>2013-11-20T11:58:54.0000000+00:00</time></trkpt><trkpt lat="30.87913895" lon="34.79148483"><ele>471.4</ele><time>2013-11-20T11:58:59.0000000+00:00</time></trkpt><trkpt lat="30.87895012" lon="34.79127121"><ele>469.7</ele><time>2013-11-20T11:59:04.0000000+00:00</time></trkpt><trkpt lat="30.87875557" lon="34.79109573"><ele>471.3</ele><time>2013-11-20T11:59:09.0000000+00:00</time></trkpt><trkpt lat="30.87858963" lon="34.79092407"><ele>471.6</ele><time>2013-11-20T11:59:14.0000000+00:00</time></trkpt><trkpt lat="30.87840653" lon="34.79075241"><ele>470.2</ele><time>2013-11-20T11:59:19.0000000+00:00</time></trkpt><trkpt lat="30.87825012" lon="34.79057312"><ele>469.6</ele><time>2013-11-20T11:59:24.0000000+00:00</time></trkpt><trkpt lat="30.87809563" lon="34.79040146"><ele>468.0</ele><time>2013-11-20T11:59:29.0000000+00:00</time></trkpt><trkpt lat="30.87795639" lon="34.79025269"><ele>469.0</ele><time>2013-11-20T11:59:34.0000000+00:00</time></trkpt><trkpt lat="30.8778019" lon="34.79009628"><ele>466.5</ele><time>2013-11-20T11:59:39.0000000+00:00</time></trkpt><trkpt lat="30.87764931" lon="34.7899437"><ele>466.5</ele><time>2013-11-20T11:59:44.0000000+00:00</time></trkpt><trkpt lat="30.87750435" lon="34.78979492"><ele>467.7</ele><time>2013-11-20T11:59:49.0000000+00:00</time></trkpt><trkpt lat="30.87737274" lon="34.78965378"><ele>468.9</ele><time>2013-11-20T11:59:54.0000000+00:00</time></trkpt><trkpt lat="30.87723923" lon="34.78949738"><ele>468.1</ele><time>2013-11-20T11:59:59.0000000+00:00</time></trkpt><trkpt lat="30.87710953" lon="34.78933334"><ele>466.8</ele><time>2013-11-20T12:00:04.0000000+00:00</time></trkpt><trkpt lat="30.87697411" lon="34.78913879"><ele>465.1</ele><time>2013-11-20T12:00:09.0000000+00:00</time></trkpt><trkpt lat="30.87682343" lon="34.7889328"><ele>465.5</ele><time>2013-11-20T12:00:14.0000000+00:00</time></trkpt><trkpt lat="30.8766861" lon="34.78873062"><ele>467.2</ele><time>2013-11-20T12:00:19.0000000+00:00</time></trkpt><trkpt lat="30.87654114" lon="34.78850555"><ele>467.8</ele><time>2013-11-20T12:00:24.0000000+00:00</time></trkpt><trkpt lat="30.87639618" lon="34.78828812"><ele>467.7</ele><time>2013-11-20T12:00:29.0000000+00:00</time></trkpt><trkpt lat="30.87624931" lon="34.78807831"><ele>467.1</ele><time>2013-11-20T12:00:34.0000000+00:00</time></trkpt><trkpt lat="30.87611008" lon="34.7878685"><ele>466.7</ele><time>2013-11-20T12:00:39.0000000+00:00</time></trkpt><trkpt lat="30.8759861" lon="34.78765869"><ele>467.6</ele><time>2013-11-20T12:00:44.0000000+00:00</time></trkpt><trkpt lat="30.87586594" lon="34.78746414"><ele>467.8</ele><time>2013-11-20T12:00:49.0000000+00:00</time></trkpt><trkpt lat="30.87574768" lon="34.78725815"><ele>467.4</ele><time>2013-11-20T12:00:54.0000000+00:00</time></trkpt><trkpt lat="30.87562561" lon="34.7870636"><ele>467.4</ele><time>2013-11-20T12:00:59.0000000+00:00</time></trkpt><trkpt lat="30.87552071" lon="34.78688812"><ele>467.2</ele><time>2013-11-20T12:01:04.0000000+00:00</time></trkpt><trkpt lat="30.87542915" lon="34.78674698"><ele>465.3</ele><time>2013-11-20T12:01:09.0000000+00:00</time></trkpt><trkpt lat="30.87534142" lon="34.78656006"><ele>465.3</ele><time>2013-11-20T12:01:14.0000000+00:00</time></trkpt><trkpt lat="30.87521744" lon="34.78638077"><ele>466.8</ele><time>2013-11-20T12:01:19.0000000+00:00</time></trkpt><trkpt lat="30.87510681" lon="34.78622055"><ele>467.7</ele><time>2013-11-20T12:01:24.0000000+00:00</time></trkpt><trkpt lat="30.87498856" lon="34.78608704"><ele>466.5</ele><time>2013-11-20T12:01:29.0000000+00:00</time></trkpt><trkpt lat="30.87488174" lon="34.78591919"><ele>464.9</ele><time>2013-11-20T12:01:34.0000000+00:00</time></trkpt><trkpt lat="30.87476158" lon="34.78575516"><ele>465.6</ele><time>2013-11-20T12:01:39.0000000+00:00</time></trkpt><trkpt lat="30.87471008" lon="34.7856102"><ele>467.3</ele><time>2013-11-20T12:01:44.0000000+00:00</time></trkpt><trkpt lat="30.87474823" lon="34.78550339"><ele>467.8</ele><time>2013-11-20T12:01:49.0000000+00:00</time></trkpt><trkpt lat="30.8746357" lon="34.78540039"><ele>464.4</ele><time>2013-11-20T12:01:54.0000000+00:00</time></trkpt><trkpt lat="30.87452698" lon="34.78530121"><ele>462.0</ele><time>2013-11-20T12:01:59.0000000+00:00</time></trkpt><trkpt lat="30.87452507" lon="34.78529358"><ele>461.8</ele><time>2013-11-20T12:02:04.0000000+00:00</time></trkpt><trkpt lat="30.87452698" lon="34.78529739"><ele>461.7</ele><time>2013-11-20T12:02:09.0000000+00:00</time></trkpt><trkpt lat="30.87452507" lon="34.78529358"><ele>461.8</ele><time>2013-11-20T12:02:14.0000000+00:00</time></trkpt><trkpt lat="30.87452698" lon="34.78529358"><ele>461.8</ele><time>2013-11-20T12:02:19.0000000+00:00</time></trkpt><trkpt lat="30.87452316" lon="34.78529358"><ele>461.8</ele><time>2013-11-20T12:02:24.0000000+00:00</time></trkpt><trkpt lat="30.87452126" lon="34.78529358"><ele>461.8</ele><time>2013-11-20T12:02:29.0000000+00:00</time></trkpt><trkpt lat="30.87451744" lon="34.78528976"><ele>461.9</ele><time>2013-11-20T12:02:34.0000000+00:00</time></trkpt><trkpt lat="30.87451363" lon="34.78529358"><ele>461.9</ele><time>2013-11-20T12:02:39.0000000+00:00</time></trkpt><trkpt lat="30.87451172" lon="34.78528976"><ele>461.9</ele><time>2013-11-20T12:02:44.0000000+00:00</time></trkpt><trkpt lat="30.87451363" lon="34.78528976"><ele>461.9</ele><time>2013-11-20T12:02:49.0000000+00:00</time></trkpt><trkpt lat="30.87451363" lon="34.78528976"><ele>461.9</ele><time>2013-11-20T12:02:54.0000000+00:00</time></trkpt><trkpt lat="30.87451363" lon="34.78528976"><ele>462.0</ele><time>2013-11-20T12:02:59.0000000+00:00</time></trkpt><trkpt lat="30.87451363" lon="34.78528976"><ele>462.0</ele><time>2013-11-20T12:03:04.0000000+00:00</time></trkpt><trkpt lat="30.87451553" lon="34.78529358"><ele>462.0</ele><time>2013-11-20T12:03:09.0000000+00:00</time></trkpt><trkpt lat="30.87451553" lon="34.78529358"><ele>462.0</ele><time>2013-11-20T12:03:14.0000000+00:00</time></trkpt><trkpt lat="30.87451553" lon="34.78529358"><ele>462.0</ele><time>2013-11-20T12:03:19.0000000+00:00</time></trkpt><trkpt lat="30.87451553" lon="34.78529358"><ele>462.1</ele><time>2013-11-20T12:03:24.0000000+00:00</time></trkpt><trkpt lat="30.87451553" lon="34.78529358"><ele>462.1</ele><time>2013-11-20T12:03:29.0000000+00:00</time></trkpt><trkpt lat="30.87451553" lon="34.78529358"><ele>462.1</ele><time>2013-11-20T12:03:34.0000000+00:00</time></trkpt><trkpt lat="30.87451553" lon="34.78529358"><ele>462.1</ele><time>2013-11-20T12:03:39.0000000+00:00</time></trkpt><trkpt lat="30.87451553" lon="34.78529358"><ele>462.0</ele><time>2013-11-20T12:03:44.0000000+00:00</time></trkpt><trkpt lat="30.87451553" lon="34.78528976"><ele>462.0</ele><time>2013-11-20T12:03:49.0000000+00:00</time></trkpt><trkpt lat="30.87451553" lon="34.78528976"><ele>462.0</ele><time>2013-11-20T12:03:54.0000000+00:00</time></trkpt><trkpt lat="30.87451553" lon="34.78528976"><ele>462.0</ele><time>2013-11-20T12:03:59.0000000+00:00</time></trkpt><trkpt lat="30.87451553" lon="34.78528976"><ele>462.0</ele><time>2013-11-20T12:04:04.0000000+00:00</time></trkpt><trkpt lat="30.87451553" lon="34.78528976"><ele>462.0</ele><time>2013-11-20T12:04:09.0000000+00:00</time></trkpt><trkpt lat="30.87451553" lon="34.78529358"><ele>462.0</ele><time>2013-11-20T12:04:14.0000000+00:00</time></trkpt><trkpt lat="30.87451553" lon="34.78529358"><ele>462.0</ele><time>2013-11-20T12:04:19.0000000+00:00</time></trkpt><trkpt lat="30.87451553" lon="34.78528976"><ele>462.0</ele><time>2013-11-20T12:04:24.0000000+00:00</time></trkpt><trkpt lat="30.87451553" lon="34.78528976"><ele>462.0</ele><time>2013-11-20T12:04:29.0000000+00:00</time></trkpt><trkpt lat="30.87451553" lon="34.78528976"><ele>462.0</ele><time>2013-11-20T12:04:34.0000000+00:00</time></trkpt><trkpt lat="30.87451553" lon="34.78528976"><ele>462.1</ele><time>2013-11-20T12:04:39.0000000+00:00</time></trkpt><trkpt lat="30.87451553" lon="34.78528976"><ele>462.1</ele><time>2013-11-20T12:04:44.0000000+00:00</time></trkpt><trkpt lat="30.87451553" lon="34.78528976"><ele>462.1</ele><time>2013-11-20T12:04:49.0000000+00:00</time></trkpt><trkpt lat="30.87451553" lon="34.78528976"><ele>462.1</ele><time>2013-11-20T12:04:54.0000000+00:00</time></trkpt><trkpt lat="30.87451553" lon="34.78528976"><ele>462.1</ele><time>2013-11-20T12:04:59.0000000+00:00</time></trkpt><trkpt lat="30.87451553" lon="34.78528976"><ele>462.1</ele><time>2013-11-20T12:05:04.0000000+00:00</time></trkpt><trkpt lat="30.87451553" lon="34.78528976"><ele>462.1</ele><time>2013-11-20T12:05:09.0000000+00:00</time></trkpt><trkpt lat="30.87451553" lon="34.78528976"><ele>462.1</ele><time>2013-11-20T12:05:14.0000000+00:00</time></trkpt><trkpt lat="30.87451363" lon="34.78528976"><ele>462.1</ele><time>2013-11-20T12:05:19.0000000+00:00</time></trkpt><trkpt lat="30.87451363" lon="34.78528976"><ele>462.1</ele><time>2013-11-20T12:05:24.0000000+00:00</time></trkpt><trkpt lat="30.87451363" lon="34.78528976"><ele>462.1</ele><time>2013-11-20T12:05:29.0000000+00:00</time></trkpt><trkpt lat="30.87451363" lon="34.78528976"><ele>462.1</ele><time>2013-11-20T12:05:34.0000000+00:00</time></trkpt><trkpt lat="30.87451363" lon="34.78528976"><ele>462.1</ele><time>2013-11-20T12:05:39.0000000+00:00</time></trkpt><trkpt lat="30.87451363" lon="34.78528976"><ele>462.1</ele><time>2013-11-20T12:05:44.0000000+00:00</time></trkpt><trkpt lat="30.87451363" lon="34.78528976"><ele>462.1</ele><time>2013-11-20T12:05:49.0000000+00:00</time></trkpt><trkpt lat="30.87451363" lon="34.78528976"><ele>462.1</ele><time>2013-11-20T12:05:54.0000000+00:00</time></trkpt><trkpt lat="30.87451363" lon="34.78528976"><ele>462.1</ele><time>2013-11-20T12:05:59.0000000+00:00</time></trkpt><trkpt lat="30.87451363" lon="34.78528976"><ele>462.1</ele><time>2013-11-20T12:06:04.0000000+00:00</time></trkpt><trkpt lat="30.87451363" lon="34.78528976"><ele>462.1</ele><time>2013-11-20T12:06:09.0000000+00:00</time></trkpt><trkpt lat="30.87451363" lon="34.78528976"><ele>462.1</ele><time>2013-11-20T12:06:14.0000000+00:00</time></trkpt><trkpt lat="30.87451363" lon="34.78528976"><ele>462.1</ele><time>2013-11-20T12:06:19.0000000+00:00</time></trkpt><trkpt lat="30.87451363" lon="34.78528976"><ele>462.1</ele><time>2013-11-20T12:06:24.0000000+00:00</time></trkpt><trkpt lat="30.87451363" lon="34.78528976"><ele>462.2</ele><time>2013-11-20T12:06:29.0000000+00:00</time></trkpt><trkpt lat="30.87451553" lon="34.78528976"><ele>462.2</ele><time>2013-11-20T12:06:34.0000000+00:00</time></trkpt><trkpt lat="30.87451553" lon="34.78528976"><ele>462.3</ele><time>2013-11-20T12:06:39.0000000+00:00</time></trkpt><trkpt lat="30.87451553" lon="34.78528976"><ele>462.3</ele><time>2013-11-20T12:06:44.0000000+00:00</time></trkpt><trkpt lat="30.87451553" lon="34.78528976"><ele>462.3</ele><time>2013-11-20T12:06:49.0000000+00:00</time></trkpt><trkpt lat="30.87451553" lon="34.78528976"><ele>462.3</ele><time>2013-11-20T12:06:54.0000000+00:00</time></trkpt><trkpt lat="30.87451553" lon="34.78528976"><ele>462.3</ele><time>2013-11-20T12:06:59.0000000+00:00</time></trkpt><trkpt lat="30.87451553" lon="34.78528976"><ele>462.3</ele><time>2013-11-20T12:07:04.0000000+00:00</time></trkpt><trkpt lat="30.87451553" lon="34.78528976"><ele>462.3</ele><time>2013-11-20T12:07:09.0000000+00:00</time></trkpt><trkpt lat="30.87451553" lon="34.78528976"><ele>462.3</ele><time>2013-11-20T12:07:14.0000000+00:00</time></trkpt><trkpt lat="30.87451553" lon="34.78528976"><ele>462.3</ele><time>2013-11-20T12:07:19.0000000+00:00</time></trkpt><trkpt lat="30.87451553" lon="34.78528976"><ele>462.3</ele><time>2013-11-20T12:07:24.0000000+00:00</time></trkpt><trkpt lat="30.87451553" lon="34.78528976"><ele>462.4</ele><time>2013-11-20T12:07:29.0000000+00:00</time></trkpt><trkpt lat="30.87451553" lon="34.78528976"><ele>462.4</ele><time>2013-11-20T12:07:34.0000000+00:00</time></trkpt><trkpt lat="30.87451553" lon="34.78528976"><ele>462.4</ele><time>2013-11-20T12:07:39.0000000+00:00</time></trkpt><trkpt lat="30.87451553" lon="34.78528976"><ele>462.4</ele><time>2013-11-20T12:07:44.0000000+00:00</time></trkpt><trkpt lat="30.87451553" lon="34.78528976"><ele>462.4</ele><time>2013-11-20T12:07:49.0000000+00:00</time></trkpt><trkpt lat="30.87451553" lon="34.78528976"><ele>462.4</ele><time>2013-11-20T12:07:54.0000000+00:00</time></trkpt><trkpt lat="30.87451553" lon="34.78529358"><ele>462.4</ele><time>2013-11-20T12:07:59.0000000+00:00</time></trkpt><trkpt lat="30.87451553" lon="34.78529358"><ele>462.4</ele><time>2013-11-20T12:08:04.0000000+00:00</time></trkpt><trkpt lat="30.87451553" lon="34.78529358"><ele>462.4</ele><time>2013-11-20T12:08:09.0000000+00:00</time></trkpt><trkpt lat="30.87451553" lon="34.78529358"><ele>462.5</ele><time>2013-11-20T12:08:14.0000000+00:00</time></trkpt><trkpt lat="30.87449455" lon="34.78526688"><ele>462.4</ele><time>2013-11-20T12:08:19.0000000+00:00</time></trkpt><trkpt lat="30.87442207" lon="34.78517914"><ele>462.2</ele><time>2013-11-20T12:08:24.0000000+00:00</time></trkpt><trkpt lat="30.87433052" lon="34.78513336"><ele>462.0</ele><time>2013-11-20T12:08:29.0000000+00:00</time></trkpt><trkpt lat="30.87426949" lon="34.7850647"><ele>462.8</ele><time>2013-11-20T12:08:34.0000000+00:00</time></trkpt><trkpt lat="30.87421417" lon="34.78500366"><ele>463.3</ele><time>2013-11-20T12:08:39.0000000+00:00</time></trkpt><trkpt lat="30.8741703" lon="34.78495026"><ele>467.0</ele><time>2013-11-20T12:08:44.0000000+00:00</time></trkpt><trkpt lat="30.87412071" lon="34.78487015"><ele>469.0</ele><time>2013-11-20T12:08:49.0000000+00:00</time></trkpt><trkpt lat="30.87410164" lon="34.7848053"><ele>471.0</ele><time>2013-11-20T12:08:54.0000000+00:00</time></trkpt><trkpt lat="30.87407875" lon="34.78474045"><ele>472.2</ele><time>2013-11-20T12:08:59.0000000+00:00</time></trkpt><trkpt lat="30.87399292" lon="34.78467178"><ele>474.0</ele><time>2013-11-20T12:09:04.0000000+00:00</time></trkpt><trkpt lat="30.87389946" lon="34.78459549"><ele>475.3</ele><time>2013-11-20T12:09:09.0000000+00:00</time></trkpt><trkpt lat="30.87382126" lon="34.78450775"><ele>475.5</ele><time>2013-11-20T12:09:14.0000000+00:00</time></trkpt><trkpt lat="30.87370873" lon="34.7844162"><ele>476.6</ele><time>2013-11-20T12:09:19.0000000+00:00</time></trkpt><trkpt lat="30.87359428" lon="34.78430557"><ele>477.6</ele><time>2013-11-20T12:09:24.0000000+00:00</time></trkpt><trkpt lat="30.87347221" lon="34.78420258"><ele>479.7</ele><time>2013-11-20T12:09:29.0000000+00:00</time></trkpt><trkpt lat="30.8733654" lon="34.78406906"><ele>479.6</ele><time>2013-11-20T12:09:34.0000000+00:00</time></trkpt><trkpt lat="30.87324715" lon="34.78394699"><ele>478.9</ele><time>2013-11-20T12:09:39.0000000+00:00</time></trkpt><trkpt lat="30.8731308" lon="34.78380966"><ele>475.1</ele><time>2013-11-20T12:09:44.0000000+00:00</time></trkpt><trkpt lat="30.87301827" lon="34.78370285"><ele>475.3</ele><time>2013-11-20T12:09:49.0000000+00:00</time></trkpt><trkpt lat="30.87291527" lon="34.78359604"><ele>474.1</ele><time>2013-11-20T12:09:54.0000000+00:00</time></trkpt><trkpt lat="30.87279701" lon="34.78351975"><ele>474.0</ele><time>2013-11-20T12:09:59.0000000+00:00</time></trkpt><trkpt lat="30.87267685" lon="34.78343964"><ele>475.6</ele><time>2013-11-20T12:10:04.0000000+00:00</time></trkpt><trkpt lat="30.87256813" lon="34.78331375"><ele>478.4</ele><time>2013-11-20T12:10:09.0000000+00:00</time></trkpt><trkpt lat="30.87247086" lon="34.78317642"><ele>479.0</ele><time>2013-11-20T12:10:14.0000000+00:00</time></trkpt><trkpt lat="30.87236786" lon="34.78304291"><ele>477.4</ele><time>2013-11-20T12:10:19.0000000+00:00</time></trkpt><trkpt lat="30.8722477" lon="34.78291321"><ele>477.2</ele><time>2013-11-20T12:10:24.0000000+00:00</time></trkpt><trkpt lat="30.87213516" lon="34.78277588"><ele>477.1</ele><time>2013-11-20T12:10:29.0000000+00:00</time></trkpt><trkpt lat="30.87202454" lon="34.78270721"><ele>476.3</ele><time>2013-11-20T12:10:34.0000000+00:00</time></trkpt><trkpt lat="30.87191391" lon="34.78264618"><ele>477.3</ele><time>2013-11-20T12:10:39.0000000+00:00</time></trkpt><trkpt lat="30.87182617" lon="34.78251648"><ele>480.8</ele><time>2013-11-20T12:10:44.0000000+00:00</time></trkpt><trkpt lat="30.87173271" lon="34.78236008"><ele>480.7</ele><time>2013-11-20T12:10:49.0000000+00:00</time></trkpt><trkpt lat="30.87163353" lon="34.78219223"><ele>480.7</ele><time>2013-11-20T12:10:54.0000000+00:00</time></trkpt><trkpt lat="30.87154579" lon="34.78202438"><ele>481.4</ele><time>2013-11-20T12:10:59.0000000+00:00</time></trkpt><trkpt lat="30.87145233" lon="34.78183365"><ele>481.6</ele><time>2013-11-20T12:11:04.0000000+00:00</time></trkpt><trkpt lat="30.87138176" lon="34.78171921"><ele>481.9</ele><time>2013-11-20T12:11:09.0000000+00:00</time></trkpt><trkpt lat="30.87133026" lon="34.78162766"><ele>481.5</ele><time>2013-11-20T12:11:14.0000000+00:00</time></trkpt><trkpt lat="30.8712368" lon="34.78152084"><ele>480.5</ele><time>2013-11-20T12:11:19.0000000+00:00</time></trkpt><trkpt lat="30.87112808" lon="34.78136444"><ele>478.6</ele><time>2013-11-20T12:11:24.0000000+00:00</time></trkpt><trkpt lat="30.87096214" lon="34.78121567"><ele>477.5</ele><time>2013-11-20T12:11:29.0000000+00:00</time></trkpt><trkpt lat="30.87076759" lon="34.78108597"><ele>478.9</ele><time>2013-11-20T12:11:34.0000000+00:00</time></trkpt><trkpt lat="30.87055588" lon="34.78095245"><ele>480.3</ele><time>2013-11-20T12:11:39.0000000+00:00</time></trkpt><trkpt lat="30.8703289" lon="34.7808075"><ele>478.8</ele><time>2013-11-20T12:11:44.0000000+00:00</time></trkpt><trkpt lat="30.87008858" lon="34.78067017"><ele>478.9</ele><time>2013-11-20T12:11:49.0000000+00:00</time></trkpt><trkpt lat="30.86982918" lon="34.78052521"><ele>479.3</ele><time>2013-11-20T12:11:54.0000000+00:00</time></trkpt><trkpt lat="30.86957169" lon="34.78041458"><ele>480.5</ele><time>2013-11-20T12:11:59.0000000+00:00</time></trkpt><trkpt lat="30.86933518" lon="34.78028488"><ele>483.0</ele><time>2013-11-20T12:12:04.0000000+00:00</time></trkpt><trkpt lat="30.86911202" lon="34.780159"><ele>486.7</ele><time>2013-11-20T12:12:09.0000000+00:00</time></trkpt><trkpt lat="30.86886025" lon="34.78004074"><ele>487.8</ele><time>2013-11-20T12:12:14.0000000+00:00</time></trkpt><trkpt lat="30.86859703" lon="34.77988815"><ele>484.6</ele><time>2013-11-20T12:12:19.0000000+00:00</time></trkpt><trkpt lat="30.86833191" lon="34.7797432"><ele>484.7</ele><time>2013-11-20T12:12:24.0000000+00:00</time></trkpt><trkpt lat="30.86808205" lon="34.77957535"><ele>482.2</ele><time>2013-11-20T12:12:29.0000000+00:00</time></trkpt><trkpt lat="30.86787033" lon="34.7794342"><ele>479.9</ele><time>2013-11-20T12:12:34.0000000+00:00</time></trkpt><trkpt lat="30.86763573" lon="34.77931213"><ele>481.1</ele><time>2013-11-20T12:12:39.0000000+00:00</time></trkpt><trkpt lat="30.86741447" lon="34.77916718"><ele>481.1</ele><time>2013-11-20T12:12:44.0000000+00:00</time></trkpt><trkpt lat="30.86721993" lon="34.77904511"><ele>481.0</ele><time>2013-11-20T12:12:49.0000000+00:00</time></trkpt><trkpt lat="30.86704445" lon="34.77892304"><ele>481.3</ele><time>2013-11-20T12:12:54.0000000+00:00</time></trkpt><trkpt lat="30.86688042" lon="34.77881241"><ele>482.0</ele><time>2013-11-20T12:12:59.0000000+00:00</time></trkpt><trkpt lat="30.86681175" lon="34.77876282"><ele>482.4</ele><time>2013-11-20T12:13:04.0000000+00:00</time></trkpt><trkpt lat="30.86670876" lon="34.7787056"><ele>481.6</ele><time>2013-11-20T12:13:09.0000000+00:00</time></trkpt><trkpt lat="30.86660385" lon="34.7786293"><ele>481.8</ele><time>2013-11-20T12:13:14.0000000+00:00</time></trkpt><trkpt lat="30.86660385" lon="34.77861404"><ele>481.9</ele><time>2013-11-20T12:13:19.0000000+00:00</time></trkpt><trkpt lat="30.86660385" lon="34.77861404"><ele>481.9</ele><time>2013-11-20T12:13:24.0000000+00:00</time></trkpt><trkpt lat="30.86660576" lon="34.77861023"><ele>481.9</ele><time>2013-11-20T12:13:29.0000000+00:00</time></trkpt><trkpt lat="30.86660004" lon="34.77860642"><ele>481.9</ele><time>2013-11-20T12:13:34.0000000+00:00</time></trkpt><trkpt lat="30.86659622" lon="34.77860642"><ele>481.9</ele><time>2013-11-20T12:13:39.0000000+00:00</time></trkpt><trkpt lat="30.8665905" lon="34.7786026"><ele>482.0</ele><time>2013-11-20T12:13:44.0000000+00:00</time></trkpt><trkpt lat="30.86658669" lon="34.77859879"><ele>482.0</ele><time>2013-11-20T12:13:49.0000000+00:00</time></trkpt><trkpt lat="30.86658859" lon="34.77859879"><ele>482.1</ele><time>2013-11-20T12:13:54.0000000+00:00</time></trkpt><trkpt lat="30.86658478" lon="34.77859497"><ele>482.1</ele><time>2013-11-20T12:13:59.0000000+00:00</time></trkpt><trkpt lat="30.86658287" lon="34.77859497"><ele>482.2</ele><time>2013-11-20T12:14:04.0000000+00:00</time></trkpt><trkpt lat="30.86658287" lon="34.77859116"><ele>482.2</ele><time>2013-11-20T12:14:09.0000000+00:00</time></trkpt><trkpt lat="30.86658096" lon="34.77859116"><ele>482.2</ele><time>2013-11-20T12:14:14.0000000+00:00</time></trkpt><trkpt lat="30.86657906" lon="34.77858734"><ele>482.2</ele><time>2013-11-20T12:14:19.0000000+00:00</time></trkpt><trkpt lat="30.86657524" lon="34.77858734"><ele>482.2</ele><time>2013-11-20T12:14:24.0000000+00:00</time></trkpt><trkpt lat="30.86657906" lon="34.77859116"><ele>482.2</ele><time>2013-11-20T12:14:29.0000000+00:00</time></trkpt><trkpt lat="30.86658096" lon="34.77859116"><ele>482.2</ele><time>2013-11-20T12:14:34.0000000+00:00</time></trkpt><trkpt lat="30.86658096" lon="34.77859116"><ele>482.2</ele><time>2013-11-20T12:14:39.0000000+00:00</time></trkpt><trkpt lat="30.86657906" lon="34.77859116"><ele>482.2</ele><time>2013-11-20T12:14:44.0000000+00:00</time></trkpt><trkpt lat="30.86657906" lon="34.77859116"><ele>482.3</ele><time>2013-11-20T12:14:49.0000000+00:00</time></trkpt><trkpt lat="30.86657715" lon="34.77859116"><ele>482.3</ele><time>2013-11-20T12:14:54.0000000+00:00</time></trkpt><trkpt lat="30.86657715" lon="34.77859116"><ele>482.3</ele><time>2013-11-20T12:14:59.0000000+00:00</time></trkpt><trkpt lat="30.86655617" lon="34.77858353"><ele>482.4</ele><time>2013-11-20T12:15:04.0000000+00:00</time></trkpt><trkpt lat="30.86639786" lon="34.77850342"><ele>482.4</ele><time>2013-11-20T12:15:09.0000000+00:00</time></trkpt><trkpt lat="30.86624718" lon="34.77841568"><ele>483.4</ele><time>2013-11-20T12:15:14.0000000+00:00</time></trkpt><trkpt lat="30.86607933" lon="34.7783165"><ele>483.6</ele><time>2013-11-20T12:15:19.0000000+00:00</time></trkpt><trkpt lat="30.86590576" lon="34.7781868"><ele>483.2</ele><time>2013-11-20T12:15:24.0000000+00:00</time></trkpt><trkpt lat="30.86569595" lon="34.77806091"><ele>481.7</ele><time>2013-11-20T12:15:29.0000000+00:00</time></trkpt><trkpt lat="30.86558533" lon="34.77787018"><ele>482.1</ele><time>2013-11-20T12:15:34.0000000+00:00</time></trkpt><trkpt lat="30.86541939" lon="34.77773285"><ele>481.2</ele><time>2013-11-20T12:15:39.0000000+00:00</time></trkpt><trkpt lat="30.86525536" lon="34.77763748"><ele>480.7</ele><time>2013-11-20T12:15:44.0000000+00:00</time></trkpt><trkpt lat="30.86510277" lon="34.77754593"><ele>479.4</ele><time>2013-11-20T12:15:49.0000000+00:00</time></trkpt><trkpt lat="30.8649292" lon="34.77746201"><ele>479.7</ele><time>2013-11-20T12:15:54.0000000+00:00</time></trkpt><trkpt lat="30.86480713" lon="34.77740479"><ele>481.1</ele><time>2013-11-20T12:15:59.0000000+00:00</time></trkpt><trkpt lat="30.86474991" lon="34.77736664"><ele>482.0</ele><time>2013-11-20T12:16:04.0000000+00:00</time></trkpt><trkpt lat="30.86469078" lon="34.77729034"><ele>482.8</ele><time>2013-11-20T12:16:09.0000000+00:00</time></trkpt><trkpt lat="30.86468124" lon="34.77728272"><ele>483.2</ele><time>2013-11-20T12:16:14.0000000+00:00</time></trkpt><trkpt lat="30.86468124" lon="34.77728272"><ele>483.3</ele><time>2013-11-20T12:16:19.0000000+00:00</time></trkpt><trkpt lat="30.86468124" lon="34.77728272"><ele>483.3</ele><time>2013-11-20T12:16:24.0000000+00:00</time></trkpt><trkpt lat="30.86468124" lon="34.77728272"><ele>483.4</ele><time>2013-11-20T12:16:29.0000000+00:00</time></trkpt><trkpt lat="30.86467934" lon="34.7772789"><ele>483.4</ele><time>2013-11-20T12:16:34.0000000+00:00</time></trkpt><trkpt lat="30.86468124" lon="34.77728272"><ele>483.5</ele><time>2013-11-20T12:16:39.0000000+00:00</time></trkpt><trkpt lat="30.86468124" lon="34.77728272"><ele>483.5</ele><time>2013-11-20T12:16:44.0000000+00:00</time></trkpt><trkpt lat="30.86468124" lon="34.77728272"><ele>483.6</ele><time>2013-11-20T12:16:49.0000000+00:00</time></trkpt><trkpt lat="30.86468124" lon="34.77728272"><ele>483.6</ele><time>2013-11-20T12:16:54.0000000+00:00</time></trkpt><trkpt lat="30.86463738" lon="34.77716446"><ele>483.4</ele><time>2013-11-20T12:16:59.0000000+00:00</time></trkpt><trkpt lat="30.86460114" lon="34.77699661"><ele>484.2</ele><time>2013-11-20T12:17:04.0000000+00:00</time></trkpt><trkpt lat="30.86458778" lon="34.77691269"><ele>486.3</ele><time>2013-11-20T12:17:09.0000000+00:00</time></trkpt><trkpt lat="30.86459351" lon="34.77690888"><ele>485.8</ele><time>2013-11-20T12:17:14.0000000+00:00</time></trkpt><trkpt lat="30.86459351" lon="34.77690888"><ele>485.8</ele><time>2013-11-20T12:17:19.0000000+00:00</time></trkpt><trkpt lat="30.86459351" lon="34.77690888"><ele>485.8</ele><time>2013-11-20T12:17:24.0000000+00:00</time></trkpt><trkpt lat="30.86459351" lon="34.77690888"><ele>485.8</ele><time>2013-11-20T12:17:29.0000000+00:00</time></trkpt><trkpt lat="30.86459351" lon="34.77690888"><ele>485.8</ele><time>2013-11-20T12:17:34.0000000+00:00</time></trkpt><trkpt lat="30.86459351" lon="34.77690888"><ele>485.7</ele><time>2013-11-20T12:17:39.0000000+00:00</time></trkpt><trkpt lat="30.86459351" lon="34.77690888"><ele>485.7</ele><time>2013-11-20T12:17:44.0000000+00:00</time></trkpt><trkpt lat="30.86459351" lon="34.77690888"><ele>485.7</ele><time>2013-11-20T12:17:49.0000000+00:00</time></trkpt><trkpt lat="30.86459351" lon="34.77690888"><ele>485.8</ele><time>2013-11-20T12:17:54.0000000+00:00</time></trkpt><trkpt lat="30.86459351" lon="34.77690888"><ele>485.8</ele><time>2013-11-20T12:17:59.0000000+00:00</time></trkpt><trkpt lat="30.86459351" lon="34.77690888"><ele>485.8</ele><time>2013-11-20T12:18:04.0000000+00:00</time></trkpt><trkpt lat="30.86459351" lon="34.77690888"><ele>485.8</ele><time>2013-11-20T12:18:09.0000000+00:00</time></trkpt><trkpt lat="30.86459351" lon="34.77690888"><ele>485.8</ele><time>2013-11-20T12:18:14.0000000+00:00</time></trkpt><trkpt lat="30.86459351" lon="34.77690888"><ele>485.8</ele><time>2013-11-20T12:18:19.0000000+00:00</time></trkpt><trkpt lat="30.86459351" lon="34.77690888"><ele>485.8</ele><time>2013-11-20T12:18:24.0000000+00:00</time></trkpt><trkpt lat="30.86459351" lon="34.77690888"><ele>485.8</ele><time>2013-11-20T12:18:29.0000000+00:00</time></trkpt><trkpt lat="30.86459351" lon="34.77690888"><ele>485.8</ele><time>2013-11-20T12:18:34.0000000+00:00</time></trkpt><trkpt lat="30.86459351" lon="34.77690888"><ele>485.9</ele><time>2013-11-20T12:18:39.0000000+00:00</time></trkpt><trkpt lat="30.86459351" lon="34.77690888"><ele>485.9</ele><time>2013-11-20T12:18:44.0000000+00:00</time></trkpt><trkpt lat="30.86459351" lon="34.77690888"><ele>485.9</ele><time>2013-11-20T12:18:49.0000000+00:00</time></trkpt><trkpt lat="30.86459351" lon="34.77690888"><ele>485.9</ele><time>2013-11-20T12:18:54.0000000+00:00</time></trkpt><trkpt lat="30.86459351" lon="34.77690888"><ele>485.9</ele><time>2013-11-20T12:18:59.0000000+00:00</time></trkpt><trkpt lat="30.86459351" lon="34.77690888"><ele>485.9</ele><time>2013-11-20T12:19:04.0000000+00:00</time></trkpt><trkpt lat="30.86459351" lon="34.77690888"><ele>485.9</ele><time>2013-11-20T12:19:09.0000000+00:00</time></trkpt><trkpt lat="30.86459351" lon="34.77690888"><ele>485.9</ele><time>2013-11-20T12:19:14.0000000+00:00</time></trkpt><trkpt lat="30.86459351" lon="34.77690888"><ele>485.9</ele><time>2013-11-20T12:19:19.0000000+00:00</time></trkpt><trkpt lat="30.86459351" lon="34.77690888"><ele>485.9</ele><time>2013-11-20T12:19:24.0000000+00:00</time></trkpt><trkpt lat="30.86459351" lon="34.77690888"><ele>485.9</ele><time>2013-11-20T12:19:29.0000000+00:00</time></trkpt><trkpt lat="30.86459351" lon="34.77690888"><ele>485.9</ele><time>2013-11-20T12:19:34.0000000+00:00</time></trkpt><trkpt lat="30.86459351" lon="34.77690888"><ele>485.9</ele><time>2013-11-20T12:19:39.0000000+00:00</time></trkpt><trkpt lat="30.86459351" lon="34.77690888"><ele>485.9</ele><time>2013-11-20T12:19:44.0000000+00:00</time></trkpt><trkpt lat="30.86459351" lon="34.77690888"><ele>485.9</ele><time>2013-11-20T12:19:49.0000000+00:00</time></trkpt><trkpt lat="30.86459351" lon="34.77690888"><ele>485.9</ele><time>2013-11-20T12:19:54.0000000+00:00</time></trkpt><trkpt lat="30.86459351" lon="34.77690888"><ele>485.9</ele><time>2013-11-20T12:19:59.0000000+00:00</time></trkpt><trkpt lat="30.86459351" lon="34.77690506"><ele>485.9</ele><time>2013-11-20T12:20:04.0000000+00:00</time></trkpt><trkpt lat="30.86458588" lon="34.77679443"><ele>486.0</ele><time>2013-11-20T12:20:09.0000000+00:00</time></trkpt><trkpt lat="30.86457443" lon="34.77659607"><ele>486.3</ele><time>2013-11-20T12:20:14.0000000+00:00</time></trkpt><trkpt lat="30.86457443" lon="34.77640533"><ele>487.4</ele><time>2013-11-20T12:20:19.0000000+00:00</time></trkpt><trkpt lat="30.86460495" lon="34.77621079"><ele>488.9</ele><time>2013-11-20T12:20:24.0000000+00:00</time></trkpt><trkpt lat="30.86464691" lon="34.77603149"><ele>489.1</ele><time>2013-11-20T12:20:29.0000000+00:00</time></trkpt><trkpt lat="30.86468124" lon="34.77580261"><ele>488.9</ele><time>2013-11-20T12:20:34.0000000+00:00</time></trkpt><trkpt lat="30.86469841" lon="34.7755661"><ele>489.9</ele><time>2013-11-20T12:20:39.0000000+00:00</time></trkpt><trkpt lat="30.86468697" lon="34.77532578"><ele>491.2</ele><time>2013-11-20T12:20:44.0000000+00:00</time></trkpt><trkpt lat="30.86466408" lon="34.77510452"><ele>491.5</ele><time>2013-11-20T12:20:49.0000000+00:00</time></trkpt><trkpt lat="30.86455727" lon="34.77490234"><ele>491.9</ele><time>2013-11-20T12:20:54.0000000+00:00</time></trkpt><trkpt lat="30.86440277" lon="34.77471161"><ele>492.9</ele><time>2013-11-20T12:20:59.0000000+00:00</time></trkpt><trkpt lat="30.86424828" lon="34.77455139"><ele>494.1</ele><time>2013-11-20T12:21:04.0000000+00:00</time></trkpt><trkpt lat="30.86407471" lon="34.77437973"><ele>495.3</ele><time>2013-11-20T12:21:09.0000000+00:00</time></trkpt><trkpt lat="30.8639183" lon="34.77419281"><ele>496.4</ele><time>2013-11-20T12:21:14.0000000+00:00</time></trkpt><trkpt lat="30.86378861" lon="34.77399063"><ele>496.9</ele><time>2013-11-20T12:21:19.0000000+00:00</time></trkpt><trkpt lat="30.86370277" lon="34.77375031"><ele>498.3</ele><time>2013-11-20T12:21:24.0000000+00:00</time></trkpt><trkpt lat="30.86365318" lon="34.77349472"><ele>499.9</ele><time>2013-11-20T12:21:29.0000000+00:00</time></trkpt><trkpt lat="30.86360931" lon="34.77327347"><ele>500.3</ele><time>2013-11-20T12:21:34.0000000+00:00</time></trkpt><trkpt lat="30.86358261" lon="34.77315903"><ele>501.4</ele><time>2013-11-20T12:21:39.0000000+00:00</time></trkpt><trkpt lat="30.86357307" lon="34.77302551"><ele>502.1</ele><time>2013-11-20T12:21:44.0000000+00:00</time></trkpt><trkpt lat="30.86355782" lon="34.77280808"><ele>500.1</ele><time>2013-11-20T12:21:49.0000000+00:00</time></trkpt><trkpt lat="30.86355019" lon="34.77258682"><ele>500.1</ele><time>2013-11-20T12:21:54.0000000+00:00</time></trkpt><trkpt lat="30.86359787" lon="34.77241135"><ele>500.4</ele><time>2013-11-20T12:21:59.0000000+00:00</time></trkpt><trkpt lat="30.86375809" lon="34.77228165"><ele>499.6</ele><time>2013-11-20T12:22:04.0000000+00:00</time></trkpt><trkpt lat="30.86392021" lon="34.77217484"><ele>500.1</ele><time>2013-11-20T12:22:09.0000000+00:00</time></trkpt><trkpt lat="30.86404038" lon="34.77203751"><ele>501.1</ele><time>2013-11-20T12:22:14.0000000+00:00</time></trkpt><trkpt lat="30.86410713" lon="34.7718544"><ele>501.2</ele><time>2013-11-20T12:22:19.0000000+00:00</time></trkpt><trkpt lat="30.86414337" lon="34.77162933"><ele>499.0</ele><time>2013-11-20T12:22:24.0000000+00:00</time></trkpt><trkpt lat="30.8642025" lon="34.77139664"><ele>500.6</ele><time>2013-11-20T12:22:29.0000000+00:00</time></trkpt><trkpt lat="30.86432266" lon="34.77121353"><ele>502.3</ele><time>2013-11-20T12:22:34.0000000+00:00</time></trkpt><trkpt lat="30.86445046" lon="34.77103806"><ele>502.3</ele><time>2013-11-20T12:22:39.0000000+00:00</time></trkpt><trkpt lat="30.86455154" lon="34.77087402"><ele>501.9</ele><time>2013-11-20T12:22:44.0000000+00:00</time></trkpt><trkpt lat="30.86470032" lon="34.77077866"><ele>506.0</ele><time>2013-11-20T12:22:49.0000000+00:00</time></trkpt><trkpt lat="30.86483955" lon="34.77067947"><ele>508.5</ele><time>2013-11-20T12:22:54.0000000+00:00</time></trkpt><trkpt lat="30.86500549" lon="34.77057648"><ele>513.7</ele><time>2013-11-20T12:22:59.0000000+00:00</time></trkpt><trkpt lat="30.86515045" lon="34.7704773"><ele>511.7</ele><time>2013-11-20T12:23:04.0000000+00:00</time></trkpt><trkpt lat="30.86523056" lon="34.77041626"><ele>510.4</ele><time>2013-11-20T12:23:09.0000000+00:00</time></trkpt><trkpt lat="30.86533737" lon="34.77033615"><ele>508.9</ele><time>2013-11-20T12:23:14.0000000+00:00</time></trkpt><trkpt lat="30.86545944" lon="34.77028275"><ele>508.3</ele><time>2013-11-20T12:23:19.0000000+00:00</time></trkpt><trkpt lat="30.86557579" lon="34.77019119"><ele>507.9</ele><time>2013-11-20T12:23:24.0000000+00:00</time></trkpt><trkpt lat="30.86571312" lon="34.7701149"><ele>507.2</ele><time>2013-11-20T12:23:29.0000000+00:00</time></trkpt><trkpt lat="30.8658638" lon="34.77004242"><ele>505.4</ele><time>2013-11-20T12:23:34.0000000+00:00</time></trkpt><trkpt lat="30.86606407" lon="34.77002335"><ele>504.3</ele><time>2013-11-20T12:23:39.0000000+00:00</time></trkpt><trkpt lat="30.86626053" lon="34.7699852"><ele>502.9</ele><time>2013-11-20T12:23:44.0000000+00:00</time></trkpt><trkpt lat="30.86649895" lon="34.76998901"><ele>500.9</ele><time>2013-11-20T12:23:49.0000000+00:00</time></trkpt><trkpt lat="30.8667717" lon="34.77003479"><ele>499.4</ele><time>2013-11-20T12:23:54.0000000+00:00</time></trkpt><trkpt lat="30.86702728" lon="34.77004623"><ele>499.7</ele><time>2013-11-20T12:23:59.0000000+00:00</time></trkpt><trkpt lat="30.86728859" lon="34.77003098"><ele>498.5</ele><time>2013-11-20T12:24:04.0000000+00:00</time></trkpt><trkpt lat="30.86754036" lon="34.76993561"><ele>499.1</ele><time>2013-11-20T12:24:09.0000000+00:00</time></trkpt><trkpt lat="30.86779404" lon="34.76983261"><ele>499.4</ele><time>2013-11-20T12:24:14.0000000+00:00</time></trkpt><trkpt lat="30.86805344" lon="34.76980209"><ele>498.9</ele><time>2013-11-20T12:24:19.0000000+00:00</time></trkpt><trkpt lat="30.86831284" lon="34.7697525"><ele>498.1</ele><time>2013-11-20T12:24:24.0000000+00:00</time></trkpt><trkpt lat="30.86857414" lon="34.7696991"><ele>496.0</ele><time>2013-11-20T12:24:29.0000000+00:00</time></trkpt><trkpt lat="30.86884689" lon="34.76968384"><ele>494.5</ele><time>2013-11-20T12:24:34.0000000+00:00</time></trkpt><trkpt lat="30.86914635" lon="34.76957703"><ele>495.5</ele><time>2013-11-20T12:24:39.0000000+00:00</time></trkpt><trkpt lat="30.86945152" lon="34.76939774"><ele>494.9</ele><time>2013-11-20T12:24:44.0000000+00:00</time></trkpt><trkpt lat="30.86970902" lon="34.76934815"><ele>495.4</ele><time>2013-11-20T12:24:49.0000000+00:00</time></trkpt><trkpt lat="30.86995888" lon="34.76920319"><ele>496.2</ele><time>2013-11-20T12:24:54.0000000+00:00</time></trkpt><trkpt lat="30.87019539" lon="34.76902008"><ele>494.3</ele><time>2013-11-20T12:24:59.0000000+00:00</time></trkpt><trkpt lat="30.87042236" lon="34.76885986"><ele>495.3</ele><time>2013-11-20T12:25:04.0000000+00:00</time></trkpt><trkpt lat="30.87064743" lon="34.76873016"><ele>495.5</ele><time>2013-11-20T12:25:09.0000000+00:00</time></trkpt><trkpt lat="30.87077713" lon="34.76858139"><ele>493.8</ele><time>2013-11-20T12:25:14.0000000+00:00</time></trkpt><trkpt lat="30.87077713" lon="34.76849365"><ele>492.7</ele><time>2013-11-20T12:25:19.0000000+00:00</time></trkpt><trkpt lat="30.87076569" lon="34.76848984"><ele>492.3</ele><time>2013-11-20T12:25:24.0000000+00:00</time></trkpt><trkpt lat="30.87076378" lon="34.76848984"><ele>492.3</ele><time>2013-11-20T12:25:29.0000000+00:00</time></trkpt><trkpt lat="30.87076569" lon="34.76849365"><ele>492.2</ele><time>2013-11-20T12:25:34.0000000+00:00</time></trkpt><trkpt lat="30.87080193" lon="34.76855469"><ele>492.1</ele><time>2013-11-20T12:25:39.0000000+00:00</time></trkpt><trkpt lat="30.87092018" lon="34.7685318"><ele>491.7</ele><time>2013-11-20T12:25:44.0000000+00:00</time></trkpt><trkpt lat="30.87107849" lon="34.76842499"><ele>492.1</ele><time>2013-11-20T12:25:49.0000000+00:00</time></trkpt><trkpt lat="30.8712635" lon="34.76830292"><ele>496.0</ele><time>2013-11-20T12:25:54.0000000+00:00</time></trkpt><trkpt lat="30.87140656" lon="34.76812744"><ele>495.7</ele><time>2013-11-20T12:25:59.0000000+00:00</time></trkpt><trkpt lat="30.87155151" lon="34.76796722"><ele>496.0</ele><time>2013-11-20T12:26:04.0000000+00:00</time></trkpt><trkpt lat="30.87167931" lon="34.76786041"><ele>495.7</ele><time>2013-11-20T12:26:09.0000000+00:00</time></trkpt><trkpt lat="30.87170982" lon="34.76784134"><ele>494.5</ele><time>2013-11-20T12:26:14.0000000+00:00</time></trkpt><trkpt lat="30.87170792" lon="34.76783752"><ele>494.3</ele><time>2013-11-20T12:26:19.0000000+00:00</time></trkpt><trkpt lat="30.87170601" lon="34.76783752"><ele>494.3</ele><time>2013-11-20T12:26:24.0000000+00:00</time></trkpt><trkpt lat="30.8717041" lon="34.76783371"><ele>494.3</ele><time>2013-11-20T12:26:29.0000000+00:00</time></trkpt><trkpt lat="30.8717041" lon="34.76783371"><ele>494.4</ele><time>2013-11-20T12:26:34.0000000+00:00</time></trkpt><trkpt lat="30.8717041" lon="34.76783371"><ele>494.4</ele><time>2013-11-20T12:26:39.0000000+00:00</time></trkpt><trkpt lat="30.87170219" lon="34.76783371"><ele>494.5</ele><time>2013-11-20T12:26:44.0000000+00:00</time></trkpt><trkpt lat="30.8717041" lon="34.76783752"><ele>494.6</ele><time>2013-11-20T12:26:49.0000000+00:00</time></trkpt><trkpt lat="30.8717041" lon="34.76783752"><ele>494.6</ele><time>2013-11-20T12:26:54.0000000+00:00</time></trkpt><trkpt lat="30.87170601" lon="34.76783371"><ele>494.7</ele><time>2013-11-20T12:26:59.0000000+00:00</time></trkpt><trkpt lat="30.8717041" lon="34.76782608"><ele>494.8</ele><time>2013-11-20T12:27:04.0000000+00:00</time></trkpt><trkpt lat="30.8717041" lon="34.76782227"><ele>494.8</ele><time>2013-11-20T12:27:09.0000000+00:00</time></trkpt><trkpt lat="30.87170982" lon="34.76781464"><ele>494.9</ele><time>2013-11-20T12:27:14.0000000+00:00</time></trkpt><trkpt lat="30.87171364" lon="34.76780701"><ele>494.9</ele><time>2013-11-20T12:27:19.0000000+00:00</time></trkpt><trkpt lat="30.87170982" lon="34.76780319"><ele>494.9</ele><time>2013-11-20T12:27:24.0000000+00:00</time></trkpt><trkpt lat="30.8718586" lon="34.76771545"><ele>495.6</ele><time>2013-11-20T12:27:29.0000000+00:00</time></trkpt><trkpt lat="30.87208939" lon="34.76763153"><ele>496.9</ele><time>2013-11-20T12:27:34.0000000+00:00</time></trkpt><trkpt lat="30.87235451" lon="34.76752091"><ele>493.4</ele><time>2013-11-20T12:27:39.0000000+00:00</time></trkpt><trkpt lat="30.87265587" lon="34.76743317"><ele>490.9</ele><time>2013-11-20T12:27:44.0000000+00:00</time></trkpt><trkpt lat="30.87290382" lon="34.76741028"><ele>488.5</ele><time>2013-11-20T12:27:49.0000000+00:00</time></trkpt><trkpt lat="30.87311745" lon="34.76736832"><ele>486.6</ele><time>2013-11-20T12:27:54.0000000+00:00</time></trkpt><trkpt lat="30.87330818" lon="34.7671814"><ele>485.9</ele><time>2013-11-20T12:27:59.0000000+00:00</time></trkpt><trkpt lat="30.87347221" lon="34.76706314"><ele>486.0</ele><time>2013-11-20T12:28:04.0000000+00:00</time></trkpt><trkpt lat="30.87365723" lon="34.76693726"><ele>487.3</ele><time>2013-11-20T12:28:09.0000000+00:00</time></trkpt><trkpt lat="30.873806" lon="34.76673889"><ele>487.8</ele><time>2013-11-20T12:28:14.0000000+00:00</time></trkpt><trkpt lat="30.8739624" lon="34.76648331"><ele>483.5</ele><time>2013-11-20T12:28:19.0000000+00:00</time></trkpt><trkpt lat="30.8741436" lon="34.76626205"><ele>482.4</ele><time>2013-11-20T12:28:24.0000000+00:00</time></trkpt><trkpt lat="30.8743782" lon="34.76617813"><ele>479.5</ele><time>2013-11-20T12:28:29.0000000+00:00</time></trkpt><trkpt lat="30.8746357" lon="34.76618195"><ele>478.5</ele><time>2013-11-20T12:28:34.0000000+00:00</time></trkpt><trkpt lat="30.87489128" lon="34.76620483"><ele>476.6</ele><time>2013-11-20T12:28:39.0000000+00:00</time></trkpt><trkpt lat="30.87510109" lon="34.76621246"><ele>473.1</ele><time>2013-11-20T12:28:44.0000000+00:00</time></trkpt><trkpt lat="30.87527084" lon="34.76623154"><ele>474.4</ele><time>2013-11-20T12:28:49.0000000+00:00</time></trkpt><trkpt lat="30.87551308" lon="34.76621628"><ele>473.4</ele><time>2013-11-20T12:28:54.0000000+00:00</time></trkpt><trkpt lat="30.87574387" lon="34.76618958"><ele>472.4</ele><time>2013-11-20T12:28:59.0000000+00:00</time></trkpt><trkpt lat="30.87598801" lon="34.7661438"><ele>471.3</ele><time>2013-11-20T12:29:04.0000000+00:00</time></trkpt><trkpt lat="30.87623215" lon="34.7661171"><ele>468.0</ele><time>2013-11-20T12:29:09.0000000+00:00</time></trkpt><trkpt lat="30.87643242" lon="34.76607513"><ele>465.9</ele><time>2013-11-20T12:29:14.0000000+00:00</time></trkpt><trkpt lat="30.87645912" lon="34.76607513"><ele>467.3</ele><time>2013-11-20T12:29:19.0000000+00:00</time></trkpt><trkpt lat="30.87646675" lon="34.76607513"><ele>467.1</ele><time>2013-11-20T12:29:24.0000000+00:00</time></trkpt><trkpt lat="30.87647057" lon="34.76607895"><ele>467.2</ele><time>2013-11-20T12:29:29.0000000+00:00</time></trkpt><trkpt lat="30.87645721" lon="34.76609802"><ele>467.2</ele><time>2013-11-20T12:29:34.0000000+00:00</time></trkpt><trkpt lat="30.87643623" lon="34.76612473"><ele>467.1</ele><time>2013-11-20T12:29:39.0000000+00:00</time></trkpt><trkpt lat="30.87643051" lon="34.76612854"><ele>467.2</ele><time>2013-11-20T12:29:44.0000000+00:00</time></trkpt><trkpt lat="30.8764286" lon="34.76612854"><ele>467.3</ele><time>2013-11-20T12:29:49.0000000+00:00</time></trkpt><trkpt lat="30.8764286" lon="34.76612854"><ele>467.3</ele><time>2013-11-20T12:29:54.0000000+00:00</time></trkpt><trkpt lat="30.8764286" lon="34.76612854"><ele>467.3</ele><time>2013-11-20T12:29:59.0000000+00:00</time></trkpt><trkpt lat="30.8764286" lon="34.76612854"><ele>467.3</ele><time>2013-11-20T12:30:04.0000000+00:00</time></trkpt><trkpt lat="30.8764286" lon="34.76613236"><ele>467.3</ele><time>2013-11-20T12:30:09.0000000+00:00</time></trkpt><trkpt lat="30.87650108" lon="34.76620483"><ele>468.6</ele><time>2013-11-20T12:30:14.0000000+00:00</time></trkpt><trkpt lat="30.87661552" lon="34.76633453"><ele>470.3</ele><time>2013-11-20T12:30:19.0000000+00:00</time></trkpt><trkpt lat="30.87672043" lon="34.76641464"><ele>470.4</ele><time>2013-11-20T12:30:24.0000000+00:00</time></trkpt><trkpt lat="30.87685967" lon="34.76652527"><ele>470.8</ele><time>2013-11-20T12:30:29.0000000+00:00</time></trkpt><trkpt lat="30.87697029" lon="34.7666893"><ele>470.4</ele><time>2013-11-20T12:30:34.0000000+00:00</time></trkpt><trkpt lat="30.8770504" lon="34.76694489"><ele>471.7</ele><time>2013-11-20T12:30:39.0000000+00:00</time></trkpt><trkpt lat="30.87713242" lon="34.7671814"><ele>476.0</ele><time>2013-11-20T12:30:44.0000000+00:00</time></trkpt><trkpt lat="30.87712097" lon="34.76734161"><ele>477.1</ele><time>2013-11-20T12:30:49.0000000+00:00</time></trkpt><trkpt lat="30.87709999" lon="34.7674942"><ele>478.3</ele><time>2013-11-20T12:30:54.0000000+00:00</time></trkpt><trkpt lat="30.87714577" lon="34.7676506"><ele>477.6</ele><time>2013-11-20T12:30:59.0000000+00:00</time></trkpt><trkpt lat="30.87725258" lon="34.76773453"><ele>479.1</ele><time>2013-11-20T12:31:04.0000000+00:00</time></trkpt><trkpt lat="30.87734795" lon="34.76777649"><ele>478.4</ele><time>2013-11-20T12:31:09.0000000+00:00</time></trkpt><trkpt lat="30.87737846" lon="34.76779175"><ele>477.0</ele><time>2013-11-20T12:31:14.0000000+00:00</time></trkpt><trkpt lat="30.87737465" lon="34.76779175"><ele>477.2</ele><time>2013-11-20T12:31:19.0000000+00:00</time></trkpt><trkpt lat="30.87737465" lon="34.76779175"><ele>477.2</ele><time>2013-11-20T12:31:24.0000000+00:00</time></trkpt><trkpt lat="30.87737274" lon="34.76779556"><ele>477.3</ele><time>2013-11-20T12:31:29.0000000+00:00</time></trkpt><trkpt lat="30.87737083" lon="34.76779556"><ele>477.4</ele><time>2013-11-20T12:31:34.0000000+00:00</time></trkpt><trkpt lat="30.87744522" lon="34.7678566"><ele>477.7</ele><time>2013-11-20T12:31:39.0000000+00:00</time></trkpt><trkpt lat="30.8775692" lon="34.76796722"><ele>479.4</ele><time>2013-11-20T12:31:44.0000000+00:00</time></trkpt><trkpt lat="30.87773705" lon="34.76797104"><ele>478.6</ele><time>2013-11-20T12:31:49.0000000+00:00</time></trkpt><trkpt lat="30.87791634" lon="34.76793289"><ele>483.1</ele><time>2013-11-20T12:31:54.0000000+00:00</time></trkpt><trkpt lat="30.87800789" lon="34.76790237"><ele>484.4</ele><time>2013-11-20T12:31:59.0000000+00:00</time></trkpt><trkpt lat="30.87809563" lon="34.76794052"><ele>487.3</ele><time>2013-11-20T12:32:04.0000000+00:00</time></trkpt><trkpt lat="30.87824249" lon="34.76798248"><ele>490.3</ele><time>2013-11-20T12:32:09.0000000+00:00</time></trkpt><trkpt lat="30.87838745" lon="34.76808167"><ele>490.9</ele><time>2013-11-20T12:32:14.0000000+00:00</time></trkpt><trkpt lat="30.87846375" lon="34.7681694"><ele>490.0</ele><time>2013-11-20T12:32:19.0000000+00:00</time></trkpt><trkpt lat="30.87846565" lon="34.76816177"><ele>489.9</ele><time>2013-11-20T12:32:24.0000000+00:00</time></trkpt><trkpt lat="30.87846565" lon="34.76816177"><ele>489.9</ele><time>2013-11-20T12:32:29.0000000+00:00</time></trkpt><trkpt lat="30.87846565" lon="34.76816177"><ele>489.9</ele><time>2013-11-20T12:32:34.0000000+00:00</time></trkpt><trkpt lat="30.87846565" lon="34.76816559"><ele>489.9</ele><time>2013-11-20T12:32:39.0000000+00:00</time></trkpt><trkpt lat="30.87846375" lon="34.76816559"><ele>489.9</ele><time>2013-11-20T12:32:44.0000000+00:00</time></trkpt><trkpt lat="30.87846565" lon="34.76816559"><ele>489.8</ele><time>2013-11-20T12:32:49.0000000+00:00</time></trkpt><trkpt lat="30.87846375" lon="34.7681694"><ele>489.8</ele><time>2013-11-20T12:32:54.0000000+00:00</time></trkpt><trkpt lat="30.87846375" lon="34.7681694"><ele>489.8</ele><time>2013-11-20T12:32:59.0000000+00:00</time></trkpt><trkpt lat="30.87845993" lon="34.76816559"><ele>489.7</ele><time>2013-11-20T12:33:04.0000000+00:00</time></trkpt><trkpt lat="30.87845421" lon="34.76816177"><ele>489.6</ele><time>2013-11-20T12:33:09.0000000+00:00</time></trkpt><trkpt lat="30.87845421" lon="34.76815796"><ele>489.5</ele><time>2013-11-20T12:33:14.0000000+00:00</time></trkpt><trkpt lat="30.87845421" lon="34.76815796"><ele>489.3</ele><time>2013-11-20T12:33:19.0000000+00:00</time></trkpt><trkpt lat="30.87845421" lon="34.76815796"><ele>489.3</ele><time>2013-11-20T12:33:24.0000000+00:00</time></trkpt><trkpt lat="30.87845421" lon="34.76815796"><ele>489.3</ele><time>2013-11-20T12:33:29.0000000+00:00</time></trkpt><trkpt lat="30.87845421" lon="34.76815796"><ele>489.2</ele><time>2013-11-20T12:33:34.0000000+00:00</time></trkpt><trkpt lat="30.87845421" lon="34.76815796"><ele>489.2</ele><time>2013-11-20T12:33:39.0000000+00:00</time></trkpt><trkpt lat="30.87845421" lon="34.76815796"><ele>489.1</ele><time>2013-11-20T12:33:44.0000000+00:00</time></trkpt><trkpt lat="30.87845421" lon="34.76815796"><ele>489.1</ele><time>2013-11-20T12:33:49.0000000+00:00</time></trkpt><trkpt lat="30.87845421" lon="34.76815796"><ele>489.0</ele><time>2013-11-20T12:33:54.0000000+00:00</time></trkpt><trkpt lat="30.87845421" lon="34.76815796"><ele>489.0</ele><time>2013-11-20T12:33:59.0000000+00:00</time></trkpt><trkpt lat="30.87845421" lon="34.76815796"><ele>489.0</ele><time>2013-11-20T12:34:04.0000000+00:00</time></trkpt><trkpt lat="30.87845421" lon="34.76815796"><ele>488.9</ele><time>2013-11-20T12:34:09.0000000+00:00</time></trkpt><trkpt lat="30.87845421" lon="34.76815796"><ele>488.9</ele><time>2013-11-20T12:34:14.0000000+00:00</time></trkpt><trkpt lat="30.87845421" lon="34.76815796"><ele>488.9</ele><time>2013-11-20T12:34:19.0000000+00:00</time></trkpt><trkpt lat="30.87845421" lon="34.76815796"><ele>488.8</ele><time>2013-11-20T12:34:24.0000000+00:00</time></trkpt><trkpt lat="30.87845421" lon="34.76815796"><ele>488.8</ele><time>2013-11-20T12:34:29.0000000+00:00</time></trkpt><trkpt lat="30.87845421" lon="34.76815796"><ele>488.7</ele><time>2013-11-20T12:34:34.0000000+00:00</time></trkpt><trkpt lat="30.87845421" lon="34.76815796"><ele>488.7</ele><time>2013-11-20T12:34:39.0000000+00:00</time></trkpt><trkpt lat="30.87845421" lon="34.76815796"><ele>488.7</ele><time>2013-11-20T12:34:44.0000000+00:00</time></trkpt><trkpt lat="30.87845421" lon="34.76815796"><ele>488.6</ele><time>2013-11-20T12:34:49.0000000+00:00</time></trkpt><trkpt lat="30.87845421" lon="34.76815796"><ele>488.6</ele><time>2013-11-20T12:34:54.0000000+00:00</time></trkpt><trkpt lat="30.87845421" lon="34.76815796"><ele>488.6</ele><time>2013-11-20T12:34:59.0000000+00:00</time></trkpt><trkpt lat="30.87845421" lon="34.76815796"><ele>488.5</ele><time>2013-11-20T12:35:04.0000000+00:00</time></trkpt><trkpt lat="30.87845421" lon="34.76815796"><ele>488.5</ele><time>2013-11-20T12:35:09.0000000+00:00</time></trkpt><trkpt lat="30.87845421" lon="34.76815414"><ele>488.5</ele><time>2013-11-20T12:35:14.0000000+00:00</time></trkpt><trkpt lat="30.87845421" lon="34.76815414"><ele>488.5</ele><time>2013-11-20T12:35:19.0000000+00:00</time></trkpt><trkpt lat="30.87845421" lon="34.76815414"><ele>488.4</ele><time>2013-11-20T12:35:24.0000000+00:00</time></trkpt><trkpt lat="30.87845421" lon="34.76815414"><ele>488.4</ele><time>2013-11-20T12:35:29.0000000+00:00</time></trkpt><trkpt lat="30.87845421" lon="34.76815414"><ele>488.4</ele><time>2013-11-20T12:35:34.0000000+00:00</time></trkpt><trkpt lat="30.87845421" lon="34.76815414"><ele>488.3</ele><time>2013-11-20T12:35:39.0000000+00:00</time></trkpt><trkpt lat="30.87845421" lon="34.76815414"><ele>488.3</ele><time>2013-11-20T12:35:44.0000000+00:00</time></trkpt><trkpt lat="30.87845421" lon="34.76815414"><ele>488.3</ele><time>2013-11-20T12:35:49.0000000+00:00</time></trkpt><trkpt lat="30.87845421" lon="34.76815414"><ele>488.3</ele><time>2013-11-20T12:35:54.0000000+00:00</time></trkpt><trkpt lat="30.87845421" lon="34.76815414"><ele>488.3</ele><time>2013-11-20T12:35:59.0000000+00:00</time></trkpt><trkpt lat="30.87845421" lon="34.76815414"><ele>488.3</ele><time>2013-11-20T12:36:04.0000000+00:00</time></trkpt><trkpt lat="30.87845421" lon="34.76815414"><ele>488.2</ele><time>2013-11-20T12:36:09.0000000+00:00</time></trkpt><trkpt lat="30.87845421" lon="34.76815414"><ele>488.2</ele><time>2013-11-20T12:36:14.0000000+00:00</time></trkpt><trkpt lat="30.87845421" lon="34.76815414"><ele>488.2</ele><time>2013-11-20T12:36:19.0000000+00:00</time></trkpt><trkpt lat="30.87845421" lon="34.76815414"><ele>488.1</ele><time>2013-11-20T12:36:24.0000000+00:00</time></trkpt><trkpt lat="30.87845421" lon="34.76815414"><ele>488.1</ele><time>2013-11-20T12:36:29.0000000+00:00</time></trkpt><trkpt lat="30.87845421" lon="34.76815414"><ele>488.1</ele><time>2013-11-20T12:36:34.0000000+00:00</time></trkpt><trkpt lat="30.87845421" lon="34.76815414"><ele>488.1</ele><time>2013-11-20T12:36:39.0000000+00:00</time></trkpt><trkpt lat="30.87845421" lon="34.76815414"><ele>488.1</ele><time>2013-11-20T12:36:44.0000000+00:00</time></trkpt><trkpt lat="30.87845421" lon="34.76815414"><ele>488.0</ele><time>2013-11-20T12:36:49.0000000+00:00</time></trkpt><trkpt lat="30.87845421" lon="34.76815414"><ele>488.0</ele><time>2013-11-20T12:36:54.0000000+00:00</time></trkpt><trkpt lat="30.87845421" lon="34.76815414"><ele>488.0</ele><time>2013-11-20T12:36:59.0000000+00:00</time></trkpt><trkpt lat="30.87845421" lon="34.76815414"><ele>488.0</ele><time>2013-11-20T12:37:04.0000000+00:00</time></trkpt><trkpt lat="30.87845421" lon="34.76815414"><ele>488.0</ele><time>2013-11-20T12:37:09.0000000+00:00</time></trkpt><trkpt lat="30.87845421" lon="34.76815414"><ele>487.9</ele><time>2013-11-20T12:37:14.0000000+00:00</time></trkpt><trkpt lat="30.87845421" lon="34.76815414"><ele>487.9</ele><time>2013-11-20T12:37:19.0000000+00:00</time></trkpt><trkpt lat="30.87845421" lon="34.76815414"><ele>487.9</ele><time>2013-11-20T12:37:24.0000000+00:00</time></trkpt><trkpt lat="30.87845421" lon="34.76815414"><ele>487.9</ele><time>2013-11-20T12:37:29.0000000+00:00</time></trkpt><trkpt lat="30.8784523" lon="34.76815414"><ele>487.8</ele><time>2013-11-20T12:37:34.0000000+00:00</time></trkpt><trkpt lat="30.8784523" lon="34.76815414"><ele>487.8</ele><time>2013-11-20T12:37:39.0000000+00:00</time></trkpt><trkpt lat="30.8784523" lon="34.76815414"><ele>487.8</ele><time>2013-11-20T12:37:44.0000000+00:00</time></trkpt><trkpt lat="30.8784523" lon="34.76815414"><ele>487.8</ele><time>2013-11-20T12:37:49.0000000+00:00</time></trkpt><trkpt lat="30.8784523" lon="34.76815414"><ele>487.7</ele><time>2013-11-20T12:37:54.0000000+00:00</time></trkpt><trkpt lat="30.8784523" lon="34.76815414"><ele>487.7</ele><time>2013-11-20T12:37:59.0000000+00:00</time></trkpt><trkpt lat="30.8784523" lon="34.76815414"><ele>487.6</ele><time>2013-11-20T12:38:04.0000000+00:00</time></trkpt><trkpt lat="30.8784523" lon="34.76815414"><ele>487.6</ele><time>2013-11-20T12:38:09.0000000+00:00</time></trkpt><trkpt lat="30.8784523" lon="34.76815414"><ele>487.6</ele><time>2013-11-20T12:38:14.0000000+00:00</time></trkpt><trkpt lat="30.8784523" lon="34.76815414"><ele>487.6</ele><time>2013-11-20T12:38:19.0000000+00:00</time></trkpt><trkpt lat="30.8784523" lon="34.76815414"><ele>487.5</ele><time>2013-11-20T12:38:24.0000000+00:00</time></trkpt><trkpt lat="30.8784523" lon="34.76815414"><ele>487.5</ele><time>2013-11-20T12:38:29.0000000+00:00</time></trkpt><trkpt lat="30.8784523" lon="34.76815414"><ele>487.5</ele><time>2013-11-20T12:38:34.0000000+00:00</time></trkpt><trkpt lat="30.8784523" lon="34.76815414"><ele>487.4</ele><time>2013-11-20T12:38:39.0000000+00:00</time></trkpt><trkpt lat="30.8784523" lon="34.76815414"><ele>487.4</ele><time>2013-11-20T12:38:44.0000000+00:00</time></trkpt><trkpt lat="30.8784523" lon="34.76815414"><ele>487.4</ele><time>2013-11-20T12:38:49.0000000+00:00</time></trkpt><trkpt lat="30.8784523" lon="34.76815414"><ele>487.4</ele><time>2013-11-20T12:38:54.0000000+00:00</time></trkpt><trkpt lat="30.8784523" lon="34.76815414"><ele>487.4</ele><time>2013-11-20T12:38:59.0000000+00:00</time></trkpt><trkpt lat="30.8784523" lon="34.76815414"><ele>487.4</ele><time>2013-11-20T12:39:04.0000000+00:00</time></trkpt><trkpt lat="30.8784523" lon="34.76815414"><ele>487.4</ele><time>2013-11-20T12:39:09.0000000+00:00</time></trkpt><trkpt lat="30.8784523" lon="34.76815414"><ele>487.4</ele><time>2013-11-20T12:39:14.0000000+00:00</time></trkpt><trkpt lat="30.8784523" lon="34.76815033"><ele>487.3</ele><time>2013-11-20T12:39:19.0000000+00:00</time></trkpt><trkpt lat="30.8784523" lon="34.76815033"><ele>487.3</ele><time>2013-11-20T12:39:24.0000000+00:00</time></trkpt><trkpt lat="30.8784523" lon="34.76815033"><ele>487.3</ele><time>2013-11-20T12:39:29.0000000+00:00</time></trkpt><trkpt lat="30.8784523" lon="34.76815033"><ele>487.2</ele><time>2013-11-20T12:39:34.0000000+00:00</time></trkpt><trkpt lat="30.8784523" lon="34.76815033"><ele>487.2</ele><time>2013-11-20T12:39:39.0000000+00:00</time></trkpt><trkpt lat="30.8784523" lon="34.76815033"><ele>487.2</ele><time>2013-11-20T12:39:44.0000000+00:00</time></trkpt><trkpt lat="30.8784523" lon="34.76815033"><ele>487.1</ele><time>2013-11-20T12:39:49.0000000+00:00</time></trkpt><trkpt lat="30.8784523" lon="34.76815033"><ele>487.0</ele><time>2013-11-20T12:39:54.0000000+00:00</time></trkpt><trkpt lat="30.8784523" lon="34.76815414"><ele>487.0</ele><time>2013-11-20T12:39:59.0000000+00:00</time></trkpt><trkpt lat="30.8784523" lon="34.76815414"><ele>486.9</ele><time>2013-11-20T12:40:04.0000000+00:00</time></trkpt><trkpt lat="30.8784523" lon="34.76815414"><ele>486.9</ele><time>2013-11-20T12:40:09.0000000+00:00</time></trkpt><trkpt lat="30.8784523" lon="34.76815414"><ele>486.8</ele><time>2013-11-20T12:40:14.0000000+00:00</time></trkpt><trkpt lat="30.8784523" lon="34.76815414"><ele>486.8</ele><time>2013-11-20T12:40:19.0000000+00:00</time></trkpt><trkpt lat="30.8784523" lon="34.76815414"><ele>486.7</ele><time>2013-11-20T12:40:24.0000000+00:00</time></trkpt><trkpt lat="30.8784523" lon="34.76815414"><ele>486.7</ele><time>2013-11-20T12:40:29.0000000+00:00</time></trkpt><trkpt lat="30.8784523" lon="34.76815414"><ele>486.6</ele><time>2013-11-20T12:40:34.0000000+00:00</time></trkpt><trkpt lat="30.8784523" lon="34.76815414"><ele>486.6</ele><time>2013-11-20T12:40:39.0000000+00:00</time></trkpt><trkpt lat="30.8784523" lon="34.76815414"><ele>486.5</ele><time>2013-11-20T12:40:44.0000000+00:00</time></trkpt><trkpt lat="30.8784523" lon="34.76815414"><ele>486.5</ele><time>2013-11-20T12:40:49.0000000+00:00</time></trkpt><trkpt lat="30.8784523" lon="34.76815414"><ele>486.5</ele><time>2013-11-20T12:40:54.0000000+00:00</time></trkpt><trkpt lat="30.8784523" lon="34.76815414"><ele>486.4</ele><time>2013-11-20T12:40:59.0000000+00:00</time></trkpt><trkpt lat="30.8784523" lon="34.76815414"><ele>486.4</ele><time>2013-11-20T12:41:04.0000000+00:00</time></trkpt><trkpt lat="30.8784523" lon="34.76815414"><ele>486.3</ele><time>2013-11-20T12:41:09.0000000+00:00</time></trkpt><trkpt lat="30.8784523" lon="34.76815033"><ele>486.3</ele><time>2013-11-20T12:41:14.0000000+00:00</time></trkpt><trkpt lat="30.8784523" lon="34.76815033"><ele>486.2</ele><time>2013-11-20T12:41:19.0000000+00:00</time></trkpt><trkpt lat="30.8784523" lon="34.76815033"><ele>486.2</ele><time>2013-11-20T12:41:24.0000000+00:00</time></trkpt><trkpt lat="30.8784523" lon="34.76815033"><ele>486.1</ele><time>2013-11-20T12:41:29.0000000+00:00</time></trkpt><trkpt lat="30.87845421" lon="34.76815033"><ele>486.0</ele><time>2013-11-20T12:41:34.0000000+00:00</time></trkpt><trkpt lat="30.87845421" lon="34.76815033"><ele>486.0</ele><time>2013-11-20T12:41:39.0000000+00:00</time></trkpt><trkpt lat="30.87845421" lon="34.76815033"><ele>485.9</ele><time>2013-11-20T12:41:44.0000000+00:00</time></trkpt><trkpt lat="30.87845421" lon="34.76815033"><ele>485.9</ele><time>2013-11-20T12:41:49.0000000+00:00</time></trkpt><trkpt lat="30.87845421" lon="34.76815033"><ele>485.8</ele><time>2013-11-20T12:41:54.0000000+00:00</time></trkpt><trkpt lat="30.87845421" lon="34.76815033"><ele>485.8</ele><time>2013-11-20T12:41:59.0000000+00:00</time></trkpt><trkpt lat="30.87845421" lon="34.76815033"><ele>485.8</ele><time>2013-11-20T12:42:04.0000000+00:00</time></trkpt><trkpt lat="30.87845421" lon="34.76815033"><ele>485.7</ele><time>2013-11-20T12:42:09.0000000+00:00</time></trkpt><trkpt lat="30.87845421" lon="34.76815033"><ele>485.7</ele><time>2013-11-20T12:42:14.0000000+00:00</time></trkpt><trkpt lat="30.87845421" lon="34.76815414"><ele>485.7</ele><time>2013-11-20T12:42:19.0000000+00:00</time></trkpt><trkpt lat="30.87845421" lon="34.76815414"><ele>485.6</ele><time>2013-11-20T12:42:24.0000000+00:00</time></trkpt><trkpt lat="30.87845421" lon="34.76815414"><ele>485.6</ele><time>2013-11-20T12:42:29.0000000+00:00</time></trkpt><trkpt lat="30.8784523" lon="34.76815414"><ele>485.6</ele><time>2013-11-20T12:42:34.0000000+00:00</time></trkpt><trkpt lat="30.8784523" lon="34.76815414"><ele>485.6</ele><time>2013-11-20T12:42:39.0000000+00:00</time></trkpt><trkpt lat="30.8784523" lon="34.76815414"><ele>485.6</ele><time>2013-11-20T12:42:44.0000000+00:00</time></trkpt><trkpt lat="30.8784523" lon="34.76815414"><ele>485.6</ele><time>2013-11-20T12:42:49.0000000+00:00</time></trkpt><trkpt lat="30.8784523" lon="34.76815414"><ele>485.6</ele><time>2013-11-20T12:42:54.0000000+00:00</time></trkpt><trkpt lat="30.8784523" lon="34.76815414"><ele>485.6</ele><time>2013-11-20T12:42:59.0000000+00:00</time></trkpt><trkpt lat="30.8784523" lon="34.76815796"><ele>485.6</ele><time>2013-11-20T12:43:04.0000000+00:00</time></trkpt><trkpt lat="30.8784523" lon="34.76815796"><ele>485.6</ele><time>2013-11-20T12:43:09.0000000+00:00</time></trkpt><trkpt lat="30.8784523" lon="34.76815796"><ele>485.6</ele><time>2013-11-20T12:43:14.0000000+00:00</time></trkpt><trkpt lat="30.87845039" lon="34.76815796"><ele>485.5</ele><time>2013-11-20T12:43:19.0000000+00:00</time></trkpt><trkpt lat="30.87845039" lon="34.76815796"><ele>485.5</ele><time>2013-11-20T12:43:24.0000000+00:00</time></trkpt><trkpt lat="30.87845039" lon="34.76815796"><ele>485.5</ele><time>2013-11-20T12:43:29.0000000+00:00</time></trkpt><trkpt lat="30.87845039" lon="34.76815796"><ele>485.5</ele><time>2013-11-20T12:43:34.0000000+00:00</time></trkpt><trkpt lat="30.87845039" lon="34.76815796"><ele>485.5</ele><time>2013-11-20T12:43:39.0000000+00:00</time></trkpt><trkpt lat="30.87845039" lon="34.76815796"><ele>485.5</ele><time>2013-11-20T12:43:44.0000000+00:00</time></trkpt><trkpt lat="30.87845039" lon="34.76815796"><ele>485.5</ele><time>2013-11-20T12:43:49.0000000+00:00</time></trkpt><trkpt lat="30.87844849" lon="34.76815796"><ele>485.5</ele><time>2013-11-20T12:43:54.0000000+00:00</time></trkpt><trkpt lat="30.87844849" lon="34.76815796"><ele>485.5</ele><time>2013-11-20T12:43:59.0000000+00:00</time></trkpt><trkpt lat="30.87844849" lon="34.76815796"><ele>485.5</ele><time>2013-11-20T12:44:04.0000000+00:00</time></trkpt><trkpt lat="30.87844849" lon="34.76815796"><ele>485.5</ele><time>2013-11-20T12:44:09.0000000+00:00</time></trkpt><trkpt lat="30.87844849" lon="34.76816177"><ele>485.5</ele><time>2013-11-20T12:44:14.0000000+00:00</time></trkpt><trkpt lat="30.87844849" lon="34.76816177"><ele>485.5</ele><time>2013-11-20T12:44:19.0000000+00:00</time></trkpt><trkpt lat="30.87844849" lon="34.76816177"><ele>485.5</ele><time>2013-11-20T12:44:24.0000000+00:00</time></trkpt><trkpt lat="30.87844849" lon="34.76816177"><ele>485.4</ele><time>2013-11-20T12:44:29.0000000+00:00</time></trkpt><trkpt lat="30.87844849" lon="34.76816177"><ele>485.4</ele><time>2013-11-20T12:44:34.0000000+00:00</time></trkpt><trkpt lat="30.87844849" lon="34.76816177"><ele>485.4</ele><time>2013-11-20T12:44:39.0000000+00:00</time></trkpt><trkpt lat="30.87844849" lon="34.76816177"><ele>485.4</ele><time>2013-11-20T12:44:44.0000000+00:00</time></trkpt><trkpt lat="30.87844658" lon="34.76816177"><ele>485.4</ele><time>2013-11-20T12:44:49.0000000+00:00</time></trkpt><trkpt lat="30.87844658" lon="34.76816177"><ele>485.4</ele><time>2013-11-20T12:44:54.0000000+00:00</time></trkpt><trkpt lat="30.87844658" lon="34.76816177"><ele>485.4</ele><time>2013-11-20T12:44:59.0000000+00:00</time></trkpt><trkpt lat="30.87844658" lon="34.76816177"><ele>485.4</ele><time>2013-11-20T12:45:04.0000000+00:00</time></trkpt><trkpt lat="30.87844658" lon="34.76816177"><ele>485.4</ele><time>2013-11-20T12:45:09.0000000+00:00</time></trkpt><trkpt lat="30.87844658" lon="34.76816559"><ele>485.4</ele><time>2013-11-20T12:45:14.0000000+00:00</time></trkpt><trkpt lat="30.87844658" lon="34.76816559"><ele>485.4</ele><time>2013-11-20T12:45:19.0000000+00:00</time></trkpt><trkpt lat="30.87844658" lon="34.76816559"><ele>485.4</ele><time>2013-11-20T12:45:24.0000000+00:00</time></trkpt><trkpt lat="30.87844658" lon="34.76816559"><ele>485.4</ele><time>2013-11-20T12:45:29.0000000+00:00</time></trkpt><trkpt lat="30.87844658" lon="34.76816559"><ele>485.4</ele><time>2013-11-20T12:45:34.0000000+00:00</time></trkpt><trkpt lat="30.87844467" lon="34.76816559"><ele>485.4</ele><time>2013-11-20T12:45:39.0000000+00:00</time></trkpt><trkpt lat="30.87844467" lon="34.76816559"><ele>485.4</ele><time>2013-11-20T12:45:44.0000000+00:00</time></trkpt><trkpt lat="30.87844467" lon="34.76816559"><ele>485.3</ele><time>2013-11-20T12:45:49.0000000+00:00</time></trkpt><trkpt lat="30.87844467" lon="34.76816559"><ele>485.3</ele><time>2013-11-20T12:45:54.0000000+00:00</time></trkpt><trkpt lat="30.87844467" lon="34.76816559"><ele>485.3</ele><time>2013-11-20T12:45:59.0000000+00:00</time></trkpt><trkpt lat="30.87844467" lon="34.76816559"><ele>485.3</ele><time>2013-11-20T12:46:04.0000000+00:00</time></trkpt><trkpt lat="30.87844467" lon="34.76816559"><ele>485.3</ele><time>2013-11-20T12:46:09.0000000+00:00</time></trkpt><trkpt lat="30.87844467" lon="34.76816559"><ele>485.3</ele><time>2013-11-20T12:46:14.0000000+00:00</time></trkpt><trkpt lat="30.87844467" lon="34.76816559"><ele>485.3</ele><time>2013-11-20T12:46:19.0000000+00:00</time></trkpt><trkpt lat="30.87844467" lon="34.76816559"><ele>485.3</ele><time>2013-11-20T12:46:24.0000000+00:00</time></trkpt><trkpt lat="30.87844467" lon="34.76816559"><ele>485.3</ele><time>2013-11-20T12:46:29.0000000+00:00</time></trkpt><trkpt lat="30.87844276" lon="34.76816559"><ele>485.3</ele><time>2013-11-20T12:46:34.0000000+00:00</time></trkpt><trkpt lat="30.87844276" lon="34.7681694"><ele>485.3</ele><time>2013-11-20T12:46:39.0000000+00:00</time></trkpt><trkpt lat="30.87844276" lon="34.7681694"><ele>485.3</ele><time>2013-11-20T12:46:44.0000000+00:00</time></trkpt><trkpt lat="30.87844276" lon="34.7681694"><ele>485.3</ele><time>2013-11-20T12:46:49.0000000+00:00</time></trkpt><trkpt lat="30.87844276" lon="34.7681694"><ele>485.3</ele><time>2013-11-20T12:46:54.0000000+00:00</time></trkpt><trkpt lat="30.87844276" lon="34.7681694"><ele>485.3</ele><time>2013-11-20T12:46:59.0000000+00:00</time></trkpt><trkpt lat="30.87844276" lon="34.7681694"><ele>485.3</ele><time>2013-11-20T12:47:04.0000000+00:00</time></trkpt><trkpt lat="30.87844276" lon="34.7681694"><ele>485.3</ele><time>2013-11-20T12:47:09.0000000+00:00</time></trkpt><trkpt lat="30.87844276" lon="34.7681694"><ele>485.3</ele><time>2013-11-20T12:47:14.0000000+00:00</time></trkpt><trkpt lat="30.87844086" lon="34.7681694"><ele>485.3</ele><time>2013-11-20T12:47:19.0000000+00:00</time></trkpt><trkpt lat="30.87844086" lon="34.7681694"><ele>485.3</ele><time>2013-11-20T12:47:24.0000000+00:00</time></trkpt><trkpt lat="30.87844658" lon="34.76817322"><ele>485.3</ele><time>2013-11-20T12:47:29.0000000+00:00</time></trkpt><trkpt lat="30.87844658" lon="34.76817322"><ele>485.3</ele><time>2013-11-20T12:47:34.0000000+00:00</time></trkpt><trkpt lat="30.87844658" lon="34.76817322"><ele>485.3</ele><time>2013-11-20T12:47:39.0000000+00:00</time></trkpt><trkpt lat="30.87844658" lon="34.76817322"><ele>485.3</ele><time>2013-11-20T12:47:44.0000000+00:00</time></trkpt><trkpt lat="30.87844658" lon="34.76817322"><ele>485.2</ele><time>2013-11-20T12:47:49.0000000+00:00</time></trkpt><trkpt lat="30.87844658" lon="34.76817322"><ele>485.2</ele><time>2013-11-20T12:47:54.0000000+00:00</time></trkpt><trkpt lat="30.87844658" lon="34.76817322"><ele>485.2</ele><time>2013-11-20T12:47:59.0000000+00:00</time></trkpt><trkpt lat="30.87844658" lon="34.76817322"><ele>485.2</ele><time>2013-11-20T12:48:04.0000000+00:00</time></trkpt><trkpt lat="30.87844658" lon="34.76817322"><ele>485.2</ele><time>2013-11-20T12:48:09.0000000+00:00</time></trkpt><trkpt lat="30.87844658" lon="34.76817322"><ele>485.2</ele><time>2013-11-20T12:48:14.0000000+00:00</time></trkpt><trkpt lat="30.87844658" lon="34.76817322"><ele>485.2</ele><time>2013-11-20T12:48:19.0000000+00:00</time></trkpt><trkpt lat="30.87844658" lon="34.76817322"><ele>485.1</ele><time>2013-11-20T12:48:24.0000000+00:00</time></trkpt><trkpt lat="30.87844849" lon="34.7681694"><ele>485.1</ele><time>2013-11-20T12:48:29.0000000+00:00</time></trkpt><trkpt lat="30.87845039" lon="34.76817322"><ele>485.1</ele><time>2013-11-20T12:48:34.0000000+00:00</time></trkpt><trkpt lat="30.87845039" lon="34.76817322"><ele>485.1</ele><time>2013-11-20T12:48:39.0000000+00:00</time></trkpt><trkpt lat="30.87845039" lon="34.76817322"><ele>485.1</ele><time>2013-11-20T12:48:44.0000000+00:00</time></trkpt><trkpt lat="30.87845039" lon="34.76817322"><ele>485.1</ele><time>2013-11-20T12:48:49.0000000+00:00</time></trkpt><trkpt lat="30.8784523" lon="34.76817322"><ele>485.0</ele><time>2013-11-20T12:48:54.0000000+00:00</time></trkpt><trkpt lat="30.87845039" lon="34.76817322"><ele>485.1</ele><time>2013-11-20T12:48:59.0000000+00:00</time></trkpt><trkpt lat="30.87845039" lon="34.7681694"><ele>485.1</ele><time>2013-11-20T12:49:04.0000000+00:00</time></trkpt><trkpt lat="30.87845039" lon="34.76817322"><ele>485.1</ele><time>2013-11-20T12:49:09.0000000+00:00</time></trkpt><trkpt lat="30.87845039" lon="34.76817322"><ele>485.1</ele><time>2013-11-20T12:49:14.0000000+00:00</time></trkpt><trkpt lat="30.87845039" lon="34.7681694"><ele>485.1</ele><time>2013-11-20T12:49:19.0000000+00:00</time></trkpt><trkpt lat="30.87845039" lon="34.7681694"><ele>485.1</ele><time>2013-11-20T12:49:24.0000000+00:00</time></trkpt><trkpt lat="30.87845039" lon="34.7681694"><ele>485.1</ele><time>2013-11-20T12:49:29.0000000+00:00</time></trkpt><trkpt lat="30.87844658" lon="34.76817703"><ele>484.8</ele><time>2013-11-20T12:49:34.0000000+00:00</time></trkpt><trkpt lat="30.87844086" lon="34.76818848"><ele>483.2</ele><time>2013-11-20T12:49:39.0000000+00:00</time></trkpt><trkpt lat="30.87844086" lon="34.76818848"><ele>483.1</ele><time>2013-11-20T12:49:44.0000000+00:00</time></trkpt><trkpt lat="30.87844086" lon="34.76818848"><ele>483.1</ele><time>2013-11-20T12:49:49.0000000+00:00</time></trkpt><trkpt lat="30.87844086" lon="34.76818848"><ele>483.1</ele><time>2013-11-20T12:49:54.0000000+00:00</time></trkpt><trkpt lat="30.87844086" lon="34.76818848"><ele>483.1</ele><time>2013-11-20T12:49:59.0000000+00:00</time></trkpt><trkpt lat="30.87844086" lon="34.76818848"><ele>483.0</ele><time>2013-11-20T12:50:04.0000000+00:00</time></trkpt><trkpt lat="30.87844086" lon="34.76818848"><ele>483.0</ele><time>2013-11-20T12:50:09.0000000+00:00</time></trkpt><trkpt lat="30.87844086" lon="34.76818848"><ele>483.0</ele><time>2013-11-20T12:50:14.0000000+00:00</time></trkpt><trkpt lat="30.87844086" lon="34.76818848"><ele>483.0</ele><time>2013-11-20T12:50:19.0000000+00:00</time></trkpt><trkpt lat="30.87843895" lon="34.76818848"><ele>483.0</ele><time>2013-11-20T12:50:24.0000000+00:00</time></trkpt><trkpt lat="30.87843895" lon="34.76818848"><ele>482.9</ele><time>2013-11-20T12:50:29.0000000+00:00</time></trkpt><trkpt lat="30.87844086" lon="34.76818466"><ele>482.9</ele><time>2013-11-20T12:50:34.0000000+00:00</time></trkpt><trkpt lat="30.87843895" lon="34.76818848"><ele>482.8</ele><time>2013-11-20T12:50:39.0000000+00:00</time></trkpt><trkpt lat="30.87843895" lon="34.76818848"><ele>482.8</ele><time>2013-11-20T12:50:44.0000000+00:00</time></trkpt><trkpt lat="30.87843895" lon="34.76818848"><ele>482.8</ele><time>2013-11-20T12:50:49.0000000+00:00</time></trkpt><trkpt lat="30.87843895" lon="34.76818848"><ele>482.8</ele><time>2013-11-20T12:50:54.0000000+00:00</time></trkpt><trkpt lat="30.87843895" lon="34.76818848"><ele>482.8</ele><time>2013-11-20T12:50:59.0000000+00:00</time></trkpt><trkpt lat="30.87843895" lon="34.76818848"><ele>482.8</ele><time>2013-11-20T12:51:04.0000000+00:00</time></trkpt><trkpt lat="30.87843895" lon="34.76818848"><ele>482.8</ele><time>2013-11-20T12:51:09.0000000+00:00</time></trkpt><trkpt lat="30.87843895" lon="34.76818848"><ele>482.8</ele><time>2013-11-20T12:51:14.0000000+00:00</time></trkpt><trkpt lat="30.87843895" lon="34.76818848"><ele>482.8</ele><time>2013-11-20T12:51:19.0000000+00:00</time></trkpt><trkpt lat="30.87844849" lon="34.76818085"><ele>481.9</ele><time>2013-11-20T12:51:24.0000000+00:00</time></trkpt><trkpt lat="30.87846375" lon="34.76818848"><ele>481.5</ele><time>2013-11-20T12:51:29.0000000+00:00</time></trkpt><trkpt lat="30.87849617" lon="34.76822281"><ele>481.1</ele><time>2013-11-20T12:51:34.0000000+00:00</time></trkpt><trkpt lat="30.87849999" lon="34.76822662"><ele>480.7</ele><time>2013-11-20T12:51:39.0000000+00:00</time></trkpt><trkpt lat="30.87850761" lon="34.76824188"><ele>480.8</ele><time>2013-11-20T12:51:44.0000000+00:00</time></trkpt><trkpt lat="30.87853813" lon="34.76827622"><ele>480.7</ele><time>2013-11-20T12:51:49.0000000+00:00</time></trkpt><trkpt lat="30.87859345" lon="34.76830673"><ele>479.9</ele><time>2013-11-20T12:51:54.0000000+00:00</time></trkpt><trkpt lat="30.87861252" lon="34.76833344"><ele>478.7</ele><time>2013-11-20T12:51:59.0000000+00:00</time></trkpt><trkpt lat="30.87862778" lon="34.76834869"><ele>478.3</ele><time>2013-11-20T12:52:04.0000000+00:00</time></trkpt><trkpt lat="30.87867928" lon="34.76837921"><ele>477.7</ele><time>2013-11-20T12:52:09.0000000+00:00</time></trkpt><trkpt lat="30.87875938" lon="34.76841736"><ele>477.4</ele><time>2013-11-20T12:52:14.0000000+00:00</time></trkpt><trkpt lat="30.87887383" lon="34.76845932"><ele>476.7</ele><time>2013-11-20T12:52:19.0000000+00:00</time></trkpt><trkpt lat="30.87895584" lon="34.76847076"><ele>475.6</ele><time>2013-11-20T12:52:24.0000000+00:00</time></trkpt><trkpt lat="30.87904167" lon="34.76848602"><ele>475.0</ele><time>2013-11-20T12:52:29.0000000+00:00</time></trkpt><trkpt lat="30.8791275" lon="34.76846695"><ele>475.5</ele><time>2013-11-20T12:52:34.0000000+00:00</time></trkpt><trkpt lat="30.8792038" lon="34.76848984"><ele>474.4</ele><time>2013-11-20T12:52:39.0000000+00:00</time></trkpt><trkpt lat="30.87929153" lon="34.76851273"><ele>474.8</ele><time>2013-11-20T12:52:44.0000000+00:00</time></trkpt><trkpt lat="30.87931824" lon="34.76852417"><ele>474.5</ele><time>2013-11-20T12:52:49.0000000+00:00</time></trkpt><trkpt lat="30.87931824" lon="34.76852417"><ele>474.6</ele><time>2013-11-20T12:52:54.0000000+00:00</time></trkpt><trkpt lat="30.87931824" lon="34.76852417"><ele>474.6</ele><time>2013-11-20T12:52:59.0000000+00:00</time></trkpt><trkpt lat="30.87931824" lon="34.76852417"><ele>474.6</ele><time>2013-11-20T12:53:04.0000000+00:00</time></trkpt><trkpt lat="30.87939072" lon="34.76853561"><ele>473.8</ele><time>2013-11-20T12:53:09.0000000+00:00</time></trkpt><trkpt lat="30.87952232" lon="34.76861191"><ele>473.6</ele><time>2013-11-20T12:53:14.0000000+00:00</time></trkpt><trkpt lat="30.87965202" lon="34.76868439"><ele>473.8</ele><time>2013-11-20T12:53:19.0000000+00:00</time></trkpt><trkpt lat="30.87977982" lon="34.76875687"><ele>474.2</ele><time>2013-11-20T12:53:24.0000000+00:00</time></trkpt><trkpt lat="30.87988472" lon="34.76886749"><ele>474.7</ele><time>2013-11-20T12:53:29.0000000+00:00</time></trkpt><trkpt lat="30.87996292" lon="34.76900864"><ele>474.9</ele><time>2013-11-20T12:53:34.0000000+00:00</time></trkpt><trkpt lat="30.88005066" lon="34.76910782"><ele>475.1</ele><time>2013-11-20T12:53:39.0000000+00:00</time></trkpt><trkpt lat="30.88011932" lon="34.76922607"><ele>476.0</ele><time>2013-11-20T12:53:44.0000000+00:00</time></trkpt><trkpt lat="30.88018799" lon="34.76929474"><ele>477.4</ele><time>2013-11-20T12:53:49.0000000+00:00</time></trkpt><trkpt lat="30.8802433" lon="34.76934052"><ele>478.2</ele><time>2013-11-20T12:53:54.0000000+00:00</time></trkpt><trkpt lat="30.88027382" lon="34.76937103"><ele>478.0</ele><time>2013-11-20T12:53:59.0000000+00:00</time></trkpt><trkpt lat="30.88030624" lon="34.76940155"><ele>479.4</ele><time>2013-11-20T12:54:04.0000000+00:00</time></trkpt><trkpt lat="30.88035393" lon="34.76943588"><ele>479.8</ele><time>2013-11-20T12:54:09.0000000+00:00</time></trkpt><trkpt lat="30.88039017" lon="34.76945496"><ele>481.4</ele><time>2013-11-20T12:54:14.0000000+00:00</time></trkpt><trkpt lat="30.88041878" lon="34.76947403"><ele>480.8</ele><time>2013-11-20T12:54:19.0000000+00:00</time></trkpt><trkpt lat="30.88045692" lon="34.76952744"><ele>481.1</ele><time>2013-11-20T12:54:24.0000000+00:00</time></trkpt><trkpt lat="30.88049316" lon="34.7695961"><ele>480.9</ele><time>2013-11-20T12:54:29.0000000+00:00</time></trkpt><trkpt lat="30.88052559" lon="34.76967621"><ele>480.1</ele><time>2013-11-20T12:54:34.0000000+00:00</time></trkpt><trkpt lat="30.88058281" lon="34.76974869"><ele>479.1</ele><time>2013-11-20T12:54:39.0000000+00:00</time></trkpt><trkpt lat="30.88066483" lon="34.7698555"><ele>478.5</ele><time>2013-11-20T12:54:44.0000000+00:00</time></trkpt><trkpt lat="30.88074112" lon="34.76992416"><ele>479.0</ele><time>2013-11-20T12:54:49.0000000+00:00</time></trkpt><trkpt lat="30.88081932" lon="34.77002335"><ele>479.2</ele><time>2013-11-20T12:54:54.0000000+00:00</time></trkpt><trkpt lat="30.88087654" lon="34.77010727"><ele>479.9</ele><time>2013-11-20T12:54:59.0000000+00:00</time></trkpt><trkpt lat="30.8809166" lon="34.77023315"><ele>479.3</ele><time>2013-11-20T12:55:04.0000000+00:00</time></trkpt><trkpt lat="30.88096428" lon="34.77031708"><ele>480.1</ele><time>2013-11-20T12:55:09.0000000+00:00</time></trkpt><trkpt lat="30.88101006" lon="34.77041626"><ele>481.1</ele><time>2013-11-20T12:55:14.0000000+00:00</time></trkpt><trkpt lat="30.88106155" lon="34.77049255"><ele>482.1</ele><time>2013-11-20T12:55:19.0000000+00:00</time></trkpt><trkpt lat="30.88113022" lon="34.77046585"><ele>482.0</ele><time>2013-11-20T12:55:24.0000000+00:00</time></trkpt><trkpt lat="30.88120461" lon="34.77041626"><ele>481.9</ele><time>2013-11-20T12:55:29.0000000+00:00</time></trkpt><trkpt lat="30.8812809" lon="34.77033615"><ele>482.1</ele><time>2013-11-20T12:55:34.0000000+00:00</time></trkpt><trkpt lat="30.88136292" lon="34.77027893"><ele>482.5</ele><time>2013-11-20T12:55:39.0000000+00:00</time></trkpt><trkpt lat="30.88141251" lon="34.77023315"><ele>482.8</ele><time>2013-11-20T12:55:44.0000000+00:00</time></trkpt><trkpt lat="30.88140488" lon="34.7702179"><ele>482.4</ele><time>2013-11-20T12:55:49.0000000+00:00</time></trkpt><trkpt lat="30.88140488" lon="34.7702179"><ele>482.7</ele><time>2013-11-20T12:55:54.0000000+00:00</time></trkpt><trkpt lat="30.88140488" lon="34.77019501"><ele>483.4</ele><time>2013-11-20T12:55:59.0000000+00:00</time></trkpt><trkpt lat="30.88137817" lon="34.77007675"><ele>485.3</ele><time>2013-11-20T12:56:04.0000000+00:00</time></trkpt><trkpt lat="30.88140488" lon="34.76993561"><ele>487.3</ele><time>2013-11-20T12:56:09.0000000+00:00</time></trkpt><trkpt lat="30.88146019" lon="34.76982117"><ele>487.9</ele><time>2013-11-20T12:56:14.0000000+00:00</time></trkpt><trkpt lat="30.88157082" lon="34.7696991"><ele>488.0</ele><time>2013-11-20T12:56:19.0000000+00:00</time></trkpt><trkpt lat="30.88169289" lon="34.76953888"><ele>487.4</ele><time>2013-11-20T12:56:24.0000000+00:00</time></trkpt><trkpt lat="30.8817997" lon="34.76936722"><ele>486.6</ele><time>2013-11-20T12:56:29.0000000+00:00</time></trkpt><trkpt lat="30.88191032" lon="34.76927185"><ele>486.5</ele><time>2013-11-20T12:56:34.0000000+00:00</time></trkpt><trkpt lat="30.88201332" lon="34.76916504"><ele>485.9</ele><time>2013-11-20T12:56:39.0000000+00:00</time></trkpt><trkpt lat="30.88214493" lon="34.76903534"><ele>484.3</ele><time>2013-11-20T12:56:44.0000000+00:00</time></trkpt><trkpt lat="30.88225937" lon="34.7688942"><ele>483.4</ele><time>2013-11-20T12:56:49.0000000+00:00</time></trkpt><trkpt lat="30.88235855" lon="34.76875305"><ele>481.3</ele><time>2013-11-20T12:56:54.0000000+00:00</time></trkpt><trkpt lat="30.88252449" lon="34.76871872"><ele>480.8</ele><time>2013-11-20T12:56:59.0000000+00:00</time></trkpt><trkpt lat="30.88254738" lon="34.76871491"><ele>481.6</ele><time>2013-11-20T12:57:04.0000000+00:00</time></trkpt><trkpt lat="30.88258934" lon="34.76871872"><ele>481.1</ele><time>2013-11-20T12:57:09.0000000+00:00</time></trkpt><trkpt lat="30.88262558" lon="34.76872253"><ele>480.3</ele><time>2013-11-20T12:57:14.0000000+00:00</time></trkpt><trkpt lat="30.88274765" lon="34.76873779"><ele>479.1</ele><time>2013-11-20T12:57:19.0000000+00:00</time></trkpt><trkpt lat="30.88291359" lon="34.76871109"><ele>478.4</ele><time>2013-11-20T12:57:24.0000000+00:00</time></trkpt><trkpt lat="30.88308716" lon="34.76867676"><ele>476.8</ele><time>2013-11-20T12:57:29.0000000+00:00</time></trkpt><trkpt lat="30.88325882" lon="34.76857758"><ele>476.3</ele><time>2013-11-20T12:57:34.0000000+00:00</time></trkpt><trkpt lat="30.88342094" lon="34.76846314"><ele>475.9</ele><time>2013-11-20T12:57:39.0000000+00:00</time></trkpt><trkpt lat="30.88352203" lon="34.76831818"><ele>476.1</ele><time>2013-11-20T12:57:44.0000000+00:00</time></trkpt><trkpt lat="30.88359451" lon="34.76813507"><ele>476.9</ele><time>2013-11-20T12:57:49.0000000+00:00</time></trkpt><trkpt lat="30.88368797" lon="34.76792908"><ele>478.1</ele><time>2013-11-20T12:57:54.0000000+00:00</time></trkpt><trkpt lat="30.88378906" lon="34.76768494"><ele>477.5</ele><time>2013-11-20T12:57:59.0000000+00:00</time></trkpt><trkpt lat="30.88387871" lon="34.76743698"><ele>476.8</ele><time>2013-11-20T12:58:04.0000000+00:00</time></trkpt><trkpt lat="30.88398171" lon="34.76716995"><ele>476.2</ele><time>2013-11-20T12:58:09.0000000+00:00</time></trkpt><trkpt lat="30.88402939" lon="34.76688385"><ele>475.8</ele><time>2013-11-20T12:58:14.0000000+00:00</time></trkpt><trkpt lat="30.88405609" lon="34.76662064"><ele>475.7</ele><time>2013-11-20T12:58:19.0000000+00:00</time></trkpt><trkpt lat="30.88407707" lon="34.76639175"><ele>475.9</ele><time>2013-11-20T12:58:24.0000000+00:00</time></trkpt><trkpt lat="30.88408089" lon="34.76623154"><ele>476.2</ele><time>2013-11-20T12:58:29.0000000+00:00</time></trkpt><trkpt lat="30.88409805" lon="34.76612473"><ele>476.5</ele><time>2013-11-20T12:58:34.0000000+00:00</time></trkpt><trkpt lat="30.88411713" lon="34.76599884"><ele>476.6</ele><time>2013-11-20T12:58:39.0000000+00:00</time></trkpt><trkpt lat="30.88418198" lon="34.76581955"><ele>475.6</ele><time>2013-11-20T12:58:44.0000000+00:00</time></trkpt><trkpt lat="30.88424683" lon="34.76567459"><ele>474.9</ele><time>2013-11-20T12:58:49.0000000+00:00</time></trkpt><trkpt lat="30.88424492" lon="34.76567459"><ele>474.5</ele><time>2013-11-20T12:58:54.0000000+00:00</time></trkpt><trkpt lat="30.88424301" lon="34.76567459"><ele>474.5</ele><time>2013-11-20T12:58:59.0000000+00:00</time></trkpt><trkpt lat="30.88422203" lon="34.76569748"><ele>474.4</ele><time>2013-11-20T12:59:04.0000000+00:00</time></trkpt><trkpt lat="30.8841877" lon="34.76580429"><ele>473.6</ele><time>2013-11-20T12:59:09.0000000+00:00</time></trkpt><trkpt lat="30.88414192" lon="34.76594544"><ele>476.4</ele><time>2013-11-20T12:59:14.0000000+00:00</time></trkpt><trkpt lat="30.88409424" lon="34.76607513"><ele>477.5</ele><time>2013-11-20T12:59:19.0000000+00:00</time></trkpt><trkpt lat="30.88409805" lon="34.76619339"><ele>477.8</ele><time>2013-11-20T12:59:24.0000000+00:00</time></trkpt><trkpt lat="30.88409996" lon="34.76636887"><ele>478.6</ele><time>2013-11-20T12:59:29.0000000+00:00</time></trkpt><trkpt lat="30.88406944" lon="34.76655197"><ele>478.6</ele><time>2013-11-20T12:59:34.0000000+00:00</time></trkpt><trkpt lat="30.88404846" lon="34.76665878"><ele>477.6</ele><time>2013-11-20T12:59:39.0000000+00:00</time></trkpt><trkpt lat="30.88404465" lon="34.76675034"><ele>475.9</ele><time>2013-11-20T12:59:44.0000000+00:00</time></trkpt><trkpt lat="30.8840313" lon="34.76687241"><ele>476.3</ele><time>2013-11-20T12:59:49.0000000+00:00</time></trkpt><trkpt lat="30.88400078" lon="34.76700211"><ele>477.1</ele><time>2013-11-20T12:59:54.0000000+00:00</time></trkpt><trkpt lat="30.88398361" lon="34.76712418"><ele>477.4</ele><time>2013-11-20T12:59:59.0000000+00:00</time></trkpt><trkpt lat="30.88396645" lon="34.76722717"><ele>477.0</ele><time>2013-11-20T13:00:04.0000000+00:00</time></trkpt><trkpt lat="30.88393021" lon="34.76732254"><ele>477.1</ele><time>2013-11-20T13:00:09.0000000+00:00</time></trkpt><trkpt lat="30.88389015" lon="34.76741791"><ele>477.1</ele><time>2013-11-20T13:00:14.0000000+00:00</time></trkpt><trkpt lat="30.88384819" lon="34.76751328"><ele>477.1</ele><time>2013-11-20T13:00:19.0000000+00:00</time></trkpt><trkpt lat="30.88381195" lon="34.76761627"><ele>477.8</ele><time>2013-11-20T13:00:24.0000000+00:00</time></trkpt><trkpt lat="30.88377953" lon="34.76773071"><ele>477.2</ele><time>2013-11-20T13:00:29.0000000+00:00</time></trkpt><trkpt lat="30.88373375" lon="34.76783752"><ele>479.3</ele><time>2013-11-20T13:00:34.0000000+00:00</time></trkpt><trkpt lat="30.88368797" lon="34.76793671"><ele>479.7</ele><time>2013-11-20T13:00:39.0000000+00:00</time></trkpt><trkpt lat="30.88365555" lon="34.76803207"><ele>479.8</ele><time>2013-11-20T13:00:44.0000000+00:00</time></trkpt><trkpt lat="30.88360214" lon="34.7681427"><ele>479.9</ele><time>2013-11-20T13:00:49.0000000+00:00</time></trkpt><trkpt lat="30.88356018" lon="34.76822662"><ele>480.5</ele><time>2013-11-20T13:00:54.0000000+00:00</time></trkpt><trkpt lat="30.88351631" lon="34.76830673"><ele>480.6</ele><time>2013-11-20T13:00:59.0000000+00:00</time></trkpt><trkpt lat="30.883461" lon="34.76840973"><ele>481.4</ele><time>2013-11-20T13:01:04.0000000+00:00</time></trkpt><trkpt lat="30.88339043" lon="34.76849365"><ele>479.8</ele><time>2013-11-20T13:01:09.0000000+00:00</time></trkpt><trkpt lat="30.88331795" lon="34.76856232"><ele>478.7</ele><time>2013-11-20T13:01:14.0000000+00:00</time></trkpt><trkpt lat="30.88321114" lon="34.76864624"><ele>478.2</ele><time>2013-11-20T13:01:19.0000000+00:00</time></trkpt><trkpt lat="30.88306999" lon="34.76871109"><ele>477.8</ele><time>2013-11-20T13:01:24.0000000+00:00</time></trkpt><trkpt lat="30.88290596" lon="34.76874161"><ele>477.2</ele><time>2013-11-20T13:01:29.0000000+00:00</time></trkpt><trkpt lat="30.88275337" lon="34.76874542"><ele>479.5</ele><time>2013-11-20T13:01:34.0000000+00:00</time></trkpt><trkpt lat="30.88261795" lon="34.76872253"><ele>482.7</ele><time>2013-11-20T13:01:39.0000000+00:00</time></trkpt><trkpt lat="30.8824749" lon="34.76871872"><ele>483.4</ele><time>2013-11-20T13:01:44.0000000+00:00</time></trkpt><trkpt lat="30.88234329" lon="34.76877213"><ele>484.1</ele><time>2013-11-20T13:01:49.0000000+00:00</time></trkpt><trkpt lat="30.88227081" lon="34.76887894"><ele>485.3</ele><time>2013-11-20T13:01:54.0000000+00:00</time></trkpt><trkpt lat="30.88223839" lon="34.76892471"><ele>487.2</ele><time>2013-11-20T13:01:59.0000000+00:00</time></trkpt><trkpt lat="30.88219833" lon="34.76900482"><ele>488.1</ele><time>2013-11-20T13:02:04.0000000+00:00</time></trkpt><trkpt lat="30.88211441" lon="34.76911163"><ele>489.0</ele><time>2013-11-20T13:02:09.0000000+00:00</time></trkpt><trkpt lat="30.88204002" lon="34.7691803"><ele>487.7</ele><time>2013-11-20T13:02:14.0000000+00:00</time></trkpt><trkpt lat="30.88195038" lon="34.76927185"><ele>488.8</ele><time>2013-11-20T13:02:19.0000000+00:00</time></trkpt><trkpt lat="30.88187218" lon="34.76937103"><ele>488.4</ele><time>2013-11-20T13:02:24.0000000+00:00</time></trkpt><trkpt lat="30.88180351" lon="34.76948547"><ele>487.3</ele><time>2013-11-20T13:02:29.0000000+00:00</time></trkpt><trkpt lat="30.88171768" lon="34.7695961"><ele>487.9</ele><time>2013-11-20T13:02:34.0000000+00:00</time></trkpt><trkpt lat="30.88163948" lon="34.76969147"><ele>487.9</ele><time>2013-11-20T13:02:39.0000000+00:00</time></trkpt><trkpt lat="30.88156891" lon="34.76979828"><ele>487.4</ele><time>2013-11-20T13:02:44.0000000+00:00</time></trkpt><trkpt lat="30.88157272" lon="34.76993942"><ele>486.5</ele><time>2013-11-20T13:02:49.0000000+00:00</time></trkpt><trkpt lat="30.88163376" lon="34.77006912"><ele>488.5</ele><time>2013-11-20T13:02:54.0000000+00:00</time></trkpt><trkpt lat="30.88168716" lon="34.77017593"><ele>489.0</ele><time>2013-11-20T13:02:59.0000000+00:00</time></trkpt><trkpt lat="30.88180733" lon="34.77017212"><ele>489.1</ele><time>2013-11-20T13:03:04.0000000+00:00</time></trkpt><trkpt lat="30.88198471" lon="34.77015686"><ele>488.4</ele><time>2013-11-20T13:03:09.0000000+00:00</time></trkpt><trkpt lat="30.882164" lon="34.77020645"><ele>487.6</ele><time>2013-11-20T13:03:14.0000000+00:00</time></trkpt><trkpt lat="30.88238716" lon="34.77030945"><ele>486.3</ele><time>2013-11-20T13:03:19.0000000+00:00</time></trkpt><trkpt lat="30.88261604" lon="34.77038956"><ele>484.7</ele><time>2013-11-20T13:03:24.0000000+00:00</time></trkpt><trkpt lat="30.88285828" lon="34.77045441"><ele>483.5</ele><time>2013-11-20T13:03:29.0000000+00:00</time></trkpt><trkpt lat="30.88304138" lon="34.77061844"><ele>483.8</ele><time>2013-11-20T13:03:34.0000000+00:00</time></trkpt><trkpt lat="30.88324547" lon="34.77083969"><ele>481.6</ele><time>2013-11-20T13:03:39.0000000+00:00</time></trkpt><trkpt lat="30.88345718" lon="34.77108765"><ele>481.6</ele><time>2013-11-20T13:03:44.0000000+00:00</time></trkpt><trkpt lat="30.8836174" lon="34.77123261"><ele>482.3</ele><time>2013-11-20T13:03:49.0000000+00:00</time></trkpt><trkpt lat="30.88377571" lon="34.77128983"><ele>483.3</ele><time>2013-11-20T13:03:54.0000000+00:00</time></trkpt><trkpt lat="30.88395309" lon="34.77127457"><ele>484.0</ele><time>2013-11-20T13:03:59.0000000+00:00</time></trkpt><trkpt lat="30.8841362" lon="34.77124023"><ele>483.7</ele><time>2013-11-20T13:04:04.0000000+00:00</time></trkpt><trkpt lat="30.88434219" lon="34.77114868"><ele>483.1</ele><time>2013-11-20T13:04:09.0000000+00:00</time></trkpt><trkpt lat="30.8845768" lon="34.7710228"><ele>481.5</ele><time>2013-11-20T13:04:14.0000000+00:00</time></trkpt><trkpt lat="30.88482475" lon="34.77094269"><ele>481.0</ele><time>2013-11-20T13:04:19.0000000+00:00</time></trkpt><trkpt lat="30.88493919" lon="34.77091599"><ele>480.0</ele><time>2013-11-20T13:04:24.0000000+00:00</time></trkpt><trkpt lat="30.8849411" lon="34.77090454"><ele>479.3</ele><time>2013-11-20T13:04:29.0000000+00:00</time></trkpt><trkpt lat="30.88493919" lon="34.77087784"><ele>479.6</ele><time>2013-11-20T13:04:34.0000000+00:00</time></trkpt><trkpt lat="30.88504219" lon="34.77080917"><ele>479.1</ele><time>2013-11-20T13:04:39.0000000+00:00</time></trkpt><trkpt lat="30.88515091" lon="34.77075958"><ele>479.2</ele><time>2013-11-20T13:04:44.0000000+00:00</time></trkpt><trkpt lat="30.88525963" lon="34.77072525"><ele>479.1</ele><time>2013-11-20T13:04:49.0000000+00:00</time></trkpt><trkpt lat="30.8853302" lon="34.77079392"><ele>478.1</ele><time>2013-11-20T13:04:54.0000000+00:00</time></trkpt><trkpt lat="30.8854351" lon="34.77092362"><ele>476.8</ele><time>2013-11-20T13:04:59.0000000+00:00</time></trkpt><trkpt lat="30.88551903" lon="34.77102661"><ele>474.9</ele><time>2013-11-20T13:05:04.0000000+00:00</time></trkpt><trkpt lat="30.88557434" lon="34.77118301"><ele>474.6</ele><time>2013-11-20T13:05:09.0000000+00:00</time></trkpt><trkpt lat="30.88554764" lon="34.7713089"><ele>476.5</ele><time>2013-11-20T13:05:14.0000000+00:00</time></trkpt><trkpt lat="30.88547707" lon="34.77138519"><ele>476.6</ele><time>2013-11-20T13:05:19.0000000+00:00</time></trkpt><trkpt lat="30.88539696" lon="34.77141571"><ele>475.1</ele><time>2013-11-20T13:05:24.0000000+00:00</time></trkpt><trkpt lat="30.88526726" lon="34.7714386"><ele>475.4</ele><time>2013-11-20T13:05:29.0000000+00:00</time></trkpt><trkpt lat="30.88510132" lon="34.77141953"><ele>474.8</ele><time>2013-11-20T13:05:34.0000000+00:00</time></trkpt><trkpt lat="30.88495255" lon="34.77142334"><ele>473.5</ele><time>2013-11-20T13:05:39.0000000+00:00</time></trkpt><trkpt lat="30.88489914" lon="34.77149582"><ele>474.4</ele><time>2013-11-20T13:05:44.0000000+00:00</time></trkpt><trkpt lat="30.88485336" lon="34.77165222"><ele>476.8</ele><time>2013-11-20T13:05:49.0000000+00:00</time></trkpt><trkpt lat="30.88475418" lon="34.77174759"><ele>478.0</ele><time>2013-11-20T13:05:54.0000000+00:00</time></trkpt><trkpt lat="30.88460159" lon="34.77173615"><ele>477.0</ele><time>2013-11-20T13:05:59.0000000+00:00</time></trkpt><trkpt lat="30.88443756" lon="34.77177048"><ele>475.0</ele><time>2013-11-20T13:06:04.0000000+00:00</time></trkpt><trkpt lat="30.88428116" lon="34.77183151"><ele>473.4</ele><time>2013-11-20T13:06:09.0000000+00:00</time></trkpt><trkpt lat="30.88411522" lon="34.77196121"><ele>472.4</ele><time>2013-11-20T13:06:14.0000000+00:00</time></trkpt><trkpt lat="30.88398933" lon="34.77211762"><ele>470.6</ele><time>2013-11-20T13:06:19.0000000+00:00</time></trkpt><trkpt lat="30.88386917" lon="34.77223969"><ele>468.3</ele><time>2013-11-20T13:06:24.0000000+00:00</time></trkpt><trkpt lat="30.88372231" lon="34.77236176"><ele>465.7</ele><time>2013-11-20T13:06:29.0000000+00:00</time></trkpt><trkpt lat="30.88360405" lon="34.77253342"><ele>465.4</ele><time>2013-11-20T13:06:34.0000000+00:00</time></trkpt><trkpt lat="30.88371658" lon="34.77268219"><ele>464.1</ele><time>2013-11-20T13:06:39.0000000+00:00</time></trkpt><trkpt lat="30.88376617" lon="34.772892"><ele>462.3</ele><time>2013-11-20T13:06:44.0000000+00:00</time></trkpt><trkpt lat="30.88385201" lon="34.77307892"><ele>462.3</ele><time>2013-11-20T13:06:49.0000000+00:00</time></trkpt><trkpt lat="30.88394928" lon="34.77325058"><ele>461.9</ele><time>2013-11-20T13:06:54.0000000+00:00</time></trkpt><trkpt lat="30.88408089" lon="34.7734108"><ele>460.5</ele><time>2013-11-20T13:06:59.0000000+00:00</time></trkpt><trkpt lat="30.8842659" lon="34.7735405"><ele>461.0</ele><time>2013-11-20T13:07:04.0000000+00:00</time></trkpt><trkpt lat="30.88450813" lon="34.77360916"><ele>460.4</ele><time>2013-11-20T13:07:09.0000000+00:00</time></trkpt><trkpt lat="30.88471985" lon="34.77357483"><ele>460.0</ele><time>2013-11-20T13:07:14.0000000+00:00</time></trkpt><trkpt lat="30.88488007" lon="34.77357483"><ele>457.3</ele><time>2013-11-20T13:07:19.0000000+00:00</time></trkpt><trkpt lat="30.88506508" lon="34.77371597"><ele>457.5</ele><time>2013-11-20T13:07:24.0000000+00:00</time></trkpt><trkpt lat="30.88524818" lon="34.77396774"><ele>457.6</ele><time>2013-11-20T13:07:29.0000000+00:00</time></trkpt><trkpt lat="30.88533974" lon="34.77427673"><ele>457.5</ele><time>2013-11-20T13:07:34.0000000+00:00</time></trkpt><trkpt lat="30.88539314" lon="34.77453232"><ele>457.6</ele><time>2013-11-20T13:07:39.0000000+00:00</time></trkpt><trkpt lat="30.88539887" lon="34.77455521"><ele>457.2</ele><time>2013-11-20T13:07:44.0000000+00:00</time></trkpt><trkpt lat="30.88540649" lon="34.77472305"><ele>456.2</ele><time>2013-11-20T13:07:49.0000000+00:00</time></trkpt><trkpt lat="30.88542938" lon="34.77494431"><ele>455.0</ele><time>2013-11-20T13:07:54.0000000+00:00</time></trkpt><trkpt lat="30.88538361" lon="34.77508545"><ele>454.8</ele><time>2013-11-20T13:07:59.0000000+00:00</time></trkpt><trkpt lat="30.88534927" lon="34.77526093"><ele>457.0</ele><time>2013-11-20T13:08:04.0000000+00:00</time></trkpt><trkpt lat="30.88540649" lon="34.77533722"><ele>456.1</ele><time>2013-11-20T13:08:09.0000000+00:00</time></trkpt><trkpt lat="30.8854332" lon="34.77534103"><ele>457.2</ele><time>2013-11-20T13:08:14.0000000+00:00</time></trkpt><trkpt lat="30.88540459" lon="34.77545166"><ele>458.2</ele><time>2013-11-20T13:08:19.0000000+00:00</time></trkpt><trkpt lat="30.88541985" lon="34.7755928"><ele>458.0</ele><time>2013-11-20T13:08:24.0000000+00:00</time></trkpt><trkpt lat="30.88543892" lon="34.77573013"><ele>459.9</ele><time>2013-11-20T13:08:29.0000000+00:00</time></trkpt><trkpt lat="30.88544655" lon="34.77579498"><ele>460.8</ele><time>2013-11-20T13:08:34.0000000+00:00</time></trkpt><trkpt lat="30.88544083" lon="34.77585602"><ele>462.0</ele><time>2013-11-20T13:08:39.0000000+00:00</time></trkpt><trkpt lat="30.88542366" lon="34.77592087"><ele>462.2</ele><time>2013-11-20T13:08:44.0000000+00:00</time></trkpt><trkpt lat="30.88540268" lon="34.77595139"><ele>463.0</ele><time>2013-11-20T13:08:49.0000000+00:00</time></trkpt><trkpt lat="30.88540268" lon="34.77595139"><ele>462.9</ele><time>2013-11-20T13:08:54.0000000+00:00</time></trkpt><trkpt lat="30.88540268" lon="34.77595139"><ele>462.9</ele><time>2013-11-20T13:08:59.0000000+00:00</time></trkpt><trkpt lat="30.88540268" lon="34.77595139"><ele>462.9</ele><time>2013-11-20T13:09:04.0000000+00:00</time></trkpt><trkpt lat="30.88540268" lon="34.77595139"><ele>462.8</ele><time>2013-11-20T13:09:09.0000000+00:00</time></trkpt><trkpt lat="30.88540268" lon="34.77594757"><ele>462.6</ele><time>2013-11-20T13:09:14.0000000+00:00</time></trkpt><trkpt lat="30.88540268" lon="34.77594757"><ele>462.6</ele><time>2013-11-20T13:09:19.0000000+00:00</time></trkpt><trkpt lat="30.88540268" lon="34.77594757"><ele>462.5</ele><time>2013-11-20T13:09:24.0000000+00:00</time></trkpt><trkpt lat="30.88540268" lon="34.77594757"><ele>462.5</ele><time>2013-11-20T13:09:29.0000000+00:00</time></trkpt><trkpt lat="30.88540268" lon="34.77594757"><ele>462.5</ele><time>2013-11-20T13:09:34.0000000+00:00</time></trkpt><trkpt lat="30.88540268" lon="34.77594757"><ele>462.5</ele><time>2013-11-20T13:09:39.0000000+00:00</time></trkpt><trkpt lat="30.88540268" lon="34.77594757"><ele>462.5</ele><time>2013-11-20T13:09:44.0000000+00:00</time></trkpt><trkpt lat="30.88540268" lon="34.77594757"><ele>462.5</ele><time>2013-11-20T13:09:49.0000000+00:00</time></trkpt><trkpt lat="30.88540268" lon="34.77594757"><ele>462.5</ele><time>2013-11-20T13:09:54.0000000+00:00</time></trkpt><trkpt lat="30.88540077" lon="34.77594757"><ele>462.5</ele><time>2013-11-20T13:09:59.0000000+00:00</time></trkpt><trkpt lat="30.88540077" lon="34.77594757"><ele>462.5</ele><time>2013-11-20T13:10:04.0000000+00:00</time></trkpt><trkpt lat="30.88540077" lon="34.77594757"><ele>462.6</ele><time>2013-11-20T13:10:09.0000000+00:00</time></trkpt><trkpt lat="30.88540077" lon="34.77594757"><ele>462.6</ele><time>2013-11-20T13:10:14.0000000+00:00</time></trkpt><trkpt lat="30.88540077" lon="34.77594757"><ele>462.6</ele><time>2013-11-20T13:10:19.0000000+00:00</time></trkpt><trkpt lat="30.88540077" lon="34.77594757"><ele>462.6</ele><time>2013-11-20T13:10:24.0000000+00:00</time></trkpt><trkpt lat="30.88540077" lon="34.77594757"><ele>462.6</ele><time>2013-11-20T13:10:29.0000000+00:00</time></trkpt><trkpt lat="30.88540077" lon="34.77594757"><ele>462.6</ele><time>2013-11-20T13:10:34.0000000+00:00</time></trkpt><trkpt lat="30.88540077" lon="34.77595139"><ele>462.6</ele><time>2013-11-20T13:10:39.0000000+00:00</time></trkpt><trkpt lat="30.88540077" lon="34.77595139"><ele>462.7</ele><time>2013-11-20T13:10:44.0000000+00:00</time></trkpt><trkpt lat="30.88540077" lon="34.77595139"><ele>462.7</ele><time>2013-11-20T13:10:49.0000000+00:00</time></trkpt><trkpt lat="30.88540077" lon="34.77595139"><ele>462.7</ele><time>2013-11-20T13:10:54.0000000+00:00</time></trkpt><trkpt lat="30.88540077" lon="34.77595139"><ele>462.7</ele><time>2013-11-20T13:10:59.0000000+00:00</time></trkpt><trkpt lat="30.88540077" lon="34.77595139"><ele>462.7</ele><time>2013-11-20T13:11:04.0000000+00:00</time></trkpt><trkpt lat="30.88540077" lon="34.77595139"><ele>462.7</ele><time>2013-11-20T13:11:09.0000000+00:00</time></trkpt><trkpt lat="30.88540077" lon="34.77595139"><ele>462.7</ele><time>2013-11-20T13:11:14.0000000+00:00</time></trkpt><trkpt lat="30.88540077" lon="34.77595139"><ele>462.8</ele><time>2013-11-20T13:11:19.0000000+00:00</time></trkpt><trkpt lat="30.88540077" lon="34.77595139"><ele>462.8</ele><time>2013-11-20T13:11:24.0000000+00:00</time></trkpt><trkpt lat="30.88540077" lon="34.77595139"><ele>462.8</ele><time>2013-11-20T13:11:29.0000000+00:00</time></trkpt><trkpt lat="30.88540077" lon="34.77595139"><ele>462.8</ele><time>2013-11-20T13:11:34.0000000+00:00</time></trkpt><trkpt lat="30.88540077" lon="34.77595139"><ele>462.8</ele><time>2013-11-20T13:11:39.0000000+00:00</time></trkpt><trkpt lat="30.88539887" lon="34.77595139"><ele>462.8</ele><time>2013-11-20T13:11:44.0000000+00:00</time></trkpt><trkpt lat="30.88539887" lon="34.77595139"><ele>462.8</ele><time>2013-11-20T13:11:49.0000000+00:00</time></trkpt><trkpt lat="30.88539887" lon="34.77595139"><ele>462.8</ele><time>2013-11-20T13:11:54.0000000+00:00</time></trkpt><trkpt lat="30.88539887" lon="34.77595139"><ele>462.8</ele><time>2013-11-20T13:11:59.0000000+00:00</time></trkpt><trkpt lat="30.88539887" lon="34.77595139"><ele>462.9</ele><time>2013-11-20T13:12:04.0000000+00:00</time></trkpt><trkpt lat="30.88539887" lon="34.77595139"><ele>462.9</ele><time>2013-11-20T13:12:09.0000000+00:00</time></trkpt><trkpt lat="30.88539887" lon="34.77595139"><ele>462.9</ele><time>2013-11-20T13:12:14.0000000+00:00</time></trkpt><trkpt lat="30.88540459" lon="34.77595902"><ele>462.9</ele><time>2013-11-20T13:12:19.0000000+00:00</time></trkpt><trkpt lat="30.88544846" lon="34.77593613"><ele>462.5</ele><time>2013-11-20T13:12:24.0000000+00:00</time></trkpt><trkpt lat="30.88544846" lon="34.77593613"><ele>462.2</ele><time>2013-11-20T13:12:29.0000000+00:00</time></trkpt><trkpt lat="30.88544846" lon="34.77593613"><ele>462.2</ele><time>2013-11-20T13:12:34.0000000+00:00</time></trkpt><trkpt lat="30.88546372" lon="34.7759285"><ele>461.9</ele><time>2013-11-20T13:12:39.0000000+00:00</time></trkpt><trkpt lat="30.88558197" lon="34.77584457"><ele>461.5</ele><time>2013-11-20T13:12:44.0000000+00:00</time></trkpt><trkpt lat="30.88570023" lon="34.77576065"><ele>460.7</ele><time>2013-11-20T13:12:49.0000000+00:00</time></trkpt><trkpt lat="30.88589287" lon="34.77571106"><ele>459.3</ele><time>2013-11-20T13:12:54.0000000+00:00</time></trkpt><trkpt lat="30.8861084" lon="34.77566528"><ele>459.7</ele><time>2013-11-20T13:12:59.0000000+00:00</time></trkpt><trkpt lat="30.88632965" lon="34.77560043"><ele>459.5</ele><time>2013-11-20T13:13:04.0000000+00:00</time></trkpt><trkpt lat="30.88657761" lon="34.77556992"><ele>459.7</ele><time>2013-11-20T13:13:09.0000000+00:00</time></trkpt><trkpt lat="30.88681221" lon="34.77558518"><ele>460.2</ele><time>2013-11-20T13:13:14.0000000+00:00</time></trkpt><trkpt lat="30.88695335" lon="34.77560806"><ele>461.2</ele><time>2013-11-20T13:13:19.0000000+00:00</time></trkpt><trkpt lat="30.88706207" lon="34.77563095"><ele>460.1</ele><time>2013-11-20T13:13:24.0000000+00:00</time></trkpt><trkpt lat="30.88724136" lon="34.77565002"><ele>460.6</ele><time>2013-11-20T13:13:29.0000000+00:00</time></trkpt><trkpt lat="30.88744354" lon="34.77566147"><ele>460.8</ele><time>2013-11-20T13:13:34.0000000+00:00</time></trkpt><trkpt lat="30.88768005" lon="34.77566528"><ele>461.1</ele><time>2013-11-20T13:13:39.0000000+00:00</time></trkpt><trkpt lat="30.88789558" lon="34.77568054"><ele>461.4</ele><time>2013-11-20T13:13:44.0000000+00:00</time></trkpt><trkpt lat="30.88813591" lon="34.77570343"><ele>459.1</ele><time>2013-11-20T13:13:49.0000000+00:00</time></trkpt><trkpt lat="30.8883915" lon="34.77573013"><ele>459.0</ele><time>2013-11-20T13:13:54.0000000+00:00</time></trkpt><trkpt lat="30.88861847" lon="34.77574539"><ele>459.4</ele><time>2013-11-20T13:13:59.0000000+00:00</time></trkpt><trkpt lat="30.88887405" lon="34.7757721"><ele>460.2</ele><time>2013-11-20T13:14:04.0000000+00:00</time></trkpt><trkpt lat="30.88912201" lon="34.7758255"><ele>460.4</ele><time>2013-11-20T13:14:09.0000000+00:00</time></trkpt><trkpt lat="30.88934326" lon="34.77578735"><ele>459.5</ele><time>2013-11-20T13:14:14.0000000+00:00</time></trkpt><trkpt lat="30.88954735" lon="34.77571106"><ele>459.0</ele><time>2013-11-20T13:14:19.0000000+00:00</time></trkpt><trkpt lat="30.88977623" lon="34.77569962"><ele>458.6</ele><time>2013-11-20T13:14:24.0000000+00:00</time></trkpt><trkpt lat="30.88998985" lon="34.77568817"><ele>457.5</ele><time>2013-11-20T13:14:29.0000000+00:00</time></trkpt><trkpt lat="30.89019775" lon="34.77573395"><ele>458.2</ele><time>2013-11-20T13:14:34.0000000+00:00</time></trkpt><trkpt lat="30.89038277" lon="34.77581024"><ele>458.1</ele><time>2013-11-20T13:14:39.0000000+00:00</time></trkpt><trkpt lat="30.89059639" lon="34.77586365"><ele>458.9</ele><time>2013-11-20T13:14:44.0000000+00:00</time></trkpt><trkpt lat="30.89080048" lon="34.77585602"><ele>458.9</ele><time>2013-11-20T13:14:49.0000000+00:00</time></trkpt><trkpt lat="30.89101028" lon="34.77584457"><ele>459.3</ele><time>2013-11-20T13:14:54.0000000+00:00</time></trkpt><trkpt lat="30.89119721" lon="34.77584076"><ele>460.6</ele><time>2013-11-20T13:14:59.0000000+00:00</time></trkpt><trkpt lat="30.89134979" lon="34.77585602"><ele>461.4</ele><time>2013-11-20T13:15:04.0000000+00:00</time></trkpt><trkpt lat="30.89155769" lon="34.77580643"><ele>461.2</ele><time>2013-11-20T13:15:09.0000000+00:00</time></trkpt><trkpt lat="30.89175224" lon="34.77574921"><ele>461.3</ele><time>2013-11-20T13:15:14.0000000+00:00</time></trkpt><trkpt lat="30.89193916" lon="34.77563095"><ele>461.4</ele><time>2013-11-20T13:15:19.0000000+00:00</time></trkpt><trkpt lat="30.89213371" lon="34.77553177"><ele>461.6</ele><time>2013-11-20T13:15:24.0000000+00:00</time></trkpt><trkpt lat="30.89230728" lon="34.77544403"><ele>462.0</ele><time>2013-11-20T13:15:29.0000000+00:00</time></trkpt><trkpt lat="30.89247322" lon="34.77541351"><ele>462.5</ele><time>2013-11-20T13:15:34.0000000+00:00</time></trkpt><trkpt lat="30.89258385" lon="34.77537537"><ele>462.5</ele><time>2013-11-20T13:15:39.0000000+00:00</time></trkpt><trkpt lat="30.89274597" lon="34.7753067"><ele>462.2</ele><time>2013-11-20T13:15:44.0000000+00:00</time></trkpt><trkpt lat="30.8929596" lon="34.77529144"><ele>461.7</ele><time>2013-11-20T13:15:49.0000000+00:00</time></trkpt><trkpt lat="30.89318848" lon="34.77524567"><ele>462.0</ele><time>2013-11-20T13:15:54.0000000+00:00</time></trkpt><trkpt lat="30.89341354" lon="34.77516174"><ele>461.9</ele><time>2013-11-20T13:15:59.0000000+00:00</time></trkpt><trkpt lat="30.89363098" lon="34.77511597"><ele>461.7</ele><time>2013-11-20T13:16:04.0000000+00:00</time></trkpt><trkpt lat="30.89378166" lon="34.77506256"><ele>462.2</ele><time>2013-11-20T13:16:09.0000000+00:00</time></trkpt><trkpt lat="30.89393425" lon="34.77492142"><ele>462.3</ele><time>2013-11-20T13:16:14.0000000+00:00</time></trkpt><trkpt lat="30.89415169" lon="34.77478409"><ele>462.4</ele><time>2013-11-20T13:16:19.0000000+00:00</time></trkpt><trkpt lat="30.89436531" lon="34.77466583"><ele>462.0</ele><time>2013-11-20T13:16:24.0000000+00:00</time></trkpt><trkpt lat="30.89460564" lon="34.77462769"><ele>461.4</ele><time>2013-11-20T13:16:29.0000000+00:00</time></trkpt><trkpt lat="30.89483643" lon="34.77455139"><ele>461.2</ele><time>2013-11-20T13:16:34.0000000+00:00</time></trkpt><trkpt lat="30.8950634" lon="34.77447128"><ele>461.1</ele><time>2013-11-20T13:16:39.0000000+00:00</time></trkpt><trkpt lat="30.89528656" lon="34.77436447"><ele>461.8</ele><time>2013-11-20T13:16:44.0000000+00:00</time></trkpt><trkpt lat="30.89547348" lon="34.7742691"><ele>462.5</ele><time>2013-11-20T13:16:49.0000000+00:00</time></trkpt><trkpt lat="30.89565086" lon="34.77416992"><ele>461.9</ele><time>2013-11-20T13:16:54.0000000+00:00</time></trkpt><trkpt lat="30.89584732" lon="34.77404404"><ele>461.4</ele><time>2013-11-20T13:16:59.0000000+00:00</time></trkpt><trkpt lat="30.89601326" lon="34.77390289"><ele>461.2</ele><time>2013-11-20T13:17:04.0000000+00:00</time></trkpt><trkpt lat="30.89619064" lon="34.77374268"><ele>461.0</ele><time>2013-11-20T13:17:09.0000000+00:00</time></trkpt><trkpt lat="30.89634132" lon="34.77358627"><ele>461.0</ele><time>2013-11-20T13:17:14.0000000+00:00</time></trkpt><trkpt lat="30.89650726" lon="34.77342224"><ele>460.1</ele><time>2013-11-20T13:17:19.0000000+00:00</time></trkpt><trkpt lat="30.896698" lon="34.77323914"><ele>459.5</ele><time>2013-11-20T13:17:24.0000000+00:00</time></trkpt><trkpt lat="30.89688683" lon="34.77307892"><ele>459.0</ele><time>2013-11-20T13:17:29.0000000+00:00</time></trkpt><trkpt lat="30.89706802" lon="34.77293015"><ele>459.7</ele><time>2013-11-20T13:17:34.0000000+00:00</time></trkpt><trkpt lat="30.89722824" lon="34.77282333"><ele>459.8</ele><time>2013-11-20T13:17:39.0000000+00:00</time></trkpt><trkpt lat="30.8973465" lon="34.77267838"><ele>459.5</ele><time>2013-11-20T13:17:44.0000000+00:00</time></trkpt><trkpt lat="30.89742851" lon="34.77255249"><ele>458.5</ele><time>2013-11-20T13:17:49.0000000+00:00</time></trkpt><trkpt lat="30.89745903" lon="34.77244186"><ele>456.5</ele><time>2013-11-20T13:17:54.0000000+00:00</time></trkpt><trkpt lat="30.89747238" lon="34.77235413"><ele>455.4</ele><time>2013-11-20T13:17:59.0000000+00:00</time></trkpt><trkpt lat="30.89756203" lon="34.77233124"><ele>455.5</ele><time>2013-11-20T13:18:04.0000000+00:00</time></trkpt><trkpt lat="30.89772034" lon="34.77229691"><ele>456.1</ele><time>2013-11-20T13:18:09.0000000+00:00</time></trkpt><trkpt lat="30.89793205" lon="34.77222824"><ele>455.6</ele><time>2013-11-20T13:18:14.0000000+00:00</time></trkpt><trkpt lat="30.89816475" lon="34.77214432"><ele>455.6</ele><time>2013-11-20T13:18:19.0000000+00:00</time></trkpt><trkpt lat="30.89839745" lon="34.77206421"><ele>455.8</ele><time>2013-11-20T13:18:24.0000000+00:00</time></trkpt><trkpt lat="30.89863014" lon="34.7719841"><ele>456.2</ele><time>2013-11-20T13:18:29.0000000+00:00</time></trkpt><trkpt lat="30.89886284" lon="34.77190781"><ele>456.1</ele><time>2013-11-20T13:18:34.0000000+00:00</time></trkpt><trkpt lat="30.89910889" lon="34.77183151"><ele>455.3</ele><time>2013-11-20T13:18:39.0000000+00:00</time></trkpt><trkpt lat="30.89933968" lon="34.77177048"><ele>454.9</ele><time>2013-11-20T13:18:44.0000000+00:00</time></trkpt><trkpt lat="30.89958382" lon="34.77168274"><ele>455.4</ele><time>2013-11-20T13:18:49.0000000+00:00</time></trkpt><trkpt lat="30.89980888" lon="34.77159119"><ele>455.4</ele><time>2013-11-20T13:18:54.0000000+00:00</time></trkpt><trkpt lat="30.90004158" lon="34.77151871"><ele>455.4</ele><time>2013-11-20T13:18:59.0000000+00:00</time></trkpt><trkpt lat="30.90027809" lon="34.77144241"><ele>453.8</ele><time>2013-11-20T13:19:04.0000000+00:00</time></trkpt><trkpt lat="30.90054894" lon="34.77135849"><ele>453.0</ele><time>2013-11-20T13:19:09.0000000+00:00</time></trkpt><trkpt lat="30.90081215" lon="34.77125931"><ele>452.2</ele><time>2013-11-20T13:19:14.0000000+00:00</time></trkpt><trkpt lat="30.90106964" lon="34.77117539"><ele>451.7</ele><time>2013-11-20T13:19:19.0000000+00:00</time></trkpt><trkpt lat="30.90132523" lon="34.77106857"><ele>452.0</ele><time>2013-11-20T13:19:24.0000000+00:00</time></trkpt><trkpt lat="30.90155792" lon="34.77094269"><ele>453.4</ele><time>2013-11-20T13:19:29.0000000+00:00</time></trkpt><trkpt lat="30.90174484" lon="34.77088165"><ele>454.1</ele><time>2013-11-20T13:19:34.0000000+00:00</time></trkpt><trkpt lat="30.90193558" lon="34.77080917"><ele>454.1</ele><time>2013-11-20T13:19:39.0000000+00:00</time></trkpt><trkpt lat="30.90211296" lon="34.77077484"><ele>454.2</ele><time>2013-11-20T13:19:44.0000000+00:00</time></trkpt><trkpt lat="30.90220642" lon="34.77080536"><ele>454.0</ele><time>2013-11-20T13:19:49.0000000+00:00</time></trkpt><trkpt lat="30.90227699" lon="34.77081299"><ele>455.2</ele><time>2013-11-20T13:19:54.0000000+00:00</time></trkpt><trkpt lat="30.90237618" lon="34.77087021"><ele>457.6</ele><time>2013-11-20T13:19:59.0000000+00:00</time></trkpt><trkpt lat="30.90247917" lon="34.7709198"><ele>458.9</ele><time>2013-11-20T13:20:04.0000000+00:00</time></trkpt><trkpt lat="30.90260887" lon="34.77097321"><ele>460.4</ele><time>2013-11-20T13:20:09.0000000+00:00</time></trkpt><trkpt lat="30.90272331" lon="34.77103806"><ele>462.6</ele><time>2013-11-20T13:20:14.0000000+00:00</time></trkpt><trkpt lat="30.90286827" lon="34.77111816"><ele>464.6</ele><time>2013-11-20T13:20:19.0000000+00:00</time></trkpt><trkpt lat="30.90302658" lon="34.77119446"><ele>462.6</ele><time>2013-11-20T13:20:24.0000000+00:00</time></trkpt><trkpt lat="30.90320396" lon="34.77127838"><ele>461.0</ele><time>2013-11-20T13:20:29.0000000+00:00</time></trkpt><trkpt lat="30.90340233" lon="34.77133179"><ele>460.9</ele><time>2013-11-20T13:20:34.0000000+00:00</time></trkpt><trkpt lat="30.90360832" lon="34.77140427"><ele>462.5</ele><time>2013-11-20T13:20:39.0000000+00:00</time></trkpt><trkpt lat="30.90378571" lon="34.77145386"><ele>462.0</ele><time>2013-11-20T13:20:44.0000000+00:00</time></trkpt><trkpt lat="30.90398407" lon="34.77152634"><ele>459.2</ele><time>2013-11-20T13:20:49.0000000+00:00</time></trkpt><trkpt lat="30.90416908" lon="34.77159882"><ele>457.4</ele><time>2013-11-20T13:20:54.0000000+00:00</time></trkpt><trkpt lat="30.90433693" lon="34.77166748"><ele>458.7</ele><time>2013-11-20T13:20:59.0000000+00:00</time></trkpt><trkpt lat="30.90454674" lon="34.77177429"><ele>456.7</ele><time>2013-11-20T13:21:04.0000000+00:00</time></trkpt><trkpt lat="30.90473747" lon="34.77186966"><ele>458.7</ele><time>2013-11-20T13:21:09.0000000+00:00</time></trkpt><trkpt lat="30.90493202" lon="34.7719574"><ele>461.0</ele><time>2013-11-20T13:21:14.0000000+00:00</time></trkpt><trkpt lat="30.9051075" lon="34.77200317"><ele>462.0</ele><time>2013-11-20T13:21:19.0000000+00:00</time></trkpt><trkpt lat="30.90520096" lon="34.77204514"><ele>462.3</ele><time>2013-11-20T13:21:24.0000000+00:00</time></trkpt><trkpt lat="30.90520287" lon="34.77204514"><ele>462.3</ele><time>2013-11-20T13:21:29.0000000+00:00</time></trkpt><trkpt lat="30.90520287" lon="34.77204132"><ele>462.3</ele><time>2013-11-20T13:21:34.0000000+00:00</time></trkpt><trkpt lat="30.90520096" lon="34.77204132"><ele>462.3</ele><time>2013-11-20T13:21:39.0000000+00:00</time></trkpt><trkpt lat="30.90520096" lon="34.77204132"><ele>462.3</ele><time>2013-11-20T13:21:44.0000000+00:00</time></trkpt><trkpt lat="30.90520096" lon="34.77204132"><ele>462.3</ele><time>2013-11-20T13:21:49.0000000+00:00</time></trkpt><trkpt lat="30.90520096" lon="34.77204132"><ele>462.3</ele><time>2013-11-20T13:21:54.0000000+00:00</time></trkpt><trkpt lat="30.90520096" lon="34.77204132"><ele>462.4</ele><time>2013-11-20T13:21:59.0000000+00:00</time></trkpt><trkpt lat="30.90520096" lon="34.77204132"><ele>462.4</ele><time>2013-11-20T13:22:04.0000000+00:00</time></trkpt><trkpt lat="30.90520096" lon="34.77204132"><ele>462.4</ele><time>2013-11-20T13:22:09.0000000+00:00</time></trkpt><trkpt lat="30.90520096" lon="34.77204132"><ele>462.3</ele><time>2013-11-20T13:22:14.0000000+00:00</time></trkpt><trkpt lat="30.90520096" lon="34.77204132"><ele>462.3</ele><time>2013-11-20T13:22:19.0000000+00:00</time></trkpt><trkpt lat="30.90520096" lon="34.77204132"><ele>462.3</ele><time>2013-11-20T13:22:24.0000000+00:00</time></trkpt><trkpt lat="30.90519905" lon="34.77204132"><ele>462.3</ele><time>2013-11-20T13:22:29.0000000+00:00</time></trkpt><trkpt lat="30.90519905" lon="34.77204132"><ele>462.3</ele><time>2013-11-20T13:22:34.0000000+00:00</time></trkpt><trkpt lat="30.90519905" lon="34.77204132"><ele>462.3</ele><time>2013-11-20T13:22:39.0000000+00:00</time></trkpt><trkpt lat="30.90519905" lon="34.77204132"><ele>462.3</ele><time>2013-11-20T13:22:44.0000000+00:00</time></trkpt><trkpt lat="30.90519905" lon="34.77204132"><ele>462.3</ele><time>2013-11-20T13:22:49.0000000+00:00</time></trkpt><trkpt lat="30.90519905" lon="34.77204132"><ele>462.3</ele><time>2013-11-20T13:22:54.0000000+00:00</time></trkpt><trkpt lat="30.90519905" lon="34.77204132"><ele>462.3</ele><time>2013-11-20T13:22:59.0000000+00:00</time></trkpt><trkpt lat="30.90519905" lon="34.77204132"><ele>462.3</ele><time>2013-11-20T13:23:04.0000000+00:00</time></trkpt><trkpt lat="30.90519905" lon="34.77204132"><ele>462.3</ele><time>2013-11-20T13:23:09.0000000+00:00</time></trkpt><trkpt lat="30.90529251" lon="34.77206421"><ele>461.9</ele><time>2013-11-20T13:23:14.0000000+00:00</time></trkpt><trkpt lat="30.90547943" lon="34.77213669"><ele>459.8</ele><time>2013-11-20T13:23:19.0000000+00:00</time></trkpt><trkpt lat="30.90568543" lon="34.7722168"><ele>459.9</ele><time>2013-11-20T13:23:24.0000000+00:00</time></trkpt><trkpt lat="30.90589523" lon="34.77231598"><ele>459.1</ele><time>2013-11-20T13:23:29.0000000+00:00</time></trkpt><trkpt lat="30.90613937" lon="34.77241898"><ele>458.7</ele><time>2013-11-20T13:23:34.0000000+00:00</time></trkpt><trkpt lat="30.90625763" lon="34.77258682"><ele>459.6</ele><time>2013-11-20T13:23:39.0000000+00:00</time></trkpt><trkpt lat="30.90621185" lon="34.77268219"><ele>462.1</ele><time>2013-11-20T13:23:44.0000000+00:00</time></trkpt><trkpt lat="30.90619659" lon="34.77284241"><ele>462.6</ele><time>2013-11-20T13:23:49.0000000+00:00</time></trkpt><trkpt lat="30.90619087" lon="34.77301788"><ele>463.0</ele><time>2013-11-20T13:23:54.0000000+00:00</time></trkpt><trkpt lat="30.9061718" lon="34.77318192"><ele>464.9</ele><time>2013-11-20T13:23:59.0000000+00:00</time></trkpt><trkpt lat="30.9061718" lon="34.77334595"><ele>464.2</ele><time>2013-11-20T13:24:04.0000000+00:00</time></trkpt><trkpt lat="30.90625382" lon="34.77349472"><ele>465.6</ele><time>2013-11-20T13:24:09.0000000+00:00</time></trkpt><trkpt lat="30.90636444" lon="34.77363205"><ele>464.9</ele><time>2013-11-20T13:24:14.0000000+00:00</time></trkpt><trkpt lat="30.90646172" lon="34.77374649"><ele>464.5</ele><time>2013-11-20T13:24:19.0000000+00:00</time></trkpt><trkpt lat="30.90657997" lon="34.77387619"><ele>464.6</ele><time>2013-11-20T13:24:24.0000000+00:00</time></trkpt><trkpt lat="30.90669632" lon="34.77400971"><ele>464.7</ele><time>2013-11-20T13:24:29.0000000+00:00</time></trkpt><trkpt lat="30.90678024" lon="34.77417755"><ele>465.0</ele><time>2013-11-20T13:24:34.0000000+00:00</time></trkpt><trkpt lat="30.90682602" lon="34.77435303"><ele>465.7</ele><time>2013-11-20T13:24:39.0000000+00:00</time></trkpt><trkpt lat="30.90690231" lon="34.77453613"><ele>466.1</ele><time>2013-11-20T13:24:44.0000000+00:00</time></trkpt><trkpt lat="30.90698814" lon="34.77471924"><ele>466.4</ele><time>2013-11-20T13:24:49.0000000+00:00</time></trkpt><trkpt lat="30.9070797" lon="34.77489853"><ele>466.1</ele><time>2013-11-20T13:24:54.0000000+00:00</time></trkpt><trkpt lat="30.90720558" lon="34.77505875"><ele>466.0</ele><time>2013-11-20T13:24:59.0000000+00:00</time></trkpt><trkpt lat="30.90731621" lon="34.77524948"><ele>466.5</ele><time>2013-11-20T13:25:04.0000000+00:00</time></trkpt><trkpt lat="30.90740395" lon="34.77545166"><ele>465.8</ele><time>2013-11-20T13:25:09.0000000+00:00</time></trkpt><trkpt lat="30.90745926" lon="34.77567291"><ele>465.5</ele><time>2013-11-20T13:25:14.0000000+00:00</time></trkpt><trkpt lat="30.90746689" lon="34.77586365"><ele>466.5</ele><time>2013-11-20T13:25:19.0000000+00:00</time></trkpt><trkpt lat="30.9074707" lon="34.77602387"><ele>469.2</ele><time>2013-11-20T13:25:24.0000000+00:00</time></trkpt><trkpt lat="30.90755844" lon="34.77621079"><ele>467.6</ele><time>2013-11-20T13:25:29.0000000+00:00</time></trkpt><trkpt lat="30.90767288" lon="34.77639389"><ele>466.8</ele><time>2013-11-20T13:25:34.0000000+00:00</time></trkpt><trkpt lat="30.90778351" lon="34.77653885"><ele>466.7</ele><time>2013-11-20T13:25:39.0000000+00:00</time></trkpt><trkpt lat="30.90792656" lon="34.77673721"><ele>465.9</ele><time>2013-11-20T13:25:44.0000000+00:00</time></trkpt><trkpt lat="30.90806198" lon="34.77692795"><ele>466.0</ele><time>2013-11-20T13:25:49.0000000+00:00</time></trkpt><trkpt lat="30.90819168" lon="34.77711105"><ele>465.3</ele><time>2013-11-20T13:25:54.0000000+00:00</time></trkpt><trkpt lat="30.90834045" lon="34.77733612"><ele>464.1</ele><time>2013-11-20T13:25:59.0000000+00:00</time></trkpt><trkpt lat="30.90846443" lon="34.77758026"><ele>463.4</ele><time>2013-11-20T13:26:04.0000000+00:00</time></trkpt><trkpt lat="30.90854263" lon="34.77782059"><ele>462.3</ele><time>2013-11-20T13:26:09.0000000+00:00</time></trkpt><trkpt lat="30.90865517" lon="34.77799225"><ele>462.3</ele><time>2013-11-20T13:26:14.0000000+00:00</time></trkpt><trkpt lat="30.90881538" lon="34.77810288"><ele>462.8</ele><time>2013-11-20T13:26:19.0000000+00:00</time></trkpt><trkpt lat="30.90889359" lon="34.77823639"><ele>463.3</ele><time>2013-11-20T13:26:24.0000000+00:00</time></trkpt><trkpt lat="30.90891647" lon="34.77835465"><ele>462.5</ele><time>2013-11-20T13:26:29.0000000+00:00</time></trkpt><trkpt lat="30.90887833" lon="34.77845764"><ele>464.4</ele><time>2013-11-20T13:26:34.0000000+00:00</time></trkpt><trkpt lat="30.90882301" lon="34.77859497"><ele>466.1</ele><time>2013-11-20T13:26:39.0000000+00:00</time></trkpt><trkpt lat="30.90883637" lon="34.778759"><ele>468.2</ele><time>2013-11-20T13:26:44.0000000+00:00</time></trkpt><trkpt lat="30.90875053" lon="34.77890778"><ele>468.7</ele><time>2013-11-20T13:26:49.0000000+00:00</time></trkpt><trkpt lat="30.90867996" lon="34.77904892"><ele>470.1</ele><time>2013-11-20T13:26:54.0000000+00:00</time></trkpt><trkpt lat="30.90860367" lon="34.77919388"><ele>470.6</ele><time>2013-11-20T13:26:59.0000000+00:00</time></trkpt><trkpt lat="30.90852737" lon="34.77931595"><ele>471.7</ele><time>2013-11-20T13:27:04.0000000+00:00</time></trkpt><trkpt lat="30.90846252" lon="34.77942276"><ele>472.7</ele><time>2013-11-20T13:27:09.0000000+00:00</time></trkpt><trkpt lat="30.90840721" lon="34.77959824"><ele>472.9</ele><time>2013-11-20T13:27:14.0000000+00:00</time></trkpt><trkpt lat="30.9084034" lon="34.77978897"><ele>471.8</ele><time>2013-11-20T13:27:19.0000000+00:00</time></trkpt><trkpt lat="30.90839195" lon="34.78007889"><ele>467.9</ele><time>2013-11-20T13:27:24.0000000+00:00</time></trkpt><trkpt lat="30.90839386" lon="34.78042603"><ele>467.7</ele><time>2013-11-20T13:27:29.0000000+00:00</time></trkpt><trkpt lat="30.90845108" lon="34.78070831"><ele>466.6</ele><time>2013-11-20T13:27:34.0000000+00:00</time></trkpt><trkpt lat="30.90841675" lon="34.78089905"><ele>467.3</ele><time>2013-11-20T13:27:39.0000000+00:00</time></trkpt><trkpt lat="30.90835953" lon="34.78108597"><ele>469.0</ele><time>2013-11-20T13:27:44.0000000+00:00</time></trkpt><trkpt lat="30.90821648" lon="34.78116989"><ele>466.7</ele><time>2013-11-20T13:27:49.0000000+00:00</time></trkpt><trkpt lat="30.9080677" lon="34.78126144"><ele>467.4</ele><time>2013-11-20T13:27:54.0000000+00:00</time></trkpt><trkpt lat="30.90794754" lon="34.78136444"><ele>466.8</ele><time>2013-11-20T13:27:59.0000000+00:00</time></trkpt><trkpt lat="30.90779305" lon="34.78145218"><ele>466.3</ele><time>2013-11-20T13:28:04.0000000+00:00</time></trkpt><trkpt lat="30.90761375" lon="34.78152847"><ele>464.3</ele><time>2013-11-20T13:28:09.0000000+00:00</time></trkpt><trkpt lat="30.90743256" lon="34.78162384"><ele>464.0</ele><time>2013-11-20T13:28:14.0000000+00:00</time></trkpt><trkpt lat="30.90726852" lon="34.78171539"><ele>464.7</ele><time>2013-11-20T13:28:19.0000000+00:00</time></trkpt><trkpt lat="30.90709496" lon="34.78181839"><ele>465.8</ele><time>2013-11-20T13:28:24.0000000+00:00</time></trkpt><trkpt lat="30.90692711" lon="34.78190613"><ele>466.4</ele><time>2013-11-20T13:28:29.0000000+00:00</time></trkpt><trkpt lat="30.90675736" lon="34.78199005"><ele>468.0</ele><time>2013-11-20T13:28:34.0000000+00:00</time></trkpt><trkpt lat="30.90657616" lon="34.78210449"><ele>468.6</ele><time>2013-11-20T13:28:39.0000000+00:00</time></trkpt><trkpt lat="30.90641975" lon="34.78219986"><ele>469.3</ele><time>2013-11-20T13:28:44.0000000+00:00</time></trkpt><trkpt lat="30.90627289" lon="34.78229141"><ele>467.0</ele><time>2013-11-20T13:28:49.0000000+00:00</time></trkpt><trkpt lat="30.90611839" lon="34.78240967"><ele>467.1</ele><time>2013-11-20T13:28:54.0000000+00:00</time></trkpt><trkpt lat="30.90595818" lon="34.78250122"><ele>467.4</ele><time>2013-11-20T13:28:59.0000000+00:00</time></trkpt><trkpt lat="30.90579414" lon="34.78259659"><ele>467.7</ele><time>2013-11-20T13:29:04.0000000+00:00</time></trkpt><trkpt lat="30.90563583" lon="34.78270721"><ele>467.1</ele><time>2013-11-20T13:29:09.0000000+00:00</time></trkpt><trkpt lat="30.90550041" lon="34.78279495"><ele>466.3</ele><time>2013-11-20T13:29:14.0000000+00:00</time></trkpt><trkpt lat="30.90538025" lon="34.78286743"><ele>466.9</ele><time>2013-11-20T13:29:19.0000000+00:00</time></trkpt><trkpt lat="30.90526009" lon="34.78291702"><ele>466.8</ele><time>2013-11-20T13:29:24.0000000+00:00</time></trkpt><trkpt lat="30.90519905" lon="34.78304291"><ele>464.9</ele><time>2013-11-20T13:29:29.0000000+00:00</time></trkpt><trkpt lat="30.90523911" lon="34.78318405"><ele>467.8</ele><time>2013-11-20T13:29:34.0000000+00:00</time></trkpt><trkpt lat="30.90525627" lon="34.78334045"><ele>469.4</ele><time>2013-11-20T13:29:39.0000000+00:00</time></trkpt><trkpt lat="30.90517616" lon="34.78347778"><ele>470.3</ele><time>2013-11-20T13:29:44.0000000+00:00</time></trkpt><trkpt lat="30.90508461" lon="34.78360748"><ele>469.3</ele><time>2013-11-20T13:29:49.0000000+00:00</time></trkpt><trkpt lat="30.90494537" lon="34.78371429"><ele>468.9</ele><time>2013-11-20T13:29:54.0000000+00:00</time></trkpt><trkpt lat="30.90481186" lon="34.78379822"><ele>470.0</ele><time>2013-11-20T13:29:59.0000000+00:00</time></trkpt><trkpt lat="30.90477943" lon="34.78395844"><ele>472.2</ele><time>2013-11-20T13:30:04.0000000+00:00</time></trkpt><trkpt lat="30.9047451" lon="34.78416824"><ele>472.5</ele><time>2013-11-20T13:30:09.0000000+00:00</time></trkpt><trkpt lat="30.90466881" lon="34.78432465"><ele>474.0</ele><time>2013-11-20T13:30:13.0000000+00:00</time></trkpt><trkpt lat="30.9046154" lon="34.78447342"><ele>474.3</ele><time>2013-11-20T13:30:19.0000000+00:00</time></trkpt><trkpt lat="30.90455818" lon="34.78467178"><ele>474.3</ele><time>2013-11-20T13:30:24.0000000+00:00</time></trkpt><trkpt lat="30.90448761" lon="34.7848587"><ele>473.6</ele><time>2013-11-20T13:30:29.0000000+00:00</time></trkpt><trkpt lat="30.9044323" lon="34.78491592"><ele>471.6</ele><time>2013-11-20T13:30:34.0000000+00:00</time></trkpt><trkpt lat="30.90444374" lon="34.78490448"><ele>472.2</ele><time>2013-11-20T13:30:39.0000000+00:00</time></trkpt><trkpt lat="30.90444374" lon="34.78490448"><ele>472.0</ele><time>2013-11-20T13:30:44.0000000+00:00</time></trkpt><trkpt lat="30.90444374" lon="34.78490448"><ele>472.0</ele><time>2013-11-20T13:30:49.0000000+00:00</time></trkpt><trkpt lat="30.90444374" lon="34.78490448"><ele>471.9</ele><time>2013-11-20T13:30:54.0000000+00:00</time></trkpt><trkpt lat="30.90444374" lon="34.78490448"><ele>471.9</ele><time>2013-11-20T13:30:59.0000000+00:00</time></trkpt><trkpt lat="30.90444374" lon="34.78490448"><ele>471.9</ele><time>2013-11-20T13:31:04.0000000+00:00</time></trkpt><trkpt lat="30.90444374" lon="34.78490448"><ele>471.8</ele><time>2013-11-20T13:31:09.0000000+00:00</time></trkpt><trkpt lat="30.90444374" lon="34.78490448"><ele>471.8</ele><time>2013-11-20T13:31:14.0000000+00:00</time></trkpt><trkpt lat="30.90444374" lon="34.78490448"><ele>471.8</ele><time>2013-11-20T13:31:19.0000000+00:00</time></trkpt><trkpt lat="30.90444374" lon="34.78490448"><ele>471.8</ele><time>2013-11-20T13:31:24.0000000+00:00</time></trkpt><trkpt lat="30.90444374" lon="34.78490448"><ele>471.8</ele><time>2013-11-20T13:31:29.0000000+00:00</time></trkpt><trkpt lat="30.90444374" lon="34.78490448"><ele>471.8</ele><time>2013-11-20T13:31:34.0000000+00:00</time></trkpt><trkpt lat="30.90444374" lon="34.78490448"><ele>471.8</ele><time>2013-11-20T13:31:39.0000000+00:00</time></trkpt><trkpt lat="30.90444374" lon="34.78490448"><ele>471.8</ele><time>2013-11-20T13:31:44.0000000+00:00</time></trkpt><trkpt lat="30.90444374" lon="34.78490448"><ele>471.8</ele><time>2013-11-20T13:31:49.0000000+00:00</time></trkpt><trkpt lat="30.90444374" lon="34.78490448"><ele>471.8</ele><time>2013-11-20T13:31:54.0000000+00:00</time></trkpt><trkpt lat="30.90444374" lon="34.78490448"><ele>471.8</ele><time>2013-11-20T13:31:59.0000000+00:00</time></trkpt><trkpt lat="30.90444374" lon="34.78490448"><ele>471.8</ele><time>2013-11-20T13:32:04.0000000+00:00</time></trkpt><trkpt lat="30.90444374" lon="34.78490448"><ele>471.8</ele><time>2013-11-20T13:32:09.0000000+00:00</time></trkpt><trkpt lat="30.90444374" lon="34.78490448"><ele>471.8</ele><time>2013-11-20T13:32:14.0000000+00:00</time></trkpt><trkpt lat="30.90444374" lon="34.78490448"><ele>471.8</ele><time>2013-11-20T13:32:19.0000000+00:00</time></trkpt><trkpt lat="30.90444374" lon="34.78490448"><ele>471.8</ele><time>2013-11-20T13:32:24.0000000+00:00</time></trkpt><trkpt lat="30.90444374" lon="34.78490448"><ele>471.8</ele><time>2013-11-20T13:32:29.0000000+00:00</time></trkpt><trkpt lat="30.90444374" lon="34.78490448"><ele>471.9</ele><time>2013-11-20T13:32:34.0000000+00:00</time></trkpt><trkpt lat="30.90444374" lon="34.78490448"><ele>471.9</ele><time>2013-11-20T13:32:39.0000000+00:00</time></trkpt><trkpt lat="30.90444374" lon="34.78490448"><ele>471.8</ele><time>2013-11-20T13:32:44.0000000+00:00</time></trkpt><trkpt lat="30.90444374" lon="34.78490448"><ele>471.8</ele><time>2013-11-20T13:32:49.0000000+00:00</time></trkpt><trkpt lat="30.90444374" lon="34.78490448"><ele>471.8</ele><time>2013-11-20T13:32:54.0000000+00:00</time></trkpt><trkpt lat="30.90444374" lon="34.78490448"><ele>471.8</ele><time>2013-11-20T13:32:59.0000000+00:00</time></trkpt><trkpt lat="30.90444374" lon="34.78490448"><ele>471.8</ele><time>2013-11-20T13:33:04.0000000+00:00</time></trkpt><trkpt lat="30.90444374" lon="34.78490448"><ele>471.8</ele><time>2013-11-20T13:33:09.0000000+00:00</time></trkpt><trkpt lat="30.90444374" lon="34.78490448"><ele>471.8</ele><time>2013-11-20T13:33:14.0000000+00:00</time></trkpt><trkpt lat="30.90444374" lon="34.78490448"><ele>471.8</ele><time>2013-11-20T13:33:19.0000000+00:00</time></trkpt><trkpt lat="30.90444374" lon="34.78490448"><ele>471.8</ele><time>2013-11-20T13:33:24.0000000+00:00</time></trkpt><trkpt lat="30.90444374" lon="34.78490448"><ele>471.8</ele><time>2013-11-20T13:33:29.0000000+00:00</time></trkpt><trkpt lat="30.90444374" lon="34.78490448"><ele>471.8</ele><time>2013-11-20T13:33:34.0000000+00:00</time></trkpt><trkpt lat="30.90444374" lon="34.78490448"><ele>471.8</ele><time>2013-11-20T13:33:39.0000000+00:00</time></trkpt><trkpt lat="30.90444374" lon="34.78490448"><ele>471.8</ele><time>2013-11-20T13:33:44.0000000+00:00</time></trkpt><trkpt lat="30.90444374" lon="34.78490448"><ele>471.8</ele><time>2013-11-20T13:33:49.0000000+00:00</time></trkpt><trkpt lat="30.90444374" lon="34.78490448"><ele>471.8</ele><time>2013-11-20T13:33:54.0000000+00:00</time></trkpt><trkpt lat="30.90444374" lon="34.78490448"><ele>471.8</ele><time>2013-11-20T13:33:59.0000000+00:00</time></trkpt><trkpt lat="30.90444374" lon="34.78490448"><ele>471.8</ele><time>2013-11-20T13:34:04.0000000+00:00</time></trkpt><trkpt lat="30.90444374" lon="34.78490448"><ele>471.8</ele><time>2013-11-20T13:34:09.0000000+00:00</time></trkpt><trkpt lat="30.90444374" lon="34.78490448"><ele>471.8</ele><time>2013-11-20T13:34:14.0000000+00:00</time></trkpt><trkpt lat="30.90444374" lon="34.78490448"><ele>471.8</ele><time>2013-11-20T13:34:19.0000000+00:00</time></trkpt><trkpt lat="30.90444374" lon="34.78490448"><ele>471.8</ele><time>2013-11-20T13:34:24.0000000+00:00</time></trkpt><trkpt lat="30.90444374" lon="34.78490067"><ele>471.8</ele><time>2013-11-20T13:34:29.0000000+00:00</time></trkpt><trkpt lat="30.90444374" lon="34.78490067"><ele>471.8</ele><time>2013-11-20T13:34:34.0000000+00:00</time></trkpt><trkpt lat="30.90444374" lon="34.78490067"><ele>471.8</ele><time>2013-11-20T13:34:39.0000000+00:00</time></trkpt><trkpt lat="30.90444374" lon="34.78490067"><ele>471.8</ele><time>2013-11-20T13:34:44.0000000+00:00</time></trkpt><trkpt lat="30.90444374" lon="34.78490067"><ele>471.8</ele><time>2013-11-20T13:34:49.0000000+00:00</time></trkpt><trkpt lat="30.90444374" lon="34.78490067"><ele>471.8</ele><time>2013-11-20T13:34:54.0000000+00:00</time></trkpt><trkpt lat="30.90444374" lon="34.78490067"><ele>471.8</ele><time>2013-11-20T13:34:59.0000000+00:00</time></trkpt><trkpt lat="30.90438843" lon="34.78495407"><ele>471.8</ele><time>2013-11-20T13:35:04.0000000+00:00</time></trkpt><trkpt lat="30.90436745" lon="34.78512192"><ele>471.1</ele><time>2013-11-20T13:35:09.0000000+00:00</time></trkpt><trkpt lat="30.90446091" lon="34.78527451"><ele>471.5</ele><time>2013-11-20T13:35:14.0000000+00:00</time></trkpt><trkpt lat="30.90447807" lon="34.78545761"><ele>472.4</ele><time>2013-11-20T13:35:19.0000000+00:00</time></trkpt><trkpt lat="30.90436745" lon="34.78559113"><ele>474.0</ele><time>2013-11-20T13:35:24.0000000+00:00</time></trkpt><trkpt lat="30.90423203" lon="34.78570557"><ele>475.2</ele><time>2013-11-20T13:35:29.0000000+00:00</time></trkpt><trkpt lat="30.90411758" lon="34.78586197"><ele>476.9</ele><time>2013-11-20T13:35:34.0000000+00:00</time></trkpt><trkpt lat="30.90402222" lon="34.786026"><ele>477.4</ele><time>2013-11-20T13:35:39.0000000+00:00</time></trkpt><trkpt lat="30.90386009" lon="34.78610992"><ele>477.1</ele><time>2013-11-20T13:35:44.0000000+00:00</time></trkpt><trkpt lat="30.90371323" lon="34.78614807"><ele>477.0</ele><time>2013-11-20T13:35:49.0000000+00:00</time></trkpt><trkpt lat="30.90359879" lon="34.7862587"><ele>478.5</ele><time>2013-11-20T13:35:54.0000000+00:00</time></trkpt><trkpt lat="30.90353012" lon="34.78639603"><ele>478.9</ele><time>2013-11-20T13:35:59.0000000+00:00</time></trkpt><trkpt lat="30.90355682" lon="34.78659058"><ele>475.7</ele><time>2013-11-20T13:36:04.0000000+00:00</time></trkpt><trkpt lat="30.90362167" lon="34.7868309"><ele>476.2</ele><time>2013-11-20T13:36:09.0000000+00:00</time></trkpt><trkpt lat="30.90369606" lon="34.7870903"><ele>475.8</ele><time>2013-11-20T13:36:14.0000000+00:00</time></trkpt><trkpt lat="30.90376091" lon="34.78732681"><ele>475.9</ele><time>2013-11-20T13:36:19.0000000+00:00</time></trkpt><trkpt lat="30.90382385" lon="34.78756714"><ele>476.0</ele><time>2013-11-20T13:36:24.0000000+00:00</time></trkpt><trkpt lat="30.90385437" lon="34.78781891"><ele>476.9</ele><time>2013-11-20T13:36:29.0000000+00:00</time></trkpt><trkpt lat="30.90387344" lon="34.78808212"><ele>477.4</ele><time>2013-11-20T13:36:34.0000000+00:00</time></trkpt><trkpt lat="30.90388489" lon="34.78827286"><ele>477.9</ele><time>2013-11-20T13:36:39.0000000+00:00</time></trkpt><trkpt lat="30.90385819" lon="34.78847504"><ele>478.7</ele><time>2013-11-20T13:36:44.0000000+00:00</time></trkpt><trkpt lat="30.90382195" lon="34.7886734"><ele>479.3</ele><time>2013-11-20T13:36:49.0000000+00:00</time></trkpt><trkpt lat="30.90380669" lon="34.78889084"><ele>480.1</ele><time>2013-11-20T13:36:54.0000000+00:00</time></trkpt><trkpt lat="30.90379334" lon="34.78909302"><ele>481.5</ele><time>2013-11-20T13:36:59.0000000+00:00</time></trkpt><trkpt lat="30.90383339" lon="34.78927994"><ele>481.4</ele><time>2013-11-20T13:37:04.0000000+00:00</time></trkpt><trkpt lat="30.90389061" lon="34.78946686"><ele>481.2</ele><time>2013-11-20T13:37:09.0000000+00:00</time></trkpt><trkpt lat="30.90382576" lon="34.78967285"><ele>479.1</ele><time>2013-11-20T13:37:14.0000000+00:00</time></trkpt><trkpt lat="30.90377045" lon="34.78987885"><ele>477.9</ele><time>2013-11-20T13:37:19.0000000+00:00</time></trkpt><trkpt lat="30.90372467" lon="34.79008102"><ele>478.9</ele><time>2013-11-20T13:37:24.0000000+00:00</time></trkpt><trkpt lat="30.90368843" lon="34.79027176"><ele>479.7</ele><time>2013-11-20T13:37:29.0000000+00:00</time></trkpt><trkpt lat="30.90363312" lon="34.79045105"><ele>480.8</ele><time>2013-11-20T13:37:34.0000000+00:00</time></trkpt><trkpt lat="30.90359116" lon="34.79059601"><ele>481.8</ele><time>2013-11-20T13:37:39.0000000+00:00</time></trkpt><trkpt lat="30.90358543" lon="34.79069138"><ele>482.4</ele><time>2013-11-20T13:37:44.0000000+00:00</time></trkpt><trkpt lat="30.90364075" lon="34.79083252"><ele>482.9</ele><time>2013-11-20T13:37:49.0000000+00:00</time></trkpt><trkpt lat="30.90380669" lon="34.79091644"><ele>483.7</ele><time>2013-11-20T13:37:54.0000000+00:00</time></trkpt><trkpt lat="30.90395927" lon="34.79099274"><ele>485.3</ele><time>2013-11-20T13:37:59.0000000+00:00</time></trkpt><trkpt lat="30.90411186" lon="34.79111862"><ele>485.4</ele><time>2013-11-20T13:38:04.0000000+00:00</time></trkpt><trkpt lat="30.90429688" lon="34.79122162"><ele>486.4</ele><time>2013-11-20T13:38:09.0000000+00:00</time></trkpt><trkpt lat="30.90446091" lon="34.79133606"><ele>487.3</ele><time>2013-11-20T13:38:14.0000000+00:00</time></trkpt><trkpt lat="30.90456772" lon="34.79148102"><ele>487.7</ele><time>2013-11-20T13:38:19.0000000+00:00</time></trkpt><trkpt lat="30.90466118" lon="34.79166031"><ele>487.8</ele><time>2013-11-20T13:38:24.0000000+00:00</time></trkpt><trkpt lat="30.90471649" lon="34.79188538"><ele>488.1</ele><time>2013-11-20T13:38:29.0000000+00:00</time></trkpt><trkpt lat="30.9048233" lon="34.79206085"><ele>487.8</ele><time>2013-11-20T13:38:34.0000000+00:00</time></trkpt><trkpt lat="30.90498734" lon="34.79215622"><ele>488.3</ele><time>2013-11-20T13:38:39.0000000+00:00</time></trkpt><trkpt lat="30.90506935" lon="34.79232025"><ele>488.4</ele><time>2013-11-20T13:38:44.0000000+00:00</time></trkpt><trkpt lat="30.90503311" lon="34.79245377"><ele>489.3</ele><time>2013-11-20T13:38:49.0000000+00:00</time></trkpt><trkpt lat="30.90498543" lon="34.79259872"><ele>490.1</ele><time>2013-11-20T13:38:54.0000000+00:00</time></trkpt><trkpt lat="30.90494537" lon="34.79276657"><ele>490.5</ele><time>2013-11-20T13:38:59.0000000+00:00</time></trkpt><trkpt lat="30.90490723" lon="34.79293823"><ele>490.2</ele><time>2013-11-20T13:39:04.0000000+00:00</time></trkpt><trkpt lat="30.90488625" lon="34.79306793"><ele>490.2</ele><time>2013-11-20T13:39:09.0000000+00:00</time></trkpt><trkpt lat="30.90486908" lon="34.79317856"><ele>490.0</ele><time>2013-11-20T13:39:14.0000000+00:00</time></trkpt><trkpt lat="30.90486336" lon="34.79327774"><ele>490.1</ele><time>2013-11-20T13:39:19.0000000+00:00</time></trkpt><trkpt lat="30.90486336" lon="34.79337692"><ele>490.4</ele><time>2013-11-20T13:39:24.0000000+00:00</time></trkpt><trkpt lat="30.90488243" lon="34.79346085"><ele>490.5</ele><time>2013-11-20T13:39:29.0000000+00:00</time></trkpt><trkpt lat="30.90490723" lon="34.79353333"><ele>490.3</ele><time>2013-11-20T13:39:34.0000000+00:00</time></trkpt><trkpt lat="30.90493202" lon="34.79361343"><ele>490.4</ele><time>2013-11-20T13:39:39.0000000+00:00</time></trkpt><trkpt lat="30.90497208" lon="34.79367065"><ele>490.5</ele><time>2013-11-20T13:39:44.0000000+00:00</time></trkpt><trkpt lat="30.90499306" lon="34.79374313"><ele>490.3</ele><time>2013-11-20T13:39:49.0000000+00:00</time></trkpt><trkpt lat="30.90499115" lon="34.79374695"><ele>490.1</ele><time>2013-11-20T13:39:54.0000000+00:00</time></trkpt><trkpt lat="30.90498924" lon="34.79374695"><ele>490.1</ele><time>2013-11-20T13:39:59.0000000+00:00</time></trkpt><trkpt lat="30.90498924" lon="34.79374695"><ele>490.0</ele><time>2013-11-20T13:40:04.0000000+00:00</time></trkpt><trkpt lat="30.90498924" lon="34.79374695"><ele>490.0</ele><time>2013-11-20T13:40:09.0000000+00:00</time></trkpt><trkpt lat="30.90498924" lon="34.79374695"><ele>490.0</ele><time>2013-11-20T13:40:14.0000000+00:00</time></trkpt><trkpt lat="30.90498924" lon="34.79374695"><ele>490.1</ele><time>2013-11-20T13:40:19.0000000+00:00</time></trkpt><trkpt lat="30.90498924" lon="34.79374695"><ele>490.2</ele><time>2013-11-20T13:40:24.0000000+00:00</time></trkpt><trkpt lat="30.90498924" lon="34.79374695"><ele>490.1</ele><time>2013-11-20T13:40:29.0000000+00:00</time></trkpt><trkpt lat="30.90498924" lon="34.79374695"><ele>490.1</ele><time>2013-11-20T13:40:34.0000000+00:00</time></trkpt><trkpt lat="30.90498924" lon="34.79374695"><ele>490.2</ele><time>2013-11-20T13:40:39.0000000+00:00</time></trkpt><trkpt lat="30.90498924" lon="34.79374695"><ele>490.1</ele><time>2013-11-20T13:40:44.0000000+00:00</time></trkpt><trkpt lat="30.90492821" lon="34.79384232"><ele>488.9</ele><time>2013-11-20T13:40:49.0000000+00:00</time></trkpt><trkpt lat="30.90480423" lon="34.79393387"><ele>487.1</ele><time>2013-11-20T13:40:54.0000000+00:00</time></trkpt><trkpt lat="30.90469742" lon="34.79405975"><ele>489.4</ele><time>2013-11-20T13:40:59.0000000+00:00</time></trkpt><trkpt lat="30.90468788" lon="34.79425812"><ele>489.4</ele><time>2013-11-20T13:41:04.0000000+00:00</time></trkpt><trkpt lat="30.90473557" lon="34.79441834"><ele>490.0</ele><time>2013-11-20T13:41:09.0000000+00:00</time></trkpt><trkpt lat="30.90480042" lon="34.79458237"><ele>490.8</ele><time>2013-11-20T13:41:14.0000000+00:00</time></trkpt><trkpt lat="30.90487099" lon="34.79478836"><ele>491.1</ele><time>2013-11-20T13:41:19.0000000+00:00</time></trkpt><trkpt lat="30.90488815" lon="34.79499435"><ele>492.4</ele><time>2013-11-20T13:41:24.0000000+00:00</time></trkpt><trkpt lat="30.90485764" lon="34.79522324"><ele>492.7</ele><time>2013-11-20T13:41:29.0000000+00:00</time></trkpt><trkpt lat="30.90483856" lon="34.79540634"><ele>494.9</ele><time>2013-11-20T13:41:34.0000000+00:00</time></trkpt><trkpt lat="30.90480042" lon="34.79557037"><ele>498.2</ele><time>2013-11-20T13:41:39.0000000+00:00</time></trkpt><trkpt lat="30.90474892" lon="34.79569244"><ele>497.8</ele><time>2013-11-20T13:41:44.0000000+00:00</time></trkpt><trkpt lat="30.90468597" lon="34.79575729"><ele>499.9</ele><time>2013-11-20T13:41:49.0000000+00:00</time></trkpt><trkpt lat="30.90456772" lon="34.79579544"><ele>503.1</ele><time>2013-11-20T13:41:54.0000000+00:00</time></trkpt><trkpt lat="30.90443611" lon="34.79578781"><ele>504.9</ele><time>2013-11-20T13:41:59.0000000+00:00</time></trkpt><trkpt lat="30.90431786" lon="34.79582596"><ele>506.4</ele><time>2013-11-20T13:42:04.0000000+00:00</time></trkpt><trkpt lat="30.90419579" lon="34.79587555"><ele>507.1</ele><time>2013-11-20T13:42:09.0000000+00:00</time></trkpt><trkpt lat="30.90409088" lon="34.79587936"><ele>508.2</ele><time>2013-11-20T13:42:14.0000000+00:00</time></trkpt><trkpt lat="30.90398216" lon="34.79587936"><ele>509.0</ele><time>2013-11-20T13:42:19.0000000+00:00</time></trkpt><trkpt lat="30.90386009" lon="34.79588318"><ele>508.9</ele><time>2013-11-20T13:42:24.0000000+00:00</time></trkpt><trkpt lat="30.90374565" lon="34.79584885"><ele>508.7</ele><time>2013-11-20T13:42:29.0000000+00:00</time></trkpt><trkpt lat="30.90363312" lon="34.79580689"><ele>509.2</ele><time>2013-11-20T13:42:34.0000000+00:00</time></trkpt><trkpt lat="30.90350723" lon="34.79577255"><ele>509.2</ele><time>2013-11-20T13:42:39.0000000+00:00</time></trkpt><trkpt lat="30.903368" lon="34.79573059"><ele>508.5</ele><time>2013-11-20T13:42:44.0000000+00:00</time></trkpt><trkpt lat="30.90319824" lon="34.79571533"><ele>506.1</ele><time>2013-11-20T13:42:49.0000000+00:00</time></trkpt><trkpt lat="30.9031105" lon="34.79570007"><ele>507.6</ele><time>2013-11-20T13:42:54.0000000+00:00</time></trkpt><trkpt lat="30.9031086" lon="34.79570389"><ele>507.7</ele><time>2013-11-20T13:42:59.0000000+00:00</time></trkpt><trkpt lat="30.90302658" lon="34.7957077"><ele>508.9</ele><time>2013-11-20T13:43:04.0000000+00:00</time></trkpt><trkpt lat="30.90288734" lon="34.79568481"><ele>509.9</ele><time>2013-11-20T13:43:09.0000000+00:00</time></trkpt><trkpt lat="30.9027729" lon="34.79560089"><ele>510.3</ele><time>2013-11-20T13:43:14.0000000+00:00</time></trkpt><trkpt lat="30.90262795" lon="34.79551315"><ele>510.7</ele><time>2013-11-20T13:43:19.0000000+00:00</time></trkpt><trkpt lat="30.90249062" lon="34.7955246"><ele>510.7</ele><time>2013-11-20T13:43:24.0000000+00:00</time></trkpt><trkpt lat="30.90231514" lon="34.79557419"><ele>509.8</ele><time>2013-11-20T13:43:29.0000000+00:00</time></trkpt><trkpt lat="30.9021759" lon="34.79569244"><ele>509.3</ele><time>2013-11-20T13:43:34.0000000+00:00</time></trkpt><trkpt lat="30.90203667" lon="34.79576874"><ele>508.6</ele><time>2013-11-20T13:43:39.0000000+00:00</time></trkpt><trkpt lat="30.90188217" lon="34.79582977"><ele>507.3</ele><time>2013-11-20T13:43:44.0000000+00:00</time></trkpt><trkpt lat="30.90174294" lon="34.79585648"><ele>506.0</ele><time>2013-11-20T13:43:49.0000000+00:00</time></trkpt><trkpt lat="30.90161133" lon="34.79594803"><ele>505.8</ele><time>2013-11-20T13:43:54.0000000+00:00</time></trkpt><trkpt lat="30.90150642" lon="34.79608154"><ele>505.6</ele><time>2013-11-20T13:43:59.0000000+00:00</time></trkpt><trkpt lat="30.90143967" lon="34.79628372"><ele>505.9</ele><time>2013-11-20T13:44:04.0000000+00:00</time></trkpt><trkpt lat="30.90140724" lon="34.79647064"><ele>504.5</ele><time>2013-11-20T13:44:09.0000000+00:00</time></trkpt><trkpt lat="30.90135574" lon="34.79665756"><ele>503.6</ele><time>2013-11-20T13:44:14.0000000+00:00</time></trkpt><trkpt lat="30.90129852" lon="34.79683304"><ele>503.1</ele><time>2013-11-20T13:44:19.0000000+00:00</time></trkpt><trkpt lat="30.9012413" lon="34.79701996"><ele>504.4</ele><time>2013-11-20T13:44:24.0000000+00:00</time></trkpt><trkpt lat="30.9011898" lon="34.79717636"><ele>504.8</ele><time>2013-11-20T13:44:29.0000000+00:00</time></trkpt><trkpt lat="30.90109634" lon="34.79737091"><ele>504.7</ele><time>2013-11-20T13:44:34.0000000+00:00</time></trkpt><trkpt lat="30.90098763" lon="34.79752731"><ele>507.8</ele><time>2013-11-20T13:44:39.0000000+00:00</time></trkpt><trkpt lat="30.90087318" lon="34.79768372"><ele>510.0</ele><time>2013-11-20T13:44:44.0000000+00:00</time></trkpt><trkpt lat="30.9007473" lon="34.79781342"><ele>512.4</ele><time>2013-11-20T13:44:49.0000000+00:00</time></trkpt><trkpt lat="30.9005928" lon="34.7979393"><ele>514.1</ele><time>2013-11-20T13:44:54.0000000+00:00</time></trkpt><trkpt lat="30.90044975" lon="34.79801941"><ele>515.8</ele><time>2013-11-20T13:44:59.0000000+00:00</time></trkpt><trkpt lat="30.90030861" lon="34.798069"><ele>517.2</ele><time>2013-11-20T13:45:04.0000000+00:00</time></trkpt><trkpt lat="30.90021515" lon="34.79821396"><ele>517.7</ele><time>2013-11-20T13:45:09.0000000+00:00</time></trkpt><trkpt lat="30.90020371" lon="34.79840851"><ele>519.4</ele><time>2013-11-20T13:45:14.0000000+00:00</time></trkpt><trkpt lat="30.90015984" lon="34.7984848"><ele>520.2</ele><time>2013-11-20T13:45:19.0000000+00:00</time></trkpt><trkpt lat="30.90007401" lon="34.7985611"><ele>520.8</ele><time>2013-11-20T13:45:24.0000000+00:00</time></trkpt><trkpt lat="30.89992523" lon="34.7985878"><ele>518.9</ele><time>2013-11-20T13:45:29.0000000+00:00</time></trkpt><trkpt lat="30.8997612" lon="34.79856491"><ele>519.3</ele><time>2013-11-20T13:45:34.0000000+00:00</time></trkpt><trkpt lat="30.89962006" lon="34.79847717"><ele>519.6</ele><time>2013-11-20T13:45:39.0000000+00:00</time></trkpt><trkpt lat="30.89948082" lon="34.79837799"><ele>519.3</ele><time>2013-11-20T13:45:44.0000000+00:00</time></trkpt><trkpt lat="30.89930916" lon="34.79830551"><ele>518.6</ele><time>2013-11-20T13:45:49.0000000+00:00</time></trkpt><trkpt lat="30.89913178" lon="34.79827881"><ele>520.1</ele><time>2013-11-20T13:45:54.0000000+00:00</time></trkpt><trkpt lat="30.89896393" lon="34.79827499"><ele>520.4</ele><time>2013-11-20T13:45:59.0000000+00:00</time></trkpt><trkpt lat="30.89879799" lon="34.79823303"><ele>520.5</ele><time>2013-11-20T13:46:04.0000000+00:00</time></trkpt><trkpt lat="30.89866447" lon="34.79830551"><ele>521.2</ele><time>2013-11-20T13:46:09.0000000+00:00</time></trkpt><trkpt lat="30.8985672" lon="34.79839706"><ele>521.8</ele><time>2013-11-20T13:46:14.0000000+00:00</time></trkpt><trkpt lat="30.89848709" lon="34.79847336"><ele>522.5</ele><time>2013-11-20T13:46:19.0000000+00:00</time></trkpt><trkpt lat="30.89837456" lon="34.79856491"><ele>522.5</ele><time>2013-11-20T13:46:24.0000000+00:00</time></trkpt><trkpt lat="30.89825058" lon="34.79867172"><ele>522.1</ele><time>2013-11-20T13:46:29.0000000+00:00</time></trkpt><trkpt lat="30.89814568" lon="34.79878235"><ele>523.2</ele><time>2013-11-20T13:46:34.0000000+00:00</time></trkpt><trkpt lat="30.89801788" lon="34.79888916"><ele>523.3</ele><time>2013-11-20T13:46:39.0000000+00:00</time></trkpt><trkpt lat="30.8978672" lon="34.79894638"><ele>523.3</ele><time>2013-11-20T13:46:44.0000000+00:00</time></trkpt><trkpt lat="30.89770317" lon="34.79893875"><ele>524.2</ele><time>2013-11-20T13:46:49.0000000+00:00</time></trkpt><trkpt lat="30.89756012" lon="34.79895783"><ele>524.3</ele><time>2013-11-20T13:46:54.0000000+00:00</time></trkpt><trkpt lat="30.89741516" lon="34.79896164"><ele>524.8</ele><time>2013-11-20T13:46:59.0000000+00:00</time></trkpt><trkpt lat="30.89728737" lon="34.79895783"><ele>525.0</ele><time>2013-11-20T13:47:04.0000000+00:00</time></trkpt><trkpt lat="30.89714623" lon="34.79898453"><ele>525.6</ele><time>2013-11-20T13:47:09.0000000+00:00</time></trkpt><trkpt lat="30.89703941" lon="34.7990036"><ele>526.0</ele><time>2013-11-20T13:47:14.0000000+00:00</time></trkpt><trkpt lat="30.89693451" lon="34.79899979"><ele>526.8</ele><time>2013-11-20T13:47:19.0000000+00:00</time></trkpt><trkpt lat="30.89683914" lon="34.79903412"><ele>527.9</ele><time>2013-11-20T13:47:24.0000000+00:00</time></trkpt><trkpt lat="30.89678574" lon="34.7992096"><ele>528.5</ele><time>2013-11-20T13:47:29.0000000+00:00</time></trkpt><trkpt lat="30.89672852" lon="34.79936981"><ele>529.5</ele><time>2013-11-20T13:47:34.0000000+00:00</time></trkpt><trkpt lat="30.89660645" lon="34.79944992"><ele>530.5</ele><time>2013-11-20T13:47:39.0000000+00:00</time></trkpt><trkpt lat="30.89647484" lon="34.79950333"><ele>531.5</ele><time>2013-11-20T13:47:44.0000000+00:00</time></trkpt><trkpt lat="30.8963356" lon="34.79959488"><ele>532.8</ele><time>2013-11-20T13:47:49.0000000+00:00</time></trkpt><trkpt lat="30.89622307" lon="34.79969406"><ele>533.8</ele><time>2013-11-20T13:47:54.0000000+00:00</time></trkpt><trkpt lat="30.89613152" lon="34.79986572"><ele>534.8</ele><time>2013-11-20T13:47:59.0000000+00:00</time></trkpt><trkpt lat="30.89600372" lon="34.79995346"><ele>535.1</ele><time>2013-11-20T13:48:04.0000000+00:00</time></trkpt><trkpt lat="30.89587212" lon="34.80006027"><ele>535.6</ele><time>2013-11-20T13:48:09.0000000+00:00</time></trkpt><trkpt lat="30.89585877" lon="34.8002739"><ele>536.3</ele><time>2013-11-20T13:48:14.0000000+00:00</time></trkpt><trkpt lat="30.89589119" lon="34.80047607"><ele>537.2</ele><time>2013-11-20T13:48:19.0000000+00:00</time></trkpt><trkpt lat="30.8958683" lon="34.80065537"><ele>537.4</ele><time>2013-11-20T13:48:24.0000000+00:00</time></trkpt><trkpt lat="30.89585686" lon="34.80077362"><ele>536.8</ele><time>2013-11-20T13:48:29.0000000+00:00</time></trkpt><trkpt lat="30.89595604" lon="34.8008728"><ele>537.3</ele><time>2013-11-20T13:48:34.0000000+00:00</time></trkpt><trkpt lat="30.895998" lon="34.80097961"><ele>537.3</ele><time>2013-11-20T13:48:39.0000000+00:00</time></trkpt><trkpt lat="30.89599419" lon="34.8010788"><ele>537.5</ele><time>2013-11-20T13:48:44.0000000+00:00</time></trkpt><trkpt lat="30.89593124" lon="34.80114746"><ele>538.7</ele><time>2013-11-20T13:48:49.0000000+00:00</time></trkpt><trkpt lat="30.8958149" lon="34.80117416"><ele>539.1</ele><time>2013-11-20T13:48:54.0000000+00:00</time></trkpt><trkpt lat="30.89566422" lon="34.80117035"><ele>539.0</ele><time>2013-11-20T13:48:59.0000000+00:00</time></trkpt><trkpt lat="30.89553642" lon="34.80117416"><ele>539.3</ele><time>2013-11-20T13:49:04.0000000+00:00</time></trkpt><trkpt lat="30.89537239" lon="34.80117035"><ele>539.0</ele><time>2013-11-20T13:49:09.0000000+00:00</time></trkpt><trkpt lat="30.89520454" lon="34.80111313"><ele>539.2</ele><time>2013-11-20T13:49:14.0000000+00:00</time></trkpt><trkpt lat="30.89505768" lon="34.80103684"><ele>539.6</ele><time>2013-11-20T13:49:19.0000000+00:00</time></trkpt><trkpt lat="30.89488411" lon="34.80096054"><ele>540.5</ele><time>2013-11-20T13:49:24.0000000+00:00</time></trkpt><trkpt lat="30.89473915" lon="34.80089951"><ele>541.5</ele><time>2013-11-20T13:49:29.0000000+00:00</time></trkpt><trkpt lat="30.89459801" lon="34.80089569"><ele>540.8</ele><time>2013-11-20T13:49:34.0000000+00:00</time></trkpt><trkpt lat="30.89447212" lon="34.80097961"><ele>541.6</ele><time>2013-11-20T13:49:39.0000000+00:00</time></trkpt><trkpt lat="30.89435577" lon="34.80105591"><ele>541.2</ele><time>2013-11-20T13:49:44.0000000+00:00</time></trkpt><trkpt lat="30.89418793" lon="34.80106735"><ele>540.0</ele><time>2013-11-20T13:49:49.0000000+00:00</time></trkpt><trkpt lat="30.89409256" lon="34.80111313"><ele>540.3</ele><time>2013-11-20T13:49:54.0000000+00:00</time></trkpt><trkpt lat="30.89404869" lon="34.80116272"><ele>541.2</ele><time>2013-11-20T13:49:59.0000000+00:00</time></trkpt><trkpt lat="30.89405441" lon="34.80115891"><ele>540.5</ele><time>2013-11-20T13:50:04.0000000+00:00</time></trkpt><trkpt lat="30.89405441" lon="34.80115891"><ele>540.6</ele><time>2013-11-20T13:50:09.0000000+00:00</time></trkpt><trkpt lat="30.89405441" lon="34.80115891"><ele>540.6</ele><time>2013-11-20T13:50:14.0000000+00:00</time></trkpt><trkpt lat="30.89405441" lon="34.80115891"><ele>540.6</ele><time>2013-11-20T13:50:19.0000000+00:00</time></trkpt><trkpt lat="30.89405441" lon="34.80116272"><ele>540.6</ele><time>2013-11-20T13:50:24.0000000+00:00</time></trkpt><trkpt lat="30.89405441" lon="34.80116272"><ele>540.6</ele><time>2013-11-20T13:50:29.0000000+00:00</time></trkpt><trkpt lat="30.89404488" lon="34.80113602"><ele>540.1</ele><time>2013-11-20T13:50:34.0000000+00:00</time></trkpt><trkpt lat="30.89399719" lon="34.80106354"><ele>538.8</ele><time>2013-11-20T13:50:39.0000000+00:00</time></trkpt><trkpt lat="30.89391899" lon="34.80105972"><ele>538.5</ele><time>2013-11-20T13:50:44.0000000+00:00</time></trkpt><trkpt lat="30.89385986" lon="34.80106354"><ele>538.0</ele><time>2013-11-20T13:50:49.0000000+00:00</time></trkpt><trkpt lat="30.89378548" lon="34.80106735"><ele>537.9</ele><time>2013-11-20T13:50:54.0000000+00:00</time></trkpt><trkpt lat="30.89370918" lon="34.80108643"><ele>537.9</ele><time>2013-11-20T13:50:59.0000000+00:00</time></trkpt><trkpt lat="30.89366341" lon="34.8011055"><ele>538.0</ele><time>2013-11-20T13:51:04.0000000+00:00</time></trkpt><trkpt lat="30.8936367" lon="34.80111694"><ele>538.3</ele><time>2013-11-20T13:51:09.0000000+00:00</time></trkpt><trkpt lat="30.89361" lon="34.80112457"><ele>538.3</ele><time>2013-11-20T13:51:14.0000000+00:00</time></trkpt><trkpt lat="30.89357567" lon="34.80113602"><ele>537.8</ele><time>2013-11-20T13:51:19.0000000+00:00</time></trkpt><trkpt lat="30.89352226" lon="34.80115128"><ele>535.9</ele><time>2013-11-20T13:51:24.0000000+00:00</time></trkpt><trkpt lat="30.89348412" lon="34.80113602"><ele>536.0</ele><time>2013-11-20T13:51:29.0000000+00:00</time></trkpt><trkpt lat="30.89344597" lon="34.80112076"><ele>536.2</ele><time>2013-11-20T13:51:34.0000000+00:00</time></trkpt><trkpt lat="30.89342308" lon="34.80112457"><ele>534.5</ele><time>2013-11-20T13:51:39.0000000+00:00</time></trkpt><trkpt lat="30.89342117" lon="34.8011322"><ele>533.8</ele><time>2013-11-20T13:51:44.0000000+00:00</time></trkpt><trkpt lat="30.89338684" lon="34.80113602"><ele>533.8</ele><time>2013-11-20T13:51:49.0000000+00:00</time></trkpt><trkpt lat="30.89334679" lon="34.80115509"><ele>533.7</ele><time>2013-11-20T13:51:54.0000000+00:00</time></trkpt><trkpt lat="30.89330101" lon="34.80117416"><ele>533.9</ele><time>2013-11-20T13:51:59.0000000+00:00</time></trkpt><trkpt lat="30.89326668" lon="34.8012085"><ele>533.8</ele><time>2013-11-20T13:52:04.0000000+00:00</time></trkpt><trkpt lat="30.89323807" lon="34.80124664"><ele>534.1</ele><time>2013-11-20T13:52:09.0000000+00:00</time></trkpt><trkpt lat="30.89321899" lon="34.80128479"><ele>534.8</ele><time>2013-11-20T13:52:14.0000000+00:00</time></trkpt><trkpt lat="30.89319801" lon="34.80131531"><ele>534.5</ele><time>2013-11-20T13:52:19.0000000+00:00</time></trkpt><trkpt lat="30.89317131" lon="34.80130768"><ele>535.2</ele><time>2013-11-20T13:52:24.0000000+00:00</time></trkpt><trkpt lat="30.89313698" lon="34.80133438"><ele>536.2</ele><time>2013-11-20T13:52:29.0000000+00:00</time></trkpt><trkpt lat="30.89309311" lon="34.80135727"><ele>537.2</ele><time>2013-11-20T13:52:34.0000000+00:00</time></trkpt><trkpt lat="30.89305306" lon="34.8013649"><ele>537.2</ele><time>2013-11-20T13:52:39.0000000+00:00</time></trkpt><trkpt lat="30.89301872" lon="34.80136871"><ele>537.2</ele><time>2013-11-20T13:52:44.0000000+00:00</time></trkpt><trkpt lat="30.89299011" lon="34.80136108"><ele>536.8</ele><time>2013-11-20T13:52:49.0000000+00:00</time></trkpt><trkpt lat="30.89295197" lon="34.80135346"><ele>536.9</ele><time>2013-11-20T13:52:54.0000000+00:00</time></trkpt><trkpt lat="30.89291" lon="34.80134964"><ele>537.3</ele><time>2013-11-20T13:52:59.0000000+00:00</time></trkpt><trkpt lat="30.89291573" lon="34.80135727"><ele>537.1</ele><time>2013-11-20T13:53:04.0000000+00:00</time></trkpt><trkpt lat="30.89286804" lon="34.80138016"><ele>537.1</ele><time>2013-11-20T13:53:09.0000000+00:00</time></trkpt><trkpt lat="30.89276886" lon="34.80142212"><ele>536.9</ele><time>2013-11-20T13:53:14.0000000+00:00</time></trkpt><trkpt lat="30.8926506" lon="34.80143738"><ele>536.2</ele><time>2013-11-20T13:53:19.0000000+00:00</time></trkpt><trkpt lat="30.89252663" lon="34.80142593"><ele>535.6</ele><time>2013-11-20T13:53:24.0000000+00:00</time></trkpt><trkpt lat="30.89244652" lon="34.8014183"><ele>535.5</ele><time>2013-11-20T13:53:29.0000000+00:00</time></trkpt><trkpt lat="30.89233017" lon="34.80141068"><ele>534.9</ele><time>2013-11-20T13:53:34.0000000+00:00</time></trkpt><trkpt lat="30.89219284" lon="34.80141449"><ele>533.9</ele><time>2013-11-20T13:53:39.0000000+00:00</time></trkpt><trkpt lat="30.89203453" lon="34.80142975"><ele>532.2</ele><time>2013-11-20T13:53:44.0000000+00:00</time></trkpt><trkpt lat="30.89183044" lon="34.80144501"><ele>529.3</ele><time>2013-11-20T13:53:49.0000000+00:00</time></trkpt><trkpt lat="30.89160729" lon="34.80147934"><ele>527.8</ele><time>2013-11-20T13:53:54.0000000+00:00</time></trkpt><trkpt lat="30.89136505" lon="34.80148315"><ele>525.9</ele><time>2013-11-20T13:53:59.0000000+00:00</time></trkpt><trkpt lat="30.89124489" lon="34.8014946"><ele>525.4</ele><time>2013-11-20T13:54:04.0000000+00:00</time></trkpt><trkpt lat="30.89124489" lon="34.8014946"><ele>526.0</ele><time>2013-11-20T13:54:09.0000000+00:00</time></trkpt><trkpt lat="30.89123726" lon="34.80149841"><ele>525.5</ele><time>2013-11-20T13:54:14.0000000+00:00</time></trkpt><trkpt lat="30.89123726" lon="34.80149841"><ele>525.4</ele><time>2013-11-20T13:54:19.0000000+00:00</time></trkpt><trkpt lat="30.89116669" lon="34.8014946"><ele>525.2</ele><time>2013-11-20T13:54:24.0000000+00:00</time></trkpt><trkpt lat="30.89098549" lon="34.80148697"><ele>524.0</ele><time>2013-11-20T13:54:29.0000000+00:00</time></trkpt><trkpt lat="30.89079285" lon="34.80147553"><ele>521.6</ele><time>2013-11-20T13:54:34.0000000+00:00</time></trkpt><trkpt lat="30.89060783" lon="34.80148315"><ele>519.6</ele><time>2013-11-20T13:54:39.0000000+00:00</time></trkpt><trkpt lat="30.89036751" lon="34.80139923"><ele>517.1</ele><time>2013-11-20T13:54:44.0000000+00:00</time></trkpt><trkpt lat="30.89009476" lon="34.80134964"><ele>514.6</ele><time>2013-11-20T13:54:49.0000000+00:00</time></trkpt><trkpt lat="30.88983917" lon="34.80143738"><ele>512.3</ele><time>2013-11-20T13:54:54.0000000+00:00</time></trkpt><trkpt lat="30.8896389" lon="34.80148315"><ele>509.6</ele><time>2013-11-20T13:54:59.0000000+00:00</time></trkpt><trkpt lat="30.88948631" lon="34.80148697"><ele>508.0</ele><time>2013-11-20T13:55:04.0000000+00:00</time></trkpt><trkpt lat="30.88939476" lon="34.80146408"><ele>505.9</ele><time>2013-11-20T13:55:09.0000000+00:00</time></trkpt><trkpt lat="30.88931274" lon="34.8014946"><ele>504.7</ele><time>2013-11-20T13:55:14.0000000+00:00</time></trkpt><trkpt lat="30.88923645" lon="34.80150604"><ele>504.1</ele><time>2013-11-20T13:55:19.0000000+00:00</time></trkpt><trkpt lat="30.88912773" lon="34.80150604"><ele>503.9</ele><time>2013-11-20T13:55:24.0000000+00:00</time></trkpt><trkpt lat="30.88903618" lon="34.80151749"><ele>502.8</ele><time>2013-11-20T13:55:29.0000000+00:00</time></trkpt><trkpt lat="30.8890419" lon="34.80151749"><ele>502.8</ele><time>2013-11-20T13:55:34.0000000+00:00</time></trkpt><trkpt lat="30.88894844" lon="34.801548"><ele>502.0</ele><time>2013-11-20T13:55:39.0000000+00:00</time></trkpt><trkpt lat="30.88882828" lon="34.80158234"><ele>501.5</ele><time>2013-11-20T13:55:44.0000000+00:00</time></trkpt><trkpt lat="30.88872719" lon="34.8016243"><ele>501.4</ele><time>2013-11-20T13:55:49.0000000+00:00</time></trkpt><trkpt lat="30.88858604" lon="34.80163193"><ele>501.3</ele><time>2013-11-20T13:55:54.0000000+00:00</time></trkpt><trkpt lat="30.88847733" lon="34.80163193"><ele>500.8</ele><time>2013-11-20T13:55:59.0000000+00:00</time></trkpt><trkpt lat="30.88834763" lon="34.80155563"><ele>499.8</ele><time>2013-11-20T13:56:04.0000000+00:00</time></trkpt><trkpt lat="30.8882103" lon="34.80144119"><ele>498.5</ele><time>2013-11-20T13:56:09.0000000+00:00</time></trkpt><trkpt lat="30.88810158" lon="34.80145645"><ele>497.8</ele><time>2013-11-20T13:56:14.0000000+00:00</time></trkpt><trkpt lat="30.88804245" lon="34.80157471"><ele>497.5</ele><time>2013-11-20T13:56:19.0000000+00:00</time></trkpt><trkpt lat="30.8879509" lon="34.80162048"><ele>499.1</ele><time>2013-11-20T13:56:24.0000000+00:00</time></trkpt><trkpt lat="30.88790512" lon="34.80169296"><ele>499.1</ele><time>2013-11-20T13:56:29.0000000+00:00</time></trkpt><trkpt lat="30.88791466" lon="34.80178452"><ele>498.9</ele><time>2013-11-20T13:56:34.0000000+00:00</time></trkpt><trkpt lat="30.88787079" lon="34.80186462"><ele>498.6</ele><time>2013-11-20T13:56:39.0000000+00:00</time></trkpt><trkpt lat="30.88779831" lon="34.80187225"><ele>499.7</ele><time>2013-11-20T13:56:44.0000000+00:00</time></trkpt><trkpt lat="30.88779831" lon="34.80186462"><ele>499.9</ele><time>2013-11-20T13:56:49.0000000+00:00</time></trkpt><trkpt lat="30.88779831" lon="34.80186081"><ele>499.9</ele><time>2013-11-20T13:56:54.0000000+00:00</time></trkpt><trkpt lat="30.88779831" lon="34.80186081"><ele>499.8</ele><time>2013-11-20T13:56:59.0000000+00:00</time></trkpt><trkpt lat="30.88779831" lon="34.80186081"><ele>499.8</ele><time>2013-11-20T13:57:04.0000000+00:00</time></trkpt><trkpt lat="30.88779831" lon="34.80186081"><ele>499.8</ele><time>2013-11-20T13:57:09.0000000+00:00</time></trkpt><trkpt lat="30.88779831" lon="34.80186081"><ele>499.8</ele><time>2013-11-20T13:57:14.0000000+00:00</time></trkpt><trkpt lat="30.88779831" lon="34.80186081"><ele>499.7</ele><time>2013-11-20T13:57:19.0000000+00:00</time></trkpt><trkpt lat="30.88779831" lon="34.80186081"><ele>499.7</ele><time>2013-11-20T13:57:24.0000000+00:00</time></trkpt><trkpt lat="30.88779831" lon="34.80186081"><ele>499.7</ele><time>2013-11-20T13:57:29.0000000+00:00</time></trkpt><trkpt lat="30.88779831" lon="34.80186081"><ele>499.7</ele><time>2013-11-20T13:57:34.0000000+00:00</time></trkpt><trkpt lat="30.88779831" lon="34.80186081"><ele>499.7</ele><time>2013-11-20T13:57:39.0000000+00:00</time></trkpt><trkpt lat="30.88779831" lon="34.80186081"><ele>499.7</ele><time>2013-11-20T13:57:44.0000000+00:00</time></trkpt><trkpt lat="30.88779831" lon="34.80186081"><ele>499.7</ele><time>2013-11-20T13:57:49.0000000+00:00</time></trkpt><trkpt lat="30.88779831" lon="34.80186081"><ele>499.7</ele><time>2013-11-20T13:57:54.0000000+00:00</time></trkpt><trkpt lat="30.88779831" lon="34.80186081"><ele>499.7</ele><time>2013-11-20T13:57:59.0000000+00:00</time></trkpt><trkpt lat="30.88779831" lon="34.80186081"><ele>499.7</ele><time>2013-11-20T13:58:04.0000000+00:00</time></trkpt><trkpt lat="30.88779831" lon="34.80186081"><ele>499.7</ele><time>2013-11-20T13:58:09.0000000+00:00</time></trkpt><trkpt lat="30.88779831" lon="34.80186081"><ele>499.7</ele><time>2013-11-20T13:58:14.0000000+00:00</time></trkpt><trkpt lat="30.88777733" lon="34.80185318"><ele>499.3</ele><time>2013-11-20T13:58:19.0000000+00:00</time></trkpt><trkpt lat="30.88775826" lon="34.80185318"><ele>499.3</ele><time>2013-11-20T13:58:24.0000000+00:00</time></trkpt><trkpt lat="30.88775826" lon="34.80185318"><ele>499.2</ele><time>2013-11-20T13:58:29.0000000+00:00</time></trkpt><trkpt lat="30.88775826" lon="34.80185318"><ele>499.2</ele><time>2013-11-20T13:58:34.0000000+00:00</time></trkpt><trkpt lat="30.88775826" lon="34.80185318"><ele>499.2</ele><time>2013-11-20T13:58:39.0000000+00:00</time></trkpt><trkpt lat="30.88775826" lon="34.80185318"><ele>499.2</ele><time>2013-11-20T13:58:44.0000000+00:00</time></trkpt><trkpt lat="30.88775826" lon="34.80185318"><ele>499.2</ele><time>2013-11-20T13:58:49.0000000+00:00</time></trkpt><trkpt lat="30.88775826" lon="34.80185318"><ele>499.2</ele><time>2013-11-20T13:58:54.0000000+00:00</time></trkpt><trkpt lat="30.88775826" lon="34.80185318"><ele>499.2</ele><time>2013-11-20T13:58:59.0000000+00:00</time></trkpt><trkpt lat="30.88775826" lon="34.80185318"><ele>499.2</ele><time>2013-11-20T13:59:04.0000000+00:00</time></trkpt><trkpt lat="30.88775826" lon="34.80185318"><ele>499.2</ele><time>2013-11-20T13:59:09.0000000+00:00</time></trkpt><trkpt lat="30.88775826" lon="34.80185318"><ele>499.2</ele><time>2013-11-20T13:59:14.0000000+00:00</time></trkpt><trkpt lat="30.88775826" lon="34.80185318"><ele>499.2</ele><time>2013-11-20T13:59:19.0000000+00:00</time></trkpt><trkpt lat="30.88775635" lon="34.80185318"><ele>499.2</ele><time>2013-11-20T13:59:24.0000000+00:00</time></trkpt><trkpt lat="30.88775635" lon="34.80185318"><ele>499.2</ele><time>2013-11-20T13:59:29.0000000+00:00</time></trkpt><trkpt lat="30.88775635" lon="34.80185318"><ele>499.2</ele><time>2013-11-20T13:59:34.0000000+00:00</time></trkpt><trkpt lat="30.88775635" lon="34.80185318"><ele>499.2</ele><time>2013-11-20T13:59:39.0000000+00:00</time></trkpt><trkpt lat="30.88775635" lon="34.80185318"><ele>499.2</ele><time>2013-11-20T13:59:44.0000000+00:00</time></trkpt><trkpt lat="30.88775635" lon="34.80185318"><ele>499.3</ele><time>2013-11-20T13:59:49.0000000+00:00</time></trkpt><trkpt lat="30.88775635" lon="34.80185318"><ele>499.3</ele><time>2013-11-20T13:59:54.0000000+00:00</time></trkpt><trkpt lat="30.88775635" lon="34.80185318"><ele>499.3</ele><time>2013-11-20T13:59:59.0000000+00:00</time></trkpt><trkpt lat="30.88775063" lon="34.80184174"><ele>499.3</ele><time>2013-11-20T14:00:04.0000000+00:00</time></trkpt><trkpt lat="30.88773918" lon="34.80174637"><ele>499.1</ele><time>2013-11-20T14:00:09.0000000+00:00</time></trkpt><trkpt lat="30.88773155" lon="34.80154419"><ele>494.9</ele><time>2013-11-20T14:00:14.0000000+00:00</time></trkpt><trkpt lat="30.88773537" lon="34.80136108"><ele>495.4</ele><time>2013-11-20T14:00:19.0000000+00:00</time></trkpt><trkpt lat="30.88773727" lon="34.80127335"><ele>494.8</ele><time>2013-11-20T14:00:24.0000000+00:00</time></trkpt><trkpt lat="30.88774681" lon="34.80121994"><ele>493.9</ele><time>2013-11-20T14:00:29.0000000+00:00</time></trkpt><trkpt lat="30.88775635" lon="34.80116272"><ele>493.1</ele><time>2013-11-20T14:00:34.0000000+00:00</time></trkpt><trkpt lat="30.88775063" lon="34.80103684"><ele>492.6</ele><time>2013-11-20T14:00:39.0000000+00:00</time></trkpt><trkpt lat="30.88773537" lon="34.80095291"><ele>493.0</ele><time>2013-11-20T14:00:44.0000000+00:00</time></trkpt><trkpt lat="30.88770294" lon="34.80083084"><ele>492.3</ele><time>2013-11-20T14:00:49.0000000+00:00</time></trkpt><trkpt lat="30.88764763" lon="34.80066299"><ele>492.1</ele><time>2013-11-20T14:00:54.0000000+00:00</time></trkpt><trkpt lat="30.88761711" lon="34.80050659"><ele>493.0</ele><time>2013-11-20T14:00:59.0000000+00:00</time></trkpt><trkpt lat="30.88761711" lon="34.80034638"><ele>493.8</ele><time>2013-11-20T14:01:04.0000000+00:00</time></trkpt><trkpt lat="30.88759422" lon="34.80015564"><ele>494.0</ele><time>2013-11-20T14:01:09.0000000+00:00</time></trkpt><trkpt lat="30.88760185" lon="34.79995346"><ele>493.4</ele><time>2013-11-20T14:01:14.0000000+00:00</time></trkpt><trkpt lat="30.88759041" lon="34.79973602"><ele>493.0</ele><time>2013-11-20T14:01:19.0000000+00:00</time></trkpt><trkpt lat="30.88753891" lon="34.79946899"><ele>491.9</ele><time>2013-11-20T14:01:24.0000000+00:00</time></trkpt><trkpt lat="30.88754082" lon="34.79927063"><ele>491.0</ele><time>2013-11-20T14:01:29.0000000+00:00</time></trkpt><trkpt lat="30.88754273" lon="34.7991066"><ele>492.7</ele><time>2013-11-20T14:01:34.0000000+00:00</time></trkpt><trkpt lat="30.88751411" lon="34.79894257"><ele>494.3</ele><time>2013-11-20T14:01:39.0000000+00:00</time></trkpt><trkpt lat="30.88743401" lon="34.79872513"><ele>495.6</ele><time>2013-11-20T14:01:44.0000000+00:00</time></trkpt><trkpt lat="30.88737106" lon="34.79851151"><ele>496.3</ele><time>2013-11-20T14:01:49.0000000+00:00</time></trkpt><trkpt lat="30.88731384" lon="34.79833221"><ele>494.9</ele><time>2013-11-20T14:01:54.0000000+00:00</time></trkpt><trkpt lat="30.88724327" lon="34.7980957"><ele>494.4</ele><time>2013-11-20T14:01:59.0000000+00:00</time></trkpt><trkpt lat="30.88721466" lon="34.79784393"><ele>493.5</ele><time>2013-11-20T14:02:04.0000000+00:00</time></trkpt><trkpt lat="30.88719368" lon="34.79762268"><ele>493.9</ele><time>2013-11-20T14:02:09.0000000+00:00</time></trkpt><trkpt lat="30.88710022" lon="34.79743576"><ele>493.5</ele><time>2013-11-20T14:02:14.0000000+00:00</time></trkpt><trkpt lat="30.88699913" lon="34.7972908"><ele>493.0</ele><time>2013-11-20T14:02:19.0000000+00:00</time></trkpt><trkpt lat="30.88687325" lon="34.79713821"><ele>492.9</ele><time>2013-11-20T14:02:24.0000000+00:00</time></trkpt><trkpt lat="30.88676262" lon="34.79697418"><ele>493.2</ele><time>2013-11-20T14:02:29.0000000+00:00</time></trkpt><trkpt lat="30.88668251" lon="34.79681397"><ele>494.5</ele><time>2013-11-20T14:02:34.0000000+00:00</time></trkpt><trkpt lat="30.88658142" lon="34.79663849"><ele>493.3</ele><time>2013-11-20T14:02:39.0000000+00:00</time></trkpt><trkpt lat="30.88648224" lon="34.79644013"><ele>492.5</ele><time>2013-11-20T14:02:44.0000000+00:00</time></trkpt><trkpt lat="30.88643646" lon="34.79627991"><ele>493.2</ele><time>2013-11-20T14:02:49.0000000+00:00</time></trkpt><trkpt lat="30.88633537" lon="34.79611969"><ele>491.2</ele><time>2013-11-20T14:02:54.0000000+00:00</time></trkpt><trkpt lat="30.88617706" lon="34.79590607"><ele>489.3</ele><time>2013-11-20T14:02:59.0000000+00:00</time></trkpt><trkpt lat="30.88604164" lon="34.79571152"><ele>489.3</ele><time>2013-11-20T14:03:04.0000000+00:00</time></trkpt><trkpt lat="30.88591957" lon="34.79553223"><ele>490.1</ele><time>2013-11-20T14:03:09.0000000+00:00</time></trkpt><trkpt lat="30.88585281" lon="34.79537964"><ele>490.6</ele><time>2013-11-20T14:03:14.0000000+00:00</time></trkpt><trkpt lat="30.88584137" lon="34.79524612"><ele>491.1</ele><time>2013-11-20T14:03:19.0000000+00:00</time></trkpt><trkpt lat="30.88581085" lon="34.7951088"><ele>491.3</ele><time>2013-11-20T14:03:24.0000000+00:00</time></trkpt><trkpt lat="30.88569641" lon="34.79497528"><ele>490.3</ele><time>2013-11-20T14:03:29.0000000+00:00</time></trkpt><trkpt lat="30.88559151" lon="34.79484558"><ele>490.1</ele><time>2013-11-20T14:03:34.0000000+00:00</time></trkpt><trkpt lat="30.88549805" lon="34.79474258"><ele>490.5</ele><time>2013-11-20T14:03:39.0000000+00:00</time></trkpt><trkpt lat="30.88538361" lon="34.79465866"><ele>490.8</ele><time>2013-11-20T14:03:44.0000000+00:00</time></trkpt><trkpt lat="30.88526535" lon="34.79458237"><ele>491.1</ele><time>2013-11-20T14:03:49.0000000+00:00</time></trkpt><trkpt lat="30.8850956" lon="34.79449463"><ele>491.9</ele><time>2013-11-20T14:03:54.0000000+00:00</time></trkpt><trkpt lat="30.8848896" lon="34.79440689"><ele>492.3</ele><time>2013-11-20T14:03:59.0000000+00:00</time></trkpt><trkpt lat="30.88465881" lon="34.79432678"><ele>492.6</ele><time>2013-11-20T14:04:04.0000000+00:00</time></trkpt><trkpt lat="30.88440132" lon="34.79424286"><ele>492.5</ele><time>2013-11-20T14:04:09.0000000+00:00</time></trkpt><trkpt lat="30.88412857" lon="34.79416657"><ele>492.1</ele><time>2013-11-20T14:04:14.0000000+00:00</time></trkpt><trkpt lat="30.88383293" lon="34.79412842"><ele>491.7</ele><time>2013-11-20T14:04:19.0000000+00:00</time></trkpt><trkpt lat="30.88352394" lon="34.7940445"><ele>491.1</ele><time>2013-11-20T14:04:24.0000000+00:00</time></trkpt><trkpt lat="30.88319016" lon="34.79393768"><ele>490.0</ele><time>2013-11-20T14:04:29.0000000+00:00</time></trkpt><trkpt lat="30.88283157" lon="34.79382324"><ele>489.2</ele><time>2013-11-20T14:04:34.0000000+00:00</time></trkpt><trkpt lat="30.88245964" lon="34.79368973"><ele>488.3</ele><time>2013-11-20T14:04:39.0000000+00:00</time></trkpt><trkpt lat="30.8820858" lon="34.79354477"><ele>488.0</ele><time>2013-11-20T14:04:44.0000000+00:00</time></trkpt><trkpt lat="30.88174629" lon="34.79340363"><ele>488.3</ele><time>2013-11-20T14:04:49.0000000+00:00</time></trkpt><trkpt lat="30.8814373" lon="34.79325867"><ele>488.4</ele><time>2013-11-20T14:04:54.0000000+00:00</time></trkpt><trkpt lat="30.88115883" lon="34.79308701"><ele>488.2</ele><time>2013-11-20T14:04:59.0000000+00:00</time></trkpt><trkpt lat="30.88090324" lon="34.79291153"><ele>488.0</ele><time>2013-11-20T14:05:04.0000000+00:00</time></trkpt><trkpt lat="30.88067436" lon="34.79273605"><ele>486.8</ele><time>2013-11-20T14:05:09.0000000+00:00</time></trkpt><trkpt lat="30.880476" lon="34.79259491"><ele>486.2</ele><time>2013-11-20T14:05:14.0000000+00:00</time></trkpt><trkpt lat="30.88036919" lon="34.79249954"><ele>484.1</ele><time>2013-11-20T14:05:19.0000000+00:00</time></trkpt><trkpt lat="30.88029099" lon="34.79243469"><ele>482.9</ele><time>2013-11-20T14:05:24.0000000+00:00</time></trkpt><trkpt lat="30.88022995" lon="34.79239655"><ele>482.7</ele><time>2013-11-20T14:05:29.0000000+00:00</time></trkpt><trkpt lat="30.88022614" lon="34.79239273"><ele>483.0</ele><time>2013-11-20T14:05:34.0000000+00:00</time></trkpt><trkpt lat="30.88022423" lon="34.79239273"><ele>483.1</ele><time>2013-11-20T14:05:39.0000000+00:00</time></trkpt><trkpt lat="30.88022232" lon="34.79239273"><ele>483.2</ele><time>2013-11-20T14:05:44.0000000+00:00</time></trkpt><trkpt lat="30.88018227" lon="34.79243469"><ele>483.6</ele><time>2013-11-20T14:05:49.0000000+00:00</time></trkpt><trkpt lat="30.88012886" lon="34.79256821"><ele>483.8</ele><time>2013-11-20T14:05:54.0000000+00:00</time></trkpt><trkpt lat="30.8800602" lon="34.79273987"><ele>484.8</ele><time>2013-11-20T14:05:59.0000000+00:00</time></trkpt><trkpt lat="30.87991905" lon="34.79299164"><ele>484.2</ele><time>2013-11-20T14:06:04.0000000+00:00</time></trkpt><trkpt lat="30.87968254" lon="34.79332733"><ele>482.8</ele><time>2013-11-20T14:06:09.0000000+00:00</time></trkpt><trkpt lat="30.87936592" lon="34.7935791"><ele>481.4</ele><time>2013-11-20T14:06:14.0000000+00:00</time></trkpt><trkpt lat="30.87903214" lon="34.79370499"><ele>481.1</ele><time>2013-11-20T14:06:19.0000000+00:00</time></trkpt><trkpt lat="30.87871361" lon="34.79380035"><ele>480.7</ele><time>2013-11-20T14:06:24.0000000+00:00</time></trkpt><trkpt lat="30.87839508" lon="34.79386139"><ele>480.2</ele><time>2013-11-20T14:06:29.0000000+00:00</time></trkpt><trkpt lat="30.8781147" lon="34.79392624"><ele>479.6</ele><time>2013-11-20T14:06:34.0000000+00:00</time></trkpt><trkpt lat="30.8778553" lon="34.79400253"><ele>479.7</ele><time>2013-11-20T14:06:39.0000000+00:00</time></trkpt><trkpt lat="30.87761307" lon="34.79405594"><ele>479.2</ele><time>2013-11-20T14:06:44.0000000+00:00</time></trkpt><trkpt lat="30.87734032" lon="34.79409409"><ele>479.2</ele><time>2013-11-20T14:06:49.0000000+00:00</time></trkpt><trkpt lat="30.87705994" lon="34.79407501"><ele>478.3</ele><time>2013-11-20T14:06:54.0000000+00:00</time></trkpt><trkpt lat="30.87675476" lon="34.79404068"><ele>477.1</ele><time>2013-11-20T14:06:59.0000000+00:00</time></trkpt><trkpt lat="30.87646294" lon="34.79399872"><ele>476.3</ele><time>2013-11-20T14:07:04.0000000+00:00</time></trkpt><trkpt lat="30.87618256" lon="34.79401016"><ele>475.3</ele><time>2013-11-20T14:07:09.0000000+00:00</time></trkpt><trkpt lat="30.87589073" lon="34.79405975"><ele>474.3</ele><time>2013-11-20T14:07:14.0000000+00:00</time></trkpt><trkpt lat="30.87557983" lon="34.7940979"><ele>473.4</ele><time>2013-11-20T14:07:19.0000000+00:00</time></trkpt><trkpt lat="30.87532425" lon="34.79413223"><ele>473.1</ele><time>2013-11-20T14:07:24.0000000+00:00</time></trkpt><trkpt lat="30.87515831" lon="34.79415512"><ele>471.3</ele><time>2013-11-20T14:07:29.0000000+00:00</time></trkpt><trkpt lat="30.87498474" lon="34.79415512"><ele>471.6</ele><time>2013-11-20T14:07:34.0000000+00:00</time></trkpt><trkpt lat="30.87480927" lon="34.79421234"><ele>471.8</ele><time>2013-11-20T14:07:39.0000000+00:00</time></trkpt><trkpt lat="30.87462235" lon="34.79423142"><ele>471.2</ele><time>2013-11-20T14:07:44.0000000+00:00</time></trkpt><trkpt lat="30.87447548" lon="34.79424286"><ele>470.1</ele><time>2013-11-20T14:07:49.0000000+00:00</time></trkpt><trkpt lat="30.87443924" lon="34.79439163"><ele>470.4</ele><time>2013-11-20T14:07:54.0000000+00:00</time></trkpt><trkpt lat="30.87447739" lon="34.79459763"><ele>470.4</ele><time>2013-11-20T14:07:59.0000000+00:00</time></trkpt><trkpt lat="30.87441826" lon="34.79476166"><ele>469.8</ele><time>2013-11-20T14:08:04.0000000+00:00</time></trkpt><trkpt lat="30.8742218" lon="34.79480743"><ele>470.1</ele><time>2013-11-20T14:08:09.0000000+00:00</time></trkpt><trkpt lat="30.87398911" lon="34.7948494"><ele>469.8</ele><time>2013-11-20T14:08:14.0000000+00:00</time></trkpt><trkpt lat="30.87376022" lon="34.79489136"><ele>469.2</ele><time>2013-11-20T14:08:19.0000000+00:00</time></trkpt><trkpt lat="30.8735199" lon="34.79494476"><ele>469.3</ele><time>2013-11-20T14:08:24.0000000+00:00</time></trkpt><trkpt lat="30.87330437" lon="34.79499435"><ele>468.5</ele><time>2013-11-20T14:08:29.0000000+00:00</time></trkpt><trkpt lat="30.8731823" lon="34.79502869"><ele>469.7</ele><time>2013-11-20T14:08:34.0000000+00:00</time></trkpt><trkpt lat="30.87314224" lon="34.79504395"><ele>468.9</ele><time>2013-11-20T14:08:39.0000000+00:00</time></trkpt><trkpt lat="30.87296486" lon="34.79507446"><ele>468.4</ele><time>2013-11-20T14:08:44.0000000+00:00</time></trkpt><trkpt lat="30.87269783" lon="34.7951355"><ele>467.5</ele><time>2013-11-20T14:08:49.0000000+00:00</time></trkpt><trkpt lat="30.87243271" lon="34.79518509"><ele>467.7</ele><time>2013-11-20T14:08:54.0000000+00:00</time></trkpt><trkpt lat="30.87221336" lon="34.79522705"><ele>466.7</ele><time>2013-11-20T14:08:59.0000000+00:00</time></trkpt><trkpt lat="30.87201881" lon="34.7952652"><ele>465.8</ele><time>2013-11-20T14:09:04.0000000+00:00</time></trkpt><trkpt lat="30.87178993" lon="34.79526901"><ele>467.2</ele><time>2013-11-20T14:09:09.0000000+00:00</time></trkpt><trkpt lat="30.87165451" lon="34.79512787"><ele>471.9</ele><time>2013-11-20T14:09:14.0000000+00:00</time></trkpt><trkpt lat="30.87168503" lon="34.79484558"><ele>471.3</ele><time>2013-11-20T14:09:19.0000000+00:00</time></trkpt><trkpt lat="30.87167931" lon="34.79456711"><ele>471.5</ele><time>2013-11-20T14:09:24.0000000+00:00</time></trkpt><trkpt lat="30.87167549" lon="34.79430771"><ele>471.7</ele><time>2013-11-20T14:09:29.0000000+00:00</time></trkpt><trkpt lat="30.87167549" lon="34.79402542"><ele>470.9</ele><time>2013-11-20T14:09:34.0000000+00:00</time></trkpt><trkpt lat="30.87167931" lon="34.79376602"><ele>469.6</ele><time>2013-11-20T14:09:39.0000000+00:00</time></trkpt><trkpt lat="30.87166977" lon="34.79346466"><ele>468.7</ele><time>2013-11-20T14:09:44.0000000+00:00</time></trkpt><trkpt lat="30.87165642" lon="34.79315567"><ele>468.2</ele><time>2013-11-20T14:09:49.0000000+00:00</time></trkpt><trkpt lat="30.87165451" lon="34.79288864"><ele>467.3</ele><time>2013-11-20T14:09:54.0000000+00:00</time></trkpt><trkpt lat="30.87166786" lon="34.79264069"><ele>466.7</ele><time>2013-11-20T14:09:59.0000000+00:00</time></trkpt><trkpt lat="30.87168312" lon="34.79236984"><ele>465.2</ele><time>2013-11-20T14:10:04.0000000+00:00</time></trkpt><trkpt lat="30.87170219" lon="34.7921257"><ele>463.8</ele><time>2013-11-20T14:10:09.0000000+00:00</time></trkpt><trkpt lat="30.87171936" lon="34.79190064"><ele>463.2</ele><time>2013-11-20T14:10:14.0000000+00:00</time></trkpt><trkpt lat="30.87172318" lon="34.79163742"><ele>463.3</ele><time>2013-11-20T14:10:19.0000000+00:00</time></trkpt><trkpt lat="30.87174988" lon="34.79134369"><ele>463.2</ele><time>2013-11-20T14:10:24.0000000+00:00</time></trkpt><trkpt lat="30.8717556" lon="34.79106522"><ele>462.6</ele><time>2013-11-20T14:10:29.0000000+00:00</time></trkpt><trkpt lat="30.8717556" lon="34.79079437"><ele>461.2</ele><time>2013-11-20T14:10:34.0000000+00:00</time></trkpt><trkpt lat="30.87174988" lon="34.79049301"><ele>461.0</ele><time>2013-11-20T14:10:39.0000000+00:00</time></trkpt><trkpt lat="30.87168503" lon="34.79024887"><ele>460.4</ele><time>2013-11-20T14:10:44.0000000+00:00</time></trkpt><trkpt lat="30.87155724" lon="34.79001999"><ele>459.7</ele><time>2013-11-20T14:10:49.0000000+00:00</time></trkpt><trkpt lat="30.87147331" lon="34.78995514"><ele>459.3</ele><time>2013-11-20T14:10:54.0000000+00:00</time></trkpt><trkpt lat="30.87151718" lon="34.78997421"><ele>458.7</ele><time>2013-11-20T14:10:59.0000000+00:00</time></trkpt><trkpt lat="30.87161064" lon="34.79002762"><ele>459.0</ele><time>2013-11-20T14:11:04.0000000+00:00</time></trkpt><trkpt lat="30.87176323" lon="34.79006577"><ele>459.6</ele><time>2013-11-20T14:11:09.0000000+00:00</time></trkpt><trkpt lat="30.87191773" lon="34.79008102"><ele>460.2</ele><time>2013-11-20T14:11:14.0000000+00:00</time></trkpt><trkpt lat="30.87207413" lon="34.78998184"><ele>459.7</ele><time>2013-11-20T14:11:19.0000000+00:00</time></trkpt><trkpt lat="30.87223244" lon="34.78984451"><ele>459.7</ele><time>2013-11-20T14:11:24.0000000+00:00</time></trkpt><trkpt lat="30.87235451" lon="34.78971481"><ele>458.6</ele><time>2013-11-20T14:11:29.0000000+00:00</time></trkpt><trkpt lat="30.87248802" lon="34.78960037"><ele>457.6</ele><time>2013-11-20T14:11:34.0000000+00:00</time></trkpt><trkpt lat="30.87264061" lon="34.78952789"><ele>457.0</ele><time>2013-11-20T14:11:39.0000000+00:00</time></trkpt><trkpt lat="30.87274742" lon="34.7895813"><ele>457.1</ele><time>2013-11-20T14:11:44.0000000+00:00</time></trkpt><trkpt lat="30.8728466" lon="34.78968811"><ele>456.4</ele><time>2013-11-20T14:11:49.0000000+00:00</time></trkpt><trkpt lat="30.87295723" lon="34.78977585"><ele>458.7</ele><time>2013-11-20T14:11:54.0000000+00:00</time></trkpt><trkpt lat="30.87309647" lon="34.78980637"><ele>460.1</ele><time>2013-11-20T14:11:59.0000000+00:00</time></trkpt><trkpt lat="30.87325478" lon="34.789814"><ele>461.2</ele><time>2013-11-20T14:12:04.0000000+00:00</time></trkpt><trkpt lat="30.87337685" lon="34.78977585"><ele>461.8</ele><time>2013-11-20T14:12:09.0000000+00:00</time></trkpt><trkpt lat="30.87339211" lon="34.78977203"><ele>462.7</ele><time>2013-11-20T14:12:14.0000000+00:00</time></trkpt><trkpt lat="30.87339592" lon="34.78977585"><ele>462.9</ele><time>2013-11-20T14:12:19.0000000+00:00</time></trkpt><trkpt lat="30.87339783" lon="34.78982544"><ele>462.7</ele><time>2013-11-20T14:12:24.0000000+00:00</time></trkpt><trkpt lat="30.87338638" lon="34.78992462"><ele>462.8</ele><time>2013-11-20T14:12:29.0000000+00:00</time></trkpt><trkpt lat="30.8733902" lon="34.79003525"><ele>463.2</ele><time>2013-11-20T14:12:34.0000000+00:00</time></trkpt><trkpt lat="30.87337875" lon="34.79014206"><ele>463.8</ele><time>2013-11-20T14:12:39.0000000+00:00</time></trkpt><trkpt lat="30.87336731" lon="34.79026413"><ele>464.4</ele><time>2013-11-20T14:12:44.0000000+00:00</time></trkpt><trkpt lat="30.8733635" lon="34.79033279"><ele>465.0</ele><time>2013-11-20T14:12:49.0000000+00:00</time></trkpt><trkpt lat="30.87334251" lon="34.79039002"><ele>464.7</ele><time>2013-11-20T14:12:54.0000000+00:00</time></trkpt><trkpt lat="30.87331963" lon="34.79037094"><ele>465.4</ele><time>2013-11-20T14:12:59.0000000+00:00</time></trkpt><trkpt lat="30.87333298" lon="34.79027557"><ele>465.1</ele><time>2013-11-20T14:13:04.0000000+00:00</time></trkpt><trkpt lat="30.87335205" lon="34.79016876"><ele>465.3</ele><time>2013-11-20T14:13:09.0000000+00:00</time></trkpt><trkpt lat="30.87336159" lon="34.79009247"><ele>465.8</ele><time>2013-11-20T14:13:14.0000000+00:00</time></trkpt><trkpt lat="30.87337112" lon="34.79000855"><ele>466.3</ele><time>2013-11-20T14:13:19.0000000+00:00</time></trkpt><trkpt lat="30.87339401" lon="34.78993225"><ele>466.3</ele><time>2013-11-20T14:13:24.0000000+00:00</time></trkpt><trkpt lat="30.87336731" lon="34.78987885"><ele>466.6</ele><time>2013-11-20T14:13:29.0000000+00:00</time></trkpt><trkpt lat="30.87335587" lon="34.78975296"><ele>466.6</ele><time>2013-11-20T14:13:34.0000000+00:00</time></trkpt><trkpt lat="30.87339401" lon="34.78960419"><ele>466.7</ele><time>2013-11-20T14:13:39.0000000+00:00</time></trkpt><trkpt lat="30.87345505" lon="34.78950501"><ele>467.9</ele><time>2013-11-20T14:13:44.0000000+00:00</time></trkpt><trkpt lat="30.87352371" lon="34.78940582"><ele>467.6</ele><time>2013-11-20T14:13:49.0000000+00:00</time></trkpt><trkpt lat="30.87354469" lon="34.78937912"><ele>467.3</ele><time>2013-11-20T14:13:54.0000000+00:00</time></trkpt><trkpt lat="30.87362671" lon="34.78937912"><ele>466.9</ele><time>2013-11-20T14:13:59.0000000+00:00</time></trkpt><trkpt lat="30.87374115" lon="34.78938294"><ele>467.3</ele><time>2013-11-20T14:14:04.0000000+00:00</time></trkpt><trkpt lat="30.87386704" lon="34.78938675"><ele>467.7</ele><time>2013-11-20T14:14:09.0000000+00:00</time></trkpt><trkpt lat="30.87395477" lon="34.78938294"><ele>467.5</ele><time>2013-11-20T14:14:14.0000000+00:00</time></trkpt><trkpt lat="30.87398338" lon="34.78937149"><ele>466.6</ele><time>2013-11-20T14:14:19.0000000+00:00</time></trkpt><trkpt lat="30.87398338" lon="34.78937912"><ele>465.9</ele><time>2013-11-20T14:14:24.0000000+00:00</time></trkpt><trkpt lat="30.87398338" lon="34.78937912"><ele>466.0</ele><time>2013-11-20T14:14:29.0000000+00:00</time></trkpt><trkpt lat="30.87402535" lon="34.78936386"><ele>465.9</ele><time>2013-11-20T14:14:34.0000000+00:00</time></trkpt><trkpt lat="30.87408638" lon="34.78934479"><ele>466.2</ele><time>2013-11-20T14:14:39.0000000+00:00</time></trkpt><trkpt lat="30.87407112" lon="34.78935242"><ele>466.4</ele><time>2013-11-20T14:14:44.0000000+00:00</time></trkpt><trkpt lat="30.87397766" lon="34.78934097"><ele>467.4</ele><time>2013-11-20T14:14:49.0000000+00:00</time></trkpt><trkpt lat="30.87397575" lon="34.78927231"><ele>467.3</ele><time>2013-11-20T14:14:54.0000000+00:00</time></trkpt><trkpt lat="30.8739605" lon="34.7891655"><ele>463.9</ele><time>2013-11-20T14:14:59.0000000+00:00</time></trkpt><trkpt lat="30.87395859" lon="34.78907394"><ele>464.1</ele><time>2013-11-20T14:15:04.0000000+00:00</time></trkpt><trkpt lat="30.87397003" lon="34.78903961"><ele>465.5</ele><time>2013-11-20T14:15:09.0000000+00:00</time></trkpt><trkpt lat="30.87400436" lon="34.78898239"><ele>465.3</ele><time>2013-11-20T14:15:14.0000000+00:00</time></trkpt><trkpt lat="30.87411881" lon="34.78894043"><ele>466.9</ele><time>2013-11-20T14:15:19.0000000+00:00</time></trkpt><trkpt lat="30.87415314" lon="34.78878403"><ele>467.0</ele><time>2013-11-20T14:15:24.0000000+00:00</time></trkpt><trkpt lat="30.87420273" lon="34.78860855"><ele>466.8</ele><time>2013-11-20T14:15:29.0000000+00:00</time></trkpt><trkpt lat="30.87426758" lon="34.78842926"><ele>466.7</ele><time>2013-11-20T14:15:34.0000000+00:00</time></trkpt><trkpt lat="30.87429619" lon="34.78822708"><ele>466.7</ele><time>2013-11-20T14:15:39.0000000+00:00</time></trkpt><trkpt lat="30.87415314" lon="34.78816986"><ele>465.4</ele><time>2013-11-20T14:15:44.0000000+00:00</time></trkpt><trkpt lat="30.87412453" lon="34.78840637"><ele>465.9</ele><time>2013-11-20T14:15:49.0000000+00:00</time></trkpt><trkpt lat="30.87412071" lon="34.78866196"><ele>466.6</ele><time>2013-11-20T14:15:54.0000000+00:00</time></trkpt><trkpt lat="30.87409592" lon="34.78890991"><ele>467.2</ele><time>2013-11-20T14:15:59.0000000+00:00</time></trkpt><trkpt lat="30.87389183" lon="34.78899384"><ele>467.8</ele><time>2013-11-20T14:16:04.0000000+00:00</time></trkpt><trkpt lat="30.87364197" lon="34.78897858"><ele>467.5</ele><time>2013-11-20T14:16:09.0000000+00:00</time></trkpt><trkpt lat="30.87341118" lon="34.78890228"><ele>467.6</ele><time>2013-11-20T14:16:14.0000000+00:00</time></trkpt><trkpt lat="30.87332916" lon="34.78869247"><ele>467.5</ele><time>2013-11-20T14:16:19.0000000+00:00</time></trkpt><trkpt lat="30.87349892" lon="34.78847122"><ele>466.4</ele><time>2013-11-20T14:16:24.0000000+00:00</time></trkpt><trkpt lat="30.87370873" lon="34.78824616"><ele>465.3</ele><time>2013-11-20T14:16:29.0000000+00:00</time></trkpt><trkpt lat="30.87393189" lon="34.78803253"><ele>464.1</ele><time>2013-11-20T14:16:34.0000000+00:00</time></trkpt><trkpt lat="30.87413597" lon="34.7878418"><ele>462.9</ele><time>2013-11-20T14:16:39.0000000+00:00</time></trkpt><trkpt lat="30.87434197" lon="34.78762817"><ele>461.8</ele><time>2013-11-20T14:16:44.0000000+00:00</time></trkpt><trkpt lat="30.87453079" lon="34.78744888"><ele>460.9</ele><time>2013-11-20T14:16:49.0000000+00:00</time></trkpt><trkpt lat="30.87470627" lon="34.78727722"><ele>460.1</ele><time>2013-11-20T14:16:54.0000000+00:00</time></trkpt><trkpt lat="30.87490845" lon="34.78708649"><ele>459.8</ele><time>2013-11-20T14:16:59.0000000+00:00</time></trkpt><trkpt lat="30.8751049" lon="34.78692246"><ele>459.2</ele><time>2013-11-20T14:17:04.0000000+00:00</time></trkpt><trkpt lat="30.87522888" lon="34.78682709"><ele>458.2</ele><time>2013-11-20T14:17:09.0000000+00:00</time></trkpt><trkpt lat="30.87524033" lon="34.78679276"><ele>458.4</ele><time>2013-11-20T14:17:14.0000000+00:00</time></trkpt><trkpt lat="30.87522316" lon="34.78675461"><ele>458.5</ele><time>2013-11-20T14:17:19.0000000+00:00</time></trkpt><trkpt lat="30.87518501" lon="34.78672028"><ele>459.2</ele><time>2013-11-20T14:17:24.0000000+00:00</time></trkpt><trkpt lat="30.87519455" lon="34.78656387"><ele>460.4</ele><time>2013-11-20T14:17:29.0000000+00:00</time></trkpt><trkpt lat="30.87506676" lon="34.78635407"><ele>461.3</ele><time>2013-11-20T14:17:34.0000000+00:00</time></trkpt><trkpt lat="30.87490082" lon="34.78613663"><ele>462.1</ele><time>2013-11-20T14:17:39.0000000+00:00</time></trkpt><trkpt lat="30.87473869" lon="34.78593445"><ele>462.5</ele><time>2013-11-20T14:17:44.0000000+00:00</time></trkpt><trkpt lat="30.87456131" lon="34.7857132"><ele>462.4</ele><time>2013-11-20T14:17:49.0000000+00:00</time></trkpt><trkpt lat="30.87436104" lon="34.78549194"><ele>462.1</ele><time>2013-11-20T14:17:54.0000000+00:00</time></trkpt><trkpt lat="30.87415314" lon="34.78527832"><ele>461.6</ele><time>2013-11-20T14:17:59.0000000+00:00</time></trkpt><trkpt lat="30.87391281" lon="34.78504181"><ele>462.0</ele><time>2013-11-20T14:18:04.0000000+00:00</time></trkpt><trkpt lat="30.87366104" lon="34.78480148"><ele>462.5</ele><time>2013-11-20T14:18:09.0000000+00:00</time></trkpt><trkpt lat="30.87342644" lon="34.78456879"><ele>462.7</ele><time>2013-11-20T14:18:14.0000000+00:00</time></trkpt><trkpt lat="30.87324333" lon="34.78437042"><ele>463.4</ele><time>2013-11-20T14:18:19.0000000+00:00</time></trkpt><trkpt lat="30.87306213" lon="34.78417587"><ele>464.1</ele><time>2013-11-20T14:18:24.0000000+00:00</time></trkpt><trkpt lat="30.87290192" lon="34.78401947"><ele>463.9</ele><time>2013-11-20T14:18:29.0000000+00:00</time></trkpt><trkpt lat="30.87273979" lon="34.78384399"><ele>464.2</ele><time>2013-11-20T14:18:34.0000000+00:00</time></trkpt><trkpt lat="30.87257385" lon="34.78368378"><ele>464.0</ele><time>2013-11-20T14:18:39.0000000+00:00</time></trkpt><trkpt lat="30.8724308" lon="34.783535"><ele>464.2</ele><time>2013-11-20T14:18:44.0000000+00:00</time></trkpt><trkpt lat="30.87227058" lon="34.78339005"><ele>464.2</ele><time>2013-11-20T14:18:49.0000000+00:00</time></trkpt><trkpt lat="30.87212372" lon="34.78324509"><ele>464.7</ele><time>2013-11-20T14:18:54.0000000+00:00</time></trkpt><trkpt lat="30.87200165" lon="34.78311539"><ele>465.4</ele><time>2013-11-20T14:18:59.0000000+00:00</time></trkpt><trkpt lat="30.8718586" lon="34.78297424"><ele>466.4</ele><time>2013-11-20T14:19:04.0000000+00:00</time></trkpt><trkpt lat="30.8717041" lon="34.7828331"><ele>467.8</ele><time>2013-11-20T14:19:09.0000000+00:00</time></trkpt><trkpt lat="30.8715477" lon="34.78266525"><ele>468.9</ele><time>2013-11-20T14:19:14.0000000+00:00</time></trkpt><trkpt lat="30.87141037" lon="34.78252411"><ele>469.4</ele><time>2013-11-20T14:19:19.0000000+00:00</time></trkpt><trkpt lat="30.87123871" lon="34.78235626"><ele>469.8</ele><time>2013-11-20T14:19:24.0000000+00:00</time></trkpt><trkpt lat="30.87106514" lon="34.78216553"><ele>469.9</ele><time>2013-11-20T14:19:29.0000000+00:00</time></trkpt><trkpt lat="30.87087441" lon="34.78195953"><ele>470.2</ele><time>2013-11-20T14:19:34.0000000+00:00</time></trkpt><trkpt lat="30.87068749" lon="34.78178787"><ele>470.6</ele><time>2013-11-20T14:19:39.0000000+00:00</time></trkpt><trkpt lat="30.87047768" lon="34.78157806"><ele>470.9</ele><time>2013-11-20T14:19:44.0000000+00:00</time></trkpt><trkpt lat="30.87026596" lon="34.78137589"><ele>471.0</ele><time>2013-11-20T14:19:49.0000000+00:00</time></trkpt><trkpt lat="30.87006378" lon="34.78117371"><ele>471.5</ele><time>2013-11-20T14:19:54.0000000+00:00</time></trkpt><trkpt lat="30.86987305" lon="34.78102493"><ele>471.7</ele><time>2013-11-20T14:19:59.0000000+00:00</time></trkpt><trkpt lat="30.86965752" lon="34.78085327"><ele>472.2</ele><time>2013-11-20T14:20:04.0000000+00:00</time></trkpt><trkpt lat="30.86944771" lon="34.78068924"><ele>472.5</ele><time>2013-11-20T14:20:09.0000000+00:00</time></trkpt><trkpt lat="30.86923409" lon="34.78052902"><ele>473.1</ele><time>2013-11-20T14:20:14.0000000+00:00</time></trkpt><trkpt lat="30.86903191" lon="34.78038025"><ele>473.4</ele><time>2013-11-20T14:20:19.0000000+00:00</time></trkpt><trkpt lat="30.86881447" lon="34.78023911"><ele>473.6</ele><time>2013-11-20T14:20:24.0000000+00:00</time></trkpt><trkpt lat="30.86857224" lon="34.78007507"><ele>474.1</ele><time>2013-11-20T14:20:29.0000000+00:00</time></trkpt><trkpt lat="30.86833954" lon="34.77991486"><ele>474.4</ele><time>2013-11-20T14:20:34.0000000+00:00</time></trkpt><trkpt lat="30.86807442" lon="34.7797432"><ele>474.3</ele><time>2013-11-20T14:20:39.0000000+00:00</time></trkpt><trkpt lat="30.86782265" lon="34.7795639"><ele>474.0</ele><time>2013-11-20T14:20:44.0000000+00:00</time></trkpt><trkpt lat="30.86757278" lon="34.77939606"><ele>474.0</ele><time>2013-11-20T14:20:49.0000000+00:00</time></trkpt><trkpt lat="30.86734963" lon="34.77924347"><ele>473.9</ele><time>2013-11-20T14:20:54.0000000+00:00</time></trkpt><trkpt lat="30.86712265" lon="34.77909851"><ele>473.8</ele><time>2013-11-20T14:20:59.0000000+00:00</time></trkpt><trkpt lat="30.86688423" lon="34.77894211"><ele>473.8</ele><time>2013-11-20T14:21:04.0000000+00:00</time></trkpt><trkpt lat="30.86665154" lon="34.77879334"><ele>474.3</ele><time>2013-11-20T14:21:09.0000000+00:00</time></trkpt><trkpt lat="30.86642075" lon="34.77863312"><ele>474.9</ele><time>2013-11-20T14:21:14.0000000+00:00</time></trkpt><trkpt lat="30.86616898" lon="34.77846146"><ele>475.0</ele><time>2013-11-20T14:21:19.0000000+00:00</time></trkpt><trkpt lat="30.86591148" lon="34.77830124"><ele>474.7</ele><time>2013-11-20T14:21:24.0000000+00:00</time></trkpt><trkpt lat="30.86568451" lon="34.77815247"><ele>474.7</ele><time>2013-11-20T14:21:29.0000000+00:00</time></trkpt><trkpt lat="30.86548615" lon="34.7780304"><ele>474.8</ele><time>2013-11-20T14:21:34.0000000+00:00</time></trkpt><trkpt lat="30.86527824" lon="34.77787781"><ele>474.6</ele><time>2013-11-20T14:21:39.0000000+00:00</time></trkpt><trkpt lat="30.86505127" lon="34.77772903"><ele>474.6</ele><time>2013-11-20T14:21:44.0000000+00:00</time></trkpt><trkpt lat="30.86483383" lon="34.77760315"><ele>475.0</ele><time>2013-11-20T14:21:49.0000000+00:00</time></trkpt><trkpt lat="30.86459732" lon="34.77744293"><ele>475.1</ele><time>2013-11-20T14:21:54.0000000+00:00</time></trkpt><trkpt lat="30.86434937" lon="34.77728272"><ele>475.6</ele><time>2013-11-20T14:21:59.0000000+00:00</time></trkpt><trkpt lat="30.86413574" lon="34.77715302"><ele>475.6</ele><time>2013-11-20T14:22:04.0000000+00:00</time></trkpt><trkpt lat="30.86391449" lon="34.77700043"><ele>475.5</ele><time>2013-11-20T14:22:09.0000000+00:00</time></trkpt><trkpt lat="30.86367416" lon="34.77684021"><ele>475.9</ele><time>2013-11-20T14:22:14.0000000+00:00</time></trkpt><trkpt lat="30.86344338" lon="34.77668381"><ele>475.7</ele><time>2013-11-20T14:22:19.0000000+00:00</time></trkpt><trkpt lat="30.86320114" lon="34.77653503"><ele>475.9</ele><time>2013-11-20T14:22:24.0000000+00:00</time></trkpt><trkpt lat="30.86297607" lon="34.77638626"><ele>475.7</ele><time>2013-11-20T14:22:29.0000000+00:00</time></trkpt><trkpt lat="30.86272049" lon="34.7762146"><ele>475.9</ele><time>2013-11-20T14:22:34.0000000+00:00</time></trkpt><trkpt lat="30.86247063" lon="34.77604675"><ele>475.8</ele><time>2013-11-20T14:22:39.0000000+00:00</time></trkpt><trkpt lat="30.86224175" lon="34.77588654"><ele>475.9</ele><time>2013-11-20T14:22:44.0000000+00:00</time></trkpt><trkpt lat="30.86199951" lon="34.77572632"><ele>476.3</ele><time>2013-11-20T14:22:49.0000000+00:00</time></trkpt><trkpt lat="30.86173439" lon="34.77555847"><ele>476.6</ele><time>2013-11-20T14:22:54.0000000+00:00</time></trkpt><trkpt lat="30.86146355" lon="34.77536774"><ele>477.0</ele><time>2013-11-20T14:22:59.0000000+00:00</time></trkpt><trkpt lat="30.8612175" lon="34.77519608"><ele>477.5</ele><time>2013-11-20T14:23:04.0000000+00:00</time></trkpt><trkpt lat="30.86096191" lon="34.7750206"><ele>477.5</ele><time>2013-11-20T14:23:09.0000000+00:00</time></trkpt><trkpt lat="30.86071205" lon="34.77485275"><ele>477.7</ele><time>2013-11-20T14:23:14.0000000+00:00</time></trkpt><trkpt lat="30.86043167" lon="34.77466202"><ele>478.4</ele><time>2013-11-20T14:23:19.0000000+00:00</time></trkpt><trkpt lat="30.86018753" lon="34.7745018"><ele>478.8</ele><time>2013-11-20T14:23:24.0000000+00:00</time></trkpt><trkpt lat="30.85995102" lon="34.77434921"><ele>479.0</ele><time>2013-11-20T14:23:29.0000000+00:00</time></trkpt><trkpt lat="30.85969925" lon="34.77418137"><ele>479.3</ele><time>2013-11-20T14:23:34.0000000+00:00</time></trkpt><trkpt lat="30.85944557" lon="34.77401352"><ele>479.8</ele><time>2013-11-20T14:23:39.0000000+00:00</time></trkpt><trkpt lat="30.85923958" lon="34.77387238"><ele>479.8</ele><time>2013-11-20T14:23:44.0000000+00:00</time></trkpt><trkpt lat="30.8590126" lon="34.77372742"><ele>480.5</ele><time>2013-11-20T14:23:49.0000000+00:00</time></trkpt><trkpt lat="30.85877037" lon="34.77359009"><ele>481.2</ele><time>2013-11-20T14:23:54.0000000+00:00</time></trkpt><trkpt lat="30.85855484" lon="34.77344513"><ele>481.4</ele><time>2013-11-20T14:23:59.0000000+00:00</time></trkpt><trkpt lat="30.85831261" lon="34.77328873"><ele>482.4</ele><time>2013-11-20T14:24:04.0000000+00:00</time></trkpt><trkpt lat="30.85809708" lon="34.77314377"><ele>482.7</ele><time>2013-11-20T14:24:09.0000000+00:00</time></trkpt><trkpt lat="30.85789299" lon="34.77301025"><ele>483.0</ele><time>2013-11-20T14:24:14.0000000+00:00</time></trkpt><trkpt lat="30.85768127" lon="34.77288055"><ele>483.1</ele><time>2013-11-20T14:24:19.0000000+00:00</time></trkpt><trkpt lat="30.85751343" lon="34.77275848"><ele>483.8</ele><time>2013-11-20T14:24:24.0000000+00:00</time></trkpt><trkpt lat="30.85734558" lon="34.77264023"><ele>483.9</ele><time>2013-11-20T14:24:29.0000000+00:00</time></trkpt><trkpt lat="30.85717583" lon="34.77253342"><ele>483.5</ele><time>2013-11-20T14:24:34.0000000+00:00</time></trkpt><trkpt lat="30.8569603" lon="34.77238083"><ele>483.6</ele><time>2013-11-20T14:24:39.0000000+00:00</time></trkpt><trkpt lat="30.85671806" lon="34.77220917"><ele>483.8</ele><time>2013-11-20T14:24:44.0000000+00:00</time></trkpt><trkpt lat="30.85650635" lon="34.77204514"><ele>483.7</ele><time>2013-11-20T14:24:49.0000000+00:00</time></trkpt><trkpt lat="30.85626984" lon="34.77188492"><ele>483.6</ele><time>2013-11-20T14:24:54.0000000+00:00</time></trkpt><trkpt lat="30.85603142" lon="34.77170944"><ele>483.5</ele><time>2013-11-20T14:24:59.0000000+00:00</time></trkpt><trkpt lat="30.85581017" lon="34.77154923"><ele>483.7</ele><time>2013-11-20T14:25:04.0000000+00:00</time></trkpt><trkpt lat="30.85558128" lon="34.77136993"><ele>484.1</ele><time>2013-11-20T14:25:09.0000000+00:00</time></trkpt><trkpt lat="30.85536766" lon="34.77120972"><ele>484.2</ele><time>2013-11-20T14:25:14.0000000+00:00</time></trkpt><trkpt lat="30.85516357" lon="34.77105713"><ele>484.3</ele><time>2013-11-20T14:25:19.0000000+00:00</time></trkpt><trkpt lat="30.85495758" lon="34.77089691"><ele>484.5</ele><time>2013-11-20T14:25:24.0000000+00:00</time></trkpt><trkpt lat="30.85477448" lon="34.77073288"><ele>484.1</ele><time>2013-11-20T14:25:29.0000000+00:00</time></trkpt><trkpt lat="30.85461807" lon="34.77060318"><ele>483.8</ele><time>2013-11-20T14:25:34.0000000+00:00</time></trkpt><trkpt lat="30.85443497" lon="34.77051163"><ele>484.4</ele><time>2013-11-20T14:25:39.0000000+00:00</time></trkpt><trkpt lat="30.85420609" lon="34.77047348"><ele>483.9</ele><time>2013-11-20T14:25:44.0000000+00:00</time></trkpt><trkpt lat="30.85408211" lon="34.77071762"><ele>483.3</ele><time>2013-11-20T14:25:49.0000000+00:00</time></trkpt><trkpt lat="30.85399246" lon="34.77105713"><ele>483.4</ele><time>2013-11-20T14:25:54.0000000+00:00</time></trkpt><trkpt lat="30.85391808" lon="34.77140045"><ele>483.0</ele><time>2013-11-20T14:25:59.0000000+00:00</time></trkpt><trkpt lat="30.85382843" lon="34.77175903"><ele>482.2</ele><time>2013-11-20T14:26:04.0000000+00:00</time></trkpt><trkpt lat="30.8537426" lon="34.77210999"><ele>481.9</ele><time>2013-11-20T14:26:09.0000000+00:00</time></trkpt><trkpt lat="30.85365868" lon="34.77248001"><ele>481.3</ele><time>2013-11-20T14:26:14.0000000+00:00</time></trkpt><trkpt lat="30.85356331" lon="34.77285004"><ele>481.2</ele><time>2013-11-20T14:26:19.0000000+00:00</time></trkpt><trkpt lat="30.85347748" lon="34.77323532"><ele>480.0</ele><time>2013-11-20T14:26:24.0000000+00:00</time></trkpt><trkpt lat="30.8533802" lon="34.77362442"><ele>479.5</ele><time>2013-11-20T14:26:29.0000000+00:00</time></trkpt><trkpt lat="30.8532753" lon="34.77401352"><ele>479.4</ele><time>2013-11-20T14:26:34.0000000+00:00</time></trkpt><trkpt lat="30.85316467" lon="34.77437973"><ele>479.4</ele><time>2013-11-20T14:26:39.0000000+00:00</time></trkpt><trkpt lat="30.8530159" lon="34.7747345"><ele>479.1</ele><time>2013-11-20T14:26:44.0000000+00:00</time></trkpt><trkpt lat="30.85284233" lon="34.77507019"><ele>478.3</ele><time>2013-11-20T14:26:49.0000000+00:00</time></trkpt><trkpt lat="30.85266686" lon="34.77540207"><ele>477.7</ele><time>2013-11-20T14:26:54.0000000+00:00</time></trkpt><trkpt lat="30.85247231" lon="34.77572632"><ele>477.6</ele><time>2013-11-20T14:26:59.0000000+00:00</time></trkpt><trkpt lat="30.85226631" lon="34.77603149"><ele>477.4</ele><time>2013-11-20T14:27:04.0000000+00:00</time></trkpt><trkpt lat="30.85206986" lon="34.77633286"><ele>477.4</ele><time>2013-11-20T14:27:09.0000000+00:00</time></trkpt><trkpt lat="30.85189056" lon="34.77661896"><ele>477.5</ele><time>2013-11-20T14:27:14.0000000+00:00</time></trkpt><trkpt lat="30.85173225" lon="34.77687454"><ele>477.7</ele><time>2013-11-20T14:27:19.0000000+00:00</time></trkpt><trkpt lat="30.85154915" lon="34.77711487"><ele>479.0</ele><time>2013-11-20T14:27:24.0000000+00:00</time></trkpt><trkpt lat="30.85137749" lon="34.77737808"><ele>479.6</ele><time>2013-11-20T14:27:29.0000000+00:00</time></trkpt><trkpt lat="30.85118675" lon="34.77765274"><ele>480.6</ele><time>2013-11-20T14:27:34.0000000+00:00</time></trkpt><trkpt lat="30.85102844" lon="34.7779007"><ele>481.4</ele><time>2013-11-20T14:27:39.0000000+00:00</time></trkpt><trkpt lat="30.85087776" lon="34.77813721"><ele>482.5</ele><time>2013-11-20T14:27:44.0000000+00:00</time></trkpt><trkpt lat="30.85070419" lon="34.77837753"><ele>483.8</ele><time>2013-11-20T14:27:49.0000000+00:00</time></trkpt><trkpt lat="30.85053253" lon="34.77861023"><ele>484.5</ele><time>2013-11-20T14:27:54.0000000+00:00</time></trkpt><trkpt lat="30.8503952" lon="34.77881622"><ele>486.0</ele><time>2013-11-20T14:27:59.0000000+00:00</time></trkpt><trkpt lat="30.85025406" lon="34.77897263"><ele>486.2</ele><time>2013-11-20T14:28:04.0000000+00:00</time></trkpt><trkpt lat="30.85013962" lon="34.77915955"><ele>485.3</ele><time>2013-11-20T14:28:09.0000000+00:00</time></trkpt><trkpt lat="30.8500576" lon="34.77938461"><ele>484.4</ele><time>2013-11-20T14:28:14.0000000+00:00</time></trkpt><trkpt lat="30.84993935" lon="34.77961731"><ele>483.2</ele><time>2013-11-20T14:28:19.0000000+00:00</time></trkpt><trkpt lat="30.84986305" lon="34.77986527"><ele>482.4</ele><time>2013-11-20T14:28:24.0000000+00:00</time></trkpt><trkpt lat="30.84989929" lon="34.78017426"><ele>481.6</ele><time>2013-11-20T14:28:29.0000000+00:00</time></trkpt><trkpt lat="30.84993362" lon="34.78037643"><ele>480.2</ele><time>2013-11-20T14:28:34.0000000+00:00</time></trkpt><trkpt lat="30.84996223" lon="34.78050613"><ele>479.6</ele><time>2013-11-20T14:28:39.0000000+00:00</time></trkpt><trkpt lat="30.85000801" lon="34.7807579"><ele>478.5</ele><time>2013-11-20T14:28:44.0000000+00:00</time></trkpt><trkpt lat="30.85007477" lon="34.78107071"><ele>478.7</ele><time>2013-11-20T14:28:49.0000000+00:00</time></trkpt><trkpt lat="30.85013199" lon="34.78141785"><ele>479.4</ele><time>2013-11-20T14:28:54.0000000+00:00</time></trkpt><trkpt lat="30.85018539" lon="34.78170776"><ele>481.1</ele><time>2013-11-20T14:28:59.0000000+00:00</time></trkpt><trkpt lat="30.85024262" lon="34.78199768"><ele>482.5</ele><time>2013-11-20T14:29:04.0000000+00:00</time></trkpt><trkpt lat="30.85028839" lon="34.78226471"><ele>482.9</ele><time>2013-11-20T14:29:09.0000000+00:00</time></trkpt><trkpt lat="30.85033417" lon="34.78250122"><ele>483.2</ele><time>2013-11-20T14:29:14.0000000+00:00</time></trkpt><trkpt lat="30.85033608" lon="34.78258133"><ele>483.2</ele><time>2013-11-20T14:29:19.0000000+00:00</time></trkpt><trkpt lat="30.85035324" lon="34.78264999"><ele>483.3</ele><time>2013-11-20T14:29:24.0000000+00:00</time></trkpt><trkpt lat="30.85038757" lon="34.78272247"><ele>482.2</ele><time>2013-11-20T14:29:29.0000000+00:00</time></trkpt><trkpt lat="30.85042954" lon="34.78287506"><ele>483.4</ele><time>2013-11-20T14:29:34.0000000+00:00</time></trkpt><trkpt lat="30.85046387" lon="34.78306961"><ele>483.8</ele><time>2013-11-20T14:29:39.0000000+00:00</time></trkpt><trkpt lat="30.85050583" lon="34.78323746"><ele>484.4</ele><time>2013-11-20T14:29:44.0000000+00:00</time></trkpt><trkpt lat="30.85059929" lon="34.78331375"><ele>485.1</ele><time>2013-11-20T14:29:49.0000000+00:00</time></trkpt><trkpt lat="30.85065842" lon="34.78336716"><ele>485.4</ele><time>2013-11-20T14:29:54.0000000+00:00</time></trkpt><trkpt lat="30.85069656" lon="34.78341675"><ele>485.2</ele><time>2013-11-20T14:29:59.0000000+00:00</time></trkpt><trkpt lat="30.85069847" lon="34.78342438"><ele>485.6</ele><time>2013-11-20T14:30:04.0000000+00:00</time></trkpt><trkpt lat="30.85069847" lon="34.78342438"><ele>485.7</ele><time>2013-11-20T14:30:09.0000000+00:00</time></trkpt><trkpt lat="30.85068893" lon="34.78343201"><ele>485.7</ele><time>2013-11-20T14:30:14.0000000+00:00</time></trkpt><trkpt lat="30.85068893" lon="34.78343201"><ele>485.6</ele><time>2013-11-20T14:30:19.0000000+00:00</time></trkpt><trkpt lat="30.85068893" lon="34.78341293"><ele>485.6</ele><time>2013-11-20T14:30:24.0000000+00:00</time></trkpt><trkpt lat="30.85068321" lon="34.78340912"><ele>485.6</ele><time>2013-11-20T14:30:29.0000000+00:00</time></trkpt><trkpt lat="30.85066795" lon="34.78341293"><ele>485.6</ele><time>2013-11-20T14:30:34.0000000+00:00</time></trkpt><trkpt lat="30.8506546" lon="34.78342056"><ele>485.6</ele><time>2013-11-20T14:30:39.0000000+00:00</time></trkpt><trkpt lat="30.85064125" lon="34.78342438"><ele>485.5</ele><time>2013-11-20T14:30:44.0000000+00:00</time></trkpt><trkpt lat="30.85063171" lon="34.78343201"><ele>485.5</ele><time>2013-11-20T14:30:49.0000000+00:00</time></trkpt><trkpt lat="30.85062027" lon="34.78343964"><ele>485.5</ele><time>2013-11-20T14:30:54.0000000+00:00</time></trkpt><trkpt lat="30.85061264" lon="34.78344345"><ele>485.5</ele><time>2013-11-20T14:30:59.0000000+00:00</time></trkpt><trkpt lat="30.85060883" lon="34.78344727"><ele>485.5</ele><time>2013-11-20T14:31:04.0000000+00:00</time></trkpt><trkpt lat="30.85060883" lon="34.7834549"><ele>485.5</ele><time>2013-11-20T14:31:09.0000000+00:00</time></trkpt><trkpt lat="30.85061264" lon="34.78346634"><ele>485.5</ele><time>2013-11-20T14:31:14.0000000+00:00</time></trkpt><trkpt lat="30.85061646" lon="34.78347397"><ele>485.5</ele><time>2013-11-20T14:31:19.0000000+00:00</time></trkpt><trkpt lat="30.85062218" lon="34.7834816"><ele>485.4</ele><time>2013-11-20T14:31:24.0000000+00:00</time></trkpt><trkpt lat="30.85062981" lon="34.78348541"><ele>485.4</ele><time>2013-11-20T14:31:29.0000000+00:00</time></trkpt><trkpt lat="30.85063744" lon="34.78348923"><ele>485.3</ele><time>2013-11-20T14:31:34.0000000+00:00</time></trkpt><trkpt lat="30.85063934" lon="34.78348923"><ele>485.3</ele><time>2013-11-20T14:31:39.0000000+00:00</time></trkpt><trkpt lat="30.85064507" lon="34.78347778"><ele>485.2</ele><time>2013-11-20T14:31:44.0000000+00:00</time></trkpt><trkpt lat="30.85066986" lon="34.78345108"><ele>485.2</ele><time>2013-11-20T14:31:49.0000000+00:00</time></trkpt><trkpt lat="30.85070038" lon="34.78345108"><ele>485.1</ele><time>2013-11-20T14:31:54.0000000+00:00</time></trkpt><trkpt lat="30.85071564" lon="34.78344727"><ele>484.9</ele><time>2013-11-20T14:31:59.0000000+00:00</time></trkpt><trkpt lat="30.85077477" lon="34.78343582"><ele>485.1</ele><time>2013-11-20T14:32:04.0000000+00:00</time></trkpt><trkpt lat="30.85083008" lon="34.78341675"><ele>484.4</ele><time>2013-11-20T14:32:09.0000000+00:00</time></trkpt><trkpt lat="30.85084534" lon="34.7834053"><ele>483.6</ele><time>2013-11-20T14:32:14.0000000+00:00</time></trkpt><trkpt lat="30.85084534" lon="34.7834053"><ele>483.6</ele><time>2013-11-20T14:32:19.0000000+00:00</time></trkpt><trkpt lat="30.85084534" lon="34.7834053"><ele>483.6</ele><time>2013-11-20T14:32:24.0000000+00:00</time></trkpt><trkpt lat="30.85084534" lon="34.7834053"><ele>483.6</ele><time>2013-11-20T14:32:29.0000000+00:00</time></trkpt><trkpt lat="30.85090447" lon="34.78339768"><ele>483.8</ele><time>2013-11-20T14:32:34.0000000+00:00</time></trkpt><trkpt lat="30.85112572" lon="34.78336334"><ele>482.5</ele><time>2013-11-20T14:32:39.0000000+00:00</time></trkpt><trkpt lat="30.85124779" lon="34.78323364"><ele>480.8</ele><time>2013-11-20T14:32:44.0000000+00:00</time></trkpt><trkpt lat="30.85121727" lon="34.78303528"><ele>480.0</ele><time>2013-11-20T14:32:49.0000000+00:00</time></trkpt><trkpt lat="30.85116959" lon="34.78281784"><ele>479.9</ele><time>2013-11-20T14:32:54.0000000+00:00</time></trkpt><trkpt lat="30.85114098" lon="34.78263474"><ele>479.4</ele><time>2013-11-20T14:32:59.0000000+00:00</time></trkpt><trkpt lat="30.85111809" lon="34.78252411"><ele>478.8</ele><time>2013-11-20T14:33:04.0000000+00:00</time></trkpt><trkpt lat="30.85116768" lon="34.78245926"><ele>478.0</ele><time>2013-11-20T14:33:09.0000000+00:00</time></trkpt><trkpt lat="30.85128212" lon="34.7824173"><ele>478.2</ele><time>2013-11-20T14:33:14.0000000+00:00</time></trkpt><trkpt lat="30.85140419" lon="34.78238297"><ele>478.5</ele><time>2013-11-20T14:33:19.0000000+00:00</time></trkpt><trkpt lat="30.85150909" lon="34.78234863"><ele>478.5</ele><time>2013-11-20T14:33:24.0000000+00:00</time></trkpt><trkpt lat="30.85161018" lon="34.78232575"><ele>478.3</ele><time>2013-11-20T14:33:29.0000000+00:00</time></trkpt><trkpt lat="30.85166359" lon="34.78229523"><ele>477.8</ele><time>2013-11-20T14:33:34.0000000+00:00</time></trkpt><trkpt lat="30.85169411" lon="34.78224945"><ele>476.6</ele><time>2013-11-20T14:33:39.0000000+00:00</time></trkpt><trkpt lat="30.85177803" lon="34.78223038"><ele>475.3</ele><time>2013-11-20T14:33:44.0000000+00:00</time></trkpt><trkpt lat="30.85183907" lon="34.78223801"><ele>475.0</ele><time>2013-11-20T14:33:49.0000000+00:00</time></trkpt><trkpt lat="30.85186005" lon="34.782341"><ele>474.5</ele><time>2013-11-20T14:33:54.0000000+00:00</time></trkpt><trkpt lat="30.8518734" lon="34.78238678"><ele>474.0</ele><time>2013-11-20T14:33:59.0000000+00:00</time></trkpt><trkpt lat="30.85195351" lon="34.78238297"><ele>473.6</ele><time>2013-11-20T14:34:04.0000000+00:00</time></trkpt><trkpt lat="30.85211945" lon="34.78232956"><ele>474.3</ele><time>2013-11-20T14:34:09.0000000+00:00</time></trkpt><trkpt lat="30.85225296" lon="34.78222656"><ele>473.4</ele><time>2013-11-20T14:34:14.0000000+00:00</time></trkpt><trkpt lat="30.85243797" lon="34.78216934"><ele>474.0</ele><time>2013-11-20T14:34:19.0000000+00:00</time></trkpt><trkpt lat="30.85260963" lon="34.78211975"><ele>473.7</ele><time>2013-11-20T14:34:24.0000000+00:00</time></trkpt><trkpt lat="30.85274124" lon="34.78202438"><ele>473.6</ele><time>2013-11-20T14:34:29.0000000+00:00</time></trkpt><trkpt lat="30.85274506" lon="34.78187561"><ele>473.7</ele><time>2013-11-20T14:34:34.0000000+00:00</time></trkpt><trkpt lat="30.85269737" lon="34.7816658"><ele>474.4</ele><time>2013-11-20T14:34:39.0000000+00:00</time></trkpt><trkpt lat="30.85265732" lon="34.78147888"><ele>475.1</ele><time>2013-11-20T14:34:44.0000000+00:00</time></trkpt><trkpt lat="30.85264397" lon="34.78132629"><ele>475.3</ele><time>2013-11-20T14:34:49.0000000+00:00</time></trkpt><trkpt lat="30.85264969" lon="34.78119278"><ele>475.9</ele><time>2013-11-20T14:34:54.0000000+00:00</time></trkpt><trkpt lat="30.85257912" lon="34.78102493"><ele>476.4</ele><time>2013-11-20T14:34:59.0000000+00:00</time></trkpt><trkpt lat="30.85254288" lon="34.78084564"><ele>476.3</ele><time>2013-11-20T14:35:04.0000000+00:00</time></trkpt><trkpt lat="30.85250855" lon="34.78069305"><ele>476.8</ele><time>2013-11-20T14:35:09.0000000+00:00</time></trkpt><trkpt lat="30.85243797" lon="34.78059387"><ele>476.2</ele><time>2013-11-20T14:35:14.0000000+00:00</time></trkpt><trkpt lat="30.85241127" lon="34.78057861"><ele>476.0</ele><time>2013-11-20T14:35:19.0000000+00:00</time></trkpt><trkpt lat="30.85241127" lon="34.78057861"><ele>475.7</ele><time>2013-11-20T14:35:24.0000000+00:00</time></trkpt><trkpt lat="30.85241127" lon="34.7805748"><ele>475.6</ele><time>2013-11-20T14:35:29.0000000+00:00</time></trkpt><trkpt lat="30.85241699" lon="34.78058243"><ele>475.6</ele><time>2013-11-20T14:35:34.0000000+00:00</time></trkpt><trkpt lat="30.85245895" lon="34.78069305"><ele>475.7</ele><time>2013-11-20T14:35:39.0000000+00:00</time></trkpt><trkpt lat="30.85253334" lon="34.78090668"><ele>476.6</ele><time>2013-11-20T14:35:44.0000000+00:00</time></trkpt><trkpt lat="30.85261154" lon="34.78109741"><ele>476.7</ele><time>2013-11-20T14:35:49.0000000+00:00</time></trkpt><trkpt lat="30.85266495" lon="34.78121185"><ele>478.2</ele><time>2013-11-20T14:35:54.0000000+00:00</time></trkpt><trkpt lat="30.85275269" lon="34.78125382"><ele>477.2</ele><time>2013-11-20T14:35:59.0000000+00:00</time></trkpt><trkpt lat="30.85289764" lon="34.78124619"><ele>476.6</ele><time>2013-11-20T14:36:04.0000000+00:00</time></trkpt><trkpt lat="30.85301209" lon="34.78125382"><ele>477.0</ele><time>2013-11-20T14:36:09.0000000+00:00</time></trkpt><trkpt lat="30.85305405" lon="34.78136444"><ele>477.7</ele><time>2013-11-20T14:36:14.0000000+00:00</time></trkpt><trkpt lat="30.8530941" lon="34.78149796"><ele>478.0</ele><time>2013-11-20T14:36:19.0000000+00:00</time></trkpt><trkpt lat="30.85307884" lon="34.78153229"><ele>477.3</ele><time>2013-11-20T14:36:24.0000000+00:00</time></trkpt><trkpt lat="30.8531456" lon="34.78149414"><ele>477.2</ele><time>2013-11-20T14:36:29.0000000+00:00</time></trkpt><trkpt lat="30.85325432" lon="34.78145218"><ele>477.7</ele><time>2013-11-20T14:36:34.0000000+00:00</time></trkpt><trkpt lat="30.85333252" lon="34.78142166"><ele>477.7</ele><time>2013-11-20T14:36:39.0000000+00:00</time></trkpt><trkpt lat="30.85337448" lon="34.78151703"><ele>477.0</ele><time>2013-11-20T14:36:44.0000000+00:00</time></trkpt><trkpt lat="30.85341263" lon="34.78161621"><ele>475.1</ele><time>2013-11-20T14:36:49.0000000+00:00</time></trkpt><trkpt lat="30.85343552" lon="34.78163147"><ele>474.6</ele><time>2013-11-20T14:36:54.0000000+00:00</time></trkpt><trkpt lat="30.85342407" lon="34.78157044"><ele>476.1</ele><time>2013-11-20T14:36:59.0000000+00:00</time></trkpt><trkpt lat="30.85341263" lon="34.7815361"><ele>476.7</ele><time>2013-11-20T14:37:04.0000000+00:00</time></trkpt><trkpt lat="30.85342979" lon="34.78155136"><ele>476.6</ele><time>2013-11-20T14:37:09.0000000+00:00</time></trkpt><trkpt lat="30.85342979" lon="34.78155136"><ele>476.8</ele><time>2013-11-20T14:37:14.0000000+00:00</time></trkpt><trkpt lat="30.8534317" lon="34.78155136"><ele>477.0</ele><time>2013-11-20T14:37:19.0000000+00:00</time></trkpt><trkpt lat="30.8534317" lon="34.78155136"><ele>477.1</ele><time>2013-11-20T14:37:24.0000000+00:00</time></trkpt><trkpt lat="30.85343361" lon="34.78155136"><ele>477.1</ele><time>2013-11-20T14:37:29.0000000+00:00</time></trkpt><trkpt lat="30.85343361" lon="34.78155518"><ele>477.1</ele><time>2013-11-20T14:37:34.0000000+00:00</time></trkpt><trkpt lat="30.85343361" lon="34.78155518"><ele>477.1</ele><time>2013-11-20T14:37:39.0000000+00:00</time></trkpt></trkseg><trkseg><trkpt lat="30.85342217" lon="34.78193283"><ele>532.6</ele><time>2013-11-21T06:20:57.0000000+00:00</time></trkpt><trkpt lat="30.85343742" lon="34.78181839"><ele>519.3</ele><time>2013-11-21T06:21:02.0000000+00:00</time></trkpt><trkpt lat="30.85343742" lon="34.78179169"><ele>517.9</ele><time>2013-11-21T06:21:07.0000000+00:00</time></trkpt><trkpt lat="30.85343933" lon="34.78180313"><ele>517.9</ele><time>2013-11-21T06:21:12.0000000+00:00</time></trkpt><trkpt lat="30.85345078" lon="34.7817955"><ele>513.2</ele><time>2013-11-21T06:21:17.0000000+00:00</time></trkpt><trkpt lat="30.85345459" lon="34.78175736"><ele>509.7</ele><time>2013-11-21T06:21:22.0000000+00:00</time></trkpt><trkpt lat="30.85345841" lon="34.78172684"><ele>506.9</ele><time>2013-11-21T06:21:27.0000000+00:00</time></trkpt><trkpt lat="30.85345841" lon="34.78172684"><ele>506.8</ele><time>2013-11-21T06:21:32.0000000+00:00</time></trkpt><trkpt lat="30.85345841" lon="34.78172684"><ele>506.6</ele><time>2013-11-21T06:21:37.0000000+00:00</time></trkpt><trkpt lat="30.85345841" lon="34.78172302"><ele>506.5</ele><time>2013-11-21T06:21:42.0000000+00:00</time></trkpt><trkpt lat="30.8534565" lon="34.78171921"><ele>506.4</ele><time>2013-11-21T06:21:47.0000000+00:00</time></trkpt><trkpt lat="30.8534565" lon="34.78171539"><ele>506.3</ele><time>2013-11-21T06:21:52.0000000+00:00</time></trkpt><trkpt lat="30.8534565" lon="34.78171158"><ele>506.2</ele><time>2013-11-21T06:21:57.0000000+00:00</time></trkpt><trkpt lat="30.85345459" lon="34.78170395"><ele>506.1</ele><time>2013-11-21T06:22:02.0000000+00:00</time></trkpt><trkpt lat="30.85345459" lon="34.78170395"><ele>506.1</ele><time>2013-11-21T06:22:07.0000000+00:00</time></trkpt><trkpt lat="30.85345459" lon="34.78170395"><ele>506.0</ele><time>2013-11-21T06:22:12.0000000+00:00</time></trkpt><trkpt lat="30.85345459" lon="34.78170776"><ele>506.0</ele><time>2013-11-21T06:22:17.0000000+00:00</time></trkpt><trkpt lat="30.8534565" lon="34.78170013"><ele>505.9</ele><time>2013-11-21T06:22:22.0000000+00:00</time></trkpt><trkpt lat="30.85346031" lon="34.78169632"><ele>506.0</ele><time>2013-11-21T06:22:27.0000000+00:00</time></trkpt><trkpt lat="30.85346222" lon="34.78169251"><ele>506.0</ele><time>2013-11-21T06:22:32.0000000+00:00</time></trkpt><trkpt lat="30.85346603" lon="34.78168869"><ele>506.1</ele><time>2013-11-21T06:22:37.0000000+00:00</time></trkpt><trkpt lat="30.85346794" lon="34.78168106"><ele>506.0</ele><time>2013-11-21T06:22:42.0000000+00:00</time></trkpt><trkpt lat="30.85346794" lon="34.78167725"><ele>506.0</ele><time>2013-11-21T06:22:47.0000000+00:00</time></trkpt><trkpt lat="30.85346222" lon="34.78168106"><ele>505.9</ele><time>2013-11-21T06:22:52.0000000+00:00</time></trkpt><trkpt lat="30.8534565" lon="34.78168106"><ele>505.8</ele><time>2013-11-21T06:22:57.0000000+00:00</time></trkpt><trkpt lat="30.85345841" lon="34.78168106"><ele>505.7</ele><time>2013-11-21T06:23:02.0000000+00:00</time></trkpt><trkpt lat="30.85346031" lon="34.78168106"><ele>505.6</ele><time>2013-11-21T06:23:07.0000000+00:00</time></trkpt><trkpt lat="30.8534565" lon="34.78168106"><ele>505.6</ele><time>2013-11-21T06:23:12.0000000+00:00</time></trkpt><trkpt lat="30.85345268" lon="34.78167725"><ele>505.5</ele><time>2013-11-21T06:23:17.0000000+00:00</time></trkpt><trkpt lat="30.85345459" lon="34.78167725"><ele>505.5</ele><time>2013-11-21T06:23:22.0000000+00:00</time></trkpt><trkpt lat="30.85346031" lon="34.78166962"><ele>505.5</ele><time>2013-11-21T06:23:27.0000000+00:00</time></trkpt><trkpt lat="30.85346413" lon="34.78166199"><ele>505.5</ele><time>2013-11-21T06:23:32.0000000+00:00</time></trkpt><trkpt lat="30.85346603" lon="34.78165817"><ele>505.5</ele><time>2013-11-21T06:23:37.0000000+00:00</time></trkpt><trkpt lat="30.85346985" lon="34.78165054"><ele>505.4</ele><time>2013-11-21T06:23:42.0000000+00:00</time></trkpt><trkpt lat="30.85347748" lon="34.78164673"><ele>505.3</ele><time>2013-11-21T06:23:47.0000000+00:00</time></trkpt><trkpt lat="30.8534832" lon="34.78164291"><ele>505.2</ele><time>2013-11-21T06:23:52.0000000+00:00</time></trkpt><trkpt lat="30.85349464" lon="34.78164291"><ele>505.3</ele><time>2013-11-21T06:23:57.0000000+00:00</time></trkpt><trkpt lat="30.85349846" lon="34.78163528"><ele>505.4</ele><time>2013-11-21T06:24:02.0000000+00:00</time></trkpt><trkpt lat="30.85349655" lon="34.78163147"><ele>505.3</ele><time>2013-11-21T06:24:07.0000000+00:00</time></trkpt><trkpt lat="30.85350037" lon="34.78163147"><ele>505.2</ele><time>2013-11-21T06:24:12.0000000+00:00</time></trkpt><trkpt lat="30.853508" lon="34.78162766"><ele>505.0</ele><time>2013-11-21T06:24:17.0000000+00:00</time></trkpt><trkpt lat="30.85351372" lon="34.78162384"><ele>504.8</ele><time>2013-11-21T06:24:22.0000000+00:00</time></trkpt><trkpt lat="30.85351181" lon="34.78162384"><ele>504.7</ele><time>2013-11-21T06:24:27.0000000+00:00</time></trkpt><trkpt lat="30.85349655" lon="34.7816124"><ele>503.9</ele><time>2013-11-21T06:24:32.0000000+00:00</time></trkpt><trkpt lat="30.85348892" lon="34.78160095"><ele>503.1</ele><time>2013-11-21T06:24:37.0000000+00:00</time></trkpt><trkpt lat="30.8534832" lon="34.78159714"><ele>502.9</ele><time>2013-11-21T06:24:42.0000000+00:00</time></trkpt><trkpt lat="30.85347176" lon="34.78158951"><ele>501.8</ele><time>2013-11-21T06:24:47.0000000+00:00</time></trkpt><trkpt lat="30.85347176" lon="34.78158951"><ele>501.1</ele><time>2013-11-21T06:24:52.0000000+00:00</time></trkpt><trkpt lat="30.85347939" lon="34.78159332"><ele>500.9</ele><time>2013-11-21T06:24:57.0000000+00:00</time></trkpt><trkpt lat="30.85349083" lon="34.78159332"><ele>500.6</ele><time>2013-11-21T06:25:02.0000000+00:00</time></trkpt><trkpt lat="30.85350037" lon="34.78159714"><ele>500.4</ele><time>2013-11-21T06:25:07.0000000+00:00</time></trkpt><trkpt lat="30.85350609" lon="34.78159332"><ele>500.1</ele><time>2013-11-21T06:25:12.0000000+00:00</time></trkpt><trkpt lat="30.85351181" lon="34.78158188"><ele>499.8</ele><time>2013-11-21T06:25:17.0000000+00:00</time></trkpt><trkpt lat="30.85351944" lon="34.78156281"><ele>499.5</ele><time>2013-11-21T06:25:22.0000000+00:00</time></trkpt><trkpt lat="30.85351563" lon="34.78152847"><ele>499.1</ele><time>2013-11-21T06:25:27.0000000+00:00</time></trkpt><trkpt lat="30.85349655" lon="34.78150177"><ele>498.7</ele><time>2013-11-21T06:25:32.0000000+00:00</time></trkpt><trkpt lat="30.85350227" lon="34.78147888"><ele>498.5</ele><time>2013-11-21T06:25:37.0000000+00:00</time></trkpt><trkpt lat="30.85351181" lon="34.78146362"><ele>498.1</ele><time>2013-11-21T06:25:42.0000000+00:00</time></trkpt><trkpt lat="30.85351372" lon="34.78144836"><ele>497.9</ele><time>2013-11-21T06:25:47.0000000+00:00</time></trkpt><trkpt lat="30.85349846" lon="34.78143311"><ele>497.6</ele><time>2013-11-21T06:25:52.0000000+00:00</time></trkpt><trkpt lat="30.85347748" lon="34.78142548"><ele>497.3</ele><time>2013-11-21T06:25:57.0000000+00:00</time></trkpt><trkpt lat="30.85346985" lon="34.78143692"><ele>497.0</ele><time>2013-11-21T06:26:02.0000000+00:00</time></trkpt><trkpt lat="30.85346794" lon="34.78142548"><ele>496.7</ele><time>2013-11-21T06:26:07.0000000+00:00</time></trkpt><trkpt lat="30.85346413" lon="34.78142548"><ele>496.4</ele><time>2013-11-21T06:26:12.0000000+00:00</time></trkpt><trkpt lat="30.85346222" lon="34.78142929"><ele>496.1</ele><time>2013-11-21T06:26:17.0000000+00:00</time></trkpt><trkpt lat="30.85346413" lon="34.78143692"><ele>495.8</ele><time>2013-11-21T06:26:22.0000000+00:00</time></trkpt><trkpt lat="30.85346985" lon="34.78144455"><ele>495.5</ele><time>2013-11-21T06:26:27.0000000+00:00</time></trkpt><trkpt lat="30.85347557" lon="34.78145218"><ele>495.2</ele><time>2013-11-21T06:26:32.0000000+00:00</time></trkpt><trkpt lat="30.85347557" lon="34.78145599"><ele>494.9</ele><time>2013-11-21T06:26:37.0000000+00:00</time></trkpt><trkpt lat="30.85347748" lon="34.78145981"><ele>494.6</ele><time>2013-11-21T06:26:42.0000000+00:00</time></trkpt><trkpt lat="30.85347557" lon="34.78145981"><ele>494.3</ele><time>2013-11-21T06:26:47.0000000+00:00</time></trkpt><trkpt lat="30.85347366" lon="34.78146744"><ele>494.0</ele><time>2013-11-21T06:26:52.0000000+00:00</time></trkpt><trkpt lat="30.85347176" lon="34.78147125"><ele>493.7</ele><time>2013-11-21T06:26:57.0000000+00:00</time></trkpt><trkpt lat="30.85346985" lon="34.7814827"><ele>493.3</ele><time>2013-11-21T06:27:02.0000000+00:00</time></trkpt><trkpt lat="30.85346985" lon="34.78148651"><ele>493.0</ele><time>2013-11-21T06:27:07.0000000+00:00</time></trkpt><trkpt lat="30.85346794" lon="34.78149033"><ele>492.7</ele><time>2013-11-21T06:27:12.0000000+00:00</time></trkpt><trkpt lat="30.85346985" lon="34.78149796"><ele>492.4</ele><time>2013-11-21T06:27:17.0000000+00:00</time></trkpt><trkpt lat="30.85346985" lon="34.78149796"><ele>492.0</ele><time>2013-11-21T06:27:22.0000000+00:00</time></trkpt><trkpt lat="30.85347176" lon="34.78149033"><ele>491.7</ele><time>2013-11-21T06:27:27.0000000+00:00</time></trkpt><trkpt lat="30.85347366" lon="34.78148651"><ele>491.4</ele><time>2013-11-21T06:27:32.0000000+00:00</time></trkpt><trkpt lat="30.85344887" lon="34.78147507"><ele>491.0</ele><time>2013-11-21T06:27:37.0000000+00:00</time></trkpt><trkpt lat="30.85344887" lon="34.78146362"><ele>490.7</ele><time>2013-11-21T06:27:42.0000000+00:00</time></trkpt><trkpt lat="30.85345268" lon="34.78145599"><ele>490.3</ele><time>2013-11-21T06:27:47.0000000+00:00</time></trkpt><trkpt lat="30.8534565" lon="34.7814064"><ele>489.9</ele><time>2013-11-21T06:27:52.0000000+00:00</time></trkpt><trkpt lat="30.85346031" lon="34.781353"><ele>489.7</ele><time>2013-11-21T06:27:57.0000000+00:00</time></trkpt><trkpt lat="30.85338211" lon="34.78136826"><ele>489.3</ele><time>2013-11-21T06:28:02.0000000+00:00</time></trkpt><trkpt lat="30.85319328" lon="34.7813797"><ele>488.6</ele><time>2013-11-21T06:28:07.0000000+00:00</time></trkpt><trkpt lat="30.85310364" lon="34.78145599"><ele>488.1</ele><time>2013-11-21T06:28:12.0000000+00:00</time></trkpt><trkpt lat="30.85315132" lon="34.78156662"><ele>487.8</ele><time>2013-11-21T06:28:17.0000000+00:00</time></trkpt><trkpt lat="30.8531723" lon="34.78169632"><ele>487.0</ele><time>2013-11-21T06:28:22.0000000+00:00</time></trkpt><trkpt lat="30.85306549" lon="34.78176117"><ele>485.8</ele><time>2013-11-21T06:28:27.0000000+00:00</time></trkpt><trkpt lat="30.8529377" lon="34.78182221"><ele>484.3</ele><time>2013-11-21T06:28:32.0000000+00:00</time></trkpt><trkpt lat="30.85293007" lon="34.78183365"><ele>482.4</ele><time>2013-11-21T06:28:37.0000000+00:00</time></trkpt><trkpt lat="30.85293198" lon="34.78184891"><ele>480.6</ele><time>2013-11-21T06:28:42.0000000+00:00</time></trkpt><trkpt lat="30.85294151" lon="34.78186798"><ele>479.2</ele><time>2013-11-21T06:28:47.0000000+00:00</time></trkpt><trkpt lat="30.85281944" lon="34.78186035"><ele>477.4</ele><time>2013-11-21T06:28:52.0000000+00:00</time></trkpt><trkpt lat="30.85264015" lon="34.78187943"><ele>475.6</ele><time>2013-11-21T06:28:57.0000000+00:00</time></trkpt><trkpt lat="30.85244751" lon="34.78194428"><ele>473.6</ele><time>2013-11-21T06:29:02.0000000+00:00</time></trkpt><trkpt lat="30.85224915" lon="34.78199387"><ele>471.3</ele><time>2013-11-21T06:29:07.0000000+00:00</time></trkpt><trkpt lat="30.8520546" lon="34.78202057"><ele>469.1</ele><time>2013-11-21T06:29:12.0000000+00:00</time></trkpt><trkpt lat="30.85186768" lon="34.7820549"><ele>467.3</ele><time>2013-11-21T06:29:17.0000000+00:00</time></trkpt><trkpt lat="30.85170174" lon="34.78211594"><ele>465.7</ele><time>2013-11-21T06:29:22.0000000+00:00</time></trkpt><trkpt lat="30.85157967" lon="34.78220749"><ele>463.7</ele><time>2013-11-21T06:29:27.0000000+00:00</time></trkpt><trkpt lat="30.85142136" lon="34.78222656"><ele>461.7</ele><time>2013-11-21T06:29:32.0000000+00:00</time></trkpt><trkpt lat="30.85130119" lon="34.7822609"><ele>459.7</ele><time>2013-11-21T06:29:37.0000000+00:00</time></trkpt><trkpt lat="30.8511734" lon="34.78237534"><ele>458.2</ele><time>2013-11-21T06:29:42.0000000+00:00</time></trkpt><trkpt lat="30.85112763" lon="34.78240967"><ele>457.3</ele><time>2013-11-21T06:29:47.0000000+00:00</time></trkpt><trkpt lat="30.85103607" lon="34.78242493"><ele>456.2</ele><time>2013-11-21T06:29:52.0000000+00:00</time></trkpt><trkpt lat="30.85088348" lon="34.78244019"><ele>454.9</ele><time>2013-11-21T06:29:57.0000000+00:00</time></trkpt><trkpt lat="30.85072136" lon="34.78245163"><ele>453.9</ele><time>2013-11-21T06:30:02.0000000+00:00</time></trkpt><trkpt lat="30.85056496" lon="34.78248215"><ele>452.8</ele><time>2013-11-21T06:30:07.0000000+00:00</time></trkpt><trkpt lat="30.85047722" lon="34.782547"><ele>450.8</ele><time>2013-11-21T06:30:12.0000000+00:00</time></trkpt><trkpt lat="30.85048294" lon="34.782547"><ele>450.8</ele><time>2013-11-21T06:30:17.0000000+00:00</time></trkpt><trkpt lat="30.85051918" lon="34.78258133"><ele>450.2</ele><time>2013-11-21T06:30:22.0000000+00:00</time></trkpt><trkpt lat="30.85061264" lon="34.78258896"><ele>449.9</ele><time>2013-11-21T06:30:27.0000000+00:00</time></trkpt><trkpt lat="30.85075188" lon="34.78256226"><ele>449.4</ele><time>2013-11-21T06:30:32.0000000+00:00</time></trkpt><trkpt lat="30.85084152" lon="34.78253555"><ele>448.5</ele><time>2013-11-21T06:30:37.0000000+00:00</time></trkpt><trkpt lat="30.85092926" lon="34.78253555"><ele>447.8</ele><time>2013-11-21T06:30:42.0000000+00:00</time></trkpt><trkpt lat="30.85100555" lon="34.78256989"><ele>446.6</ele><time>2013-11-21T06:30:47.0000000+00:00</time></trkpt><trkpt lat="30.85101509" lon="34.78261185"><ele>445.7</ele><time>2013-11-21T06:30:52.0000000+00:00</time></trkpt><trkpt lat="30.85106659" lon="34.78258514"><ele>445.5</ele><time>2013-11-21T06:30:57.0000000+00:00</time></trkpt><trkpt lat="30.85109901" lon="34.78260422"><ele>444.9</ele><time>2013-11-21T06:31:02.0000000+00:00</time></trkpt><trkpt lat="30.85127068" lon="34.78253937"><ele>444.0</ele><time>2013-11-21T06:31:07.0000000+00:00</time></trkpt><trkpt lat="30.85150147" lon="34.78248596"><ele>442.3</ele><time>2013-11-21T06:31:12.0000000+00:00</time></trkpt><trkpt lat="30.85174561" lon="34.78245544"><ele>440.6</ele><time>2013-11-21T06:31:17.0000000+00:00</time></trkpt><trkpt lat="30.85181427" lon="34.78246689"><ele>441.0</ele><time>2013-11-21T06:31:22.0000000+00:00</time></trkpt><trkpt lat="30.85192108" lon="34.782444"><ele>442.5</ele><time>2013-11-21T06:31:27.0000000+00:00</time></trkpt><trkpt lat="30.85201454" lon="34.78243637"><ele>445.7</ele><time>2013-11-21T06:31:32.0000000+00:00</time></trkpt><trkpt lat="30.85205841" lon="34.78248978"><ele>452.1</ele><time>2013-11-21T06:31:37.0000000+00:00</time></trkpt><trkpt lat="30.85211372" lon="34.78249741"><ele>454.0</ele><time>2013-11-21T06:31:42.0000000+00:00</time></trkpt><trkpt lat="30.85222817" lon="34.78242874"><ele>455.9</ele><time>2013-11-21T06:31:47.0000000+00:00</time></trkpt><trkpt lat="30.85259819" lon="34.78228378"><ele>458.8</ele><time>2013-11-21T06:31:52.0000000+00:00</time></trkpt><trkpt lat="30.85268021" lon="34.78229523"><ele>460.8</ele><time>2013-11-21T06:31:57.0000000+00:00</time></trkpt><trkpt lat="30.85269547" lon="34.78237915"><ele>461.5</ele><time>2013-11-21T06:32:02.0000000+00:00</time></trkpt><trkpt lat="30.85275078" lon="34.78227234"><ele>460.0</ele><time>2013-11-21T06:32:07.0000000+00:00</time></trkpt><trkpt lat="30.85277176" lon="34.78220749"><ele>458.7</ele><time>2013-11-21T06:32:12.0000000+00:00</time></trkpt><trkpt lat="30.85277939" lon="34.78215408"><ele>457.5</ele><time>2013-11-21T06:32:17.0000000+00:00</time></trkpt><trkpt lat="30.85271454" lon="34.78210068"><ele>457.6</ele><time>2013-11-21T06:32:22.0000000+00:00</time></trkpt><trkpt lat="30.85271072" lon="34.78209686"><ele>457.4</ele><time>2013-11-21T06:32:27.0000000+00:00</time></trkpt><trkpt lat="30.85272217" lon="34.78210831"><ele>457.0</ele><time>2013-11-21T06:32:32.0000000+00:00</time></trkpt><trkpt lat="30.85273171" lon="34.78212738"><ele>457.3</ele><time>2013-11-21T06:32:37.0000000+00:00</time></trkpt><trkpt lat="30.85274315" lon="34.78212357"><ele>457.2</ele><time>2013-11-21T06:32:42.0000000+00:00</time></trkpt><trkpt lat="30.8527813" lon="34.78213501"><ele>457.5</ele><time>2013-11-21T06:32:47.0000000+00:00</time></trkpt><trkpt lat="30.85279083" lon="34.78210068"><ele>457.4</ele><time>2013-11-21T06:32:52.0000000+00:00</time></trkpt><trkpt lat="30.85285759" lon="34.78202438"><ele>456.4</ele><time>2013-11-21T06:32:57.0000000+00:00</time></trkpt><trkpt lat="30.85273171" lon="34.78201294"><ele>456.2</ele><time>2013-11-21T06:33:02.0000000+00:00</time></trkpt><trkpt lat="30.85263252" lon="34.78199768"><ele>455.6</ele><time>2013-11-21T06:33:07.0000000+00:00</time></trkpt><trkpt lat="30.85257149" lon="34.78199387"><ele>455.6</ele><time>2013-11-21T06:33:12.0000000+00:00</time></trkpt><trkpt lat="30.85247994" lon="34.78202057"><ele>455.6</ele><time>2013-11-21T06:33:17.0000000+00:00</time></trkpt><trkpt lat="30.85246849" lon="34.78196716"><ele>457.7</ele><time>2013-11-21T06:33:22.0000000+00:00</time></trkpt><trkpt lat="30.85230255" lon="34.78199768"><ele>458.6</ele><time>2013-11-21T06:33:27.0000000+00:00</time></trkpt><trkpt lat="30.85209656" lon="34.78205109"><ele>458.7</ele><time>2013-11-21T06:33:32.0000000+00:00</time></trkpt><trkpt lat="30.85183334" lon="34.78211975"><ele>458.5</ele><time>2013-11-21T06:33:37.0000000+00:00</time></trkpt><trkpt lat="30.85157204" lon="34.78220367"><ele>458.4</ele><time>2013-11-21T06:33:42.0000000+00:00</time></trkpt><trkpt lat="30.85134697" lon="34.78226852"><ele>458.5</ele><time>2013-11-21T06:33:47.0000000+00:00</time></trkpt><trkpt lat="30.85113907" lon="34.78231812"><ele>459.2</ele><time>2013-11-21T06:33:52.0000000+00:00</time></trkpt><trkpt lat="30.85094261" lon="34.78235626"><ele>459.5</ele><time>2013-11-21T06:33:57.0000000+00:00</time></trkpt><trkpt lat="30.85074234" lon="34.78238678"><ele>460.0</ele><time>2013-11-21T06:34:02.0000000+00:00</time></trkpt><trkpt lat="30.85050964" lon="34.7824173"><ele>460.5</ele><time>2013-11-21T06:34:07.0000000+00:00</time></trkpt><trkpt lat="30.8502655" lon="34.78250504"><ele>461.0</ele><time>2013-11-21T06:34:12.0000000+00:00</time></trkpt><trkpt lat="30.85002899" lon="34.78255463"><ele>460.9</ele><time>2013-11-21T06:34:17.0000000+00:00</time></trkpt><trkpt lat="30.84989357" lon="34.78258896"><ele>460.5</ele><time>2013-11-21T06:34:22.0000000+00:00</time></trkpt><trkpt lat="30.84971428" lon="34.78263474"><ele>460.0</ele><time>2013-11-21T06:34:27.0000000+00:00</time></trkpt><trkpt lat="30.8495121" lon="34.78263092"><ele>459.6</ele><time>2013-11-21T06:34:32.0000000+00:00</time></trkpt><trkpt lat="30.84936142" lon="34.7825737"><ele>459.7</ele><time>2013-11-21T06:34:37.0000000+00:00</time></trkpt><trkpt lat="30.84936905" lon="34.78245544"><ele>460.0</ele><time>2013-11-21T06:34:42.0000000+00:00</time></trkpt><trkpt lat="30.84932709" lon="34.78239822"><ele>460.2</ele><time>2013-11-21T06:34:47.0000000+00:00</time></trkpt><trkpt lat="30.84930229" lon="34.78238297"><ele>462.2</ele><time>2013-11-21T06:34:52.0000000+00:00</time></trkpt><trkpt lat="30.84929657" lon="34.78233719"><ele>462.4</ele><time>2013-11-21T06:34:57.0000000+00:00</time></trkpt><trkpt lat="30.84931946" lon="34.78223038"><ele>461.6</ele><time>2013-11-21T06:35:02.0000000+00:00</time></trkpt><trkpt lat="30.84930611" lon="34.7822113"><ele>461.9</ele><time>2013-11-21T06:35:07.0000000+00:00</time></trkpt><trkpt lat="30.84928894" lon="34.78219223"><ele>462.4</ele><time>2013-11-21T06:35:12.0000000+00:00</time></trkpt><trkpt lat="30.84929848" lon="34.78218079"><ele>462.4</ele><time>2013-11-21T06:35:17.0000000+00:00</time></trkpt><trkpt lat="30.84923935" lon="34.78214645"><ele>463.0</ele><time>2013-11-21T06:35:22.0000000+00:00</time></trkpt><trkpt lat="30.84910202" lon="34.78213501"><ele>463.2</ele><time>2013-11-21T06:35:27.0000000+00:00</time></trkpt><trkpt lat="30.84904289" lon="34.78214645"><ele>463.4</ele><time>2013-11-21T06:35:32.0000000+00:00</time></trkpt><trkpt lat="30.84898186" lon="34.78212738"><ele>463.3</ele><time>2013-11-21T06:35:37.0000000+00:00</time></trkpt><trkpt lat="30.84897232" lon="34.7820282"><ele>463.5</ele><time>2013-11-21T06:35:42.0000000+00:00</time></trkpt><trkpt lat="30.84897232" lon="34.78202057"><ele>464.7</ele><time>2013-11-21T06:35:47.0000000+00:00</time></trkpt><trkpt lat="30.84900856" lon="34.78197098"><ele>465.3</ele><time>2013-11-21T06:35:52.0000000+00:00</time></trkpt><trkpt lat="30.84910011" lon="34.78181458"><ele>465.6</ele><time>2013-11-21T06:35:57.0000000+00:00</time></trkpt><trkpt lat="30.84922791" lon="34.7816124"><ele>465.5</ele><time>2013-11-21T06:36:02.0000000+00:00</time></trkpt><trkpt lat="30.84931374" lon="34.78136444"><ele>464.6</ele><time>2013-11-21T06:36:07.0000000+00:00</time></trkpt><trkpt lat="30.84933662" lon="34.78115463"><ele>464.0</ele><time>2013-11-21T06:36:12.0000000+00:00</time></trkpt><trkpt lat="30.84936714" lon="34.78100205"><ele>463.6</ele><time>2013-11-21T06:36:17.0000000+00:00</time></trkpt><trkpt lat="30.84932327" lon="34.78095245"><ele>464.0</ele><time>2013-11-21T06:36:22.0000000+00:00</time></trkpt><trkpt lat="30.84931564" lon="34.7809639"><ele>464.0</ele><time>2013-11-21T06:36:27.0000000+00:00</time></trkpt><trkpt lat="30.84932327" lon="34.78097153"><ele>464.0</ele><time>2013-11-21T06:36:32.0000000+00:00</time></trkpt><trkpt lat="30.84933472" lon="34.78097153"><ele>464.0</ele><time>2013-11-21T06:36:37.0000000+00:00</time></trkpt><trkpt lat="30.84935761" lon="34.78092957"><ele>464.1</ele><time>2013-11-21T06:36:42.0000000+00:00</time></trkpt><trkpt lat="30.84938622" lon="34.78076935"><ele>463.4</ele><time>2013-11-21T06:36:47.0000000+00:00</time></trkpt><trkpt lat="30.84943962" lon="34.78060913"><ele>463.4</ele><time>2013-11-21T06:36:52.0000000+00:00</time></trkpt><trkpt lat="30.84952736" lon="34.78051376"><ele>463.5</ele><time>2013-11-21T06:36:57.0000000+00:00</time></trkpt><trkpt lat="30.84957504" lon="34.78046417"><ele>463.9</ele><time>2013-11-21T06:37:02.0000000+00:00</time></trkpt><trkpt lat="30.84963417" lon="34.78039551"><ele>463.5</ele><time>2013-11-21T06:37:07.0000000+00:00</time></trkpt><trkpt lat="30.84971428" lon="34.78035736"><ele>463.5</ele><time>2013-11-21T06:37:12.0000000+00:00</time></trkpt><trkpt lat="30.84978676" lon="34.78029251"><ele>463.9</ele><time>2013-11-21T06:37:17.0000000+00:00</time></trkpt><trkpt lat="30.84989739" lon="34.78009796"><ele>464.2</ele><time>2013-11-21T06:37:22.0000000+00:00</time></trkpt><trkpt lat="30.84997749" lon="34.77996826"><ele>464.2</ele><time>2013-11-21T06:37:27.0000000+00:00</time></trkpt><trkpt lat="30.84995461" lon="34.77981186"><ele>463.5</ele><time>2013-11-21T06:37:32.0000000+00:00</time></trkpt><trkpt lat="30.84996796" lon="34.77975464"><ele>461.4</ele><time>2013-11-21T06:37:37.0000000+00:00</time></trkpt><trkpt lat="30.84996796" lon="34.77973557"><ele>460.6</ele><time>2013-11-21T06:37:42.0000000+00:00</time></trkpt><trkpt lat="30.84994125" lon="34.77964783"><ele>460.8</ele><time>2013-11-21T06:37:47.0000000+00:00</time></trkpt><trkpt lat="30.849926" lon="34.77956009"><ele>461.4</ele><time>2013-11-21T06:37:52.0000000+00:00</time></trkpt><trkpt lat="30.84992218" lon="34.77945328"><ele>461.4</ele><time>2013-11-21T06:37:57.0000000+00:00</time></trkpt><trkpt lat="30.84997368" lon="34.77941132"><ele>461.1</ele><time>2013-11-21T06:38:02.0000000+00:00</time></trkpt><trkpt lat="30.85000229" lon="34.77939224"><ele>460.7</ele><time>2013-11-21T06:38:07.0000000+00:00</time></trkpt><trkpt lat="30.8500061" lon="34.77933502"><ele>461.6</ele><time>2013-11-21T06:38:12.0000000+00:00</time></trkpt><trkpt lat="30.85005379" lon="34.77920914"><ele>461.6</ele><time>2013-11-21T06:38:17.0000000+00:00</time></trkpt><trkpt lat="30.85007286" lon="34.77904511"><ele>462.1</ele><time>2013-11-21T06:38:22.0000000+00:00</time></trkpt><trkpt lat="30.84994698" lon="34.77900314"><ele>462.6</ele><time>2013-11-21T06:38:27.0000000+00:00</time></trkpt><trkpt lat="30.84992027" lon="34.77895355"><ele>462.7</ele><time>2013-11-21T06:38:32.0000000+00:00</time></trkpt><trkpt lat="30.84985161" lon="34.77894211"><ele>462.9</ele><time>2013-11-21T06:38:37.0000000+00:00</time></trkpt><trkpt lat="30.84976959" lon="34.77893829"><ele>464.4</ele><time>2013-11-21T06:38:42.0000000+00:00</time></trkpt><trkpt lat="30.84966087" lon="34.77889633"><ele>464.7</ele><time>2013-11-21T06:38:47.0000000+00:00</time></trkpt><trkpt lat="30.84958458" lon="34.7788353"><ele>465.7</ele><time>2013-11-21T06:38:52.0000000+00:00</time></trkpt><trkpt lat="30.84951019" lon="34.77877426"><ele>466.2</ele><time>2013-11-21T06:38:57.0000000+00:00</time></trkpt><trkpt lat="30.84936142" lon="34.77869415"><ele>467.8</ele><time>2013-11-21T06:39:02.0000000+00:00</time></trkpt><trkpt lat="30.84922409" lon="34.77866745"><ele>467.8</ele><time>2013-11-21T06:39:07.0000000+00:00</time></trkpt><trkpt lat="30.84905052" lon="34.77867889"><ele>468.7</ele><time>2013-11-21T06:39:12.0000000+00:00</time></trkpt><trkpt lat="30.84893417" lon="34.7787323"><ele>468.0</ele><time>2013-11-21T06:39:17.0000000+00:00</time></trkpt><trkpt lat="30.84886169" lon="34.77877045"><ele>468.3</ele><time>2013-11-21T06:39:22.0000000+00:00</time></trkpt><trkpt lat="30.84883118" lon="34.77880859"><ele>468.8</ele><time>2013-11-21T06:39:27.0000000+00:00</time></trkpt><trkpt lat="30.84878349" lon="34.77887344"><ele>468.5</ele><time>2013-11-21T06:39:32.0000000+00:00</time></trkpt><trkpt lat="30.84874725" lon="34.77893066"><ele>468.1</ele><time>2013-11-21T06:39:37.0000000+00:00</time></trkpt><trkpt lat="30.84864998" lon="34.77904511"><ele>467.6</ele><time>2013-11-21T06:39:42.0000000+00:00</time></trkpt><trkpt lat="30.84850884" lon="34.77922058"><ele>467.3</ele><time>2013-11-21T06:39:47.0000000+00:00</time></trkpt><trkpt lat="30.84835434" lon="34.77939224"><ele>466.3</ele><time>2013-11-21T06:39:52.0000000+00:00</time></trkpt><trkpt lat="30.84822083" lon="34.77952957"><ele>465.2</ele><time>2013-11-21T06:39:57.0000000+00:00</time></trkpt><trkpt lat="30.84808159" lon="34.7796669"><ele>463.2</ele><time>2013-11-21T06:40:02.0000000+00:00</time></trkpt><trkpt lat="30.84793854" lon="34.77980042"><ele>460.9</ele><time>2013-11-21T06:40:07.0000000+00:00</time></trkpt><trkpt lat="30.84778404" lon="34.77994537"><ele>458.3</ele><time>2013-11-21T06:40:12.0000000+00:00</time></trkpt><trkpt lat="30.84764099" lon="34.78007507"><ele>455.1</ele><time>2013-11-21T06:40:17.0000000+00:00</time></trkpt><trkpt lat="30.84750176" lon="34.78020477"><ele>450.8</ele><time>2013-11-21T06:40:22.0000000+00:00</time></trkpt><trkpt lat="30.84738541" lon="34.78036118"><ele>448.4</ele><time>2013-11-21T06:40:27.0000000+00:00</time></trkpt><trkpt lat="30.84734345" lon="34.78058624"><ele>446.4</ele><time>2013-11-21T06:40:32.0000000+00:00</time></trkpt><trkpt lat="30.84736061" lon="34.78086853"><ele>445.2</ele><time>2013-11-21T06:40:37.0000000+00:00</time></trkpt><trkpt lat="30.84742165" lon="34.78118515"><ele>443.5</ele><time>2013-11-21T06:40:42.0000000+00:00</time></trkpt><trkpt lat="30.84745789" lon="34.78152466"><ele>442.3</ele><time>2013-11-21T06:40:47.0000000+00:00</time></trkpt><trkpt lat="30.84751129" lon="34.78187943"><ele>439.9</ele><time>2013-11-21T06:40:52.0000000+00:00</time></trkpt><trkpt lat="30.84746742" lon="34.78219223"><ele>437.5</ele><time>2013-11-21T06:40:57.0000000+00:00</time></trkpt><trkpt lat="30.84722328" lon="34.78233719"><ele>435.7</ele><time>2013-11-21T06:41:02.0000000+00:00</time></trkpt><trkpt lat="30.84703064" lon="34.78214264"><ele>434.3</ele><time>2013-11-21T06:41:07.0000000+00:00</time></trkpt><trkpt lat="30.84697723" lon="34.78180695"><ele>433.3</ele><time>2013-11-21T06:41:12.0000000+00:00</time></trkpt><trkpt lat="30.84694862" lon="34.7814827"><ele>432.5</ele><time>2013-11-21T06:41:17.0000000+00:00</time></trkpt><trkpt lat="30.84692383" lon="34.78112412"><ele>431.4</ele><time>2013-11-21T06:41:22.0000000+00:00</time></trkpt><trkpt lat="30.84688377" lon="34.78075028"><ele>429.9</ele><time>2013-11-21T06:41:27.0000000+00:00</time></trkpt><trkpt lat="30.84684563" lon="34.78058243"><ele>428.4</ele><time>2013-11-21T06:41:32.0000000+00:00</time></trkpt><trkpt lat="30.84681702" lon="34.78048325"><ele>427.5</ele><time>2013-11-21T06:41:37.0000000+00:00</time></trkpt><trkpt lat="30.846735" lon="34.78038406"><ele>426.6</ele><time>2013-11-21T06:41:42.0000000+00:00</time></trkpt><trkpt lat="30.84661865" lon="34.78032303"><ele>425.5</ele><time>2013-11-21T06:41:47.0000000+00:00</time></trkpt><trkpt lat="30.84660721" lon="34.78032684"><ele>425.8</ele><time>2013-11-21T06:41:52.0000000+00:00</time></trkpt><trkpt lat="30.84661293" lon="34.78032684"><ele>425.6</ele><time>2013-11-21T06:41:57.0000000+00:00</time></trkpt><trkpt lat="30.84661484" lon="34.78033066"><ele>425.6</ele><time>2013-11-21T06:42:02.0000000+00:00</time></trkpt><trkpt lat="30.84661293" lon="34.78033447"><ele>425.6</ele><time>2013-11-21T06:42:07.0000000+00:00</time></trkpt><trkpt lat="30.84661102" lon="34.78033447"><ele>425.6</ele><time>2013-11-21T06:42:12.0000000+00:00</time></trkpt><trkpt lat="30.84660912" lon="34.78033447"><ele>425.6</ele><time>2013-11-21T06:42:17.0000000+00:00</time></trkpt><trkpt lat="30.8466053" lon="34.78033829"><ele>425.6</ele><time>2013-11-21T06:42:22.0000000+00:00</time></trkpt><trkpt lat="30.8466053" lon="34.78033829"><ele>425.6</ele><time>2013-11-21T06:42:27.0000000+00:00</time></trkpt><trkpt lat="30.8466053" lon="34.78033829"><ele>425.6</ele><time>2013-11-21T06:42:32.0000000+00:00</time></trkpt><trkpt lat="30.8466053" lon="34.78033829"><ele>425.7</ele><time>2013-11-21T06:42:37.0000000+00:00</time></trkpt><trkpt lat="30.8466053" lon="34.78033829"><ele>425.7</ele><time>2013-11-21T06:42:42.0000000+00:00</time></trkpt><trkpt lat="30.8466053" lon="34.78033829"><ele>425.6</ele><time>2013-11-21T06:42:47.0000000+00:00</time></trkpt><trkpt lat="30.84660339" lon="34.78033829"><ele>425.6</ele><time>2013-11-21T06:42:52.0000000+00:00</time></trkpt><trkpt lat="30.84659958" lon="34.78033829"><ele>425.7</ele><time>2013-11-21T06:42:57.0000000+00:00</time></trkpt><trkpt lat="30.84658432" lon="34.7803421"><ele>426.0</ele><time>2013-11-21T06:43:02.0000000+00:00</time></trkpt><trkpt lat="30.8465786" lon="34.78039169"><ele>426.2</ele><time>2013-11-21T06:43:07.0000000+00:00</time></trkpt><trkpt lat="30.84660721" lon="34.7806778"><ele>425.3</ele><time>2013-11-21T06:43:12.0000000+00:00</time></trkpt><trkpt lat="30.84663391" lon="34.78107071"><ele>424.0</ele><time>2013-11-21T06:43:17.0000000+00:00</time></trkpt><trkpt lat="30.84661675" lon="34.78152084"><ele>422.1</ele><time>2013-11-21T06:43:22.0000000+00:00</time></trkpt><trkpt lat="30.84633637" lon="34.78178787"><ele>419.5</ele><time>2013-11-21T06:43:27.0000000+00:00</time></trkpt><trkpt lat="30.84606171" lon="34.78163147"><ele>416.8</ele><time>2013-11-21T06:43:32.0000000+00:00</time></trkpt><trkpt lat="30.84591484" lon="34.78140259"><ele>413.9</ele><time>2013-11-21T06:43:37.0000000+00:00</time></trkpt><trkpt lat="30.84588051" lon="34.78143692"><ele>410.4</ele><time>2013-11-21T06:43:42.0000000+00:00</time></trkpt><trkpt lat="30.84578896" lon="34.78141022"><ele>412.0</ele><time>2013-11-21T06:43:47.0000000+00:00</time></trkpt><trkpt lat="30.84574318" lon="34.7810936"><ele>410.7</ele><time>2013-11-21T06:43:52.0000000+00:00</time></trkpt><trkpt lat="30.84572601" lon="34.78064346"><ele>408.7</ele><time>2013-11-21T06:43:57.0000000+00:00</time></trkpt><trkpt lat="30.84550858" lon="34.78034592"><ele>406.4</ele><time>2013-11-21T06:44:02.0000000+00:00</time></trkpt><trkpt lat="30.8452549" lon="34.7806015"><ele>404.3</ele><time>2013-11-21T06:44:07.0000000+00:00</time></trkpt><trkpt lat="30.84532547" lon="34.78113174"><ele>401.9</ele><time>2013-11-21T06:44:12.0000000+00:00</time></trkpt><trkpt lat="30.84512901" lon="34.78147507"><ele>398.6</ele><time>2013-11-21T06:44:17.0000000+00:00</time></trkpt><trkpt lat="30.84489059" lon="34.78115082"><ele>395.6</ele><time>2013-11-21T06:44:22.0000000+00:00</time></trkpt><trkpt lat="30.84474182" lon="34.78055191"><ele>391.6</ele><time>2013-11-21T06:44:27.0000000+00:00</time></trkpt><trkpt lat="30.8445549" lon="34.77985382"><ele>386.9</ele><time>2013-11-21T06:44:32.0000000+00:00</time></trkpt><trkpt lat="30.84416771" lon="34.77936935"><ele>383.5</ele><time>2013-11-21T06:44:37.0000000+00:00</time></trkpt><trkpt lat="30.84367752" lon="34.77915192"><ele>379.0</ele><time>2013-11-21T06:44:42.0000000+00:00</time></trkpt><trkpt lat="30.84334564" lon="34.77903366"><ele>374.7</ele><time>2013-11-21T06:44:47.0000000+00:00</time></trkpt><trkpt lat="30.84311867" lon="34.77896118"><ele>371.9</ele><time>2013-11-21T06:44:52.0000000+00:00</time></trkpt><trkpt lat="30.8429451" lon="34.77890396"><ele>370.4</ele><time>2013-11-21T06:44:57.0000000+00:00</time></trkpt><trkpt lat="30.84280968" lon="34.77886963"><ele>366.7</ele><time>2013-11-21T06:45:02.0000000+00:00</time></trkpt><trkpt lat="30.84277344" lon="34.77884674"><ele>363.2</ele><time>2013-11-21T06:45:07.0000000+00:00</time></trkpt><trkpt lat="30.84276009" lon="34.77887726"><ele>359.3</ele><time>2013-11-21T06:45:12.0000000+00:00</time></trkpt><trkpt lat="30.84276199" lon="34.77885819"><ele>358.7</ele><time>2013-11-21T06:45:17.0000000+00:00</time></trkpt><trkpt lat="30.8427639" lon="34.77885056"><ele>358.3</ele><time>2013-11-21T06:45:22.0000000+00:00</time></trkpt><trkpt lat="30.84276199" lon="34.77885437"><ele>358.1</ele><time>2013-11-21T06:45:27.0000000+00:00</time></trkpt><trkpt lat="30.84276199" lon="34.77885056"><ele>358.0</ele><time>2013-11-21T06:45:32.0000000+00:00</time></trkpt><trkpt lat="30.8427639" lon="34.77885056"><ele>358.0</ele><time>2013-11-21T06:45:37.0000000+00:00</time></trkpt><trkpt lat="30.84276199" lon="34.77885437"><ele>358.0</ele><time>2013-11-21T06:45:42.0000000+00:00</time></trkpt><trkpt lat="30.84276199" lon="34.77885437"><ele>358.1</ele><time>2013-11-21T06:45:47.0000000+00:00</time></trkpt><trkpt lat="30.84276199" lon="34.77885437"><ele>358.1</ele><time>2013-11-21T06:45:52.0000000+00:00</time></trkpt><trkpt lat="30.84276199" lon="34.77885437"><ele>358.0</ele><time>2013-11-21T06:45:57.0000000+00:00</time></trkpt><trkpt lat="30.84276199" lon="34.77885437"><ele>358.0</ele><time>2013-11-21T06:46:02.0000000+00:00</time></trkpt><trkpt lat="30.84276199" lon="34.77885437"><ele>358.0</ele><time>2013-11-21T06:46:07.0000000+00:00</time></trkpt><trkpt lat="30.84276199" lon="34.77885437"><ele>358.0</ele><time>2013-11-21T06:46:12.0000000+00:00</time></trkpt><trkpt lat="30.84276199" lon="34.77885437"><ele>358.1</ele><time>2013-11-21T06:46:17.0000000+00:00</time></trkpt><trkpt lat="30.84276199" lon="34.77885819"><ele>358.1</ele><time>2013-11-21T06:46:22.0000000+00:00</time></trkpt><trkpt lat="30.84276581" lon="34.77886581"><ele>358.1</ele><time>2013-11-21T06:46:27.0000000+00:00</time></trkpt><trkpt lat="30.84277344" lon="34.77887726"><ele>358.4</ele><time>2013-11-21T06:46:32.0000000+00:00</time></trkpt><trkpt lat="30.84278107" lon="34.77890015"><ele>358.7</ele><time>2013-11-21T06:46:37.0000000+00:00</time></trkpt><trkpt lat="30.84281921" lon="34.778965"><ele>359.6</ele><time>2013-11-21T06:46:42.0000000+00:00</time></trkpt><trkpt lat="30.84290886" lon="34.77908707"><ele>360.3</ele><time>2013-11-21T06:46:47.0000000+00:00</time></trkpt><trkpt lat="30.84297752" lon="34.7792778"><ele>360.8</ele><time>2013-11-21T06:46:52.0000000+00:00</time></trkpt><trkpt lat="30.84301949" lon="34.77945328"><ele>360.5</ele><time>2013-11-21T06:46:57.0000000+00:00</time></trkpt><trkpt lat="30.84304428" lon="34.77964401"><ele>359.7</ele><time>2013-11-21T06:47:02.0000000+00:00</time></trkpt><trkpt lat="30.84309578" lon="34.77985382"><ele>359.0</ele><time>2013-11-21T06:47:07.0000000+00:00</time></trkpt><trkpt lat="30.843153" lon="34.78003311"><ele>358.2</ele><time>2013-11-21T06:47:12.0000000+00:00</time></trkpt><trkpt lat="30.84319878" lon="34.78020096"><ele>356.9</ele><time>2013-11-21T06:47:17.0000000+00:00</time></trkpt><trkpt lat="30.84325028" lon="34.78035736"><ele>355.2</ele><time>2013-11-21T06:47:22.0000000+00:00</time></trkpt><trkpt lat="30.84329796" lon="34.78055573"><ele>354.1</ele><time>2013-11-21T06:47:27.0000000+00:00</time></trkpt><trkpt lat="30.84329605" lon="34.78070068"><ele>352.3</ele><time>2013-11-21T06:47:32.0000000+00:00</time></trkpt><trkpt lat="30.84334374" lon="34.78076553"><ele>351.8</ele><time>2013-11-21T06:47:37.0000000+00:00</time></trkpt><trkpt lat="30.84334946" lon="34.78075028"><ele>353.7</ele><time>2013-11-21T06:47:42.0000000+00:00</time></trkpt><trkpt lat="30.84335136" lon="34.78074265"><ele>353.6</ele><time>2013-11-21T06:47:47.0000000+00:00</time></trkpt><trkpt lat="30.84335327" lon="34.78074265"><ele>353.4</ele><time>2013-11-21T06:47:52.0000000+00:00</time></trkpt><trkpt lat="30.84335709" lon="34.78078461"><ele>353.3</ele><time>2013-11-21T06:47:57.0000000+00:00</time></trkpt><trkpt lat="30.84335518" lon="34.78091431"><ele>352.9</ele><time>2013-11-21T06:48:02.0000000+00:00</time></trkpt><trkpt lat="30.84337044" lon="34.78103256"><ele>353.0</ele><time>2013-11-21T06:48:07.0000000+00:00</time></trkpt><trkpt lat="30.84339523" lon="34.78119278"><ele>353.3</ele><time>2013-11-21T06:48:12.0000000+00:00</time></trkpt><trkpt lat="30.84339333" lon="34.78137207"><ele>352.8</ele><time>2013-11-21T06:48:17.0000000+00:00</time></trkpt><trkpt lat="30.8434124" lon="34.78149796"><ele>352.2</ele><time>2013-11-21T06:48:22.0000000+00:00</time></trkpt><trkpt lat="30.84341431" lon="34.78160477"><ele>351.6</ele><time>2013-11-21T06:48:27.0000000+00:00</time></trkpt><trkpt lat="30.84341812" lon="34.78158951"><ele>350.4</ele><time>2013-11-21T06:48:32.0000000+00:00</time></trkpt><trkpt lat="30.84342194" lon="34.78158951"><ele>350.3</ele><time>2013-11-21T06:48:37.0000000+00:00</time></trkpt><trkpt lat="30.84342194" lon="34.78159332"><ele>350.3</ele><time>2013-11-21T06:48:42.0000000+00:00</time></trkpt><trkpt lat="30.84342194" lon="34.78160477"><ele>350.3</ele><time>2013-11-21T06:48:47.0000000+00:00</time></trkpt><trkpt lat="30.84342003" lon="34.78160858"><ele>350.2</ele><time>2013-11-21T06:48:52.0000000+00:00</time></trkpt><trkpt lat="30.84342194" lon="34.78160858"><ele>350.1</ele><time>2013-11-21T06:48:57.0000000+00:00</time></trkpt><trkpt lat="30.84342003" lon="34.78160858"><ele>350.1</ele><time>2013-11-21T06:49:02.0000000+00:00</time></trkpt><trkpt lat="30.84341812" lon="34.78160095"><ele>350.1</ele><time>2013-11-21T06:49:07.0000000+00:00</time></trkpt><trkpt lat="30.84342003" lon="34.78159714"><ele>350.1</ele><time>2013-11-21T06:49:12.0000000+00:00</time></trkpt><trkpt lat="30.84342194" lon="34.78158951"><ele>350.1</ele><time>2013-11-21T06:49:17.0000000+00:00</time></trkpt><trkpt lat="30.84342003" lon="34.78159332"><ele>350.2</ele><time>2013-11-21T06:49:22.0000000+00:00</time></trkpt><trkpt lat="30.84342003" lon="34.78159332"><ele>350.2</ele><time>2013-11-21T06:49:27.0000000+00:00</time></trkpt><trkpt lat="30.84342194" lon="34.78159332"><ele>350.2</ele><time>2013-11-21T06:49:32.0000000+00:00</time></trkpt><trkpt lat="30.84342003" lon="34.78159332"><ele>350.2</ele><time>2013-11-21T06:49:37.0000000+00:00</time></trkpt><trkpt lat="30.84342003" lon="34.78159714"><ele>350.3</ele><time>2013-11-21T06:49:42.0000000+00:00</time></trkpt><trkpt lat="30.84341812" lon="34.78159714"><ele>350.4</ele><time>2013-11-21T06:49:47.0000000+00:00</time></trkpt><trkpt lat="30.84341431" lon="34.78159714"><ele>350.4</ele><time>2013-11-21T06:49:52.0000000+00:00</time></trkpt><trkpt lat="30.84340668" lon="34.78162003"><ele>350.4</ele><time>2013-11-21T06:49:57.0000000+00:00</time></trkpt><trkpt lat="30.84340668" lon="34.78175354"><ele>350.4</ele><time>2013-11-21T06:50:02.0000000+00:00</time></trkpt><trkpt lat="30.84340096" lon="34.78186798"><ele>350.5</ele><time>2013-11-21T06:50:07.0000000+00:00</time></trkpt><trkpt lat="30.84340668" lon="34.78195572"><ele>350.4</ele><time>2013-11-21T06:50:12.0000000+00:00</time></trkpt><trkpt lat="30.84341812" lon="34.78205872"><ele>350.5</ele><time>2013-11-21T06:50:17.0000000+00:00</time></trkpt><trkpt lat="30.84344292" lon="34.78216934"><ele>350.9</ele><time>2013-11-21T06:50:22.0000000+00:00</time></trkpt><trkpt lat="30.84344482" lon="34.7822876"><ele>351.0</ele><time>2013-11-21T06:50:27.0000000+00:00</time></trkpt><trkpt lat="30.84348679" lon="34.7824707"><ele>350.4</ele><time>2013-11-21T06:50:32.0000000+00:00</time></trkpt><trkpt lat="30.84353638" lon="34.78266525"><ele>350.0</ele><time>2013-11-21T06:50:37.0000000+00:00</time></trkpt><trkpt lat="30.84356499" lon="34.78287506"><ele>349.8</ele><time>2013-11-21T06:50:42.0000000+00:00</time></trkpt><trkpt lat="30.84356117" lon="34.78306198"><ele>349.2</ele><time>2013-11-21T06:50:47.0000000+00:00</time></trkpt><trkpt lat="30.84355927" lon="34.78325272"><ele>348.5</ele><time>2013-11-21T06:50:52.0000000+00:00</time></trkpt><trkpt lat="30.84357834" lon="34.78337479"><ele>348.7</ele><time>2013-11-21T06:50:57.0000000+00:00</time></trkpt><trkpt lat="30.84358215" lon="34.78346252"><ele>347.5</ele><time>2013-11-21T06:51:02.0000000+00:00</time></trkpt><trkpt lat="30.84360313" lon="34.78351593"><ele>347.3</ele><time>2013-11-21T06:51:07.0000000+00:00</time></trkpt><trkpt lat="30.84363174" lon="34.78364563"><ele>348.3</ele><time>2013-11-21T06:51:12.0000000+00:00</time></trkpt><trkpt lat="30.84365654" lon="34.7837944"><ele>347.5</ele><time>2013-11-21T06:51:17.0000000+00:00</time></trkpt><trkpt lat="30.84365654" lon="34.78395844"><ele>346.2</ele><time>2013-11-21T06:51:22.0000000+00:00</time></trkpt><trkpt lat="30.84364128" lon="34.78409958"><ele>348.2</ele><time>2013-11-21T06:51:27.0000000+00:00</time></trkpt><trkpt lat="30.84364891" lon="34.7842865"><ele>349.9</ele><time>2013-11-21T06:51:32.0000000+00:00</time></trkpt><trkpt lat="30.84366036" lon="34.78452683"><ele>350.3</ele><time>2013-11-21T06:51:37.0000000+00:00</time></trkpt><trkpt lat="30.84367943" lon="34.78476715"><ele>350.9</ele><time>2013-11-21T06:51:42.0000000+00:00</time></trkpt><trkpt lat="30.84367371" lon="34.784935"><ele>351.5</ele><time>2013-11-21T06:51:47.0000000+00:00</time></trkpt><trkpt lat="30.84364891" lon="34.78507996"><ele>352.6</ele><time>2013-11-21T06:51:52.0000000+00:00</time></trkpt><trkpt lat="30.84360695" lon="34.78522492"><ele>352.6</ele><time>2013-11-21T06:51:57.0000000+00:00</time></trkpt><trkpt lat="30.84355927" lon="34.78529358"><ele>352.2</ele><time>2013-11-21T06:52:02.0000000+00:00</time></trkpt><trkpt lat="30.84351349" lon="34.7853508"><ele>352.6</ele><time>2013-11-21T06:52:07.0000000+00:00</time></trkpt><trkpt lat="30.84347725" lon="34.78541184"><ele>351.9</ele><time>2013-11-21T06:52:12.0000000+00:00</time></trkpt><trkpt lat="30.84341621" lon="34.78548431"><ele>353.0</ele><time>2013-11-21T06:52:17.0000000+00:00</time></trkpt><trkpt lat="30.84336281" lon="34.78556061"><ele>354.7</ele><time>2013-11-21T06:52:22.0000000+00:00</time></trkpt><trkpt lat="30.84329605" lon="34.78566361"><ele>354.4</ele><time>2013-11-21T06:52:27.0000000+00:00</time></trkpt><trkpt lat="30.84325218" lon="34.7857933"><ele>355.3</ele><time>2013-11-21T06:52:32.0000000+00:00</time></trkpt><trkpt lat="30.84321976" lon="34.78591919"><ele>356.1</ele><time>2013-11-21T06:52:37.0000000+00:00</time></trkpt><trkpt lat="30.8432045" lon="34.78609467"><ele>356.6</ele><time>2013-11-21T06:52:42.0000000+00:00</time></trkpt><trkpt lat="30.84314346" lon="34.7863121"><ele>356.8</ele><time>2013-11-21T06:52:47.0000000+00:00</time></trkpt><trkpt lat="30.84303093" lon="34.78649139"><ele>356.9</ele><time>2013-11-21T06:52:52.0000000+00:00</time></trkpt><trkpt lat="30.84293175" lon="34.78673172"><ele>355.6</ele><time>2013-11-21T06:52:57.0000000+00:00</time></trkpt><trkpt lat="30.84288025" lon="34.7869339"><ele>355.8</ele><time>2013-11-21T06:53:02.0000000+00:00</time></trkpt><trkpt lat="30.84281158" lon="34.78705978"><ele>356.0</ele><time>2013-11-21T06:53:07.0000000+00:00</time></trkpt><trkpt lat="30.84271431" lon="34.78715897"><ele>355.7</ele><time>2013-11-21T06:53:12.0000000+00:00</time></trkpt><trkpt lat="30.84259224" lon="34.78717804"><ele>354.6</ele><time>2013-11-21T06:53:17.0000000+00:00</time></trkpt><trkpt lat="30.84246635" lon="34.7871933"><ele>350.5</ele><time>2013-11-21T06:53:22.0000000+00:00</time></trkpt><trkpt lat="30.84234238" lon="34.78719711"><ele>352.7</ele><time>2013-11-21T06:53:27.0000000+00:00</time></trkpt><trkpt lat="30.84221077" lon="34.78717041"><ele>353.6</ele><time>2013-11-21T06:53:32.0000000+00:00</time></trkpt><trkpt lat="30.84208679" lon="34.78718567"><ele>355.9</ele><time>2013-11-21T06:53:37.0000000+00:00</time></trkpt><trkpt lat="30.84198952" lon="34.78718567"><ele>357.7</ele><time>2013-11-21T06:53:42.0000000+00:00</time></trkpt><trkpt lat="30.84188843" lon="34.78724289"><ele>357.5</ele><time>2013-11-21T06:53:47.0000000+00:00</time></trkpt><trkpt lat="30.84181213" lon="34.78736496"><ele>358.2</ele><time>2013-11-21T06:53:52.0000000+00:00</time></trkpt><trkpt lat="30.84175873" lon="34.78749085"><ele>357.2</ele><time>2013-11-21T06:53:57.0000000+00:00</time></trkpt><trkpt lat="30.84174156" lon="34.78760529"><ele>356.9</ele><time>2013-11-21T06:54:02.0000000+00:00</time></trkpt><trkpt lat="30.84171486" lon="34.78774262"><ele>357.2</ele><time>2013-11-21T06:54:07.0000000+00:00</time></trkpt><trkpt lat="30.84170342" lon="34.78792572"><ele>356.5</ele><time>2013-11-21T06:54:12.0000000+00:00</time></trkpt><trkpt lat="30.84175491" lon="34.78813553"><ele>357.6</ele><time>2013-11-21T06:54:17.0000000+00:00</time></trkpt><trkpt lat="30.84177971" lon="34.78842926"><ele>358.8</ele><time>2013-11-21T06:54:22.0000000+00:00</time></trkpt><trkpt lat="30.84179306" lon="34.7887497"><ele>358.5</ele><time>2013-11-21T06:54:27.0000000+00:00</time></trkpt><trkpt lat="30.84182358" lon="34.78909683"><ele>357.1</ele><time>2013-11-21T06:54:32.0000000+00:00</time></trkpt><trkpt lat="30.84178352" lon="34.78948975"><ele>354.3</ele><time>2013-11-21T06:54:37.0000000+00:00</time></trkpt><trkpt lat="30.84171677" lon="34.78987503"><ele>350.5</ele><time>2013-11-21T06:54:42.0000000+00:00</time></trkpt><trkpt lat="30.84166145" lon="34.79023743"><ele>348.4</ele><time>2013-11-21T06:54:47.0000000+00:00</time></trkpt><trkpt lat="30.84163094" lon="34.79049683"><ele>349.1</ele><time>2013-11-21T06:54:52.0000000+00:00</time></trkpt><trkpt lat="30.84161758" lon="34.79073715"><ele>350.0</ele><time>2013-11-21T06:54:57.0000000+00:00</time></trkpt><trkpt lat="30.84166527" lon="34.79098129"><ele>347.3</ele><time>2013-11-21T06:55:02.0000000+00:00</time></trkpt><trkpt lat="30.8417244" lon="34.7911911"><ele>348.1</ele><time>2013-11-21T06:55:07.0000000+00:00</time></trkpt><trkpt lat="30.84181023" lon="34.7914505"><ele>350.0</ele><time>2013-11-21T06:55:12.0000000+00:00</time></trkpt><trkpt lat="30.8418541" lon="34.79174042"><ele>351.9</ele><time>2013-11-21T06:55:17.0000000+00:00</time></trkpt><trkpt lat="30.84190369" lon="34.79206085"><ele>353.8</ele><time>2013-11-21T06:55:22.0000000+00:00</time></trkpt><trkpt lat="30.84192276" lon="34.7923317"><ele>353.6</ele><time>2013-11-21T06:55:27.0000000+00:00</time></trkpt><trkpt lat="30.84183312" lon="34.79252625"><ele>353.8</ele><time>2013-11-21T06:55:32.0000000+00:00</time></trkpt><trkpt lat="30.84164047" lon="34.79265595"><ele>356.0</ele><time>2013-11-21T06:55:37.0000000+00:00</time></trkpt><trkpt lat="30.84165955" lon="34.7928772"><ele>355.3</ele><time>2013-11-21T06:55:42.0000000+00:00</time></trkpt><trkpt lat="30.84165573" lon="34.79301453"><ele>355.1</ele><time>2013-11-21T06:55:47.0000000+00:00</time></trkpt><trkpt lat="30.84158135" lon="34.79315949"><ele>353.1</ele><time>2013-11-21T06:55:52.0000000+00:00</time></trkpt><trkpt lat="30.84156036" lon="34.79323196"><ele>352.8</ele><time>2013-11-21T06:55:57.0000000+00:00</time></trkpt><trkpt lat="30.84156799" lon="34.79325104"><ele>352.1</ele><time>2013-11-21T06:56:02.0000000+00:00</time></trkpt><trkpt lat="30.84156609" lon="34.79325104"><ele>352.1</ele><time>2013-11-21T06:56:07.0000000+00:00</time></trkpt><trkpt lat="30.84156418" lon="34.79326248"><ele>352.1</ele><time>2013-11-21T06:56:12.0000000+00:00</time></trkpt><trkpt lat="30.84155655" lon="34.793293"><ele>352.2</ele><time>2013-11-21T06:56:17.0000000+00:00</time></trkpt><trkpt lat="30.84147644" lon="34.79334641"><ele>351.8</ele><time>2013-11-21T06:56:22.0000000+00:00</time></trkpt><trkpt lat="30.84135056" lon="34.79340363"><ele>351.6</ele><time>2013-11-21T06:56:27.0000000+00:00</time></trkpt><trkpt lat="30.84120941" lon="34.79349136"><ele>351.2</ele><time>2013-11-21T06:56:32.0000000+00:00</time></trkpt><trkpt lat="30.84107971" lon="34.7935791"><ele>350.8</ele><time>2013-11-21T06:56:37.0000000+00:00</time></trkpt><trkpt lat="30.84096146" lon="34.79372025"><ele>350.2</ele><time>2013-11-21T06:56:42.0000000+00:00</time></trkpt><trkpt lat="30.84085655" lon="34.79387665"><ele>349.8</ele><time>2013-11-21T06:56:47.0000000+00:00</time></trkpt><trkpt lat="30.84078598" lon="34.79398727"><ele>349.1</ele><time>2013-11-21T06:56:52.0000000+00:00</time></trkpt><trkpt lat="30.8407402" lon="34.79414368"><ele>348.3</ele><time>2013-11-21T06:56:57.0000000+00:00</time></trkpt><trkpt lat="30.84069061" lon="34.79433823"><ele>347.5</ele><time>2013-11-21T06:57:02.0000000+00:00</time></trkpt><trkpt lat="30.84059525" lon="34.79453659"><ele>346.9</ele><time>2013-11-21T06:57:07.0000000+00:00</time></trkpt><trkpt lat="30.84057045" lon="34.79471588"><ele>345.9</ele><time>2013-11-21T06:57:12.0000000+00:00</time></trkpt><trkpt lat="30.84059906" lon="34.7948761"><ele>345.8</ele><time>2013-11-21T06:57:17.0000000+00:00</time></trkpt><trkpt lat="30.84060478" lon="34.79502106"><ele>345.9</ele><time>2013-11-21T06:57:22.0000000+00:00</time></trkpt><trkpt lat="30.84059334" lon="34.79525375"><ele>345.3</ele><time>2013-11-21T06:57:27.0000000+00:00</time></trkpt><trkpt lat="30.84057236" lon="34.79548645"><ele>344.8</ele><time>2013-11-21T06:57:32.0000000+00:00</time></trkpt><trkpt lat="30.84056664" lon="34.79568863"><ele>343.4</ele><time>2013-11-21T06:57:37.0000000+00:00</time></trkpt><trkpt lat="30.84062386" lon="34.79589844"><ele>342.6</ele><time>2013-11-21T06:57:42.0000000+00:00</time></trkpt><trkpt lat="30.84076119" lon="34.79605866"><ele>343.1</ele><time>2013-11-21T06:57:47.0000000+00:00</time></trkpt><trkpt lat="30.84084129" lon="34.79627228"><ele>342.4</ele><time>2013-11-21T06:57:52.0000000+00:00</time></trkpt><trkpt lat="30.84092712" lon="34.7964592"><ele>342.2</ele><time>2013-11-21T06:57:57.0000000+00:00</time></trkpt><trkpt lat="30.84109116" lon="34.79661942"><ele>341.9</ele><time>2013-11-21T06:58:02.0000000+00:00</time></trkpt><trkpt lat="30.84118462" lon="34.79680634"><ele>342.0</ele><time>2013-11-21T06:58:07.0000000+00:00</time></trkpt><trkpt lat="30.84133339" lon="34.79695511"><ele>342.1</ele><time>2013-11-21T06:58:12.0000000+00:00</time></trkpt><trkpt lat="30.84150696" lon="34.79705048"><ele>342.2</ele><time>2013-11-21T06:58:17.0000000+00:00</time></trkpt><trkpt lat="30.84168243" lon="34.79708862"><ele>343.1</ele><time>2013-11-21T06:58:22.0000000+00:00</time></trkpt><trkpt lat="30.84186745" lon="34.79703903"><ele>342.6</ele><time>2013-11-21T06:58:27.0000000+00:00</time></trkpt><trkpt lat="30.8420372" lon="34.79708099"><ele>341.1</ele><time>2013-11-21T06:58:32.0000000+00:00</time></trkpt><trkpt lat="30.84218597" lon="34.79724121"><ele>341.4</ele><time>2013-11-21T06:58:37.0000000+00:00</time></trkpt><trkpt lat="30.84231949" lon="34.79747391"><ele>341.3</ele><time>2013-11-21T06:58:42.0000000+00:00</time></trkpt><trkpt lat="30.84251213" lon="34.79762268"><ele>340.4</ele><time>2013-11-21T06:58:47.0000000+00:00</time></trkpt><trkpt lat="30.84263992" lon="34.79771042"><ele>338.9</ele><time>2013-11-21T06:58:52.0000000+00:00</time></trkpt><trkpt lat="30.84272003" lon="34.79786682"><ele>339.6</ele><time>2013-11-21T06:58:57.0000000+00:00</time></trkpt><trkpt lat="30.84277535" lon="34.79796219"><ele>338.5</ele><time>2013-11-21T06:59:02.0000000+00:00</time></trkpt><trkpt lat="30.84277153" lon="34.79795837"><ele>339.2</ele><time>2013-11-21T06:59:07.0000000+00:00</time></trkpt><trkpt lat="30.84277344" lon="34.79796219"><ele>339.1</ele><time>2013-11-21T06:59:12.0000000+00:00</time></trkpt><trkpt lat="30.84277344" lon="34.79796219"><ele>339.0</ele><time>2013-11-21T06:59:17.0000000+00:00</time></trkpt><trkpt lat="30.84278107" lon="34.79795837"><ele>339.0</ele><time>2013-11-21T06:59:22.0000000+00:00</time></trkpt><trkpt lat="30.84280586" lon="34.79797363"><ele>339.0</ele><time>2013-11-21T06:59:27.0000000+00:00</time></trkpt><trkpt lat="30.84280586" lon="34.79815674"><ele>338.7</ele><time>2013-11-21T06:59:32.0000000+00:00</time></trkpt><trkpt lat="30.84277153" lon="34.79838562"><ele>338.6</ele><time>2013-11-21T06:59:37.0000000+00:00</time></trkpt><trkpt lat="30.84272575" lon="34.79860306"><ele>339.0</ele><time>2013-11-21T06:59:42.0000000+00:00</time></trkpt><trkpt lat="30.84271431" lon="34.79868698"><ele>339.7</ele><time>2013-11-21T06:59:47.0000000+00:00</time></trkpt><trkpt lat="30.8426857" lon="34.79880142"><ele>340.3</ele><time>2013-11-21T06:59:52.0000000+00:00</time></trkpt><trkpt lat="30.84269333" lon="34.79891205"><ele>341.3</ele><time>2013-11-21T06:59:57.0000000+00:00</time></trkpt><trkpt lat="30.8426857" lon="34.79908371"><ele>342.1</ele><time>2013-11-21T07:00:02.0000000+00:00</time></trkpt><trkpt lat="30.84268951" lon="34.79930878"><ele>343.0</ele><time>2013-11-21T07:00:07.0000000+00:00</time></trkpt><trkpt lat="30.84265328" lon="34.79954529"><ele>342.1</ele><time>2013-11-21T07:00:12.0000000+00:00</time></trkpt><trkpt lat="30.84257507" lon="34.7998085"><ele>340.9</ele><time>2013-11-21T07:00:17.0000000+00:00</time></trkpt><trkpt lat="30.84244728" lon="34.80002976"><ele>343.5</ele><time>2013-11-21T07:00:22.0000000+00:00</time></trkpt><trkpt lat="30.8423481" lon="34.80024719"><ele>343.2</ele><time>2013-11-21T07:00:27.0000000+00:00</time></trkpt><trkpt lat="30.84228897" lon="34.80044937"><ele>343.8</ele><time>2013-11-21T07:00:32.0000000+00:00</time></trkpt><trkpt lat="30.84225273" lon="34.80069733"><ele>344.8</ele><time>2013-11-21T07:00:37.0000000+00:00</time></trkpt><trkpt lat="30.84220314" lon="34.80090714"><ele>345.0</ele><time>2013-11-21T07:00:42.0000000+00:00</time></trkpt><trkpt lat="30.84215927" lon="34.80111313"><ele>345.0</ele><time>2013-11-21T07:00:47.0000000+00:00</time></trkpt><trkpt lat="30.84211159" lon="34.80128861"><ele>341.5</ele><time>2013-11-21T07:00:52.0000000+00:00</time></trkpt><trkpt lat="30.84200096" lon="34.80134964"><ele>338.9</ele><time>2013-11-21T07:00:57.0000000+00:00</time></trkpt><trkpt lat="30.8418026" lon="34.80133438"><ele>338.0</ele><time>2013-11-21T07:01:02.0000000+00:00</time></trkpt><trkpt lat="30.84162521" lon="34.80146408"><ele>342.1</ele><time>2013-11-21T07:01:07.0000000+00:00</time></trkpt><trkpt lat="30.84159088" lon="34.80169678"><ele>343.3</ele><time>2013-11-21T07:01:12.0000000+00:00</time></trkpt><trkpt lat="30.84160042" lon="34.80192566"><ele>342.9</ele><time>2013-11-21T07:01:17.0000000+00:00</time></trkpt><trkpt lat="30.84150124" lon="34.80209351"><ele>342.9</ele><time>2013-11-21T07:01:22.0000000+00:00</time></trkpt><trkpt lat="30.84140968" lon="34.80220413"><ele>341.8</ele><time>2013-11-21T07:01:27.0000000+00:00</time></trkpt><trkpt lat="30.84140015" lon="34.80221176"><ele>337.5</ele><time>2013-11-21T07:01:32.0000000+00:00</time></trkpt><trkpt lat="30.84141159" lon="34.80220795"><ele>338.0</ele><time>2013-11-21T07:01:37.0000000+00:00</time></trkpt><trkpt lat="30.84143066" lon="34.80220413"><ele>338.6</ele><time>2013-11-21T07:01:42.0000000+00:00</time></trkpt><trkpt lat="30.8414402" lon="34.80221176"><ele>339.2</ele><time>2013-11-21T07:01:47.0000000+00:00</time></trkpt><trkpt lat="30.84144974" lon="34.80221558"><ele>339.6</ele><time>2013-11-21T07:01:52.0000000+00:00</time></trkpt><trkpt lat="30.84145546" lon="34.80228806"><ele>339.5</ele><time>2013-11-21T07:01:57.0000000+00:00</time></trkpt><trkpt lat="30.84137917" lon="34.8024559"><ele>338.7</ele><time>2013-11-21T07:02:02.0000000+00:00</time></trkpt><trkpt lat="30.84123039" lon="34.80264664"><ele>337.3</ele><time>2013-11-21T07:02:07.0000000+00:00</time></trkpt><trkpt lat="30.84107399" lon="34.80280685"><ele>336.6</ele><time>2013-11-21T07:02:12.0000000+00:00</time></trkpt><trkpt lat="30.84096909" lon="34.80296326"><ele>334.7</ele><time>2013-11-21T07:02:17.0000000+00:00</time></trkpt><trkpt lat="30.84085465" lon="34.8030777"><ele>333.5</ele><time>2013-11-21T07:02:22.0000000+00:00</time></trkpt><trkpt lat="30.84071732" lon="34.8031807"><ele>334.6</ele><time>2013-11-21T07:02:27.0000000+00:00</time></trkpt><trkpt lat="30.84064293" lon="34.80325699"><ele>333.8</ele><time>2013-11-21T07:02:32.0000000+00:00</time></trkpt><trkpt lat="30.84059143" lon="34.80334091"><ele>331.1</ele><time>2013-11-21T07:02:37.0000000+00:00</time></trkpt><trkpt lat="30.84052658" lon="34.80340576"><ele>329.4</ele><time>2013-11-21T07:02:42.0000000+00:00</time></trkpt><trkpt lat="30.84046173" lon="34.8034668"><ele>327.4</ele><time>2013-11-21T07:02:47.0000000+00:00</time></trkpt><trkpt lat="30.84040451" lon="34.80353165"><ele>327.7</ele><time>2013-11-21T07:02:52.0000000+00:00</time></trkpt><trkpt lat="30.84030342" lon="34.80360031"><ele>328.1</ele><time>2013-11-21T07:02:57.0000000+00:00</time></trkpt><trkpt lat="30.84018898" lon="34.80369568"><ele>327.8</ele><time>2013-11-21T07:03:02.0000000+00:00</time></trkpt><trkpt lat="30.84001732" lon="34.80382156"><ele>326.4</ele><time>2013-11-21T07:03:07.0000000+00:00</time></trkpt><trkpt lat="30.8398571" lon="34.80395508"><ele>326.5</ele><time>2013-11-21T07:03:12.0000000+00:00</time></trkpt><trkpt lat="30.83972168" lon="34.80411148"><ele>326.1</ele><time>2013-11-21T07:03:17.0000000+00:00</time></trkpt><trkpt lat="30.83958244" lon="34.80428314"><ele>326.9</ele><time>2013-11-21T07:03:22.0000000+00:00</time></trkpt><trkpt lat="30.83944321" lon="34.8044281"><ele>326.0</ele><time>2013-11-21T07:03:27.0000000+00:00</time></trkpt><trkpt lat="30.83931732" lon="34.80461121"><ele>325.9</ele><time>2013-11-21T07:03:32.0000000+00:00</time></trkpt><trkpt lat="30.83918381" lon="34.80480194"><ele>323.7</ele><time>2013-11-21T07:03:37.0000000+00:00</time></trkpt><trkpt lat="30.83907509" lon="34.80496216"><ele>323.7</ele><time>2013-11-21T07:03:42.0000000+00:00</time></trkpt><trkpt lat="30.83899117" lon="34.80515671"><ele>323.2</ele><time>2013-11-21T07:03:47.0000000+00:00</time></trkpt><trkpt lat="30.83891487" lon="34.80535889"><ele>323.3</ele><time>2013-11-21T07:03:52.0000000+00:00</time></trkpt><trkpt lat="30.83881187" lon="34.80556107"><ele>322.1</ele><time>2013-11-21T07:03:57.0000000+00:00</time></trkpt><trkpt lat="30.83869553" lon="34.80575562"><ele>321.8</ele><time>2013-11-21T07:04:02.0000000+00:00</time></trkpt><trkpt lat="30.83864403" lon="34.80590439"><ele>325.4</ele><time>2013-11-21T07:04:07.0000000+00:00</time></trkpt><trkpt lat="30.83861923" lon="34.80601883"><ele>327.6</ele><time>2013-11-21T07:04:12.0000000+00:00</time></trkpt><trkpt lat="30.83854675" lon="34.80616379"><ele>329.2</ele><time>2013-11-21T07:04:17.0000000+00:00</time></trkpt><trkpt lat="30.83842278" lon="34.80636215"><ele>329.2</ele><time>2013-11-21T07:04:22.0000000+00:00</time></trkpt><trkpt lat="30.83837509" lon="34.80656815"><ele>328.2</ele><time>2013-11-21T07:04:27.0000000+00:00</time></trkpt><trkpt lat="30.83842468" lon="34.80674362"><ele>327.9</ele><time>2013-11-21T07:04:32.0000000+00:00</time></trkpt><trkpt lat="30.83847809" lon="34.80695343"><ele>329.5</ele><time>2013-11-21T07:04:37.0000000+00:00</time></trkpt><trkpt lat="30.83852005" lon="34.80718994"><ele>329.8</ele><time>2013-11-21T07:04:42.0000000+00:00</time></trkpt><trkpt lat="30.83856773" lon="34.80739975"><ele>329.2</ele><time>2013-11-21T07:04:47.0000000+00:00</time></trkpt><trkpt lat="30.83863258" lon="34.80759049"><ele>328.9</ele><time>2013-11-21T07:04:52.0000000+00:00</time></trkpt><trkpt lat="30.83873367" lon="34.80778503"><ele>330.4</ele><time>2013-11-21T07:04:57.0000000+00:00</time></trkpt><trkpt lat="30.8388176" lon="34.80796814"><ele>330.3</ele><time>2013-11-21T07:05:02.0000000+00:00</time></trkpt><trkpt lat="30.83891106" lon="34.80812836"><ele>331.2</ele><time>2013-11-21T07:05:07.0000000+00:00</time></trkpt><trkpt lat="30.83893967" lon="34.80833817"><ele>333.4</ele><time>2013-11-21T07:05:12.0000000+00:00</time></trkpt><trkpt lat="30.83893395" lon="34.80848694"><ele>332.2</ele><time>2013-11-21T07:05:17.0000000+00:00</time></trkpt><trkpt lat="30.83893204" lon="34.80860138"><ele>329.9</ele><time>2013-11-21T07:05:22.0000000+00:00</time></trkpt><trkpt lat="30.83896446" lon="34.80873871"><ele>328.5</ele><time>2013-11-21T07:05:27.0000000+00:00</time></trkpt><trkpt lat="30.83902168" lon="34.80886078"><ele>327.6</ele><time>2013-11-21T07:05:32.0000000+00:00</time></trkpt><trkpt lat="30.83907509" lon="34.80899429"><ele>325.5</ele><time>2013-11-21T07:05:37.0000000+00:00</time></trkpt><trkpt lat="30.83911705" lon="34.80916977"><ele>325.6</ele><time>2013-11-21T07:05:42.0000000+00:00</time></trkpt><trkpt lat="30.83911514" lon="34.80932999"><ele>327.0</ele><time>2013-11-21T07:05:47.0000000+00:00</time></trkpt><trkpt lat="30.83910561" lon="34.80954742"><ele>326.6</ele><time>2013-11-21T07:05:52.0000000+00:00</time></trkpt><trkpt lat="30.83908272" lon="34.80979157"><ele>326.2</ele><time>2013-11-21T07:05:57.0000000+00:00</time></trkpt><trkpt lat="30.83909226" lon="34.810009"><ele>324.5</ele><time>2013-11-21T07:06:02.0000000+00:00</time></trkpt><trkpt lat="30.83907127" lon="34.81016541"><ele>323.6</ele><time>2013-11-21T07:06:07.0000000+00:00</time></trkpt><trkpt lat="30.8389988" lon="34.81031799"><ele>325.9</ele><time>2013-11-21T07:06:12.0000000+00:00</time></trkpt><trkpt lat="30.83890152" lon="34.81031799"><ele>326.7</ele><time>2013-11-21T07:06:17.0000000+00:00</time></trkpt><trkpt lat="30.83876991" lon="34.81029511"><ele>327.9</ele><time>2013-11-21T07:06:22.0000000+00:00</time></trkpt><trkpt lat="30.83865166" lon="34.81023026"><ele>329.5</ele><time>2013-11-21T07:06:27.0000000+00:00</time></trkpt><trkpt lat="30.83847237" lon="34.81023407"><ele>330.7</ele><time>2013-11-21T07:06:32.0000000+00:00</time></trkpt><trkpt lat="30.83829498" lon="34.8102684"><ele>332.0</ele><time>2013-11-21T07:06:37.0000000+00:00</time></trkpt><trkpt lat="30.83812523" lon="34.81033325"><ele>333.7</ele><time>2013-11-21T07:06:42.0000000+00:00</time></trkpt><trkpt lat="30.8379631" lon="34.8103714"><ele>332.2</ele><time>2013-11-21T07:06:47.0000000+00:00</time></trkpt><trkpt lat="30.83781624" lon="34.81036377"><ele>331.7</ele><time>2013-11-21T07:06:52.0000000+00:00</time></trkpt><trkpt lat="30.83766174" lon="34.81039047"><ele>333.8</ele><time>2013-11-21T07:06:57.0000000+00:00</time></trkpt><trkpt lat="30.83749199" lon="34.81042099"><ele>330.6</ele><time>2013-11-21T07:07:02.0000000+00:00</time></trkpt><trkpt lat="30.83730125" lon="34.81047821"><ele>331.1</ele><time>2013-11-21T07:07:07.0000000+00:00</time></trkpt><trkpt lat="30.83712578" lon="34.81053543"><ele>336.3</ele><time>2013-11-21T07:07:12.0000000+00:00</time></trkpt><trkpt lat="30.83694458" lon="34.81058884"><ele>337.2</ele><time>2013-11-21T07:07:17.0000000+00:00</time></trkpt><trkpt lat="30.83676148" lon="34.81061173"><ele>335.7</ele><time>2013-11-21T07:07:22.0000000+00:00</time></trkpt><trkpt lat="30.83657265" lon="34.81063843"><ele>336.7</ele><time>2013-11-21T07:07:27.0000000+00:00</time></trkpt><trkpt lat="30.83642006" lon="34.8106842"><ele>339.1</ele><time>2013-11-21T07:07:32.0000000+00:00</time></trkpt><trkpt lat="30.83626747" lon="34.81082535"><ele>340.0</ele><time>2013-11-21T07:07:37.0000000+00:00</time></trkpt><trkpt lat="30.83616066" lon="34.81096268"><ele>339.9</ele><time>2013-11-21T07:07:42.0000000+00:00</time></trkpt><trkpt lat="30.83606529" lon="34.81105423"><ele>339.5</ele><time>2013-11-21T07:07:47.0000000+00:00</time></trkpt><trkpt lat="30.83596611" lon="34.81118393"><ele>340.0</ele><time>2013-11-21T07:07:52.0000000+00:00</time></trkpt><trkpt lat="30.83590698" lon="34.81130219"><ele>338.0</ele><time>2013-11-21T07:07:57.0000000+00:00</time></trkpt><trkpt lat="30.83587074" lon="34.81140518"><ele>337.6</ele><time>2013-11-21T07:08:02.0000000+00:00</time></trkpt><trkpt lat="30.8358593" lon="34.81143951"><ele>336.0</ele><time>2013-11-21T07:08:07.0000000+00:00</time></trkpt><trkpt lat="30.8358593" lon="34.81143951"><ele>336.2</ele><time>2013-11-21T07:08:12.0000000+00:00</time></trkpt><trkpt lat="30.83587837" lon="34.8114357"><ele>332.6</ele><time>2013-11-21T07:08:17.0000000+00:00</time></trkpt><trkpt lat="30.83590889" lon="34.81147385"><ele>329.6</ele><time>2013-11-21T07:08:22.0000000+00:00</time></trkpt><trkpt lat="30.83597565" lon="34.81148529"><ele>329.2</ele><time>2013-11-21T07:08:27.0000000+00:00</time></trkpt><trkpt lat="30.83604813" lon="34.81150818"><ele>329.3</ele><time>2013-11-21T07:08:32.0000000+00:00</time></trkpt><trkpt lat="30.83616638" lon="34.81158066"><ele>329.5</ele><time>2013-11-21T07:08:37.0000000+00:00</time></trkpt><trkpt lat="30.8363018" lon="34.81154633"><ele>330.4</ele><time>2013-11-21T07:08:42.0000000+00:00</time></trkpt><trkpt lat="30.8363514" lon="34.81147385"><ele>331.0</ele><time>2013-11-21T07:08:47.0000000+00:00</time></trkpt><trkpt lat="30.83639336" lon="34.811409"><ele>331.0</ele><time>2013-11-21T07:08:52.0000000+00:00</time></trkpt><trkpt lat="30.83647156" lon="34.81136704"><ele>331.5</ele><time>2013-11-21T07:08:57.0000000+00:00</time></trkpt><trkpt lat="30.83655548" lon="34.81132507"><ele>332.1</ele><time>2013-11-21T07:09:02.0000000+00:00</time></trkpt><trkpt lat="30.8366909" lon="34.81128311"><ele>333.7</ele><time>2013-11-21T07:09:07.0000000+00:00</time></trkpt><trkpt lat="30.83689308" lon="34.81129837"><ele>333.8</ele><time>2013-11-21T07:09:12.0000000+00:00</time></trkpt><trkpt lat="30.83703613" lon="34.81132126"><ele>335.5</ele><time>2013-11-21T07:09:17.0000000+00:00</time></trkpt><trkpt lat="30.83717537" lon="34.81139374"><ele>336.9</ele><time>2013-11-21T07:09:22.0000000+00:00</time></trkpt><trkpt lat="30.83728981" lon="34.81152725"><ele>337.5</ele><time>2013-11-21T07:09:27.0000000+00:00</time></trkpt><trkpt lat="30.83743858" lon="34.81159592"><ele>337.4</ele><time>2013-11-21T07:09:32.0000000+00:00</time></trkpt><trkpt lat="30.83753204" lon="34.81164932"><ele>337.7</ele><time>2013-11-21T07:09:37.0000000+00:00</time></trkpt><trkpt lat="30.83765602" lon="34.81167221"><ele>338.3</ele><time>2013-11-21T07:09:42.0000000+00:00</time></trkpt><trkpt lat="30.83773804" lon="34.81170654"><ele>337.5</ele><time>2013-11-21T07:09:47.0000000+00:00</time></trkpt><trkpt lat="30.83779526" lon="34.81176758"><ele>337.5</ele><time>2013-11-21T07:09:52.0000000+00:00</time></trkpt><trkpt lat="30.83784866" lon="34.81182861"><ele>336.3</ele><time>2013-11-21T07:09:57.0000000+00:00</time></trkpt><trkpt lat="30.83795548" lon="34.81187439"><ele>336.8</ele><time>2013-11-21T07:10:02.0000000+00:00</time></trkpt><trkpt lat="30.83809853" lon="34.81192398"><ele>336.8</ele><time>2013-11-21T07:10:07.0000000+00:00</time></trkpt><trkpt lat="30.83826447" lon="34.81195068"><ele>337.2</ele><time>2013-11-21T07:10:12.0000000+00:00</time></trkpt><trkpt lat="30.83842278" lon="34.81201935"><ele>335.5</ele><time>2013-11-21T07:10:17.0000000+00:00</time></trkpt><trkpt lat="30.83858872" lon="34.81210709"><ele>335.9</ele><time>2013-11-21T07:10:22.0000000+00:00</time></trkpt><trkpt lat="30.83874893" lon="34.81227493"><ele>335.8</ele><time>2013-11-21T07:10:27.0000000+00:00</time></trkpt><trkpt lat="30.83886528" lon="34.81245422"><ele>335.2</ele><time>2013-11-21T07:10:32.0000000+00:00</time></trkpt><trkpt lat="30.83898735" lon="34.81262589"><ele>335.1</ele><time>2013-11-21T07:10:37.0000000+00:00</time></trkpt><trkpt lat="30.83909416" lon="34.81282044"><ele>336.2</ele><time>2013-11-21T07:10:42.0000000+00:00</time></trkpt><trkpt lat="30.83918381" lon="34.81301117"><ele>337.7</ele><time>2013-11-21T07:10:47.0000000+00:00</time></trkpt><trkpt lat="30.8392601" lon="34.81319428"><ele>337.1</ele><time>2013-11-21T07:10:52.0000000+00:00</time></trkpt><trkpt lat="30.83936501" lon="34.81336975"><ele>338.2</ele><time>2013-11-21T07:10:57.0000000+00:00</time></trkpt><trkpt lat="30.83955765" lon="34.81350327"><ele>336.8</ele><time>2013-11-21T07:11:02.0000000+00:00</time></trkpt><trkpt lat="30.83973885" lon="34.81370163"><ele>333.7</ele><time>2013-11-21T07:11:07.0000000+00:00</time></trkpt><trkpt lat="30.83988762" lon="34.81389618"><ele>333.3</ele><time>2013-11-21T07:11:12.0000000+00:00</time></trkpt><trkpt lat="30.84007072" lon="34.81408691"><ele>332.7</ele><time>2013-11-21T07:11:17.0000000+00:00</time></trkpt><trkpt lat="30.84023857" lon="34.81430054"><ele>329.5</ele><time>2013-11-21T07:11:22.0000000+00:00</time></trkpt><trkpt lat="30.84035873" lon="34.8145256"><ele>327.8</ele><time>2013-11-21T07:11:27.0000000+00:00</time></trkpt><trkpt lat="30.84045219" lon="34.81471634"><ele>326.1</ele><time>2013-11-21T07:11:32.0000000+00:00</time></trkpt><trkpt lat="30.84061813" lon="34.81489945"><ele>327.0</ele><time>2013-11-21T07:11:37.0000000+00:00</time></trkpt><trkpt lat="30.84079552" lon="34.81507874"><ele>325.6</ele><time>2013-11-21T07:11:42.0000000+00:00</time></trkpt><trkpt lat="30.84094429" lon="34.81523895"><ele>324.8</ele><time>2013-11-21T07:11:47.0000000+00:00</time></trkpt><trkpt lat="30.84105873" lon="34.81539154"><ele>324.1</ele><time>2013-11-21T07:11:52.0000000+00:00</time></trkpt><trkpt lat="30.84115219" lon="34.81555939"><ele>323.2</ele><time>2013-11-21T07:11:57.0000000+00:00</time></trkpt><trkpt lat="30.84126663" lon="34.81573868"><ele>322.5</ele><time>2013-11-21T07:12:02.0000000+00:00</time></trkpt><trkpt lat="30.84140587" lon="34.81593323"><ele>322.8</ele><time>2013-11-21T07:12:07.0000000+00:00</time></trkpt><trkpt lat="30.84155464" lon="34.81612396"><ele>324.1</ele><time>2013-11-21T07:12:12.0000000+00:00</time></trkpt><trkpt lat="30.84171486" lon="34.81629181"><ele>323.6</ele><time>2013-11-21T07:12:17.0000000+00:00</time></trkpt><trkpt lat="30.84187126" lon="34.81643295"><ele>322.7</ele><time>2013-11-21T07:12:22.0000000+00:00</time></trkpt><trkpt lat="30.8419857" lon="34.8166275"><ele>322.7</ele><time>2013-11-21T07:12:27.0000000+00:00</time></trkpt><trkpt lat="30.84209824" lon="34.81683731"><ele>322.8</ele><time>2013-11-21T07:12:32.0000000+00:00</time></trkpt><trkpt lat="30.84218979" lon="34.81697846"><ele>322.8</ele><time>2013-11-21T07:12:37.0000000+00:00</time></trkpt><trkpt lat="30.84225273" lon="34.81712341"><ele>323.4</ele><time>2013-11-21T07:12:42.0000000+00:00</time></trkpt><trkpt lat="30.84233093" lon="34.81729126"><ele>325.4</ele><time>2013-11-21T07:12:47.0000000+00:00</time></trkpt><trkpt lat="30.84243965" lon="34.81744003"><ele>324.4</ele><time>2013-11-21T07:12:52.0000000+00:00</time></trkpt><trkpt lat="30.84255028" lon="34.81768036"><ele>323.3</ele><time>2013-11-21T07:12:57.0000000+00:00</time></trkpt><trkpt lat="30.84270859" lon="34.8178215"><ele>323.0</ele><time>2013-11-21T07:13:02.0000000+00:00</time></trkpt><trkpt lat="30.84287834" lon="34.81793976"><ele>323.3</ele><time>2013-11-21T07:13:07.0000000+00:00</time></trkpt><trkpt lat="30.84300232" lon="34.81814575"><ele>323.8</ele><time>2013-11-21T07:13:12.0000000+00:00</time></trkpt><trkpt lat="30.84306335" lon="34.81835556"><ele>322.3</ele><time>2013-11-21T07:13:17.0000000+00:00</time></trkpt><trkpt lat="30.84313393" lon="34.81859207"><ele>323.6</ele><time>2013-11-21T07:13:22.0000000+00:00</time></trkpt><trkpt lat="30.84320259" lon="34.81881332"><ele>325.1</ele><time>2013-11-21T07:13:27.0000000+00:00</time></trkpt><trkpt lat="30.84328461" lon="34.81903839"><ele>326.4</ele><time>2013-11-21T07:13:32.0000000+00:00</time></trkpt><trkpt lat="30.84332275" lon="34.81928635"><ele>326.5</ele><time>2013-11-21T07:13:37.0000000+00:00</time></trkpt><trkpt lat="30.84337425" lon="34.81949997"><ele>324.9</ele><time>2013-11-21T07:13:42.0000000+00:00</time></trkpt><trkpt lat="30.84346771" lon="34.81964493"><ele>323.3</ele><time>2013-11-21T07:13:47.0000000+00:00</time></trkpt><trkpt lat="30.84364891" lon="34.81971741"><ele>322.3</ele><time>2013-11-21T07:13:52.0000000+00:00</time></trkpt><trkpt lat="30.84372711" lon="34.81987763"><ele>324.7</ele><time>2013-11-21T07:13:57.0000000+00:00</time></trkpt><trkpt lat="30.84376907" lon="34.82014084"><ele>324.9</ele><time>2013-11-21T07:14:02.0000000+00:00</time></trkpt><trkpt lat="30.8437767" lon="34.82043076"><ele>325.2</ele><time>2013-11-21T07:14:07.0000000+00:00</time></trkpt><trkpt lat="30.84378433" lon="34.82067871"><ele>325.8</ele><time>2013-11-21T07:14:12.0000000+00:00</time></trkpt><trkpt lat="30.84381104" lon="34.82096863"><ele>326.8</ele><time>2013-11-21T07:14:17.0000000+00:00</time></trkpt><trkpt lat="30.84388924" lon="34.82120132"><ele>327.1</ele><time>2013-11-21T07:14:22.0000000+00:00</time></trkpt><trkpt lat="30.84394455" lon="34.82143784"><ele>327.8</ele><time>2013-11-21T07:14:27.0000000+00:00</time></trkpt><trkpt lat="30.84395409" lon="34.82162857"><ele>326.7</ele><time>2013-11-21T07:14:32.0000000+00:00</time></trkpt><trkpt lat="30.84400749" lon="34.82183075"><ele>326.0</ele><time>2013-11-21T07:14:37.0000000+00:00</time></trkpt><trkpt lat="30.8441143" lon="34.82206726"><ele>322.6</ele><time>2013-11-21T07:14:42.0000000+00:00</time></trkpt><trkpt lat="30.8441906" lon="34.82226181"><ele>321.1</ele><time>2013-11-21T07:14:47.0000000+00:00</time></trkpt><trkpt lat="30.84419823" lon="34.82243729"><ele>319.1</ele><time>2013-11-21T07:14:52.0000000+00:00</time></trkpt><trkpt lat="30.84419441" lon="34.82265091"><ele>321.1</ele><time>2013-11-21T07:14:57.0000000+00:00</time></trkpt><trkpt lat="30.84419441" lon="34.82285309"><ele>319.6</ele><time>2013-11-21T07:15:02.0000000+00:00</time></trkpt><trkpt lat="30.844244" lon="34.82303619"><ele>320.3</ele><time>2013-11-21T07:15:07.0000000+00:00</time></trkpt><trkpt lat="30.84433746" lon="34.82314682"><ele>320.9</ele><time>2013-11-21T07:15:12.0000000+00:00</time></trkpt><trkpt lat="30.84436798" lon="34.82317352"><ele>321.9</ele><time>2013-11-21T07:15:17.0000000+00:00</time></trkpt><trkpt lat="30.84436798" lon="34.82317352"><ele>322.0</ele><time>2013-11-21T07:15:22.0000000+00:00</time></trkpt><trkpt lat="30.84436798" lon="34.82317734"><ele>322.1</ele><time>2013-11-21T07:15:27.0000000+00:00</time></trkpt><trkpt lat="30.84436607" lon="34.82318497"><ele>322.1</ele><time>2013-11-21T07:15:32.0000000+00:00</time></trkpt><trkpt lat="30.84436607" lon="34.82318497"><ele>322.1</ele><time>2013-11-21T07:15:37.0000000+00:00</time></trkpt><trkpt lat="30.84436607" lon="34.82318497"><ele>322.2</ele><time>2013-11-21T07:15:42.0000000+00:00</time></trkpt><trkpt lat="30.84436989" lon="34.82318497"><ele>322.2</ele><time>2013-11-21T07:15:47.0000000+00:00</time></trkpt><trkpt lat="30.8443718" lon="34.82318497"><ele>322.2</ele><time>2013-11-21T07:15:52.0000000+00:00</time></trkpt><trkpt lat="30.8443737" lon="34.82318115"><ele>322.4</ele><time>2013-11-21T07:15:57.0000000+00:00</time></trkpt><trkpt lat="30.8443718" lon="34.82318115"><ele>322.5</ele><time>2013-11-21T07:16:02.0000000+00:00</time></trkpt><trkpt lat="30.84436798" lon="34.82318115"><ele>322.5</ele><time>2013-11-21T07:16:07.0000000+00:00</time></trkpt><trkpt lat="30.84436798" lon="34.82318115"><ele>322.6</ele><time>2013-11-21T07:16:12.0000000+00:00</time></trkpt><trkpt lat="30.84436989" lon="34.82317734"><ele>322.6</ele><time>2013-11-21T07:16:17.0000000+00:00</time></trkpt><trkpt lat="30.84437561" lon="34.82318497"><ele>322.6</ele><time>2013-11-21T07:16:22.0000000+00:00</time></trkpt><trkpt lat="30.84437752" lon="34.82318497"><ele>322.6</ele><time>2013-11-21T07:16:27.0000000+00:00</time></trkpt><trkpt lat="30.84438515" lon="34.82318878"><ele>322.7</ele><time>2013-11-21T07:16:32.0000000+00:00</time></trkpt><trkpt lat="30.84438896" lon="34.82319641"><ele>322.8</ele><time>2013-11-21T07:16:37.0000000+00:00</time></trkpt><trkpt lat="30.84438324" lon="34.82319641"><ele>322.9</ele><time>2013-11-21T07:16:42.0000000+00:00</time></trkpt><trkpt lat="30.84439087" lon="34.82319641"><ele>323.0</ele><time>2013-11-21T07:16:47.0000000+00:00</time></trkpt><trkpt lat="30.84439278" lon="34.82319641"><ele>323.1</ele><time>2013-11-21T07:16:52.0000000+00:00</time></trkpt><trkpt lat="30.8444767" lon="34.82316971"><ele>323.2</ele><time>2013-11-21T07:16:57.0000000+00:00</time></trkpt><trkpt lat="30.84461594" lon="34.82300568"><ele>322.8</ele><time>2013-11-21T07:17:02.0000000+00:00</time></trkpt><trkpt lat="30.8447609" lon="34.82279587"><ele>322.6</ele><time>2013-11-21T07:17:07.0000000+00:00</time></trkpt><trkpt lat="30.84477043" lon="34.82275391"><ele>322.4</ele><time>2013-11-21T07:17:12.0000000+00:00</time></trkpt><trkpt lat="30.84477043" lon="34.82275391"><ele>322.4</ele><time>2013-11-21T07:17:17.0000000+00:00</time></trkpt><trkpt lat="30.84477043" lon="34.82275772"><ele>322.4</ele><time>2013-11-21T07:17:22.0000000+00:00</time></trkpt><trkpt lat="30.84479332" lon="34.8227272"><ele>322.4</ele><time>2013-11-21T07:17:27.0000000+00:00</time></trkpt><trkpt lat="30.84489059" lon="34.82260132"><ele>322.1</ele><time>2013-11-21T07:17:32.0000000+00:00</time></trkpt><trkpt lat="30.84507561" lon="34.82243347"><ele>321.5</ele><time>2013-11-21T07:17:37.0000000+00:00</time></trkpt><trkpt lat="30.84526444" lon="34.82223511"><ele>320.4</ele><time>2013-11-21T07:17:42.0000000+00:00</time></trkpt><trkpt lat="30.84539032" lon="34.82206726"><ele>319.1</ele><time>2013-11-21T07:17:47.0000000+00:00</time></trkpt><trkpt lat="30.84547043" lon="34.82195664"><ele>317.9</ele><time>2013-11-21T07:17:52.0000000+00:00</time></trkpt><trkpt lat="30.84550858" lon="34.82189941"><ele>316.5</ele><time>2013-11-21T07:17:57.0000000+00:00</time></trkpt><trkpt lat="30.84558106" lon="34.82176209"><ele>315.1</ele><time>2013-11-21T07:18:02.0000000+00:00</time></trkpt><trkpt lat="30.84564591" lon="34.82167816"><ele>314.1</ele><time>2013-11-21T07:18:07.0000000+00:00</time></trkpt><trkpt lat="30.84569931" lon="34.8216095"><ele>313.1</ele><time>2013-11-21T07:18:12.0000000+00:00</time></trkpt><trkpt lat="30.84578323" lon="34.82156372"><ele>312.9</ele><time>2013-11-21T07:18:17.0000000+00:00</time></trkpt><trkpt lat="30.84585381" lon="34.82148361"><ele>313.1</ele><time>2013-11-21T07:18:22.0000000+00:00</time></trkpt><trkpt lat="30.84590721" lon="34.82139969"><ele>312.9</ele><time>2013-11-21T07:18:27.0000000+00:00</time></trkpt><trkpt lat="30.84596825" lon="34.82132721"><ele>312.5</ele><time>2013-11-21T07:18:32.0000000+00:00</time></trkpt><trkpt lat="30.84603691" lon="34.82125855"><ele>312.5</ele><time>2013-11-21T07:18:37.0000000+00:00</time></trkpt><trkpt lat="30.84609222" lon="34.82117844"><ele>312.1</ele><time>2013-11-21T07:18:42.0000000+00:00</time></trkpt><trkpt lat="30.84615517" lon="34.82109833"><ele>310.7</ele><time>2013-11-21T07:18:47.0000000+00:00</time></trkpt><trkpt lat="30.84622955" lon="34.82101059"><ele>310.0</ele><time>2013-11-21T07:18:52.0000000+00:00</time></trkpt><trkpt lat="30.84626579" lon="34.8209343"><ele>309.9</ele><time>2013-11-21T07:18:57.0000000+00:00</time></trkpt><trkpt lat="30.84633064" lon="34.82085419"><ele>310.2</ele><time>2013-11-21T07:19:02.0000000+00:00</time></trkpt><trkpt lat="30.84640122" lon="34.82073593"><ele>311.3</ele><time>2013-11-21T07:19:07.0000000+00:00</time></trkpt><trkpt lat="30.84647179" lon="34.82062912"><ele>310.9</ele><time>2013-11-21T07:19:12.0000000+00:00</time></trkpt><trkpt lat="30.84657478" lon="34.82048798"><ele>310.7</ele><time>2013-11-21T07:19:17.0000000+00:00</time></trkpt><trkpt lat="30.8466835" lon="34.82036591"><ele>310.3</ele><time>2013-11-21T07:19:22.0000000+00:00</time></trkpt><trkpt lat="30.84679222" lon="34.82022095"><ele>309.9</ele><time>2013-11-21T07:19:27.0000000+00:00</time></trkpt><trkpt lat="30.84687996" lon="34.8200798"><ele>310.0</ele><time>2013-11-21T07:19:32.0000000+00:00</time></trkpt><trkpt lat="30.84697723" lon="34.81994247"><ele>311.9</ele><time>2013-11-21T07:19:37.0000000+00:00</time></trkpt><trkpt lat="30.84707832" lon="34.81983185"><ele>312.7</ele><time>2013-11-21T07:19:42.0000000+00:00</time></trkpt><trkpt lat="30.84716034" lon="34.81973267"><ele>312.9</ele><time>2013-11-21T07:19:47.0000000+00:00</time></trkpt><trkpt lat="30.84723091" lon="34.81964111"><ele>315.0</ele><time>2013-11-21T07:19:52.0000000+00:00</time></trkpt><trkpt lat="30.84730148" lon="34.81957245"><ele>318.2</ele><time>2013-11-21T07:19:57.0000000+00:00</time></trkpt><trkpt lat="30.84736252" lon="34.81953049"><ele>320.5</ele><time>2013-11-21T07:20:02.0000000+00:00</time></trkpt><trkpt lat="30.84736061" lon="34.8195343"><ele>321.9</ele><time>2013-11-21T07:20:07.0000000+00:00</time></trkpt><trkpt lat="30.84736443" lon="34.81953812"><ele>322.0</ele><time>2013-11-21T07:20:12.0000000+00:00</time></trkpt><trkpt lat="30.84736824" lon="34.81953812"><ele>322.2</ele><time>2013-11-21T07:20:17.0000000+00:00</time></trkpt><trkpt lat="30.84737206" lon="34.81953812"><ele>322.3</ele><time>2013-11-21T07:20:22.0000000+00:00</time></trkpt><trkpt lat="30.84737587" lon="34.81954193"><ele>322.4</ele><time>2013-11-21T07:20:27.0000000+00:00</time></trkpt><trkpt lat="30.84737396" lon="34.81953812"><ele>322.5</ele><time>2013-11-21T07:20:32.0000000+00:00</time></trkpt><trkpt lat="30.84737015" lon="34.8195343"><ele>322.6</ele><time>2013-11-21T07:20:37.0000000+00:00</time></trkpt><trkpt lat="30.84736824" lon="34.8195343"><ele>322.6</ele><time>2013-11-21T07:20:42.0000000+00:00</time></trkpt><trkpt lat="30.84736824" lon="34.8195343"><ele>322.6</ele><time>2013-11-21T07:20:47.0000000+00:00</time></trkpt><trkpt lat="30.84737587" lon="34.81952667"><ele>322.6</ele><time>2013-11-21T07:20:52.0000000+00:00</time></trkpt><trkpt lat="30.84744072" lon="34.81954575"><ele>322.5</ele><time>2013-11-21T07:20:57.0000000+00:00</time></trkpt><trkpt lat="30.8475399" lon="34.81959915"><ele>322.4</ele><time>2013-11-21T07:21:02.0000000+00:00</time></trkpt><trkpt lat="30.84758759" lon="34.81962585"><ele>322.1</ele><time>2013-11-21T07:21:07.0000000+00:00</time></trkpt><trkpt lat="30.84766388" lon="34.81967163"><ele>322.6</ele><time>2013-11-21T07:21:12.0000000+00:00</time></trkpt><trkpt lat="30.84778976" lon="34.81974411"><ele>323.2</ele><time>2013-11-21T07:21:17.0000000+00:00</time></trkpt><trkpt lat="30.84791565" lon="34.8198204"><ele>324.1</ele><time>2013-11-21T07:21:22.0000000+00:00</time></trkpt><trkpt lat="30.84803009" lon="34.81987381"><ele>325.2</ele><time>2013-11-21T07:21:27.0000000+00:00</time></trkpt><trkpt lat="30.8481617" lon="34.81991959"><ele>326.7</ele><time>2013-11-21T07:21:32.0000000+00:00</time></trkpt><trkpt lat="30.84820938" lon="34.81991196"><ele>327.8</ele><time>2013-11-21T07:21:37.0000000+00:00</time></trkpt><trkpt lat="30.84824562" lon="34.81992722"><ele>326.9</ele><time>2013-11-21T07:21:42.0000000+00:00</time></trkpt><trkpt lat="30.84826851" lon="34.81988144"><ele>326.6</ele><time>2013-11-21T07:21:47.0000000+00:00</time></trkpt><trkpt lat="30.84836197" lon="34.81986618"><ele>326.8</ele><time>2013-11-21T07:21:52.0000000+00:00</time></trkpt><trkpt lat="30.84846497" lon="34.81987381"><ele>326.9</ele><time>2013-11-21T07:21:57.0000000+00:00</time></trkpt><trkpt lat="30.84854698" lon="34.8198967"><ele>327.4</ele><time>2013-11-21T07:22:02.0000000+00:00</time></trkpt><trkpt lat="30.84858131" lon="34.81993485"><ele>327.3</ele><time>2013-11-21T07:22:07.0000000+00:00</time></trkpt><trkpt lat="30.84863854" lon="34.81998062"><ele>327.3</ele><time>2013-11-21T07:22:12.0000000+00:00</time></trkpt><trkpt lat="30.84871864" lon="34.81997299"><ele>327.9</ele><time>2013-11-21T07:22:17.0000000+00:00</time></trkpt><trkpt lat="30.8488102" lon="34.8199501"><ele>328.4</ele><time>2013-11-21T07:22:22.0000000+00:00</time></trkpt><trkpt lat="30.84889031" lon="34.81993103"><ele>328.8</ele><time>2013-11-21T07:22:27.0000000+00:00</time></trkpt><trkpt lat="30.84892464" lon="34.81993485"><ele>328.1</ele><time>2013-11-21T07:22:32.0000000+00:00</time></trkpt><trkpt lat="30.84892654" lon="34.81993866"><ele>328.0</ele><time>2013-11-21T07:22:37.0000000+00:00</time></trkpt><trkpt lat="30.84893036" lon="34.81994247"><ele>328.2</ele><time>2013-11-21T07:22:42.0000000+00:00</time></trkpt><trkpt lat="30.84892845" lon="34.81993485"><ele>328.3</ele><time>2013-11-21T07:22:47.0000000+00:00</time></trkpt><trkpt lat="30.8489418" lon="34.81992722"><ele>328.5</ele><time>2013-11-21T07:22:52.0000000+00:00</time></trkpt><trkpt lat="30.84900093" lon="34.81985474"><ele>328.8</ele><time>2013-11-21T07:22:57.0000000+00:00</time></trkpt><trkpt lat="30.84909439" lon="34.81977844"><ele>328.6</ele><time>2013-11-21T07:23:02.0000000+00:00</time></trkpt><trkpt lat="30.84922028" lon="34.81973267"><ele>329.2</ele><time>2013-11-21T07:23:07.0000000+00:00</time></trkpt><trkpt lat="30.84932518" lon="34.81965637"><ele>329.0</ele><time>2013-11-21T07:23:12.0000000+00:00</time></trkpt><trkpt lat="30.84938431" lon="34.81957626"><ele>328.3</ele><time>2013-11-21T07:23:17.0000000+00:00</time></trkpt><trkpt lat="30.84945869" lon="34.81959915"><ele>327.7</ele><time>2013-11-21T07:23:22.0000000+00:00</time></trkpt><trkpt lat="30.84954453" lon="34.81958389"><ele>326.8</ele><time>2013-11-21T07:23:27.0000000+00:00</time></trkpt><trkpt lat="30.84964562" lon="34.81955338"><ele>325.8</ele><time>2013-11-21T07:23:32.0000000+00:00</time></trkpt><trkpt lat="30.84976006" lon="34.81964874"><ele>326.0</ele><time>2013-11-21T07:23:37.0000000+00:00</time></trkpt><trkpt lat="30.84986496" lon="34.81970978"><ele>325.3</ele><time>2013-11-21T07:23:42.0000000+00:00</time></trkpt><trkpt lat="30.84999657" lon="34.81979752"><ele>324.4</ele><time>2013-11-21T07:23:47.0000000+00:00</time></trkpt><trkpt lat="30.85011292" lon="34.81987381"><ele>324.4</ele><time>2013-11-21T07:23:52.0000000+00:00</time></trkpt><trkpt lat="30.85022163" lon="34.81991196"><ele>325.4</ele><time>2013-11-21T07:23:57.0000000+00:00</time></trkpt><trkpt lat="30.85030365" lon="34.8198967"><ele>326.2</ele><time>2013-11-21T07:24:02.0000000+00:00</time></trkpt><trkpt lat="30.8503952" lon="34.81990814"><ele>327.4</ele><time>2013-11-21T07:24:07.0000000+00:00</time></trkpt><trkpt lat="30.85045815" lon="34.81980896"><ele>329.1</ele><time>2013-11-21T07:24:12.0000000+00:00</time></trkpt><trkpt lat="30.85048103" lon="34.81971741"><ele>329.6</ele><time>2013-11-21T07:24:17.0000000+00:00</time></trkpt><trkpt lat="30.85048485" lon="34.81957626"><ele>331.1</ele><time>2013-11-21T07:24:22.0000000+00:00</time></trkpt><trkpt lat="30.85047722" lon="34.81957245"><ele>326.4</ele><time>2013-11-21T07:24:27.0000000+00:00</time></trkpt><trkpt lat="30.85048103" lon="34.81959152"><ele>326.3</ele><time>2013-11-21T07:24:32.0000000+00:00</time></trkpt><trkpt lat="30.85047722" lon="34.81959152"><ele>326.2</ele><time>2013-11-21T07:24:37.0000000+00:00</time></trkpt><trkpt lat="30.85050011" lon="34.81947327"><ele>325.3</ele><time>2013-11-21T07:24:42.0000000+00:00</time></trkpt><trkpt lat="30.85051346" lon="34.81939316"><ele>324.9</ele><time>2013-11-21T07:24:47.0000000+00:00</time></trkpt><trkpt lat="30.85057449" lon="34.81932449"><ele>324.3</ele><time>2013-11-21T07:24:52.0000000+00:00</time></trkpt><trkpt lat="30.85059547" lon="34.81928635"><ele>323.6</ele><time>2013-11-21T07:24:57.0000000+00:00</time></trkpt><trkpt lat="30.85059357" lon="34.81924439"><ele>321.7</ele><time>2013-11-21T07:25:02.0000000+00:00</time></trkpt><trkpt lat="30.85059357" lon="34.81924439"><ele>321.0</ele><time>2013-11-21T07:25:07.0000000+00:00</time></trkpt><trkpt lat="30.85061455" lon="34.8192215"><ele>320.3</ele><time>2013-11-21T07:25:12.0000000+00:00</time></trkpt><trkpt lat="30.85065842" lon="34.81919861"><ele>319.8</ele><time>2013-11-21T07:25:17.0000000+00:00</time></trkpt><trkpt lat="30.8507328" lon="34.81915283"><ele>319.1</ele><time>2013-11-21T07:25:22.0000000+00:00</time></trkpt><trkpt lat="30.85078049" lon="34.81912231"><ele>318.3</ele><time>2013-11-21T07:25:27.0000000+00:00</time></trkpt><trkpt lat="30.85083008" lon="34.81907654"><ele>317.3</ele><time>2013-11-21T07:25:32.0000000+00:00</time></trkpt><trkpt lat="30.85086441" lon="34.81901932"><ele>316.3</ele><time>2013-11-21T07:25:37.0000000+00:00</time></trkpt><trkpt lat="30.85086632" lon="34.81902695"><ele>316.2</ele><time>2013-11-21T07:25:42.0000000+00:00</time></trkpt><trkpt lat="30.85087776" lon="34.81903458"><ele>315.6</ele><time>2013-11-21T07:25:47.0000000+00:00</time></trkpt><trkpt lat="30.85089111" lon="34.8190155"><ele>318.2</ele><time>2013-11-21T07:25:52.0000000+00:00</time></trkpt><trkpt lat="30.850914" lon="34.81902313"><ele>318.1</ele><time>2013-11-21T07:25:57.0000000+00:00</time></trkpt><trkpt lat="30.85093308" lon="34.81902695"><ele>317.6</ele><time>2013-11-21T07:26:02.0000000+00:00</time></trkpt><trkpt lat="30.85096359" lon="34.8190155"><ele>317.0</ele><time>2013-11-21T07:26:07.0000000+00:00</time></trkpt><trkpt lat="30.85098648" lon="34.81899262"><ele>316.8</ele><time>2013-11-21T07:26:12.0000000+00:00</time></trkpt><trkpt lat="30.85104942" lon="34.81897736"><ele>316.5</ele><time>2013-11-21T07:26:17.0000000+00:00</time></trkpt><trkpt lat="30.85115051" lon="34.81895828"><ele>316.1</ele><time>2013-11-21T07:26:22.0000000+00:00</time></trkpt><trkpt lat="30.85128784" lon="34.81894302"><ele>315.9</ele><time>2013-11-21T07:26:27.0000000+00:00</time></trkpt><trkpt lat="30.85141563" lon="34.81887054"><ele>315.5</ele><time>2013-11-21T07:26:32.0000000+00:00</time></trkpt><trkpt lat="30.85154152" lon="34.81881332"><ele>315.4</ele><time>2013-11-21T07:26:37.0000000+00:00</time></trkpt><trkpt lat="30.85157585" lon="34.81871414"><ele>316.7</ele><time>2013-11-21T07:26:42.0000000+00:00</time></trkpt><trkpt lat="30.85159683" lon="34.81866837"><ele>317.1</ele><time>2013-11-21T07:26:47.0000000+00:00</time></trkpt><trkpt lat="30.85161972" lon="34.81867981"><ele>317.4</ele><time>2013-11-21T07:26:52.0000000+00:00</time></trkpt><trkpt lat="30.85163879" lon="34.81867981"><ele>317.5</ele><time>2013-11-21T07:26:57.0000000+00:00</time></trkpt><trkpt lat="30.85163307" lon="34.81868744"><ele>318.4</ele><time>2013-11-21T07:27:02.0000000+00:00</time></trkpt><trkpt lat="30.8516674" lon="34.81867981"><ele>318.6</ele><time>2013-11-21T07:27:07.0000000+00:00</time></trkpt><trkpt lat="30.85168457" lon="34.81866074"><ele>318.8</ele><time>2013-11-21T07:27:12.0000000+00:00</time></trkpt><trkpt lat="30.85169411" lon="34.81863022"><ele>319.6</ele><time>2013-11-21T07:27:17.0000000+00:00</time></trkpt><trkpt lat="30.85170937" lon="34.81858444"><ele>319.9</ele><time>2013-11-21T07:27:22.0000000+00:00</time></trkpt><trkpt lat="30.85175705" lon="34.81855774"><ele>319.9</ele><time>2013-11-21T07:27:27.0000000+00:00</time></trkpt><trkpt lat="30.85185242" lon="34.81853867"><ele>320.0</ele><time>2013-11-21T07:27:32.0000000+00:00</time></trkpt><trkpt lat="30.85193253" lon="34.81852722"><ele>320.0</ele><time>2013-11-21T07:27:37.0000000+00:00</time></trkpt><trkpt lat="30.85198784" lon="34.81845856"><ele>319.6</ele><time>2013-11-21T07:27:42.0000000+00:00</time></trkpt><trkpt lat="30.8520546" lon="34.81847763"><ele>319.3</ele><time>2013-11-21T07:27:47.0000000+00:00</time></trkpt><trkpt lat="30.85207939" lon="34.81846237"><ele>319.6</ele><time>2013-11-21T07:27:52.0000000+00:00</time></trkpt><trkpt lat="30.8521328" lon="34.81845093"><ele>320.0</ele><time>2013-11-21T07:27:57.0000000+00:00</time></trkpt><trkpt lat="30.85221291" lon="34.81842804"><ele>320.2</ele><time>2013-11-21T07:28:02.0000000+00:00</time></trkpt><trkpt lat="30.85227585" lon="34.81840515"><ele>320.7</ele><time>2013-11-21T07:28:07.0000000+00:00</time></trkpt><trkpt lat="30.85235024" lon="34.81837845"><ele>321.3</ele><time>2013-11-21T07:28:12.0000000+00:00</time></trkpt><trkpt lat="30.85246468" lon="34.81835175"><ele>322.3</ele><time>2013-11-21T07:28:17.0000000+00:00</time></trkpt><trkpt lat="30.85256386" lon="34.81832504"><ele>323.8</ele><time>2013-11-21T07:28:22.0000000+00:00</time></trkpt><trkpt lat="30.85264206" lon="34.81826782"><ele>325.7</ele><time>2013-11-21T07:28:27.0000000+00:00</time></trkpt><trkpt lat="30.85274696" lon="34.81822586"><ele>328.5</ele><time>2013-11-21T07:28:32.0000000+00:00</time></trkpt><trkpt lat="30.85281563" lon="34.81819534"><ele>332.4</ele><time>2013-11-21T07:28:37.0000000+00:00</time></trkpt><trkpt lat="30.85290909" lon="34.81818771"><ele>335.8</ele><time>2013-11-21T07:28:42.0000000+00:00</time></trkpt><trkpt lat="30.8529377" lon="34.81822205"><ele>337.0</ele><time>2013-11-21T07:28:47.0000000+00:00</time></trkpt><trkpt lat="30.85296249" lon="34.81824493"><ele>339.2</ele><time>2013-11-21T07:28:52.0000000+00:00</time></trkpt><trkpt lat="30.85300064" lon="34.81827545"><ele>340.5</ele><time>2013-11-21T07:28:57.0000000+00:00</time></trkpt><trkpt lat="30.85306168" lon="34.81829071"><ele>340.7</ele><time>2013-11-21T07:29:02.0000000+00:00</time></trkpt><trkpt lat="30.85313034" lon="34.81829834"><ele>341.4</ele><time>2013-11-21T07:29:07.0000000+00:00</time></trkpt><trkpt lat="30.8531723" lon="34.81828308"><ele>342.6</ele><time>2013-11-21T07:29:12.0000000+00:00</time></trkpt><trkpt lat="30.85320473" lon="34.81825256"><ele>342.6</ele><time>2013-11-21T07:29:17.0000000+00:00</time></trkpt><trkpt lat="30.85326576" lon="34.81823731"><ele>343.3</ele><time>2013-11-21T07:29:22.0000000+00:00</time></trkpt><trkpt lat="30.85333061" lon="34.81824493"><ele>344.3</ele><time>2013-11-21T07:29:27.0000000+00:00</time></trkpt><trkpt lat="30.85342789" lon="34.81825256"><ele>345.7</ele><time>2013-11-21T07:29:32.0000000+00:00</time></trkpt><trkpt lat="30.85355377" lon="34.81831741"><ele>346.4</ele><time>2013-11-21T07:29:37.0000000+00:00</time></trkpt><trkpt lat="30.85365677" lon="34.818367"><ele>346.9</ele><time>2013-11-21T07:29:42.0000000+00:00</time></trkpt><trkpt lat="30.85371208" lon="34.81842804"><ele>347.6</ele><time>2013-11-21T07:29:47.0000000+00:00</time></trkpt><trkpt lat="30.85377693" lon="34.8184967"><ele>347.9</ele><time>2013-11-21T07:29:52.0000000+00:00</time></trkpt><trkpt lat="30.8538456" lon="34.81853104"><ele>347.5</ele><time>2013-11-21T07:29:57.0000000+00:00</time></trkpt><trkpt lat="30.85390282" lon="34.81858444"><ele>346.9</ele><time>2013-11-21T07:30:02.0000000+00:00</time></trkpt><trkpt lat="30.85395813" lon="34.81860733"><ele>345.5</ele><time>2013-11-21T07:30:07.0000000+00:00</time></trkpt><trkpt lat="30.85398102" lon="34.81863022"><ele>345.1</ele><time>2013-11-21T07:30:12.0000000+00:00</time></trkpt><trkpt lat="30.85399437" lon="34.81863785"><ele>345.4</ele><time>2013-11-21T07:30:17.0000000+00:00</time></trkpt><trkpt lat="30.85402298" lon="34.81866074"><ele>345.2</ele><time>2013-11-21T07:30:22.0000000+00:00</time></trkpt><trkpt lat="30.85406685" lon="34.81867981"><ele>346.3</ele><time>2013-11-21T07:30:27.0000000+00:00</time></trkpt><trkpt lat="30.85407829" lon="34.81871414"><ele>346.1</ele><time>2013-11-21T07:30:32.0000000+00:00</time></trkpt><trkpt lat="30.85411835" lon="34.81879807"><ele>345.4</ele><time>2013-11-21T07:30:37.0000000+00:00</time></trkpt><trkpt lat="30.85416603" lon="34.81884766"><ele>345.7</ele><time>2013-11-21T07:30:42.0000000+00:00</time></trkpt><trkpt lat="30.85417366" lon="34.81886673"><ele>347.1</ele><time>2013-11-21T07:30:47.0000000+00:00</time></trkpt><trkpt lat="30.8541584" lon="34.81887436"><ele>348.2</ele><time>2013-11-21T07:30:52.0000000+00:00</time></trkpt><trkpt lat="30.85418129" lon="34.81889725"><ele>347.8</ele><time>2013-11-21T07:30:57.0000000+00:00</time></trkpt><trkpt lat="30.85420036" lon="34.81893921"><ele>347.4</ele><time>2013-11-21T07:31:02.0000000+00:00</time></trkpt><trkpt lat="30.85424042" lon="34.81900787"><ele>347.3</ele><time>2013-11-21T07:31:07.0000000+00:00</time></trkpt><trkpt lat="30.85427856" lon="34.81908417"><ele>347.3</ele><time>2013-11-21T07:31:12.0000000+00:00</time></trkpt><trkpt lat="30.85432816" lon="34.81914139"><ele>347.2</ele><time>2013-11-21T07:31:17.0000000+00:00</time></trkpt><trkpt lat="30.85435104" lon="34.8192482"><ele>348.1</ele><time>2013-11-21T07:31:22.0000000+00:00</time></trkpt><trkpt lat="30.85438919" lon="34.81933594"><ele>349.0</ele><time>2013-11-21T07:31:27.0000000+00:00</time></trkpt><trkpt lat="30.8544426" lon="34.81941605"><ele>349.8</ele><time>2013-11-21T07:31:32.0000000+00:00</time></trkpt><trkpt lat="30.85449219" lon="34.8195343"><ele>351.0</ele><time>2013-11-21T07:31:37.0000000+00:00</time></trkpt><trkpt lat="30.85453224" lon="34.81963348"><ele>352.2</ele><time>2013-11-21T07:31:42.0000000+00:00</time></trkpt><trkpt lat="30.85458183" lon="34.81980515"><ele>354.4</ele><time>2013-11-21T07:31:47.0000000+00:00</time></trkpt><trkpt lat="30.85461235" lon="34.81991577"><ele>356.6</ele><time>2013-11-21T07:31:52.0000000+00:00</time></trkpt><trkpt lat="30.85461807" lon="34.81996536"><ele>360.4</ele><time>2013-11-21T07:31:57.0000000+00:00</time></trkpt><trkpt lat="30.85464478" lon="34.82003403"><ele>362.8</ele><time>2013-11-21T07:32:02.0000000+00:00</time></trkpt><trkpt lat="30.85466194" lon="34.82014465"><ele>365.2</ele><time>2013-11-21T07:32:07.0000000+00:00</time></trkpt><trkpt lat="30.85465622" lon="34.82029343"><ele>367.4</ele><time>2013-11-21T07:32:12.0000000+00:00</time></trkpt><trkpt lat="30.854702" lon="34.82043457"><ele>369.5</ele><time>2013-11-21T07:32:17.0000000+00:00</time></trkpt><trkpt lat="30.85475731" lon="34.8205719"><ele>371.4</ele><time>2013-11-21T07:32:22.0000000+00:00</time></trkpt><trkpt lat="30.85480499" lon="34.82069397"><ele>372.9</ele><time>2013-11-21T07:32:27.0000000+00:00</time></trkpt><trkpt lat="30.85481644" lon="34.8206749"><ele>372.3</ele><time>2013-11-21T07:32:32.0000000+00:00</time></trkpt><trkpt lat="30.85480309" lon="34.82066345"><ele>372.6</ele><time>2013-11-21T07:32:37.0000000+00:00</time></trkpt><trkpt lat="30.8548069" lon="34.82072067"><ele>371.6</ele><time>2013-11-21T07:32:42.0000000+00:00</time></trkpt><trkpt lat="30.85480309" lon="34.82089615"><ele>369.9</ele><time>2013-11-21T07:32:47.0000000+00:00</time></trkpt><trkpt lat="30.85479164" lon="34.82101822"><ele>370.2</ele><time>2013-11-21T07:32:52.0000000+00:00</time></trkpt><trkpt lat="30.85482216" lon="34.82112885"><ele>370.9</ele><time>2013-11-21T07:32:57.0000000+00:00</time></trkpt><trkpt lat="30.85485458" lon="34.82129288"><ele>371.7</ele><time>2013-11-21T07:33:02.0000000+00:00</time></trkpt><trkpt lat="30.85485268" lon="34.82145691"><ele>372.9</ele><time>2013-11-21T07:33:07.0000000+00:00</time></trkpt><trkpt lat="30.85485649" lon="34.82157898"><ele>373.9</ele><time>2013-11-21T07:33:12.0000000+00:00</time></trkpt><trkpt lat="30.85488892" lon="34.82166672"><ele>373.9</ele><time>2013-11-21T07:33:17.0000000+00:00</time></trkpt><trkpt lat="30.85486984" lon="34.82166672"><ele>373.1</ele><time>2013-11-21T07:33:22.0000000+00:00</time></trkpt><trkpt lat="30.85484886" lon="34.82172012"><ele>372.2</ele><time>2013-11-21T07:33:27.0000000+00:00</time></trkpt><trkpt lat="30.85484123" lon="34.82175446"><ele>372.4</ele><time>2013-11-21T07:33:32.0000000+00:00</time></trkpt><trkpt lat="30.85484505" lon="34.82180405"><ele>371.2</ele><time>2013-11-21T07:33:37.0000000+00:00</time></trkpt><trkpt lat="30.85485649" lon="34.82186127"><ele>371.6</ele><time>2013-11-21T07:33:42.0000000+00:00</time></trkpt><trkpt lat="30.85487366" lon="34.82194519"><ele>372.6</ele><time>2013-11-21T07:33:47.0000000+00:00</time></trkpt><trkpt lat="30.85488319" lon="34.82196045"><ele>372.7</ele><time>2013-11-21T07:33:52.0000000+00:00</time></trkpt><trkpt lat="30.85489464" lon="34.82196808"><ele>373.1</ele><time>2013-11-21T07:33:57.0000000+00:00</time></trkpt><trkpt lat="30.85490227" lon="34.82197189"><ele>373.4</ele><time>2013-11-21T07:34:02.0000000+00:00</time></trkpt><trkpt lat="30.85490799" lon="34.82200241"><ele>373.1</ele><time>2013-11-21T07:34:07.0000000+00:00</time></trkpt><trkpt lat="30.85491943" lon="34.822052"><ele>373.0</ele><time>2013-11-21T07:34:12.0000000+00:00</time></trkpt><trkpt lat="30.85491562" lon="34.82211685"><ele>372.9</ele><time>2013-11-21T07:34:17.0000000+00:00</time></trkpt><trkpt lat="30.85488701" lon="34.82218552"><ele>372.7</ele><time>2013-11-21T07:34:22.0000000+00:00</time></trkpt><trkpt lat="30.85485649" lon="34.82223129"><ele>372.7</ele><time>2013-11-21T07:34:27.0000000+00:00</time></trkpt><trkpt lat="30.85487747" lon="34.82229614"><ele>372.5</ele><time>2013-11-21T07:34:32.0000000+00:00</time></trkpt><trkpt lat="30.85488701" lon="34.82229233"><ele>372.6</ele><time>2013-11-21T07:34:37.0000000+00:00</time></trkpt><trkpt lat="30.85490799" lon="34.82234573"><ele>372.6</ele><time>2013-11-21T07:34:42.0000000+00:00</time></trkpt><trkpt lat="30.85490799" lon="34.8223877"><ele>372.6</ele><time>2013-11-21T07:34:47.0000000+00:00</time></trkpt><trkpt lat="30.85492134" lon="34.82242966"><ele>372.7</ele><time>2013-11-21T07:34:52.0000000+00:00</time></trkpt><trkpt lat="30.85492706" lon="34.8224678"><ele>372.7</ele><time>2013-11-21T07:34:57.0000000+00:00</time></trkpt><trkpt lat="30.85492706" lon="34.82252502"><ele>372.6</ele><time>2013-11-21T07:35:02.0000000+00:00</time></trkpt><trkpt lat="30.85494614" lon="34.82256699"><ele>372.7</ele><time>2013-11-21T07:35:07.0000000+00:00</time></trkpt><trkpt lat="30.85495758" lon="34.82263184"><ele>372.8</ele><time>2013-11-21T07:35:12.0000000+00:00</time></trkpt><trkpt lat="30.85497475" lon="34.82268524"><ele>373.0</ele><time>2013-11-21T07:35:17.0000000+00:00</time></trkpt><trkpt lat="30.85498619" lon="34.82270432"><ele>373.3</ele><time>2013-11-21T07:35:22.0000000+00:00</time></trkpt><trkpt lat="30.85499001" lon="34.8227272"><ele>373.4</ele><time>2013-11-21T07:35:27.0000000+00:00</time></trkpt><trkpt lat="30.85497284" lon="34.82276154"><ele>373.4</ele><time>2013-11-21T07:35:32.0000000+00:00</time></trkpt><trkpt lat="30.8549614" lon="34.8228035"><ele>373.5</ele><time>2013-11-21T07:35:37.0000000+00:00</time></trkpt><trkpt lat="30.85495758" lon="34.82287216"><ele>373.6</ele><time>2013-11-21T07:35:42.0000000+00:00</time></trkpt><trkpt lat="30.85496521" lon="34.82292175"><ele>373.5</ele><time>2013-11-21T07:35:47.0000000+00:00</time></trkpt><trkpt lat="30.8549881" lon="34.82296753"><ele>373.5</ele><time>2013-11-21T07:35:52.0000000+00:00</time></trkpt><trkpt lat="30.85501289" lon="34.82302094"><ele>373.8</ele><time>2013-11-21T07:35:57.0000000+00:00</time></trkpt><trkpt lat="30.85502434" lon="34.82307816"><ele>374.0</ele><time>2013-11-21T07:36:02.0000000+00:00</time></trkpt><trkpt lat="30.85504341" lon="34.82313538"><ele>374.3</ele><time>2013-11-21T07:36:07.0000000+00:00</time></trkpt><trkpt lat="30.85507202" lon="34.82315826"><ele>374.3</ele><time>2013-11-21T07:36:12.0000000+00:00</time></trkpt><trkpt lat="30.85508728" lon="34.82318497"><ele>374.8</ele><time>2013-11-21T07:36:17.0000000+00:00</time></trkpt><trkpt lat="30.85509682" lon="34.82323456"><ele>374.9</ele><time>2013-11-21T07:36:22.0000000+00:00</time></trkpt><trkpt lat="30.85511589" lon="34.82330704"><ele>375.0</ele><time>2013-11-21T07:36:27.0000000+00:00</time></trkpt><trkpt lat="30.85514069" lon="34.8233757"><ele>375.2</ele><time>2013-11-21T07:36:32.0000000+00:00</time></trkpt><trkpt lat="30.85515213" lon="34.82342529"><ele>375.8</ele><time>2013-11-21T07:36:37.0000000+00:00</time></trkpt><trkpt lat="30.85517693" lon="34.82344055"><ele>376.2</ele><time>2013-11-21T07:36:42.0000000+00:00</time></trkpt><trkpt lat="30.85522461" lon="34.82344437"><ele>376.5</ele><time>2013-11-21T07:36:47.0000000+00:00</time></trkpt><trkpt lat="30.85524559" lon="34.82345963"><ele>376.9</ele><time>2013-11-21T07:36:52.0000000+00:00</time></trkpt><trkpt lat="30.85527992" lon="34.82342529"><ele>376.8</ele><time>2013-11-21T07:36:57.0000000+00:00</time></trkpt><trkpt lat="30.85531426" lon="34.82342529"><ele>377.4</ele><time>2013-11-21T07:37:02.0000000+00:00</time></trkpt><trkpt lat="30.85532379" lon="34.82341766"><ele>378.3</ele><time>2013-11-21T07:37:07.0000000+00:00</time></trkpt><trkpt lat="30.85533714" lon="34.823452"><ele>378.8</ele><time>2013-11-21T07:37:12.0000000+00:00</time></trkpt><trkpt lat="30.85533905" lon="34.82349014"><ele>380.0</ele><time>2013-11-21T07:37:17.0000000+00:00</time></trkpt><trkpt lat="30.85536194" lon="34.8235054"><ele>380.9</ele><time>2013-11-21T07:37:22.0000000+00:00</time></trkpt><trkpt lat="30.85536385" lon="34.82352066"><ele>381.4</ele><time>2013-11-21T07:37:27.0000000+00:00</time></trkpt><trkpt lat="30.85535431" lon="34.82355881"><ele>382.0</ele><time>2013-11-21T07:37:32.0000000+00:00</time></trkpt><trkpt lat="30.85533905" lon="34.82361221"><ele>383.1</ele><time>2013-11-21T07:37:37.0000000+00:00</time></trkpt><trkpt lat="30.85533524" lon="34.82365036"><ele>383.9</ele><time>2013-11-21T07:37:42.0000000+00:00</time></trkpt><trkpt lat="30.85532761" lon="34.82367706"><ele>384.9</ele><time>2013-11-21T07:37:47.0000000+00:00</time></trkpt><trkpt lat="30.85535812" lon="34.82368469"><ele>386.0</ele><time>2013-11-21T07:37:52.0000000+00:00</time></trkpt><trkpt lat="30.85539055" lon="34.82369232"><ele>386.6</ele><time>2013-11-21T07:37:57.0000000+00:00</time></trkpt><trkpt lat="30.85542679" lon="34.82368088"><ele>387.0</ele><time>2013-11-21T07:38:02.0000000+00:00</time></trkpt><trkpt lat="30.85545731" lon="34.82365799"><ele>387.4</ele><time>2013-11-21T07:38:07.0000000+00:00</time></trkpt><trkpt lat="30.85544586" lon="34.8236351"><ele>387.6</ele><time>2013-11-21T07:38:12.0000000+00:00</time></trkpt><trkpt lat="30.85544968" lon="34.82363129"><ele>388.0</ele><time>2013-11-21T07:38:17.0000000+00:00</time></trkpt><trkpt lat="30.85544968" lon="34.82363129"><ele>388.4</ele><time>2013-11-21T07:38:22.0000000+00:00</time></trkpt><trkpt lat="30.85544777" lon="34.82362747"><ele>388.9</ele><time>2013-11-21T07:38:27.0000000+00:00</time></trkpt><trkpt lat="30.85546875" lon="34.82362747"><ele>389.3</ele><time>2013-11-21T07:38:32.0000000+00:00</time></trkpt><trkpt lat="30.85551071" lon="34.82363129"><ele>390.0</ele><time>2013-11-21T07:38:37.0000000+00:00</time></trkpt><trkpt lat="30.85553169" lon="34.82364655"><ele>390.7</ele><time>2013-11-21T07:38:42.0000000+00:00</time></trkpt><trkpt lat="30.85556603" lon="34.82367325"><ele>391.3</ele><time>2013-11-21T07:38:47.0000000+00:00</time></trkpt><trkpt lat="30.85558701" lon="34.82368851"><ele>392.2</ele><time>2013-11-21T07:38:52.0000000+00:00</time></trkpt><trkpt lat="30.85561752" lon="34.82370377"><ele>393.1</ele><time>2013-11-21T07:38:57.0000000+00:00</time></trkpt><trkpt lat="30.85565949" lon="34.82370758"><ele>393.0</ele><time>2013-11-21T07:39:02.0000000+00:00</time></trkpt><trkpt lat="30.85571671" lon="34.82371521"><ele>393.2</ele><time>2013-11-21T07:39:07.0000000+00:00</time></trkpt><trkpt lat="30.85571861" lon="34.8237381"><ele>394.1</ele><time>2013-11-21T07:39:12.0000000+00:00</time></trkpt><trkpt lat="30.85571098" lon="34.82373428"><ele>394.5</ele><time>2013-11-21T07:39:17.0000000+00:00</time></trkpt><trkpt lat="30.85571289" lon="34.82372665"><ele>395.0</ele><time>2013-11-21T07:39:22.0000000+00:00</time></trkpt><trkpt lat="30.85571671" lon="34.82371903"><ele>395.6</ele><time>2013-11-21T07:39:27.0000000+00:00</time></trkpt><trkpt lat="30.85572624" lon="34.8237114"><ele>396.1</ele><time>2013-11-21T07:39:32.0000000+00:00</time></trkpt><trkpt lat="30.85573196" lon="34.8237114"><ele>396.6</ele><time>2013-11-21T07:39:37.0000000+00:00</time></trkpt><trkpt lat="30.85575867" lon="34.82373047"><ele>397.2</ele><time>2013-11-21T07:39:42.0000000+00:00</time></trkpt><trkpt lat="30.85586548" lon="34.82381821"><ele>395.3</ele><time>2013-11-21T07:39:47.0000000+00:00</time></trkpt><trkpt lat="30.85587311" lon="34.82386398"><ele>394.5</ele><time>2013-11-21T07:39:52.0000000+00:00</time></trkpt><trkpt lat="30.85591126" lon="34.82388306"><ele>397.6</ele><time>2013-11-21T07:39:57.0000000+00:00</time></trkpt><trkpt lat="30.85593414" lon="34.82392883"><ele>397.8</ele><time>2013-11-21T07:40:02.0000000+00:00</time></trkpt><trkpt lat="30.85594177" lon="34.82393265"><ele>399.0</ele><time>2013-11-21T07:40:07.0000000+00:00</time></trkpt><trkpt lat="30.85593224" lon="34.82391357"><ele>399.9</ele><time>2013-11-21T07:40:12.0000000+00:00</time></trkpt><trkpt lat="30.85593414" lon="34.82391739"><ele>400.4</ele><time>2013-11-21T07:40:17.0000000+00:00</time></trkpt><trkpt lat="30.85593224" lon="34.82391739"><ele>400.9</ele><time>2013-11-21T07:40:22.0000000+00:00</time></trkpt><trkpt lat="30.85592651" lon="34.8239212"><ele>401.4</ele><time>2013-11-21T07:40:27.0000000+00:00</time></trkpt><trkpt lat="30.85591888" lon="34.82392883"><ele>402.0</ele><time>2013-11-21T07:40:32.0000000+00:00</time></trkpt><trkpt lat="30.85591507" lon="34.82393646"><ele>402.6</ele><time>2013-11-21T07:40:37.0000000+00:00</time></trkpt><trkpt lat="30.85590935" lon="34.82394409"><ele>403.2</ele><time>2013-11-21T07:40:42.0000000+00:00</time></trkpt><trkpt lat="30.85590935" lon="34.82395172"><ele>403.7</ele><time>2013-11-21T07:40:47.0000000+00:00</time></trkpt><trkpt lat="30.85591316" lon="34.82395935"><ele>404.2</ele><time>2013-11-21T07:40:52.0000000+00:00</time></trkpt><trkpt lat="30.85591507" lon="34.82396698"><ele>404.8</ele><time>2013-11-21T07:40:57.0000000+00:00</time></trkpt><trkpt lat="30.85591698" lon="34.82398224"><ele>405.3</ele><time>2013-11-21T07:41:02.0000000+00:00</time></trkpt><trkpt lat="30.85593605" lon="34.82399368"><ele>405.0</ele><time>2013-11-21T07:41:07.0000000+00:00</time></trkpt><trkpt lat="30.85597801" lon="34.82400131"><ele>403.4</ele><time>2013-11-21T07:41:12.0000000+00:00</time></trkpt><trkpt lat="30.85597611" lon="34.8239975"><ele>403.8</ele><time>2013-11-21T07:41:17.0000000+00:00</time></trkpt><trkpt lat="30.8559742" lon="34.82400131"><ele>404.1</ele><time>2013-11-21T07:41:22.0000000+00:00</time></trkpt><trkpt lat="30.85597038" lon="34.82400513"><ele>404.5</ele><time>2013-11-21T07:41:27.0000000+00:00</time></trkpt><trkpt lat="30.85596085" lon="34.82400894"><ele>405.1</ele><time>2013-11-21T07:41:32.0000000+00:00</time></trkpt><trkpt lat="30.85592079" lon="34.82399368"><ele>407.1</ele><time>2013-11-21T07:41:37.0000000+00:00</time></trkpt><trkpt lat="30.85591507" lon="34.82398987"><ele>407.7</ele><time>2013-11-21T07:41:42.0000000+00:00</time></trkpt><trkpt lat="30.85591316" lon="34.82399368"><ele>408.4</ele><time>2013-11-21T07:41:47.0000000+00:00</time></trkpt><trkpt lat="30.85591507" lon="34.82400513"><ele>409.2</ele><time>2013-11-21T07:41:52.0000000+00:00</time></trkpt><trkpt lat="30.85591888" lon="34.82402039"><ele>409.8</ele><time>2013-11-21T07:41:57.0000000+00:00</time></trkpt><trkpt lat="30.85592461" lon="34.82406616"><ele>411.1</ele><time>2013-11-21T07:42:02.0000000+00:00</time></trkpt><trkpt lat="30.85594559" lon="34.82408524"><ele>412.9</ele><time>2013-11-21T07:42:07.0000000+00:00</time></trkpt><trkpt lat="30.85596466" lon="34.82410812"><ele>414.3</ele><time>2013-11-21T07:42:12.0000000+00:00</time></trkpt><trkpt lat="30.85596275" lon="34.82413101"><ele>415.5</ele><time>2013-11-21T07:42:17.0000000+00:00</time></trkpt><trkpt lat="30.85598755" lon="34.82410812"><ele>416.6</ele><time>2013-11-21T07:42:22.0000000+00:00</time></trkpt><trkpt lat="30.85600662" lon="34.82410812"><ele>417.8</ele><time>2013-11-21T07:42:27.0000000+00:00</time></trkpt><trkpt lat="30.85602951" lon="34.82410049"><ele>418.4</ele><time>2013-11-21T07:42:32.0000000+00:00</time></trkpt><trkpt lat="30.85608292" lon="34.82410812"><ele>418.7</ele><time>2013-11-21T07:42:37.0000000+00:00</time></trkpt><trkpt lat="30.85612106" lon="34.82413101"><ele>419.5</ele><time>2013-11-21T07:42:42.0000000+00:00</time></trkpt><trkpt lat="30.85615349" lon="34.82415009"><ele>420.4</ele><time>2013-11-21T07:42:47.0000000+00:00</time></trkpt><trkpt lat="30.85619736" lon="34.82417679"><ele>420.5</ele><time>2013-11-21T07:42:52.0000000+00:00</time></trkpt><trkpt lat="30.85622025" lon="34.82423019"><ele>421.3</ele><time>2013-11-21T07:42:57.0000000+00:00</time></trkpt><trkpt lat="30.85626602" lon="34.82432938"><ele>421.8</ele><time>2013-11-21T07:43:02.0000000+00:00</time></trkpt><trkpt lat="30.85628319" lon="34.82435608"><ele>423.7</ele><time>2013-11-21T07:43:07.0000000+00:00</time></trkpt><trkpt lat="30.85628891" lon="34.82434082"><ele>423.8</ele><time>2013-11-21T07:43:12.0000000+00:00</time></trkpt><trkpt lat="30.85629273" lon="34.82431793"><ele>424.1</ele><time>2013-11-21T07:43:17.0000000+00:00</time></trkpt><trkpt lat="30.85629845" lon="34.8242836"><ele>424.6</ele><time>2013-11-21T07:43:22.0000000+00:00</time></trkpt><trkpt lat="30.85630989" lon="34.82426071"><ele>425.1</ele><time>2013-11-21T07:43:27.0000000+00:00</time></trkpt><trkpt lat="30.85631371" lon="34.82423782"><ele>425.4</ele><time>2013-11-21T07:43:32.0000000+00:00</time></trkpt><trkpt lat="30.85631752" lon="34.82418442"><ele>425.5</ele><time>2013-11-21T07:43:37.0000000+00:00</time></trkpt><trkpt lat="30.85636139" lon="34.82414246"><ele>425.8</ele><time>2013-11-21T07:43:42.0000000+00:00</time></trkpt><trkpt lat="30.85635376" lon="34.82413101"><ele>426.7</ele><time>2013-11-21T07:43:47.0000000+00:00</time></trkpt><trkpt lat="30.85635567" lon="34.82412338"><ele>427.3</ele><time>2013-11-21T07:43:52.0000000+00:00</time></trkpt><trkpt lat="30.85635948" lon="34.82411575"><ele>427.9</ele><time>2013-11-21T07:43:57.0000000+00:00</time></trkpt><trkpt lat="30.85634613" lon="34.82405853"><ele>428.1</ele><time>2013-11-21T07:44:02.0000000+00:00</time></trkpt><trkpt lat="30.85634995" lon="34.8240242"><ele>427.6</ele><time>2013-11-21T07:44:07.0000000+00:00</time></trkpt><trkpt lat="30.85634804" lon="34.82398605"><ele>428.1</ele><time>2013-11-21T07:44:12.0000000+00:00</time></trkpt><trkpt lat="30.85636139" lon="34.82395935"><ele>428.7</ele><time>2013-11-21T07:44:17.0000000+00:00</time></trkpt><trkpt lat="30.85638237" lon="34.82394028"><ele>428.9</ele><time>2013-11-21T07:44:22.0000000+00:00</time></trkpt><trkpt lat="30.85639954" lon="34.82389069"><ele>430.7</ele><time>2013-11-21T07:44:27.0000000+00:00</time></trkpt><trkpt lat="30.8564148" lon="34.82384872"><ele>432.0</ele><time>2013-11-21T07:44:32.0000000+00:00</time></trkpt><trkpt lat="30.85643768" lon="34.82380295"><ele>433.0</ele><time>2013-11-21T07:44:37.0000000+00:00</time></trkpt><trkpt lat="30.85645294" lon="34.82375717"><ele>434.1</ele><time>2013-11-21T07:44:42.0000000+00:00</time></trkpt><trkpt lat="30.85647011" lon="34.8237114"><ele>435.0</ele><time>2013-11-21T07:44:47.0000000+00:00</time></trkpt><trkpt lat="30.8565197" lon="34.82368088"><ele>436.1</ele><time>2013-11-21T07:44:52.0000000+00:00</time></trkpt><trkpt lat="30.85653496" lon="34.82362747"><ele>436.8</ele><time>2013-11-21T07:44:57.0000000+00:00</time></trkpt><trkpt lat="30.85656166" lon="34.82359314"><ele>437.7</ele><time>2013-11-21T07:45:02.0000000+00:00</time></trkpt><trkpt lat="30.85656738" lon="34.82352829"><ele>437.9</ele><time>2013-11-21T07:45:07.0000000+00:00</time></trkpt><trkpt lat="30.85658646" lon="34.82349014"><ele>438.4</ele><time>2013-11-21T07:45:12.0000000+00:00</time></trkpt><trkpt lat="30.85658646" lon="34.82344818"><ele>439.0</ele><time>2013-11-21T07:45:17.0000000+00:00</time></trkpt><trkpt lat="30.85660172" lon="34.82337952"><ele>439.3</ele><time>2013-11-21T07:45:22.0000000+00:00</time></trkpt><trkpt lat="30.85661316" lon="34.82329559"><ele>439.8</ele><time>2013-11-21T07:45:27.0000000+00:00</time></trkpt><trkpt lat="30.85664558" lon="34.82324982"><ele>440.1</ele><time>2013-11-21T07:45:32.0000000+00:00</time></trkpt><trkpt lat="30.8566761" lon="34.8232193"><ele>441.0</ele><time>2013-11-21T07:45:37.0000000+00:00</time></trkpt><trkpt lat="30.85671234" lon="34.82315064"><ele>441.8</ele><time>2013-11-21T07:45:42.0000000+00:00</time></trkpt><trkpt lat="30.85680771" lon="34.8230629"><ele>442.5</ele><time>2013-11-21T07:45:47.0000000+00:00</time></trkpt><trkpt lat="30.85688591" lon="34.82301331"><ele>443.4</ele><time>2013-11-21T07:45:52.0000000+00:00</time></trkpt><trkpt lat="30.85692978" lon="34.82299805"><ele>444.3</ele><time>2013-11-21T07:45:57.0000000+00:00</time></trkpt><trkpt lat="30.85696983" lon="34.8229599"><ele>445.4</ele><time>2013-11-21T07:46:02.0000000+00:00</time></trkpt><trkpt lat="30.85697937" lon="34.82291031"><ele>446.4</ele><time>2013-11-21T07:46:07.0000000+00:00</time></trkpt><trkpt lat="30.85700989" lon="34.82290268"><ele>448.2</ele><time>2013-11-21T07:46:12.0000000+00:00</time></trkpt><trkpt lat="30.8570385" lon="34.82286453"><ele>449.0</ele><time>2013-11-21T07:46:17.0000000+00:00</time></trkpt><trkpt lat="30.85706711" lon="34.82284927"><ele>450.3</ele><time>2013-11-21T07:46:22.0000000+00:00</time></trkpt><trkpt lat="30.85707092" lon="34.82282639"><ele>451.5</ele><time>2013-11-21T07:46:27.0000000+00:00</time></trkpt><trkpt lat="30.85706139" lon="34.82278824"><ele>452.8</ele><time>2013-11-21T07:46:32.0000000+00:00</time></trkpt><trkpt lat="30.85708237" lon="34.82279205"><ele>453.4</ele><time>2013-11-21T07:46:37.0000000+00:00</time></trkpt><trkpt lat="30.85710335" lon="34.82281494"><ele>452.1</ele><time>2013-11-21T07:46:42.0000000+00:00</time></trkpt><trkpt lat="30.85713196" lon="34.82278061"><ele>452.0</ele><time>2013-11-21T07:46:47.0000000+00:00</time></trkpt><trkpt lat="30.85717583" lon="34.82273102"><ele>453.1</ele><time>2013-11-21T07:46:52.0000000+00:00</time></trkpt><trkpt lat="30.85717964" lon="34.82269287"><ele>453.7</ele><time>2013-11-21T07:46:57.0000000+00:00</time></trkpt><trkpt lat="30.85719299" lon="34.82268143"><ele>455.1</ele><time>2013-11-21T07:47:02.0000000+00:00</time></trkpt><trkpt lat="30.8571949" lon="34.82265854"><ele>455.8</ele><time>2013-11-21T07:47:07.0000000+00:00</time></trkpt><trkpt lat="30.85721207" lon="34.82263565"><ele>456.4</ele><time>2013-11-21T07:47:12.0000000+00:00</time></trkpt><trkpt lat="30.85719872" lon="34.82258987"><ele>457.7</ele><time>2013-11-21T07:47:17.0000000+00:00</time></trkpt><trkpt lat="30.85711479" lon="34.82249451"><ele>458.6</ele><time>2013-11-21T07:47:22.0000000+00:00</time></trkpt><trkpt lat="30.85706902" lon="34.82243729"><ele>457.9</ele><time>2013-11-21T07:47:27.0000000+00:00</time></trkpt><trkpt lat="30.85707855" lon="34.82242203"><ele>458.3</ele><time>2013-11-21T07:47:32.0000000+00:00</time></trkpt><trkpt lat="30.85707665" lon="34.8224144"><ele>459.0</ele><time>2013-11-21T07:47:37.0000000+00:00</time></trkpt><trkpt lat="30.85707092" lon="34.82239914"><ele>459.5</ele><time>2013-11-21T07:47:42.0000000+00:00</time></trkpt><trkpt lat="30.85704994" lon="34.82238388"><ele>460.1</ele><time>2013-11-21T07:47:47.0000000+00:00</time></trkpt><trkpt lat="30.85704994" lon="34.82238388"><ele>460.0</ele><time>2013-11-21T07:47:52.0000000+00:00</time></trkpt><trkpt lat="30.85704422" lon="34.82238388"><ele>460.7</ele><time>2013-11-21T07:47:57.0000000+00:00</time></trkpt><trkpt lat="30.85704422" lon="34.82238007"><ele>461.3</ele><time>2013-11-21T07:48:02.0000000+00:00</time></trkpt><trkpt lat="30.85704613" lon="34.82238007"><ele>461.9</ele><time>2013-11-21T07:48:07.0000000+00:00</time></trkpt><trkpt lat="30.85704613" lon="34.82238007"><ele>462.3</ele><time>2013-11-21T07:48:12.0000000+00:00</time></trkpt><trkpt lat="30.85704804" lon="34.8223877"><ele>462.3</ele><time>2013-11-21T07:48:17.0000000+00:00</time></trkpt><trkpt lat="30.85708046" lon="34.8224678"><ele>461.8</ele><time>2013-11-21T07:48:22.0000000+00:00</time></trkpt><trkpt lat="30.85711098" lon="34.82253265"><ele>460.4</ele><time>2013-11-21T07:48:27.0000000+00:00</time></trkpt><trkpt lat="30.85713387" lon="34.82260132"><ele>458.5</ele><time>2013-11-21T07:48:32.0000000+00:00</time></trkpt><trkpt lat="30.85711861" lon="34.82266998"><ele>456.4</ele><time>2013-11-21T07:48:37.0000000+00:00</time></trkpt><trkpt lat="30.85711861" lon="34.82271576"><ele>455.4</ele><time>2013-11-21T07:48:42.0000000+00:00</time></trkpt><trkpt lat="30.85709381" lon="34.82275009"><ele>454.4</ele><time>2013-11-21T07:48:47.0000000+00:00</time></trkpt><trkpt lat="30.85707665" lon="34.82279587"><ele>453.6</ele><time>2013-11-21T07:48:52.0000000+00:00</time></trkpt><trkpt lat="30.85707665" lon="34.82287216"><ele>453.0</ele><time>2013-11-21T07:48:57.0000000+00:00</time></trkpt><trkpt lat="30.85707855" lon="34.82288361"><ele>452.1</ele><time>2013-11-21T07:49:02.0000000+00:00</time></trkpt><trkpt lat="30.85708809" lon="34.82288742"><ele>451.4</ele><time>2013-11-21T07:49:07.0000000+00:00</time></trkpt><trkpt lat="30.85709953" lon="34.82289124"><ele>450.7</ele><time>2013-11-21T07:49:12.0000000+00:00</time></trkpt><trkpt lat="30.8571434" lon="34.82287216"><ele>449.3</ele><time>2013-11-21T07:49:17.0000000+00:00</time></trkpt><trkpt lat="30.85719299" lon="34.82281494"><ele>448.3</ele><time>2013-11-21T07:49:22.0000000+00:00</time></trkpt><trkpt lat="30.85721397" lon="34.82278442"><ele>447.3</ele><time>2013-11-21T07:49:27.0000000+00:00</time></trkpt><trkpt lat="30.8572216" lon="34.82281113"><ele>446.6</ele><time>2013-11-21T07:49:32.0000000+00:00</time></trkpt><trkpt lat="30.85721779" lon="34.82284927"><ele>445.8</ele><time>2013-11-21T07:49:37.0000000+00:00</time></trkpt><trkpt lat="30.8571949" lon="34.82289505"><ele>445.1</ele><time>2013-11-21T07:49:42.0000000+00:00</time></trkpt><trkpt lat="30.85719872" lon="34.82290268"><ele>444.3</ele><time>2013-11-21T07:49:47.0000000+00:00</time></trkpt><trkpt lat="30.85720444" lon="34.82295227"><ele>443.6</ele><time>2013-11-21T07:49:52.0000000+00:00</time></trkpt><trkpt lat="30.85722351" lon="34.82300568"><ele>442.8</ele><time>2013-11-21T07:49:57.0000000+00:00</time></trkpt><trkpt lat="30.8572216" lon="34.8230629"><ele>442.1</ele><time>2013-11-21T07:50:02.0000000+00:00</time></trkpt><trkpt lat="30.85722351" lon="34.82312012"><ele>441.4</ele><time>2013-11-21T07:50:07.0000000+00:00</time></trkpt><trkpt lat="30.85725021" lon="34.82314682"><ele>440.8</ele><time>2013-11-21T07:50:12.0000000+00:00</time></trkpt><trkpt lat="30.85727692" lon="34.82318115"><ele>440.1</ele><time>2013-11-21T07:50:17.0000000+00:00</time></trkpt><trkpt lat="30.85733032" lon="34.8232193"><ele>439.4</ele><time>2013-11-21T07:50:22.0000000+00:00</time></trkpt><trkpt lat="30.85737991" lon="34.82325363"><ele>438.8</ele><time>2013-11-21T07:50:27.0000000+00:00</time></trkpt><trkpt lat="30.85743332" lon="34.82328796"><ele>437.5</ele><time>2013-11-21T07:50:32.0000000+00:00</time></trkpt><trkpt lat="30.85744476" lon="34.82328796"><ele>436.8</ele><time>2013-11-21T07:50:37.0000000+00:00</time></trkpt><trkpt lat="30.8574791" lon="34.82331467"><ele>436.3</ele><time>2013-11-21T07:50:42.0000000+00:00</time></trkpt><trkpt lat="30.85751915" lon="34.82334137"><ele>435.9</ele><time>2013-11-21T07:50:47.0000000+00:00</time></trkpt><trkpt lat="30.85757256" lon="34.82337952"><ele>435.4</ele><time>2013-11-21T07:50:52.0000000+00:00</time></trkpt><trkpt lat="30.85768127" lon="34.82348633"><ele>434.9</ele><time>2013-11-21T07:50:57.0000000+00:00</time></trkpt><trkpt lat="30.85778236" lon="34.82351303"><ele>434.6</ele><time>2013-11-21T07:51:02.0000000+00:00</time></trkpt><trkpt lat="30.85787964" lon="34.82355881"><ele>434.7</ele><time>2013-11-21T07:51:07.0000000+00:00</time></trkpt><trkpt lat="30.85798645" lon="34.82362366"><ele>435.3</ele><time>2013-11-21T07:51:12.0000000+00:00</time></trkpt><trkpt lat="30.85806274" lon="34.82368088"><ele>437.9</ele><time>2013-11-21T07:51:17.0000000+00:00</time></trkpt><trkpt lat="30.85808182" lon="34.82372284"><ele>438.7</ele><time>2013-11-21T07:51:22.0000000+00:00</time></trkpt><trkpt lat="30.85811424" lon="34.82376862"><ele>438.7</ele><time>2013-11-21T07:51:27.0000000+00:00</time></trkpt><trkpt lat="30.85813332" lon="34.82386017"><ele>439.6</ele><time>2013-11-21T07:51:32.0000000+00:00</time></trkpt><trkpt lat="30.85816574" lon="34.82396317"><ele>440.1</ele><time>2013-11-21T07:51:37.0000000+00:00</time></trkpt><trkpt lat="30.85817528" lon="34.82404709"><ele>440.8</ele><time>2013-11-21T07:51:42.0000000+00:00</time></trkpt><trkpt lat="30.85816002" lon="34.82413864"><ele>441.6</ele><time>2013-11-21T07:51:47.0000000+00:00</time></trkpt><trkpt lat="30.85819435" lon="34.82424927"><ele>442.0</ele><time>2013-11-21T07:51:52.0000000+00:00</time></trkpt><trkpt lat="30.8582592" lon="34.82428742"><ele>442.4</ele><time>2013-11-21T07:51:57.0000000+00:00</time></trkpt><trkpt lat="30.85830498" lon="34.82430649"><ele>443.3</ele><time>2013-11-21T07:52:02.0000000+00:00</time></trkpt><trkpt lat="30.85836029" lon="34.82427216"><ele>443.4</ele><time>2013-11-21T07:52:07.0000000+00:00</time></trkpt><trkpt lat="30.8584137" lon="34.82423019"><ele>443.9</ele><time>2013-11-21T07:52:12.0000000+00:00</time></trkpt><trkpt lat="30.85850525" lon="34.82424545"><ele>445.1</ele><time>2013-11-21T07:52:17.0000000+00:00</time></trkpt><trkpt lat="30.85857201" lon="34.82427597"><ele>446.2</ele><time>2013-11-21T07:52:22.0000000+00:00</time></trkpt><trkpt lat="30.85859489" lon="34.82424927"><ele>447.0</ele><time>2013-11-21T07:52:27.0000000+00:00</time></trkpt><trkpt lat="30.85865021" lon="34.82419586"><ele>448.2</ele><time>2013-11-21T07:52:32.0000000+00:00</time></trkpt><trkpt lat="30.85871506" lon="34.82414246"><ele>449.5</ele><time>2013-11-21T07:52:37.0000000+00:00</time></trkpt><trkpt lat="30.85876656" lon="34.82407379"><ele>449.5</ele><time>2013-11-21T07:52:42.0000000+00:00</time></trkpt><trkpt lat="30.85882378" lon="34.82409287"><ele>450.4</ele><time>2013-11-21T07:52:47.0000000+00:00</time></trkpt><trkpt lat="30.85886765" lon="34.82408524"><ele>451.0</ele><time>2013-11-21T07:52:52.0000000+00:00</time></trkpt><trkpt lat="30.85892868" lon="34.82405472"><ele>451.1</ele><time>2013-11-21T07:52:57.0000000+00:00</time></trkpt><trkpt lat="30.8589859" lon="34.82400513"><ele>452.2</ele><time>2013-11-21T07:53:02.0000000+00:00</time></trkpt><trkpt lat="30.85907745" lon="34.82397842"><ele>453.5</ele><time>2013-11-21T07:53:07.0000000+00:00</time></trkpt><trkpt lat="30.85913277" lon="34.82398605"><ele>455.0</ele><time>2013-11-21T07:53:12.0000000+00:00</time></trkpt><trkpt lat="30.85918617" lon="34.82401657"><ele>456.3</ele><time>2013-11-21T07:53:17.0000000+00:00</time></trkpt><trkpt lat="30.85922241" lon="34.82402039"><ele>456.7</ele><time>2013-11-21T07:53:22.0000000+00:00</time></trkpt><trkpt lat="30.85925484" lon="34.82404709"><ele>458.5</ele><time>2013-11-21T07:53:27.0000000+00:00</time></trkpt><trkpt lat="30.85926628" lon="34.82404327"><ele>460.1</ele><time>2013-11-21T07:53:32.0000000+00:00</time></trkpt><trkpt lat="30.85928917" lon="34.82405853"><ele>461.2</ele><time>2013-11-21T07:53:37.0000000+00:00</time></trkpt><trkpt lat="30.85932922" lon="34.82406616"><ele>462.0</ele><time>2013-11-21T07:53:42.0000000+00:00</time></trkpt><trkpt lat="30.85938263" lon="34.82408142"><ele>463.6</ele><time>2013-11-21T07:53:47.0000000+00:00</time></trkpt><trkpt lat="30.8594265" lon="34.82409287"><ele>465.0</ele><time>2013-11-21T07:53:52.0000000+00:00</time></trkpt><trkpt lat="30.85948944" lon="34.82410812"><ele>465.9</ele><time>2013-11-21T07:53:57.0000000+00:00</time></trkpt><trkpt lat="30.85952759" lon="34.82407761"><ele>466.6</ele><time>2013-11-21T07:54:02.0000000+00:00</time></trkpt><trkpt lat="30.85958862" lon="34.82404709"><ele>467.4</ele><time>2013-11-21T07:54:07.0000000+00:00</time></trkpt><trkpt lat="30.8596859" lon="34.82398605"><ele>468.2</ele><time>2013-11-21T07:54:12.0000000+00:00</time></trkpt><trkpt lat="30.85981178" lon="34.82396317"><ele>469.6</ele><time>2013-11-21T07:54:17.0000000+00:00</time></trkpt><trkpt lat="30.85990524" lon="34.82395554"><ele>470.1</ele><time>2013-11-21T07:54:22.0000000+00:00</time></trkpt><trkpt lat="30.85999298" lon="34.82395172"><ele>470.0</ele><time>2013-11-21T07:54:27.0000000+00:00</time></trkpt><trkpt lat="30.86008072" lon="34.82394791"><ele>470.0</ele><time>2013-11-21T07:54:32.0000000+00:00</time></trkpt><trkpt lat="30.86013222" lon="34.82395935"><ele>469.1</ele><time>2013-11-21T07:54:37.0000000+00:00</time></trkpt><trkpt lat="30.86015129" lon="34.82400894"><ele>468.8</ele><time>2013-11-21T07:54:42.0000000+00:00</time></trkpt><trkpt lat="30.86016083" lon="34.82405853"><ele>469.3</ele><time>2013-11-21T07:54:47.0000000+00:00</time></trkpt><trkpt lat="30.86019135" lon="34.82410049"><ele>469.2</ele><time>2013-11-21T07:54:52.0000000+00:00</time></trkpt><trkpt lat="30.86026192" lon="34.8241539"><ele>469.0</ele><time>2013-11-21T07:54:57.0000000+00:00</time></trkpt><trkpt lat="30.86029434" lon="34.8241806"><ele>469.7</ele><time>2013-11-21T07:55:02.0000000+00:00</time></trkpt><trkpt lat="30.86032105" lon="34.82416916"><ele>469.1</ele><time>2013-11-21T07:55:07.0000000+00:00</time></trkpt><trkpt lat="30.86034203" lon="34.82415009"><ele>469.2</ele><time>2013-11-21T07:55:12.0000000+00:00</time></trkpt><trkpt lat="30.86041069" lon="34.82409668"><ele>469.3</ele><time>2013-11-21T07:55:17.0000000+00:00</time></trkpt><trkpt lat="30.86048126" lon="34.82404327"><ele>469.7</ele><time>2013-11-21T07:55:22.0000000+00:00</time></trkpt><trkpt lat="30.86049652" lon="34.82395554"><ele>470.0</ele><time>2013-11-21T07:55:27.0000000+00:00</time></trkpt><trkpt lat="30.86053658" lon="34.82391357"><ele>469.9</ele><time>2013-11-21T07:55:32.0000000+00:00</time></trkpt><trkpt lat="30.86054802" lon="34.82388687"><ele>468.3</ele><time>2013-11-21T07:55:37.0000000+00:00</time></trkpt><trkpt lat="30.86055565" lon="34.82391739"><ele>468.5</ele><time>2013-11-21T07:55:42.0000000+00:00</time></trkpt><trkpt lat="30.86055374" lon="34.82392502"><ele>468.9</ele><time>2013-11-21T07:55:47.0000000+00:00</time></trkpt><trkpt lat="30.86057091" lon="34.82391739"><ele>469.2</ele><time>2013-11-21T07:55:52.0000000+00:00</time></trkpt><trkpt lat="30.86060715" lon="34.82388687"><ele>469.3</ele><time>2013-11-21T07:55:57.0000000+00:00</time></trkpt><trkpt lat="30.86063957" lon="34.82384872"><ele>469.4</ele><time>2013-11-21T07:56:02.0000000+00:00</time></trkpt><trkpt lat="30.86066628" lon="34.82379913"><ele>469.8</ele><time>2013-11-21T07:56:07.0000000+00:00</time></trkpt><trkpt lat="30.86068916" lon="34.82374954"><ele>470.6</ele><time>2013-11-21T07:56:12.0000000+00:00</time></trkpt><trkpt lat="30.86072922" lon="34.82369995"><ele>470.9</ele><time>2013-11-21T07:56:17.0000000+00:00</time></trkpt><trkpt lat="30.86075401" lon="34.82365418"><ele>471.4</ele><time>2013-11-21T07:56:22.0000000+00:00</time></trkpt><trkpt lat="30.8608036" lon="34.82362366"><ele>471.9</ele><time>2013-11-21T07:56:27.0000000+00:00</time></trkpt><trkpt lat="30.86084366" lon="34.82358551"><ele>472.2</ele><time>2013-11-21T07:56:32.0000000+00:00</time></trkpt><trkpt lat="30.86086273" lon="34.82354355"><ele>472.9</ele><time>2013-11-21T07:56:37.0000000+00:00</time></trkpt><trkpt lat="30.86089706" lon="34.8235321"><ele>473.3</ele><time>2013-11-21T07:56:42.0000000+00:00</time></trkpt><trkpt lat="30.8609333" lon="34.82351685"><ele>473.6</ele><time>2013-11-21T07:56:47.0000000+00:00</time></trkpt><trkpt lat="30.86096954" lon="34.82348251"><ele>473.7</ele><time>2013-11-21T07:56:52.0000000+00:00</time></trkpt><trkpt lat="30.86101341" lon="34.82344055"><ele>474.4</ele><time>2013-11-21T07:56:57.0000000+00:00</time></trkpt><trkpt lat="30.86104775" lon="34.82337952"><ele>475.4</ele><time>2013-11-21T07:57:02.0000000+00:00</time></trkpt><trkpt lat="30.8611145" lon="34.82340622"><ele>476.7</ele><time>2013-11-21T07:57:07.0000000+00:00</time></trkpt><trkpt lat="30.86114883" lon="34.82341003"><ele>476.7</ele><time>2013-11-21T07:57:12.0000000+00:00</time></trkpt><trkpt lat="30.86120796" lon="34.82342529"><ele>477.2</ele><time>2013-11-21T07:57:17.0000000+00:00</time></trkpt><trkpt lat="30.86127663" lon="34.82345581"><ele>477.7</ele><time>2013-11-21T07:57:22.0000000+00:00</time></trkpt><trkpt lat="30.86133385" lon="34.82345581"><ele>478.0</ele><time>2013-11-21T07:57:27.0000000+00:00</time></trkpt><trkpt lat="30.86135483" lon="34.823452"><ele>478.3</ele><time>2013-11-21T07:57:32.0000000+00:00</time></trkpt><trkpt lat="30.86138725" lon="34.82345963"><ele>478.2</ele><time>2013-11-21T07:57:37.0000000+00:00</time></trkpt><trkpt lat="30.86142921" lon="34.82343292"><ele>478.2</ele><time>2013-11-21T07:57:42.0000000+00:00</time></trkpt><trkpt lat="30.86146164" lon="34.82341766"><ele>478.0</ele><time>2013-11-21T07:57:47.0000000+00:00</time></trkpt><trkpt lat="30.86148453" lon="34.82340241"><ele>478.1</ele><time>2013-11-21T07:57:52.0000000+00:00</time></trkpt><trkpt lat="30.86150169" lon="34.82337952"><ele>478.3</ele><time>2013-11-21T07:57:57.0000000+00:00</time></trkpt><trkpt lat="30.86150169" lon="34.82335663"><ele>478.5</ele><time>2013-11-21T07:58:02.0000000+00:00</time></trkpt><trkpt lat="30.86154175" lon="34.82332611"><ele>478.8</ele><time>2013-11-21T07:58:07.0000000+00:00</time></trkpt><trkpt lat="30.86155701" lon="34.82330322"><ele>478.6</ele><time>2013-11-21T07:58:12.0000000+00:00</time></trkpt><trkpt lat="30.86156845" lon="34.82323837"><ele>478.1</ele><time>2013-11-21T07:58:17.0000000+00:00</time></trkpt><trkpt lat="30.86158943" lon="34.82317734"><ele>478.8</ele><time>2013-11-21T07:58:22.0000000+00:00</time></trkpt><trkpt lat="30.86159515" lon="34.82309341"><ele>480.3</ele><time>2013-11-21T07:58:27.0000000+00:00</time></trkpt><trkpt lat="30.86161804" lon="34.82305145"><ele>480.8</ele><time>2013-11-21T07:58:32.0000000+00:00</time></trkpt><trkpt lat="30.86164665" lon="34.82302094"><ele>481.1</ele><time>2013-11-21T07:58:37.0000000+00:00</time></trkpt><trkpt lat="30.86168861" lon="34.82297897"><ele>480.7</ele><time>2013-11-21T07:58:42.0000000+00:00</time></trkpt><trkpt lat="30.86170387" lon="34.82294846"><ele>481.3</ele><time>2013-11-21T07:58:47.0000000+00:00</time></trkpt><trkpt lat="30.86171722" lon="34.82293701"><ele>481.5</ele><time>2013-11-21T07:58:52.0000000+00:00</time></trkpt><trkpt lat="30.86171913" lon="34.82291031"><ele>481.6</ele><time>2013-11-21T07:58:57.0000000+00:00</time></trkpt><trkpt lat="30.86172295" lon="34.82288361"><ele>482.1</ele><time>2013-11-21T07:59:02.0000000+00:00</time></trkpt><trkpt lat="30.8617363" lon="34.82286453"><ele>482.4</ele><time>2013-11-21T07:59:07.0000000+00:00</time></trkpt><trkpt lat="30.86170578" lon="34.8228302"><ele>482.4</ele><time>2013-11-21T07:59:12.0000000+00:00</time></trkpt><trkpt lat="30.86170006" lon="34.82279587"><ele>482.6</ele><time>2013-11-21T07:59:17.0000000+00:00</time></trkpt><trkpt lat="30.86171341" lon="34.82279587"><ele>482.9</ele><time>2013-11-21T07:59:22.0000000+00:00</time></trkpt><trkpt lat="30.8617115" lon="34.82279205"><ele>483.3</ele><time>2013-11-21T07:59:27.0000000+00:00</time></trkpt><trkpt lat="30.8617115" lon="34.82278824"><ele>483.8</ele><time>2013-11-21T07:59:32.0000000+00:00</time></trkpt><trkpt lat="30.86171341" lon="34.82278442"><ele>484.1</ele><time>2013-11-21T07:59:37.0000000+00:00</time></trkpt><trkpt lat="30.86171722" lon="34.82278442"><ele>484.4</ele><time>2013-11-21T07:59:42.0000000+00:00</time></trkpt><trkpt lat="30.86171913" lon="34.82278061"><ele>484.7</ele><time>2013-11-21T07:59:47.0000000+00:00</time></trkpt><trkpt lat="30.86172485" lon="34.82277298"><ele>484.9</ele><time>2013-11-21T07:59:52.0000000+00:00</time></trkpt><trkpt lat="30.86174011" lon="34.82274628"><ele>485.0</ele><time>2013-11-21T07:59:57.0000000+00:00</time></trkpt><trkpt lat="30.861763" lon="34.82271576"><ele>485.4</ele><time>2013-11-21T08:00:02.0000000+00:00</time></trkpt><trkpt lat="30.8617878" lon="34.82268143"><ele>485.5</ele><time>2013-11-21T08:00:07.0000000+00:00</time></trkpt><trkpt lat="30.86180496" lon="34.82267761"><ele>485.8</ele><time>2013-11-21T08:00:12.0000000+00:00</time></trkpt><trkpt lat="30.86183929" lon="34.82266998"><ele>486.1</ele><time>2013-11-21T08:00:17.0000000+00:00</time></trkpt><trkpt lat="30.86187363" lon="34.82267761"><ele>485.9</ele><time>2013-11-21T08:00:22.0000000+00:00</time></trkpt><trkpt lat="30.8619175" lon="34.82267761"><ele>486.1</ele><time>2013-11-21T08:00:27.0000000+00:00</time></trkpt><trkpt lat="30.86193848" lon="34.82265472"><ele>486.2</ele><time>2013-11-21T08:00:32.0000000+00:00</time></trkpt><trkpt lat="30.86194229" lon="34.82262421"><ele>486.3</ele><time>2013-11-21T08:00:37.0000000+00:00</time></trkpt><trkpt lat="30.86198616" lon="34.82258606"><ele>486.8</ele><time>2013-11-21T08:00:42.0000000+00:00</time></trkpt><trkpt lat="30.86204338" lon="34.82253647"><ele>486.9</ele><time>2013-11-21T08:00:47.0000000+00:00</time></trkpt><trkpt lat="30.86208344" lon="34.82246018"><ele>486.9</ele><time>2013-11-21T08:00:52.0000000+00:00</time></trkpt><trkpt lat="30.86213493" lon="34.82241058"><ele>487.0</ele><time>2013-11-21T08:00:57.0000000+00:00</time></trkpt><trkpt lat="30.86222076" lon="34.82237244"><ele>487.3</ele><time>2013-11-21T08:01:02.0000000+00:00</time></trkpt><trkpt lat="30.86227417" lon="34.82233048"><ele>488.2</ele><time>2013-11-21T08:01:07.0000000+00:00</time></trkpt><trkpt lat="30.86234283" lon="34.82229233"><ele>489.1</ele><time>2013-11-21T08:01:12.0000000+00:00</time></trkpt><trkpt lat="30.86233902" lon="34.82225418"><ele>489.8</ele><time>2013-11-21T08:01:17.0000000+00:00</time></trkpt><trkpt lat="30.86235619" lon="34.82225418"><ele>490.0</ele><time>2013-11-21T08:01:22.0000000+00:00</time></trkpt><trkpt lat="30.86236954" lon="34.82222748"><ele>490.5</ele><time>2013-11-21T08:01:27.0000000+00:00</time></trkpt><trkpt lat="30.86239052" lon="34.82218552"><ele>490.7</ele><time>2013-11-21T08:01:32.0000000+00:00</time></trkpt><trkpt lat="30.86243439" lon="34.82213974"><ele>491.7</ele><time>2013-11-21T08:01:37.0000000+00:00</time></trkpt><trkpt lat="30.8624382" lon="34.82209778"><ele>491.8</ele><time>2013-11-21T08:01:42.0000000+00:00</time></trkpt><trkpt lat="30.86245537" lon="34.82204819"><ele>491.5</ele><time>2013-11-21T08:01:47.0000000+00:00</time></trkpt><trkpt lat="30.86248207" lon="34.82203293"><ele>491.3</ele><time>2013-11-21T08:01:52.0000000+00:00</time></trkpt><trkpt lat="30.86250496" lon="34.8219986"><ele>491.5</ele><time>2013-11-21T08:01:57.0000000+00:00</time></trkpt><trkpt lat="30.86249924" lon="34.82190323"><ele>492.1</ele><time>2013-11-21T08:02:02.0000000+00:00</time></trkpt><trkpt lat="30.86253357" lon="34.82186508"><ele>492.6</ele><time>2013-11-21T08:02:07.0000000+00:00</time></trkpt><trkpt lat="30.86256981" lon="34.82181931"><ele>492.5</ele><time>2013-11-21T08:02:12.0000000+00:00</time></trkpt><trkpt lat="30.8625927" lon="34.82178116"><ele>492.8</ele><time>2013-11-21T08:02:17.0000000+00:00</time></trkpt><trkpt lat="30.86262703" lon="34.82177353"><ele>493.5</ele><time>2013-11-21T08:02:22.0000000+00:00</time></trkpt><trkpt lat="30.86264038" lon="34.82177734"><ele>493.8</ele><time>2013-11-21T08:02:27.0000000+00:00</time></trkpt><trkpt lat="30.86264229" lon="34.82177353"><ele>493.8</ele><time>2013-11-21T08:02:32.0000000+00:00</time></trkpt><trkpt lat="30.86264229" lon="34.82176209"><ele>493.9</ele><time>2013-11-21T08:02:37.0000000+00:00</time></trkpt><trkpt lat="30.8626461" lon="34.82172012"><ele>493.9</ele><time>2013-11-21T08:02:42.0000000+00:00</time></trkpt><trkpt lat="30.8626461" lon="34.82167816"><ele>494.1</ele><time>2013-11-21T08:02:47.0000000+00:00</time></trkpt><trkpt lat="30.86262703" lon="34.82162476"><ele>494.3</ele><time>2013-11-21T08:02:52.0000000+00:00</time></trkpt><trkpt lat="30.86261749" lon="34.82158279"><ele>494.9</ele><time>2013-11-21T08:02:57.0000000+00:00</time></trkpt><trkpt lat="30.86263084" lon="34.82158661"><ele>496.4</ele><time>2013-11-21T08:03:02.0000000+00:00</time></trkpt><trkpt lat="30.86262894" lon="34.82156754"><ele>496.7</ele><time>2013-11-21T08:03:07.0000000+00:00</time></trkpt><trkpt lat="30.86260796" lon="34.82154083"><ele>496.9</ele><time>2013-11-21T08:03:12.0000000+00:00</time></trkpt><trkpt lat="30.86259079" lon="34.82149887"><ele>497.6</ele><time>2013-11-21T08:03:17.0000000+00:00</time></trkpt><trkpt lat="30.86255455" lon="34.82147598"><ele>497.9</ele><time>2013-11-21T08:03:22.0000000+00:00</time></trkpt><trkpt lat="30.86254692" lon="34.82142639"><ele>498.6</ele><time>2013-11-21T08:03:27.0000000+00:00</time></trkpt><trkpt lat="30.86255264" lon="34.82143021"><ele>499.2</ele><time>2013-11-21T08:03:32.0000000+00:00</time></trkpt><trkpt lat="30.86255074" lon="34.82142639"><ele>499.4</ele><time>2013-11-21T08:03:37.0000000+00:00</time></trkpt><trkpt lat="30.86254883" lon="34.82142639"><ele>499.7</ele><time>2013-11-21T08:03:42.0000000+00:00</time></trkpt><trkpt lat="30.86255074" lon="34.82141876"><ele>500.0</ele><time>2013-11-21T08:03:47.0000000+00:00</time></trkpt><trkpt lat="30.86255264" lon="34.82141495"><ele>500.3</ele><time>2013-11-21T08:03:52.0000000+00:00</time></trkpt><trkpt lat="30.86255646" lon="34.82141876"><ele>500.7</ele><time>2013-11-21T08:03:57.0000000+00:00</time></trkpt><trkpt lat="30.86256027" lon="34.82141495"><ele>501.1</ele><time>2013-11-21T08:04:02.0000000+00:00</time></trkpt><trkpt lat="30.86256027" lon="34.82141495"><ele>501.1</ele><time>2013-11-21T08:04:07.0000000+00:00</time></trkpt><trkpt lat="30.86256027" lon="34.82141495"><ele>501.1</ele><time>2013-11-21T08:04:12.0000000+00:00</time></trkpt><trkpt lat="30.86256409" lon="34.82141113"><ele>501.1</ele><time>2013-11-21T08:04:17.0000000+00:00</time></trkpt><trkpt lat="30.8625679" lon="34.82139969"><ele>501.2</ele><time>2013-11-21T08:04:22.0000000+00:00</time></trkpt><trkpt lat="30.86257172" lon="34.82138825"><ele>501.3</ele><time>2013-11-21T08:04:27.0000000+00:00</time></trkpt><trkpt lat="30.86255646" lon="34.82133102"><ele>502.3</ele><time>2013-11-21T08:04:32.0000000+00:00</time></trkpt><trkpt lat="30.8625679" lon="34.82127762"><ele>503.9</ele><time>2013-11-21T08:04:37.0000000+00:00</time></trkpt><trkpt lat="30.86259079" lon="34.82123947"><ele>506.8</ele><time>2013-11-21T08:04:42.0000000+00:00</time></trkpt><trkpt lat="30.86260414" lon="34.82119751"><ele>507.7</ele><time>2013-11-21T08:04:47.0000000+00:00</time></trkpt><trkpt lat="30.86261368" lon="34.82116699"><ele>507.9</ele><time>2013-11-21T08:04:52.0000000+00:00</time></trkpt><trkpt lat="30.8625927" lon="34.82113266"><ele>508.7</ele><time>2013-11-21T08:04:57.0000000+00:00</time></trkpt><trkpt lat="30.86257362" lon="34.82110596"><ele>509.9</ele><time>2013-11-21T08:05:02.0000000+00:00</time></trkpt><trkpt lat="30.86255074" lon="34.82105255"><ele>511.0</ele><time>2013-11-21T08:05:07.0000000+00:00</time></trkpt><trkpt lat="30.86253929" lon="34.8210144"><ele>511.8</ele><time>2013-11-21T08:05:12.0000000+00:00</time></trkpt><trkpt lat="30.86253357" lon="34.82102585"><ele>512.4</ele><time>2013-11-21T08:05:17.0000000+00:00</time></trkpt><trkpt lat="30.86252594" lon="34.82103348"><ele>512.7</ele><time>2013-11-21T08:05:22.0000000+00:00</time></trkpt><trkpt lat="30.86252976" lon="34.82102203"><ele>513.1</ele><time>2013-11-21T08:05:27.0000000+00:00</time></trkpt><trkpt lat="30.86256218" lon="34.82099915"><ele>512.8</ele><time>2013-11-21T08:05:32.0000000+00:00</time></trkpt><trkpt lat="30.8625927" lon="34.82097626"><ele>513.5</ele><time>2013-11-21T08:05:37.0000000+00:00</time></trkpt><trkpt lat="30.86262512" lon="34.82095718"><ele>514.5</ele><time>2013-11-21T08:05:42.0000000+00:00</time></trkpt><trkpt lat="30.86269951" lon="34.82097626"><ele>515.3</ele><time>2013-11-21T08:05:47.0000000+00:00</time></trkpt><trkpt lat="30.8627243" lon="34.82097244"><ele>517.1</ele><time>2013-11-21T08:05:52.0000000+00:00</time></trkpt><trkpt lat="30.86276627" lon="34.820961"><ele>517.5</ele><time>2013-11-21T08:05:57.0000000+00:00</time></trkpt><trkpt lat="30.86280823" lon="34.82095718"><ele>518.2</ele><time>2013-11-21T08:06:02.0000000+00:00</time></trkpt><trkpt lat="30.86282539" lon="34.820961"><ele>519.1</ele><time>2013-11-21T08:06:07.0000000+00:00</time></trkpt><trkpt lat="30.86286926" lon="34.82093811"><ele>519.7</ele><time>2013-11-21T08:06:12.0000000+00:00</time></trkpt><trkpt lat="30.86289978" lon="34.82086945"><ele>520.1</ele><time>2013-11-21T08:06:17.0000000+00:00</time></trkpt><trkpt lat="30.86291504" lon="34.82081223"><ele>521.0</ele><time>2013-11-21T08:06:22.0000000+00:00</time></trkpt><trkpt lat="30.86294365" lon="34.82076645"><ele>521.5</ele><time>2013-11-21T08:06:27.0000000+00:00</time></trkpt><trkpt lat="30.86294937" lon="34.82073212"><ele>521.8</ele><time>2013-11-21T08:06:32.0000000+00:00</time></trkpt><trkpt lat="30.86297226" lon="34.82072449"><ele>522.1</ele><time>2013-11-21T08:06:37.0000000+00:00</time></trkpt><trkpt lat="30.86304283" lon="34.82065964"><ele>522.5</ele><time>2013-11-21T08:06:42.0000000+00:00</time></trkpt><trkpt lat="30.86312294" lon="34.82062531"><ele>521.7</ele><time>2013-11-21T08:06:47.0000000+00:00</time></trkpt><trkpt lat="30.8631382" lon="34.82063294"><ele>521.6</ele><time>2013-11-21T08:06:52.0000000+00:00</time></trkpt><trkpt lat="30.86318588" lon="34.82063675"><ele>521.6</ele><time>2013-11-21T08:06:57.0000000+00:00</time></trkpt><trkpt lat="30.86323738" lon="34.82060623"><ele>522.0</ele><time>2013-11-21T08:07:02.0000000+00:00</time></trkpt><trkpt lat="30.86329269" lon="34.82061386"><ele>522.0</ele><time>2013-11-21T08:07:07.0000000+00:00</time></trkpt><trkpt lat="30.86333084" lon="34.82062531"><ele>522.8</ele><time>2013-11-21T08:07:12.0000000+00:00</time></trkpt><trkpt lat="30.86335945" lon="34.82064819"><ele>523.4</ele><time>2013-11-21T08:07:17.0000000+00:00</time></trkpt><trkpt lat="30.86339378" lon="34.82069016"><ele>523.8</ele><time>2013-11-21T08:07:22.0000000+00:00</time></trkpt><trkpt lat="30.86343002" lon="34.82074738"><ele>523.5</ele><time>2013-11-21T08:07:27.0000000+00:00</time></trkpt><trkpt lat="30.86349869" lon="34.82077408"><ele>523.8</ele><time>2013-11-21T08:07:32.0000000+00:00</time></trkpt><trkpt lat="30.86354446" lon="34.82081986"><ele>524.8</ele><time>2013-11-21T08:07:37.0000000+00:00</time></trkpt><trkpt lat="30.86356545" lon="34.82086182"><ele>526.0</ele><time>2013-11-21T08:07:42.0000000+00:00</time></trkpt><trkpt lat="30.86357117" lon="34.82089233"><ele>526.2</ele><time>2013-11-21T08:07:47.0000000+00:00</time></trkpt><trkpt lat="30.86360931" lon="34.82093811"><ele>526.8</ele><time>2013-11-21T08:07:52.0000000+00:00</time></trkpt><trkpt lat="30.86367226" lon="34.82101059"><ele>527.5</ele><time>2013-11-21T08:07:57.0000000+00:00</time></trkpt><trkpt lat="30.86375427" lon="34.82105637"><ele>528.3</ele><time>2013-11-21T08:08:02.0000000+00:00</time></trkpt><trkpt lat="30.86380005" lon="34.82111359"><ele>528.8</ele><time>2013-11-21T08:08:07.0000000+00:00</time></trkpt><trkpt lat="30.86388397" lon="34.82117081"><ele>529.6</ele><time>2013-11-21T08:08:12.0000000+00:00</time></trkpt><trkpt lat="30.86397171" lon="34.82117844"><ele>531.2</ele><time>2013-11-21T08:08:17.0000000+00:00</time></trkpt><trkpt lat="30.86401177" lon="34.8211937"><ele>533.3</ele><time>2013-11-21T08:08:22.0000000+00:00</time></trkpt><trkpt lat="30.86400795" lon="34.82118988"><ele>534.4</ele><time>2013-11-21T08:08:27.0000000+00:00</time></trkpt><trkpt lat="30.86400223" lon="34.82118225"><ele>536.6</ele><time>2013-11-21T08:08:32.0000000+00:00</time></trkpt><trkpt lat="30.86399841" lon="34.82121277"><ele>537.7</ele><time>2013-11-21T08:08:37.0000000+00:00</time></trkpt><trkpt lat="30.86400414" lon="34.82121658"><ele>538.0</ele><time>2013-11-21T08:08:42.0000000+00:00</time></trkpt><trkpt lat="30.86401558" lon="34.82122803"><ele>538.6</ele><time>2013-11-21T08:08:47.0000000+00:00</time></trkpt><trkpt lat="30.86404991" lon="34.82128525"><ele>539.2</ele><time>2013-11-21T08:08:52.0000000+00:00</time></trkpt><trkpt lat="30.86408043" lon="34.82136536"><ele>539.3</ele><time>2013-11-21T08:08:57.0000000+00:00</time></trkpt><trkpt lat="30.86412621" lon="34.82146454"><ele>539.3</ele><time>2013-11-21T08:09:02.0000000+00:00</time></trkpt><trkpt lat="30.86414909" lon="34.82151032"><ele>539.6</ele><time>2013-11-21T08:09:07.0000000+00:00</time></trkpt><trkpt lat="30.86414528" lon="34.82154465"><ele>540.1</ele><time>2013-11-21T08:09:12.0000000+00:00</time></trkpt><trkpt lat="30.86420822" lon="34.82160568"><ele>540.2</ele><time>2013-11-21T08:09:17.0000000+00:00</time></trkpt><trkpt lat="30.86421394" lon="34.82163239"><ele>540.9</ele><time>2013-11-21T08:09:22.0000000+00:00</time></trkpt><trkpt lat="30.86421394" lon="34.82165146"><ele>541.6</ele><time>2013-11-21T08:09:27.0000000+00:00</time></trkpt><trkpt lat="30.86422539" lon="34.82168198"><ele>542.2</ele><time>2013-11-21T08:09:32.0000000+00:00</time></trkpt><trkpt lat="30.86425209" lon="34.82172394"><ele>544.4</ele><time>2013-11-21T08:09:37.0000000+00:00</time></trkpt><trkpt lat="30.86428452" lon="34.82175446"><ele>545.6</ele><time>2013-11-21T08:09:42.0000000+00:00</time></trkpt><trkpt lat="30.86428261" lon="34.82180405"><ele>547.4</ele><time>2013-11-21T08:09:47.0000000+00:00</time></trkpt><trkpt lat="30.86427116" lon="34.82180786"><ele>547.8</ele><time>2013-11-21T08:09:52.0000000+00:00</time></trkpt><trkpt lat="30.86427689" lon="34.82180786"><ele>548.3</ele><time>2013-11-21T08:09:57.0000000+00:00</time></trkpt><trkpt lat="30.86428833" lon="34.82187653"><ele>548.8</ele><time>2013-11-21T08:10:02.0000000+00:00</time></trkpt><trkpt lat="30.86430359" lon="34.8220253"><ele>549.4</ele><time>2013-11-21T08:10:07.0000000+00:00</time></trkpt><trkpt lat="30.86426926" lon="34.82220078"><ele>549.7</ele><time>2013-11-21T08:10:12.0000000+00:00</time></trkpt><trkpt lat="30.86420822" lon="34.82238007"><ele>551.7</ele><time>2013-11-21T08:10:17.0000000+00:00</time></trkpt><trkpt lat="30.86421585" lon="34.82256699"><ele>550.3</ele><time>2013-11-21T08:10:22.0000000+00:00</time></trkpt><trkpt lat="30.86422157" lon="34.82271576"><ele>551.1</ele><time>2013-11-21T08:10:27.0000000+00:00</time></trkpt><trkpt lat="30.86424637" lon="34.82288742"><ele>549.7</ele><time>2013-11-21T08:10:32.0000000+00:00</time></trkpt><trkpt lat="30.86425781" lon="34.82300949"><ele>549.0</ele><time>2013-11-21T08:10:37.0000000+00:00</time></trkpt><trkpt lat="30.86428452" lon="34.8230896"><ele>551.1</ele><time>2013-11-21T08:10:42.0000000+00:00</time></trkpt><trkpt lat="30.86428833" lon="34.82309723"><ele>551.3</ele><time>2013-11-21T08:10:47.0000000+00:00</time></trkpt><trkpt lat="30.86428642" lon="34.82309723"><ele>551.5</ele><time>2013-11-21T08:10:52.0000000+00:00</time></trkpt><trkpt lat="30.86428452" lon="34.82309723"><ele>551.6</ele><time>2013-11-21T08:10:57.0000000+00:00</time></trkpt><trkpt lat="30.86428642" lon="34.82309723"><ele>551.6</ele><time>2013-11-21T08:11:02.0000000+00:00</time></trkpt><trkpt lat="30.86428452" lon="34.82309723"><ele>551.6</ele><time>2013-11-21T08:11:07.0000000+00:00</time></trkpt><trkpt lat="30.86428452" lon="34.82309723"><ele>551.7</ele><time>2013-11-21T08:11:12.0000000+00:00</time></trkpt><trkpt lat="30.8642807" lon="34.82309723"><ele>551.8</ele><time>2013-11-21T08:11:17.0000000+00:00</time></trkpt><trkpt lat="30.8642807" lon="34.82309723"><ele>551.8</ele><time>2013-11-21T08:11:22.0000000+00:00</time></trkpt><trkpt lat="30.8642807" lon="34.82309723"><ele>551.7</ele><time>2013-11-21T08:11:27.0000000+00:00</time></trkpt><trkpt lat="30.8642807" lon="34.82309723"><ele>551.8</ele><time>2013-11-21T08:11:32.0000000+00:00</time></trkpt><trkpt lat="30.8642807" lon="34.82309341"><ele>551.8</ele><time>2013-11-21T08:11:37.0000000+00:00</time></trkpt><trkpt lat="30.8642807" lon="34.82309341"><ele>551.8</ele><time>2013-11-21T08:11:42.0000000+00:00</time></trkpt><trkpt lat="30.8642807" lon="34.82309341"><ele>551.8</ele><time>2013-11-21T08:11:47.0000000+00:00</time></trkpt><trkpt lat="30.8642807" lon="34.82309341"><ele>551.8</ele><time>2013-11-21T08:11:52.0000000+00:00</time></trkpt><trkpt lat="30.8642807" lon="34.82309341"><ele>551.8</ele><time>2013-11-21T08:11:57.0000000+00:00</time></trkpt><trkpt lat="30.8642807" lon="34.82309723"><ele>551.8</ele><time>2013-11-21T08:12:02.0000000+00:00</time></trkpt><trkpt lat="30.86426735" lon="34.82317734"><ele>551.9</ele><time>2013-11-21T08:12:07.0000000+00:00</time></trkpt><trkpt lat="30.864254" lon="34.82337189"><ele>549.9</ele><time>2013-11-21T08:12:12.0000000+00:00</time></trkpt><trkpt lat="30.86423683" lon="34.82357025"><ele>547.9</ele><time>2013-11-21T08:12:17.0000000+00:00</time></trkpt><trkpt lat="30.86423111" lon="34.82371903"><ele>546.9</ele><time>2013-11-21T08:12:22.0000000+00:00</time></trkpt><trkpt lat="30.86423302" lon="34.82386017"><ele>545.3</ele><time>2013-11-21T08:12:27.0000000+00:00</time></trkpt><trkpt lat="30.86423302" lon="34.8239708"><ele>544.5</ele><time>2013-11-21T08:12:32.0000000+00:00</time></trkpt><trkpt lat="30.86424255" lon="34.82409287"><ele>543.3</ele><time>2013-11-21T08:12:37.0000000+00:00</time></trkpt><trkpt lat="30.86423874" lon="34.82429886"><ele>543.2</ele><time>2013-11-21T08:12:42.0000000+00:00</time></trkpt><trkpt lat="30.86423302" lon="34.8245163"><ele>544.3</ele><time>2013-11-21T08:12:47.0000000+00:00</time></trkpt><trkpt lat="30.86421776" lon="34.82469177"><ele>542.3</ele><time>2013-11-21T08:12:52.0000000+00:00</time></trkpt><trkpt lat="30.86421585" lon="34.82470703"><ele>542.2</ele><time>2013-11-21T08:12:57.0000000+00:00</time></trkpt><trkpt lat="30.86420631" lon="34.82472229"><ele>541.4</ele><time>2013-11-21T08:13:02.0000000+00:00</time></trkpt><trkpt lat="30.8642025" lon="34.82473373"><ele>540.6</ele><time>2013-11-21T08:13:07.0000000+00:00</time></trkpt><trkpt lat="30.86419678" lon="34.82473755"><ele>539.9</ele><time>2013-11-21T08:13:12.0000000+00:00</time></trkpt><trkpt lat="30.86419106" lon="34.82474136"><ele>539.2</ele><time>2013-11-21T08:13:17.0000000+00:00</time></trkpt><trkpt lat="30.86419106" lon="34.82474136"><ele>538.5</ele><time>2013-11-21T08:13:22.0000000+00:00</time></trkpt><trkpt lat="30.86419296" lon="34.82473755"><ele>538.0</ele><time>2013-11-21T08:13:27.0000000+00:00</time></trkpt><trkpt lat="30.86419106" lon="34.82473373"><ele>537.5</ele><time>2013-11-21T08:13:32.0000000+00:00</time></trkpt><trkpt lat="30.86418724" lon="34.82472992"><ele>537.0</ele><time>2013-11-21T08:13:37.0000000+00:00</time></trkpt><trkpt lat="30.86418915" lon="34.82472611"><ele>536.6</ele><time>2013-11-21T08:13:42.0000000+00:00</time></trkpt><trkpt lat="30.86418915" lon="34.82472229"><ele>536.4</ele><time>2013-11-21T08:13:47.0000000+00:00</time></trkpt><trkpt lat="30.86418915" lon="34.82472229"><ele>536.4</ele><time>2013-11-21T08:13:52.0000000+00:00</time></trkpt><trkpt lat="30.86418915" lon="34.82472229"><ele>536.4</ele><time>2013-11-21T08:13:57.0000000+00:00</time></trkpt><trkpt lat="30.86418915" lon="34.82472229"><ele>536.4</ele><time>2013-11-21T08:14:02.0000000+00:00</time></trkpt><trkpt lat="30.86418915" lon="34.82472229"><ele>536.4</ele><time>2013-11-21T08:14:07.0000000+00:00</time></trkpt><trkpt lat="30.86418915" lon="34.82472229"><ele>536.5</ele><time>2013-11-21T08:14:12.0000000+00:00</time></trkpt><trkpt lat="30.86418724" lon="34.82472992"><ele>536.5</ele><time>2013-11-21T08:14:17.0000000+00:00</time></trkpt><trkpt lat="30.86417961" lon="34.8247757"><ele>536.5</ele><time>2013-11-21T08:14:22.0000000+00:00</time></trkpt><trkpt lat="30.86415672" lon="34.82499313"><ele>537.0</ele><time>2013-11-21T08:14:27.0000000+00:00</time></trkpt><trkpt lat="30.86414719" lon="34.82519531"><ele>538.6</ele><time>2013-11-21T08:14:32.0000000+00:00</time></trkpt><trkpt lat="30.86414528" lon="34.82528305"><ele>539.6</ele><time>2013-11-21T08:14:37.0000000+00:00</time></trkpt><trkpt lat="30.86414909" lon="34.82539749"><ele>539.6</ele><time>2013-11-21T08:14:42.0000000+00:00</time></trkpt><trkpt lat="30.86414528" lon="34.82553482"><ele>539.4</ele><time>2013-11-21T08:14:47.0000000+00:00</time></trkpt><trkpt lat="30.8641777" lon="34.82579041"><ele>539.8</ele><time>2013-11-21T08:14:52.0000000+00:00</time></trkpt><trkpt lat="30.86418343" lon="34.82623291"><ele>541.0</ele><time>2013-11-21T08:14:57.0000000+00:00</time></trkpt><trkpt lat="30.86419106" lon="34.82652664"><ele>541.1</ele><time>2013-11-21T08:15:02.0000000+00:00</time></trkpt><trkpt lat="30.86420822" lon="34.82661438"><ele>542.3</ele><time>2013-11-21T08:15:07.0000000+00:00</time></trkpt><trkpt lat="30.86420631" lon="34.82676697"><ele>543.2</ele><time>2013-11-21T08:15:12.0000000+00:00</time></trkpt><trkpt lat="30.86421204" lon="34.82709503"><ele>544.0</ele><time>2013-11-21T08:15:17.0000000+00:00</time></trkpt><trkpt lat="30.86420059" lon="34.82730866"><ele>545.3</ele><time>2013-11-21T08:15:22.0000000+00:00</time></trkpt><trkpt lat="30.86420631" lon="34.82739639"><ele>546.8</ele><time>2013-11-21T08:15:27.0000000+00:00</time></trkpt><trkpt lat="30.86420631" lon="34.82747269"><ele>547.5</ele><time>2013-11-21T08:15:32.0000000+00:00</time></trkpt><trkpt lat="30.86422348" lon="34.82759857"><ele>548.4</ele><time>2013-11-21T08:15:37.0000000+00:00</time></trkpt><trkpt lat="30.86421204" lon="34.82769394"><ele>549.0</ele><time>2013-11-21T08:15:42.0000000+00:00</time></trkpt><trkpt lat="30.86420822" lon="34.82780838"><ele>549.1</ele><time>2013-11-21T08:15:47.0000000+00:00</time></trkpt><trkpt lat="30.86422539" lon="34.82793808"><ele>548.2</ele><time>2013-11-21T08:15:52.0000000+00:00</time></trkpt><trkpt lat="30.86422157" lon="34.82805634"><ele>549.1</ele><time>2013-11-21T08:15:57.0000000+00:00</time></trkpt><trkpt lat="30.8642292" lon="34.82815933"><ele>548.8</ele><time>2013-11-21T08:16:02.0000000+00:00</time></trkpt><trkpt lat="30.86421013" lon="34.82825851"><ele>549.4</ele><time>2013-11-21T08:16:07.0000000+00:00</time></trkpt><trkpt lat="30.86421776" lon="34.82834625"><ele>551.6</ele><time>2013-11-21T08:16:12.0000000+00:00</time></trkpt><trkpt lat="30.86421204" lon="34.82843399"><ele>551.9</ele><time>2013-11-21T08:16:17.0000000+00:00</time></trkpt><trkpt lat="30.86421394" lon="34.82854462"><ele>551.2</ele><time>2013-11-21T08:16:22.0000000+00:00</time></trkpt><trkpt lat="30.86421585" lon="34.82866287"><ele>550.7</ele><time>2013-11-21T08:16:27.0000000+00:00</time></trkpt><trkpt lat="30.86424637" lon="34.82878876"><ele>550.8</ele><time>2013-11-21T08:16:32.0000000+00:00</time></trkpt><trkpt lat="30.86425209" lon="34.82892609"><ele>550.7</ele><time>2013-11-21T08:16:37.0000000+00:00</time></trkpt><trkpt lat="30.86424828" lon="34.82904434"><ele>552.5</ele><time>2013-11-21T08:16:42.0000000+00:00</time></trkpt><trkpt lat="30.86424065" lon="34.82917023"><ele>555.1</ele><time>2013-11-21T08:16:47.0000000+00:00</time></trkpt><trkpt lat="30.86425018" lon="34.82931519"><ele>556.5</ele><time>2013-11-21T08:16:52.0000000+00:00</time></trkpt><trkpt lat="30.86427307" lon="34.82944489"><ele>555.5</ele><time>2013-11-21T08:16:57.0000000+00:00</time></trkpt><trkpt lat="30.864254" lon="34.82956696"><ele>557.8</ele><time>2013-11-21T08:17:02.0000000+00:00</time></trkpt><trkpt lat="30.86426544" lon="34.82967377"><ele>558.3</ele><time>2013-11-21T08:17:07.0000000+00:00</time></trkpt><trkpt lat="30.86426735" lon="34.82976532"><ele>557.7</ele><time>2013-11-21T08:17:12.0000000+00:00</time></trkpt><trkpt lat="30.86425591" lon="34.82987976"><ele>556.5</ele><time>2013-11-21T08:17:17.0000000+00:00</time></trkpt><trkpt lat="30.86426163" lon="34.82999802"><ele>556.0</ele><time>2013-11-21T08:17:22.0000000+00:00</time></trkpt><trkpt lat="30.8642807" lon="34.83012009"><ele>556.6</ele><time>2013-11-21T08:17:27.0000000+00:00</time></trkpt><trkpt lat="30.86427116" lon="34.8302536"><ele>558.2</ele><time>2013-11-21T08:17:32.0000000+00:00</time></trkpt><trkpt lat="30.8642292" lon="34.83036423"><ele>559.0</ele><time>2013-11-21T08:17:37.0000000+00:00</time></trkpt><trkpt lat="30.86423111" lon="34.83047867"><ele>558.9</ele><time>2013-11-21T08:17:42.0000000+00:00</time></trkpt><trkpt lat="30.8642292" lon="34.83055878"><ele>560.3</ele><time>2013-11-21T08:17:47.0000000+00:00</time></trkpt><trkpt lat="30.86425209" lon="34.8306427"><ele>558.5</ele><time>2013-11-21T08:17:52.0000000+00:00</time></trkpt><trkpt lat="30.86426735" lon="34.83069992"><ele>558.9</ele><time>2013-11-21T08:17:57.0000000+00:00</time></trkpt><trkpt lat="30.86427307" lon="34.83076477"><ele>560.3</ele><time>2013-11-21T08:18:02.0000000+00:00</time></trkpt><trkpt lat="30.86425781" lon="34.83081055"><ele>561.5</ele><time>2013-11-21T08:18:07.0000000+00:00</time></trkpt><trkpt lat="30.86427307" lon="34.83087921"><ele>562.5</ele><time>2013-11-21T08:18:12.0000000+00:00</time></trkpt><trkpt lat="30.86428833" lon="34.83095169"><ele>562.3</ele><time>2013-11-21T08:18:17.0000000+00:00</time></trkpt><trkpt lat="30.86428642" lon="34.83101273"><ele>564.0</ele><time>2013-11-21T08:18:22.0000000+00:00</time></trkpt><trkpt lat="30.86429405" lon="34.83110046"><ele>566.1</ele><time>2013-11-21T08:18:27.0000000+00:00</time></trkpt><trkpt lat="30.86427879" lon="34.83116913"><ele>567.4</ele><time>2013-11-21T08:18:32.0000000+00:00</time></trkpt><trkpt lat="30.86425781" lon="34.83123016"><ele>568.6</ele><time>2013-11-21T08:18:37.0000000+00:00</time></trkpt><trkpt lat="30.86426163" lon="34.83127976"><ele>571.4</ele><time>2013-11-21T08:18:42.0000000+00:00</time></trkpt><trkpt lat="30.86427879" lon="34.83133698"><ele>572.7</ele><time>2013-11-21T08:18:47.0000000+00:00</time></trkpt><trkpt lat="30.86426544" lon="34.83140183"><ele>574.3</ele><time>2013-11-21T08:18:52.0000000+00:00</time></trkpt><trkpt lat="30.86425972" lon="34.83147049"><ele>574.2</ele><time>2013-11-21T08:18:57.0000000+00:00</time></trkpt><trkpt lat="30.86426163" lon="34.83154678"><ele>574.8</ele><time>2013-11-21T08:19:02.0000000+00:00</time></trkpt><trkpt lat="30.86426926" lon="34.83161926"><ele>576.0</ele><time>2013-11-21T08:19:07.0000000+00:00</time></trkpt><trkpt lat="30.86425781" lon="34.83169174"><ele>576.0</ele><time>2013-11-21T08:19:12.0000000+00:00</time></trkpt><trkpt lat="30.86426354" lon="34.83174896"><ele>576.4</ele><time>2013-11-21T08:19:17.0000000+00:00</time></trkpt><trkpt lat="30.864254" lon="34.83181381"><ele>577.1</ele><time>2013-11-21T08:19:22.0000000+00:00</time></trkpt><trkpt lat="30.86423492" lon="34.83187103"><ele>578.4</ele><time>2013-11-21T08:19:27.0000000+00:00</time></trkpt><trkpt lat="30.86422539" lon="34.8319397"><ele>579.5</ele><time>2013-11-21T08:19:32.0000000+00:00</time></trkpt><trkpt lat="30.86423302" lon="34.83202362"><ele>581.2</ele><time>2013-11-21T08:19:37.0000000+00:00</time></trkpt><trkpt lat="30.86422539" lon="34.83211517"><ele>581.5</ele><time>2013-11-21T08:19:42.0000000+00:00</time></trkpt><trkpt lat="30.86420822" lon="34.83218002"><ele>582.0</ele><time>2013-11-21T08:19:47.0000000+00:00</time></trkpt><trkpt lat="30.86418724" lon="34.83227158"><ele>582.0</ele><time>2013-11-21T08:19:52.0000000+00:00</time></trkpt><trkpt lat="30.86418343" lon="34.83235931"><ele>582.2</ele><time>2013-11-21T08:19:57.0000000+00:00</time></trkpt><trkpt lat="30.86418152" lon="34.83243942"><ele>582.0</ele><time>2013-11-21T08:20:02.0000000+00:00</time></trkpt><trkpt lat="30.86416626" lon="34.83251953"><ele>582.3</ele><time>2013-11-21T08:20:07.0000000+00:00</time></trkpt><trkpt lat="30.86413574" lon="34.83257294"><ele>582.6</ele><time>2013-11-21T08:20:12.0000000+00:00</time></trkpt><trkpt lat="30.86413384" lon="34.83262253"><ele>583.2</ele><time>2013-11-21T08:20:17.0000000+00:00</time></trkpt><trkpt lat="30.86414337" lon="34.83268356"><ele>582.7</ele><time>2013-11-21T08:20:22.0000000+00:00</time></trkpt><trkpt lat="30.86413574" lon="34.83275604"><ele>583.2</ele><time>2013-11-21T08:20:27.0000000+00:00</time></trkpt><trkpt lat="30.86411858" lon="34.83281708"><ele>583.8</ele><time>2013-11-21T08:20:32.0000000+00:00</time></trkpt><trkpt lat="30.86411285" lon="34.83288956"><ele>585.1</ele><time>2013-11-21T08:20:37.0000000+00:00</time></trkpt><trkpt lat="30.86411285" lon="34.83296204"><ele>585.5</ele><time>2013-11-21T08:20:42.0000000+00:00</time></trkpt><trkpt lat="30.86411285" lon="34.83301926"><ele>584.4</ele><time>2013-11-21T08:20:47.0000000+00:00</time></trkpt><trkpt lat="30.86410332" lon="34.83308411"><ele>584.5</ele><time>2013-11-21T08:20:52.0000000+00:00</time></trkpt><trkpt lat="30.86408043" lon="34.83314896"><ele>585.6</ele><time>2013-11-21T08:20:57.0000000+00:00</time></trkpt><trkpt lat="30.86404228" lon="34.83320999"><ele>585.5</ele><time>2013-11-21T08:21:02.0000000+00:00</time></trkpt><trkpt lat="30.86403275" lon="34.83328247"><ele>586.2</ele><time>2013-11-21T08:21:07.0000000+00:00</time></trkpt><trkpt lat="30.86401939" lon="34.83336258"><ele>587.3</ele><time>2013-11-21T08:21:12.0000000+00:00</time></trkpt><trkpt lat="30.86401558" lon="34.83347321"><ele>587.6</ele><time>2013-11-21T08:21:17.0000000+00:00</time></trkpt><trkpt lat="30.86398888" lon="34.83357239"><ele>588.0</ele><time>2013-11-21T08:21:22.0000000+00:00</time></trkpt><trkpt lat="30.8639679" lon="34.83364487"><ele>587.9</ele><time>2013-11-21T08:21:27.0000000+00:00</time></trkpt><trkpt lat="30.86396408" lon="34.83366013"><ele>586.7</ele><time>2013-11-21T08:21:32.0000000+00:00</time></trkpt><trkpt lat="30.86396027" lon="34.83366776"><ele>587.1</ele><time>2013-11-21T08:21:37.0000000+00:00</time></trkpt><trkpt lat="30.86395454" lon="34.83366776"><ele>587.6</ele><time>2013-11-21T08:21:42.0000000+00:00</time></trkpt><trkpt lat="30.86395073" lon="34.83367539"><ele>588.0</ele><time>2013-11-21T08:21:47.0000000+00:00</time></trkpt><trkpt lat="30.8639679" lon="34.83377838"><ele>588.1</ele><time>2013-11-21T08:21:52.0000000+00:00</time></trkpt><trkpt lat="30.86400795" lon="34.83391953"><ele>588.1</ele><time>2013-11-21T08:21:57.0000000+00:00</time></trkpt><trkpt lat="30.86404991" lon="34.83423233"><ele>584.8</ele><time>2013-11-21T08:22:02.0000000+00:00</time></trkpt><trkpt lat="30.86413193" lon="34.83457947"><ele>583.3</ele><time>2013-11-21T08:22:07.0000000+00:00</time></trkpt><trkpt lat="30.86414337" lon="34.8347702"><ele>581.2</ele><time>2013-11-21T08:22:12.0000000+00:00</time></trkpt><trkpt lat="30.86413384" lon="34.83492661"><ele>580.0</ele><time>2013-11-21T08:22:17.0000000+00:00</time></trkpt><trkpt lat="30.86418533" lon="34.83504105"><ele>578.2</ele><time>2013-11-21T08:22:22.0000000+00:00</time></trkpt><trkpt lat="30.86421013" lon="34.83506393"><ele>576.8</ele><time>2013-11-21T08:22:27.0000000+00:00</time></trkpt><trkpt lat="30.864254" lon="34.83513641"><ele>575.4</ele><time>2013-11-21T08:22:32.0000000+00:00</time></trkpt><trkpt lat="30.8643055" lon="34.83520889"><ele>574.4</ele><time>2013-11-21T08:22:37.0000000+00:00</time></trkpt><trkpt lat="30.86436081" lon="34.83528519"><ele>572.4</ele><time>2013-11-21T08:22:42.0000000+00:00</time></trkpt><trkpt lat="30.86440849" lon="34.83535767"><ele>571.5</ele><time>2013-11-21T08:22:47.0000000+00:00</time></trkpt><trkpt lat="30.86445046" lon="34.83542633"><ele>571.5</ele><time>2013-11-21T08:22:52.0000000+00:00</time></trkpt><trkpt lat="30.86451149" lon="34.83545685"><ele>571.0</ele><time>2013-11-21T08:22:57.0000000+00:00</time></trkpt><trkpt lat="30.86458969" lon="34.83550263"><ele>570.0</ele><time>2013-11-21T08:23:02.0000000+00:00</time></trkpt><trkpt lat="30.86462021" lon="34.83555985"><ele>570.4</ele><time>2013-11-21T08:23:07.0000000+00:00</time></trkpt><trkpt lat="30.86467743" lon="34.83560944"><ele>570.9</ele><time>2013-11-21T08:23:12.0000000+00:00</time></trkpt><trkpt lat="30.86473656" lon="34.83567047"><ele>570.2</ele><time>2013-11-21T08:23:17.0000000+00:00</time></trkpt><trkpt lat="30.86479378" lon="34.83572769"><ele>570.8</ele><time>2013-11-21T08:23:22.0000000+00:00</time></trkpt><trkpt lat="30.86482239" lon="34.83577728"><ele>571.5</ele><time>2013-11-21T08:23:27.0000000+00:00</time></trkpt><trkpt lat="30.86487007" lon="34.83582306"><ele>571.3</ele><time>2013-11-21T08:23:32.0000000+00:00</time></trkpt><trkpt lat="30.86491394" lon="34.83586121"><ele>571.6</ele><time>2013-11-21T08:23:37.0000000+00:00</time></trkpt><trkpt lat="30.86496735" lon="34.83589554"><ele>571.8</ele><time>2013-11-21T08:23:42.0000000+00:00</time></trkpt><trkpt lat="30.86500931" lon="34.83592224"><ele>572.7</ele><time>2013-11-21T08:23:47.0000000+00:00</time></trkpt><trkpt lat="30.86503792" lon="34.83595657"><ele>573.8</ele><time>2013-11-21T08:23:52.0000000+00:00</time></trkpt><trkpt lat="30.86506844" lon="34.83599472"><ele>574.0</ele><time>2013-11-21T08:23:57.0000000+00:00</time></trkpt><trkpt lat="30.86509514" lon="34.83602905"><ele>574.5</ele><time>2013-11-21T08:24:02.0000000+00:00</time></trkpt><trkpt lat="30.86512947" lon="34.8360672"><ele>575.2</ele><time>2013-11-21T08:24:07.0000000+00:00</time></trkpt><trkpt lat="30.86516953" lon="34.83610916"><ele>575.8</ele><time>2013-11-21T08:24:12.0000000+00:00</time></trkpt><trkpt lat="30.86520767" lon="34.83614731"><ele>576.6</ele><time>2013-11-21T08:24:17.0000000+00:00</time></trkpt><trkpt lat="30.8652668" lon="34.83618546"><ele>577.3</ele><time>2013-11-21T08:24:22.0000000+00:00</time></trkpt><trkpt lat="30.86531448" lon="34.83623505"><ele>579.0</ele><time>2013-11-21T08:24:27.0000000+00:00</time></trkpt><trkpt lat="30.86537552" lon="34.83628464"><ele>579.9</ele><time>2013-11-21T08:24:32.0000000+00:00</time></trkpt><trkpt lat="30.86540985" lon="34.83631897"><ele>580.4</ele><time>2013-11-21T08:24:37.0000000+00:00</time></trkpt><trkpt lat="30.86543655" lon="34.8363533"><ele>581.1</ele><time>2013-11-21T08:24:42.0000000+00:00</time></trkpt><trkpt lat="30.86548042" lon="34.83638763"><ele>581.8</ele><time>2013-11-21T08:24:47.0000000+00:00</time></trkpt><trkpt lat="30.8655014" lon="34.83643341"><ele>582.2</ele><time>2013-11-21T08:24:52.0000000+00:00</time></trkpt><trkpt lat="30.86553574" lon="34.83647919"><ele>583.1</ele><time>2013-11-21T08:24:57.0000000+00:00</time></trkpt><trkpt lat="30.86555862" lon="34.83651352"><ele>583.9</ele><time>2013-11-21T08:25:02.0000000+00:00</time></trkpt><trkpt lat="30.86558914" lon="34.83656311"><ele>585.0</ele><time>2013-11-21T08:25:07.0000000+00:00</time></trkpt><trkpt lat="30.8656292" lon="34.83660126"><ele>585.9</ele><time>2013-11-21T08:25:12.0000000+00:00</time></trkpt><trkpt lat="30.86566353" lon="34.83664322"><ele>586.8</ele><time>2013-11-21T08:25:17.0000000+00:00</time></trkpt><trkpt lat="30.86570549" lon="34.83668137"><ele>587.8</ele><time>2013-11-21T08:25:22.0000000+00:00</time></trkpt><trkpt lat="30.86573982" lon="34.8367157"><ele>588.6</ele><time>2013-11-21T08:25:27.0000000+00:00</time></trkpt><trkpt lat="30.86577988" lon="34.83676148"><ele>589.2</ele><time>2013-11-21T08:25:32.0000000+00:00</time></trkpt><trkpt lat="30.86582947" lon="34.83681107"><ele>589.9</ele><time>2013-11-21T08:25:37.0000000+00:00</time></trkpt><trkpt lat="30.86588097" lon="34.83685684"><ele>590.6</ele><time>2013-11-21T08:25:42.0000000+00:00</time></trkpt><trkpt lat="30.86594391" lon="34.83691788"><ele>592.5</ele><time>2013-11-21T08:25:47.0000000+00:00</time></trkpt><trkpt lat="30.86598206" lon="34.83697891"><ele>594.2</ele><time>2013-11-21T08:25:52.0000000+00:00</time></trkpt><trkpt lat="30.86600304" lon="34.83703613"><ele>595.2</ele><time>2013-11-21T08:25:57.0000000+00:00</time></trkpt><trkpt lat="30.86600113" lon="34.83704376"><ele>593.6</ele><time>2013-11-21T08:26:02.0000000+00:00</time></trkpt><trkpt lat="30.86599541" lon="34.83704758"><ele>593.7</ele><time>2013-11-21T08:26:07.0000000+00:00</time></trkpt><trkpt lat="30.8659935" lon="34.83704376"><ele>593.7</ele><time>2013-11-21T08:26:12.0000000+00:00</time></trkpt><trkpt lat="30.86598396" lon="34.83703613"><ele>592.2</ele><time>2013-11-21T08:26:17.0000000+00:00</time></trkpt><trkpt lat="30.86596489" lon="34.83703232"><ele>591.5</ele><time>2013-11-21T08:26:22.0000000+00:00</time></trkpt><trkpt lat="30.86599731" lon="34.83707047"><ele>591.3</ele><time>2013-11-21T08:26:27.0000000+00:00</time></trkpt><trkpt lat="30.86603546" lon="34.83710861"><ele>591.5</ele><time>2013-11-21T08:26:32.0000000+00:00</time></trkpt><trkpt lat="30.86606979" lon="34.83715057"><ele>591.4</ele><time>2013-11-21T08:26:37.0000000+00:00</time></trkpt><trkpt lat="30.86611557" lon="34.83722305"><ele>591.2</ele><time>2013-11-21T08:26:42.0000000+00:00</time></trkpt><trkpt lat="30.86618805" lon="34.83729172"><ele>590.7</ele><time>2013-11-21T08:26:47.0000000+00:00</time></trkpt><trkpt lat="30.86626434" lon="34.83735657"><ele>590.7</ele><time>2013-11-21T08:26:52.0000000+00:00</time></trkpt><trkpt lat="30.86635399" lon="34.83747864"><ele>589.8</ele><time>2013-11-21T08:26:57.0000000+00:00</time></trkpt><trkpt lat="30.86646652" lon="34.83763504"><ele>590.3</ele><time>2013-11-21T08:27:02.0000000+00:00</time></trkpt><trkpt lat="30.86665916" lon="34.83785248"><ele>589.1</ele><time>2013-11-21T08:27:07.0000000+00:00</time></trkpt><trkpt lat="30.86684418" lon="34.83806992"><ele>588.0</ele><time>2013-11-21T08:27:12.0000000+00:00</time></trkpt><trkpt lat="30.86689758" lon="34.83816147"><ele>587.1</ele><time>2013-11-21T08:27:17.0000000+00:00</time></trkpt><trkpt lat="30.86695862" lon="34.83824921"><ele>587.3</ele><time>2013-11-21T08:27:22.0000000+00:00</time></trkpt><trkpt lat="30.86700821" lon="34.83833313"><ele>589.4</ele><time>2013-11-21T08:27:27.0000000+00:00</time></trkpt><trkpt lat="30.86703301" lon="34.83841324"><ele>587.6</ele><time>2013-11-21T08:27:32.0000000+00:00</time></trkpt><trkpt lat="30.8670826" lon="34.83850098"><ele>588.5</ele><time>2013-11-21T08:27:37.0000000+00:00</time></trkpt><trkpt lat="30.867136" lon="34.83859634"><ele>588.2</ele><time>2013-11-21T08:27:42.0000000+00:00</time></trkpt><trkpt lat="30.86715889" lon="34.8386879"><ele>588.4</ele><time>2013-11-21T08:27:47.0000000+00:00</time></trkpt><trkpt lat="30.86721802" lon="34.83877945"><ele>589.1</ele><time>2013-11-21T08:27:52.0000000+00:00</time></trkpt><trkpt lat="30.86728478" lon="34.83888245"><ele>589.7</ele><time>2013-11-21T08:27:57.0000000+00:00</time></trkpt><trkpt lat="30.86730957" lon="34.83896637"><ele>587.2</ele><time>2013-11-21T08:28:02.0000000+00:00</time></trkpt><trkpt lat="30.867342" lon="34.83903885"><ele>588.0</ele><time>2013-11-21T08:28:07.0000000+00:00</time></trkpt><trkpt lat="30.86737442" lon="34.83911896"><ele>589.9</ele><time>2013-11-21T08:28:12.0000000+00:00</time></trkpt><trkpt lat="30.86738014" lon="34.83921051"><ele>592.6</ele><time>2013-11-21T08:28:17.0000000+00:00</time></trkpt><trkpt lat="30.86741257" lon="34.83929825"><ele>594.8</ele><time>2013-11-21T08:28:22.0000000+00:00</time></trkpt><trkpt lat="30.8674469" lon="34.83937073"><ele>595.1</ele><time>2013-11-21T08:28:27.0000000+00:00</time></trkpt><trkpt lat="30.86748123" lon="34.83942032"><ele>595.9</ele><time>2013-11-21T08:28:32.0000000+00:00</time></trkpt><trkpt lat="30.86753082" lon="34.83949661"><ele>597.7</ele><time>2013-11-21T08:28:37.0000000+00:00</time></trkpt><trkpt lat="30.8675518" lon="34.8395958"><ele>597.9</ele><time>2013-11-21T08:28:42.0000000+00:00</time></trkpt><trkpt lat="30.86758232" lon="34.83967972"><ele>598.2</ele><time>2013-11-21T08:28:47.0000000+00:00</time></trkpt><trkpt lat="30.86761856" lon="34.83974838"><ele>598.3</ele><time>2013-11-21T08:28:52.0000000+00:00</time></trkpt><trkpt lat="30.86767006" lon="34.83985901"><ele>599.2</ele><time>2013-11-21T08:28:57.0000000+00:00</time></trkpt><trkpt lat="30.86772919" lon="34.83997345"><ele>599.6</ele><time>2013-11-21T08:29:02.0000000+00:00</time></trkpt><trkpt lat="30.86776924" lon="34.84010696"><ele>599.5</ele><time>2013-11-21T08:29:07.0000000+00:00</time></trkpt><trkpt lat="30.86780167" lon="34.84025192"><ele>600.3</ele><time>2013-11-21T08:29:12.0000000+00:00</time></trkpt><trkpt lat="30.86786079" lon="34.84039307"><ele>598.8</ele><time>2013-11-21T08:29:17.0000000+00:00</time></trkpt><trkpt lat="30.86794663" lon="34.84050369"><ele>598.2</ele><time>2013-11-21T08:29:22.0000000+00:00</time></trkpt><trkpt lat="30.8680191" lon="34.84056854"><ele>597.6</ele><time>2013-11-21T08:29:27.0000000+00:00</time></trkpt><trkpt lat="30.86808777" lon="34.84063339"><ele>597.1</ele><time>2013-11-21T08:29:32.0000000+00:00</time></trkpt><trkpt lat="30.8681469" lon="34.84070587"><ele>595.5</ele><time>2013-11-21T08:29:37.0000000+00:00</time></trkpt><trkpt lat="30.86820984" lon="34.84078217"><ele>596.3</ele><time>2013-11-21T08:29:42.0000000+00:00</time></trkpt><trkpt lat="30.86827278" lon="34.84086609"><ele>597.5</ele><time>2013-11-21T08:29:47.0000000+00:00</time></trkpt><trkpt lat="30.86826706" lon="34.8409996"><ele>600.1</ele><time>2013-11-21T08:29:52.0000000+00:00</time></trkpt><trkpt lat="30.86825943" lon="34.84112167"><ele>601.5</ele><time>2013-11-21T08:29:57.0000000+00:00</time></trkpt><trkpt lat="30.86823463" lon="34.84131622"><ele>601.7</ele><time>2013-11-21T08:30:02.0000000+00:00</time></trkpt><trkpt lat="30.86825943" lon="34.84153748"><ele>601.7</ele><time>2013-11-21T08:30:07.0000000+00:00</time></trkpt><trkpt lat="30.86833191" lon="34.84172821"><ele>602.4</ele><time>2013-11-21T08:30:12.0000000+00:00</time></trkpt><trkpt lat="30.86844826" lon="34.8419075"><ele>601.7</ele><time>2013-11-21T08:30:17.0000000+00:00</time></trkpt><trkpt lat="30.86856461" lon="34.84201813"><ele>600.0</ele><time>2013-11-21T08:30:22.0000000+00:00</time></trkpt><trkpt lat="30.8686161" lon="34.84208679"><ele>601.1</ele><time>2013-11-21T08:30:27.0000000+00:00</time></trkpt><trkpt lat="30.86867333" lon="34.84212494"><ele>602.7</ele><time>2013-11-21T08:30:32.0000000+00:00</time></trkpt><trkpt lat="30.86874771" lon="34.84216309"><ele>603.2</ele><time>2013-11-21T08:30:37.0000000+00:00</time></trkpt><trkpt lat="30.86881447" lon="34.84221268"><ele>602.5</ele><time>2013-11-21T08:30:42.0000000+00:00</time></trkpt><trkpt lat="30.86885643" lon="34.84225464"><ele>602.5</ele><time>2013-11-21T08:30:47.0000000+00:00</time></trkpt><trkpt lat="30.86887741" lon="34.8423233"><ele>602.9</ele><time>2013-11-21T08:30:52.0000000+00:00</time></trkpt><trkpt lat="30.86890793" lon="34.84241867"><ele>602.4</ele><time>2013-11-21T08:30:57.0000000+00:00</time></trkpt><trkpt lat="30.86893845" lon="34.84254837"><ele>603.4</ele><time>2013-11-21T08:31:02.0000000+00:00</time></trkpt><trkpt lat="30.86900902" lon="34.84267807"><ele>603.7</ele><time>2013-11-21T08:31:07.0000000+00:00</time></trkpt><trkpt lat="30.86909294" lon="34.84276962"><ele>603.6</ele><time>2013-11-21T08:31:12.0000000+00:00</time></trkpt><trkpt lat="30.86919594" lon="34.8428421"><ele>601.3</ele><time>2013-11-21T08:31:17.0000000+00:00</time></trkpt><trkpt lat="30.86942101" lon="34.84304047"><ele>597.7</ele><time>2013-11-21T08:31:22.0000000+00:00</time></trkpt><trkpt lat="30.86970711" lon="34.84328079"><ele>594.3</ele><time>2013-11-21T08:31:27.0000000+00:00</time></trkpt><trkpt lat="30.86994934" lon="34.84348679"><ele>592.4</ele><time>2013-11-21T08:31:32.0000000+00:00</time></trkpt><trkpt lat="30.87009621" lon="34.84358978"><ele>591.0</ele><time>2013-11-21T08:31:37.0000000+00:00</time></trkpt><trkpt lat="30.87016678" lon="34.84362793"><ele>587.9</ele><time>2013-11-21T08:31:42.0000000+00:00</time></trkpt><trkpt lat="30.87022018" lon="34.84367752"><ele>587.1</ele><time>2013-11-21T08:31:47.0000000+00:00</time></trkpt><trkpt lat="30.87030411" lon="34.84374619"><ele>587.3</ele><time>2013-11-21T08:31:52.0000000+00:00</time></trkpt><trkpt lat="30.87039757" lon="34.84381104"><ele>586.6</ele><time>2013-11-21T08:31:57.0000000+00:00</time></trkpt><trkpt lat="30.87047005" lon="34.84388351"><ele>586.0</ele><time>2013-11-21T08:32:02.0000000+00:00</time></trkpt><trkpt lat="30.87053299" lon="34.84393311"><ele>588.3</ele><time>2013-11-21T08:32:07.0000000+00:00</time></trkpt><trkpt lat="30.87062454" lon="34.8440094"><ele>589.4</ele><time>2013-11-21T08:32:12.0000000+00:00</time></trkpt><trkpt lat="30.87064934" lon="34.8440094"><ele>592.0</ele><time>2013-11-21T08:32:17.0000000+00:00</time></trkpt><trkpt lat="30.87065125" lon="34.8440361"><ele>595.4</ele><time>2013-11-21T08:32:22.0000000+00:00</time></trkpt><trkpt lat="30.87064171" lon="34.84405518"><ele>596.1</ele><time>2013-11-21T08:32:27.0000000+00:00</time></trkpt><trkpt lat="30.8706398" lon="34.84406281"><ele>596.8</ele><time>2013-11-21T08:32:32.0000000+00:00</time></trkpt><trkpt lat="30.8706398" lon="34.84407044"><ele>597.5</ele><time>2013-11-21T08:32:37.0000000+00:00</time></trkpt><trkpt lat="30.8706398" lon="34.84407806"><ele>598.3</ele><time>2013-11-21T08:32:42.0000000+00:00</time></trkpt><trkpt lat="30.87063789" lon="34.84408188"><ele>599.0</ele><time>2013-11-21T08:32:47.0000000+00:00</time></trkpt><trkpt lat="30.87063789" lon="34.84408951"><ele>599.6</ele><time>2013-11-21T08:32:52.0000000+00:00</time></trkpt><trkpt lat="30.87064743" lon="34.84410095"><ele>600.3</ele><time>2013-11-21T08:32:57.0000000+00:00</time></trkpt><trkpt lat="30.87067413" lon="34.84413528"><ele>601.0</ele><time>2013-11-21T08:33:02.0000000+00:00</time></trkpt><trkpt lat="30.8707943" lon="34.84431076"><ele>601.2</ele><time>2013-11-21T08:33:07.0000000+00:00</time></trkpt><trkpt lat="30.87098122" lon="34.84453964"><ele>600.7</ele><time>2013-11-21T08:33:12.0000000+00:00</time></trkpt><trkpt lat="30.87107277" lon="34.84464645"><ele>599.2</ele><time>2013-11-21T08:33:17.0000000+00:00</time></trkpt><trkpt lat="30.8711319" lon="34.8446846"><ele>598.0</ele><time>2013-11-21T08:33:22.0000000+00:00</time></trkpt><trkpt lat="30.87115097" lon="34.84465408"><ele>597.2</ele><time>2013-11-21T08:33:27.0000000+00:00</time></trkpt><trkpt lat="30.87115669" lon="34.8446579"><ele>597.2</ele><time>2013-11-21T08:33:32.0000000+00:00</time></trkpt><trkpt lat="30.87115097" lon="34.8446579"><ele>597.1</ele><time>2013-11-21T08:33:37.0000000+00:00</time></trkpt><trkpt lat="30.87118721" lon="34.84473038"><ele>596.8</ele><time>2013-11-21T08:33:42.0000000+00:00</time></trkpt><trkpt lat="30.87138367" lon="34.84500122"><ele>596.0</ele><time>2013-11-21T08:33:47.0000000+00:00</time></trkpt><trkpt lat="30.87151909" lon="34.84514999"><ele>594.3</ele><time>2013-11-21T08:33:52.0000000+00:00</time></trkpt><trkpt lat="30.87157822" lon="34.84518814"><ele>591.9</ele><time>2013-11-21T08:33:57.0000000+00:00</time></trkpt><trkpt lat="30.87160873" lon="34.84525681"><ele>590.7</ele><time>2013-11-21T08:34:02.0000000+00:00</time></trkpt><trkpt lat="30.87173271" lon="34.84540939"><ele>587.8</ele><time>2013-11-21T08:34:07.0000000+00:00</time></trkpt><trkpt lat="30.87191582" lon="34.84558106"><ele>585.3</ele><time>2013-11-21T08:34:12.0000000+00:00</time></trkpt><trkpt lat="30.87212181" lon="34.84561157"><ele>581.8</ele><time>2013-11-21T08:34:17.0000000+00:00</time></trkpt><trkpt lat="30.87223244" lon="34.84561157"><ele>579.8</ele><time>2013-11-21T08:34:22.0000000+00:00</time></trkpt><trkpt lat="30.87236786" lon="34.84561157"><ele>576.5</ele><time>2013-11-21T08:34:27.0000000+00:00</time></trkpt><trkpt lat="30.87251854" lon="34.84558487"><ele>573.8</ele><time>2013-11-21T08:34:32.0000000+00:00</time></trkpt><trkpt lat="30.87269592" lon="34.84554291"><ele>572.6</ele><time>2013-11-21T08:34:37.0000000+00:00</time></trkpt><trkpt lat="30.87285996" lon="34.84548187"><ele>571.5</ele><time>2013-11-21T08:34:42.0000000+00:00</time></trkpt><trkpt lat="30.87311745" lon="34.84541702"><ele>570.2</ele><time>2013-11-21T08:34:47.0000000+00:00</time></trkpt><trkpt lat="30.8732872" lon="34.84536362"><ele>568.6</ele><time>2013-11-21T08:34:52.0000000+00:00</time></trkpt><trkpt lat="30.87350082" lon="34.84532929"><ele>566.5</ele><time>2013-11-21T08:34:57.0000000+00:00</time></trkpt><trkpt lat="30.87372589" lon="34.84529114"><ele>562.5</ele><time>2013-11-21T08:35:02.0000000+00:00</time></trkpt><trkpt lat="30.873909" lon="34.84531021"><ele>561.5</ele><time>2013-11-21T08:35:07.0000000+00:00</time></trkpt><trkpt lat="30.87400627" lon="34.84540558"><ele>564.3</ele><time>2013-11-21T08:35:12.0000000+00:00</time></trkpt><trkpt lat="30.87404442" lon="34.84555817"><ele>563.5</ele><time>2013-11-21T08:35:17.0000000+00:00</time></trkpt><trkpt lat="30.87414169" lon="34.84571838"><ele>562.6</ele><time>2013-11-21T08:35:22.0000000+00:00</time></trkpt><trkpt lat="30.87433243" lon="34.84571075"><ele>560.9</ele><time>2013-11-21T08:35:27.0000000+00:00</time></trkpt><trkpt lat="30.87448502" lon="34.84560394"><ele>560.3</ele><time>2013-11-21T08:35:32.0000000+00:00</time></trkpt><trkpt lat="30.87461281" lon="34.84549713"><ele>559.5</ele><time>2013-11-21T08:35:37.0000000+00:00</time></trkpt><trkpt lat="30.87472725" lon="34.8454361"><ele>559.5</ele><time>2013-11-21T08:35:42.0000000+00:00</time></trkpt><trkpt lat="30.8748169" lon="34.84531021"><ele>560.2</ele><time>2013-11-21T08:35:47.0000000+00:00</time></trkpt><trkpt lat="30.87492752" lon="34.84525681"><ele>559.5</ele><time>2013-11-21T08:35:52.0000000+00:00</time></trkpt><trkpt lat="30.87508392" lon="34.84519196"><ele>558.0</ele><time>2013-11-21T08:35:57.0000000+00:00</time></trkpt><trkpt lat="30.87525749" lon="34.84512711"><ele>556.5</ele><time>2013-11-21T08:36:02.0000000+00:00</time></trkpt><trkpt lat="30.87545776" lon="34.84500885"><ele>554.7</ele><time>2013-11-21T08:36:07.0000000+00:00</time></trkpt><trkpt lat="30.87568283" lon="34.84490204"><ele>553.4</ele><time>2013-11-21T08:36:12.0000000+00:00</time></trkpt><trkpt lat="30.87589645" lon="34.84482193"><ele>551.3</ele><time>2013-11-21T08:36:17.0000000+00:00</time></trkpt><trkpt lat="30.87604713" lon="34.84467316"><ele>549.7</ele><time>2013-11-21T08:36:22.0000000+00:00</time></trkpt><trkpt lat="30.87626076" lon="34.84457779"><ele>547.7</ele><time>2013-11-21T08:36:27.0000000+00:00</time></trkpt><trkpt lat="30.87645149" lon="34.84446335"><ele>546.6</ele><time>2013-11-21T08:36:32.0000000+00:00</time></trkpt><trkpt lat="30.87659645" lon="34.84440231"><ele>546.3</ele><time>2013-11-21T08:36:37.0000000+00:00</time></trkpt><trkpt lat="30.87676811" lon="34.84432983"><ele>547.2</ele><time>2013-11-21T08:36:42.0000000+00:00</time></trkpt><trkpt lat="30.87686539" lon="34.84434128"><ele>547.9</ele><time>2013-11-21T08:36:47.0000000+00:00</time></trkpt><trkpt lat="30.87691498" lon="34.84439468"><ele>549.1</ele><time>2013-11-21T08:36:52.0000000+00:00</time></trkpt><trkpt lat="30.87695122" lon="34.84442902"><ele>549.8</ele><time>2013-11-21T08:36:57.0000000+00:00</time></trkpt><trkpt lat="30.87700462" lon="34.84447098"><ele>549.3</ele><time>2013-11-21T08:37:02.0000000+00:00</time></trkpt><trkpt lat="30.87703896" lon="34.84449005"><ele>548.6</ele><time>2013-11-21T08:37:07.0000000+00:00</time></trkpt><trkpt lat="30.87711906" lon="34.84453583"><ele>548.1</ele><time>2013-11-21T08:37:12.0000000+00:00</time></trkpt><trkpt lat="30.87720871" lon="34.84458542"><ele>548.0</ele><time>2013-11-21T08:37:17.0000000+00:00</time></trkpt><trkpt lat="30.87726593" lon="34.84461594"><ele>548.6</ele><time>2013-11-21T08:37:22.0000000+00:00</time></trkpt><trkpt lat="30.87731743" lon="34.84465408"><ele>549.2</ele><time>2013-11-21T08:37:27.0000000+00:00</time></trkpt><trkpt lat="30.87738609" lon="34.84470367"><ele>549.6</ele><time>2013-11-21T08:37:32.0000000+00:00</time></trkpt><trkpt lat="30.8774395" lon="34.84474945"><ele>550.5</ele><time>2013-11-21T08:37:37.0000000+00:00</time></trkpt><trkpt lat="30.87748528" lon="34.84477234"><ele>551.1</ele><time>2013-11-21T08:37:42.0000000+00:00</time></trkpt><trkpt lat="30.87751961" lon="34.8447876"><ele>550.9</ele><time>2013-11-21T08:37:47.0000000+00:00</time></trkpt><trkpt lat="30.87763405" lon="34.84486008"><ele>551.3</ele><time>2013-11-21T08:37:52.0000000+00:00</time></trkpt><trkpt lat="30.87774468" lon="34.84494782"><ele>551.0</ele><time>2013-11-21T08:37:57.0000000+00:00</time></trkpt><trkpt lat="30.87792397" lon="34.84506989"><ele>550.6</ele><time>2013-11-21T08:38:02.0000000+00:00</time></trkpt><trkpt lat="30.87805367" lon="34.84518051"><ele>549.9</ele><time>2013-11-21T08:38:07.0000000+00:00</time></trkpt><trkpt lat="30.87817574" lon="34.84529114"><ele>550.2</ele><time>2013-11-21T08:38:12.0000000+00:00</time></trkpt><trkpt lat="30.87831879" lon="34.84540558"><ele>550.3</ele><time>2013-11-21T08:38:17.0000000+00:00</time></trkpt><trkpt lat="30.87837791" lon="34.8454628"><ele>550.8</ele><time>2013-11-21T08:38:22.0000000+00:00</time></trkpt><trkpt lat="30.878479" lon="34.84550095"><ele>551.0</ele><time>2013-11-21T08:38:27.0000000+00:00</time></trkpt><trkpt lat="30.87853813" lon="34.84552765"><ele>551.5</ele><time>2013-11-21T08:38:32.0000000+00:00</time></trkpt><trkpt lat="30.87856293" lon="34.84554672"><ele>551.9</ele><time>2013-11-21T08:38:37.0000000+00:00</time></trkpt><trkpt lat="30.87858772" lon="34.84558868"><ele>552.0</ele><time>2013-11-21T08:38:42.0000000+00:00</time></trkpt><trkpt lat="30.87864685" lon="34.84562683"><ele>553.3</ele><time>2013-11-21T08:38:47.0000000+00:00</time></trkpt><trkpt lat="30.87869263" lon="34.84566498"><ele>553.8</ele><time>2013-11-21T08:38:52.0000000+00:00</time></trkpt><trkpt lat="30.8787632" lon="34.84571838"><ele>554.4</ele><time>2013-11-21T08:38:57.0000000+00:00</time></trkpt><trkpt lat="30.87880325" lon="34.84575653"><ele>554.9</ele><time>2013-11-21T08:39:02.0000000+00:00</time></trkpt><trkpt lat="30.8788414" lon="34.84579849"><ele>555.2</ele><time>2013-11-21T08:39:07.0000000+00:00</time></trkpt><trkpt lat="30.87890625" lon="34.84584808"><ele>554.4</ele><time>2013-11-21T08:39:12.0000000+00:00</time></trkpt><trkpt lat="30.87900925" lon="34.84591675"><ele>554.8</ele><time>2013-11-21T08:39:17.0000000+00:00</time></trkpt><trkpt lat="30.87902832" lon="34.84596252"><ele>555.4</ele><time>2013-11-21T08:39:22.0000000+00:00</time></trkpt><trkpt lat="30.87902069" lon="34.84597015"><ele>555.5</ele><time>2013-11-21T08:39:27.0000000+00:00</time></trkpt><trkpt lat="30.87902641" lon="34.84597778"><ele>555.5</ele><time>2013-11-21T08:39:32.0000000+00:00</time></trkpt><trkpt lat="30.87914848" lon="34.84609604"><ele>554.0</ele><time>2013-11-21T08:39:37.0000000+00:00</time></trkpt><trkpt lat="30.87930107" lon="34.84623718"><ele>553.8</ele><time>2013-11-21T08:39:42.0000000+00:00</time></trkpt><trkpt lat="30.87940025" lon="34.84632874"><ele>553.7</ele><time>2013-11-21T08:39:47.0000000+00:00</time></trkpt><trkpt lat="30.87948227" lon="34.84642029"><ele>553.7</ele><time>2013-11-21T08:39:52.0000000+00:00</time></trkpt><trkpt lat="30.87957192" lon="34.84650803"><ele>554.0</ele><time>2013-11-21T08:39:57.0000000+00:00</time></trkpt><trkpt lat="30.87966538" lon="34.84660721"><ele>551.7</ele><time>2013-11-21T08:40:02.0000000+00:00</time></trkpt><trkpt lat="30.87975311" lon="34.8466835"><ele>551.5</ele><time>2013-11-21T08:40:07.0000000+00:00</time></trkpt><trkpt lat="30.87983894" lon="34.84674835"><ele>553.6</ele><time>2013-11-21T08:40:12.0000000+00:00</time></trkpt><trkpt lat="30.87994003" lon="34.84686279"><ele>556.3</ele><time>2013-11-21T08:40:17.0000000+00:00</time></trkpt><trkpt lat="30.87996864" lon="34.84692001"><ele>555.5</ele><time>2013-11-21T08:40:22.0000000+00:00</time></trkpt><trkpt lat="30.88006592" lon="34.84700394"><ele>555.6</ele><time>2013-11-21T08:40:27.0000000+00:00</time></trkpt><trkpt lat="30.88011932" lon="34.84706879"><ele>554.4</ele><time>2013-11-21T08:40:32.0000000+00:00</time></trkpt><trkpt lat="30.88017654" lon="34.84712219"><ele>553.9</ele><time>2013-11-21T08:40:37.0000000+00:00</time></trkpt><trkpt lat="30.88021469" lon="34.84716415"><ele>553.7</ele><time>2013-11-21T08:40:42.0000000+00:00</time></trkpt><trkpt lat="30.88027191" lon="34.84723282"><ele>553.0</ele><time>2013-11-21T08:40:47.0000000+00:00</time></trkpt><trkpt lat="30.88035011" lon="34.84729004"><ele>553.0</ele><time>2013-11-21T08:40:52.0000000+00:00</time></trkpt><trkpt lat="30.88043785" lon="34.84734726"><ele>554.0</ele><time>2013-11-21T08:40:57.0000000+00:00</time></trkpt><trkpt lat="30.88050079" lon="34.84741974"><ele>554.4</ele><time>2013-11-21T08:41:02.0000000+00:00</time></trkpt><trkpt lat="30.88055611" lon="34.84748077"><ele>555.3</ele><time>2013-11-21T08:41:07.0000000+00:00</time></trkpt><trkpt lat="30.88065338" lon="34.84757233"><ele>556.3</ele><time>2013-11-21T08:41:12.0000000+00:00</time></trkpt><trkpt lat="30.88073349" lon="34.84764481"><ele>555.9</ele><time>2013-11-21T08:41:17.0000000+00:00</time></trkpt><trkpt lat="30.88082314" lon="34.84772492"><ele>557.0</ele><time>2013-11-21T08:41:22.0000000+00:00</time></trkpt><trkpt lat="30.8809185" lon="34.84782028"><ele>559.1</ele><time>2013-11-21T08:41:27.0000000+00:00</time></trkpt><trkpt lat="30.88097" lon="34.84788895"><ele>559.2</ele><time>2013-11-21T08:41:32.0000000+00:00</time></trkpt><trkpt lat="30.88106537" lon="34.84799194"><ele>558.5</ele><time>2013-11-21T08:41:37.0000000+00:00</time></trkpt><trkpt lat="30.88113976" lon="34.84809494"><ele>558.4</ele><time>2013-11-21T08:41:42.0000000+00:00</time></trkpt><trkpt lat="30.88121986" lon="34.84819031"><ele>557.2</ele><time>2013-11-21T08:41:47.0000000+00:00</time></trkpt><trkpt lat="30.88132858" lon="34.84835053"><ele>554.2</ele><time>2013-11-21T08:41:52.0000000+00:00</time></trkpt><trkpt lat="30.88143158" lon="34.84845734"><ele>552.3</ele><time>2013-11-21T08:41:57.0000000+00:00</time></trkpt><trkpt lat="30.88150215" lon="34.84852982"><ele>550.9</ele><time>2013-11-21T08:42:02.0000000+00:00</time></trkpt><trkpt lat="30.88156509" lon="34.84858704"><ele>551.2</ele><time>2013-11-21T08:42:07.0000000+00:00</time></trkpt><trkpt lat="30.88166618" lon="34.84869385"><ele>550.3</ele><time>2013-11-21T08:42:12.0000000+00:00</time></trkpt><trkpt lat="30.88171959" lon="34.8487587"><ele>551.6</ele><time>2013-11-21T08:42:17.0000000+00:00</time></trkpt><trkpt lat="30.88172722" lon="34.8487587"><ele>552.5</ele><time>2013-11-21T08:42:22.0000000+00:00</time></trkpt><trkpt lat="30.88172722" lon="34.84877014"><ele>552.8</ele><time>2013-11-21T08:42:27.0000000+00:00</time></trkpt><trkpt lat="30.88175774" lon="34.84881592"><ele>553.7</ele><time>2013-11-21T08:42:32.0000000+00:00</time></trkpt><trkpt lat="30.88179588" lon="34.84886551"><ele>554.4</ele><time>2013-11-21T08:42:37.0000000+00:00</time></trkpt><trkpt lat="30.88181686" lon="34.84890747"><ele>554.5</ele><time>2013-11-21T08:42:42.0000000+00:00</time></trkpt><trkpt lat="30.88183594" lon="34.84893036"><ele>552.8</ele><time>2013-11-21T08:42:47.0000000+00:00</time></trkpt><trkpt lat="30.88186264" lon="34.84893417"><ele>553.5</ele><time>2013-11-21T08:42:52.0000000+00:00</time></trkpt><trkpt lat="30.88187981" lon="34.84898758"><ele>553.7</ele><time>2013-11-21T08:42:57.0000000+00:00</time></trkpt><trkpt lat="30.88191414" lon="34.84904099"><ele>552.9</ele><time>2013-11-21T08:43:02.0000000+00:00</time></trkpt><trkpt lat="30.88193512" lon="34.84908295"><ele>552.7</ele><time>2013-11-21T08:43:07.0000000+00:00</time></trkpt><trkpt lat="30.88196182" lon="34.84910965"><ele>550.4</ele><time>2013-11-21T08:43:12.0000000+00:00</time></trkpt><trkpt lat="30.88199234" lon="34.84915543"><ele>550.8</ele><time>2013-11-21T08:43:17.0000000+00:00</time></trkpt><trkpt lat="30.88202286" lon="34.84918213"><ele>550.8</ele><time>2013-11-21T08:43:22.0000000+00:00</time></trkpt><trkpt lat="30.88205338" lon="34.84920502"><ele>551.1</ele><time>2013-11-21T08:43:27.0000000+00:00</time></trkpt><trkpt lat="30.88210487" lon="34.84924316"><ele>551.4</ele><time>2013-11-21T08:43:32.0000000+00:00</time></trkpt><trkpt lat="30.88212585" lon="34.8492775"><ele>551.7</ele><time>2013-11-21T08:43:37.0000000+00:00</time></trkpt><trkpt lat="30.88217926" lon="34.84932327"><ele>552.4</ele><time>2013-11-21T08:43:42.0000000+00:00</time></trkpt><trkpt lat="30.88221169" lon="34.84937668"><ele>552.3</ele><time>2013-11-21T08:43:47.0000000+00:00</time></trkpt><trkpt lat="30.88224983" lon="34.84942246"><ele>552.3</ele><time>2013-11-21T08:43:52.0000000+00:00</time></trkpt><trkpt lat="30.88225937" lon="34.84946442"><ele>552.3</ele><time>2013-11-21T08:43:57.0000000+00:00</time></trkpt><trkpt lat="30.88228989" lon="34.84951782"><ele>552.5</ele><time>2013-11-21T08:44:02.0000000+00:00</time></trkpt><trkpt lat="30.88230705" lon="34.84957123"><ele>553.5</ele><time>2013-11-21T08:44:07.0000000+00:00</time></trkpt><trkpt lat="30.88237572" lon="34.849617"><ele>554.2</ele><time>2013-11-21T08:44:12.0000000+00:00</time></trkpt><trkpt lat="30.88241959" lon="34.84965897"><ele>555.0</ele><time>2013-11-21T08:44:17.0000000+00:00</time></trkpt><trkpt lat="30.88245392" lon="34.84970093"><ele>554.8</ele><time>2013-11-21T08:44:22.0000000+00:00</time></trkpt><trkpt lat="30.88249397" lon="34.84973526"><ele>554.8</ele><time>2013-11-21T08:44:27.0000000+00:00</time></trkpt><trkpt lat="30.88252258" lon="34.84977722"><ele>554.7</ele><time>2013-11-21T08:44:32.0000000+00:00</time></trkpt><trkpt lat="30.88256073" lon="34.84981537"><ele>555.1</ele><time>2013-11-21T08:44:37.0000000+00:00</time></trkpt><trkpt lat="30.88260651" lon="34.84984589"><ele>555.6</ele><time>2013-11-21T08:44:42.0000000+00:00</time></trkpt><trkpt lat="30.88264084" lon="34.84990692"><ele>556.0</ele><time>2013-11-21T08:44:47.0000000+00:00</time></trkpt><trkpt lat="30.88264465" lon="34.84993744"><ele>555.8</ele><time>2013-11-21T08:44:52.0000000+00:00</time></trkpt><trkpt lat="30.88267899" lon="34.84998703"><ele>556.9</ele><time>2013-11-21T08:44:57.0000000+00:00</time></trkpt><trkpt lat="30.88274574" lon="34.85004044"><ele>557.8</ele><time>2013-11-21T08:45:02.0000000+00:00</time></trkpt><trkpt lat="30.88282585" lon="34.8501091"><ele>559.4</ele><time>2013-11-21T08:45:07.0000000+00:00</time></trkpt><trkpt lat="30.88287926" lon="34.85014343"><ele>560.0</ele><time>2013-11-21T08:45:12.0000000+00:00</time></trkpt><trkpt lat="30.88292503" lon="34.85017014"><ele>560.5</ele><time>2013-11-21T08:45:17.0000000+00:00</time></trkpt><trkpt lat="30.88296318" lon="34.8502121"><ele>559.9</ele><time>2013-11-21T08:45:22.0000000+00:00</time></trkpt><trkpt lat="30.88298798" lon="34.85025406"><ele>560.7</ele><time>2013-11-21T08:45:27.0000000+00:00</time></trkpt><trkpt lat="30.88301086" lon="34.85029602"><ele>561.2</ele><time>2013-11-21T08:45:32.0000000+00:00</time></trkpt><trkpt lat="30.8830719" lon="34.85034561"><ele>563.1</ele><time>2013-11-21T08:45:37.0000000+00:00</time></trkpt><trkpt lat="30.88313294" lon="34.85037613"><ele>564.8</ele><time>2013-11-21T08:45:42.0000000+00:00</time></trkpt><trkpt lat="30.8831749" lon="34.85041428"><ele>566.5</ele><time>2013-11-21T08:45:47.0000000+00:00</time></trkpt><trkpt lat="30.88320541" lon="34.85046005"><ele>567.5</ele><time>2013-11-21T08:45:52.0000000+00:00</time></trkpt><trkpt lat="30.88326073" lon="34.85049439"><ele>568.9</ele><time>2013-11-21T08:45:57.0000000+00:00</time></trkpt><trkpt lat="30.88330078" lon="34.85052872"><ele>570.0</ele><time>2013-11-21T08:46:02.0000000+00:00</time></trkpt><trkpt lat="30.88332367" lon="34.85055161"><ele>570.5</ele><time>2013-11-21T08:46:07.0000000+00:00</time></trkpt><trkpt lat="30.88337708" lon="34.85056305"><ele>572.2</ele><time>2013-11-21T08:46:12.0000000+00:00</time></trkpt><trkpt lat="30.88342857" lon="34.8506012"><ele>572.7</ele><time>2013-11-21T08:46:17.0000000+00:00</time></trkpt><trkpt lat="30.88352776" lon="34.85067749"><ele>573.6</ele><time>2013-11-21T08:46:22.0000000+00:00</time></trkpt><trkpt lat="30.88360024" lon="34.85074997"><ele>575.0</ele><time>2013-11-21T08:46:27.0000000+00:00</time></trkpt><trkpt lat="30.8836956" lon="34.85081101"><ele>575.8</ele><time>2013-11-21T08:46:32.0000000+00:00</time></trkpt><trkpt lat="30.88376808" lon="34.85085297"><ele>576.7</ele><time>2013-11-21T08:46:37.0000000+00:00</time></trkpt><trkpt lat="30.88386917" lon="34.85092163"><ele>577.2</ele><time>2013-11-21T08:46:42.0000000+00:00</time></trkpt><trkpt lat="30.88405037" lon="34.85110092"><ele>577.0</ele><time>2013-11-21T08:46:47.0000000+00:00</time></trkpt><trkpt lat="30.88419724" lon="34.85125732"><ele>577.6</ele><time>2013-11-21T08:46:52.0000000+00:00</time></trkpt><trkpt lat="30.88425255" lon="34.85131836"><ele>578.4</ele><time>2013-11-21T08:46:57.0000000+00:00</time></trkpt><trkpt lat="30.88430023" lon="34.85137558"><ele>578.6</ele><time>2013-11-21T08:47:02.0000000+00:00</time></trkpt><trkpt lat="30.88435173" lon="34.85143662"><ele>579.2</ele><time>2013-11-21T08:47:07.0000000+00:00</time></trkpt><trkpt lat="30.88440132" lon="34.85150147"><ele>579.0</ele><time>2013-11-21T08:47:12.0000000+00:00</time></trkpt><trkpt lat="30.88446617" lon="34.85160828"><ele>581.4</ele><time>2013-11-21T08:47:17.0000000+00:00</time></trkpt><trkpt lat="30.88454247" lon="34.85168839"><ele>582.8</ele><time>2013-11-21T08:47:22.0000000+00:00</time></trkpt><trkpt lat="30.88461113" lon="34.85177612"><ele>583.0</ele><time>2013-11-21T08:47:27.0000000+00:00</time></trkpt><trkpt lat="30.8846817" lon="34.85187912"><ele>584.1</ele><time>2013-11-21T08:47:32.0000000+00:00</time></trkpt><trkpt lat="30.88479614" lon="34.85199356"><ele>584.2</ele><time>2013-11-21T08:47:37.0000000+00:00</time></trkpt><trkpt lat="30.88489533" lon="34.852108"><ele>582.6</ele><time>2013-11-21T08:47:42.0000000+00:00</time></trkpt><trkpt lat="30.88499451" lon="34.8522377"><ele>582.6</ele><time>2013-11-21T08:47:47.0000000+00:00</time></trkpt><trkpt lat="30.8850975" lon="34.85235214"><ele>582.6</ele><time>2013-11-21T08:47:52.0000000+00:00</time></trkpt><trkpt lat="30.88518906" lon="34.85243607"><ele>579.5</ele><time>2013-11-21T08:47:57.0000000+00:00</time></trkpt><trkpt lat="30.88531494" lon="34.85251617"><ele>576.8</ele><time>2013-11-21T08:48:02.0000000+00:00</time></trkpt><trkpt lat="30.88544464" lon="34.85261154"><ele>573.8</ele><time>2013-11-21T08:48:07.0000000+00:00</time></trkpt><trkpt lat="30.88563156" lon="34.85270309"><ele>571.4</ele><time>2013-11-21T08:48:12.0000000+00:00</time></trkpt><trkpt lat="30.88570213" lon="34.85276794"><ele>570.2</ele><time>2013-11-21T08:48:17.0000000+00:00</time></trkpt><trkpt lat="30.88580513" lon="34.85284805"><ele>571.8</ele><time>2013-11-21T08:48:22.0000000+00:00</time></trkpt><trkpt lat="30.88591194" lon="34.85295105"><ele>573.2</ele><time>2013-11-21T08:48:27.0000000+00:00</time></trkpt><trkpt lat="30.88595009" lon="34.85298538"><ele>574.1</ele><time>2013-11-21T08:48:32.0000000+00:00</time></trkpt><trkpt lat="30.88604736" lon="34.85306168"><ele>574.5</ele><time>2013-11-21T08:48:37.0000000+00:00</time></trkpt><trkpt lat="30.88612175" lon="34.85313034"><ele>574.3</ele><time>2013-11-21T08:48:42.0000000+00:00</time></trkpt><trkpt lat="30.8862114" lon="34.85317612"><ele>574.8</ele><time>2013-11-21T08:48:47.0000000+00:00</time></trkpt><trkpt lat="30.88632202" lon="34.85326767"><ele>576.8</ele><time>2013-11-21T08:48:52.0000000+00:00</time></trkpt><trkpt lat="30.88644028" lon="34.85333252"><ele>576.5</ele><time>2013-11-21T08:48:57.0000000+00:00</time></trkpt><trkpt lat="30.88660431" lon="34.85331726"><ele>574.3</ele><time>2013-11-21T08:49:02.0000000+00:00</time></trkpt><trkpt lat="30.88679123" lon="34.85327911"><ele>574.2</ele><time>2013-11-21T08:49:07.0000000+00:00</time></trkpt><trkpt lat="30.88698387" lon="34.85327148"><ele>574.6</ele><time>2013-11-21T08:49:12.0000000+00:00</time></trkpt><trkpt lat="30.88724899" lon="34.85329056"><ele>573.4</ele><time>2013-11-21T08:49:17.0000000+00:00</time></trkpt><trkpt lat="30.88756371" lon="34.85326004"><ele>569.5</ele><time>2013-11-21T08:49:22.0000000+00:00</time></trkpt><trkpt lat="30.88786697" lon="34.8532486"><ele>572.6</ele><time>2013-11-21T08:49:27.0000000+00:00</time></trkpt><trkpt lat="30.88812447" lon="34.85324097"><ele>567.4</ele><time>2013-11-21T08:49:32.0000000+00:00</time></trkpt><trkpt lat="30.88825798" lon="34.85320664"><ele>559.0</ele><time>2013-11-21T08:49:37.0000000+00:00</time></trkpt><trkpt lat="30.88825035" lon="34.85318756"><ele>558.8</ele><time>2013-11-21T08:49:42.0000000+00:00</time></trkpt><trkpt lat="30.88825035" lon="34.85318375"><ele>558.7</ele><time>2013-11-21T08:49:47.0000000+00:00</time></trkpt><trkpt lat="30.88824654" lon="34.85318375"><ele>558.8</ele><time>2013-11-21T08:49:52.0000000+00:00</time></trkpt><trkpt lat="30.88824463" lon="34.85317993"><ele>558.8</ele><time>2013-11-21T08:49:57.0000000+00:00</time></trkpt><trkpt lat="30.88824654" lon="34.85317993"><ele>558.8</ele><time>2013-11-21T08:50:02.0000000+00:00</time></trkpt><trkpt lat="30.88828278" lon="34.85318756"><ele>558.8</ele><time>2013-11-21T08:50:07.0000000+00:00</time></trkpt><trkpt lat="30.88840294" lon="34.85316086"><ele>557.7</ele><time>2013-11-21T08:50:12.0000000+00:00</time></trkpt><trkpt lat="30.88843155" lon="34.85316467"><ele>558.2</ele><time>2013-11-21T08:50:17.0000000+00:00</time></trkpt><trkpt lat="30.88842964" lon="34.85316467"><ele>558.0</ele><time>2013-11-21T08:50:22.0000000+00:00</time></trkpt><trkpt lat="30.88843536" lon="34.85316467"><ele>557.9</ele><time>2013-11-21T08:50:27.0000000+00:00</time></trkpt><trkpt lat="30.88844299" lon="34.85316849"><ele>557.9</ele><time>2013-11-21T08:50:32.0000000+00:00</time></trkpt><trkpt lat="30.88844681" lon="34.8531723"><ele>557.8</ele><time>2013-11-21T08:50:37.0000000+00:00</time></trkpt><trkpt lat="30.88845253" lon="34.85317993"><ele>557.8</ele><time>2013-11-21T08:50:42.0000000+00:00</time></trkpt><trkpt lat="30.88845825" lon="34.85318375"><ele>557.7</ele><time>2013-11-21T08:50:47.0000000+00:00</time></trkpt><trkpt lat="30.88847923" lon="34.8531723"><ele>557.4</ele><time>2013-11-21T08:50:52.0000000+00:00</time></trkpt><trkpt lat="30.88851166" lon="34.85320282"><ele>557.4</ele><time>2013-11-21T08:50:57.0000000+00:00</time></trkpt><trkpt lat="30.88850021" lon="34.85320664"><ele>557.4</ele><time>2013-11-21T08:51:02.0000000+00:00</time></trkpt><trkpt lat="30.88850212" lon="34.85320664"><ele>557.4</ele><time>2013-11-21T08:51:07.0000000+00:00</time></trkpt><trkpt lat="30.88850212" lon="34.85319901"><ele>557.3</ele><time>2013-11-21T08:51:12.0000000+00:00</time></trkpt><trkpt lat="30.88849258" lon="34.85319519"><ele>557.3</ele><time>2013-11-21T08:51:17.0000000+00:00</time></trkpt><trkpt lat="30.88849068" lon="34.85319519"><ele>557.3</ele><time>2013-11-21T08:51:22.0000000+00:00</time></trkpt><trkpt lat="30.88846779" lon="34.85318375"><ele>557.4</ele><time>2013-11-21T08:51:27.0000000+00:00</time></trkpt><trkpt lat="30.88846397" lon="34.85316467"><ele>557.8</ele><time>2013-11-21T08:51:32.0000000+00:00</time></trkpt><trkpt lat="30.88845635" lon="34.85316086"><ele>557.8</ele><time>2013-11-21T08:51:37.0000000+00:00</time></trkpt><trkpt lat="30.88844681" lon="34.85316086"><ele>557.7</ele><time>2013-11-21T08:51:42.0000000+00:00</time></trkpt><trkpt lat="30.88840675" lon="34.85314179"><ele>557.4</ele><time>2013-11-21T08:51:47.0000000+00:00</time></trkpt><trkpt lat="30.88844299" lon="34.85313416"><ele>557.4</ele><time>2013-11-21T08:51:52.0000000+00:00</time></trkpt><trkpt lat="30.88843727" lon="34.85312653"><ele>557.1</ele><time>2013-11-21T08:51:57.0000000+00:00</time></trkpt><trkpt lat="30.88849831" lon="34.85311127"><ele>557.1</ele><time>2013-11-21T08:52:02.0000000+00:00</time></trkpt><trkpt lat="30.88863373" lon="34.85308838"><ele>556.5</ele><time>2013-11-21T08:52:07.0000000+00:00</time></trkpt><trkpt lat="30.88876915" lon="34.85307694"><ele>555.1</ele><time>2013-11-21T08:52:12.0000000+00:00</time></trkpt><trkpt lat="30.88894272" lon="34.85307312"><ele>554.4</ele><time>2013-11-21T08:52:17.0000000+00:00</time></trkpt><trkpt lat="30.88916016" lon="34.8529892"><ele>554.1</ele><time>2013-11-21T08:52:22.0000000+00:00</time></trkpt><trkpt lat="30.88936615" lon="34.85292816"><ele>552.8</ele><time>2013-11-21T08:52:27.0000000+00:00</time></trkpt><trkpt lat="30.88949966" lon="34.85286331"><ele>550.7</ele><time>2013-11-21T08:52:32.0000000+00:00</time></trkpt><trkpt lat="30.8897171" lon="34.85281754"><ele>550.2</ele><time>2013-11-21T08:52:37.0000000+00:00</time></trkpt><trkpt lat="30.8899231" lon="34.85272217"><ele>550.3</ele><time>2013-11-21T08:52:42.0000000+00:00</time></trkpt><trkpt lat="30.89004898" lon="34.85268402"><ele>547.9</ele><time>2013-11-21T08:52:47.0000000+00:00</time></trkpt><trkpt lat="30.89007187" lon="34.85268021"><ele>547.8</ele><time>2013-11-21T08:52:52.0000000+00:00</time></trkpt><trkpt lat="30.89007759" lon="34.85268021"><ele>547.5</ele><time>2013-11-21T08:52:57.0000000+00:00</time></trkpt><trkpt lat="30.89008904" lon="34.85268021"><ele>547.3</ele><time>2013-11-21T08:53:02.0000000+00:00</time></trkpt><trkpt lat="30.89024162" lon="34.85258102"><ele>545.9</ele><time>2013-11-21T08:53:07.0000000+00:00</time></trkpt><trkpt lat="30.89044952" lon="34.85239029"><ele>545.8</ele><time>2013-11-21T08:53:12.0000000+00:00</time></trkpt><trkpt lat="30.89068604" lon="34.85227966"><ele>545.2</ele><time>2013-11-21T08:53:17.0000000+00:00</time></trkpt><trkpt lat="30.89091492" lon="34.85227966"><ele>544.0</ele><time>2013-11-21T08:53:22.0000000+00:00</time></trkpt><trkpt lat="30.89112091" lon="34.85230255"><ele>543.1</ele><time>2013-11-21T08:53:27.0000000+00:00</time></trkpt><trkpt lat="30.8911171" lon="34.8522644"><ele>540.3</ele><time>2013-11-21T08:53:32.0000000+00:00</time></trkpt><trkpt lat="30.89111328" lon="34.8522644"><ele>539.1</ele><time>2013-11-21T08:53:37.0000000+00:00</time></trkpt><trkpt lat="30.8911438" lon="34.852211"><ele>538.5</ele><time>2013-11-21T08:53:42.0000000+00:00</time></trkpt><trkpt lat="30.89116097" lon="34.85213852"><ele>538.3</ele><time>2013-11-21T08:53:47.0000000+00:00</time></trkpt><trkpt lat="30.89116669" lon="34.85205841"><ele>538.2</ele><time>2013-11-21T08:53:52.0000000+00:00</time></trkpt><trkpt lat="30.89120102" lon="34.85199738"><ele>538.0</ele><time>2013-11-21T08:53:57.0000000+00:00</time></trkpt><trkpt lat="30.89124107" lon="34.85186386"><ele>537.5</ele><time>2013-11-21T08:54:02.0000000+00:00</time></trkpt><trkpt lat="30.89128494" lon="34.85176468"><ele>537.2</ele><time>2013-11-21T08:54:07.0000000+00:00</time></trkpt><trkpt lat="30.89131928" lon="34.85160446"><ele>537.3</ele><time>2013-11-21T08:54:12.0000000+00:00</time></trkpt><trkpt lat="30.89126968" lon="34.85144043"><ele>537.2</ele><time>2013-11-21T08:54:17.0000000+00:00</time></trkpt><trkpt lat="30.89122582" lon="34.85125732"><ele>535.6</ele><time>2013-11-21T08:54:22.0000000+00:00</time></trkpt><trkpt lat="30.89120102" lon="34.8510437"><ele>532.9</ele><time>2013-11-21T08:54:27.0000000+00:00</time></trkpt><trkpt lat="30.89121819" lon="34.85081863"><ele>532.2</ele><time>2013-11-21T08:54:32.0000000+00:00</time></trkpt><trkpt lat="30.89122391" lon="34.85058212"><ele>530.8</ele><time>2013-11-21T08:54:37.0000000+00:00</time></trkpt><trkpt lat="30.89113808" lon="34.85033035"><ele>529.6</ele><time>2013-11-21T08:54:42.0000000+00:00</time></trkpt><trkpt lat="30.89096832" lon="34.85006332"><ele>530.8</ele><time>2013-11-21T08:54:47.0000000+00:00</time></trkpt><trkpt lat="30.89085579" lon="34.8498497"><ele>532.1</ele><time>2013-11-21T08:54:52.0000000+00:00</time></trkpt><trkpt lat="30.8906498" lon="34.84978104"><ele>532.5</ele><time>2013-11-21T08:54:57.0000000+00:00</time></trkpt><trkpt lat="30.89051628" lon="34.849617"><ele>533.1</ele><time>2013-11-21T08:55:02.0000000+00:00</time></trkpt><trkpt lat="30.89059067" lon="34.84946442"><ele>534.3</ele><time>2013-11-21T08:55:07.0000000+00:00</time></trkpt><trkpt lat="30.89073181" lon="34.84929657"><ele>532.9</ele><time>2013-11-21T08:55:12.0000000+00:00</time></trkpt><trkpt lat="30.89091873" lon="34.84907913"><ele>532.6</ele><time>2013-11-21T08:55:17.0000000+00:00</time></trkpt><trkpt lat="30.89101982" lon="34.84871674"><ele>533.0</ele><time>2013-11-21T08:55:22.0000000+00:00</time></trkpt><trkpt lat="30.89110947" lon="34.84830093"><ele>534.2</ele><time>2013-11-21T08:55:27.0000000+00:00</time></trkpt><trkpt lat="30.8912468" lon="34.84790039"><ele>533.1</ele><time>2013-11-21T08:55:32.0000000+00:00</time></trkpt><trkpt lat="30.89134789" lon="34.84751511"><ele>533.0</ele><time>2013-11-21T08:55:37.0000000+00:00</time></trkpt><trkpt lat="30.89144707" lon="34.84716797"><ele>533.0</ele><time>2013-11-21T08:55:42.0000000+00:00</time></trkpt><trkpt lat="30.89142227" lon="34.84679413"><ele>533.2</ele><time>2013-11-21T08:55:47.0000000+00:00</time></trkpt><trkpt lat="30.89141083" lon="34.84655762"><ele>532.6</ele><time>2013-11-21T08:55:52.0000000+00:00</time></trkpt><trkpt lat="30.89140892" lon="34.84654617"><ele>532.0</ele><time>2013-11-21T08:55:57.0000000+00:00</time></trkpt><trkpt lat="30.89141274" lon="34.84656143"><ele>532.0</ele><time>2013-11-21T08:56:02.0000000+00:00</time></trkpt><trkpt lat="30.89138603" lon="34.84659195"><ele>531.3</ele><time>2013-11-21T08:56:07.0000000+00:00</time></trkpt><trkpt lat="30.89138985" lon="34.84660721"><ele>531.1</ele><time>2013-11-21T08:56:12.0000000+00:00</time></trkpt><trkpt lat="30.89138794" lon="34.84661102"><ele>531.1</ele><time>2013-11-21T08:56:17.0000000+00:00</time></trkpt><trkpt lat="30.89138031" lon="34.84660721"><ele>531.1</ele><time>2013-11-21T08:56:22.0000000+00:00</time></trkpt><trkpt lat="30.89138031" lon="34.84660721"><ele>531.2</ele><time>2013-11-21T08:56:27.0000000+00:00</time></trkpt><trkpt lat="30.89139557" lon="34.84660721"><ele>531.2</ele><time>2013-11-21T08:56:32.0000000+00:00</time></trkpt><trkpt lat="30.89138794" lon="34.84663773"><ele>531.0</ele><time>2013-11-21T08:56:37.0000000+00:00</time></trkpt><trkpt lat="30.89136696" lon="34.84662247"><ele>531.1</ele><time>2013-11-21T08:56:42.0000000+00:00</time></trkpt><trkpt lat="30.89136314" lon="34.84661484"><ele>531.1</ele><time>2013-11-21T08:56:47.0000000+00:00</time></trkpt><trkpt lat="30.89136696" lon="34.84661484"><ele>531.1</ele><time>2013-11-21T08:56:52.0000000+00:00</time></trkpt><trkpt lat="30.89135933" lon="34.84661484"><ele>531.1</ele><time>2013-11-21T08:56:57.0000000+00:00</time></trkpt><trkpt lat="30.89134979" lon="34.84661484"><ele>531.0</ele><time>2013-11-21T08:57:02.0000000+00:00</time></trkpt><trkpt lat="30.8913517" lon="34.84661484"><ele>531.0</ele><time>2013-11-21T08:57:07.0000000+00:00</time></trkpt><trkpt lat="30.89130592" lon="34.84659958"><ele>530.2</ele><time>2013-11-21T08:57:12.0000000+00:00</time></trkpt><trkpt lat="30.89130402" lon="34.84658051"><ele>529.8</ele><time>2013-11-21T08:57:17.0000000+00:00</time></trkpt><trkpt lat="30.8913002" lon="34.84656906"><ele>530.5</ele><time>2013-11-21T08:57:22.0000000+00:00</time></trkpt><trkpt lat="30.8913002" lon="34.84656906"><ele>530.5</ele><time>2013-11-21T08:57:27.0000000+00:00</time></trkpt><trkpt lat="30.89130783" lon="34.84656906"><ele>530.5</ele><time>2013-11-21T08:57:32.0000000+00:00</time></trkpt><trkpt lat="30.89129067" lon="34.84657669"><ele>530.7</ele><time>2013-11-21T08:57:37.0000000+00:00</time></trkpt><trkpt lat="30.89128113" lon="34.84658051"><ele>530.4</ele><time>2013-11-21T08:57:42.0000000+00:00</time></trkpt><trkpt lat="30.89127731" lon="34.84658432"><ele>530.4</ele><time>2013-11-21T08:57:47.0000000+00:00</time></trkpt><trkpt lat="30.89130783" lon="34.84660339"><ele>530.5</ele><time>2013-11-21T08:57:52.0000000+00:00</time></trkpt><trkpt lat="30.89129639" lon="34.84659195"><ele>529.9</ele><time>2013-11-21T08:57:57.0000000+00:00</time></trkpt><trkpt lat="30.89131737" lon="34.84660339"><ele>529.5</ele><time>2013-11-21T08:58:02.0000000+00:00</time></trkpt><trkpt lat="30.891325" lon="34.84660721"><ele>529.5</ele><time>2013-11-21T08:58:07.0000000+00:00</time></trkpt><trkpt lat="30.89134979" lon="34.84662247"><ele>529.4</ele><time>2013-11-21T08:58:12.0000000+00:00</time></trkpt><trkpt lat="30.89139366" lon="34.8466568"><ele>528.7</ele><time>2013-11-21T08:58:17.0000000+00:00</time></trkpt><trkpt lat="30.89139938" lon="34.84666443"><ele>527.2</ele><time>2013-11-21T08:58:22.0000000+00:00</time></trkpt><trkpt lat="30.8914299" lon="34.84667206"><ele>525.9</ele><time>2013-11-21T08:58:27.0000000+00:00</time></trkpt><trkpt lat="30.89140892" lon="34.84665299"><ele>526.0</ele><time>2013-11-21T08:58:32.0000000+00:00</time></trkpt><trkpt lat="30.89138603" lon="34.84653091"><ele>526.3</ele><time>2013-11-21T08:58:37.0000000+00:00</time></trkpt><trkpt lat="30.89134026" lon="34.84634018"><ele>526.2</ele><time>2013-11-21T08:58:42.0000000+00:00</time></trkpt><trkpt lat="30.89130592" lon="34.84612656"><ele>525.2</ele><time>2013-11-21T08:58:47.0000000+00:00</time></trkpt><trkpt lat="30.89126968" lon="34.84575653"><ele>524.1</ele><time>2013-11-21T08:58:52.0000000+00:00</time></trkpt><trkpt lat="30.89119911" lon="34.84540558"><ele>523.4</ele><time>2013-11-21T08:58:57.0000000+00:00</time></trkpt><trkpt lat="30.89113426" lon="34.84506607"><ele>523.1</ele><time>2013-11-21T08:59:02.0000000+00:00</time></trkpt><trkpt lat="30.89109802" lon="34.84473801"><ele>524.3</ele><time>2013-11-21T08:59:07.0000000+00:00</time></trkpt><trkpt lat="30.89102364" lon="34.84448242"><ele>524.0</ele><time>2013-11-21T08:59:12.0000000+00:00</time></trkpt><trkpt lat="30.89102936" lon="34.8442421"><ele>524.7</ele><time>2013-11-21T08:59:17.0000000+00:00</time></trkpt><trkpt lat="30.89103508" lon="34.84410477"><ele>523.8</ele><time>2013-11-21T08:59:22.0000000+00:00</time></trkpt><trkpt lat="30.89101982" lon="34.84401321"><ele>523.3</ele><time>2013-11-21T08:59:27.0000000+00:00</time></trkpt><trkpt lat="30.89107895" lon="34.84394074"><ele>523.4</ele><time>2013-11-21T08:59:32.0000000+00:00</time></trkpt><trkpt lat="30.89113426" lon="34.84383011"><ele>522.4</ele><time>2013-11-21T08:59:37.0000000+00:00</time></trkpt><trkpt lat="30.89116287" lon="34.84370804"><ele>520.7</ele><time>2013-11-21T08:59:42.0000000+00:00</time></trkpt><trkpt lat="30.89123344" lon="34.84365463"><ele>519.6</ele><time>2013-11-21T08:59:47.0000000+00:00</time></trkpt><trkpt lat="30.89134216" lon="34.84358978"><ele>520.2</ele><time>2013-11-21T08:59:52.0000000+00:00</time></trkpt><trkpt lat="30.89146423" lon="34.84354782"><ele>521.8</ele><time>2013-11-21T08:59:57.0000000+00:00</time></trkpt><trkpt lat="30.89162445" lon="34.84348679"><ele>523.8</ele><time>2013-11-21T09:00:02.0000000+00:00</time></trkpt><trkpt lat="30.89179039" lon="34.84342194"><ele>524.7</ele><time>2013-11-21T09:00:07.0000000+00:00</time></trkpt><trkpt lat="30.89193153" lon="34.84328842"><ele>524.5</ele><time>2013-11-21T09:00:12.0000000+00:00</time></trkpt><trkpt lat="30.89214516" lon="34.84320068"><ele>524.1</ele><time>2013-11-21T09:00:17.0000000+00:00</time></trkpt><trkpt lat="30.89221764" lon="34.8430748"><ele>522.9</ele><time>2013-11-21T09:00:22.0000000+00:00</time></trkpt><trkpt lat="30.89223099" lon="34.84296417"><ele>523.2</ele><time>2013-11-21T09:00:27.0000000+00:00</time></trkpt><trkpt lat="30.89225006" lon="34.84279633"><ele>522.5</ele><time>2013-11-21T09:00:32.0000000+00:00</time></trkpt><trkpt lat="30.89235687" lon="34.84260178"><ele>523.8</ele><time>2013-11-21T09:00:37.0000000+00:00</time></trkpt><trkpt lat="30.89250374" lon="34.84238052"><ele>524.5</ele><time>2013-11-21T09:00:42.0000000+00:00</time></trkpt><trkpt lat="30.89262199" lon="34.84226227"><ele>524.6</ele><time>2013-11-21T09:00:47.0000000+00:00</time></trkpt><trkpt lat="30.89271927" lon="34.84208298"><ele>525.4</ele><time>2013-11-21T09:00:52.0000000+00:00</time></trkpt><trkpt lat="30.89274979" lon="34.84206772"><ele>526.7</ele><time>2013-11-21T09:00:57.0000000+00:00</time></trkpt><trkpt lat="30.89274597" lon="34.84207153"><ele>526.7</ele><time>2013-11-21T09:01:02.0000000+00:00</time></trkpt><trkpt lat="30.89274406" lon="34.84207153"><ele>526.7</ele><time>2013-11-21T09:01:07.0000000+00:00</time></trkpt><trkpt lat="30.89274597" lon="34.84207535"><ele>526.7</ele><time>2013-11-21T09:01:12.0000000+00:00</time></trkpt><trkpt lat="30.89274406" lon="34.84207153"><ele>526.7</ele><time>2013-11-21T09:01:17.0000000+00:00</time></trkpt><trkpt lat="30.89274216" lon="34.84207916"><ele>526.7</ele><time>2013-11-21T09:01:22.0000000+00:00</time></trkpt><trkpt lat="30.89274597" lon="34.8420639"><ele>526.7</ele><time>2013-11-21T09:01:27.0000000+00:00</time></trkpt><trkpt lat="30.89279175" lon="34.84194183"><ele>527.1</ele><time>2013-11-21T09:01:32.0000000+00:00</time></trkpt><trkpt lat="30.89290047" lon="34.84176636"><ele>527.4</ele><time>2013-11-21T09:01:37.0000000+00:00</time></trkpt><trkpt lat="30.89299965" lon="34.84159851"><ele>527.5</ele><time>2013-11-21T09:01:42.0000000+00:00</time></trkpt><trkpt lat="30.89310646" lon="34.84132385"><ele>525.9</ele><time>2013-11-21T09:01:47.0000000+00:00</time></trkpt><trkpt lat="30.89319992" lon="34.84104538"><ele>524.9</ele><time>2013-11-21T09:01:52.0000000+00:00</time></trkpt><trkpt lat="30.89342499" lon="34.84093094"><ele>524.1</ele><time>2013-11-21T09:01:57.0000000+00:00</time></trkpt><trkpt lat="30.89354706" lon="34.84080887"><ele>523.3</ele><time>2013-11-21T09:02:02.0000000+00:00</time></trkpt><trkpt lat="30.89366531" lon="34.84072113"><ele>524.7</ele><time>2013-11-21T09:02:07.0000000+00:00</time></trkpt><trkpt lat="30.8937664" lon="34.84056091"><ele>524.4</ele><time>2013-11-21T09:02:12.0000000+00:00</time></trkpt><trkpt lat="30.89389992" lon="34.84037399"><ele>523.4</ele><time>2013-11-21T09:02:17.0000000+00:00</time></trkpt><trkpt lat="30.89407158" lon="34.84031677"><ele>523.0</ele><time>2013-11-21T09:02:22.0000000+00:00</time></trkpt><trkpt lat="30.89415741" lon="34.84030533"><ele>523.2</ele><time>2013-11-21T09:02:27.0000000+00:00</time></trkpt><trkpt lat="30.8941536" lon="34.84030533"><ele>522.8</ele><time>2013-11-21T09:02:32.0000000+00:00</time></trkpt><trkpt lat="30.8941555" lon="34.84030533"><ele>522.5</ele><time>2013-11-21T09:02:37.0000000+00:00</time></trkpt><trkpt lat="30.89415169" lon="34.84030533"><ele>522.4</ele><time>2013-11-21T09:02:42.0000000+00:00</time></trkpt><trkpt lat="30.89414978" lon="34.84030533"><ele>522.4</ele><time>2013-11-21T09:02:47.0000000+00:00</time></trkpt><trkpt lat="30.89415169" lon="34.84030533"><ele>522.4</ele><time>2013-11-21T09:02:52.0000000+00:00</time></trkpt><trkpt lat="30.89415169" lon="34.84030533"><ele>522.4</ele><time>2013-11-21T09:02:57.0000000+00:00</time></trkpt><trkpt lat="30.89414597" lon="34.84030533"><ele>522.3</ele><time>2013-11-21T09:03:02.0000000+00:00</time></trkpt><trkpt lat="30.89414978" lon="34.84030914"><ele>522.3</ele><time>2013-11-21T09:03:07.0000000+00:00</time></trkpt><trkpt lat="30.89416313" lon="34.84030914"><ele>522.3</ele><time>2013-11-21T09:03:12.0000000+00:00</time></trkpt><trkpt lat="30.89417648" lon="34.84031296"><ele>522.3</ele><time>2013-11-21T09:03:17.0000000+00:00</time></trkpt><trkpt lat="30.89418602" lon="34.84031296"><ele>522.3</ele><time>2013-11-21T09:03:22.0000000+00:00</time></trkpt><trkpt lat="30.89418984" lon="34.84031296"><ele>522.3</ele><time>2013-11-21T09:03:27.0000000+00:00</time></trkpt><trkpt lat="30.89419365" lon="34.84031296"><ele>522.3</ele><time>2013-11-21T09:03:32.0000000+00:00</time></trkpt><trkpt lat="30.89419365" lon="34.84031296"><ele>522.3</ele><time>2013-11-21T09:03:37.0000000+00:00</time></trkpt><trkpt lat="30.89419174" lon="34.84031296"><ele>522.3</ele><time>2013-11-21T09:03:42.0000000+00:00</time></trkpt><trkpt lat="30.89419174" lon="34.84031296"><ele>522.3</ele><time>2013-11-21T09:03:47.0000000+00:00</time></trkpt><trkpt lat="30.89418984" lon="34.84031296"><ele>522.3</ele><time>2013-11-21T09:03:52.0000000+00:00</time></trkpt><trkpt lat="30.89418984" lon="34.84031296"><ele>522.3</ele><time>2013-11-21T09:03:57.0000000+00:00</time></trkpt><trkpt lat="30.89418984" lon="34.84031296"><ele>522.3</ele><time>2013-11-21T09:04:02.0000000+00:00</time></trkpt><trkpt lat="30.89418984" lon="34.84031296"><ele>522.3</ele><time>2013-11-21T09:04:07.0000000+00:00</time></trkpt><trkpt lat="30.89418984" lon="34.84031296"><ele>522.3</ele><time>2013-11-21T09:04:12.0000000+00:00</time></trkpt><trkpt lat="30.89418984" lon="34.84031296"><ele>522.3</ele><time>2013-11-21T09:04:17.0000000+00:00</time></trkpt><trkpt lat="30.89418984" lon="34.84031296"><ele>522.3</ele><time>2013-11-21T09:04:22.0000000+00:00</time></trkpt><trkpt lat="30.89418984" lon="34.84031296"><ele>522.3</ele><time>2013-11-21T09:04:27.0000000+00:00</time></trkpt><trkpt lat="30.89418793" lon="34.84031296"><ele>522.3</ele><time>2013-11-21T09:04:32.0000000+00:00</time></trkpt><trkpt lat="30.89418984" lon="34.84031296"><ele>522.3</ele><time>2013-11-21T09:04:37.0000000+00:00</time></trkpt><trkpt lat="30.89420128" lon="34.84029388"><ele>522.2</ele><time>2013-11-21T09:04:42.0000000+00:00</time></trkpt><trkpt lat="30.89432526" lon="34.84004974"><ele>520.6</ele><time>2013-11-21T09:04:47.0000000+00:00</time></trkpt><trkpt lat="30.8944397" lon="34.83981705"><ele>519.6</ele><time>2013-11-21T09:04:52.0000000+00:00</time></trkpt><trkpt lat="30.89452553" lon="34.83958435"><ele>518.4</ele><time>2013-11-21T09:04:57.0000000+00:00</time></trkpt><trkpt lat="30.89465332" lon="34.83935165"><ele>518.5</ele><time>2013-11-21T09:05:02.0000000+00:00</time></trkpt><trkpt lat="30.89475822" lon="34.83916092"><ele>518.0</ele><time>2013-11-21T09:05:07.0000000+00:00</time></trkpt><trkpt lat="30.89485359" lon="34.83893585"><ele>517.5</ele><time>2013-11-21T09:05:12.0000000+00:00</time></trkpt><trkpt lat="30.89496994" lon="34.83873367"><ele>516.0</ele><time>2013-11-21T09:05:17.0000000+00:00</time></trkpt><trkpt lat="30.89505386" lon="34.83852768"><ele>515.0</ele><time>2013-11-21T09:05:22.0000000+00:00</time></trkpt><trkpt lat="30.89504433" lon="34.83851624"><ele>510.5</ele><time>2013-11-21T09:05:27.0000000+00:00</time></trkpt><trkpt lat="30.89504051" lon="34.83851242"><ele>510.6</ele><time>2013-11-21T09:05:32.0000000+00:00</time></trkpt><trkpt lat="30.89504051" lon="34.83851242"><ele>510.7</ele><time>2013-11-21T09:05:37.0000000+00:00</time></trkpt><trkpt lat="30.89504242" lon="34.83851242"><ele>510.7</ele><time>2013-11-21T09:05:42.0000000+00:00</time></trkpt><trkpt lat="30.89503861" lon="34.83851242"><ele>510.8</ele><time>2013-11-21T09:05:47.0000000+00:00</time></trkpt><trkpt lat="30.89503479" lon="34.83851242"><ele>510.8</ele><time>2013-11-21T09:05:52.0000000+00:00</time></trkpt><trkpt lat="30.89504814" lon="34.83856583"><ele>512.1</ele><time>2013-11-21T09:05:57.0000000+00:00</time></trkpt><trkpt lat="30.89497948" lon="34.8386879"><ele>512.6</ele><time>2013-11-21T09:06:02.0000000+00:00</time></trkpt><trkpt lat="30.89486504" lon="34.83886719"><ele>512.9</ele><time>2013-11-21T09:06:07.0000000+00:00</time></trkpt><trkpt lat="30.89476204" lon="34.83908081"><ele>512.8</ele><time>2013-11-21T09:06:12.0000000+00:00</time></trkpt><trkpt lat="30.89464951" lon="34.83929062"><ele>513.0</ele><time>2013-11-21T09:06:17.0000000+00:00</time></trkpt><trkpt lat="30.89453697" lon="34.83948898"><ele>513.3</ele><time>2013-11-21T09:06:22.0000000+00:00</time></trkpt><trkpt lat="30.89445114" lon="34.83967209"><ele>514.1</ele><time>2013-11-21T09:06:27.0000000+00:00</time></trkpt><trkpt lat="30.8943367" lon="34.83988953"><ele>515.2</ele><time>2013-11-21T09:06:32.0000000+00:00</time></trkpt><trkpt lat="30.89425278" lon="34.84006119"><ele>515.7</ele><time>2013-11-21T09:06:37.0000000+00:00</time></trkpt><trkpt lat="30.89423561" lon="34.84020996"><ele>516.0</ele><time>2013-11-21T09:06:42.0000000+00:00</time></trkpt><trkpt lat="30.89418602" lon="34.84027863"><ele>516.5</ele><time>2013-11-21T09:06:47.0000000+00:00</time></trkpt><trkpt lat="30.8941555" lon="34.8403244"><ele>517.0</ele><time>2013-11-21T09:06:52.0000000+00:00</time></trkpt><trkpt lat="30.89417267" lon="34.84031296"><ele>517.5</ele><time>2013-11-21T09:06:57.0000000+00:00</time></trkpt><trkpt lat="30.89416885" lon="34.8403244"><ele>517.6</ele><time>2013-11-21T09:07:02.0000000+00:00</time></trkpt><trkpt lat="30.89417839" lon="34.84033966"><ele>517.7</ele><time>2013-11-21T09:07:07.0000000+00:00</time></trkpt><trkpt lat="30.89428902" lon="34.84032822"><ele>516.5</ele><time>2013-11-21T09:07:12.0000000+00:00</time></trkpt><trkpt lat="30.89440346" lon="34.8403244"><ele>517.1</ele><time>2013-11-21T09:07:17.0000000+00:00</time></trkpt><trkpt lat="30.89445496" lon="34.84034729"><ele>517.6</ele><time>2013-11-21T09:07:22.0000000+00:00</time></trkpt><trkpt lat="30.89451599" lon="34.84036255"><ele>517.8</ele><time>2013-11-21T09:07:27.0000000+00:00</time></trkpt><trkpt lat="30.89455795" lon="34.84038162"><ele>518.5</ele><time>2013-11-21T09:07:32.0000000+00:00</time></trkpt><trkpt lat="30.89465332" lon="34.84043121"><ele>518.6</ele><time>2013-11-21T09:07:37.0000000+00:00</time></trkpt><trkpt lat="30.89474678" lon="34.84049988"><ele>518.9</ele><time>2013-11-21T09:07:42.0000000+00:00</time></trkpt><trkpt lat="30.89481545" lon="34.8405571"><ele>519.2</ele><time>2013-11-21T09:07:47.0000000+00:00</time></trkpt><trkpt lat="30.89487457" lon="34.84064102"><ele>519.4</ele><time>2013-11-21T09:07:52.0000000+00:00</time></trkpt><trkpt lat="30.8949337" lon="34.8407402"><ele>519.9</ele><time>2013-11-21T09:07:57.0000000+00:00</time></trkpt><trkpt lat="30.89495468" lon="34.84086609"><ele>520.7</ele><time>2013-11-21T09:08:02.0000000+00:00</time></trkpt><trkpt lat="30.89497757" lon="34.84099579"><ele>521.3</ele><time>2013-11-21T09:08:07.0000000+00:00</time></trkpt><trkpt lat="30.89501953" lon="34.84112549"><ele>522.4</ele><time>2013-11-21T09:08:12.0000000+00:00</time></trkpt><trkpt lat="30.89504433" lon="34.84127808"><ele>523.4</ele><time>2013-11-21T09:08:17.0000000+00:00</time></trkpt><trkpt lat="30.89513588" lon="34.84141541"><ele>524.5</ele><time>2013-11-21T09:08:22.0000000+00:00</time></trkpt><trkpt lat="30.89524651" lon="34.84153366"><ele>525.3</ele><time>2013-11-21T09:08:27.0000000+00:00</time></trkpt><trkpt lat="30.89528275" lon="34.8416214"><ele>526.6</ele><time>2013-11-21T09:08:32.0000000+00:00</time></trkpt><trkpt lat="30.89532852" lon="34.84170532"><ele>526.8</ele><time>2013-11-21T09:08:37.0000000+00:00</time></trkpt><trkpt lat="30.89538384" lon="34.84173203"><ele>525.9</ele><time>2013-11-21T09:08:42.0000000+00:00</time></trkpt><trkpt lat="30.89548492" lon="34.84179688"><ele>527.6</ele><time>2013-11-21T09:08:47.0000000+00:00</time></trkpt><trkpt lat="30.8955555" lon="34.84186173"><ele>528.3</ele><time>2013-11-21T09:08:52.0000000+00:00</time></trkpt><trkpt lat="30.89556694" lon="34.84191895"><ele>529.1</ele><time>2013-11-21T09:08:57.0000000+00:00</time></trkpt><trkpt lat="30.89556885" lon="34.84199905"><ele>530.1</ele><time>2013-11-21T09:09:02.0000000+00:00</time></trkpt><trkpt lat="30.89554787" lon="34.84207535"><ele>531.6</ele><time>2013-11-21T09:09:07.0000000+00:00</time></trkpt><trkpt lat="30.89554215" lon="34.84215164"><ele>533.1</ele><time>2013-11-21T09:09:12.0000000+00:00</time></trkpt><trkpt lat="30.89556313" lon="34.84215927"><ele>533.4</ele><time>2013-11-21T09:09:17.0000000+00:00</time></trkpt><trkpt lat="30.89556885" lon="34.84220123"><ele>534.4</ele><time>2013-11-21T09:09:22.0000000+00:00</time></trkpt><trkpt lat="30.89563561" lon="34.84225464"><ele>534.5</ele><time>2013-11-21T09:09:27.0000000+00:00</time></trkpt><trkpt lat="30.89563942" lon="34.84231949"><ele>535.0</ele><time>2013-11-21T09:09:32.0000000+00:00</time></trkpt><trkpt lat="30.89563179" lon="34.84235764"><ele>534.4</ele><time>2013-11-21T09:09:37.0000000+00:00</time></trkpt><trkpt lat="30.89565468" lon="34.84241486"><ele>533.8</ele><time>2013-11-21T09:09:42.0000000+00:00</time></trkpt><trkpt lat="30.89566231" lon="34.84246826"><ele>533.0</ele><time>2013-11-21T09:09:47.0000000+00:00</time></trkpt><trkpt lat="30.8956604" lon="34.84253693"><ele>533.6</ele><time>2013-11-21T09:09:52.0000000+00:00</time></trkpt><trkpt lat="30.8956871" lon="34.84259033"><ele>534.5</ele><time>2013-11-21T09:09:57.0000000+00:00</time></trkpt><trkpt lat="30.89569473" lon="34.84261322"><ele>535.7</ele><time>2013-11-21T09:10:02.0000000+00:00</time></trkpt><trkpt lat="30.89570236" lon="34.84262085"><ele>535.8</ele><time>2013-11-21T09:10:07.0000000+00:00</time></trkpt><trkpt lat="30.89574623" lon="34.84260941"><ele>535.9</ele><time>2013-11-21T09:10:12.0000000+00:00</time></trkpt><trkpt lat="30.89579582" lon="34.84259415"><ele>536.2</ele><time>2013-11-21T09:10:17.0000000+00:00</time></trkpt><trkpt lat="30.89582062" lon="34.84259033"><ele>535.5</ele><time>2013-11-21T09:10:22.0000000+00:00</time></trkpt><trkpt lat="30.89582253" lon="34.84259033"><ele>535.3</ele><time>2013-11-21T09:10:27.0000000+00:00</time></trkpt><trkpt lat="30.89581871" lon="34.84259033"><ele>535.3</ele><time>2013-11-21T09:10:32.0000000+00:00</time></trkpt><trkpt lat="30.89583969" lon="34.84261322"><ele>535.4</ele><time>2013-11-21T09:10:37.0000000+00:00</time></trkpt><trkpt lat="30.89589119" lon="34.84264374"><ele>535.2</ele><time>2013-11-21T09:10:42.0000000+00:00</time></trkpt><trkpt lat="30.89595223" lon="34.84260941"><ele>535.2</ele><time>2013-11-21T09:10:47.0000000+00:00</time></trkpt><trkpt lat="30.89597893" lon="34.84262085"><ele>534.9</ele><time>2013-11-21T09:10:52.0000000+00:00</time></trkpt><trkpt lat="30.89595795" lon="34.84260559"><ele>534.7</ele><time>2013-11-21T09:10:57.0000000+00:00</time></trkpt><trkpt lat="30.89594841" lon="34.84260941"><ele>534.6</ele><time>2013-11-21T09:11:02.0000000+00:00</time></trkpt><trkpt lat="30.89594078" lon="34.84262848"><ele>534.8</ele><time>2013-11-21T09:11:07.0000000+00:00</time></trkpt><trkpt lat="30.89587784" lon="34.84264374"><ele>534.7</ele><time>2013-11-21T09:11:12.0000000+00:00</time></trkpt><trkpt lat="30.89580154" lon="34.8425827"><ele>534.8</ele><time>2013-11-21T09:11:17.0000000+00:00</time></trkpt><trkpt lat="30.89578819" lon="34.84253693"><ele>535.4</ele><time>2013-11-21T09:11:22.0000000+00:00</time></trkpt><trkpt lat="30.89577675" lon="34.84253693"><ele>535.4</ele><time>2013-11-21T09:11:27.0000000+00:00</time></trkpt><trkpt lat="30.89575958" lon="34.84251404"><ele>535.4</ele><time>2013-11-21T09:11:32.0000000+00:00</time></trkpt><trkpt lat="30.89575577" lon="34.84251785"><ele>535.9</ele><time>2013-11-21T09:11:37.0000000+00:00</time></trkpt><trkpt lat="30.89572716" lon="34.84249115"><ele>536.2</ele><time>2013-11-21T09:11:42.0000000+00:00</time></trkpt><trkpt lat="30.89565468" lon="34.84237289"><ele>536.8</ele><time>2013-11-21T09:11:47.0000000+00:00</time></trkpt><trkpt lat="30.89562225" lon="34.84226227"><ele>537.2</ele><time>2013-11-21T09:11:52.0000000+00:00</time></trkpt><trkpt lat="30.89557457" lon="34.84215164"><ele>537.0</ele><time>2013-11-21T09:11:57.0000000+00:00</time></trkpt><trkpt lat="30.89554405" lon="34.84210587"><ele>535.8</ele><time>2013-11-21T09:12:02.0000000+00:00</time></trkpt><trkpt lat="30.89554787" lon="34.84208298"><ele>535.9</ele><time>2013-11-21T09:12:07.0000000+00:00</time></trkpt><trkpt lat="30.89556694" lon="34.84187698"><ele>536.2</ele><time>2013-11-21T09:12:12.0000000+00:00</time></trkpt><trkpt lat="30.8953743" lon="34.84167862"><ele>536.2</ele><time>2013-11-21T09:12:17.0000000+00:00</time></trkpt><trkpt lat="30.89526939" lon="34.84154129"><ele>535.4</ele><time>2013-11-21T09:12:22.0000000+00:00</time></trkpt><trkpt lat="30.89513588" lon="34.84143448"><ele>534.7</ele><time>2013-11-21T09:12:27.0000000+00:00</time></trkpt><trkpt lat="30.89504623" lon="34.84128571"><ele>534.3</ele><time>2013-11-21T09:12:32.0000000+00:00</time></trkpt><trkpt lat="30.8950119" lon="34.84115601"><ele>533.2</ele><time>2013-11-21T09:12:37.0000000+00:00</time></trkpt><trkpt lat="30.89495659" lon="34.84090042"><ele>532.3</ele><time>2013-11-21T09:12:42.0000000+00:00</time></trkpt><trkpt lat="30.89484024" lon="34.84065628"><ele>531.6</ele><time>2013-11-21T09:12:47.0000000+00:00</time></trkpt><trkpt lat="30.89465714" lon="34.84046173"><ele>531.4</ele><time>2013-11-21T09:12:52.0000000+00:00</time></trkpt><trkpt lat="30.89455032" lon="34.84046936"><ele>531.4</ele><time>2013-11-21T09:12:57.0000000+00:00</time></trkpt><trkpt lat="30.89448166" lon="34.84045792"><ele>531.7</ele><time>2013-11-21T09:13:02.0000000+00:00</time></trkpt><trkpt lat="30.89439011" lon="34.84043503"><ele>531.5</ele><time>2013-11-21T09:13:07.0000000+00:00</time></trkpt><trkpt lat="30.89438438" lon="34.84041596"><ele>530.7</ele><time>2013-11-21T09:13:12.0000000+00:00</time></trkpt><trkpt lat="30.8943634" lon="34.84039307"><ele>530.7</ele><time>2013-11-21T09:13:17.0000000+00:00</time></trkpt><trkpt lat="30.89432335" lon="34.84020615"><ele>530.6</ele><time>2013-11-21T09:13:22.0000000+00:00</time></trkpt><trkpt lat="30.89432716" lon="34.84003067"><ele>529.8</ele><time>2013-11-21T09:13:27.0000000+00:00</time></trkpt><trkpt lat="30.89441109" lon="34.83980179"><ele>528.5</ele><time>2013-11-21T09:13:32.0000000+00:00</time></trkpt><trkpt lat="30.89448929" lon="34.83963013"><ele>527.4</ele><time>2013-11-21T09:13:37.0000000+00:00</time></trkpt><trkpt lat="30.89456368" lon="34.83946991"><ele>526.0</ele><time>2013-11-21T09:13:42.0000000+00:00</time></trkpt><trkpt lat="30.89463615" lon="34.83927536"><ele>524.2</ele><time>2013-11-21T09:13:47.0000000+00:00</time></trkpt><trkpt lat="30.89472008" lon="34.8391304"><ele>523.8</ele><time>2013-11-21T09:13:52.0000000+00:00</time></trkpt><trkpt lat="30.89481354" lon="34.83895493"><ele>523.0</ele><time>2013-11-21T09:13:57.0000000+00:00</time></trkpt><trkpt lat="30.89492226" lon="34.83876419"><ele>522.1</ele><time>2013-11-21T09:14:02.0000000+00:00</time></trkpt><trkpt lat="30.89506149" lon="34.83857727"><ele>521.1</ele><time>2013-11-21T09:14:07.0000000+00:00</time></trkpt><trkpt lat="30.89522362" lon="34.83840179"><ele>521.0</ele><time>2013-11-21T09:14:12.0000000+00:00</time></trkpt><trkpt lat="30.89541817" lon="34.8382721"><ele>521.0</ele><time>2013-11-21T09:14:17.0000000+00:00</time></trkpt><trkpt lat="30.89559364" lon="34.83810806"><ele>519.8</ele><time>2013-11-21T09:14:22.0000000+00:00</time></trkpt><trkpt lat="30.89572716" lon="34.83790588"><ele>518.2</ele><time>2013-11-21T09:14:27.0000000+00:00</time></trkpt><trkpt lat="30.89580536" lon="34.83766556"><ele>518.0</ele><time>2013-11-21T09:14:32.0000000+00:00</time></trkpt><trkpt lat="30.89591217" lon="34.83741379"><ele>517.2</ele><time>2013-11-21T09:14:37.0000000+00:00</time></trkpt><trkpt lat="30.89600563" lon="34.8371582"><ele>517.5</ele><time>2013-11-21T09:14:42.0000000+00:00</time></trkpt><trkpt lat="30.8960743" lon="34.83692551"><ele>516.4</ele><time>2013-11-21T09:14:47.0000000+00:00</time></trkpt><trkpt lat="30.89609337" lon="34.83665848"><ele>515.9</ele><time>2013-11-21T09:14:52.0000000+00:00</time></trkpt><trkpt lat="30.89610291" lon="34.83637619"><ele>516.6</ele><time>2013-11-21T09:14:57.0000000+00:00</time></trkpt><trkpt lat="30.89621544" lon="34.8361702"><ele>516.0</ele><time>2013-11-21T09:15:02.0000000+00:00</time></trkpt><trkpt lat="30.89632225" lon="34.83597946"><ele>517.0</ele><time>2013-11-21T09:15:07.0000000+00:00</time></trkpt><trkpt lat="30.89632416" lon="34.83573151"><ele>516.0</ele><time>2013-11-21T09:15:12.0000000+00:00</time></trkpt><trkpt lat="30.89637375" lon="34.83546066"><ele>516.6</ele><time>2013-11-21T09:15:17.0000000+00:00</time></trkpt><trkpt lat="30.89651108" lon="34.83529663"><ele>514.5</ele><time>2013-11-21T09:15:22.0000000+00:00</time></trkpt><trkpt lat="30.89661789" lon="34.83504868"><ele>514.5</ele><time>2013-11-21T09:15:27.0000000+00:00</time></trkpt><trkpt lat="30.89667702" lon="34.83477402"><ele>512.3</ele><time>2013-11-21T09:15:32.0000000+00:00</time></trkpt><trkpt lat="30.89669228" lon="34.83451843"><ele>511.0</ele><time>2013-11-21T09:15:37.0000000+00:00</time></trkpt><trkpt lat="30.8967495" lon="34.83424377"><ele>509.5</ele><time>2013-11-21T09:15:42.0000000+00:00</time></trkpt><trkpt lat="30.89674377" lon="34.83394623"><ele>508.5</ele><time>2013-11-21T09:15:47.0000000+00:00</time></trkpt><trkpt lat="30.89678001" lon="34.83367539"><ele>507.7</ele><time>2013-11-21T09:15:52.0000000+00:00</time></trkpt><trkpt lat="30.89678383" lon="34.83340454"><ele>506.6</ele><time>2013-11-21T09:15:57.0000000+00:00</time></trkpt><trkpt lat="30.89671898" lon="34.83309937"><ele>506.6</ele><time>2013-11-21T09:16:02.0000000+00:00</time></trkpt><trkpt lat="30.89678764" lon="34.83287811"><ele>506.1</ele><time>2013-11-21T09:16:07.0000000+00:00</time></trkpt><trkpt lat="30.89686203" lon="34.83267212"><ele>504.7</ele><time>2013-11-21T09:16:12.0000000+00:00</time></trkpt><trkpt lat="30.89691544" lon="34.83242798"><ele>502.7</ele><time>2013-11-21T09:16:17.0000000+00:00</time></trkpt><trkpt lat="30.89695931" lon="34.83216095"><ele>500.9</ele><time>2013-11-21T09:16:22.0000000+00:00</time></trkpt><trkpt lat="30.89705277" lon="34.83198929"><ele>499.6</ele><time>2013-11-21T09:16:27.0000000+00:00</time></trkpt><trkpt lat="30.89717865" lon="34.83179474"><ele>499.0</ele><time>2013-11-21T09:16:32.0000000+00:00</time></trkpt><trkpt lat="30.89726448" lon="34.83162689"><ele>498.5</ele><time>2013-11-21T09:16:37.0000000+00:00</time></trkpt><trkpt lat="30.89733124" lon="34.83150864"><ele>498.0</ele><time>2013-11-21T09:16:42.0000000+00:00</time></trkpt><trkpt lat="30.89740753" lon="34.83139801"><ele>498.6</ele><time>2013-11-21T09:16:47.0000000+00:00</time></trkpt><trkpt lat="30.89753723" lon="34.83123779"><ele>498.9</ele><time>2013-11-21T09:16:52.0000000+00:00</time></trkpt><trkpt lat="30.89764595" lon="34.83115768"><ele>499.7</ele><time>2013-11-21T09:16:57.0000000+00:00</time></trkpt><trkpt lat="30.89767265" lon="34.83102036"><ele>500.6</ele><time>2013-11-21T09:17:02.0000000+00:00</time></trkpt><trkpt lat="30.89770699" lon="34.83088303"><ele>502.7</ele><time>2013-11-21T09:17:07.0000000+00:00</time></trkpt><trkpt lat="30.89776802" lon="34.83071899"><ele>503.6</ele><time>2013-11-21T09:17:12.0000000+00:00</time></trkpt><trkpt lat="30.89784432" lon="34.83057785"><ele>503.2</ele><time>2013-11-21T09:17:17.0000000+00:00</time></trkpt><trkpt lat="30.89793587" lon="34.83039856"><ele>503.8</ele><time>2013-11-21T09:17:22.0000000+00:00</time></trkpt><trkpt lat="30.8980217" lon="34.83022308"><ele>506.1</ele><time>2013-11-21T09:17:27.0000000+00:00</time></trkpt><trkpt lat="30.89805222" lon="34.83003235"><ele>507.6</ele><time>2013-11-21T09:17:32.0000000+00:00</time></trkpt><trkpt lat="30.89810181" lon="34.82984924"><ele>508.8</ele><time>2013-11-21T09:17:37.0000000+00:00</time></trkpt><trkpt lat="30.89818573" lon="34.82968521"><ele>509.0</ele><time>2013-11-21T09:17:42.0000000+00:00</time></trkpt><trkpt lat="30.89824295" lon="34.82952499"><ele>509.3</ele><time>2013-11-21T09:17:47.0000000+00:00</time></trkpt><trkpt lat="30.89832497" lon="34.8293457"><ele>511.1</ele><time>2013-11-21T09:17:52.0000000+00:00</time></trkpt><trkpt lat="30.89842796" lon="34.82919693"><ele>511.9</ele><time>2013-11-21T09:17:57.0000000+00:00</time></trkpt><trkpt lat="30.89850998" lon="34.82907486"><ele>511.1</ele><time>2013-11-21T09:18:02.0000000+00:00</time></trkpt><trkpt lat="30.89866447" lon="34.82898331"><ele>510.5</ele><time>2013-11-21T09:18:07.0000000+00:00</time></trkpt><trkpt lat="30.89878082" lon="34.8288269"><ele>509.8</ele><time>2013-11-21T09:18:12.0000000+00:00</time></trkpt><trkpt lat="30.89894676" lon="34.82871246"><ele>510.2</ele><time>2013-11-21T09:18:17.0000000+00:00</time></trkpt><trkpt lat="30.89909363" lon="34.82863236"><ele>509.9</ele><time>2013-11-21T09:18:22.0000000+00:00</time></trkpt><trkpt lat="30.89928246" lon="34.82857132"><ele>509.1</ele><time>2013-11-21T09:18:27.0000000+00:00</time></trkpt><trkpt lat="30.89942741" lon="34.82847595"><ele>508.6</ele><time>2013-11-21T09:18:32.0000000+00:00</time></trkpt><trkpt lat="30.89956474" lon="34.82847595"><ele>508.8</ele><time>2013-11-21T09:18:37.0000000+00:00</time></trkpt><trkpt lat="30.89968681" lon="34.82838059"><ele>508.4</ele><time>2013-11-21T09:18:42.0000000+00:00</time></trkpt><trkpt lat="30.89969444" lon="34.82830811"><ele>508.2</ele><time>2013-11-21T09:18:47.0000000+00:00</time></trkpt><trkpt lat="30.89967346" lon="34.82820892"><ele>506.8</ele><time>2013-11-21T09:18:52.0000000+00:00</time></trkpt><trkpt lat="30.89961243" lon="34.82811356"><ele>507.4</ele><time>2013-11-21T09:18:57.0000000+00:00</time></trkpt><trkpt lat="30.89951325" lon="34.8279419"><ele>509.0</ele><time>2013-11-21T09:19:02.0000000+00:00</time></trkpt><trkpt lat="30.89939308" lon="34.82779312"><ele>509.8</ele><time>2013-11-21T09:19:07.0000000+00:00</time></trkpt><trkpt lat="30.89923668" lon="34.82758331"><ele>511.8</ele><time>2013-11-21T09:19:12.0000000+00:00</time></trkpt><trkpt lat="30.8990593" lon="34.82736206"><ele>513.7</ele><time>2013-11-21T09:19:17.0000000+00:00</time></trkpt><trkpt lat="30.8988533" lon="34.82714081"><ele>514.5</ele><time>2013-11-21T09:19:22.0000000+00:00</time></trkpt><trkpt lat="30.8986702" lon="34.82691574"><ele>515.2</ele><time>2013-11-21T09:19:27.0000000+00:00</time></trkpt><trkpt lat="30.8984642" lon="34.8266716"><ele>517.0</ele><time>2013-11-21T09:19:32.0000000+00:00</time></trkpt><trkpt lat="30.89828873" lon="34.82644653"><ele>517.8</ele><time>2013-11-21T09:19:37.0000000+00:00</time></trkpt><trkpt lat="30.89809418" lon="34.82619476"><ele>518.1</ele><time>2013-11-21T09:19:42.0000000+00:00</time></trkpt><trkpt lat="30.89785957" lon="34.8258667"><ele>518.5</ele><time>2013-11-21T09:19:47.0000000+00:00</time></trkpt><trkpt lat="30.8976078" lon="34.82554245"><ele>518.6</ele><time>2013-11-21T09:19:52.0000000+00:00</time></trkpt><trkpt lat="30.89735222" lon="34.82522965"><ele>518.8</ele><time>2013-11-21T09:19:57.0000000+00:00</time></trkpt><trkpt lat="30.89714432" lon="34.82494736"><ele>518.6</ele><time>2013-11-21T09:20:02.0000000+00:00</time></trkpt><trkpt lat="30.89697838" lon="34.82469177"><ele>519.0</ele><time>2013-11-21T09:20:07.0000000+00:00</time></trkpt><trkpt lat="30.89679718" lon="34.82447052"><ele>520.5</ele><time>2013-11-21T09:20:12.0000000+00:00</time></trkpt><trkpt lat="30.89664841" lon="34.82426834"><ele>521.2</ele><time>2013-11-21T09:20:17.0000000+00:00</time></trkpt><trkpt lat="30.89654541" lon="34.82409668"><ele>520.9</ele><time>2013-11-21T09:20:22.0000000+00:00</time></trkpt><trkpt lat="30.89637566" lon="34.82387161"><ele>521.4</ele><time>2013-11-21T09:20:27.0000000+00:00</time></trkpt><trkpt lat="30.89620209" lon="34.8235817"><ele>522.3</ele><time>2013-11-21T09:20:32.0000000+00:00</time></trkpt><trkpt lat="30.89600563" lon="34.82328033"><ele>520.7</ele><time>2013-11-21T09:20:37.0000000+00:00</time></trkpt><trkpt lat="30.89580154" lon="34.82295227"><ele>520.8</ele><time>2013-11-21T09:20:42.0000000+00:00</time></trkpt><trkpt lat="30.89555168" lon="34.82261658"><ele>521.5</ele><time>2013-11-21T09:20:47.0000000+00:00</time></trkpt><trkpt lat="30.89535523" lon="34.82227325"><ele>522.4</ele><time>2013-11-21T09:20:52.0000000+00:00</time></trkpt><trkpt lat="30.89513779" lon="34.82191086"><ele>522.4</ele><time>2013-11-21T09:20:57.0000000+00:00</time></trkpt><trkpt lat="30.89490509" lon="34.82157135"><ele>523.0</ele><time>2013-11-21T09:21:02.0000000+00:00</time></trkpt><trkpt lat="30.89470673" lon="34.82129669"><ele>523.7</ele><time>2013-11-21T09:21:07.0000000+00:00</time></trkpt><trkpt lat="30.89450073" lon="34.821064"><ele>524.6</ele><time>2013-11-21T09:21:12.0000000+00:00</time></trkpt><trkpt lat="30.89428711" lon="34.8208313"><ele>525.4</ele><time>2013-11-21T09:21:17.0000000+00:00</time></trkpt><trkpt lat="30.89406204" lon="34.82062149"><ele>525.5</ele><time>2013-11-21T09:21:22.0000000+00:00</time></trkpt><trkpt lat="30.89383507" lon="34.82039642"><ele>524.8</ele><time>2013-11-21T09:21:27.0000000+00:00</time></trkpt><trkpt lat="30.89357376" lon="34.82019424"><ele>525.0</ele><time>2013-11-21T09:21:32.0000000+00:00</time></trkpt><trkpt lat="30.89332199" lon="34.81998062"><ele>526.0</ele><time>2013-11-21T09:21:37.0000000+00:00</time></trkpt><trkpt lat="30.89307022" lon="34.81977081"><ele>526.7</ele><time>2013-11-21T09:21:42.0000000+00:00</time></trkpt><trkpt lat="30.89282036" lon="34.81952286"><ele>527.9</ele><time>2013-11-21T09:21:47.0000000+00:00</time></trkpt><trkpt lat="30.89262581" lon="34.81925964"><ele>529.4</ele><time>2013-11-21T09:21:52.0000000+00:00</time></trkpt><trkpt lat="30.89241409" lon="34.81899262"><ele>531.0</ele><time>2013-11-21T09:21:57.0000000+00:00</time></trkpt><trkpt lat="30.89222908" lon="34.81875229"><ele>530.7</ele><time>2013-11-21T09:22:02.0000000+00:00</time></trkpt><trkpt lat="30.8920536" lon="34.81853485"><ele>530.5</ele><time>2013-11-21T09:22:07.0000000+00:00</time></trkpt><trkpt lat="30.89185143" lon="34.81825256"><ele>529.6</ele><time>2013-11-21T09:22:12.0000000+00:00</time></trkpt><trkpt lat="30.89169312" lon="34.81795502"><ele>528.1</ele><time>2013-11-21T09:22:17.0000000+00:00</time></trkpt><trkpt lat="30.89150238" lon="34.81764603"><ele>526.0</ele><time>2013-11-21T09:22:22.0000000+00:00</time></trkpt><trkpt lat="30.89130211" lon="34.81729507"><ele>521.6</ele><time>2013-11-21T09:22:27.0000000+00:00</time></trkpt><trkpt lat="30.89112854" lon="34.81694031"><ele>518.7</ele><time>2013-11-21T09:22:32.0000000+00:00</time></trkpt><trkpt lat="30.89097786" lon="34.81652451"><ele>515.3</ele><time>2013-11-21T09:22:37.0000000+00:00</time></trkpt><trkpt lat="30.89088249" lon="34.81611252"><ele>511.8</ele><time>2013-11-21T09:22:42.0000000+00:00</time></trkpt><trkpt lat="30.89079857" lon="34.81573486"><ele>508.7</ele><time>2013-11-21T09:22:47.0000000+00:00</time></trkpt><trkpt lat="30.89069176" lon="34.81535721"><ele>506.2</ele><time>2013-11-21T09:22:52.0000000+00:00</time></trkpt><trkpt lat="30.89054298" lon="34.81494904"><ele>506.2</ele><time>2013-11-21T09:22:57.0000000+00:00</time></trkpt><trkpt lat="30.89046097" lon="34.8146286"><ele>507.8</ele><time>2013-11-21T09:23:02.0000000+00:00</time></trkpt><trkpt lat="30.89037132" lon="34.81425476"><ele>504.9</ele><time>2013-11-21T09:23:07.0000000+00:00</time></trkpt><trkpt lat="30.89024925" lon="34.81387711"><ele>502.1</ele><time>2013-11-21T09:23:12.0000000+00:00</time></trkpt><trkpt lat="30.89012909" lon="34.8135376"><ele>499.5</ele><time>2013-11-21T09:23:17.0000000+00:00</time></trkpt><trkpt lat="30.89008713" lon="34.81331635"><ele>502.8</ele><time>2013-11-21T09:23:22.0000000+00:00</time></trkpt><trkpt lat="30.89005661" lon="34.81311417"><ele>502.1</ele><time>2013-11-21T09:23:27.0000000+00:00</time></trkpt><trkpt lat="30.89001274" lon="34.81287003"><ele>501.8</ele><time>2013-11-21T09:23:32.0000000+00:00</time></trkpt><trkpt lat="30.8899498" lon="34.812603"><ele>501.5</ele><time>2013-11-21T09:23:37.0000000+00:00</time></trkpt><trkpt lat="30.88984299" lon="34.8123169"><ele>502.4</ele><time>2013-11-21T09:23:42.0000000+00:00</time></trkpt><trkpt lat="30.88974571" lon="34.81202698"><ele>502.5</ele><time>2013-11-21T09:23:47.0000000+00:00</time></trkpt><trkpt lat="30.88963127" lon="34.81171417"><ele>503.2</ele><time>2013-11-21T09:23:52.0000000+00:00</time></trkpt><trkpt lat="30.88952446" lon="34.81138992"><ele>504.7</ele><time>2013-11-21T09:23:57.0000000+00:00</time></trkpt><trkpt lat="30.88938332" lon="34.81105042"><ele>506.9</ele><time>2013-11-21T09:24:02.0000000+00:00</time></trkpt><trkpt lat="30.88930702" lon="34.81075287"><ele>508.8</ele><time>2013-11-21T09:24:07.0000000+00:00</time></trkpt><trkpt lat="30.88918877" lon="34.81047821"><ele>511.5</ele><time>2013-11-21T09:24:12.0000000+00:00</time></trkpt><trkpt lat="30.88910103" lon="34.81020355"><ele>513.1</ele><time>2013-11-21T09:24:17.0000000+00:00</time></trkpt><trkpt lat="30.88898468" lon="34.80982208"><ele>513.7</ele><time>2013-11-21T09:24:22.0000000+00:00</time></trkpt><trkpt lat="30.8888855" lon="34.80948257"><ele>514.6</ele><time>2013-11-21T09:24:27.0000000+00:00</time></trkpt><trkpt lat="30.88877106" lon="34.80907059"><ele>515.3</ele><time>2013-11-21T09:24:32.0000000+00:00</time></trkpt><trkpt lat="30.88867569" lon="34.80862427"><ele>515.9</ele><time>2013-11-21T09:24:37.0000000+00:00</time></trkpt><trkpt lat="30.8885994" lon="34.80811691"><ele>514.2</ele><time>2013-11-21T09:24:42.0000000+00:00</time></trkpt><trkpt lat="30.88855362" lon="34.80763626"><ele>512.6</ele><time>2013-11-21T09:24:47.0000000+00:00</time></trkpt><trkpt lat="30.88850021" lon="34.80717468"><ele>511.5</ele><time>2013-11-21T09:24:52.0000000+00:00</time></trkpt><trkpt lat="30.8884449" lon="34.80673599"><ele>511.5</ele><time>2013-11-21T09:24:57.0000000+00:00</time></trkpt><trkpt lat="30.88836289" lon="34.80630875"><ele>514.3</ele><time>2013-11-21T09:25:02.0000000+00:00</time></trkpt><trkpt lat="30.88836289" lon="34.8059845"><ele>516.9</ele><time>2013-11-21T09:25:07.0000000+00:00</time></trkpt><trkpt lat="30.88834" lon="34.80570602"><ele>518.2</ele><time>2013-11-21T09:25:12.0000000+00:00</time></trkpt><trkpt lat="30.88830185" lon="34.80543518"><ele>518.0</ele><time>2013-11-21T09:25:17.0000000+00:00</time></trkpt><trkpt lat="30.88825035" lon="34.80510712"><ele>518.7</ele><time>2013-11-21T09:25:22.0000000+00:00</time></trkpt><trkpt lat="30.88822174" lon="34.80475235"><ele>517.8</ele><time>2013-11-21T09:25:27.0000000+00:00</time></trkpt><trkpt lat="30.88820267" lon="34.80444336"><ele>519.7</ele><time>2013-11-21T09:25:32.0000000+00:00</time></trkpt><trkpt lat="30.88819122" lon="34.8041153"><ele>521.3</ele><time>2013-11-21T09:25:37.0000000+00:00</time></trkpt><trkpt lat="30.88817787" lon="34.80380631"><ele>522.4</ele><time>2013-11-21T09:25:42.0000000+00:00</time></trkpt><trkpt lat="30.88814354" lon="34.80352783"><ele>524.8</ele><time>2013-11-21T09:25:47.0000000+00:00</time></trkpt><trkpt lat="30.88812447" lon="34.80324554"><ele>525.0</ele><time>2013-11-21T09:25:52.0000000+00:00</time></trkpt><trkpt lat="30.88809967" lon="34.80292893"><ele>523.5</ele><time>2013-11-21T09:25:57.0000000+00:00</time></trkpt><trkpt lat="30.88806534" lon="34.80261231"><ele>521.6</ele><time>2013-11-21T09:26:02.0000000+00:00</time></trkpt><trkpt lat="30.88806725" lon="34.80227661"><ele>520.7</ele><time>2013-11-21T09:26:07.0000000+00:00</time></trkpt><trkpt lat="30.88805962" lon="34.8019371"><ele>519.5</ele><time>2013-11-21T09:26:12.0000000+00:00</time></trkpt><trkpt lat="30.88803291" lon="34.80159378"><ele>517.1</ele><time>2013-11-21T09:26:17.0000000+00:00</time></trkpt><trkpt lat="30.88798904" lon="34.80120087"><ele>514.8</ele><time>2013-11-21T09:26:22.0000000+00:00</time></trkpt><trkpt lat="30.88797379" lon="34.80084229"><ele>512.3</ele><time>2013-11-21T09:26:27.0000000+00:00</time></trkpt><trkpt lat="30.88792801" lon="34.80049133"><ele>511.9</ele><time>2013-11-21T09:26:32.0000000+00:00</time></trkpt><trkpt lat="30.88787842" lon="34.80012894"><ele>510.4</ele><time>2013-11-21T09:26:37.0000000+00:00</time></trkpt><trkpt lat="30.88782692" lon="34.79972458"><ele>507.1</ele><time>2013-11-21T09:26:42.0000000+00:00</time></trkpt><trkpt lat="30.88779068" lon="34.79935455"><ele>504.9</ele><time>2013-11-21T09:26:47.0000000+00:00</time></trkpt><trkpt lat="30.88775063" lon="34.79899979"><ele>502.8</ele><time>2013-11-21T09:26:52.0000000+00:00</time></trkpt><trkpt lat="30.88771629" lon="34.79866409"><ele>502.2</ele><time>2013-11-21T09:26:57.0000000+00:00</time></trkpt><trkpt lat="30.8876667" lon="34.79835892"><ele>501.2</ele><time>2013-11-21T09:27:02.0000000+00:00</time></trkpt><trkpt lat="30.88761139" lon="34.79807282"><ele>499.5</ele><time>2013-11-21T09:27:07.0000000+00:00</time></trkpt><trkpt lat="30.88751221" lon="34.79778671"><ele>497.1</ele><time>2013-11-21T09:27:12.0000000+00:00</time></trkpt><trkpt lat="30.88740349" lon="34.79751205"><ele>495.1</ele><time>2013-11-21T09:27:17.0000000+00:00</time></trkpt><trkpt lat="30.88728142" lon="34.79724884"><ele>493.7</ele><time>2013-11-21T09:27:22.0000000+00:00</time></trkpt><trkpt lat="30.887146" lon="34.79697418"><ele>491.7</ele><time>2013-11-21T09:27:27.0000000+00:00</time></trkpt><trkpt lat="30.88700485" lon="34.79669571"><ele>490.5</ele><time>2013-11-21T09:27:32.0000000+00:00</time></trkpt><trkpt lat="30.88685989" lon="34.79641724"><ele>490.8</ele><time>2013-11-21T09:27:37.0000000+00:00</time></trkpt><trkpt lat="30.88671875" lon="34.79614258"><ele>490.5</ele><time>2013-11-21T09:27:42.0000000+00:00</time></trkpt><trkpt lat="30.88656807" lon="34.79588699"><ele>490.2</ele><time>2013-11-21T09:27:47.0000000+00:00</time></trkpt><trkpt lat="30.88637352" lon="34.79564285"><ele>488.8</ele><time>2013-11-21T09:27:52.0000000+00:00</time></trkpt><trkpt lat="30.88614464" lon="34.79538345"><ele>489.3</ele><time>2013-11-21T09:27:57.0000000+00:00</time></trkpt><trkpt lat="30.8859272" lon="34.79513931"><ele>490.8</ele><time>2013-11-21T09:28:02.0000000+00:00</time></trkpt><trkpt lat="30.88573647" lon="34.79491425"><ele>491.3</ele><time>2013-11-21T09:28:07.0000000+00:00</time></trkpt><trkpt lat="30.88554001" lon="34.79474258"><ele>490.3</ele><time>2013-11-21T09:28:12.0000000+00:00</time></trkpt><trkpt lat="30.88532257" lon="34.79460526"><ele>489.5</ele><time>2013-11-21T09:28:17.0000000+00:00</time></trkpt><trkpt lat="30.88506317" lon="34.79448319"><ele>488.9</ele><time>2013-11-21T09:28:22.0000000+00:00</time></trkpt><trkpt lat="30.8848114" lon="34.79436112"><ele>487.6</ele><time>2013-11-21T09:28:27.0000000+00:00</time></trkpt><trkpt lat="30.88455582" lon="34.79427338"><ele>483.7</ele><time>2013-11-21T09:28:32.0000000+00:00</time></trkpt><trkpt lat="30.88431358" lon="34.79418945"><ele>480.9</ele><time>2013-11-21T09:28:37.0000000+00:00</time></trkpt><trkpt lat="30.88405037" lon="34.79412842"><ele>478.3</ele><time>2013-11-21T09:28:42.0000000+00:00</time></trkpt><trkpt lat="30.88378143" lon="34.7940712"><ele>476.9</ele><time>2013-11-21T09:28:47.0000000+00:00</time></trkpt><trkpt lat="30.88343048" lon="34.79397965"><ele>476.3</ele><time>2013-11-21T09:28:52.0000000+00:00</time></trkpt><trkpt lat="30.8830452" lon="34.79385757"><ele>476.4</ele><time>2013-11-21T09:28:57.0000000+00:00</time></trkpt><trkpt lat="30.8826561" lon="34.79372025"><ele>474.5</ele><time>2013-11-21T09:29:02.0000000+00:00</time></trkpt><trkpt lat="30.8822403" lon="34.79358292"><ele>473.2</ele><time>2013-11-21T09:29:07.0000000+00:00</time></trkpt><trkpt lat="30.88187599" lon="34.79342651"><ele>472.8</ele><time>2013-11-21T09:29:12.0000000+00:00</time></trkpt><trkpt lat="30.88152123" lon="34.79325867"><ele>473.6</ele><time>2013-11-21T09:29:17.0000000+00:00</time></trkpt><trkpt lat="30.88121605" lon="34.79306793"><ele>475.8</ele><time>2013-11-21T09:29:22.0000000+00:00</time></trkpt><trkpt lat="30.88090515" lon="34.79285431"><ele>479.0</ele><time>2013-11-21T09:29:27.0000000+00:00</time></trkpt><trkpt lat="30.88064575" lon="34.79267502"><ele>481.7</ele><time>2013-11-21T09:29:32.0000000+00:00</time></trkpt><trkpt lat="30.88038635" lon="34.79250336"><ele>483.1</ele><time>2013-11-21T09:29:37.0000000+00:00</time></trkpt><trkpt lat="30.88014603" lon="34.79232788"><ele>483.5</ele><time>2013-11-21T09:29:42.0000000+00:00</time></trkpt><trkpt lat="30.879879" lon="34.79208374"><ele>485.2</ele><time>2013-11-21T09:29:47.0000000+00:00</time></trkpt><trkpt lat="30.8795681" lon="34.79177856"><ele>487.7</ele><time>2013-11-21T09:29:52.0000000+00:00</time></trkpt><trkpt lat="30.87919998" lon="34.79142761"><ele>490.8</ele><time>2013-11-21T09:29:57.0000000+00:00</time></trkpt><trkpt lat="30.87888908" lon="34.79113007"><ele>492.9</ele><time>2013-11-21T09:30:02.0000000+00:00</time></trkpt><trkpt lat="30.87863731" lon="34.7908783"><ele>493.9</ele><time>2013-11-21T09:30:07.0000000+00:00</time></trkpt><trkpt lat="30.87837791" lon="34.79062653"><ele>495.3</ele><time>2013-11-21T09:30:12.0000000+00:00</time></trkpt><trkpt lat="30.87812805" lon="34.79039002"><ele>495.5</ele><time>2013-11-21T09:30:17.0000000+00:00</time></trkpt><trkpt lat="30.87784958" lon="34.79013443"><ele>496.6</ele><time>2013-11-21T09:30:22.0000000+00:00</time></trkpt><trkpt lat="30.8776207" lon="34.78988648"><ele>498.4</ele><time>2013-11-21T09:30:27.0000000+00:00</time></trkpt><trkpt lat="30.87738991" lon="34.78964615"><ele>499.0</ele><time>2013-11-21T09:30:32.0000000+00:00</time></trkpt><trkpt lat="30.87714195" lon="34.78933716"><ele>496.6</ele><time>2013-11-21T09:30:37.0000000+00:00</time></trkpt><trkpt lat="30.87690735" lon="34.78904724"><ele>496.2</ele><time>2013-11-21T09:30:42.0000000+00:00</time></trkpt><trkpt lat="30.87667465" lon="34.78868866"><ele>495.4</ele><time>2013-11-21T09:30:47.0000000+00:00</time></trkpt><trkpt lat="30.87648201" lon="34.78839111"><ele>495.0</ele><time>2013-11-21T09:30:52.0000000+00:00</time></trkpt><trkpt lat="30.87627411" lon="34.78808212"><ele>494.8</ele><time>2013-11-21T09:30:57.0000000+00:00</time></trkpt><trkpt lat="30.87602997" lon="34.78770447"><ele>491.9</ele><time>2013-11-21T09:31:02.0000000+00:00</time></trkpt><trkpt lat="30.87582588" lon="34.78736877"><ele>488.8</ele><time>2013-11-21T09:31:07.0000000+00:00</time></trkpt><trkpt lat="30.87560463" lon="34.7870369"><ele>488.1</ele><time>2013-11-21T09:31:12.0000000+00:00</time></trkpt><trkpt lat="30.87537193" lon="34.78669357"><ele>485.0</ele><time>2013-11-21T09:31:17.0000000+00:00</time></trkpt><trkpt lat="30.8751812" lon="34.78639221"><ele>482.4</ele><time>2013-11-21T09:31:22.0000000+00:00</time></trkpt><trkpt lat="30.87494087" lon="34.78607559"><ele>481.4</ele><time>2013-11-21T09:31:27.0000000+00:00</time></trkpt><trkpt lat="30.87468338" lon="34.78575897"><ele>479.3</ele><time>2013-11-21T09:31:32.0000000+00:00</time></trkpt><trkpt lat="30.87447357" lon="34.78553391"><ele>474.5</ele><time>2013-11-21T09:31:37.0000000+00:00</time></trkpt><trkpt lat="30.87422752" lon="34.78525543"><ele>472.6</ele><time>2013-11-21T09:31:42.0000000+00:00</time></trkpt><trkpt lat="30.87398911" lon="34.78501129"><ele>471.9</ele><time>2013-11-21T09:31:47.0000000+00:00</time></trkpt><trkpt lat="30.87372208" lon="34.78472138"><ele>470.3</ele><time>2013-11-21T09:31:52.0000000+00:00</time></trkpt><trkpt lat="30.87350082" lon="34.7845192"><ele>471.0</ele><time>2013-11-21T09:31:57.0000000+00:00</time></trkpt><trkpt lat="30.87330437" lon="34.78430557"><ele>472.8</ele><time>2013-11-21T09:32:02.0000000+00:00</time></trkpt><trkpt lat="30.8731308" lon="34.78412628"><ele>476.5</ele><time>2013-11-21T09:32:07.0000000+00:00</time></trkpt><trkpt lat="30.87294769" lon="34.7839241"><ele>477.8</ele><time>2013-11-21T09:32:12.0000000+00:00</time></trkpt><trkpt lat="30.87282181" lon="34.78380203"><ele>477.9</ele><time>2013-11-21T09:32:17.0000000+00:00</time></trkpt><trkpt lat="30.87265587" lon="34.78365707"><ele>480.1</ele><time>2013-11-21T09:32:22.0000000+00:00</time></trkpt><trkpt lat="30.87252426" lon="34.78351593"><ele>483.0</ele><time>2013-11-21T09:32:27.0000000+00:00</time></trkpt><trkpt lat="30.87234879" lon="34.78334045"><ele>484.7</ele><time>2013-11-21T09:32:32.0000000+00:00</time></trkpt><trkpt lat="30.87222481" lon="34.78321075"><ele>484.7</ele><time>2013-11-21T09:32:37.0000000+00:00</time></trkpt><trkpt lat="30.87206459" lon="34.78304672"><ele>485.3</ele><time>2013-11-21T09:32:42.0000000+00:00</time></trkpt><trkpt lat="30.8719101" lon="34.78289032"><ele>485.7</ele><time>2013-11-21T09:32:47.0000000+00:00</time></trkpt><trkpt lat="30.87172127" lon="34.78271103"><ele>486.0</ele><time>2013-11-21T09:32:52.0000000+00:00</time></trkpt><trkpt lat="30.87158012" lon="34.78256989"><ele>487.2</ele><time>2013-11-21T09:32:57.0000000+00:00</time></trkpt><trkpt lat="30.87140656" lon="34.78238297"><ele>489.3</ele><time>2013-11-21T09:33:02.0000000+00:00</time></trkpt><trkpt lat="30.87127113" lon="34.78223419"><ele>489.3</ele><time>2013-11-21T09:33:07.0000000+00:00</time></trkpt><trkpt lat="30.87112618" lon="34.78207398"><ele>490.5</ele><time>2013-11-21T09:33:12.0000000+00:00</time></trkpt><trkpt lat="30.87095261" lon="34.78188324"><ele>491.5</ele><time>2013-11-21T09:33:17.0000000+00:00</time></trkpt><trkpt lat="30.87077141" lon="34.78170776"><ele>489.1</ele><time>2013-11-21T09:33:22.0000000+00:00</time></trkpt><trkpt lat="30.87057877" lon="34.78152847"><ele>488.1</ele><time>2013-11-21T09:33:27.0000000+00:00</time></trkpt><trkpt lat="30.87037277" lon="34.78132629"><ele>489.7</ele><time>2013-11-21T09:33:32.0000000+00:00</time></trkpt><trkpt lat="30.87014389" lon="34.78109741"><ele>492.3</ele><time>2013-11-21T09:33:37.0000000+00:00</time></trkpt><trkpt lat="30.86997604" lon="34.78094482"><ele>492.4</ele><time>2013-11-21T09:33:42.0000000+00:00</time></trkpt><trkpt lat="30.86977768" lon="34.78078079"><ele>494.5</ele><time>2013-11-21T09:33:47.0000000+00:00</time></trkpt><trkpt lat="30.86956215" lon="34.78062058"><ele>495.5</ele><time>2013-11-21T09:33:52.0000000+00:00</time></trkpt><trkpt lat="30.86935616" lon="34.78047562"><ele>493.2</ele><time>2013-11-21T09:33:57.0000000+00:00</time></trkpt><trkpt lat="30.86912346" lon="34.78032684"><ele>494.4</ele><time>2013-11-21T09:34:02.0000000+00:00</time></trkpt><trkpt lat="30.868927" lon="34.78023148"><ele>495.9</ele><time>2013-11-21T09:34:07.0000000+00:00</time></trkpt><trkpt lat="30.86869049" lon="34.78008652"><ele>495.1</ele><time>2013-11-21T09:34:12.0000000+00:00</time></trkpt><trkpt lat="30.86846924" lon="34.77994919"><ele>498.2</ele><time>2013-11-21T09:34:17.0000000+00:00</time></trkpt><trkpt lat="30.86828423" lon="34.77983856"><ele>497.1</ele><time>2013-11-21T09:34:22.0000000+00:00</time></trkpt><trkpt lat="30.86807632" lon="34.77970505"><ele>498.2</ele><time>2013-11-21T09:34:27.0000000+00:00</time></trkpt><trkpt lat="30.86785317" lon="34.77956772"><ele>498.8</ele><time>2013-11-21T09:34:32.0000000+00:00</time></trkpt><trkpt lat="30.86764717" lon="34.77944946"><ele>499.0</ele><time>2013-11-21T09:34:37.0000000+00:00</time></trkpt><trkpt lat="30.86738968" lon="34.7792511"><ele>498.8</ele><time>2013-11-21T09:34:42.0000000+00:00</time></trkpt><trkpt lat="30.867136" lon="34.77908325"><ele>500.2</ele><time>2013-11-21T09:34:47.0000000+00:00</time></trkpt><trkpt lat="30.86691093" lon="34.77891922"><ele>501.2</ele><time>2013-11-21T09:34:52.0000000+00:00</time></trkpt><trkpt lat="30.86669159" lon="34.77875519"><ele>500.0</ele><time>2013-11-21T09:34:57.0000000+00:00</time></trkpt><trkpt lat="30.86649513" lon="34.77862167"><ele>498.9</ele><time>2013-11-21T09:35:02.0000000+00:00</time></trkpt><trkpt lat="30.8662796" lon="34.77846909"><ele>498.4</ele><time>2013-11-21T09:35:07.0000000+00:00</time></trkpt><trkpt lat="30.86606979" lon="34.77829742"><ele>496.5</ele><time>2013-11-21T09:35:12.0000000+00:00</time></trkpt><trkpt lat="30.86584854" lon="34.77814102"><ele>496.6</ele><time>2013-11-21T09:35:17.0000000+00:00</time></trkpt><trkpt lat="30.86559868" lon="34.77798462"><ele>495.0</ele><time>2013-11-21T09:35:22.0000000+00:00</time></trkpt><trkpt lat="30.86539269" lon="34.77786255"><ele>496.9</ele><time>2013-11-21T09:35:27.0000000+00:00</time></trkpt><trkpt lat="30.86516953" lon="34.77770615"><ele>496.1</ele><time>2013-11-21T09:35:32.0000000+00:00</time></trkpt><trkpt lat="30.86493874" lon="34.77755737"><ele>495.1</ele><time>2013-11-21T09:35:37.0000000+00:00</time></trkpt><trkpt lat="30.86471176" lon="34.7774086"><ele>494.9</ele><time>2013-11-21T09:35:42.0000000+00:00</time></trkpt><trkpt lat="30.86450768" lon="34.7772789"><ele>493.4</ele><time>2013-11-21T09:35:47.0000000+00:00</time></trkpt><trkpt lat="30.86428452" lon="34.77711487"><ele>495.0</ele><time>2013-11-21T09:35:52.0000000+00:00</time></trkpt><trkpt lat="30.86410904" lon="34.7770195"><ele>494.6</ele><time>2013-11-21T09:35:57.0000000+00:00</time></trkpt><trkpt lat="30.86390305" lon="34.77687454"><ele>495.5</ele><time>2013-11-21T09:36:02.0000000+00:00</time></trkpt><trkpt lat="30.86368179" lon="34.77672958"><ele>496.8</ele><time>2013-11-21T09:36:07.0000000+00:00</time></trkpt><trkpt lat="30.86345863" lon="34.776577"><ele>496.4</ele><time>2013-11-21T09:36:12.0000000+00:00</time></trkpt><trkpt lat="30.86320114" lon="34.77638626"><ele>495.0</ele><time>2013-11-21T09:36:17.0000000+00:00</time></trkpt><trkpt lat="30.86294746" lon="34.77620316"><ele>491.6</ele><time>2013-11-21T09:36:22.0000000+00:00</time></trkpt><trkpt lat="30.86273956" lon="34.7760582"><ele>491.2</ele><time>2013-11-21T09:36:27.0000000+00:00</time></trkpt><trkpt lat="30.86251068" lon="34.77591324"><ele>492.0</ele><time>2013-11-21T09:36:32.0000000+00:00</time></trkpt><trkpt lat="30.86229515" lon="34.77579117"><ele>491.6</ele><time>2013-11-21T09:36:37.0000000+00:00</time></trkpt><trkpt lat="30.86208344" lon="34.77565765"><ele>491.4</ele><time>2013-11-21T09:36:42.0000000+00:00</time></trkpt><trkpt lat="30.86187172" lon="34.77552033"><ele>491.4</ele><time>2013-11-21T09:36:47.0000000+00:00</time></trkpt><trkpt lat="30.86162186" lon="34.77534103"><ele>491.8</ele><time>2013-11-21T09:36:52.0000000+00:00</time></trkpt><trkpt lat="30.86143875" lon="34.77521133"><ele>491.7</ele><time>2013-11-21T09:36:57.0000000+00:00</time></trkpt><trkpt lat="30.861269" lon="34.77511215"><ele>491.6</ele><time>2013-11-21T09:37:02.0000000+00:00</time></trkpt><trkpt lat="30.86106873" lon="34.77497864"><ele>490.9</ele><time>2013-11-21T09:37:07.0000000+00:00</time></trkpt><trkpt lat="30.86083984" lon="34.77480316"><ele>491.1</ele><time>2013-11-21T09:37:12.0000000+00:00</time></trkpt><trkpt lat="30.86065483" lon="34.77468491"><ele>491.1</ele><time>2013-11-21T09:37:17.0000000+00:00</time></trkpt><trkpt lat="30.86044502" lon="34.7745285"><ele>490.4</ele><time>2013-11-21T09:37:22.0000000+00:00</time></trkpt><trkpt lat="30.8602066" lon="34.77436066"><ele>488.8</ele><time>2013-11-21T09:37:27.0000000+00:00</time></trkpt><trkpt lat="30.85994148" lon="34.77419663"><ele>488.5</ele><time>2013-11-21T09:37:32.0000000+00:00</time></trkpt><trkpt lat="30.85970306" lon="34.77403259"><ele>488.1</ele><time>2013-11-21T09:37:37.0000000+00:00</time></trkpt><trkpt lat="30.85945129" lon="34.77384567"><ele>488.1</ele><time>2013-11-21T09:37:42.0000000+00:00</time></trkpt><trkpt lat="30.85923004" lon="34.77367783"><ele>487.9</ele><time>2013-11-21T09:37:47.0000000+00:00</time></trkpt><trkpt lat="30.85899735" lon="34.7735405"><ele>487.4</ele><time>2013-11-21T09:37:52.0000000+00:00</time></trkpt><trkpt lat="30.85876274" lon="34.77338409"><ele>487.6</ele><time>2013-11-21T09:37:57.0000000+00:00</time></trkpt><trkpt lat="30.85855484" lon="34.77324677"><ele>489.1</ele><time>2013-11-21T09:38:02.0000000+00:00</time></trkpt><trkpt lat="30.8583622" lon="34.7731247"><ele>499.9</ele><time>2013-11-21T09:38:07.0000000+00:00</time></trkpt><trkpt lat="30.8581562" lon="34.77302551"><ele>504.5</ele><time>2013-11-21T09:38:12.0000000+00:00</time></trkpt><trkpt lat="30.85791206" lon="34.77287674"><ele>504.7</ele><time>2013-11-21T09:38:17.0000000+00:00</time></trkpt><trkpt lat="30.85768127" lon="34.7727356"><ele>505.5</ele><time>2013-11-21T09:38:22.0000000+00:00</time></trkpt><trkpt lat="30.85744667" lon="34.77257538"><ele>505.2</ele><time>2013-11-21T09:38:27.0000000+00:00</time></trkpt><trkpt lat="30.85717964" lon="34.77241898"><ele>507.5</ele><time>2013-11-21T09:38:32.0000000+00:00</time></trkpt><trkpt lat="30.85694504" lon="34.77225113"><ele>506.3</ele><time>2013-11-21T09:38:37.0000000+00:00</time></trkpt><trkpt lat="30.85670662" lon="34.77208328"><ele>506.8</ele><time>2013-11-21T09:38:42.0000000+00:00</time></trkpt><trkpt lat="30.85643196" lon="34.77190781"><ele>508.7</ele><time>2013-11-21T09:38:47.0000000+00:00</time></trkpt><trkpt lat="30.85617065" lon="34.77172852"><ele>508.9</ele><time>2013-11-21T09:38:52.0000000+00:00</time></trkpt><trkpt lat="30.8558979" lon="34.77150345"><ele>507.2</ele><time>2013-11-21T09:38:57.0000000+00:00</time></trkpt><trkpt lat="30.85564232" lon="34.77129746"><ele>507.0</ele><time>2013-11-21T09:39:02.0000000+00:00</time></trkpt><trkpt lat="30.85543442" lon="34.77112961"><ele>505.9</ele><time>2013-11-21T09:39:07.0000000+00:00</time></trkpt><trkpt lat="30.85520935" lon="34.77095413"><ele>507.7</ele><time>2013-11-21T09:39:12.0000000+00:00</time></trkpt><trkpt lat="30.85500908" lon="34.77077103"><ele>508.2</ele><time>2013-11-21T09:39:17.0000000+00:00</time></trkpt><trkpt lat="30.85481262" lon="34.77058792"><ele>508.6</ele><time>2013-11-21T09:39:22.0000000+00:00</time></trkpt><trkpt lat="30.85464478" lon="34.77041626"><ele>508.9</ele><time>2013-11-21T09:39:27.0000000+00:00</time></trkpt><trkpt lat="30.85452652" lon="34.77029038"><ele>506.0</ele><time>2013-11-21T09:39:32.0000000+00:00</time></trkpt><trkpt lat="30.854496" lon="34.77029038"><ele>504.6</ele><time>2013-11-21T09:39:37.0000000+00:00</time></trkpt><trkpt lat="30.85440254" lon="34.77033615"><ele>501.0</ele><time>2013-11-21T09:39:42.0000000+00:00</time></trkpt><trkpt lat="30.85430527" lon="34.77054596"><ele>495.7</ele><time>2013-11-21T09:39:47.0000000+00:00</time></trkpt><trkpt lat="30.85423851" lon="34.77087784"><ele>494.2</ele><time>2013-11-21T09:39:52.0000000+00:00</time></trkpt><trkpt lat="30.85415649" lon="34.77124023"><ele>495.3</ele><time>2013-11-21T09:39:57.0000000+00:00</time></trkpt><trkpt lat="30.85407257" lon="34.771595"><ele>493.1</ele><time>2013-11-21T09:40:02.0000000+00:00</time></trkpt><trkpt lat="30.85400009" lon="34.77194977"><ele>490.9</ele><time>2013-11-21T09:40:07.0000000+00:00</time></trkpt><trkpt lat="30.85390854" lon="34.77234268"><ele>489.2</ele><time>2013-11-21T09:40:12.0000000+00:00</time></trkpt><trkpt lat="30.85379219" lon="34.77276611"><ele>487.7</ele><time>2013-11-21T09:40:17.0000000+00:00</time></trkpt><trkpt lat="30.85369492" lon="34.77314377"><ele>486.7</ele><time>2013-11-21T09:40:22.0000000+00:00</time></trkpt><trkpt lat="30.85360146" lon="34.77350617"><ele>485.8</ele><time>2013-11-21T09:40:27.0000000+00:00</time></trkpt><trkpt lat="30.85354424" lon="34.77388763"><ele>484.7</ele><time>2013-11-21T09:40:32.0000000+00:00</time></trkpt><trkpt lat="30.85346413" lon="34.7742424"><ele>483.8</ele><time>2013-11-21T09:40:37.0000000+00:00</time></trkpt><trkpt lat="30.85333443" lon="34.77454758"><ele>483.6</ele><time>2013-11-21T09:40:42.0000000+00:00</time></trkpt><trkpt lat="30.8531723" lon="34.77488327"><ele>483.6</ele><time>2013-11-21T09:40:47.0000000+00:00</time></trkpt><trkpt lat="30.85301209" lon="34.77522278"><ele>482.1</ele><time>2013-11-21T09:40:52.0000000+00:00</time></trkpt><trkpt lat="30.85280609" lon="34.77552795"><ele>482.7</ele><time>2013-11-21T09:40:57.0000000+00:00</time></trkpt><trkpt lat="30.8526001" lon="34.77584076"><ele>482.8</ele><time>2013-11-21T09:41:02.0000000+00:00</time></trkpt><trkpt lat="30.85240173" lon="34.77614212"><ele>482.6</ele><time>2013-11-21T09:41:07.0000000+00:00</time></trkpt><trkpt lat="30.85222054" lon="34.77640533"><ele>482.3</ele><time>2013-11-21T09:41:12.0000000+00:00</time></trkpt><trkpt lat="30.8520546" lon="34.77661896"><ele>482.4</ele><time>2013-11-21T09:41:17.0000000+00:00</time></trkpt><trkpt lat="30.85187721" lon="34.77682877"><ele>482.1</ele><time>2013-11-21T09:41:22.0000000+00:00</time></trkpt><trkpt lat="30.85171318" lon="34.77708435"><ele>480.0</ele><time>2013-11-21T09:41:27.0000000+00:00</time></trkpt><trkpt lat="30.85155296" lon="34.77733231"><ele>480.8</ele><time>2013-11-21T09:41:32.0000000+00:00</time></trkpt><trkpt lat="30.85141373" lon="34.77753067"><ele>483.2</ele><time>2013-11-21T09:41:37.0000000+00:00</time></trkpt><trkpt lat="30.85130119" lon="34.77773666"><ele>483.6</ele><time>2013-11-21T09:41:42.0000000+00:00</time></trkpt><trkpt lat="30.85116196" lon="34.77794266"><ele>484.3</ele><time>2013-11-21T09:41:47.0000000+00:00</time></trkpt><trkpt lat="30.85103989" lon="34.77814865"><ele>486.2</ele><time>2013-11-21T09:41:52.0000000+00:00</time></trkpt><trkpt lat="30.85087585" lon="34.77837372"><ele>485.9</ele><time>2013-11-21T09:41:57.0000000+00:00</time></trkpt><trkpt lat="30.85072136" lon="34.77855682"><ele>485.9</ele><time>2013-11-21T09:42:02.0000000+00:00</time></trkpt><trkpt lat="30.8506279" lon="34.77869415"><ele>484.0</ele><time>2013-11-21T09:42:07.0000000+00:00</time></trkpt><trkpt lat="30.85053444" lon="34.77881622"><ele>483.2</ele><time>2013-11-21T09:42:12.0000000+00:00</time></trkpt><trkpt lat="30.85042572" lon="34.77890778"><ele>482.7</ele><time>2013-11-21T09:42:17.0000000+00:00</time></trkpt><trkpt lat="30.85029221" lon="34.77892685"><ele>482.3</ele><time>2013-11-21T09:42:22.0000000+00:00</time></trkpt><trkpt lat="30.85018539" lon="34.77894974"><ele>483.0</ele><time>2013-11-21T09:42:27.0000000+00:00</time></trkpt><trkpt lat="30.85002899" lon="34.77895737"><ele>482.6</ele><time>2013-11-21T09:42:32.0000000+00:00</time></trkpt><trkpt lat="30.84989166" lon="34.77894211"><ele>482.4</ele><time>2013-11-21T09:42:37.0000000+00:00</time></trkpt><trkpt lat="30.84969139" lon="34.77903748"><ele>481.7</ele><time>2013-11-21T09:42:42.0000000+00:00</time></trkpt><trkpt lat="30.84946632" lon="34.77920151"><ele>480.2</ele><time>2013-11-21T09:42:47.0000000+00:00</time></trkpt><trkpt lat="30.84931183" lon="34.77938461"><ele>478.5</ele><time>2013-11-21T09:42:52.0000000+00:00</time></trkpt><trkpt lat="30.84920692" lon="34.77950668"><ele>476.4</ele><time>2013-11-21T09:42:57.0000000+00:00</time></trkpt><trkpt lat="30.84914017" lon="34.77958679"><ele>477.6</ele><time>2013-11-21T09:43:02.0000000+00:00</time></trkpt><trkpt lat="30.84909821" lon="34.7796936"><ele>477.4</ele><time>2013-11-21T09:43:07.0000000+00:00</time></trkpt><trkpt lat="30.84907341" lon="34.7797699"><ele>477.0</ele><time>2013-11-21T09:43:12.0000000+00:00</time></trkpt><trkpt lat="30.84902763" lon="34.77990723"><ele>475.9</ele><time>2013-11-21T09:43:17.0000000+00:00</time></trkpt><trkpt lat="30.84891319" lon="34.78002167"><ele>475.3</ele><time>2013-11-21T09:43:22.0000000+00:00</time></trkpt><trkpt lat="30.8488102" lon="34.78028488"><ele>472.8</ele><time>2013-11-21T09:43:27.0000000+00:00</time></trkpt><trkpt lat="30.84889603" lon="34.7804718"><ele>470.3</ele><time>2013-11-21T09:43:32.0000000+00:00</time></trkpt><trkpt lat="30.84889603" lon="34.78067398"><ele>471.0</ele><time>2013-11-21T09:43:37.0000000+00:00</time></trkpt><trkpt lat="30.84892464" lon="34.78086472"><ele>471.8</ele><time>2013-11-21T09:43:42.0000000+00:00</time></trkpt><trkpt lat="30.84885025" lon="34.78095627"><ele>472.9</ele><time>2013-11-21T09:43:47.0000000+00:00</time></trkpt><trkpt lat="30.84875488" lon="34.78108978"><ele>474.8</ele><time>2013-11-21T09:43:52.0000000+00:00</time></trkpt><trkpt lat="30.84863663" lon="34.78118897"><ele>472.1</ele><time>2013-11-21T09:43:57.0000000+00:00</time></trkpt><trkpt lat="30.84850121" lon="34.78124237"><ele>470.1</ele><time>2013-11-21T09:44:02.0000000+00:00</time></trkpt><trkpt lat="30.84838677" lon="34.78139496"><ele>466.8</ele><time>2013-11-21T09:44:07.0000000+00:00</time></trkpt><trkpt lat="30.84835053" lon="34.78158951"><ele>462.3</ele><time>2013-11-21T09:44:12.0000000+00:00</time></trkpt><trkpt lat="30.84833527" lon="34.78178406"><ele>460.4</ele><time>2013-11-21T09:44:17.0000000+00:00</time></trkpt><trkpt lat="30.84833336" lon="34.78187561"><ele>461.0</ele><time>2013-11-21T09:44:22.0000000+00:00</time></trkpt><trkpt lat="30.84830666" lon="34.78196716"><ele>463.8</ele><time>2013-11-21T09:44:27.0000000+00:00</time></trkpt><trkpt lat="30.84827042" lon="34.78206635"><ele>469.7</ele><time>2013-11-21T09:44:32.0000000+00:00</time></trkpt><trkpt lat="30.84825134" lon="34.78209305"><ele>470.6</ele><time>2013-11-21T09:44:37.0000000+00:00</time></trkpt><trkpt lat="30.84824753" lon="34.78209686"><ele>470.3</ele><time>2013-11-21T09:44:42.0000000+00:00</time></trkpt><trkpt lat="30.84825134" lon="34.78209686"><ele>470.2</ele><time>2013-11-21T09:44:47.0000000+00:00</time></trkpt><trkpt lat="30.84825134" lon="34.78210831"><ele>470.4</ele><time>2013-11-21T09:44:52.0000000+00:00</time></trkpt><trkpt lat="30.84824944" lon="34.7822113"><ele>470.8</ele><time>2013-11-21T09:44:57.0000000+00:00</time></trkpt><trkpt lat="30.84823418" lon="34.7822876"><ele>473.4</ele><time>2013-11-21T09:45:02.0000000+00:00</time></trkpt><trkpt lat="30.84822846" lon="34.78232575"><ele>473.6</ele><time>2013-11-21T09:45:07.0000000+00:00</time></trkpt><trkpt lat="30.84823036" lon="34.78232956"><ele>473.6</ele><time>2013-11-21T09:45:12.0000000+00:00</time></trkpt><trkpt lat="30.84823036" lon="34.78232956"><ele>473.6</ele><time>2013-11-21T09:45:17.0000000+00:00</time></trkpt><trkpt lat="30.84823036" lon="34.78232956"><ele>473.7</ele><time>2013-11-21T09:45:22.0000000+00:00</time></trkpt><trkpt lat="30.84823036" lon="34.78232956"><ele>473.7</ele><time>2013-11-21T09:45:27.0000000+00:00</time></trkpt><trkpt lat="30.84823227" lon="34.78232956"><ele>473.7</ele><time>2013-11-21T09:45:32.0000000+00:00</time></trkpt><trkpt lat="30.84823227" lon="34.78232956"><ele>473.7</ele><time>2013-11-21T09:45:37.0000000+00:00</time></trkpt><trkpt lat="30.84828568" lon="34.78234482"><ele>473.4</ele><time>2013-11-21T09:45:42.0000000+00:00</time></trkpt><trkpt lat="30.84841347" lon="34.78236771"><ele>473.2</ele><time>2013-11-21T09:45:47.0000000+00:00</time></trkpt><trkpt lat="30.84859276" lon="34.78246307"><ele>472.3</ele><time>2013-11-21T09:45:52.0000000+00:00</time></trkpt><trkpt lat="30.84873009" lon="34.78253555"><ele>471.6</ele><time>2013-11-21T09:45:57.0000000+00:00</time></trkpt><trkpt lat="30.84881973" lon="34.78252411"><ele>470.8</ele><time>2013-11-21T09:46:02.0000000+00:00</time></trkpt><trkpt lat="30.84886932" lon="34.78251267"><ele>470.4</ele><time>2013-11-21T09:46:07.0000000+00:00</time></trkpt><trkpt lat="30.84899712" lon="34.78258896"><ele>470.4</ele><time>2013-11-21T09:46:12.0000000+00:00</time></trkpt><trkpt lat="30.84911346" lon="34.78270721"><ele>470.4</ele><time>2013-11-21T09:46:17.0000000+00:00</time></trkpt><trkpt lat="30.84925842" lon="34.78282929"><ele>471.6</ele><time>2013-11-21T09:46:22.0000000+00:00</time></trkpt><trkpt lat="30.84934998" lon="34.78277588"><ele>469.0</ele><time>2013-11-21T09:46:27.0000000+00:00</time></trkpt><trkpt lat="30.8495121" lon="34.78277206"><ele>469.7</ele><time>2013-11-21T09:46:32.0000000+00:00</time></trkpt><trkpt lat="30.84966469" lon="34.78279114"><ele>466.8</ele><time>2013-11-21T09:46:37.0000000+00:00</time></trkpt><trkpt lat="30.84986115" lon="34.78276062"><ele>465.8</ele><time>2013-11-21T09:46:42.0000000+00:00</time></trkpt><trkpt lat="30.85002327" lon="34.78272629"><ele>467.1</ele><time>2013-11-21T09:46:47.0000000+00:00</time></trkpt><trkpt lat="30.8502388" lon="34.78266144"><ele>466.3</ele><time>2013-11-21T09:46:52.0000000+00:00</time></trkpt><trkpt lat="30.85043907" lon="34.78263474"><ele>465.2</ele><time>2013-11-21T09:46:57.0000000+00:00</time></trkpt><trkpt lat="30.85061073" lon="34.78259277"><ele>464.5</ele><time>2013-11-21T09:47:02.0000000+00:00</time></trkpt><trkpt lat="30.85084343" lon="34.78252029"><ele>464.0</ele><time>2013-11-21T09:47:07.0000000+00:00</time></trkpt><trkpt lat="30.85101891" lon="34.78248215"><ele>464.9</ele><time>2013-11-21T09:47:12.0000000+00:00</time></trkpt><trkpt lat="30.85112" lon="34.78245163"><ele>463.5</ele><time>2013-11-21T09:47:17.0000000+00:00</time></trkpt><trkpt lat="30.85120964" lon="34.78242874"><ele>461.8</ele><time>2013-11-21T09:47:22.0000000+00:00</time></trkpt><trkpt lat="30.85138702" lon="34.78239441"><ele>459.7</ele><time>2013-11-21T09:47:27.0000000+00:00</time></trkpt><trkpt lat="30.85159874" lon="34.78233719"><ele>458.0</ele><time>2013-11-21T09:47:32.0000000+00:00</time></trkpt><trkpt lat="30.85183907" lon="34.78227997"><ele>458.0</ele><time>2013-11-21T09:47:37.0000000+00:00</time></trkpt><trkpt lat="30.8520813" lon="34.78221893"><ele>458.2</ele><time>2013-11-21T09:47:42.0000000+00:00</time></trkpt><trkpt lat="30.85232163" lon="34.78216553"><ele>460.0</ele><time>2013-11-21T09:47:47.0000000+00:00</time></trkpt><trkpt lat="30.85254669" lon="34.78208542"><ele>461.1</ele><time>2013-11-21T09:47:52.0000000+00:00</time></trkpt><trkpt lat="30.85275841" lon="34.78202438"><ele>463.6</ele><time>2013-11-21T09:47:57.0000000+00:00</time></trkpt><trkpt lat="30.85280228" lon="34.78181076"><ele>466.5</ele><time>2013-11-21T09:48:02.0000000+00:00</time></trkpt><trkpt lat="30.85275841" lon="34.78160858"><ele>469.4</ele><time>2013-11-21T09:48:07.0000000+00:00</time></trkpt><trkpt lat="30.85272789" lon="34.78142166"><ele>473.0</ele><time>2013-11-21T09:48:12.0000000+00:00</time></trkpt><trkpt lat="30.85274887" lon="34.78131104"><ele>473.3</ele><time>2013-11-21T09:48:17.0000000+00:00</time></trkpt><trkpt lat="30.85280991" lon="34.78133774"><ele>471.1</ele><time>2013-11-21T09:48:22.0000000+00:00</time></trkpt><trkpt lat="30.85284996" lon="34.78133774"><ele>469.5</ele><time>2013-11-21T09:48:27.0000000+00:00</time></trkpt><trkpt lat="30.85288429" lon="34.78136063"><ele>469.4</ele><time>2013-11-21T09:48:32.0000000+00:00</time></trkpt><trkpt lat="30.8529377" lon="34.78144074"><ele>468.6</ele><time>2013-11-21T09:48:37.0000000+00:00</time></trkpt><trkpt lat="30.85299683" lon="34.78147507"><ele>470.1</ele><time>2013-11-21T09:48:42.0000000+00:00</time></trkpt><trkpt lat="30.85312843" lon="34.78144455"><ele>471.9</ele><time>2013-11-21T09:48:47.0000000+00:00</time></trkpt><trkpt lat="30.85325813" lon="34.7814064"><ele>472.3</ele><time>2013-11-21T09:48:52.0000000+00:00</time></trkpt><trkpt lat="30.8533268" lon="34.78141403"><ele>472.2</ele><time>2013-11-21T09:48:57.0000000+00:00</time></trkpt><trkpt lat="30.85339356" lon="34.78149414"><ele>473.2</ele><time>2013-11-21T09:49:02.0000000+00:00</time></trkpt><trkpt lat="30.85339546" lon="34.78149414"><ele>470.9</ele><time>2013-11-21T09:49:07.0000000+00:00</time></trkpt><trkpt lat="30.853405" lon="34.78149796"><ele>470.6</ele><time>2013-11-21T09:49:12.0000000+00:00</time></trkpt><trkpt lat="30.85340309" lon="34.78149796"><ele>470.6</ele><time>2013-11-21T09:49:17.0000000+00:00</time></trkpt><trkpt lat="30.85340691" lon="34.78149414"><ele>470.6</ele><time>2013-11-21T09:49:22.0000000+00:00</time></trkpt></trkseg><trkseg><trkpt lat="30.85367394" lon="34.78142166"><ele>476.3</ele><time>2013-11-21T10:55:34.0000000+00:00</time></trkpt><trkpt lat="30.85357094" lon="34.78149414"><ele>477.3</ele><time>2013-11-21T10:55:39.0000000+00:00</time></trkpt><trkpt lat="30.8534832" lon="34.78155899"><ele>478.3</ele><time>2013-11-21T10:55:44.0000000+00:00</time></trkpt><trkpt lat="30.85347366" lon="34.78155136"><ele>476.9</ele><time>2013-11-21T10:55:49.0000000+00:00</time></trkpt><trkpt lat="30.85350037" lon="34.78150559"><ele>473.7</ele><time>2013-11-21T10:55:54.0000000+00:00</time></trkpt><trkpt lat="30.85349464" lon="34.78152084"><ele>475.7</ele><time>2013-11-21T10:55:59.0000000+00:00</time></trkpt><trkpt lat="30.85352325" lon="34.78152084"><ele>477.6</ele><time>2013-11-21T10:56:04.0000000+00:00</time></trkpt><trkpt lat="30.85349083" lon="34.78158569"><ele>483.9</ele><time>2013-11-21T10:56:09.0000000+00:00</time></trkpt><trkpt lat="30.85347366" lon="34.78158188"><ele>484.8</ele><time>2013-11-21T10:56:14.0000000+00:00</time></trkpt><trkpt lat="30.85346985" lon="34.7815361"><ele>483.6</ele><time>2013-11-21T10:56:19.0000000+00:00</time></trkpt><trkpt lat="30.85346985" lon="34.78153229"><ele>483.6</ele><time>2013-11-21T10:56:24.0000000+00:00</time></trkpt><trkpt lat="30.85347366" lon="34.7815361"><ele>483.6</ele><time>2013-11-21T10:56:29.0000000+00:00</time></trkpt><trkpt lat="30.8536644" lon="34.78132248"><ele>469.6</ele><time>2013-11-21T10:57:05.0000000+00:00</time></trkpt><trkpt lat="30.85365486" lon="34.78132629"><ele>470.3</ele><time>2013-11-21T10:57:10.0000000+00:00</time></trkpt><trkpt lat="30.85365105" lon="34.78139877"><ele>485.5</ele><time>2013-11-21T10:57:15.0000000+00:00</time></trkpt><trkpt lat="30.85359001" lon="34.78144836"><ele>490.4</ele><time>2013-11-21T10:57:20.0000000+00:00</time></trkpt><trkpt lat="30.85352516" lon="34.78149033"><ele>485.2</ele><time>2013-11-21T10:57:25.0000000+00:00</time></trkpt><trkpt lat="30.85345078" lon="34.78144455"><ele>479.7</ele><time>2013-11-21T10:57:30.0000000+00:00</time></trkpt><trkpt lat="30.85337448" lon="34.78139877"><ele>465.3</ele><time>2013-11-21T10:57:35.0000000+00:00</time></trkpt><trkpt lat="30.85338402" lon="34.78142929"><ele>467.6</ele><time>2013-11-21T10:57:40.0000000+00:00</time></trkpt><trkpt lat="30.85340118" lon="34.78150177"><ele>473.1</ele><time>2013-11-21T10:57:45.0000000+00:00</time></trkpt><trkpt lat="30.85341835" lon="34.78152847"><ele>474.8</ele><time>2013-11-21T10:57:50.0000000+00:00</time></trkpt><trkpt lat="30.85338211" lon="34.78155899"><ele>473.1</ele><time>2013-11-21T10:57:55.0000000+00:00</time></trkpt><trkpt lat="30.85333824" lon="34.78158569"><ele>472.8</ele><time>2013-11-21T10:58:00.0000000+00:00</time></trkpt><trkpt lat="30.85329819" lon="34.78160858"><ele>472.9</ele><time>2013-11-21T10:58:05.0000000+00:00</time></trkpt><trkpt lat="30.85323525" lon="34.78178024"><ele>474.5</ele><time>2013-11-21T11:01:14.0000000+00:00</time></trkpt><trkpt lat="30.85323906" lon="34.78176498"><ele>476.7</ele><time>2013-11-21T11:01:19.0000000+00:00</time></trkpt><trkpt lat="30.85339356" lon="34.78177261"><ele>494.2</ele><time>2013-11-21T11:01:24.0000000+00:00</time></trkpt><trkpt lat="30.85344887" lon="34.78179169"><ele>501.9</ele><time>2013-11-21T11:01:29.0000000+00:00</time></trkpt><trkpt lat="30.85349846" lon="34.78172684"><ele>500.4</ele><time>2013-11-21T11:01:34.0000000+00:00</time></trkpt><trkpt lat="30.85356522" lon="34.78158569"><ele>491.4</ele><time>2013-11-21T11:01:39.0000000+00:00</time></trkpt><trkpt lat="30.85354233" lon="34.78157806"><ele>494.2</ele><time>2013-11-21T11:01:44.0000000+00:00</time></trkpt><trkpt lat="30.8535347" lon="34.78157425"><ele>494.0</ele><time>2013-11-21T11:01:49.0000000+00:00</time></trkpt><trkpt lat="30.85353279" lon="34.78155136"><ele>492.1</ele><time>2013-11-21T11:01:54.0000000+00:00</time></trkpt><trkpt lat="30.85353661" lon="34.78153992"><ele>491.1</ele><time>2013-11-21T11:01:59.0000000+00:00</time></trkpt><trkpt lat="30.85352898" lon="34.7815361"><ele>491.0</ele><time>2013-11-21T11:02:04.0000000+00:00</time></trkpt><trkpt lat="30.85352898" lon="34.78153229"><ele>491.3</ele><time>2013-11-21T11:02:09.0000000+00:00</time></trkpt><trkpt lat="30.85354424" lon="34.78152847"><ele>491.0</ele><time>2013-11-21T11:02:14.0000000+00:00</time></trkpt><trkpt lat="30.85354424" lon="34.78151703"><ele>491.1</ele><time>2013-11-21T11:02:19.0000000+00:00</time></trkpt><trkpt lat="30.85354424" lon="34.7815094"><ele>491.1</ele><time>2013-11-21T11:02:24.0000000+00:00</time></trkpt><trkpt lat="30.85353661" lon="34.78150559"><ele>491.1</ele><time>2013-11-21T11:02:29.0000000+00:00</time></trkpt><trkpt lat="30.85351181" lon="34.78150177"><ele>491.7</ele><time>2013-11-21T11:02:34.0000000+00:00</time></trkpt><trkpt lat="30.853508" lon="34.7815094"><ele>492.7</ele><time>2013-11-21T11:02:39.0000000+00:00</time></trkpt><trkpt lat="30.85353088" lon="34.78149796"><ele>493.3</ele><time>2013-11-21T11:02:44.0000000+00:00</time></trkpt><trkpt lat="30.85353851" lon="34.78150177"><ele>493.5</ele><time>2013-11-21T11:02:49.0000000+00:00</time></trkpt><trkpt lat="30.85353851" lon="34.78150559"><ele>493.7</ele><time>2013-11-21T11:02:54.0000000+00:00</time></trkpt><trkpt lat="30.85355377" lon="34.78150559"><ele>493.9</ele><time>2013-11-21T11:02:59.0000000+00:00</time></trkpt><trkpt lat="30.85355949" lon="34.7815094"><ele>493.9</ele><time>2013-11-21T11:03:04.0000000+00:00</time></trkpt><trkpt lat="30.85356522" lon="34.78151703"><ele>494.0</ele><time>2013-11-21T11:03:09.0000000+00:00</time></trkpt><trkpt lat="30.85357285" lon="34.78152466"><ele>493.5</ele><time>2013-11-21T11:03:14.0000000+00:00</time></trkpt><trkpt lat="30.85357857" lon="34.78152084"><ele>493.5</ele><time>2013-11-21T11:03:19.0000000+00:00</time></trkpt><trkpt lat="30.85358048" lon="34.78152466"><ele>493.4</ele><time>2013-11-21T11:03:24.0000000+00:00</time></trkpt><trkpt lat="30.85358429" lon="34.78156662"><ele>493.3</ele><time>2013-11-21T11:03:29.0000000+00:00</time></trkpt><trkpt lat="30.85360336" lon="34.78158569"><ele>493.6</ele><time>2013-11-21T11:03:34.0000000+00:00</time></trkpt><trkpt lat="30.85362625" lon="34.78166962"><ele>494.0</ele><time>2013-11-21T11:03:39.0000000+00:00</time></trkpt><trkpt lat="30.85364151" lon="34.78181458"><ele>494.0</ele><time>2013-11-21T11:03:44.0000000+00:00</time></trkpt><trkpt lat="30.85370636" lon="34.78182221"><ele>494.0</ele><time>2013-11-21T11:03:49.0000000+00:00</time></trkpt><trkpt lat="30.85379601" lon="34.78186417"><ele>493.4</ele><time>2013-11-21T11:03:54.0000000+00:00</time></trkpt><trkpt lat="30.8539238" lon="34.78190994"><ele>491.8</ele><time>2013-11-21T11:03:59.0000000+00:00</time></trkpt><trkpt lat="30.85404778" lon="34.78187943"><ele>491.6</ele><time>2013-11-21T11:04:04.0000000+00:00</time></trkpt><trkpt lat="30.85419083" lon="34.78186035"><ele>492.4</ele><time>2013-11-21T11:04:09.0000000+00:00</time></trkpt><trkpt lat="30.85434532" lon="34.78182602"><ele>491.7</ele><time>2013-11-21T11:04:14.0000000+00:00</time></trkpt><trkpt lat="30.85445023" lon="34.78179169"><ele>493.6</ele><time>2013-11-21T11:04:19.0000000+00:00</time></trkpt><trkpt lat="30.85458374" lon="34.78173065"><ele>494.0</ele><time>2013-11-21T11:04:24.0000000+00:00</time></trkpt><trkpt lat="30.85473061" lon="34.78166962"><ele>491.0</ele><time>2013-11-21T11:04:29.0000000+00:00</time></trkpt><trkpt lat="30.85486794" lon="34.78167343"><ele>488.7</ele><time>2013-11-21T11:04:34.0000000+00:00</time></trkpt><trkpt lat="30.85494995" lon="34.78174973"><ele>484.8</ele><time>2013-11-21T11:04:39.0000000+00:00</time></trkpt><trkpt lat="30.85497284" lon="34.78190613"><ele>480.0</ele><time>2013-11-21T11:04:44.0000000+00:00</time></trkpt><trkpt lat="30.8549881" lon="34.7820816"><ele>477.4</ele><time>2013-11-21T11:04:49.0000000+00:00</time></trkpt><trkpt lat="30.85501862" lon="34.7822113"><ele>474.2</ele><time>2013-11-21T11:04:54.0000000+00:00</time></trkpt><trkpt lat="30.85500908" lon="34.78234482"><ele>469.7</ele><time>2013-11-21T11:04:59.0000000+00:00</time></trkpt><trkpt lat="30.85507965" lon="34.78248978"><ele>466.3</ele><time>2013-11-21T11:05:04.0000000+00:00</time></trkpt><trkpt lat="30.85519028" lon="34.78250504"><ele>464.2</ele><time>2013-11-21T11:05:09.0000000+00:00</time></trkpt><trkpt lat="30.85514832" lon="34.78240967"><ele>463.8</ele><time>2013-11-21T11:05:14.0000000+00:00</time></trkpt><trkpt lat="30.85517883" lon="34.7823143"><ele>462.6</ele><time>2013-11-21T11:05:19.0000000+00:00</time></trkpt><trkpt lat="30.85520554" lon="34.78218079"><ele>462.4</ele><time>2013-11-21T11:05:24.0000000+00:00</time></trkpt><trkpt lat="30.85521507" lon="34.78202438"><ele>462.4</ele><time>2013-11-21T11:05:29.0000000+00:00</time></trkpt><trkpt lat="30.85512543" lon="34.78189468"><ele>460.4</ele><time>2013-11-21T11:05:34.0000000+00:00</time></trkpt><trkpt lat="30.85497475" lon="34.78182221"><ele>461.1</ele><time>2013-11-21T11:05:39.0000000+00:00</time></trkpt><trkpt lat="30.85482788" lon="34.78176117"><ele>461.5</ele><time>2013-11-21T11:05:44.0000000+00:00</time></trkpt><trkpt lat="30.85468674" lon="34.78173065"><ele>461.2</ele><time>2013-11-21T11:05:49.0000000+00:00</time></trkpt><trkpt lat="30.85452652" lon="34.78169251"><ele>459.9</ele><time>2013-11-21T11:05:54.0000000+00:00</time></trkpt><trkpt lat="30.85431671" lon="34.78166962"><ele>457.9</ele><time>2013-11-21T11:05:59.0000000+00:00</time></trkpt><trkpt lat="30.85411072" lon="34.78173065"><ele>456.8</ele><time>2013-11-21T11:06:04.0000000+00:00</time></trkpt><trkpt lat="30.85387039" lon="34.78178406"><ele>456.8</ele><time>2013-11-21T11:06:09.0000000+00:00</time></trkpt><trkpt lat="30.85364533" lon="34.78184891"><ele>459.2</ele><time>2013-11-21T11:06:14.0000000+00:00</time></trkpt><trkpt lat="30.85338974" lon="34.7819252"><ele>461.0</ele><time>2013-11-21T11:06:19.0000000+00:00</time></trkpt><trkpt lat="30.85315323" lon="34.78202057"><ele>463.5</ele><time>2013-11-21T11:06:24.0000000+00:00</time></trkpt><trkpt lat="30.85285378" lon="34.78207779"><ele>466.8</ele><time>2013-11-21T11:06:29.0000000+00:00</time></trkpt><trkpt lat="30.85260582" lon="34.78213501"><ele>470.7</ele><time>2013-11-21T11:06:34.0000000+00:00</time></trkpt><trkpt lat="30.85234833" lon="34.78219605"><ele>473.6</ele><time>2013-11-21T11:06:39.0000000+00:00</time></trkpt><trkpt lat="30.85208321" lon="34.78225327"><ele>477.6</ele><time>2013-11-21T11:06:44.0000000+00:00</time></trkpt><trkpt lat="30.8518486" lon="34.7823143"><ele>479.3</ele><time>2013-11-21T11:06:49.0000000+00:00</time></trkpt><trkpt lat="30.85163879" lon="34.78235245"><ele>480.8</ele><time>2013-11-21T11:06:54.0000000+00:00</time></trkpt><trkpt lat="30.85148811" lon="34.78252792"><ele>482.9</ele><time>2013-11-21T11:06:59.0000000+00:00</time></trkpt><trkpt lat="30.85141563" lon="34.78279114"><ele>484.2</ele><time>2013-11-21T11:07:04.0000000+00:00</time></trkpt><trkpt lat="30.85135651" lon="34.78307724"><ele>482.2</ele><time>2013-11-21T11:07:09.0000000+00:00</time></trkpt><trkpt lat="30.85132599" lon="34.78337097"><ele>480.6</ele><time>2013-11-21T11:07:14.0000000+00:00</time></trkpt><trkpt lat="30.85131455" lon="34.78367996"><ele>475.8</ele><time>2013-11-21T11:07:19.0000000+00:00</time></trkpt><trkpt lat="30.85132217" lon="34.78397751"><ele>469.3</ele><time>2013-11-21T11:07:24.0000000+00:00</time></trkpt><trkpt lat="30.85141754" lon="34.78425598"><ele>461.8</ele><time>2013-11-21T11:07:29.0000000+00:00</time></trkpt><trkpt lat="30.85141945" lon="34.78449631"><ele>455.6</ele><time>2013-11-21T11:07:34.0000000+00:00</time></trkpt><trkpt lat="30.85153198" lon="34.78469849"><ele>451.1</ele><time>2013-11-21T11:07:39.0000000+00:00</time></trkpt><trkpt lat="30.85169029" lon="34.78461838"><ele>450.4</ele><time>2013-11-21T11:07:44.0000000+00:00</time></trkpt><trkpt lat="30.85188294" lon="34.78456497"><ele>451.7</ele><time>2013-11-21T11:07:49.0000000+00:00</time></trkpt><trkpt lat="30.85214806" lon="34.78453064"><ele>456.4</ele><time>2013-11-21T11:07:54.0000000+00:00</time></trkpt><trkpt lat="30.85237503" lon="34.78449631"><ele>459.5</ele><time>2013-11-21T11:07:59.0000000+00:00</time></trkpt><trkpt lat="30.85257149" lon="34.78447342"><ele>465.1</ele><time>2013-11-21T11:08:04.0000000+00:00</time></trkpt><trkpt lat="30.85271072" lon="34.7844696"><ele>470.1</ele><time>2013-11-21T11:08:09.0000000+00:00</time></trkpt><trkpt lat="30.85284233" lon="34.78445816"><ele>476.1</ele><time>2013-11-21T11:08:14.0000000+00:00</time></trkpt><trkpt lat="30.85295487" lon="34.7844429"><ele>478.5</ele><time>2013-11-21T11:08:19.0000000+00:00</time></trkpt><trkpt lat="30.85311699" lon="34.7843895"><ele>482.5</ele><time>2013-11-21T11:08:24.0000000+00:00</time></trkpt><trkpt lat="30.85333824" lon="34.78432083"><ele>485.4</ele><time>2013-11-21T11:08:29.0000000+00:00</time></trkpt><trkpt lat="30.8535347" lon="34.78432083"><ele>487.5</ele><time>2013-11-21T11:08:34.0000000+00:00</time></trkpt><trkpt lat="30.8537178" lon="34.78427887"><ele>489.5</ele><time>2013-11-21T11:08:39.0000000+00:00</time></trkpt><trkpt lat="30.85388374" lon="34.78421783"><ele>489.2</ele><time>2013-11-21T11:08:44.0000000+00:00</time></trkpt><trkpt lat="30.85409927" lon="34.78414917"><ele>489.1</ele><time>2013-11-21T11:08:49.0000000+00:00</time></trkpt><trkpt lat="30.8543396" lon="34.78409958"><ele>490.8</ele><time>2013-11-21T11:08:54.0000000+00:00</time></trkpt><trkpt lat="30.85456848" lon="34.78404999"><ele>490.1</ele><time>2013-11-21T11:08:59.0000000+00:00</time></trkpt><trkpt lat="30.85482216" lon="34.78397369"><ele>490.2</ele><time>2013-11-21T11:09:04.0000000+00:00</time></trkpt><trkpt lat="30.85504723" lon="34.78390503"><ele>490.1</ele><time>2013-11-21T11:09:09.0000000+00:00</time></trkpt><trkpt lat="30.85527039" lon="34.78385544"><ele>491.2</ele><time>2013-11-21T11:09:14.0000000+00:00</time></trkpt><trkpt lat="30.8555336" lon="34.78382874"><ele>493.4</ele><time>2013-11-21T11:09:19.0000000+00:00</time></trkpt><trkpt lat="30.85575295" lon="34.78377152"><ele>493.3</ele><time>2013-11-21T11:09:24.0000000+00:00</time></trkpt><trkpt lat="30.85599709" lon="34.78373337"><ele>492.1</ele><time>2013-11-21T11:09:29.0000000+00:00</time></trkpt><trkpt lat="30.85626984" lon="34.78366852"><ele>493.8</ele><time>2013-11-21T11:09:34.0000000+00:00</time></trkpt><trkpt lat="30.85654259" lon="34.7836113"><ele>494.6</ele><time>2013-11-21T11:09:39.0000000+00:00</time></trkpt><trkpt lat="30.85681915" lon="34.78354263"><ele>495.4</ele><time>2013-11-21T11:09:44.0000000+00:00</time></trkpt><trkpt lat="30.85705948" lon="34.7834816"><ele>496.1</ele><time>2013-11-21T11:09:49.0000000+00:00</time></trkpt><trkpt lat="30.85727692" lon="34.78343582"><ele>499.1</ele><time>2013-11-21T11:09:54.0000000+00:00</time></trkpt><trkpt lat="30.85752106" lon="34.78339005"><ele>500.0</ele><time>2013-11-21T11:09:59.0000000+00:00</time></trkpt><trkpt lat="30.85778809" lon="34.78331757"><ele>500.8</ele><time>2013-11-21T11:10:04.0000000+00:00</time></trkpt><trkpt lat="30.85804176" lon="34.78323364"><ele>501.2</ele><time>2013-11-21T11:10:09.0000000+00:00</time></trkpt><trkpt lat="30.85825157" lon="34.78304672"><ele>498.2</ele><time>2013-11-21T11:10:14.0000000+00:00</time></trkpt><trkpt lat="30.8584137" lon="34.78281784"><ele>497.0</ele><time>2013-11-21T11:10:19.0000000+00:00</time></trkpt><trkpt lat="30.85853005" lon="34.78256989"><ele>496.2</ele><time>2013-11-21T11:10:24.0000000+00:00</time></trkpt><trkpt lat="30.85863304" lon="34.78237534"><ele>496.8</ele><time>2013-11-21T11:10:29.0000000+00:00</time></trkpt><trkpt lat="30.85876274" lon="34.7821846"><ele>496.6</ele><time>2013-11-21T11:10:34.0000000+00:00</time></trkpt><trkpt lat="30.85887909" lon="34.78198624"><ele>495.7</ele><time>2013-11-21T11:10:39.0000000+00:00</time></trkpt><trkpt lat="30.85898209" lon="34.7817688"><ele>494.8</ele><time>2013-11-21T11:10:44.0000000+00:00</time></trkpt><trkpt lat="30.85909081" lon="34.78158569"><ele>494.1</ele><time>2013-11-21T11:10:49.0000000+00:00</time></trkpt><trkpt lat="30.85918808" lon="34.78138733"><ele>496.5</ele><time>2013-11-21T11:10:54.0000000+00:00</time></trkpt><trkpt lat="30.85930443" lon="34.78119278"><ele>498.2</ele><time>2013-11-21T11:10:59.0000000+00:00</time></trkpt><trkpt lat="30.85941124" lon="34.78104019"><ele>499.8</ele><time>2013-11-21T11:11:04.0000000+00:00</time></trkpt><trkpt lat="30.85946083" lon="34.78094482"><ele>500.3</ele><time>2013-11-21T11:11:09.0000000+00:00</time></trkpt><trkpt lat="30.85948181" lon="34.78084946"><ele>498.5</ele><time>2013-11-21T11:11:14.0000000+00:00</time></trkpt><trkpt lat="30.85950661" lon="34.78083038"><ele>497.9</ele><time>2013-11-21T11:11:19.0000000+00:00</time></trkpt><trkpt lat="30.85950851" lon="34.78082657"><ele>497.9</ele><time>2013-11-21T11:11:24.0000000+00:00</time></trkpt><trkpt lat="30.85951805" lon="34.78082657"><ele>497.9</ele><time>2013-11-21T11:11:29.0000000+00:00</time></trkpt><trkpt lat="30.85952187" lon="34.78082657"><ele>497.9</ele><time>2013-11-21T11:11:34.0000000+00:00</time></trkpt><trkpt lat="30.85952759" lon="34.78081894"><ele>497.9</ele><time>2013-11-21T11:11:39.0000000+00:00</time></trkpt><trkpt lat="30.85962105" lon="34.78074646"><ele>497.2</ele><time>2013-11-21T11:11:44.0000000+00:00</time></trkpt><trkpt lat="30.85977173" lon="34.78061295"><ele>496.8</ele><time>2013-11-21T11:11:49.0000000+00:00</time></trkpt><trkpt lat="30.85987473" lon="34.7804184"><ele>496.0</ele><time>2013-11-21T11:11:54.0000000+00:00</time></trkpt><trkpt lat="30.85994911" lon="34.78030777"><ele>495.1</ele><time>2013-11-21T11:11:59.0000000+00:00</time></trkpt><trkpt lat="30.8600502" lon="34.78018189"><ele>494.0</ele><time>2013-11-21T11:12:04.0000000+00:00</time></trkpt><trkpt lat="30.86017418" lon="34.78001022"><ele>492.6</ele><time>2013-11-21T11:12:09.0000000+00:00</time></trkpt><trkpt lat="30.86032867" lon="34.7797966"><ele>492.0</ele><time>2013-11-21T11:12:14.0000000+00:00</time></trkpt><trkpt lat="30.86048508" lon="34.77956772"><ele>490.5</ele><time>2013-11-21T11:12:19.0000000+00:00</time></trkpt><trkpt lat="30.86061096" lon="34.77937317"><ele>488.9</ele><time>2013-11-21T11:12:24.0000000+00:00</time></trkpt><trkpt lat="30.8607254" lon="34.77919769"><ele>488.7</ele><time>2013-11-21T11:12:29.0000000+00:00</time></trkpt><trkpt lat="30.86084747" lon="34.7790184"><ele>487.0</ele><time>2013-11-21T11:12:34.0000000+00:00</time></trkpt><trkpt lat="30.86093521" lon="34.77882385"><ele>486.5</ele><time>2013-11-21T11:12:39.0000000+00:00</time></trkpt><trkpt lat="30.86100578" lon="34.77862167"><ele>486.6</ele><time>2013-11-21T11:12:44.0000000+00:00</time></trkpt><trkpt lat="30.86109161" lon="34.77845001"><ele>486.9</ele><time>2013-11-21T11:12:49.0000000+00:00</time></trkpt><trkpt lat="30.86117554" lon="34.7782898"><ele>488.1</ele><time>2013-11-21T11:12:54.0000000+00:00</time></trkpt><trkpt lat="30.86126518" lon="34.77812576"><ele>489.0</ele><time>2013-11-21T11:12:59.0000000+00:00</time></trkpt><trkpt lat="30.86136818" lon="34.77795792"><ele>487.9</ele><time>2013-11-21T11:13:04.0000000+00:00</time></trkpt><trkpt lat="30.8614769" lon="34.77778626"><ele>489.3</ele><time>2013-11-21T11:13:09.0000000+00:00</time></trkpt><trkpt lat="30.86158943" lon="34.77760696"><ele>489.0</ele><time>2013-11-21T11:13:14.0000000+00:00</time></trkpt><trkpt lat="30.86166954" lon="34.77742004"><ele>488.9</ele><time>2013-11-21T11:13:19.0000000+00:00</time></trkpt><trkpt lat="30.86173439" lon="34.77719498"><ele>488.6</ele><time>2013-11-21T11:13:24.0000000+00:00</time></trkpt><trkpt lat="30.86181259" lon="34.77703095"><ele>488.6</ele><time>2013-11-21T11:13:29.0000000+00:00</time></trkpt><trkpt lat="30.86194611" lon="34.77692032"><ele>486.5</ele><time>2013-11-21T11:13:34.0000000+00:00</time></trkpt><trkpt lat="30.86208916" lon="34.77679825"><ele>490.4</ele><time>2013-11-21T11:13:39.0000000+00:00</time></trkpt><trkpt lat="30.86218834" lon="34.77664948"><ele>493.9</ele><time>2013-11-21T11:13:44.0000000+00:00</time></trkpt><trkpt lat="30.86228371" lon="34.77648544"><ele>497.8</ele><time>2013-11-21T11:13:49.0000000+00:00</time></trkpt><trkpt lat="30.8623085" lon="34.77634049"><ele>497.3</ele><time>2013-11-21T11:13:54.0000000+00:00</time></trkpt><trkpt lat="30.86216927" lon="34.7762413"><ele>496.4</ele><time>2013-11-21T11:13:59.0000000+00:00</time></trkpt><trkpt lat="30.86202049" lon="34.77614594"><ele>494.7</ele><time>2013-11-21T11:14:04.0000000+00:00</time></trkpt><trkpt lat="30.86190033" lon="34.77605057"><ele>491.4</ele><time>2013-11-21T11:14:09.0000000+00:00</time></trkpt><trkpt lat="30.86178207" lon="34.77599335"><ele>491.9</ele><time>2013-11-21T11:14:14.0000000+00:00</time></trkpt><trkpt lat="30.86162758" lon="34.77587891"><ele>489.9</ele><time>2013-11-21T11:14:19.0000000+00:00</time></trkpt><trkpt lat="30.86143875" lon="34.77574539"><ele>488.9</ele><time>2013-11-21T11:14:24.0000000+00:00</time></trkpt><trkpt lat="30.86123276" lon="34.7756424"><ele>487.5</ele><time>2013-11-21T11:14:29.0000000+00:00</time></trkpt><trkpt lat="30.86107254" lon="34.77553558"><ele>487.2</ele><time>2013-11-21T11:14:34.0000000+00:00</time></trkpt><trkpt lat="30.86091042" lon="34.77542114"><ele>487.9</ele><time>2013-11-21T11:14:39.0000000+00:00</time></trkpt><trkpt lat="30.86071968" lon="34.77530289"><ele>488.8</ele><time>2013-11-21T11:14:44.0000000+00:00</time></trkpt><trkpt lat="30.86055374" lon="34.77518845"><ele>491.1</ele><time>2013-11-21T11:14:49.0000000+00:00</time></trkpt><trkpt lat="30.86035538" lon="34.77503586"><ele>492.3</ele><time>2013-11-21T11:14:54.0000000+00:00</time></trkpt><trkpt lat="30.86013031" lon="34.77486801"><ele>493.6</ele><time>2013-11-21T11:14:59.0000000+00:00</time></trkpt><trkpt lat="30.85993195" lon="34.77471924"><ele>493.2</ele><time>2013-11-21T11:15:04.0000000+00:00</time></trkpt><trkpt lat="30.85972214" lon="34.77459335"><ele>493.4</ele><time>2013-11-21T11:15:09.0000000+00:00</time></trkpt><trkpt lat="30.85951996" lon="34.77445984"><ele>491.8</ele><time>2013-11-21T11:15:14.0000000+00:00</time></trkpt><trkpt lat="30.85937691" lon="34.77437592"><ele>491.9</ele><time>2013-11-21T11:15:19.0000000+00:00</time></trkpt><trkpt lat="30.85923386" lon="34.77429199"><ele>491.6</ele><time>2013-11-21T11:15:24.0000000+00:00</time></trkpt><trkpt lat="30.85910416" lon="34.77419281"><ele>492.6</ele><time>2013-11-21T11:15:29.0000000+00:00</time></trkpt><trkpt lat="30.8589344" lon="34.77409744"><ele>492.1</ele><time>2013-11-21T11:15:34.0000000+00:00</time></trkpt><trkpt lat="30.85873222" lon="34.77396011"><ele>492.4</ele><time>2013-11-21T11:15:39.0000000+00:00</time></trkpt><trkpt lat="30.85855484" lon="34.77383804"><ele>492.5</ele><time>2013-11-21T11:15:44.0000000+00:00</time></trkpt><trkpt lat="30.85839081" lon="34.77373886"><ele>493.0</ele><time>2013-11-21T11:15:49.0000000+00:00</time></trkpt><trkpt lat="30.85821343" lon="34.77363586"><ele>492.9</ele><time>2013-11-21T11:15:54.0000000+00:00</time></trkpt><trkpt lat="30.85806274" lon="34.77352142"><ele>494.1</ele><time>2013-11-21T11:15:59.0000000+00:00</time></trkpt><trkpt lat="30.85787964" lon="34.77342224"><ele>496.4</ele><time>2013-11-21T11:16:04.0000000+00:00</time></trkpt><trkpt lat="30.85768509" lon="34.77329254"><ele>497.5</ele><time>2013-11-21T11:16:09.0000000+00:00</time></trkpt><trkpt lat="30.85751152" lon="34.77317047"><ele>497.8</ele><time>2013-11-21T11:16:14.0000000+00:00</time></trkpt><trkpt lat="30.85731697" lon="34.77305603"><ele>496.3</ele><time>2013-11-21T11:16:19.0000000+00:00</time></trkpt><trkpt lat="30.85714531" lon="34.77293015"><ele>495.2</ele><time>2013-11-21T11:16:24.0000000+00:00</time></trkpt><trkpt lat="30.85694885" lon="34.77279663"><ele>498.1</ele><time>2013-11-21T11:16:29.0000000+00:00</time></trkpt><trkpt lat="30.8567543" lon="34.77267838"><ele>497.7</ele><time>2013-11-21T11:16:34.0000000+00:00</time></trkpt><trkpt lat="30.85656357" lon="34.77257919"><ele>494.7</ele><time>2013-11-21T11:16:39.0000000+00:00</time></trkpt><trkpt lat="30.85638619" lon="34.77248383"><ele>492.5</ele><time>2013-11-21T11:16:44.0000000+00:00</time></trkpt><trkpt lat="30.8562336" lon="34.77233505"><ele>492.6</ele><time>2013-11-21T11:16:49.0000000+00:00</time></trkpt><trkpt lat="30.85606766" lon="34.77220154"><ele>493.8</ele><time>2013-11-21T11:16:54.0000000+00:00</time></trkpt><trkpt lat="30.85593033" lon="34.77209854"><ele>494.9</ele><time>2013-11-21T11:16:59.0000000+00:00</time></trkpt><trkpt lat="30.85575676" lon="34.77197647"><ele>495.7</ele><time>2013-11-21T11:17:04.0000000+00:00</time></trkpt><trkpt lat="30.8555584" lon="34.77184677"><ele>495.0</ele><time>2013-11-21T11:17:09.0000000+00:00</time></trkpt><trkpt lat="30.85536957" lon="34.77172852"><ele>493.8</ele><time>2013-11-21T11:17:14.0000000+00:00</time></trkpt><trkpt lat="30.85516548" lon="34.77161026"><ele>492.0</ele><time>2013-11-21T11:17:19.0000000+00:00</time></trkpt><trkpt lat="30.8549614" lon="34.771492"><ele>491.6</ele><time>2013-11-21T11:17:24.0000000+00:00</time></trkpt><trkpt lat="30.85480309" lon="34.77137756"><ele>490.8</ele><time>2013-11-21T11:17:29.0000000+00:00</time></trkpt><trkpt lat="30.85461235" lon="34.77135086"><ele>493.2</ele><time>2013-11-21T11:17:34.0000000+00:00</time></trkpt><trkpt lat="30.85451698" lon="34.77148438"><ele>493.8</ele><time>2013-11-21T11:17:39.0000000+00:00</time></trkpt><trkpt lat="30.85442162" lon="34.77172852"><ele>493.7</ele><time>2013-11-21T11:17:44.0000000+00:00</time></trkpt><trkpt lat="30.85430718" lon="34.77202225"><ele>493.8</ele><time>2013-11-21T11:17:49.0000000+00:00</time></trkpt><trkpt lat="30.8542347" lon="34.77230454"><ele>493.7</ele><time>2013-11-21T11:17:54.0000000+00:00</time></trkpt><trkpt lat="30.85423279" lon="34.77256393"><ele>494.7</ele><time>2013-11-21T11:17:59.0000000+00:00</time></trkpt><trkpt lat="30.85413361" lon="34.77279282"><ele>494.2</ele><time>2013-11-21T11:18:04.0000000+00:00</time></trkpt><trkpt lat="30.85406303" lon="34.7730751"><ele>493.1</ele><time>2013-11-21T11:18:09.0000000+00:00</time></trkpt><trkpt lat="30.85400772" lon="34.77337647"><ele>493.2</ele><time>2013-11-21T11:18:14.0000000+00:00</time></trkpt><trkpt lat="30.85393333" lon="34.77365494"><ele>493.8</ele><time>2013-11-21T11:18:19.0000000+00:00</time></trkpt><trkpt lat="30.85387611" lon="34.77388382"><ele>495.4</ele><time>2013-11-21T11:18:24.0000000+00:00</time></trkpt><trkpt lat="30.85381126" lon="34.77412796"><ele>494.5</ele><time>2013-11-21T11:18:29.0000000+00:00</time></trkpt><trkpt lat="30.85373497" lon="34.77439499"><ele>492.6</ele><time>2013-11-21T11:18:34.0000000+00:00</time></trkpt><trkpt lat="30.8536644" lon="34.77467728"><ele>490.4</ele><time>2013-11-21T11:18:39.0000000+00:00</time></trkpt><trkpt lat="30.85359764" lon="34.77495194"><ele>487.5</ele><time>2013-11-21T11:18:44.0000000+00:00</time></trkpt><trkpt lat="30.85357285" lon="34.77519226"><ele>485.6</ele><time>2013-11-21T11:18:49.0000000+00:00</time></trkpt><trkpt lat="30.85360909" lon="34.77541733"><ele>484.0</ele><time>2013-11-21T11:18:54.0000000+00:00</time></trkpt><trkpt lat="30.85355187" lon="34.7755661"><ele>485.9</ele><time>2013-11-21T11:18:59.0000000+00:00</time></trkpt><trkpt lat="30.85352135" lon="34.77567291"><ele>486.3</ele><time>2013-11-21T11:19:04.0000000+00:00</time></trkpt><trkpt lat="30.85338402" lon="34.77584839"><ele>487.4</ele><time>2013-11-21T11:19:09.0000000+00:00</time></trkpt><trkpt lat="30.8531971" lon="34.77610397"><ele>487.0</ele><time>2013-11-21T11:19:14.0000000+00:00</time></trkpt><trkpt lat="30.85302734" lon="34.77635193"><ele>487.2</ele><time>2013-11-21T11:19:19.0000000+00:00</time></trkpt><trkpt lat="30.85285568" lon="34.77662659"><ele>488.9</ele><time>2013-11-21T11:19:24.0000000+00:00</time></trkpt><trkpt lat="30.85265732" lon="34.77691269"><ele>489.5</ele><time>2013-11-21T11:19:29.0000000+00:00</time></trkpt><trkpt lat="30.85248566" lon="34.77717972"><ele>489.6</ele><time>2013-11-21T11:19:34.0000000+00:00</time></trkpt><trkpt lat="30.85231781" lon="34.77742767"><ele>493.6</ele><time>2013-11-21T11:19:39.0000000+00:00</time></trkpt><trkpt lat="30.85214615" lon="34.77769089"><ele>493.7</ele><time>2013-11-21T11:19:44.0000000+00:00</time></trkpt><trkpt lat="30.85205078" lon="34.77791977"><ele>489.4</ele><time>2013-11-21T11:19:49.0000000+00:00</time></trkpt><trkpt lat="30.85198593" lon="34.77819061"><ele>486.6</ele><time>2013-11-21T11:19:54.0000000+00:00</time></trkpt><trkpt lat="30.85193062" lon="34.7784462"><ele>486.5</ele><time>2013-11-21T11:19:59.0000000+00:00</time></trkpt><trkpt lat="30.85176277" lon="34.77864075"><ele>486.3</ele><time>2013-11-21T11:20:04.0000000+00:00</time></trkpt><trkpt lat="30.85159874" lon="34.77882385"><ele>484.3</ele><time>2013-11-21T11:20:09.0000000+00:00</time></trkpt><trkpt lat="30.8514328" lon="34.7789917"><ele>483.8</ele><time>2013-11-21T11:20:14.0000000+00:00</time></trkpt><trkpt lat="30.85121536" lon="34.77915192"><ele>485.4</ele><time>2013-11-21T11:20:19.0000000+00:00</time></trkpt><trkpt lat="30.85097122" lon="34.7792511"><ele>491.0</ele><time>2013-11-21T11:20:24.0000000+00:00</time></trkpt><trkpt lat="30.85077477" lon="34.7792511"><ele>488.8</ele><time>2013-11-21T11:20:29.0000000+00:00</time></trkpt><trkpt lat="30.85058403" lon="34.77913284"><ele>486.3</ele><time>2013-11-21T11:20:34.0000000+00:00</time></trkpt><trkpt lat="30.85065842" lon="34.77893066"><ele>484.3</ele><time>2013-11-21T11:20:39.0000000+00:00</time></trkpt><trkpt lat="30.85079956" lon="34.77867889"><ele>482.5</ele><time>2013-11-21T11:20:44.0000000+00:00</time></trkpt><trkpt lat="30.85092354" lon="34.77843857"><ele>480.1</ele><time>2013-11-21T11:20:49.0000000+00:00</time></trkpt><trkpt lat="30.85106659" lon="34.77820969"><ele>480.6</ele><time>2013-11-21T11:20:54.0000000+00:00</time></trkpt><trkpt lat="30.85120583" lon="34.77798843"><ele>481.0</ele><time>2013-11-21T11:20:59.0000000+00:00</time></trkpt><trkpt lat="30.85135651" lon="34.77775955"><ele>481.9</ele><time>2013-11-21T11:21:04.0000000+00:00</time></trkpt><trkpt lat="30.85151863" lon="34.77751923"><ele>482.2</ele><time>2013-11-21T11:21:09.0000000+00:00</time></trkpt><trkpt lat="30.85169983" lon="34.77725983"><ele>482.1</ele><time>2013-11-21T11:21:14.0000000+00:00</time></trkpt><trkpt lat="30.8518734" lon="34.77703857"><ele>481.1</ele><time>2013-11-21T11:21:19.0000000+00:00</time></trkpt><trkpt lat="30.85202599" lon="34.77677918"><ele>481.7</ele><time>2013-11-21T11:21:24.0000000+00:00</time></trkpt><trkpt lat="30.8521862" lon="34.77653122"><ele>481.6</ele><time>2013-11-21T11:21:29.0000000+00:00</time></trkpt><trkpt lat="30.85233688" lon="34.77629089"><ele>482.3</ele><time>2013-11-21T11:21:34.0000000+00:00</time></trkpt><trkpt lat="30.8524704" lon="34.77608872"><ele>484.3</ele><time>2013-11-21T11:21:39.0000000+00:00</time></trkpt><trkpt lat="30.8526001" lon="34.77586746"><ele>486.0</ele><time>2013-11-21T11:21:44.0000000+00:00</time></trkpt><trkpt lat="30.85273171" lon="34.77563858"><ele>488.2</ele><time>2013-11-21T11:21:49.0000000+00:00</time></trkpt><trkpt lat="30.85286522" lon="34.7754364"><ele>488.7</ele><time>2013-11-21T11:21:54.0000000+00:00</time></trkpt><trkpt lat="30.85298538" lon="34.77526474"><ele>489.6</ele><time>2013-11-21T11:21:59.0000000+00:00</time></trkpt><trkpt lat="30.8531208" lon="34.77505112"><ele>488.5</ele><time>2013-11-21T11:22:04.0000000+00:00</time></trkpt><trkpt lat="30.85321045" lon="34.77486038"><ele>487.3</ele><time>2013-11-21T11:22:09.0000000+00:00</time></trkpt><trkpt lat="30.85333252" lon="34.7746315"><ele>485.8</ele><time>2013-11-21T11:22:14.0000000+00:00</time></trkpt><trkpt lat="30.85343742" lon="34.77438355"><ele>486.8</ele><time>2013-11-21T11:22:19.0000000+00:00</time></trkpt><trkpt lat="30.85351181" lon="34.77413559"><ele>488.0</ele><time>2013-11-21T11:22:24.0000000+00:00</time></trkpt><trkpt lat="30.85355377" lon="34.77387238"><ele>489.0</ele><time>2013-11-21T11:22:29.0000000+00:00</time></trkpt><trkpt lat="30.85360527" lon="34.77365112"><ele>491.4</ele><time>2013-11-21T11:22:34.0000000+00:00</time></trkpt><trkpt lat="30.8536644" lon="34.77339935"><ele>493.5</ele><time>2013-11-21T11:22:39.0000000+00:00</time></trkpt><trkpt lat="30.85373688" lon="34.7731514"><ele>493.8</ele><time>2013-11-21T11:22:44.0000000+00:00</time></trkpt><trkpt lat="30.85379982" lon="34.77290726"><ele>493.0</ele><time>2013-11-21T11:22:49.0000000+00:00</time></trkpt><trkpt lat="30.85385704" lon="34.77270508"><ele>493.1</ele><time>2013-11-21T11:22:54.0000000+00:00</time></trkpt><trkpt lat="30.85390282" lon="34.77249527"><ele>493.9</ele><time>2013-11-21T11:22:59.0000000+00:00</time></trkpt><trkpt lat="30.85395622" lon="34.7722702"><ele>494.4</ele><time>2013-11-21T11:23:04.0000000+00:00</time></trkpt><trkpt lat="30.85400963" lon="34.77204895"><ele>494.4</ele><time>2013-11-21T11:23:09.0000000+00:00</time></trkpt><trkpt lat="30.85407066" lon="34.77182388"><ele>495.0</ele><time>2013-11-21T11:23:14.0000000+00:00</time></trkpt><trkpt lat="30.85411835" lon="34.77162552"><ele>496.6</ele><time>2013-11-21T11:23:19.0000000+00:00</time></trkpt><trkpt lat="30.85418129" lon="34.77140427"><ele>497.4</ele><time>2013-11-21T11:23:24.0000000+00:00</time></trkpt><trkpt lat="30.8542347" lon="34.77116394"><ele>499.8</ele><time>2013-11-21T11:23:29.0000000+00:00</time></trkpt><trkpt lat="30.85428047" lon="34.77096939"><ele>499.7</ele><time>2013-11-21T11:23:34.0000000+00:00</time></trkpt><trkpt lat="30.8543396" lon="34.77075577"><ele>500.4</ele><time>2013-11-21T11:23:39.0000000+00:00</time></trkpt><trkpt lat="30.85441589" lon="34.7705574"><ele>502.4</ele><time>2013-11-21T11:23:44.0000000+00:00</time></trkpt><trkpt lat="30.85444641" lon="34.77049255"><ele>503.0</ele><time>2013-11-21T11:23:49.0000000+00:00</time></trkpt><trkpt lat="30.85446167" lon="34.77046204"><ele>504.0</ele><time>2013-11-21T11:23:54.0000000+00:00</time></trkpt><trkpt lat="30.85445786" lon="34.77042389"><ele>505.1</ele><time>2013-11-21T11:23:59.0000000+00:00</time></trkpt><trkpt lat="30.85446739" lon="34.77041245"><ele>506.2</ele><time>2013-11-21T11:24:04.0000000+00:00</time></trkpt><trkpt lat="30.85447121" lon="34.77033615"><ele>504.7</ele><time>2013-11-21T11:24:09.0000000+00:00</time></trkpt><trkpt lat="30.85434723" lon="34.77022934"><ele>505.4</ele><time>2013-11-21T11:24:14.0000000+00:00</time></trkpt><trkpt lat="30.85419083" lon="34.77010346"><ele>505.1</ele><time>2013-11-21T11:24:19.0000000+00:00</time></trkpt><trkpt lat="30.854002" lon="34.76996994"><ele>504.6</ele><time>2013-11-21T11:24:24.0000000+00:00</time></trkpt><trkpt lat="30.85385895" lon="34.76984406"><ele>503.2</ele><time>2013-11-21T11:24:29.0000000+00:00</time></trkpt><trkpt lat="30.85366249" lon="34.76969528"><ele>502.7</ele><time>2013-11-21T11:24:34.0000000+00:00</time></trkpt><trkpt lat="30.85347176" lon="34.76953125"><ele>501.5</ele><time>2013-11-21T11:24:39.0000000+00:00</time></trkpt><trkpt lat="30.8532753" lon="34.76937485"><ele>501.0</ele><time>2013-11-21T11:24:44.0000000+00:00</time></trkpt><trkpt lat="30.85309792" lon="34.76921463"><ele>500.1</ele><time>2013-11-21T11:24:49.0000000+00:00</time></trkpt><trkpt lat="30.85288239" lon="34.76904678"><ele>500.3</ele><time>2013-11-21T11:24:54.0000000+00:00</time></trkpt><trkpt lat="30.85267639" lon="34.76890945"><ele>500.7</ele><time>2013-11-21T11:24:59.0000000+00:00</time></trkpt><trkpt lat="30.85246658" lon="34.76877976"><ele>499.6</ele><time>2013-11-21T11:25:04.0000000+00:00</time></trkpt><trkpt lat="30.8522377" lon="34.76867676"><ele>497.5</ele><time>2013-11-21T11:25:09.0000000+00:00</time></trkpt><trkpt lat="30.85204315" lon="34.76856232"><ele>497.2</ele><time>2013-11-21T11:25:14.0000000+00:00</time></trkpt><trkpt lat="30.85191536" lon="34.76850891"><ele>497.5</ele><time>2013-11-21T11:25:19.0000000+00:00</time></trkpt><trkpt lat="30.85179329" lon="34.76844406"><ele>497.0</ele><time>2013-11-21T11:25:24.0000000+00:00</time></trkpt><trkpt lat="30.851614" lon="34.76834106"><ele>497.1</ele><time>2013-11-21T11:25:29.0000000+00:00</time></trkpt><trkpt lat="30.85143662" lon="34.76819611"><ele>496.4</ele><time>2013-11-21T11:25:34.0000000+00:00</time></trkpt><trkpt lat="30.85119438" lon="34.76802063"><ele>497.1</ele><time>2013-11-21T11:25:39.0000000+00:00</time></trkpt><trkpt lat="30.85097122" lon="34.76780701"><ele>496.7</ele><time>2013-11-21T11:25:44.0000000+00:00</time></trkpt><trkpt lat="30.85074425" lon="34.76758957"><ele>496.5</ele><time>2013-11-21T11:25:49.0000000+00:00</time></trkpt><trkpt lat="30.85054016" lon="34.76734161"><ele>495.3</ele><time>2013-11-21T11:25:54.0000000+00:00</time></trkpt><trkpt lat="30.85037422" lon="34.7671051"><ele>494.0</ele><time>2013-11-21T11:25:59.0000000+00:00</time></trkpt><trkpt lat="30.85021782" lon="34.76686859"><ele>493.7</ele><time>2013-11-21T11:26:04.0000000+00:00</time></trkpt><trkpt lat="30.85011673" lon="34.7666626"><ele>495.1</ele><time>2013-11-21T11:26:09.0000000+00:00</time></trkpt><trkpt lat="30.84999275" lon="34.76643372"><ele>497.8</ele><time>2013-11-21T11:26:14.0000000+00:00</time></trkpt><trkpt lat="30.84990501" lon="34.76623535"><ele>499.1</ele><time>2013-11-21T11:26:19.0000000+00:00</time></trkpt><trkpt lat="30.84980583" lon="34.76602936"><ele>500.0</ele><time>2013-11-21T11:26:24.0000000+00:00</time></trkpt><trkpt lat="30.84972572" lon="34.76576614"><ele>500.7</ele><time>2013-11-21T11:26:29.0000000+00:00</time></trkpt><trkpt lat="30.84965324" lon="34.76555634"><ele>500.3</ele><time>2013-11-21T11:26:34.0000000+00:00</time></trkpt><trkpt lat="30.84954262" lon="34.76531982"><ele>501.8</ele><time>2013-11-21T11:26:39.0000000+00:00</time></trkpt><trkpt lat="30.84944916" lon="34.76509476"><ele>505.2</ele><time>2013-11-21T11:26:44.0000000+00:00</time></trkpt><trkpt lat="30.84933853" lon="34.76486588"><ele>507.7</ele><time>2013-11-21T11:26:49.0000000+00:00</time></trkpt><trkpt lat="30.84922028" lon="34.76460266"><ele>510.8</ele><time>2013-11-21T11:26:54.0000000+00:00</time></trkpt><trkpt lat="30.84911346" lon="34.76436234"><ele>510.9</ele><time>2013-11-21T11:26:59.0000000+00:00</time></trkpt><trkpt lat="30.84902382" lon="34.76409912"><ele>510.8</ele><time>2013-11-21T11:27:04.0000000+00:00</time></trkpt><trkpt lat="30.84893417" lon="34.7637825"><ele>513.0</ele><time>2013-11-21T11:27:09.0000000+00:00</time></trkpt><trkpt lat="30.84886742" lon="34.76351166"><ele>514.0</ele><time>2013-11-21T11:27:14.0000000+00:00</time></trkpt><trkpt lat="30.84878349" lon="34.76325989"><ele>514.4</ele><time>2013-11-21T11:27:19.0000000+00:00</time></trkpt><trkpt lat="30.84868622" lon="34.76299667"><ele>514.5</ele><time>2013-11-21T11:27:24.0000000+00:00</time></trkpt><trkpt lat="30.84861755" lon="34.76279068"><ele>515.0</ele><time>2013-11-21T11:27:29.0000000+00:00</time></trkpt><trkpt lat="30.84854317" lon="34.76258087"><ele>514.8</ele><time>2013-11-21T11:27:34.0000000+00:00</time></trkpt><trkpt lat="30.8484478" lon="34.76233292"><ele>512.6</ele><time>2013-11-21T11:27:39.0000000+00:00</time></trkpt><trkpt lat="30.84836578" lon="34.7620697"><ele>512.1</ele><time>2013-11-21T11:27:44.0000000+00:00</time></trkpt><trkpt lat="30.84833717" lon="34.76184082"><ele>512.4</ele><time>2013-11-21T11:27:49.0000000+00:00</time></trkpt><trkpt lat="30.84824562" lon="34.76158905"><ele>513.9</ele><time>2013-11-21T11:27:54.0000000+00:00</time></trkpt><trkpt lat="30.84816361" lon="34.76133347"><ele>514.6</ele><time>2013-11-21T11:27:59.0000000+00:00</time></trkpt><trkpt lat="30.8480835" lon="34.7611351"><ele>514.0</ele><time>2013-11-21T11:28:04.0000000+00:00</time></trkpt><trkpt lat="30.84804535" lon="34.76095581"><ele>514.4</ele><time>2013-11-21T11:28:09.0000000+00:00</time></trkpt><trkpt lat="30.84801674" lon="34.76079178"><ele>514.3</ele><time>2013-11-21T11:28:14.0000000+00:00</time></trkpt><trkpt lat="30.84797859" lon="34.76060867"><ele>512.9</ele><time>2013-11-21T11:28:19.0000000+00:00</time></trkpt><trkpt lat="30.84794617" lon="34.76040649"><ele>514.6</ele><time>2013-11-21T11:28:24.0000000+00:00</time></trkpt><trkpt lat="30.84794617" lon="34.76017761"><ele>516.1</ele><time>2013-11-21T11:28:29.0000000+00:00</time></trkpt><trkpt lat="30.84799767" lon="34.75990295"><ele>517.8</ele><time>2013-11-21T11:28:34.0000000+00:00</time></trkpt><trkpt lat="30.84804916" lon="34.759655"><ele>518.2</ele><time>2013-11-21T11:28:39.0000000+00:00</time></trkpt><trkpt lat="30.84808922" lon="34.75945664"><ele>518.8</ele><time>2013-11-21T11:28:44.0000000+00:00</time></trkpt><trkpt lat="30.84815598" lon="34.75930405"><ele>517.4</ele><time>2013-11-21T11:28:49.0000000+00:00</time></trkpt><trkpt lat="30.84822655" lon="34.75918198"><ele>516.0</ele><time>2013-11-21T11:28:54.0000000+00:00</time></trkpt><trkpt lat="30.84827232" lon="34.75908279"><ele>515.2</ele><time>2013-11-21T11:28:59.0000000+00:00</time></trkpt><trkpt lat="30.84835815" lon="34.75894547"><ele>515.1</ele><time>2013-11-21T11:29:04.0000000+00:00</time></trkpt><trkpt lat="30.84844589" lon="34.7587738"><ele>515.0</ele><time>2013-11-21T11:29:09.0000000+00:00</time></trkpt><trkpt lat="30.84856224" lon="34.75859833"><ele>516.4</ele><time>2013-11-21T11:29:14.0000000+00:00</time></trkpt><trkpt lat="30.84865189" lon="34.75836182"><ele>515.9</ele><time>2013-11-21T11:29:19.0000000+00:00</time></trkpt><trkpt lat="30.84871483" lon="34.75813294"><ele>515.9</ele><time>2013-11-21T11:29:24.0000000+00:00</time></trkpt><trkpt lat="30.84881401" lon="34.75787735"><ele>515.5</ele><time>2013-11-21T11:29:29.0000000+00:00</time></trkpt><trkpt lat="30.84888077" lon="34.75764465"><ele>516.3</ele><time>2013-11-21T11:29:34.0000000+00:00</time></trkpt><trkpt lat="30.84893227" lon="34.75741577"><ele>516.7</ele><time>2013-11-21T11:29:39.0000000+00:00</time></trkpt><trkpt lat="30.84899521" lon="34.757164"><ele>519.0</ele><time>2013-11-21T11:29:44.0000000+00:00</time></trkpt><trkpt lat="30.84904862" lon="34.75686646"><ele>518.7</ele><time>2013-11-21T11:29:49.0000000+00:00</time></trkpt><trkpt lat="30.84908104" lon="34.75652695"><ele>517.4</ele><time>2013-11-21T11:29:54.0000000+00:00</time></trkpt><trkpt lat="30.84911537" lon="34.75621033"><ele>518.5</ele><time>2013-11-21T11:29:59.0000000+00:00</time></trkpt><trkpt lat="30.84916306" lon="34.75590134"><ele>519.5</ele><time>2013-11-21T11:30:04.0000000+00:00</time></trkpt><trkpt lat="30.84919739" lon="34.75558472"><ele>520.2</ele><time>2013-11-21T11:30:09.0000000+00:00</time></trkpt><trkpt lat="30.84917831" lon="34.75529862"><ele>517.9</ele><time>2013-11-21T11:30:14.0000000+00:00</time></trkpt><trkpt lat="30.84916878" lon="34.75500488"><ele>516.4</ele><time>2013-11-21T11:30:19.0000000+00:00</time></trkpt><trkpt lat="30.84911156" lon="34.75466919"><ele>515.9</ele><time>2013-11-21T11:30:24.0000000+00:00</time></trkpt><trkpt lat="30.84900475" lon="34.75432587"><ele>512.9</ele><time>2013-11-21T11:30:29.0000000+00:00</time></trkpt><trkpt lat="30.84888649" lon="34.75400925"><ele>511.0</ele><time>2013-11-21T11:30:34.0000000+00:00</time></trkpt><trkpt lat="30.84874725" lon="34.75370407"><ele>508.5</ele><time>2013-11-21T11:30:39.0000000+00:00</time></trkpt><trkpt lat="30.84857369" lon="34.75343704"><ele>507.8</ele><time>2013-11-21T11:30:44.0000000+00:00</time></trkpt><trkpt lat="30.84844399" lon="34.75326538"><ele>507.7</ele><time>2013-11-21T11:30:49.0000000+00:00</time></trkpt><trkpt lat="30.84837914" lon="34.75315476"><ele>507.0</ele><time>2013-11-21T11:30:54.0000000+00:00</time></trkpt><trkpt lat="30.84829903" lon="34.75308991"><ele>507.4</ele><time>2013-11-21T11:30:59.0000000+00:00</time></trkpt><trkpt lat="30.84816361" lon="34.75297928"><ele>506.7</ele><time>2013-11-21T11:31:04.0000000+00:00</time></trkpt><trkpt lat="30.84802818" lon="34.75278091"><ele>507.4</ele><time>2013-11-21T11:31:09.0000000+00:00</time></trkpt><trkpt lat="30.84786606" lon="34.7525444"><ele>510.8</ele><time>2013-11-21T11:31:14.0000000+00:00</time></trkpt><trkpt lat="30.84772301" lon="34.75227356"><ele>512.9</ele><time>2013-11-21T11:31:19.0000000+00:00</time></trkpt><trkpt lat="30.84760094" lon="34.7520256"><ele>514.4</ele><time>2013-11-21T11:31:24.0000000+00:00</time></trkpt><trkpt lat="30.8474865" lon="34.75177002"><ele>515.8</ele><time>2013-11-21T11:31:29.0000000+00:00</time></trkpt><trkpt lat="30.84738922" lon="34.75150299"><ele>516.8</ele><time>2013-11-21T11:31:34.0000000+00:00</time></trkpt><trkpt lat="30.84733582" lon="34.75123215"><ele>515.6</ele><time>2013-11-21T11:31:39.0000000+00:00</time></trkpt><trkpt lat="30.84735107" lon="34.75090027"><ele>512.2</ele><time>2013-11-21T11:31:44.0000000+00:00</time></trkpt><trkpt lat="30.84736633" lon="34.75060272"><ele>511.3</ele><time>2013-11-21T11:31:49.0000000+00:00</time></trkpt><trkpt lat="30.84736061" lon="34.75029755"><ele>508.2</ele><time>2013-11-21T11:31:54.0000000+00:00</time></trkpt><trkpt lat="30.84733772" lon="34.74995041"><ele>506.0</ele><time>2013-11-21T11:31:59.0000000+00:00</time></trkpt><trkpt lat="30.84731674" lon="34.74958038"><ele>503.1</ele><time>2013-11-21T11:32:04.0000000+00:00</time></trkpt><trkpt lat="30.84728432" lon="34.74921799"><ele>501.7</ele><time>2013-11-21T11:32:09.0000000+00:00</time></trkpt><trkpt lat="30.84722328" lon="34.74884796"><ele>500.8</ele><time>2013-11-21T11:32:14.0000000+00:00</time></trkpt><trkpt lat="30.84712601" lon="34.74852753"><ele>498.8</ele><time>2013-11-21T11:32:19.0000000+00:00</time></trkpt><trkpt lat="30.84702873" lon="34.74818802"><ele>502.3</ele><time>2013-11-21T11:32:24.0000000+00:00</time></trkpt><trkpt lat="30.84690285" lon="34.74785614"><ele>502.4</ele><time>2013-11-21T11:32:29.0000000+00:00</time></trkpt><trkpt lat="30.84676361" lon="34.74751663"><ele>501.9</ele><time>2013-11-21T11:32:34.0000000+00:00</time></trkpt><trkpt lat="30.8466053" lon="34.74720001"><ele>502.3</ele><time>2013-11-21T11:32:39.0000000+00:00</time></trkpt><trkpt lat="30.84642983" lon="34.74689865"><ele>503.6</ele><time>2013-11-21T11:32:44.0000000+00:00</time></trkpt><trkpt lat="30.84625626" lon="34.74659729"><ele>502.8</ele><time>2013-11-21T11:32:49.0000000+00:00</time></trkpt><trkpt lat="30.84610748" lon="34.74631119"><ele>503.2</ele><time>2013-11-21T11:32:54.0000000+00:00</time></trkpt><trkpt lat="30.84596062" lon="34.74604034"><ele>502.8</ele><time>2013-11-21T11:32:59.0000000+00:00</time></trkpt><trkpt lat="30.84582138" lon="34.74579239"><ele>502.2</ele><time>2013-11-21T11:33:04.0000000+00:00</time></trkpt><trkpt lat="30.84568024" lon="34.74552155"><ele>501.2</ele><time>2013-11-21T11:33:09.0000000+00:00</time></trkpt><trkpt lat="30.84552956" lon="34.74524307"><ele>499.6</ele><time>2013-11-21T11:33:14.0000000+00:00</time></trkpt><trkpt lat="30.84535217" lon="34.74494934"><ele>499.0</ele><time>2013-11-21T11:33:19.0000000+00:00</time></trkpt><trkpt lat="30.8451519" lon="34.74466705"><ele>496.8</ele><time>2013-11-21T11:33:24.0000000+00:00</time></trkpt><trkpt lat="30.84488869" lon="34.74433899"><ele>496.9</ele><time>2013-11-21T11:33:29.0000000+00:00</time></trkpt><trkpt lat="30.8445816" lon="34.74402237"><ele>496.2</ele><time>2013-11-21T11:33:34.0000000+00:00</time></trkpt><trkpt lat="30.84421921" lon="34.74374771"><ele>495.1</ele><time>2013-11-21T11:33:39.0000000+00:00</time></trkpt><trkpt lat="30.84386826" lon="34.74352264"><ele>493.6</ele><time>2013-11-21T11:33:44.0000000+00:00</time></trkpt><trkpt lat="30.84357262" lon="34.74336243"><ele>492.2</ele><time>2013-11-21T11:33:49.0000000+00:00</time></trkpt><trkpt lat="30.84331703" lon="34.74324417"><ele>490.7</ele><time>2013-11-21T11:33:54.0000000+00:00</time></trkpt><trkpt lat="30.84311295" lon="34.74315262"><ele>490.1</ele><time>2013-11-21T11:33:59.0000000+00:00</time></trkpt><trkpt lat="30.84292221" lon="34.74308395"><ele>490.3</ele><time>2013-11-21T11:34:04.0000000+00:00</time></trkpt><trkpt lat="30.84274101" lon="34.74300003"><ele>491.7</ele><time>2013-11-21T11:34:09.0000000+00:00</time></trkpt><trkpt lat="30.84259224" lon="34.7429657"><ele>492.7</ele><time>2013-11-21T11:34:14.0000000+00:00</time></trkpt><trkpt lat="30.84242439" lon="34.74290085"><ele>494.0</ele><time>2013-11-21T11:34:19.0000000+00:00</time></trkpt><trkpt lat="30.84223366" lon="34.74281311"><ele>495.3</ele><time>2013-11-21T11:34:24.0000000+00:00</time></trkpt><trkpt lat="30.842062" lon="34.74273682"><ele>495.0</ele><time>2013-11-21T11:34:29.0000000+00:00</time></trkpt><trkpt lat="30.84185791" lon="34.74263382"><ele>494.6</ele><time>2013-11-21T11:34:34.0000000+00:00</time></trkpt><trkpt lat="30.84167099" lon="34.74255371"><ele>493.6</ele><time>2013-11-21T11:34:39.0000000+00:00</time></trkpt><trkpt lat="30.84148407" lon="34.74246597"><ele>495.0</ele><time>2013-11-21T11:34:44.0000000+00:00</time></trkpt><trkpt lat="30.84130669" lon="34.74238205"><ele>494.8</ele><time>2013-11-21T11:34:49.0000000+00:00</time></trkpt><trkpt lat="30.84110832" lon="34.74227905"><ele>493.3</ele><time>2013-11-21T11:34:54.0000000+00:00</time></trkpt><trkpt lat="30.84090424" lon="34.74218369"><ele>494.4</ele><time>2013-11-21T11:34:59.0000000+00:00</time></trkpt><trkpt lat="30.84071732" lon="34.74210739"><ele>495.4</ele><time>2013-11-21T11:35:04.0000000+00:00</time></trkpt><trkpt lat="30.84051514" lon="34.74201202"><ele>496.6</ele><time>2013-11-21T11:35:09.0000000+00:00</time></trkpt><trkpt lat="30.84038353" lon="34.74194336"><ele>498.0</ele><time>2013-11-21T11:35:14.0000000+00:00</time></trkpt><trkpt lat="30.84019089" lon="34.74186325"><ele>501.0</ele><time>2013-11-21T11:35:19.0000000+00:00</time></trkpt><trkpt lat="30.8400135" lon="34.74179077"><ele>501.0</ele><time>2013-11-21T11:35:24.0000000+00:00</time></trkpt><trkpt lat="30.83984184" lon="34.74171829"><ele>501.2</ele><time>2013-11-21T11:35:29.0000000+00:00</time></trkpt><trkpt lat="30.83963394" lon="34.74161911"><ele>501.2</ele><time>2013-11-21T11:35:34.0000000+00:00</time></trkpt><trkpt lat="30.83946419" lon="34.74153137"><ele>502.5</ele><time>2013-11-21T11:35:39.0000000+00:00</time></trkpt><trkpt lat="30.8392601" lon="34.74145508"><ele>503.6</ele><time>2013-11-21T11:35:44.0000000+00:00</time></trkpt><trkpt lat="30.83909988" lon="34.7413826"><ele>504.1</ele><time>2013-11-21T11:35:49.0000000+00:00</time></trkpt><trkpt lat="30.83893967" lon="34.74130631"><ele>504.5</ele><time>2013-11-21T11:35:54.0000000+00:00</time></trkpt><trkpt lat="30.8387413" lon="34.74123764"><ele>503.2</ele><time>2013-11-21T11:35:59.0000000+00:00</time></trkpt><trkpt lat="30.83854485" lon="34.74115372"><ele>504.8</ele><time>2013-11-21T11:36:04.0000000+00:00</time></trkpt><trkpt lat="30.83832741" lon="34.74105835"><ele>507.0</ele><time>2013-11-21T11:36:09.0000000+00:00</time></trkpt><trkpt lat="30.83810997" lon="34.74096298"><ele>508.1</ele><time>2013-11-21T11:36:14.0000000+00:00</time></trkpt><trkpt lat="30.83790588" lon="34.7408638"><ele>506.9</ele><time>2013-11-21T11:36:19.0000000+00:00</time></trkpt><trkpt lat="30.83770371" lon="34.74077225"><ele>507.2</ele><time>2013-11-21T11:36:24.0000000+00:00</time></trkpt><trkpt lat="30.83746719" lon="34.74066544"><ele>505.3</ele><time>2013-11-21T11:36:29.0000000+00:00</time></trkpt><trkpt lat="30.83723259" lon="34.740551"><ele>504.1</ele><time>2013-11-21T11:36:34.0000000+00:00</time></trkpt><trkpt lat="30.83706665" lon="34.74046707"><ele>507.3</ele><time>2013-11-21T11:36:39.0000000+00:00</time></trkpt><trkpt lat="30.83686256" lon="34.74039459"><ele>510.2</ele><time>2013-11-21T11:36:44.0000000+00:00</time></trkpt><trkpt lat="30.83665276" lon="34.74030304"><ele>510.6</ele><time>2013-11-21T11:36:49.0000000+00:00</time></trkpt><trkpt lat="30.83642769" lon="34.74019241"><ele>509.1</ele><time>2013-11-21T11:36:54.0000000+00:00</time></trkpt><trkpt lat="30.83621407" lon="34.7400856"><ele>507.2</ele><time>2013-11-21T11:36:59.0000000+00:00</time></trkpt><trkpt lat="30.83598709" lon="34.73998261"><ele>506.6</ele><time>2013-11-21T11:37:04.0000000+00:00</time></trkpt><trkpt lat="30.83578301" lon="34.73987961"><ele>507.7</ele><time>2013-11-21T11:37:09.0000000+00:00</time></trkpt><trkpt lat="30.83556747" lon="34.73977661"><ele>506.7</ele><time>2013-11-21T11:37:14.0000000+00:00</time></trkpt><trkpt lat="30.83536339" lon="34.73968124"><ele>508.2</ele><time>2013-11-21T11:37:19.0000000+00:00</time></trkpt><trkpt lat="30.83518982" lon="34.73960495"><ele>506.8</ele><time>2013-11-21T11:37:24.0000000+00:00</time></trkpt><trkpt lat="30.83498383" lon="34.73950577"><ele>508.3</ele><time>2013-11-21T11:37:29.0000000+00:00</time></trkpt><trkpt lat="30.83480644" lon="34.73942184"><ele>508.4</ele><time>2013-11-21T11:37:34.0000000+00:00</time></trkpt><trkpt lat="30.83465576" lon="34.73934937"><ele>508.0</ele><time>2013-11-21T11:37:39.0000000+00:00</time></trkpt><trkpt lat="30.8345623" lon="34.73932266"><ele>507.9</ele><time>2013-11-21T11:37:44.0000000+00:00</time></trkpt><trkpt lat="30.83449745" lon="34.73928452"><ele>506.8</ele><time>2013-11-21T11:37:49.0000000+00:00</time></trkpt><trkpt lat="30.83439064" lon="34.73923111"><ele>507.9</ele><time>2013-11-21T11:37:54.0000000+00:00</time></trkpt><trkpt lat="30.83426476" lon="34.73919678"><ele>507.4</ele><time>2013-11-21T11:37:59.0000000+00:00</time></trkpt><trkpt lat="30.83413506" lon="34.73914719"><ele>508.8</ele><time>2013-11-21T11:38:04.0000000+00:00</time></trkpt><trkpt lat="30.83400726" lon="34.73910141"><ele>510.0</ele><time>2013-11-21T11:38:09.0000000+00:00</time></trkpt><trkpt lat="30.83392716" lon="34.73906326"><ele>511.0</ele><time>2013-11-21T11:38:14.0000000+00:00</time></trkpt><trkpt lat="30.8338089" lon="34.73904038"><ele>511.2</ele><time>2013-11-21T11:38:19.0000000+00:00</time></trkpt><trkpt lat="30.83364487" lon="34.73899841"><ele>512.6</ele><time>2013-11-21T11:38:24.0000000+00:00</time></trkpt><trkpt lat="30.83348846" lon="34.73895645"><ele>513.9</ele><time>2013-11-21T11:38:29.0000000+00:00</time></trkpt><trkpt lat="30.83331871" lon="34.73892593"><ele>516.3</ele><time>2013-11-21T11:38:34.0000000+00:00</time></trkpt><trkpt lat="30.83316994" lon="34.73890686"><ele>516.2</ele><time>2013-11-21T11:38:39.0000000+00:00</time></trkpt><trkpt lat="30.83307266" lon="34.73889923"><ele>516.6</ele><time>2013-11-21T11:38:44.0000000+00:00</time></trkpt><trkpt lat="30.83302116" lon="34.73890305"><ele>517.5</ele><time>2013-11-21T11:38:49.0000000+00:00</time></trkpt><trkpt lat="30.83288384" lon="34.73891449"><ele>518.1</ele><time>2013-11-21T11:38:54.0000000+00:00</time></trkpt><trkpt lat="30.83272171" lon="34.73892212"><ele>519.3</ele><time>2013-11-21T11:38:59.0000000+00:00</time></trkpt><trkpt lat="30.83259392" lon="34.73893738"><ele>520.1</ele><time>2013-11-21T11:39:04.0000000+00:00</time></trkpt><trkpt lat="30.83246231" lon="34.73897171"><ele>519.2</ele><time>2013-11-21T11:39:09.0000000+00:00</time></trkpt><trkpt lat="30.83235931" lon="34.73898697"><ele>518.1</ele><time>2013-11-21T11:39:14.0000000+00:00</time></trkpt><trkpt lat="30.83224106" lon="34.73903275"><ele>517.0</ele><time>2013-11-21T11:39:19.0000000+00:00</time></trkpt><trkpt lat="30.83214188" lon="34.73907471"><ele>517.9</ele><time>2013-11-21T11:39:24.0000000+00:00</time></trkpt><trkpt lat="30.83203888" lon="34.73910904"><ele>516.5</ele><time>2013-11-21T11:39:29.0000000+00:00</time></trkpt><trkpt lat="30.83192825" lon="34.7391777"><ele>517.1</ele><time>2013-11-21T11:39:34.0000000+00:00</time></trkpt><trkpt lat="30.83179665" lon="34.73924255"><ele>519.1</ele><time>2013-11-21T11:39:39.0000000+00:00</time></trkpt><trkpt lat="30.83168793" lon="34.73929977"><ele>519.1</ele><time>2013-11-21T11:39:44.0000000+00:00</time></trkpt><trkpt lat="30.83160019" lon="34.73937225"><ele>519.3</ele><time>2013-11-21T11:39:49.0000000+00:00</time></trkpt><trkpt lat="30.83149719" lon="34.73945618"><ele>522.0</ele><time>2013-11-21T11:39:54.0000000+00:00</time></trkpt><trkpt lat="30.8313961" lon="34.73953629"><ele>521.9</ele><time>2013-11-21T11:39:59.0000000+00:00</time></trkpt><trkpt lat="30.83134651" lon="34.73957062"><ele>520.9</ele><time>2013-11-21T11:40:04.0000000+00:00</time></trkpt><trkpt lat="30.8312645" lon="34.73962021"><ele>519.4</ele><time>2013-11-21T11:40:09.0000000+00:00</time></trkpt><trkpt lat="30.83117104" lon="34.73970795"><ele>519.3</ele><time>2013-11-21T11:40:14.0000000+00:00</time></trkpt><trkpt lat="30.83109665" lon="34.73976517"><ele>519.1</ele><time>2013-11-21T11:40:19.0000000+00:00</time></trkpt><trkpt lat="30.83100891" lon="34.73983765"><ele>519.1</ele><time>2013-11-21T11:40:24.0000000+00:00</time></trkpt><trkpt lat="30.83089638" lon="34.73992157"><ele>521.4</ele><time>2013-11-21T11:40:29.0000000+00:00</time></trkpt><trkpt lat="30.83081818" lon="34.73998642"><ele>522.6</ele><time>2013-11-21T11:40:34.0000000+00:00</time></trkpt><trkpt lat="30.83078384" lon="34.74004364"><ele>521.4</ele><time>2013-11-21T11:40:39.0000000+00:00</time></trkpt><trkpt lat="30.83069801" lon="34.74013519"><ele>520.3</ele><time>2013-11-21T11:40:44.0000000+00:00</time></trkpt><trkpt lat="30.830616" lon="34.74021912"><ele>518.9</ele><time>2013-11-21T11:40:49.0000000+00:00</time></trkpt><trkpt lat="30.83054924" lon="34.74029541"><ele>517.9</ele><time>2013-11-21T11:40:54.0000000+00:00</time></trkpt><trkpt lat="30.83045769" lon="34.74038315"><ele>514.9</ele><time>2013-11-21T11:40:59.0000000+00:00</time></trkpt><trkpt lat="30.83036804" lon="34.74046707"><ele>514.0</ele><time>2013-11-21T11:41:04.0000000+00:00</time></trkpt><trkpt lat="30.83034325" lon="34.74050903"><ele>516.1</ele><time>2013-11-21T11:41:09.0000000+00:00</time></trkpt><trkpt lat="30.83029747" lon="34.74057007"><ele>516.0</ele><time>2013-11-21T11:41:14.0000000+00:00</time></trkpt><trkpt lat="30.83024406" lon="34.74068451"><ele>516.4</ele><time>2013-11-21T11:41:19.0000000+00:00</time></trkpt><trkpt lat="30.83017159" lon="34.7407608"><ele>515.9</ele><time>2013-11-21T11:41:24.0000000+00:00</time></trkpt><trkpt lat="30.83010674" lon="34.74082947"><ele>515.1</ele><time>2013-11-21T11:41:29.0000000+00:00</time></trkpt><trkpt lat="30.83006096" lon="34.74091339"><ele>513.9</ele><time>2013-11-21T11:41:34.0000000+00:00</time></trkpt><trkpt lat="30.83001137" lon="34.74100876"><ele>513.7</ele><time>2013-11-21T11:41:39.0000000+00:00</time></trkpt><trkpt lat="30.82996941" lon="34.7410965"><ele>512.8</ele><time>2013-11-21T11:41:44.0000000+00:00</time></trkpt><trkpt lat="30.82992172" lon="34.74118805"><ele>512.7</ele><time>2013-11-21T11:41:49.0000000+00:00</time></trkpt><trkpt lat="30.82988548" lon="34.74127579"><ele>512.3</ele><time>2013-11-21T11:41:54.0000000+00:00</time></trkpt><trkpt lat="30.82984543" lon="34.7413559"><ele>513.3</ele><time>2013-11-21T11:41:59.0000000+00:00</time></trkpt><trkpt lat="30.82980537" lon="34.74146652"><ele>515.0</ele><time>2013-11-21T11:42:04.0000000+00:00</time></trkpt><trkpt lat="30.82975388" lon="34.7415657"><ele>516.3</ele><time>2013-11-21T11:42:09.0000000+00:00</time></trkpt><trkpt lat="30.82971954" lon="34.74172592"><ele>518.8</ele><time>2013-11-21T11:42:14.0000000+00:00</time></trkpt><trkpt lat="30.82969284" lon="34.74180222"><ele>522.2</ele><time>2013-11-21T11:42:19.0000000+00:00</time></trkpt><trkpt lat="30.82962418" lon="34.74194717"><ele>524.7</ele><time>2013-11-21T11:42:24.0000000+00:00</time></trkpt><trkpt lat="30.82957649" lon="34.7420845"><ele>526.5</ele><time>2013-11-21T11:42:29.0000000+00:00</time></trkpt><trkpt lat="30.82951737" lon="34.74221802"><ele>529.0</ele><time>2013-11-21T11:42:34.0000000+00:00</time></trkpt><trkpt lat="30.8294735" lon="34.74232483"><ele>530.8</ele><time>2013-11-21T11:42:39.0000000+00:00</time></trkpt><trkpt lat="30.82941246" lon="34.74245071"><ele>531.3</ele><time>2013-11-21T11:42:44.0000000+00:00</time></trkpt><trkpt lat="30.8293705" lon="34.74255753"><ele>529.6</ele><time>2013-11-21T11:42:49.0000000+00:00</time></trkpt><trkpt lat="30.82932663" lon="34.7426796"><ele>527.8</ele><time>2013-11-21T11:42:54.0000000+00:00</time></trkpt><trkpt lat="30.82929039" lon="34.74278259"><ele>527.9</ele><time>2013-11-21T11:42:59.0000000+00:00</time></trkpt><trkpt lat="30.82922554" lon="34.74294281"><ele>529.1</ele><time>2013-11-21T11:43:04.0000000+00:00</time></trkpt><trkpt lat="30.82916451" lon="34.74308395"><ele>530.2</ele><time>2013-11-21T11:43:09.0000000+00:00</time></trkpt><trkpt lat="30.82911682" lon="34.74324417"><ele>530.9</ele><time>2013-11-21T11:43:14.0000000+00:00</time></trkpt><trkpt lat="30.82904244" lon="34.74345017"><ele>532.8</ele><time>2013-11-21T11:43:19.0000000+00:00</time></trkpt><trkpt lat="30.82896996" lon="34.74361801"><ele>535.8</ele><time>2013-11-21T11:43:24.0000000+00:00</time></trkpt><trkpt lat="30.82891083" lon="34.74372864"><ele>538.4</ele><time>2013-11-21T11:43:29.0000000+00:00</time></trkpt><trkpt lat="30.82888413" lon="34.74378586"><ele>539.5</ele><time>2013-11-21T11:43:34.0000000+00:00</time></trkpt><trkpt lat="30.82888985" lon="34.74385452"><ele>539.2</ele><time>2013-11-21T11:43:39.0000000+00:00</time></trkpt><trkpt lat="30.82884598" lon="34.74394989"><ele>539.8</ele><time>2013-11-21T11:43:44.0000000+00:00</time></trkpt><trkpt lat="30.82879829" lon="34.74402237"><ele>540.5</ele><time>2013-11-21T11:43:49.0000000+00:00</time></trkpt><trkpt lat="30.82880974" lon="34.74408341"><ele>541.7</ele><time>2013-11-21T11:43:54.0000000+00:00</time></trkpt><trkpt lat="30.82876396" lon="34.7441597"><ele>541.7</ele><time>2013-11-21T11:43:59.0000000+00:00</time></trkpt><trkpt lat="30.82870674" lon="34.7442627"><ele>541.4</ele><time>2013-11-21T11:44:04.0000000+00:00</time></trkpt><trkpt lat="30.8286438" lon="34.74443054"><ele>541.5</ele><time>2013-11-21T11:44:09.0000000+00:00</time></trkpt><trkpt lat="30.82859039" lon="34.74459457"><ele>541.3</ele><time>2013-11-21T11:44:14.0000000+00:00</time></trkpt><trkpt lat="30.82857132" lon="34.7446785"><ele>542.8</ele><time>2013-11-21T11:44:19.0000000+00:00</time></trkpt><trkpt lat="30.82857513" lon="34.74467087"><ele>542.8</ele><time>2013-11-21T11:44:24.0000000+00:00</time></trkpt><trkpt lat="30.82857895" lon="34.74467468"><ele>543.1</ele><time>2013-11-21T11:44:29.0000000+00:00</time></trkpt><trkpt lat="30.82854843" lon="34.74478531"><ele>542.5</ele><time>2013-11-21T11:44:34.0000000+00:00</time></trkpt><trkpt lat="30.82850075" lon="34.74494171"><ele>541.3</ele><time>2013-11-21T11:44:39.0000000+00:00</time></trkpt><trkpt lat="30.82844162" lon="34.74508286"><ele>540.3</ele><time>2013-11-21T11:44:44.0000000+00:00</time></trkpt><trkpt lat="30.82839012" lon="34.74520874"><ele>540.4</ele><time>2013-11-21T11:44:49.0000000+00:00</time></trkpt><trkpt lat="30.82832527" lon="34.74534226"><ele>540.8</ele><time>2013-11-21T11:44:54.0000000+00:00</time></trkpt><trkpt lat="30.82825851" lon="34.74550629"><ele>541.9</ele><time>2013-11-21T11:44:59.0000000+00:00</time></trkpt><trkpt lat="30.8281765" lon="34.74567795"><ele>543.2</ele><time>2013-11-21T11:45:04.0000000+00:00</time></trkpt><trkpt lat="30.8281002" lon="34.74585342"><ele>544.6</ele><time>2013-11-21T11:45:09.0000000+00:00</time></trkpt><trkpt lat="30.82801437" lon="34.74599838"><ele>542.8</ele><time>2013-11-21T11:45:14.0000000+00:00</time></trkpt><trkpt lat="30.82792091" lon="34.74618149"><ele>542.8</ele><time>2013-11-21T11:45:19.0000000+00:00</time></trkpt><trkpt lat="30.82782364" lon="34.74637604"><ele>543.2</ele><time>2013-11-21T11:45:24.0000000+00:00</time></trkpt><trkpt lat="30.82771874" lon="34.74658203"><ele>541.6</ele><time>2013-11-21T11:45:29.0000000+00:00</time></trkpt><trkpt lat="30.82759476" lon="34.74678421"><ele>538.6</ele><time>2013-11-21T11:45:34.0000000+00:00</time></trkpt><trkpt lat="30.82745743" lon="34.74701691"><ele>538.6</ele><time>2013-11-21T11:45:39.0000000+00:00</time></trkpt><trkpt lat="30.82730293" lon="34.74724579"><ele>538.8</ele><time>2013-11-21T11:45:44.0000000+00:00</time></trkpt><trkpt lat="30.82718277" lon="34.74741364"><ele>537.9</ele><time>2013-11-21T11:45:49.0000000+00:00</time></trkpt><trkpt lat="30.82708168" lon="34.74756241"><ele>539.2</ele><time>2013-11-21T11:45:54.0000000+00:00</time></trkpt><trkpt lat="30.82702255" lon="34.74766541"><ele>538.2</ele><time>2013-11-21T11:45:59.0000000+00:00</time></trkpt><trkpt lat="30.82696915" lon="34.74766922"><ele>538.6</ele><time>2013-11-21T11:46:04.0000000+00:00</time></trkpt><trkpt lat="30.82696533" lon="34.74766541"><ele>539.9</ele><time>2013-11-21T11:46:09.0000000+00:00</time></trkpt><trkpt lat="30.82696343" lon="34.74766159"><ele>539.9</ele><time>2013-11-21T11:46:14.0000000+00:00</time></trkpt><trkpt lat="30.82696343" lon="34.74766159"><ele>540.0</ele><time>2013-11-21T11:46:19.0000000+00:00</time></trkpt><trkpt lat="30.82696343" lon="34.74766541"><ele>540.0</ele><time>2013-11-21T11:46:24.0000000+00:00</time></trkpt><trkpt lat="30.82696152" lon="34.74766541"><ele>539.9</ele><time>2013-11-21T11:46:29.0000000+00:00</time></trkpt><trkpt lat="30.82695961" lon="34.74765778"><ele>540.0</ele><time>2013-11-21T11:46:34.0000000+00:00</time></trkpt><trkpt lat="30.82691002" lon="34.74762726"><ele>539.9</ele><time>2013-11-21T11:46:39.0000000+00:00</time></trkpt><trkpt lat="30.82684708" lon="34.74757767"><ele>540.1</ele><time>2013-11-21T11:46:44.0000000+00:00</time></trkpt><trkpt lat="30.82681274" lon="34.74755478"><ele>540.7</ele><time>2013-11-21T11:46:49.0000000+00:00</time></trkpt><trkpt lat="30.82677269" lon="34.74750519"><ele>541.2</ele><time>2013-11-21T11:46:54.0000000+00:00</time></trkpt><trkpt lat="30.82672882" lon="34.74747467"><ele>542.0</ele><time>2013-11-21T11:46:59.0000000+00:00</time></trkpt><trkpt lat="30.82668114" lon="34.74744797"><ele>542.4</ele><time>2013-11-21T11:47:04.0000000+00:00</time></trkpt><trkpt lat="30.82664299" lon="34.74739838"><ele>543.3</ele><time>2013-11-21T11:47:09.0000000+00:00</time></trkpt><trkpt lat="30.8266182" lon="34.74737167"><ele>544.3</ele><time>2013-11-21T11:47:14.0000000+00:00</time></trkpt><trkpt lat="30.82659912" lon="34.74734116"><ele>545.2</ele><time>2013-11-21T11:47:19.0000000+00:00</time></trkpt><trkpt lat="30.82657433" lon="34.74730301"><ele>546.8</ele><time>2013-11-21T11:47:24.0000000+00:00</time></trkpt><trkpt lat="30.82654762" lon="34.7472496"><ele>548.0</ele><time>2013-11-21T11:47:29.0000000+00:00</time></trkpt><trkpt lat="30.8265152" lon="34.74718857"><ele>549.0</ele><time>2013-11-21T11:47:34.0000000+00:00</time></trkpt><trkpt lat="30.82647514" lon="34.74713135"><ele>550.5</ele><time>2013-11-21T11:47:39.0000000+00:00</time></trkpt><trkpt lat="30.82645416" lon="34.74707413"><ele>551.5</ele><time>2013-11-21T11:47:44.0000000+00:00</time></trkpt><trkpt lat="30.82642937" lon="34.74700165"><ele>552.3</ele><time>2013-11-21T11:47:49.0000000+00:00</time></trkpt><trkpt lat="30.82638168" lon="34.74694824"><ele>552.9</ele><time>2013-11-21T11:47:54.0000000+00:00</time></trkpt><trkpt lat="30.82635117" lon="34.74687958"><ele>553.3</ele><time>2013-11-21T11:47:59.0000000+00:00</time></trkpt><trkpt lat="30.82631111" lon="34.74679565"><ele>554.8</ele><time>2013-11-21T11:48:04.0000000+00:00</time></trkpt><trkpt lat="30.82627869" lon="34.74672699"><ele>555.9</ele><time>2013-11-21T11:48:09.0000000+00:00</time></trkpt><trkpt lat="30.82623482" lon="34.74664307"><ele>557.0</ele><time>2013-11-21T11:48:14.0000000+00:00</time></trkpt><trkpt lat="30.82624054" lon="34.74656296"><ele>557.6</ele><time>2013-11-21T11:48:19.0000000+00:00</time></trkpt><trkpt lat="30.82622528" lon="34.74650574"><ele>557.7</ele><time>2013-11-21T11:48:24.0000000+00:00</time></trkpt><trkpt lat="30.8262043" lon="34.74639893"><ele>558.3</ele><time>2013-11-21T11:48:29.0000000+00:00</time></trkpt><trkpt lat="30.82620239" lon="34.74629211"><ele>557.3</ele><time>2013-11-21T11:48:34.0000000+00:00</time></trkpt><trkpt lat="30.8262043" lon="34.74615479"><ele>558.4</ele><time>2013-11-21T11:48:39.0000000+00:00</time></trkpt><trkpt lat="30.8262043" lon="34.74607468"><ele>559.8</ele><time>2013-11-21T11:48:44.0000000+00:00</time></trkpt><trkpt lat="30.8261795" lon="34.74600983"><ele>561.7</ele><time>2013-11-21T11:48:49.0000000+00:00</time></trkpt><trkpt lat="30.82619667" lon="34.74588394"><ele>562.8</ele><time>2013-11-21T11:48:54.0000000+00:00</time></trkpt><trkpt lat="30.82620239" lon="34.74577713"><ele>564.6</ele><time>2013-11-21T11:48:59.0000000+00:00</time></trkpt><trkpt lat="30.82622528" lon="34.74569321"><ele>565.3</ele><time>2013-11-21T11:49:04.0000000+00:00</time></trkpt><trkpt lat="30.82624626" lon="34.74557114"><ele>567.1</ele><time>2013-11-21T11:49:09.0000000+00:00</time></trkpt><trkpt lat="30.82625961" lon="34.74546814"><ele>567.7</ele><time>2013-11-21T11:49:14.0000000+00:00</time></trkpt><trkpt lat="30.82626724" lon="34.7453537"><ele>570.3</ele><time>2013-11-21T11:49:19.0000000+00:00</time></trkpt><trkpt lat="30.82625961" lon="34.74527741"><ele>570.8</ele><time>2013-11-21T11:49:24.0000000+00:00</time></trkpt><trkpt lat="30.82626343" lon="34.74515915"><ele>571.6</ele><time>2013-11-21T11:49:29.0000000+00:00</time></trkpt><trkpt lat="30.82625771" lon="34.74503326"><ele>571.6</ele><time>2013-11-21T11:49:34.0000000+00:00</time></trkpt><trkpt lat="30.82624817" lon="34.74488449"><ele>571.6</ele><time>2013-11-21T11:49:39.0000000+00:00</time></trkpt><trkpt lat="30.82625198" lon="34.74475479"><ele>572.7</ele><time>2013-11-21T11:49:44.0000000+00:00</time></trkpt><trkpt lat="30.82624054" lon="34.74463272"><ele>571.6</ele><time>2013-11-21T11:49:49.0000000+00:00</time></trkpt><trkpt lat="30.82621384" lon="34.74449539"><ele>571.8</ele><time>2013-11-21T11:49:54.0000000+00:00</time></trkpt><trkpt lat="30.82617188" lon="34.74431992"><ele>571.1</ele><time>2013-11-21T11:49:59.0000000+00:00</time></trkpt><trkpt lat="30.82611656" lon="34.74414063"><ele>570.0</ele><time>2013-11-21T11:50:04.0000000+00:00</time></trkpt><trkpt lat="30.8260746" lon="34.74399948"><ele>569.5</ele><time>2013-11-21T11:50:09.0000000+00:00</time></trkpt><trkpt lat="30.82603836" lon="34.74388504"><ele>568.9</ele><time>2013-11-21T11:50:14.0000000+00:00</time></trkpt><trkpt lat="30.82599831" lon="34.74376679"><ele>566.8</ele><time>2013-11-21T11:50:19.0000000+00:00</time></trkpt><trkpt lat="30.82594681" lon="34.74362183"><ele>563.9</ele><time>2013-11-21T11:50:24.0000000+00:00</time></trkpt><trkpt lat="30.82589912" lon="34.74349594"><ele>563.3</ele><time>2013-11-21T11:50:29.0000000+00:00</time></trkpt><trkpt lat="30.82586861" lon="34.7434082"><ele>563.5</ele><time>2013-11-21T11:50:34.0000000+00:00</time></trkpt><trkpt lat="30.82584381" lon="34.74337006"><ele>564.1</ele><time>2013-11-21T11:50:39.0000000+00:00</time></trkpt><trkpt lat="30.82575798" lon="34.74328613"><ele>565.6</ele><time>2013-11-21T11:50:44.0000000+00:00</time></trkpt><trkpt lat="30.82567406" lon="34.74321365"><ele>567.3</ele><time>2013-11-21T11:50:49.0000000+00:00</time></trkpt><trkpt lat="30.82561874" lon="34.74316406"><ele>567.9</ele><time>2013-11-21T11:50:54.0000000+00:00</time></trkpt><trkpt lat="30.82550621" lon="34.7431221"><ele>569.4</ele><time>2013-11-21T11:50:59.0000000+00:00</time></trkpt><trkpt lat="30.82538796" lon="34.74310303"><ele>570.5</ele><time>2013-11-21T11:51:04.0000000+00:00</time></trkpt><trkpt lat="30.82534027" lon="34.74309158"><ele>571.8</ele><time>2013-11-21T11:51:09.0000000+00:00</time></trkpt><trkpt lat="30.82528877" lon="34.74306107"><ele>573.6</ele><time>2013-11-21T11:51:14.0000000+00:00</time></trkpt><trkpt lat="30.82523346" lon="34.74303818"><ele>575.1</ele><time>2013-11-21T11:51:19.0000000+00:00</time></trkpt><trkpt lat="30.82518959" lon="34.74301529"><ele>576.1</ele><time>2013-11-21T11:51:24.0000000+00:00</time></trkpt><trkpt lat="30.82514572" lon="34.7430191"><ele>577.3</ele><time>2013-11-21T11:51:29.0000000+00:00</time></trkpt><trkpt lat="30.82508278" lon="34.74303055"><ele>578.6</ele><time>2013-11-21T11:51:34.0000000+00:00</time></trkpt><trkpt lat="30.82502174" lon="34.74300766"><ele>578.7</ele><time>2013-11-21T11:51:39.0000000+00:00</time></trkpt><trkpt lat="30.82495689" lon="34.74298859"><ele>579.1</ele><time>2013-11-21T11:51:44.0000000+00:00</time></trkpt><trkpt lat="30.82491303" lon="34.74296951"><ele>579.5</ele><time>2013-11-21T11:51:49.0000000+00:00</time></trkpt><trkpt lat="30.82486153" lon="34.74292755"><ele>580.1</ele><time>2013-11-21T11:51:54.0000000+00:00</time></trkpt><trkpt lat="30.82481384" lon="34.74287415"><ele>580.8</ele><time>2013-11-21T11:51:59.0000000+00:00</time></trkpt><trkpt lat="30.82474327" lon="34.74282837"><ele>581.1</ele><time>2013-11-21T11:52:04.0000000+00:00</time></trkpt><trkpt lat="30.82466507" lon="34.74278641"><ele>582.2</ele><time>2013-11-21T11:52:09.0000000+00:00</time></trkpt><trkpt lat="30.82460594" lon="34.74271774"><ele>582.8</ele><time>2013-11-21T11:52:14.0000000+00:00</time></trkpt><trkpt lat="30.82456017" lon="34.74266052"><ele>583.4</ele><time>2013-11-21T11:52:19.0000000+00:00</time></trkpt><trkpt lat="30.82452011" lon="34.7426033"><ele>584.5</ele><time>2013-11-21T11:52:24.0000000+00:00</time></trkpt><trkpt lat="30.82448006" lon="34.74254227"><ele>585.2</ele><time>2013-11-21T11:52:29.0000000+00:00</time></trkpt><trkpt lat="30.82444954" lon="34.74250031"><ele>585.3</ele><time>2013-11-21T11:52:34.0000000+00:00</time></trkpt><trkpt lat="30.82440949" lon="34.74245834"><ele>585.2</ele><time>2013-11-21T11:52:39.0000000+00:00</time></trkpt><trkpt lat="30.82435989" lon="34.74240112"><ele>586.5</ele><time>2013-11-21T11:52:44.0000000+00:00</time></trkpt><trkpt lat="30.82431221" lon="34.74232101"><ele>587.9</ele><time>2013-11-21T11:52:49.0000000+00:00</time></trkpt><trkpt lat="30.82427406" lon="34.74225998"><ele>588.8</ele><time>2013-11-21T11:52:54.0000000+00:00</time></trkpt><trkpt lat="30.82422447" lon="34.74221039"><ele>589.3</ele><time>2013-11-21T11:52:59.0000000+00:00</time></trkpt><trkpt lat="30.82417488" lon="34.74214554"><ele>589.7</ele><time>2013-11-21T11:53:04.0000000+00:00</time></trkpt><trkpt lat="30.82414436" lon="34.7420578"><ele>590.5</ele><time>2013-11-21T11:53:09.0000000+00:00</time></trkpt><trkpt lat="30.82410812" lon="34.74197769"><ele>591.7</ele><time>2013-11-21T11:53:14.0000000+00:00</time></trkpt><trkpt lat="30.82405853" lon="34.74188995"><ele>593.6</ele><time>2013-11-21T11:53:19.0000000+00:00</time></trkpt><trkpt lat="30.82404137" lon="34.74184418"><ele>594.5</ele><time>2013-11-21T11:53:24.0000000+00:00</time></trkpt><trkpt lat="30.82400703" lon="34.74176788"><ele>594.2</ele><time>2013-11-21T11:53:29.0000000+00:00</time></trkpt><trkpt lat="30.82396889" lon="34.74170685"><ele>594.8</ele><time>2013-11-21T11:53:34.0000000+00:00</time></trkpt><trkpt lat="30.82395744" lon="34.74165344"><ele>595.8</ele><time>2013-11-21T11:53:39.0000000+00:00</time></trkpt><trkpt lat="30.82393837" lon="34.74159622"><ele>596.2</ele><time>2013-11-21T11:53:44.0000000+00:00</time></trkpt><trkpt lat="30.82391167" lon="34.74153519"><ele>597.1</ele><time>2013-11-21T11:53:49.0000000+00:00</time></trkpt><trkpt lat="30.82388115" lon="34.74145126"><ele>597.7</ele><time>2013-11-21T11:53:54.0000000+00:00</time></trkpt><trkpt lat="30.82383347" lon="34.74135971"><ele>599.5</ele><time>2013-11-21T11:53:59.0000000+00:00</time></trkpt><trkpt lat="30.82379723" lon="34.74129105"><ele>601.5</ele><time>2013-11-21T11:54:04.0000000+00:00</time></trkpt><trkpt lat="30.82375908" lon="34.74121094"><ele>602.7</ele><time>2013-11-21T11:54:09.0000000+00:00</time></trkpt><trkpt lat="30.82371712" lon="34.74112701"><ele>604.3</ele><time>2013-11-21T11:54:14.0000000+00:00</time></trkpt><trkpt lat="30.82367516" lon="34.74106598"><ele>606.8</ele><time>2013-11-21T11:54:19.0000000+00:00</time></trkpt><trkpt lat="30.82363129" lon="34.74102402"><ele>608.5</ele><time>2013-11-21T11:54:24.0000000+00:00</time></trkpt><trkpt lat="30.82354736" lon="34.7409935"><ele>609.0</ele><time>2013-11-21T11:54:29.0000000+00:00</time></trkpt><trkpt lat="30.82344246" lon="34.74096298"><ele>609.6</ele><time>2013-11-21T11:54:34.0000000+00:00</time></trkpt><trkpt lat="30.82332802" lon="34.74094391"><ele>610.6</ele><time>2013-11-21T11:54:39.0000000+00:00</time></trkpt><trkpt lat="30.82320595" lon="34.74093247"><ele>612.6</ele><time>2013-11-21T11:54:44.0000000+00:00</time></trkpt><trkpt lat="30.82309723" lon="34.74090195"><ele>613.0</ele><time>2013-11-21T11:54:49.0000000+00:00</time></trkpt><trkpt lat="30.82297707" lon="34.74085236"><ele>612.4</ele><time>2013-11-21T11:54:54.0000000+00:00</time></trkpt><trkpt lat="30.82287026" lon="34.74085999"><ele>612.7</ele><time>2013-11-21T11:54:59.0000000+00:00</time></trkpt><trkpt lat="30.82279396" lon="34.74090958"><ele>610.5</ele><time>2013-11-21T11:55:04.0000000+00:00</time></trkpt><trkpt lat="30.82277107" lon="34.74092102"><ele>608.6</ele><time>2013-11-21T11:55:09.0000000+00:00</time></trkpt><trkpt lat="30.82276726" lon="34.74092102"><ele>608.0</ele><time>2013-11-21T11:55:14.0000000+00:00</time></trkpt><trkpt lat="30.82276154" lon="34.74092484"><ele>608.0</ele><time>2013-11-21T11:55:19.0000000+00:00</time></trkpt><trkpt lat="30.82275772" lon="34.74092865"><ele>608.0</ele><time>2013-11-21T11:55:24.0000000+00:00</time></trkpt><trkpt lat="30.82270622" lon="34.74097824"><ele>607.8</ele><time>2013-11-21T11:55:29.0000000+00:00</time></trkpt><trkpt lat="30.8225975" lon="34.74109268"><ele>608.4</ele><time>2013-11-21T11:55:34.0000000+00:00</time></trkpt><trkpt lat="30.8224926" lon="34.74121857"><ele>608.7</ele><time>2013-11-21T11:55:39.0000000+00:00</time></trkpt><trkpt lat="30.82241821" lon="34.74132156"><ele>608.1</ele><time>2013-11-21T11:55:44.0000000+00:00</time></trkpt><trkpt lat="30.82238007" lon="34.7413826"><ele>607.4</ele><time>2013-11-21T11:55:49.0000000+00:00</time></trkpt><trkpt lat="30.82238007" lon="34.74141312"><ele>607.1</ele><time>2013-11-21T11:55:54.0000000+00:00</time></trkpt><trkpt lat="30.82237625" lon="34.74141312"><ele>606.9</ele><time>2013-11-21T11:55:59.0000000+00:00</time></trkpt><trkpt lat="30.82237816" lon="34.74141312"><ele>606.8</ele><time>2013-11-21T11:56:04.0000000+00:00</time></trkpt><trkpt lat="30.82237434" lon="34.74141693"><ele>606.8</ele><time>2013-11-21T11:56:09.0000000+00:00</time></trkpt><trkpt lat="30.82237244" lon="34.74141693"><ele>606.8</ele><time>2013-11-21T11:56:14.0000000+00:00</time></trkpt><trkpt lat="30.82237244" lon="34.74141693"><ele>606.9</ele><time>2013-11-21T11:56:19.0000000+00:00</time></trkpt><trkpt lat="30.82237053" lon="34.74141312"><ele>606.9</ele><time>2013-11-21T11:56:24.0000000+00:00</time></trkpt><trkpt lat="30.82237053" lon="34.74141693"><ele>606.9</ele><time>2013-11-21T11:56:29.0000000+00:00</time></trkpt><trkpt lat="30.82237244" lon="34.74141693"><ele>606.9</ele><time>2013-11-21T11:56:34.0000000+00:00</time></trkpt><trkpt lat="30.82237244" lon="34.74141693"><ele>606.9</ele><time>2013-11-21T11:56:39.0000000+00:00</time></trkpt><trkpt lat="30.82237244" lon="34.74141693"><ele>606.9</ele><time>2013-11-21T11:56:44.0000000+00:00</time></trkpt><trkpt lat="30.82237244" lon="34.74141693"><ele>606.8</ele><time>2013-11-21T11:56:49.0000000+00:00</time></trkpt><trkpt lat="30.82237244" lon="34.74141693"><ele>606.8</ele><time>2013-11-21T11:56:54.0000000+00:00</time></trkpt><trkpt lat="30.82237244" lon="34.74141693"><ele>606.8</ele><time>2013-11-21T11:56:59.0000000+00:00</time></trkpt><trkpt lat="30.82237434" lon="34.74141693"><ele>606.8</ele><time>2013-11-21T11:57:04.0000000+00:00</time></trkpt><trkpt lat="30.82237434" lon="34.74141693"><ele>606.8</ele><time>2013-11-21T11:57:09.0000000+00:00</time></trkpt><trkpt lat="30.82237434" lon="34.74141693"><ele>606.8</ele><time>2013-11-21T11:57:14.0000000+00:00</time></trkpt><trkpt lat="30.82237625" lon="34.74141693"><ele>606.7</ele><time>2013-11-21T11:57:19.0000000+00:00</time></trkpt><trkpt lat="30.82237625" lon="34.74142075"><ele>606.7</ele><time>2013-11-21T11:57:24.0000000+00:00</time></trkpt><trkpt lat="30.82237625" lon="34.74142075"><ele>606.7</ele><time>2013-11-21T11:57:29.0000000+00:00</time></trkpt><trkpt lat="30.82237625" lon="34.74142075"><ele>606.7</ele><time>2013-11-21T11:57:34.0000000+00:00</time></trkpt><trkpt lat="30.82237816" lon="34.74142075"><ele>606.6</ele><time>2013-11-21T11:57:39.0000000+00:00</time></trkpt><trkpt lat="30.82237816" lon="34.74142075"><ele>606.6</ele><time>2013-11-21T11:57:44.0000000+00:00</time></trkpt><trkpt lat="30.82237816" lon="34.74142075"><ele>606.6</ele><time>2013-11-21T11:57:49.0000000+00:00</time></trkpt><trkpt lat="30.82238007" lon="34.74142075"><ele>606.5</ele><time>2013-11-21T11:57:54.0000000+00:00</time></trkpt><trkpt lat="30.82238007" lon="34.74142075"><ele>606.5</ele><time>2013-11-21T11:57:59.0000000+00:00</time></trkpt><trkpt lat="30.82238007" lon="34.74142075"><ele>606.5</ele><time>2013-11-21T11:58:04.0000000+00:00</time></trkpt><trkpt lat="30.82238197" lon="34.74142075"><ele>606.5</ele><time>2013-11-21T11:58:09.0000000+00:00</time></trkpt><trkpt lat="30.82238197" lon="34.74142075"><ele>606.5</ele><time>2013-11-21T11:58:14.0000000+00:00</time></trkpt><trkpt lat="30.82238197" lon="34.74142075"><ele>606.4</ele><time>2013-11-21T11:58:19.0000000+00:00</time></trkpt><trkpt lat="30.82238388" lon="34.74142075"><ele>606.4</ele><time>2013-11-21T11:58:24.0000000+00:00</time></trkpt><trkpt lat="30.82238388" lon="34.74142075"><ele>606.4</ele><time>2013-11-21T11:58:29.0000000+00:00</time></trkpt><trkpt lat="30.82238388" lon="34.74142075"><ele>606.4</ele><time>2013-11-21T11:58:34.0000000+00:00</time></trkpt><trkpt lat="30.82238388" lon="34.74142075"><ele>606.3</ele><time>2013-11-21T11:58:39.0000000+00:00</time></trkpt><trkpt lat="30.82238579" lon="34.74142456"><ele>606.3</ele><time>2013-11-21T11:58:44.0000000+00:00</time></trkpt><trkpt lat="30.82238579" lon="34.74142456"><ele>606.3</ele><time>2013-11-21T11:58:49.0000000+00:00</time></trkpt><trkpt lat="30.82238579" lon="34.74142456"><ele>606.2</ele><time>2013-11-21T11:58:54.0000000+00:00</time></trkpt><trkpt lat="30.8223877" lon="34.74142456"><ele>606.2</ele><time>2013-11-21T11:58:59.0000000+00:00</time></trkpt><trkpt lat="30.8223877" lon="34.74142456"><ele>606.2</ele><time>2013-11-21T11:59:04.0000000+00:00</time></trkpt><trkpt lat="30.8223877" lon="34.74142456"><ele>606.2</ele><time>2013-11-21T11:59:09.0000000+00:00</time></trkpt><trkpt lat="30.8223877" lon="34.74142456"><ele>606.1</ele><time>2013-11-21T11:59:14.0000000+00:00</time></trkpt><trkpt lat="30.8223877" lon="34.74142456"><ele>606.1</ele><time>2013-11-21T11:59:19.0000000+00:00</time></trkpt><trkpt lat="30.8223896" lon="34.74142075"><ele>606.1</ele><time>2013-11-21T11:59:24.0000000+00:00</time></trkpt><trkpt lat="30.8224411" lon="34.74137878"><ele>604.9</ele><time>2013-11-21T11:59:29.0000000+00:00</time></trkpt><trkpt lat="30.82249069" lon="34.74123383"><ele>603.2</ele><time>2013-11-21T11:59:34.0000000+00:00</time></trkpt><trkpt lat="30.82258415" lon="34.74111176"><ele>601.0</ele><time>2013-11-21T11:59:39.0000000+00:00</time></trkpt><trkpt lat="30.82268143" lon="34.74102783"><ele>600.2</ele><time>2013-11-21T11:59:44.0000000+00:00</time></trkpt><trkpt lat="30.82277489" lon="34.74091721"><ele>599.8</ele><time>2013-11-21T11:59:49.0000000+00:00</time></trkpt><trkpt lat="30.82290268" lon="34.74090576"><ele>601.0</ele><time>2013-11-21T11:59:54.0000000+00:00</time></trkpt><trkpt lat="30.82310295" lon="34.74092102"><ele>601.7</ele><time>2013-11-21T11:59:59.0000000+00:00</time></trkpt><trkpt lat="30.82333565" lon="34.74097061"><ele>600.6</ele><time>2013-11-21T12:00:04.0000000+00:00</time></trkpt><trkpt lat="30.82356453" lon="34.74104691"><ele>599.6</ele><time>2013-11-21T12:00:09.0000000+00:00</time></trkpt><trkpt lat="30.82377052" lon="34.74124527"><ele>599.6</ele><time>2013-11-21T12:00:14.0000000+00:00</time></trkpt><trkpt lat="30.8238945" lon="34.74141693"><ele>602.2</ele><time>2013-11-21T12:00:19.0000000+00:00</time></trkpt><trkpt lat="30.82395172" lon="34.74150467"><ele>603.1</ele><time>2013-11-21T12:00:24.0000000+00:00</time></trkpt><trkpt lat="30.82399368" lon="34.74159241"><ele>603.3</ele><time>2013-11-21T12:00:29.0000000+00:00</time></trkpt><trkpt lat="30.82405281" lon="34.74171066"><ele>603.2</ele><time>2013-11-21T12:00:34.0000000+00:00</time></trkpt><trkpt lat="30.82412338" lon="34.74187851"><ele>604.2</ele><time>2013-11-21T12:00:39.0000000+00:00</time></trkpt><trkpt lat="30.8242054" lon="34.74205017"><ele>605.2</ele><time>2013-11-21T12:00:44.0000000+00:00</time></trkpt><trkpt lat="30.82430458" lon="34.74221039"><ele>605.7</ele><time>2013-11-21T12:00:49.0000000+00:00</time></trkpt><trkpt lat="30.82436371" lon="34.74235916"><ele>606.5</ele><time>2013-11-21T12:00:54.0000000+00:00</time></trkpt><trkpt lat="30.82447815" lon="34.74251556"><ele>603.7</ele><time>2013-11-21T12:00:59.0000000+00:00</time></trkpt><trkpt lat="30.82461548" lon="34.74269104"><ele>600.3</ele><time>2013-11-21T12:01:04.0000000+00:00</time></trkpt><trkpt lat="30.82476044" lon="34.7428093"><ele>594.6</ele><time>2013-11-21T12:01:09.0000000+00:00</time></trkpt><trkpt lat="30.8247509" lon="34.74280167"><ele>595.0</ele><time>2013-11-21T12:01:14.0000000+00:00</time></trkpt><trkpt lat="30.82475281" lon="34.74279785"><ele>595.1</ele><time>2013-11-21T12:01:19.0000000+00:00</time></trkpt><trkpt lat="30.82475281" lon="34.74279785"><ele>595.0</ele><time>2013-11-21T12:01:24.0000000+00:00</time></trkpt><trkpt lat="30.82474899" lon="34.7428093"><ele>595.0</ele><time>2013-11-21T12:01:29.0000000+00:00</time></trkpt><trkpt lat="30.82474899" lon="34.74281311"><ele>595.0</ele><time>2013-11-21T12:01:34.0000000+00:00</time></trkpt><trkpt lat="30.82474899" lon="34.74281693"><ele>595.0</ele><time>2013-11-21T12:01:39.0000000+00:00</time></trkpt><trkpt lat="30.82481384" lon="34.74285507"><ele>595.3</ele><time>2013-11-21T12:01:44.0000000+00:00</time></trkpt><trkpt lat="30.82492638" lon="34.74297333"><ele>594.4</ele><time>2013-11-21T12:01:49.0000000+00:00</time></trkpt><trkpt lat="30.82507706" lon="34.74308014"><ele>592.9</ele><time>2013-11-21T12:01:54.0000000+00:00</time></trkpt><trkpt lat="30.82523727" lon="34.7430954"><ele>589.8</ele><time>2013-11-21T12:01:59.0000000+00:00</time></trkpt><trkpt lat="30.82538986" lon="34.74311447"><ele>585.3</ele><time>2013-11-21T12:02:04.0000000+00:00</time></trkpt><trkpt lat="30.82556915" lon="34.74315262"><ele>579.7</ele><time>2013-11-21T12:02:09.0000000+00:00</time></trkpt><trkpt lat="30.82574654" lon="34.74322891"><ele>577.6</ele><time>2013-11-21T12:02:14.0000000+00:00</time></trkpt><trkpt lat="30.82591057" lon="34.74334717"><ele>577.5</ele><time>2013-11-21T12:02:19.0000000+00:00</time></trkpt><trkpt lat="30.82603264" lon="34.74360275"><ele>576.2</ele><time>2013-11-21T12:02:24.0000000+00:00</time></trkpt><trkpt lat="30.82614136" lon="34.74397659"><ele>573.3</ele><time>2013-11-21T12:02:29.0000000+00:00</time></trkpt><trkpt lat="30.82622337" lon="34.74436569"><ele>571.7</ele><time>2013-11-21T12:02:34.0000000+00:00</time></trkpt><trkpt lat="30.82627869" lon="34.74468613"><ele>570.8</ele><time>2013-11-21T12:02:39.0000000+00:00</time></trkpt><trkpt lat="30.82625008" lon="34.74477005"><ele>571.3</ele><time>2013-11-21T12:02:44.0000000+00:00</time></trkpt><trkpt lat="30.82627678" lon="34.74485779"><ele>569.6</ele><time>2013-11-21T12:02:49.0000000+00:00</time></trkpt><trkpt lat="30.82630539" lon="34.74499893"><ele>569.7</ele><time>2013-11-21T12:02:54.0000000+00:00</time></trkpt><trkpt lat="30.8263092" lon="34.74520111"><ele>569.0</ele><time>2013-11-21T12:02:59.0000000+00:00</time></trkpt><trkpt lat="30.82629776" lon="34.74546433"><ele>567.4</ele><time>2013-11-21T12:03:04.0000000+00:00</time></trkpt><trkpt lat="30.82625771" lon="34.74572372"><ele>566.8</ele><time>2013-11-21T12:03:09.0000000+00:00</time></trkpt><trkpt lat="30.82620812" lon="34.74598694"><ele>567.9</ele><time>2013-11-21T12:03:14.0000000+00:00</time></trkpt><trkpt lat="30.82623863" lon="34.74631119"><ele>567.0</ele><time>2013-11-21T12:03:19.0000000+00:00</time></trkpt><trkpt lat="30.82629395" lon="34.74658966"><ele>568.3</ele><time>2013-11-21T12:03:24.0000000+00:00</time></trkpt><trkpt lat="30.82637978" lon="34.74685669"><ele>566.6</ele><time>2013-11-21T12:03:29.0000000+00:00</time></trkpt><trkpt lat="30.82647896" lon="34.74716187"><ele>563.7</ele><time>2013-11-21T12:03:34.0000000+00:00</time></trkpt><trkpt lat="30.82667351" lon="34.74740219"><ele>559.3</ele><time>2013-11-21T12:03:39.0000000+00:00</time></trkpt><trkpt lat="30.82692337" lon="34.74762344"><ele>551.7</ele><time>2013-11-21T12:03:44.0000000+00:00</time></trkpt><trkpt lat="30.82702255" lon="34.74781799"><ele>549.0</ele><time>2013-11-21T12:03:49.0000000+00:00</time></trkpt><trkpt lat="30.82695961" lon="34.7478981"><ele>547.7</ele><time>2013-11-21T12:03:54.0000000+00:00</time></trkpt><trkpt lat="30.82694054" lon="34.74788284"><ele>549.2</ele><time>2013-11-21T12:03:59.0000000+00:00</time></trkpt><trkpt lat="30.82693291" lon="34.74787521"><ele>549.2</ele><time>2013-11-21T12:04:04.0000000+00:00</time></trkpt><trkpt lat="30.82692528" lon="34.74785996"><ele>549.2</ele><time>2013-11-21T12:04:09.0000000+00:00</time></trkpt><trkpt lat="30.82692337" lon="34.74785614"><ele>549.2</ele><time>2013-11-21T12:04:14.0000000+00:00</time></trkpt><trkpt lat="30.82691383" lon="34.74786377"><ele>549.2</ele><time>2013-11-21T12:04:19.0000000+00:00</time></trkpt><trkpt lat="30.82685471" lon="34.74797058"><ele>549.4</ele><time>2013-11-21T12:04:24.0000000+00:00</time></trkpt><trkpt lat="30.8267498" lon="34.74809265"><ele>549.4</ele><time>2013-11-21T12:04:29.0000000+00:00</time></trkpt><trkpt lat="30.82660103" lon="34.74827957"><ele>549.5</ele><time>2013-11-21T12:04:34.0000000+00:00</time></trkpt><trkpt lat="30.8264389" lon="34.74845886"><ele>550.1</ele><time>2013-11-21T12:04:39.0000000+00:00</time></trkpt><trkpt lat="30.82623291" lon="34.74866486"><ele>550.8</ele><time>2013-11-21T12:04:44.0000000+00:00</time></trkpt><trkpt lat="30.82605934" lon="34.74887466"><ele>551.8</ele><time>2013-11-21T12:04:49.0000000+00:00</time></trkpt><trkpt lat="30.82585335" lon="34.74908447"><ele>552.8</ele><time>2013-11-21T12:04:54.0000000+00:00</time></trkpt><trkpt lat="30.8256321" lon="34.74928665"><ele>555.2</ele><time>2013-11-21T12:04:59.0000000+00:00</time></trkpt><trkpt lat="30.82543373" lon="34.7494812"><ele>557.1</ele><time>2013-11-21T12:05:04.0000000+00:00</time></trkpt><trkpt lat="30.825243" lon="34.74966049"><ele>557.6</ele><time>2013-11-21T12:05:09.0000000+00:00</time></trkpt><trkpt lat="30.82502556" lon="34.7498703"><ele>558.2</ele><time>2013-11-21T12:05:14.0000000+00:00</time></trkpt><trkpt lat="30.82476616" lon="34.750103"><ele>557.7</ele><time>2013-11-21T12:05:19.0000000+00:00</time></trkpt><trkpt lat="30.82447434" lon="34.75033569"><ele>556.6</ele><time>2013-11-21T12:05:24.0000000+00:00</time></trkpt><trkpt lat="30.82419586" lon="34.75055313"><ele>555.4</ele><time>2013-11-21T12:05:29.0000000+00:00</time></trkpt><trkpt lat="30.82394218" lon="34.75076294"><ele>555.9</ele><time>2013-11-21T12:05:34.0000000+00:00</time></trkpt><trkpt lat="30.82373619" lon="34.7509079"><ele>555.4</ele><time>2013-11-21T12:05:39.0000000+00:00</time></trkpt><trkpt lat="30.82360458" lon="34.75099564"><ele>552.2</ele><time>2013-11-21T12:05:44.0000000+00:00</time></trkpt><trkpt lat="30.82346535" lon="34.75108719"><ele>551.3</ele><time>2013-11-21T12:05:49.0000000+00:00</time></trkpt><trkpt lat="30.82330895" lon="34.75120163"><ele>551.9</ele><time>2013-11-21T12:05:54.0000000+00:00</time></trkpt><trkpt lat="30.8231411" lon="34.75130844"><ele>551.7</ele><time>2013-11-21T12:05:59.0000000+00:00</time></trkpt><trkpt lat="30.82296753" lon="34.75141907"><ele>552.7</ele><time>2013-11-21T12:06:04.0000000+00:00</time></trkpt><trkpt lat="30.82276917" lon="34.75153351"><ele>555.2</ele><time>2013-11-21T12:06:09.0000000+00:00</time></trkpt><trkpt lat="30.82258987" lon="34.75163269"><ele>554.5</ele><time>2013-11-21T12:06:14.0000000+00:00</time></trkpt><trkpt lat="30.82243538" lon="34.75175476"><ele>555.0</ele><time>2013-11-21T12:06:19.0000000+00:00</time></trkpt><trkpt lat="30.82227516" lon="34.75190353"><ele>554.0</ele><time>2013-11-21T12:06:24.0000000+00:00</time></trkpt><trkpt lat="30.8221302" lon="34.7520256"><ele>553.8</ele><time>2013-11-21T12:06:29.0000000+00:00</time></trkpt><trkpt lat="30.8220005" lon="34.75213623"><ele>551.0</ele><time>2013-11-21T12:06:34.0000000+00:00</time></trkpt><trkpt lat="30.82187462" lon="34.75228882"><ele>551.6</ele><time>2013-11-21T12:06:39.0000000+00:00</time></trkpt><trkpt lat="30.82173157" lon="34.75243759"><ele>549.8</ele><time>2013-11-21T12:06:44.0000000+00:00</time></trkpt><trkpt lat="30.82154656" lon="34.75257874"><ele>547.4</ele><time>2013-11-21T12:06:49.0000000+00:00</time></trkpt><trkpt lat="30.82132149" lon="34.7527504"><ele>545.6</ele><time>2013-11-21T12:06:54.0000000+00:00</time></trkpt><trkpt lat="30.8210659" lon="34.75294876"><ele>543.2</ele><time>2013-11-21T12:06:59.0000000+00:00</time></trkpt><trkpt lat="30.82082748" lon="34.75315094"><ele>542.5</ele><time>2013-11-21T12:07:04.0000000+00:00</time></trkpt><trkpt lat="30.82052803" lon="34.75341415"><ele>542.6</ele><time>2013-11-21T12:07:09.0000000+00:00</time></trkpt><trkpt lat="30.82018852" lon="34.75368881"><ele>542.3</ele><time>2013-11-21T12:07:14.0000000+00:00</time></trkpt><trkpt lat="30.81986237" lon="34.75397492"><ele>540.1</ele><time>2013-11-21T12:07:19.0000000+00:00</time></trkpt><trkpt lat="30.81953049" lon="34.75421906"><ele>540.2</ele><time>2013-11-21T12:07:24.0000000+00:00</time></trkpt><trkpt lat="30.81928825" lon="34.75441742"><ele>541.3</ele><time>2013-11-21T12:07:29.0000000+00:00</time></trkpt><trkpt lat="30.81906509" lon="34.75458908"><ele>539.6</ele><time>2013-11-21T12:07:34.0000000+00:00</time></trkpt><trkpt lat="30.81889534" lon="34.75471878"><ele>538.6</ele><time>2013-11-21T12:07:39.0000000+00:00</time></trkpt><trkpt lat="30.81879425" lon="34.75482559"><ele>537.3</ele><time>2013-11-21T12:07:44.0000000+00:00</time></trkpt><trkpt lat="30.81873512" lon="34.75496292"><ele>539.1</ele><time>2013-11-21T12:07:49.0000000+00:00</time></trkpt><trkpt lat="30.81866455" lon="34.75506592"><ele>536.8</ele><time>2013-11-21T12:07:54.0000000+00:00</time></trkpt><trkpt lat="30.81863403" lon="34.75519562"><ele>536.5</ele><time>2013-11-21T12:07:59.0000000+00:00</time></trkpt><trkpt lat="30.8186779" lon="34.7552681"><ele>537.2</ele><time>2013-11-21T12:08:04.0000000+00:00</time></trkpt><trkpt lat="30.81866646" lon="34.75532913"><ele>538.2</ele><time>2013-11-21T12:08:09.0000000+00:00</time></trkpt><trkpt lat="30.81859779" lon="34.75531006"><ele>539.2</ele><time>2013-11-21T12:08:14.0000000+00:00</time></trkpt><trkpt lat="30.81847954" lon="34.75535584"><ele>539.8</ele><time>2013-11-21T12:08:19.0000000+00:00</time></trkpt><trkpt lat="30.8183918" lon="34.75540543"><ele>540.8</ele><time>2013-11-21T12:08:24.0000000+00:00</time></trkpt><trkpt lat="30.81833458" lon="34.75548172"><ele>542.5</ele><time>2013-11-21T12:08:29.0000000+00:00</time></trkpt><trkpt lat="30.81825066" lon="34.7555542"><ele>542.8</ele><time>2013-11-21T12:08:34.0000000+00:00</time></trkpt><trkpt lat="30.81817436" lon="34.75563812"><ele>542.5</ele><time>2013-11-21T12:08:39.0000000+00:00</time></trkpt><trkpt lat="30.81811523" lon="34.75572586"><ele>542.9</ele><time>2013-11-21T12:08:44.0000000+00:00</time></trkpt><trkpt lat="30.81803894" lon="34.7558136"><ele>543.7</ele><time>2013-11-21T12:08:49.0000000+00:00</time></trkpt><trkpt lat="30.81794167" lon="34.75589752"><ele>544.8</ele><time>2013-11-21T12:08:54.0000000+00:00</time></trkpt><trkpt lat="30.81785202" lon="34.75598526"><ele>546.0</ele><time>2013-11-21T12:08:59.0000000+00:00</time></trkpt><trkpt lat="30.81773567" lon="34.75609589"><ele>547.2</ele><time>2013-11-21T12:09:04.0000000+00:00</time></trkpt><trkpt lat="30.81762505" lon="34.7562294"><ele>546.9</ele><time>2013-11-21T12:09:09.0000000+00:00</time></trkpt><trkpt lat="30.81745148" lon="34.75632095"><ele>543.6</ele><time>2013-11-21T12:09:14.0000000+00:00</time></trkpt><trkpt lat="30.81729698" lon="34.75643158"><ele>541.9</ele><time>2013-11-21T12:09:19.0000000+00:00</time></trkpt><trkpt lat="30.81709099" lon="34.75656891"><ele>540.2</ele><time>2013-11-21T12:09:24.0000000+00:00</time></trkpt><trkpt lat="30.81689644" lon="34.75673676"><ele>538.1</ele><time>2013-11-21T12:09:29.0000000+00:00</time></trkpt><trkpt lat="30.81680298" lon="34.75681305"><ele>535.6</ele><time>2013-11-21T12:09:34.0000000+00:00</time></trkpt><trkpt lat="30.81668854" lon="34.75690079"><ele>535.1</ele><time>2013-11-21T12:09:39.0000000+00:00</time></trkpt><trkpt lat="30.8165493" lon="34.75701523"><ele>535.1</ele><time>2013-11-21T12:09:44.0000000+00:00</time></trkpt><trkpt lat="30.81639099" lon="34.75717545"><ele>534.4</ele><time>2013-11-21T12:09:49.0000000+00:00</time></trkpt><trkpt lat="30.81627083" lon="34.75727463"><ele>532.8</ele><time>2013-11-21T12:09:54.0000000+00:00</time></trkpt><trkpt lat="30.81624794" lon="34.75729752"><ele>535.7</ele><time>2013-11-21T12:09:59.0000000+00:00</time></trkpt><trkpt lat="30.8162365" lon="34.75730896"><ele>535.9</ele><time>2013-11-21T12:10:04.0000000+00:00</time></trkpt><trkpt lat="30.81622315" lon="34.75731659"><ele>536.0</ele><time>2013-11-21T12:10:09.0000000+00:00</time></trkpt><trkpt lat="30.81619644" lon="34.75734329"><ele>536.1</ele><time>2013-11-21T12:10:14.0000000+00:00</time></trkpt><trkpt lat="30.8161068" lon="34.75740814"><ele>535.7</ele><time>2013-11-21T12:10:19.0000000+00:00</time></trkpt><trkpt lat="30.81600761" lon="34.75751495"><ele>535.1</ele><time>2013-11-21T12:10:24.0000000+00:00</time></trkpt><trkpt lat="30.8159256" lon="34.75759888"><ele>534.5</ele><time>2013-11-21T12:10:29.0000000+00:00</time></trkpt><trkpt lat="30.81584549" lon="34.75766754"><ele>533.7</ele><time>2013-11-21T12:10:34.0000000+00:00</time></trkpt><trkpt lat="30.81576157" lon="34.75775528"><ele>533.6</ele><time>2013-11-21T12:10:39.0000000+00:00</time></trkpt><trkpt lat="30.81565666" lon="34.75786209"><ele>535.3</ele><time>2013-11-21T12:10:44.0000000+00:00</time></trkpt><trkpt lat="30.81553459" lon="34.75796127"><ele>533.9</ele><time>2013-11-21T12:10:49.0000000+00:00</time></trkpt><trkpt lat="30.81546021" lon="34.75803375"><ele>533.4</ele><time>2013-11-21T12:10:54.0000000+00:00</time></trkpt><trkpt lat="30.81532288" lon="34.75812531"><ele>535.5</ele><time>2013-11-21T12:10:59.0000000+00:00</time></trkpt><trkpt lat="30.81521797" lon="34.75822067"><ele>533.1</ele><time>2013-11-21T12:11:04.0000000+00:00</time></trkpt><trkpt lat="30.8150959" lon="34.75833511"><ele>531.3</ele><time>2013-11-21T12:11:09.0000000+00:00</time></trkpt><trkpt lat="30.81498718" lon="34.75845337"><ele>531.5</ele><time>2013-11-21T12:11:14.0000000+00:00</time></trkpt><trkpt lat="30.81487274" lon="34.75853348"><ele>533.0</ele><time>2013-11-21T12:11:19.0000000+00:00</time></trkpt><trkpt lat="30.81471825" lon="34.75864792"><ele>537.2</ele><time>2013-11-21T12:11:24.0000000+00:00</time></trkpt><trkpt lat="30.8146286" lon="34.75878143"><ele>539.1</ele><time>2013-11-21T12:11:29.0000000+00:00</time></trkpt><trkpt lat="30.81452942" lon="34.75889206"><ele>540.4</ele><time>2013-11-21T12:11:34.0000000+00:00</time></trkpt><trkpt lat="30.81441879" lon="34.75900269"><ele>539.0</ele><time>2013-11-21T12:11:39.0000000+00:00</time></trkpt><trkpt lat="30.81431007" lon="34.75909042"><ele>536.8</ele><time>2013-11-21T12:11:44.0000000+00:00</time></trkpt><trkpt lat="30.81419182" lon="34.75917435"><ele>534.2</ele><time>2013-11-21T12:11:49.0000000+00:00</time></trkpt><trkpt lat="30.81407929" lon="34.75927353"><ele>533.9</ele><time>2013-11-21T12:11:54.0000000+00:00</time></trkpt><trkpt lat="30.81398964" lon="34.7593956"><ele>533.1</ele><time>2013-11-21T12:11:59.0000000+00:00</time></trkpt><trkpt lat="30.8139019" lon="34.75949478"><ele>531.9</ele><time>2013-11-21T12:12:04.0000000+00:00</time></trkpt><trkpt lat="30.81381989" lon="34.75958252"><ele>534.1</ele><time>2013-11-21T12:12:09.0000000+00:00</time></trkpt><trkpt lat="30.81374168" lon="34.75965118"><ele>536.1</ele><time>2013-11-21T12:12:14.0000000+00:00</time></trkpt><trkpt lat="30.8136425" lon="34.75968552"><ele>536.4</ele><time>2013-11-21T12:12:19.0000000+00:00</time></trkpt><trkpt lat="30.81349945" lon="34.75977325"><ele>537.6</ele><time>2013-11-21T12:12:24.0000000+00:00</time></trkpt><trkpt lat="30.81341934" lon="34.7598381"><ele>541.6</ele><time>2013-11-21T12:12:29.0000000+00:00</time></trkpt><trkpt lat="30.81335259" lon="34.75988007"><ele>540.5</ele><time>2013-11-21T12:12:34.0000000+00:00</time></trkpt><trkpt lat="30.81326866" lon="34.75988388"><ele>542.6</ele><time>2013-11-21T12:12:39.0000000+00:00</time></trkpt><trkpt lat="30.81321335" lon="34.75986862"><ele>544.6</ele><time>2013-11-21T12:12:44.0000000+00:00</time></trkpt><trkpt lat="30.8131752" lon="34.75986099"><ele>545.8</ele><time>2013-11-21T12:12:49.0000000+00:00</time></trkpt><trkpt lat="30.8131237" lon="34.75980377"><ele>546.2</ele><time>2013-11-21T12:12:54.0000000+00:00</time></trkpt><trkpt lat="30.81293106" lon="34.7598114"><ele>545.5</ele><time>2013-11-21T12:12:59.0000000+00:00</time></trkpt><trkpt lat="30.81268692" lon="34.75989533"><ele>545.7</ele><time>2013-11-21T12:13:04.0000000+00:00</time></trkpt><trkpt lat="30.81241608" lon="34.75997543"><ele>544.7</ele><time>2013-11-21T12:13:09.0000000+00:00</time></trkpt><trkpt lat="30.81208801" lon="34.76007843"><ele>546.0</ele><time>2013-11-21T12:13:14.0000000+00:00</time></trkpt><trkpt lat="30.81178856" lon="34.76016235"><ele>546.1</ele><time>2013-11-21T12:13:19.0000000+00:00</time></trkpt><trkpt lat="30.8114357" lon="34.76026917"><ele>546.9</ele><time>2013-11-21T12:13:24.0000000+00:00</time></trkpt><trkpt lat="30.81106949" lon="34.76039887"><ele>546.6</ele><time>2013-11-21T12:13:29.0000000+00:00</time></trkpt><trkpt lat="30.81071854" lon="34.76050949"><ele>547.8</ele><time>2013-11-21T12:13:34.0000000+00:00</time></trkpt><trkpt lat="30.81035805" lon="34.76062012"><ele>547.9</ele><time>2013-11-21T12:13:39.0000000+00:00</time></trkpt><trkpt lat="30.81001854" lon="34.76072693"><ele>547.8</ele><time>2013-11-21T12:13:44.0000000+00:00</time></trkpt><trkpt lat="30.80970764" lon="34.7608223"><ele>547.7</ele><time>2013-11-21T12:13:49.0000000+00:00</time></trkpt><trkpt lat="30.80939484" lon="34.76092911"><ele>548.0</ele><time>2013-11-21T12:13:54.0000000+00:00</time></trkpt><trkpt lat="30.80909729" lon="34.76102448"><ele>547.3</ele><time>2013-11-21T12:13:59.0000000+00:00</time></trkpt><trkpt lat="30.80880737" lon="34.76111603"><ele>545.2</ele><time>2013-11-21T12:14:04.0000000+00:00</time></trkpt><trkpt lat="30.80851936" lon="34.7612114"><ele>543.1</ele><time>2013-11-21T12:14:09.0000000+00:00</time></trkpt><trkpt lat="30.8082428" lon="34.76130676"><ele>542.7</ele><time>2013-11-21T12:14:14.0000000+00:00</time></trkpt><trkpt lat="30.80794907" lon="34.76139832"><ele>543.7</ele><time>2013-11-21T12:14:19.0000000+00:00</time></trkpt><trkpt lat="30.8076725" lon="34.76148987"><ele>543.0</ele><time>2013-11-21T12:14:24.0000000+00:00</time></trkpt><trkpt lat="30.80742264" lon="34.76158142"><ele>543.2</ele><time>2013-11-21T12:14:29.0000000+00:00</time></trkpt><trkpt lat="30.80719948" lon="34.7616806"><ele>544.9</ele><time>2013-11-21T12:14:34.0000000+00:00</time></trkpt><trkpt lat="30.80701256" lon="34.76174545"><ele>545.6</ele><time>2013-11-21T12:14:39.0000000+00:00</time></trkpt><trkpt lat="30.80685043" lon="34.76179123"><ele>546.1</ele><time>2013-11-21T12:14:44.0000000+00:00</time></trkpt><trkpt lat="30.80674362" lon="34.76182938"><ele>545.8</ele><time>2013-11-21T12:14:49.0000000+00:00</time></trkpt><trkpt lat="30.80665207" lon="34.76186752"><ele>547.6</ele><time>2013-11-21T12:14:54.0000000+00:00</time></trkpt><trkpt lat="30.8064785" lon="34.76190949"><ele>550.6</ele><time>2013-11-21T12:14:59.0000000+00:00</time></trkpt><trkpt lat="30.80633354" lon="34.76195145"><ele>549.8</ele><time>2013-11-21T12:15:04.0000000+00:00</time></trkpt><trkpt lat="30.80623055" lon="34.76196289"><ele>547.2</ele><time>2013-11-21T12:15:09.0000000+00:00</time></trkpt><trkpt lat="30.80615616" lon="34.76198959"><ele>543.6</ele><time>2013-11-21T12:15:14.0000000+00:00</time></trkpt><trkpt lat="30.806036" lon="34.76202774"><ele>544.3</ele><time>2013-11-21T12:15:19.0000000+00:00</time></trkpt><trkpt lat="30.80588532" lon="34.76208496"><ele>542.9</ele><time>2013-11-21T12:15:24.0000000+00:00</time></trkpt><trkpt lat="30.80571556" lon="34.762146"><ele>542.8</ele><time>2013-11-21T12:15:29.0000000+00:00</time></trkpt><trkpt lat="30.80552292" lon="34.76221466"><ele>543.5</ele><time>2013-11-21T12:15:34.0000000+00:00</time></trkpt><trkpt lat="30.80530167" lon="34.76229477"><ele>543.8</ele><time>2013-11-21T12:15:39.0000000+00:00</time></trkpt><trkpt lat="30.80508232" lon="34.76236343"><ele>543.2</ele><time>2013-11-21T12:15:44.0000000+00:00</time></trkpt><trkpt lat="30.80490875" lon="34.7624321"><ele>542.6</ele><time>2013-11-21T12:15:49.0000000+00:00</time></trkpt><trkpt lat="30.80469704" lon="34.76250839"><ele>544.2</ele><time>2013-11-21T12:15:54.0000000+00:00</time></trkpt><trkpt lat="30.80446243" lon="34.76257324"><ele>543.9</ele><time>2013-11-21T12:15:59.0000000+00:00</time></trkpt><trkpt lat="30.80421448" lon="34.76264954"><ele>542.5</ele><time>2013-11-21T12:16:04.0000000+00:00</time></trkpt><trkpt lat="30.80399132" lon="34.76270676"><ele>542.0</ele><time>2013-11-21T12:16:09.0000000+00:00</time></trkpt><trkpt lat="30.80375099" lon="34.76278305"><ele>541.5</ele><time>2013-11-21T12:16:14.0000000+00:00</time></trkpt><trkpt lat="30.8034935" lon="34.76287842"><ele>541.0</ele><time>2013-11-21T12:16:19.0000000+00:00</time></trkpt><trkpt lat="30.80327416" lon="34.76295471"><ele>539.6</ele><time>2013-11-21T12:16:24.0000000+00:00</time></trkpt><trkpt lat="30.80303574" lon="34.76306152"><ele>541.9</ele><time>2013-11-21T12:16:29.0000000+00:00</time></trkpt><trkpt lat="30.80278206" lon="34.76313019"><ele>542.3</ele><time>2013-11-21T12:16:34.0000000+00:00</time></trkpt><trkpt lat="30.80251885" lon="34.76322556"><ele>541.8</ele><time>2013-11-21T12:16:39.0000000+00:00</time></trkpt><trkpt lat="30.80224228" lon="34.76332474"><ele>542.3</ele><time>2013-11-21T12:16:44.0000000+00:00</time></trkpt><trkpt lat="30.80199623" lon="34.76346588"><ele>543.8</ele><time>2013-11-21T12:16:49.0000000+00:00</time></trkpt><trkpt lat="30.80173874" lon="34.76358414"><ele>542.4</ele><time>2013-11-21T12:16:54.0000000+00:00</time></trkpt><trkpt lat="30.80154038" lon="34.76368332"><ele>540.6</ele><time>2013-11-21T12:16:59.0000000+00:00</time></trkpt><trkpt lat="30.80140686" lon="34.7637558"><ele>539.1</ele><time>2013-11-21T12:17:04.0000000+00:00</time></trkpt><trkpt lat="30.80126572" lon="34.76381683"><ele>536.0</ele><time>2013-11-21T12:17:09.0000000+00:00</time></trkpt><trkpt lat="30.80111694" lon="34.76388168"><ele>533.8</ele><time>2013-11-21T12:17:14.0000000+00:00</time></trkpt><trkpt lat="30.80100441" lon="34.7639389"><ele>533.6</ele><time>2013-11-21T12:17:19.0000000+00:00</time></trkpt><trkpt lat="30.8008709" lon="34.76399612"><ele>533.4</ele><time>2013-11-21T12:17:24.0000000+00:00</time></trkpt><trkpt lat="30.80073929" lon="34.76405335"><ele>533.6</ele><time>2013-11-21T12:17:29.0000000+00:00</time></trkpt><trkpt lat="30.80063248" lon="34.76410675"><ele>535.5</ele><time>2013-11-21T12:17:34.0000000+00:00</time></trkpt><trkpt lat="30.8004818" lon="34.7641983"><ele>535.6</ele><time>2013-11-21T12:17:39.0000000+00:00</time></trkpt><trkpt lat="30.80034256" lon="34.76427078"><ele>538.1</ele><time>2013-11-21T12:17:44.0000000+00:00</time></trkpt><trkpt lat="30.8001976" lon="34.76435089"><ele>538.5</ele><time>2013-11-21T12:17:49.0000000+00:00</time></trkpt><trkpt lat="30.80007362" lon="34.76442337"><ele>539.9</ele><time>2013-11-21T12:17:54.0000000+00:00</time></trkpt><trkpt lat="30.79991531" lon="34.76449585"><ele>540.3</ele><time>2013-11-21T12:17:59.0000000+00:00</time></trkpt><trkpt lat="30.79979706" lon="34.76455307"><ele>540.6</ele><time>2013-11-21T12:18:04.0000000+00:00</time></trkpt><trkpt lat="30.79966354" lon="34.76462936"><ele>541.2</ele><time>2013-11-21T12:18:09.0000000+00:00</time></trkpt><trkpt lat="30.79951668" lon="34.76470566"><ele>540.8</ele><time>2013-11-21T12:18:14.0000000+00:00</time></trkpt><trkpt lat="30.79938126" lon="34.76477051"><ele>540.7</ele><time>2013-11-21T12:18:19.0000000+00:00</time></trkpt><trkpt lat="30.79924393" lon="34.76483154"><ele>542.2</ele><time>2013-11-21T12:18:24.0000000+00:00</time></trkpt><trkpt lat="30.79911041" lon="34.76489258"><ele>544.7</ele><time>2013-11-21T12:18:29.0000000+00:00</time></trkpt><trkpt lat="30.79900932" lon="34.76494217"><ele>546.0</ele><time>2013-11-21T12:18:34.0000000+00:00</time></trkpt><trkpt lat="30.79900169" lon="34.76494598"><ele>545.4</ele><time>2013-11-21T12:18:39.0000000+00:00</time></trkpt><trkpt lat="30.79900169" lon="34.76494217"><ele>545.5</ele><time>2013-11-21T12:18:44.0000000+00:00</time></trkpt><trkpt lat="30.79899979" lon="34.76493835"><ele>545.4</ele><time>2013-11-21T12:18:49.0000000+00:00</time></trkpt><trkpt lat="30.79899788" lon="34.76493835"><ele>545.4</ele><time>2013-11-21T12:18:54.0000000+00:00</time></trkpt><trkpt lat="30.79899788" lon="34.76493835"><ele>545.3</ele><time>2013-11-21T12:18:59.0000000+00:00</time></trkpt><trkpt lat="30.79899406" lon="34.76493454"><ele>545.3</ele><time>2013-11-21T12:19:04.0000000+00:00</time></trkpt><trkpt lat="30.79899025" lon="34.76493454"><ele>545.3</ele><time>2013-11-21T12:19:09.0000000+00:00</time></trkpt><trkpt lat="30.79898644" lon="34.76493073"><ele>545.3</ele><time>2013-11-21T12:19:14.0000000+00:00</time></trkpt><trkpt lat="30.79898644" lon="34.76493454"><ele>545.3</ele><time>2013-11-21T12:19:19.0000000+00:00</time></trkpt><trkpt lat="30.79899025" lon="34.76493835"><ele>545.4</ele><time>2013-11-21T12:19:24.0000000+00:00</time></trkpt><trkpt lat="30.79899597" lon="34.76494598"><ele>545.4</ele><time>2013-11-21T12:19:29.0000000+00:00</time></trkpt><trkpt lat="30.7990036" lon="34.76495743"><ele>545.5</ele><time>2013-11-21T12:19:34.0000000+00:00</time></trkpt><trkpt lat="30.79900932" lon="34.76496887"><ele>545.5</ele><time>2013-11-21T12:19:39.0000000+00:00</time></trkpt><trkpt lat="30.79901314" lon="34.76497269"><ele>545.7</ele><time>2013-11-21T12:19:44.0000000+00:00</time></trkpt><trkpt lat="30.79901695" lon="34.76498413"><ele>546.0</ele><time>2013-11-21T12:19:49.0000000+00:00</time></trkpt><trkpt lat="30.79902458" lon="34.76499176"><ele>546.4</ele><time>2013-11-21T12:19:54.0000000+00:00</time></trkpt><trkpt lat="30.7990303" lon="34.76499939"><ele>546.9</ele><time>2013-11-21T12:19:59.0000000+00:00</time></trkpt><trkpt lat="30.7990303" lon="34.76500702"><ele>547.7</ele><time>2013-11-21T12:20:04.0000000+00:00</time></trkpt><trkpt lat="30.7990303" lon="34.76501465"><ele>548.7</ele><time>2013-11-21T12:20:09.0000000+00:00</time></trkpt><trkpt lat="30.7990284" lon="34.76502228"><ele>549.6</ele><time>2013-11-21T12:20:14.0000000+00:00</time></trkpt><trkpt lat="30.79902268" lon="34.76502228"><ele>550.7</ele><time>2013-11-21T12:20:19.0000000+00:00</time></trkpt><trkpt lat="30.79901695" lon="34.76501846"><ele>551.8</ele><time>2013-11-21T12:20:24.0000000+00:00</time></trkpt><trkpt lat="30.79901123" lon="34.76501846"><ele>552.9</ele><time>2013-11-21T12:20:29.0000000+00:00</time></trkpt><trkpt lat="30.79900551" lon="34.76501465"><ele>554.0</ele><time>2013-11-21T12:20:34.0000000+00:00</time></trkpt><trkpt lat="30.79900169" lon="34.76501465"><ele>555.0</ele><time>2013-11-21T12:20:39.0000000+00:00</time></trkpt><trkpt lat="30.79899216" lon="34.76501083"><ele>556.1</ele><time>2013-11-21T12:20:44.0000000+00:00</time></trkpt><trkpt lat="30.79898453" lon="34.76500702"><ele>557.2</ele><time>2013-11-21T12:20:49.0000000+00:00</time></trkpt><trkpt lat="30.79897881" lon="34.7650032"><ele>558.2</ele><time>2013-11-21T12:20:54.0000000+00:00</time></trkpt><trkpt lat="30.79897499" lon="34.76499939"><ele>559.2</ele><time>2013-11-21T12:20:59.0000000+00:00</time></trkpt><trkpt lat="30.79897308" lon="34.76499939"><ele>559.9</ele><time>2013-11-21T12:21:04.0000000+00:00</time></trkpt><trkpt lat="30.79897308" lon="34.7650032"><ele>560.4</ele><time>2013-11-21T12:21:09.0000000+00:00</time></trkpt><trkpt lat="30.79897308" lon="34.7650032"><ele>560.5</ele><time>2013-11-21T12:21:14.0000000+00:00</time></trkpt><trkpt lat="30.79897308" lon="34.7650032"><ele>560.5</ele><time>2013-11-21T12:21:19.0000000+00:00</time></trkpt><trkpt lat="30.79897308" lon="34.7650032"><ele>560.5</ele><time>2013-11-21T12:21:24.0000000+00:00</time></trkpt><trkpt lat="30.79897308" lon="34.7650032"><ele>560.5</ele><time>2013-11-21T12:21:29.0000000+00:00</time></trkpt><trkpt lat="30.79897308" lon="34.7650032"><ele>560.4</ele><time>2013-11-21T12:21:34.0000000+00:00</time></trkpt><trkpt lat="30.79897308" lon="34.7650032"><ele>560.4</ele><time>2013-11-21T12:21:39.0000000+00:00</time></trkpt><trkpt lat="30.79897308" lon="34.7650032"><ele>560.4</ele><time>2013-11-21T12:21:44.0000000+00:00</time></trkpt><trkpt lat="30.79897308" lon="34.7650032"><ele>560.5</ele><time>2013-11-21T12:21:49.0000000+00:00</time></trkpt><trkpt lat="30.79897308" lon="34.7650032"><ele>560.5</ele><time>2013-11-21T12:21:54.0000000+00:00</time></trkpt><trkpt lat="30.79897308" lon="34.76499939"><ele>560.5</ele><time>2013-11-21T12:21:59.0000000+00:00</time></trkpt><trkpt lat="30.79897308" lon="34.76499939"><ele>560.5</ele><time>2013-11-21T12:22:04.0000000+00:00</time></trkpt><trkpt lat="30.79897308" lon="34.76499939"><ele>560.6</ele><time>2013-11-21T12:22:09.0000000+00:00</time></trkpt><trkpt lat="30.79897308" lon="34.76499558"><ele>560.6</ele><time>2013-11-21T12:22:14.0000000+00:00</time></trkpt><trkpt lat="30.79897308" lon="34.76499176"><ele>560.6</ele><time>2013-11-21T12:22:19.0000000+00:00</time></trkpt><trkpt lat="30.79897881" lon="34.76496506"><ele>560.6</ele><time>2013-11-21T12:22:24.0000000+00:00</time></trkpt><trkpt lat="30.79898453" lon="34.76485062"><ele>560.3</ele><time>2013-11-21T12:22:29.0000000+00:00</time></trkpt><trkpt lat="30.79896927" lon="34.76466751"><ele>561.9</ele><time>2013-11-21T12:22:34.0000000+00:00</time></trkpt><trkpt lat="30.79897118" lon="34.76460648"><ele>562.6</ele><time>2013-11-21T12:22:39.0000000+00:00</time></trkpt><trkpt lat="30.79896164" lon="34.76456833"><ele>562.3</ele><time>2013-11-21T12:22:44.0000000+00:00</time></trkpt><trkpt lat="30.79895401" lon="34.7645607"><ele>561.6</ele><time>2013-11-21T12:22:49.0000000+00:00</time></trkpt><trkpt lat="30.79894638" lon="34.76454926"><ele>560.8</ele><time>2013-11-21T12:22:54.0000000+00:00</time></trkpt><trkpt lat="30.79884338" lon="34.76450348"><ele>559.3</ele><time>2013-11-21T12:22:59.0000000+00:00</time></trkpt><trkpt lat="30.79873467" lon="34.76441956"><ele>557.3</ele><time>2013-11-21T12:23:04.0000000+00:00</time></trkpt><trkpt lat="30.79873848" lon="34.76428986"><ele>555.8</ele><time>2013-11-21T12:23:09.0000000+00:00</time></trkpt><trkpt lat="30.79872894" lon="34.76407242"><ele>554.3</ele><time>2013-11-21T12:23:14.0000000+00:00</time></trkpt><trkpt lat="30.79867554" lon="34.76389694"><ele>552.2</ele><time>2013-11-21T12:23:19.0000000+00:00</time></trkpt><trkpt lat="30.79860687" lon="34.76371384"><ele>553.4</ele><time>2013-11-21T12:23:24.0000000+00:00</time></trkpt><trkpt lat="30.79853249" lon="34.76357651"><ele>550.6</ele><time>2013-11-21T12:23:29.0000000+00:00</time></trkpt><trkpt lat="30.79847908" lon="34.76345444"><ele>551.0</ele><time>2013-11-21T12:23:34.0000000+00:00</time></trkpt><trkpt lat="30.79842377" lon="34.76330948"><ele>552.0</ele><time>2013-11-21T12:23:39.0000000+00:00</time></trkpt><trkpt lat="30.79836464" lon="34.76314926"><ele>553.4</ele><time>2013-11-21T12:23:44.0000000+00:00</time></trkpt><trkpt lat="30.79829979" lon="34.76298523"><ele>551.3</ele><time>2013-11-21T12:23:49.0000000+00:00</time></trkpt><trkpt lat="30.79825211" lon="34.76289368"><ele>549.6</ele><time>2013-11-21T12:23:54.0000000+00:00</time></trkpt><trkpt lat="30.79820061" lon="34.76284027"><ele>550.7</ele><time>2013-11-21T12:23:59.0000000+00:00</time></trkpt><trkpt lat="30.79806328" lon="34.76272202"><ele>548.7</ele><time>2013-11-21T12:24:04.0000000+00:00</time></trkpt><trkpt lat="30.7979641" lon="34.76262665"><ele>549.2</ele><time>2013-11-21T12:24:09.0000000+00:00</time></trkpt><trkpt lat="30.79787445" lon="34.76254654"><ele>547.3</ele><time>2013-11-21T12:24:14.0000000+00:00</time></trkpt><trkpt lat="30.79778862" lon="34.76245117"><ele>547.1</ele><time>2013-11-21T12:24:19.0000000+00:00</time></trkpt><trkpt lat="30.79777527" lon="34.76242828"><ele>545.9</ele><time>2013-11-21T12:24:24.0000000+00:00</time></trkpt><trkpt lat="30.79777718" lon="34.76242447"><ele>545.7</ele><time>2013-11-21T12:24:29.0000000+00:00</time></trkpt><trkpt lat="30.79776573" lon="34.76241303"><ele>545.6</ele><time>2013-11-21T12:24:34.0000000+00:00</time></trkpt><trkpt lat="30.79773521" lon="34.76239014"><ele>545.6</ele><time>2013-11-21T12:24:39.0000000+00:00</time></trkpt><trkpt lat="30.79768372" lon="34.76234055"><ele>545.2</ele><time>2013-11-21T12:24:44.0000000+00:00</time></trkpt><trkpt lat="30.79764366" lon="34.76228333"><ele>543.2</ele><time>2013-11-21T12:24:49.0000000+00:00</time></trkpt><trkpt lat="30.79763222" lon="34.76221848"><ele>543.1</ele><time>2013-11-21T12:24:54.0000000+00:00</time></trkpt><trkpt lat="30.79763794" lon="34.76215744"><ele>543.6</ele><time>2013-11-21T12:24:59.0000000+00:00</time></trkpt><trkpt lat="30.79764557" lon="34.76210403"><ele>543.1</ele><time>2013-11-21T12:25:04.0000000+00:00</time></trkpt><trkpt lat="30.79767227" lon="34.76205826"><ele>544.6</ele><time>2013-11-21T12:25:09.0000000+00:00</time></trkpt><trkpt lat="30.79767609" lon="34.76200485"><ele>545.7</ele><time>2013-11-21T12:25:14.0000000+00:00</time></trkpt><trkpt lat="30.79769325" lon="34.76195145"><ele>546.0</ele><time>2013-11-21T12:25:19.0000000+00:00</time></trkpt><trkpt lat="30.79771233" lon="34.76191711"><ele>546.2</ele><time>2013-11-21T12:25:24.0000000+00:00</time></trkpt><trkpt lat="30.79773712" lon="34.76185226"><ele>546.6</ele><time>2013-11-21T12:25:29.0000000+00:00</time></trkpt><trkpt lat="30.79775429" lon="34.76177979"><ele>546.8</ele><time>2013-11-21T12:25:34.0000000+00:00</time></trkpt><trkpt lat="30.79774284" lon="34.76170349"><ele>548.3</ele><time>2013-11-21T12:25:39.0000000+00:00</time></trkpt><trkpt lat="30.79766655" lon="34.76163864"><ele>549.9</ele><time>2013-11-21T12:25:44.0000000+00:00</time></trkpt><trkpt lat="30.79756737" lon="34.76154327"><ele>549.2</ele><time>2013-11-21T12:25:49.0000000+00:00</time></trkpt><trkpt lat="30.79742432" lon="34.76150894"><ele>550.4</ele><time>2013-11-21T12:25:54.0000000+00:00</time></trkpt><trkpt lat="30.79724693" lon="34.76149368"><ele>552.5</ele><time>2013-11-21T12:25:59.0000000+00:00</time></trkpt><trkpt lat="30.79710197" lon="34.76151657"><ele>553.5</ele><time>2013-11-21T12:26:04.0000000+00:00</time></trkpt><trkpt lat="30.79696655" lon="34.76156616"><ele>554.8</ele><time>2013-11-21T12:26:09.0000000+00:00</time></trkpt><trkpt lat="30.79687119" lon="34.76158524"><ele>556.4</ele><time>2013-11-21T12:26:14.0000000+00:00</time></trkpt><trkpt lat="30.7967701" lon="34.76162338"><ele>556.4</ele><time>2013-11-21T12:26:19.0000000+00:00</time></trkpt><trkpt lat="30.79665184" lon="34.76170349"><ele>556.1</ele><time>2013-11-21T12:26:24.0000000+00:00</time></trkpt><trkpt lat="30.79659081" lon="34.76172257"><ele>557.4</ele><time>2013-11-21T12:26:29.0000000+00:00</time></trkpt><trkpt lat="30.79651833" lon="34.76174164"><ele>557.9</ele><time>2013-11-21T12:26:34.0000000+00:00</time></trkpt><trkpt lat="30.79642868" lon="34.76165772"><ele>557.9</ele><time>2013-11-21T12:26:39.0000000+00:00</time></trkpt><trkpt lat="30.79640007" lon="34.76148987"><ele>558.3</ele><time>2013-11-21T12:26:44.0000000+00:00</time></trkpt><trkpt lat="30.79638481" lon="34.76129532"><ele>558.1</ele><time>2013-11-21T12:26:49.0000000+00:00</time></trkpt><trkpt lat="30.79636002" lon="34.76109314"><ele>557.0</ele><time>2013-11-21T12:26:54.0000000+00:00</time></trkpt><trkpt lat="30.79627037" lon="34.76088715"><ele>557.7</ele><time>2013-11-21T12:26:59.0000000+00:00</time></trkpt><trkpt lat="30.79620361" lon="34.76070023"><ele>558.5</ele><time>2013-11-21T12:27:04.0000000+00:00</time></trkpt><trkpt lat="30.7961483" lon="34.76054001"><ele>555.7</ele><time>2013-11-21T12:27:09.0000000+00:00</time></trkpt><trkpt lat="30.79609299" lon="34.76038361"><ele>554.0</ele><time>2013-11-21T12:27:14.0000000+00:00</time></trkpt><trkpt lat="30.79603767" lon="34.76027298"><ele>552.3</ele><time>2013-11-21T12:27:19.0000000+00:00</time></trkpt><trkpt lat="30.79601479" lon="34.76019669"><ele>552.8</ele><time>2013-11-21T12:27:24.0000000+00:00</time></trkpt><trkpt lat="30.79597664" lon="34.76012802"><ele>555.2</ele><time>2013-11-21T12:27:29.0000000+00:00</time></trkpt><trkpt lat="30.79593468" lon="34.76000214"><ele>553.2</ele><time>2013-11-21T12:27:34.0000000+00:00</time></trkpt><trkpt lat="30.79588509" lon="34.75990295"><ele>553.5</ele><time>2013-11-21T12:27:39.0000000+00:00</time></trkpt><trkpt lat="30.7958374" lon="34.75974655"><ele>553.6</ele><time>2013-11-21T12:27:44.0000000+00:00</time></trkpt><trkpt lat="30.79574204" lon="34.759552"><ele>552.9</ele><time>2013-11-21T12:27:49.0000000+00:00</time></trkpt><trkpt lat="30.79563141" lon="34.75941849"><ele>553.3</ele><time>2013-11-21T12:27:54.0000000+00:00</time></trkpt><trkpt lat="30.79551888" lon="34.75929642"><ele>554.8</ele><time>2013-11-21T12:27:59.0000000+00:00</time></trkpt><trkpt lat="30.79541206" lon="34.75917816"><ele>556.4</ele><time>2013-11-21T12:28:04.0000000+00:00</time></trkpt><trkpt lat="30.79528236" lon="34.75903702"><ele>555.7</ele><time>2013-11-21T12:28:09.0000000+00:00</time></trkpt><trkpt lat="30.79516983" lon="34.75894547"><ele>554.2</ele><time>2013-11-21T12:28:14.0000000+00:00</time></trkpt><trkpt lat="30.7950573" lon="34.75883102"><ele>553.7</ele><time>2013-11-21T12:28:19.0000000+00:00</time></trkpt><trkpt lat="30.79499435" lon="34.75872803"><ele>552.8</ele><time>2013-11-21T12:28:24.0000000+00:00</time></trkpt><trkpt lat="30.79491425" lon="34.7586441"><ele>554.9</ele><time>2013-11-21T12:28:29.0000000+00:00</time></trkpt><trkpt lat="30.79483032" lon="34.75856018"><ele>554.3</ele><time>2013-11-21T12:28:34.0000000+00:00</time></trkpt><trkpt lat="30.79473114" lon="34.7584877"><ele>554.4</ele><time>2013-11-21T12:28:39.0000000+00:00</time></trkpt><trkpt lat="30.79463387" lon="34.7583313"><ele>555.4</ele><time>2013-11-21T12:28:44.0000000+00:00</time></trkpt><trkpt lat="30.79449844" lon="34.75821304"><ele>554.3</ele><time>2013-11-21T12:28:49.0000000+00:00</time></trkpt><trkpt lat="30.79442024" lon="34.75805283"><ele>552.6</ele><time>2013-11-21T12:28:54.0000000+00:00</time></trkpt><trkpt lat="30.79434395" lon="34.75789261"><ele>552.1</ele><time>2013-11-21T12:28:59.0000000+00:00</time></trkpt><trkpt lat="30.7942276" lon="34.75769043"><ele>552.0</ele><time>2013-11-21T12:29:04.0000000+00:00</time></trkpt><trkpt lat="30.79410744" lon="34.75750351"><ele>551.3</ele><time>2013-11-21T12:29:09.0000000+00:00</time></trkpt><trkpt lat="30.79413223" lon="34.75733948"><ele>550.9</ele><time>2013-11-21T12:29:14.0000000+00:00</time></trkpt><trkpt lat="30.79428673" lon="34.75718689"><ele>548.3</ele><time>2013-11-21T12:29:19.0000000+00:00</time></trkpt><trkpt lat="30.79446793" lon="34.75702286"><ele>546.5</ele><time>2013-11-21T12:29:24.0000000+00:00</time></trkpt><trkpt lat="30.79459" lon="34.75685883"><ele>549.8</ele><time>2013-11-21T12:29:29.0000000+00:00</time></trkpt><trkpt lat="30.79467583" lon="34.75669479"><ele>548.2</ele><time>2013-11-21T12:29:34.0000000+00:00</time></trkpt><trkpt lat="30.79474831" lon="34.75651169"><ele>549.3</ele><time>2013-11-21T12:29:39.0000000+00:00</time></trkpt><trkpt lat="30.79475021" lon="34.75643158"><ele>548.0</ele><time>2013-11-21T12:29:44.0000000+00:00</time></trkpt><trkpt lat="30.79475784" lon="34.75643921"><ele>548.1</ele><time>2013-11-21T12:29:49.0000000+00:00</time></trkpt><trkpt lat="30.79475594" lon="34.75643921"><ele>548.1</ele><time>2013-11-21T12:29:54.0000000+00:00</time></trkpt><trkpt lat="30.79475403" lon="34.75643921"><ele>548.1</ele><time>2013-11-21T12:29:59.0000000+00:00</time></trkpt><trkpt lat="30.79475212" lon="34.75643921"><ele>548.1</ele><time>2013-11-21T12:30:04.0000000+00:00</time></trkpt><trkpt lat="30.79474831" lon="34.75643539"><ele>548.0</ele><time>2013-11-21T12:30:09.0000000+00:00</time></trkpt><trkpt lat="30.79478836" lon="34.75632095"><ele>547.3</ele><time>2013-11-21T12:30:14.0000000+00:00</time></trkpt><trkpt lat="30.79481888" lon="34.75605011"><ele>546.6</ele><time>2013-11-21T12:30:19.0000000+00:00</time></trkpt><trkpt lat="30.79474449" lon="34.75600052"><ele>547.7</ele><time>2013-11-21T12:30:24.0000000+00:00</time></trkpt><trkpt lat="30.79470825" lon="34.75589371"><ele>547.8</ele><time>2013-11-21T12:30:29.0000000+00:00</time></trkpt><trkpt lat="30.79465866" lon="34.755867"><ele>547.3</ele><time>2013-11-21T12:30:34.0000000+00:00</time></trkpt><trkpt lat="30.79453468" lon="34.75584412"><ele>546.7</ele><time>2013-11-21T12:30:39.0000000+00:00</time></trkpt><trkpt lat="30.79437256" lon="34.7558403"><ele>545.7</ele><time>2013-11-21T12:30:44.0000000+00:00</time></trkpt><trkpt lat="30.79426193" lon="34.75584793"><ele>545.6</ele><time>2013-11-21T12:30:49.0000000+00:00</time></trkpt><trkpt lat="30.79413033" lon="34.75580597"><ele>546.2</ele><time>2013-11-21T12:30:54.0000000+00:00</time></trkpt><trkpt lat="30.7939682" lon="34.75580978"><ele>546.6</ele><time>2013-11-21T12:30:59.0000000+00:00</time></trkpt><trkpt lat="30.79379463" lon="34.75587463"><ele>547.3</ele><time>2013-11-21T12:31:04.0000000+00:00</time></trkpt><trkpt lat="30.79364204" lon="34.7559433"><ele>547.5</ele><time>2013-11-21T12:31:09.0000000+00:00</time></trkpt><trkpt lat="30.79347611" lon="34.75595093"><ele>546.7</ele><time>2013-11-21T12:31:14.0000000+00:00</time></trkpt><trkpt lat="30.79338074" lon="34.75602722"><ele>547.4</ele><time>2013-11-21T12:31:19.0000000+00:00</time></trkpt><trkpt lat="30.79323196" lon="34.75606918"><ele>546.1</ele><time>2013-11-21T12:31:24.0000000+00:00</time></trkpt><trkpt lat="30.79307365" lon="34.75613022"><ele>544.3</ele><time>2013-11-21T12:31:29.0000000+00:00</time></trkpt><trkpt lat="30.79288483" lon="34.75619125"><ele>544.8</ele><time>2013-11-21T12:31:34.0000000+00:00</time></trkpt><trkpt lat="30.79269981" lon="34.75625992"><ele>544.9</ele><time>2013-11-21T12:31:39.0000000+00:00</time></trkpt><trkpt lat="30.79252815" lon="34.75637054"><ele>545.0</ele><time>2013-11-21T12:31:44.0000000+00:00</time></trkpt><trkpt lat="30.79234886" lon="34.75643158"><ele>543.2</ele><time>2013-11-21T12:31:49.0000000+00:00</time></trkpt><trkpt lat="30.79216003" lon="34.75646973"><ele>542.6</ele><time>2013-11-21T12:31:54.0000000+00:00</time></trkpt><trkpt lat="30.7919693" lon="34.75661469"><ele>541.3</ele><time>2013-11-21T12:31:59.0000000+00:00</time></trkpt><trkpt lat="30.7918129" lon="34.75677109"><ele>541.2</ele><time>2013-11-21T12:32:04.0000000+00:00</time></trkpt><trkpt lat="30.79167557" lon="34.75695801"><ele>541.4</ele><time>2013-11-21T12:32:09.0000000+00:00</time></trkpt><trkpt lat="30.79156876" lon="34.75712585"><ele>539.8</ele><time>2013-11-21T12:32:14.0000000+00:00</time></trkpt><trkpt lat="30.79144478" lon="34.75724793"><ele>537.9</ele><time>2013-11-21T12:32:19.0000000+00:00</time></trkpt><trkpt lat="30.79135895" lon="34.75740814"><ele>536.9</ele><time>2013-11-21T12:32:24.0000000+00:00</time></trkpt><trkpt lat="30.79132462" lon="34.7574234"><ele>531.8</ele><time>2013-11-21T12:32:29.0000000+00:00</time></trkpt><trkpt lat="30.79132843" lon="34.75742722"><ele>531.1</ele><time>2013-11-21T12:32:34.0000000+00:00</time></trkpt><trkpt lat="30.79132652" lon="34.7574234"><ele>531.3</ele><time>2013-11-21T12:32:39.0000000+00:00</time></trkpt><trkpt lat="30.79132462" lon="34.7574234"><ele>531.3</ele><time>2013-11-21T12:32:44.0000000+00:00</time></trkpt><trkpt lat="30.79132271" lon="34.7574234"><ele>531.4</ele><time>2013-11-21T12:32:49.0000000+00:00</time></trkpt><trkpt lat="30.79132271" lon="34.75741959"><ele>531.5</ele><time>2013-11-21T12:32:54.0000000+00:00</time></trkpt><trkpt lat="30.7913208" lon="34.75741959"><ele>531.4</ele><time>2013-11-21T12:32:59.0000000+00:00</time></trkpt><trkpt lat="30.7913208" lon="34.75741959"><ele>531.4</ele><time>2013-11-21T12:33:04.0000000+00:00</time></trkpt><trkpt lat="30.7913208" lon="34.75741959"><ele>531.4</ele><time>2013-11-21T12:33:09.0000000+00:00</time></trkpt><trkpt lat="30.7913208" lon="34.75741959"><ele>531.5</ele><time>2013-11-21T12:33:14.0000000+00:00</time></trkpt><trkpt lat="30.7913208" lon="34.75741959"><ele>531.5</ele><time>2013-11-21T12:33:19.0000000+00:00</time></trkpt><trkpt lat="30.79131889" lon="34.75741959"><ele>531.5</ele><time>2013-11-21T12:33:24.0000000+00:00</time></trkpt><trkpt lat="30.79131889" lon="34.75741959"><ele>531.5</ele><time>2013-11-21T12:33:29.0000000+00:00</time></trkpt><trkpt lat="30.79131508" lon="34.75740814"><ele>531.5</ele><time>2013-11-21T12:33:34.0000000+00:00</time></trkpt><trkpt lat="30.79126167" lon="34.75730515"><ele>531.6</ele><time>2013-11-21T12:33:39.0000000+00:00</time></trkpt><trkpt lat="30.79116631" lon="34.7571106"><ele>531.5</ele><time>2013-11-21T12:33:44.0000000+00:00</time></trkpt><trkpt lat="30.79109955" lon="34.75698471"><ele>531.1</ele><time>2013-11-21T12:33:49.0000000+00:00</time></trkpt><trkpt lat="30.79105949" lon="34.75684357"><ele>530.5</ele><time>2013-11-21T12:33:54.0000000+00:00</time></trkpt><trkpt lat="30.79103279" lon="34.7567215"><ele>529.5</ele><time>2013-11-21T12:33:59.0000000+00:00</time></trkpt><trkpt lat="30.79100418" lon="34.75656509"><ele>528.8</ele><time>2013-11-21T12:34:04.0000000+00:00</time></trkpt><trkpt lat="30.791008" lon="34.75637436"><ele>527.8</ele><time>2013-11-21T12:34:09.0000000+00:00</time></trkpt><trkpt lat="30.79101563" lon="34.7562027"><ele>526.6</ele><time>2013-11-21T12:34:14.0000000+00:00</time></trkpt><trkpt lat="30.79105568" lon="34.75603485"><ele>527.4</ele><time>2013-11-21T12:34:19.0000000+00:00</time></trkpt><trkpt lat="30.79107285" lon="34.75592423"><ele>528.0</ele><time>2013-11-21T12:34:24.0000000+00:00</time></trkpt><trkpt lat="30.79106903" lon="34.75593948"><ele>526.7</ele><time>2013-11-21T12:34:29.0000000+00:00</time></trkpt><trkpt lat="30.79106712" lon="34.75593948"><ele>526.6</ele><time>2013-11-21T12:34:34.0000000+00:00</time></trkpt><trkpt lat="30.79106331" lon="34.75593567"><ele>526.5</ele><time>2013-11-21T12:34:39.0000000+00:00</time></trkpt><trkpt lat="30.79106331" lon="34.75593567"><ele>526.5</ele><time>2013-11-21T12:34:44.0000000+00:00</time></trkpt><trkpt lat="30.79103851" lon="34.75590134"><ele>526.7</ele><time>2013-11-21T12:34:49.0000000+00:00</time></trkpt><trkpt lat="30.79093361" lon="34.75585938"><ele>527.3</ele><time>2013-11-21T12:34:54.0000000+00:00</time></trkpt><trkpt lat="30.790802" lon="34.75580216"><ele>527.9</ele><time>2013-11-21T12:34:59.0000000+00:00</time></trkpt><trkpt lat="30.79066849" lon="34.75577927"><ele>528.5</ele><time>2013-11-21T12:35:04.0000000+00:00</time></trkpt><trkpt lat="30.79050636" lon="34.75577164"><ele>529.0</ele><time>2013-11-21T12:35:09.0000000+00:00</time></trkpt><trkpt lat="30.79031563" lon="34.75574875"><ele>529.7</ele><time>2013-11-21T12:35:14.0000000+00:00</time></trkpt><trkpt lat="30.79018021" lon="34.75573731"><ele>528.9</ele><time>2013-11-21T12:35:19.0000000+00:00</time></trkpt><trkpt lat="30.79003906" lon="34.75577545"><ele>528.3</ele><time>2013-11-21T12:35:24.0000000+00:00</time></trkpt><trkpt lat="30.78990364" lon="34.75582123"><ele>527.9</ele><time>2013-11-21T12:35:29.0000000+00:00</time></trkpt><trkpt lat="30.7898407" lon="34.75583267"><ele>528.4</ele><time>2013-11-21T12:35:34.0000000+00:00</time></trkpt><trkpt lat="30.78980255" lon="34.75585175"><ele>529.2</ele><time>2013-11-21T12:35:39.0000000+00:00</time></trkpt><trkpt lat="30.78973389" lon="34.75584793"><ele>530.7</ele><time>2013-11-21T12:35:44.0000000+00:00</time></trkpt><trkpt lat="30.78961945" lon="34.75585175"><ele>533.0</ele><time>2013-11-21T12:35:49.0000000+00:00</time></trkpt><trkpt lat="30.78943634" lon="34.75583267"><ele>536.9</ele><time>2013-11-21T12:35:54.0000000+00:00</time></trkpt><trkpt lat="30.78931999" lon="34.75580978"><ele>541.9</ele><time>2013-11-21T12:35:59.0000000+00:00</time></trkpt><trkpt lat="30.78922272" lon="34.75582886"><ele>544.6</ele><time>2013-11-21T12:36:04.0000000+00:00</time></trkpt><trkpt lat="30.78902054" lon="34.75590515"><ele>544.9</ele><time>2013-11-21T12:36:09.0000000+00:00</time></trkpt><trkpt lat="30.78879929" lon="34.75601196"><ele>545.4</ele><time>2013-11-21T12:36:14.0000000+00:00</time></trkpt><trkpt lat="30.7886467" lon="34.75596619"><ele>546.8</ele><time>2013-11-21T12:36:19.0000000+00:00</time></trkpt><trkpt lat="30.78849793" lon="34.75587463"><ele>547.6</ele><time>2013-11-21T12:36:24.0000000+00:00</time></trkpt><trkpt lat="30.78833962" lon="34.75576782"><ele>548.3</ele><time>2013-11-21T12:36:29.0000000+00:00</time></trkpt><trkpt lat="30.78818703" lon="34.75563431"><ele>550.1</ele><time>2013-11-21T12:36:34.0000000+00:00</time></trkpt><trkpt lat="30.78803062" lon="34.75550842"><ele>549.3</ele><time>2013-11-21T12:36:39.0000000+00:00</time></trkpt><trkpt lat="30.78790855" lon="34.75541306"><ele>550.6</ele><time>2013-11-21T12:36:44.0000000+00:00</time></trkpt><trkpt lat="30.78778267" lon="34.75532913"><ele>550.7</ele><time>2013-11-21T12:36:49.0000000+00:00</time></trkpt><trkpt lat="30.78763199" lon="34.75524521"><ele>553.1</ele><time>2013-11-21T12:36:54.0000000+00:00</time></trkpt><trkpt lat="30.78747749" lon="34.75513077"><ele>553.4</ele><time>2013-11-21T12:36:59.0000000+00:00</time></trkpt><trkpt lat="30.787323" lon="34.75505066"><ele>554.9</ele><time>2013-11-21T12:37:04.0000000+00:00</time></trkpt><trkpt lat="30.78719521" lon="34.75502014"><ele>556.0</ele><time>2013-11-21T12:37:09.0000000+00:00</time></trkpt><trkpt lat="30.78705406" lon="34.75496292"><ele>556.1</ele><time>2013-11-21T12:37:14.0000000+00:00</time></trkpt><trkpt lat="30.78692246" lon="34.75494003"><ele>557.0</ele><time>2013-11-21T12:37:19.0000000+00:00</time></trkpt><trkpt lat="30.7868042" lon="34.75492477"><ele>557.8</ele><time>2013-11-21T12:37:24.0000000+00:00</time></trkpt><trkpt lat="30.78666496" lon="34.75492859"><ele>558.3</ele><time>2013-11-21T12:37:29.0000000+00:00</time></trkpt><trkpt lat="30.7864933" lon="34.75492096"><ele>559.5</ele><time>2013-11-21T12:37:34.0000000+00:00</time></trkpt><trkpt lat="30.78634071" lon="34.7548523"><ele>558.1</ele><time>2013-11-21T12:37:39.0000000+00:00</time></trkpt><trkpt lat="30.78617859" lon="34.75476837"><ele>560.0</ele><time>2013-11-21T12:37:44.0000000+00:00</time></trkpt><trkpt lat="30.7860508" lon="34.7546463"><ele>560.1</ele><time>2013-11-21T12:37:49.0000000+00:00</time></trkpt><trkpt lat="30.78587723" lon="34.75455475"><ele>560.4</ele><time>2013-11-21T12:37:54.0000000+00:00</time></trkpt><trkpt lat="30.78574181" lon="34.75442886"><ele>561.1</ele><time>2013-11-21T12:37:59.0000000+00:00</time></trkpt><trkpt lat="30.78563881" lon="34.75424576"><ele>562.1</ele><time>2013-11-21T12:38:04.0000000+00:00</time></trkpt><trkpt lat="30.78553963" lon="34.75406265"><ele>563.0</ele><time>2013-11-21T12:38:09.0000000+00:00</time></trkpt><trkpt lat="30.78543282" lon="34.75390625"><ele>562.2</ele><time>2013-11-21T12:38:14.0000000+00:00</time></trkpt><trkpt lat="30.78529358" lon="34.7537117"><ele>563.4</ele><time>2013-11-21T12:38:19.0000000+00:00</time></trkpt><trkpt lat="30.78514862" lon="34.75352097"><ele>563.5</ele><time>2013-11-21T12:38:24.0000000+00:00</time></trkpt><trkpt lat="30.78502274" lon="34.75333786"><ele>562.0</ele><time>2013-11-21T12:38:29.0000000+00:00</time></trkpt><trkpt lat="30.78487968" lon="34.75317764"><ele>562.6</ele><time>2013-11-21T12:38:34.0000000+00:00</time></trkpt><trkpt lat="30.78475571" lon="34.75301361"><ele>563.4</ele><time>2013-11-21T12:38:39.0000000+00:00</time></trkpt><trkpt lat="30.7845993" lon="34.75285339"><ele>564.1</ele><time>2013-11-21T12:38:44.0000000+00:00</time></trkpt><trkpt lat="30.78448677" lon="34.75269318"><ele>562.8</ele><time>2013-11-21T12:38:49.0000000+00:00</time></trkpt><trkpt lat="30.78437424" lon="34.75252152"><ele>562.8</ele><time>2013-11-21T12:38:54.0000000+00:00</time></trkpt><trkpt lat="30.78426552" lon="34.75235748"><ele>563.8</ele><time>2013-11-21T12:38:59.0000000+00:00</time></trkpt><trkpt lat="30.78414536" lon="34.7522049"><ele>564.9</ele><time>2013-11-21T12:39:04.0000000+00:00</time></trkpt><trkpt lat="30.78404808" lon="34.75208283"><ele>564.8</ele><time>2013-11-21T12:39:09.0000000+00:00</time></trkpt><trkpt lat="30.78395844" lon="34.75199509"><ele>564.0</ele><time>2013-11-21T12:39:14.0000000+00:00</time></trkpt><trkpt lat="30.7838726" lon="34.75192642"><ele>564.3</ele><time>2013-11-21T12:39:19.0000000+00:00</time></trkpt><trkpt lat="30.78377724" lon="34.75179291"><ele>565.9</ele><time>2013-11-21T12:39:24.0000000+00:00</time></trkpt><trkpt lat="30.78364754" lon="34.75165558"><ele>566.2</ele><time>2013-11-21T12:39:29.0000000+00:00</time></trkpt><trkpt lat="30.7835331" lon="34.75146866"><ele>565.6</ele><time>2013-11-21T12:39:34.0000000+00:00</time></trkpt><trkpt lat="30.78342629" lon="34.75124741"><ele>565.1</ele><time>2013-11-21T12:39:39.0000000+00:00</time></trkpt><trkpt lat="30.78333092" lon="34.7510109"><ele>564.5</ele><time>2013-11-21T12:39:44.0000000+00:00</time></trkpt><trkpt lat="30.78326607" lon="34.75078583"><ele>563.7</ele><time>2013-11-21T12:39:49.0000000+00:00</time></trkpt><trkpt lat="30.78328514" lon="34.75052643"><ele>563.4</ele><time>2013-11-21T12:39:54.0000000+00:00</time></trkpt><trkpt lat="30.78329086" lon="34.75033951"><ele>563.7</ele><time>2013-11-21T12:39:59.0000000+00:00</time></trkpt><trkpt lat="30.78328896" lon="34.75017929"><ele>562.4</ele><time>2013-11-21T12:40:04.0000000+00:00</time></trkpt><trkpt lat="30.78329659" lon="34.75004959"><ele>563.5</ele><time>2013-11-21T12:40:09.0000000+00:00</time></trkpt><trkpt lat="30.7833271" lon="34.74987412"><ele>564.0</ele><time>2013-11-21T12:40:14.0000000+00:00</time></trkpt><trkpt lat="30.78336334" lon="34.74965668"><ele>562.7</ele><time>2013-11-21T12:40:19.0000000+00:00</time></trkpt><trkpt lat="30.78337097" lon="34.74949265"><ele>561.4</ele><time>2013-11-21T12:40:24.0000000+00:00</time></trkpt><trkpt lat="30.78338432" lon="34.74936676"><ele>561.0</ele><time>2013-11-21T12:40:29.0000000+00:00</time></trkpt><trkpt lat="30.78331947" lon="34.7492218"><ele>564.0</ele><time>2013-11-21T12:40:34.0000000+00:00</time></trkpt><trkpt lat="30.78325081" lon="34.74902725"><ele>563.7</ele><time>2013-11-21T12:40:39.0000000+00:00</time></trkpt><trkpt lat="30.78312874" lon="34.74884796"><ele>565.2</ele><time>2013-11-21T12:40:44.0000000+00:00</time></trkpt><trkpt lat="30.78296471" lon="34.7486763"><ele>564.1</ele><time>2013-11-21T12:40:49.0000000+00:00</time></trkpt><trkpt lat="30.78288651" lon="34.74850082"><ele>563.1</ele><time>2013-11-21T12:40:54.0000000+00:00</time></trkpt><trkpt lat="30.78282738" lon="34.74832535"><ele>562.1</ele><time>2013-11-21T12:40:59.0000000+00:00</time></trkpt><trkpt lat="30.78276825" lon="34.74810028"><ele>562.0</ele><time>2013-11-21T12:41:04.0000000+00:00</time></trkpt><trkpt lat="30.78272438" lon="34.74791718"><ele>560.5</ele><time>2013-11-21T12:41:09.0000000+00:00</time></trkpt><trkpt lat="30.78269577" lon="34.74776077"><ele>561.3</ele><time>2013-11-21T12:41:14.0000000+00:00</time></trkpt><trkpt lat="30.78265762" lon="34.74757385"><ele>560.9</ele><time>2013-11-21T12:41:19.0000000+00:00</time></trkpt><trkpt lat="30.78263283" lon="34.74739075"><ele>559.9</ele><time>2013-11-21T12:41:24.0000000+00:00</time></trkpt><trkpt lat="30.78257752" lon="34.74720764"><ele>559.3</ele><time>2013-11-21T12:41:29.0000000+00:00</time></trkpt><trkpt lat="30.78251457" lon="34.74700546"><ele>560.5</ele><time>2013-11-21T12:41:34.0000000+00:00</time></trkpt><trkpt lat="30.78246117" lon="34.74682236"><ele>560.0</ele><time>2013-11-21T12:41:39.0000000+00:00</time></trkpt><trkpt lat="30.78241921" lon="34.74668884"><ele>560.2</ele><time>2013-11-21T12:41:44.0000000+00:00</time></trkpt><trkpt lat="30.78232193" lon="34.74653244"><ele>561.6</ele><time>2013-11-21T12:41:49.0000000+00:00</time></trkpt><trkpt lat="30.7822094" lon="34.74639511"><ele>563.9</ele><time>2013-11-21T12:41:54.0000000+00:00</time></trkpt><trkpt lat="30.78209114" lon="34.74625015"><ele>566.2</ele><time>2013-11-21T12:41:59.0000000+00:00</time></trkpt><trkpt lat="30.78201294" lon="34.74610519"><ele>570.0</ele><time>2013-11-21T12:42:04.0000000+00:00</time></trkpt><trkpt lat="30.78192711" lon="34.74591065"><ele>571.9</ele><time>2013-11-21T12:42:09.0000000+00:00</time></trkpt><trkpt lat="30.78185082" lon="34.74573135"><ele>572.6</ele><time>2013-11-21T12:42:14.0000000+00:00</time></trkpt><trkpt lat="30.78177452" lon="34.74553299"><ele>575.0</ele><time>2013-11-21T12:42:19.0000000+00:00</time></trkpt><trkpt lat="30.78171539" lon="34.74530792"><ele>576.2</ele><time>2013-11-21T12:42:24.0000000+00:00</time></trkpt><trkpt lat="30.78163528" lon="34.74510956"><ele>576.3</ele><time>2013-11-21T12:42:29.0000000+00:00</time></trkpt><trkpt lat="30.78156662" lon="34.74494934"><ele>573.5</ele><time>2013-11-21T12:42:34.0000000+00:00</time></trkpt><trkpt lat="30.7814827" lon="34.74478149"><ele>568.8</ele><time>2013-11-21T12:42:39.0000000+00:00</time></trkpt><trkpt lat="30.78138733" lon="34.74461365"><ele>569.0</ele><time>2013-11-21T12:42:44.0000000+00:00</time></trkpt><trkpt lat="30.78132057" lon="34.74446487"><ele>568.3</ele><time>2013-11-21T12:42:49.0000000+00:00</time></trkpt><trkpt lat="30.78124809" lon="34.74431992"><ele>569.0</ele><time>2013-11-21T12:42:54.0000000+00:00</time></trkpt><trkpt lat="30.78114319" lon="34.74419403"><ele>568.6</ele><time>2013-11-21T12:42:59.0000000+00:00</time></trkpt><trkpt lat="30.78099823" lon="34.74403"><ele>568.4</ele><time>2013-11-21T12:43:04.0000000+00:00</time></trkpt><trkpt lat="30.78092575" lon="34.74388504"><ele>569.2</ele><time>2013-11-21T12:43:09.0000000+00:00</time></trkpt><trkpt lat="30.78080177" lon="34.74369812"><ele>568.1</ele><time>2013-11-21T12:43:14.0000000+00:00</time></trkpt><trkpt lat="30.78068161" lon="34.74353409"><ele>569.1</ele><time>2013-11-21T12:43:19.0000000+00:00</time></trkpt><trkpt lat="30.78055954" lon="34.74338532"><ele>570.0</ele><time>2013-11-21T12:43:24.0000000+00:00</time></trkpt><trkpt lat="30.78041077" lon="34.74326325"><ele>569.6</ele><time>2013-11-21T12:43:29.0000000+00:00</time></trkpt><trkpt lat="30.78023529" lon="34.7432251"><ele>568.8</ele><time>2013-11-21T12:43:34.0000000+00:00</time></trkpt><trkpt lat="30.78009605" lon="34.74319077"><ele>566.4</ele><time>2013-11-21T12:43:39.0000000+00:00</time></trkpt><trkpt lat="30.77995682" lon="34.74316406"><ele>565.2</ele><time>2013-11-21T12:43:44.0000000+00:00</time></trkpt><trkpt lat="30.77978134" lon="34.74307251"><ele>565.5</ele><time>2013-11-21T12:43:49.0000000+00:00</time></trkpt><trkpt lat="30.77961731" lon="34.74294663"><ele>566.7</ele><time>2013-11-21T12:43:54.0000000+00:00</time></trkpt><trkpt lat="30.77942658" lon="34.7428894"><ele>567.2</ele><time>2013-11-21T12:43:59.0000000+00:00</time></trkpt><trkpt lat="30.77923966" lon="34.74291611"><ele>565.0</ele><time>2013-11-21T12:44:04.0000000+00:00</time></trkpt><trkpt lat="30.77910805" lon="34.74302292"><ele>565.6</ele><time>2013-11-21T12:44:09.0000000+00:00</time></trkpt><trkpt lat="30.77894783" lon="34.74312973"><ele>566.7</ele><time>2013-11-21T12:44:14.0000000+00:00</time></trkpt><trkpt lat="30.77880096" lon="34.74324036"><ele>567.2</ele><time>2013-11-21T12:44:19.0000000+00:00</time></trkpt><trkpt lat="30.77862549" lon="34.74332809"><ele>567.6</ele><time>2013-11-21T12:44:24.0000000+00:00</time></trkpt><trkpt lat="30.77843857" lon="34.74343491"><ele>565.2</ele><time>2013-11-21T12:44:29.0000000+00:00</time></trkpt><trkpt lat="30.77823448" lon="34.74354172"><ele>565.4</ele><time>2013-11-21T12:44:34.0000000+00:00</time></trkpt><trkpt lat="30.77806473" lon="34.74365997"><ele>564.8</ele><time>2013-11-21T12:44:39.0000000+00:00</time></trkpt><trkpt lat="30.7778492" lon="34.74376679"><ele>565.4</ele><time>2013-11-21T12:44:44.0000000+00:00</time></trkpt><trkpt lat="30.77765846" lon="34.74376297"><ele>562.8</ele><time>2013-11-21T12:44:49.0000000+00:00</time></trkpt><trkpt lat="30.77745438" lon="34.7437439"><ele>560.3</ele><time>2013-11-21T12:44:54.0000000+00:00</time></trkpt><trkpt lat="30.77723503" lon="34.74376297"><ele>558.9</ele><time>2013-11-21T12:44:59.0000000+00:00</time></trkpt><trkpt lat="30.77704048" lon="34.74379349"><ele>556.9</ele><time>2013-11-21T12:45:04.0000000+00:00</time></trkpt><trkpt lat="30.77681351" lon="34.74382401"><ele>557.9</ele><time>2013-11-21T12:45:09.0000000+00:00</time></trkpt><trkpt lat="30.77661705" lon="34.74375153"><ele>557.3</ele><time>2013-11-21T12:45:14.0000000+00:00</time></trkpt><trkpt lat="30.77638054" lon="34.74366379"><ele>561.3</ele><time>2013-11-21T12:45:19.0000000+00:00</time></trkpt><trkpt lat="30.77615738" lon="34.74355316"><ele>564.5</ele><time>2013-11-21T12:45:24.0000000+00:00</time></trkpt><trkpt lat="30.77593231" lon="34.74344254"><ele>567.9</ele><time>2013-11-21T12:45:29.0000000+00:00</time></trkpt><trkpt lat="30.77569962" lon="34.74333572"><ele>567.8</ele><time>2013-11-21T12:45:34.0000000+00:00</time></trkpt><trkpt lat="30.77545738" lon="34.74320984"><ele>567.4</ele><time>2013-11-21T12:45:39.0000000+00:00</time></trkpt><trkpt lat="30.77524567" lon="34.74310303"><ele>568.1</ele><time>2013-11-21T12:45:44.0000000+00:00</time></trkpt><trkpt lat="30.77502823" lon="34.74300385"><ele>568.4</ele><time>2013-11-21T12:45:49.0000000+00:00</time></trkpt><trkpt lat="30.77483749" lon="34.74292374"><ele>569.7</ele><time>2013-11-21T12:45:54.0000000+00:00</time></trkpt><trkpt lat="30.77465439" lon="34.74284744"><ele>569.2</ele><time>2013-11-21T12:45:59.0000000+00:00</time></trkpt><trkpt lat="30.77450752" lon="34.74274063"><ele>568.6</ele><time>2013-11-21T12:46:04.0000000+00:00</time></trkpt><trkpt lat="30.77439499" lon="34.74251556"><ele>567.7</ele><time>2013-11-21T12:46:09.0000000+00:00</time></trkpt><trkpt lat="30.77421951" lon="34.74227142"><ele>563.5</ele><time>2013-11-21T12:46:14.0000000+00:00</time></trkpt><trkpt lat="30.77410317" lon="34.74211884"><ele>564.8</ele><time>2013-11-21T12:46:19.0000000+00:00</time></trkpt><trkpt lat="30.77400398" lon="34.74204254"><ele>563.2</ele><time>2013-11-21T12:46:24.0000000+00:00</time></trkpt><trkpt lat="30.77389717" lon="34.74196625"><ele>564.2</ele><time>2013-11-21T12:46:29.0000000+00:00</time></trkpt><trkpt lat="30.77375794" lon="34.74183655"><ele>563.4</ele><time>2013-11-21T12:46:34.0000000+00:00</time></trkpt><trkpt lat="30.77363205" lon="34.74168778"><ele>562.0</ele><time>2013-11-21T12:46:39.0000000+00:00</time></trkpt><trkpt lat="30.77348328" lon="34.74152374"><ele>561.0</ele><time>2013-11-21T12:46:44.0000000+00:00</time></trkpt><trkpt lat="30.77338791" lon="34.74135971"><ele>560.2</ele><time>2013-11-21T12:46:49.0000000+00:00</time></trkpt><trkpt lat="30.77330589" lon="34.74114609"><ele>559.2</ele><time>2013-11-21T12:46:54.0000000+00:00</time></trkpt><trkpt lat="30.77324486" lon="34.74097061"><ele>558.8</ele><time>2013-11-21T12:46:59.0000000+00:00</time></trkpt><trkpt lat="30.77326393" lon="34.74098587"><ele>562.8</ele><time>2013-11-21T12:47:04.0000000+00:00</time></trkpt><trkpt lat="30.77326202" lon="34.74098206"><ele>562.9</ele><time>2013-11-21T12:47:09.0000000+00:00</time></trkpt><trkpt lat="30.77326012" lon="34.74098206"><ele>563.0</ele><time>2013-11-21T12:47:14.0000000+00:00</time></trkpt><trkpt lat="30.77325821" lon="34.74097443"><ele>562.9</ele><time>2013-11-21T12:47:19.0000000+00:00</time></trkpt><trkpt lat="30.77325821" lon="34.74097061"><ele>562.9</ele><time>2013-11-21T12:47:24.0000000+00:00</time></trkpt><trkpt lat="30.7732544" lon="34.74095917"><ele>562.9</ele><time>2013-11-21T12:47:29.0000000+00:00</time></trkpt><trkpt lat="30.7732544" lon="34.74095917"><ele>562.9</ele><time>2013-11-21T12:47:34.0000000+00:00</time></trkpt><trkpt lat="30.77324295" lon="34.74095154"><ele>563.0</ele><time>2013-11-21T12:47:39.0000000+00:00</time></trkpt><trkpt lat="30.77322197" lon="34.74095154"><ele>562.9</ele><time>2013-11-21T12:47:44.0000000+00:00</time></trkpt><trkpt lat="30.77320862" lon="34.74094391"><ele>562.8</ele><time>2013-11-21T12:47:49.0000000+00:00</time></trkpt><trkpt lat="30.77319717" lon="34.74095917"><ele>562.8</ele><time>2013-11-21T12:47:54.0000000+00:00</time></trkpt><trkpt lat="30.77317619" lon="34.74098969"><ele>562.7</ele><time>2013-11-21T12:47:59.0000000+00:00</time></trkpt><trkpt lat="30.77313805" lon="34.74100876"><ele>562.9</ele><time>2013-11-21T12:48:04.0000000+00:00</time></trkpt><trkpt lat="30.7731247" lon="34.7409668"><ele>563.2</ele><time>2013-11-21T12:48:09.0000000+00:00</time></trkpt><trkpt lat="30.77313614" lon="34.74092102"><ele>563.2</ele><time>2013-11-21T12:48:14.0000000+00:00</time></trkpt><trkpt lat="30.77314949" lon="34.74085617"><ele>563.1</ele><time>2013-11-21T12:48:19.0000000+00:00</time></trkpt><trkpt lat="30.77315331" lon="34.74081802"><ele>562.1</ele><time>2013-11-21T12:48:24.0000000+00:00</time></trkpt><trkpt lat="30.77316093" lon="34.74078751"><ele>561.8</ele><time>2013-11-21T12:48:29.0000000+00:00</time></trkpt><trkpt lat="30.77316475" lon="34.74077225"><ele>562.0</ele><time>2013-11-21T12:48:34.0000000+00:00</time></trkpt><trkpt lat="30.77317619" lon="34.74073029"><ele>562.1</ele><time>2013-11-21T12:48:39.0000000+00:00</time></trkpt><trkpt lat="30.77316856" lon="34.74068451"><ele>562.6</ele><time>2013-11-21T12:48:44.0000000+00:00</time></trkpt><trkpt lat="30.77317047" lon="34.74061585"><ele>562.3</ele><time>2013-11-21T12:48:49.0000000+00:00</time></trkpt><trkpt lat="30.77316666" lon="34.74061203"><ele>562.1</ele><time>2013-11-21T12:48:54.0000000+00:00</time></trkpt><trkpt lat="30.77316093" lon="34.74055862"><ele>562.1</ele><time>2013-11-21T12:48:59.0000000+00:00</time></trkpt><trkpt lat="30.7731266" lon="34.740448"><ele>561.9</ele><time>2013-11-21T12:49:04.0000000+00:00</time></trkpt><trkpt lat="30.77306747" lon="34.74033356"><ele>561.8</ele><time>2013-11-21T12:49:09.0000000+00:00</time></trkpt><trkpt lat="30.77304268" lon="34.74019623"><ele>561.5</ele><time>2013-11-21T12:49:14.0000000+00:00</time></trkpt><trkpt lat="30.77305985" lon="34.74006271"><ele>561.3</ele><time>2013-11-21T12:49:19.0000000+00:00</time></trkpt><trkpt lat="30.77303886" lon="34.73991013"><ele>561.1</ele><time>2013-11-21T12:49:24.0000000+00:00</time></trkpt><trkpt lat="30.77300072" lon="34.73974228"><ele>560.2</ele><time>2013-11-21T12:49:29.0000000+00:00</time></trkpt><trkpt lat="30.77295303" lon="34.73961639"><ele>558.5</ele><time>2013-11-21T12:49:34.0000000+00:00</time></trkpt><trkpt lat="30.77288437" lon="34.73952103"><ele>556.3</ele><time>2013-11-21T12:49:39.0000000+00:00</time></trkpt><trkpt lat="30.77280426" lon="34.73952103"><ele>556.5</ele><time>2013-11-21T12:49:44.0000000+00:00</time></trkpt><trkpt lat="30.77270317" lon="34.73949051"><ele>556.6</ele><time>2013-11-21T12:49:49.0000000+00:00</time></trkpt><trkpt lat="30.7726078" lon="34.7394104"><ele>558.7</ele><time>2013-11-21T12:49:54.0000000+00:00</time></trkpt><trkpt lat="30.77253532" lon="34.73931122"><ele>561.4</ele><time>2013-11-21T12:49:59.0000000+00:00</time></trkpt><trkpt lat="30.77245522" lon="34.73916245"><ele>560.5</ele><time>2013-11-21T12:50:04.0000000+00:00</time></trkpt><trkpt lat="30.77233124" lon="34.73909378"><ele>564.2</ele><time>2013-11-21T12:50:09.0000000+00:00</time></trkpt><trkpt lat="30.77224731" lon="34.739048"><ele>568.6</ele><time>2013-11-21T12:50:14.0000000+00:00</time></trkpt><trkpt lat="30.7722187" lon="34.73889542"><ele>570.2</ele><time>2013-11-21T12:50:19.0000000+00:00</time></trkpt><trkpt lat="30.77231407" lon="34.7388649"><ele>570.5</ele><time>2013-11-21T12:50:24.0000000+00:00</time></trkpt><trkpt lat="30.77244568" lon="34.73881912"><ele>574.0</ele><time>2013-11-21T12:50:29.0000000+00:00</time></trkpt><trkpt lat="30.77252388" lon="34.73864746"><ele>574.9</ele><time>2013-11-21T12:50:34.0000000+00:00</time></trkpt><trkpt lat="30.77261734" lon="34.73844147"><ele>575.7</ele><time>2013-11-21T12:50:39.0000000+00:00</time></trkpt><trkpt lat="30.77269363" lon="34.73828507"><ele>573.7</ele><time>2013-11-21T12:50:44.0000000+00:00</time></trkpt><trkpt lat="30.77281952" lon="34.73813629"><ele>573.9</ele><time>2013-11-21T12:50:49.0000000+00:00</time></trkpt><trkpt lat="30.77296448" lon="34.73797989"><ele>571.3</ele><time>2013-11-21T12:50:54.0000000+00:00</time></trkpt><trkpt lat="30.7730217" lon="34.73778534"><ele>570.3</ele><time>2013-11-21T12:50:59.0000000+00:00</time></trkpt><trkpt lat="30.77312851" lon="34.73757172"><ele>566.9</ele><time>2013-11-21T12:51:04.0000000+00:00</time></trkpt><trkpt lat="30.77325058" lon="34.73735046"><ele>564.5</ele><time>2013-11-21T12:51:09.0000000+00:00</time></trkpt><trkpt lat="30.77334786" lon="34.73718643"><ele>563.3</ele><time>2013-11-21T12:51:14.0000000+00:00</time></trkpt><trkpt lat="30.77349472" lon="34.73701096"><ele>560.4</ele><time>2013-11-21T12:51:19.0000000+00:00</time></trkpt><trkpt lat="30.77360153" lon="34.73679733"><ele>563.3</ele><time>2013-11-21T12:51:24.0000000+00:00</time></trkpt><trkpt lat="30.7736721" lon="34.73664856"><ele>563.4</ele><time>2013-11-21T12:51:29.0000000+00:00</time></trkpt><trkpt lat="30.7737217" lon="34.73648834"><ele>562.0</ele><time>2013-11-21T12:51:34.0000000+00:00</time></trkpt><trkpt lat="30.77378464" lon="34.73630905"><ele>562.5</ele><time>2013-11-21T12:51:39.0000000+00:00</time></trkpt><trkpt lat="30.77383041" lon="34.73612595"><ele>563.5</ele><time>2013-11-21T12:51:44.0000000+00:00</time></trkpt><trkpt lat="30.77387428" lon="34.73595047"><ele>566.0</ele><time>2013-11-21T12:51:49.0000000+00:00</time></trkpt><trkpt lat="30.77390289" lon="34.73578262"><ele>568.1</ele><time>2013-11-21T12:51:54.0000000+00:00</time></trkpt><trkpt lat="30.77398682" lon="34.73557663"><ele>566.3</ele><time>2013-11-21T12:51:59.0000000+00:00</time></trkpt><trkpt lat="30.77404022" lon="34.73538971"><ele>567.0</ele><time>2013-11-21T12:52:04.0000000+00:00</time></trkpt><trkpt lat="30.77407646" lon="34.73521042"><ele>568.5</ele><time>2013-11-21T12:52:09.0000000+00:00</time></trkpt><trkpt lat="30.77411461" lon="34.73498154"><ele>572.8</ele><time>2013-11-21T12:52:14.0000000+00:00</time></trkpt><trkpt lat="30.77414513" lon="34.73477554"><ele>573.2</ele><time>2013-11-21T12:52:19.0000000+00:00</time></trkpt><trkpt lat="30.77419281" lon="34.73462677"><ele>574.9</ele><time>2013-11-21T12:52:24.0000000+00:00</time></trkpt><trkpt lat="30.77429009" lon="34.73443604"><ele>571.9</ele><time>2013-11-21T12:52:29.0000000+00:00</time></trkpt><trkpt lat="30.77435684" lon="34.73427582"><ele>570.5</ele><time>2013-11-21T12:52:34.0000000+00:00</time></trkpt><trkpt lat="30.77439499" lon="34.73415756"><ele>570.4</ele><time>2013-11-21T12:52:39.0000000+00:00</time></trkpt><trkpt lat="30.77443123" lon="34.73397446"><ele>570.7</ele><time>2013-11-21T12:52:44.0000000+00:00</time></trkpt><trkpt lat="30.77446175" lon="34.7338028"><ele>571.0</ele><time>2013-11-21T12:52:49.0000000+00:00</time></trkpt><trkpt lat="30.77445412" lon="34.73368073"><ele>572.8</ele><time>2013-11-21T12:52:54.0000000+00:00</time></trkpt><trkpt lat="30.77442551" lon="34.73352051"><ele>575.9</ele><time>2013-11-21T12:52:59.0000000+00:00</time></trkpt><trkpt lat="30.77439308" lon="34.7333374"><ele>577.3</ele><time>2013-11-21T12:53:04.0000000+00:00</time></trkpt><trkpt lat="30.77443504" lon="34.73318481"><ele>582.0</ele><time>2013-11-21T12:53:09.0000000+00:00</time></trkpt><trkpt lat="30.77450943" lon="34.73301315"><ele>584.4</ele><time>2013-11-21T12:53:14.0000000+00:00</time></trkpt><trkpt lat="30.77452087" lon="34.73283386"><ele>587.3</ele><time>2013-11-21T12:53:19.0000000+00:00</time></trkpt><trkpt lat="30.77454186" lon="34.73261261"><ele>588.3</ele><time>2013-11-21T12:53:24.0000000+00:00</time></trkpt><trkpt lat="30.77458954" lon="34.73242569"><ele>584.7</ele><time>2013-11-21T12:53:29.0000000+00:00</time></trkpt><trkpt lat="30.77460671" lon="34.73220825"><ele>583.5</ele><time>2013-11-21T12:53:34.0000000+00:00</time></trkpt><trkpt lat="30.7746048" lon="34.73200607"><ele>583.8</ele><time>2013-11-21T12:53:39.0000000+00:00</time></trkpt><trkpt lat="30.77461433" lon="34.73174667"><ele>581.3</ele><time>2013-11-21T12:53:44.0000000+00:00</time></trkpt><trkpt lat="30.77460861" lon="34.73150253"><ele>584.3</ele><time>2013-11-21T12:53:49.0000000+00:00</time></trkpt><trkpt lat="30.77458954" lon="34.73126602"><ele>584.6</ele><time>2013-11-21T12:53:54.0000000+00:00</time></trkpt><trkpt lat="30.77457428" lon="34.73102951"><ele>586.9</ele><time>2013-11-21T12:53:59.0000000+00:00</time></trkpt><trkpt lat="30.77454758" lon="34.73083115"><ele>586.5</ele><time>2013-11-21T12:54:04.0000000+00:00</time></trkpt><trkpt lat="30.77448845" lon="34.73060226"><ele>583.8</ele><time>2013-11-21T12:54:09.0000000+00:00</time></trkpt><trkpt lat="30.77443314" lon="34.73039627"><ele>583.1</ele><time>2013-11-21T12:54:14.0000000+00:00</time></trkpt><trkpt lat="30.77440643" lon="34.73019791"><ele>583.7</ele><time>2013-11-21T12:54:19.0000000+00:00</time></trkpt><trkpt lat="30.77433777" lon="34.72995758"><ele>579.4</ele><time>2013-11-21T12:54:24.0000000+00:00</time></trkpt><trkpt lat="30.77425194" lon="34.72981262"><ele>580.8</ele><time>2013-11-21T12:54:29.0000000+00:00</time></trkpt><trkpt lat="30.77415276" lon="34.72969055"><ele>581.4</ele><time>2013-11-21T12:54:34.0000000+00:00</time></trkpt><trkpt lat="30.77406502" lon="34.7295723"><ele>581.5</ele><time>2013-11-21T12:54:39.0000000+00:00</time></trkpt><trkpt lat="30.77397728" lon="34.72948074"><ele>580.3</ele><time>2013-11-21T12:54:44.0000000+00:00</time></trkpt><trkpt lat="30.77387047" lon="34.72933579"><ele>579.7</ele><time>2013-11-21T12:54:49.0000000+00:00</time></trkpt><trkpt lat="30.77380943" lon="34.72915268"><ele>575.5</ele><time>2013-11-21T12:54:54.0000000+00:00</time></trkpt><trkpt lat="30.77376175" lon="34.72895432"><ele>577.7</ele><time>2013-11-21T12:54:59.0000000+00:00</time></trkpt><trkpt lat="30.77367783" lon="34.72877121"><ele>578.9</ele><time>2013-11-21T12:55:04.0000000+00:00</time></trkpt><trkpt lat="30.77355766" lon="34.72854996"><ele>576.4</ele><time>2013-11-21T12:55:09.0000000+00:00</time></trkpt><trkpt lat="30.77341652" lon="34.72840881"><ele>576.1</ele><time>2013-11-21T12:55:14.0000000+00:00</time></trkpt><trkpt lat="30.77323723" lon="34.72828674"><ele>577.0</ele><time>2013-11-21T12:55:19.0000000+00:00</time></trkpt><trkpt lat="30.77304459" lon="34.72824097"><ele>575.2</ele><time>2013-11-21T12:55:24.0000000+00:00</time></trkpt><trkpt lat="30.77288437" lon="34.72825241"><ele>576.8</ele><time>2013-11-21T12:55:29.0000000+00:00</time></trkpt><trkpt lat="30.77271271" lon="34.72822952"><ele>576.2</ele><time>2013-11-21T12:55:34.0000000+00:00</time></trkpt><trkpt lat="30.77252388" lon="34.72820282"><ele>573.9</ele><time>2013-11-21T12:55:39.0000000+00:00</time></trkpt><trkpt lat="30.77237511" lon="34.72808838"><ele>572.9</ele><time>2013-11-21T12:55:44.0000000+00:00</time></trkpt><trkpt lat="30.77224159" lon="34.72797012"><ele>573.8</ele><time>2013-11-21T12:55:49.0000000+00:00</time></trkpt><trkpt lat="30.77209473" lon="34.72787476"><ele>572.5</ele><time>2013-11-21T12:55:54.0000000+00:00</time></trkpt><trkpt lat="30.77204323" lon="34.72777176"><ele>571.8</ele><time>2013-11-21T12:55:59.0000000+00:00</time></trkpt><trkpt lat="30.77200317" lon="34.72762299"><ele>572.9</ele><time>2013-11-21T12:56:04.0000000+00:00</time></trkpt><trkpt lat="30.77196884" lon="34.72753143"><ele>574.5</ele><time>2013-11-21T12:56:09.0000000+00:00</time></trkpt><trkpt lat="30.77189827" lon="34.72748947"><ele>576.9</ele><time>2013-11-21T12:56:14.0000000+00:00</time></trkpt><trkpt lat="30.77183723" lon="34.72747803"><ele>580.0</ele><time>2013-11-21T12:56:19.0000000+00:00</time></trkpt><trkpt lat="30.77171707" lon="34.72750092"><ele>581.3</ele><time>2013-11-21T12:56:24.0000000+00:00</time></trkpt><trkpt lat="30.77156639" lon="34.72754288"><ele>582.0</ele><time>2013-11-21T12:56:29.0000000+00:00</time></trkpt><trkpt lat="30.77141953" lon="34.72761154"><ele>583.5</ele><time>2013-11-21T12:56:34.0000000+00:00</time></trkpt><trkpt lat="30.77129364" lon="34.72772217"><ele>583.3</ele><time>2013-11-21T12:56:39.0000000+00:00</time></trkpt><trkpt lat="30.77114677" lon="34.72783661"><ele>584.0</ele><time>2013-11-21T12:56:44.0000000+00:00</time></trkpt><trkpt lat="30.77098656" lon="34.72788239"><ele>580.0</ele><time>2013-11-21T12:56:49.0000000+00:00</time></trkpt><trkpt lat="30.77079964" lon="34.72795487"><ele>577.5</ele><time>2013-11-21T12:56:54.0000000+00:00</time></trkpt><trkpt lat="30.7706337" lon="34.72805405"><ele>574.9</ele><time>2013-11-21T12:56:59.0000000+00:00</time></trkpt><trkpt lat="30.77048492" lon="34.72811508"><ele>571.6</ele><time>2013-11-21T12:57:04.0000000+00:00</time></trkpt><trkpt lat="30.77033234" lon="34.72817612"><ele>570.2</ele><time>2013-11-21T12:57:09.0000000+00:00</time></trkpt><trkpt lat="30.77018547" lon="34.72824097"><ele>570.6</ele><time>2013-11-21T12:57:14.0000000+00:00</time></trkpt><trkpt lat="30.76999855" lon="34.72835159"><ele>568.0</ele><time>2013-11-21T12:57:19.0000000+00:00</time></trkpt><trkpt lat="30.7698803" lon="34.72843933"><ele>568.9</ele><time>2013-11-21T12:57:24.0000000+00:00</time></trkpt><trkpt lat="30.76979446" lon="34.72850418"><ele>568.1</ele><time>2013-11-21T12:57:29.0000000+00:00</time></trkpt><trkpt lat="30.76972771" lon="34.72855759"><ele>567.5</ele><time>2013-11-21T12:57:34.0000000+00:00</time></trkpt><trkpt lat="30.76968575" lon="34.72861099"><ele>568.6</ele><time>2013-11-21T12:57:39.0000000+00:00</time></trkpt><trkpt lat="30.76958656" lon="34.72867203"><ele>570.3</ele><time>2013-11-21T12:57:44.0000000+00:00</time></trkpt><trkpt lat="30.76947403" lon="34.72879791"><ele>571.1</ele><time>2013-11-21T12:57:49.0000000+00:00</time></trkpt><trkpt lat="30.76939392" lon="34.72888565"><ele>572.4</ele><time>2013-11-21T12:57:54.0000000+00:00</time></trkpt><trkpt lat="30.76933479" lon="34.72897339"><ele>574.8</ele><time>2013-11-21T12:57:59.0000000+00:00</time></trkpt><trkpt lat="30.7692318" lon="34.72908783"><ele>577.7</ele><time>2013-11-21T12:58:04.0000000+00:00</time></trkpt><trkpt lat="30.76909638" lon="34.72913742"><ele>576.1</ele><time>2013-11-21T12:58:09.0000000+00:00</time></trkpt><trkpt lat="30.7689724" lon="34.72919464"><ele>575.7</ele><time>2013-11-21T12:58:14.0000000+00:00</time></trkpt><trkpt lat="30.76885223" lon="34.72919464"><ele>574.4</ele><time>2013-11-21T12:58:19.0000000+00:00</time></trkpt><trkpt lat="30.76876068" lon="34.72916031"><ele>571.6</ele><time>2013-11-21T12:58:24.0000000+00:00</time></trkpt><trkpt lat="30.7686882" lon="34.72909164"><ele>570.0</ele><time>2013-11-21T12:58:29.0000000+00:00</time></trkpt><trkpt lat="30.76861382" lon="34.72903061"><ele>571.5</ele><time>2013-11-21T12:58:34.0000000+00:00</time></trkpt><trkpt lat="30.76854134" lon="34.72897339"><ele>574.6</ele><time>2013-11-21T12:58:39.0000000+00:00</time></trkpt><trkpt lat="30.76847458" lon="34.72892761"><ele>574.9</ele><time>2013-11-21T12:58:44.0000000+00:00</time></trkpt><trkpt lat="30.7683754" lon="34.7288475"><ele>575.3</ele><time>2013-11-21T12:58:49.0000000+00:00</time></trkpt><trkpt lat="30.76827812" lon="34.72874832"><ele>575.8</ele><time>2013-11-21T12:58:54.0000000+00:00</time></trkpt><trkpt lat="30.76821518" lon="34.72865677"><ele>577.4</ele><time>2013-11-21T12:58:59.0000000+00:00</time></trkpt><trkpt lat="30.7681427" lon="34.72860336"><ele>578.8</ele><time>2013-11-21T12:59:04.0000000+00:00</time></trkpt><trkpt lat="30.76804543" lon="34.72852325"><ele>579.3</ele><time>2013-11-21T12:59:09.0000000+00:00</time></trkpt><trkpt lat="30.76795769" lon="34.72842026"><ele>577.3</ele><time>2013-11-21T12:59:14.0000000+00:00</time></trkpt><trkpt lat="30.7678299" lon="34.72829056"><ele>580.3</ele><time>2013-11-21T12:59:19.0000000+00:00</time></trkpt><trkpt lat="30.76770592" lon="34.72811508"><ele>579.9</ele><time>2013-11-21T12:59:24.0000000+00:00</time></trkpt><trkpt lat="30.76759911" lon="34.72795487"><ele>580.4</ele><time>2013-11-21T12:59:29.0000000+00:00</time></trkpt><trkpt lat="30.76749229" lon="34.72780228"><ele>578.0</ele><time>2013-11-21T12:59:34.0000000+00:00</time></trkpt><trkpt lat="30.76734352" lon="34.72771454"><ele>575.5</ele><time>2013-11-21T12:59:39.0000000+00:00</time></trkpt><trkpt lat="30.76712799" lon="34.72768402"><ele>575.6</ele><time>2013-11-21T12:59:44.0000000+00:00</time></trkpt><trkpt lat="30.76700592" lon="34.72763062"><ele>575.9</ele><time>2013-11-21T12:59:49.0000000+00:00</time></trkpt><trkpt lat="30.76690483" lon="34.72758102"><ele>577.6</ele><time>2013-11-21T12:59:54.0000000+00:00</time></trkpt><trkpt lat="30.76684189" lon="34.72751236"><ele>577.4</ele><time>2013-11-21T12:59:59.0000000+00:00</time></trkpt><trkpt lat="30.76683235" lon="34.72736359"><ele>576.8</ele><time>2013-11-21T13:00:04.0000000+00:00</time></trkpt><trkpt lat="30.76682472" lon="34.72731018"><ele>578.3</ele><time>2013-11-21T13:00:09.0000000+00:00</time></trkpt><trkpt lat="30.76682091" lon="34.727314"><ele>578.1</ele><time>2013-11-21T13:00:14.0000000+00:00</time></trkpt><trkpt lat="30.76682091" lon="34.72731018"><ele>578.0</ele><time>2013-11-21T13:00:19.0000000+00:00</time></trkpt><trkpt lat="30.76681709" lon="34.72730637"><ele>578.1</ele><time>2013-11-21T13:00:24.0000000+00:00</time></trkpt><trkpt lat="30.76681328" lon="34.72730255"><ele>578.1</ele><time>2013-11-21T13:00:29.0000000+00:00</time></trkpt><trkpt lat="30.76681328" lon="34.72730255"><ele>578.1</ele><time>2013-11-21T13:00:34.0000000+00:00</time></trkpt><trkpt lat="30.76681519" lon="34.72730255"><ele>578.1</ele><time>2013-11-21T13:00:39.0000000+00:00</time></trkpt><trkpt lat="30.76681519" lon="34.72730255"><ele>578.1</ele><time>2013-11-21T13:00:44.0000000+00:00</time></trkpt><trkpt lat="30.76681328" lon="34.72729874"><ele>578.1</ele><time>2013-11-21T13:00:49.0000000+00:00</time></trkpt><trkpt lat="30.76681137" lon="34.72729874"><ele>578.2</ele><time>2013-11-21T13:00:54.0000000+00:00</time></trkpt><trkpt lat="30.76681137" lon="34.72729874"><ele>578.2</ele><time>2013-11-21T13:00:59.0000000+00:00</time></trkpt><trkpt lat="30.76681137" lon="34.72729874"><ele>578.2</ele><time>2013-11-21T13:01:04.0000000+00:00</time></trkpt><trkpt lat="30.76681137" lon="34.72729492"><ele>578.1</ele><time>2013-11-21T13:01:09.0000000+00:00</time></trkpt><trkpt lat="30.76680946" lon="34.72729492"><ele>578.1</ele><time>2013-11-21T13:01:14.0000000+00:00</time></trkpt><trkpt lat="30.76680946" lon="34.72729492"><ele>578.1</ele><time>2013-11-21T13:01:19.0000000+00:00</time></trkpt><trkpt lat="30.76680565" lon="34.72729492"><ele>578.2</ele><time>2013-11-21T13:01:24.0000000+00:00</time></trkpt><trkpt lat="30.76678658" lon="34.72728729"><ele>578.2</ele><time>2013-11-21T13:01:29.0000000+00:00</time></trkpt><trkpt lat="30.76670837" lon="34.72722626"><ele>577.8</ele><time>2013-11-21T13:01:34.0000000+00:00</time></trkpt><trkpt lat="30.76665878" lon="34.72721481"><ele>577.0</ele><time>2013-11-21T13:01:39.0000000+00:00</time></trkpt><trkpt lat="30.76660919" lon="34.72722626"><ele>576.6</ele><time>2013-11-21T13:01:44.0000000+00:00</time></trkpt><trkpt lat="30.76656914" lon="34.72724533"><ele>577.2</ele><time>2013-11-21T13:01:49.0000000+00:00</time></trkpt><trkpt lat="30.76654816" lon="34.72729874"><ele>577.8</ele><time>2013-11-21T13:01:54.0000000+00:00</time></trkpt><trkpt lat="30.76652145" lon="34.7273407"><ele>579.0</ele><time>2013-11-21T13:01:59.0000000+00:00</time></trkpt><trkpt lat="30.76649857" lon="34.72738266"><ele>580.0</ele><time>2013-11-21T13:02:04.0000000+00:00</time></trkpt><trkpt lat="30.76648331" lon="34.72741699"><ele>580.2</ele><time>2013-11-21T13:02:09.0000000+00:00</time></trkpt><trkpt lat="30.76646233" lon="34.72745514"><ele>580.5</ele><time>2013-11-21T13:02:14.0000000+00:00</time></trkpt><trkpt lat="30.76644516" lon="34.72749329"><ele>581.3</ele><time>2013-11-21T13:02:19.0000000+00:00</time></trkpt><trkpt lat="30.76641464" lon="34.72751236"><ele>581.7</ele><time>2013-11-21T13:02:24.0000000+00:00</time></trkpt><trkpt lat="30.76639175" lon="34.72754669"><ele>582.2</ele><time>2013-11-21T13:02:29.0000000+00:00</time></trkpt><trkpt lat="30.76637268" lon="34.72756195"><ele>582.2</ele><time>2013-11-21T13:02:34.0000000+00:00</time></trkpt><trkpt lat="30.76634598" lon="34.72755814"><ele>583.5</ele><time>2013-11-21T13:02:39.0000000+00:00</time></trkpt><trkpt lat="30.76631546" lon="34.72758484"><ele>583.5</ele><time>2013-11-21T13:02:44.0000000+00:00</time></trkpt><trkpt lat="30.76629829" lon="34.7276268"><ele>584.9</ele><time>2013-11-21T13:02:49.0000000+00:00</time></trkpt><trkpt lat="30.76627541" lon="34.72768402"><ele>585.3</ele><time>2013-11-21T13:02:54.0000000+00:00</time></trkpt><trkpt lat="30.7662468" lon="34.72772217"><ele>585.9</ele><time>2013-11-21T13:02:59.0000000+00:00</time></trkpt><trkpt lat="30.76621819" lon="34.72774506"><ele>585.7</ele><time>2013-11-21T13:03:04.0000000+00:00</time></trkpt><trkpt lat="30.76620865" lon="34.72776794"><ele>587.5</ele><time>2013-11-21T13:03:09.0000000+00:00</time></trkpt><trkpt lat="30.76619339" lon="34.72778702"><ele>588.9</ele><time>2013-11-21T13:03:14.0000000+00:00</time></trkpt><trkpt lat="30.7661705" lon="34.72780609"><ele>589.6</ele><time>2013-11-21T13:03:19.0000000+00:00</time></trkpt><trkpt lat="30.76616097" lon="34.7277832"><ele>592.0</ele><time>2013-11-21T13:03:24.0000000+00:00</time></trkpt><trkpt lat="30.76614761" lon="34.72777939"><ele>592.3</ele><time>2013-11-21T13:03:29.0000000+00:00</time></trkpt><trkpt lat="30.76614571" lon="34.72777939"><ele>592.4</ele><time>2013-11-21T13:03:34.0000000+00:00</time></trkpt><trkpt lat="30.76613426" lon="34.72777557"><ele>592.8</ele><time>2013-11-21T13:03:39.0000000+00:00</time></trkpt><trkpt lat="30.76608849" lon="34.72774887"><ele>595.0</ele><time>2013-11-21T13:03:44.0000000+00:00</time></trkpt><trkpt lat="30.76603699" lon="34.72771072"><ele>596.0</ele><time>2013-11-21T13:03:49.0000000+00:00</time></trkpt><trkpt lat="30.76595879" lon="34.72770309"><ele>596.3</ele><time>2013-11-21T13:03:54.0000000+00:00</time></trkpt><trkpt lat="30.76594353" lon="34.72772217"><ele>598.4</ele><time>2013-11-21T13:03:59.0000000+00:00</time></trkpt><trkpt lat="30.76593971" lon="34.72776032"><ele>599.9</ele><time>2013-11-21T13:04:04.0000000+00:00</time></trkpt><trkpt lat="30.76592445" lon="34.72783661"><ele>601.0</ele><time>2013-11-21T13:04:09.0000000+00:00</time></trkpt><trkpt lat="30.76590729" lon="34.7278595"><ele>601.4</ele><time>2013-11-21T13:04:14.0000000+00:00</time></trkpt><trkpt lat="30.76589394" lon="34.72785187"><ele>601.2</ele><time>2013-11-21T13:04:19.0000000+00:00</time></trkpt><trkpt lat="30.76592445" lon="34.72789383"><ele>600.7</ele><time>2013-11-21T13:04:24.0000000+00:00</time></trkpt><trkpt lat="30.76605797" lon="34.72803497"><ele>599.7</ele><time>2013-11-21T13:04:29.0000000+00:00</time></trkpt><trkpt lat="30.76626205" lon="34.7282753"><ele>599.0</ele><time>2013-11-21T13:04:34.0000000+00:00</time></trkpt><trkpt lat="30.76648903" lon="34.72853088"><ele>598.1</ele><time>2013-11-21T13:04:39.0000000+00:00</time></trkpt><trkpt lat="30.76671982" lon="34.72883987"><ele>599.0</ele><time>2013-11-21T13:04:44.0000000+00:00</time></trkpt><trkpt lat="30.76693916" lon="34.72915649"><ele>599.9</ele><time>2013-11-21T13:04:49.0000000+00:00</time></trkpt><trkpt lat="30.76711083" lon="34.72948074"><ele>597.9</ele><time>2013-11-21T13:04:54.0000000+00:00</time></trkpt><trkpt lat="30.76724815" lon="34.72979355"><ele>598.9</ele><time>2013-11-21T13:04:59.0000000+00:00</time></trkpt><trkpt lat="30.76735878" lon="34.73007202"><ele>601.5</ele><time>2013-11-21T13:05:04.0000000+00:00</time></trkpt><trkpt lat="30.76742935" lon="34.7303009"><ele>602.6</ele><time>2013-11-21T13:05:09.0000000+00:00</time></trkpt><trkpt lat="30.76746941" lon="34.73048019"><ele>604.2</ele><time>2013-11-21T13:05:14.0000000+00:00</time></trkpt><trkpt lat="30.76750755" lon="34.73065567"><ele>604.2</ele><time>2013-11-21T13:05:19.0000000+00:00</time></trkpt><trkpt lat="30.76755524" lon="34.73084641"><ele>604.3</ele><time>2013-11-21T13:05:24.0000000+00:00</time></trkpt><trkpt lat="30.76757622" lon="34.73098373"><ele>604.7</ele><time>2013-11-21T13:05:29.0000000+00:00</time></trkpt><trkpt lat="30.76760101" lon="34.73112488"><ele>605.4</ele><time>2013-11-21T13:05:34.0000000+00:00</time></trkpt><trkpt lat="30.76761246" lon="34.73124695"><ele>606.1</ele><time>2013-11-21T13:05:39.0000000+00:00</time></trkpt><trkpt lat="30.7676487" lon="34.73139572"><ele>606.6</ele><time>2013-11-21T13:05:44.0000000+00:00</time></trkpt><trkpt lat="30.76766205" lon="34.7314949"><ele>607.3</ele><time>2013-11-21T13:05:49.0000000+00:00</time></trkpt><trkpt lat="30.76768303" lon="34.73160172"><ele>607.9</ele><time>2013-11-21T13:05:54.0000000+00:00</time></trkpt><trkpt lat="30.76769447" lon="34.73173904"><ele>608.4</ele><time>2013-11-21T13:05:59.0000000+00:00</time></trkpt><trkpt lat="30.76768684" lon="34.73184204"><ele>608.7</ele><time>2013-11-21T13:06:04.0000000+00:00</time></trkpt><trkpt lat="30.76766777" lon="34.73196411"><ele>609.5</ele><time>2013-11-21T13:06:09.0000000+00:00</time></trkpt><trkpt lat="30.7676487" lon="34.73208618"><ele>610.5</ele><time>2013-11-21T13:06:14.0000000+00:00</time></trkpt><trkpt lat="30.76762199" lon="34.73218155"><ele>612.4</ele><time>2013-11-21T13:06:19.0000000+00:00</time></trkpt><trkpt lat="30.76762772" lon="34.73226929"><ele>612.8</ele><time>2013-11-21T13:06:24.0000000+00:00</time></trkpt><trkpt lat="30.76761818" lon="34.73233032"><ele>612.7</ele><time>2013-11-21T13:06:29.0000000+00:00</time></trkpt><trkpt lat="30.76759338" lon="34.7324028"><ele>613.9</ele><time>2013-11-21T13:06:34.0000000+00:00</time></trkpt><trkpt lat="30.76757813" lon="34.73249817"><ele>615.7</ele><time>2013-11-21T13:06:39.0000000+00:00</time></trkpt><trkpt lat="30.76753235" lon="34.73262405"><ele>618.2</ele><time>2013-11-21T13:06:44.0000000+00:00</time></trkpt><trkpt lat="30.76754379" lon="34.73271179"><ele>619.1</ele><time>2013-11-21T13:06:49.0000000+00:00</time></trkpt><trkpt lat="30.76754189" lon="34.73281097"><ele>619.6</ele><time>2013-11-21T13:06:54.0000000+00:00</time></trkpt><trkpt lat="30.76752853" lon="34.73292923"><ele>620.7</ele><time>2013-11-21T13:06:59.0000000+00:00</time></trkpt><trkpt lat="30.76749611" lon="34.73304367"><ele>621.1</ele><time>2013-11-21T13:07:04.0000000+00:00</time></trkpt><trkpt lat="30.76747322" lon="34.73318481"><ele>623.6</ele><time>2013-11-21T13:07:09.0000000+00:00</time></trkpt><trkpt lat="30.76745224" lon="34.73332596"><ele>624.1</ele><time>2013-11-21T13:07:14.0000000+00:00</time></trkpt><trkpt lat="30.76742172" lon="34.73342896"><ele>624.5</ele><time>2013-11-21T13:07:19.0000000+00:00</time></trkpt><trkpt lat="30.76740646" lon="34.73350906"><ele>625.7</ele><time>2013-11-21T13:07:24.0000000+00:00</time></trkpt><trkpt lat="30.76736069" lon="34.73362351"><ele>629.3</ele><time>2013-11-21T13:07:29.0000000+00:00</time></trkpt><trkpt lat="30.76732063" lon="34.73373032"><ele>629.8</ele><time>2013-11-21T13:07:34.0000000+00:00</time></trkpt><trkpt lat="30.76728821" lon="34.73379517"><ele>631.1</ele><time>2013-11-21T13:07:39.0000000+00:00</time></trkpt><trkpt lat="30.76724815" lon="34.73386765"><ele>632.5</ele><time>2013-11-21T13:07:44.0000000+00:00</time></trkpt><trkpt lat="30.76719666" lon="34.73394394"><ele>632.6</ele><time>2013-11-21T13:07:49.0000000+00:00</time></trkpt><trkpt lat="30.76715851" lon="34.73403931"><ele>633.5</ele><time>2013-11-21T13:07:54.0000000+00:00</time></trkpt><trkpt lat="30.76711464" lon="34.73414993"><ele>633.8</ele><time>2013-11-21T13:07:59.0000000+00:00</time></trkpt><trkpt lat="30.76704216" lon="34.73427582"><ele>634.6</ele><time>2013-11-21T13:08:04.0000000+00:00</time></trkpt><trkpt lat="30.76699257" lon="34.7344017"><ele>634.2</ele><time>2013-11-21T13:08:09.0000000+00:00</time></trkpt><trkpt lat="30.76696777" lon="34.73446274"><ele>637.7</ele><time>2013-11-21T13:08:14.0000000+00:00</time></trkpt><trkpt lat="30.76688767" lon="34.73456574"><ele>639.1</ele><time>2013-11-21T13:08:19.0000000+00:00</time></trkpt><trkpt lat="30.76681519" lon="34.73471069"><ele>640.6</ele><time>2013-11-21T13:08:24.0000000+00:00</time></trkpt><trkpt lat="30.76675415" lon="34.73482132"><ele>641.9</ele><time>2013-11-21T13:08:29.0000000+00:00</time></trkpt><trkpt lat="30.7667408" lon="34.73488617"><ele>644.8</ele><time>2013-11-21T13:08:34.0000000+00:00</time></trkpt><trkpt lat="30.76669502" lon="34.73497772"><ele>645.8</ele><time>2013-11-21T13:08:39.0000000+00:00</time></trkpt><trkpt lat="30.76661682" lon="34.73508072"><ele>646.5</ele><time>2013-11-21T13:08:44.0000000+00:00</time></trkpt><trkpt lat="30.76654434" lon="34.73521042"><ele>646.9</ele><time>2013-11-21T13:08:49.0000000+00:00</time></trkpt><trkpt lat="30.7664814" lon="34.73530579"><ele>647.2</ele><time>2013-11-21T13:08:54.0000000+00:00</time></trkpt><trkpt lat="30.76642036" lon="34.73542786"><ele>649.5</ele><time>2013-11-21T13:08:59.0000000+00:00</time></trkpt><trkpt lat="30.76635552" lon="34.73553467"><ele>651.0</ele><time>2013-11-21T13:09:04.0000000+00:00</time></trkpt><trkpt lat="30.76628113" lon="34.73565292"><ele>651.1</ele><time>2013-11-21T13:09:09.0000000+00:00</time></trkpt><trkpt lat="30.766222" lon="34.73577118"><ele>651.0</ele><time>2013-11-21T13:09:14.0000000+00:00</time></trkpt><trkpt lat="30.76615334" lon="34.73586655"><ele>651.1</ele><time>2013-11-21T13:09:19.0000000+00:00</time></trkpt><trkpt lat="30.76606369" lon="34.73598099"><ele>651.7</ele><time>2013-11-21T13:09:24.0000000+00:00</time></trkpt><trkpt lat="30.76600838" lon="34.73608398"><ele>652.5</ele><time>2013-11-21T13:09:29.0000000+00:00</time></trkpt><trkpt lat="30.76594353" lon="34.7361908"><ele>653.4</ele><time>2013-11-21T13:09:34.0000000+00:00</time></trkpt><trkpt lat="30.76588821" lon="34.73626328"><ele>654.0</ele><time>2013-11-21T13:09:39.0000000+00:00</time></trkpt><trkpt lat="30.76580048" lon="34.73637772"><ele>655.3</ele><time>2013-11-21T13:09:44.0000000+00:00</time></trkpt><trkpt lat="30.76574135" lon="34.73647308"><ele>656.3</ele><time>2013-11-21T13:09:49.0000000+00:00</time></trkpt><trkpt lat="30.76567268" lon="34.73661804"><ele>657.3</ele><time>2013-11-21T13:09:54.0000000+00:00</time></trkpt><trkpt lat="30.76560783" lon="34.73677445"><ele>659.8</ele><time>2013-11-21T13:09:59.0000000+00:00</time></trkpt><trkpt lat="30.76554871" lon="34.73690033"><ele>662.4</ele><time>2013-11-21T13:10:04.0000000+00:00</time></trkpt><trkpt lat="30.76548576" lon="34.73701096"><ele>664.5</ele><time>2013-11-21T13:10:09.0000000+00:00</time></trkpt><trkpt lat="30.76537132" lon="34.73714066"><ele>665.1</ele><time>2013-11-21T13:10:14.0000000+00:00</time></trkpt><trkpt lat="30.76528168" lon="34.73727417"><ele>665.8</ele><time>2013-11-21T13:10:19.0000000+00:00</time></trkpt><trkpt lat="30.76520729" lon="34.7373848"><ele>666.4</ele><time>2013-11-21T13:10:24.0000000+00:00</time></trkpt><trkpt lat="30.76512337" lon="34.73753357"><ele>667.3</ele><time>2013-11-21T13:10:29.0000000+00:00</time></trkpt><trkpt lat="30.76505089" lon="34.73767471"><ele>667.8</ele><time>2013-11-21T13:10:34.0000000+00:00</time></trkpt><trkpt lat="30.76495743" lon="34.73778915"><ele>667.9</ele><time>2013-11-21T13:10:39.0000000+00:00</time></trkpt><trkpt lat="30.76487923" lon="34.73794556"><ele>664.8</ele><time>2013-11-21T13:10:44.0000000+00:00</time></trkpt><trkpt lat="30.76480866" lon="34.73812485"><ele>659.8</ele><time>2013-11-21T13:10:49.0000000+00:00</time></trkpt><trkpt lat="30.76476288" lon="34.73831177"><ele>657.6</ele><time>2013-11-21T13:10:54.0000000+00:00</time></trkpt><trkpt lat="30.76468277" lon="34.7384758"><ele>656.2</ele><time>2013-11-21T13:10:59.0000000+00:00</time></trkpt><trkpt lat="30.76458359" lon="34.73865891"><ele>655.0</ele><time>2013-11-21T13:11:04.0000000+00:00</time></trkpt><trkpt lat="30.76450539" lon="34.73883057"><ele>652.8</ele><time>2013-11-21T13:11:09.0000000+00:00</time></trkpt><trkpt lat="30.76443291" lon="34.73898697"><ele>656.0</ele><time>2013-11-21T13:11:14.0000000+00:00</time></trkpt><trkpt lat="30.76436424" lon="34.73915482"><ele>656.0</ele><time>2013-11-21T13:11:19.0000000+00:00</time></trkpt><trkpt lat="30.76428413" lon="34.73928452"><ele>658.5</ele><time>2013-11-21T13:11:24.0000000+00:00</time></trkpt><trkpt lat="30.7641964" lon="34.7394371"><ele>659.4</ele><time>2013-11-21T13:11:29.0000000+00:00</time></trkpt><trkpt lat="30.76412392" lon="34.73961639"><ele>658.9</ele><time>2013-11-21T13:11:34.0000000+00:00</time></trkpt><trkpt lat="30.76402092" lon="34.73980713"><ele>658.4</ele><time>2013-11-21T13:11:39.0000000+00:00</time></trkpt><trkpt lat="30.763937" lon="34.73998261"><ele>657.5</ele><time>2013-11-21T13:11:44.0000000+00:00</time></trkpt><trkpt lat="30.76383972" lon="34.74019241"><ele>656.8</ele><time>2013-11-21T13:11:49.0000000+00:00</time></trkpt><trkpt lat="30.76372337" lon="34.74043274"><ele>657.5</ele><time>2013-11-21T13:11:54.0000000+00:00</time></trkpt><trkpt lat="30.76362228" lon="34.74067688"><ele>658.9</ele><time>2013-11-21T13:11:59.0000000+00:00</time></trkpt><trkpt lat="30.7635231" lon="34.74092102"><ele>658.4</ele><time>2013-11-21T13:12:04.0000000+00:00</time></trkpt><trkpt lat="30.76341629" lon="34.74116135"><ele>662.2</ele><time>2013-11-21T13:12:09.0000000+00:00</time></trkpt><trkpt lat="30.76330757" lon="34.74139404"><ele>664.9</ele><time>2013-11-21T13:12:14.0000000+00:00</time></trkpt><trkpt lat="30.76320648" lon="34.74163818"><ele>664.7</ele><time>2013-11-21T13:12:19.0000000+00:00</time></trkpt><trkpt lat="30.76309204" lon="34.74189758"><ele>665.6</ele><time>2013-11-21T13:12:24.0000000+00:00</time></trkpt><trkpt lat="30.7630024" lon="34.74213791"><ele>665.1</ele><time>2013-11-21T13:12:29.0000000+00:00</time></trkpt><trkpt lat="30.76287651" lon="34.74243164"><ele>667.1</ele><time>2013-11-21T13:12:34.0000000+00:00</time></trkpt><trkpt lat="30.76276588" lon="34.74270248"><ele>667.0</ele><time>2013-11-21T13:12:39.0000000+00:00</time></trkpt><trkpt lat="30.76264954" lon="34.74295425"><ele>670.3</ele><time>2013-11-21T13:12:44.0000000+00:00</time></trkpt><trkpt lat="30.7625618" lon="34.74317169"><ele>671.7</ele><time>2013-11-21T13:12:49.0000000+00:00</time></trkpt><trkpt lat="30.76246643" lon="34.74338913"><ele>673.0</ele><time>2013-11-21T13:12:54.0000000+00:00</time></trkpt><trkpt lat="30.76235199" lon="34.74363327"><ele>673.8</ele><time>2013-11-21T13:12:59.0000000+00:00</time></trkpt><trkpt lat="30.76224899" lon="34.74387741"><ele>675.3</ele><time>2013-11-21T13:13:04.0000000+00:00</time></trkpt><trkpt lat="30.76214981" lon="34.74409485"><ele>676.4</ele><time>2013-11-21T13:13:09.0000000+00:00</time></trkpt><trkpt lat="30.76208496" lon="34.7442894"><ele>674.6</ele><time>2013-11-21T13:13:14.0000000+00:00</time></trkpt><trkpt lat="30.76202393" lon="34.74443817"><ele>674.2</ele><time>2013-11-21T13:13:19.0000000+00:00</time></trkpt><trkpt lat="30.76196671" lon="34.74458695"><ele>673.4</ele><time>2013-11-21T13:13:24.0000000+00:00</time></trkpt><trkpt lat="30.76189613" lon="34.74478149"><ele>672.2</ele><time>2013-11-21T13:13:29.0000000+00:00</time></trkpt><trkpt lat="30.76179886" lon="34.74497986"><ele>670.0</ele><time>2013-11-21T13:13:34.0000000+00:00</time></trkpt><trkpt lat="30.76170349" lon="34.74520874"><ele>668.8</ele><time>2013-11-21T13:13:39.0000000+00:00</time></trkpt><trkpt lat="30.76159096" lon="34.74542999"><ele>671.6</ele><time>2013-11-21T13:13:44.0000000+00:00</time></trkpt><trkpt lat="30.76149368" lon="34.74565125"><ele>671.9</ele><time>2013-11-21T13:13:49.0000000+00:00</time></trkpt><trkpt lat="30.76140022" lon="34.74588394"><ele>672.9</ele><time>2013-11-21T13:13:54.0000000+00:00</time></trkpt><trkpt lat="30.76130867" lon="34.74609757"><ele>673.4</ele><time>2013-11-21T13:13:59.0000000+00:00</time></trkpt><trkpt lat="30.76121903" lon="34.74633026"><ele>673.5</ele><time>2013-11-21T13:14:04.0000000+00:00</time></trkpt><trkpt lat="30.76111221" lon="34.74652863"><ele>671.6</ele><time>2013-11-21T13:14:09.0000000+00:00</time></trkpt><trkpt lat="30.7610302" lon="34.74674225"><ele>671.5</ele><time>2013-11-21T13:14:14.0000000+00:00</time></trkpt><trkpt lat="30.76092529" lon="34.7469902"><ele>673.5</ele><time>2013-11-21T13:14:19.0000000+00:00</time></trkpt><trkpt lat="30.76082802" lon="34.74720383"><ele>676.6</ele><time>2013-11-21T13:14:24.0000000+00:00</time></trkpt><trkpt lat="30.76071739" lon="34.74743652"><ele>678.2</ele><time>2013-11-21T13:14:29.0000000+00:00</time></trkpt><trkpt lat="30.76059341" lon="34.74766922"><ele>681.7</ele><time>2013-11-21T13:14:34.0000000+00:00</time></trkpt><trkpt lat="30.76047325" lon="34.74790192"><ele>685.2</ele><time>2013-11-21T13:14:39.0000000+00:00</time></trkpt><trkpt lat="30.76032448" lon="34.74813843"><ele>684.5</ele><time>2013-11-21T13:14:44.0000000+00:00</time></trkpt><trkpt lat="30.76017952" lon="34.74832916"><ele>681.2</ele><time>2013-11-21T13:14:49.0000000+00:00</time></trkpt><trkpt lat="30.7600441" lon="34.74850464"><ele>680.8</ele><time>2013-11-21T13:14:54.0000000+00:00</time></trkpt><trkpt lat="30.7599144" lon="34.74868774"><ele>679.1</ele><time>2013-11-21T13:14:59.0000000+00:00</time></trkpt><trkpt lat="30.75978851" lon="34.74881744"><ele>673.5</ele><time>2013-11-21T13:15:04.0000000+00:00</time></trkpt><trkpt lat="30.75965118" lon="34.74896622"><ele>668.5</ele><time>2013-11-21T13:15:09.0000000+00:00</time></trkpt><trkpt lat="30.75949097" lon="34.74914169"><ele>664.8</ele><time>2013-11-21T13:15:14.0000000+00:00</time></trkpt><trkpt lat="30.75937271" lon="34.74926376"><ele>659.6</ele><time>2013-11-21T13:15:19.0000000+00:00</time></trkpt><trkpt lat="30.75921631" lon="34.7494278"><ele>657.3</ele><time>2013-11-21T13:15:24.0000000+00:00</time></trkpt><trkpt lat="30.75904656" lon="34.74961853"><ele>654.7</ele><time>2013-11-21T13:15:29.0000000+00:00</time></trkpt><trkpt lat="30.75886536" lon="34.74976349"><ele>652.5</ele><time>2013-11-21T13:15:34.0000000+00:00</time></trkpt><trkpt lat="30.75870514" lon="34.74988556"><ele>649.4</ele><time>2013-11-21T13:15:39.0000000+00:00</time></trkpt><trkpt lat="30.7585144" lon="34.75003815"><ele>647.9</ele><time>2013-11-21T13:15:44.0000000+00:00</time></trkpt><trkpt lat="30.75831604" lon="34.75017166"><ele>645.1</ele><time>2013-11-21T13:15:49.0000000+00:00</time></trkpt><trkpt lat="30.75809288" lon="34.75031662"><ele>642.8</ele><time>2013-11-21T13:15:54.0000000+00:00</time></trkpt><trkpt lat="30.7578907" lon="34.75045013"><ele>642.2</ele><time>2013-11-21T13:15:59.0000000+00:00</time></trkpt><trkpt lat="30.75772476" lon="34.7505455"><ele>643.6</ele><time>2013-11-21T13:16:04.0000000+00:00</time></trkpt><trkpt lat="30.75755501" lon="34.75066757"><ele>643.3</ele><time>2013-11-21T13:16:09.0000000+00:00</time></trkpt><trkpt lat="30.75734139" lon="34.75081635"><ele>646.6</ele><time>2013-11-21T13:16:14.0000000+00:00</time></trkpt><trkpt lat="30.75710678" lon="34.75094986"><ele>648.6</ele><time>2013-11-21T13:16:19.0000000+00:00</time></trkpt><trkpt lat="30.75687981" lon="34.75111771"><ele>650.9</ele><time>2013-11-21T13:16:24.0000000+00:00</time></trkpt><trkpt lat="30.75667954" lon="34.75125885"><ele>649.0</ele><time>2013-11-21T13:16:29.0000000+00:00</time></trkpt><trkpt lat="30.75647926" lon="34.75138474"><ele>647.2</ele><time>2013-11-21T13:16:34.0000000+00:00</time></trkpt><trkpt lat="30.75626183" lon="34.75152206"><ele>644.8</ele><time>2013-11-21T13:16:39.0000000+00:00</time></trkpt><trkpt lat="30.75605011" lon="34.75165558"><ele>644.1</ele><time>2013-11-21T13:16:44.0000000+00:00</time></trkpt><trkpt lat="30.75583458" lon="34.75180435"><ele>645.6</ele><time>2013-11-21T13:16:49.0000000+00:00</time></trkpt><trkpt lat="30.75561714" lon="34.75194931"><ele>643.8</ele><time>2013-11-21T13:16:54.0000000+00:00</time></trkpt><trkpt lat="30.75543404" lon="34.75205612"><ele>644.0</ele><time>2013-11-21T13:16:59.0000000+00:00</time></trkpt><trkpt lat="30.75521851" lon="34.75218964"><ele>647.9</ele><time>2013-11-21T13:17:04.0000000+00:00</time></trkpt><trkpt lat="30.75500107" lon="34.75231552"><ele>650.3</ele><time>2013-11-21T13:17:09.0000000+00:00</time></trkpt><trkpt lat="30.75475693" lon="34.75248337"><ele>655.0</ele><time>2013-11-21T13:17:14.0000000+00:00</time></trkpt><trkpt lat="30.75452614" lon="34.75262451"><ele>657.1</ele><time>2013-11-21T13:17:19.0000000+00:00</time></trkpt><trkpt lat="30.75432015" lon="34.75276947"><ele>660.9</ele><time>2013-11-21T13:17:24.0000000+00:00</time></trkpt><trkpt lat="30.7541256" lon="34.75289917"><ele>663.5</ele><time>2013-11-21T13:17:29.0000000+00:00</time></trkpt><trkpt lat="30.75397682" lon="34.75298309"><ele>664.7</ele><time>2013-11-21T13:17:34.0000000+00:00</time></trkpt><trkpt lat="30.75381088" lon="34.75309753"><ele>665.1</ele><time>2013-11-21T13:17:39.0000000+00:00</time></trkpt><trkpt lat="30.75362396" lon="34.75323105"><ele>664.3</ele><time>2013-11-21T13:17:44.0000000+00:00</time></trkpt><trkpt lat="30.75341606" lon="34.7533493"><ele>666.4</ele><time>2013-11-21T13:17:49.0000000+00:00</time></trkpt><trkpt lat="30.75322342" lon="34.75346756"><ele>669.8</ele><time>2013-11-21T13:17:54.0000000+00:00</time></trkpt><trkpt lat="30.75304604" lon="34.75362396"><ele>670.0</ele><time>2013-11-21T13:17:59.0000000+00:00</time></trkpt><trkpt lat="30.75283241" lon="34.75380325"><ele>669.2</ele><time>2013-11-21T13:18:04.0000000+00:00</time></trkpt><trkpt lat="30.7526722" lon="34.75396729"><ele>668.6</ele><time>2013-11-21T13:18:09.0000000+00:00</time></trkpt><trkpt lat="30.75249291" lon="34.75415421"><ele>668.2</ele><time>2013-11-21T13:18:14.0000000+00:00</time></trkpt><trkpt lat="30.75232506" lon="34.75431824"><ele>670.8</ele><time>2013-11-21T13:18:19.0000000+00:00</time></trkpt><trkpt lat="30.75215721" lon="34.75451279"><ele>671.3</ele><time>2013-11-21T13:18:24.0000000+00:00</time></trkpt><trkpt lat="30.75201798" lon="34.75468445"><ele>673.6</ele><time>2013-11-21T13:18:29.0000000+00:00</time></trkpt><trkpt lat="30.75187683" lon="34.75486755"><ele>675.7</ele><time>2013-11-21T13:18:34.0000000+00:00</time></trkpt><trkpt lat="30.75175476" lon="34.7550621"><ele>672.1</ele><time>2013-11-21T13:18:39.0000000+00:00</time></trkpt><trkpt lat="30.75164604" lon="34.75521469"><ele>668.3</ele><time>2013-11-21T13:18:44.0000000+00:00</time></trkpt><trkpt lat="30.75153732" lon="34.75538254"><ele>667.9</ele><time>2013-11-21T13:18:49.0000000+00:00</time></trkpt><trkpt lat="30.75141716" lon="34.75556946"><ele>666.8</ele><time>2013-11-21T13:18:54.0000000+00:00</time></trkpt><trkpt lat="30.75128746" lon="34.75577545"><ele>666.1</ele><time>2013-11-21T13:18:59.0000000+00:00</time></trkpt><trkpt lat="30.75113106" lon="34.75598526"><ele>666.5</ele><time>2013-11-21T13:19:04.0000000+00:00</time></trkpt><trkpt lat="30.75097466" lon="34.7562294"><ele>668.8</ele><time>2013-11-21T13:19:09.0000000+00:00</time></trkpt><trkpt lat="30.75084877" lon="34.75644302"><ele>671.0</ele><time>2013-11-21T13:19:14.0000000+00:00</time></trkpt><trkpt lat="30.75068474" lon="34.75669479"><ele>672.1</ele><time>2013-11-21T13:19:19.0000000+00:00</time></trkpt><trkpt lat="30.75052452" lon="34.75692368"><ele>672.4</ele><time>2013-11-21T13:19:24.0000000+00:00</time></trkpt><trkpt lat="30.75043297" lon="34.75710297"><ele>676.8</ele><time>2013-11-21T13:19:29.0000000+00:00</time></trkpt><trkpt lat="30.75032044" lon="34.7572937"><ele>679.8</ele><time>2013-11-21T13:19:34.0000000+00:00</time></trkpt><trkpt lat="30.7502079" lon="34.75748062"><ele>681.6</ele><time>2013-11-21T13:19:39.0000000+00:00</time></trkpt><trkpt lat="30.75009918" lon="34.75767136"><ele>686.5</ele><time>2013-11-21T13:19:44.0000000+00:00</time></trkpt><trkpt lat="30.74996185" lon="34.75785828"><ele>687.3</ele><time>2013-11-21T13:19:49.0000000+00:00</time></trkpt><trkpt lat="30.74983597" lon="34.75805664"><ele>689.2</ele><time>2013-11-21T13:19:54.0000000+00:00</time></trkpt><trkpt lat="30.74972343" lon="34.75824356"><ele>689.9</ele><time>2013-11-21T13:19:59.0000000+00:00</time></trkpt><trkpt lat="30.74959755" lon="34.75843048"><ele>691.2</ele><time>2013-11-21T13:20:04.0000000+00:00</time></trkpt><trkpt lat="30.74946022" lon="34.75863648"><ele>690.4</ele><time>2013-11-21T13:20:09.0000000+00:00</time></trkpt><trkpt lat="30.74934387" lon="34.75880051"><ele>687.3</ele><time>2013-11-21T13:20:14.0000000+00:00</time></trkpt><trkpt lat="30.74925232" lon="34.75896835"><ele>690.0</ele><time>2013-11-21T13:20:19.0000000+00:00</time></trkpt><trkpt lat="30.74913216" lon="34.75916672"><ele>690.9</ele><time>2013-11-21T13:20:24.0000000+00:00</time></trkpt><trkpt lat="30.74901199" lon="34.75936127"><ele>693.1</ele><time>2013-11-21T13:20:29.0000000+00:00</time></trkpt><trkpt lat="30.74888611" lon="34.75955963"><ele>692.3</ele><time>2013-11-21T13:20:34.0000000+00:00</time></trkpt><trkpt lat="30.74876595" lon="34.759758"><ele>691.8</ele><time>2013-11-21T13:20:39.0000000+00:00</time></trkpt><trkpt lat="30.74862862" lon="34.75996399"><ele>691.1</ele><time>2013-11-21T13:20:44.0000000+00:00</time></trkpt><trkpt lat="30.74849892" lon="34.76017761"><ele>692.3</ele><time>2013-11-21T13:20:49.0000000+00:00</time></trkpt><trkpt lat="30.74839592" lon="34.76036453"><ele>692.9</ele><time>2013-11-21T13:20:54.0000000+00:00</time></trkpt><trkpt lat="30.74827004" lon="34.76055145"><ele>691.4</ele><time>2013-11-21T13:20:59.0000000+00:00</time></trkpt><trkpt lat="30.74814987" lon="34.76074982"><ele>691.1</ele><time>2013-11-21T13:21:04.0000000+00:00</time></trkpt><trkpt lat="30.74802589" lon="34.76093674"><ele>692.0</ele><time>2013-11-21T13:21:09.0000000+00:00</time></trkpt><trkpt lat="30.74789619" lon="34.76112747"><ele>693.1</ele><time>2013-11-21T13:21:14.0000000+00:00</time></trkpt><trkpt lat="30.74777603" lon="34.76132202"><ele>696.4</ele><time>2013-11-21T13:21:19.0000000+00:00</time></trkpt><trkpt lat="30.74765015" lon="34.76150894"><ele>698.7</ele><time>2013-11-21T13:21:24.0000000+00:00</time></trkpt><trkpt lat="30.74752426" lon="34.76168442"><ele>700.4</ele><time>2013-11-21T13:21:29.0000000+00:00</time></trkpt><trkpt lat="30.74736977" lon="34.76186752"><ele>701.9</ele><time>2013-11-21T13:21:34.0000000+00:00</time></trkpt><trkpt lat="30.74720764" lon="34.76205444"><ele>705.8</ele><time>2013-11-21T13:21:39.0000000+00:00</time></trkpt><trkpt lat="30.74705315" lon="34.76221085"><ele>706.0</ele><time>2013-11-21T13:21:44.0000000+00:00</time></trkpt><trkpt lat="30.74687004" lon="34.76240158"><ele>709.0</ele><time>2013-11-21T13:21:49.0000000+00:00</time></trkpt><trkpt lat="30.74669266" lon="34.76256561"><ele>706.4</ele><time>2013-11-21T13:21:54.0000000+00:00</time></trkpt><trkpt lat="30.74651146" lon="34.76272202"><ele>703.3</ele><time>2013-11-21T13:21:59.0000000+00:00</time></trkpt><trkpt lat="30.74632454" lon="34.76287079"><ele>703.2</ele><time>2013-11-21T13:22:04.0000000+00:00</time></trkpt><trkpt lat="30.7461338" lon="34.76299286"><ele>701.7</ele><time>2013-11-21T13:22:09.0000000+00:00</time></trkpt><trkpt lat="30.7459259" lon="34.76311874"><ele>701.3</ele><time>2013-11-21T13:22:14.0000000+00:00</time></trkpt><trkpt lat="30.74573517" lon="34.76322937"><ele>701.1</ele><time>2013-11-21T13:22:19.0000000+00:00</time></trkpt><trkpt lat="30.74553108" lon="34.76335907"><ele>699.9</ele><time>2013-11-21T13:22:24.0000000+00:00</time></trkpt><trkpt lat="30.74530411" lon="34.76348496"><ele>698.3</ele><time>2013-11-21T13:22:29.0000000+00:00</time></trkpt><trkpt lat="30.7450428" lon="34.76363754"><ele>697.3</ele><time>2013-11-21T13:22:34.0000000+00:00</time></trkpt><trkpt lat="30.74481583" lon="34.76376343"><ele>695.8</ele><time>2013-11-21T13:22:39.0000000+00:00</time></trkpt><trkpt lat="30.74459839" lon="34.76388931"><ele>693.7</ele><time>2013-11-21T13:22:44.0000000+00:00</time></trkpt><trkpt lat="30.74435425" lon="34.76401901"><ele>693.3</ele><time>2013-11-21T13:22:49.0000000+00:00</time></trkpt><trkpt lat="30.74414253" lon="34.76415253"><ele>692.4</ele><time>2013-11-21T13:22:54.0000000+00:00</time></trkpt><trkpt lat="30.74394417" lon="34.7642746"><ele>689.7</ele><time>2013-11-21T13:22:59.0000000+00:00</time></trkpt><trkpt lat="30.74375534" lon="34.76437759"><ele>689.6</ele><time>2013-11-21T13:23:04.0000000+00:00</time></trkpt><trkpt lat="30.74360466" lon="34.76446915"><ele>688.7</ele><time>2013-11-21T13:23:09.0000000+00:00</time></trkpt><trkpt lat="30.74341774" lon="34.7645874"><ele>688.5</ele><time>2013-11-21T13:23:14.0000000+00:00</time></trkpt><trkpt lat="30.74323082" lon="34.76470566"><ele>688.0</ele><time>2013-11-21T13:23:19.0000000+00:00</time></trkpt><trkpt lat="30.7430191" lon="34.76482391"><ele>687.4</ele><time>2013-11-21T13:23:24.0000000+00:00</time></trkpt><trkpt lat="30.7428112" lon="34.76494217"><ele>688.5</ele><time>2013-11-21T13:23:29.0000000+00:00</time></trkpt><trkpt lat="30.7426014" lon="34.7650528"><ele>689.6</ele><time>2013-11-21T13:23:34.0000000+00:00</time></trkpt><trkpt lat="30.74242592" lon="34.76516724"><ele>690.9</ele><time>2013-11-21T13:23:39.0000000+00:00</time></trkpt><trkpt lat="30.74224472" lon="34.76527786"><ele>693.4</ele><time>2013-11-21T13:23:44.0000000+00:00</time></trkpt><trkpt lat="30.74207878" lon="34.76534653"><ele>694.8</ele><time>2013-11-21T13:23:49.0000000+00:00</time></trkpt><trkpt lat="30.7418747" lon="34.7654419"><ele>698.5</ele><time>2013-11-21T13:23:54.0000000+00:00</time></trkpt><trkpt lat="30.74165916" lon="34.76557159"><ele>700.7</ele><time>2013-11-21T13:23:59.0000000+00:00</time></trkpt><trkpt lat="30.74142456" lon="34.76569367"><ele>702.3</ele><time>2013-11-21T13:24:04.0000000+00:00</time></trkpt><trkpt lat="30.74119759" lon="34.76581574"><ele>706.4</ele><time>2013-11-21T13:24:09.0000000+00:00</time></trkpt><trkpt lat="30.74098015" lon="34.76593399"><ele>706.9</ele><time>2013-11-21T13:24:14.0000000+00:00</time></trkpt><trkpt lat="30.74078178" lon="34.76605225"><ele>706.8</ele><time>2013-11-21T13:24:19.0000000+00:00</time></trkpt><trkpt lat="30.74061394" lon="34.76616287"><ele>705.0</ele><time>2013-11-21T13:24:24.0000000+00:00</time></trkpt><trkpt lat="30.74043083" lon="34.76626968"><ele>705.4</ele><time>2013-11-21T13:24:29.0000000+00:00</time></trkpt><trkpt lat="30.74024773" lon="34.76638413"><ele>703.2</ele><time>2013-11-21T13:24:34.0000000+00:00</time></trkpt><trkpt lat="30.7400341" lon="34.76650238"><ele>700.4</ele><time>2013-11-21T13:24:39.0000000+00:00</time></trkpt><trkpt lat="30.73989105" lon="34.76657867"><ele>698.9</ele><time>2013-11-21T13:24:44.0000000+00:00</time></trkpt><trkpt lat="30.73972511" lon="34.76667786"><ele>702.1</ele><time>2013-11-21T13:24:49.0000000+00:00</time></trkpt><trkpt lat="30.73955536" lon="34.76676941"><ele>703.4</ele><time>2013-11-21T13:24:54.0000000+00:00</time></trkpt><trkpt lat="30.73943901" lon="34.76683807"><ele>702.7</ele><time>2013-11-21T13:24:59.0000000+00:00</time></trkpt><trkpt lat="30.73930168" lon="34.766922"><ele>703.1</ele><time>2013-11-21T13:25:04.0000000+00:00</time></trkpt><trkpt lat="30.73916626" lon="34.76697922"><ele>706.0</ele><time>2013-11-21T13:25:09.0000000+00:00</time></trkpt><trkpt lat="30.7389946" lon="34.76705551"><ele>707.3</ele><time>2013-11-21T13:25:14.0000000+00:00</time></trkpt><trkpt lat="30.73881912" lon="34.76718521"><ele>707.5</ele><time>2013-11-21T13:25:19.0000000+00:00</time></trkpt><trkpt lat="30.73871613" lon="34.76725388"><ele>705.4</ele><time>2013-11-21T13:25:24.0000000+00:00</time></trkpt><trkpt lat="30.73856545" lon="34.76734924"><ele>705.3</ele><time>2013-11-21T13:25:29.0000000+00:00</time></trkpt><trkpt lat="30.73843956" lon="34.76744843"><ele>706.5</ele><time>2013-11-21T13:25:34.0000000+00:00</time></trkpt><trkpt lat="30.73829842" lon="34.76756287"><ele>705.5</ele><time>2013-11-21T13:25:39.0000000+00:00</time></trkpt><trkpt lat="30.73815918" lon="34.76771164"><ele>702.3</ele><time>2013-11-21T13:25:44.0000000+00:00</time></trkpt><trkpt lat="30.73804092" lon="34.7678299"><ele>702.9</ele><time>2013-11-21T13:25:49.0000000+00:00</time></trkpt><trkpt lat="30.73786736" lon="34.76800156"><ele>702.3</ele><time>2013-11-21T13:25:54.0000000+00:00</time></trkpt><trkpt lat="30.73774719" lon="34.76819992"><ele>705.8</ele><time>2013-11-21T13:25:59.0000000+00:00</time></trkpt><trkpt lat="30.73762322" lon="34.76839829"><ele>708.0</ele><time>2013-11-21T13:26:04.0000000+00:00</time></trkpt><trkpt lat="30.73752594" lon="34.76861954"><ele>709.3</ele><time>2013-11-21T13:26:09.0000000+00:00</time></trkpt><trkpt lat="30.73746872" lon="34.76882172"><ele>708.8</ele><time>2013-11-21T13:26:14.0000000+00:00</time></trkpt><trkpt lat="30.73741913" lon="34.76900864"><ele>708.8</ele><time>2013-11-21T13:26:19.0000000+00:00</time></trkpt><trkpt lat="30.73737335" lon="34.76915741"><ele>709.2</ele><time>2013-11-21T13:26:24.0000000+00:00</time></trkpt><trkpt lat="30.7373066" lon="34.76932907"><ele>708.0</ele><time>2013-11-21T13:26:29.0000000+00:00</time></trkpt><trkpt lat="30.73726463" lon="34.76943207"><ele>707.0</ele><time>2013-11-21T13:26:34.0000000+00:00</time></trkpt><trkpt lat="30.7372551" lon="34.76951218"><ele>711.5</ele><time>2013-11-21T13:26:39.0000000+00:00</time></trkpt><trkpt lat="30.73724175" lon="34.7694931"><ele>713.0</ele><time>2013-11-21T13:26:44.0000000+00:00</time></trkpt><trkpt lat="30.73721695" lon="34.7694931"><ele>713.6</ele><time>2013-11-21T13:26:49.0000000+00:00</time></trkpt><trkpt lat="30.73721695" lon="34.76950073"><ele>713.8</ele><time>2013-11-21T13:26:54.0000000+00:00</time></trkpt><trkpt lat="30.73721695" lon="34.76950455"><ele>713.8</ele><time>2013-11-21T13:26:59.0000000+00:00</time></trkpt><trkpt lat="30.73721314" lon="34.76951599"><ele>713.8</ele><time>2013-11-21T13:27:04.0000000+00:00</time></trkpt><trkpt lat="30.73721504" lon="34.76952362"><ele>713.8</ele><time>2013-11-21T13:27:09.0000000+00:00</time></trkpt><trkpt lat="30.73721695" lon="34.76953125"><ele>713.8</ele><time>2013-11-21T13:27:14.0000000+00:00</time></trkpt><trkpt lat="30.73721695" lon="34.76953507"><ele>713.8</ele><time>2013-11-21T13:27:19.0000000+00:00</time></trkpt><trkpt lat="30.73721886" lon="34.76953507"><ele>713.7</ele><time>2013-11-21T13:27:24.0000000+00:00</time></trkpt><trkpt lat="30.73721504" lon="34.76953507"><ele>713.7</ele><time>2013-11-21T13:27:29.0000000+00:00</time></trkpt><trkpt lat="30.73721695" lon="34.76953125"><ele>713.7</ele><time>2013-11-21T13:27:34.0000000+00:00</time></trkpt><trkpt lat="30.73721886" lon="34.76952744"><ele>713.6</ele><time>2013-11-21T13:27:39.0000000+00:00</time></trkpt><trkpt lat="30.73721695" lon="34.76951981"><ele>713.6</ele><time>2013-11-21T13:27:44.0000000+00:00</time></trkpt><trkpt lat="30.73721314" lon="34.76951599"><ele>713.6</ele><time>2013-11-21T13:27:49.0000000+00:00</time></trkpt><trkpt lat="30.73721504" lon="34.76951218"><ele>713.6</ele><time>2013-11-21T13:27:54.0000000+00:00</time></trkpt><trkpt lat="30.73721695" lon="34.76950836"><ele>713.7</ele><time>2013-11-21T13:27:59.0000000+00:00</time></trkpt><trkpt lat="30.73715782" lon="34.76951599"><ele>713.4</ele><time>2013-11-21T13:28:04.0000000+00:00</time></trkpt><trkpt lat="30.7370491" lon="34.76951599"><ele>712.7</ele><time>2013-11-21T13:28:09.0000000+00:00</time></trkpt><trkpt lat="30.73695946" lon="34.76952362"><ele>711.5</ele><time>2013-11-21T13:28:14.0000000+00:00</time></trkpt><trkpt lat="30.73680496" lon="34.76951981"><ele>711.2</ele><time>2013-11-21T13:28:19.0000000+00:00</time></trkpt><trkpt lat="30.73668861" lon="34.76953125"><ele>712.1</ele><time>2013-11-21T13:28:24.0000000+00:00</time></trkpt><trkpt lat="30.73654175" lon="34.76953507"><ele>713.5</ele><time>2013-11-21T13:28:29.0000000+00:00</time></trkpt><trkpt lat="30.73637199" lon="34.76954651"><ele>714.8</ele><time>2013-11-21T13:28:34.0000000+00:00</time></trkpt><trkpt lat="30.73624611" lon="34.76954269"><ele>716.0</ele><time>2013-11-21T13:28:39.0000000+00:00</time></trkpt><trkpt lat="30.73611641" lon="34.76954269"><ele>714.5</ele><time>2013-11-21T13:28:44.0000000+00:00</time></trkpt><trkpt lat="30.73594666" lon="34.76956558"><ele>714.7</ele><time>2013-11-21T13:28:49.0000000+00:00</time></trkpt><trkpt lat="30.7357254" lon="34.76958084"><ele>716.2</ele><time>2013-11-21T13:28:54.0000000+00:00</time></trkpt><trkpt lat="30.73551178" lon="34.76960373"><ele>715.7</ele><time>2013-11-21T13:28:59.0000000+00:00</time></trkpt><trkpt lat="30.73532295" lon="34.76961517"><ele>714.2</ele><time>2013-11-21T13:29:04.0000000+00:00</time></trkpt><trkpt lat="30.7351284" lon="34.76963043"><ele>713.1</ele><time>2013-11-21T13:29:09.0000000+00:00</time></trkpt><trkpt lat="30.73491859" lon="34.76962662"><ele>711.6</ele><time>2013-11-21T13:29:14.0000000+00:00</time></trkpt><trkpt lat="30.73470879" lon="34.76965332"><ele>709.9</ele><time>2013-11-21T13:29:19.0000000+00:00</time></trkpt><trkpt lat="30.73449516" lon="34.7696991"><ele>709.6</ele><time>2013-11-21T13:29:24.0000000+00:00</time></trkpt><trkpt lat="30.73427582" lon="34.76974869"><ele>706.9</ele><time>2013-11-21T13:29:29.0000000+00:00</time></trkpt><trkpt lat="30.73407364" lon="34.76978302"><ele>706.3</ele><time>2013-11-21T13:29:34.0000000+00:00</time></trkpt><trkpt lat="30.73382568" lon="34.76986694"><ele>706.2</ele><time>2013-11-21T13:29:39.0000000+00:00</time></trkpt><trkpt lat="30.73360062" lon="34.76995087"><ele>712.0</ele><time>2013-11-21T13:29:44.0000000+00:00</time></trkpt><trkpt lat="30.73338509" lon="34.77005386"><ele>714.3</ele><time>2013-11-21T13:29:49.0000000+00:00</time></trkpt><trkpt lat="30.7331562" lon="34.77015305"><ele>715.2</ele><time>2013-11-21T13:29:54.0000000+00:00</time></trkpt><trkpt lat="30.73296928" lon="34.77026367"><ele>719.0</ele><time>2013-11-21T13:29:59.0000000+00:00</time></trkpt><trkpt lat="30.73276138" lon="34.770401"><ele>723.6</ele><time>2013-11-21T13:30:04.0000000+00:00</time></trkpt><trkpt lat="30.73258209" lon="34.77052689"><ele>725.3</ele><time>2013-11-21T13:30:09.0000000+00:00</time></trkpt><trkpt lat="30.73238945" lon="34.77067947"><ele>725.0</ele><time>2013-11-21T13:30:14.0000000+00:00</time></trkpt><trkpt lat="30.73223496" lon="34.77080154"><ele>723.5</ele><time>2013-11-21T13:30:19.0000000+00:00</time></trkpt><trkpt lat="30.73211289" lon="34.77090073"><ele>726.5</ele><time>2013-11-21T13:30:24.0000000+00:00</time></trkpt><trkpt lat="30.73193741" lon="34.77105713"><ele>728.0</ele><time>2013-11-21T13:30:29.0000000+00:00</time></trkpt><trkpt lat="30.73178482" lon="34.77118683"><ele>734.0</ele><time>2013-11-21T13:30:34.0000000+00:00</time></trkpt><trkpt lat="30.73161316" lon="34.77134705"><ele>736.6</ele><time>2013-11-21T13:30:39.0000000+00:00</time></trkpt><trkpt lat="30.73142624" lon="34.77153015"><ele>734.9</ele><time>2013-11-21T13:30:44.0000000+00:00</time></trkpt><trkpt lat="30.73125458" lon="34.77169037"><ele>735.3</ele><time>2013-11-21T13:30:49.0000000+00:00</time></trkpt><trkpt lat="30.73110771" lon="34.77183914"><ele>734.1</ele><time>2013-11-21T13:30:54.0000000+00:00</time></trkpt><trkpt lat="30.73095131" lon="34.77199173"><ele>731.7</ele><time>2013-11-21T13:30:59.0000000+00:00</time></trkpt><trkpt lat="30.73083496" lon="34.77212143"><ele>730.0</ele><time>2013-11-21T13:31:04.0000000+00:00</time></trkpt><trkpt lat="30.73075485" lon="34.77219772"><ele>727.9</ele><time>2013-11-21T13:31:09.0000000+00:00</time></trkpt><trkpt lat="30.73064041" lon="34.77233124"><ele>725.7</ele><time>2013-11-21T13:31:14.0000000+00:00</time></trkpt><trkpt lat="30.73048019" lon="34.77247238"><ele>724.1</ele><time>2013-11-21T13:31:19.0000000+00:00</time></trkpt><trkpt lat="30.73033142" lon="34.77262116"><ele>723.0</ele><time>2013-11-21T13:31:24.0000000+00:00</time></trkpt><trkpt lat="30.73019218" lon="34.77275085"><ele>725.2</ele><time>2013-11-21T13:31:29.0000000+00:00</time></trkpt><trkpt lat="30.73003006" lon="34.77291489"><ele>727.2</ele><time>2013-11-21T13:31:34.0000000+00:00</time></trkpt><trkpt lat="30.72988701" lon="34.77305603"><ele>729.0</ele><time>2013-11-21T13:31:39.0000000+00:00</time></trkpt><trkpt lat="30.7297287" lon="34.77320099"><ele>730.6</ele><time>2013-11-21T13:31:44.0000000+00:00</time></trkpt><trkpt lat="30.72960663" lon="34.77332687"><ele>730.2</ele><time>2013-11-21T13:31:49.0000000+00:00</time></trkpt><trkpt lat="30.72945213" lon="34.77349091"><ele>732.6</ele><time>2013-11-21T13:31:54.0000000+00:00</time></trkpt><trkpt lat="30.72930145" lon="34.7735939"><ele>738.8</ele><time>2013-11-21T13:31:59.0000000+00:00</time></trkpt><trkpt lat="30.7291584" lon="34.7736969"><ele>739.2</ele><time>2013-11-21T13:32:04.0000000+00:00</time></trkpt><trkpt lat="30.72900772" lon="34.7737999"><ele>741.6</ele><time>2013-11-21T13:32:09.0000000+00:00</time></trkpt><trkpt lat="30.72881699" lon="34.7739563"><ele>741.6</ele><time>2013-11-21T13:32:14.0000000+00:00</time></trkpt><trkpt lat="30.72863007" lon="34.77406693"><ele>742.2</ele><time>2013-11-21T13:32:19.0000000+00:00</time></trkpt><trkpt lat="30.72844887" lon="34.77416992"><ele>740.9</ele><time>2013-11-21T13:32:24.0000000+00:00</time></trkpt><trkpt lat="30.72823334" lon="34.77429962"><ele>741.9</ele><time>2013-11-21T13:32:29.0000000+00:00</time></trkpt><trkpt lat="30.7280407" lon="34.77439499"><ele>735.9</ele><time>2013-11-21T13:32:34.0000000+00:00</time></trkpt><trkpt lat="30.72783852" lon="34.77447128"><ele>735.8</ele><time>2013-11-21T13:32:39.0000000+00:00</time></trkpt><trkpt lat="30.72765923" lon="34.7745285"><ele>737.8</ele><time>2013-11-21T13:32:44.0000000+00:00</time></trkpt><trkpt lat="30.72747612" lon="34.77458572"><ele>736.3</ele><time>2013-11-21T13:32:49.0000000+00:00</time></trkpt><trkpt lat="30.72742081" lon="34.77459335"><ele>736.4</ele><time>2013-11-21T13:32:54.0000000+00:00</time></trkpt><trkpt lat="30.72742081" lon="34.77460098"><ele>736.1</ele><time>2013-11-21T13:32:59.0000000+00:00</time></trkpt><trkpt lat="30.72742081" lon="34.77460098"><ele>735.9</ele><time>2013-11-21T13:33:04.0000000+00:00</time></trkpt><trkpt lat="30.72742081" lon="34.77460098"><ele>735.8</ele><time>2013-11-21T13:33:09.0000000+00:00</time></trkpt><trkpt lat="30.72742462" lon="34.7746048"><ele>735.7</ele><time>2013-11-21T13:33:14.0000000+00:00</time></trkpt><trkpt lat="30.72742462" lon="34.7746048"><ele>735.7</ele><time>2013-11-21T13:33:19.0000000+00:00</time></trkpt><trkpt lat="30.7273922" lon="34.7746048"><ele>735.8</ele><time>2013-11-21T13:33:24.0000000+00:00</time></trkpt><trkpt lat="30.72725296" lon="34.77463532"><ele>735.5</ele><time>2013-11-21T13:33:29.0000000+00:00</time></trkpt><trkpt lat="30.72706986" lon="34.77466583"><ele>735.1</ele><time>2013-11-21T13:33:34.0000000+00:00</time></trkpt><trkpt lat="30.72693062" lon="34.77468491"><ele>734.6</ele><time>2013-11-21T13:33:39.0000000+00:00</time></trkpt><trkpt lat="30.72679138" lon="34.77470017"><ele>733.6</ele><time>2013-11-21T13:33:44.0000000+00:00</time></trkpt><trkpt lat="30.72662544" lon="34.77474594"><ele>732.7</ele><time>2013-11-21T13:33:49.0000000+00:00</time></trkpt><trkpt lat="30.72648811" lon="34.7747612"><ele>733.0</ele><time>2013-11-21T13:33:54.0000000+00:00</time></trkpt><trkpt lat="30.72632408" lon="34.77481079"><ele>732.5</ele><time>2013-11-21T13:33:59.0000000+00:00</time></trkpt><trkpt lat="30.72613907" lon="34.77484131"><ele>729.3</ele><time>2013-11-21T13:34:04.0000000+00:00</time></trkpt><trkpt lat="30.72597885" lon="34.7748642"><ele>729.5</ele><time>2013-11-21T13:34:09.0000000+00:00</time></trkpt><trkpt lat="30.72584724" lon="34.7748909"><ele>729.6</ele><time>2013-11-21T13:34:14.0000000+00:00</time></trkpt><trkpt lat="30.72578239" lon="34.77488327"><ele>730.6</ele><time>2013-11-21T13:34:19.0000000+00:00</time></trkpt><trkpt lat="30.72570419" lon="34.77490234"><ele>730.2</ele><time>2013-11-21T13:34:24.0000000+00:00</time></trkpt><trkpt lat="30.72558594" lon="34.77492905"><ele>730.5</ele><time>2013-11-21T13:34:29.0000000+00:00</time></trkpt><trkpt lat="30.72542" lon="34.77498627"><ele>729.7</ele><time>2013-11-21T13:34:34.0000000+00:00</time></trkpt><trkpt lat="30.72522354" lon="34.77503967"><ele>728.2</ele><time>2013-11-21T13:34:39.0000000+00:00</time></trkpt><trkpt lat="30.72504997" lon="34.77509308"><ele>728.1</ele><time>2013-11-21T13:34:44.0000000+00:00</time></trkpt><trkpt lat="30.72485542" lon="34.77515411"><ele>726.8</ele><time>2013-11-21T13:34:49.0000000+00:00</time></trkpt><trkpt lat="30.72464562" lon="34.77523041"><ele>734.1</ele><time>2013-11-21T13:34:54.0000000+00:00</time></trkpt><trkpt lat="30.72444534" lon="34.77532959"><ele>737.5</ele><time>2013-11-21T13:34:59.0000000+00:00</time></trkpt><trkpt lat="30.72422028" lon="34.7754364"><ele>742.6</ele><time>2013-11-21T13:35:04.0000000+00:00</time></trkpt><trkpt lat="30.72405434" lon="34.77553558"><ele>745.7</ele><time>2013-11-21T13:35:09.0000000+00:00</time></trkpt><trkpt lat="30.72393036" lon="34.77560425"><ele>748.0</ele><time>2013-11-21T13:35:14.0000000+00:00</time></trkpt><trkpt lat="30.72378349" lon="34.77571869"><ele>749.0</ele><time>2013-11-21T13:35:19.0000000+00:00</time></trkpt><trkpt lat="30.72358894" lon="34.77585983"><ele>751.8</ele><time>2013-11-21T13:35:24.0000000+00:00</time></trkpt><trkpt lat="30.72338295" lon="34.77601624"><ele>751.4</ele><time>2013-11-21T13:35:29.0000000+00:00</time></trkpt><trkpt lat="30.72318459" lon="34.77617645"><ele>747.5</ele><time>2013-11-21T13:35:34.0000000+00:00</time></trkpt><trkpt lat="30.72297478" lon="34.77636337"><ele>745.4</ele><time>2013-11-21T13:35:39.0000000+00:00</time></trkpt><trkpt lat="30.72275734" lon="34.776577"><ele>744.5</ele><time>2013-11-21T13:35:44.0000000+00:00</time></trkpt><trkpt lat="30.72258186" lon="34.77672577"><ele>746.7</ele><time>2013-11-21T13:35:49.0000000+00:00</time></trkpt><trkpt lat="30.72238731" lon="34.77687836"><ele>745.5</ele><time>2013-11-21T13:35:54.0000000+00:00</time></trkpt><trkpt lat="30.72218132" lon="34.77702332"><ele>744.0</ele><time>2013-11-21T13:35:59.0000000+00:00</time></trkpt><trkpt lat="30.72196579" lon="34.77713013"><ele>743.0</ele><time>2013-11-21T13:36:04.0000000+00:00</time></trkpt><trkpt lat="30.72175598" lon="34.77723312"><ele>738.9</ele><time>2013-11-21T13:36:09.0000000+00:00</time></trkpt><trkpt lat="30.72159767" lon="34.77730179"><ele>735.5</ele><time>2013-11-21T13:36:14.0000000+00:00</time></trkpt><trkpt lat="30.72144318" lon="34.77738571"><ele>738.8</ele><time>2013-11-21T13:36:19.0000000+00:00</time></trkpt><trkpt lat="30.72128487" lon="34.77742004"><ele>742.0</ele><time>2013-11-21T13:36:24.0000000+00:00</time></trkpt><trkpt lat="30.72109222" lon="34.77750015"><ele>739.3</ele><time>2013-11-21T13:36:29.0000000+00:00</time></trkpt><trkpt lat="30.72089577" lon="34.77756882"><ele>736.4</ele><time>2013-11-21T13:36:34.0000000+00:00</time></trkpt><trkpt lat="30.72070122" lon="34.77765274"><ele>735.4</ele><time>2013-11-21T13:36:39.0000000+00:00</time></trkpt><trkpt lat="30.72049904" lon="34.77772903"><ele>735.6</ele><time>2013-11-21T13:36:44.0000000+00:00</time></trkpt><trkpt lat="30.72028542" lon="34.7777977"><ele>735.4</ele><time>2013-11-21T13:36:49.0000000+00:00</time></trkpt><trkpt lat="30.72006989" lon="34.77784729"><ele>732.1</ele><time>2013-11-21T13:36:54.0000000+00:00</time></trkpt><trkpt lat="30.71983528" lon="34.77787399"><ele>732.7</ele><time>2013-11-21T13:36:59.0000000+00:00</time></trkpt><trkpt lat="30.71958923" lon="34.77790833"><ele>733.7</ele><time>2013-11-21T13:37:04.0000000+00:00</time></trkpt><trkpt lat="30.71933746" lon="34.77793884"><ele>734.4</ele><time>2013-11-21T13:37:09.0000000+00:00</time></trkpt><trkpt lat="30.7191391" lon="34.77796173"><ele>735.0</ele><time>2013-11-21T13:37:14.0000000+00:00</time></trkpt><trkpt lat="30.71892738" lon="34.77799606"><ele>734.9</ele><time>2013-11-21T13:37:19.0000000+00:00</time></trkpt><trkpt lat="30.71868324" lon="34.77803421"><ele>738.0</ele><time>2013-11-21T13:37:24.0000000+00:00</time></trkpt><trkpt lat="30.71847153" lon="34.7780571"><ele>737.8</ele><time>2013-11-21T13:37:29.0000000+00:00</time></trkpt><trkpt lat="30.71824837" lon="34.77809143"><ele>737.1</ele><time>2013-11-21T13:37:34.0000000+00:00</time></trkpt><trkpt lat="30.71803665" lon="34.77813339"><ele>736.7</ele><time>2013-11-21T13:37:39.0000000+00:00</time></trkpt><trkpt lat="30.71782112" lon="34.77819443"><ele>737.1</ele><time>2013-11-21T13:37:44.0000000+00:00</time></trkpt><trkpt lat="30.71759987" lon="34.77829361"><ele>738.1</ele><time>2013-11-21T13:37:49.0000000+00:00</time></trkpt><trkpt lat="30.71741867" lon="34.77838135"><ele>740.5</ele><time>2013-11-21T13:37:54.0000000+00:00</time></trkpt><trkpt lat="30.71723557" lon="34.77848053"><ele>739.5</ele><time>2013-11-21T13:37:59.0000000+00:00</time></trkpt><trkpt lat="30.71702004" lon="34.77860642"><ele>739.8</ele><time>2013-11-21T13:38:04.0000000+00:00</time></trkpt><trkpt lat="30.71681404" lon="34.77875519"><ele>738.7</ele><time>2013-11-21T13:38:09.0000000+00:00</time></trkpt><trkpt lat="30.71664238" lon="34.77889252"><ele>740.6</ele><time>2013-11-21T13:38:14.0000000+00:00</time></trkpt><trkpt lat="30.71644974" lon="34.77905655"><ele>738.9</ele><time>2013-11-21T13:38:19.0000000+00:00</time></trkpt><trkpt lat="30.71624184" lon="34.77927017"><ele>739.4</ele><time>2013-11-21T13:38:24.0000000+00:00</time></trkpt><trkpt lat="30.71606827" lon="34.77952194"><ele>742.7</ele><time>2013-11-21T13:38:29.0000000+00:00</time></trkpt><trkpt lat="30.71589279" lon="34.77976227"><ele>746.4</ele><time>2013-11-21T13:38:34.0000000+00:00</time></trkpt><trkpt lat="30.71574402" lon="34.78001404"><ele>750.0</ele><time>2013-11-21T13:38:39.0000000+00:00</time></trkpt><trkpt lat="30.71562386" lon="34.78026199"><ele>750.0</ele><time>2013-11-21T13:38:44.0000000+00:00</time></trkpt><trkpt lat="30.71551323" lon="34.78050232"><ele>744.3</ele><time>2013-11-21T13:38:49.0000000+00:00</time></trkpt><trkpt lat="30.71537209" lon="34.78075409"><ele>739.7</ele><time>2013-11-21T13:38:54.0000000+00:00</time></trkpt><trkpt lat="30.71523285" lon="34.7809906"><ele>743.5</ele><time>2013-11-21T13:38:59.0000000+00:00</time></trkpt><trkpt lat="30.71510315" lon="34.7812233"><ele>743.7</ele><time>2013-11-21T13:39:04.0000000+00:00</time></trkpt><trkpt lat="30.71496773" lon="34.78145981"><ele>743.5</ele><time>2013-11-21T13:39:09.0000000+00:00</time></trkpt><trkpt lat="30.71482468" lon="34.78168106"><ele>745.4</ele><time>2013-11-21T13:39:14.0000000+00:00</time></trkpt><trkpt lat="30.7146492" lon="34.78190613"><ele>748.5</ele><time>2013-11-21T13:39:19.0000000+00:00</time></trkpt><trkpt lat="30.714468" lon="34.78212357"><ele>749.8</ele><time>2013-11-21T13:39:24.0000000+00:00</time></trkpt><trkpt lat="30.71427918" lon="34.78235245"><ele>749.2</ele><time>2013-11-21T13:39:29.0000000+00:00</time></trkpt><trkpt lat="30.71407509" lon="34.78263855"><ele>747.7</ele><time>2013-11-21T13:39:34.0000000+00:00</time></trkpt><trkpt lat="30.71384621" lon="34.78300858"><ele>743.8</ele><time>2013-11-21T13:39:39.0000000+00:00</time></trkpt><trkpt lat="30.71359825" lon="34.78343582"><ele>741.4</ele><time>2013-11-21T13:39:44.0000000+00:00</time></trkpt><trkpt lat="30.71330261" lon="34.78390503"><ele>738.6</ele><time>2013-11-21T13:39:49.0000000+00:00</time></trkpt><trkpt lat="30.71293449" lon="34.78440094"><ele>737.5</ele><time>2013-11-21T13:39:54.0000000+00:00</time></trkpt><trkpt lat="30.71242905" lon="34.78482437"><ele>731.3</ele><time>2013-11-21T13:39:59.0000000+00:00</time></trkpt><trkpt lat="30.71175957" lon="34.78506851"><ele>724.2</ele><time>2013-11-21T13:40:04.0000000+00:00</time></trkpt><trkpt lat="30.71098709" lon="34.78507233"><ele>717.1</ele><time>2013-11-21T13:40:09.0000000+00:00</time></trkpt><trkpt lat="30.71020889" lon="34.78492355"><ele>712.5</ele><time>2013-11-21T13:40:14.0000000+00:00</time></trkpt><trkpt lat="30.70954323" lon="34.7847786"><ele>710.2</ele><time>2013-11-21T13:40:19.0000000+00:00</time></trkpt><trkpt lat="30.70895577" lon="34.78466034"><ele>709.4</ele><time>2013-11-21T13:40:24.0000000+00:00</time></trkpt><trkpt lat="30.7084446" lon="34.78455353"><ele>710.8</ele><time>2013-11-21T13:40:29.0000000+00:00</time></trkpt><trkpt lat="30.70801163" lon="34.7844696"><ele>711.5</ele><time>2013-11-21T13:40:34.0000000+00:00</time></trkpt><trkpt lat="30.70765114" lon="34.78438187"><ele>709.2</ele><time>2013-11-21T13:40:39.0000000+00:00</time></trkpt><trkpt lat="30.70732117" lon="34.78432465"><ele>709.2</ele><time>2013-11-21T13:40:44.0000000+00:00</time></trkpt><trkpt lat="30.70704079" lon="34.7842865"><ele>710.0</ele><time>2013-11-21T13:40:49.0000000+00:00</time></trkpt><trkpt lat="30.70680809" lon="34.78422928"><ele>707.6</ele><time>2013-11-21T13:40:54.0000000+00:00</time></trkpt><trkpt lat="30.7066288" lon="34.78417206"><ele>706.6</ele><time>2013-11-21T13:40:59.0000000+00:00</time></trkpt><trkpt lat="30.70652199" lon="34.78413391"><ele>702.2</ele><time>2013-11-21T13:41:04.0000000+00:00</time></trkpt><trkpt lat="30.70641899" lon="34.78412247"><ele>704.3</ele><time>2013-11-21T13:41:09.0000000+00:00</time></trkpt><trkpt lat="30.70633507" lon="34.78408814"><ele>708.8</ele><time>2013-11-21T13:41:14.0000000+00:00</time></trkpt><trkpt lat="30.70622826" lon="34.78406906"><ele>708.6</ele><time>2013-11-21T13:41:19.0000000+00:00</time></trkpt><trkpt lat="30.70612145" lon="34.78406525"><ele>711.4</ele><time>2013-11-21T13:41:24.0000000+00:00</time></trkpt><trkpt lat="30.70600891" lon="34.78404999"><ele>713.7</ele><time>2013-11-21T13:41:29.0000000+00:00</time></trkpt><trkpt lat="30.70588303" lon="34.78401184"><ele>715.9</ele><time>2013-11-21T13:41:34.0000000+00:00</time></trkpt><trkpt lat="30.70574188" lon="34.78397751"><ele>717.2</ele><time>2013-11-21T13:41:39.0000000+00:00</time></trkpt><trkpt lat="30.70560837" lon="34.78395844"><ele>718.8</ele><time>2013-11-21T13:41:44.0000000+00:00</time></trkpt><trkpt lat="30.70551682" lon="34.78393936"><ele>718.6</ele><time>2013-11-21T13:41:49.0000000+00:00</time></trkpt><trkpt lat="30.70541954" lon="34.78393555"><ele>722.4</ele><time>2013-11-21T13:41:54.0000000+00:00</time></trkpt><trkpt lat="30.70529366" lon="34.7838974"><ele>722.5</ele><time>2013-11-21T13:41:59.0000000+00:00</time></trkpt><trkpt lat="30.70516777" lon="34.78387833"><ele>724.8</ele><time>2013-11-21T13:42:04.0000000+00:00</time></trkpt><trkpt lat="30.70506287" lon="34.78386688"><ele>722.8</ele><time>2013-11-21T13:42:09.0000000+00:00</time></trkpt><trkpt lat="30.70498467" lon="34.78383637"><ele>724.3</ele><time>2013-11-21T13:42:14.0000000+00:00</time></trkpt><trkpt lat="30.70487022" lon="34.78380585"><ele>726.2</ele><time>2013-11-21T13:42:19.0000000+00:00</time></trkpt><trkpt lat="30.7047596" lon="34.78377914"><ele>726.5</ele><time>2013-11-21T13:42:24.0000000+00:00</time></trkpt><trkpt lat="30.70465469" lon="34.78376389"><ele>726.6</ele><time>2013-11-21T13:42:29.0000000+00:00</time></trkpt><trkpt lat="30.70454025" lon="34.78373718"><ele>727.2</ele><time>2013-11-21T13:42:34.0000000+00:00</time></trkpt><trkpt lat="30.70442963" lon="34.78371429"><ele>728.0</ele><time>2013-11-21T13:42:39.0000000+00:00</time></trkpt><trkpt lat="30.70430565" lon="34.78368378"><ele>727.2</ele><time>2013-11-21T13:42:44.0000000+00:00</time></trkpt><trkpt lat="30.70417786" lon="34.78366089"><ele>726.1</ele><time>2013-11-21T13:42:49.0000000+00:00</time></trkpt><trkpt lat="30.70406151" lon="34.78363037"><ele>726.0</ele><time>2013-11-21T13:42:54.0000000+00:00</time></trkpt><trkpt lat="30.70397949" lon="34.78361893"><ele>723.7</ele><time>2013-11-21T13:42:59.0000000+00:00</time></trkpt><trkpt lat="30.70383644" lon="34.78359604"><ele>722.5</ele><time>2013-11-21T13:43:04.0000000+00:00</time></trkpt><trkpt lat="30.70370293" lon="34.78359222"><ele>721.8</ele><time>2013-11-21T13:43:09.0000000+00:00</time></trkpt><trkpt lat="30.70356751" lon="34.78357315"><ele>722.2</ele><time>2013-11-21T13:43:14.0000000+00:00</time></trkpt><trkpt lat="30.70347977" lon="34.78356552"><ele>724.9</ele><time>2013-11-21T13:43:19.0000000+00:00</time></trkpt><trkpt lat="30.70334053" lon="34.78357697"><ele>725.6</ele><time>2013-11-21T13:43:24.0000000+00:00</time></trkpt><trkpt lat="30.70318985" lon="34.7835846"><ele>725.0</ele><time>2013-11-21T13:43:29.0000000+00:00</time></trkpt><trkpt lat="30.70302582" lon="34.7835846"><ele>727.9</ele><time>2013-11-21T13:43:34.0000000+00:00</time></trkpt><trkpt lat="30.70290756" lon="34.78358078"><ele>729.5</ele><time>2013-11-21T13:43:39.0000000+00:00</time></trkpt><trkpt lat="30.70278931" lon="34.78359985"><ele>732.8</ele><time>2013-11-21T13:43:44.0000000+00:00</time></trkpt><trkpt lat="30.70264053" lon="34.78359604"><ele>733.6</ele><time>2013-11-21T13:43:49.0000000+00:00</time></trkpt><trkpt lat="30.70250511" lon="34.7836113"><ele>736.0</ele><time>2013-11-21T13:43:54.0000000+00:00</time></trkpt><trkpt lat="30.70235062" lon="34.7836113"><ele>735.9</ele><time>2013-11-21T13:43:59.0000000+00:00</time></trkpt><trkpt lat="30.70223427" lon="34.78361511"><ele>734.6</ele><time>2013-11-21T13:44:04.0000000+00:00</time></trkpt><trkpt lat="30.70208931" lon="34.78360367"><ele>738.2</ele><time>2013-11-21T13:44:09.0000000+00:00</time></trkpt><trkpt lat="30.70199394" lon="34.78360367"><ele>738.7</ele><time>2013-11-21T13:44:14.0000000+00:00</time></trkpt><trkpt lat="30.70186234" lon="34.78360748"><ele>737.4</ele><time>2013-11-21T13:44:19.0000000+00:00</time></trkpt><trkpt lat="30.70169258" lon="34.78361893"><ele>735.9</ele><time>2013-11-21T13:44:24.0000000+00:00</time></trkpt><trkpt lat="30.70157814" lon="34.78362656"><ele>736.5</ele><time>2013-11-21T13:44:29.0000000+00:00</time></trkpt><trkpt lat="30.70147896" lon="34.78363037"><ele>734.8</ele><time>2013-11-21T13:44:34.0000000+00:00</time></trkpt><trkpt lat="30.70133591" lon="34.78364182"><ele>734.5</ele><time>2013-11-21T13:44:39.0000000+00:00</time></trkpt><trkpt lat="30.70118713" lon="34.7836113"><ele>734.3</ele><time>2013-11-21T13:44:44.0000000+00:00</time></trkpt><trkpt lat="30.7010479" lon="34.78361511"><ele>734.5</ele><time>2013-11-21T13:44:49.0000000+00:00</time></trkpt><trkpt lat="30.70088387" lon="34.78361893"><ele>737.3</ele><time>2013-11-21T13:44:54.0000000+00:00</time></trkpt><trkpt lat="30.70070839" lon="34.78359985"><ele>736.3</ele><time>2013-11-21T13:44:59.0000000+00:00</time></trkpt><trkpt lat="30.70062828" lon="34.78359985"><ele>736.4</ele><time>2013-11-21T13:45:04.0000000+00:00</time></trkpt><trkpt lat="30.70046806" lon="34.78360748"><ele>735.1</ele><time>2013-11-21T13:45:09.0000000+00:00</time></trkpt><trkpt lat="30.70030975" lon="34.78359985"><ele>738.3</ele><time>2013-11-21T13:45:14.0000000+00:00</time></trkpt><trkpt lat="30.70012665" lon="34.78358078"><ele>738.2</ele><time>2013-11-21T13:45:19.0000000+00:00</time></trkpt><trkpt lat="30.69998741" lon="34.78358841"><ele>739.8</ele><time>2013-11-21T13:45:24.0000000+00:00</time></trkpt><trkpt lat="30.69987488" lon="34.7835846"><ele>740.6</ele><time>2013-11-21T13:45:29.0000000+00:00</time></trkpt><trkpt lat="30.69972038" lon="34.78359604"><ele>740.0</ele><time>2013-11-21T13:45:34.0000000+00:00</time></trkpt><trkpt lat="30.6995945" lon="34.7836113"><ele>740.5</ele><time>2013-11-21T13:45:39.0000000+00:00</time></trkpt><trkpt lat="30.6994381" lon="34.78361511"><ele>741.1</ele><time>2013-11-21T13:45:44.0000000+00:00</time></trkpt><trkpt lat="30.69929886" lon="34.78361511"><ele>739.8</ele><time>2013-11-21T13:45:49.0000000+00:00</time></trkpt><trkpt lat="30.69920921" lon="34.78361511"><ele>738.2</ele><time>2013-11-21T13:45:54.0000000+00:00</time></trkpt><trkpt lat="30.69914055" lon="34.78362656"><ele>738.4</ele><time>2013-11-21T13:45:59.0000000+00:00</time></trkpt><trkpt lat="30.69902992" lon="34.78365326"><ele>740.1</ele><time>2013-11-21T13:46:04.0000000+00:00</time></trkpt><trkpt lat="30.69886017" lon="34.78368378"><ele>743.2</ele><time>2013-11-21T13:46:09.0000000+00:00</time></trkpt><trkpt lat="30.69870567" lon="34.78372192"><ele>745.3</ele><time>2013-11-21T13:46:14.0000000+00:00</time></trkpt><trkpt lat="30.69850731" lon="34.78380203"><ele>750.2</ele><time>2013-11-21T13:46:19.0000000+00:00</time></trkpt><trkpt lat="30.69831085" lon="34.78388596"><ele>752.3</ele><time>2013-11-21T13:46:24.0000000+00:00</time></trkpt><trkpt lat="30.69813538" lon="34.78398132"><ele>754.9</ele><time>2013-11-21T13:46:29.0000000+00:00</time></trkpt><trkpt lat="30.69795227" lon="34.78409576"><ele>751.1</ele><time>2013-11-21T13:46:34.0000000+00:00</time></trkpt><trkpt lat="30.69772911" lon="34.78424454"><ele>746.4</ele><time>2013-11-21T13:46:39.0000000+00:00</time></trkpt><trkpt lat="30.69743538" lon="34.78442764"><ele>744.3</ele><time>2013-11-21T13:46:44.0000000+00:00</time></trkpt><trkpt lat="30.69712448" lon="34.78461075"><ele>743.5</ele><time>2013-11-21T13:46:49.0000000+00:00</time></trkpt><trkpt lat="30.69684601" lon="34.78475189"><ele>742.3</ele><time>2013-11-21T13:46:54.0000000+00:00</time></trkpt><trkpt lat="30.69668579" lon="34.78479004"><ele>737.2</ele><time>2013-11-21T13:46:59.0000000+00:00</time></trkpt><trkpt lat="30.69658089" lon="34.78482056"><ele>733.6</ele><time>2013-11-21T13:47:04.0000000+00:00</time></trkpt><trkpt lat="30.69647026" lon="34.784832"><ele>730.9</ele><time>2013-11-21T13:47:09.0000000+00:00</time></trkpt><trkpt lat="30.69635963" lon="34.78484345"><ele>728.4</ele><time>2013-11-21T13:47:14.0000000+00:00</time></trkpt><trkpt lat="30.6962471" lon="34.78484345"><ele>725.5</ele><time>2013-11-21T13:47:19.0000000+00:00</time></trkpt><trkpt lat="30.69612885" lon="34.78485107"><ele>724.0</ele><time>2013-11-21T13:47:24.0000000+00:00</time></trkpt><trkpt lat="30.69602966" lon="34.78486252"><ele>725.0</ele><time>2013-11-21T13:47:29.0000000+00:00</time></trkpt><trkpt lat="30.69590187" lon="34.78486633"><ele>726.4</ele><time>2013-11-21T13:47:34.0000000+00:00</time></trkpt><trkpt lat="30.6958046" lon="34.78488541"><ele>725.6</ele><time>2013-11-21T13:47:39.0000000+00:00</time></trkpt><trkpt lat="30.69569588" lon="34.78487778"><ele>726.1</ele><time>2013-11-21T13:47:44.0000000+00:00</time></trkpt><trkpt lat="30.69564819" lon="34.78485489"><ele>724.5</ele><time>2013-11-21T13:47:49.0000000+00:00</time></trkpt><trkpt lat="30.69561005" lon="34.78483963"><ele>725.9</ele><time>2013-11-21T13:47:54.0000000+00:00</time></trkpt><trkpt lat="30.69556236" lon="34.78484345"><ele>727.4</ele><time>2013-11-21T13:47:59.0000000+00:00</time></trkpt><trkpt lat="30.69547844" lon="34.78485107"><ele>727.0</ele><time>2013-11-21T13:48:04.0000000+00:00</time></trkpt><trkpt lat="30.69539452" lon="34.78484345"><ele>727.1</ele><time>2013-11-21T13:48:09.0000000+00:00</time></trkpt><trkpt lat="30.69530869" lon="34.78484726"><ele>728.6</ele><time>2013-11-21T13:48:14.0000000+00:00</time></trkpt><trkpt lat="30.69525528" lon="34.7848587"><ele>729.3</ele><time>2013-11-21T13:48:19.0000000+00:00</time></trkpt><trkpt lat="30.69517326" lon="34.78485489"><ele>730.5</ele><time>2013-11-21T13:48:24.0000000+00:00</time></trkpt><trkpt lat="30.6950779" lon="34.78484345"><ele>730.2</ele><time>2013-11-21T13:48:29.0000000+00:00</time></trkpt><trkpt lat="30.69502068" lon="34.78484726"><ele>731.9</ele><time>2013-11-21T13:48:34.0000000+00:00</time></trkpt><trkpt lat="30.69493294" lon="34.78483963"><ele>732.6</ele><time>2013-11-21T13:48:39.0000000+00:00</time></trkpt><trkpt lat="30.69484901" lon="34.78483963"><ele>733.8</ele><time>2013-11-21T13:48:44.0000000+00:00</time></trkpt><trkpt lat="30.69475746" lon="34.78485107"><ele>736.3</ele><time>2013-11-21T13:48:49.0000000+00:00</time></trkpt><trkpt lat="30.69467545" lon="34.78485107"><ele>737.5</ele><time>2013-11-21T13:48:54.0000000+00:00</time></trkpt><trkpt lat="30.69460106" lon="34.78484726"><ele>737.7</ele><time>2013-11-21T13:48:59.0000000+00:00</time></trkpt><trkpt lat="30.69451904" lon="34.7848587"><ele>739.6</ele><time>2013-11-21T13:49:04.0000000+00:00</time></trkpt><trkpt lat="30.69444084" lon="34.7848587"><ele>740.4</ele><time>2013-11-21T13:49:09.0000000+00:00</time></trkpt><trkpt lat="30.69435501" lon="34.784832"><ele>742.2</ele><time>2013-11-21T13:49:14.0000000+00:00</time></trkpt><trkpt lat="30.69425392" lon="34.78483582"><ele>744.2</ele><time>2013-11-21T13:49:19.0000000+00:00</time></trkpt><trkpt lat="30.69414902" lon="34.78484726"><ele>745.6</ele><time>2013-11-21T13:49:24.0000000+00:00</time></trkpt><trkpt lat="30.69408035" lon="34.78484345"><ele>747.8</ele><time>2013-11-21T13:49:29.0000000+00:00</time></trkpt><trkpt lat="30.69399834" lon="34.78483582"><ele>747.8</ele><time>2013-11-21T13:49:34.0000000+00:00</time></trkpt><trkpt lat="30.69393539" lon="34.78482819"><ele>747.8</ele><time>2013-11-21T13:49:39.0000000+00:00</time></trkpt><trkpt lat="30.69385529" lon="34.78482437"><ele>746.3</ele><time>2013-11-21T13:49:44.0000000+00:00</time></trkpt><trkpt lat="30.69376183" lon="34.784832"><ele>745.4</ele><time>2013-11-21T13:49:49.0000000+00:00</time></trkpt><trkpt lat="30.69365311" lon="34.78482819"><ele>747.7</ele><time>2013-11-21T13:49:54.0000000+00:00</time></trkpt><trkpt lat="30.69351578" lon="34.784832"><ele>749.3</ele><time>2013-11-21T13:49:59.0000000+00:00</time></trkpt><trkpt lat="30.69344902" lon="34.78483963"><ele>751.7</ele><time>2013-11-21T13:50:04.0000000+00:00</time></trkpt><trkpt lat="30.69334793" lon="34.78484726"><ele>753.8</ele><time>2013-11-21T13:50:09.0000000+00:00</time></trkpt><trkpt lat="30.69326973" lon="34.78484726"><ele>755.6</ele><time>2013-11-21T13:50:14.0000000+00:00</time></trkpt><trkpt lat="30.69318771" lon="34.78485489"><ele>757.0</ele><time>2013-11-21T13:50:19.0000000+00:00</time></trkpt><trkpt lat="30.69310761" lon="34.78484726"><ele>758.4</ele><time>2013-11-21T13:50:24.0000000+00:00</time></trkpt><trkpt lat="30.69305611" lon="34.78484345"><ele>759.6</ele><time>2013-11-21T13:50:29.0000000+00:00</time></trkpt><trkpt lat="30.69297791" lon="34.78484726"><ele>760.4</ele><time>2013-11-21T13:50:34.0000000+00:00</time></trkpt><trkpt lat="30.69289208" lon="34.784832"><ele>759.7</ele><time>2013-11-21T13:50:39.0000000+00:00</time></trkpt><trkpt lat="30.69282723" lon="34.78483963"><ele>760.8</ele><time>2013-11-21T13:50:44.0000000+00:00</time></trkpt><trkpt lat="30.69275475" lon="34.78483582"><ele>761.4</ele><time>2013-11-21T13:50:49.0000000+00:00</time></trkpt><trkpt lat="30.69268608" lon="34.784832"><ele>760.2</ele><time>2013-11-21T13:50:54.0000000+00:00</time></trkpt><trkpt lat="30.69260597" lon="34.78485107"><ele>759.8</ele><time>2013-11-21T13:50:59.0000000+00:00</time></trkpt><trkpt lat="30.69252586" lon="34.78485107"><ele>759.7</ele><time>2013-11-21T13:51:04.0000000+00:00</time></trkpt><trkpt lat="30.69244766" lon="34.78485107"><ele>758.7</ele><time>2013-11-21T13:51:09.0000000+00:00</time></trkpt><trkpt lat="30.69236183" lon="34.78484726"><ele>759.9</ele><time>2013-11-21T13:51:14.0000000+00:00</time></trkpt><trkpt lat="30.69227982" lon="34.7848587"><ele>759.9</ele><time>2013-11-21T13:51:19.0000000+00:00</time></trkpt><trkpt lat="30.69218826" lon="34.78489304"><ele>760.4</ele><time>2013-11-21T13:51:24.0000000+00:00</time></trkpt><trkpt lat="30.69209671" lon="34.78492737"><ele>762.6</ele><time>2013-11-21T13:51:29.0000000+00:00</time></trkpt><trkpt lat="30.69199944" lon="34.78496552"><ele>762.6</ele><time>2013-11-21T13:51:34.0000000+00:00</time></trkpt><trkpt lat="30.69189453" lon="34.78500366"><ele>763.0</ele><time>2013-11-21T13:51:39.0000000+00:00</time></trkpt><trkpt lat="30.69183731" lon="34.78504181"><ele>763.7</ele><time>2013-11-21T13:51:44.0000000+00:00</time></trkpt><trkpt lat="30.69177628" lon="34.78506851"><ele>763.7</ele><time>2013-11-21T13:51:49.0000000+00:00</time></trkpt><trkpt lat="30.69172478" lon="34.78509522"><ele>765.4</ele><time>2013-11-21T13:51:54.0000000+00:00</time></trkpt><trkpt lat="30.69169617" lon="34.7851181"><ele>764.4</ele><time>2013-11-21T13:51:59.0000000+00:00</time></trkpt><trkpt lat="30.69166184" lon="34.78515244"><ele>764.1</ele><time>2013-11-21T13:52:04.0000000+00:00</time></trkpt><trkpt lat="30.69159126" lon="34.78520203"><ele>763.5</ele><time>2013-11-21T13:52:09.0000000+00:00</time></trkpt><trkpt lat="30.6915493" lon="34.78524017"><ele>763.4</ele><time>2013-11-21T13:52:14.0000000+00:00</time></trkpt><trkpt lat="30.69144249" lon="34.78533173"><ele>764.1</ele><time>2013-11-21T13:52:19.0000000+00:00</time></trkpt><trkpt lat="30.69136429" lon="34.78539276"><ele>764.5</ele><time>2013-11-21T13:52:24.0000000+00:00</time></trkpt><trkpt lat="30.69126511" lon="34.78548813"><ele>766.2</ele><time>2013-11-21T13:52:29.0000000+00:00</time></trkpt><trkpt lat="30.69117737" lon="34.7855835"><ele>770.3</ele><time>2013-11-21T13:52:34.0000000+00:00</time></trkpt><trkpt lat="30.69106484" lon="34.78572083"><ele>772.7</ele><time>2013-11-21T13:52:39.0000000+00:00</time></trkpt><trkpt lat="30.6910038" lon="34.78583145"><ele>772.6</ele><time>2013-11-21T13:52:44.0000000+00:00</time></trkpt><trkpt lat="30.69092941" lon="34.78596878"><ele>773.6</ele><time>2013-11-21T13:52:49.0000000+00:00</time></trkpt><trkpt lat="30.69087982" lon="34.78604126"><ele>775.0</ele><time>2013-11-21T13:52:54.0000000+00:00</time></trkpt><trkpt lat="30.69082451" lon="34.78616715"><ele>774.9</ele><time>2013-11-21T13:52:59.0000000+00:00</time></trkpt><trkpt lat="30.69076157" lon="34.78629303"><ele>774.5</ele><time>2013-11-21T13:53:04.0000000+00:00</time></trkpt><trkpt lat="30.69071579" lon="34.7864151"><ele>775.3</ele><time>2013-11-21T13:53:09.0000000+00:00</time></trkpt><trkpt lat="30.69063377" lon="34.78656006"><ele>776.7</ele><time>2013-11-21T13:53:14.0000000+00:00</time></trkpt><trkpt lat="30.69058609" lon="34.78665924"><ele>778.2</ele><time>2013-11-21T13:53:19.0000000+00:00</time></trkpt><trkpt lat="30.69051361" lon="34.78684616"><ele>781.0</ele><time>2013-11-21T13:53:24.0000000+00:00</time></trkpt><trkpt lat="30.69041634" lon="34.78703308"><ele>784.0</ele><time>2013-11-21T13:53:29.0000000+00:00</time></trkpt><trkpt lat="30.6903553" lon="34.78717423"><ele>787.0</ele><time>2013-11-21T13:53:34.0000000+00:00</time></trkpt><trkpt lat="30.69029045" lon="34.78731918"><ele>787.4</ele><time>2013-11-21T13:53:39.0000000+00:00</time></trkpt><trkpt lat="30.69021606" lon="34.78749466"><ele>788.0</ele><time>2013-11-21T13:53:44.0000000+00:00</time></trkpt><trkpt lat="30.69013405" lon="34.78765488"><ele>786.5</ele><time>2013-11-21T13:53:49.0000000+00:00</time></trkpt><trkpt lat="30.6900692" lon="34.78779221"><ele>785.7</ele><time>2013-11-21T13:53:54.0000000+00:00</time></trkpt><trkpt lat="30.68999863" lon="34.78792954"><ele>786.9</ele><time>2013-11-21T13:53:59.0000000+00:00</time></trkpt><trkpt lat="30.68993568" lon="34.78809357"><ele>788.6</ele><time>2013-11-21T13:54:04.0000000+00:00</time></trkpt><trkpt lat="30.68985748" lon="34.7882576"><ele>785.3</ele><time>2013-11-21T13:54:09.0000000+00:00</time></trkpt><trkpt lat="30.68977547" lon="34.78842163"><ele>784.5</ele><time>2013-11-21T13:54:14.0000000+00:00</time></trkpt><trkpt lat="30.68968582" lon="34.78861618"><ele>784.1</ele><time>2013-11-21T13:54:19.0000000+00:00</time></trkpt><trkpt lat="30.68958855" lon="34.7888031"><ele>786.0</ele><time>2013-11-21T13:54:24.0000000+00:00</time></trkpt><trkpt lat="30.68949509" lon="34.78900528"><ele>787.1</ele><time>2013-11-21T13:54:29.0000000+00:00</time></trkpt><trkpt lat="30.68940735" lon="34.7891922"><ele>788.0</ele><time>2013-11-21T13:54:34.0000000+00:00</time></trkpt><trkpt lat="30.68932533" lon="34.78939056"><ele>787.4</ele><time>2013-11-21T13:54:39.0000000+00:00</time></trkpt><trkpt lat="30.68927765" lon="34.78952789"><ele>788.5</ele><time>2013-11-21T13:54:44.0000000+00:00</time></trkpt><trkpt lat="30.68929291" lon="34.78954697"><ele>785.1</ele><time>2013-11-21T13:54:49.0000000+00:00</time></trkpt><trkpt lat="30.68929863" lon="34.78954315"><ele>785.2</ele><time>2013-11-21T13:54:54.0000000+00:00</time></trkpt><trkpt lat="30.68929863" lon="34.78954315"><ele>785.3</ele><time>2013-11-21T13:54:59.0000000+00:00</time></trkpt><trkpt lat="30.68930054" lon="34.78954315"><ele>785.3</ele><time>2013-11-21T13:55:04.0000000+00:00</time></trkpt><trkpt lat="30.68929291" lon="34.78956604"><ele>785.3</ele><time>2013-11-21T13:55:09.0000000+00:00</time></trkpt><trkpt lat="30.68923187" lon="34.7896843"><ele>785.6</ele><time>2013-11-21T13:55:14.0000000+00:00</time></trkpt><trkpt lat="30.6891613" lon="34.78979874"><ele>786.3</ele><time>2013-11-21T13:55:19.0000000+00:00</time></trkpt><trkpt lat="30.68907547" lon="34.78997803"><ele>786.7</ele><time>2013-11-21T13:55:24.0000000+00:00</time></trkpt><trkpt lat="30.68899727" lon="34.79012299"><ele>786.4</ele><time>2013-11-21T13:55:29.0000000+00:00</time></trkpt><trkpt lat="30.68896294" lon="34.79023743"><ele>786.3</ele><time>2013-11-21T13:55:34.0000000+00:00</time></trkpt><trkpt lat="30.68890381" lon="34.79036713"><ele>786.6</ele><time>2013-11-21T13:55:39.0000000+00:00</time></trkpt><trkpt lat="30.68885994" lon="34.79045487"><ele>786.5</ele><time>2013-11-21T13:55:44.0000000+00:00</time></trkpt><trkpt lat="30.688797" lon="34.79058838"><ele>785.2</ele><time>2013-11-21T13:55:49.0000000+00:00</time></trkpt><trkpt lat="30.6887455" lon="34.79069138"><ele>784.9</ele><time>2013-11-21T13:55:54.0000000+00:00</time></trkpt><trkpt lat="30.68870163" lon="34.79072571"><ele>785.0</ele><time>2013-11-21T13:55:59.0000000+00:00</time></trkpt><trkpt lat="30.68868446" lon="34.79074478"><ele>787.0</ele><time>2013-11-21T13:56:04.0000000+00:00</time></trkpt><trkpt lat="30.68867874" lon="34.79075241"><ele>786.3</ele><time>2013-11-21T13:56:09.0000000+00:00</time></trkpt><trkpt lat="30.68867874" lon="34.79075241"><ele>786.3</ele><time>2013-11-21T13:56:14.0000000+00:00</time></trkpt><trkpt lat="30.68867683" lon="34.79075241"><ele>786.4</ele><time>2013-11-21T13:56:19.0000000+00:00</time></trkpt><trkpt lat="30.68867302" lon="34.79075241"><ele>786.6</ele><time>2013-11-21T13:56:24.0000000+00:00</time></trkpt><trkpt lat="30.68867302" lon="34.79075623"><ele>786.6</ele><time>2013-11-21T13:56:29.0000000+00:00</time></trkpt><trkpt lat="30.68867683" lon="34.79075623"><ele>786.4</ele><time>2013-11-21T13:56:34.0000000+00:00</time></trkpt><trkpt lat="30.68865967" lon="34.79079819"><ele>786.1</ele><time>2013-11-21T13:56:39.0000000+00:00</time></trkpt><trkpt lat="30.688591" lon="34.79090881"><ele>786.0</ele><time>2013-11-21T13:56:44.0000000+00:00</time></trkpt><trkpt lat="30.68850899" lon="34.79104614"><ele>786.3</ele><time>2013-11-21T13:56:49.0000000+00:00</time></trkpt><trkpt lat="30.68842125" lon="34.79116821"><ele>787.4</ele><time>2013-11-21T13:56:54.0000000+00:00</time></trkpt><trkpt lat="30.68831825" lon="34.79130173"><ele>788.3</ele><time>2013-11-21T13:56:59.0000000+00:00</time></trkpt><trkpt lat="30.68818092" lon="34.79145432"><ele>789.0</ele><time>2013-11-21T13:57:04.0000000+00:00</time></trkpt><trkpt lat="30.6880188" lon="34.79161453"><ele>788.2</ele><time>2013-11-21T13:57:09.0000000+00:00</time></trkpt><trkpt lat="30.68784332" lon="34.79178238"><ele>788.9</ele><time>2013-11-21T13:57:14.0000000+00:00</time></trkpt><trkpt lat="30.68768311" lon="34.79195786"><ele>787.3</ele><time>2013-11-21T13:57:19.0000000+00:00</time></trkpt><trkpt lat="30.68749809" lon="34.79214478"><ele>786.3</ele><time>2013-11-21T13:57:24.0000000+00:00</time></trkpt><trkpt lat="30.6873169" lon="34.79232407"><ele>785.1</ele><time>2013-11-21T13:57:29.0000000+00:00</time></trkpt><trkpt lat="30.68710136" lon="34.7925148"><ele>783.2</ele><time>2013-11-21T13:57:34.0000000+00:00</time></trkpt><trkpt lat="30.6868515" lon="34.79273224"><ele>781.8</ele><time>2013-11-21T13:57:39.0000000+00:00</time></trkpt><trkpt lat="30.68659973" lon="34.79294968"><ele>780.2</ele><time>2013-11-21T13:57:44.0000000+00:00</time></trkpt><trkpt lat="30.68638992" lon="34.79312897"><ele>780.1</ele><time>2013-11-21T13:57:49.0000000+00:00</time></trkpt><trkpt lat="30.6862011" lon="34.79327774"><ele>782.1</ele><time>2013-11-21T13:57:54.0000000+00:00</time></trkpt><trkpt lat="30.68602943" lon="34.7934227"><ele>783.1</ele><time>2013-11-21T13:57:59.0000000+00:00</time></trkpt><trkpt lat="30.68585396" lon="34.79358292"><ele>785.1</ele><time>2013-11-21T13:58:04.0000000+00:00</time></trkpt><trkpt lat="30.68571091" lon="34.79370117"><ele>785.0</ele><time>2013-11-21T13:58:09.0000000+00:00</time></trkpt><trkpt lat="30.68556023" lon="34.79385757"><ele>785.3</ele><time>2013-11-21T13:58:14.0000000+00:00</time></trkpt><trkpt lat="30.68541527" lon="34.79398727"><ele>785.4</ele><time>2013-11-21T13:58:19.0000000+00:00</time></trkpt><trkpt lat="30.68528175" lon="34.79411697"><ele>785.3</ele><time>2013-11-21T13:58:24.0000000+00:00</time></trkpt><trkpt lat="30.68512535" lon="34.79425049"><ele>788.5</ele><time>2013-11-21T13:58:29.0000000+00:00</time></trkpt><trkpt lat="30.68496513" lon="34.79440308"><ele>788.7</ele><time>2013-11-21T13:58:34.0000000+00:00</time></trkpt><trkpt lat="30.68481636" lon="34.79454422"><ele>789.9</ele><time>2013-11-21T13:58:39.0000000+00:00</time></trkpt><trkpt lat="30.68465424" lon="34.79470062"><ele>789.6</ele><time>2013-11-21T13:58:44.0000000+00:00</time></trkpt><trkpt lat="30.6845398" lon="34.79481125"><ele>791.1</ele><time>2013-11-21T13:58:49.0000000+00:00</time></trkpt><trkpt lat="30.68446922" lon="34.79486847"><ele>791.0</ele><time>2013-11-21T13:58:54.0000000+00:00</time></trkpt><trkpt lat="30.68435478" lon="34.7949791"><ele>790.2</ele><time>2013-11-21T13:58:59.0000000+00:00</time></trkpt><trkpt lat="30.68421936" lon="34.79511643"><ele>789.3</ele><time>2013-11-21T13:59:04.0000000+00:00</time></trkpt><trkpt lat="30.68408394" lon="34.79525375"><ele>790.9</ele><time>2013-11-21T13:59:09.0000000+00:00</time></trkpt><trkpt lat="30.68400383" lon="34.79537201"><ele>791.5</ele><time>2013-11-21T13:59:14.0000000+00:00</time></trkpt><trkpt lat="30.68392563" lon="34.79545975"><ele>790.9</ele><time>2013-11-21T13:59:19.0000000+00:00</time></trkpt><trkpt lat="30.68383217" lon="34.79559326"><ele>791.5</ele><time>2013-11-21T13:59:24.0000000+00:00</time></trkpt><trkpt lat="30.68373299" lon="34.79576111"><ele>792.6</ele><time>2013-11-21T13:59:29.0000000+00:00</time></trkpt><trkpt lat="30.68361473" lon="34.79593658"><ele>795.1</ele><time>2013-11-21T13:59:34.0000000+00:00</time></trkpt><trkpt lat="30.68355942" lon="34.79605103"><ele>795.3</ele><time>2013-11-21T13:59:39.0000000+00:00</time></trkpt><trkpt lat="30.68346787" lon="34.79623032"><ele>793.6</ele><time>2013-11-21T13:59:44.0000000+00:00</time></trkpt><trkpt lat="30.68337441" lon="34.79639816"><ele>795.5</ele><time>2013-11-21T13:59:49.0000000+00:00</time></trkpt><trkpt lat="30.6832943" lon="34.79653931"><ele>796.5</ele><time>2013-11-21T13:59:54.0000000+00:00</time></trkpt><trkpt lat="30.68319511" lon="34.79672623"><ele>796.4</ele><time>2013-11-21T13:59:59.0000000+00:00</time></trkpt><trkpt lat="30.68309975" lon="34.796875"><ele>797.6</ele><time>2013-11-21T14:00:04.0000000+00:00</time></trkpt><trkpt lat="30.68303299" lon="34.7970047"><ele>798.3</ele><time>2013-11-21T14:00:09.0000000+00:00</time></trkpt><trkpt lat="30.6829567" lon="34.79714584"><ele>796.0</ele><time>2013-11-21T14:00:14.0000000+00:00</time></trkpt><trkpt lat="30.68286705" lon="34.79732132"><ele>796.6</ele><time>2013-11-21T14:00:19.0000000+00:00</time></trkpt><trkpt lat="30.68279457" lon="34.79745102"><ele>798.0</ele><time>2013-11-21T14:00:24.0000000+00:00</time></trkpt><trkpt lat="30.68275261" lon="34.79751968"><ele>797.4</ele><time>2013-11-21T14:00:29.0000000+00:00</time></trkpt><trkpt lat="30.68268776" lon="34.79766083"><ele>796.9</ele><time>2013-11-21T14:00:34.0000000+00:00</time></trkpt><trkpt lat="30.68257904" lon="34.7978363"><ele>796.8</ele><time>2013-11-21T14:00:39.0000000+00:00</time></trkpt><trkpt lat="30.68246841" lon="34.79802322"><ele>797.7</ele><time>2013-11-21T14:00:44.0000000+00:00</time></trkpt><trkpt lat="30.68235779" lon="34.79824448"><ele>796.1</ele><time>2013-11-21T14:00:49.0000000+00:00</time></trkpt><trkpt lat="30.68227768" lon="34.79841614"><ele>796.0</ele><time>2013-11-21T14:00:54.0000000+00:00</time></trkpt><trkpt lat="30.68220329" lon="34.79853058"><ele>796.5</ele><time>2013-11-21T14:00:59.0000000+00:00</time></trkpt><trkpt lat="30.68212318" lon="34.79865265"><ele>799.0</ele><time>2013-11-21T14:01:04.0000000+00:00</time></trkpt><trkpt lat="30.68204308" lon="34.79877472"><ele>799.2</ele><time>2013-11-21T14:01:09.0000000+00:00</time></trkpt><trkpt lat="30.68196487" lon="34.79892349"><ele>800.4</ele><time>2013-11-21T14:01:14.0000000+00:00</time></trkpt><trkpt lat="30.68189812" lon="34.79906464"><ele>801.0</ele><time>2013-11-21T14:01:19.0000000+00:00</time></trkpt><trkpt lat="30.68183708" lon="34.79917526"><ele>802.4</ele><time>2013-11-21T14:01:24.0000000+00:00</time></trkpt><trkpt lat="30.68175888" lon="34.79930878"><ele>803.1</ele><time>2013-11-21T14:01:29.0000000+00:00</time></trkpt><trkpt lat="30.68170357" lon="34.79940414"><ele>801.9</ele><time>2013-11-21T14:01:34.0000000+00:00</time></trkpt><trkpt lat="30.68166542" lon="34.79948044"><ele>805.6</ele><time>2013-11-21T14:01:39.0000000+00:00</time></trkpt><trkpt lat="30.68160057" lon="34.79959869"><ele>805.9</ele><time>2013-11-21T14:01:44.0000000+00:00</time></trkpt><trkpt lat="30.68153381" lon="34.79971695"><ele>805.4</ele><time>2013-11-21T14:01:49.0000000+00:00</time></trkpt><trkpt lat="30.68149376" lon="34.79980469"><ele>806.5</ele><time>2013-11-21T14:01:54.0000000+00:00</time></trkpt><trkpt lat="30.68144989" lon="34.79986572"><ele>809.3</ele><time>2013-11-21T14:01:59.0000000+00:00</time></trkpt><trkpt lat="30.68139648" lon="34.79997253"><ele>810.7</ele><time>2013-11-21T14:02:04.0000000+00:00</time></trkpt><trkpt lat="30.68133354" lon="34.80008316"><ele>812.3</ele><time>2013-11-21T14:02:09.0000000+00:00</time></trkpt><trkpt lat="30.68125725" lon="34.80020905"><ele>812.0</ele><time>2013-11-21T14:02:14.0000000+00:00</time></trkpt><trkpt lat="30.6811409" lon="34.80036926"><ele>813.0</ele><time>2013-11-21T14:02:19.0000000+00:00</time></trkpt><trkpt lat="30.68103981" lon="34.8004837"><ele>813.5</ele><time>2013-11-21T14:02:24.0000000+00:00</time></trkpt><trkpt lat="30.680933" lon="34.8005867"><ele>813.0</ele><time>2013-11-21T14:02:29.0000000+00:00</time></trkpt><trkpt lat="30.68077087" lon="34.8007164"><ele>813.5</ele><time>2013-11-21T14:02:34.0000000+00:00</time></trkpt><trkpt lat="30.68063736" lon="34.80081177"><ele>812.7</ele><time>2013-11-21T14:02:39.0000000+00:00</time></trkpt><trkpt lat="30.68050957" lon="34.80089188"><ele>810.8</ele><time>2013-11-21T14:02:44.0000000+00:00</time></trkpt><trkpt lat="30.68035889" lon="34.80097199"><ele>811.2</ele><time>2013-11-21T14:02:49.0000000+00:00</time></trkpt><trkpt lat="30.68019104" lon="34.80107117"><ele>814.9</ele><time>2013-11-21T14:02:54.0000000+00:00</time></trkpt><trkpt lat="30.68006325" lon="34.80113983"><ele>817.0</ele><time>2013-11-21T14:02:59.0000000+00:00</time></trkpt><trkpt lat="30.67989922" lon="34.80124283"><ele>820.0</ele><time>2013-11-21T14:03:04.0000000+00:00</time></trkpt><trkpt lat="30.67976952" lon="34.80132294"><ele>822.7</ele><time>2013-11-21T14:03:09.0000000+00:00</time></trkpt><trkpt lat="30.6796093" lon="34.80140686"><ele>820.9</ele><time>2013-11-21T14:03:14.0000000+00:00</time></trkpt><trkpt lat="30.67945671" lon="34.80149841"><ele>821.9</ele><time>2013-11-21T14:03:19.0000000+00:00</time></trkpt><trkpt lat="30.67937279" lon="34.80155563"><ele>821.2</ele><time>2013-11-21T14:03:24.0000000+00:00</time></trkpt><trkpt lat="30.67923164" lon="34.80163574"><ele>820.4</ele><time>2013-11-21T14:03:29.0000000+00:00</time></trkpt><trkpt lat="30.67905808" lon="34.80174255"><ele>821.1</ele><time>2013-11-21T14:03:34.0000000+00:00</time></trkpt><trkpt lat="30.6789093" lon="34.80181885"><ele>820.6</ele><time>2013-11-21T14:03:39.0000000+00:00</time></trkpt><trkpt lat="30.67877007" lon="34.80188751"><ele>817.7</ele><time>2013-11-21T14:03:44.0000000+00:00</time></trkpt><trkpt lat="30.67863655" lon="34.80197525"><ele>818.0</ele><time>2013-11-21T14:03:49.0000000+00:00</time></trkpt><trkpt lat="30.67846108" lon="34.80207062"><ele>818.2</ele><time>2013-11-21T14:03:54.0000000+00:00</time></trkpt><trkpt lat="30.67831612" lon="34.80215073"><ele>817.9</ele><time>2013-11-21T14:03:59.0000000+00:00</time></trkpt><trkpt lat="30.67819977" lon="34.80221939"><ele>819.3</ele><time>2013-11-21T14:04:04.0000000+00:00</time></trkpt><trkpt lat="30.6781044" lon="34.80227661"><ele>820.6</ele><time>2013-11-21T14:04:09.0000000+00:00</time></trkpt><trkpt lat="30.67800522" lon="34.8023262"><ele>820.0</ele><time>2013-11-21T14:04:14.0000000+00:00</time></trkpt><trkpt lat="30.67791557" lon="34.80238724"><ele>818.5</ele><time>2013-11-21T14:04:19.0000000+00:00</time></trkpt><trkpt lat="30.67782974" lon="34.80243683"><ele>818.1</ele><time>2013-11-21T14:04:24.0000000+00:00</time></trkpt><trkpt lat="30.67771721" lon="34.80249786"><ele>818.1</ele><time>2013-11-21T14:04:29.0000000+00:00</time></trkpt><trkpt lat="30.67756462" lon="34.80258942"><ele>819.5</ele><time>2013-11-21T14:04:34.0000000+00:00</time></trkpt><trkpt lat="30.67740059" lon="34.80267716"><ele>819.5</ele><time>2013-11-21T14:04:39.0000000+00:00</time></trkpt><trkpt lat="30.67721176" lon="34.80278397"><ele>819.4</ele><time>2013-11-21T14:04:44.0000000+00:00</time></trkpt><trkpt lat="30.67699242" lon="34.80290222"><ele>819.8</ele><time>2013-11-21T14:04:49.0000000+00:00</time></trkpt><trkpt lat="30.67674446" lon="34.80304337"><ele>818.9</ele><time>2013-11-21T14:04:54.0000000+00:00</time></trkpt><trkpt lat="30.67644882" lon="34.80321121"><ele>818.0</ele><time>2013-11-21T14:04:59.0000000+00:00</time></trkpt><trkpt lat="30.6761322" lon="34.80340195"><ele>816.2</ele><time>2013-11-21T14:05:04.0000000+00:00</time></trkpt><trkpt lat="30.67570877" lon="34.80358505"><ele>813.2</ele><time>2013-11-21T14:05:09.0000000+00:00</time></trkpt><trkpt lat="30.67518616" lon="34.80373383"><ele>809.3</ele><time>2013-11-21T14:05:14.0000000+00:00</time></trkpt><trkpt lat="30.67455864" lon="34.80382919"><ele>805.7</ele><time>2013-11-21T14:05:19.0000000+00:00</time></trkpt><trkpt lat="30.67388344" lon="34.80388641"><ele>803.4</ele><time>2013-11-21T14:05:24.0000000+00:00</time></trkpt><trkpt lat="30.67320061" lon="34.80397034"><ele>799.7</ele><time>2013-11-21T14:05:29.0000000+00:00</time></trkpt><trkpt lat="30.67257881" lon="34.80401993"><ele>797.7</ele><time>2013-11-21T14:05:34.0000000+00:00</time></trkpt><trkpt lat="30.67201424" lon="34.8040657"><ele>794.6</ele><time>2013-11-21T14:05:39.0000000+00:00</time></trkpt><trkpt lat="30.67152214" lon="34.80413437"><ele>794.9</ele><time>2013-11-21T14:05:44.0000000+00:00</time></trkpt><trkpt lat="30.67110062" lon="34.8041687"><ele>794.8</ele><time>2013-11-21T14:05:49.0000000+00:00</time></trkpt><trkpt lat="30.67075348" lon="34.80418778"><ele>796.6</ele><time>2013-11-21T14:05:54.0000000+00:00</time></trkpt><trkpt lat="30.67042732" lon="34.80421066"><ele>797.5</ele><time>2013-11-21T14:05:59.0000000+00:00</time></trkpt><trkpt lat="30.67011261" lon="34.80424881"><ele>798.7</ele><time>2013-11-21T14:06:04.0000000+00:00</time></trkpt><trkpt lat="30.66985321" lon="34.80428314"><ele>798.1</ele><time>2013-11-21T14:06:09.0000000+00:00</time></trkpt><trkpt lat="30.66966057" lon="34.80431747"><ele>799.9</ele><time>2013-11-21T14:06:14.0000000+00:00</time></trkpt><trkpt lat="30.66945267" lon="34.80433655"><ele>799.6</ele><time>2013-11-21T14:06:19.0000000+00:00</time></trkpt><trkpt lat="30.66926384" lon="34.80434418"><ele>798.9</ele><time>2013-11-21T14:06:24.0000000+00:00</time></trkpt><trkpt lat="30.66908646" lon="34.80435944"><ele>799.3</ele><time>2013-11-21T14:06:29.0000000+00:00</time></trkpt><trkpt lat="30.6689949" lon="34.80437088"><ele>798.7</ele><time>2013-11-21T14:06:34.0000000+00:00</time></trkpt><trkpt lat="30.66891098" lon="34.80439377"><ele>799.6</ele><time>2013-11-21T14:06:39.0000000+00:00</time></trkpt><trkpt lat="30.66876984" lon="34.80438995"><ele>797.7</ele><time>2013-11-21T14:06:44.0000000+00:00</time></trkpt><trkpt lat="30.66861916" lon="34.8044014"><ele>797.4</ele><time>2013-11-21T14:06:49.0000000+00:00</time></trkpt><trkpt lat="30.66854477" lon="34.80440903"><ele>796.5</ele><time>2013-11-21T14:06:54.0000000+00:00</time></trkpt><trkpt lat="30.66842079" lon="34.80441284"><ele>797.4</ele><time>2013-11-21T14:06:59.0000000+00:00</time></trkpt><trkpt lat="30.66826248" lon="34.80443192"><ele>798.2</ele><time>2013-11-21T14:07:04.0000000+00:00</time></trkpt><trkpt lat="30.66809654" lon="34.80443573"><ele>798.3</ele><time>2013-11-21T14:07:09.0000000+00:00</time></trkpt><trkpt lat="30.66796303" lon="34.80447006"><ele>797.7</ele><time>2013-11-21T14:07:14.0000000+00:00</time></trkpt><trkpt lat="30.667799" lon="34.80450821"><ele>797.9</ele><time>2013-11-21T14:07:19.0000000+00:00</time></trkpt><trkpt lat="30.66763878" lon="34.8045311"><ele>798.0</ele><time>2013-11-21T14:07:24.0000000+00:00</time></trkpt><trkpt lat="30.66744614" lon="34.80457306"><ele>799.8</ele><time>2013-11-21T14:07:29.0000000+00:00</time></trkpt><trkpt lat="30.66727448" lon="34.80460358"><ele>798.1</ele><time>2013-11-21T14:07:34.0000000+00:00</time></trkpt><trkpt lat="30.66708183" lon="34.80469513"><ele>798.2</ele><time>2013-11-21T14:07:39.0000000+00:00</time></trkpt><trkpt lat="30.66693497" lon="34.80477905"><ele>796.6</ele><time>2013-11-21T14:07:44.0000000+00:00</time></trkpt><trkpt lat="30.6668129" lon="34.80486679"><ele>796.0</ele><time>2013-11-21T14:07:49.0000000+00:00</time></trkpt><trkpt lat="30.66673279" lon="34.80495071"><ele>795.2</ele><time>2013-11-21T14:07:54.0000000+00:00</time></trkpt><trkpt lat="30.66665649" lon="34.80503082"><ele>794.4</ele><time>2013-11-21T14:07:59.0000000+00:00</time></trkpt><trkpt lat="30.66659546" lon="34.80509567"><ele>794.0</ele><time>2013-11-21T14:08:04.0000000+00:00</time></trkpt><trkpt lat="30.66654587" lon="34.80512238"><ele>793.8</ele><time>2013-11-21T14:08:09.0000000+00:00</time></trkpt><trkpt lat="30.6664753" lon="34.80520248"><ele>793.9</ele><time>2013-11-21T14:08:14.0000000+00:00</time></trkpt><trkpt lat="30.66644287" lon="34.80525971"><ele>793.8</ele><time>2013-11-21T14:08:19.0000000+00:00</time></trkpt><trkpt lat="30.66643524" lon="34.80525971"><ele>793.3</ele><time>2013-11-21T14:08:24.0000000+00:00</time></trkpt><trkpt lat="30.66643333" lon="34.80526352"><ele>793.3</ele><time>2013-11-21T14:08:29.0000000+00:00</time></trkpt><trkpt lat="30.66642571" lon="34.80528259"><ele>793.2</ele><time>2013-11-21T14:08:34.0000000+00:00</time></trkpt><trkpt lat="30.66633797" lon="34.80542755"><ele>794.8</ele><time>2013-11-21T14:08:39.0000000+00:00</time></trkpt><trkpt lat="30.66623688" lon="34.8055687"><ele>794.3</ele><time>2013-11-21T14:08:44.0000000+00:00</time></trkpt><trkpt lat="30.66610909" lon="34.80574036"><ele>795.2</ele><time>2013-11-21T14:08:49.0000000+00:00</time></trkpt><trkpt lat="30.66594124" lon="34.80595398"><ele>795.0</ele><time>2013-11-21T14:08:54.0000000+00:00</time></trkpt><trkpt lat="30.66575623" lon="34.80621338"><ele>795.0</ele><time>2013-11-21T14:08:59.0000000+00:00</time></trkpt><trkpt lat="30.66555023" lon="34.80651474"><ele>794.3</ele><time>2013-11-21T14:09:04.0000000+00:00</time></trkpt><trkpt lat="30.66530228" lon="34.80686188"><ele>793.2</ele><time>2013-11-21T14:09:09.0000000+00:00</time></trkpt><trkpt lat="30.66502762" lon="34.80726624"><ele>792.3</ele><time>2013-11-21T14:09:14.0000000+00:00</time></trkpt><trkpt lat="30.66469765" lon="34.80772781"><ele>789.5</ele><time>2013-11-21T14:09:19.0000000+00:00</time></trkpt><trkpt lat="30.66428947" lon="34.80820084"><ele>787.0</ele><time>2013-11-21T14:09:24.0000000+00:00</time></trkpt><trkpt lat="30.66376495" lon="34.80853272"><ele>785.4</ele><time>2013-11-21T14:09:29.0000000+00:00</time></trkpt><trkpt lat="30.66323662" lon="34.80869675"><ele>784.4</ele><time>2013-11-21T14:09:34.0000000+00:00</time></trkpt><trkpt lat="30.66276932" lon="34.80884934"><ele>783.1</ele><time>2013-11-21T14:09:39.0000000+00:00</time></trkpt><trkpt lat="30.6622963" lon="34.80900574"><ele>782.7</ele><time>2013-11-21T14:09:44.0000000+00:00</time></trkpt><trkpt lat="30.66186905" lon="34.80913925"><ele>782.9</ele><time>2013-11-21T14:09:49.0000000+00:00</time></trkpt><trkpt lat="30.66150665" lon="34.80923843"><ele>783.3</ele><time>2013-11-21T14:09:54.0000000+00:00</time></trkpt><trkpt lat="30.66117477" lon="34.80932236"><ele>784.7</ele><time>2013-11-21T14:09:59.0000000+00:00</time></trkpt><trkpt lat="30.66088104" lon="34.80943298"><ele>785.8</ele><time>2013-11-21T14:10:04.0000000+00:00</time></trkpt><trkpt lat="30.66065216" lon="34.80952072"><ele>786.8</ele><time>2013-11-21T14:10:09.0000000+00:00</time></trkpt><trkpt lat="30.66044045" lon="34.80958939"><ele>787.6</ele><time>2013-11-21T14:10:14.0000000+00:00</time></trkpt><trkpt lat="30.66023827" lon="34.80967331"><ele>787.8</ele><time>2013-11-21T14:10:19.0000000+00:00</time></trkpt><trkpt lat="30.66003799" lon="34.80973816"><ele>788.0</ele><time>2013-11-21T14:10:24.0000000+00:00</time></trkpt><trkpt lat="30.65984154" lon="34.80981064"><ele>788.5</ele><time>2013-11-21T14:10:29.0000000+00:00</time></trkpt><trkpt lat="30.65963364" lon="34.80989838"><ele>789.8</ele><time>2013-11-21T14:10:34.0000000+00:00</time></trkpt><trkpt lat="30.65943146" lon="34.80995941"><ele>790.6</ele><time>2013-11-21T14:10:39.0000000+00:00</time></trkpt><trkpt lat="30.65924072" lon="34.81005478"><ele>789.0</ele><time>2013-11-21T14:10:44.0000000+00:00</time></trkpt><trkpt lat="30.65913773" lon="34.81002426"><ele>788.9</ele><time>2013-11-21T14:10:49.0000000+00:00</time></trkpt><trkpt lat="30.65901566" lon="34.80994797"><ele>788.1</ele><time>2013-11-21T14:10:54.0000000+00:00</time></trkpt><trkpt lat="30.65889359" lon="34.80990982"><ele>787.2</ele><time>2013-11-21T14:10:59.0000000+00:00</time></trkpt><trkpt lat="30.65882301" lon="34.8098793"><ele>786.2</ele><time>2013-11-21T14:11:04.0000000+00:00</time></trkpt><trkpt lat="30.65873337" lon="34.80993652"><ele>785.7</ele><time>2013-11-21T14:11:09.0000000+00:00</time></trkpt><trkpt lat="30.65860748" lon="34.81000137"><ele>784.4</ele><time>2013-11-21T14:11:14.0000000+00:00</time></trkpt><trkpt lat="30.65850258" lon="34.81004334"><ele>783.0</ele><time>2013-11-21T14:11:19.0000000+00:00</time></trkpt><trkpt lat="30.65843773" lon="34.81016541"><ele>777.7</ele><time>2013-11-21T14:11:24.0000000+00:00</time></trkpt><trkpt lat="30.65838814" lon="34.81019592"><ele>776.1</ele><time>2013-11-21T14:11:29.0000000+00:00</time></trkpt><trkpt lat="30.6583004" lon="34.81023407"><ele>775.4</ele><time>2013-11-21T14:11:34.0000000+00:00</time></trkpt><trkpt lat="30.65820122" lon="34.81023407"><ele>773.9</ele><time>2013-11-21T14:11:39.0000000+00:00</time></trkpt><trkpt lat="30.65811157" lon="34.81021118"><ele>772.8</ele><time>2013-11-21T14:11:44.0000000+00:00</time></trkpt><trkpt lat="30.65795517" lon="34.81018066"><ele>770.4</ele><time>2013-11-21T14:11:49.0000000+00:00</time></trkpt><trkpt lat="30.65775681" lon="34.81017304"><ele>770.7</ele><time>2013-11-21T14:11:54.0000000+00:00</time></trkpt><trkpt lat="30.65762901" lon="34.81011581"><ele>770.0</ele><time>2013-11-21T14:11:59.0000000+00:00</time></trkpt><trkpt lat="30.65747452" lon="34.8100853"><ele>771.3</ele><time>2013-11-21T14:12:04.0000000+00:00</time></trkpt><trkpt lat="30.65732575" lon="34.81007767"><ele>773.6</ele><time>2013-11-21T14:12:09.0000000+00:00</time></trkpt><trkpt lat="30.65716934" lon="34.81005859"><ele>772.4</ele><time>2013-11-21T14:12:14.0000000+00:00</time></trkpt><trkpt lat="30.6570015" lon="34.81003571"><ele>772.4</ele><time>2013-11-21T14:12:19.0000000+00:00</time></trkpt><trkpt lat="30.656847" lon="34.81002426"><ele>771.3</ele><time>2013-11-21T14:12:24.0000000+00:00</time></trkpt><trkpt lat="30.65670395" lon="34.810009"><ele>775.4</ele><time>2013-11-21T14:12:29.0000000+00:00</time></trkpt><trkpt lat="30.65654564" lon="34.81000137"><ele>776.4</ele><time>2013-11-21T14:12:34.0000000+00:00</time></trkpt><trkpt lat="30.65640068" lon="34.81000137"><ele>777.5</ele><time>2013-11-21T14:12:39.0000000+00:00</time></trkpt><trkpt lat="30.65624237" lon="34.810009"><ele>778.7</ele><time>2013-11-21T14:12:44.0000000+00:00</time></trkpt><trkpt lat="30.65608406" lon="34.80998993"><ele>778.1</ele><time>2013-11-21T14:12:49.0000000+00:00</time></trkpt><trkpt lat="30.6559124" lon="34.80997849"><ele>778.0</ele><time>2013-11-21T14:12:54.0000000+00:00</time></trkpt><trkpt lat="30.65573311" lon="34.80996323"><ele>777.1</ele><time>2013-11-21T14:12:59.0000000+00:00</time></trkpt><trkpt lat="30.65555" lon="34.8099556"><ele>777.5</ele><time>2013-11-21T14:13:04.0000000+00:00</time></trkpt><trkpt lat="30.65536499" lon="34.80991745"><ele>777.4</ele><time>2013-11-21T14:13:09.0000000+00:00</time></trkpt><trkpt lat="30.65518189" lon="34.80991364"><ele>778.8</ele><time>2013-11-21T14:13:14.0000000+00:00</time></trkpt><trkpt lat="30.65500641" lon="34.80989456"><ele>778.8</ele><time>2013-11-21T14:13:19.0000000+00:00</time></trkpt><trkpt lat="30.65482712" lon="34.80988312"><ele>779.1</ele><time>2013-11-21T14:13:24.0000000+00:00</time></trkpt><trkpt lat="30.65464401" lon="34.80989075"><ele>780.9</ele><time>2013-11-21T14:13:29.0000000+00:00</time></trkpt><trkpt lat="30.65446472" lon="34.80985642"><ele>783.4</ele><time>2013-11-21T14:13:34.0000000+00:00</time></trkpt><trkpt lat="30.65428734" lon="34.80985642"><ele>784.2</ele><time>2013-11-21T14:13:39.0000000+00:00</time></trkpt><trkpt lat="30.65412712" lon="34.80984497"><ele>785.5</ele><time>2013-11-21T14:13:44.0000000+00:00</time></trkpt><trkpt lat="30.65397072" lon="34.80983734"><ele>786.5</ele><time>2013-11-21T14:13:49.0000000+00:00</time></trkpt><trkpt lat="30.65381432" lon="34.80980301"><ele>787.0</ele><time>2013-11-21T14:13:54.0000000+00:00</time></trkpt><trkpt lat="30.65365791" lon="34.80980301"><ele>785.4</ele><time>2013-11-21T14:13:59.0000000+00:00</time></trkpt><trkpt lat="30.65351868" lon="34.80980682"><ele>784.8</ele><time>2013-11-21T14:14:04.0000000+00:00</time></trkpt><trkpt lat="30.65337372" lon="34.80980301"><ele>785.3</ele><time>2013-11-21T14:14:09.0000000+00:00</time></trkpt><trkpt lat="30.65322304" lon="34.80977631"><ele>785.0</ele><time>2013-11-21T14:14:14.0000000+00:00</time></trkpt><trkpt lat="30.65308952" lon="34.80976486"><ele>785.1</ele><time>2013-11-21T14:14:19.0000000+00:00</time></trkpt><trkpt lat="30.65297127" lon="34.80979157"><ele>784.8</ele><time>2013-11-21T14:14:24.0000000+00:00</time></trkpt><trkpt lat="30.65286636" lon="34.8098526"><ele>783.7</ele><time>2013-11-21T14:14:29.0000000+00:00</time></trkpt><trkpt lat="30.6528225" lon="34.8099556"><ele>783.8</ele><time>2013-11-21T14:14:34.0000000+00:00</time></trkpt><trkpt lat="30.65282822" lon="34.81009674"><ele>782.7</ele><time>2013-11-21T14:14:39.0000000+00:00</time></trkpt><trkpt lat="30.65280724" lon="34.81024933"><ele>783.4</ele><time>2013-11-21T14:14:44.0000000+00:00</time></trkpt><trkpt lat="30.65272713" lon="34.81030273"><ele>785.0</ele><time>2013-11-21T14:14:49.0000000+00:00</time></trkpt><trkpt lat="30.65265465" lon="34.81024933"><ele>786.8</ele><time>2013-11-21T14:14:54.0000000+00:00</time></trkpt><trkpt lat="30.65254021" lon="34.81020737"><ele>787.2</ele><time>2013-11-21T14:14:59.0000000+00:00</time></trkpt><trkpt lat="30.65240669" lon="34.81016159"><ele>787.7</ele><time>2013-11-21T14:15:04.0000000+00:00</time></trkpt><trkpt lat="30.65228462" lon="34.81012726"><ele>788.7</ele><time>2013-11-21T14:15:09.0000000+00:00</time></trkpt><trkpt lat="30.65215492" lon="34.81009293"><ele>788.8</ele><time>2013-11-21T14:15:14.0000000+00:00</time></trkpt><trkpt lat="30.65201378" lon="34.81003952"><ele>788.9</ele><time>2013-11-21T14:15:19.0000000+00:00</time></trkpt><trkpt lat="30.65187836" lon="34.81000519"><ele>788.0</ele><time>2013-11-21T14:15:24.0000000+00:00</time></trkpt><trkpt lat="30.65173912" lon="34.8099823"><ele>785.5</ele><time>2013-11-21T14:15:29.0000000+00:00</time></trkpt><trkpt lat="30.65158463" lon="34.80993652"><ele>785.1</ele><time>2013-11-21T14:15:34.0000000+00:00</time></trkpt><trkpt lat="30.65143967" lon="34.8098793"><ele>786.4</ele><time>2013-11-21T14:15:39.0000000+00:00</time></trkpt><trkpt lat="30.65127373" lon="34.8098259"><ele>786.7</ele><time>2013-11-21T14:15:44.0000000+00:00</time></trkpt><trkpt lat="30.65110779" lon="34.80977249"><ele>786.7</ele><time>2013-11-21T14:15:49.0000000+00:00</time></trkpt><trkpt lat="30.65098381" lon="34.80973434"><ele>788.4</ele><time>2013-11-21T14:15:54.0000000+00:00</time></trkpt><trkpt lat="30.6508522" lon="34.8096962"><ele>789.4</ele><time>2013-11-21T14:15:59.0000000+00:00</time></trkpt><trkpt lat="30.65070725" lon="34.80966568"><ele>792.6</ele><time>2013-11-21T14:16:04.0000000+00:00</time></trkpt><trkpt lat="30.65056801" lon="34.80962753"><ele>795.4</ele><time>2013-11-21T14:16:09.0000000+00:00</time></trkpt><trkpt lat="30.65041733" lon="34.80958557"><ele>797.1</ele><time>2013-11-21T14:16:14.0000000+00:00</time></trkpt><trkpt lat="30.65026283" lon="34.80951691"><ele>798.0</ele><time>2013-11-21T14:16:19.0000000+00:00</time></trkpt><trkpt lat="30.65008545" lon="34.80944443"><ele>799.2</ele><time>2013-11-21T14:16:24.0000000+00:00</time></trkpt><trkpt lat="30.64990044" lon="34.80936813"><ele>798.3</ele><time>2013-11-21T14:16:29.0000000+00:00</time></trkpt><trkpt lat="30.64972687" lon="34.80930328"><ele>798.5</ele><time>2013-11-21T14:16:34.0000000+00:00</time></trkpt><trkpt lat="30.64957809" lon="34.80924606"><ele>800.8</ele><time>2013-11-21T14:16:39.0000000+00:00</time></trkpt><trkpt lat="30.64940643" lon="34.80915833"><ele>800.9</ele><time>2013-11-21T14:16:44.0000000+00:00</time></trkpt><trkpt lat="30.64923859" lon="34.8090744"><ele>801.2</ele><time>2013-11-21T14:16:49.0000000+00:00</time></trkpt><trkpt lat="30.64908981" lon="34.80898285"><ele>800.7</ele><time>2013-11-21T14:16:54.0000000+00:00</time></trkpt><trkpt lat="30.64893341" lon="34.80890274"><ele>800.2</ele><time>2013-11-21T14:16:59.0000000+00:00</time></trkpt><trkpt lat="30.64875412" lon="34.80880737"><ele>798.9</ele><time>2013-11-21T14:17:04.0000000+00:00</time></trkpt><trkpt lat="30.6485405" lon="34.80870056"><ele>798.6</ele><time>2013-11-21T14:17:09.0000000+00:00</time></trkpt><trkpt lat="30.64830399" lon="34.80858612"><ele>798.8</ele><time>2013-11-21T14:17:14.0000000+00:00</time></trkpt><trkpt lat="30.64809227" lon="34.80847549"><ele>797.0</ele><time>2013-11-21T14:17:19.0000000+00:00</time></trkpt><trkpt lat="30.64788437" lon="34.80838394"><ele>798.1</ele><time>2013-11-21T14:17:24.0000000+00:00</time></trkpt><trkpt lat="30.64769554" lon="34.80828095"><ele>796.8</ele><time>2013-11-21T14:17:29.0000000+00:00</time></trkpt><trkpt lat="30.64751625" lon="34.80818176"><ele>795.9</ele><time>2013-11-21T14:17:34.0000000+00:00</time></trkpt><trkpt lat="30.64733124" lon="34.80807877"><ele>795.1</ele><time>2013-11-21T14:17:39.0000000+00:00</time></trkpt><trkpt lat="30.64716911" lon="34.80799866"><ele>794.7</ele><time>2013-11-21T14:17:44.0000000+00:00</time></trkpt><trkpt lat="30.64700508" lon="34.80793762"><ele>795.8</ele><time>2013-11-21T14:17:49.0000000+00:00</time></trkpt><trkpt lat="30.64686394" lon="34.8078804"><ele>798.2</ele><time>2013-11-21T14:17:54.0000000+00:00</time></trkpt><trkpt lat="30.64671326" lon="34.80779648"><ele>800.6</ele><time>2013-11-21T14:17:59.0000000+00:00</time></trkpt><trkpt lat="30.64656258" lon="34.807724"><ele>801.0</ele><time>2013-11-21T14:18:04.0000000+00:00</time></trkpt><trkpt lat="30.64640045" lon="34.80762863"><ele>801.0</ele><time>2013-11-21T14:18:09.0000000+00:00</time></trkpt><trkpt lat="30.64623833" lon="34.80756378"><ele>801.3</ele><time>2013-11-21T14:18:14.0000000+00:00</time></trkpt><trkpt lat="30.64608383" lon="34.80749893"><ele>802.8</ele><time>2013-11-21T14:18:19.0000000+00:00</time></trkpt><trkpt lat="30.64590645" lon="34.80746079"><ele>801.4</ele><time>2013-11-21T14:18:24.0000000+00:00</time></trkpt><trkpt lat="30.64571953" lon="34.80742264"><ele>803.1</ele><time>2013-11-21T14:18:29.0000000+00:00</time></trkpt><trkpt lat="30.64550591" lon="34.80737686"><ele>802.7</ele><time>2013-11-21T14:18:34.0000000+00:00</time></trkpt><trkpt lat="30.6452961" lon="34.80733872"><ele>804.0</ele><time>2013-11-21T14:18:39.0000000+00:00</time></trkpt><trkpt lat="30.64511299" lon="34.80728912"><ele>804.7</ele><time>2013-11-21T14:18:44.0000000+00:00</time></trkpt><trkpt lat="30.64491081" lon="34.80725479"><ele>802.5</ele><time>2013-11-21T14:18:49.0000000+00:00</time></trkpt><trkpt lat="30.64468765" lon="34.80721283"><ele>800.5</ele><time>2013-11-21T14:18:54.0000000+00:00</time></trkpt><trkpt lat="30.64445496" lon="34.80717087"><ele>799.5</ele><time>2013-11-21T14:18:59.0000000+00:00</time></trkpt><trkpt lat="30.64421082" lon="34.80712128"><ele>800.3</ele><time>2013-11-21T14:19:04.0000000+00:00</time></trkpt><trkpt lat="30.64397812" lon="34.80707932"><ele>797.8</ele><time>2013-11-21T14:19:09.0000000+00:00</time></trkpt><trkpt lat="30.64372444" lon="34.80703354"><ele>801.1</ele><time>2013-11-21T14:19:14.0000000+00:00</time></trkpt><trkpt lat="30.64346886" lon="34.80698776"><ele>801.1</ele><time>2013-11-21T14:19:19.0000000+00:00</time></trkpt><trkpt lat="30.6432209" lon="34.80694962"><ele>802.9</ele><time>2013-11-21T14:19:24.0000000+00:00</time></trkpt><trkpt lat="30.6429615" lon="34.80689621"><ele>803.0</ele><time>2013-11-21T14:19:29.0000000+00:00</time></trkpt><trkpt lat="30.64268494" lon="34.80685806"><ele>804.4</ele><time>2013-11-21T14:19:34.0000000+00:00</time></trkpt><trkpt lat="30.64239883" lon="34.8067894"><ele>803.7</ele><time>2013-11-21T14:19:39.0000000+00:00</time></trkpt><trkpt lat="30.64210701" lon="34.80673599"><ele>801.4</ele><time>2013-11-21T14:19:44.0000000+00:00</time></trkpt><trkpt lat="30.64183807" lon="34.8066864"><ele>798.4</ele><time>2013-11-21T14:19:49.0000000+00:00</time></trkpt><trkpt lat="30.64160729" lon="34.80665588"><ele>796.8</ele><time>2013-11-21T14:19:54.0000000+00:00</time></trkpt><trkpt lat="30.64144325" lon="34.80662155"><ele>794.6</ele><time>2013-11-21T14:19:59.0000000+00:00</time></trkpt><trkpt lat="30.64131165" lon="34.80660248"><ele>795.9</ele><time>2013-11-21T14:20:04.0000000+00:00</time></trkpt><trkpt lat="30.64119148" lon="34.80662155"><ele>798.5</ele><time>2013-11-21T14:20:09.0000000+00:00</time></trkpt><trkpt lat="30.64105225" lon="34.80658722"><ele>801.4</ele><time>2013-11-21T14:20:14.0000000+00:00</time></trkpt><trkpt lat="30.64101028" lon="34.80653"><ele>794.4</ele><time>2013-11-21T14:20:19.0000000+00:00</time></trkpt><trkpt lat="30.64101982" lon="34.80650711"><ele>791.5</ele><time>2013-11-21T14:20:24.0000000+00:00</time></trkpt><trkpt lat="30.64102173" lon="34.80649567"><ele>791.6</ele><time>2013-11-21T14:20:29.0000000+00:00</time></trkpt><trkpt lat="30.64102364" lon="34.80647659"><ele>791.7</ele><time>2013-11-21T14:20:34.0000000+00:00</time></trkpt><trkpt lat="30.64102364" lon="34.80647278"><ele>791.8</ele><time>2013-11-21T14:20:39.0000000+00:00</time></trkpt><trkpt lat="30.64102364" lon="34.80646896"><ele>791.8</ele><time>2013-11-21T14:20:44.0000000+00:00</time></trkpt><trkpt lat="30.64100075" lon="34.80645752"><ele>791.9</ele><time>2013-11-21T14:20:49.0000000+00:00</time></trkpt><trkpt lat="30.64087868" lon="34.80646515"><ele>793.0</ele><time>2013-11-21T14:20:54.0000000+00:00</time></trkpt><trkpt lat="30.64073181" lon="34.80646515"><ele>794.8</ele><time>2013-11-21T14:20:59.0000000+00:00</time></trkpt><trkpt lat="30.64059448" lon="34.80645752"><ele>796.1</ele><time>2013-11-21T14:21:04.0000000+00:00</time></trkpt><trkpt lat="30.64043617" lon="34.80644608"><ele>797.5</ele><time>2013-11-21T14:21:09.0000000+00:00</time></trkpt><trkpt lat="30.64029121" lon="34.80643082"><ele>797.5</ele><time>2013-11-21T14:21:14.0000000+00:00</time></trkpt><trkpt lat="30.64012528" lon="34.80638886"><ele>800.2</ele><time>2013-11-21T14:21:19.0000000+00:00</time></trkpt><trkpt lat="30.63996315" lon="34.80634689"><ele>801.8</ele><time>2013-11-21T14:21:24.0000000+00:00</time></trkpt><trkpt lat="30.63978195" lon="34.80630875"><ele>803.3</ele><time>2013-11-21T14:21:29.0000000+00:00</time></trkpt><trkpt lat="30.63961411" lon="34.80627441"><ele>805.9</ele><time>2013-11-21T14:21:34.0000000+00:00</time></trkpt><trkpt lat="30.63941765" lon="34.80624008"><ele>808.1</ele><time>2013-11-21T14:21:39.0000000+00:00</time></trkpt><trkpt lat="30.63927841" lon="34.80622101"><ele>808.4</ele><time>2013-11-21T14:21:44.0000000+00:00</time></trkpt><trkpt lat="30.63913345" lon="34.80619049"><ele>808.9</ele><time>2013-11-21T14:21:49.0000000+00:00</time></trkpt><trkpt lat="30.63896561" lon="34.80615234"><ele>813.7</ele><time>2013-11-21T14:21:54.0000000+00:00</time></trkpt><trkpt lat="30.63883019" lon="34.80609512"><ele>815.1</ele><time>2013-11-21T14:21:59.0000000+00:00</time></trkpt><trkpt lat="30.63872337" lon="34.80606461"><ele>817.0</ele><time>2013-11-21T14:22:04.0000000+00:00</time></trkpt><trkpt lat="30.6385479" lon="34.80602264"><ele>819.3</ele><time>2013-11-21T14:22:09.0000000+00:00</time></trkpt><trkpt lat="30.63835526" lon="34.80599976"><ele>815.4</ele><time>2013-11-21T14:22:14.0000000+00:00</time></trkpt><trkpt lat="30.6382122" lon="34.8059845"><ele>814.2</ele><time>2013-11-21T14:22:19.0000000+00:00</time></trkpt><trkpt lat="30.63806152" lon="34.80597305"><ele>814.3</ele><time>2013-11-21T14:22:24.0000000+00:00</time></trkpt><trkpt lat="30.63791466" lon="34.80595017"><ele>814.1</ele><time>2013-11-21T14:22:29.0000000+00:00</time></trkpt><trkpt lat="30.63777924" lon="34.80593491"><ele>815.6</ele><time>2013-11-21T14:22:34.0000000+00:00</time></trkpt><trkpt lat="30.63770676" lon="34.80592346"><ele>816.5</ele><time>2013-11-21T14:22:39.0000000+00:00</time></trkpt><trkpt lat="30.63760757" lon="34.80589676"><ele>816.5</ele><time>2013-11-21T14:22:44.0000000+00:00</time></trkpt><trkpt lat="30.63747978" lon="34.80587006"><ele>816.9</ele><time>2013-11-21T14:22:49.0000000+00:00</time></trkpt><trkpt lat="30.63737106" lon="34.80584717"><ele>817.2</ele><time>2013-11-21T14:22:54.0000000+00:00</time></trkpt><trkpt lat="30.63728333" lon="34.80583191"><ele>816.0</ele><time>2013-11-21T14:22:59.0000000+00:00</time></trkpt><trkpt lat="30.63719368" lon="34.80582047"><ele>814.4</ele><time>2013-11-21T14:23:04.0000000+00:00</time></trkpt><trkpt lat="30.63707924" lon="34.80581284"><ele>814.9</ele><time>2013-11-21T14:23:09.0000000+00:00</time></trkpt><trkpt lat="30.63698387" lon="34.80579376"><ele>814.4</ele><time>2013-11-21T14:23:14.0000000+00:00</time></trkpt><trkpt lat="30.63685608" lon="34.80575562"><ele>815.5</ele><time>2013-11-21T14:23:19.0000000+00:00</time></trkpt><trkpt lat="30.6367569" lon="34.80574417"><ele>818.9</ele><time>2013-11-21T14:23:24.0000000+00:00</time></trkpt><trkpt lat="30.63666153" lon="34.80572128"><ele>819.9</ele><time>2013-11-21T14:23:29.0000000+00:00</time></trkpt><trkpt lat="30.6365757" lon="34.80570221"><ele>818.7</ele><time>2013-11-21T14:23:34.0000000+00:00</time></trkpt><trkpt lat="30.6364727" lon="34.80568314"><ele>816.5</ele><time>2013-11-21T14:23:39.0000000+00:00</time></trkpt><trkpt lat="30.6363411" lon="34.80566025"><ele>816.2</ele><time>2013-11-21T14:23:44.0000000+00:00</time></trkpt><trkpt lat="30.63622093" lon="34.80562592"><ele>817.4</ele><time>2013-11-21T14:23:49.0000000+00:00</time></trkpt><trkpt lat="30.6361084" lon="34.8056221"><ele>817.7</ele><time>2013-11-21T14:23:54.0000000+00:00</time></trkpt><trkpt lat="30.63596153" lon="34.8055954"><ele>817.1</ele><time>2013-11-21T14:23:59.0000000+00:00</time></trkpt><trkpt lat="30.63581657" lon="34.80556107"><ele>820.2</ele><time>2013-11-21T14:24:04.0000000+00:00</time></trkpt><trkpt lat="30.6356678" lon="34.80552673"><ele>823.6</ele><time>2013-11-21T14:24:09.0000000+00:00</time></trkpt><trkpt lat="30.63550377" lon="34.80550385"><ele>824.6</ele><time>2013-11-21T14:24:14.0000000+00:00</time></trkpt><trkpt lat="30.6353569" lon="34.80546951"><ele>827.4</ele><time>2013-11-21T14:24:19.0000000+00:00</time></trkpt><trkpt lat="30.63523483" lon="34.805439"><ele>829.0</ele><time>2013-11-21T14:24:24.0000000+00:00</time></trkpt><trkpt lat="30.63508225" lon="34.8053894"><ele>830.3</ele><time>2013-11-21T14:24:29.0000000+00:00</time></trkpt><trkpt lat="30.63492775" lon="34.80535507"><ele>832.4</ele><time>2013-11-21T14:24:34.0000000+00:00</time></trkpt><trkpt lat="30.6347599" lon="34.805336"><ele>831.9</ele><time>2013-11-21T14:24:39.0000000+00:00</time></trkpt><trkpt lat="30.6346302" lon="34.80531311"><ele>831.8</ele><time>2013-11-21T14:24:44.0000000+00:00</time></trkpt><trkpt lat="30.6345501" lon="34.80526352"><ele>833.5</ele><time>2013-11-21T14:24:49.0000000+00:00</time></trkpt><trkpt lat="30.63446045" lon="34.805233"><ele>833.9</ele><time>2013-11-21T14:24:54.0000000+00:00</time></trkpt><trkpt lat="30.63433266" lon="34.80523682"><ele>833.1</ele><time>2013-11-21T14:24:59.0000000+00:00</time></trkpt><trkpt lat="30.63420677" lon="34.80522537"><ele>833.7</ele><time>2013-11-21T14:25:04.0000000+00:00</time></trkpt><trkpt lat="30.63405991" lon="34.80522537"><ele>833.0</ele><time>2013-11-21T14:25:09.0000000+00:00</time></trkpt><trkpt lat="30.63384438" lon="34.80522919"><ele>834.9</ele><time>2013-11-21T14:25:14.0000000+00:00</time></trkpt><trkpt lat="30.63369751" lon="34.80521774"><ele>838.1</ele><time>2013-11-21T14:25:19.0000000+00:00</time></trkpt><trkpt lat="30.63358307" lon="34.80519486"><ele>839.4</ele><time>2013-11-21T14:25:24.0000000+00:00</time></trkpt><trkpt lat="30.6334362" lon="34.80515671"><ele>839.3</ele><time>2013-11-21T14:25:29.0000000+00:00</time></trkpt><trkpt lat="30.63325882" lon="34.80513382"><ele>840.2</ele><time>2013-11-21T14:25:34.0000000+00:00</time></trkpt><trkpt lat="30.63306427" lon="34.80512619"><ele>840.5</ele><time>2013-11-21T14:25:39.0000000+00:00</time></trkpt><trkpt lat="30.63286781" lon="34.80511475"><ele>839.1</ele><time>2013-11-21T14:25:44.0000000+00:00</time></trkpt><trkpt lat="30.63266945" lon="34.8051033"><ele>839.5</ele><time>2013-11-21T14:25:49.0000000+00:00</time></trkpt><trkpt lat="30.63247871" lon="34.80508423"><ele>838.1</ele><time>2013-11-21T14:25:54.0000000+00:00</time></trkpt><trkpt lat="30.63228989" lon="34.80506516"><ele>835.3</ele><time>2013-11-21T14:25:59.0000000+00:00</time></trkpt><trkpt lat="30.63207626" lon="34.8050766"><ele>834.9</ele><time>2013-11-21T14:26:04.0000000+00:00</time></trkpt><trkpt lat="30.63189125" lon="34.80506134"><ele>836.2</ele><time>2013-11-21T14:26:09.0000000+00:00</time></trkpt><trkpt lat="30.63170624" lon="34.80507278"><ele>836.3</ele><time>2013-11-21T14:26:14.0000000+00:00</time></trkpt><trkpt lat="30.63153458" lon="34.8050766"><ele>837.2</ele><time>2013-11-21T14:26:19.0000000+00:00</time></trkpt><trkpt lat="30.63138771" lon="34.8050499"><ele>836.3</ele><time>2013-11-21T14:26:24.0000000+00:00</time></trkpt><trkpt lat="30.63125038" lon="34.80505753"><ele>835.7</ele><time>2013-11-21T14:26:29.0000000+00:00</time></trkpt><trkpt lat="30.63115692" lon="34.80504608"><ele>835.0</ele><time>2013-11-21T14:26:34.0000000+00:00</time></trkpt><trkpt lat="30.63106728" lon="34.80504608"><ele>831.8</ele><time>2013-11-21T14:26:39.0000000+00:00</time></trkpt><trkpt lat="30.63096046" lon="34.80503845"><ele>830.8</ele><time>2013-11-21T14:26:44.0000000+00:00</time></trkpt><trkpt lat="30.63083267" lon="34.80503464"><ele>829.0</ele><time>2013-11-21T14:26:49.0000000+00:00</time></trkpt><trkpt lat="30.63069344" lon="34.80503464"><ele>825.2</ele><time>2013-11-21T14:26:54.0000000+00:00</time></trkpt><trkpt lat="30.63056374" lon="34.80504227"><ele>823.6</ele><time>2013-11-21T14:26:59.0000000+00:00</time></trkpt><trkpt lat="30.63043022" lon="34.80500412"><ele>828.2</ele><time>2013-11-21T14:27:04.0000000+00:00</time></trkpt><trkpt lat="30.63030434" lon="34.80500031"><ele>828.5</ele><time>2013-11-21T14:27:09.0000000+00:00</time></trkpt><trkpt lat="30.63018036" lon="34.80500794"><ele>825.4</ele><time>2013-11-21T14:27:14.0000000+00:00</time></trkpt><trkpt lat="30.63005829" lon="34.80499649"><ele>826.2</ele><time>2013-11-21T14:27:19.0000000+00:00</time></trkpt><trkpt lat="30.62992287" lon="34.80498505"><ele>827.7</ele><time>2013-11-21T14:27:24.0000000+00:00</time></trkpt><trkpt lat="30.62980461" lon="34.80498886"><ele>831.4</ele><time>2013-11-21T14:27:29.0000000+00:00</time></trkpt><trkpt lat="30.62969399" lon="34.80495453"><ele>839.8</ele><time>2013-11-21T14:27:34.0000000+00:00</time></trkpt><trkpt lat="30.62958336" lon="34.8049202"><ele>843.1</ele><time>2013-11-21T14:27:39.0000000+00:00</time></trkpt><trkpt lat="30.6294384" lon="34.8049202"><ele>843.5</ele><time>2013-11-21T14:27:44.0000000+00:00</time></trkpt><trkpt lat="30.62929344" lon="34.80491638"><ele>844.7</ele><time>2013-11-21T14:27:49.0000000+00:00</time></trkpt><trkpt lat="30.62916184" lon="34.80491638"><ele>843.1</ele><time>2013-11-21T14:27:54.0000000+00:00</time></trkpt><trkpt lat="30.62904549" lon="34.80490494"><ele>841.7</ele><time>2013-11-21T14:27:59.0000000+00:00</time></trkpt><trkpt lat="30.62888336" lon="34.80491257"><ele>838.3</ele><time>2013-11-21T14:28:04.0000000+00:00</time></trkpt><trkpt lat="30.62873077" lon="34.80490494"><ele>840.4</ele><time>2013-11-21T14:28:09.0000000+00:00</time></trkpt><trkpt lat="30.62861824" lon="34.80490112"><ele>838.9</ele><time>2013-11-21T14:28:14.0000000+00:00</time></trkpt><trkpt lat="30.62848091" lon="34.80488586"><ele>840.7</ele><time>2013-11-21T14:28:19.0000000+00:00</time></trkpt><trkpt lat="30.62837791" lon="34.80488205"><ele>840.2</ele><time>2013-11-21T14:28:24.0000000+00:00</time></trkpt><trkpt lat="30.62827301" lon="34.80485916"><ele>840.9</ele><time>2013-11-21T14:28:29.0000000+00:00</time></trkpt><trkpt lat="30.62817192" lon="34.80484772"><ele>842.2</ele><time>2013-11-21T14:28:34.0000000+00:00</time></trkpt><trkpt lat="30.62804604" lon="34.80482483"><ele>846.2</ele><time>2013-11-21T14:28:39.0000000+00:00</time></trkpt><trkpt lat="30.62790871" lon="34.80480194"><ele>846.3</ele><time>2013-11-21T14:28:44.0000000+00:00</time></trkpt><trkpt lat="30.62779617" lon="34.80477142"><ele>846.1</ele><time>2013-11-21T14:28:49.0000000+00:00</time></trkpt><trkpt lat="30.6276722" lon="34.80474091"><ele>845.3</ele><time>2013-11-21T14:28:54.0000000+00:00</time></trkpt><trkpt lat="30.6275425" lon="34.80470276"><ele>846.0</ele><time>2013-11-21T14:28:59.0000000+00:00</time></trkpt><trkpt lat="30.62744141" lon="34.8046875"><ele>847.9</ele><time>2013-11-21T14:29:04.0000000+00:00</time></trkpt><trkpt lat="30.62732697" lon="34.80464935"><ele>848.0</ele><time>2013-11-21T14:29:09.0000000+00:00</time></trkpt><trkpt lat="30.62714768" lon="34.80457306"><ele>849.3</ele><time>2013-11-21T14:29:14.0000000+00:00</time></trkpt><trkpt lat="30.62696457" lon="34.80448914"><ele>850.3</ele><time>2013-11-21T14:29:19.0000000+00:00</time></trkpt><trkpt lat="30.62678337" lon="34.80444717"><ele>850.3</ele><time>2013-11-21T14:29:24.0000000+00:00</time></trkpt><trkpt lat="30.62656212" lon="34.80442429"><ele>848.2</ele><time>2013-11-21T14:29:29.0000000+00:00</time></trkpt><trkpt lat="30.62630653" lon="34.80437851"><ele>845.5</ele><time>2013-11-21T14:29:34.0000000+00:00</time></trkpt><trkpt lat="30.62606621" lon="34.80431366"><ele>841.6</ele><time>2013-11-21T14:29:39.0000000+00:00</time></trkpt><trkpt lat="30.62582016" lon="34.8042717"><ele>841.5</ele><time>2013-11-21T14:29:44.0000000+00:00</time></trkpt><trkpt lat="30.62557983" lon="34.80420303"><ele>841.1</ele><time>2013-11-21T14:29:49.0000000+00:00</time></trkpt><trkpt lat="30.62535286" lon="34.80416107"><ele>843.6</ele><time>2013-11-21T14:29:54.0000000+00:00</time></trkpt><trkpt lat="30.62519264" lon="34.80410385"><ele>845.0</ele><time>2013-11-21T14:29:59.0000000+00:00</time></trkpt><trkpt lat="30.62504387" lon="34.80407333"><ele>844.5</ele><time>2013-11-21T14:30:04.0000000+00:00</time></trkpt><trkpt lat="30.62486839" lon="34.80405045"><ele>846.2</ele><time>2013-11-21T14:30:09.0000000+00:00</time></trkpt><trkpt lat="30.6246872" lon="34.80397797"><ele>845.2</ele><time>2013-11-21T14:30:14.0000000+00:00</time></trkpt><trkpt lat="30.62447739" lon="34.80393601"><ele>847.3</ele><time>2013-11-21T14:30:19.0000000+00:00</time></trkpt><trkpt lat="30.6243" lon="34.80390549"><ele>850.5</ele><time>2013-11-21T14:30:24.0000000+00:00</time></trkpt><trkpt lat="30.6241684" lon="34.80387878"><ele>850.9</ele><time>2013-11-21T14:30:29.0000000+00:00</time></trkpt><trkpt lat="30.62406349" lon="34.80384445"><ele>853.0</ele><time>2013-11-21T14:30:34.0000000+00:00</time></trkpt><trkpt lat="30.62399674" lon="34.80378723"><ele>853.3</ele><time>2013-11-21T14:30:39.0000000+00:00</time></trkpt><trkpt lat="30.62391853" lon="34.80373383"><ele>852.1</ele><time>2013-11-21T14:30:44.0000000+00:00</time></trkpt><trkpt lat="30.62384796" lon="34.80381393"><ele>851.7</ele><time>2013-11-21T14:30:49.0000000+00:00</time></trkpt><trkpt lat="30.62373734" lon="34.80381775"><ele>852.5</ele><time>2013-11-21T14:30:54.0000000+00:00</time></trkpt><trkpt lat="30.62360573" lon="34.80380249"><ele>851.7</ele><time>2013-11-21T14:30:59.0000000+00:00</time></trkpt><trkpt lat="30.62347031" lon="34.80379868"><ele>851.4</ele><time>2013-11-21T14:31:04.0000000+00:00</time></trkpt><trkpt lat="30.62332726" lon="34.8037796"><ele>850.3</ele><time>2013-11-21T14:31:09.0000000+00:00</time></trkpt><trkpt lat="30.62321854" lon="34.80378342"><ele>848.2</ele><time>2013-11-21T14:31:14.0000000+00:00</time></trkpt><trkpt lat="30.62311173" lon="34.80377579"><ele>847.2</ele><time>2013-11-21T14:31:19.0000000+00:00</time></trkpt><trkpt lat="30.62302017" lon="34.8037529"><ele>848.2</ele><time>2013-11-21T14:31:24.0000000+00:00</time></trkpt><trkpt lat="30.62291718" lon="34.80374908"><ele>847.0</ele><time>2013-11-21T14:31:29.0000000+00:00</time></trkpt><trkpt lat="30.62274933" lon="34.8037262"><ele>847.9</ele><time>2013-11-21T14:31:34.0000000+00:00</time></trkpt><trkpt lat="30.6225853" lon="34.80370712"><ele>849.1</ele><time>2013-11-21T14:31:39.0000000+00:00</time></trkpt><trkpt lat="30.62243271" lon="34.80369568"><ele>848.9</ele><time>2013-11-21T14:31:44.0000000+00:00</time></trkpt><trkpt lat="30.62229538" lon="34.80369949"><ele>847.1</ele><time>2013-11-21T14:31:49.0000000+00:00</time></trkpt><trkpt lat="30.62214279" lon="34.80369949"><ele>844.3</ele><time>2013-11-21T14:31:54.0000000+00:00</time></trkpt><trkpt lat="30.62198448" lon="34.80368042"><ele>841.7</ele><time>2013-11-21T14:31:59.0000000+00:00</time></trkpt><trkpt lat="30.62184906" lon="34.80367279"><ele>838.8</ele><time>2013-11-21T14:32:04.0000000+00:00</time></trkpt><trkpt lat="30.62168884" lon="34.80367279"><ele>839.1</ele><time>2013-11-21T14:32:09.0000000+00:00</time></trkpt><trkpt lat="30.62152672" lon="34.80366516"><ele>840.0</ele><time>2013-11-21T14:32:14.0000000+00:00</time></trkpt><trkpt lat="30.62133408" lon="34.80366898"><ele>839.5</ele><time>2013-11-21T14:32:19.0000000+00:00</time></trkpt><trkpt lat="30.62117958" lon="34.80364609"><ele>842.5</ele><time>2013-11-21T14:32:24.0000000+00:00</time></trkpt><trkpt lat="30.62099648" lon="34.80364609"><ele>840.7</ele><time>2013-11-21T14:32:29.0000000+00:00</time></trkpt><trkpt lat="30.62080002" lon="34.80365753"><ele>837.3</ele><time>2013-11-21T14:32:34.0000000+00:00</time></trkpt><trkpt lat="30.62065125" lon="34.80365753"><ele>835.7</ele><time>2013-11-21T14:32:39.0000000+00:00</time></trkpt><trkpt lat="30.6204586" lon="34.80366898"><ele>834.8</ele><time>2013-11-21T14:32:44.0000000+00:00</time></trkpt><trkpt lat="30.62029457" lon="34.80368042"><ele>832.4</ele><time>2013-11-21T14:32:49.0000000+00:00</time></trkpt><trkpt lat="30.62012482" lon="34.80365372"><ele>830.8</ele><time>2013-11-21T14:32:54.0000000+00:00</time></trkpt><trkpt lat="30.61995125" lon="34.80368042"><ele>833.9</ele><time>2013-11-21T14:32:59.0000000+00:00</time></trkpt><trkpt lat="30.61979103" lon="34.80363846"><ele>838.9</ele><time>2013-11-21T14:33:04.0000000+00:00</time></trkpt><trkpt lat="30.61962128" lon="34.80363464"><ele>841.5</ele><time>2013-11-21T14:33:09.0000000+00:00</time></trkpt><trkpt lat="30.61940956" lon="34.80362701"><ele>841.6</ele><time>2013-11-21T14:33:14.0000000+00:00</time></trkpt><trkpt lat="30.61924171" lon="34.80363846"><ele>846.0</ele><time>2013-11-21T14:33:19.0000000+00:00</time></trkpt><trkpt lat="30.61908341" lon="34.8036232"><ele>847.5</ele><time>2013-11-21T14:33:24.0000000+00:00</time></trkpt><trkpt lat="30.61889648" lon="34.80360794"><ele>848.4</ele><time>2013-11-21T14:33:29.0000000+00:00</time></trkpt><trkpt lat="30.61872292" lon="34.80356216"><ele>848.0</ele><time>2013-11-21T14:33:34.0000000+00:00</time></trkpt><trkpt lat="30.61852646" lon="34.80357361"><ele>850.0</ele><time>2013-11-21T14:33:39.0000000+00:00</time></trkpt><trkpt lat="30.61833954" lon="34.80355454"><ele>856.1</ele><time>2013-11-21T14:33:44.0000000+00:00</time></trkpt><trkpt lat="30.61817551" lon="34.80355072"><ele>854.4</ele><time>2013-11-21T14:33:49.0000000+00:00</time></trkpt><trkpt lat="30.61800194" lon="34.80353165"><ele>854.7</ele><time>2013-11-21T14:33:54.0000000+00:00</time></trkpt><trkpt lat="30.61779785" lon="34.80351639"><ele>856.9</ele><time>2013-11-21T14:33:59.0000000+00:00</time></trkpt><trkpt lat="30.61758804" lon="34.8034935"><ele>856.6</ele><time>2013-11-21T14:34:04.0000000+00:00</time></trkpt><trkpt lat="30.6173172" lon="34.80348587"><ele>857.9</ele><time>2013-11-21T14:34:09.0000000+00:00</time></trkpt><trkpt lat="30.61708641" lon="34.80345917"><ele>859.3</ele><time>2013-11-21T14:34:14.0000000+00:00</time></trkpt><trkpt lat="30.61684036" lon="34.80345154"><ele>863.2</ele><time>2013-11-21T14:34:19.0000000+00:00</time></trkpt><trkpt lat="30.61662293" lon="34.80344772"><ele>867.4</ele><time>2013-11-21T14:34:24.0000000+00:00</time></trkpt><trkpt lat="30.61649513" lon="34.80339432"><ele>866.5</ele><time>2013-11-21T14:34:29.0000000+00:00</time></trkpt><trkpt lat="30.6164608" lon="34.80337906"><ele>867.6</ele><time>2013-11-21T14:34:34.0000000+00:00</time></trkpt><trkpt lat="30.61645889" lon="34.80337906"><ele>867.7</ele><time>2013-11-21T14:34:39.0000000+00:00</time></trkpt><trkpt lat="30.61645699" lon="34.80337906"><ele>867.6</ele><time>2013-11-21T14:34:44.0000000+00:00</time></trkpt><trkpt lat="30.61645508" lon="34.80337524"><ele>867.5</ele><time>2013-11-21T14:34:49.0000000+00:00</time></trkpt><trkpt lat="30.61645699" lon="34.80337524"><ele>867.3</ele><time>2013-11-21T14:34:54.0000000+00:00</time></trkpt><trkpt lat="30.61645699" lon="34.80337906"><ele>867.3</ele><time>2013-11-21T14:34:59.0000000+00:00</time></trkpt><trkpt lat="30.61645508" lon="34.80337906"><ele>867.2</ele><time>2013-11-21T14:35:04.0000000+00:00</time></trkpt><trkpt lat="30.61645508" lon="34.80337906"><ele>867.2</ele><time>2013-11-21T14:35:09.0000000+00:00</time></trkpt><trkpt lat="30.61645508" lon="34.80337906"><ele>867.1</ele><time>2013-11-21T14:35:14.0000000+00:00</time></trkpt><trkpt lat="30.61645508" lon="34.80337906"><ele>867.1</ele><time>2013-11-21T14:35:19.0000000+00:00</time></trkpt><trkpt lat="30.61645508" lon="34.80337906"><ele>867.1</ele><time>2013-11-21T14:35:24.0000000+00:00</time></trkpt><trkpt lat="30.61645508" lon="34.80337906"><ele>867.1</ele><time>2013-11-21T14:35:29.0000000+00:00</time></trkpt><trkpt lat="30.61645508" lon="34.80337906"><ele>867.1</ele><time>2013-11-21T14:35:34.0000000+00:00</time></trkpt><trkpt lat="30.61645508" lon="34.80337906"><ele>867.1</ele><time>2013-11-21T14:35:39.0000000+00:00</time></trkpt><trkpt lat="30.61645317" lon="34.80337906"><ele>867.1</ele><time>2013-11-21T14:35:44.0000000+00:00</time></trkpt><trkpt lat="30.61645317" lon="34.80337524"><ele>867.1</ele><time>2013-11-21T14:35:49.0000000+00:00</time></trkpt><trkpt lat="30.61645317" lon="34.80337524"><ele>867.1</ele><time>2013-11-21T14:35:54.0000000+00:00</time></trkpt><trkpt lat="30.61645317" lon="34.80337524"><ele>867.1</ele><time>2013-11-21T14:35:59.0000000+00:00</time></trkpt><trkpt lat="30.61645317" lon="34.80337524"><ele>867.0</ele><time>2013-11-21T14:36:04.0000000+00:00</time></trkpt><trkpt lat="30.61645317" lon="34.80337524"><ele>867.0</ele><time>2013-11-21T14:36:09.0000000+00:00</time></trkpt><trkpt lat="30.61645317" lon="34.80337524"><ele>867.0</ele><time>2013-11-21T14:36:14.0000000+00:00</time></trkpt><trkpt lat="30.61645317" lon="34.80337524"><ele>867.0</ele><time>2013-11-21T14:36:19.0000000+00:00</time></trkpt><trkpt lat="30.61645317" lon="34.80337524"><ele>867.0</ele><time>2013-11-21T14:36:24.0000000+00:00</time></trkpt><trkpt lat="30.61645317" lon="34.80337524"><ele>867.0</ele><time>2013-11-21T14:36:29.0000000+00:00</time></trkpt><trkpt lat="30.61645126" lon="34.80337524"><ele>867.1</ele><time>2013-11-21T14:36:34.0000000+00:00</time></trkpt><trkpt lat="30.61645126" lon="34.80337524"><ele>867.1</ele><time>2013-11-21T14:36:39.0000000+00:00</time></trkpt><trkpt lat="30.61645126" lon="34.80337906"><ele>867.1</ele><time>2013-11-21T14:36:44.0000000+00:00</time></trkpt><trkpt lat="30.61645126" lon="34.80337906"><ele>867.1</ele><time>2013-11-21T14:36:49.0000000+00:00</time></trkpt><trkpt lat="30.61645126" lon="34.80337906"><ele>867.1</ele><time>2013-11-21T14:36:54.0000000+00:00</time></trkpt><trkpt lat="30.61645126" lon="34.80337906"><ele>867.0</ele><time>2013-11-21T14:36:59.0000000+00:00</time></trkpt><trkpt lat="30.61645126" lon="34.80337906"><ele>867.0</ele><time>2013-11-21T14:37:04.0000000+00:00</time></trkpt><trkpt lat="30.61645126" lon="34.80337906"><ele>867.1</ele><time>2013-11-21T14:37:09.0000000+00:00</time></trkpt><trkpt lat="30.61645126" lon="34.80337906"><ele>867.1</ele><time>2013-11-21T14:37:14.0000000+00:00</time></trkpt><trkpt lat="30.61645126" lon="34.80337524"><ele>867.1</ele><time>2013-11-21T14:37:19.0000000+00:00</time></trkpt><trkpt lat="30.61645126" lon="34.80337524"><ele>867.1</ele><time>2013-11-21T14:37:24.0000000+00:00</time></trkpt><trkpt lat="30.61645317" lon="34.80337524"><ele>867.1</ele><time>2013-11-21T14:37:29.0000000+00:00</time></trkpt><trkpt lat="30.61645317" lon="34.80337524"><ele>867.1</ele><time>2013-11-21T14:37:34.0000000+00:00</time></trkpt><trkpt lat="30.61645317" lon="34.80337524"><ele>867.1</ele><time>2013-11-21T14:37:39.0000000+00:00</time></trkpt><trkpt lat="30.61645317" lon="34.80337524"><ele>867.1</ele><time>2013-11-21T14:37:44.0000000+00:00</time></trkpt><trkpt lat="30.61645317" lon="34.80337524"><ele>867.2</ele><time>2013-11-21T14:37:49.0000000+00:00</time></trkpt><trkpt lat="30.61645317" lon="34.80337524"><ele>867.2</ele><time>2013-11-21T14:37:54.0000000+00:00</time></trkpt><trkpt lat="30.61645317" lon="34.80337524"><ele>867.3</ele><time>2013-11-21T14:37:59.0000000+00:00</time></trkpt><trkpt lat="30.61645126" lon="34.80337143"><ele>867.3</ele><time>2013-11-21T14:38:04.0000000+00:00</time></trkpt><trkpt lat="30.61645126" lon="34.80336762"><ele>867.3</ele><time>2013-11-21T14:38:09.0000000+00:00</time></trkpt><trkpt lat="30.61645126" lon="34.80329895"><ele>867.3</ele><time>2013-11-21T14:38:14.0000000+00:00</time></trkpt><trkpt lat="30.61647224" lon="34.80307007"><ele>864.8</ele><time>2013-11-21T14:38:19.0000000+00:00</time></trkpt><trkpt lat="30.61645889" lon="34.80273819"><ele>863.6</ele><time>2013-11-21T14:38:24.0000000+00:00</time></trkpt><trkpt lat="30.61648369" lon="34.80241013"><ele>860.8</ele><time>2013-11-21T14:38:29.0000000+00:00</time></trkpt><trkpt lat="30.61650658" lon="34.80207825"><ele>860.5</ele><time>2013-11-21T14:38:34.0000000+00:00</time></trkpt><trkpt lat="30.61656761" lon="34.80174255"><ele>863.0</ele><time>2013-11-21T14:38:39.0000000+00:00</time></trkpt><trkpt lat="30.61662102" lon="34.80144882"><ele>864.9</ele><time>2013-11-21T14:38:44.0000000+00:00</time></trkpt><trkpt lat="30.61668587" lon="34.80116653"><ele>865.9</ele><time>2013-11-21T14:38:49.0000000+00:00</time></trkpt><trkpt lat="30.61675263" lon="34.80092621"><ele>863.8</ele><time>2013-11-21T14:38:54.0000000+00:00</time></trkpt><trkpt lat="30.61677742" lon="34.8007164"><ele>863.6</ele><time>2013-11-21T14:38:59.0000000+00:00</time></trkpt><trkpt lat="30.61671066" lon="34.800457"><ele>861.6</ele><time>2013-11-21T14:39:04.0000000+00:00</time></trkpt><trkpt lat="30.61664009" lon="34.80029297"><ele>858.0</ele><time>2013-11-21T14:39:09.0000000+00:00</time></trkpt><trkpt lat="30.61657333" lon="34.8001976"><ele>857.2</ele><time>2013-11-21T14:39:14.0000000+00:00</time></trkpt><trkpt lat="30.6165905" lon="34.80020523"><ele>856.0</ele><time>2013-11-21T14:39:19.0000000+00:00</time></trkpt><trkpt lat="30.61663437" lon="34.80030441"><ele>854.0</ele><time>2013-11-21T14:39:24.0000000+00:00</time></trkpt><trkpt lat="30.6166935" lon="34.80044174"><ele>848.8</ele><time>2013-11-21T14:39:29.0000000+00:00</time></trkpt><trkpt lat="30.61681747" lon="34.80047226"><ele>847.8</ele><time>2013-11-21T14:39:34.0000000+00:00</time></trkpt><trkpt lat="30.61691856" lon="34.80049133"><ele>846.3</ele><time>2013-11-21T14:39:39.0000000+00:00</time></trkpt><trkpt lat="30.61709786" lon="34.80051041"><ele>845.0</ele><time>2013-11-21T14:39:44.0000000+00:00</time></trkpt><trkpt lat="30.61727905" lon="34.80053711"><ele>843.3</ele><time>2013-11-21T14:39:49.0000000+00:00</time></trkpt><trkpt lat="30.61745834" lon="34.80054855"><ele>842.0</ele><time>2013-11-21T14:39:54.0000000+00:00</time></trkpt><trkpt lat="30.61768532" lon="34.80053711"><ele>836.1</ele><time>2013-11-21T14:39:59.0000000+00:00</time></trkpt><trkpt lat="30.61791229" lon="34.80051804"><ele>838.7</ele><time>2013-11-21T14:40:04.0000000+00:00</time></trkpt><trkpt lat="30.61810303" lon="34.80049515"><ele>838.3</ele><time>2013-11-21T14:40:09.0000000+00:00</time></trkpt><trkpt lat="30.61826897" lon="34.80044556"><ele>834.3</ele><time>2013-11-21T14:40:14.0000000+00:00</time></trkpt><trkpt lat="30.61837959" lon="34.80039215"><ele>832.0</ele><time>2013-11-21T14:40:19.0000000+00:00</time></trkpt><trkpt lat="30.61849213" lon="34.80047226"><ele>832.4</ele><time>2013-11-21T14:40:24.0000000+00:00</time></trkpt><trkpt lat="30.61856651" lon="34.80064392"><ele>833.2</ele><time>2013-11-21T14:40:29.0000000+00:00</time></trkpt><trkpt lat="30.61863327" lon="34.80077744"><ele>833.3</ele><time>2013-11-21T14:40:34.0000000+00:00</time></trkpt><trkpt lat="30.61866379" lon="34.80096054"><ele>833.0</ele><time>2013-11-21T14:40:39.0000000+00:00</time></trkpt><trkpt lat="30.61868477" lon="34.8011055"><ele>832.9</ele><time>2013-11-21T14:40:44.0000000+00:00</time></trkpt><trkpt lat="30.6187439" lon="34.80119324"><ele>827.3</ele><time>2013-11-21T14:40:49.0000000+00:00</time></trkpt><trkpt lat="30.61872482" lon="34.8013382"><ele>826.7</ele><time>2013-11-21T14:40:54.0000000+00:00</time></trkpt><trkpt lat="30.6187439" lon="34.8014679"><ele>826.9</ele><time>2013-11-21T14:40:59.0000000+00:00</time></trkpt><trkpt lat="30.61873055" lon="34.80162811"><ele>825.0</ele><time>2013-11-21T14:41:04.0000000+00:00</time></trkpt><trkpt lat="30.61876869" lon="34.80168152"><ele>825.6</ele><time>2013-11-21T14:41:09.0000000+00:00</time></trkpt><trkpt lat="30.61878204" lon="34.80170059"><ele>824.0</ele><time>2013-11-21T14:41:14.0000000+00:00</time></trkpt><trkpt lat="30.61879158" lon="34.80171585"><ele>822.4</ele><time>2013-11-21T14:41:19.0000000+00:00</time></trkpt><trkpt lat="30.61879158" lon="34.80174255"><ele>820.8</ele><time>2013-11-21T14:41:24.0000000+00:00</time></trkpt><trkpt lat="30.61878967" lon="34.80175781"><ele>819.5</ele><time>2013-11-21T14:41:29.0000000+00:00</time></trkpt><trkpt lat="30.61879349" lon="34.80176926"><ele>818.8</ele><time>2013-11-21T14:41:34.0000000+00:00</time></trkpt><trkpt lat="30.61879158" lon="34.80174255"><ele>818.8</ele><time>2013-11-21T14:41:39.0000000+00:00</time></trkpt><trkpt lat="30.6187458" lon="34.80171204"><ele>823.0</ele><time>2013-11-21T14:41:44.0000000+00:00</time></trkpt><trkpt lat="30.61871338" lon="34.80169296"><ele>825.6</ele><time>2013-11-21T14:41:49.0000000+00:00</time></trkpt><trkpt lat="30.61871338" lon="34.80170059"><ele>825.8</ele><time>2013-11-21T14:41:54.0000000+00:00</time></trkpt><trkpt lat="30.61871338" lon="34.80170822"><ele>825.9</ele><time>2013-11-21T14:41:59.0000000+00:00</time></trkpt><trkpt lat="30.61872101" lon="34.80170822"><ele>825.9</ele><time>2013-11-21T14:42:04.0000000+00:00</time></trkpt><trkpt lat="30.61872482" lon="34.80171204"><ele>826.0</ele><time>2013-11-21T14:42:09.0000000+00:00</time></trkpt><trkpt lat="30.61875343" lon="34.80169296"><ele>826.4</ele><time>2013-11-21T14:42:14.0000000+00:00</time></trkpt><trkpt lat="30.61878014" lon="34.80167389"><ele>826.9</ele><time>2013-11-21T14:42:19.0000000+00:00</time></trkpt><trkpt lat="30.61878204" lon="34.80167389"><ele>827.4</ele><time>2013-11-21T14:42:24.0000000+00:00</time></trkpt><trkpt lat="30.61877441" lon="34.80167007"><ele>827.5</ele><time>2013-11-21T14:42:29.0000000+00:00</time></trkpt><trkpt lat="30.61877441" lon="34.80166626"><ele>827.5</ele><time>2013-11-21T14:42:34.0000000+00:00</time></trkpt><trkpt lat="30.61880112" lon="34.80173111"><ele>828.1</ele><time>2013-11-21T14:42:39.0000000+00:00</time></trkpt><trkpt lat="30.61883736" lon="34.80176544"><ele>828.5</ele><time>2013-11-21T14:42:44.0000000+00:00</time></trkpt><trkpt lat="30.61886215" lon="34.80177307"><ele>829.8</ele><time>2013-11-21T14:42:49.0000000+00:00</time></trkpt><trkpt lat="30.61883545" lon="34.801754"><ele>833.0</ele><time>2013-11-21T14:42:54.0000000+00:00</time></trkpt><trkpt lat="30.6187954" lon="34.80173874"><ele>834.6</ele><time>2013-11-21T14:42:59.0000000+00:00</time></trkpt><trkpt lat="30.61878967" lon="34.80171967"><ele>834.8</ele><time>2013-11-21T14:43:04.0000000+00:00</time></trkpt><trkpt lat="30.61878204" lon="34.80173111"><ele>835.8</ele><time>2013-11-21T14:43:09.0000000+00:00</time></trkpt><trkpt lat="30.61878967" lon="34.80173111"><ele>836.0</ele><time>2013-11-21T14:43:14.0000000+00:00</time></trkpt><trkpt lat="30.61880302" lon="34.80174637"><ele>836.4</ele><time>2013-11-21T14:43:19.0000000+00:00</time></trkpt><trkpt lat="30.6187973" lon="34.80175018"><ele>836.8</ele><time>2013-11-21T14:43:24.0000000+00:00</time></trkpt><trkpt lat="30.6187973" lon="34.80174255"><ele>837.0</ele><time>2013-11-21T14:43:29.0000000+00:00</time></trkpt><trkpt lat="30.61880112" lon="34.80171967"><ele>837.6</ele><time>2013-11-21T14:43:34.0000000+00:00</time></trkpt><trkpt lat="30.61880493" lon="34.80171967"><ele>838.3</ele><time>2013-11-21T14:43:39.0000000+00:00</time></trkpt><trkpt lat="30.61880112" lon="34.80171585"><ele>838.4</ele><time>2013-11-21T14:43:44.0000000+00:00</time></trkpt><trkpt lat="30.61880302" lon="34.80170441"><ele>838.5</ele><time>2013-11-21T14:43:49.0000000+00:00</time></trkpt><trkpt lat="30.61881065" lon="34.80169678"><ele>838.5</ele><time>2013-11-21T14:43:54.0000000+00:00</time></trkpt><trkpt lat="30.61877632" lon="34.80171585"><ele>840.0</ele><time>2013-11-21T14:43:59.0000000+00:00</time></trkpt><trkpt lat="30.61880684" lon="34.801754"><ele>842.0</ele><time>2013-11-21T14:44:04.0000000+00:00</time></trkpt><trkpt lat="30.61880302" lon="34.80178452"><ele>841.6</ele><time>2013-11-21T14:44:09.0000000+00:00</time></trkpt><trkpt lat="30.61880875" lon="34.80177307"><ele>841.9</ele><time>2013-11-21T14:44:14.0000000+00:00</time></trkpt><trkpt lat="30.61883545" lon="34.80176163"><ele>841.4</ele><time>2013-11-21T14:44:19.0000000+00:00</time></trkpt><trkpt lat="30.61882782" lon="34.80168915"><ele>841.1</ele><time>2013-11-21T14:44:24.0000000+00:00</time></trkpt><trkpt lat="30.6188221" lon="34.80162811"><ele>840.9</ele><time>2013-11-21T14:44:29.0000000+00:00</time></trkpt><trkpt lat="30.61882973" lon="34.8015976"><ele>841.6</ele><time>2013-11-21T14:44:34.0000000+00:00</time></trkpt><trkpt lat="30.61884499" lon="34.80161285"><ele>842.2</ele><time>2013-11-21T14:44:39.0000000+00:00</time></trkpt><trkpt lat="30.6188221" lon="34.80162811"><ele>842.4</ele><time>2013-11-21T14:44:44.0000000+00:00</time></trkpt><trkpt lat="30.6187954" lon="34.8016243"><ele>843.4</ele><time>2013-11-21T14:44:49.0000000+00:00</time></trkpt><trkpt lat="30.61880302" lon="34.80163574"><ele>843.7</ele><time>2013-11-21T14:44:54.0000000+00:00</time></trkpt><trkpt lat="30.61877251" lon="34.80164719"><ele>843.9</ele><time>2013-11-21T14:44:59.0000000+00:00</time></trkpt><trkpt lat="30.61875153" lon="34.80167007"><ele>844.5</ele><time>2013-11-21T14:45:04.0000000+00:00</time></trkpt><trkpt lat="30.61875153" lon="34.80167389"><ele>844.6</ele><time>2013-11-21T14:45:09.0000000+00:00</time></trkpt><trkpt lat="30.61874771" lon="34.80163956"><ele>845.8</ele><time>2013-11-21T14:45:14.0000000+00:00</time></trkpt><trkpt lat="30.61874962" lon="34.80161667"><ele>846.5</ele><time>2013-11-21T14:45:19.0000000+00:00</time></trkpt><trkpt lat="30.61874962" lon="34.80161285"><ele>846.6</ele><time>2013-11-21T14:45:24.0000000+00:00</time></trkpt><trkpt lat="30.6187458" lon="34.80161667"><ele>846.6</ele><time>2013-11-21T14:45:29.0000000+00:00</time></trkpt><trkpt lat="30.61874199" lon="34.80161667"><ele>846.7</ele><time>2013-11-21T14:45:34.0000000+00:00</time></trkpt><trkpt lat="30.61873627" lon="34.80162048"><ele>846.8</ele><time>2013-11-21T14:45:39.0000000+00:00</time></trkpt><trkpt lat="30.61873245" lon="34.80162048"><ele>846.9</ele><time>2013-11-21T14:45:44.0000000+00:00</time></trkpt><trkpt lat="30.61874771" lon="34.80162048"><ele>847.0</ele><time>2013-11-21T14:45:49.0000000+00:00</time></trkpt><trkpt lat="30.61873627" lon="34.80160904"><ele>847.8</ele><time>2013-11-21T14:45:54.0000000+00:00</time></trkpt><trkpt lat="30.61873627" lon="34.80160523"><ele>848.1</ele><time>2013-11-21T14:45:59.0000000+00:00</time></trkpt><trkpt lat="30.61872292" lon="34.8016243"><ele>848.3</ele><time>2013-11-21T14:46:04.0000000+00:00</time></trkpt><trkpt lat="30.61870003" lon="34.80162048"><ele>848.6</ele><time>2013-11-21T14:46:09.0000000+00:00</time></trkpt><trkpt lat="30.61868668" lon="34.80164337"><ele>849.1</ele><time>2013-11-21T14:46:14.0000000+00:00</time></trkpt><trkpt lat="30.6186924" lon="34.80166245"><ele>849.7</ele><time>2013-11-21T14:46:19.0000000+00:00</time></trkpt><trkpt lat="30.61868095" lon="34.80168152"><ele>850.2</ele><time>2013-11-21T14:46:24.0000000+00:00</time></trkpt><trkpt lat="30.61865807" lon="34.80169678"><ele>851.0</ele><time>2013-11-21T14:46:29.0000000+00:00</time></trkpt><trkpt lat="30.61863518" lon="34.80171967"><ele>851.4</ele><time>2013-11-21T14:46:34.0000000+00:00</time></trkpt><trkpt lat="30.6186409" lon="34.80172348"><ele>851.9</ele><time>2013-11-21T14:46:39.0000000+00:00</time></trkpt><trkpt lat="30.61864281" lon="34.80171204"><ele>852.7</ele><time>2013-11-21T14:46:44.0000000+00:00</time></trkpt><trkpt lat="30.61867142" lon="34.80167007"><ele>853.8</ele><time>2013-11-21T14:46:49.0000000+00:00</time></trkpt><trkpt lat="30.61867523" lon="34.80166245"><ele>853.8</ele><time>2013-11-21T14:46:54.0000000+00:00</time></trkpt><trkpt lat="30.61867905" lon="34.80165863"><ele>853.9</ele><time>2013-11-21T14:46:59.0000000+00:00</time></trkpt><trkpt lat="30.61868095" lon="34.801651"><ele>853.9</ele><time>2013-11-21T14:47:04.0000000+00:00</time></trkpt><trkpt lat="30.61868858" lon="34.80165482"><ele>854.0</ele><time>2013-11-21T14:47:09.0000000+00:00</time></trkpt><trkpt lat="30.6186924" lon="34.80166245"><ele>854.1</ele><time>2013-11-21T14:47:14.0000000+00:00</time></trkpt><trkpt lat="30.61869812" lon="34.80166245"><ele>854.6</ele><time>2013-11-21T14:47:19.0000000+00:00</time></trkpt><trkpt lat="30.61870384" lon="34.80167007"><ele>855.0</ele><time>2013-11-21T14:47:24.0000000+00:00</time></trkpt><trkpt lat="30.61870956" lon="34.80168533"><ele>855.7</ele><time>2013-11-21T14:47:29.0000000+00:00</time></trkpt><trkpt lat="30.61870766" lon="34.80168915"><ele>856.3</ele><time>2013-11-21T14:47:34.0000000+00:00</time></trkpt><trkpt lat="30.61870575" lon="34.80168915"><ele>856.3</ele><time>2013-11-21T14:47:39.0000000+00:00</time></trkpt><trkpt lat="30.61870575" lon="34.80168533"><ele>856.4</ele><time>2013-11-21T14:47:44.0000000+00:00</time></trkpt><trkpt lat="30.61870003" lon="34.80168915"><ele>856.5</ele><time>2013-11-21T14:47:49.0000000+00:00</time></trkpt><trkpt lat="30.6186924" lon="34.80171204"><ele>857.0</ele><time>2013-11-21T14:47:54.0000000+00:00</time></trkpt><trkpt lat="30.61868858" lon="34.80173492"><ele>858.0</ele><time>2013-11-21T14:47:59.0000000+00:00</time></trkpt><trkpt lat="30.61868095" lon="34.80173874"><ele>858.2</ele><time>2013-11-21T14:48:04.0000000+00:00</time></trkpt><trkpt lat="30.61867905" lon="34.80175781"><ele>858.3</ele><time>2013-11-21T14:48:09.0000000+00:00</time></trkpt><trkpt lat="30.61869049" lon="34.80177307"><ele>858.5</ele><time>2013-11-21T14:48:14.0000000+00:00</time></trkpt><trkpt lat="30.61869049" lon="34.80178452"><ele>858.6</ele><time>2013-11-21T14:48:19.0000000+00:00</time></trkpt><trkpt lat="30.61869049" lon="34.80179215"><ele>858.6</ele><time>2013-11-21T14:48:24.0000000+00:00</time></trkpt><trkpt lat="30.61868668" lon="34.80179977"><ele>859.1</ele><time>2013-11-21T14:48:29.0000000+00:00</time></trkpt><trkpt lat="30.61868095" lon="34.80179596"><ele>859.3</ele><time>2013-11-21T14:48:34.0000000+00:00</time></trkpt><trkpt lat="30.61866951" lon="34.8017807"><ele>860.3</ele><time>2013-11-21T14:48:39.0000000+00:00</time></trkpt><trkpt lat="30.61865616" lon="34.80177689"><ele>860.8</ele><time>2013-11-21T14:48:44.0000000+00:00</time></trkpt><trkpt lat="30.61862183" lon="34.80179977"><ele>861.4</ele><time>2013-11-21T14:48:49.0000000+00:00</time></trkpt><trkpt lat="30.61861801" lon="34.80179977"><ele>861.4</ele><time>2013-11-21T14:48:54.0000000+00:00</time></trkpt><trkpt lat="30.61860466" lon="34.80180359"><ele>861.2</ele><time>2013-11-21T14:48:59.0000000+00:00</time></trkpt><trkpt lat="30.61857796" lon="34.80183029"><ele>861.2</ele><time>2013-11-21T14:49:04.0000000+00:00</time></trkpt><trkpt lat="30.61857987" lon="34.80182648"><ele>861.5</ele><time>2013-11-21T14:49:09.0000000+00:00</time></trkpt><trkpt lat="30.61859131" lon="34.80181122"><ele>861.7</ele><time>2013-11-21T14:49:14.0000000+00:00</time></trkpt><trkpt lat="30.61859131" lon="34.8018074"><ele>861.8</ele><time>2013-11-21T14:49:19.0000000+00:00</time></trkpt><trkpt lat="30.61859322" lon="34.80180359"><ele>861.9</ele><time>2013-11-21T14:49:24.0000000+00:00</time></trkpt><trkpt lat="30.61859322" lon="34.80180359"><ele>862.0</ele><time>2013-11-21T14:49:29.0000000+00:00</time></trkpt><trkpt lat="30.61859322" lon="34.8018074"><ele>862.1</ele><time>2013-11-21T14:49:34.0000000+00:00</time></trkpt><trkpt lat="30.61859322" lon="34.80180359"><ele>862.1</ele><time>2013-11-21T14:49:39.0000000+00:00</time></trkpt><trkpt lat="30.61859512" lon="34.80180359"><ele>862.1</ele><time>2013-11-21T14:49:44.0000000+00:00</time></trkpt><trkpt lat="30.6185894" lon="34.80179977"><ele>862.2</ele><time>2013-11-21T14:49:49.0000000+00:00</time></trkpt><trkpt lat="30.61858559" lon="34.80180359"><ele>862.2</ele><time>2013-11-21T14:49:54.0000000+00:00</time></trkpt><trkpt lat="30.61857796" lon="34.80180359"><ele>862.3</ele><time>2013-11-21T14:49:59.0000000+00:00</time></trkpt><trkpt lat="30.61857224" lon="34.80180359"><ele>862.3</ele><time>2013-11-21T14:50:04.0000000+00:00</time></trkpt><trkpt lat="30.61856842" lon="34.80179596"><ele>862.4</ele><time>2013-11-21T14:50:09.0000000+00:00</time></trkpt><trkpt lat="30.61856842" lon="34.80179215"><ele>862.4</ele><time>2013-11-21T14:50:14.0000000+00:00</time></trkpt><trkpt lat="30.61856651" lon="34.80179215"><ele>862.5</ele><time>2013-11-21T14:50:19.0000000+00:00</time></trkpt><trkpt lat="30.61856651" lon="34.80179596"><ele>862.5</ele><time>2013-11-21T14:50:24.0000000+00:00</time></trkpt><trkpt lat="30.61857224" lon="34.80179215"><ele>862.6</ele><time>2013-11-21T14:50:29.0000000+00:00</time></trkpt><trkpt lat="30.61857605" lon="34.80178833"><ele>862.7</ele><time>2013-11-21T14:50:34.0000000+00:00</time></trkpt><trkpt lat="30.61858177" lon="34.80178833"><ele>862.8</ele><time>2013-11-21T14:50:39.0000000+00:00</time></trkpt><trkpt lat="30.61858177" lon="34.80178833"><ele>862.9</ele><time>2013-11-21T14:50:44.0000000+00:00</time></trkpt><trkpt lat="30.61858559" lon="34.80179215"><ele>863.0</ele><time>2013-11-21T14:50:49.0000000+00:00</time></trkpt><trkpt lat="30.61858749" lon="34.80179215"><ele>863.0</ele><time>2013-11-21T14:50:54.0000000+00:00</time></trkpt><trkpt lat="30.61858177" lon="34.80179977"><ele>863.1</ele><time>2013-11-21T14:50:59.0000000+00:00</time></trkpt><trkpt lat="30.61857414" lon="34.8018074"><ele>863.1</ele><time>2013-11-21T14:51:04.0000000+00:00</time></trkpt><trkpt lat="30.61856079" lon="34.80181122"><ele>863.2</ele><time>2013-11-21T14:51:09.0000000+00:00</time></trkpt><trkpt lat="30.61855888" lon="34.80181122"><ele>863.2</ele><time>2013-11-21T14:51:14.0000000+00:00</time></trkpt><trkpt lat="30.61855698" lon="34.80181122"><ele>863.3</ele><time>2013-11-21T14:51:19.0000000+00:00</time></trkpt><trkpt lat="30.61855316" lon="34.80181122"><ele>863.3</ele><time>2013-11-21T14:51:24.0000000+00:00</time></trkpt><trkpt lat="30.61855125" lon="34.8018074"><ele>863.3</ele><time>2013-11-21T14:51:29.0000000+00:00</time></trkpt><trkpt lat="30.61855316" lon="34.80180359"><ele>863.3</ele><time>2013-11-21T14:51:34.0000000+00:00</time></trkpt><trkpt lat="30.61855125" lon="34.80180359"><ele>863.3</ele><time>2013-11-21T14:51:39.0000000+00:00</time></trkpt><trkpt lat="30.61855125" lon="34.80180359"><ele>863.3</ele><time>2013-11-21T14:51:44.0000000+00:00</time></trkpt><trkpt lat="30.61854553" lon="34.8018074"><ele>863.3</ele><time>2013-11-21T14:51:49.0000000+00:00</time></trkpt><trkpt lat="30.61854363" lon="34.80181122"><ele>863.3</ele><time>2013-11-21T14:51:54.0000000+00:00</time></trkpt><trkpt lat="30.61854172" lon="34.80181122"><ele>863.3</ele><time>2013-11-21T14:51:59.0000000+00:00</time></trkpt><trkpt lat="30.6185379" lon="34.80181885"><ele>863.3</ele><time>2013-11-21T14:52:04.0000000+00:00</time></trkpt><trkpt lat="30.618536" lon="34.80181503"><ele>863.3</ele><time>2013-11-21T14:52:09.0000000+00:00</time></trkpt><trkpt lat="30.61853981" lon="34.8018074"><ele>863.4</ele><time>2013-11-21T14:52:14.0000000+00:00</time></trkpt><trkpt lat="30.61854363" lon="34.8018074"><ele>863.4</ele><time>2013-11-21T14:52:19.0000000+00:00</time></trkpt><trkpt lat="30.61854172" lon="34.8018074"><ele>863.3</ele><time>2013-11-21T14:52:24.0000000+00:00</time></trkpt><trkpt lat="30.61854172" lon="34.80180359"><ele>863.3</ele><time>2013-11-21T14:52:29.0000000+00:00</time></trkpt><trkpt lat="30.61853981" lon="34.80180359"><ele>863.3</ele><time>2013-11-21T14:52:34.0000000+00:00</time></trkpt><trkpt lat="30.618536" lon="34.8018074"><ele>863.3</ele><time>2013-11-21T14:52:39.0000000+00:00</time></trkpt><trkpt lat="30.61852646" lon="34.80181122"><ele>863.4</ele><time>2013-11-21T14:52:44.0000000+00:00</time></trkpt><trkpt lat="30.61852264" lon="34.80181885"><ele>863.4</ele><time>2013-11-21T14:52:49.0000000+00:00</time></trkpt><trkpt lat="30.61852264" lon="34.80181885"><ele>863.4</ele><time>2013-11-21T14:52:54.0000000+00:00</time></trkpt><trkpt lat="30.61852455" lon="34.80181503"><ele>863.4</ele><time>2013-11-21T14:52:59.0000000+00:00</time></trkpt><trkpt lat="30.61854935" lon="34.80178452"><ele>863.1</ele><time>2013-11-21T14:53:04.0000000+00:00</time></trkpt><trkpt lat="30.61857414" lon="34.80174637"><ele>862.9</ele><time>2013-11-21T14:53:09.0000000+00:00</time></trkpt><trkpt lat="30.61857796" lon="34.80175018"><ele>862.9</ele><time>2013-11-21T14:53:14.0000000+00:00</time></trkpt><trkpt lat="30.61857987" lon="34.80175018"><ele>863.0</ele><time>2013-11-21T14:53:19.0000000+00:00</time></trkpt><trkpt lat="30.61858177" lon="34.80175018"><ele>863.1</ele><time>2013-11-21T14:53:24.0000000+00:00</time></trkpt><trkpt lat="30.6185894" lon="34.80175018"><ele>863.2</ele><time>2013-11-21T14:53:29.0000000+00:00</time></trkpt><trkpt lat="30.61859512" lon="34.80175018"><ele>863.3</ele><time>2013-11-21T14:53:34.0000000+00:00</time></trkpt><trkpt lat="30.61860085" lon="34.80175018"><ele>863.4</ele><time>2013-11-21T14:53:39.0000000+00:00</time></trkpt><trkpt lat="30.61860275" lon="34.80175018"><ele>863.7</ele><time>2013-11-21T14:53:44.0000000+00:00</time></trkpt><trkpt lat="30.61860275" lon="34.80174637"><ele>863.9</ele><time>2013-11-21T14:53:49.0000000+00:00</time></trkpt><trkpt lat="30.61860466" lon="34.80173874"><ele>864.3</ele><time>2013-11-21T14:53:54.0000000+00:00</time></trkpt><trkpt lat="30.61860657" lon="34.80173492"><ele>864.6</ele><time>2013-11-21T14:53:59.0000000+00:00</time></trkpt><trkpt lat="30.61861038" lon="34.8017273"><ele>865.0</ele><time>2013-11-21T14:54:04.0000000+00:00</time></trkpt><trkpt lat="30.6186161" lon="34.80172348"><ele>865.5</ele><time>2013-11-21T14:54:09.0000000+00:00</time></trkpt><trkpt lat="30.61862373" lon="34.80171967"><ele>866.0</ele><time>2013-11-21T14:54:14.0000000+00:00</time></trkpt><trkpt lat="30.61863136" lon="34.80171204"><ele>866.5</ele><time>2013-11-21T14:54:19.0000000+00:00</time></trkpt><trkpt lat="30.6186409" lon="34.80170822"><ele>867.0</ele><time>2013-11-21T14:54:24.0000000+00:00</time></trkpt><trkpt lat="30.61865044" lon="34.80170822"><ele>867.6</ele><time>2013-11-21T14:54:29.0000000+00:00</time></trkpt><trkpt lat="30.61865807" lon="34.80170822"><ele>868.1</ele><time>2013-11-21T14:54:34.0000000+00:00</time></trkpt><trkpt lat="30.61865997" lon="34.80170059"><ele>868.6</ele><time>2013-11-21T14:54:39.0000000+00:00</time></trkpt><trkpt lat="30.61865997" lon="34.80169678"><ele>869.1</ele><time>2013-11-21T14:54:44.0000000+00:00</time></trkpt><trkpt lat="30.61866188" lon="34.80168915"><ele>869.5</ele><time>2013-11-21T14:54:49.0000000+00:00</time></trkpt><trkpt lat="30.6186676" lon="34.8016777"><ele>869.9</ele><time>2013-11-21T14:54:54.0000000+00:00</time></trkpt><trkpt lat="30.61867333" lon="34.80167007"><ele>870.1</ele><time>2013-11-21T14:54:59.0000000+00:00</time></trkpt><trkpt lat="30.61867523" lon="34.80166626"><ele>870.2</ele><time>2013-11-21T14:55:04.0000000+00:00</time></trkpt><trkpt lat="30.61867333" lon="34.80166626"><ele>870.1</ele><time>2013-11-21T14:55:09.0000000+00:00</time></trkpt><trkpt lat="30.6186657" lon="34.80167007"><ele>869.9</ele><time>2013-11-21T14:55:14.0000000+00:00</time></trkpt><trkpt lat="30.61866379" lon="34.80167389"><ele>869.4</ele><time>2013-11-21T14:55:19.0000000+00:00</time></trkpt><trkpt lat="30.61866188" lon="34.80167389"><ele>868.8</ele><time>2013-11-21T14:55:24.0000000+00:00</time></trkpt><trkpt lat="30.61865807" lon="34.8016777"><ele>868.0</ele><time>2013-11-21T14:55:29.0000000+00:00</time></trkpt><trkpt lat="30.61865807" lon="34.80167389"><ele>867.7</ele><time>2013-11-21T14:55:34.0000000+00:00</time></trkpt><trkpt lat="30.61865807" lon="34.80167389"><ele>867.7</ele><time>2013-11-21T14:55:39.0000000+00:00</time></trkpt><trkpt lat="30.61865807" lon="34.80167389"><ele>867.6</ele><time>2013-11-21T14:55:44.0000000+00:00</time></trkpt><trkpt lat="30.61865807" lon="34.8016777"><ele>867.6</ele><time>2013-11-21T14:55:49.0000000+00:00</time></trkpt><trkpt lat="30.61865807" lon="34.8016777"><ele>867.5</ele><time>2013-11-21T14:55:54.0000000+00:00</time></trkpt><trkpt lat="30.61865807" lon="34.8016777"><ele>867.5</ele><time>2013-11-21T14:55:59.0000000+00:00</time></trkpt><trkpt lat="30.61865807" lon="34.8016777"><ele>867.4</ele><time>2013-11-21T14:56:04.0000000+00:00</time></trkpt><trkpt lat="30.61865807" lon="34.8016777"><ele>867.3</ele><time>2013-11-21T14:56:09.0000000+00:00</time></trkpt><trkpt lat="30.61865997" lon="34.8016777"><ele>867.2</ele><time>2013-11-21T14:56:14.0000000+00:00</time></trkpt><trkpt lat="30.61865997" lon="34.8016777"><ele>867.1</ele><time>2013-11-21T14:56:19.0000000+00:00</time></trkpt><trkpt lat="30.61865997" lon="34.8016777"><ele>867.1</ele><time>2013-11-21T14:56:24.0000000+00:00</time></trkpt><trkpt lat="30.61865997" lon="34.8016777"><ele>867.0</ele><time>2013-11-21T14:56:29.0000000+00:00</time></trkpt><trkpt lat="30.61865997" lon="34.8016777"><ele>866.9</ele><time>2013-11-21T14:56:34.0000000+00:00</time></trkpt><trkpt lat="30.61865997" lon="34.80167389"><ele>866.9</ele><time>2013-11-21T14:56:39.0000000+00:00</time></trkpt><trkpt lat="30.61865997" lon="34.80167389"><ele>866.8</ele><time>2013-11-21T14:56:44.0000000+00:00</time></trkpt><trkpt lat="30.61865997" lon="34.80167389"><ele>866.7</ele><time>2013-11-21T14:56:49.0000000+00:00</time></trkpt><trkpt lat="30.61865997" lon="34.80167389"><ele>866.7</ele><time>2013-11-21T14:56:54.0000000+00:00</time></trkpt><trkpt lat="30.61865997" lon="34.80167389"><ele>866.5</ele><time>2013-11-21T14:56:59.0000000+00:00</time></trkpt><trkpt lat="30.61865997" lon="34.80167389"><ele>866.5</ele><time>2013-11-21T14:57:04.0000000+00:00</time></trkpt><trkpt lat="30.61865997" lon="34.80167389"><ele>866.4</ele><time>2013-11-21T14:57:09.0000000+00:00</time></trkpt><trkpt lat="30.61866188" lon="34.80167389"><ele>866.3</ele><time>2013-11-21T14:57:14.0000000+00:00</time></trkpt><trkpt lat="30.61866188" lon="34.80167007"><ele>866.2</ele><time>2013-11-21T14:57:19.0000000+00:00</time></trkpt><trkpt lat="30.61866379" lon="34.80167007"><ele>866.1</ele><time>2013-11-21T14:57:24.0000000+00:00</time></trkpt><trkpt lat="30.61866379" lon="34.80167007"><ele>866.0</ele><time>2013-11-21T14:57:29.0000000+00:00</time></trkpt><trkpt lat="30.61866379" lon="34.80167007"><ele>866.0</ele><time>2013-11-21T14:57:34.0000000+00:00</time></trkpt><trkpt lat="30.61866379" lon="34.80167007"><ele>865.9</ele><time>2013-11-21T14:57:39.0000000+00:00</time></trkpt><trkpt lat="30.61866379" lon="34.80167007"><ele>865.8</ele><time>2013-11-21T14:57:44.0000000+00:00</time></trkpt><trkpt lat="30.61866379" lon="34.80167007"><ele>865.8</ele><time>2013-11-21T14:57:49.0000000+00:00</time></trkpt><trkpt lat="30.61866379" lon="34.80167007"><ele>865.7</ele><time>2013-11-21T14:57:54.0000000+00:00</time></trkpt><trkpt lat="30.61866379" lon="34.80166626"><ele>865.7</ele><time>2013-11-21T14:57:59.0000000+00:00</time></trkpt><trkpt lat="30.61866379" lon="34.80166626"><ele>865.7</ele><time>2013-11-21T14:58:04.0000000+00:00</time></trkpt><trkpt lat="30.61866379" lon="34.80166626"><ele>865.7</ele><time>2013-11-21T14:58:09.0000000+00:00</time></trkpt><trkpt lat="30.61866379" lon="34.80166626"><ele>865.6</ele><time>2013-11-21T14:58:14.0000000+00:00</time></trkpt><trkpt lat="30.61866379" lon="34.80166626"><ele>865.6</ele><time>2013-11-21T14:58:19.0000000+00:00</time></trkpt><trkpt lat="30.6186657" lon="34.80166626"><ele>865.7</ele><time>2013-11-21T14:58:24.0000000+00:00</time></trkpt><trkpt lat="30.6186657" lon="34.80166626"><ele>865.7</ele><time>2013-11-21T14:58:29.0000000+00:00</time></trkpt><trkpt lat="30.6186657" lon="34.80166626"><ele>865.7</ele><time>2013-11-21T14:58:34.0000000+00:00</time></trkpt><trkpt lat="30.6186657" lon="34.80166626"><ele>865.7</ele><time>2013-11-21T14:58:39.0000000+00:00</time></trkpt><trkpt lat="30.6186676" lon="34.80166626"><ele>865.8</ele><time>2013-11-21T14:58:44.0000000+00:00</time></trkpt><trkpt lat="30.6186676" lon="34.80166626"><ele>865.8</ele><time>2013-11-21T14:58:49.0000000+00:00</time></trkpt><trkpt lat="30.6186676" lon="34.80166626"><ele>865.8</ele><time>2013-11-21T14:58:54.0000000+00:00</time></trkpt><trkpt lat="30.6186676" lon="34.80166626"><ele>865.9</ele><time>2013-11-21T14:58:59.0000000+00:00</time></trkpt><trkpt lat="30.6186676" lon="34.80166626"><ele>865.9</ele><time>2013-11-21T14:59:04.0000000+00:00</time></trkpt><trkpt lat="30.6186676" lon="34.80167007"><ele>865.9</ele><time>2013-11-21T14:59:09.0000000+00:00</time></trkpt><trkpt lat="30.6186676" lon="34.80167007"><ele>865.9</ele><time>2013-11-21T14:59:14.0000000+00:00</time></trkpt><trkpt lat="30.6186676" lon="34.80167007"><ele>865.9</ele><time>2013-11-21T14:59:19.0000000+00:00</time></trkpt><trkpt lat="30.6186676" lon="34.80167007"><ele>866.0</ele><time>2013-11-21T14:59:24.0000000+00:00</time></trkpt><trkpt lat="30.6186676" lon="34.80167007"><ele>866.0</ele><time>2013-11-21T14:59:29.0000000+00:00</time></trkpt><trkpt lat="30.6186657" lon="34.80167007"><ele>866.0</ele><time>2013-11-21T14:59:34.0000000+00:00</time></trkpt><trkpt lat="30.6186676" lon="34.80167389"><ele>866.0</ele><time>2013-11-21T14:59:39.0000000+00:00</time></trkpt><trkpt lat="30.6186657" lon="34.80167389"><ele>866.0</ele><time>2013-11-21T14:59:44.0000000+00:00</time></trkpt><trkpt lat="30.6186657" lon="34.80167389"><ele>866.0</ele><time>2013-11-21T14:59:49.0000000+00:00</time></trkpt><trkpt lat="30.6186657" lon="34.80167389"><ele>866.0</ele><time>2013-11-21T14:59:54.0000000+00:00</time></trkpt><trkpt lat="30.6186657" lon="34.80167389"><ele>866.0</ele><time>2013-11-21T14:59:59.0000000+00:00</time></trkpt><trkpt lat="30.6186657" lon="34.8016777"><ele>866.0</ele><time>2013-11-21T15:00:04.0000000+00:00</time></trkpt><trkpt lat="30.6186657" lon="34.8016777"><ele>866.0</ele><time>2013-11-21T15:00:09.0000000+00:00</time></trkpt><trkpt lat="30.6186657" lon="34.8016777"><ele>866.0</ele><time>2013-11-21T15:00:14.0000000+00:00</time></trkpt><trkpt lat="30.6186657" lon="34.8016777"><ele>866.0</ele><time>2013-11-21T15:00:19.0000000+00:00</time></trkpt><trkpt lat="30.6186676" lon="34.80167389"><ele>865.9</ele><time>2013-11-21T15:00:24.0000000+00:00</time></trkpt><trkpt lat="30.6186676" lon="34.80167389"><ele>865.8</ele><time>2013-11-21T15:00:29.0000000+00:00</time></trkpt><trkpt lat="30.6186676" lon="34.80167389"><ele>865.7</ele><time>2013-11-21T15:00:34.0000000+00:00</time></trkpt><trkpt lat="30.6186676" lon="34.80167389"><ele>865.6</ele><time>2013-11-21T15:00:39.0000000+00:00</time></trkpt><trkpt lat="30.61866951" lon="34.80167389"><ele>865.5</ele><time>2013-11-21T15:00:44.0000000+00:00</time></trkpt><trkpt lat="30.61866951" lon="34.80167389"><ele>865.4</ele><time>2013-11-21T15:00:49.0000000+00:00</time></trkpt><trkpt lat="30.61866951" lon="34.80167389"><ele>865.4</ele><time>2013-11-21T15:00:54.0000000+00:00</time></trkpt><trkpt lat="30.61867142" lon="34.80167389"><ele>865.3</ele><time>2013-11-21T15:00:59.0000000+00:00</time></trkpt><trkpt lat="30.61867142" lon="34.80167389"><ele>865.2</ele><time>2013-11-21T15:01:04.0000000+00:00</time></trkpt><trkpt lat="30.61867142" lon="34.80167389"><ele>865.1</ele><time>2013-11-21T15:01:09.0000000+00:00</time></trkpt><trkpt lat="30.61867142" lon="34.80167389"><ele>865.0</ele><time>2013-11-21T15:01:14.0000000+00:00</time></trkpt><trkpt lat="30.61867142" lon="34.80167389"><ele>864.9</ele><time>2013-11-21T15:01:19.0000000+00:00</time></trkpt><trkpt lat="30.61867142" lon="34.80167389"><ele>864.9</ele><time>2013-11-21T15:01:24.0000000+00:00</time></trkpt><trkpt lat="30.61867142" lon="34.80167389"><ele>864.8</ele><time>2013-11-21T15:01:29.0000000+00:00</time></trkpt><trkpt lat="30.61867333" lon="34.80167389"><ele>864.8</ele><time>2013-11-21T15:01:34.0000000+00:00</time></trkpt><trkpt lat="30.61867333" lon="34.80167389"><ele>864.8</ele><time>2013-11-21T15:01:39.0000000+00:00</time></trkpt><trkpt lat="30.61867333" lon="34.80167389"><ele>864.8</ele><time>2013-11-21T15:01:44.0000000+00:00</time></trkpt><trkpt lat="30.61867333" lon="34.80167389"><ele>864.7</ele><time>2013-11-21T15:01:49.0000000+00:00</time></trkpt><trkpt lat="30.61867333" lon="34.80167389"><ele>864.6</ele><time>2013-11-21T15:01:54.0000000+00:00</time></trkpt><trkpt lat="30.61867142" lon="34.80167389"><ele>864.6</ele><time>2013-11-21T15:01:59.0000000+00:00</time></trkpt><trkpt lat="30.61867142" lon="34.80167389"><ele>864.5</ele><time>2013-11-21T15:02:04.0000000+00:00</time></trkpt><trkpt lat="30.61867142" lon="34.80167389"><ele>864.5</ele><time>2013-11-21T15:02:09.0000000+00:00</time></trkpt><trkpt lat="30.61866951" lon="34.80167007"><ele>864.4</ele><time>2013-11-21T15:02:14.0000000+00:00</time></trkpt><trkpt lat="30.61866951" lon="34.80167007"><ele>864.3</ele><time>2013-11-21T15:02:19.0000000+00:00</time></trkpt><trkpt lat="30.61866951" lon="34.80167007"><ele>864.3</ele><time>2013-11-21T15:02:24.0000000+00:00</time></trkpt><trkpt lat="30.61866951" lon="34.80167007"><ele>864.2</ele><time>2013-11-21T15:02:29.0000000+00:00</time></trkpt><trkpt lat="30.61866951" lon="34.80167007"><ele>864.1</ele><time>2013-11-21T15:02:34.0000000+00:00</time></trkpt><trkpt lat="30.61866951" lon="34.80167007"><ele>864.1</ele><time>2013-11-21T15:02:39.0000000+00:00</time></trkpt><trkpt lat="30.61866951" lon="34.80166626"><ele>864.0</ele><time>2013-11-21T15:02:44.0000000+00:00</time></trkpt><trkpt lat="30.61866951" lon="34.80166626"><ele>863.8</ele><time>2013-11-21T15:02:49.0000000+00:00</time></trkpt><trkpt lat="30.61866951" lon="34.80166626"><ele>863.7</ele><time>2013-11-21T15:02:54.0000000+00:00</time></trkpt><trkpt lat="30.61866951" lon="34.80166626"><ele>863.6</ele><time>2013-11-21T15:02:59.0000000+00:00</time></trkpt><trkpt lat="30.61866951" lon="34.80166626"><ele>863.5</ele><time>2013-11-21T15:03:04.0000000+00:00</time></trkpt><trkpt lat="30.61866951" lon="34.80166626"><ele>863.4</ele><time>2013-11-21T15:03:09.0000000+00:00</time></trkpt><trkpt lat="30.61866951" lon="34.80166626"><ele>863.4</ele><time>2013-11-21T15:03:14.0000000+00:00</time></trkpt><trkpt lat="30.61866951" lon="34.80166245"><ele>863.3</ele><time>2013-11-21T15:03:19.0000000+00:00</time></trkpt><trkpt lat="30.61866951" lon="34.80166245"><ele>863.3</ele><time>2013-11-21T15:03:24.0000000+00:00</time></trkpt><trkpt lat="30.61866951" lon="34.80166245"><ele>863.2</ele><time>2013-11-21T15:03:29.0000000+00:00</time></trkpt><trkpt lat="30.61866951" lon="34.80166245"><ele>863.1</ele><time>2013-11-21T15:03:34.0000000+00:00</time></trkpt><trkpt lat="30.6186676" lon="34.80166245"><ele>863.1</ele><time>2013-11-21T15:03:39.0000000+00:00</time></trkpt><trkpt lat="30.6186676" lon="34.80166245"><ele>863.0</ele><time>2013-11-21T15:03:44.0000000+00:00</time></trkpt><trkpt lat="30.6186676" lon="34.80166245"><ele>863.0</ele><time>2013-11-21T15:03:49.0000000+00:00</time></trkpt><trkpt lat="30.6186676" lon="34.80166245"><ele>862.9</ele><time>2013-11-21T15:03:54.0000000+00:00</time></trkpt><trkpt lat="30.6186657" lon="34.80166245"><ele>862.9</ele><time>2013-11-21T15:03:59.0000000+00:00</time></trkpt><trkpt lat="30.6186657" lon="34.80166245"><ele>862.8</ele><time>2013-11-21T15:04:04.0000000+00:00</time></trkpt><trkpt lat="30.6186657" lon="34.80166245"><ele>862.7</ele><time>2013-11-21T15:04:09.0000000+00:00</time></trkpt><trkpt lat="30.6186657" lon="34.80166245"><ele>862.7</ele><time>2013-11-21T15:04:14.0000000+00:00</time></trkpt><trkpt lat="30.61866379" lon="34.80166245"><ele>862.6</ele><time>2013-11-21T15:04:19.0000000+00:00</time></trkpt><trkpt lat="30.61866379" lon="34.80166245"><ele>862.5</ele><time>2013-11-21T15:04:24.0000000+00:00</time></trkpt><trkpt lat="30.61866379" lon="34.80166626"><ele>862.5</ele><time>2013-11-21T15:04:29.0000000+00:00</time></trkpt><trkpt lat="30.61866379" lon="34.80166626"><ele>862.4</ele><time>2013-11-21T15:04:34.0000000+00:00</time></trkpt><trkpt lat="30.61866379" lon="34.80166626"><ele>862.4</ele><time>2013-11-21T15:04:39.0000000+00:00</time></trkpt><trkpt lat="30.61866379" lon="34.80166626"><ele>862.4</ele><time>2013-11-21T15:04:44.0000000+00:00</time></trkpt><trkpt lat="30.61866379" lon="34.80166626"><ele>862.3</ele><time>2013-11-21T15:04:49.0000000+00:00</time></trkpt><trkpt lat="30.61866379" lon="34.80166626"><ele>862.3</ele><time>2013-11-21T15:04:54.0000000+00:00</time></trkpt><trkpt lat="30.61866379" lon="34.80166626"><ele>862.3</ele><time>2013-11-21T15:04:59.0000000+00:00</time></trkpt><trkpt lat="30.61866379" lon="34.80166626"><ele>862.3</ele><time>2013-11-21T15:05:04.0000000+00:00</time></trkpt><trkpt lat="30.61866379" lon="34.80166626"><ele>862.2</ele><time>2013-11-21T15:05:09.0000000+00:00</time></trkpt><trkpt lat="30.61866379" lon="34.80166626"><ele>862.2</ele><time>2013-11-21T15:05:14.0000000+00:00</time></trkpt><trkpt lat="30.61866379" lon="34.80166626"><ele>862.1</ele><time>2013-11-21T15:05:19.0000000+00:00</time></trkpt><trkpt lat="30.61866379" lon="34.80166626"><ele>862.0</ele><time>2013-11-21T15:05:24.0000000+00:00</time></trkpt><trkpt lat="30.61866379" lon="34.80166626"><ele>862.0</ele><time>2013-11-21T15:05:29.0000000+00:00</time></trkpt><trkpt lat="30.61866379" lon="34.80166626"><ele>861.9</ele><time>2013-11-21T15:05:34.0000000+00:00</time></trkpt><trkpt lat="30.61866379" lon="34.80166626"><ele>861.9</ele><time>2013-11-21T15:05:39.0000000+00:00</time></trkpt><trkpt lat="30.61866379" lon="34.80166626"><ele>861.8</ele><time>2013-11-21T15:05:44.0000000+00:00</time></trkpt><trkpt lat="30.61866379" lon="34.80166626"><ele>861.8</ele><time>2013-11-21T15:05:49.0000000+00:00</time></trkpt><trkpt lat="30.61866379" lon="34.80166626"><ele>861.7</ele><time>2013-11-21T15:05:54.0000000+00:00</time></trkpt><trkpt lat="30.61866379" lon="34.80166626"><ele>861.7</ele><time>2013-11-21T15:05:59.0000000+00:00</time></trkpt><trkpt lat="30.61866379" lon="34.80166626"><ele>861.6</ele><time>2013-11-21T15:06:04.0000000+00:00</time></trkpt><trkpt lat="30.61866379" lon="34.80166626"><ele>861.5</ele><time>2013-11-21T15:06:09.0000000+00:00</time></trkpt><trkpt lat="30.61866379" lon="34.80166626"><ele>861.5</ele><time>2013-11-21T15:06:14.0000000+00:00</time></trkpt><trkpt lat="30.61866379" lon="34.80166626"><ele>861.4</ele><time>2013-11-21T15:06:19.0000000+00:00</time></trkpt><trkpt lat="30.61866379" lon="34.80167007"><ele>861.4</ele><time>2013-11-21T15:06:24.0000000+00:00</time></trkpt><trkpt lat="30.61866379" lon="34.80167007"><ele>861.3</ele><time>2013-11-21T15:06:29.0000000+00:00</time></trkpt><trkpt lat="30.61866379" lon="34.80167007"><ele>861.3</ele><time>2013-11-21T15:06:34.0000000+00:00</time></trkpt><trkpt lat="30.61866379" lon="34.80167007"><ele>861.2</ele><time>2013-11-21T15:06:39.0000000+00:00</time></trkpt><trkpt lat="30.61866188" lon="34.80167007"><ele>861.2</ele><time>2013-11-21T15:06:44.0000000+00:00</time></trkpt><trkpt lat="30.61866188" lon="34.80167389"><ele>861.1</ele><time>2013-11-21T15:06:49.0000000+00:00</time></trkpt><trkpt lat="30.61866188" lon="34.80167389"><ele>861.1</ele><time>2013-11-21T15:06:54.0000000+00:00</time></trkpt><trkpt lat="30.61866188" lon="34.80167389"><ele>861.1</ele><time>2013-11-21T15:06:59.0000000+00:00</time></trkpt><trkpt lat="30.61866188" lon="34.8016777"><ele>861.1</ele><time>2013-11-21T15:07:04.0000000+00:00</time></trkpt><trkpt lat="30.61866188" lon="34.8016777"><ele>861.1</ele><time>2013-11-21T15:07:09.0000000+00:00</time></trkpt><trkpt lat="30.61865997" lon="34.8016777"><ele>861.1</ele><time>2013-11-21T15:07:14.0000000+00:00</time></trkpt><trkpt lat="30.61865997" lon="34.8016777"><ele>861.0</ele><time>2013-11-21T15:07:19.0000000+00:00</time></trkpt><trkpt lat="30.61865997" lon="34.80168152"><ele>861.0</ele><time>2013-11-21T15:07:24.0000000+00:00</time></trkpt><trkpt lat="30.61865997" lon="34.80168152"><ele>861.0</ele><time>2013-11-21T15:07:29.0000000+00:00</time></trkpt><trkpt lat="30.61865997" lon="34.80168152"><ele>861.0</ele><time>2013-11-21T15:07:34.0000000+00:00</time></trkpt><trkpt lat="30.61865997" lon="34.80168152"><ele>861.0</ele><time>2013-11-21T15:07:39.0000000+00:00</time></trkpt><trkpt lat="30.61865997" lon="34.80168533"><ele>861.0</ele><time>2013-11-21T15:07:44.0000000+00:00</time></trkpt><trkpt lat="30.61865997" lon="34.80168533"><ele>861.0</ele><time>2013-11-21T15:07:49.0000000+00:00</time></trkpt><trkpt lat="30.61865997" lon="34.80168533"><ele>861.0</ele><time>2013-11-21T15:07:54.0000000+00:00</time></trkpt><trkpt lat="30.61865997" lon="34.80168533"><ele>861.0</ele><time>2013-11-21T15:07:59.0000000+00:00</time></trkpt><trkpt lat="30.61865997" lon="34.80168533"><ele>861.0</ele><time>2013-11-21T15:08:04.0000000+00:00</time></trkpt><trkpt lat="30.61865997" lon="34.80168915"><ele>861.0</ele><time>2013-11-21T15:08:09.0000000+00:00</time></trkpt><trkpt lat="30.61865997" lon="34.80168915"><ele>861.0</ele><time>2013-11-21T15:08:14.0000000+00:00</time></trkpt><trkpt lat="30.61865997" lon="34.80168915"><ele>861.0</ele><time>2013-11-21T15:08:19.0000000+00:00</time></trkpt><trkpt lat="30.61865997" lon="34.80168915"><ele>861.0</ele><time>2013-11-21T15:08:24.0000000+00:00</time></trkpt><trkpt lat="30.61865807" lon="34.80168915"><ele>861.0</ele><time>2013-11-21T15:08:29.0000000+00:00</time></trkpt><trkpt lat="30.61865807" lon="34.80168915"><ele>861.0</ele><time>2013-11-21T15:08:34.0000000+00:00</time></trkpt><trkpt lat="30.61865807" lon="34.80169296"><ele>860.9</ele><time>2013-11-21T15:08:39.0000000+00:00</time></trkpt><trkpt lat="30.61865807" lon="34.80169296"><ele>860.9</ele><time>2013-11-21T15:08:44.0000000+00:00</time></trkpt><trkpt lat="30.61865807" lon="34.80169296"><ele>860.9</ele><time>2013-11-21T15:08:49.0000000+00:00</time></trkpt><trkpt lat="30.61865616" lon="34.80169296"><ele>860.8</ele><time>2013-11-21T15:08:54.0000000+00:00</time></trkpt><trkpt lat="30.61865616" lon="34.80168915"><ele>860.7</ele><time>2013-11-21T15:08:59.0000000+00:00</time></trkpt><trkpt lat="30.61865616" lon="34.80168915"><ele>860.6</ele><time>2013-11-21T15:09:04.0000000+00:00</time></trkpt><trkpt lat="30.61865807" lon="34.80168915"><ele>860.5</ele><time>2013-11-21T15:09:09.0000000+00:00</time></trkpt><trkpt lat="30.61865616" lon="34.80168915"><ele>860.4</ele><time>2013-11-21T15:09:14.0000000+00:00</time></trkpt><trkpt lat="30.61865616" lon="34.80168915"><ele>860.4</ele><time>2013-11-21T15:09:19.0000000+00:00</time></trkpt><trkpt lat="30.61865616" lon="34.80168533"><ele>860.3</ele><time>2013-11-21T15:09:24.0000000+00:00</time></trkpt><trkpt lat="30.61865616" lon="34.80168533"><ele>860.2</ele><time>2013-11-21T15:09:29.0000000+00:00</time></trkpt><trkpt lat="30.61865616" lon="34.80168533"><ele>860.1</ele><time>2013-11-21T15:09:34.0000000+00:00</time></trkpt><trkpt lat="30.61865425" lon="34.80168533"><ele>860.0</ele><time>2013-11-21T15:09:39.0000000+00:00</time></trkpt><trkpt lat="30.61865425" lon="34.80168533"><ele>860.0</ele><time>2013-11-21T15:09:44.0000000+00:00</time></trkpt><trkpt lat="30.61865425" lon="34.80168152"><ele>859.9</ele><time>2013-11-21T15:09:49.0000000+00:00</time></trkpt><trkpt lat="30.61865425" lon="34.80168152"><ele>859.8</ele><time>2013-11-21T15:09:54.0000000+00:00</time></trkpt><trkpt lat="30.61865425" lon="34.80168152"><ele>859.8</ele><time>2013-11-21T15:09:59.0000000+00:00</time></trkpt><trkpt lat="30.61865234" lon="34.80168152"><ele>859.7</ele><time>2013-11-21T15:10:04.0000000+00:00</time></trkpt><trkpt lat="30.61865234" lon="34.8016777"><ele>859.6</ele><time>2013-11-21T15:10:09.0000000+00:00</time></trkpt><trkpt lat="30.61865234" lon="34.8016777"><ele>859.5</ele><time>2013-11-21T15:10:14.0000000+00:00</time></trkpt><trkpt lat="30.61865234" lon="34.8016777"><ele>859.4</ele><time>2013-11-21T15:10:19.0000000+00:00</time></trkpt><trkpt lat="30.61865234" lon="34.80167389"><ele>859.3</ele><time>2013-11-21T15:10:24.0000000+00:00</time></trkpt><trkpt lat="30.61865234" lon="34.80167389"><ele>859.3</ele><time>2013-11-21T15:10:29.0000000+00:00</time></trkpt><trkpt lat="30.61865425" lon="34.80167007"><ele>859.2</ele><time>2013-11-21T15:10:34.0000000+00:00</time></trkpt><trkpt lat="30.61865425" lon="34.80167007"><ele>859.1</ele><time>2013-11-21T15:10:39.0000000+00:00</time></trkpt><trkpt lat="30.61865234" lon="34.80167007"><ele>859.0</ele><time>2013-11-21T15:10:44.0000000+00:00</time></trkpt><trkpt lat="30.61865234" lon="34.80166626"><ele>858.7</ele><time>2013-11-21T15:10:49.0000000+00:00</time></trkpt><trkpt lat="30.61864853" lon="34.80165482"><ele>858.3</ele><time>2013-11-21T15:10:54.0000000+00:00</time></trkpt><trkpt lat="30.61863899" lon="34.80164337"><ele>855.9</ele><time>2013-11-21T15:10:59.0000000+00:00</time></trkpt><trkpt lat="30.61865044" lon="34.80160904"><ele>852.8</ele><time>2013-11-21T15:11:04.0000000+00:00</time></trkpt><trkpt lat="30.6186409" lon="34.80160141"><ele>848.2</ele><time>2013-11-21T15:11:09.0000000+00:00</time></trkpt><trkpt lat="30.61863709" lon="34.80158997"><ele>846.6</ele><time>2013-11-21T15:11:14.0000000+00:00</time></trkpt><trkpt lat="30.61863709" lon="34.80157852"><ele>845.4</ele><time>2013-11-21T15:11:19.0000000+00:00</time></trkpt><trkpt lat="30.61863136" lon="34.80157852"><ele>844.1</ele><time>2013-11-21T15:11:24.0000000+00:00</time></trkpt><trkpt lat="30.61862183" lon="34.80157089"><ele>842.8</ele><time>2013-11-21T15:11:29.0000000+00:00</time></trkpt><trkpt lat="30.61861038" lon="34.80156708"><ele>840.7</ele><time>2013-11-21T15:11:34.0000000+00:00</time></trkpt><trkpt lat="30.61859512" lon="34.80157852"><ele>837.4</ele><time>2013-11-21T15:11:39.0000000+00:00</time></trkpt><trkpt lat="30.61859512" lon="34.80157089"><ele>836.2</ele><time>2013-11-21T15:11:44.0000000+00:00</time></trkpt><trkpt lat="30.61858749" lon="34.80157471"><ele>834.8</ele><time>2013-11-21T15:11:49.0000000+00:00</time></trkpt><trkpt lat="30.61857987" lon="34.80158234"><ele>833.8</ele><time>2013-11-21T15:11:54.0000000+00:00</time></trkpt><trkpt lat="30.61857987" lon="34.80158615"><ele>832.8</ele><time>2013-11-21T15:11:59.0000000+00:00</time></trkpt><trkpt lat="30.61858177" lon="34.80158615"><ele>832.1</ele><time>2013-11-21T15:12:04.0000000+00:00</time></trkpt><trkpt lat="30.61858559" lon="34.80158615"><ele>831.7</ele><time>2013-11-21T15:12:09.0000000+00:00</time></trkpt><trkpt lat="30.61858559" lon="34.80158615"><ele>831.8</ele><time>2013-11-21T15:12:14.0000000+00:00</time></trkpt><trkpt lat="30.61858559" lon="34.80158615"><ele>831.8</ele><time>2013-11-21T15:12:19.0000000+00:00</time></trkpt><trkpt lat="30.61858559" lon="34.80158615"><ele>831.8</ele><time>2013-11-21T15:12:24.0000000+00:00</time></trkpt><trkpt lat="30.61858749" lon="34.80158615"><ele>831.8</ele><time>2013-11-21T15:12:29.0000000+00:00</time></trkpt><trkpt lat="30.61858749" lon="34.80158615"><ele>831.9</ele><time>2013-11-21T15:12:34.0000000+00:00</time></trkpt><trkpt lat="30.61858749" lon="34.80158615"><ele>831.9</ele><time>2013-11-21T15:12:39.0000000+00:00</time></trkpt><trkpt lat="30.61858749" lon="34.80158615"><ele>831.9</ele><time>2013-11-21T15:12:44.0000000+00:00</time></trkpt><trkpt lat="30.6185894" lon="34.80158615"><ele>832.0</ele><time>2013-11-21T15:12:49.0000000+00:00</time></trkpt><trkpt lat="30.6185894" lon="34.80158615"><ele>832.0</ele><time>2013-11-21T15:12:54.0000000+00:00</time></trkpt><trkpt lat="30.6185894" lon="34.80158615"><ele>832.0</ele><time>2013-11-21T15:12:59.0000000+00:00</time></trkpt><trkpt lat="30.6185894" lon="34.80158615"><ele>832.0</ele><time>2013-11-21T15:13:04.0000000+00:00</time></trkpt><trkpt lat="30.6185894" lon="34.80158615"><ele>832.0</ele><time>2013-11-21T15:13:09.0000000+00:00</time></trkpt><trkpt lat="30.61859131" lon="34.80158615"><ele>832.0</ele><time>2013-11-21T15:13:14.0000000+00:00</time></trkpt><trkpt lat="30.61859131" lon="34.80158234"><ele>832.1</ele><time>2013-11-21T15:13:19.0000000+00:00</time></trkpt><trkpt lat="30.61859131" lon="34.80158234"><ele>832.1</ele><time>2013-11-21T15:13:24.0000000+00:00</time></trkpt><trkpt lat="30.61859322" lon="34.80158234"><ele>832.1</ele><time>2013-11-21T15:13:29.0000000+00:00</time></trkpt><trkpt lat="30.61859322" lon="34.80158234"><ele>832.1</ele><time>2013-11-21T15:13:34.0000000+00:00</time></trkpt><trkpt lat="30.61859512" lon="34.80158234"><ele>832.1</ele><time>2013-11-21T15:13:39.0000000+00:00</time></trkpt><trkpt lat="30.61859512" lon="34.80158234"><ele>832.1</ele><time>2013-11-21T15:13:44.0000000+00:00</time></trkpt><trkpt lat="30.61859703" lon="34.80158234"><ele>832.1</ele><time>2013-11-21T15:13:49.0000000+00:00</time></trkpt><trkpt lat="30.61859703" lon="34.80158234"><ele>832.2</ele><time>2013-11-21T15:13:54.0000000+00:00</time></trkpt><trkpt lat="30.61859703" lon="34.80158234"><ele>832.2</ele><time>2013-11-21T15:13:59.0000000+00:00</time></trkpt><trkpt lat="30.61859703" lon="34.80158234"><ele>832.3</ele><time>2013-11-21T15:14:04.0000000+00:00</time></trkpt><trkpt lat="30.61859894" lon="34.80158234"><ele>832.3</ele><time>2013-11-21T15:14:09.0000000+00:00</time></trkpt><trkpt lat="30.61859894" lon="34.80158234"><ele>832.3</ele><time>2013-11-21T15:14:14.0000000+00:00</time></trkpt><trkpt lat="30.61859894" lon="34.80158234"><ele>832.3</ele><time>2013-11-21T15:14:19.0000000+00:00</time></trkpt><trkpt lat="30.61859894" lon="34.80158615"><ele>832.3</ele><time>2013-11-21T15:14:24.0000000+00:00</time></trkpt><trkpt lat="30.61859894" lon="34.80158615"><ele>832.3</ele><time>2013-11-21T15:14:29.0000000+00:00</time></trkpt><trkpt lat="30.61859894" lon="34.80158615"><ele>832.3</ele><time>2013-11-21T15:14:34.0000000+00:00</time></trkpt><trkpt lat="30.61859894" lon="34.80158615"><ele>832.3</ele><time>2013-11-21T15:14:39.0000000+00:00</time></trkpt><trkpt lat="30.61860085" lon="34.80158615"><ele>832.3</ele><time>2013-11-21T15:14:44.0000000+00:00</time></trkpt><trkpt lat="30.61860085" lon="34.80158615"><ele>832.4</ele><time>2013-11-21T15:14:49.0000000+00:00</time></trkpt><trkpt lat="30.61860085" lon="34.80158615"><ele>832.4</ele><time>2013-11-21T15:14:54.0000000+00:00</time></trkpt><trkpt lat="30.61860085" lon="34.80158615"><ele>832.4</ele><time>2013-11-21T15:14:59.0000000+00:00</time></trkpt><trkpt lat="30.61860275" lon="34.80158615"><ele>832.4</ele><time>2013-11-21T15:15:04.0000000+00:00</time></trkpt><trkpt lat="30.61860275" lon="34.80158615"><ele>832.4</ele><time>2013-11-21T15:15:09.0000000+00:00</time></trkpt><trkpt lat="30.61860275" lon="34.80158615"><ele>832.4</ele><time>2013-11-21T15:15:14.0000000+00:00</time></trkpt><trkpt lat="30.61860275" lon="34.80158615"><ele>832.4</ele><time>2013-11-21T15:15:19.0000000+00:00</time></trkpt><trkpt lat="30.61860275" lon="34.80158615"><ele>832.4</ele><time>2013-11-21T15:15:24.0000000+00:00</time></trkpt><trkpt lat="30.61860275" lon="34.80158615"><ele>832.4</ele><time>2013-11-21T15:15:29.0000000+00:00</time></trkpt><trkpt lat="30.61860275" lon="34.80158234"><ele>832.4</ele><time>2013-11-21T15:15:34.0000000+00:00</time></trkpt><trkpt lat="30.61860275" lon="34.80158234"><ele>832.4</ele><time>2013-11-21T15:15:39.0000000+00:00</time></trkpt><trkpt lat="30.61860275" lon="34.80158234"><ele>832.3</ele><time>2013-11-21T15:15:44.0000000+00:00</time></trkpt><trkpt lat="30.61860275" lon="34.80158234"><ele>832.3</ele><time>2013-11-21T15:15:49.0000000+00:00</time></trkpt><trkpt lat="30.61860275" lon="34.80158234"><ele>832.3</ele><time>2013-11-21T15:15:54.0000000+00:00</time></trkpt><trkpt lat="30.61860275" lon="34.80158234"><ele>832.3</ele><time>2013-11-21T15:15:59.0000000+00:00</time></trkpt><trkpt lat="30.61860275" lon="34.80158234"><ele>832.3</ele><time>2013-11-21T15:16:04.0000000+00:00</time></trkpt><trkpt lat="30.61860466" lon="34.80158234"><ele>832.4</ele><time>2013-11-21T15:16:09.0000000+00:00</time></trkpt><trkpt lat="30.61860275" lon="34.80158234"><ele>832.4</ele><time>2013-11-21T15:16:14.0000000+00:00</time></trkpt><trkpt lat="30.61860466" lon="34.80158234"><ele>832.5</ele><time>2013-11-21T15:16:19.0000000+00:00</time></trkpt><trkpt lat="30.61860466" lon="34.80158234"><ele>832.5</ele><time>2013-11-21T15:16:24.0000000+00:00</time></trkpt><trkpt lat="30.61860466" lon="34.80158234"><ele>832.6</ele><time>2013-11-21T15:16:29.0000000+00:00</time></trkpt><trkpt lat="30.61860466" lon="34.80158234"><ele>832.6</ele><time>2013-11-21T15:16:34.0000000+00:00</time></trkpt><trkpt lat="30.61860657" lon="34.80158234"><ele>832.7</ele><time>2013-11-21T15:16:39.0000000+00:00</time></trkpt><trkpt lat="30.61860657" lon="34.80158234"><ele>832.7</ele><time>2013-11-21T15:16:44.0000000+00:00</time></trkpt><trkpt lat="30.61860657" lon="34.80158234"><ele>832.8</ele><time>2013-11-21T15:16:49.0000000+00:00</time></trkpt><trkpt lat="30.61860657" lon="34.80158234"><ele>832.8</ele><time>2013-11-21T15:16:54.0000000+00:00</time></trkpt><trkpt lat="30.61860657" lon="34.80158234"><ele>832.9</ele><time>2013-11-21T15:16:59.0000000+00:00</time></trkpt><trkpt lat="30.61860848" lon="34.80158234"><ele>832.9</ele><time>2013-11-21T15:17:04.0000000+00:00</time></trkpt><trkpt lat="30.61860848" lon="34.80158234"><ele>833.0</ele><time>2013-11-21T15:17:09.0000000+00:00</time></trkpt><trkpt lat="30.61860848" lon="34.80158234"><ele>833.0</ele><time>2013-11-21T15:17:14.0000000+00:00</time></trkpt><trkpt lat="30.61861038" lon="34.80158234"><ele>833.1</ele><time>2013-11-21T15:17:19.0000000+00:00</time></trkpt><trkpt lat="30.61861038" lon="34.80158234"><ele>833.2</ele><time>2013-11-21T15:17:24.0000000+00:00</time></trkpt><trkpt lat="30.61861038" lon="34.80158234"><ele>833.2</ele><time>2013-11-21T15:17:29.0000000+00:00</time></trkpt><trkpt lat="30.61861038" lon="34.80158234"><ele>833.2</ele><time>2013-11-21T15:17:34.0000000+00:00</time></trkpt><trkpt lat="30.61861229" lon="34.80158234"><ele>833.3</ele><time>2013-11-21T15:17:39.0000000+00:00</time></trkpt><trkpt lat="30.61861229" lon="34.80158234"><ele>833.3</ele><time>2013-11-21T15:17:44.0000000+00:00</time></trkpt><trkpt lat="30.61861229" lon="34.80158234"><ele>833.3</ele><time>2013-11-21T15:17:49.0000000+00:00</time></trkpt><trkpt lat="30.6186142" lon="34.80158234"><ele>833.3</ele><time>2013-11-21T15:17:54.0000000+00:00</time></trkpt><trkpt lat="30.6186142" lon="34.80158234"><ele>833.3</ele><time>2013-11-21T15:17:59.0000000+00:00</time></trkpt><trkpt lat="30.6186142" lon="34.80158234"><ele>833.4</ele><time>2013-11-21T15:18:04.0000000+00:00</time></trkpt><trkpt lat="30.6186142" lon="34.80158234"><ele>833.4</ele><time>2013-11-21T15:18:09.0000000+00:00</time></trkpt><trkpt lat="30.6186161" lon="34.80158234"><ele>833.4</ele><time>2013-11-21T15:18:14.0000000+00:00</time></trkpt><trkpt lat="30.6186161" lon="34.80158234"><ele>833.5</ele><time>2013-11-21T15:18:19.0000000+00:00</time></trkpt><trkpt lat="30.6186161" lon="34.80158234"><ele>833.4</ele><time>2013-11-21T15:18:24.0000000+00:00</time></trkpt><trkpt lat="30.6186161" lon="34.80158234"><ele>833.4</ele><time>2013-11-21T15:18:29.0000000+00:00</time></trkpt><trkpt lat="30.6186161" lon="34.80158615"><ele>833.4</ele><time>2013-11-21T15:18:34.0000000+00:00</time></trkpt><trkpt lat="30.6186161" lon="34.80158615"><ele>833.4</ele><time>2013-11-21T15:18:39.0000000+00:00</time></trkpt><trkpt lat="30.6186161" lon="34.80158615"><ele>833.4</ele><time>2013-11-21T15:18:44.0000000+00:00</time></trkpt><trkpt lat="30.6186161" lon="34.80158615"><ele>833.4</ele><time>2013-11-21T15:18:49.0000000+00:00</time></trkpt><trkpt lat="30.6186161" lon="34.80158615"><ele>833.4</ele><time>2013-11-21T15:18:54.0000000+00:00</time></trkpt><trkpt lat="30.6186161" lon="34.80158615"><ele>833.4</ele><time>2013-11-21T15:18:59.0000000+00:00</time></trkpt><trkpt lat="30.6186161" lon="34.80158615"><ele>833.4</ele><time>2013-11-21T15:19:04.0000000+00:00</time></trkpt><trkpt lat="30.6186161" lon="34.80158615"><ele>833.4</ele><time>2013-11-21T15:19:09.0000000+00:00</time></trkpt><trkpt lat="30.6186142" lon="34.80158615"><ele>833.4</ele><time>2013-11-21T15:19:14.0000000+00:00</time></trkpt><trkpt lat="30.6186142" lon="34.80158615"><ele>833.3</ele><time>2013-11-21T15:19:19.0000000+00:00</time></trkpt><trkpt lat="30.6186142" lon="34.80158615"><ele>833.3</ele><time>2013-11-21T15:19:24.0000000+00:00</time></trkpt><trkpt lat="30.6186142" lon="34.80158615"><ele>833.3</ele><time>2013-11-21T15:19:29.0000000+00:00</time></trkpt><trkpt lat="30.6186142" lon="34.80158997"><ele>833.3</ele><time>2013-11-21T15:19:34.0000000+00:00</time></trkpt><trkpt lat="30.6186142" lon="34.80158997"><ele>833.3</ele><time>2013-11-21T15:19:39.0000000+00:00</time></trkpt><trkpt lat="30.61861801" lon="34.80158997"><ele>833.2</ele><time>2013-11-21T15:19:44.0000000+00:00</time></trkpt><trkpt lat="30.61861992" lon="34.80159378"><ele>833.1</ele><time>2013-11-21T15:19:49.0000000+00:00</time></trkpt><trkpt lat="30.61861992" lon="34.80159378"><ele>833.0</ele><time>2013-11-21T15:19:54.0000000+00:00</time></trkpt><trkpt lat="30.61861992" lon="34.80159378"><ele>833.0</ele><time>2013-11-21T15:19:59.0000000+00:00</time></trkpt><trkpt lat="30.61861801" lon="34.80159378"><ele>833.0</ele><time>2013-11-21T15:20:04.0000000+00:00</time></trkpt><trkpt lat="30.61861801" lon="34.8015976"><ele>833.0</ele><time>2013-11-21T15:20:09.0000000+00:00</time></trkpt><trkpt lat="30.61861801" lon="34.8015976"><ele>833.0</ele><time>2013-11-21T15:20:14.0000000+00:00</time></trkpt><trkpt lat="30.61861801" lon="34.8015976"><ele>833.0</ele><time>2013-11-21T15:20:19.0000000+00:00</time></trkpt><trkpt lat="30.61861801" lon="34.8015976"><ele>833.0</ele><time>2013-11-21T15:20:24.0000000+00:00</time></trkpt><trkpt lat="30.61861801" lon="34.8015976"><ele>833.0</ele><time>2013-11-21T15:20:29.0000000+00:00</time></trkpt><trkpt lat="30.61861801" lon="34.8015976"><ele>832.9</ele><time>2013-11-21T15:20:34.0000000+00:00</time></trkpt><trkpt lat="30.61861801" lon="34.80160141"><ele>832.9</ele><time>2013-11-21T15:20:39.0000000+00:00</time></trkpt><trkpt lat="30.61861801" lon="34.80160141"><ele>832.8</ele><time>2013-11-21T15:20:44.0000000+00:00</time></trkpt><trkpt lat="30.61861992" lon="34.80160141"><ele>832.8</ele><time>2013-11-21T15:20:49.0000000+00:00</time></trkpt><trkpt lat="30.61861992" lon="34.80160141"><ele>832.8</ele><time>2013-11-21T15:20:54.0000000+00:00</time></trkpt><trkpt lat="30.61861992" lon="34.80160523"><ele>832.7</ele><time>2013-11-21T15:20:59.0000000+00:00</time></trkpt><trkpt lat="30.61861992" lon="34.80160523"><ele>832.7</ele><time>2013-11-21T15:21:04.0000000+00:00</time></trkpt><trkpt lat="30.61861992" lon="34.80160523"><ele>832.7</ele><time>2013-11-21T15:21:09.0000000+00:00</time></trkpt><trkpt lat="30.61861992" lon="34.80160523"><ele>832.7</ele><time>2013-11-21T15:21:14.0000000+00:00</time></trkpt><trkpt lat="30.61861992" lon="34.80160523"><ele>832.7</ele><time>2013-11-21T15:21:19.0000000+00:00</time></trkpt><trkpt lat="30.61861992" lon="34.80160523"><ele>832.6</ele><time>2013-11-21T15:21:24.0000000+00:00</time></trkpt><trkpt lat="30.61862183" lon="34.80160523"><ele>832.6</ele><time>2013-11-21T15:21:29.0000000+00:00</time></trkpt><trkpt lat="30.61862183" lon="34.80160904"><ele>832.6</ele><time>2013-11-21T15:21:34.0000000+00:00</time></trkpt><trkpt lat="30.61862183" lon="34.80160904"><ele>832.5</ele><time>2013-11-21T15:21:39.0000000+00:00</time></trkpt><trkpt lat="30.61862183" lon="34.80160904"><ele>832.5</ele><time>2013-11-21T15:21:44.0000000+00:00</time></trkpt><trkpt lat="30.61862183" lon="34.80160904"><ele>832.5</ele><time>2013-11-21T15:21:49.0000000+00:00</time></trkpt><trkpt lat="30.61862373" lon="34.80160904"><ele>832.5</ele><time>2013-11-21T15:21:54.0000000+00:00</time></trkpt><trkpt lat="30.61862373" lon="34.80160904"><ele>832.5</ele><time>2013-11-21T15:21:59.0000000+00:00</time></trkpt><trkpt lat="30.61862373" lon="34.80160904"><ele>832.5</ele><time>2013-11-21T15:22:04.0000000+00:00</time></trkpt><trkpt lat="30.61862373" lon="34.80160904"><ele>832.5</ele><time>2013-11-21T15:22:09.0000000+00:00</time></trkpt><trkpt lat="30.61862564" lon="34.80161285"><ele>832.6</ele><time>2013-11-21T15:22:14.0000000+00:00</time></trkpt><trkpt lat="30.61862564" lon="34.80161285"><ele>832.6</ele><time>2013-11-21T15:22:19.0000000+00:00</time></trkpt><trkpt lat="30.61862564" lon="34.80161285"><ele>832.6</ele><time>2013-11-21T15:22:24.0000000+00:00</time></trkpt><trkpt lat="30.61862755" lon="34.80161285"><ele>832.6</ele><time>2013-11-21T15:22:29.0000000+00:00</time></trkpt></trkseg><trkseg><trkpt lat="30.61866951" lon="34.80161667"><ele>860.9</ele><time>2013-11-22T06:06:28.0000000+00:00</time></trkpt><trkpt lat="30.61867333" lon="34.80162048"><ele>860.2</ele><time>2013-11-22T06:06:33.0000000+00:00</time></trkpt><trkpt lat="30.61868286" lon="34.80162048"><ele>858.7</ele><time>2013-11-22T06:06:38.0000000+00:00</time></trkpt><trkpt lat="30.61868095" lon="34.80161285"><ele>859.3</ele><time>2013-11-22T06:06:43.0000000+00:00</time></trkpt><trkpt lat="30.61868286" lon="34.80160523"><ele>858.9</ele><time>2013-11-22T06:06:48.0000000+00:00</time></trkpt><trkpt lat="30.61867142" lon="34.8015976"><ele>857.1</ele><time>2013-11-22T06:06:53.0000000+00:00</time></trkpt><trkpt lat="30.61866379" lon="34.80159378"><ele>857.2</ele><time>2013-11-22T06:06:58.0000000+00:00</time></trkpt><trkpt lat="30.61866188" lon="34.80159378"><ele>856.9</ele><time>2013-11-22T06:07:03.0000000+00:00</time></trkpt><trkpt lat="30.61866188" lon="34.80159378"><ele>856.8</ele><time>2013-11-22T06:07:08.0000000+00:00</time></trkpt><trkpt lat="30.61866188" lon="34.80159378"><ele>856.7</ele><time>2013-11-22T06:07:13.0000000+00:00</time></trkpt><trkpt lat="30.61866188" lon="34.80159378"><ele>856.6</ele><time>2013-11-22T06:07:18.0000000+00:00</time></trkpt><trkpt lat="30.61866188" lon="34.8015976"><ele>856.6</ele><time>2013-11-22T06:07:23.0000000+00:00</time></trkpt><trkpt lat="30.61866188" lon="34.8015976"><ele>856.5</ele><time>2013-11-22T06:07:28.0000000+00:00</time></trkpt><trkpt lat="30.61866188" lon="34.8015976"><ele>856.5</ele><time>2013-11-22T06:07:33.0000000+00:00</time></trkpt><trkpt lat="30.61866188" lon="34.8015976"><ele>856.5</ele><time>2013-11-22T06:07:38.0000000+00:00</time></trkpt><trkpt lat="30.61866379" lon="34.8015976"><ele>856.5</ele><time>2013-11-22T06:07:43.0000000+00:00</time></trkpt><trkpt lat="30.61866379" lon="34.8015976"><ele>856.5</ele><time>2013-11-22T06:07:48.0000000+00:00</time></trkpt><trkpt lat="30.61866379" lon="34.8015976"><ele>856.5</ele><time>2013-11-22T06:07:53.0000000+00:00</time></trkpt><trkpt lat="30.61866379" lon="34.8015976"><ele>856.5</ele><time>2013-11-22T06:07:58.0000000+00:00</time></trkpt><trkpt lat="30.61866188" lon="34.8015976"><ele>856.5</ele><time>2013-11-22T06:08:03.0000000+00:00</time></trkpt><trkpt lat="30.61866188" lon="34.8015976"><ele>856.5</ele><time>2013-11-22T06:08:08.0000000+00:00</time></trkpt><trkpt lat="30.61866188" lon="34.8015976"><ele>856.5</ele><time>2013-11-22T06:08:13.0000000+00:00</time></trkpt><trkpt lat="30.61866188" lon="34.8015976"><ele>856.5</ele><time>2013-11-22T06:08:18.0000000+00:00</time></trkpt><trkpt lat="30.61866188" lon="34.8015976"><ele>856.5</ele><time>2013-11-22T06:08:23.0000000+00:00</time></trkpt><trkpt lat="30.61866188" lon="34.8015976"><ele>856.5</ele><time>2013-11-22T06:08:28.0000000+00:00</time></trkpt><trkpt lat="30.61865997" lon="34.8015976"><ele>856.4</ele><time>2013-11-22T06:08:33.0000000+00:00</time></trkpt><trkpt lat="30.61865997" lon="34.8015976"><ele>856.4</ele><time>2013-11-22T06:08:38.0000000+00:00</time></trkpt><trkpt lat="30.61865997" lon="34.8015976"><ele>856.4</ele><time>2013-11-22T06:08:43.0000000+00:00</time></trkpt><trkpt lat="30.61865997" lon="34.8015976"><ele>856.3</ele><time>2013-11-22T06:08:48.0000000+00:00</time></trkpt><trkpt lat="30.61865616" lon="34.8015976"><ele>856.2</ele><time>2013-11-22T06:08:53.0000000+00:00</time></trkpt><trkpt lat="30.61864853" lon="34.8015976"><ele>856.0</ele><time>2013-11-22T06:08:58.0000000+00:00</time></trkpt><trkpt lat="30.61863709" lon="34.80160141"><ele>855.7</ele><time>2013-11-22T06:09:03.0000000+00:00</time></trkpt><trkpt lat="30.61862373" lon="34.80160141"><ele>855.0</ele><time>2013-11-22T06:09:08.0000000+00:00</time></trkpt><trkpt lat="30.61862564" lon="34.8015976"><ele>854.9</ele><time>2013-11-22T06:09:13.0000000+00:00</time></trkpt><trkpt lat="30.61862946" lon="34.8015976"><ele>854.6</ele><time>2013-11-22T06:09:18.0000000+00:00</time></trkpt><trkpt lat="30.61862946" lon="34.80160141"><ele>854.5</ele><time>2013-11-22T06:09:23.0000000+00:00</time></trkpt><trkpt lat="30.61862946" lon="34.80160141"><ele>854.5</ele><time>2013-11-22T06:09:28.0000000+00:00</time></trkpt><trkpt lat="30.61862946" lon="34.80160141"><ele>854.4</ele><time>2013-11-22T06:09:33.0000000+00:00</time></trkpt><trkpt lat="30.61862564" lon="34.80160523"><ele>854.3</ele><time>2013-11-22T06:09:38.0000000+00:00</time></trkpt><trkpt lat="30.61861229" lon="34.80160904"><ele>854.5</ele><time>2013-11-22T06:09:43.0000000+00:00</time></trkpt><trkpt lat="30.61858749" lon="34.80160904"><ele>855.3</ele><time>2013-11-22T06:09:48.0000000+00:00</time></trkpt><trkpt lat="30.61856842" lon="34.80161285"><ele>856.0</ele><time>2013-11-22T06:09:53.0000000+00:00</time></trkpt><trkpt lat="30.61855125" lon="34.8016243"><ele>856.2</ele><time>2013-11-22T06:09:58.0000000+00:00</time></trkpt><trkpt lat="30.61853409" lon="34.80163193"><ele>856.2</ele><time>2013-11-22T06:10:03.0000000+00:00</time></trkpt><trkpt lat="30.61851311" lon="34.80163193"><ele>856.9</ele><time>2013-11-22T06:10:08.0000000+00:00</time></trkpt><trkpt lat="30.61848831" lon="34.80163193"><ele>858.0</ele><time>2013-11-22T06:10:13.0000000+00:00</time></trkpt><trkpt lat="30.61846733" lon="34.80162048"><ele>859.2</ele><time>2013-11-22T06:10:18.0000000+00:00</time></trkpt><trkpt lat="30.61846352" lon="34.80162048"><ele>859.4</ele><time>2013-11-22T06:10:23.0000000+00:00</time></trkpt><trkpt lat="30.61846542" lon="34.80161667"><ele>859.4</ele><time>2013-11-22T06:10:28.0000000+00:00</time></trkpt><trkpt lat="30.61846542" lon="34.80161285"><ele>859.4</ele><time>2013-11-22T06:10:33.0000000+00:00</time></trkpt><trkpt lat="30.61847305" lon="34.80161285"><ele>859.3</ele><time>2013-11-22T06:10:38.0000000+00:00</time></trkpt><trkpt lat="30.61847878" lon="34.80160523"><ele>859.2</ele><time>2013-11-22T06:10:43.0000000+00:00</time></trkpt><trkpt lat="30.6184845" lon="34.8015976"><ele>859.0</ele><time>2013-11-22T06:10:48.0000000+00:00</time></trkpt><trkpt lat="30.61846542" lon="34.8015976"><ele>859.3</ele><time>2013-11-22T06:10:53.0000000+00:00</time></trkpt><trkpt lat="30.61846542" lon="34.80160141"><ele>859.2</ele><time>2013-11-22T06:10:58.0000000+00:00</time></trkpt><trkpt lat="30.61846161" lon="34.8015976"><ele>858.9</ele><time>2013-11-22T06:11:03.0000000+00:00</time></trkpt><trkpt lat="30.61845589" lon="34.80159378"><ele>858.5</ele><time>2013-11-22T06:11:08.0000000+00:00</time></trkpt><trkpt lat="30.6184597" lon="34.80159378"><ele>858.2</ele><time>2013-11-22T06:11:13.0000000+00:00</time></trkpt><trkpt lat="30.6184597" lon="34.8015976"><ele>857.9</ele><time>2013-11-22T06:11:18.0000000+00:00</time></trkpt><trkpt lat="30.6184597" lon="34.8015976"><ele>857.5</ele><time>2013-11-22T06:11:23.0000000+00:00</time></trkpt><trkpt lat="30.6184597" lon="34.8015976"><ele>857.3</ele><time>2013-11-22T06:11:28.0000000+00:00</time></trkpt><trkpt lat="30.6184597" lon="34.80160141"><ele>857.3</ele><time>2013-11-22T06:11:33.0000000+00:00</time></trkpt><trkpt lat="30.61846161" lon="34.80160141"><ele>857.3</ele><time>2013-11-22T06:11:38.0000000+00:00</time></trkpt><trkpt lat="30.61846352" lon="34.80160141"><ele>857.3</ele><time>2013-11-22T06:11:43.0000000+00:00</time></trkpt><trkpt lat="30.61846542" lon="34.80160523"><ele>857.3</ele><time>2013-11-22T06:11:48.0000000+00:00</time></trkpt><trkpt lat="30.61846733" lon="34.80160904"><ele>857.2</ele><time>2013-11-22T06:11:53.0000000+00:00</time></trkpt><trkpt lat="30.61846542" lon="34.80161285"><ele>857.1</ele><time>2013-11-22T06:11:58.0000000+00:00</time></trkpt><trkpt lat="30.61846542" lon="34.80161285"><ele>857.1</ele><time>2013-11-22T06:12:03.0000000+00:00</time></trkpt><trkpt lat="30.61846733" lon="34.80160904"><ele>857.0</ele><time>2013-11-22T06:12:08.0000000+00:00</time></trkpt><trkpt lat="30.61846924" lon="34.80160523"><ele>857.0</ele><time>2013-11-22T06:12:13.0000000+00:00</time></trkpt><trkpt lat="30.61847496" lon="34.80160523"><ele>856.9</ele><time>2013-11-22T06:12:18.0000000+00:00</time></trkpt><trkpt lat="30.61848068" lon="34.80160523"><ele>856.7</ele><time>2013-11-22T06:12:23.0000000+00:00</time></trkpt><trkpt lat="30.61849022" lon="34.80160523"><ele>856.5</ele><time>2013-11-22T06:12:28.0000000+00:00</time></trkpt><trkpt lat="30.61850166" lon="34.80160523"><ele>856.2</ele><time>2013-11-22T06:12:33.0000000+00:00</time></trkpt><trkpt lat="30.6185112" lon="34.80160523"><ele>855.9</ele><time>2013-11-22T06:12:38.0000000+00:00</time></trkpt><trkpt lat="30.61852074" lon="34.80160523"><ele>855.5</ele><time>2013-11-22T06:12:43.0000000+00:00</time></trkpt><trkpt lat="30.61853218" lon="34.80160523"><ele>855.2</ele><time>2013-11-22T06:12:48.0000000+00:00</time></trkpt><trkpt lat="30.6185379" lon="34.80160523"><ele>854.8</ele><time>2013-11-22T06:12:53.0000000+00:00</time></trkpt><trkpt lat="30.61854172" lon="34.80160523"><ele>854.4</ele><time>2013-11-22T06:12:58.0000000+00:00</time></trkpt><trkpt lat="30.61854363" lon="34.80160523"><ele>853.9</ele><time>2013-11-22T06:13:03.0000000+00:00</time></trkpt><trkpt lat="30.61854553" lon="34.80160523"><ele>853.4</ele><time>2013-11-22T06:13:08.0000000+00:00</time></trkpt><trkpt lat="30.61854935" lon="34.80160523"><ele>852.9</ele><time>2013-11-22T06:13:13.0000000+00:00</time></trkpt><trkpt lat="30.61855316" lon="34.80160523"><ele>852.4</ele><time>2013-11-22T06:13:18.0000000+00:00</time></trkpt><trkpt lat="30.61855698" lon="34.80160141"><ele>851.9</ele><time>2013-11-22T06:13:23.0000000+00:00</time></trkpt><trkpt lat="30.6185627" lon="34.80160141"><ele>851.4</ele><time>2013-11-22T06:13:28.0000000+00:00</time></trkpt><trkpt lat="30.61856651" lon="34.80160141"><ele>850.8</ele><time>2013-11-22T06:13:33.0000000+00:00</time></trkpt><trkpt lat="30.61857033" lon="34.80160141"><ele>850.2</ele><time>2013-11-22T06:13:38.0000000+00:00</time></trkpt><trkpt lat="30.61857414" lon="34.80160141"><ele>849.4</ele><time>2013-11-22T06:13:43.0000000+00:00</time></trkpt><trkpt lat="30.61857987" lon="34.80160141"><ele>848.6</ele><time>2013-11-22T06:13:48.0000000+00:00</time></trkpt><trkpt lat="30.61858368" lon="34.80160141"><ele>847.9</ele><time>2013-11-22T06:13:53.0000000+00:00</time></trkpt><trkpt lat="30.61858749" lon="34.80160141"><ele>847.2</ele><time>2013-11-22T06:13:58.0000000+00:00</time></trkpt><trkpt lat="30.61859131" lon="34.80160141"><ele>846.6</ele><time>2013-11-22T06:14:03.0000000+00:00</time></trkpt><trkpt lat="30.61859131" lon="34.80160141"><ele>846.1</ele><time>2013-11-22T06:14:08.0000000+00:00</time></trkpt><trkpt lat="30.61859322" lon="34.80160141"><ele>845.7</ele><time>2013-11-22T06:14:13.0000000+00:00</time></trkpt><trkpt lat="30.61859512" lon="34.80160523"><ele>845.3</ele><time>2013-11-22T06:14:18.0000000+00:00</time></trkpt><trkpt lat="30.61859894" lon="34.80160904"><ele>844.8</ele><time>2013-11-22T06:14:23.0000000+00:00</time></trkpt><trkpt lat="30.61860085" lon="34.80161285"><ele>844.3</ele><time>2013-11-22T06:14:28.0000000+00:00</time></trkpt><trkpt lat="30.61860275" lon="34.80161285"><ele>843.8</ele><time>2013-11-22T06:14:33.0000000+00:00</time></trkpt><trkpt lat="30.61860466" lon="34.80161667"><ele>843.2</ele><time>2013-11-22T06:14:38.0000000+00:00</time></trkpt><trkpt lat="30.61860657" lon="34.80161667"><ele>842.8</ele><time>2013-11-22T06:14:43.0000000+00:00</time></trkpt><trkpt lat="30.61860848" lon="34.80162048"><ele>842.4</ele><time>2013-11-22T06:14:48.0000000+00:00</time></trkpt><trkpt lat="30.61861038" lon="34.80162048"><ele>842.1</ele><time>2013-11-22T06:14:53.0000000+00:00</time></trkpt><trkpt lat="30.61861229" lon="34.80162048"><ele>841.8</ele><time>2013-11-22T06:14:58.0000000+00:00</time></trkpt><trkpt lat="30.6186161" lon="34.8016243"><ele>841.4</ele><time>2013-11-22T06:15:03.0000000+00:00</time></trkpt><trkpt lat="30.6186161" lon="34.8016243"><ele>840.9</ele><time>2013-11-22T06:15:08.0000000+00:00</time></trkpt><trkpt lat="30.61861801" lon="34.8016243"><ele>840.4</ele><time>2013-11-22T06:15:13.0000000+00:00</time></trkpt><trkpt lat="30.6186161" lon="34.80162048"><ele>839.8</ele><time>2013-11-22T06:15:18.0000000+00:00</time></trkpt><trkpt lat="30.61860848" lon="34.8016243"><ele>839.4</ele><time>2013-11-22T06:15:23.0000000+00:00</time></trkpt><trkpt lat="30.61859131" lon="34.8016243"><ele>839.5</ele><time>2013-11-22T06:15:28.0000000+00:00</time></trkpt><trkpt lat="30.61859131" lon="34.80168915"><ele>838.5</ele><time>2013-11-22T06:15:33.0000000+00:00</time></trkpt><trkpt lat="30.61857796" lon="34.801754"><ele>838.8</ele><time>2013-11-22T06:15:38.0000000+00:00</time></trkpt><trkpt lat="30.61853981" lon="34.80174255"><ele>836.6</ele><time>2013-11-22T06:15:43.0000000+00:00</time></trkpt><trkpt lat="30.61856079" lon="34.80162048"><ele>834.8</ele><time>2013-11-22T06:15:48.0000000+00:00</time></trkpt><trkpt lat="30.61857033" lon="34.80146027"><ele>833.2</ele><time>2013-11-22T06:15:53.0000000+00:00</time></trkpt><trkpt lat="30.61855888" lon="34.80126953"><ele>831.4</ele><time>2013-11-22T06:15:58.0000000+00:00</time></trkpt><trkpt lat="30.61855888" lon="34.80111313"><ele>830.3</ele><time>2013-11-22T06:16:03.0000000+00:00</time></trkpt><trkpt lat="30.6185379" lon="34.80090332"><ele>828.3</ele><time>2013-11-22T06:16:08.0000000+00:00</time></trkpt><trkpt lat="30.618536" lon="34.80066681"><ele>826.2</ele><time>2013-11-22T06:16:13.0000000+00:00</time></trkpt><trkpt lat="30.61846161" lon="34.80046463"><ele>825.6</ele><time>2013-11-22T06:16:18.0000000+00:00</time></trkpt><trkpt lat="30.61831665" lon="34.80041122"><ele>827.3</ele><time>2013-11-22T06:16:23.0000000+00:00</time></trkpt><trkpt lat="30.61813355" lon="34.80046463"><ele>828.4</ele><time>2013-11-22T06:16:28.0000000+00:00</time></trkpt><trkpt lat="30.61795425" lon="34.8005333"><ele>829.6</ele><time>2013-11-22T06:16:33.0000000+00:00</time></trkpt><trkpt lat="30.61776352" lon="34.80057907"><ele>829.7</ele><time>2013-11-22T06:16:38.0000000+00:00</time></trkpt><trkpt lat="30.61761093" lon="34.80060577"><ele>830.6</ele><time>2013-11-22T06:16:43.0000000+00:00</time></trkpt><trkpt lat="30.61753655" lon="34.80060577"><ele>830.0</ele><time>2013-11-22T06:16:48.0000000+00:00</time></trkpt><trkpt lat="30.61753655" lon="34.80060577"><ele>829.6</ele><time>2013-11-22T06:16:53.0000000+00:00</time></trkpt><trkpt lat="30.6174984" lon="34.8006134"><ele>829.7</ele><time>2013-11-22T06:16:58.0000000+00:00</time></trkpt><trkpt lat="30.61735535" lon="34.8006134"><ele>829.7</ele><time>2013-11-22T06:17:03.0000000+00:00</time></trkpt><trkpt lat="30.61719132" lon="34.80060959"><ele>829.7</ele><time>2013-11-22T06:17:08.0000000+00:00</time></trkpt><trkpt lat="30.61701584" lon="34.80057526"><ele>829.6</ele><time>2013-11-22T06:17:13.0000000+00:00</time></trkpt><trkpt lat="30.61686707" lon="34.80052567"><ele>829.1</ele><time>2013-11-22T06:17:18.0000000+00:00</time></trkpt><trkpt lat="30.61679268" lon="34.80049133"><ele>828.6</ele><time>2013-11-22T06:17:23.0000000+00:00</time></trkpt><trkpt lat="30.61672974" lon="34.80046463"><ele>828.1</ele><time>2013-11-22T06:17:28.0000000+00:00</time></trkpt><trkpt lat="30.61663818" lon="34.80050659"><ele>829.4</ele><time>2013-11-22T06:17:33.0000000+00:00</time></trkpt><trkpt lat="30.61652565" lon="34.80059815"><ele>830.3</ele><time>2013-11-22T06:17:38.0000000+00:00</time></trkpt><trkpt lat="30.6164856" lon="34.80075073"><ele>831.1</ele><time>2013-11-22T06:17:43.0000000+00:00</time></trkpt><trkpt lat="30.6164608" lon="34.80091095"><ele>831.8</ele><time>2013-11-22T06:17:48.0000000+00:00</time></trkpt><trkpt lat="30.61643601" lon="34.80106735"><ele>832.8</ele><time>2013-11-22T06:17:53.0000000+00:00</time></trkpt><trkpt lat="30.61640739" lon="34.80119705"><ele>833.3</ele><time>2013-11-22T06:17:58.0000000+00:00</time></trkpt><trkpt lat="30.61639023" lon="34.80129623"><ele>833.8</ele><time>2013-11-22T06:18:03.0000000+00:00</time></trkpt><trkpt lat="30.61637497" lon="34.80144119"><ele>834.8</ele><time>2013-11-22T06:18:08.0000000+00:00</time></trkpt><trkpt lat="30.61634827" lon="34.80161667"><ele>835.4</ele><time>2013-11-22T06:18:13.0000000+00:00</time></trkpt><trkpt lat="30.61632347" lon="34.80181122"><ele>836.2</ele><time>2013-11-22T06:18:18.0000000+00:00</time></trkpt><trkpt lat="30.61630631" lon="34.80202103"><ele>836.9</ele><time>2013-11-22T06:18:23.0000000+00:00</time></trkpt><trkpt lat="30.61628151" lon="34.80223465"><ele>837.4</ele><time>2013-11-22T06:18:28.0000000+00:00</time></trkpt><trkpt lat="30.61626816" lon="34.80244827"><ele>837.5</ele><time>2013-11-22T06:18:33.0000000+00:00</time></trkpt><trkpt lat="30.61625099" lon="34.80268478"><ele>836.8</ele><time>2013-11-22T06:18:38.0000000+00:00</time></trkpt><trkpt lat="30.61623001" lon="34.80291367"><ele>836.6</ele><time>2013-11-22T06:18:43.0000000+00:00</time></trkpt><trkpt lat="30.61622429" lon="34.80312729"><ele>836.2</ele><time>2013-11-22T06:18:48.0000000+00:00</time></trkpt><trkpt lat="30.61622238" lon="34.80332184"><ele>836.0</ele><time>2013-11-22T06:18:53.0000000+00:00</time></trkpt><trkpt lat="30.61611939" lon="34.80344009"><ele>835.8</ele><time>2013-11-22T06:18:58.0000000+00:00</time></trkpt><trkpt lat="30.61597252" lon="34.80343628"><ele>835.6</ele><time>2013-11-22T06:19:03.0000000+00:00</time></trkpt><trkpt lat="30.6158371" lon="34.80342865"><ele>835.3</ele><time>2013-11-22T06:19:08.0000000+00:00</time></trkpt><trkpt lat="30.61570358" lon="34.80342865"><ele>835.0</ele><time>2013-11-22T06:19:13.0000000+00:00</time></trkpt><trkpt lat="30.61556053" lon="34.80343247"><ele>834.6</ele><time>2013-11-22T06:19:18.0000000+00:00</time></trkpt><trkpt lat="30.61541939" lon="34.80341339"><ele>834.2</ele><time>2013-11-22T06:19:23.0000000+00:00</time></trkpt><trkpt lat="30.61526871" lon="34.80341721"><ele>833.6</ele><time>2013-11-22T06:19:28.0000000+00:00</time></trkpt><trkpt lat="30.6151104" lon="34.80342102"><ele>833.3</ele><time>2013-11-22T06:19:33.0000000+00:00</time></trkpt><trkpt lat="30.61493874" lon="34.80342484"><ele>832.6</ele><time>2013-11-22T06:19:38.0000000+00:00</time></trkpt><trkpt lat="30.61473656" lon="34.80343628"><ele>832.0</ele><time>2013-11-22T06:19:43.0000000+00:00</time></trkpt><trkpt lat="30.61452293" lon="34.80345154"><ele>831.3</ele><time>2013-11-22T06:19:48.0000000+00:00</time></trkpt><trkpt lat="30.61430931" lon="34.80345917"><ele>831.2</ele><time>2013-11-22T06:19:53.0000000+00:00</time></trkpt><trkpt lat="30.61408997" lon="34.80350876"><ele>830.7</ele><time>2013-11-22T06:19:58.0000000+00:00</time></trkpt><trkpt lat="30.61387253" lon="34.80356598"><ele>830.2</ele><time>2013-11-22T06:20:03.0000000+00:00</time></trkpt><trkpt lat="30.61367226" lon="34.8036232"><ele>830.3</ele><time>2013-11-22T06:20:08.0000000+00:00</time></trkpt><trkpt lat="30.61351585" lon="34.80368424"><ele>830.6</ele><time>2013-11-22T06:20:13.0000000+00:00</time></trkpt><trkpt lat="30.61339569" lon="34.80374146"><ele>831.6</ele><time>2013-11-22T06:20:18.0000000+00:00</time></trkpt><trkpt lat="30.61327553" lon="34.80378342"><ele>832.4</ele><time>2013-11-22T06:20:23.0000000+00:00</time></trkpt><trkpt lat="30.61315727" lon="34.80376434"><ele>832.1</ele><time>2013-11-22T06:20:28.0000000+00:00</time></trkpt><trkpt lat="30.61303711" lon="34.80368424"><ele>831.5</ele><time>2013-11-22T06:20:33.0000000+00:00</time></trkpt><trkpt lat="30.6129303" lon="34.80364227"><ele>831.7</ele><time>2013-11-22T06:20:38.0000000+00:00</time></trkpt><trkpt lat="30.61288643" lon="34.80361939"><ele>831.8</ele><time>2013-11-22T06:20:43.0000000+00:00</time></trkpt><trkpt lat="30.61282349" lon="34.8036232"><ele>832.2</ele><time>2013-11-22T06:20:48.0000000+00:00</time></trkpt><trkpt lat="30.61273193" lon="34.80369949"><ele>832.9</ele><time>2013-11-22T06:20:53.0000000+00:00</time></trkpt><trkpt lat="30.61262894" lon="34.80382156"><ele>833.7</ele><time>2013-11-22T06:20:58.0000000+00:00</time></trkpt><trkpt lat="30.61259651" lon="34.8039856"><ele>834.0</ele><time>2013-11-22T06:21:03.0000000+00:00</time></trkpt><trkpt lat="30.61261559" lon="34.80414581"><ele>833.4</ele><time>2013-11-22T06:21:08.0000000+00:00</time></trkpt><trkpt lat="30.61257362" lon="34.80423355"><ele>833.7</ele><time>2013-11-22T06:21:13.0000000+00:00</time></trkpt><trkpt lat="30.61252594" lon="34.80425263"><ele>834.1</ele><time>2013-11-22T06:21:18.0000000+00:00</time></trkpt><trkpt lat="30.61245537" lon="34.80428696"><ele>834.3</ele><time>2013-11-22T06:21:23.0000000+00:00</time></trkpt><trkpt lat="30.61237145" lon="34.80435562"><ele>835.1</ele><time>2013-11-22T06:21:28.0000000+00:00</time></trkpt><trkpt lat="30.61230469" lon="34.80440521"><ele>835.5</ele><time>2013-11-22T06:21:33.0000000+00:00</time></trkpt><trkpt lat="30.61226654" lon="34.80444717"><ele>836.7</ele><time>2013-11-22T06:21:38.0000000+00:00</time></trkpt><trkpt lat="30.61229897" lon="34.80454636"><ele>836.3</ele><time>2013-11-22T06:21:43.0000000+00:00</time></trkpt><trkpt lat="30.61239624" lon="34.80464554"><ele>835.7</ele><time>2013-11-22T06:21:48.0000000+00:00</time></trkpt><trkpt lat="30.61242676" lon="34.80469513"><ele>835.5</ele><time>2013-11-22T06:21:53.0000000+00:00</time></trkpt><trkpt lat="30.61242676" lon="34.80469894"><ele>835.2</ele><time>2013-11-22T06:21:58.0000000+00:00</time></trkpt><trkpt lat="30.61241722" lon="34.80472183"><ele>834.6</ele><time>2013-11-22T06:22:03.0000000+00:00</time></trkpt><trkpt lat="30.61241913" lon="34.80472565"><ele>834.3</ele><time>2013-11-22T06:22:08.0000000+00:00</time></trkpt><trkpt lat="30.61242294" lon="34.80472946"><ele>834.1</ele><time>2013-11-22T06:22:13.0000000+00:00</time></trkpt><trkpt lat="30.61242867" lon="34.80473709"><ele>834.1</ele><time>2013-11-22T06:22:18.0000000+00:00</time></trkpt><trkpt lat="30.61242294" lon="34.80473328"><ele>834.3</ele><time>2013-11-22T06:22:23.0000000+00:00</time></trkpt><trkpt lat="30.61242485" lon="34.80474472"><ele>834.3</ele><time>2013-11-22T06:22:28.0000000+00:00</time></trkpt><trkpt lat="30.61242867" lon="34.80474854"><ele>834.2</ele><time>2013-11-22T06:22:33.0000000+00:00</time></trkpt><trkpt lat="30.61243057" lon="34.80475235"><ele>834.1</ele><time>2013-11-22T06:22:38.0000000+00:00</time></trkpt><trkpt lat="30.61243439" lon="34.80475617"><ele>834.0</ele><time>2013-11-22T06:22:43.0000000+00:00</time></trkpt><trkpt lat="30.61243248" lon="34.80475235"><ele>834.0</ele><time>2013-11-22T06:22:48.0000000+00:00</time></trkpt><trkpt lat="30.61243248" lon="34.80475235"><ele>833.9</ele><time>2013-11-22T06:22:53.0000000+00:00</time></trkpt><trkpt lat="30.61243248" lon="34.80475235"><ele>833.9</ele><time>2013-11-22T06:22:58.0000000+00:00</time></trkpt><trkpt lat="30.61243248" lon="34.80475235"><ele>833.9</ele><time>2013-11-22T06:23:03.0000000+00:00</time></trkpt><trkpt lat="30.61243248" lon="34.80475235"><ele>833.9</ele><time>2013-11-22T06:23:08.0000000+00:00</time></trkpt><trkpt lat="30.61243248" lon="34.80474854"><ele>833.9</ele><time>2013-11-22T06:23:13.0000000+00:00</time></trkpt><trkpt lat="30.61243248" lon="34.80474854"><ele>833.9</ele><time>2013-11-22T06:23:18.0000000+00:00</time></trkpt><trkpt lat="30.61243248" lon="34.80474854"><ele>833.9</ele><time>2013-11-22T06:23:23.0000000+00:00</time></trkpt><trkpt lat="30.61243248" lon="34.80474854"><ele>833.9</ele><time>2013-11-22T06:23:28.0000000+00:00</time></trkpt><trkpt lat="30.61243248" lon="34.80474854"><ele>833.9</ele><time>2013-11-22T06:23:33.0000000+00:00</time></trkpt><trkpt lat="30.61243248" lon="34.80474854"><ele>833.9</ele><time>2013-11-22T06:23:38.0000000+00:00</time></trkpt><trkpt lat="30.61243057" lon="34.80474854"><ele>833.9</ele><time>2013-11-22T06:23:43.0000000+00:00</time></trkpt><trkpt lat="30.61243057" lon="34.80474854"><ele>833.9</ele><time>2013-11-22T06:23:48.0000000+00:00</time></trkpt><trkpt lat="30.61243057" lon="34.80474854"><ele>833.9</ele><time>2013-11-22T06:23:53.0000000+00:00</time></trkpt><trkpt lat="30.61243057" lon="34.80474854"><ele>833.9</ele><time>2013-11-22T06:23:58.0000000+00:00</time></trkpt><trkpt lat="30.61243057" lon="34.80474854"><ele>833.9</ele><time>2013-11-22T06:24:03.0000000+00:00</time></trkpt><trkpt lat="30.61243057" lon="34.80474472"><ele>833.9</ele><time>2013-11-22T06:24:08.0000000+00:00</time></trkpt><trkpt lat="30.61243057" lon="34.80474854"><ele>833.9</ele><time>2013-11-22T06:24:13.0000000+00:00</time></trkpt><trkpt lat="30.61243057" lon="34.80474854"><ele>833.9</ele><time>2013-11-22T06:24:18.0000000+00:00</time></trkpt><trkpt lat="30.61243057" lon="34.80474854"><ele>833.9</ele><time>2013-11-22T06:24:23.0000000+00:00</time></trkpt><trkpt lat="30.61243057" lon="34.80474472"><ele>833.9</ele><time>2013-11-22T06:24:28.0000000+00:00</time></trkpt><trkpt lat="30.61243057" lon="34.80474472"><ele>833.8</ele><time>2013-11-22T06:24:33.0000000+00:00</time></trkpt><trkpt lat="30.61243057" lon="34.80474472"><ele>833.8</ele><time>2013-11-22T06:24:38.0000000+00:00</time></trkpt><trkpt lat="30.61243057" lon="34.80474472"><ele>833.9</ele><time>2013-11-22T06:24:43.0000000+00:00</time></trkpt><trkpt lat="30.61243057" lon="34.80474472"><ele>833.9</ele><time>2013-11-22T06:24:48.0000000+00:00</time></trkpt><trkpt lat="30.61243057" lon="34.80474472"><ele>833.9</ele><time>2013-11-22T06:24:53.0000000+00:00</time></trkpt><trkpt lat="30.61243057" lon="34.80474472"><ele>833.9</ele><time>2013-11-22T06:24:58.0000000+00:00</time></trkpt><trkpt lat="30.61243057" lon="34.80474472"><ele>833.9</ele><time>2013-11-22T06:25:03.0000000+00:00</time></trkpt><trkpt lat="30.61243057" lon="34.80474472"><ele>833.9</ele><time>2013-11-22T06:25:08.0000000+00:00</time></trkpt><trkpt lat="30.61243057" lon="34.80474472"><ele>833.9</ele><time>2013-11-22T06:25:13.0000000+00:00</time></trkpt><trkpt lat="30.61242294" lon="34.80472946"><ele>834.6</ele><time>2013-11-22T06:25:18.0000000+00:00</time></trkpt><trkpt lat="30.61242294" lon="34.80472565"><ele>835.1</ele><time>2013-11-22T06:25:23.0000000+00:00</time></trkpt><trkpt lat="30.61242294" lon="34.80472565"><ele>835.4</ele><time>2013-11-22T06:25:28.0000000+00:00</time></trkpt><trkpt lat="30.61241531" lon="34.80471802"><ele>836.1</ele><time>2013-11-22T06:25:33.0000000+00:00</time></trkpt><trkpt lat="30.61240959" lon="34.80471802"><ele>836.4</ele><time>2013-11-22T06:25:38.0000000+00:00</time></trkpt><trkpt lat="30.61239052" lon="34.80470276"><ele>837.8</ele><time>2013-11-22T06:25:43.0000000+00:00</time></trkpt><trkpt lat="30.61235619" lon="34.80466461"><ele>840.1</ele><time>2013-11-22T06:25:48.0000000+00:00</time></trkpt><trkpt lat="30.61232758" lon="34.80464172"><ele>841.9</ele><time>2013-11-22T06:25:53.0000000+00:00</time></trkpt><trkpt lat="30.61229706" lon="34.80462265"><ele>843.9</ele><time>2013-11-22T06:25:58.0000000+00:00</time></trkpt><trkpt lat="30.61229706" lon="34.80462265"><ele>844.0</ele><time>2013-11-22T06:26:03.0000000+00:00</time></trkpt><trkpt lat="30.61229706" lon="34.80462265"><ele>844.0</ele><time>2013-11-22T06:26:08.0000000+00:00</time></trkpt><trkpt lat="30.61229706" lon="34.80462265"><ele>844.0</ele><time>2013-11-22T06:26:13.0000000+00:00</time></trkpt><trkpt lat="30.61229706" lon="34.80462265"><ele>844.0</ele><time>2013-11-22T06:26:18.0000000+00:00</time></trkpt><trkpt lat="30.61229706" lon="34.80462265"><ele>844.0</ele><time>2013-11-22T06:26:23.0000000+00:00</time></trkpt><trkpt lat="30.61229706" lon="34.80462265"><ele>844.1</ele><time>2013-11-22T06:26:28.0000000+00:00</time></trkpt><trkpt lat="30.61229706" lon="34.80462265"><ele>844.1</ele><time>2013-11-22T06:26:33.0000000+00:00</time></trkpt><trkpt lat="30.61229706" lon="34.80462265"><ele>844.1</ele><time>2013-11-22T06:26:38.0000000+00:00</time></trkpt><trkpt lat="30.61229706" lon="34.80462265"><ele>844.1</ele><time>2013-11-22T06:26:43.0000000+00:00</time></trkpt><trkpt lat="30.61229706" lon="34.80462265"><ele>844.1</ele><time>2013-11-22T06:26:48.0000000+00:00</time></trkpt><trkpt lat="30.61229706" lon="34.80462265"><ele>844.1</ele><time>2013-11-22T06:26:53.0000000+00:00</time></trkpt><trkpt lat="30.61229515" lon="34.80462265"><ele>844.1</ele><time>2013-11-22T06:26:58.0000000+00:00</time></trkpt><trkpt lat="30.61229515" lon="34.80462265"><ele>844.1</ele><time>2013-11-22T06:27:03.0000000+00:00</time></trkpt><trkpt lat="30.61229515" lon="34.80461884"><ele>844.1</ele><time>2013-11-22T06:27:08.0000000+00:00</time></trkpt><trkpt lat="30.61229515" lon="34.80461884"><ele>844.1</ele><time>2013-11-22T06:27:13.0000000+00:00</time></trkpt><trkpt lat="30.61229515" lon="34.80461884"><ele>844.1</ele><time>2013-11-22T06:27:18.0000000+00:00</time></trkpt><trkpt lat="30.61229515" lon="34.80461884"><ele>844.1</ele><time>2013-11-22T06:27:23.0000000+00:00</time></trkpt><trkpt lat="30.61229515" lon="34.80461884"><ele>844.1</ele><time>2013-11-22T06:27:28.0000000+00:00</time></trkpt><trkpt lat="30.61229515" lon="34.80461884"><ele>844.2</ele><time>2013-11-22T06:27:33.0000000+00:00</time></trkpt><trkpt lat="30.61229515" lon="34.80461884"><ele>844.1</ele><time>2013-11-22T06:27:38.0000000+00:00</time></trkpt><trkpt lat="30.61229515" lon="34.80461884"><ele>844.1</ele><time>2013-11-22T06:27:43.0000000+00:00</time></trkpt><trkpt lat="30.61229515" lon="34.80461884"><ele>844.1</ele><time>2013-11-22T06:27:48.0000000+00:00</time></trkpt><trkpt lat="30.61229515" lon="34.80461884"><ele>844.1</ele><time>2013-11-22T06:27:53.0000000+00:00</time></trkpt><trkpt lat="30.61229515" lon="34.80461884"><ele>844.1</ele><time>2013-11-22T06:27:58.0000000+00:00</time></trkpt><trkpt lat="30.61229515" lon="34.80461884"><ele>844.1</ele><time>2013-11-22T06:28:03.0000000+00:00</time></trkpt><trkpt lat="30.61229706" lon="34.80461884"><ele>844.1</ele><time>2013-11-22T06:28:08.0000000+00:00</time></trkpt><trkpt lat="30.61229706" lon="34.80461884"><ele>844.1</ele><time>2013-11-22T06:28:13.0000000+00:00</time></trkpt><trkpt lat="30.61229706" lon="34.80461884"><ele>844.1</ele><time>2013-11-22T06:28:18.0000000+00:00</time></trkpt><trkpt lat="30.61229706" lon="34.80462265"><ele>844.1</ele><time>2013-11-22T06:28:23.0000000+00:00</time></trkpt><trkpt lat="30.61229706" lon="34.80462265"><ele>844.1</ele><time>2013-11-22T06:28:28.0000000+00:00</time></trkpt><trkpt lat="30.61229706" lon="34.80462265"><ele>844.1</ele><time>2013-11-22T06:28:33.0000000+00:00</time></trkpt><trkpt lat="30.61229706" lon="34.80462265"><ele>844.1</ele><time>2013-11-22T06:28:38.0000000+00:00</time></trkpt><trkpt lat="30.61229706" lon="34.80462265"><ele>844.0</ele><time>2013-11-22T06:28:43.0000000+00:00</time></trkpt><trkpt lat="30.61229706" lon="34.80462265"><ele>844.0</ele><time>2013-11-22T06:28:48.0000000+00:00</time></trkpt><trkpt lat="30.61229706" lon="34.80462265"><ele>844.0</ele><time>2013-11-22T06:28:53.0000000+00:00</time></trkpt><trkpt lat="30.61229706" lon="34.80462265"><ele>844.0</ele><time>2013-11-22T06:28:58.0000000+00:00</time></trkpt><trkpt lat="30.61229706" lon="34.80462265"><ele>844.0</ele><time>2013-11-22T06:29:03.0000000+00:00</time></trkpt><trkpt lat="30.61229706" lon="34.80462265"><ele>844.0</ele><time>2013-11-22T06:29:08.0000000+00:00</time></trkpt><trkpt lat="30.61229706" lon="34.80462265"><ele>844.0</ele><time>2013-11-22T06:29:13.0000000+00:00</time></trkpt><trkpt lat="30.61229706" lon="34.80462265"><ele>844.0</ele><time>2013-11-22T06:29:18.0000000+00:00</time></trkpt><trkpt lat="30.61229706" lon="34.80462265"><ele>844.0</ele><time>2013-11-22T06:29:23.0000000+00:00</time></trkpt><trkpt lat="30.61229706" lon="34.80462265"><ele>844.0</ele><time>2013-11-22T06:29:28.0000000+00:00</time></trkpt><trkpt lat="30.61229706" lon="34.80462265"><ele>844.0</ele><time>2013-11-22T06:29:33.0000000+00:00</time></trkpt><trkpt lat="30.61229706" lon="34.80462265"><ele>844.0</ele><time>2013-11-22T06:29:38.0000000+00:00</time></trkpt><trkpt lat="30.61229706" lon="34.80462265"><ele>844.0</ele><time>2013-11-22T06:29:43.0000000+00:00</time></trkpt><trkpt lat="30.61229515" lon="34.80462265"><ele>844.0</ele><time>2013-11-22T06:29:48.0000000+00:00</time></trkpt><trkpt lat="30.61229324" lon="34.80461884"><ele>844.0</ele><time>2013-11-22T06:29:53.0000000+00:00</time></trkpt><trkpt lat="30.61229324" lon="34.80461502"><ele>844.0</ele><time>2013-11-22T06:29:58.0000000+00:00</time></trkpt><trkpt lat="30.61229134" lon="34.80461121"><ele>844.0</ele><time>2013-11-22T06:30:03.0000000+00:00</time></trkpt><trkpt lat="30.61228943" lon="34.80461121"><ele>844.0</ele><time>2013-11-22T06:30:08.0000000+00:00</time></trkpt><trkpt lat="30.61228943" lon="34.80461121"><ele>844.0</ele><time>2013-11-22T06:30:13.0000000+00:00</time></trkpt><trkpt lat="30.61229134" lon="34.80461121"><ele>844.0</ele><time>2013-11-22T06:30:18.0000000+00:00</time></trkpt><trkpt lat="30.61229324" lon="34.80461121"><ele>844.0</ele><time>2013-11-22T06:30:23.0000000+00:00</time></trkpt><trkpt lat="30.61229324" lon="34.80461502"><ele>844.0</ele><time>2013-11-22T06:30:28.0000000+00:00</time></trkpt><trkpt lat="30.61229134" lon="34.80461502"><ele>843.9</ele><time>2013-11-22T06:30:33.0000000+00:00</time></trkpt><trkpt lat="30.61230087" lon="34.80461884"><ele>843.8</ele><time>2013-11-22T06:30:38.0000000+00:00</time></trkpt><trkpt lat="30.61233902" lon="34.80462647"><ele>843.6</ele><time>2013-11-22T06:30:43.0000000+00:00</time></trkpt><trkpt lat="30.61241531" lon="34.80464935"><ele>842.9</ele><time>2013-11-22T06:30:48.0000000+00:00</time></trkpt><trkpt lat="30.61249352" lon="34.80463791"><ele>842.4</ele><time>2013-11-22T06:30:53.0000000+00:00</time></trkpt><trkpt lat="30.61257935" lon="34.80459213"><ele>842.3</ele><time>2013-11-22T06:30:58.0000000+00:00</time></trkpt><trkpt lat="30.61257935" lon="34.8045044"><ele>840.7</ele><time>2013-11-22T06:31:03.0000000+00:00</time></trkpt><trkpt lat="30.61248779" lon="34.80446625"><ele>840.1</ele><time>2013-11-22T06:31:08.0000000+00:00</time></trkpt><trkpt lat="30.61236954" lon="34.80447769"><ele>841.1</ele><time>2013-11-22T06:31:13.0000000+00:00</time></trkpt><trkpt lat="30.61226845" lon="34.80444336"><ele>838.8</ele><time>2013-11-22T06:31:18.0000000+00:00</time></trkpt><trkpt lat="30.61231232" lon="34.80433655"><ele>838.2</ele><time>2013-11-22T06:31:23.0000000+00:00</time></trkpt><trkpt lat="30.61250877" lon="34.80425644"><ele>838.1</ele><time>2013-11-22T06:31:28.0000000+00:00</time></trkpt><trkpt lat="30.61276436" lon="34.80433273"><ele>835.5</ele><time>2013-11-22T06:31:33.0000000+00:00</time></trkpt><trkpt lat="30.61291885" lon="34.80441284"><ele>834.5</ele><time>2013-11-22T06:31:38.0000000+00:00</time></trkpt><trkpt lat="30.61291504" lon="34.80441284"><ele>833.7</ele><time>2013-11-22T06:31:43.0000000+00:00</time></trkpt><trkpt lat="30.6129036" lon="34.8044014"><ele>832.8</ele><time>2013-11-22T06:31:48.0000000+00:00</time></trkpt><trkpt lat="30.61290169" lon="34.80438232"><ele>831.2</ele><time>2013-11-22T06:31:53.0000000+00:00</time></trkpt><trkpt lat="30.61289597" lon="34.80437851"><ele>831.4</ele><time>2013-11-22T06:31:58.0000000+00:00</time></trkpt><trkpt lat="30.61290169" lon="34.80438232"><ele>830.4</ele><time>2013-11-22T06:32:03.0000000+00:00</time></trkpt><trkpt lat="30.6129036" lon="34.80437851"><ele>829.8</ele><time>2013-11-22T06:32:08.0000000+00:00</time></trkpt><trkpt lat="30.6129055" lon="34.80438232"><ele>829.3</ele><time>2013-11-22T06:32:13.0000000+00:00</time></trkpt><trkpt lat="30.6129055" lon="34.80438232"><ele>829.3</ele><time>2013-11-22T06:32:18.0000000+00:00</time></trkpt><trkpt lat="30.6129055" lon="34.80438232"><ele>829.3</ele><time>2013-11-22T06:32:23.0000000+00:00</time></trkpt><trkpt lat="30.6129055" lon="34.80438232"><ele>829.3</ele><time>2013-11-22T06:32:28.0000000+00:00</time></trkpt><trkpt lat="30.6129055" lon="34.80438232"><ele>829.3</ele><time>2013-11-22T06:32:33.0000000+00:00</time></trkpt><trkpt lat="30.6129036" lon="34.80438232"><ele>829.3</ele><time>2013-11-22T06:32:38.0000000+00:00</time></trkpt><trkpt lat="30.61291313" lon="34.80438232"><ele>829.5</ele><time>2013-11-22T06:32:43.0000000+00:00</time></trkpt><trkpt lat="30.61298752" lon="34.80439377"><ele>830.8</ele><time>2013-11-22T06:32:48.0000000+00:00</time></trkpt><trkpt lat="30.61296845" lon="34.80438995"><ele>832.0</ele><time>2013-11-22T06:32:53.0000000+00:00</time></trkpt><trkpt lat="30.61298752" lon="34.8044014"><ele>833.0</ele><time>2013-11-22T06:32:58.0000000+00:00</time></trkpt><trkpt lat="30.61312676" lon="34.80448532"><ele>832.8</ele><time>2013-11-22T06:33:03.0000000+00:00</time></trkpt><trkpt lat="30.61336899" lon="34.80461884"><ele>831.2</ele><time>2013-11-22T06:33:08.0000000+00:00</time></trkpt><trkpt lat="30.61357117" lon="34.8047905"><ele>829.8</ele><time>2013-11-22T06:33:13.0000000+00:00</time></trkpt><trkpt lat="30.61360359" lon="34.8048172"><ele>828.7</ele><time>2013-11-22T06:33:18.0000000+00:00</time></trkpt><trkpt lat="30.6136055" lon="34.80482101"><ele>828.6</ele><time>2013-11-22T06:33:23.0000000+00:00</time></trkpt><trkpt lat="30.61360741" lon="34.80482101"><ele>828.5</ele><time>2013-11-22T06:33:28.0000000+00:00</time></trkpt><trkpt lat="30.61360741" lon="34.80482101"><ele>828.4</ele><time>2013-11-22T06:33:33.0000000+00:00</time></trkpt><trkpt lat="30.61364365" lon="34.80485153"><ele>827.8</ele><time>2013-11-22T06:33:38.0000000+00:00</time></trkpt><trkpt lat="30.61375809" lon="34.80496979"><ele>827.6</ele><time>2013-11-22T06:33:43.0000000+00:00</time></trkpt><trkpt lat="30.61382866" lon="34.80504227"><ele>826.9</ele><time>2013-11-22T06:33:48.0000000+00:00</time></trkpt><trkpt lat="30.6138401" lon="34.80504227"><ele>826.6</ele><time>2013-11-22T06:33:53.0000000+00:00</time></trkpt><trkpt lat="30.6138401" lon="34.80504227"><ele>826.6</ele><time>2013-11-22T06:33:58.0000000+00:00</time></trkpt><trkpt lat="30.61384392" lon="34.80504608"><ele>826.5</ele><time>2013-11-22T06:34:03.0000000+00:00</time></trkpt><trkpt lat="30.61384392" lon="34.80504608"><ele>826.4</ele><time>2013-11-22T06:34:08.0000000+00:00</time></trkpt><trkpt lat="30.61387444" lon="34.80508804"><ele>826.2</ele><time>2013-11-22T06:34:13.0000000+00:00</time></trkpt><trkpt lat="30.61398125" lon="34.80522537"><ele>825.8</ele><time>2013-11-22T06:34:18.0000000+00:00</time></trkpt><trkpt lat="30.61413765" lon="34.80537415"><ele>825.9</ele><time>2013-11-22T06:34:23.0000000+00:00</time></trkpt><trkpt lat="30.61426163" lon="34.80546188"><ele>825.6</ele><time>2013-11-22T06:34:28.0000000+00:00</time></trkpt><trkpt lat="30.61437035" lon="34.80549622"><ele>825.9</ele><time>2013-11-22T06:34:33.0000000+00:00</time></trkpt><trkpt lat="30.61444473" lon="34.80550385"><ele>827.6</ele><time>2013-11-22T06:34:38.0000000+00:00</time></trkpt><trkpt lat="30.61452675" lon="34.80558014"><ele>830.1</ele><time>2013-11-22T06:34:43.0000000+00:00</time></trkpt><trkpt lat="30.61458969" lon="34.80561066"><ele>829.2</ele><time>2013-11-22T06:34:48.0000000+00:00</time></trkpt><trkpt lat="30.61462212" lon="34.80563355"><ele>828.0</ele><time>2013-11-22T06:34:53.0000000+00:00</time></trkpt><trkpt lat="30.61462593" lon="34.80564117"><ele>826.9</ele><time>2013-11-22T06:34:58.0000000+00:00</time></trkpt><trkpt lat="30.61462593" lon="34.80564117"><ele>826.9</ele><time>2013-11-22T06:35:03.0000000+00:00</time></trkpt><trkpt lat="30.61461449" lon="34.80565262"><ele>827.0</ele><time>2013-11-22T06:35:08.0000000+00:00</time></trkpt><trkpt lat="30.61457634" lon="34.80572891"><ele>827.1</ele><time>2013-11-22T06:35:13.0000000+00:00</time></trkpt><trkpt lat="30.61461258" lon="34.80588913"><ele>827.8</ele><time>2013-11-22T06:35:18.0000000+00:00</time></trkpt><trkpt lat="30.6146431" lon="34.80608749"><ele>828.7</ele><time>2013-11-22T06:35:23.0000000+00:00</time></trkpt><trkpt lat="30.61462212" lon="34.80612183"><ele>829.2</ele><time>2013-11-22T06:35:28.0000000+00:00</time></trkpt><trkpt lat="30.61461067" lon="34.8061676"><ele>829.0</ele><time>2013-11-22T06:35:33.0000000+00:00</time></trkpt><trkpt lat="30.6145916" lon="34.80633926"><ele>829.5</ele><time>2013-11-22T06:35:38.0000000+00:00</time></trkpt><trkpt lat="30.61452484" lon="34.80651093"><ele>830.3</ele><time>2013-11-22T06:35:43.0000000+00:00</time></trkpt><trkpt lat="30.61446953" lon="34.80668259"><ele>830.8</ele><time>2013-11-22T06:35:48.0000000+00:00</time></trkpt><trkpt lat="30.61445236" lon="34.8068428"><ele>829.9</ele><time>2013-11-22T06:35:53.0000000+00:00</time></trkpt><trkpt lat="30.61445046" lon="34.80693817"><ele>830.2</ele><time>2013-11-22T06:35:58.0000000+00:00</time></trkpt><trkpt lat="30.61444473" lon="34.8069458"><ele>828.9</ele><time>2013-11-22T06:36:03.0000000+00:00</time></trkpt><trkpt lat="30.61444664" lon="34.80694962"><ele>828.9</ele><time>2013-11-22T06:36:08.0000000+00:00</time></trkpt><trkpt lat="30.61444855" lon="34.80694962"><ele>828.8</ele><time>2013-11-22T06:36:13.0000000+00:00</time></trkpt><trkpt lat="30.61445236" lon="34.80695343"><ele>828.6</ele><time>2013-11-22T06:36:18.0000000+00:00</time></trkpt><trkpt lat="30.61445236" lon="34.80695343"><ele>828.5</ele><time>2013-11-22T06:36:23.0000000+00:00</time></trkpt><trkpt lat="30.61445236" lon="34.80695343"><ele>828.5</ele><time>2013-11-22T06:36:28.0000000+00:00</time></trkpt><trkpt lat="30.61445236" lon="34.80695343"><ele>828.5</ele><time>2013-11-22T06:36:33.0000000+00:00</time></trkpt><trkpt lat="30.61445236" lon="34.80695343"><ele>828.5</ele><time>2013-11-22T06:36:38.0000000+00:00</time></trkpt><trkpt lat="30.61445236" lon="34.80695343"><ele>828.5</ele><time>2013-11-22T06:36:43.0000000+00:00</time></trkpt><trkpt lat="30.61445236" lon="34.80695343"><ele>828.5</ele><time>2013-11-22T06:36:48.0000000+00:00</time></trkpt><trkpt lat="30.61445236" lon="34.80695343"><ele>828.5</ele><time>2013-11-22T06:36:53.0000000+00:00</time></trkpt><trkpt lat="30.61445236" lon="34.80695343"><ele>828.5</ele><time>2013-11-22T06:36:58.0000000+00:00</time></trkpt><trkpt lat="30.61445236" lon="34.80695343"><ele>828.4</ele><time>2013-11-22T06:37:03.0000000+00:00</time></trkpt><trkpt lat="30.61445236" lon="34.80695343"><ele>828.4</ele><time>2013-11-22T06:37:08.0000000+00:00</time></trkpt><trkpt lat="30.61445236" lon="34.80695343"><ele>828.4</ele><time>2013-11-22T06:37:13.0000000+00:00</time></trkpt><trkpt lat="30.61445236" lon="34.80695343"><ele>828.4</ele><time>2013-11-22T06:37:18.0000000+00:00</time></trkpt><trkpt lat="30.61445236" lon="34.80695343"><ele>828.4</ele><time>2013-11-22T06:37:23.0000000+00:00</time></trkpt><trkpt lat="30.61445236" lon="34.80695343"><ele>828.4</ele><time>2013-11-22T06:37:28.0000000+00:00</time></trkpt><trkpt lat="30.61445236" lon="34.80695343"><ele>828.4</ele><time>2013-11-22T06:37:33.0000000+00:00</time></trkpt><trkpt lat="30.61445236" lon="34.80695343"><ele>828.4</ele><time>2013-11-22T06:37:38.0000000+00:00</time></trkpt><trkpt lat="30.61445236" lon="34.80695343"><ele>828.4</ele><time>2013-11-22T06:37:43.0000000+00:00</time></trkpt><trkpt lat="30.61445236" lon="34.80695343"><ele>828.4</ele><time>2013-11-22T06:37:48.0000000+00:00</time></trkpt><trkpt lat="30.61445236" lon="34.80695343"><ele>828.4</ele><time>2013-11-22T06:37:53.0000000+00:00</time></trkpt><trkpt lat="30.61445236" lon="34.80695343"><ele>828.4</ele><time>2013-11-22T06:37:58.0000000+00:00</time></trkpt><trkpt lat="30.61445236" lon="34.80695343"><ele>828.4</ele><time>2013-11-22T06:38:03.0000000+00:00</time></trkpt><trkpt lat="30.61445236" lon="34.80695343"><ele>828.4</ele><time>2013-11-22T06:38:08.0000000+00:00</time></trkpt><trkpt lat="30.61445236" lon="34.80695343"><ele>828.4</ele><time>2013-11-22T06:38:13.0000000+00:00</time></trkpt><trkpt lat="30.61445236" lon="34.80695343"><ele>828.4</ele><time>2013-11-22T06:38:18.0000000+00:00</time></trkpt><trkpt lat="30.61445236" lon="34.80695343"><ele>828.4</ele><time>2013-11-22T06:38:23.0000000+00:00</time></trkpt><trkpt lat="30.61445236" lon="34.80695343"><ele>828.4</ele><time>2013-11-22T06:38:28.0000000+00:00</time></trkpt><trkpt lat="30.61445236" lon="34.80695343"><ele>828.4</ele><time>2013-11-22T06:38:33.0000000+00:00</time></trkpt><trkpt lat="30.61445236" lon="34.80695343"><ele>828.4</ele><time>2013-11-22T06:38:38.0000000+00:00</time></trkpt><trkpt lat="30.61445236" lon="34.80695343"><ele>828.4</ele><time>2013-11-22T06:38:43.0000000+00:00</time></trkpt><trkpt lat="30.61445236" lon="34.80695343"><ele>828.4</ele><time>2013-11-22T06:38:48.0000000+00:00</time></trkpt><trkpt lat="30.61445236" lon="34.80695343"><ele>828.4</ele><time>2013-11-22T06:38:53.0000000+00:00</time></trkpt><trkpt lat="30.61445236" lon="34.80695343"><ele>828.4</ele><time>2013-11-22T06:38:58.0000000+00:00</time></trkpt><trkpt lat="30.61445236" lon="34.80695343"><ele>828.3</ele><time>2013-11-22T06:39:03.0000000+00:00</time></trkpt><trkpt lat="30.61445236" lon="34.80695343"><ele>828.3</ele><time>2013-11-22T06:39:08.0000000+00:00</time></trkpt><trkpt lat="30.61445236" lon="34.80695343"><ele>828.3</ele><time>2013-11-22T06:39:13.0000000+00:00</time></trkpt><trkpt lat="30.61445236" lon="34.80695343"><ele>828.3</ele><time>2013-11-22T06:39:18.0000000+00:00</time></trkpt><trkpt lat="30.61445236" lon="34.80695343"><ele>828.3</ele><time>2013-11-22T06:39:23.0000000+00:00</time></trkpt><trkpt lat="30.61445236" lon="34.80695343"><ele>828.3</ele><time>2013-11-22T06:39:28.0000000+00:00</time></trkpt><trkpt lat="30.61445236" lon="34.80695343"><ele>828.3</ele><time>2013-11-22T06:39:33.0000000+00:00</time></trkpt><trkpt lat="30.61445236" lon="34.80695343"><ele>828.3</ele><time>2013-11-22T06:39:38.0000000+00:00</time></trkpt><trkpt lat="30.61445236" lon="34.80695343"><ele>828.3</ele><time>2013-11-22T06:39:43.0000000+00:00</time></trkpt><trkpt lat="30.61445427" lon="34.80695343"><ele>828.4</ele><time>2013-11-22T06:39:48.0000000+00:00</time></trkpt><trkpt lat="30.61445427" lon="34.80695343"><ele>828.3</ele><time>2013-11-22T06:39:53.0000000+00:00</time></trkpt><trkpt lat="30.61445427" lon="34.80695343"><ele>828.3</ele><time>2013-11-22T06:39:58.0000000+00:00</time></trkpt><trkpt lat="30.61445427" lon="34.80695343"><ele>828.3</ele><time>2013-11-22T06:40:03.0000000+00:00</time></trkpt><trkpt lat="30.61445236" lon="34.80695343"><ele>828.3</ele><time>2013-11-22T06:40:08.0000000+00:00</time></trkpt><trkpt lat="30.61445046" lon="34.80699539"><ele>828.2</ele><time>2013-11-22T06:40:13.0000000+00:00</time></trkpt><trkpt lat="30.61439323" lon="34.80707932"><ele>827.0</ele><time>2013-11-22T06:40:18.0000000+00:00</time></trkpt><trkpt lat="30.61429215" lon="34.8072052"><ele>825.8</ele><time>2013-11-22T06:40:23.0000000+00:00</time></trkpt><trkpt lat="30.61418915" lon="34.80735016"><ele>824.4</ele><time>2013-11-22T06:40:28.0000000+00:00</time></trkpt><trkpt lat="30.61409187" lon="34.80747604"><ele>823.7</ele><time>2013-11-22T06:40:33.0000000+00:00</time></trkpt><trkpt lat="30.61408997" lon="34.80758667"><ele>822.4</ele><time>2013-11-22T06:40:38.0000000+00:00</time></trkpt><trkpt lat="30.61412621" lon="34.807724"><ele>821.7</ele><time>2013-11-22T06:40:43.0000000+00:00</time></trkpt><trkpt lat="30.61416245" lon="34.80783463"><ele>822.0</ele><time>2013-11-22T06:40:48.0000000+00:00</time></trkpt><trkpt lat="30.61416817" lon="34.80793381"><ele>822.4</ele><time>2013-11-22T06:40:53.0000000+00:00</time></trkpt><trkpt lat="30.61423111" lon="34.80799103"><ele>822.9</ele><time>2013-11-22T06:40:58.0000000+00:00</time></trkpt><trkpt lat="30.61426544" lon="34.80807495"><ele>823.1</ele><time>2013-11-22T06:41:03.0000000+00:00</time></trkpt><trkpt lat="30.61428642" lon="34.80810928"><ele>821.8</ele><time>2013-11-22T06:41:08.0000000+00:00</time></trkpt><trkpt lat="30.61429596" lon="34.80810165"><ele>820.6</ele><time>2013-11-22T06:41:13.0000000+00:00</time></trkpt><trkpt lat="30.61429596" lon="34.80810547"><ele>820.7</ele><time>2013-11-22T06:41:18.0000000+00:00</time></trkpt><trkpt lat="30.61433983" lon="34.80815506"><ele>821.8</ele><time>2013-11-22T06:41:23.0000000+00:00</time></trkpt><trkpt lat="30.61442375" lon="34.80820084"><ele>822.3</ele><time>2013-11-22T06:41:28.0000000+00:00</time></trkpt><trkpt lat="30.61447907" lon="34.80826569"><ele>822.0</ele><time>2013-11-22T06:41:33.0000000+00:00</time></trkpt><trkpt lat="30.61451149" lon="34.80832291"><ele>822.3</ele><time>2013-11-22T06:41:38.0000000+00:00</time></trkpt><trkpt lat="30.6145134" lon="34.80831528"><ele>822.3</ele><time>2013-11-22T06:41:43.0000000+00:00</time></trkpt><trkpt lat="30.61451149" lon="34.80831528"><ele>822.3</ele><time>2013-11-22T06:41:48.0000000+00:00</time></trkpt><trkpt lat="30.61453247" lon="34.80831909"><ele>822.3</ele><time>2013-11-22T06:41:53.0000000+00:00</time></trkpt><trkpt lat="30.61465454" lon="34.80834961"><ele>822.3</ele><time>2013-11-22T06:41:58.0000000+00:00</time></trkpt><trkpt lat="30.6147747" lon="34.80828476"><ele>820.5</ele><time>2013-11-22T06:42:03.0000000+00:00</time></trkpt><trkpt lat="30.61487961" lon="34.80823898"><ele>818.8</ele><time>2013-11-22T06:42:08.0000000+00:00</time></trkpt><trkpt lat="30.61492348" lon="34.80824661"><ele>820.1</ele><time>2013-11-22T06:42:13.0000000+00:00</time></trkpt><trkpt lat="30.61492348" lon="34.80824661"><ele>820.8</ele><time>2013-11-22T06:42:18.0000000+00:00</time></trkpt><trkpt lat="30.61492348" lon="34.80824661"><ele>820.7</ele><time>2013-11-22T06:42:23.0000000+00:00</time></trkpt><trkpt lat="30.61494064" lon="34.80823517"><ele>820.7</ele><time>2013-11-22T06:42:28.0000000+00:00</time></trkpt><trkpt lat="30.61498451" lon="34.80823898"><ele>821.0</ele><time>2013-11-22T06:42:33.0000000+00:00</time></trkpt><trkpt lat="30.61509705" lon="34.80818939"><ele>820.7</ele><time>2013-11-22T06:42:38.0000000+00:00</time></trkpt><trkpt lat="30.61520577" lon="34.80810928"><ele>820.5</ele><time>2013-11-22T06:42:43.0000000+00:00</time></trkpt><trkpt lat="30.61525154" lon="34.80804062"><ele>820.8</ele><time>2013-11-22T06:42:48.0000000+00:00</time></trkpt><trkpt lat="30.61525536" lon="34.80793762"><ele>821.8</ele><time>2013-11-22T06:42:53.0000000+00:00</time></trkpt><trkpt lat="30.61524773" lon="34.80784226"><ele>822.3</ele><time>2013-11-22T06:42:58.0000000+00:00</time></trkpt><trkpt lat="30.61538124" lon="34.80779648"><ele>823.1</ele><time>2013-11-22T06:43:03.0000000+00:00</time></trkpt><trkpt lat="30.61553192" lon="34.80773163"><ele>824.3</ele><time>2013-11-22T06:43:08.0000000+00:00</time></trkpt><trkpt lat="30.61572266" lon="34.80768967"><ele>826.0</ele><time>2013-11-22T06:43:13.0000000+00:00</time></trkpt><trkpt lat="30.61592674" lon="34.80766296"><ele>826.0</ele><time>2013-11-22T06:43:18.0000000+00:00</time></trkpt><trkpt lat="30.61613274" lon="34.80754089"><ele>825.1</ele><time>2013-11-22T06:43:23.0000000+00:00</time></trkpt><trkpt lat="30.61623764" lon="34.80755997"><ele>823.3</ele><time>2013-11-22T06:43:28.0000000+00:00</time></trkpt><trkpt lat="30.61632538" lon="34.80763245"><ele>824.2</ele><time>2013-11-22T06:43:33.0000000+00:00</time></trkpt><trkpt lat="30.61640358" lon="34.80760956"><ele>826.4</ele><time>2013-11-22T06:43:38.0000000+00:00</time></trkpt><trkpt lat="30.61647797" lon="34.80755615"><ele>825.6</ele><time>2013-11-22T06:43:43.0000000+00:00</time></trkpt><trkpt lat="30.61654282" lon="34.80764771"><ele>824.7</ele><time>2013-11-22T06:43:48.0000000+00:00</time></trkpt><trkpt lat="30.61664009" lon="34.80776596"><ele>825.3</ele><time>2013-11-22T06:43:53.0000000+00:00</time></trkpt><trkpt lat="30.61676979" lon="34.80789948"><ele>825.5</ele><time>2013-11-22T06:43:58.0000000+00:00</time></trkpt><trkpt lat="30.61689377" lon="34.80804825"><ele>825.4</ele><time>2013-11-22T06:44:03.0000000+00:00</time></trkpt><trkpt lat="30.6170063" lon="34.80819321"><ele>823.2</ele><time>2013-11-22T06:44:08.0000000+00:00</time></trkpt><trkpt lat="30.61703301" lon="34.80836868"><ele>823.1</ele><time>2013-11-22T06:44:13.0000000+00:00</time></trkpt><trkpt lat="30.61701202" lon="34.80849457"><ele>822.4</ele><time>2013-11-22T06:44:18.0000000+00:00</time></trkpt><trkpt lat="30.61698914" lon="34.80866623"><ele>824.0</ele><time>2013-11-22T06:44:23.0000000+00:00</time></trkpt><trkpt lat="30.61697006" lon="34.80881882"><ele>824.1</ele><time>2013-11-22T06:44:28.0000000+00:00</time></trkpt><trkpt lat="30.61697769" lon="34.80898285"><ele>824.5</ele><time>2013-11-22T06:44:33.0000000+00:00</time></trkpt><trkpt lat="30.6170311" lon="34.80913544"><ele>825.2</ele><time>2013-11-22T06:44:38.0000000+00:00</time></trkpt><trkpt lat="30.61709213" lon="34.80929184"><ele>822.2</ele><time>2013-11-22T06:44:43.0000000+00:00</time></trkpt><trkpt lat="30.61716652" lon="34.80944061"><ele>821.6</ele><time>2013-11-22T06:44:48.0000000+00:00</time></trkpt><trkpt lat="30.61724663" lon="34.80955124"><ele>819.9</ele><time>2013-11-22T06:44:53.0000000+00:00</time></trkpt><trkpt lat="30.61733818" lon="34.80962753"><ele>820.3</ele><time>2013-11-22T06:44:58.0000000+00:00</time></trkpt><trkpt lat="30.61741447" lon="34.80970764"><ele>820.9</ele><time>2013-11-22T06:45:03.0000000+00:00</time></trkpt><trkpt lat="30.61751366" lon="34.80981445"><ele>820.6</ele><time>2013-11-22T06:45:08.0000000+00:00</time></trkpt><trkpt lat="30.61762619" lon="34.80992127"><ele>819.5</ele><time>2013-11-22T06:45:13.0000000+00:00</time></trkpt><trkpt lat="30.61777878" lon="34.80998612"><ele>819.1</ele><time>2013-11-22T06:45:18.0000000+00:00</time></trkpt><trkpt lat="30.6179142" lon="34.81003571"><ele>819.1</ele><time>2013-11-22T06:45:23.0000000+00:00</time></trkpt><trkpt lat="30.61799812" lon="34.81015396"><ele>819.1</ele><time>2013-11-22T06:45:28.0000000+00:00</time></trkpt><trkpt lat="30.61803436" lon="34.8102417"><ele>820.3</ele><time>2013-11-22T06:45:33.0000000+00:00</time></trkpt><trkpt lat="30.61809731" lon="34.81034088"><ele>819.2</ele><time>2013-11-22T06:45:38.0000000+00:00</time></trkpt><trkpt lat="30.61821938" lon="34.81044769"><ele>817.9</ele><time>2013-11-22T06:45:43.0000000+00:00</time></trkpt><trkpt lat="30.61830711" lon="34.81056976"><ele>815.5</ele><time>2013-11-22T06:45:48.0000000+00:00</time></trkpt><trkpt lat="30.61843872" lon="34.81066513"><ele>813.8</ele><time>2013-11-22T06:45:53.0000000+00:00</time></trkpt><trkpt lat="30.61857796" lon="34.81071091"><ele>813.6</ele><time>2013-11-22T06:45:58.0000000+00:00</time></trkpt><trkpt lat="30.61871719" lon="34.81082535"><ele>813.8</ele><time>2013-11-22T06:46:03.0000000+00:00</time></trkpt><trkpt lat="30.61883164" lon="34.81087494"><ele>814.4</ele><time>2013-11-22T06:46:08.0000000+00:00</time></trkpt><trkpt lat="30.61893654" lon="34.81096268"><ele>813.6</ele><time>2013-11-22T06:46:13.0000000+00:00</time></trkpt><trkpt lat="30.61901093" lon="34.81105423"><ele>812.1</ele><time>2013-11-22T06:46:18.0000000+00:00</time></trkpt><trkpt lat="30.6190815" lon="34.81121445"><ele>811.9</ele><time>2013-11-22T06:46:23.0000000+00:00</time></trkpt><trkpt lat="30.61916733" lon="34.81138229"><ele>812.4</ele><time>2013-11-22T06:46:28.0000000+00:00</time></trkpt><trkpt lat="30.61932945" lon="34.81151581"><ele>811.7</ele><time>2013-11-22T06:46:33.0000000+00:00</time></trkpt><trkpt lat="30.61952972" lon="34.81162643"><ele>812.2</ele><time>2013-11-22T06:46:38.0000000+00:00</time></trkpt><trkpt lat="30.61973763" lon="34.81171799"><ele>812.0</ele><time>2013-11-22T06:46:43.0000000+00:00</time></trkpt><trkpt lat="30.61989403" lon="34.81188965"><ele>813.0</ele><time>2013-11-22T06:46:48.0000000+00:00</time></trkpt><trkpt lat="30.61991882" lon="34.8121376"><ele>813.4</ele><time>2013-11-22T06:46:53.0000000+00:00</time></trkpt><trkpt lat="30.61982155" lon="34.81234741"><ele>813.7</ele><time>2013-11-22T06:46:58.0000000+00:00</time></trkpt><trkpt lat="30.6198597" lon="34.81257248"><ele>813.7</ele><time>2013-11-22T06:47:03.0000000+00:00</time></trkpt><trkpt lat="30.61979294" lon="34.81275177"><ele>813.7</ele><time>2013-11-22T06:47:08.0000000+00:00</time></trkpt><trkpt lat="30.61981392" lon="34.81292343"><ele>812.7</ele><time>2013-11-22T06:47:13.0000000+00:00</time></trkpt><trkpt lat="30.61987495" lon="34.81304169"><ele>811.4</ele><time>2013-11-22T06:47:18.0000000+00:00</time></trkpt><trkpt lat="30.61989975" lon="34.81317139"><ele>809.8</ele><time>2013-11-22T06:47:23.0000000+00:00</time></trkpt><trkpt lat="30.61989212" lon="34.81329727"><ele>811.4</ele><time>2013-11-22T06:47:28.0000000+00:00</time></trkpt><trkpt lat="30.61987686" lon="34.81341171"><ele>812.2</ele><time>2013-11-22T06:47:33.0000000+00:00</time></trkpt><trkpt lat="30.61986351" lon="34.81350708"><ele>813.3</ele><time>2013-11-22T06:47:38.0000000+00:00</time></trkpt><trkpt lat="30.61987305" lon="34.81356049"><ele>815.0</ele><time>2013-11-22T06:47:43.0000000+00:00</time></trkpt><trkpt lat="30.61989212" lon="34.81358337"><ele>815.1</ele><time>2013-11-22T06:47:48.0000000+00:00</time></trkpt><trkpt lat="30.61989403" lon="34.81358719"><ele>815.1</ele><time>2013-11-22T06:47:53.0000000+00:00</time></trkpt><trkpt lat="30.61989212" lon="34.81358719"><ele>815.1</ele><time>2013-11-22T06:47:58.0000000+00:00</time></trkpt><trkpt lat="30.61989594" lon="34.81358337"><ele>814.9</ele><time>2013-11-22T06:48:03.0000000+00:00</time></trkpt><trkpt lat="30.61990356" lon="34.813591"><ele>814.8</ele><time>2013-11-22T06:48:08.0000000+00:00</time></trkpt><trkpt lat="30.61996841" lon="34.81360626"><ele>814.5</ele><time>2013-11-22T06:48:13.0000000+00:00</time></trkpt><trkpt lat="30.62006187" lon="34.81364822"><ele>814.5</ele><time>2013-11-22T06:48:18.0000000+00:00</time></trkpt><trkpt lat="30.6201458" lon="34.81370544"><ele>816.9</ele><time>2013-11-22T06:48:23.0000000+00:00</time></trkpt><trkpt lat="30.62019539" lon="34.81378174"><ele>818.0</ele><time>2013-11-22T06:48:28.0000000+00:00</time></trkpt><trkpt lat="30.62025261" lon="34.81387711"><ele>818.6</ele><time>2013-11-22T06:48:33.0000000+00:00</time></trkpt><trkpt lat="30.62033081" lon="34.81394196"><ele>817.0</ele><time>2013-11-22T06:48:38.0000000+00:00</time></trkpt><trkpt lat="30.62039757" lon="34.81401062"><ele>817.6</ele><time>2013-11-22T06:48:43.0000000+00:00</time></trkpt><trkpt lat="30.6204586" lon="34.81407547"><ele>817.3</ele><time>2013-11-22T06:48:48.0000000+00:00</time></trkpt><trkpt lat="30.62052918" lon="34.81414414"><ele>817.5</ele><time>2013-11-22T06:48:53.0000000+00:00</time></trkpt><trkpt lat="30.62060547" lon="34.8142395"><ele>818.4</ele><time>2013-11-22T06:48:58.0000000+00:00</time></trkpt><trkpt lat="30.62068749" lon="34.81430054"><ele>817.8</ele><time>2013-11-22T06:49:03.0000000+00:00</time></trkpt><trkpt lat="30.62078667" lon="34.81436157"><ele>816.3</ele><time>2013-11-22T06:49:08.0000000+00:00</time></trkpt><trkpt lat="30.62085342" lon="34.81441116"><ele>816.8</ele><time>2013-11-22T06:49:13.0000000+00:00</time></trkpt><trkpt lat="30.62094307" lon="34.81444168"><ele>814.3</ele><time>2013-11-22T06:49:18.0000000+00:00</time></trkpt><trkpt lat="30.62106514" lon="34.8144455"><ele>813.9</ele><time>2013-11-22T06:49:23.0000000+00:00</time></trkpt><trkpt lat="30.62118912" lon="34.81447983"><ele>812.4</ele><time>2013-11-22T06:49:28.0000000+00:00</time></trkpt><trkpt lat="30.62128449" lon="34.81454849"><ele>811.5</ele><time>2013-11-22T06:49:33.0000000+00:00</time></trkpt><trkpt lat="30.62133598" lon="34.81462479"><ele>810.2</ele><time>2013-11-22T06:49:38.0000000+00:00</time></trkpt><trkpt lat="30.62141991" lon="34.8147049"><ele>808.4</ele><time>2013-11-22T06:49:43.0000000+00:00</time></trkpt><trkpt lat="30.62146187" lon="34.81482697"><ele>806.5</ele><time>2013-11-22T06:49:48.0000000+00:00</time></trkpt><trkpt lat="30.62156296" lon="34.81492233"><ele>805.7</ele><time>2013-11-22T06:49:53.0000000+00:00</time></trkpt><trkpt lat="30.62163734" lon="34.814991"><ele>805.3</ele><time>2013-11-22T06:49:58.0000000+00:00</time></trkpt><trkpt lat="30.62170792" lon="34.81505585"><ele>804.7</ele><time>2013-11-22T06:50:03.0000000+00:00</time></trkpt><trkpt lat="30.62178421" lon="34.81512451"><ele>805.6</ele><time>2013-11-22T06:50:08.0000000+00:00</time></trkpt><trkpt lat="30.62188911" lon="34.81520844"><ele>805.5</ele><time>2013-11-22T06:50:13.0000000+00:00</time></trkpt><trkpt lat="30.62197113" lon="34.81521606"><ele>804.1</ele><time>2013-11-22T06:50:18.0000000+00:00</time></trkpt><trkpt lat="30.62197304" lon="34.81520081"><ele>806.3</ele><time>2013-11-22T06:50:23.0000000+00:00</time></trkpt><trkpt lat="30.62197304" lon="34.81520081"><ele>806.2</ele><time>2013-11-22T06:50:28.0000000+00:00</time></trkpt><trkpt lat="30.62197495" lon="34.81520081"><ele>806.2</ele><time>2013-11-22T06:50:33.0000000+00:00</time></trkpt><trkpt lat="30.62197495" lon="34.81520081"><ele>806.2</ele><time>2013-11-22T06:50:38.0000000+00:00</time></trkpt><trkpt lat="30.62197495" lon="34.81520081"><ele>806.2</ele><time>2013-11-22T06:50:43.0000000+00:00</time></trkpt><trkpt lat="30.62200928" lon="34.81522369"><ele>806.0</ele><time>2013-11-22T06:50:48.0000000+00:00</time></trkpt><trkpt lat="30.62210655" lon="34.81526566"><ele>806.3</ele><time>2013-11-22T06:50:53.0000000+00:00</time></trkpt><trkpt lat="30.62220383" lon="34.81533051"><ele>806.9</ele><time>2013-11-22T06:50:58.0000000+00:00</time></trkpt><trkpt lat="30.62231064" lon="34.81539917"><ele>806.1</ele><time>2013-11-22T06:51:03.0000000+00:00</time></trkpt><trkpt lat="30.62240601" lon="34.81544876"><ele>805.7</ele><time>2013-11-22T06:51:08.0000000+00:00</time></trkpt><trkpt lat="30.62248802" lon="34.81548309"><ele>806.3</ele><time>2013-11-22T06:51:13.0000000+00:00</time></trkpt><trkpt lat="30.62255859" lon="34.81550598"><ele>804.9</ele><time>2013-11-22T06:51:18.0000000+00:00</time></trkpt><trkpt lat="30.62263298" lon="34.81552124"><ele>805.6</ele><time>2013-11-22T06:51:23.0000000+00:00</time></trkpt><trkpt lat="30.62271309" lon="34.81554031"><ele>805.0</ele><time>2013-11-22T06:51:28.0000000+00:00</time></trkpt><trkpt lat="30.62284088" lon="34.81559753"><ele>805.7</ele><time>2013-11-22T06:51:33.0000000+00:00</time></trkpt><trkpt lat="30.62300301" lon="34.81565476"><ele>806.3</ele><time>2013-11-22T06:51:38.0000000+00:00</time></trkpt><trkpt lat="30.62318039" lon="34.81571579"><ele>805.6</ele><time>2013-11-22T06:51:43.0000000+00:00</time></trkpt><trkpt lat="30.62329483" lon="34.81589127"><ele>805.4</ele><time>2013-11-22T06:51:48.0000000+00:00</time></trkpt><trkpt lat="30.62339211" lon="34.81605911"><ele>805.9</ele><time>2013-11-22T06:51:53.0000000+00:00</time></trkpt><trkpt lat="30.62347794" lon="34.81620407"><ele>805.1</ele><time>2013-11-22T06:51:58.0000000+00:00</time></trkpt><trkpt lat="30.62363052" lon="34.81627274"><ele>805.5</ele><time>2013-11-22T06:52:03.0000000+00:00</time></trkpt><trkpt lat="30.62377358" lon="34.81638336"><ele>801.0</ele><time>2013-11-22T06:52:08.0000000+00:00</time></trkpt><trkpt lat="30.62394714" lon="34.81645203"><ele>798.8</ele><time>2013-11-22T06:52:13.0000000+00:00</time></trkpt><trkpt lat="30.62410736" lon="34.81652069"><ele>798.2</ele><time>2013-11-22T06:52:18.0000000+00:00</time></trkpt><trkpt lat="30.62423706" lon="34.81663895"><ele>798.0</ele><time>2013-11-22T06:52:23.0000000+00:00</time></trkpt><trkpt lat="30.62437439" lon="34.81672287"><ele>799.4</ele><time>2013-11-22T06:52:28.0000000+00:00</time></trkpt><trkpt lat="30.62449074" lon="34.81680679"><ele>797.5</ele><time>2013-11-22T06:52:33.0000000+00:00</time></trkpt><trkpt lat="30.6246376" lon="34.8168602"><ele>799.4</ele><time>2013-11-22T06:52:38.0000000+00:00</time></trkpt><trkpt lat="30.62483406" lon="34.81690216"><ele>800.2</ele><time>2013-11-22T06:52:43.0000000+00:00</time></trkpt><trkpt lat="30.6249752" lon="34.81708908"><ele>800.0</ele><time>2013-11-22T06:52:48.0000000+00:00</time></trkpt><trkpt lat="30.62504959" lon="34.81727219"><ele>800.9</ele><time>2013-11-22T06:52:53.0000000+00:00</time></trkpt><trkpt lat="30.62517357" lon="34.81739426"><ele>799.7</ele><time>2013-11-22T06:52:58.0000000+00:00</time></trkpt><trkpt lat="30.62532806" lon="34.81752014"><ele>800.0</ele><time>2013-11-22T06:53:03.0000000+00:00</time></trkpt><trkpt lat="30.6254673" lon="34.81764603"><ele>798.6</ele><time>2013-11-22T06:53:08.0000000+00:00</time></trkpt><trkpt lat="30.62552643" lon="34.81787872"><ele>799.8</ele><time>2013-11-22T06:53:13.0000000+00:00</time></trkpt><trkpt lat="30.62559509" lon="34.8180275"><ele>800.4</ele><time>2013-11-22T06:53:18.0000000+00:00</time></trkpt><trkpt lat="30.62569046" lon="34.81814957"><ele>801.8</ele><time>2013-11-22T06:53:23.0000000+00:00</time></trkpt><trkpt lat="30.62581444" lon="34.81826401"><ele>803.8</ele><time>2013-11-22T06:53:28.0000000+00:00</time></trkpt><trkpt lat="30.62592888" lon="34.81834412"><ele>802.4</ele><time>2013-11-22T06:53:33.0000000+00:00</time></trkpt><trkpt lat="30.62605858" lon="34.81845474"><ele>801.7</ele><time>2013-11-22T06:53:38.0000000+00:00</time></trkpt><trkpt lat="30.62620544" lon="34.81853104"><ele>799.3</ele><time>2013-11-22T06:53:43.0000000+00:00</time></trkpt><trkpt lat="30.62633514" lon="34.81860352"><ele>799.0</ele><time>2013-11-22T06:53:48.0000000+00:00</time></trkpt><trkpt lat="30.62647629" lon="34.81871796"><ele>798.8</ele><time>2013-11-22T06:53:53.0000000+00:00</time></trkpt><trkpt lat="30.62659073" lon="34.81884384"><ele>799.3</ele><time>2013-11-22T06:53:58.0000000+00:00</time></trkpt><trkpt lat="30.626688" lon="34.81895828"><ele>801.0</ele><time>2013-11-22T06:54:03.0000000+00:00</time></trkpt><trkpt lat="30.62679863" lon="34.81909943"><ele>801.5</ele><time>2013-11-22T06:54:08.0000000+00:00</time></trkpt><trkpt lat="30.62690163" lon="34.81924439"><ele>797.9</ele><time>2013-11-22T06:54:13.0000000+00:00</time></trkpt><trkpt lat="30.62705612" lon="34.81930542"><ele>799.3</ele><time>2013-11-22T06:54:18.0000000+00:00</time></trkpt><trkpt lat="30.62722015" lon="34.81935501"><ele>797.5</ele><time>2013-11-22T06:54:23.0000000+00:00</time></trkpt><trkpt lat="30.62734222" lon="34.8195076"><ele>798.5</ele><time>2013-11-22T06:54:28.0000000+00:00</time></trkpt><trkpt lat="30.62748146" lon="34.819664"><ele>799.8</ele><time>2013-11-22T06:54:33.0000000+00:00</time></trkpt><trkpt lat="30.62759781" lon="34.81980133"><ele>798.5</ele><time>2013-11-22T06:54:38.0000000+00:00</time></trkpt><trkpt lat="30.62771225" lon="34.81983948"><ele>796.5</ele><time>2013-11-22T06:54:43.0000000+00:00</time></trkpt><trkpt lat="30.62785149" lon="34.81985855"><ele>793.9</ele><time>2013-11-22T06:54:48.0000000+00:00</time></trkpt><trkpt lat="30.62801743" lon="34.81986237"><ele>793.3</ele><time>2013-11-22T06:54:53.0000000+00:00</time></trkpt><trkpt lat="30.62816429" lon="34.81995392"><ele>794.6</ele><time>2013-11-22T06:54:58.0000000+00:00</time></trkpt><trkpt lat="30.6282711" lon="34.82012177"><ele>794.6</ele><time>2013-11-22T06:55:03.0000000+00:00</time></trkpt><trkpt lat="30.62839508" lon="34.82024002"><ele>796.8</ele><time>2013-11-22T06:55:08.0000000+00:00</time></trkpt><trkpt lat="30.62847138" lon="34.82026291"><ele>794.0</ele><time>2013-11-22T06:55:13.0000000+00:00</time></trkpt><trkpt lat="30.62856484" lon="34.82032394"><ele>794.4</ele><time>2013-11-22T06:55:18.0000000+00:00</time></trkpt><trkpt lat="30.6286068" lon="34.8204155"><ele>795.2</ele><time>2013-11-22T06:55:23.0000000+00:00</time></trkpt><trkpt lat="30.62869453" lon="34.82046127"><ele>796.8</ele><time>2013-11-22T06:55:28.0000000+00:00</time></trkpt><trkpt lat="30.62883949" lon="34.82051086"><ele>796.0</ele><time>2013-11-22T06:55:33.0000000+00:00</time></trkpt><trkpt lat="30.62896156" lon="34.82057953"><ele>795.9</ele><time>2013-11-22T06:55:38.0000000+00:00</time></trkpt><trkpt lat="30.62909508" lon="34.82064056"><ele>794.7</ele><time>2013-11-22T06:55:43.0000000+00:00</time></trkpt><trkpt lat="30.6291008" lon="34.82065201"><ele>792.6</ele><time>2013-11-22T06:55:48.0000000+00:00</time></trkpt><trkpt lat="30.6291008" lon="34.82065201"><ele>792.5</ele><time>2013-11-22T06:55:53.0000000+00:00</time></trkpt><trkpt lat="30.6291008" lon="34.82065201"><ele>792.4</ele><time>2013-11-22T06:55:58.0000000+00:00</time></trkpt><trkpt lat="30.6291008" lon="34.82065201"><ele>792.3</ele><time>2013-11-22T06:56:03.0000000+00:00</time></trkpt><trkpt lat="30.62918282" lon="34.8206749"><ele>791.8</ele><time>2013-11-22T06:56:08.0000000+00:00</time></trkpt><trkpt lat="30.6293087" lon="34.82064438"><ele>790.1</ele><time>2013-11-22T06:56:13.0000000+00:00</time></trkpt><trkpt lat="30.62935066" lon="34.82051086"><ele>788.5</ele><time>2013-11-22T06:56:18.0000000+00:00</time></trkpt><trkpt lat="30.62936783" lon="34.82032013"><ele>786.5</ele><time>2013-11-22T06:56:23.0000000+00:00</time></trkpt><trkpt lat="30.62936592" lon="34.82012558"><ele>783.3</ele><time>2013-11-22T06:56:28.0000000+00:00</time></trkpt><trkpt lat="30.62935257" lon="34.8199501"><ele>783.2</ele><time>2013-11-22T06:56:33.0000000+00:00</time></trkpt><trkpt lat="30.62936783" lon="34.81972885"><ele>782.2</ele><time>2013-11-22T06:56:38.0000000+00:00</time></trkpt><trkpt lat="30.62935829" lon="34.81956863"><ele>782.3</ele><time>2013-11-22T06:56:43.0000000+00:00</time></trkpt><trkpt lat="30.62930679" lon="34.81946945"><ele>783.4</ele><time>2013-11-22T06:56:48.0000000+00:00</time></trkpt><trkpt lat="30.62925911" lon="34.81936646"><ele>783.2</ele><time>2013-11-22T06:56:53.0000000+00:00</time></trkpt><trkpt lat="30.62921333" lon="34.81928253"><ele>783.5</ele><time>2013-11-22T06:56:58.0000000+00:00</time></trkpt><trkpt lat="30.62915993" lon="34.81919861"><ele>782.6</ele><time>2013-11-22T06:57:03.0000000+00:00</time></trkpt><trkpt lat="30.62908745" lon="34.81911469"><ele>783.3</ele><time>2013-11-22T06:57:08.0000000+00:00</time></trkpt><trkpt lat="30.62900925" lon="34.81904602"><ele>783.8</ele><time>2013-11-22T06:57:13.0000000+00:00</time></trkpt><trkpt lat="30.62891769" lon="34.81897736"><ele>784.7</ele><time>2013-11-22T06:57:18.0000000+00:00</time></trkpt><trkpt lat="30.6288414" lon="34.81888199"><ele>786.3</ele><time>2013-11-22T06:57:23.0000000+00:00</time></trkpt><trkpt lat="30.62881661" lon="34.81878281"><ele>788.3</ele><time>2013-11-22T06:57:28.0000000+00:00</time></trkpt><trkpt lat="30.62889099" lon="34.81873322"><ele>789.9</ele><time>2013-11-22T06:57:33.0000000+00:00</time></trkpt><trkpt lat="30.62897492" lon="34.81874085"><ele>790.1</ele><time>2013-11-22T06:57:38.0000000+00:00</time></trkpt><trkpt lat="30.62908363" lon="34.81876373"><ele>789.3</ele><time>2013-11-22T06:57:43.0000000+00:00</time></trkpt><trkpt lat="30.62918663" lon="34.81873703"><ele>792.1</ele><time>2013-11-22T06:57:48.0000000+00:00</time></trkpt><trkpt lat="30.62926292" lon="34.81867981"><ele>792.9</ele><time>2013-11-22T06:57:53.0000000+00:00</time></trkpt><trkpt lat="30.62932587" lon="34.81872177"><ele>793.0</ele><time>2013-11-22T06:57:58.0000000+00:00</time></trkpt><trkpt lat="30.62939835" lon="34.8187561"><ele>794.6</ele><time>2013-11-22T06:58:03.0000000+00:00</time></trkpt><trkpt lat="30.62948036" lon="34.81878281"><ele>793.8</ele><time>2013-11-22T06:58:08.0000000+00:00</time></trkpt><trkpt lat="30.62958527" lon="34.81876373"><ele>792.7</ele><time>2013-11-22T06:58:13.0000000+00:00</time></trkpt><trkpt lat="30.62966728" lon="34.81873322"><ele>792.6</ele><time>2013-11-22T06:58:18.0000000+00:00</time></trkpt><trkpt lat="30.62971497" lon="34.81879044"><ele>792.9</ele><time>2013-11-22T06:58:23.0000000+00:00</time></trkpt><trkpt lat="30.62973976" lon="34.81888199"><ele>793.6</ele><time>2013-11-22T06:58:28.0000000+00:00</time></trkpt><trkpt lat="30.62977791" lon="34.81897736"><ele>794.2</ele><time>2013-11-22T06:58:33.0000000+00:00</time></trkpt><trkpt lat="30.62983894" lon="34.81906128"><ele>797.1</ele><time>2013-11-22T06:58:38.0000000+00:00</time></trkpt><trkpt lat="30.62990761" lon="34.81913757"><ele>800.4</ele><time>2013-11-22T06:58:43.0000000+00:00</time></trkpt><trkpt lat="30.62996483" lon="34.81917191"><ele>801.9</ele><time>2013-11-22T06:58:48.0000000+00:00</time></trkpt><trkpt lat="30.63004684" lon="34.81921768"><ele>802.2</ele><time>2013-11-22T06:58:53.0000000+00:00</time></trkpt><trkpt lat="30.63009834" lon="34.81926346"><ele>802.7</ele><time>2013-11-22T06:58:58.0000000+00:00</time></trkpt><trkpt lat="30.63015556" lon="34.81932449"><ele>802.4</ele><time>2013-11-22T06:59:03.0000000+00:00</time></trkpt><trkpt lat="30.6301899" lon="34.81936646"><ele>800.9</ele><time>2013-11-22T06:59:08.0000000+00:00</time></trkpt><trkpt lat="30.63021088" lon="34.81947708"><ele>800.4</ele><time>2013-11-22T06:59:13.0000000+00:00</time></trkpt><trkpt lat="30.63021469" lon="34.8196106"><ele>799.9</ele><time>2013-11-22T06:59:18.0000000+00:00</time></trkpt><trkpt lat="30.63020134" lon="34.81973648"><ele>800.9</ele><time>2013-11-22T06:59:23.0000000+00:00</time></trkpt><trkpt lat="30.63024712" lon="34.81982803"><ele>798.8</ele><time>2013-11-22T06:59:28.0000000+00:00</time></trkpt><trkpt lat="30.630373" lon="34.81981659"><ele>796.8</ele><time>2013-11-22T06:59:33.0000000+00:00</time></trkpt><trkpt lat="30.63051415" lon="34.81984711"><ele>794.1</ele><time>2013-11-22T06:59:38.0000000+00:00</time></trkpt><trkpt lat="30.63062096" lon="34.81985474"><ele>792.0</ele><time>2013-11-22T06:59:43.0000000+00:00</time></trkpt><trkpt lat="30.63075066" lon="34.81987"><ele>790.7</ele><time>2013-11-22T06:59:48.0000000+00:00</time></trkpt><trkpt lat="30.63087463" lon="34.81993103"><ele>794.0</ele><time>2013-11-22T06:59:53.0000000+00:00</time></trkpt><trkpt lat="30.6309948" lon="34.82001114"><ele>794.2</ele><time>2013-11-22T06:59:58.0000000+00:00</time></trkpt><trkpt lat="30.63110542" lon="34.8200798"><ele>795.7</ele><time>2013-11-22T07:00:03.0000000+00:00</time></trkpt><trkpt lat="30.63120651" lon="34.82012558"><ele>796.2</ele><time>2013-11-22T07:00:08.0000000+00:00</time></trkpt><trkpt lat="30.63130951" lon="34.82014847"><ele>796.0</ele><time>2013-11-22T07:00:13.0000000+00:00</time></trkpt><trkpt lat="30.63138199" lon="34.82017517"><ele>796.5</ele><time>2013-11-22T07:00:18.0000000+00:00</time></trkpt><trkpt lat="30.63148499" lon="34.82021332"><ele>796.2</ele><time>2013-11-22T07:00:23.0000000+00:00</time></trkpt><trkpt lat="30.63157654" lon="34.82028198"><ele>796.7</ele><time>2013-11-22T07:00:28.0000000+00:00</time></trkpt><trkpt lat="30.63165855" lon="34.82035065"><ele>796.8</ele><time>2013-11-22T07:00:33.0000000+00:00</time></trkpt><trkpt lat="30.63174629" lon="34.82042694"><ele>796.3</ele><time>2013-11-22T07:00:38.0000000+00:00</time></trkpt><trkpt lat="30.63181686" lon="34.82049942"><ele>797.5</ele><time>2013-11-22T07:00:43.0000000+00:00</time></trkpt><trkpt lat="30.63189316" lon="34.82056427"><ele>797.7</ele><time>2013-11-22T07:00:48.0000000+00:00</time></trkpt><trkpt lat="30.63197327" lon="34.82061768"><ele>796.5</ele><time>2013-11-22T07:00:53.0000000+00:00</time></trkpt><trkpt lat="30.63207436" lon="34.82068634"><ele>795.4</ele><time>2013-11-22T07:00:58.0000000+00:00</time></trkpt><trkpt lat="30.63221932" lon="34.82075501"><ele>794.9</ele><time>2013-11-22T07:01:03.0000000+00:00</time></trkpt><trkpt lat="30.63242722" lon="34.82075501"><ele>793.9</ele><time>2013-11-22T07:01:08.0000000+00:00</time></trkpt><trkpt lat="30.63259316" lon="34.82078552"><ele>793.4</ele><time>2013-11-22T07:01:13.0000000+00:00</time></trkpt><trkpt lat="30.63273048" lon="34.82082748"><ele>791.3</ele><time>2013-11-22T07:01:18.0000000+00:00</time></trkpt><trkpt lat="30.63285065" lon="34.82085419"><ele>792.6</ele><time>2013-11-22T07:01:23.0000000+00:00</time></trkpt><trkpt lat="30.63296318" lon="34.82088089"><ele>791.6</ele><time>2013-11-22T07:01:28.0000000+00:00</time></trkpt><trkpt lat="30.6330986" lon="34.82090759"><ele>790.2</ele><time>2013-11-22T07:01:33.0000000+00:00</time></trkpt><trkpt lat="30.63322067" lon="34.8209343"><ele>789.2</ele><time>2013-11-22T07:01:38.0000000+00:00</time></trkpt><trkpt lat="30.63337326" lon="34.82097244"><ele>788.5</ele><time>2013-11-22T07:01:43.0000000+00:00</time></trkpt><trkpt lat="30.63352966" lon="34.82094955"><ele>789.4</ele><time>2013-11-22T07:01:48.0000000+00:00</time></trkpt><trkpt lat="30.63370514" lon="34.82089233"><ele>790.4</ele><time>2013-11-22T07:01:53.0000000+00:00</time></trkpt><trkpt lat="30.63387489" lon="34.82081604"><ele>791.5</ele><time>2013-11-22T07:01:58.0000000+00:00</time></trkpt><trkpt lat="30.63402939" lon="34.82075501"><ele>791.7</ele><time>2013-11-22T07:02:03.0000000+00:00</time></trkpt><trkpt lat="30.63418007" lon="34.82069397"><ele>792.8</ele><time>2013-11-22T07:02:08.0000000+00:00</time></trkpt><trkpt lat="30.63435745" lon="34.82064438"><ele>793.6</ele><time>2013-11-22T07:02:13.0000000+00:00</time></trkpt><trkpt lat="30.63450623" lon="34.8205986"><ele>792.0</ele><time>2013-11-22T07:02:18.0000000+00:00</time></trkpt><trkpt lat="30.63466835" lon="34.82058716"><ele>791.2</ele><time>2013-11-22T07:02:23.0000000+00:00</time></trkpt><trkpt lat="30.63484383" lon="34.82060623"><ele>790.9</ele><time>2013-11-22T07:02:28.0000000+00:00</time></trkpt><trkpt lat="30.63500404" lon="34.82066727"><ele>791.0</ele><time>2013-11-22T07:02:33.0000000+00:00</time></trkpt><trkpt lat="30.63516045" lon="34.82076263"><ele>791.6</ele><time>2013-11-22T07:02:38.0000000+00:00</time></trkpt><trkpt lat="30.63532829" lon="34.82087326"><ele>791.0</ele><time>2013-11-22T07:02:43.0000000+00:00</time></trkpt><trkpt lat="30.63550568" lon="34.82100678"><ele>792.8</ele><time>2013-11-22T07:02:48.0000000+00:00</time></trkpt><trkpt lat="30.63566399" lon="34.82120895"><ele>793.3</ele><time>2013-11-22T07:02:53.0000000+00:00</time></trkpt><trkpt lat="30.63583756" lon="34.82142639"><ele>792.9</ele><time>2013-11-22T07:02:58.0000000+00:00</time></trkpt><trkpt lat="30.63601875" lon="34.82159424"><ele>791.9</ele><time>2013-11-22T07:03:03.0000000+00:00</time></trkpt><trkpt lat="30.63618851" lon="34.82173538"><ele>792.7</ele><time>2013-11-22T07:03:08.0000000+00:00</time></trkpt><trkpt lat="30.63635635" lon="34.82183838"><ele>792.0</ele><time>2013-11-22T07:03:13.0000000+00:00</time></trkpt><trkpt lat="30.636549" lon="34.82193375"><ele>789.3</ele><time>2013-11-22T07:03:18.0000000+00:00</time></trkpt><trkpt lat="30.63674355" lon="34.82204056"><ele>789.4</ele><time>2013-11-22T07:03:23.0000000+00:00</time></trkpt><trkpt lat="30.63693047" lon="34.82211685"><ele>786.4</ele><time>2013-11-22T07:03:28.0000000+00:00</time></trkpt><trkpt lat="30.63714027" lon="34.82220841"><ele>787.4</ele><time>2013-11-22T07:03:33.0000000+00:00</time></trkpt><trkpt lat="30.63735771" lon="34.82226944"><ele>785.6</ele><time>2013-11-22T07:03:38.0000000+00:00</time></trkpt><trkpt lat="30.63757896" lon="34.82234192"><ele>784.9</ele><time>2013-11-22T07:03:43.0000000+00:00</time></trkpt><trkpt lat="30.6377945" lon="34.8224411"><ele>783.3</ele><time>2013-11-22T07:03:48.0000000+00:00</time></trkpt><trkpt lat="30.63797379" lon="34.82255173"><ele>784.1</ele><time>2013-11-22T07:03:53.0000000+00:00</time></trkpt><trkpt lat="30.63807869" lon="34.82267761"><ele>784.7</ele><time>2013-11-22T07:03:58.0000000+00:00</time></trkpt><trkpt lat="30.63817406" lon="34.8228302"><ele>784.9</ele><time>2013-11-22T07:04:03.0000000+00:00</time></trkpt><trkpt lat="30.63829041" lon="34.82300186"><ele>784.9</ele><time>2013-11-22T07:04:08.0000000+00:00</time></trkpt><trkpt lat="30.63838768" lon="34.82317352"><ele>786.0</ele><time>2013-11-22T07:04:13.0000000+00:00</time></trkpt><trkpt lat="30.63853455" lon="34.82328033"><ele>785.1</ele><time>2013-11-22T07:04:18.0000000+00:00</time></trkpt><trkpt lat="30.63877296" lon="34.82340241"><ele>781.7</ele><time>2013-11-22T07:04:23.0000000+00:00</time></trkpt><trkpt lat="30.63902092" lon="34.82363129"><ele>780.8</ele><time>2013-11-22T07:04:28.0000000+00:00</time></trkpt><trkpt lat="30.63923073" lon="34.82387543"><ele>780.0</ele><time>2013-11-22T07:04:33.0000000+00:00</time></trkpt><trkpt lat="30.6394558" lon="34.82413101"><ele>778.8</ele><time>2013-11-22T07:04:38.0000000+00:00</time></trkpt><trkpt lat="30.63968849" lon="34.82439423"><ele>775.1</ele><time>2013-11-22T07:04:43.0000000+00:00</time></trkpt><trkpt lat="30.63996697" lon="34.82460785"><ele>774.2</ele><time>2013-11-22T07:04:48.0000000+00:00</time></trkpt><trkpt lat="30.64022446" lon="34.82485962"><ele>776.2</ele><time>2013-11-22T07:04:53.0000000+00:00</time></trkpt><trkpt lat="30.64038467" lon="34.82501602"><ele>776.8</ele><time>2013-11-22T07:04:58.0000000+00:00</time></trkpt><trkpt lat="30.64042664" lon="34.82507324"><ele>777.5</ele><time>2013-11-22T07:05:03.0000000+00:00</time></trkpt><trkpt lat="30.64042282" lon="34.82507324"><ele>777.5</ele><time>2013-11-22T07:05:08.0000000+00:00</time></trkpt><trkpt lat="30.64042091" lon="34.82507324"><ele>777.6</ele><time>2013-11-22T07:05:13.0000000+00:00</time></trkpt><trkpt lat="30.64041138" lon="34.82508469"><ele>777.8</ele><time>2013-11-22T07:05:18.0000000+00:00</time></trkpt><trkpt lat="30.64040947" lon="34.82510376"><ele>779.0</ele><time>2013-11-22T07:05:23.0000000+00:00</time></trkpt><trkpt lat="30.64041519" lon="34.82509613"><ele>779.3</ele><time>2013-11-22T07:05:28.0000000+00:00</time></trkpt><trkpt lat="30.64042091" lon="34.82508469"><ele>779.6</ele><time>2013-11-22T07:05:33.0000000+00:00</time></trkpt><trkpt lat="30.64041901" lon="34.82508087"><ele>779.6</ele><time>2013-11-22T07:05:38.0000000+00:00</time></trkpt><trkpt lat="30.64041901" lon="34.82508469"><ele>779.5</ele><time>2013-11-22T07:05:43.0000000+00:00</time></trkpt><trkpt lat="30.64042282" lon="34.82508087"><ele>779.5</ele><time>2013-11-22T07:05:48.0000000+00:00</time></trkpt><trkpt lat="30.64042282" lon="34.82508087"><ele>779.6</ele><time>2013-11-22T07:05:53.0000000+00:00</time></trkpt><trkpt lat="30.64041519" lon="34.82507324"><ele>780.0</ele><time>2013-11-22T07:05:58.0000000+00:00</time></trkpt><trkpt lat="30.64041328" lon="34.82508087"><ele>780.5</ele><time>2013-11-22T07:06:03.0000000+00:00</time></trkpt><trkpt lat="30.64040947" lon="34.82508469"><ele>780.6</ele><time>2013-11-22T07:06:08.0000000+00:00</time></trkpt><trkpt lat="30.64040566" lon="34.82508469"><ele>780.6</ele><time>2013-11-22T07:06:13.0000000+00:00</time></trkpt><trkpt lat="30.64040756" lon="34.82508469"><ele>780.5</ele><time>2013-11-22T07:06:18.0000000+00:00</time></trkpt><trkpt lat="30.64040756" lon="34.82508469"><ele>780.3</ele><time>2013-11-22T07:06:23.0000000+00:00</time></trkpt><trkpt lat="30.64040756" lon="34.82508469"><ele>780.3</ele><time>2013-11-22T07:06:28.0000000+00:00</time></trkpt><trkpt lat="30.64040756" lon="34.82508469"><ele>780.3</ele><time>2013-11-22T07:06:33.0000000+00:00</time></trkpt><trkpt lat="30.64040756" lon="34.82508469"><ele>780.3</ele><time>2013-11-22T07:06:38.0000000+00:00</time></trkpt><trkpt lat="30.64040756" lon="34.82508469"><ele>780.3</ele><time>2013-11-22T07:06:43.0000000+00:00</time></trkpt><trkpt lat="30.64040756" lon="34.82508469"><ele>780.3</ele><time>2013-11-22T07:06:48.0000000+00:00</time></trkpt><trkpt lat="30.64040756" lon="34.82508469"><ele>780.2</ele><time>2013-11-22T07:06:53.0000000+00:00</time></trkpt><trkpt lat="30.64040756" lon="34.82508469"><ele>780.2</ele><time>2013-11-22T07:06:58.0000000+00:00</time></trkpt><trkpt lat="30.64040756" lon="34.82508469"><ele>780.2</ele><time>2013-11-22T07:07:03.0000000+00:00</time></trkpt><trkpt lat="30.64040947" lon="34.82508469"><ele>780.2</ele><time>2013-11-22T07:07:08.0000000+00:00</time></trkpt><trkpt lat="30.64040947" lon="34.82508469"><ele>780.2</ele><time>2013-11-22T07:07:13.0000000+00:00</time></trkpt><trkpt lat="30.64040947" lon="34.82508469"><ele>780.2</ele><time>2013-11-22T07:07:18.0000000+00:00</time></trkpt><trkpt lat="30.64040947" lon="34.82508469"><ele>780.2</ele><time>2013-11-22T07:07:23.0000000+00:00</time></trkpt><trkpt lat="30.64040947" lon="34.82508469"><ele>780.2</ele><time>2013-11-22T07:07:28.0000000+00:00</time></trkpt><trkpt lat="30.64040947" lon="34.82508469"><ele>780.2</ele><time>2013-11-22T07:07:33.0000000+00:00</time></trkpt><trkpt lat="30.64040947" lon="34.82508469"><ele>780.1</ele><time>2013-11-22T07:07:38.0000000+00:00</time></trkpt><trkpt lat="30.64040947" lon="34.82508469"><ele>780.1</ele><time>2013-11-22T07:07:43.0000000+00:00</time></trkpt><trkpt lat="30.64040947" lon="34.82508469"><ele>780.1</ele><time>2013-11-22T07:07:48.0000000+00:00</time></trkpt><trkpt lat="30.64040947" lon="34.82508469"><ele>780.1</ele><time>2013-11-22T07:07:53.0000000+00:00</time></trkpt><trkpt lat="30.64040947" lon="34.82508469"><ele>780.1</ele><time>2013-11-22T07:07:58.0000000+00:00</time></trkpt><trkpt lat="30.64040947" lon="34.82508469"><ele>780.1</ele><time>2013-11-22T07:08:03.0000000+00:00</time></trkpt><trkpt lat="30.64040947" lon="34.82508469"><ele>780.1</ele><time>2013-11-22T07:08:08.0000000+00:00</time></trkpt><trkpt lat="30.64040947" lon="34.82508469"><ele>780.1</ele><time>2013-11-22T07:08:13.0000000+00:00</time></trkpt><trkpt lat="30.64041138" lon="34.82508087"><ele>779.9</ele><time>2013-11-22T07:08:18.0000000+00:00</time></trkpt><trkpt lat="30.64041901" lon="34.82508087"><ele>780.0</ele><time>2013-11-22T07:08:23.0000000+00:00</time></trkpt><trkpt lat="30.64041901" lon="34.82508087"><ele>780.0</ele><time>2013-11-22T07:08:28.0000000+00:00</time></trkpt><trkpt lat="30.64041901" lon="34.82508087"><ele>780.0</ele><time>2013-11-22T07:08:33.0000000+00:00</time></trkpt><trkpt lat="30.64041901" lon="34.82507706"><ele>780.0</ele><time>2013-11-22T07:08:38.0000000+00:00</time></trkpt><trkpt lat="30.64041901" lon="34.82507706"><ele>779.8</ele><time>2013-11-22T07:08:43.0000000+00:00</time></trkpt><trkpt lat="30.64041138" lon="34.82508087"><ele>780.7</ele><time>2013-11-22T07:08:48.0000000+00:00</time></trkpt><trkpt lat="30.6404171" lon="34.82508087"><ele>781.0</ele><time>2013-11-22T07:08:53.0000000+00:00</time></trkpt><trkpt lat="30.64041519" lon="34.8250885"><ele>781.1</ele><time>2013-11-22T07:08:58.0000000+00:00</time></trkpt><trkpt lat="30.64041901" lon="34.8250885"><ele>781.5</ele><time>2013-11-22T07:09:03.0000000+00:00</time></trkpt><trkpt lat="30.64041901" lon="34.8250885"><ele>781.6</ele><time>2013-11-22T07:09:08.0000000+00:00</time></trkpt><trkpt lat="30.64041901" lon="34.8250885"><ele>781.5</ele><time>2013-11-22T07:09:13.0000000+00:00</time></trkpt><trkpt lat="30.64041901" lon="34.8250885"><ele>781.5</ele><time>2013-11-22T07:09:18.0000000+00:00</time></trkpt><trkpt lat="30.64041901" lon="34.8250885"><ele>781.5</ele><time>2013-11-22T07:09:23.0000000+00:00</time></trkpt><trkpt lat="30.64041901" lon="34.8250885"><ele>781.5</ele><time>2013-11-22T07:09:28.0000000+00:00</time></trkpt><trkpt lat="30.64041901" lon="34.8250885"><ele>781.5</ele><time>2013-11-22T07:09:33.0000000+00:00</time></trkpt><trkpt lat="30.64041901" lon="34.8250885"><ele>781.5</ele><time>2013-11-22T07:09:38.0000000+00:00</time></trkpt><trkpt lat="30.64041901" lon="34.8250885"><ele>781.5</ele><time>2013-11-22T07:09:43.0000000+00:00</time></trkpt><trkpt lat="30.64041901" lon="34.8250885"><ele>781.5</ele><time>2013-11-22T07:09:48.0000000+00:00</time></trkpt><trkpt lat="30.64041901" lon="34.8250885"><ele>781.5</ele><time>2013-11-22T07:09:53.0000000+00:00</time></trkpt><trkpt lat="30.64042091" lon="34.8250885"><ele>781.5</ele><time>2013-11-22T07:09:58.0000000+00:00</time></trkpt><trkpt lat="30.64042091" lon="34.8250885"><ele>781.5</ele><time>2013-11-22T07:10:03.0000000+00:00</time></trkpt><trkpt lat="30.64042091" lon="34.8250885"><ele>781.5</ele><time>2013-11-22T07:10:08.0000000+00:00</time></trkpt><trkpt lat="30.64042091" lon="34.8250885"><ele>781.5</ele><time>2013-11-22T07:10:13.0000000+00:00</time></trkpt><trkpt lat="30.64042091" lon="34.8250885"><ele>781.5</ele><time>2013-11-22T07:10:18.0000000+00:00</time></trkpt><trkpt lat="30.64042091" lon="34.8250885"><ele>781.5</ele><time>2013-11-22T07:10:23.0000000+00:00</time></trkpt><trkpt lat="30.64042091" lon="34.8250885"><ele>781.5</ele><time>2013-11-22T07:10:28.0000000+00:00</time></trkpt><trkpt lat="30.64042091" lon="34.8250885"><ele>781.5</ele><time>2013-11-22T07:10:33.0000000+00:00</time></trkpt><trkpt lat="30.64042282" lon="34.8250885"><ele>781.5</ele><time>2013-11-22T07:10:38.0000000+00:00</time></trkpt><trkpt lat="30.64042282" lon="34.8250885"><ele>781.5</ele><time>2013-11-22T07:10:43.0000000+00:00</time></trkpt><trkpt lat="30.64042282" lon="34.8250885"><ele>781.5</ele><time>2013-11-22T07:10:48.0000000+00:00</time></trkpt><trkpt lat="30.64042282" lon="34.8250885"><ele>781.5</ele><time>2013-11-22T07:10:53.0000000+00:00</time></trkpt><trkpt lat="30.64042282" lon="34.8250885"><ele>781.5</ele><time>2013-11-22T07:10:58.0000000+00:00</time></trkpt><trkpt lat="30.64042282" lon="34.8250885"><ele>781.5</ele><time>2013-11-22T07:11:03.0000000+00:00</time></trkpt><trkpt lat="30.64042282" lon="34.8250885"><ele>781.5</ele><time>2013-11-22T07:11:08.0000000+00:00</time></trkpt><trkpt lat="30.64042473" lon="34.8250885"><ele>781.5</ele><time>2013-11-22T07:11:13.0000000+00:00</time></trkpt><trkpt lat="30.64049721" lon="34.82518768"><ele>781.5</ele><time>2013-11-22T07:11:18.0000000+00:00</time></trkpt><trkpt lat="30.64058304" lon="34.82533264"><ele>781.3</ele><time>2013-11-22T07:11:23.0000000+00:00</time></trkpt><trkpt lat="30.64065552" lon="34.82546616"><ele>780.9</ele><time>2013-11-22T07:11:28.0000000+00:00</time></trkpt><trkpt lat="30.64071083" lon="34.82556152"><ele>781.1</ele><time>2013-11-22T07:11:33.0000000+00:00</time></trkpt><trkpt lat="30.64076805" lon="34.82565689"><ele>781.5</ele><time>2013-11-22T07:11:38.0000000+00:00</time></trkpt><trkpt lat="30.64080238" lon="34.82570648"><ele>781.1</ele><time>2013-11-22T07:11:43.0000000+00:00</time></trkpt><trkpt lat="30.64080048" lon="34.82570267"><ele>781.2</ele><time>2013-11-22T07:11:48.0000000+00:00</time></trkpt><trkpt lat="30.64080048" lon="34.82570267"><ele>781.2</ele><time>2013-11-22T07:11:53.0000000+00:00</time></trkpt><trkpt lat="30.64080048" lon="34.82570267"><ele>781.2</ele><time>2013-11-22T07:11:58.0000000+00:00</time></trkpt><trkpt lat="30.64080048" lon="34.82570267"><ele>781.2</ele><time>2013-11-22T07:12:03.0000000+00:00</time></trkpt><trkpt lat="30.64080048" lon="34.82570267"><ele>781.3</ele><time>2013-11-22T07:12:08.0000000+00:00</time></trkpt><trkpt lat="30.64080048" lon="34.82570267"><ele>781.3</ele><time>2013-11-22T07:12:13.0000000+00:00</time></trkpt><trkpt lat="30.64080048" lon="34.82570267"><ele>781.2</ele><time>2013-11-22T07:12:18.0000000+00:00</time></trkpt><trkpt lat="30.64080048" lon="34.82570267"><ele>781.2</ele><time>2013-11-22T07:12:23.0000000+00:00</time></trkpt><trkpt lat="30.64084053" lon="34.82575989"><ele>781.0</ele><time>2013-11-22T07:12:28.0000000+00:00</time></trkpt><trkpt lat="30.64092064" lon="34.82588196"><ele>781.9</ele><time>2013-11-22T07:12:33.0000000+00:00</time></trkpt><trkpt lat="30.64100647" lon="34.82601929"><ele>782.1</ele><time>2013-11-22T07:12:38.0000000+00:00</time></trkpt><trkpt lat="30.64110565" lon="34.82607651"><ele>784.5</ele><time>2013-11-22T07:12:43.0000000+00:00</time></trkpt><trkpt lat="30.64120293" lon="34.82611466"><ele>784.2</ele><time>2013-11-22T07:12:48.0000000+00:00</time></trkpt><trkpt lat="30.64129067" lon="34.82618332"><ele>785.0</ele><time>2013-11-22T07:12:53.0000000+00:00</time></trkpt><trkpt lat="30.64138222" lon="34.82621765"><ele>786.2</ele><time>2013-11-22T07:12:58.0000000+00:00</time></trkpt><trkpt lat="30.64146233" lon="34.82624054"><ele>787.5</ele><time>2013-11-22T07:13:03.0000000+00:00</time></trkpt><trkpt lat="30.64152718" lon="34.82627487"><ele>789.5</ele><time>2013-11-22T07:13:08.0000000+00:00</time></trkpt><trkpt lat="30.64159012" lon="34.82629395"><ele>791.0</ele><time>2013-11-22T07:13:13.0000000+00:00</time></trkpt><trkpt lat="30.64167595" lon="34.82637024"><ele>791.3</ele><time>2013-11-22T07:13:18.0000000+00:00</time></trkpt><trkpt lat="30.64174271" lon="34.82645416"><ele>792.0</ele><time>2013-11-22T07:13:23.0000000+00:00</time></trkpt><trkpt lat="30.64179421" lon="34.82650757"><ele>792.5</ele><time>2013-11-22T07:13:28.0000000+00:00</time></trkpt><trkpt lat="30.64180374" lon="34.82652283"><ele>791.3</ele><time>2013-11-22T07:13:33.0000000+00:00</time></trkpt><trkpt lat="30.64182282" lon="34.82654572"><ele>791.0</ele><time>2013-11-22T07:13:38.0000000+00:00</time></trkpt><trkpt lat="30.64188957" lon="34.82660294"><ele>791.1</ele><time>2013-11-22T07:13:43.0000000+00:00</time></trkpt><trkpt lat="30.64194679" lon="34.82665253"><ele>790.6</ele><time>2013-11-22T07:13:48.0000000+00:00</time></trkpt><trkpt lat="30.64201355" lon="34.82672119"><ele>790.2</ele><time>2013-11-22T07:13:53.0000000+00:00</time></trkpt><trkpt lat="30.64209938" lon="34.82682419"><ele>788.6</ele><time>2013-11-22T07:13:58.0000000+00:00</time></trkpt><trkpt lat="30.64221191" lon="34.82691193"><ele>786.8</ele><time>2013-11-22T07:14:03.0000000+00:00</time></trkpt><trkpt lat="30.64232636" lon="34.82699966"><ele>784.7</ele><time>2013-11-22T07:14:08.0000000+00:00</time></trkpt><trkpt lat="30.64243889" lon="34.82709885"><ele>783.5</ele><time>2013-11-22T07:14:13.0000000+00:00</time></trkpt><trkpt lat="30.64254761" lon="34.82722473"><ele>782.5</ele><time>2013-11-22T07:14:18.0000000+00:00</time></trkpt><trkpt lat="30.64266968" lon="34.82740021"><ele>781.5</ele><time>2013-11-22T07:14:23.0000000+00:00</time></trkpt><trkpt lat="30.64277268" lon="34.82761765"><ele>780.4</ele><time>2013-11-22T07:14:28.0000000+00:00</time></trkpt><trkpt lat="30.64284706" lon="34.82781982"><ele>780.9</ele><time>2013-11-22T07:14:33.0000000+00:00</time></trkpt><trkpt lat="30.64289475" lon="34.82797241"><ele>779.4</ele><time>2013-11-22T07:14:38.0000000+00:00</time></trkpt><trkpt lat="30.64296722" lon="34.82815933"><ele>777.6</ele><time>2013-11-22T07:14:43.0000000+00:00</time></trkpt><trkpt lat="30.64301491" lon="34.82833862"><ele>775.8</ele><time>2013-11-22T07:14:48.0000000+00:00</time></trkpt><trkpt lat="30.64311218" lon="34.82852173"><ele>775.1</ele><time>2013-11-22T07:14:53.0000000+00:00</time></trkpt><trkpt lat="30.64321327" lon="34.82867432"><ele>774.5</ele><time>2013-11-22T07:14:58.0000000+00:00</time></trkpt><trkpt lat="30.64328957" lon="34.82875443"><ele>772.6</ele><time>2013-11-22T07:15:03.0000000+00:00</time></trkpt><trkpt lat="30.64335442" lon="34.82882309"><ele>772.8</ele><time>2013-11-22T07:15:08.0000000+00:00</time></trkpt><trkpt lat="30.64340973" lon="34.82890701"><ele>772.6</ele><time>2013-11-22T07:15:13.0000000+00:00</time></trkpt><trkpt lat="30.6434536" lon="34.8290596"><ele>770.9</ele><time>2013-11-22T07:15:18.0000000+00:00</time></trkpt><trkpt lat="30.64349175" lon="34.82925415"><ele>770.9</ele><time>2013-11-22T07:15:23.0000000+00:00</time></trkpt><trkpt lat="30.64352608" lon="34.82939529"><ele>771.9</ele><time>2013-11-22T07:15:28.0000000+00:00</time></trkpt><trkpt lat="30.64357376" lon="34.82954788"><ele>772.5</ele><time>2013-11-22T07:15:33.0000000+00:00</time></trkpt><trkpt lat="30.64359665" lon="34.8297348"><ele>772.7</ele><time>2013-11-22T07:15:38.0000000+00:00</time></trkpt><trkpt lat="30.64362907" lon="34.82992554"><ele>772.9</ele><time>2013-11-22T07:15:43.0000000+00:00</time></trkpt><trkpt lat="30.6436615" lon="34.83012009"><ele>773.3</ele><time>2013-11-22T07:15:48.0000000+00:00</time></trkpt><trkpt lat="30.64371681" lon="34.83031845"><ele>773.8</ele><time>2013-11-22T07:15:53.0000000+00:00</time></trkpt><trkpt lat="30.64381027" lon="34.83049774"><ele>773.9</ele><time>2013-11-22T07:15:58.0000000+00:00</time></trkpt><trkpt lat="30.64396286" lon="34.83069229"><ele>770.7</ele><time>2013-11-22T07:16:03.0000000+00:00</time></trkpt><trkpt lat="30.64408302" lon="34.8309021"><ele>768.6</ele><time>2013-11-22T07:16:08.0000000+00:00</time></trkpt><trkpt lat="30.64422989" lon="34.83107758"><ele>766.0</ele><time>2013-11-22T07:16:13.0000000+00:00</time></trkpt><trkpt lat="30.6444149" lon="34.83127213"><ele>765.0</ele><time>2013-11-22T07:16:18.0000000+00:00</time></trkpt><trkpt lat="30.64462471" lon="34.83145523"><ele>764.4</ele><time>2013-11-22T07:16:23.0000000+00:00</time></trkpt><trkpt lat="30.64484596" lon="34.83168793"><ele>763.4</ele><time>2013-11-22T07:16:28.0000000+00:00</time></trkpt><trkpt lat="30.64502716" lon="34.83191681"><ele>763.0</ele><time>2013-11-22T07:16:33.0000000+00:00</time></trkpt><trkpt lat="30.64513016" lon="34.83208466"><ele>763.0</ele><time>2013-11-22T07:16:38.0000000+00:00</time></trkpt><trkpt lat="30.64522362" lon="34.83221436"><ele>762.7</ele><time>2013-11-22T07:16:43.0000000+00:00</time></trkpt><trkpt lat="30.64527702" lon="34.83240128"><ele>761.3</ele><time>2013-11-22T07:16:48.0000000+00:00</time></trkpt><trkpt lat="30.64532471" lon="34.83261871"><ele>763.3</ele><time>2013-11-22T07:16:53.0000000+00:00</time></trkpt><trkpt lat="30.6453743" lon="34.83280563"><ele>764.5</ele><time>2013-11-22T07:16:58.0000000+00:00</time></trkpt><trkpt lat="30.64545059" lon="34.83299255"><ele>766.6</ele><time>2013-11-22T07:17:03.0000000+00:00</time></trkpt><trkpt lat="30.64545441" lon="34.83316422"><ele>766.7</ele><time>2013-11-22T07:17:08.0000000+00:00</time></trkpt><trkpt lat="30.64545441" lon="34.83330154"><ele>765.7</ele><time>2013-11-22T07:17:13.0000000+00:00</time></trkpt><trkpt lat="30.64546585" lon="34.83341599"><ele>766.1</ele><time>2013-11-22T07:17:18.0000000+00:00</time></trkpt><trkpt lat="30.64548302" lon="34.83358383"><ele>766.0</ele><time>2013-11-22T07:17:23.0000000+00:00</time></trkpt><trkpt lat="30.64550591" lon="34.83375549"><ele>766.2</ele><time>2013-11-22T07:17:28.0000000+00:00</time></trkpt><trkpt lat="30.64553833" lon="34.83391571"><ele>767.8</ele><time>2013-11-22T07:17:33.0000000+00:00</time></trkpt><trkpt lat="30.64556503" lon="34.83404541"><ele>769.8</ele><time>2013-11-22T07:17:38.0000000+00:00</time></trkpt><trkpt lat="30.64559746" lon="34.83415222"><ele>768.3</ele><time>2013-11-22T07:17:43.0000000+00:00</time></trkpt><trkpt lat="30.64562416" lon="34.8342514"><ele>767.5</ele><time>2013-11-22T07:17:48.0000000+00:00</time></trkpt><trkpt lat="30.64564323" lon="34.83433151"><ele>767.2</ele><time>2013-11-22T07:17:53.0000000+00:00</time></trkpt><trkpt lat="30.64566422" lon="34.83443832"><ele>767.3</ele><time>2013-11-22T07:17:58.0000000+00:00</time></trkpt><trkpt lat="30.6456852" lon="34.83454895"><ele>766.9</ele><time>2013-11-22T07:18:03.0000000+00:00</time></trkpt><trkpt lat="30.64571953" lon="34.83465576"><ele>768.3</ele><time>2013-11-22T07:18:08.0000000+00:00</time></trkpt><trkpt lat="30.64575005" lon="34.83477783"><ele>769.0</ele><time>2013-11-22T07:18:13.0000000+00:00</time></trkpt><trkpt lat="30.64580154" lon="34.83490372"><ele>769.7</ele><time>2013-11-22T07:18:18.0000000+00:00</time></trkpt><trkpt lat="30.64589691" lon="34.83503723"><ele>770.3</ele><time>2013-11-22T07:18:23.0000000+00:00</time></trkpt><trkpt lat="30.64593887" lon="34.83518219"><ele>770.9</ele><time>2013-11-22T07:18:28.0000000+00:00</time></trkpt><trkpt lat="30.64600182" lon="34.83530808"><ele>772.8</ele><time>2013-11-22T07:18:33.0000000+00:00</time></trkpt><trkpt lat="30.64604569" lon="34.83544159"><ele>772.2</ele><time>2013-11-22T07:18:38.0000000+00:00</time></trkpt><trkpt lat="30.64609337" lon="34.83558655"><ele>772.0</ele><time>2013-11-22T07:18:43.0000000+00:00</time></trkpt><trkpt lat="30.6461525" lon="34.83573151"><ele>773.7</ele><time>2013-11-22T07:18:48.0000000+00:00</time></trkpt><trkpt lat="30.64617539" lon="34.83578491"><ele>775.2</ele><time>2013-11-22T07:18:53.0000000+00:00</time></trkpt><trkpt lat="30.64617729" lon="34.83578491"><ele>775.2</ele><time>2013-11-22T07:18:58.0000000+00:00</time></trkpt><trkpt lat="30.64617729" lon="34.83579254"><ele>775.3</ele><time>2013-11-22T07:19:03.0000000+00:00</time></trkpt><trkpt lat="30.64618111" lon="34.83579254"><ele>775.3</ele><time>2013-11-22T07:19:08.0000000+00:00</time></trkpt><trkpt lat="30.6461792" lon="34.83579254"><ele>775.4</ele><time>2013-11-22T07:19:13.0000000+00:00</time></trkpt><trkpt lat="30.6461792" lon="34.83579254"><ele>775.4</ele><time>2013-11-22T07:19:18.0000000+00:00</time></trkpt><trkpt lat="30.64618111" lon="34.83579254"><ele>775.5</ele><time>2013-11-22T07:19:23.0000000+00:00</time></trkpt><trkpt lat="30.64618111" lon="34.83579636"><ele>775.5</ele><time>2013-11-22T07:19:28.0000000+00:00</time></trkpt><trkpt lat="30.64618111" lon="34.83579636"><ele>775.5</ele><time>2013-11-22T07:19:33.0000000+00:00</time></trkpt><trkpt lat="30.64618301" lon="34.83579636"><ele>775.5</ele><time>2013-11-22T07:19:38.0000000+00:00</time></trkpt><trkpt lat="30.64618301" lon="34.83579636"><ele>775.5</ele><time>2013-11-22T07:19:43.0000000+00:00</time></trkpt><trkpt lat="30.64618301" lon="34.83579636"><ele>775.5</ele><time>2013-11-22T07:19:48.0000000+00:00</time></trkpt><trkpt lat="30.64618301" lon="34.83579636"><ele>775.5</ele><time>2013-11-22T07:19:53.0000000+00:00</time></trkpt><trkpt lat="30.64618301" lon="34.83579636"><ele>775.5</ele><time>2013-11-22T07:19:58.0000000+00:00</time></trkpt><trkpt lat="30.64618301" lon="34.83579636"><ele>775.5</ele><time>2013-11-22T07:20:03.0000000+00:00</time></trkpt><trkpt lat="30.64618111" lon="34.83579636"><ele>775.5</ele><time>2013-11-22T07:20:08.0000000+00:00</time></trkpt><trkpt lat="30.64618111" lon="34.83579636"><ele>775.5</ele><time>2013-11-22T07:20:13.0000000+00:00</time></trkpt><trkpt lat="30.64618111" lon="34.83579636"><ele>775.5</ele><time>2013-11-22T07:20:18.0000000+00:00</time></trkpt><trkpt lat="30.64618111" lon="34.83579636"><ele>775.5</ele><time>2013-11-22T07:20:23.0000000+00:00</time></trkpt><trkpt lat="30.64618111" lon="34.83579636"><ele>775.5</ele><time>2013-11-22T07:20:28.0000000+00:00</time></trkpt><trkpt lat="30.64618301" lon="34.83581162"><ele>775.5</ele><time>2013-11-22T07:20:33.0000000+00:00</time></trkpt><trkpt lat="30.64620018" lon="34.83593369"><ele>776.0</ele><time>2013-11-22T07:20:38.0000000+00:00</time></trkpt><trkpt lat="30.64622688" lon="34.83608627"><ele>775.2</ele><time>2013-11-22T07:20:43.0000000+00:00</time></trkpt><trkpt lat="30.64624977" lon="34.83625031"><ele>773.9</ele><time>2013-11-22T07:20:48.0000000+00:00</time></trkpt><trkpt lat="30.64625168" lon="34.8364296"><ele>772.5</ele><time>2013-11-22T07:20:53.0000000+00:00</time></trkpt><trkpt lat="30.64628029" lon="34.8366127"><ele>769.9</ele><time>2013-11-22T07:20:58.0000000+00:00</time></trkpt><trkpt lat="30.64629936" lon="34.83677673"><ele>767.7</ele><time>2013-11-22T07:21:03.0000000+00:00</time></trkpt><trkpt lat="30.64632034" lon="34.83692932"><ele>767.3</ele><time>2013-11-22T07:21:08.0000000+00:00</time></trkpt><trkpt lat="30.64635468" lon="34.83710098"><ele>767.8</ele><time>2013-11-22T07:21:13.0000000+00:00</time></trkpt><trkpt lat="30.64640617" lon="34.83728027"><ele>765.0</ele><time>2013-11-22T07:21:18.0000000+00:00</time></trkpt><trkpt lat="30.64644051" lon="34.83742523"><ele>766.6</ele><time>2013-11-22T07:21:23.0000000+00:00</time></trkpt><trkpt lat="30.64648247" lon="34.83757401"><ele>766.1</ele><time>2013-11-22T07:21:28.0000000+00:00</time></trkpt><trkpt lat="30.64652443" lon="34.83774948"><ele>764.4</ele><time>2013-11-22T07:21:33.0000000+00:00</time></trkpt><trkpt lat="30.64658737" lon="34.83791733"><ele>767.4</ele><time>2013-11-22T07:21:38.0000000+00:00</time></trkpt><trkpt lat="30.64662933" lon="34.83813477"><ele>767.2</ele><time>2013-11-22T07:21:43.0000000+00:00</time></trkpt><trkpt lat="30.64666176" lon="34.8383255"><ele>767.1</ele><time>2013-11-22T07:21:48.0000000+00:00</time></trkpt><trkpt lat="30.6466713" lon="34.83848572"><ele>766.0</ele><time>2013-11-22T07:21:53.0000000+00:00</time></trkpt><trkpt lat="30.64670754" lon="34.83863449"><ele>764.9</ele><time>2013-11-22T07:21:58.0000000+00:00</time></trkpt><trkpt lat="30.64676285" lon="34.83879471"><ele>766.3</ele><time>2013-11-22T07:22:03.0000000+00:00</time></trkpt><trkpt lat="30.6468544" lon="34.83895493"><ele>765.5</ele><time>2013-11-22T07:22:08.0000000+00:00</time></trkpt><trkpt lat="30.64694977" lon="34.83905792"><ele>766.0</ele><time>2013-11-22T07:22:13.0000000+00:00</time></trkpt><trkpt lat="30.64708901" lon="34.83916092"><ele>764.5</ele><time>2013-11-22T07:22:18.0000000+00:00</time></trkpt><trkpt lat="30.64717674" lon="34.8392868"><ele>761.5</ele><time>2013-11-22T07:22:23.0000000+00:00</time></trkpt><trkpt lat="30.64723015" lon="34.83942795"><ele>760.4</ele><time>2013-11-22T07:22:28.0000000+00:00</time></trkpt><trkpt lat="30.6472702" lon="34.83958054"><ele>760.6</ele><time>2013-11-22T07:22:33.0000000+00:00</time></trkpt><trkpt lat="30.64732361" lon="34.83976364"><ele>758.8</ele><time>2013-11-22T07:22:38.0000000+00:00</time></trkpt><trkpt lat="30.64743233" lon="34.83996201"><ele>759.6</ele><time>2013-11-22T07:22:43.0000000+00:00</time></trkpt><trkpt lat="30.64755821" lon="34.84013367"><ele>761.2</ele><time>2013-11-22T07:22:48.0000000+00:00</time></trkpt><trkpt lat="30.64768028" lon="34.84032822"><ele>762.4</ele><time>2013-11-22T07:22:53.0000000+00:00</time></trkpt><trkpt lat="30.64783096" lon="34.84052277"><ele>762.0</ele><time>2013-11-22T07:22:58.0000000+00:00</time></trkpt><trkpt lat="30.6479702" lon="34.84070587"><ele>762.0</ele><time>2013-11-22T07:23:03.0000000+00:00</time></trkpt><trkpt lat="30.64810562" lon="34.84085465"><ele>763.2</ele><time>2013-11-22T07:23:08.0000000+00:00</time></trkpt><trkpt lat="30.64823723" lon="34.84099579"><ele>764.6</ele><time>2013-11-22T07:23:13.0000000+00:00</time></trkpt><trkpt lat="30.64844322" lon="34.84109879"><ele>762.0</ele><time>2013-11-22T07:23:18.0000000+00:00</time></trkpt><trkpt lat="30.64853859" lon="34.84124374"><ele>762.6</ele><time>2013-11-22T07:23:23.0000000+00:00</time></trkpt><trkpt lat="30.64867973" lon="34.84143448"><ele>760.8</ele><time>2013-11-22T07:23:28.0000000+00:00</time></trkpt><trkpt lat="30.64878845" lon="34.84153748"><ele>759.8</ele><time>2013-11-22T07:23:33.0000000+00:00</time></trkpt><trkpt lat="30.64881134" lon="34.84154892"><ele>759.3</ele><time>2013-11-22T07:23:38.0000000+00:00</time></trkpt><trkpt lat="30.64880943" lon="34.84153366"><ele>759.5</ele><time>2013-11-22T07:23:43.0000000+00:00</time></trkpt><trkpt lat="30.64880562" lon="34.8415184"><ele>759.7</ele><time>2013-11-22T07:23:48.0000000+00:00</time></trkpt><trkpt lat="30.64880562" lon="34.8415184"><ele>759.8</ele><time>2013-11-22T07:23:53.0000000+00:00</time></trkpt><trkpt lat="30.64880562" lon="34.84151459"><ele>759.9</ele><time>2013-11-22T07:23:58.0000000+00:00</time></trkpt><trkpt lat="30.64880562" lon="34.84151459"><ele>759.9</ele><time>2013-11-22T07:24:03.0000000+00:00</time></trkpt><trkpt lat="30.64880562" lon="34.84151459"><ele>759.9</ele><time>2013-11-22T07:24:08.0000000+00:00</time></trkpt><trkpt lat="30.64880562" lon="34.84151459"><ele>759.9</ele><time>2013-11-22T07:24:13.0000000+00:00</time></trkpt><trkpt lat="30.64880562" lon="34.84151459"><ele>759.9</ele><time>2013-11-22T07:24:18.0000000+00:00</time></trkpt><trkpt lat="30.64880562" lon="34.84151459"><ele>759.9</ele><time>2013-11-22T07:24:23.0000000+00:00</time></trkpt><trkpt lat="30.64880562" lon="34.84151459"><ele>759.9</ele><time>2013-11-22T07:24:28.0000000+00:00</time></trkpt><trkpt lat="30.64880562" lon="34.84151459"><ele>759.9</ele><time>2013-11-22T07:24:33.0000000+00:00</time></trkpt><trkpt lat="30.64880562" lon="34.84151459"><ele>759.9</ele><time>2013-11-22T07:24:38.0000000+00:00</time></trkpt><trkpt lat="30.64880562" lon="34.84151459"><ele>759.9</ele><time>2013-11-22T07:24:43.0000000+00:00</time></trkpt><trkpt lat="30.64880562" lon="34.84151459"><ele>759.9</ele><time>2013-11-22T07:24:48.0000000+00:00</time></trkpt><trkpt lat="30.64880562" lon="34.84151459"><ele>759.9</ele><time>2013-11-22T07:24:53.0000000+00:00</time></trkpt><trkpt lat="30.64880562" lon="34.84151459"><ele>759.9</ele><time>2013-11-22T07:24:58.0000000+00:00</time></trkpt><trkpt lat="30.64880562" lon="34.84151459"><ele>759.9</ele><time>2013-11-22T07:25:03.0000000+00:00</time></trkpt><trkpt lat="30.64880562" lon="34.84151459"><ele>759.9</ele><time>2013-11-22T07:25:08.0000000+00:00</time></trkpt><trkpt lat="30.64880562" lon="34.84151459"><ele>759.9</ele><time>2013-11-22T07:25:13.0000000+00:00</time></trkpt><trkpt lat="30.64880562" lon="34.84151459"><ele>759.9</ele><time>2013-11-22T07:25:18.0000000+00:00</time></trkpt><trkpt lat="30.64880562" lon="34.84151459"><ele>759.9</ele><time>2013-11-22T07:25:23.0000000+00:00</time></trkpt><trkpt lat="30.64880562" lon="34.84151459"><ele>759.9</ele><time>2013-11-22T07:25:28.0000000+00:00</time></trkpt><trkpt lat="30.64880562" lon="34.84151459"><ele>759.9</ele><time>2013-11-22T07:25:33.0000000+00:00</time></trkpt><trkpt lat="30.64880562" lon="34.84151459"><ele>759.9</ele><time>2013-11-22T07:25:38.0000000+00:00</time></trkpt><trkpt lat="30.64880562" lon="34.84151459"><ele>759.9</ele><time>2013-11-22T07:25:43.0000000+00:00</time></trkpt><trkpt lat="30.64880562" lon="34.84151459"><ele>759.9</ele><time>2013-11-22T07:25:48.0000000+00:00</time></trkpt><trkpt lat="30.64880562" lon="34.84151459"><ele>759.9</ele><time>2013-11-22T07:25:53.0000000+00:00</time></trkpt><trkpt lat="30.64880562" lon="34.84151459"><ele>759.9</ele><time>2013-11-22T07:25:58.0000000+00:00</time></trkpt><trkpt lat="30.64880562" lon="34.84151459"><ele>759.9</ele><time>2013-11-22T07:26:03.0000000+00:00</time></trkpt><trkpt lat="30.64880562" lon="34.84151459"><ele>759.9</ele><time>2013-11-22T07:26:08.0000000+00:00</time></trkpt><trkpt lat="30.64880562" lon="34.84151459"><ele>759.9</ele><time>2013-11-22T07:26:13.0000000+00:00</time></trkpt><trkpt lat="30.64880562" lon="34.84151459"><ele>759.9</ele><time>2013-11-22T07:26:18.0000000+00:00</time></trkpt><trkpt lat="30.64880562" lon="34.84151459"><ele>759.9</ele><time>2013-11-22T07:26:23.0000000+00:00</time></trkpt><trkpt lat="30.64880562" lon="34.84151459"><ele>759.9</ele><time>2013-11-22T07:26:28.0000000+00:00</time></trkpt><trkpt lat="30.64880562" lon="34.84151459"><ele>759.8</ele><time>2013-11-22T07:26:33.0000000+00:00</time></trkpt><trkpt lat="30.64880562" lon="34.84151459"><ele>759.8</ele><time>2013-11-22T07:26:38.0000000+00:00</time></trkpt><trkpt lat="30.64880562" lon="34.84151459"><ele>759.8</ele><time>2013-11-22T07:26:43.0000000+00:00</time></trkpt><trkpt lat="30.64880562" lon="34.84151459"><ele>759.8</ele><time>2013-11-22T07:26:48.0000000+00:00</time></trkpt><trkpt lat="30.64880371" lon="34.84151459"><ele>759.8</ele><time>2013-11-22T07:26:53.0000000+00:00</time></trkpt><trkpt lat="30.64880371" lon="34.84151459"><ele>759.8</ele><time>2013-11-22T07:26:58.0000000+00:00</time></trkpt><trkpt lat="30.64880371" lon="34.84151459"><ele>759.8</ele><time>2013-11-22T07:27:03.0000000+00:00</time></trkpt><trkpt lat="30.64880371" lon="34.84151459"><ele>759.8</ele><time>2013-11-22T07:27:08.0000000+00:00</time></trkpt><trkpt lat="30.64880371" lon="34.84151459"><ele>759.8</ele><time>2013-11-22T07:27:13.0000000+00:00</time></trkpt><trkpt lat="30.64880371" lon="34.84151459"><ele>759.8</ele><time>2013-11-22T07:27:18.0000000+00:00</time></trkpt><trkpt lat="30.64880371" lon="34.84151459"><ele>759.8</ele><time>2013-11-22T07:27:23.0000000+00:00</time></trkpt><trkpt lat="30.64880371" lon="34.84151459"><ele>759.8</ele><time>2013-11-22T07:27:28.0000000+00:00</time></trkpt><trkpt lat="30.64880371" lon="34.84151459"><ele>759.8</ele><time>2013-11-22T07:27:33.0000000+00:00</time></trkpt><trkpt lat="30.64880371" lon="34.84151459"><ele>759.8</ele><time>2013-11-22T07:27:38.0000000+00:00</time></trkpt><trkpt lat="30.64880371" lon="34.84151459"><ele>759.8</ele><time>2013-11-22T07:27:43.0000000+00:00</time></trkpt><trkpt lat="30.64880371" lon="34.84151459"><ele>759.8</ele><time>2013-11-22T07:27:48.0000000+00:00</time></trkpt><trkpt lat="30.64880371" lon="34.84151459"><ele>759.8</ele><time>2013-11-22T07:27:53.0000000+00:00</time></trkpt><trkpt lat="30.64880371" lon="34.84151459"><ele>759.8</ele><time>2013-11-22T07:27:58.0000000+00:00</time></trkpt><trkpt lat="30.64883423" lon="34.84155273"><ele>759.4</ele><time>2013-11-22T07:28:03.0000000+00:00</time></trkpt><trkpt lat="30.64897728" lon="34.84169769"><ele>758.9</ele><time>2013-11-22T07:28:08.0000000+00:00</time></trkpt><trkpt lat="30.64910317" lon="34.84181595"><ele>759.1</ele><time>2013-11-22T07:28:13.0000000+00:00</time></trkpt><trkpt lat="30.64926148" lon="34.84190369"><ele>759.5</ele><time>2013-11-22T07:28:18.0000000+00:00</time></trkpt><trkpt lat="30.64940834" lon="34.84198761"><ele>758.6</ele><time>2013-11-22T07:28:23.0000000+00:00</time></trkpt><trkpt lat="30.64958954" lon="34.84205627"><ele>757.6</ele><time>2013-11-22T07:28:28.0000000+00:00</time></trkpt><trkpt lat="30.64974976" lon="34.84208298"><ele>756.6</ele><time>2013-11-22T07:28:33.0000000+00:00</time></trkpt><trkpt lat="30.64991951" lon="34.84209061"><ele>756.0</ele><time>2013-11-22T07:28:38.0000000+00:00</time></trkpt><trkpt lat="30.65008354" lon="34.84212112"><ele>753.9</ele><time>2013-11-22T07:28:43.0000000+00:00</time></trkpt><trkpt lat="30.65023232" lon="34.84216309"><ele>753.5</ele><time>2013-11-22T07:28:48.0000000+00:00</time></trkpt><trkpt lat="30.65040588" lon="34.84222794"><ele>754.0</ele><time>2013-11-22T07:28:53.0000000+00:00</time></trkpt><trkpt lat="30.65055656" lon="34.84230042"><ele>756.5</ele><time>2013-11-22T07:28:58.0000000+00:00</time></trkpt><trkpt lat="30.6506424" lon="34.8423233"><ele>762.2</ele><time>2013-11-22T07:29:03.0000000+00:00</time></trkpt><trkpt lat="30.65078735" lon="34.84233856"><ele>763.5</ele><time>2013-11-22T07:29:08.0000000+00:00</time></trkpt><trkpt lat="30.65093422" lon="34.84234619"><ele>760.4</ele><time>2013-11-22T07:29:13.0000000+00:00</time></trkpt><trkpt lat="30.6511097" lon="34.84241867"><ele>759.5</ele><time>2013-11-22T07:29:18.0000000+00:00</time></trkpt><trkpt lat="30.65128326" lon="34.84249115"><ele>759.6</ele><time>2013-11-22T07:29:23.0000000+00:00</time></trkpt><trkpt lat="30.6514492" lon="34.84252167"><ele>758.4</ele><time>2013-11-22T07:29:28.0000000+00:00</time></trkpt><trkpt lat="30.65154648" lon="34.84255981"><ele>757.9</ele><time>2013-11-22T07:29:33.0000000+00:00</time></trkpt><trkpt lat="30.65160561" lon="34.84257507"><ele>758.0</ele><time>2013-11-22T07:29:38.0000000+00:00</time></trkpt><trkpt lat="30.65171051" lon="34.84259415"><ele>757.3</ele><time>2013-11-22T07:29:43.0000000+00:00</time></trkpt><trkpt lat="30.65180779" lon="34.84260178"><ele>757.8</ele><time>2013-11-22T07:29:48.0000000+00:00</time></trkpt><trkpt lat="30.65189934" lon="34.84262085"><ele>759.2</ele><time>2013-11-22T07:29:53.0000000+00:00</time></trkpt><trkpt lat="30.65200043" lon="34.84267807"><ele>758.9</ele><time>2013-11-22T07:29:58.0000000+00:00</time></trkpt><trkpt lat="30.65207863" lon="34.84272003"><ele>759.2</ele><time>2013-11-22T07:30:03.0000000+00:00</time></trkpt><trkpt lat="30.65214729" lon="34.84276199"><ele>759.7</ele><time>2013-11-22T07:30:08.0000000+00:00</time></trkpt><trkpt lat="30.6522274" lon="34.84281158"><ele>760.6</ele><time>2013-11-22T07:30:13.0000000+00:00</time></trkpt><trkpt lat="30.6523037" lon="34.84283829"><ele>762.5</ele><time>2013-11-22T07:30:18.0000000+00:00</time></trkpt><trkpt lat="30.65238762" lon="34.84283066"><ele>762.4</ele><time>2013-11-22T07:30:23.0000000+00:00</time></trkpt><trkpt lat="30.6524601" lon="34.84285355"><ele>764.5</ele><time>2013-11-22T07:30:28.0000000+00:00</time></trkpt><trkpt lat="30.65253258" lon="34.84284973"><ele>763.6</ele><time>2013-11-22T07:30:33.0000000+00:00</time></trkpt><trkpt lat="30.65259171" lon="34.84282684"><ele>764.4</ele><time>2013-11-22T07:30:38.0000000+00:00</time></trkpt><trkpt lat="30.65270233" lon="34.8428421"><ele>767.3</ele><time>2013-11-22T07:30:43.0000000+00:00</time></trkpt><trkpt lat="30.6528244" lon="34.84288788"><ele>768.7</ele><time>2013-11-22T07:30:48.0000000+00:00</time></trkpt><trkpt lat="30.65297699" lon="34.84291458"><ele>768.7</ele><time>2013-11-22T07:30:53.0000000+00:00</time></trkpt><trkpt lat="30.6531601" lon="34.84289169"><ele>769.3</ele><time>2013-11-22T07:30:58.0000000+00:00</time></trkpt><trkpt lat="30.65330315" lon="34.84286881"><ele>769.4</ele><time>2013-11-22T07:31:03.0000000+00:00</time></trkpt><trkpt lat="30.65344238" lon="34.84285736"><ele>769.3</ele><time>2013-11-22T07:31:08.0000000+00:00</time></trkpt><trkpt lat="30.65361786" lon="34.84287262"><ele>768.6</ele><time>2013-11-22T07:31:13.0000000+00:00</time></trkpt><trkpt lat="30.65379524" lon="34.84288788"><ele>769.0</ele><time>2013-11-22T07:31:18.0000000+00:00</time></trkpt><trkpt lat="30.65400124" lon="34.84298325"><ele>764.9</ele><time>2013-11-22T07:31:23.0000000+00:00</time></trkpt><trkpt lat="30.65415573" lon="34.84307098"><ele>762.4</ele><time>2013-11-22T07:31:28.0000000+00:00</time></trkpt><trkpt lat="30.65423775" lon="34.84312058"><ele>763.6</ele><time>2013-11-22T07:31:33.0000000+00:00</time></trkpt><trkpt lat="30.65431976" lon="34.84315872"><ele>761.7</ele><time>2013-11-22T07:31:38.0000000+00:00</time></trkpt><trkpt lat="30.65440178" lon="34.84323502"><ele>758.0</ele><time>2013-11-22T07:31:43.0000000+00:00</time></trkpt><trkpt lat="30.65444565" lon="34.84341049"><ele>757.5</ele><time>2013-11-22T07:31:48.0000000+00:00</time></trkpt><trkpt lat="30.65452385" lon="34.84357071"><ele>756.5</ele><time>2013-11-22T07:31:53.0000000+00:00</time></trkpt><trkpt lat="30.6546936" lon="34.84367371"><ele>755.8</ele><time>2013-11-22T07:31:58.0000000+00:00</time></trkpt><trkpt lat="30.6547184" lon="34.84368134"><ele>760.5</ele><time>2013-11-22T07:32:03.0000000+00:00</time></trkpt><trkpt lat="30.65472031" lon="34.84368134"><ele>760.5</ele><time>2013-11-22T07:32:08.0000000+00:00</time></trkpt><trkpt lat="30.65477753" lon="34.84365845"><ele>760.8</ele><time>2013-11-22T07:32:13.0000000+00:00</time></trkpt><trkpt lat="30.65488052" lon="34.84372711"><ele>759.4</ele><time>2013-11-22T07:32:18.0000000+00:00</time></trkpt><trkpt lat="30.65499687" lon="34.84375382"><ele>756.3</ele><time>2013-11-22T07:32:23.0000000+00:00</time></trkpt><trkpt lat="30.65521812" lon="34.84373856"><ele>753.5</ele><time>2013-11-22T07:32:28.0000000+00:00</time></trkpt><trkpt lat="30.65538216" lon="34.84378433"><ele>751.7</ele><time>2013-11-22T07:32:33.0000000+00:00</time></trkpt><trkpt lat="30.65553665" lon="34.84377289"><ele>750.4</ele><time>2013-11-22T07:32:38.0000000+00:00</time></trkpt><trkpt lat="30.65577126" lon="34.84375"><ele>747.6</ele><time>2013-11-22T07:32:43.0000000+00:00</time></trkpt><trkpt lat="30.65596199" lon="34.84372711"><ele>745.3</ele><time>2013-11-22T07:32:48.0000000+00:00</time></trkpt><trkpt lat="30.65612793" lon="34.84377289"><ele>744.8</ele><time>2013-11-22T07:32:53.0000000+00:00</time></trkpt><trkpt lat="30.65629768" lon="34.84388733"><ele>742.8</ele><time>2013-11-22T07:32:58.0000000+00:00</time></trkpt><trkpt lat="30.65651512" lon="34.8440361"><ele>742.8</ele><time>2013-11-22T07:33:03.0000000+00:00</time></trkpt><trkpt lat="30.65672112" lon="34.84423447"><ele>737.7</ele><time>2013-11-22T07:33:08.0000000+00:00</time></trkpt><trkpt lat="30.65686417" lon="34.84444809"><ele>738.5</ele><time>2013-11-22T07:33:13.0000000+00:00</time></trkpt><trkpt lat="30.65698624" lon="34.84466934"><ele>737.2</ele><time>2013-11-22T07:33:18.0000000+00:00</time></trkpt><trkpt lat="30.65708351" lon="34.84489441"><ele>735.7</ele><time>2013-11-22T07:33:23.0000000+00:00</time></trkpt><trkpt lat="30.65717888" lon="34.84503174"><ele>733.8</ele><time>2013-11-22T07:33:28.0000000+00:00</time></trkpt><trkpt lat="30.65719414" lon="34.84503555"><ele>734.6</ele><time>2013-11-22T07:33:33.0000000+00:00</time></trkpt><trkpt lat="30.65719414" lon="34.84503555"><ele>734.4</ele><time>2013-11-22T07:33:38.0000000+00:00</time></trkpt><trkpt lat="30.65719414" lon="34.84503555"><ele>734.4</ele><time>2013-11-22T07:33:43.0000000+00:00</time></trkpt><trkpt lat="30.65719414" lon="34.84503555"><ele>734.5</ele><time>2013-11-22T07:33:48.0000000+00:00</time></trkpt><trkpt lat="30.65719414" lon="34.84503555"><ele>734.5</ele><time>2013-11-22T07:33:53.0000000+00:00</time></trkpt><trkpt lat="30.65719414" lon="34.84503555"><ele>734.5</ele><time>2013-11-22T07:33:58.0000000+00:00</time></trkpt><trkpt lat="30.65719414" lon="34.84503174"><ele>734.6</ele><time>2013-11-22T07:34:03.0000000+00:00</time></trkpt><trkpt lat="30.65719414" lon="34.84503174"><ele>734.6</ele><time>2013-11-22T07:34:08.0000000+00:00</time></trkpt><trkpt lat="30.65719414" lon="34.84503174"><ele>734.6</ele><time>2013-11-22T07:34:13.0000000+00:00</time></trkpt><trkpt lat="30.65719414" lon="34.84503174"><ele>734.6</ele><time>2013-11-22T07:34:18.0000000+00:00</time></trkpt><trkpt lat="30.65719414" lon="34.84503174"><ele>734.6</ele><time>2013-11-22T07:34:23.0000000+00:00</time></trkpt><trkpt lat="30.65719414" lon="34.84503174"><ele>734.6</ele><time>2013-11-22T07:34:28.0000000+00:00</time></trkpt><trkpt lat="30.65719414" lon="34.84503174"><ele>734.7</ele><time>2013-11-22T07:34:33.0000000+00:00</time></trkpt><trkpt lat="30.65719414" lon="34.84503174"><ele>734.7</ele><time>2013-11-22T07:34:38.0000000+00:00</time></trkpt><trkpt lat="30.65719414" lon="34.84503174"><ele>734.7</ele><time>2013-11-22T07:34:43.0000000+00:00</time></trkpt><trkpt lat="30.65719414" lon="34.84503174"><ele>734.8</ele><time>2013-11-22T07:34:48.0000000+00:00</time></trkpt><trkpt lat="30.65719414" lon="34.84503174"><ele>734.8</ele><time>2013-11-22T07:34:53.0000000+00:00</time></trkpt><trkpt lat="30.65719414" lon="34.84503174"><ele>734.8</ele><time>2013-11-22T07:34:58.0000000+00:00</time></trkpt><trkpt lat="30.65719795" lon="34.845047"><ele>735.7</ele><time>2013-11-22T07:35:03.0000000+00:00</time></trkpt><trkpt lat="30.65730858" lon="34.84517288"><ele>735.6</ele><time>2013-11-22T07:35:08.0000000+00:00</time></trkpt><trkpt lat="30.65752029" lon="34.84526062"><ele>734.8</ele><time>2013-11-22T07:35:13.0000000+00:00</time></trkpt><trkpt lat="30.65771294" lon="34.84540558"><ele>733.0</ele><time>2013-11-22T07:35:18.0000000+00:00</time></trkpt><trkpt lat="30.65787888" lon="34.84553146"><ele>734.1</ele><time>2013-11-22T07:35:23.0000000+00:00</time></trkpt><trkpt lat="30.65803528" lon="34.84567261"><ele>733.5</ele><time>2013-11-22T07:35:28.0000000+00:00</time></trkpt><trkpt lat="30.65819168" lon="34.84581375"><ele>732.0</ele><time>2013-11-22T07:35:33.0000000+00:00</time></trkpt><trkpt lat="30.65834427" lon="34.84595108"><ele>731.4</ele><time>2013-11-22T07:35:38.0000000+00:00</time></trkpt><trkpt lat="30.65852165" lon="34.84607315"><ele>731.5</ele><time>2013-11-22T07:35:43.0000000+00:00</time></trkpt><trkpt lat="30.65867233" lon="34.84615326"><ele>732.7</ele><time>2013-11-22T07:35:48.0000000+00:00</time></trkpt><trkpt lat="30.65877152" lon="34.84621811"><ele>732.2</ele><time>2013-11-22T07:35:53.0000000+00:00</time></trkpt><trkpt lat="30.65888023" lon="34.84633637"><ele>732.7</ele><time>2013-11-22T07:35:58.0000000+00:00</time></trkpt><trkpt lat="30.65903282" lon="34.8465271"><ele>732.0</ele><time>2013-11-22T07:36:03.0000000+00:00</time></trkpt><trkpt lat="30.65916634" lon="34.84669495"><ele>733.0</ele><time>2013-11-22T07:36:08.0000000+00:00</time></trkpt><trkpt lat="30.65926552" lon="34.84683228"><ele>732.4</ele><time>2013-11-22T07:36:13.0000000+00:00</time></trkpt><trkpt lat="30.65942192" lon="34.84693909"><ele>730.8</ele><time>2013-11-22T07:36:18.0000000+00:00</time></trkpt><trkpt lat="30.65959549" lon="34.84702683"><ele>730.7</ele><time>2013-11-22T07:36:23.0000000+00:00</time></trkpt><trkpt lat="30.6597786" lon="34.84705734"><ele>730.3</ele><time>2013-11-22T07:36:28.0000000+00:00</time></trkpt><trkpt lat="30.65995979" lon="34.84711456"><ele>730.8</ele><time>2013-11-22T07:36:33.0000000+00:00</time></trkpt><trkpt lat="30.66021729" lon="34.84715653"><ele>732.1</ele><time>2013-11-22T07:36:38.0000000+00:00</time></trkpt><trkpt lat="30.66047287" lon="34.84726715"><ele>733.4</ele><time>2013-11-22T07:36:43.0000000+00:00</time></trkpt><trkpt lat="30.66070175" lon="34.84729767"><ele>727.4</ele><time>2013-11-22T07:36:48.0000000+00:00</time></trkpt><trkpt lat="30.66090775" lon="34.84733963"><ele>729.8</ele><time>2013-11-22T07:36:53.0000000+00:00</time></trkpt><trkpt lat="30.66111183" lon="34.84732437"><ele>735.4</ele><time>2013-11-22T07:36:58.0000000+00:00</time></trkpt><trkpt lat="30.66129494" lon="34.84722138"><ele>738.2</ele><time>2013-11-22T07:37:03.0000000+00:00</time></trkpt><trkpt lat="30.66147995" lon="34.84712982"><ele>742.0</ele><time>2013-11-22T07:37:08.0000000+00:00</time></trkpt><trkpt lat="30.66167831" lon="34.84708023"><ele>741.5</ele><time>2013-11-22T07:37:13.0000000+00:00</time></trkpt><trkpt lat="30.66184425" lon="34.84707642"><ele>739.3</ele><time>2013-11-22T07:37:18.0000000+00:00</time></trkpt><trkpt lat="30.66201973" lon="34.84711075"><ele>735.4</ele><time>2013-11-22T07:37:23.0000000+00:00</time></trkpt><trkpt lat="30.66217423" lon="34.84714508"><ele>733.2</ele><time>2013-11-22T07:37:28.0000000+00:00</time></trkpt><trkpt lat="30.66228104" lon="34.84718704"><ele>731.8</ele><time>2013-11-22T07:37:33.0000000+00:00</time></trkpt><trkpt lat="30.66233635" lon="34.84721756"><ele>729.5</ele><time>2013-11-22T07:37:38.0000000+00:00</time></trkpt><trkpt lat="30.6624279" lon="34.84724426"><ele>729.6</ele><time>2013-11-22T07:37:43.0000000+00:00</time></trkpt><trkpt lat="30.66250038" lon="34.84728622"><ele>728.1</ele><time>2013-11-22T07:37:48.0000000+00:00</time></trkpt><trkpt lat="30.66255379" lon="34.84737396"><ele>727.5</ele><time>2013-11-22T07:37:53.0000000+00:00</time></trkpt><trkpt lat="30.66254425" lon="34.84750366"><ele>728.1</ele><time>2013-11-22T07:37:58.0000000+00:00</time></trkpt><trkpt lat="30.66249275" lon="34.84761429"><ele>729.4</ele><time>2013-11-22T07:38:03.0000000+00:00</time></trkpt><trkpt lat="30.66252136" lon="34.8477478"><ele>731.2</ele><time>2013-11-22T07:38:08.0000000+00:00</time></trkpt><trkpt lat="30.66251755" lon="34.84789276"><ele>731.0</ele><time>2013-11-22T07:38:13.0000000+00:00</time></trkpt><trkpt lat="30.66246986" lon="34.84803772"><ele>731.1</ele><time>2013-11-22T07:38:18.0000000+00:00</time></trkpt><trkpt lat="30.6624527" lon="34.84806061"><ele>729.8</ele><time>2013-11-22T07:38:23.0000000+00:00</time></trkpt><trkpt lat="30.66245079" lon="34.84806061"><ele>729.7</ele><time>2013-11-22T07:38:28.0000000+00:00</time></trkpt><trkpt lat="30.66245079" lon="34.84806061"><ele>729.6</ele><time>2013-11-22T07:38:33.0000000+00:00</time></trkpt><trkpt lat="30.66244888" lon="34.84806442"><ele>729.6</ele><time>2013-11-22T07:38:38.0000000+00:00</time></trkpt><trkpt lat="30.66244888" lon="34.84806442"><ele>729.5</ele><time>2013-11-22T07:38:43.0000000+00:00</time></trkpt><trkpt lat="30.66245079" lon="34.84806824"><ele>729.5</ele><time>2013-11-22T07:38:48.0000000+00:00</time></trkpt><trkpt lat="30.6624279" lon="34.84815979"><ele>730.5</ele><time>2013-11-22T07:38:53.0000000+00:00</time></trkpt><trkpt lat="30.6623745" lon="34.84824371"><ele>733.5</ele><time>2013-11-22T07:38:58.0000000+00:00</time></trkpt><trkpt lat="30.6622982" lon="34.84830475"><ele>734.3</ele><time>2013-11-22T07:39:03.0000000+00:00</time></trkpt><trkpt lat="30.6622982" lon="34.84843063"><ele>733.4</ele><time>2013-11-22T07:39:08.0000000+00:00</time></trkpt><trkpt lat="30.66230583" lon="34.84857941"><ele>733.6</ele><time>2013-11-22T07:39:13.0000000+00:00</time></trkpt><trkpt lat="30.66226959" lon="34.84872055"><ele>734.4</ele><time>2013-11-22T07:39:18.0000000+00:00</time></trkpt><trkpt lat="30.66223526" lon="34.84886169"><ele>737.0</ele><time>2013-11-22T07:39:23.0000000+00:00</time></trkpt><trkpt lat="30.66215324" lon="34.84900665"><ele>737.5</ele><time>2013-11-22T07:39:28.0000000+00:00</time></trkpt><trkpt lat="30.66220474" lon="34.84909439"><ele>737.8</ele><time>2013-11-22T07:39:33.0000000+00:00</time></trkpt><trkpt lat="30.66218948" lon="34.84919357"><ele>738.6</ele><time>2013-11-22T07:39:38.0000000+00:00</time></trkpt><trkpt lat="30.66207886" lon="34.84929657"><ele>740.0</ele><time>2013-11-22T07:39:43.0000000+00:00</time></trkpt><trkpt lat="30.66198158" lon="34.84939957"><ele>741.4</ele><time>2013-11-22T07:39:48.0000000+00:00</time></trkpt><trkpt lat="30.66202736" lon="34.84952164"><ele>741.3</ele><time>2013-11-22T07:39:53.0000000+00:00</time></trkpt><trkpt lat="30.66206169" lon="34.84966278"><ele>741.8</ele><time>2013-11-22T07:39:58.0000000+00:00</time></trkpt><trkpt lat="30.66199684" lon="34.84977341"><ele>742.7</ele><time>2013-11-22T07:40:03.0000000+00:00</time></trkpt><trkpt lat="30.66189766" lon="34.84988403"><ele>741.3</ele><time>2013-11-22T07:40:08.0000000+00:00</time></trkpt><trkpt lat="30.66187477" lon="34.85004425"><ele>739.0</ele><time>2013-11-22T07:40:13.0000000+00:00</time></trkpt><trkpt lat="30.66183853" lon="34.85018539"><ele>740.5</ele><time>2013-11-22T07:40:18.0000000+00:00</time></trkpt><trkpt lat="30.66175461" lon="34.85024262"><ele>738.9</ele><time>2013-11-22T07:40:23.0000000+00:00</time></trkpt><trkpt lat="30.66167069" lon="34.85032654"><ele>739.2</ele><time>2013-11-22T07:40:28.0000000+00:00</time></trkpt><trkpt lat="30.66164398" lon="34.85044861"><ele>738.8</ele><time>2013-11-22T07:40:33.0000000+00:00</time></trkpt><trkpt lat="30.6615448" lon="34.85053253"><ele>736.5</ele><time>2013-11-22T07:40:38.0000000+00:00</time></trkpt><trkpt lat="30.66143608" lon="34.85058975"><ele>736.4</ele><time>2013-11-22T07:40:43.0000000+00:00</time></trkpt><trkpt lat="30.66143608" lon="34.85060501"><ele>736.2</ele><time>2013-11-22T07:40:48.0000000+00:00</time></trkpt><trkpt lat="30.66143608" lon="34.85060501"><ele>736.2</ele><time>2013-11-22T07:40:53.0000000+00:00</time></trkpt><trkpt lat="30.66143608" lon="34.8506012"><ele>736.2</ele><time>2013-11-22T07:40:58.0000000+00:00</time></trkpt><trkpt lat="30.66143417" lon="34.85060501"><ele>736.2</ele><time>2013-11-22T07:41:03.0000000+00:00</time></trkpt><trkpt lat="30.66143227" lon="34.85061264"><ele>736.2</ele><time>2013-11-22T07:41:08.0000000+00:00</time></trkpt><trkpt lat="30.66143799" lon="34.85078049"><ele>736.7</ele><time>2013-11-22T07:41:13.0000000+00:00</time></trkpt><trkpt lat="30.66146088" lon="34.8508873"><ele>736.7</ele><time>2013-11-22T07:41:18.0000000+00:00</time></trkpt><trkpt lat="30.6614666" lon="34.85090637"><ele>737.4</ele><time>2013-11-22T07:41:23.0000000+00:00</time></trkpt><trkpt lat="30.66144371" lon="34.8509903"><ele>738.4</ele><time>2013-11-22T07:41:28.0000000+00:00</time></trkpt><trkpt lat="30.66139603" lon="34.85113907"><ele>740.0</ele><time>2013-11-22T07:41:33.0000000+00:00</time></trkpt><trkpt lat="30.66130066" lon="34.85134125"><ele>741.7</ele><time>2013-11-22T07:41:38.0000000+00:00</time></trkpt><trkpt lat="30.6612339" lon="34.85153961"><ele>742.4</ele><time>2013-11-22T07:41:43.0000000+00:00</time></trkpt><trkpt lat="30.66115379" lon="34.85171127"><ele>744.4</ele><time>2013-11-22T07:41:48.0000000+00:00</time></trkpt><trkpt lat="30.66114616" lon="34.85201263"><ele>742.9</ele><time>2013-11-22T07:41:53.0000000+00:00</time></trkpt><trkpt lat="30.66105461" lon="34.85236359"><ele>742.6</ele><time>2013-11-22T07:41:58.0000000+00:00</time></trkpt><trkpt lat="30.66096306" lon="34.85264587"><ele>740.7</ele><time>2013-11-22T07:42:03.0000000+00:00</time></trkpt><trkpt lat="30.66085243" lon="34.85285187"><ele>740.1</ele><time>2013-11-22T07:42:08.0000000+00:00</time></trkpt><trkpt lat="30.66078377" lon="34.85307312"><ele>740.0</ele><time>2013-11-22T07:42:13.0000000+00:00</time></trkpt><trkpt lat="30.66070366" lon="34.85330963"><ele>738.5</ele><time>2013-11-22T07:42:18.0000000+00:00</time></trkpt><trkpt lat="30.66061211" lon="34.85353851"><ele>738.0</ele><time>2013-11-22T07:42:23.0000000+00:00</time></trkpt><trkpt lat="30.66052628" lon="34.85373688"><ele>736.4</ele><time>2013-11-22T07:42:28.0000000+00:00</time></trkpt><trkpt lat="30.66048431" lon="34.85387039"><ele>737.6</ele><time>2013-11-22T07:42:33.0000000+00:00</time></trkpt><trkpt lat="30.66044235" lon="34.85406113"><ele>737.5</ele><time>2013-11-22T07:42:38.0000000+00:00</time></trkpt><trkpt lat="30.66038895" lon="34.85425949"><ele>736.9</ele><time>2013-11-22T07:42:43.0000000+00:00</time></trkpt><trkpt lat="30.66033745" lon="34.8544693"><ele>736.4</ele><time>2013-11-22T07:42:48.0000000+00:00</time></trkpt><trkpt lat="30.6602993" lon="34.85468292"><ele>736.9</ele><time>2013-11-22T07:42:53.0000000+00:00</time></trkpt><trkpt lat="30.66023064" lon="34.85490418"><ele>734.9</ele><time>2013-11-22T07:42:58.0000000+00:00</time></trkpt><trkpt lat="30.66014099" lon="34.85500336"><ele>734.3</ele><time>2013-11-22T07:43:03.0000000+00:00</time></trkpt><trkpt lat="30.66004944" lon="34.85508347"><ele>731.9</ele><time>2013-11-22T07:43:08.0000000+00:00</time></trkpt><trkpt lat="30.65994835" lon="34.85522461"><ele>731.1</ele><time>2013-11-22T07:43:13.0000000+00:00</time></trkpt><trkpt lat="30.65984726" lon="34.85543442"><ele>729.0</ele><time>2013-11-22T07:43:18.0000000+00:00</time></trkpt><trkpt lat="30.65964127" lon="34.85554504"><ele>727.5</ele><time>2013-11-22T07:43:23.0000000+00:00</time></trkpt><trkpt lat="30.65945816" lon="34.85556412"><ele>727.9</ele><time>2013-11-22T07:43:28.0000000+00:00</time></trkpt><trkpt lat="30.65925598" lon="34.85557938"><ele>728.6</ele><time>2013-11-22T07:43:33.0000000+00:00</time></trkpt><trkpt lat="30.65907097" lon="34.85556412"><ele>728.4</ele><time>2013-11-22T07:43:38.0000000+00:00</time></trkpt><trkpt lat="30.65888596" lon="34.85559845"><ele>728.4</ele><time>2013-11-22T07:43:43.0000000+00:00</time></trkpt><trkpt lat="30.65871811" lon="34.85569382"><ele>728.5</ele><time>2013-11-22T07:43:48.0000000+00:00</time></trkpt><trkpt lat="30.65859032" lon="34.85572434"><ele>727.8</ele><time>2013-11-22T07:43:53.0000000+00:00</time></trkpt><trkpt lat="30.6585598" lon="34.85575104"><ele>728.1</ele><time>2013-11-22T07:43:58.0000000+00:00</time></trkpt><trkpt lat="30.65855598" lon="34.85575104"><ele>728.3</ele><time>2013-11-22T07:44:03.0000000+00:00</time></trkpt><trkpt lat="30.65855598" lon="34.85575104"><ele>728.2</ele><time>2013-11-22T07:44:08.0000000+00:00</time></trkpt><trkpt lat="30.65855598" lon="34.85575104"><ele>728.2</ele><time>2013-11-22T07:44:13.0000000+00:00</time></trkpt><trkpt lat="30.65855598" lon="34.85575104"><ele>728.1</ele><time>2013-11-22T07:44:18.0000000+00:00</time></trkpt><trkpt lat="30.65855217" lon="34.85575867"><ele>728.1</ele><time>2013-11-22T07:44:23.0000000+00:00</time></trkpt><trkpt lat="30.65852928" lon="34.85591888"><ele>728.3</ele><time>2013-11-22T07:44:28.0000000+00:00</time></trkpt><trkpt lat="30.65856934" lon="34.85614014"><ele>729.4</ele><time>2013-11-22T07:44:33.0000000+00:00</time></trkpt><trkpt lat="30.65859222" lon="34.8563385"><ele>731.0</ele><time>2013-11-22T07:44:38.0000000+00:00</time></trkpt><trkpt lat="30.6585598" lon="34.85655212"><ele>733.4</ele><time>2013-11-22T07:44:43.0000000+00:00</time></trkpt><trkpt lat="30.65853691" lon="34.85673142"><ele>734.7</ele><time>2013-11-22T07:44:48.0000000+00:00</time></trkpt><trkpt lat="30.65848541" lon="34.85693359"><ele>734.6</ele><time>2013-11-22T07:44:53.0000000+00:00</time></trkpt><trkpt lat="30.65843201" lon="34.85717011"><ele>734.5</ele><time>2013-11-22T07:44:58.0000000+00:00</time></trkpt><trkpt lat="30.6584301" lon="34.85739899"><ele>734.7</ele><time>2013-11-22T07:45:03.0000000+00:00</time></trkpt><trkpt lat="30.65843964" lon="34.85764313"><ele>737.3</ele><time>2013-11-22T07:45:08.0000000+00:00</time></trkpt><trkpt lat="30.65846062" lon="34.8577919"><ele>741.0</ele><time>2013-11-22T07:45:13.0000000+00:00</time></trkpt><trkpt lat="30.6584816" lon="34.85792542"><ele>741.5</ele><time>2013-11-22T07:45:18.0000000+00:00</time></trkpt><trkpt lat="30.65854073" lon="34.85806656"><ele>741.0</ele><time>2013-11-22T07:45:23.0000000+00:00</time></trkpt><trkpt lat="30.65861702" lon="34.85821915"><ele>740.3</ele><time>2013-11-22T07:45:28.0000000+00:00</time></trkpt><trkpt lat="30.65869331" lon="34.85835648"><ele>739.9</ele><time>2013-11-22T07:45:33.0000000+00:00</time></trkpt><trkpt lat="30.65875435" lon="34.85849381"><ele>737.2</ele><time>2013-11-22T07:45:38.0000000+00:00</time></trkpt><trkpt lat="30.65881157" lon="34.85862732"><ele>736.7</ele><time>2013-11-22T07:45:43.0000000+00:00</time></trkpt><trkpt lat="30.65885925" lon="34.85873413"><ele>736.7</ele><time>2013-11-22T07:45:48.0000000+00:00</time></trkpt><trkpt lat="30.6588974" lon="34.85881043"><ele>736.3</ele><time>2013-11-22T07:45:53.0000000+00:00</time></trkpt><trkpt lat="30.65894508" lon="34.85889053"><ele>736.1</ele><time>2013-11-22T07:45:58.0000000+00:00</time></trkpt><trkpt lat="30.65900993" lon="34.85900879"><ele>736.6</ele><time>2013-11-22T07:46:03.0000000+00:00</time></trkpt><trkpt lat="30.65907478" lon="34.8591156"><ele>736.8</ele><time>2013-11-22T07:46:08.0000000+00:00</time></trkpt><trkpt lat="30.65915489" lon="34.85922623"><ele>737.0</ele><time>2013-11-22T07:46:13.0000000+00:00</time></trkpt><trkpt lat="30.65924835" lon="34.85935593"><ele>737.9</ele><time>2013-11-22T07:46:18.0000000+00:00</time></trkpt><trkpt lat="30.65934944" lon="34.859478"><ele>733.2</ele><time>2013-11-22T07:46:23.0000000+00:00</time></trkpt><trkpt lat="30.65940285" lon="34.85957718"><ele>731.5</ele><time>2013-11-22T07:46:28.0000000+00:00</time></trkpt><trkpt lat="30.65945053" lon="34.85969925"><ele>732.8</ele><time>2013-11-22T07:46:33.0000000+00:00</time></trkpt><trkpt lat="30.65946388" lon="34.85980988"><ele>733.8</ele><time>2013-11-22T07:46:38.0000000+00:00</time></trkpt><trkpt lat="30.65950584" lon="34.85994721"><ele>735.0</ele><time>2013-11-22T07:46:43.0000000+00:00</time></trkpt><trkpt lat="30.65955925" lon="34.86005783"><ele>738.0</ele><time>2013-11-22T07:46:48.0000000+00:00</time></trkpt><trkpt lat="30.65962982" lon="34.86016464"><ele>742.9</ele><time>2013-11-22T07:46:53.0000000+00:00</time></trkpt><trkpt lat="30.65970993" lon="34.86029053"><ele>743.6</ele><time>2013-11-22T07:46:58.0000000+00:00</time></trkpt><trkpt lat="30.65976906" lon="34.86039734"><ele>746.0</ele><time>2013-11-22T07:47:03.0000000+00:00</time></trkpt><trkpt lat="30.65981674" lon="34.86048126"><ele>744.9</ele><time>2013-11-22T07:47:08.0000000+00:00</time></trkpt><trkpt lat="30.6598835" lon="34.86056137"><ele>742.7</ele><time>2013-11-22T07:47:13.0000000+00:00</time></trkpt><trkpt lat="30.65996361" lon="34.86061096"><ele>742.1</ele><time>2013-11-22T07:47:18.0000000+00:00</time></trkpt><trkpt lat="30.66003609" lon="34.86065674"><ele>742.7</ele><time>2013-11-22T07:47:23.0000000+00:00</time></trkpt><trkpt lat="30.66013527" lon="34.86068726"><ele>741.2</ele><time>2013-11-22T07:47:28.0000000+00:00</time></trkpt><trkpt lat="30.66027451" lon="34.86068344"><ele>741.6</ele><time>2013-11-22T07:47:33.0000000+00:00</time></trkpt><trkpt lat="30.66048431" lon="34.86067581"><ele>740.4</ele><time>2013-11-22T07:47:38.0000000+00:00</time></trkpt><trkpt lat="30.66075325" lon="34.86071396"><ele>739.1</ele><time>2013-11-22T07:47:43.0000000+00:00</time></trkpt><trkpt lat="30.66098404" lon="34.8608551"><ele>738.4</ele><time>2013-11-22T07:47:48.0000000+00:00</time></trkpt><trkpt lat="30.66114426" lon="34.86104202"><ele>737.4</ele><time>2013-11-22T07:47:53.0000000+00:00</time></trkpt><trkpt lat="30.66120911" lon="34.86114121"><ele>737.0</ele><time>2013-11-22T07:47:58.0000000+00:00</time></trkpt><trkpt lat="30.66124153" lon="34.8612175"><ele>736.8</ele><time>2013-11-22T07:48:03.0000000+00:00</time></trkpt><trkpt lat="30.66124153" lon="34.8612175"><ele>737.0</ele><time>2013-11-22T07:48:08.0000000+00:00</time></trkpt><trkpt lat="30.66124153" lon="34.8612175"><ele>737.0</ele><time>2013-11-22T07:48:13.0000000+00:00</time></trkpt><trkpt lat="30.66123962" lon="34.86124802"><ele>736.9</ele><time>2013-11-22T07:48:18.0000000+00:00</time></trkpt><trkpt lat="30.66125298" lon="34.86136246"><ele>737.3</ele><time>2013-11-22T07:48:23.0000000+00:00</time></trkpt><trkpt lat="30.66122437" lon="34.86149979"><ele>738.7</ele><time>2013-11-22T07:48:28.0000000+00:00</time></trkpt><trkpt lat="30.66114044" lon="34.86169052"><ele>740.7</ele><time>2013-11-22T07:48:33.0000000+00:00</time></trkpt><trkpt lat="30.66112328" lon="34.86181641"><ele>739.8</ele><time>2013-11-22T07:48:38.0000000+00:00</time></trkpt><trkpt lat="30.66116905" lon="34.86204147"><ele>741.2</ele><time>2013-11-22T07:48:43.0000000+00:00</time></trkpt><trkpt lat="30.6611805" lon="34.86231232"><ele>741.8</ele><time>2013-11-22T07:48:48.0000000+00:00</time></trkpt><trkpt lat="30.6612072" lon="34.86253738"><ele>741.3</ele><time>2013-11-22T07:48:53.0000000+00:00</time></trkpt><trkpt lat="30.66127586" lon="34.86278915"><ele>740.6</ele><time>2013-11-22T07:48:58.0000000+00:00</time></trkpt><trkpt lat="30.66134262" lon="34.86301804"><ele>740.2</ele><time>2013-11-22T07:49:03.0000000+00:00</time></trkpt><trkpt lat="30.66140366" lon="34.86320114"><ele>738.8</ele><time>2013-11-22T07:49:08.0000000+00:00</time></trkpt><trkpt lat="30.66145134" lon="34.86339188"><ele>739.9</ele><time>2013-11-22T07:49:13.0000000+00:00</time></trkpt><trkpt lat="30.66146469" lon="34.86354446"><ele>740.2</ele><time>2013-11-22T07:49:18.0000000+00:00</time></trkpt><trkpt lat="30.66150665" lon="34.86369705"><ele>738.5</ele><time>2013-11-22T07:49:23.0000000+00:00</time></trkpt><trkpt lat="30.66152573" lon="34.86389542"><ele>739.1</ele><time>2013-11-22T07:49:28.0000000+00:00</time></trkpt><trkpt lat="30.66157913" lon="34.86408997"><ele>736.8</ele><time>2013-11-22T07:49:33.0000000+00:00</time></trkpt><trkpt lat="30.66163063" lon="34.86428452"><ele>735.9</ele><time>2013-11-22T07:49:38.0000000+00:00</time></trkpt><trkpt lat="30.66167259" lon="34.86448669"><ele>734.7</ele><time>2013-11-22T07:49:43.0000000+00:00</time></trkpt><trkpt lat="30.66171074" lon="34.86460114"><ele>735.6</ele><time>2013-11-22T07:49:48.0000000+00:00</time></trkpt><trkpt lat="30.66176415" lon="34.86473465"><ele>737.1</ele><time>2013-11-22T07:49:53.0000000+00:00</time></trkpt><trkpt lat="30.66184235" lon="34.86487198"><ele>737.4</ele><time>2013-11-22T07:49:58.0000000+00:00</time></trkpt><trkpt lat="30.66194916" lon="34.86498642"><ele>737.4</ele><time>2013-11-22T07:50:03.0000000+00:00</time></trkpt><trkpt lat="30.66205025" lon="34.86510849"><ele>735.2</ele><time>2013-11-22T07:50:08.0000000+00:00</time></trkpt><trkpt lat="30.66211891" lon="34.8652153"><ele>735.5</ele><time>2013-11-22T07:50:13.0000000+00:00</time></trkpt><trkpt lat="30.66219711" lon="34.86532211"><ele>735.1</ele><time>2013-11-22T07:50:18.0000000+00:00</time></trkpt><trkpt lat="30.66226769" lon="34.86544037"><ele>736.6</ele><time>2013-11-22T07:50:23.0000000+00:00</time></trkpt><trkpt lat="30.66233444" lon="34.865551"><ele>737.8</ele><time>2013-11-22T07:50:28.0000000+00:00</time></trkpt><trkpt lat="30.66236877" lon="34.86562347"><ele>738.3</ele><time>2013-11-22T07:50:33.0000000+00:00</time></trkpt><trkpt lat="30.66244316" lon="34.86570358"><ele>738.4</ele><time>2013-11-22T07:50:38.0000000+00:00</time></trkpt><trkpt lat="30.66249657" lon="34.86574173"><ele>739.4</ele><time>2013-11-22T07:50:43.0000000+00:00</time></trkpt><trkpt lat="30.66255951" lon="34.86581039"><ele>739.6</ele><time>2013-11-22T07:50:48.0000000+00:00</time></trkpt><trkpt lat="30.66262436" lon="34.86590195"><ele>739.8</ele><time>2013-11-22T07:50:53.0000000+00:00</time></trkpt><trkpt lat="30.66270256" lon="34.86601257"><ele>740.5</ele><time>2013-11-22T07:50:58.0000000+00:00</time></trkpt><trkpt lat="30.66278458" lon="34.86611939"><ele>739.7</ele><time>2013-11-22T07:51:03.0000000+00:00</time></trkpt><trkpt lat="30.66284943" lon="34.86621475"><ele>740.6</ele><time>2013-11-22T07:51:08.0000000+00:00</time></trkpt><trkpt lat="30.66290855" lon="34.86634445"><ele>740.7</ele><time>2013-11-22T07:51:13.0000000+00:00</time></trkpt><trkpt lat="30.66296196" lon="34.86644745"><ele>743.1</ele><time>2013-11-22T07:51:18.0000000+00:00</time></trkpt><trkpt lat="30.66301346" lon="34.86657333"><ele>743.3</ele><time>2013-11-22T07:51:23.0000000+00:00</time></trkpt><trkpt lat="30.66304207" lon="34.866642"><ele>745.1</ele><time>2013-11-22T07:51:28.0000000+00:00</time></trkpt><trkpt lat="30.66305924" lon="34.86672974"><ele>746.7</ele><time>2013-11-22T07:51:33.0000000+00:00</time></trkpt><trkpt lat="30.66309166" lon="34.86680222"><ele>747.9</ele><time>2013-11-22T07:51:38.0000000+00:00</time></trkpt><trkpt lat="30.6631012" lon="34.86686707"><ele>747.8</ele><time>2013-11-22T07:51:43.0000000+00:00</time></trkpt><trkpt lat="30.66312027" lon="34.86695099"><ele>747.3</ele><time>2013-11-22T07:51:48.0000000+00:00</time></trkpt><trkpt lat="30.66313744" lon="34.86704254"><ele>750.0</ele><time>2013-11-22T07:51:53.0000000+00:00</time></trkpt><trkpt lat="30.66313553" lon="34.86711884"><ele>752.3</ele><time>2013-11-22T07:51:58.0000000+00:00</time></trkpt><trkpt lat="30.66316414" lon="34.86719132"><ele>754.6</ele><time>2013-11-22T07:52:03.0000000+00:00</time></trkpt><trkpt lat="30.66319847" lon="34.86725617"><ele>756.3</ele><time>2013-11-22T07:52:08.0000000+00:00</time></trkpt><trkpt lat="30.66321755" lon="34.86732101"><ele>757.9</ele><time>2013-11-22T07:52:13.0000000+00:00</time></trkpt><trkpt lat="30.66324234" lon="34.86738968"><ele>758.4</ele><time>2013-11-22T07:52:18.0000000+00:00</time></trkpt><trkpt lat="30.66325569" lon="34.86745453"><ele>759.9</ele><time>2013-11-22T07:52:23.0000000+00:00</time></trkpt><trkpt lat="30.66327095" lon="34.8675499"><ele>760.9</ele><time>2013-11-22T07:52:28.0000000+00:00</time></trkpt><trkpt lat="30.66329956" lon="34.86764908"><ele>762.6</ele><time>2013-11-22T07:52:33.0000000+00:00</time></trkpt><trkpt lat="30.66333389" lon="34.86777878"><ele>761.8</ele><time>2013-11-22T07:52:38.0000000+00:00</time></trkpt><trkpt lat="30.66339111" lon="34.86787033"><ele>760.5</ele><time>2013-11-22T07:52:43.0000000+00:00</time></trkpt><trkpt lat="30.66341972" lon="34.8679657"><ele>761.2</ele><time>2013-11-22T07:52:48.0000000+00:00</time></trkpt><trkpt lat="30.66342163" lon="34.86807251"><ele>761.2</ele><time>2013-11-22T07:52:53.0000000+00:00</time></trkpt><trkpt lat="30.66344452" lon="34.86822128"><ele>758.1</ele><time>2013-11-22T07:52:58.0000000+00:00</time></trkpt><trkpt lat="30.66349602" lon="34.8683815"><ele>758.5</ele><time>2013-11-22T07:53:03.0000000+00:00</time></trkpt><trkpt lat="30.66352272" lon="34.8685112"><ele>761.7</ele><time>2013-11-22T07:53:08.0000000+00:00</time></trkpt><trkpt lat="30.66356468" lon="34.86863327"><ele>762.6</ele><time>2013-11-22T07:53:13.0000000+00:00</time></trkpt><trkpt lat="30.66361237" lon="34.8687439"><ele>761.8</ele><time>2013-11-22T07:53:18.0000000+00:00</time></trkpt><trkpt lat="30.6636734" lon="34.86883164"><ele>759.6</ele><time>2013-11-22T07:53:23.0000000+00:00</time></trkpt><trkpt lat="30.66373253" lon="34.86898041"><ele>759.4</ele><time>2013-11-22T07:53:28.0000000+00:00</time></trkpt><trkpt lat="30.66373444" lon="34.86910248"><ele>761.9</ele><time>2013-11-22T07:53:33.0000000+00:00</time></trkpt><trkpt lat="30.66370392" lon="34.86922455"><ele>759.4</ele><time>2013-11-22T07:53:38.0000000+00:00</time></trkpt><trkpt lat="30.66369247" lon="34.8693428"><ele>759.6</ele><time>2013-11-22T07:53:43.0000000+00:00</time></trkpt><trkpt lat="30.66368675" lon="34.86933899"><ele>757.9</ele><time>2013-11-22T07:53:48.0000000+00:00</time></trkpt><trkpt lat="30.66368675" lon="34.86933518"><ele>757.8</ele><time>2013-11-22T07:53:53.0000000+00:00</time></trkpt><trkpt lat="30.66368294" lon="34.86933518"><ele>757.7</ele><time>2013-11-22T07:53:58.0000000+00:00</time></trkpt><trkpt lat="30.66367912" lon="34.86940384"><ele>758.3</ele><time>2013-11-22T07:54:03.0000000+00:00</time></trkpt><trkpt lat="30.66368485" lon="34.86953735"><ele>759.4</ele><time>2013-11-22T07:54:08.0000000+00:00</time></trkpt><trkpt lat="30.66371918" lon="34.86971664"><ele>757.8</ele><time>2013-11-22T07:54:13.0000000+00:00</time></trkpt><trkpt lat="30.6636982" lon="34.86985016"><ele>759.4</ele><time>2013-11-22T07:54:18.0000000+00:00</time></trkpt><trkpt lat="30.66364098" lon="34.87001801"><ele>757.8</ele><time>2013-11-22T07:54:23.0000000+00:00</time></trkpt><trkpt lat="30.66356278" lon="34.87020874"><ele>757.7</ele><time>2013-11-22T07:54:28.0000000+00:00</time></trkpt><trkpt lat="30.66353989" lon="34.87041473"><ele>757.2</ele><time>2013-11-22T07:54:33.0000000+00:00</time></trkpt><trkpt lat="30.66358566" lon="34.87056732"><ele>756.8</ele><time>2013-11-22T07:54:38.0000000+00:00</time></trkpt><trkpt lat="30.66361809" lon="34.87068558"><ele>758.4</ele><time>2013-11-22T07:54:43.0000000+00:00</time></trkpt><trkpt lat="30.66368675" lon="34.87076569"><ele>759.3</ele><time>2013-11-22T07:54:48.0000000+00:00</time></trkpt><trkpt lat="30.66373825" lon="34.87088013"><ele>759.3</ele><time>2013-11-22T07:54:53.0000000+00:00</time></trkpt><trkpt lat="30.66375351" lon="34.87095642"><ele>762.4</ele><time>2013-11-22T07:54:58.0000000+00:00</time></trkpt><trkpt lat="30.6637764" lon="34.87103272"><ele>761.1</ele><time>2013-11-22T07:55:03.0000000+00:00</time></trkpt><trkpt lat="30.66383362" lon="34.8711319"><ele>759.0</ele><time>2013-11-22T07:55:08.0000000+00:00</time></trkpt><trkpt lat="30.66386414" lon="34.87121201"><ele>757.1</ele><time>2013-11-22T07:55:13.0000000+00:00</time></trkpt><trkpt lat="30.66388702" lon="34.87132263"><ele>755.7</ele><time>2013-11-22T07:55:18.0000000+00:00</time></trkpt><trkpt lat="30.66388893" lon="34.87145233"><ele>756.1</ele><time>2013-11-22T07:55:23.0000000+00:00</time></trkpt><trkpt lat="30.66390419" lon="34.87160492"><ele>755.2</ele><time>2013-11-22T07:55:28.0000000+00:00</time></trkpt><trkpt lat="30.6639595" lon="34.87178803"><ele>752.7</ele><time>2013-11-22T07:55:33.0000000+00:00</time></trkpt><trkpt lat="30.66400337" lon="34.87192917"><ele>754.9</ele><time>2013-11-22T07:55:38.0000000+00:00</time></trkpt><trkpt lat="30.66402817" lon="34.87207413"><ele>756.4</ele><time>2013-11-22T07:55:43.0000000+00:00</time></trkpt><trkpt lat="30.66402435" lon="34.87221909"><ele>758.4</ele><time>2013-11-22T07:55:48.0000000+00:00</time></trkpt><trkpt lat="30.66400719" lon="34.87239075"><ele>758.6</ele><time>2013-11-22T07:55:53.0000000+00:00</time></trkpt><trkpt lat="30.6640625" lon="34.87256241"><ele>759.4</ele><time>2013-11-22T07:55:58.0000000+00:00</time></trkpt><trkpt lat="30.66416931" lon="34.87273407"><ele>757.3</ele><time>2013-11-22T07:56:03.0000000+00:00</time></trkpt><trkpt lat="30.66425133" lon="34.87287521"><ele>755.2</ele><time>2013-11-22T07:56:08.0000000+00:00</time></trkpt><trkpt lat="30.66432381" lon="34.87301254"><ele>750.9</ele><time>2013-11-22T07:56:13.0000000+00:00</time></trkpt><trkpt lat="30.66432953" lon="34.87309265"><ele>752.7</ele><time>2013-11-22T07:56:18.0000000+00:00</time></trkpt><trkpt lat="30.66431427" lon="34.87310028"><ele>752.6</ele><time>2013-11-22T07:56:23.0000000+00:00</time></trkpt><trkpt lat="30.66431427" lon="34.87310028"><ele>752.6</ele><time>2013-11-22T07:56:28.0000000+00:00</time></trkpt><trkpt lat="30.66431046" lon="34.87309647"><ele>752.7</ele><time>2013-11-22T07:56:33.0000000+00:00</time></trkpt><trkpt lat="30.66431046" lon="34.87309647"><ele>752.7</ele><time>2013-11-22T07:56:38.0000000+00:00</time></trkpt><trkpt lat="30.66431236" lon="34.87311173"><ele>752.6</ele><time>2013-11-22T07:56:43.0000000+00:00</time></trkpt><trkpt lat="30.66427422" lon="34.87316513"><ele>752.8</ele><time>2013-11-22T07:56:48.0000000+00:00</time></trkpt><trkpt lat="30.66418266" lon="34.87327576"><ele>753.3</ele><time>2013-11-22T07:56:53.0000000+00:00</time></trkpt><trkpt lat="30.66406822" lon="34.87335587"><ele>752.5</ele><time>2013-11-22T07:56:58.0000000+00:00</time></trkpt><trkpt lat="30.66396904" lon="34.87343979"><ele>751.1</ele><time>2013-11-22T07:57:03.0000000+00:00</time></trkpt><trkpt lat="30.66388321" lon="34.87351227"><ele>750.3</ele><time>2013-11-22T07:57:08.0000000+00:00</time></trkpt><trkpt lat="30.66381836" lon="34.87356186"><ele>750.5</ele><time>2013-11-22T07:57:13.0000000+00:00</time></trkpt><trkpt lat="30.66381455" lon="34.87359619"><ele>750.8</ele><time>2013-11-22T07:57:18.0000000+00:00</time></trkpt><trkpt lat="30.66379738" lon="34.87361527"><ele>750.9</ele><time>2013-11-22T07:57:23.0000000+00:00</time></trkpt><trkpt lat="30.66378593" lon="34.87363052"><ele>750.3</ele><time>2013-11-22T07:57:28.0000000+00:00</time></trkpt><trkpt lat="30.66378593" lon="34.87363815"><ele>749.6</ele><time>2013-11-22T07:57:33.0000000+00:00</time></trkpt><trkpt lat="30.66378593" lon="34.87363815"><ele>749.3</ele><time>2013-11-22T07:57:38.0000000+00:00</time></trkpt><trkpt lat="30.66378784" lon="34.87363815"><ele>749.1</ele><time>2013-11-22T07:57:43.0000000+00:00</time></trkpt><trkpt lat="30.66378975" lon="34.87364197"><ele>748.9</ele><time>2013-11-22T07:57:48.0000000+00:00</time></trkpt><trkpt lat="30.66378975" lon="34.87364197"><ele>748.9</ele><time>2013-11-22T07:57:53.0000000+00:00</time></trkpt><trkpt lat="30.66378975" lon="34.87364197"><ele>748.9</ele><time>2013-11-22T07:57:58.0000000+00:00</time></trkpt><trkpt lat="30.66378975" lon="34.87364197"><ele>748.9</ele><time>2013-11-22T07:58:03.0000000+00:00</time></trkpt><trkpt lat="30.66378975" lon="34.87364197"><ele>748.8</ele><time>2013-11-22T07:58:08.0000000+00:00</time></trkpt><trkpt lat="30.66378975" lon="34.87364197"><ele>748.8</ele><time>2013-11-22T07:58:13.0000000+00:00</time></trkpt><trkpt lat="30.66378975" lon="34.87363815"><ele>748.8</ele><time>2013-11-22T07:58:18.0000000+00:00</time></trkpt><trkpt lat="30.66378975" lon="34.87363815"><ele>748.8</ele><time>2013-11-22T07:58:23.0000000+00:00</time></trkpt><trkpt lat="30.66378975" lon="34.87363815"><ele>748.8</ele><time>2013-11-22T07:58:28.0000000+00:00</time></trkpt><trkpt lat="30.66378975" lon="34.87363815"><ele>748.8</ele><time>2013-11-22T07:58:33.0000000+00:00</time></trkpt><trkpt lat="30.66378975" lon="34.87363815"><ele>748.7</ele><time>2013-11-22T07:58:38.0000000+00:00</time></trkpt><trkpt lat="30.66378975" lon="34.87363815"><ele>748.7</ele><time>2013-11-22T07:58:43.0000000+00:00</time></trkpt><trkpt lat="30.66378975" lon="34.87363815"><ele>748.7</ele><time>2013-11-22T07:58:48.0000000+00:00</time></trkpt><trkpt lat="30.66378975" lon="34.87363815"><ele>748.7</ele><time>2013-11-22T07:58:53.0000000+00:00</time></trkpt><trkpt lat="30.66378975" lon="34.87363815"><ele>748.6</ele><time>2013-11-22T07:58:58.0000000+00:00</time></trkpt><trkpt lat="30.66378975" lon="34.87363815"><ele>748.6</ele><time>2013-11-22T07:59:03.0000000+00:00</time></trkpt><trkpt lat="30.66378975" lon="34.87363815"><ele>748.6</ele><time>2013-11-22T07:59:08.0000000+00:00</time></trkpt><trkpt lat="30.66379166" lon="34.87363815"><ele>748.5</ele><time>2013-11-22T07:59:13.0000000+00:00</time></trkpt><trkpt lat="30.66379166" lon="34.87363815"><ele>748.5</ele><time>2013-11-22T07:59:18.0000000+00:00</time></trkpt><trkpt lat="30.66379166" lon="34.87363815"><ele>748.5</ele><time>2013-11-22T07:59:23.0000000+00:00</time></trkpt><trkpt lat="30.66379166" lon="34.87363815"><ele>748.5</ele><time>2013-11-22T07:59:28.0000000+00:00</time></trkpt><trkpt lat="30.66379166" lon="34.87363815"><ele>748.5</ele><time>2013-11-22T07:59:33.0000000+00:00</time></trkpt><trkpt lat="30.66379166" lon="34.87363815"><ele>748.4</ele><time>2013-11-22T07:59:38.0000000+00:00</time></trkpt><trkpt lat="30.66379166" lon="34.87363815"><ele>748.4</ele><time>2013-11-22T07:59:43.0000000+00:00</time></trkpt><trkpt lat="30.66379166" lon="34.87363815"><ele>748.4</ele><time>2013-11-22T07:59:48.0000000+00:00</time></trkpt><trkpt lat="30.66379166" lon="34.87363815"><ele>748.4</ele><time>2013-11-22T07:59:53.0000000+00:00</time></trkpt><trkpt lat="30.66379166" lon="34.87363815"><ele>748.4</ele><time>2013-11-22T07:59:58.0000000+00:00</time></trkpt><trkpt lat="30.66379166" lon="34.87363815"><ele>748.3</ele><time>2013-11-22T08:00:03.0000000+00:00</time></trkpt><trkpt lat="30.66379166" lon="34.87363815"><ele>748.3</ele><time>2013-11-22T08:00:08.0000000+00:00</time></trkpt><trkpt lat="30.66379166" lon="34.87363815"><ele>748.3</ele><time>2013-11-22T08:00:13.0000000+00:00</time></trkpt><trkpt lat="30.66379166" lon="34.87363815"><ele>748.3</ele><time>2013-11-22T08:00:18.0000000+00:00</time></trkpt><trkpt lat="30.66379356" lon="34.87363815"><ele>748.3</ele><time>2013-11-22T08:00:23.0000000+00:00</time></trkpt><trkpt lat="30.66379356" lon="34.87363815"><ele>748.3</ele><time>2013-11-22T08:00:28.0000000+00:00</time></trkpt><trkpt lat="30.66379166" lon="34.87363815"><ele>748.4</ele><time>2013-11-22T08:00:33.0000000+00:00</time></trkpt><trkpt lat="30.66379166" lon="34.87363815"><ele>748.4</ele><time>2013-11-22T08:00:38.0000000+00:00</time></trkpt><trkpt lat="30.66379166" lon="34.87363815"><ele>748.4</ele><time>2013-11-22T08:00:43.0000000+00:00</time></trkpt><trkpt lat="30.66378975" lon="34.87363815"><ele>748.4</ele><time>2013-11-22T08:00:48.0000000+00:00</time></trkpt><trkpt lat="30.66378975" lon="34.87363815"><ele>748.4</ele><time>2013-11-22T08:00:53.0000000+00:00</time></trkpt><trkpt lat="30.66378975" lon="34.87363815"><ele>748.4</ele><time>2013-11-22T08:00:58.0000000+00:00</time></trkpt><trkpt lat="30.66378975" lon="34.87363815"><ele>748.4</ele><time>2013-11-22T08:01:03.0000000+00:00</time></trkpt><trkpt lat="30.66378975" lon="34.87363815"><ele>748.4</ele><time>2013-11-22T08:01:08.0000000+00:00</time></trkpt><trkpt lat="30.66378975" lon="34.87363815"><ele>748.4</ele><time>2013-11-22T08:01:13.0000000+00:00</time></trkpt><trkpt lat="30.66378975" lon="34.87363815"><ele>748.4</ele><time>2013-11-22T08:01:18.0000000+00:00</time></trkpt><trkpt lat="30.66378975" lon="34.87363815"><ele>748.4</ele><time>2013-11-22T08:01:23.0000000+00:00</time></trkpt><trkpt lat="30.66378975" lon="34.87363815"><ele>748.4</ele><time>2013-11-22T08:01:28.0000000+00:00</time></trkpt><trkpt lat="30.66378975" lon="34.87363815"><ele>748.5</ele><time>2013-11-22T08:01:33.0000000+00:00</time></trkpt><trkpt lat="30.66378784" lon="34.87363815"><ele>748.5</ele><time>2013-11-22T08:01:38.0000000+00:00</time></trkpt><trkpt lat="30.66378784" lon="34.87363815"><ele>748.5</ele><time>2013-11-22T08:01:43.0000000+00:00</time></trkpt><trkpt lat="30.66378784" lon="34.87363815"><ele>748.5</ele><time>2013-11-22T08:01:48.0000000+00:00</time></trkpt><trkpt lat="30.66378784" lon="34.87363815"><ele>748.5</ele><time>2013-11-22T08:01:53.0000000+00:00</time></trkpt><trkpt lat="30.66378784" lon="34.87363815"><ele>748.5</ele><time>2013-11-22T08:01:58.0000000+00:00</time></trkpt><trkpt lat="30.66378784" lon="34.87363815"><ele>748.5</ele><time>2013-11-22T08:02:03.0000000+00:00</time></trkpt><trkpt lat="30.66378784" lon="34.87363815"><ele>748.5</ele><time>2013-11-22T08:02:08.0000000+00:00</time></trkpt><trkpt lat="30.66378784" lon="34.87363815"><ele>748.5</ele><time>2013-11-22T08:02:13.0000000+00:00</time></trkpt><trkpt lat="30.66378784" lon="34.87363815"><ele>748.5</ele><time>2013-11-22T08:02:18.0000000+00:00</time></trkpt><trkpt lat="30.66378784" lon="34.87363815"><ele>748.5</ele><time>2013-11-22T08:02:23.0000000+00:00</time></trkpt><trkpt lat="30.66378784" lon="34.87363815"><ele>748.5</ele><time>2013-11-22T08:02:28.0000000+00:00</time></trkpt><trkpt lat="30.66378784" lon="34.87363815"><ele>748.5</ele><time>2013-11-22T08:02:33.0000000+00:00</time></trkpt><trkpt lat="30.66378784" lon="34.87363815"><ele>748.5</ele><time>2013-11-22T08:02:38.0000000+00:00</time></trkpt><trkpt lat="30.66378784" lon="34.87363815"><ele>748.5</ele><time>2013-11-22T08:02:43.0000000+00:00</time></trkpt><trkpt lat="30.66378593" lon="34.87363815"><ele>748.5</ele><time>2013-11-22T08:02:48.0000000+00:00</time></trkpt><trkpt lat="30.66378593" lon="34.87363815"><ele>748.6</ele><time>2013-11-22T08:02:53.0000000+00:00</time></trkpt><trkpt lat="30.66378593" lon="34.87363815"><ele>748.6</ele><time>2013-11-22T08:02:58.0000000+00:00</time></trkpt><trkpt lat="30.66378593" lon="34.87363815"><ele>748.5</ele><time>2013-11-22T08:03:03.0000000+00:00</time></trkpt><trkpt lat="30.66378593" lon="34.87363434"><ele>748.6</ele><time>2013-11-22T08:03:08.0000000+00:00</time></trkpt><trkpt lat="30.66378593" lon="34.87363434"><ele>748.6</ele><time>2013-11-22T08:03:13.0000000+00:00</time></trkpt><trkpt lat="30.66378593" lon="34.87363434"><ele>748.6</ele><time>2013-11-22T08:03:18.0000000+00:00</time></trkpt><trkpt lat="30.66378593" lon="34.87363434"><ele>748.6</ele><time>2013-11-22T08:03:23.0000000+00:00</time></trkpt><trkpt lat="30.66378593" lon="34.87363434"><ele>748.6</ele><time>2013-11-22T08:03:28.0000000+00:00</time></trkpt><trkpt lat="30.66378593" lon="34.87363434"><ele>748.6</ele><time>2013-11-22T08:03:33.0000000+00:00</time></trkpt><trkpt lat="30.66378593" lon="34.87363434"><ele>748.6</ele><time>2013-11-22T08:03:38.0000000+00:00</time></trkpt><trkpt lat="30.66378593" lon="34.87363434"><ele>748.6</ele><time>2013-11-22T08:03:43.0000000+00:00</time></trkpt><trkpt lat="30.66378593" lon="34.87363434"><ele>748.6</ele><time>2013-11-22T08:03:48.0000000+00:00</time></trkpt><trkpt lat="30.66378593" lon="34.87363434"><ele>748.6</ele><time>2013-11-22T08:03:53.0000000+00:00</time></trkpt><trkpt lat="30.66378593" lon="34.87363434"><ele>748.6</ele><time>2013-11-22T08:03:58.0000000+00:00</time></trkpt><trkpt lat="30.66378593" lon="34.87363434"><ele>748.6</ele><time>2013-11-22T08:04:03.0000000+00:00</time></trkpt><trkpt lat="30.66378593" lon="34.87363434"><ele>748.6</ele><time>2013-11-22T08:04:08.0000000+00:00</time></trkpt><trkpt lat="30.66378593" lon="34.87363434"><ele>748.6</ele><time>2013-11-22T08:04:13.0000000+00:00</time></trkpt><trkpt lat="30.66378593" lon="34.87363434"><ele>748.6</ele><time>2013-11-22T08:04:18.0000000+00:00</time></trkpt><trkpt lat="30.66378593" lon="34.87363434"><ele>748.6</ele><time>2013-11-22T08:04:23.0000000+00:00</time></trkpt><trkpt lat="30.66378593" lon="34.87363434"><ele>748.6</ele><time>2013-11-22T08:04:28.0000000+00:00</time></trkpt><trkpt lat="30.66378593" lon="34.87363434"><ele>748.6</ele><time>2013-11-22T08:04:33.0000000+00:00</time></trkpt><trkpt lat="30.66378593" lon="34.87363434"><ele>748.6</ele><time>2013-11-22T08:04:38.0000000+00:00</time></trkpt><trkpt lat="30.66378593" lon="34.87363434"><ele>748.6</ele><time>2013-11-22T08:04:43.0000000+00:00</time></trkpt><trkpt lat="30.66378593" lon="34.87363434"><ele>748.6</ele><time>2013-11-22T08:04:48.0000000+00:00</time></trkpt><trkpt lat="30.66378593" lon="34.87363434"><ele>748.6</ele><time>2013-11-22T08:04:53.0000000+00:00</time></trkpt><trkpt lat="30.66378593" lon="34.87363434"><ele>748.6</ele><time>2013-11-22T08:04:58.0000000+00:00</time></trkpt><trkpt lat="30.66378593" lon="34.87363434"><ele>748.6</ele><time>2013-11-22T08:05:03.0000000+00:00</time></trkpt><trkpt lat="30.66378593" lon="34.87363434"><ele>748.6</ele><time>2013-11-22T08:05:08.0000000+00:00</time></trkpt><trkpt lat="30.66378784" lon="34.87363434"><ele>748.6</ele><time>2013-11-22T08:05:13.0000000+00:00</time></trkpt><trkpt lat="30.66378784" lon="34.87363434"><ele>748.6</ele><time>2013-11-22T08:05:18.0000000+00:00</time></trkpt><trkpt lat="30.66378784" lon="34.87363434"><ele>748.7</ele><time>2013-11-22T08:05:23.0000000+00:00</time></trkpt><trkpt lat="30.66378784" lon="34.87363434"><ele>748.7</ele><time>2013-11-22T08:05:28.0000000+00:00</time></trkpt><trkpt lat="30.66378784" lon="34.87363434"><ele>748.7</ele><time>2013-11-22T08:05:33.0000000+00:00</time></trkpt><trkpt lat="30.66378784" lon="34.87363434"><ele>748.7</ele><time>2013-11-22T08:05:38.0000000+00:00</time></trkpt><trkpt lat="30.66378784" lon="34.87363434"><ele>748.7</ele><time>2013-11-22T08:05:43.0000000+00:00</time></trkpt><trkpt lat="30.66378784" lon="34.87363434"><ele>748.7</ele><time>2013-11-22T08:05:48.0000000+00:00</time></trkpt><trkpt lat="30.66378784" lon="34.87363434"><ele>748.7</ele><time>2013-11-22T08:05:53.0000000+00:00</time></trkpt><trkpt lat="30.66378784" lon="34.87363434"><ele>748.7</ele><time>2013-11-22T08:05:58.0000000+00:00</time></trkpt><trkpt lat="30.66378784" lon="34.87363434"><ele>748.7</ele><time>2013-11-22T08:06:03.0000000+00:00</time></trkpt><trkpt lat="30.66378784" lon="34.87363434"><ele>748.7</ele><time>2013-11-22T08:06:08.0000000+00:00</time></trkpt><trkpt lat="30.66378784" lon="34.87363434"><ele>748.7</ele><time>2013-11-22T08:06:13.0000000+00:00</time></trkpt><trkpt lat="30.66378784" lon="34.87363434"><ele>748.7</ele><time>2013-11-22T08:06:18.0000000+00:00</time></trkpt><trkpt lat="30.66378784" lon="34.87363434"><ele>748.7</ele><time>2013-11-22T08:06:23.0000000+00:00</time></trkpt><trkpt lat="30.66378784" lon="34.87363434"><ele>748.7</ele><time>2013-11-22T08:06:28.0000000+00:00</time></trkpt><trkpt lat="30.66378784" lon="34.87363434"><ele>748.7</ele><time>2013-11-22T08:06:33.0000000+00:00</time></trkpt><trkpt lat="30.66378784" lon="34.87363434"><ele>748.7</ele><time>2013-11-22T08:06:38.0000000+00:00</time></trkpt><trkpt lat="30.66378784" lon="34.87363434"><ele>748.7</ele><time>2013-11-22T08:06:43.0000000+00:00</time></trkpt><trkpt lat="30.66378784" lon="34.87363434"><ele>748.7</ele><time>2013-11-22T08:06:48.0000000+00:00</time></trkpt><trkpt lat="30.66378784" lon="34.87363434"><ele>748.7</ele><time>2013-11-22T08:06:53.0000000+00:00</time></trkpt><trkpt lat="30.66378784" lon="34.87363434"><ele>748.7</ele><time>2013-11-22T08:06:58.0000000+00:00</time></trkpt><trkpt lat="30.66378784" lon="34.87363434"><ele>748.7</ele><time>2013-11-22T08:07:03.0000000+00:00</time></trkpt><trkpt lat="30.66378784" lon="34.87363434"><ele>748.7</ele><time>2013-11-22T08:07:08.0000000+00:00</time></trkpt><trkpt lat="30.66378784" lon="34.87363434"><ele>748.7</ele><time>2013-11-22T08:07:13.0000000+00:00</time></trkpt><trkpt lat="30.66378784" lon="34.87363434"><ele>748.7</ele><time>2013-11-22T08:07:18.0000000+00:00</time></trkpt><trkpt lat="30.66378784" lon="34.87363434"><ele>748.7</ele><time>2013-11-22T08:07:23.0000000+00:00</time></trkpt><trkpt lat="30.66378784" lon="34.87363434"><ele>748.7</ele><time>2013-11-22T08:07:28.0000000+00:00</time></trkpt><trkpt lat="30.66378975" lon="34.87363434"><ele>748.7</ele><time>2013-11-22T08:07:33.0000000+00:00</time></trkpt><trkpt lat="30.66378975" lon="34.87363434"><ele>748.7</ele><time>2013-11-22T08:07:38.0000000+00:00</time></trkpt><trkpt lat="30.66378975" lon="34.87363434"><ele>748.7</ele><time>2013-11-22T08:07:43.0000000+00:00</time></trkpt><trkpt lat="30.66378975" lon="34.87363434"><ele>748.7</ele><time>2013-11-22T08:07:48.0000000+00:00</time></trkpt><trkpt lat="30.66378975" lon="34.87363434"><ele>748.7</ele><time>2013-11-22T08:07:53.0000000+00:00</time></trkpt><trkpt lat="30.66378975" lon="34.87363434"><ele>748.7</ele><time>2013-11-22T08:07:58.0000000+00:00</time></trkpt><trkpt lat="30.66378975" lon="34.87363434"><ele>748.7</ele><time>2013-11-22T08:08:03.0000000+00:00</time></trkpt><trkpt lat="30.66378975" lon="34.87363815"><ele>748.7</ele><time>2013-11-22T08:08:08.0000000+00:00</time></trkpt><trkpt lat="30.66378975" lon="34.87363815"><ele>748.7</ele><time>2013-11-22T08:08:13.0000000+00:00</time></trkpt><trkpt lat="30.66378975" lon="34.87363815"><ele>748.7</ele><time>2013-11-22T08:08:18.0000000+00:00</time></trkpt><trkpt lat="30.66378975" lon="34.87363815"><ele>748.7</ele><time>2013-11-22T08:08:23.0000000+00:00</time></trkpt><trkpt lat="30.66378975" lon="34.87363815"><ele>748.7</ele><time>2013-11-22T08:08:28.0000000+00:00</time></trkpt><trkpt lat="30.66378975" lon="34.87363815"><ele>748.7</ele><time>2013-11-22T08:08:33.0000000+00:00</time></trkpt><trkpt lat="30.66378975" lon="34.87363815"><ele>748.7</ele><time>2013-11-22T08:08:38.0000000+00:00</time></trkpt><trkpt lat="30.66378975" lon="34.87363815"><ele>748.7</ele><time>2013-11-22T08:08:43.0000000+00:00</time></trkpt><trkpt lat="30.66378975" lon="34.87363815"><ele>748.7</ele><time>2013-11-22T08:08:48.0000000+00:00</time></trkpt><trkpt lat="30.66378975" lon="34.87363815"><ele>748.7</ele><time>2013-11-22T08:08:53.0000000+00:00</time></trkpt><trkpt lat="30.66378975" lon="34.87363815"><ele>748.7</ele><time>2013-11-22T08:08:58.0000000+00:00</time></trkpt><trkpt lat="30.66378975" lon="34.87363815"><ele>748.7</ele><time>2013-11-22T08:09:03.0000000+00:00</time></trkpt><trkpt lat="30.66378975" lon="34.87363815"><ele>748.7</ele><time>2013-11-22T08:09:08.0000000+00:00</time></trkpt><trkpt lat="30.66378975" lon="34.87363815"><ele>748.7</ele><time>2013-11-22T08:09:13.0000000+00:00</time></trkpt><trkpt lat="30.66378975" lon="34.87363815"><ele>748.7</ele><time>2013-11-22T08:09:18.0000000+00:00</time></trkpt><trkpt lat="30.66378975" lon="34.87363815"><ele>748.7</ele><time>2013-11-22T08:09:23.0000000+00:00</time></trkpt><trkpt lat="30.66378975" lon="34.87363815"><ele>748.7</ele><time>2013-11-22T08:09:28.0000000+00:00</time></trkpt><trkpt lat="30.66378975" lon="34.87363815"><ele>748.7</ele><time>2013-11-22T08:09:33.0000000+00:00</time></trkpt><trkpt lat="30.66378975" lon="34.87363815"><ele>748.7</ele><time>2013-11-22T08:09:38.0000000+00:00</time></trkpt><trkpt lat="30.66378975" lon="34.87363815"><ele>748.7</ele><time>2013-11-22T08:09:43.0000000+00:00</time></trkpt><trkpt lat="30.66378975" lon="34.87363815"><ele>748.7</ele><time>2013-11-22T08:09:48.0000000+00:00</time></trkpt><trkpt lat="30.66378975" lon="34.87363815"><ele>748.7</ele><time>2013-11-22T08:09:53.0000000+00:00</time></trkpt><trkpt lat="30.66379166" lon="34.87363815"><ele>748.7</ele><time>2013-11-22T08:09:58.0000000+00:00</time></trkpt><trkpt lat="30.66379166" lon="34.87363815"><ele>748.7</ele><time>2013-11-22T08:10:03.0000000+00:00</time></trkpt><trkpt lat="30.66379166" lon="34.87363815"><ele>748.7</ele><time>2013-11-22T08:10:08.0000000+00:00</time></trkpt><trkpt lat="30.66379166" lon="34.87363815"><ele>748.7</ele><time>2013-11-22T08:10:13.0000000+00:00</time></trkpt><trkpt lat="30.66379166" lon="34.87363815"><ele>748.7</ele><time>2013-11-22T08:10:18.0000000+00:00</time></trkpt><trkpt lat="30.66379166" lon="34.87363434"><ele>748.7</ele><time>2013-11-22T08:10:23.0000000+00:00</time></trkpt><trkpt lat="30.66379166" lon="34.87363434"><ele>748.7</ele><time>2013-11-22T08:10:28.0000000+00:00</time></trkpt><trkpt lat="30.66379166" lon="34.87363434"><ele>748.7</ele><time>2013-11-22T08:10:33.0000000+00:00</time></trkpt><trkpt lat="30.66379166" lon="34.87363434"><ele>748.7</ele><time>2013-11-22T08:10:38.0000000+00:00</time></trkpt><trkpt lat="30.66379166" lon="34.87363434"><ele>748.7</ele><time>2013-11-22T08:10:43.0000000+00:00</time></trkpt><trkpt lat="30.66379166" lon="34.87363434"><ele>748.7</ele><time>2013-11-22T08:10:48.0000000+00:00</time></trkpt><trkpt lat="30.66379166" lon="34.87363434"><ele>748.7</ele><time>2013-11-22T08:10:53.0000000+00:00</time></trkpt><trkpt lat="30.66379166" lon="34.87363434"><ele>748.7</ele><time>2013-11-22T08:10:58.0000000+00:00</time></trkpt><trkpt lat="30.66379166" lon="34.87363434"><ele>748.7</ele><time>2013-11-22T08:11:03.0000000+00:00</time></trkpt><trkpt lat="30.66379166" lon="34.87363434"><ele>748.7</ele><time>2013-11-22T08:11:08.0000000+00:00</time></trkpt><trkpt lat="30.66379166" lon="34.87363434"><ele>748.7</ele><time>2013-11-22T08:11:13.0000000+00:00</time></trkpt><trkpt lat="30.66379166" lon="34.87363434"><ele>748.7</ele><time>2013-11-22T08:11:18.0000000+00:00</time></trkpt><trkpt lat="30.66379166" lon="34.87363434"><ele>748.7</ele><time>2013-11-22T08:11:23.0000000+00:00</time></trkpt><trkpt lat="30.66379166" lon="34.87363434"><ele>748.7</ele><time>2013-11-22T08:11:28.0000000+00:00</time></trkpt><trkpt lat="30.66379166" lon="34.87363434"><ele>748.7</ele><time>2013-11-22T08:11:33.0000000+00:00</time></trkpt><trkpt lat="30.66379166" lon="34.87363434"><ele>748.7</ele><time>2013-11-22T08:11:38.0000000+00:00</time></trkpt><trkpt lat="30.66379166" lon="34.87363434"><ele>748.7</ele><time>2013-11-22T08:11:43.0000000+00:00</time></trkpt><trkpt lat="30.66379166" lon="34.87363434"><ele>748.7</ele><time>2013-11-22T08:11:48.0000000+00:00</time></trkpt><trkpt lat="30.66379166" lon="34.87363434"><ele>748.7</ele><time>2013-11-22T08:11:53.0000000+00:00</time></trkpt><trkpt lat="30.66379166" lon="34.87363434"><ele>748.7</ele><time>2013-11-22T08:11:58.0000000+00:00</time></trkpt><trkpt lat="30.66379166" lon="34.87363434"><ele>748.7</ele><time>2013-11-22T08:12:03.0000000+00:00</time></trkpt><trkpt lat="30.66379166" lon="34.87363434"><ele>748.7</ele><time>2013-11-22T08:12:08.0000000+00:00</time></trkpt><trkpt lat="30.66379166" lon="34.87363434"><ele>748.7</ele><time>2013-11-22T08:12:13.0000000+00:00</time></trkpt><trkpt lat="30.66379166" lon="34.87363434"><ele>748.7</ele><time>2013-11-22T08:12:18.0000000+00:00</time></trkpt><trkpt lat="30.66379166" lon="34.87363434"><ele>748.7</ele><time>2013-11-22T08:12:23.0000000+00:00</time></trkpt><trkpt lat="30.66379166" lon="34.87363434"><ele>748.7</ele><time>2013-11-22T08:12:28.0000000+00:00</time></trkpt><trkpt lat="30.66378975" lon="34.87363434"><ele>748.7</ele><time>2013-11-22T08:12:33.0000000+00:00</time></trkpt><trkpt lat="30.66378975" lon="34.87363434"><ele>748.7</ele><time>2013-11-22T08:12:38.0000000+00:00</time></trkpt><trkpt lat="30.66378975" lon="34.87363434"><ele>748.7</ele><time>2013-11-22T08:12:43.0000000+00:00</time></trkpt><trkpt lat="30.66378975" lon="34.87363434"><ele>748.7</ele><time>2013-11-22T08:12:48.0000000+00:00</time></trkpt><trkpt lat="30.66378975" lon="34.87363434"><ele>748.7</ele><time>2013-11-22T08:12:53.0000000+00:00</time></trkpt><trkpt lat="30.66378975" lon="34.87363434"><ele>748.7</ele><time>2013-11-22T08:12:58.0000000+00:00</time></trkpt><trkpt lat="30.66378975" lon="34.87363434"><ele>748.7</ele><time>2013-11-22T08:13:03.0000000+00:00</time></trkpt><trkpt lat="30.66378975" lon="34.87363434"><ele>748.7</ele><time>2013-11-22T08:13:08.0000000+00:00</time></trkpt><trkpt lat="30.66378975" lon="34.87363052"><ele>748.7</ele><time>2013-11-22T08:13:13.0000000+00:00</time></trkpt><trkpt lat="30.66378975" lon="34.87363052"><ele>748.7</ele><time>2013-11-22T08:13:18.0000000+00:00</time></trkpt><trkpt lat="30.66378975" lon="34.87363052"><ele>748.7</ele><time>2013-11-22T08:13:23.0000000+00:00</time></trkpt><trkpt lat="30.66378975" lon="34.87363052"><ele>748.7</ele><time>2013-11-22T08:13:28.0000000+00:00</time></trkpt><trkpt lat="30.66378975" lon="34.87363052"><ele>748.7</ele><time>2013-11-22T08:13:33.0000000+00:00</time></trkpt><trkpt lat="30.66378975" lon="34.87363052"><ele>748.7</ele><time>2013-11-22T08:13:38.0000000+00:00</time></trkpt><trkpt lat="30.66378975" lon="34.87363052"><ele>748.7</ele><time>2013-11-22T08:13:43.0000000+00:00</time></trkpt><trkpt lat="30.66378975" lon="34.87363052"><ele>748.7</ele><time>2013-11-22T08:13:48.0000000+00:00</time></trkpt><trkpt lat="30.66378975" lon="34.87363052"><ele>748.7</ele><time>2013-11-22T08:13:53.0000000+00:00</time></trkpt><trkpt lat="30.66378975" lon="34.87363052"><ele>748.7</ele><time>2013-11-22T08:13:58.0000000+00:00</time></trkpt><trkpt lat="30.66378975" lon="34.87363052"><ele>748.7</ele><time>2013-11-22T08:14:03.0000000+00:00</time></trkpt><trkpt lat="30.66378975" lon="34.87363052"><ele>748.7</ele><time>2013-11-22T08:14:08.0000000+00:00</time></trkpt><trkpt lat="30.66378975" lon="34.87363052"><ele>748.7</ele><time>2013-11-22T08:14:13.0000000+00:00</time></trkpt><trkpt lat="30.66379166" lon="34.87363052"><ele>748.7</ele><time>2013-11-22T08:14:18.0000000+00:00</time></trkpt><trkpt lat="30.66379166" lon="34.87363052"><ele>748.7</ele><time>2013-11-22T08:14:23.0000000+00:00</time></trkpt><trkpt lat="30.66380119" lon="34.87362671"><ele>748.9</ele><time>2013-11-22T08:14:28.0000000+00:00</time></trkpt><trkpt lat="30.6638031" lon="34.87363434"><ele>749.0</ele><time>2013-11-22T08:14:33.0000000+00:00</time></trkpt><trkpt lat="30.66379929" lon="34.87364197"><ele>749.1</ele><time>2013-11-22T08:14:38.0000000+00:00</time></trkpt><trkpt lat="30.66379738" lon="34.87365341"><ele>749.0</ele><time>2013-11-22T08:14:43.0000000+00:00</time></trkpt><trkpt lat="30.6638031" lon="34.87365341"><ele>748.8</ele><time>2013-11-22T08:14:48.0000000+00:00</time></trkpt><trkpt lat="30.6638031" lon="34.87365341"><ele>748.8</ele><time>2013-11-22T08:14:53.0000000+00:00</time></trkpt><trkpt lat="30.66380501" lon="34.87365723"><ele>748.9</ele><time>2013-11-22T08:14:58.0000000+00:00</time></trkpt><trkpt lat="30.6638031" lon="34.87366104"><ele>749.0</ele><time>2013-11-22T08:15:03.0000000+00:00</time></trkpt><trkpt lat="30.66380501" lon="34.87365723"><ele>749.0</ele><time>2013-11-22T08:15:08.0000000+00:00</time></trkpt><trkpt lat="30.66380501" lon="34.87365723"><ele>748.9</ele><time>2013-11-22T08:15:13.0000000+00:00</time></trkpt><trkpt lat="30.66380501" lon="34.87365723"><ele>748.9</ele><time>2013-11-22T08:15:18.0000000+00:00</time></trkpt><trkpt lat="30.66380501" lon="34.87365723"><ele>748.9</ele><time>2013-11-22T08:15:23.0000000+00:00</time></trkpt><trkpt lat="30.66380501" lon="34.87365723"><ele>748.9</ele><time>2013-11-22T08:15:28.0000000+00:00</time></trkpt><trkpt lat="30.66380501" lon="34.87365723"><ele>748.9</ele><time>2013-11-22T08:15:33.0000000+00:00</time></trkpt><trkpt lat="30.66380501" lon="34.87365723"><ele>748.9</ele><time>2013-11-22T08:15:38.0000000+00:00</time></trkpt><trkpt lat="30.66380692" lon="34.87365723"><ele>749.0</ele><time>2013-11-22T08:15:43.0000000+00:00</time></trkpt><trkpt lat="30.66380692" lon="34.87365723"><ele>749.0</ele><time>2013-11-22T08:15:48.0000000+00:00</time></trkpt><trkpt lat="30.66380692" lon="34.87365723"><ele>749.0</ele><time>2013-11-22T08:15:53.0000000+00:00</time></trkpt><trkpt lat="30.66380692" lon="34.87365723"><ele>749.0</ele><time>2013-11-22T08:15:58.0000000+00:00</time></trkpt><trkpt lat="30.66380692" lon="34.87365723"><ele>749.0</ele><time>2013-11-22T08:16:03.0000000+00:00</time></trkpt><trkpt lat="30.66380692" lon="34.87365723"><ele>749.0</ele><time>2013-11-22T08:16:08.0000000+00:00</time></trkpt><trkpt lat="30.66380692" lon="34.87365723"><ele>749.0</ele><time>2013-11-22T08:16:13.0000000+00:00</time></trkpt><trkpt lat="30.66380692" lon="34.87365723"><ele>749.0</ele><time>2013-11-22T08:16:18.0000000+00:00</time></trkpt><trkpt lat="30.66380692" lon="34.87365723"><ele>749.0</ele><time>2013-11-22T08:16:23.0000000+00:00</time></trkpt><trkpt lat="30.66380882" lon="34.87365723"><ele>749.0</ele><time>2013-11-22T08:16:28.0000000+00:00</time></trkpt><trkpt lat="30.66380882" lon="34.87365723"><ele>749.0</ele><time>2013-11-22T08:16:33.0000000+00:00</time></trkpt><trkpt lat="30.66380882" lon="34.87365723"><ele>749.0</ele><time>2013-11-22T08:16:38.0000000+00:00</time></trkpt><trkpt lat="30.66380882" lon="34.87365723"><ele>749.0</ele><time>2013-11-22T08:16:43.0000000+00:00</time></trkpt><trkpt lat="30.66382027" lon="34.87364578"><ele>748.9</ele><time>2013-11-22T08:16:48.0000000+00:00</time></trkpt><trkpt lat="30.66383743" lon="34.87361145"><ele>748.6</ele><time>2013-11-22T08:16:53.0000000+00:00</time></trkpt><trkpt lat="30.66387177" lon="34.87356949"><ele>748.4</ele><time>2013-11-22T08:16:58.0000000+00:00</time></trkpt><trkpt lat="30.66387558" lon="34.87356186"><ele>748.0</ele><time>2013-11-22T08:17:03.0000000+00:00</time></trkpt><trkpt lat="30.66388702" lon="34.87353897"><ele>748.0</ele><time>2013-11-22T08:17:08.0000000+00:00</time></trkpt><trkpt lat="30.66389465" lon="34.8735199"><ele>749.0</ele><time>2013-11-22T08:17:13.0000000+00:00</time></trkpt><trkpt lat="30.66389465" lon="34.8735199"><ele>750.3</ele><time>2013-11-22T08:17:18.0000000+00:00</time></trkpt><trkpt lat="30.66389275" lon="34.8735199"><ele>750.7</ele><time>2013-11-22T08:17:23.0000000+00:00</time></trkpt><trkpt lat="30.66389084" lon="34.87352371"><ele>751.2</ele><time>2013-11-22T08:17:28.0000000+00:00</time></trkpt><trkpt lat="30.66389084" lon="34.87352753"><ele>751.8</ele><time>2013-11-22T08:17:33.0000000+00:00</time></trkpt><trkpt lat="30.66388893" lon="34.87353134"><ele>752.4</ele><time>2013-11-22T08:17:38.0000000+00:00</time></trkpt><trkpt lat="30.66388702" lon="34.87353134"><ele>752.9</ele><time>2013-11-22T08:17:43.0000000+00:00</time></trkpt><trkpt lat="30.66388893" lon="34.87353134"><ele>753.2</ele><time>2013-11-22T08:17:48.0000000+00:00</time></trkpt><trkpt lat="30.6639595" lon="34.87348557"><ele>752.5</ele><time>2013-11-22T08:17:53.0000000+00:00</time></trkpt><trkpt lat="30.66404915" lon="34.87340546"><ele>754.4</ele><time>2013-11-22T08:17:58.0000000+00:00</time></trkpt><trkpt lat="30.66417122" lon="34.87331009"><ele>754.7</ele><time>2013-11-22T08:18:03.0000000+00:00</time></trkpt><trkpt lat="30.66428185" lon="34.8731575"><ele>755.1</ele><time>2013-11-22T08:18:08.0000000+00:00</time></trkpt><trkpt lat="30.66438294" lon="34.87310791"><ele>756.1</ele><time>2013-11-22T08:18:13.0000000+00:00</time></trkpt><trkpt lat="30.66446686" lon="34.87319183"><ele>755.0</ele><time>2013-11-22T08:18:18.0000000+00:00</time></trkpt><trkpt lat="30.66451454" lon="34.87327957"><ele>751.2</ele><time>2013-11-22T08:18:23.0000000+00:00</time></trkpt><trkpt lat="30.66454697" lon="34.87340546"><ele>750.6</ele><time>2013-11-22T08:18:28.0000000+00:00</time></trkpt><trkpt lat="30.66457176" lon="34.87358093"><ele>750.5</ele><time>2013-11-22T08:18:33.0000000+00:00</time></trkpt><trkpt lat="30.66461754" lon="34.87371445"><ele>750.4</ele><time>2013-11-22T08:18:38.0000000+00:00</time></trkpt><trkpt lat="30.6646328" lon="34.87374878"><ele>750.0</ele><time>2013-11-22T08:18:43.0000000+00:00</time></trkpt><trkpt lat="30.66463471" lon="34.87375259"><ele>749.9</ele><time>2013-11-22T08:18:48.0000000+00:00</time></trkpt><trkpt lat="30.6646328" lon="34.87374878"><ele>749.4</ele><time>2013-11-22T08:18:53.0000000+00:00</time></trkpt><trkpt lat="30.6646328" lon="34.87374878"><ele>749.4</ele><time>2013-11-22T08:18:58.0000000+00:00</time></trkpt><trkpt lat="30.66463471" lon="34.87376785"><ele>749.3</ele><time>2013-11-22T08:19:03.0000000+00:00</time></trkpt><trkpt lat="30.66471863" lon="34.87387466"><ele>748.7</ele><time>2013-11-22T08:19:08.0000000+00:00</time></trkpt><trkpt lat="30.66482353" lon="34.8740387"><ele>747.9</ele><time>2013-11-22T08:19:13.0000000+00:00</time></trkpt><trkpt lat="30.66498756" lon="34.87422562"><ele>746.1</ele><time>2013-11-22T08:19:18.0000000+00:00</time></trkpt><trkpt lat="30.66510963" lon="34.87447739"><ele>744.7</ele><time>2013-11-22T08:19:23.0000000+00:00</time></trkpt><trkpt lat="30.6652832" lon="34.87468338"><ele>743.4</ele><time>2013-11-22T08:19:28.0000000+00:00</time></trkpt><trkpt lat="30.66528511" lon="34.87494659"><ele>739.2</ele><time>2013-11-22T08:19:33.0000000+00:00</time></trkpt><trkpt lat="30.66532135" lon="34.87519074"><ele>740.0</ele><time>2013-11-22T08:19:38.0000000+00:00</time></trkpt><trkpt lat="30.66540527" lon="34.87538147"><ele>741.8</ele><time>2013-11-22T08:19:43.0000000+00:00</time></trkpt><trkpt lat="30.66542244" lon="34.87557221"><ele>741.8</ele><time>2013-11-22T08:19:48.0000000+00:00</time></trkpt><trkpt lat="30.66550446" lon="34.87583542"><ele>742.6</ele><time>2013-11-22T08:19:53.0000000+00:00</time></trkpt><trkpt lat="30.66557884" lon="34.87603378"><ele>742.3</ele><time>2013-11-22T08:19:58.0000000+00:00</time></trkpt><trkpt lat="30.66561127" lon="34.87610626"><ele>741.2</ele><time>2013-11-22T08:20:03.0000000+00:00</time></trkpt><trkpt lat="30.66560173" lon="34.87610245"><ele>741.0</ele><time>2013-11-22T08:20:08.0000000+00:00</time></trkpt><trkpt lat="30.6656208" lon="34.87613678"><ele>739.8</ele><time>2013-11-22T08:20:13.0000000+00:00</time></trkpt><trkpt lat="30.66562271" lon="34.87630844"><ele>739.1</ele><time>2013-11-22T08:20:18.0000000+00:00</time></trkpt><trkpt lat="30.66561127" lon="34.87646103"><ele>738.6</ele><time>2013-11-22T08:20:23.0000000+00:00</time></trkpt><trkpt lat="30.66558838" lon="34.8765831"><ele>738.6</ele><time>2013-11-22T08:20:28.0000000+00:00</time></trkpt><trkpt lat="30.66556549" lon="34.87675095"><ele>737.7</ele><time>2013-11-22T08:20:33.0000000+00:00</time></trkpt><trkpt lat="30.66556931" lon="34.87684631"><ele>736.5</ele><time>2013-11-22T08:20:38.0000000+00:00</time></trkpt><trkpt lat="30.66558838" lon="34.87696838"><ele>736.4</ele><time>2013-11-22T08:20:43.0000000+00:00</time></trkpt><trkpt lat="30.66565514" lon="34.87709808"><ele>736.3</ele><time>2013-11-22T08:20:48.0000000+00:00</time></trkpt><trkpt lat="30.6658001" lon="34.87719727"><ele>734.5</ele><time>2013-11-22T08:20:53.0000000+00:00</time></trkpt><trkpt lat="30.66586304" lon="34.87729645"><ele>733.9</ele><time>2013-11-22T08:20:58.0000000+00:00</time></trkpt><trkpt lat="30.66590691" lon="34.87740326"><ele>733.3</ele><time>2013-11-22T08:21:03.0000000+00:00</time></trkpt><trkpt lat="30.66593742" lon="34.87749481"><ele>733.8</ele><time>2013-11-22T08:21:08.0000000+00:00</time></trkpt><trkpt lat="30.6659565" lon="34.87761307"><ele>732.7</ele><time>2013-11-22T08:21:13.0000000+00:00</time></trkpt><trkpt lat="30.66596985" lon="34.87770844"><ele>732.4</ele><time>2013-11-22T08:21:18.0000000+00:00</time></trkpt><trkpt lat="30.66597557" lon="34.87778091"><ele>732.4</ele><time>2013-11-22T08:21:23.0000000+00:00</time></trkpt><trkpt lat="30.66592979" lon="34.87784958"><ele>735.1</ele><time>2013-11-22T08:21:28.0000000+00:00</time></trkpt><trkpt lat="30.66587257" lon="34.87791443"><ele>736.7</ele><time>2013-11-22T08:21:33.0000000+00:00</time></trkpt><trkpt lat="30.66581917" lon="34.87796402"><ele>738.1</ele><time>2013-11-22T08:21:38.0000000+00:00</time></trkpt><trkpt lat="30.665802" lon="34.87800598"><ele>739.6</ele><time>2013-11-22T08:21:43.0000000+00:00</time></trkpt><trkpt lat="30.66576767" lon="34.87802887"><ele>740.4</ele><time>2013-11-22T08:21:48.0000000+00:00</time></trkpt><trkpt lat="30.6656971" lon="34.87804031"><ele>742.0</ele><time>2013-11-22T08:21:53.0000000+00:00</time></trkpt><trkpt lat="30.66567612" lon="34.8780365"><ele>742.6</ele><time>2013-11-22T08:21:58.0000000+00:00</time></trkpt><trkpt lat="30.66567612" lon="34.8780365"><ele>742.8</ele><time>2013-11-22T08:22:03.0000000+00:00</time></trkpt><trkpt lat="30.66568565" lon="34.87805939"><ele>741.0</ele><time>2013-11-22T08:22:08.0000000+00:00</time></trkpt><trkpt lat="30.66576767" lon="34.87807465"><ele>738.9</ele><time>2013-11-22T08:22:13.0000000+00:00</time></trkpt><trkpt lat="30.66579056" lon="34.87807083"><ele>738.6</ele><time>2013-11-22T08:22:18.0000000+00:00</time></trkpt><trkpt lat="30.6658268" lon="34.87806702"><ele>738.3</ele><time>2013-11-22T08:22:23.0000000+00:00</time></trkpt><trkpt lat="30.66589546" lon="34.87811279"><ele>738.2</ele><time>2013-11-22T08:22:28.0000000+00:00</time></trkpt><trkpt lat="30.66597366" lon="34.87816238"><ele>737.9</ele><time>2013-11-22T08:22:33.0000000+00:00</time></trkpt><trkpt lat="30.66602898" lon="34.87822723"><ele>738.2</ele><time>2013-11-22T08:22:38.0000000+00:00</time></trkpt><trkpt lat="30.6660862" lon="34.87830353"><ele>737.1</ele><time>2013-11-22T08:22:43.0000000+00:00</time></trkpt><trkpt lat="30.66614723" lon="34.87836456"><ele>737.6</ele><time>2013-11-22T08:22:48.0000000+00:00</time></trkpt><trkpt lat="30.66619301" lon="34.87843323"><ele>737.7</ele><time>2013-11-22T08:22:53.0000000+00:00</time></trkpt><trkpt lat="30.66625214" lon="34.8785286"><ele>736.2</ele><time>2013-11-22T08:22:58.0000000+00:00</time></trkpt><trkpt lat="30.66633225" lon="34.87863922"><ele>736.0</ele><time>2013-11-22T08:23:03.0000000+00:00</time></trkpt><trkpt lat="30.66642189" lon="34.87874603"><ele>736.5</ele><time>2013-11-22T08:23:08.0000000+00:00</time></trkpt><trkpt lat="30.66649437" lon="34.8788681"><ele>740.9</ele><time>2013-11-22T08:23:13.0000000+00:00</time></trkpt><trkpt lat="30.66654778" lon="34.87898636"><ele>743.9</ele><time>2013-11-22T08:23:18.0000000+00:00</time></trkpt><trkpt lat="30.66658211" lon="34.87911224"><ele>745.0</ele><time>2013-11-22T08:23:23.0000000+00:00</time></trkpt><trkpt lat="30.66659355" lon="34.87924194"><ele>744.6</ele><time>2013-11-22T08:23:28.0000000+00:00</time></trkpt><trkpt lat="30.66660881" lon="34.87937546"><ele>743.7</ele><time>2013-11-22T08:23:33.0000000+00:00</time></trkpt><trkpt lat="30.66661263" lon="34.87950516"><ele>743.4</ele><time>2013-11-22T08:23:38.0000000+00:00</time></trkpt><trkpt lat="30.66662598" lon="34.87965393"><ele>741.3</ele><time>2013-11-22T08:23:43.0000000+00:00</time></trkpt><trkpt lat="30.66661835" lon="34.87976074"><ele>740.9</ele><time>2013-11-22T08:23:48.0000000+00:00</time></trkpt><trkpt lat="30.66661644" lon="34.879879"><ele>740.8</ele><time>2013-11-22T08:23:53.0000000+00:00</time></trkpt><trkpt lat="30.66661072" lon="34.87999344"><ele>740.2</ele><time>2013-11-22T08:23:58.0000000+00:00</time></trkpt><trkpt lat="30.6666069" lon="34.88011551"><ele>739.9</ele><time>2013-11-22T08:24:03.0000000+00:00</time></trkpt><trkpt lat="30.66662979" lon="34.88015366"><ele>740.9</ele><time>2013-11-22T08:24:08.0000000+00:00</time></trkpt><trkpt lat="30.66663361" lon="34.88014603"><ele>740.8</ele><time>2013-11-22T08:24:13.0000000+00:00</time></trkpt><trkpt lat="30.66663933" lon="34.88014603"><ele>740.8</ele><time>2013-11-22T08:24:18.0000000+00:00</time></trkpt><trkpt lat="30.66663551" lon="34.88022614"><ele>740.4</ele><time>2013-11-22T08:24:23.0000000+00:00</time></trkpt><trkpt lat="30.66664505" lon="34.88034439"><ele>740.6</ele><time>2013-11-22T08:24:28.0000000+00:00</time></trkpt><trkpt lat="30.66667366" lon="34.88041687"><ele>741.6</ele><time>2013-11-22T08:24:33.0000000+00:00</time></trkpt><trkpt lat="30.66673851" lon="34.88051987"><ele>744.1</ele><time>2013-11-22T08:24:38.0000000+00:00</time></trkpt><trkpt lat="30.66678429" lon="34.88061905"><ele>746.2</ele><time>2013-11-22T08:24:43.0000000+00:00</time></trkpt><trkpt lat="30.66683769" lon="34.88068771"><ele>746.2</ele><time>2013-11-22T08:24:48.0000000+00:00</time></trkpt><trkpt lat="30.66689873" lon="34.88073349"><ele>747.9</ele><time>2013-11-22T08:24:53.0000000+00:00</time></trkpt><trkpt lat="30.66695023" lon="34.88079071"><ele>748.7</ele><time>2013-11-22T08:24:58.0000000+00:00</time></trkpt><trkpt lat="30.66700554" lon="34.88087082"><ele>748.6</ele><time>2013-11-22T08:25:03.0000000+00:00</time></trkpt><trkpt lat="30.66708756" lon="34.88094711"><ele>747.1</ele><time>2013-11-22T08:25:08.0000000+00:00</time></trkpt><trkpt lat="30.66717911" lon="34.88105393"><ele>746.4</ele><time>2013-11-22T08:25:13.0000000+00:00</time></trkpt><trkpt lat="30.66723824" lon="34.88113022"><ele>747.0</ele><time>2013-11-22T08:25:18.0000000+00:00</time></trkpt><trkpt lat="30.66734314" lon="34.88120651"><ele>748.0</ele><time>2013-11-22T08:25:23.0000000+00:00</time></trkpt><trkpt lat="30.66750336" lon="34.88128662"><ele>747.9</ele><time>2013-11-22T08:25:28.0000000+00:00</time></trkpt><trkpt lat="30.66765022" lon="34.88138199"><ele>746.8</ele><time>2013-11-22T08:25:33.0000000+00:00</time></trkpt><trkpt lat="30.66779709" lon="34.8815155"><ele>747.2</ele><time>2013-11-22T08:25:38.0000000+00:00</time></trkpt><trkpt lat="30.66793442" lon="34.8816185"><ele>747.5</ele><time>2013-11-22T08:25:43.0000000+00:00</time></trkpt><trkpt lat="30.66806984" lon="34.88172531"><ele>749.1</ele><time>2013-11-22T08:25:48.0000000+00:00</time></trkpt><trkpt lat="30.66817093" lon="34.88182068"><ele>749.9</ele><time>2013-11-22T08:25:53.0000000+00:00</time></trkpt><trkpt lat="30.66825295" lon="34.88191605"><ele>749.6</ele><time>2013-11-22T08:25:58.0000000+00:00</time></trkpt><trkpt lat="30.66828156" lon="34.88198471"><ele>749.0</ele><time>2013-11-22T08:26:03.0000000+00:00</time></trkpt><trkpt lat="30.66835594" lon="34.88207626"><ele>747.1</ele><time>2013-11-22T08:26:08.0000000+00:00</time></trkpt><trkpt lat="30.66848373" lon="34.88215256"><ele>748.3</ele><time>2013-11-22T08:26:13.0000000+00:00</time></trkpt><trkpt lat="30.66849518" lon="34.88214874"><ele>748.1</ele><time>2013-11-22T08:26:18.0000000+00:00</time></trkpt><trkpt lat="30.66848946" lon="34.88215637"><ele>747.9</ele><time>2013-11-22T08:26:23.0000000+00:00</time></trkpt><trkpt lat="30.66847038" lon="34.88218689"><ele>747.7</ele><time>2013-11-22T08:26:28.0000000+00:00</time></trkpt><trkpt lat="30.66845703" lon="34.88232422"><ele>746.8</ele><time>2013-11-22T08:26:33.0000000+00:00</time></trkpt><trkpt lat="30.66850472" lon="34.88244247"><ele>746.7</ele><time>2013-11-22T08:26:38.0000000+00:00</time></trkpt><trkpt lat="30.66852188" lon="34.88254929"><ele>746.0</ele><time>2013-11-22T08:26:43.0000000+00:00</time></trkpt><trkpt lat="30.66856575" lon="34.88269806"><ele>745.1</ele><time>2013-11-22T08:26:48.0000000+00:00</time></trkpt><trkpt lat="30.66861534" lon="34.88285446"><ele>743.6</ele><time>2013-11-22T08:26:53.0000000+00:00</time></trkpt><trkpt lat="30.66866684" lon="34.88300324"><ele>742.0</ele><time>2013-11-22T08:26:58.0000000+00:00</time></trkpt><trkpt lat="30.6687088" lon="34.88314056"><ele>741.5</ele><time>2013-11-22T08:27:03.0000000+00:00</time></trkpt><trkpt lat="30.6687336" lon="34.88328552"><ele>743.7</ele><time>2013-11-22T08:27:08.0000000+00:00</time></trkpt><trkpt lat="30.66872215" lon="34.88341904"><ele>743.6</ele><time>2013-11-22T08:27:13.0000000+00:00</time></trkpt><trkpt lat="30.66875267" lon="34.88361359"><ele>743.4</ele><time>2013-11-22T08:27:18.0000000+00:00</time></trkpt><trkpt lat="30.66883659" lon="34.88382721"><ele>743.4</ele><time>2013-11-22T08:27:23.0000000+00:00</time></trkpt><trkpt lat="30.66889954" lon="34.88403702"><ele>741.7</ele><time>2013-11-22T08:27:28.0000000+00:00</time></trkpt><trkpt lat="30.6689167" lon="34.88415527"><ele>743.5</ele><time>2013-11-22T08:27:33.0000000+00:00</time></trkpt><trkpt lat="30.66894913" lon="34.88432312"><ele>743.2</ele><time>2013-11-22T08:27:38.0000000+00:00</time></trkpt><trkpt lat="30.6689949" lon="34.88453293"><ele>742.6</ele><time>2013-11-22T08:27:43.0000000+00:00</time></trkpt><trkpt lat="30.6690197" lon="34.88472366"><ele>740.9</ele><time>2013-11-22T08:27:48.0000000+00:00</time></trkpt><trkpt lat="30.66907883" lon="34.88488388"><ele>740.7</ele><time>2013-11-22T08:27:53.0000000+00:00</time></trkpt><trkpt lat="30.6691227" lon="34.88508606"><ele>738.7</ele><time>2013-11-22T08:27:58.0000000+00:00</time></trkpt><trkpt lat="30.66917419" lon="34.88529968"><ele>738.5</ele><time>2013-11-22T08:28:03.0000000+00:00</time></trkpt><trkpt lat="30.6692009" lon="34.8854332"><ele>737.3</ele><time>2013-11-22T08:28:08.0000000+00:00</time></trkpt><trkpt lat="30.66923523" lon="34.88553619"><ele>737.3</ele><time>2013-11-22T08:28:13.0000000+00:00</time></trkpt><trkpt lat="30.66928673" lon="34.88570786"><ele>737.2</ele><time>2013-11-22T08:28:18.0000000+00:00</time></trkpt><trkpt lat="30.66932488" lon="34.88583756"><ele>734.1</ele><time>2013-11-22T08:28:23.0000000+00:00</time></trkpt><trkpt lat="30.66938782" lon="34.8860054"><ele>733.4</ele><time>2013-11-22T08:28:28.0000000+00:00</time></trkpt><trkpt lat="30.66945458" lon="34.8861351"><ele>734.2</ele><time>2013-11-22T08:28:33.0000000+00:00</time></trkpt><trkpt lat="30.66953087" lon="34.88624954"><ele>737.5</ele><time>2013-11-22T08:28:38.0000000+00:00</time></trkpt><trkpt lat="30.66961861" lon="34.88640595"><ele>740.0</ele><time>2013-11-22T08:28:43.0000000+00:00</time></trkpt><trkpt lat="30.66970825" lon="34.88658524"><ele>742.0</ele><time>2013-11-22T08:28:48.0000000+00:00</time></trkpt><trkpt lat="30.66981316" lon="34.88674164"><ele>742.6</ele><time>2013-11-22T08:28:53.0000000+00:00</time></trkpt><trkpt lat="30.66987419" lon="34.88685989"><ele>744.8</ele><time>2013-11-22T08:28:58.0000000+00:00</time></trkpt><trkpt lat="30.6699295" lon="34.88694382"><ele>745.8</ele><time>2013-11-22T08:29:03.0000000+00:00</time></trkpt><trkpt lat="30.67001915" lon="34.887043"><ele>744.6</ele><time>2013-11-22T08:29:08.0000000+00:00</time></trkpt><trkpt lat="30.67009354" lon="34.88714981"><ele>743.8</ele><time>2013-11-22T08:29:13.0000000+00:00</time></trkpt><trkpt lat="30.67017746" lon="34.88727951"><ele>742.1</ele><time>2013-11-22T08:29:18.0000000+00:00</time></trkpt><trkpt lat="30.67025948" lon="34.88739014"><ele>741.7</ele><time>2013-11-22T08:29:23.0000000+00:00</time></trkpt><trkpt lat="30.67030716" lon="34.88745117"><ele>741.1</ele><time>2013-11-22T08:29:28.0000000+00:00</time></trkpt><trkpt lat="30.67037392" lon="34.88751602"><ele>742.1</ele><time>2013-11-22T08:29:33.0000000+00:00</time></trkpt><trkpt lat="30.6704464" lon="34.88761139"><ele>743.4</ele><time>2013-11-22T08:29:38.0000000+00:00</time></trkpt><trkpt lat="30.67054939" lon="34.88773727"><ele>743.9</ele><time>2013-11-22T08:29:43.0000000+00:00</time></trkpt><trkpt lat="30.67064095" lon="34.88787079"><ele>745.7</ele><time>2013-11-22T08:29:48.0000000+00:00</time></trkpt><trkpt lat="30.67071152" lon="34.88796997"><ele>746.5</ele><time>2013-11-22T08:29:53.0000000+00:00</time></trkpt><trkpt lat="30.67071724" lon="34.88798904"><ele>745.7</ele><time>2013-11-22T08:29:58.0000000+00:00</time></trkpt><trkpt lat="30.67071915" lon="34.88799286"><ele>745.8</ele><time>2013-11-22T08:30:03.0000000+00:00</time></trkpt><trkpt lat="30.67071724" lon="34.88799286"><ele>745.7</ele><time>2013-11-22T08:30:08.0000000+00:00</time></trkpt><trkpt lat="30.67071152" lon="34.88798904"><ele>745.7</ele><time>2013-11-22T08:30:13.0000000+00:00</time></trkpt><trkpt lat="30.670784" lon="34.88805008"><ele>746.0</ele><time>2013-11-22T08:30:18.0000000+00:00</time></trkpt><trkpt lat="30.6709137" lon="34.88811874"><ele>745.3</ele><time>2013-11-22T08:30:23.0000000+00:00</time></trkpt><trkpt lat="30.67106056" lon="34.88819122"><ele>744.8</ele><time>2013-11-22T08:30:28.0000000+00:00</time></trkpt><trkpt lat="30.67126274" lon="34.88825989"><ele>744.0</ele><time>2013-11-22T08:30:33.0000000+00:00</time></trkpt><trkpt lat="30.67151833" lon="34.88827515"><ele>745.9</ele><time>2013-11-22T08:30:38.0000000+00:00</time></trkpt><trkpt lat="30.6716938" lon="34.88830566"><ele>749.8</ele><time>2013-11-22T08:30:43.0000000+00:00</time></trkpt><trkpt lat="30.67183495" lon="34.88834763"><ele>751.1</ele><time>2013-11-22T08:30:48.0000000+00:00</time></trkpt><trkpt lat="30.67198753" lon="34.88838577"><ele>750.4</ele><time>2013-11-22T08:30:53.0000000+00:00</time></trkpt><trkpt lat="30.67213631" lon="34.88842392"><ele>749.2</ele><time>2013-11-22T08:30:58.0000000+00:00</time></trkpt><trkpt lat="30.67227936" lon="34.88850021"><ele>748.0</ele><time>2013-11-22T08:31:03.0000000+00:00</time></trkpt><trkpt lat="30.67241478" lon="34.88860321"><ele>745.7</ele><time>2013-11-22T08:31:08.0000000+00:00</time></trkpt><trkpt lat="30.67256928" lon="34.88874817"><ele>744.3</ele><time>2013-11-22T08:31:13.0000000+00:00</time></trkpt><trkpt lat="30.67272949" lon="34.88888168"><ele>744.3</ele><time>2013-11-22T08:31:18.0000000+00:00</time></trkpt><trkpt lat="30.67287254" lon="34.88903427"><ele>744.1</ele><time>2013-11-22T08:31:23.0000000+00:00</time></trkpt><trkpt lat="30.67291832" lon="34.88922501"><ele>744.0</ele><time>2013-11-22T08:31:28.0000000+00:00</time></trkpt><trkpt lat="30.67292976" lon="34.88940811"><ele>741.6</ele><time>2013-11-22T08:31:33.0000000+00:00</time></trkpt><trkpt lat="30.67291832" lon="34.88959122"><ele>740.2</ele><time>2013-11-22T08:31:38.0000000+00:00</time></trkpt><trkpt lat="30.67291069" lon="34.88979721"><ele>739.8</ele><time>2013-11-22T08:31:43.0000000+00:00</time></trkpt><trkpt lat="30.67287827" lon="34.88996506"><ele>740.0</ele><time>2013-11-22T08:31:48.0000000+00:00</time></trkpt><trkpt lat="30.67284393" lon="34.89013672"><ele>738.7</ele><time>2013-11-22T08:31:53.0000000+00:00</time></trkpt><trkpt lat="30.6728096" lon="34.89033508"><ele>737.8</ele><time>2013-11-22T08:31:58.0000000+00:00</time></trkpt><trkpt lat="30.67278671" lon="34.89052963"><ele>736.2</ele><time>2013-11-22T08:32:03.0000000+00:00</time></trkpt><trkpt lat="30.67277336" lon="34.89073181"><ele>735.2</ele><time>2013-11-22T08:32:08.0000000+00:00</time></trkpt><trkpt lat="30.67278862" lon="34.89093781"><ele>734.5</ele><time>2013-11-22T08:32:13.0000000+00:00</time></trkpt><trkpt lat="30.67283249" lon="34.89113617"><ele>733.9</ele><time>2013-11-22T08:32:18.0000000+00:00</time></trkpt><trkpt lat="30.67290878" lon="34.8913002"><ele>733.9</ele><time>2013-11-22T08:32:23.0000000+00:00</time></trkpt><trkpt lat="30.67299652" lon="34.89148331"><ele>736.3</ele><time>2013-11-22T08:32:28.0000000+00:00</time></trkpt><trkpt lat="30.67306137" lon="34.89165115"><ele>739.8</ele><time>2013-11-22T08:32:33.0000000+00:00</time></trkpt><trkpt lat="30.6731739" lon="34.8917923"><ele>741.9</ele><time>2013-11-22T08:32:38.0000000+00:00</time></trkpt><trkpt lat="30.67324448" lon="34.89197922"><ele>743.2</ele><time>2013-11-22T08:32:43.0000000+00:00</time></trkpt><trkpt lat="30.67320633" lon="34.8921814"><ele>744.2</ele><time>2013-11-22T08:32:48.0000000+00:00</time></trkpt><trkpt lat="30.67320061" lon="34.89216995"><ele>743.6</ele><time>2013-11-22T08:32:53.0000000+00:00</time></trkpt><trkpt lat="30.6731987" lon="34.89216995"><ele>743.5</ele><time>2013-11-22T08:32:58.0000000+00:00</time></trkpt><trkpt lat="30.67320252" lon="34.89221573"><ele>743.8</ele><time>2013-11-22T08:33:03.0000000+00:00</time></trkpt><trkpt lat="30.67324448" lon="34.89239883"><ele>743.1</ele><time>2013-11-22T08:33:08.0000000+00:00</time></trkpt><trkpt lat="30.67334175" lon="34.89263153"><ele>742.5</ele><time>2013-11-22T08:33:13.0000000+00:00</time></trkpt><trkpt lat="30.67344284" lon="34.893013"><ele>742.1</ele><time>2013-11-22T08:33:18.0000000+00:00</time></trkpt><trkpt lat="30.67354012" lon="34.8934288"><ele>739.6</ele><time>2013-11-22T08:33:23.0000000+00:00</time></trkpt><trkpt lat="30.673563" lon="34.89360809"><ele>738.3</ele><time>2013-11-22T08:33:28.0000000+00:00</time></trkpt><trkpt lat="30.67357254" lon="34.89370346"><ele>736.6</ele><time>2013-11-22T08:33:33.0000000+00:00</time></trkpt><trkpt lat="30.67359161" lon="34.89380646"><ele>735.7</ele><time>2013-11-22T08:33:38.0000000+00:00</time></trkpt><trkpt lat="30.67360115" lon="34.89391327"><ele>736.0</ele><time>2013-11-22T08:33:43.0000000+00:00</time></trkpt><trkpt lat="30.67362785" lon="34.89404297"><ele>736.0</ele><time>2013-11-22T08:33:48.0000000+00:00</time></trkpt><trkpt lat="30.67367554" lon="34.89414978"><ele>736.7</ele><time>2013-11-22T08:33:53.0000000+00:00</time></trkpt><trkpt lat="30.67372513" lon="34.89425659"><ele>736.7</ele><time>2013-11-22T08:33:58.0000000+00:00</time></trkpt><trkpt lat="30.67375755" lon="34.89435196"><ele>737.5</ele><time>2013-11-22T08:34:03.0000000+00:00</time></trkpt><trkpt lat="30.67375565" lon="34.89437866"><ele>736.3</ele><time>2013-11-22T08:34:08.0000000+00:00</time></trkpt><trkpt lat="30.67375374" lon="34.89437866"><ele>736.3</ele><time>2013-11-22T08:34:13.0000000+00:00</time></trkpt><trkpt lat="30.67375183" lon="34.89438248"><ele>736.3</ele><time>2013-11-22T08:34:18.0000000+00:00</time></trkpt><trkpt lat="30.67383194" lon="34.89450073"><ele>735.1</ele><time>2013-11-22T08:34:23.0000000+00:00</time></trkpt><trkpt lat="30.67411232" lon="34.89455795"><ele>729.5</ele><time>2013-11-22T08:34:28.0000000+00:00</time></trkpt><trkpt lat="30.67448998" lon="34.89447784"><ele>719.6</ele><time>2013-11-22T08:34:33.0000000+00:00</time></trkpt><trkpt lat="30.67490387" lon="34.89459229"><ele>716.9</ele><time>2013-11-22T08:34:38.0000000+00:00</time></trkpt><trkpt lat="30.67528534" lon="34.89470291"><ele>712.9</ele><time>2013-11-22T08:34:43.0000000+00:00</time></trkpt><trkpt lat="30.67570496" lon="34.89484406"><ele>709.6</ele><time>2013-11-22T08:34:48.0000000+00:00</time></trkpt><trkpt lat="30.67608261" lon="34.89506149"><ele>704.1</ele><time>2013-11-22T08:34:53.0000000+00:00</time></trkpt><trkpt lat="30.67638397" lon="34.89532852"><ele>700.2</ele><time>2013-11-22T08:34:58.0000000+00:00</time></trkpt><trkpt lat="30.67666435" lon="34.89564133"><ele>703.0</ele><time>2013-11-22T08:35:03.0000000+00:00</time></trkpt><trkpt lat="30.6768074" lon="34.89580154"><ele>702.9</ele><time>2013-11-22T08:35:08.0000000+00:00</time></trkpt><trkpt lat="30.67681503" lon="34.8958168"><ele>703.4</ele><time>2013-11-22T08:35:13.0000000+00:00</time></trkpt><trkpt lat="30.67686081" lon="34.89586639"><ele>701.9</ele><time>2013-11-22T08:35:18.0000000+00:00</time></trkpt><trkpt lat="30.67694664" lon="34.8959198"><ele>701.6</ele><time>2013-11-22T08:35:23.0000000+00:00</time></trkpt><trkpt lat="30.67710114" lon="34.89602661"><ele>700.8</ele><time>2013-11-22T08:35:28.0000000+00:00</time></trkpt><trkpt lat="30.67728996" lon="34.89619827"><ele>700.8</ele><time>2013-11-22T08:35:33.0000000+00:00</time></trkpt><trkpt lat="30.67743683" lon="34.89638519"><ele>700.9</ele><time>2013-11-22T08:35:38.0000000+00:00</time></trkpt><trkpt lat="30.67760468" lon="34.89656067"><ele>702.0</ele><time>2013-11-22T08:35:43.0000000+00:00</time></trkpt><trkpt lat="30.6777668" lon="34.89677048"><ele>703.5</ele><time>2013-11-22T08:35:48.0000000+00:00</time></trkpt><trkpt lat="30.6779747" lon="34.89696884"><ele>703.5</ele><time>2013-11-22T08:35:53.0000000+00:00</time></trkpt><trkpt lat="30.67818832" lon="34.89716339"><ele>703.0</ele><time>2013-11-22T08:35:58.0000000+00:00</time></trkpt><trkpt lat="30.67833901" lon="34.89732361"><ele>702.5</ele><time>2013-11-22T08:36:03.0000000+00:00</time></trkpt><trkpt lat="30.67843628" lon="34.8974762"><ele>700.3</ele><time>2013-11-22T08:36:08.0000000+00:00</time></trkpt><trkpt lat="30.67856216" lon="34.8976593"><ele>700.3</ele><time>2013-11-22T08:36:13.0000000+00:00</time></trkpt><trkpt lat="30.67871094" lon="34.89783096"><ele>702.1</ele><time>2013-11-22T08:36:18.0000000+00:00</time></trkpt><trkpt lat="30.67886353" lon="34.89802933"><ele>706.3</ele><time>2013-11-22T08:36:23.0000000+00:00</time></trkpt><trkpt lat="30.67897987" lon="34.89820099"><ele>705.3</ele><time>2013-11-22T08:36:28.0000000+00:00</time></trkpt><trkpt lat="30.67910385" lon="34.89836502"><ele>705.5</ele><time>2013-11-22T08:36:33.0000000+00:00</time></trkpt><trkpt lat="30.67922783" lon="34.89853668"><ele>705.6</ele><time>2013-11-22T08:36:38.0000000+00:00</time></trkpt><trkpt lat="30.67935181" lon="34.89870834"><ele>702.9</ele><time>2013-11-22T08:36:43.0000000+00:00</time></trkpt><trkpt lat="30.67955399" lon="34.89890671"><ele>700.8</ele><time>2013-11-22T08:36:48.0000000+00:00</time></trkpt><trkpt lat="30.67970467" lon="34.89905167"><ele>699.9</ele><time>2013-11-22T08:36:53.0000000+00:00</time></trkpt><trkpt lat="30.67982101" lon="34.89918137"><ele>697.3</ele><time>2013-11-22T08:36:58.0000000+00:00</time></trkpt><trkpt lat="30.68001938" lon="34.89923859"><ele>694.9</ele><time>2013-11-22T08:37:03.0000000+00:00</time></trkpt><trkpt lat="30.68022537" lon="34.89934921"><ele>693.5</ele><time>2013-11-22T08:37:08.0000000+00:00</time></trkpt><trkpt lat="30.68039322" lon="34.89951706"><ele>693.0</ele><time>2013-11-22T08:37:13.0000000+00:00</time></trkpt><trkpt lat="30.68058205" lon="34.89970779"><ele>693.6</ele><time>2013-11-22T08:37:18.0000000+00:00</time></trkpt><trkpt lat="30.68075752" lon="34.89984131"><ele>691.4</ele><time>2013-11-22T08:37:23.0000000+00:00</time></trkpt><trkpt lat="30.68091393" lon="34.89995956"><ele>689.6</ele><time>2013-11-22T08:37:28.0000000+00:00</time></trkpt><trkpt lat="30.68106079" lon="34.90009308"><ele>688.2</ele><time>2013-11-22T08:37:33.0000000+00:00</time></trkpt><trkpt lat="30.68120384" lon="34.90016556"><ele>687.0</ele><time>2013-11-22T08:37:38.0000000+00:00</time></trkpt><trkpt lat="30.68135452" lon="34.90021896"><ele>686.8</ele><time>2013-11-22T08:37:43.0000000+00:00</time></trkpt><trkpt lat="30.68146133" lon="34.90023041"><ele>686.8</ele><time>2013-11-22T08:37:48.0000000+00:00</time></trkpt><trkpt lat="30.68151283" lon="34.90023041"><ele>687.0</ele><time>2013-11-22T08:37:53.0000000+00:00</time></trkpt><trkpt lat="30.68151093" lon="34.90022278"><ele>687.0</ele><time>2013-11-22T08:37:58.0000000+00:00</time></trkpt><trkpt lat="30.68151474" lon="34.90022659"><ele>687.2</ele><time>2013-11-22T08:38:03.0000000+00:00</time></trkpt><trkpt lat="30.68151093" lon="34.90023041"><ele>687.0</ele><time>2013-11-22T08:38:08.0000000+00:00</time></trkpt><trkpt lat="30.68151093" lon="34.90023041"><ele>687.0</ele><time>2013-11-22T08:38:13.0000000+00:00</time></trkpt><trkpt lat="30.68151093" lon="34.90022659"><ele>687.0</ele><time>2013-11-22T08:38:18.0000000+00:00</time></trkpt><trkpt lat="30.68151283" lon="34.90021133"><ele>687.3</ele><time>2013-11-22T08:38:23.0000000+00:00</time></trkpt><trkpt lat="30.68151283" lon="34.90021133"><ele>687.5</ele><time>2013-11-22T08:38:28.0000000+00:00</time></trkpt><trkpt lat="30.68151093" lon="34.90021133"><ele>687.6</ele><time>2013-11-22T08:38:33.0000000+00:00</time></trkpt><trkpt lat="30.68151665" lon="34.90021896"><ele>687.7</ele><time>2013-11-22T08:38:38.0000000+00:00</time></trkpt><trkpt lat="30.68152237" lon="34.90022278"><ele>687.9</ele><time>2013-11-22T08:38:43.0000000+00:00</time></trkpt><trkpt lat="30.68152428" lon="34.90022278"><ele>688.1</ele><time>2013-11-22T08:38:48.0000000+00:00</time></trkpt><trkpt lat="30.68152618" lon="34.90022278"><ele>688.3</ele><time>2013-11-22T08:38:53.0000000+00:00</time></trkpt><trkpt lat="30.68153" lon="34.90022659"><ele>688.3</ele><time>2013-11-22T08:38:58.0000000+00:00</time></trkpt><trkpt lat="30.68152809" lon="34.90022659"><ele>688.3</ele><time>2013-11-22T08:39:03.0000000+00:00</time></trkpt><trkpt lat="30.68152809" lon="34.90022659"><ele>688.3</ele><time>2013-11-22T08:39:08.0000000+00:00</time></trkpt><trkpt lat="30.68153" lon="34.90022659"><ele>688.3</ele><time>2013-11-22T08:39:13.0000000+00:00</time></trkpt><trkpt lat="30.68153" lon="34.90023041"><ele>688.4</ele><time>2013-11-22T08:39:18.0000000+00:00</time></trkpt><trkpt lat="30.68153" lon="34.90023041"><ele>688.5</ele><time>2013-11-22T08:39:23.0000000+00:00</time></trkpt><trkpt lat="30.68153" lon="34.90023041"><ele>688.6</ele><time>2013-11-22T08:39:28.0000000+00:00</time></trkpt><trkpt lat="30.68153" lon="34.90023041"><ele>688.6</ele><time>2013-11-22T08:39:33.0000000+00:00</time></trkpt><trkpt lat="30.68153" lon="34.90023041"><ele>688.6</ele><time>2013-11-22T08:39:38.0000000+00:00</time></trkpt><trkpt lat="30.68153" lon="34.90023041"><ele>688.6</ele><time>2013-11-22T08:39:43.0000000+00:00</time></trkpt><trkpt lat="30.68153" lon="34.90023041"><ele>688.7</ele><time>2013-11-22T08:39:48.0000000+00:00</time></trkpt><trkpt lat="30.68155479" lon="34.90024185"><ele>688.4</ele><time>2013-11-22T08:39:53.0000000+00:00</time></trkpt><trkpt lat="30.68169785" lon="34.90021515"><ele>688.1</ele><time>2013-11-22T08:39:58.0000000+00:00</time></trkpt><trkpt lat="30.68183136" lon="34.90019226"><ele>687.7</ele><time>2013-11-22T08:40:03.0000000+00:00</time></trkpt><trkpt lat="30.6819725" lon="34.90025711"><ele>686.4</ele><time>2013-11-22T08:40:08.0000000+00:00</time></trkpt><trkpt lat="30.68211746" lon="34.90036011"><ele>687.7</ele><time>2013-11-22T08:40:13.0000000+00:00</time></trkpt><trkpt lat="30.68222046" lon="34.90048218"><ele>687.7</ele><time>2013-11-22T08:40:18.0000000+00:00</time></trkpt><trkpt lat="30.68231583" lon="34.90058136"><ele>688.2</ele><time>2013-11-22T08:40:23.0000000+00:00</time></trkpt><trkpt lat="30.68241882" lon="34.90070343"><ele>689.4</ele><time>2013-11-22T08:40:28.0000000+00:00</time></trkpt><trkpt lat="30.68247795" lon="34.9008255"><ele>690.7</ele><time>2013-11-22T08:40:33.0000000+00:00</time></trkpt><trkpt lat="30.68253899" lon="34.90095902"><ele>691.8</ele><time>2013-11-22T08:40:38.0000000+00:00</time></trkpt><trkpt lat="30.6826191" lon="34.90106583"><ele>692.0</ele><time>2013-11-22T08:40:43.0000000+00:00</time></trkpt><trkpt lat="30.68272781" lon="34.90117645"><ele>690.4</ele><time>2013-11-22T08:40:48.0000000+00:00</time></trkpt><trkpt lat="30.68287277" lon="34.90126038"><ele>688.3</ele><time>2013-11-22T08:40:53.0000000+00:00</time></trkpt><trkpt lat="30.68303871" lon="34.90119553"><ele>686.9</ele><time>2013-11-22T08:40:58.0000000+00:00</time></trkpt><trkpt lat="30.6831913" lon="34.90115356"><ele>686.1</ele><time>2013-11-22T08:41:03.0000000+00:00</time></trkpt><trkpt lat="30.6833458" lon="34.90127564"><ele>687.3</ele><time>2013-11-22T08:41:08.0000000+00:00</time></trkpt><trkpt lat="30.68348503" lon="34.90136719"><ele>685.8</ele><time>2013-11-22T08:41:13.0000000+00:00</time></trkpt><trkpt lat="30.68361473" lon="34.90137863"><ele>682.4</ele><time>2013-11-22T08:41:18.0000000+00:00</time></trkpt><trkpt lat="30.68377304" lon="34.90142059"><ele>680.0</ele><time>2013-11-22T08:41:23.0000000+00:00</time></trkpt><trkpt lat="30.68392754" lon="34.90155411"><ele>677.6</ele><time>2013-11-22T08:41:28.0000000+00:00</time></trkpt><trkpt lat="30.68396568" lon="34.90183258"><ele>675.9</ele><time>2013-11-22T08:41:33.0000000+00:00</time></trkpt><trkpt lat="30.6840725" lon="34.90212631"><ele>673.9</ele><time>2013-11-22T08:41:38.0000000+00:00</time></trkpt><trkpt lat="30.68419266" lon="34.90245438"><ele>671.9</ele><time>2013-11-22T08:41:43.0000000+00:00</time></trkpt><trkpt lat="30.68424225" lon="34.90270233"><ele>672.8</ele><time>2013-11-22T08:41:48.0000000+00:00</time></trkpt><trkpt lat="30.68437195" lon="34.90288925"><ele>673.0</ele><time>2013-11-22T08:41:53.0000000+00:00</time></trkpt><trkpt lat="30.68455124" lon="34.90309525"><ele>673.3</ele><time>2013-11-22T08:41:58.0000000+00:00</time></trkpt><trkpt lat="30.68470383" lon="34.90342331"><ele>675.0</ele><time>2013-11-22T08:42:03.0000000+00:00</time></trkpt><trkpt lat="30.68474007" lon="34.90375137"><ele>676.3</ele><time>2013-11-22T08:42:08.0000000+00:00</time></trkpt><trkpt lat="30.68470573" lon="34.90405273"><ele>676.9</ele><time>2013-11-22T08:42:13.0000000+00:00</time></trkpt><trkpt lat="30.68468666" lon="34.90424728"><ele>675.4</ele><time>2013-11-22T08:42:18.0000000+00:00</time></trkpt><trkpt lat="30.68466759" lon="34.90442276"><ele>673.9</ele><time>2013-11-22T08:42:23.0000000+00:00</time></trkpt><trkpt lat="30.68465233" lon="34.90458679"><ele>672.8</ele><time>2013-11-22T08:42:28.0000000+00:00</time></trkpt><trkpt lat="30.68463898" lon="34.9047966"><ele>672.5</ele><time>2013-11-22T08:42:33.0000000+00:00</time></trkpt><trkpt lat="30.68467522" lon="34.90497971"><ele>671.8</ele><time>2013-11-22T08:42:38.0000000+00:00</time></trkpt><trkpt lat="30.68479919" lon="34.90517807"><ele>671.7</ele><time>2013-11-22T08:42:43.0000000+00:00</time></trkpt><trkpt lat="30.68497467" lon="34.9053421"><ele>667.6</ele><time>2013-11-22T08:42:48.0000000+00:00</time></trkpt><trkpt lat="30.68514061" lon="34.9054718"><ele>664.9</ele><time>2013-11-22T08:42:53.0000000+00:00</time></trkpt><trkpt lat="30.68527603" lon="34.90571213"><ele>663.1</ele><time>2013-11-22T08:42:58.0000000+00:00</time></trkpt><trkpt lat="30.68544197" lon="34.90598297"><ele>660.5</ele><time>2013-11-22T08:43:03.0000000+00:00</time></trkpt><trkpt lat="30.68554878" lon="34.90630722"><ele>657.8</ele><time>2013-11-22T08:43:08.0000000+00:00</time></trkpt><trkpt lat="30.68567658" lon="34.90645218"><ele>655.1</ele><time>2013-11-22T08:43:13.0000000+00:00</time></trkpt><trkpt lat="30.68574905" lon="34.90652847"><ele>654.8</ele><time>2013-11-22T08:43:18.0000000+00:00</time></trkpt><trkpt lat="30.6857605" lon="34.90654755"><ele>654.0</ele><time>2013-11-22T08:43:23.0000000+00:00</time></trkpt><trkpt lat="30.68582344" lon="34.90658188"><ele>654.3</ele><time>2013-11-22T08:43:28.0000000+00:00</time></trkpt><trkpt lat="30.68598747" lon="34.9067421"><ele>655.6</ele><time>2013-11-22T08:43:33.0000000+00:00</time></trkpt><trkpt lat="30.68611336" lon="34.90703201"><ele>657.7</ele><time>2013-11-22T08:43:38.0000000+00:00</time></trkpt><trkpt lat="30.68618393" lon="34.90719223"><ele>658.6</ele><time>2013-11-22T08:43:43.0000000+00:00</time></trkpt><trkpt lat="30.68622398" lon="34.9073143"><ele>659.2</ele><time>2013-11-22T08:43:48.0000000+00:00</time></trkpt><trkpt lat="30.68626595" lon="34.90742493"><ele>660.4</ele><time>2013-11-22T08:43:53.0000000+00:00</time></trkpt><trkpt lat="30.68628311" lon="34.907547"><ele>660.2</ele><time>2013-11-22T08:43:58.0000000+00:00</time></trkpt><trkpt lat="30.68628693" lon="34.90771103"><ele>660.3</ele><time>2013-11-22T08:44:03.0000000+00:00</time></trkpt><trkpt lat="30.68636131" lon="34.90792084"><ele>658.3</ele><time>2013-11-22T08:44:08.0000000+00:00</time></trkpt><trkpt lat="30.68647766" lon="34.90811157"><ele>657.1</ele><time>2013-11-22T08:44:13.0000000+00:00</time></trkpt><trkpt lat="30.68651962" lon="34.90831757"><ele>655.0</ele><time>2013-11-22T08:44:18.0000000+00:00</time></trkpt><trkpt lat="30.68657112" lon="34.90846634"><ele>654.2</ele><time>2013-11-22T08:44:23.0000000+00:00</time></trkpt><trkpt lat="30.68662071" lon="34.9085846"><ele>652.8</ele><time>2013-11-22T08:44:28.0000000+00:00</time></trkpt><trkpt lat="30.68669319" lon="34.90868759"><ele>650.5</ele><time>2013-11-22T08:44:33.0000000+00:00</time></trkpt><trkpt lat="30.68689346" lon="34.90885925"><ele>651.4</ele><time>2013-11-22T08:44:38.0000000+00:00</time></trkpt><trkpt lat="30.68706131" lon="34.90897751"><ele>651.5</ele><time>2013-11-22T08:44:43.0000000+00:00</time></trkpt><trkpt lat="30.68717384" lon="34.90906906"><ele>651.7</ele><time>2013-11-22T08:44:48.0000000+00:00</time></trkpt><trkpt lat="30.68726921" lon="34.90913773"><ele>653.1</ele><time>2013-11-22T08:44:53.0000000+00:00</time></trkpt><trkpt lat="30.68741036" lon="34.90922165"><ele>652.7</ele><time>2013-11-22T08:44:58.0000000+00:00</time></trkpt><trkpt lat="30.68759918" lon="34.90930557"><ele>652.3</ele><time>2013-11-22T08:45:03.0000000+00:00</time></trkpt><trkpt lat="30.68779755" lon="34.90935898"><ele>651.0</ele><time>2013-11-22T08:45:08.0000000+00:00</time></trkpt><trkpt lat="30.68800163" lon="34.90938187"><ele>649.7</ele><time>2013-11-22T08:45:13.0000000+00:00</time></trkpt><trkpt lat="30.68833733" lon="34.90930176"><ele>648.5</ele><time>2013-11-22T08:45:18.0000000+00:00</time></trkpt><trkpt lat="30.68852425" lon="34.90923691"><ele>648.2</ele><time>2013-11-22T08:45:23.0000000+00:00</time></trkpt><trkpt lat="30.68867111" lon="34.90917969"><ele>647.8</ele><time>2013-11-22T08:45:28.0000000+00:00</time></trkpt><trkpt lat="30.68881798" lon="34.90907669"><ele>647.7</ele><time>2013-11-22T08:45:33.0000000+00:00</time></trkpt><trkpt lat="30.68891144" lon="34.90893936"><ele>647.5</ele><time>2013-11-22T08:45:38.0000000+00:00</time></trkpt><trkpt lat="30.68896294" lon="34.90880966"><ele>647.5</ele><time>2013-11-22T08:45:43.0000000+00:00</time></trkpt><trkpt lat="30.68905449" lon="34.90869904"><ele>647.7</ele><time>2013-11-22T08:45:48.0000000+00:00</time></trkpt><trkpt lat="30.6891861" lon="34.9086113"><ele>648.0</ele><time>2013-11-22T08:45:53.0000000+00:00</time></trkpt><trkpt lat="30.68933487" lon="34.90848923"><ele>647.4</ele><time>2013-11-22T08:45:58.0000000+00:00</time></trkpt><trkpt lat="30.68945122" lon="34.90829468"><ele>647.5</ele><time>2013-11-22T08:46:03.0000000+00:00</time></trkpt><trkpt lat="30.68955421" lon="34.90815735"><ele>650.2</ele><time>2013-11-22T08:46:08.0000000+00:00</time></trkpt><trkpt lat="30.68954849" lon="34.90812302"><ele>650.2</ele><time>2013-11-22T08:46:13.0000000+00:00</time></trkpt><trkpt lat="30.68954277" lon="34.90812302"><ele>650.3</ele><time>2013-11-22T08:46:18.0000000+00:00</time></trkpt><trkpt lat="30.68954086" lon="34.90812302"><ele>650.3</ele><time>2013-11-22T08:46:23.0000000+00:00</time></trkpt><trkpt lat="30.68953896" lon="34.90812302"><ele>650.3</ele><time>2013-11-22T08:46:28.0000000+00:00</time></trkpt><trkpt lat="30.68953705" lon="34.9081192"><ele>650.3</ele><time>2013-11-22T08:46:33.0000000+00:00</time></trkpt><trkpt lat="30.68953514" lon="34.9081192"><ele>650.3</ele><time>2013-11-22T08:46:38.0000000+00:00</time></trkpt><trkpt lat="30.68953705" lon="34.90812302"><ele>650.3</ele><time>2013-11-22T08:46:43.0000000+00:00</time></trkpt><trkpt lat="30.68953705" lon="34.90812302"><ele>650.3</ele><time>2013-11-22T08:46:48.0000000+00:00</time></trkpt><trkpt lat="30.68953514" lon="34.90812302"><ele>650.3</ele><time>2013-11-22T08:46:53.0000000+00:00</time></trkpt><trkpt lat="30.68953514" lon="34.90812302"><ele>650.3</ele><time>2013-11-22T08:46:58.0000000+00:00</time></trkpt><trkpt lat="30.68953323" lon="34.90812683"><ele>650.3</ele><time>2013-11-22T08:47:03.0000000+00:00</time></trkpt><trkpt lat="30.68953323" lon="34.90812302"><ele>650.3</ele><time>2013-11-22T08:47:08.0000000+00:00</time></trkpt><trkpt lat="30.68953323" lon="34.90812302"><ele>650.3</ele><time>2013-11-22T08:47:13.0000000+00:00</time></trkpt><trkpt lat="30.68953323" lon="34.90812302"><ele>650.3</ele><time>2013-11-22T08:47:18.0000000+00:00</time></trkpt><trkpt lat="30.68953323" lon="34.90812683"><ele>650.3</ele><time>2013-11-22T08:47:23.0000000+00:00</time></trkpt><trkpt lat="30.68953323" lon="34.90812683"><ele>650.3</ele><time>2013-11-22T08:47:28.0000000+00:00</time></trkpt><trkpt lat="30.68953323" lon="34.90812683"><ele>650.3</ele><time>2013-11-22T08:47:33.0000000+00:00</time></trkpt><trkpt lat="30.68953323" lon="34.90812683"><ele>650.3</ele><time>2013-11-22T08:47:38.0000000+00:00</time></trkpt><trkpt lat="30.68953323" lon="34.90812683"><ele>650.3</ele><time>2013-11-22T08:47:43.0000000+00:00</time></trkpt><trkpt lat="30.68953323" lon="34.90812683"><ele>650.3</ele><time>2013-11-22T08:47:48.0000000+00:00</time></trkpt><trkpt lat="30.68953323" lon="34.90812683"><ele>650.3</ele><time>2013-11-22T08:47:53.0000000+00:00</time></trkpt><trkpt lat="30.68953323" lon="34.90812683"><ele>650.3</ele><time>2013-11-22T08:47:58.0000000+00:00</time></trkpt><trkpt lat="30.68953323" lon="34.90812683"><ele>650.2</ele><time>2013-11-22T08:48:03.0000000+00:00</time></trkpt><trkpt lat="30.68953323" lon="34.90812683"><ele>650.2</ele><time>2013-11-22T08:48:08.0000000+00:00</time></trkpt><trkpt lat="30.68953323" lon="34.90812683"><ele>650.2</ele><time>2013-11-22T08:48:13.0000000+00:00</time></trkpt><trkpt lat="30.68953323" lon="34.90812683"><ele>650.2</ele><time>2013-11-22T08:48:18.0000000+00:00</time></trkpt><trkpt lat="30.68953323" lon="34.90812302"><ele>650.2</ele><time>2013-11-22T08:48:23.0000000+00:00</time></trkpt><trkpt lat="30.68953323" lon="34.90812302"><ele>650.2</ele><time>2013-11-22T08:48:28.0000000+00:00</time></trkpt><trkpt lat="30.68953323" lon="34.90812683"><ele>650.2</ele><time>2013-11-22T08:48:33.0000000+00:00</time></trkpt><trkpt lat="30.68953323" lon="34.90812683"><ele>650.2</ele><time>2013-11-22T08:48:38.0000000+00:00</time></trkpt><trkpt lat="30.68953323" lon="34.90812683"><ele>650.2</ele><time>2013-11-22T08:48:43.0000000+00:00</time></trkpt><trkpt lat="30.68953514" lon="34.90812683"><ele>650.2</ele><time>2013-11-22T08:48:48.0000000+00:00</time></trkpt><trkpt lat="30.68953514" lon="34.90812683"><ele>650.1</ele><time>2013-11-22T08:48:53.0000000+00:00</time></trkpt><trkpt lat="30.68953514" lon="34.90812683"><ele>650.1</ele><time>2013-11-22T08:48:58.0000000+00:00</time></trkpt><trkpt lat="30.68953514" lon="34.90812683"><ele>650.1</ele><time>2013-11-22T08:49:03.0000000+00:00</time></trkpt><trkpt lat="30.68953514" lon="34.90812683"><ele>650.1</ele><time>2013-11-22T08:49:08.0000000+00:00</time></trkpt><trkpt lat="30.68955612" lon="34.90808868"><ele>649.8</ele><time>2013-11-22T08:49:13.0000000+00:00</time></trkpt><trkpt lat="30.68962669" lon="34.90797806"><ele>649.8</ele><time>2013-11-22T08:49:18.0000000+00:00</time></trkpt><trkpt lat="30.68970299" lon="34.90786743"><ele>647.7</ele><time>2013-11-22T08:49:23.0000000+00:00</time></trkpt><trkpt lat="30.68985367" lon="34.90777969"><ele>646.2</ele><time>2013-11-22T08:49:28.0000000+00:00</time></trkpt><trkpt lat="30.68998337" lon="34.90784073"><ele>645.4</ele><time>2013-11-22T08:49:33.0000000+00:00</time></trkpt><trkpt lat="30.69013786" lon="34.90784454"><ele>646.3</ele><time>2013-11-22T08:49:38.0000000+00:00</time></trkpt><trkpt lat="30.69033432" lon="34.90788269"><ele>645.0</ele><time>2013-11-22T08:49:43.0000000+00:00</time></trkpt><trkpt lat="30.69051552" lon="34.90800476"><ele>644.2</ele><time>2013-11-22T08:49:48.0000000+00:00</time></trkpt><trkpt lat="30.6906395" lon="34.90809631"><ele>641.5</ele><time>2013-11-22T08:49:53.0000000+00:00</time></trkpt><trkpt lat="30.69072533" lon="34.9080925"><ele>642.2</ele><time>2013-11-22T08:49:58.0000000+00:00</time></trkpt><trkpt lat="30.69079018" lon="34.90805054"><ele>641.3</ele><time>2013-11-22T08:50:03.0000000+00:00</time></trkpt><trkpt lat="30.69086647" lon="34.90797043"><ele>642.1</ele><time>2013-11-22T08:50:08.0000000+00:00</time></trkpt><trkpt lat="30.69094658" lon="34.90797043"><ele>642.6</ele><time>2013-11-22T08:50:13.0000000+00:00</time></trkpt><trkpt lat="30.69100761" lon="34.90811157"><ele>642.8</ele><time>2013-11-22T08:50:18.0000000+00:00</time></trkpt><trkpt lat="30.69111443" lon="34.90821457"><ele>641.8</ele><time>2013-11-22T08:50:23.0000000+00:00</time></trkpt><trkpt lat="30.69121933" lon="34.90829086"><ele>640.6</ele><time>2013-11-22T08:50:28.0000000+00:00</time></trkpt><trkpt lat="30.69131279" lon="34.90837479"><ele>638.5</ele><time>2013-11-22T08:50:33.0000000+00:00</time></trkpt><trkpt lat="30.69138908" lon="34.90844345"><ele>638.8</ele><time>2013-11-22T08:50:38.0000000+00:00</time></trkpt><trkpt lat="30.69144249" lon="34.90851593"><ele>640.0</ele><time>2013-11-22T08:50:43.0000000+00:00</time></trkpt><trkpt lat="30.69152641" lon="34.90860367"><ele>642.0</ele><time>2013-11-22T08:50:48.0000000+00:00</time></trkpt><trkpt lat="30.69164658" lon="34.90865707"><ele>641.9</ele><time>2013-11-22T08:50:53.0000000+00:00</time></trkpt><trkpt lat="30.69180298" lon="34.90871811"><ele>641.2</ele><time>2013-11-22T08:50:58.0000000+00:00</time></trkpt><trkpt lat="30.6919632" lon="34.90879059"><ele>641.2</ele><time>2013-11-22T08:51:03.0000000+00:00</time></trkpt><trkpt lat="30.69211388" lon="34.90882111"><ele>640.2</ele><time>2013-11-22T08:51:08.0000000+00:00</time></trkpt><trkpt lat="30.69227219" lon="34.90877152"><ele>641.8</ele><time>2013-11-22T08:51:13.0000000+00:00</time></trkpt><trkpt lat="30.69242096" lon="34.90870667"><ele>639.7</ele><time>2013-11-22T08:51:18.0000000+00:00</time></trkpt><trkpt lat="30.69260407" lon="34.90871429"><ele>640.2</ele><time>2013-11-22T08:51:23.0000000+00:00</time></trkpt><trkpt lat="30.6927166" lon="34.9086647"><ele>635.2</ele><time>2013-11-22T08:51:28.0000000+00:00</time></trkpt><trkpt lat="30.6928463" lon="34.90869522"><ele>633.4</ele><time>2013-11-22T08:51:33.0000000+00:00</time></trkpt><trkpt lat="30.69295692" lon="34.908741"><ele>631.5</ele><time>2013-11-22T08:51:38.0000000+00:00</time></trkpt><trkpt lat="30.69309235" lon="34.90882111"><ele>632.1</ele><time>2013-11-22T08:51:43.0000000+00:00</time></trkpt><trkpt lat="30.69325829" lon="34.90888214"><ele>631.9</ele><time>2013-11-22T08:51:48.0000000+00:00</time></trkpt><trkpt lat="30.69342804" lon="34.90892029"><ele>631.8</ele><time>2013-11-22T08:51:53.0000000+00:00</time></trkpt><trkpt lat="30.69361115" lon="34.90896225"><ele>632.5</ele><time>2013-11-22T08:51:58.0000000+00:00</time></trkpt><trkpt lat="30.6937561" lon="34.90902329"><ele>632.8</ele><time>2013-11-22T08:52:03.0000000+00:00</time></trkpt><trkpt lat="30.69392586" lon="34.90903091"><ele>631.6</ele><time>2013-11-22T08:52:08.0000000+00:00</time></trkpt><trkpt lat="30.69413567" lon="34.90902329"><ele>632.4</ele><time>2013-11-22T08:52:13.0000000+00:00</time></trkpt><trkpt lat="30.69427681" lon="34.90908051"><ele>633.0</ele><time>2013-11-22T08:52:18.0000000+00:00</time></trkpt><trkpt lat="30.69437027" lon="34.90913391"><ele>631.8</ele><time>2013-11-22T08:52:23.0000000+00:00</time></trkpt><trkpt lat="30.69449425" lon="34.90920639"><ele>632.2</ele><time>2013-11-22T08:52:28.0000000+00:00</time></trkpt><trkpt lat="30.69457436" lon="34.90935516"><ele>632.2</ele><time>2013-11-22T08:52:33.0000000+00:00</time></trkpt><trkpt lat="30.69462013" lon="34.90950012"><ele>633.1</ele><time>2013-11-22T08:52:38.0000000+00:00</time></trkpt><trkpt lat="30.69462967" lon="34.90960693"><ele>633.6</ele><time>2013-11-22T08:52:43.0000000+00:00</time></trkpt><trkpt lat="30.6945858" lon="34.90977097"><ele>633.5</ele><time>2013-11-22T08:52:48.0000000+00:00</time></trkpt><trkpt lat="30.69460487" lon="34.90997315"><ele>631.7</ele><time>2013-11-22T08:52:53.0000000+00:00</time></trkpt><trkpt lat="30.69458389" lon="34.91020584"><ele>630.6</ele><time>2013-11-22T08:52:58.0000000+00:00</time></trkpt><trkpt lat="30.69454575" lon="34.91039276"><ele>630.2</ele><time>2013-11-22T08:53:03.0000000+00:00</time></trkpt><trkpt lat="30.69455147" lon="34.91056442"><ele>630.5</ele><time>2013-11-22T08:53:08.0000000+00:00</time></trkpt><trkpt lat="30.69456482" lon="34.91078186"><ele>631.5</ele><time>2013-11-22T08:53:13.0000000+00:00</time></trkpt><trkpt lat="30.69453812" lon="34.91099548"><ele>632.2</ele><time>2013-11-22T08:53:18.0000000+00:00</time></trkpt><trkpt lat="30.69450569" lon="34.91119766"><ele>634.3</ele><time>2013-11-22T08:53:23.0000000+00:00</time></trkpt><trkpt lat="30.69440842" lon="34.91138077"><ele>635.0</ele><time>2013-11-22T08:53:28.0000000+00:00</time></trkpt><trkpt lat="30.69431686" lon="34.91154862"><ele>635.4</ele><time>2013-11-22T08:53:33.0000000+00:00</time></trkpt><trkpt lat="30.69426918" lon="34.91176224"><ele>637.6</ele><time>2013-11-22T08:53:38.0000000+00:00</time></trkpt><trkpt lat="30.69421578" lon="34.91196442"><ele>637.8</ele><time>2013-11-22T08:53:43.0000000+00:00</time></trkpt><trkpt lat="30.69415665" lon="34.91213608"><ele>638.7</ele><time>2013-11-22T08:53:48.0000000+00:00</time></trkpt><trkpt lat="30.69408226" lon="34.91232681"><ele>638.2</ele><time>2013-11-22T08:53:53.0000000+00:00</time></trkpt><trkpt lat="30.69403076" lon="34.91252136"><ele>637.7</ele><time>2013-11-22T08:53:58.0000000+00:00</time></trkpt><trkpt lat="30.69399643" lon="34.91268539"><ele>636.6</ele><time>2013-11-22T08:54:03.0000000+00:00</time></trkpt><trkpt lat="30.69398308" lon="34.91286469"><ele>635.5</ele><time>2013-11-22T08:54:08.0000000+00:00</time></trkpt><trkpt lat="30.6939621" lon="34.91303253"><ele>634.8</ele><time>2013-11-22T08:54:13.0000000+00:00</time></trkpt><trkpt lat="30.69395065" lon="34.91322327"><ele>632.2</ele><time>2013-11-22T08:54:18.0000000+00:00</time></trkpt><trkpt lat="30.69395447" lon="34.91339493"><ele>631.8</ele><time>2013-11-22T08:54:23.0000000+00:00</time></trkpt><trkpt lat="30.6939621" lon="34.91359329"><ele>632.5</ele><time>2013-11-22T08:54:28.0000000+00:00</time></trkpt><trkpt lat="30.69392395" lon="34.91376495"><ele>632.9</ele><time>2013-11-22T08:54:33.0000000+00:00</time></trkpt><trkpt lat="30.69383621" lon="34.91389465"><ele>632.4</ele><time>2013-11-22T08:54:38.0000000+00:00</time></trkpt><trkpt lat="30.69377708" lon="34.91394043"><ele>631.8</ele><time>2013-11-22T08:54:43.0000000+00:00</time></trkpt><trkpt lat="30.69372368" lon="34.91397095"><ele>630.5</ele><time>2013-11-22T08:54:48.0000000+00:00</time></trkpt><trkpt lat="30.69367218" lon="34.91400147"><ele>629.7</ele><time>2013-11-22T08:54:53.0000000+00:00</time></trkpt><trkpt lat="30.69363213" lon="34.9140625"><ele>630.2</ele><time>2013-11-22T08:54:58.0000000+00:00</time></trkpt><trkpt lat="30.69358444" lon="34.91410446"><ele>630.1</ele><time>2013-11-22T08:55:03.0000000+00:00</time></trkpt><trkpt lat="30.69355393" lon="34.91416931"><ele>630.5</ele><time>2013-11-22T08:55:08.0000000+00:00</time></trkpt><trkpt lat="30.69351578" lon="34.91423035"><ele>631.2</ele><time>2013-11-22T08:55:13.0000000+00:00</time></trkpt><trkpt lat="30.69346237" lon="34.91425324"><ele>632.1</ele><time>2013-11-22T08:55:18.0000000+00:00</time></trkpt><trkpt lat="30.69341278" lon="34.91424179"><ele>632.9</ele><time>2013-11-22T08:55:23.0000000+00:00</time></trkpt><trkpt lat="30.69336128" lon="34.9142189"><ele>634.2</ele><time>2013-11-22T08:55:28.0000000+00:00</time></trkpt><trkpt lat="30.69330406" lon="34.9142189"><ele>635.8</ele><time>2013-11-22T08:55:33.0000000+00:00</time></trkpt><trkpt lat="30.69324493" lon="34.91424561"><ele>637.5</ele><time>2013-11-22T08:55:38.0000000+00:00</time></trkpt><trkpt lat="30.69318199" lon="34.91425324"><ele>638.8</ele><time>2013-11-22T08:55:43.0000000+00:00</time></trkpt><trkpt lat="30.69313431" lon="34.91427231"><ele>639.7</ele><time>2013-11-22T08:55:48.0000000+00:00</time></trkpt><trkpt lat="30.69307327" lon="34.91428375"><ele>639.7</ele><time>2013-11-22T08:55:53.0000000+00:00</time></trkpt><trkpt lat="30.69301605" lon="34.91429138"><ele>640.0</ele><time>2013-11-22T08:55:58.0000000+00:00</time></trkpt><trkpt lat="30.69296265" lon="34.91430283"><ele>641.0</ele><time>2013-11-22T08:56:03.0000000+00:00</time></trkpt><trkpt lat="30.6928978" lon="34.91430283"><ele>641.8</ele><time>2013-11-22T08:56:08.0000000+00:00</time></trkpt><trkpt lat="30.69285011" lon="34.91428757"><ele>642.3</ele><time>2013-11-22T08:56:13.0000000+00:00</time></trkpt><trkpt lat="30.69279099" lon="34.91426849"><ele>642.7</ele><time>2013-11-22T08:56:18.0000000+00:00</time></trkpt><trkpt lat="30.69272614" lon="34.91427612"><ele>643.2</ele><time>2013-11-22T08:56:23.0000000+00:00</time></trkpt><trkpt lat="30.69267082" lon="34.91427612"><ele>643.3</ele><time>2013-11-22T08:56:28.0000000+00:00</time></trkpt><trkpt lat="30.69261169" lon="34.91427612"><ele>644.0</ele><time>2013-11-22T08:56:33.0000000+00:00</time></trkpt><trkpt lat="30.69260788" lon="34.91427994"><ele>644.5</ele><time>2013-11-22T08:56:38.0000000+00:00</time></trkpt><trkpt lat="30.69259071" lon="34.91429138"><ele>644.6</ele><time>2013-11-22T08:56:43.0000000+00:00</time></trkpt><trkpt lat="30.69254494" lon="34.91431809"><ele>644.1</ele><time>2013-11-22T08:56:48.0000000+00:00</time></trkpt><trkpt lat="30.692482" lon="34.91431809"><ele>644.7</ele><time>2013-11-22T08:56:53.0000000+00:00</time></trkpt><trkpt lat="30.69242859" lon="34.91434097"><ele>645.0</ele><time>2013-11-22T08:56:58.0000000+00:00</time></trkpt><trkpt lat="30.69238091" lon="34.91439819"><ele>645.9</ele><time>2013-11-22T08:57:03.0000000+00:00</time></trkpt><trkpt lat="30.69229698" lon="34.91444397"><ele>646.3</ele><time>2013-11-22T08:57:08.0000000+00:00</time></trkpt><trkpt lat="30.69223023" lon="34.91446686"><ele>646.5</ele><time>2013-11-22T08:57:13.0000000+00:00</time></trkpt><trkpt lat="30.69217682" lon="34.91452408"><ele>646.7</ele><time>2013-11-22T08:57:18.0000000+00:00</time></trkpt><trkpt lat="30.69211197" lon="34.91456223"><ele>647.5</ele><time>2013-11-22T08:57:23.0000000+00:00</time></trkpt><trkpt lat="30.69202232" lon="34.91455841"><ele>648.0</ele><time>2013-11-22T08:57:28.0000000+00:00</time></trkpt><trkpt lat="30.69195557" lon="34.91462326"><ele>648.0</ele><time>2013-11-22T08:57:33.0000000+00:00</time></trkpt><trkpt lat="30.69192696" lon="34.91470718"><ele>649.6</ele><time>2013-11-22T08:57:38.0000000+00:00</time></trkpt><trkpt lat="30.69191361" lon="34.91477966"><ele>648.7</ele><time>2013-11-22T08:57:43.0000000+00:00</time></trkpt><trkpt lat="30.69189835" lon="34.91484833"><ele>647.7</ele><time>2013-11-22T08:57:48.0000000+00:00</time></trkpt><trkpt lat="30.69190025" lon="34.91490173"><ele>647.2</ele><time>2013-11-22T08:57:53.0000000+00:00</time></trkpt><trkpt lat="30.69189262" lon="34.9149704"><ele>647.7</ele><time>2013-11-22T08:57:58.0000000+00:00</time></trkpt><trkpt lat="30.69192314" lon="34.91503143"><ele>649.5</ele><time>2013-11-22T08:58:03.0000000+00:00</time></trkpt><trkpt lat="30.69189835" lon="34.91508865"><ele>649.5</ele><time>2013-11-22T08:58:08.0000000+00:00</time></trkpt><trkpt lat="30.69185257" lon="34.9151268"><ele>649.9</ele><time>2013-11-22T08:58:13.0000000+00:00</time></trkpt><trkpt lat="30.69182205" lon="34.91519165"><ele>650.5</ele><time>2013-11-22T08:58:18.0000000+00:00</time></trkpt><trkpt lat="30.69180298" lon="34.91526794"><ele>651.3</ele><time>2013-11-22T08:58:23.0000000+00:00</time></trkpt><trkpt lat="30.69178009" lon="34.91534424"><ele>651.7</ele><time>2013-11-22T08:58:28.0000000+00:00</time></trkpt><trkpt lat="30.69179916" lon="34.91541672"><ele>654.2</ele><time>2013-11-22T08:58:33.0000000+00:00</time></trkpt><trkpt lat="30.69182015" lon="34.91549683"><ele>656.9</ele><time>2013-11-22T08:58:38.0000000+00:00</time></trkpt><trkpt lat="30.69182396" lon="34.91556168"><ele>661.3</ele><time>2013-11-22T08:58:43.0000000+00:00</time></trkpt><trkpt lat="30.69182968" lon="34.91563034"><ele>663.7</ele><time>2013-11-22T08:58:48.0000000+00:00</time></trkpt><trkpt lat="30.6918354" lon="34.91570664"><ele>664.7</ele><time>2013-11-22T08:58:53.0000000+00:00</time></trkpt><trkpt lat="30.69184113" lon="34.9157753"><ele>665.3</ele><time>2013-11-22T08:58:58.0000000+00:00</time></trkpt><trkpt lat="30.69184685" lon="34.91587067"><ele>665.7</ele><time>2013-11-22T08:59:03.0000000+00:00</time></trkpt><trkpt lat="30.69185066" lon="34.91594696"><ele>665.3</ele><time>2013-11-22T08:59:08.0000000+00:00</time></trkpt><trkpt lat="30.69186211" lon="34.91603088"><ele>665.8</ele><time>2013-11-22T08:59:13.0000000+00:00</time></trkpt><trkpt lat="30.6918354" lon="34.91609573"><ele>668.3</ele><time>2013-11-22T08:59:18.0000000+00:00</time></trkpt><trkpt lat="30.69179535" lon="34.9161644"><ele>668.5</ele><time>2013-11-22T08:59:23.0000000+00:00</time></trkpt><trkpt lat="30.69174385" lon="34.91622543"><ele>668.6</ele><time>2013-11-22T08:59:28.0000000+00:00</time></trkpt><trkpt lat="30.6917057" lon="34.9162941"><ele>669.1</ele><time>2013-11-22T08:59:33.0000000+00:00</time></trkpt><trkpt lat="30.69169235" lon="34.91638565"><ele>670.8</ele><time>2013-11-22T08:59:38.0000000+00:00</time></trkpt><trkpt lat="30.69167519" lon="34.91646576"><ele>672.0</ele><time>2013-11-22T08:59:43.0000000+00:00</time></trkpt><trkpt lat="30.69163322" lon="34.91653442"><ele>673.1</ele><time>2013-11-22T08:59:48.0000000+00:00</time></trkpt><trkpt lat="30.69159699" lon="34.91660309"><ele>673.3</ele><time>2013-11-22T08:59:53.0000000+00:00</time></trkpt><trkpt lat="30.69156647" lon="34.91664887"><ele>673.5</ele><time>2013-11-22T08:59:58.0000000+00:00</time></trkpt><trkpt lat="30.69155884" lon="34.91665268"><ele>673.3</ele><time>2013-11-22T09:00:03.0000000+00:00</time></trkpt><trkpt lat="30.69155884" lon="34.91665268"><ele>673.4</ele><time>2013-11-22T09:00:08.0000000+00:00</time></trkpt><trkpt lat="30.69155884" lon="34.91665268"><ele>673.4</ele><time>2013-11-22T09:00:13.0000000+00:00</time></trkpt><trkpt lat="30.69155693" lon="34.91665268"><ele>673.3</ele><time>2013-11-22T09:00:18.0000000+00:00</time></trkpt><trkpt lat="30.69155693" lon="34.91665268"><ele>673.3</ele><time>2013-11-22T09:00:23.0000000+00:00</time></trkpt><trkpt lat="30.69155693" lon="34.91665268"><ele>673.3</ele><time>2013-11-22T09:00:28.0000000+00:00</time></trkpt><trkpt lat="30.69155693" lon="34.91665268"><ele>673.3</ele><time>2013-11-22T09:00:33.0000000+00:00</time></trkpt><trkpt lat="30.69155693" lon="34.91664887"><ele>673.3</ele><time>2013-11-22T09:00:38.0000000+00:00</time></trkpt><trkpt lat="30.69155693" lon="34.91664887"><ele>673.2</ele><time>2013-11-22T09:00:43.0000000+00:00</time></trkpt><trkpt lat="30.69155693" lon="34.91664887"><ele>673.2</ele><time>2013-11-22T09:00:48.0000000+00:00</time></trkpt><trkpt lat="30.69155693" lon="34.91664887"><ele>673.1</ele><time>2013-11-22T09:00:53.0000000+00:00</time></trkpt><trkpt lat="30.69155693" lon="34.91664887"><ele>673.1</ele><time>2013-11-22T09:00:58.0000000+00:00</time></trkpt><trkpt lat="30.69155693" lon="34.91664887"><ele>673.1</ele><time>2013-11-22T09:01:03.0000000+00:00</time></trkpt><trkpt lat="30.69155502" lon="34.91664887"><ele>673.1</ele><time>2013-11-22T09:01:08.0000000+00:00</time></trkpt><trkpt lat="30.69155502" lon="34.91664887"><ele>673.0</ele><time>2013-11-22T09:01:13.0000000+00:00</time></trkpt><trkpt lat="30.69155502" lon="34.91664887"><ele>673.0</ele><time>2013-11-22T09:01:18.0000000+00:00</time></trkpt><trkpt lat="30.69155693" lon="34.91664887"><ele>673.0</ele><time>2013-11-22T09:01:23.0000000+00:00</time></trkpt><trkpt lat="30.69150543" lon="34.91672897"><ele>673.7</ele><time>2013-11-22T09:01:28.0000000+00:00</time></trkpt><trkpt lat="30.6914444" lon="34.91682434"><ele>673.8</ele><time>2013-11-22T09:01:33.0000000+00:00</time></trkpt><trkpt lat="30.69137573" lon="34.91688919"><ele>674.2</ele><time>2013-11-22T09:01:38.0000000+00:00</time></trkpt><trkpt lat="30.69130325" lon="34.91689301"><ele>674.4</ele><time>2013-11-22T09:01:43.0000000+00:00</time></trkpt><trkpt lat="30.69125748" lon="34.91686249"><ele>675.1</ele><time>2013-11-22T09:01:48.0000000+00:00</time></trkpt><trkpt lat="30.69118118" lon="34.91683197"><ele>675.1</ele><time>2013-11-22T09:01:53.0000000+00:00</time></trkpt><trkpt lat="30.69112015" lon="34.91677856"><ele>675.4</ele><time>2013-11-22T09:01:58.0000000+00:00</time></trkpt><trkpt lat="30.69105148" lon="34.91672516"><ele>675.3</ele><time>2013-11-22T09:02:03.0000000+00:00</time></trkpt><trkpt lat="30.69098854" lon="34.9166832"><ele>676.3</ele><time>2013-11-22T09:02:08.0000000+00:00</time></trkpt><trkpt lat="30.69092941" lon="34.91664887"><ele>677.8</ele><time>2013-11-22T09:02:13.0000000+00:00</time></trkpt><trkpt lat="30.69084549" lon="34.91664124"><ele>679.1</ele><time>2013-11-22T09:02:18.0000000+00:00</time></trkpt><trkpt lat="30.6907444" lon="34.91662598"><ele>679.7</ele><time>2013-11-22T09:02:23.0000000+00:00</time></trkpt><trkpt lat="30.69065285" lon="34.91665268"><ele>680.5</ele><time>2013-11-22T09:02:28.0000000+00:00</time></trkpt><trkpt lat="30.69057655" lon="34.91670227"><ele>681.8</ele><time>2013-11-22T09:02:33.0000000+00:00</time></trkpt><trkpt lat="30.69050217" lon="34.91674042"><ele>682.6</ele><time>2013-11-22T09:02:38.0000000+00:00</time></trkpt><trkpt lat="30.69042206" lon="34.91678238"><ele>682.7</ele><time>2013-11-22T09:02:43.0000000+00:00</time></trkpt><trkpt lat="30.69033623" lon="34.91683197"><ele>683.2</ele><time>2013-11-22T09:02:48.0000000+00:00</time></trkpt><trkpt lat="30.69024849" lon="34.91688538"><ele>684.8</ele><time>2013-11-22T09:02:53.0000000+00:00</time></trkpt><trkpt lat="30.6901722" lon="34.91694641"><ele>684.1</ele><time>2013-11-22T09:02:58.0000000+00:00</time></trkpt><trkpt lat="30.69009972" lon="34.91703033"><ele>684.8</ele><time>2013-11-22T09:03:03.0000000+00:00</time></trkpt><trkpt lat="30.69003487" lon="34.91711426"><ele>685.3</ele><time>2013-11-22T09:03:08.0000000+00:00</time></trkpt><trkpt lat="30.68998528" lon="34.91719055"><ele>684.3</ele><time>2013-11-22T09:03:13.0000000+00:00</time></trkpt><trkpt lat="30.68992806" lon="34.91726685"><ele>684.2</ele><time>2013-11-22T09:03:18.0000000+00:00</time></trkpt><trkpt lat="30.68987465" lon="34.91734695"><ele>684.4</ele><time>2013-11-22T09:03:23.0000000+00:00</time></trkpt><trkpt lat="30.68984222" lon="34.91743088"><ele>683.4</ele><time>2013-11-22T09:03:28.0000000+00:00</time></trkpt><trkpt lat="30.68981934" lon="34.9175415"><ele>683.3</ele><time>2013-11-22T09:03:33.0000000+00:00</time></trkpt><trkpt lat="30.68981171" lon="34.91765976"><ele>682.8</ele><time>2013-11-22T09:03:38.0000000+00:00</time></trkpt><trkpt lat="30.6898098" lon="34.91778946"><ele>681.5</ele><time>2013-11-22T09:03:43.0000000+00:00</time></trkpt><trkpt lat="30.68984413" lon="34.91793823"><ele>682.1</ele><time>2013-11-22T09:03:48.0000000+00:00</time></trkpt><trkpt lat="30.68994522" lon="34.91808701"><ele>683.1</ele><time>2013-11-22T09:03:53.0000000+00:00</time></trkpt><trkpt lat="30.69007683" lon="34.91812897"><ele>684.6</ele><time>2013-11-22T09:03:58.0000000+00:00</time></trkpt><trkpt lat="30.69024277" lon="34.91812134"><ele>685.4</ele><time>2013-11-22T09:04:03.0000000+00:00</time></trkpt><trkpt lat="30.69042015" lon="34.91810989"><ele>684.5</ele><time>2013-11-22T09:04:08.0000000+00:00</time></trkpt><trkpt lat="30.69053078" lon="34.91825104"><ele>684.6</ele><time>2013-11-22T09:04:13.0000000+00:00</time></trkpt><trkpt lat="30.69055557" lon="34.91838837"><ele>684.1</ele><time>2013-11-22T09:04:18.0000000+00:00</time></trkpt><trkpt lat="30.69055367" lon="34.91846085"><ele>685.0</ele><time>2013-11-22T09:04:23.0000000+00:00</time></trkpt><trkpt lat="30.69054413" lon="34.91853333"><ele>685.8</ele><time>2013-11-22T09:04:28.0000000+00:00</time></trkpt><trkpt lat="30.69052887" lon="34.91860962"><ele>686.1</ele><time>2013-11-22T09:04:33.0000000+00:00</time></trkpt><trkpt lat="30.69051743" lon="34.9187088"><ele>686.4</ele><time>2013-11-22T09:04:38.0000000+00:00</time></trkpt><trkpt lat="30.69050217" lon="34.91882324"><ele>687.1</ele><time>2013-11-22T09:04:43.0000000+00:00</time></trkpt><trkpt lat="30.6905117" lon="34.91894531"><ele>687.7</ele><time>2013-11-22T09:04:48.0000000+00:00</time></trkpt><trkpt lat="30.69049645" lon="34.91908646"><ele>686.9</ele><time>2013-11-22T09:04:53.0000000+00:00</time></trkpt><trkpt lat="30.69046593" lon="34.91920853"><ele>687.1</ele><time>2013-11-22T09:04:58.0000000+00:00</time></trkpt><trkpt lat="30.69041443" lon="34.91930389"><ele>687.6</ele><time>2013-11-22T09:05:03.0000000+00:00</time></trkpt><trkpt lat="30.69036675" lon="34.91942978"><ele>689.1</ele><time>2013-11-22T09:05:08.0000000+00:00</time></trkpt><trkpt lat="30.69028664" lon="34.91952896"><ele>690.0</ele><time>2013-11-22T09:05:13.0000000+00:00</time></trkpt><trkpt lat="30.6901989" lon="34.91963196"><ele>690.6</ele><time>2013-11-22T09:05:18.0000000+00:00</time></trkpt><trkpt lat="30.69010544" lon="34.91971588"><ele>691.4</ele><time>2013-11-22T09:05:23.0000000+00:00</time></trkpt><trkpt lat="30.69002533" lon="34.91976166"><ele>691.7</ele><time>2013-11-22T09:05:28.0000000+00:00</time></trkpt><trkpt lat="30.68992424" lon="34.91979981"><ele>691.3</ele><time>2013-11-22T09:05:33.0000000+00:00</time></trkpt><trkpt lat="30.68982697" lon="34.91983795"><ele>691.6</ele><time>2013-11-22T09:05:38.0000000+00:00</time></trkpt><trkpt lat="30.68973351" lon="34.9198761"><ele>692.4</ele><time>2013-11-22T09:05:43.0000000+00:00</time></trkpt><trkpt lat="30.68964958" lon="34.91992569"><ele>692.4</ele><time>2013-11-22T09:05:48.0000000+00:00</time></trkpt><trkpt lat="30.68956375" lon="34.91997528"><ele>692.5</ele><time>2013-11-22T09:05:53.0000000+00:00</time></trkpt><trkpt lat="30.68949699" lon="34.92005158"><ele>692.9</ele><time>2013-11-22T09:05:58.0000000+00:00</time></trkpt><trkpt lat="30.68943977" lon="34.92013931"><ele>694.1</ele><time>2013-11-22T09:06:03.0000000+00:00</time></trkpt><trkpt lat="30.68939972" lon="34.92021179"><ele>695.5</ele><time>2013-11-22T09:06:08.0000000+00:00</time></trkpt><trkpt lat="30.68934631" lon="34.92028427"><ele>696.1</ele><time>2013-11-22T09:06:13.0000000+00:00</time></trkpt><trkpt lat="30.68930054" lon="34.92037582"><ele>696.8</ele><time>2013-11-22T09:06:18.0000000+00:00</time></trkpt><trkpt lat="30.6892643" lon="34.92047119"><ele>696.3</ele><time>2013-11-22T09:06:23.0000000+00:00</time></trkpt><trkpt lat="30.68925476" lon="34.92058182"><ele>695.5</ele><time>2013-11-22T09:06:28.0000000+00:00</time></trkpt><trkpt lat="30.68925858" lon="34.92069626"><ele>694.3</ele><time>2013-11-22T09:06:33.0000000+00:00</time></trkpt><trkpt lat="30.68931389" lon="34.920784"><ele>692.7</ele><time>2013-11-22T09:06:38.0000000+00:00</time></trkpt><trkpt lat="30.68937683" lon="34.92086792"><ele>691.9</ele><time>2013-11-22T09:06:43.0000000+00:00</time></trkpt><trkpt lat="30.68946648" lon="34.92094421"><ele>689.9</ele><time>2013-11-22T09:06:48.0000000+00:00</time></trkpt><trkpt lat="30.68955421" lon="34.92099381"><ele>689.2</ele><time>2013-11-22T09:06:53.0000000+00:00</time></trkpt><trkpt lat="30.68959999" lon="34.92106628"><ele>688.5</ele><time>2013-11-22T09:06:58.0000000+00:00</time></trkpt><trkpt lat="30.68964577" lon="34.92118073"><ele>687.3</ele><time>2013-11-22T09:07:03.0000000+00:00</time></trkpt><trkpt lat="30.68965721" lon="34.92133331"><ele>685.9</ele><time>2013-11-22T09:07:08.0000000+00:00</time></trkpt><trkpt lat="30.68969154" lon="34.92152786"><ele>684.8</ele><time>2013-11-22T09:07:13.0000000+00:00</time></trkpt><trkpt lat="30.68974686" lon="34.9217186"><ele>683.6</ele><time>2013-11-22T09:07:18.0000000+00:00</time></trkpt><trkpt lat="30.68976021" lon="34.92180252"><ele>684.6</ele><time>2013-11-22T09:07:23.0000000+00:00</time></trkpt><trkpt lat="30.68975449" lon="34.92179871"><ele>685.0</ele><time>2013-11-22T09:07:28.0000000+00:00</time></trkpt><trkpt lat="30.68975258" lon="34.92179871"><ele>685.1</ele><time>2013-11-22T09:07:33.0000000+00:00</time></trkpt><trkpt lat="30.68973732" lon="34.92181397"><ele>685.2</ele><time>2013-11-22T09:07:38.0000000+00:00</time></trkpt><trkpt lat="30.68973732" lon="34.92181397"><ele>685.3</ele><time>2013-11-22T09:07:43.0000000+00:00</time></trkpt><trkpt lat="30.68973732" lon="34.92181397"><ele>685.3</ele><time>2013-11-22T09:07:48.0000000+00:00</time></trkpt><trkpt lat="30.68973732" lon="34.92181397"><ele>685.3</ele><time>2013-11-22T09:07:53.0000000+00:00</time></trkpt><trkpt lat="30.68973732" lon="34.92181397"><ele>685.3</ele><time>2013-11-22T09:07:58.0000000+00:00</time></trkpt><trkpt lat="30.68973732" lon="34.92181397"><ele>685.3</ele><time>2013-11-22T09:08:03.0000000+00:00</time></trkpt><trkpt lat="30.68973732" lon="34.92181397"><ele>685.3</ele><time>2013-11-22T09:08:08.0000000+00:00</time></trkpt><trkpt lat="30.68973732" lon="34.92181397"><ele>685.3</ele><time>2013-11-22T09:08:13.0000000+00:00</time></trkpt><trkpt lat="30.68973732" lon="34.92181397"><ele>685.3</ele><time>2013-11-22T09:08:18.0000000+00:00</time></trkpt><trkpt lat="30.68973732" lon="34.92181397"><ele>685.3</ele><time>2013-11-22T09:08:23.0000000+00:00</time></trkpt><trkpt lat="30.68973732" lon="34.92181397"><ele>685.3</ele><time>2013-11-22T09:08:28.0000000+00:00</time></trkpt><trkpt lat="30.68973732" lon="34.92181397"><ele>685.3</ele><time>2013-11-22T09:08:33.0000000+00:00</time></trkpt><trkpt lat="30.68973732" lon="34.92181397"><ele>685.3</ele><time>2013-11-22T09:08:38.0000000+00:00</time></trkpt><trkpt lat="30.68973732" lon="34.92181397"><ele>685.3</ele><time>2013-11-22T09:08:43.0000000+00:00</time></trkpt><trkpt lat="30.68973732" lon="34.92181397"><ele>685.3</ele><time>2013-11-22T09:08:48.0000000+00:00</time></trkpt><trkpt lat="30.68973732" lon="34.92181397"><ele>685.3</ele><time>2013-11-22T09:08:53.0000000+00:00</time></trkpt><trkpt lat="30.68973732" lon="34.92181397"><ele>685.4</ele><time>2013-11-22T09:08:58.0000000+00:00</time></trkpt><trkpt lat="30.68973732" lon="34.92181397"><ele>685.4</ele><time>2013-11-22T09:09:03.0000000+00:00</time></trkpt><trkpt lat="30.68973732" lon="34.92181015"><ele>685.4</ele><time>2013-11-22T09:09:08.0000000+00:00</time></trkpt><trkpt lat="30.68973732" lon="34.92181015"><ele>685.4</ele><time>2013-11-22T09:09:13.0000000+00:00</time></trkpt><trkpt lat="30.68973732" lon="34.92181015"><ele>685.5</ele><time>2013-11-22T09:09:18.0000000+00:00</time></trkpt><trkpt lat="30.68973732" lon="34.92181015"><ele>685.5</ele><time>2013-11-22T09:09:23.0000000+00:00</time></trkpt><trkpt lat="30.68973732" lon="34.92181015"><ele>685.5</ele><time>2013-11-22T09:09:28.0000000+00:00</time></trkpt><trkpt lat="30.68973732" lon="34.92181015"><ele>685.5</ele><time>2013-11-22T09:09:33.0000000+00:00</time></trkpt><trkpt lat="30.68973732" lon="34.92181015"><ele>685.5</ele><time>2013-11-22T09:09:38.0000000+00:00</time></trkpt><trkpt lat="30.68973732" lon="34.92181015"><ele>685.5</ele><time>2013-11-22T09:09:43.0000000+00:00</time></trkpt><trkpt lat="30.68973732" lon="34.92181015"><ele>685.5</ele><time>2013-11-22T09:09:48.0000000+00:00</time></trkpt><trkpt lat="30.68973732" lon="34.92181015"><ele>685.5</ele><time>2013-11-22T09:09:53.0000000+00:00</time></trkpt><trkpt lat="30.68973732" lon="34.92181015"><ele>685.5</ele><time>2013-11-22T09:09:58.0000000+00:00</time></trkpt><trkpt lat="30.68973732" lon="34.92181015"><ele>685.5</ele><time>2013-11-22T09:10:03.0000000+00:00</time></trkpt><trkpt lat="30.68973732" lon="34.92181015"><ele>685.5</ele><time>2013-11-22T09:10:08.0000000+00:00</time></trkpt><trkpt lat="30.68973732" lon="34.92181015"><ele>685.6</ele><time>2013-11-22T09:10:13.0000000+00:00</time></trkpt><trkpt lat="30.68973732" lon="34.92181015"><ele>685.6</ele><time>2013-11-22T09:10:18.0000000+00:00</time></trkpt><trkpt lat="30.68973732" lon="34.92181015"><ele>685.6</ele><time>2013-11-22T09:10:23.0000000+00:00</time></trkpt><trkpt lat="30.68973732" lon="34.92181015"><ele>685.6</ele><time>2013-11-22T09:10:28.0000000+00:00</time></trkpt><trkpt lat="30.68973732" lon="34.92181015"><ele>685.6</ele><time>2013-11-22T09:10:33.0000000+00:00</time></trkpt><trkpt lat="30.68974876" lon="34.92182541"><ele>685.4</ele><time>2013-11-22T09:10:38.0000000+00:00</time></trkpt><trkpt lat="30.689785" lon="34.92189407"><ele>685.0</ele><time>2013-11-22T09:10:43.0000000+00:00</time></trkpt><trkpt lat="30.68984222" lon="34.92204285"><ele>684.4</ele><time>2013-11-22T09:10:48.0000000+00:00</time></trkpt><trkpt lat="30.68985558" lon="34.92216492"><ele>684.3</ele><time>2013-11-22T09:10:53.0000000+00:00</time></trkpt><trkpt lat="30.68982315" lon="34.92230225"><ele>684.5</ele><time>2013-11-22T09:10:58.0000000+00:00</time></trkpt><trkpt lat="30.68965721" lon="34.92233276"><ele>684.2</ele><time>2013-11-22T09:11:03.0000000+00:00</time></trkpt><trkpt lat="30.68948364" lon="34.92242432"><ele>683.0</ele><time>2013-11-22T09:11:08.0000000+00:00</time></trkpt><trkpt lat="30.68939781" lon="34.92258453"><ele>682.5</ele><time>2013-11-22T09:11:13.0000000+00:00</time></trkpt><trkpt lat="30.68934822" lon="34.92272186"><ele>682.1</ele><time>2013-11-22T09:11:18.0000000+00:00</time></trkpt><trkpt lat="30.6893158" lon="34.9228859"><ele>681.4</ele><time>2013-11-22T09:11:23.0000000+00:00</time></trkpt><trkpt lat="30.68933296" lon="34.92307282"><ele>681.2</ele><time>2013-11-22T09:11:28.0000000+00:00</time></trkpt><trkpt lat="30.68940163" lon="34.92324066"><ele>681.8</ele><time>2013-11-22T09:11:33.0000000+00:00</time></trkpt><trkpt lat="30.68948555" lon="34.92340851"><ele>682.2</ele><time>2013-11-22T09:11:38.0000000+00:00</time></trkpt><trkpt lat="30.68956566" lon="34.92354584"><ele>681.6</ele><time>2013-11-22T09:11:43.0000000+00:00</time></trkpt><trkpt lat="30.68962479" lon="34.92370224"><ele>682.0</ele><time>2013-11-22T09:11:48.0000000+00:00</time></trkpt><trkpt lat="30.6896801" lon="34.92385483"><ele>682.1</ele><time>2013-11-22T09:11:53.0000000+00:00</time></trkpt><trkpt lat="30.68978119" lon="34.9239769"><ele>681.8</ele><time>2013-11-22T09:11:58.0000000+00:00</time></trkpt><trkpt lat="30.68992806" lon="34.92402268"><ele>680.3</ele><time>2013-11-22T09:12:03.0000000+00:00</time></trkpt><trkpt lat="30.69007874" lon="34.92401505"><ele>678.2</ele><time>2013-11-22T09:12:08.0000000+00:00</time></trkpt><trkpt lat="30.69013214" lon="34.92408752"><ele>676.5</ele><time>2013-11-22T09:12:13.0000000+00:00</time></trkpt><trkpt lat="30.69013977" lon="34.92418671"><ele>675.2</ele><time>2013-11-22T09:12:18.0000000+00:00</time></trkpt><trkpt lat="30.69017029" lon="34.92428589"><ele>673.6</ele><time>2013-11-22T09:12:23.0000000+00:00</time></trkpt><trkpt lat="30.69033241" lon="34.92438507"><ele>672.3</ele><time>2013-11-22T09:12:28.0000000+00:00</time></trkpt><trkpt lat="30.69049072" lon="34.92436218"><ele>672.0</ele><time>2013-11-22T09:12:33.0000000+00:00</time></trkpt><trkpt lat="30.69061661" lon="34.92423248"><ele>671.5</ele><time>2013-11-22T09:12:38.0000000+00:00</time></trkpt><trkpt lat="30.69075394" lon="34.92414093"><ele>670.9</ele><time>2013-11-22T09:12:43.0000000+00:00</time></trkpt><trkpt lat="30.6908741" lon="34.92407608"><ele>669.7</ele><time>2013-11-22T09:12:48.0000000+00:00</time></trkpt><trkpt lat="30.690979" lon="34.92400742"><ele>670.8</ele><time>2013-11-22T09:12:53.0000000+00:00</time></trkpt><trkpt lat="30.6910553" lon="34.92395783"><ele>671.0</ele><time>2013-11-22T09:12:58.0000000+00:00</time></trkpt><trkpt lat="30.69114494" lon="34.92390823"><ele>670.2</ele><time>2013-11-22T09:13:03.0000000+00:00</time></trkpt><trkpt lat="30.69120598" lon="34.92396164"><ele>668.7</ele><time>2013-11-22T09:13:08.0000000+00:00</time></trkpt><trkpt lat="30.69116592" lon="34.92409515"><ele>667.3</ele><time>2013-11-22T09:13:13.0000000+00:00</time></trkpt><trkpt lat="30.69107246" lon="34.92423248"><ele>667.2</ele><time>2013-11-22T09:13:18.0000000+00:00</time></trkpt><trkpt lat="30.69103241" lon="34.92435074"><ele>666.9</ele><time>2013-11-22T09:13:23.0000000+00:00</time></trkpt><trkpt lat="30.69101715" lon="34.92446899"><ele>666.1</ele><time>2013-11-22T09:13:28.0000000+00:00</time></trkpt><trkpt lat="30.69097519" lon="34.92453003"><ele>665.9</ele><time>2013-11-22T09:13:33.0000000+00:00</time></trkpt><trkpt lat="30.69095802" lon="34.92454147"><ele>665.9</ele><time>2013-11-22T09:13:38.0000000+00:00</time></trkpt><trkpt lat="30.69095802" lon="34.92454147"><ele>666.0</ele><time>2013-11-22T09:13:43.0000000+00:00</time></trkpt><trkpt lat="30.69095421" lon="34.92454147"><ele>665.9</ele><time>2013-11-22T09:13:48.0000000+00:00</time></trkpt><trkpt lat="30.6909523" lon="34.92454147"><ele>665.8</ele><time>2013-11-22T09:13:53.0000000+00:00</time></trkpt><trkpt lat="30.6909523" lon="34.92454147"><ele>665.8</ele><time>2013-11-22T09:13:58.0000000+00:00</time></trkpt><trkpt lat="30.6909523" lon="34.92454147"><ele>665.9</ele><time>2013-11-22T09:14:03.0000000+00:00</time></trkpt><trkpt lat="30.6909523" lon="34.92454147"><ele>665.9</ele><time>2013-11-22T09:14:08.0000000+00:00</time></trkpt><trkpt lat="30.6909523" lon="34.92454147"><ele>665.9</ele><time>2013-11-22T09:14:13.0000000+00:00</time></trkpt><trkpt lat="30.69095039" lon="34.92454147"><ele>665.9</ele><time>2013-11-22T09:14:18.0000000+00:00</time></trkpt><trkpt lat="30.69095039" lon="34.92454147"><ele>665.9</ele><time>2013-11-22T09:14:23.0000000+00:00</time></trkpt><trkpt lat="30.69095039" lon="34.92454147"><ele>665.9</ele><time>2013-11-22T09:14:28.0000000+00:00</time></trkpt><trkpt lat="30.69095039" lon="34.92454147"><ele>665.9</ele><time>2013-11-22T09:14:33.0000000+00:00</time></trkpt><trkpt lat="30.69095039" lon="34.92454147"><ele>665.9</ele><time>2013-11-22T09:14:38.0000000+00:00</time></trkpt><trkpt lat="30.69095039" lon="34.92454147"><ele>665.9</ele><time>2013-11-22T09:14:43.0000000+00:00</time></trkpt><trkpt lat="30.6909523" lon="34.92454147"><ele>665.9</ele><time>2013-11-22T09:14:48.0000000+00:00</time></trkpt><trkpt lat="30.6909523" lon="34.92454147"><ele>665.8</ele><time>2013-11-22T09:14:53.0000000+00:00</time></trkpt><trkpt lat="30.6909523" lon="34.92453766"><ele>665.8</ele><time>2013-11-22T09:14:58.0000000+00:00</time></trkpt><trkpt lat="30.6909523" lon="34.92453766"><ele>665.8</ele><time>2013-11-22T09:15:03.0000000+00:00</time></trkpt><trkpt lat="30.69095039" lon="34.92453766"><ele>665.8</ele><time>2013-11-22T09:15:08.0000000+00:00</time></trkpt><trkpt lat="30.69095039" lon="34.92453766"><ele>665.7</ele><time>2013-11-22T09:15:13.0000000+00:00</time></trkpt><trkpt lat="30.69095039" lon="34.92453766"><ele>665.7</ele><time>2013-11-22T09:15:18.0000000+00:00</time></trkpt><trkpt lat="30.6909523" lon="34.92456055"><ele>665.5</ele><time>2013-11-22T09:15:23.0000000+00:00</time></trkpt><trkpt lat="30.6909523" lon="34.92457962"><ele>665.3</ele><time>2013-11-22T09:15:28.0000000+00:00</time></trkpt><trkpt lat="30.6909523" lon="34.92459488"><ele>665.1</ele><time>2013-11-22T09:15:33.0000000+00:00</time></trkpt><trkpt lat="30.69091797" lon="34.9246788"><ele>664.6</ele><time>2013-11-22T09:15:38.0000000+00:00</time></trkpt><trkpt lat="30.69083595" lon="34.9248085"><ele>664.0</ele><time>2013-11-22T09:15:43.0000000+00:00</time></trkpt><trkpt lat="30.69073486" lon="34.92489624"><ele>663.5</ele><time>2013-11-22T09:15:48.0000000+00:00</time></trkpt><trkpt lat="30.69065094" lon="34.92492294"><ele>663.2</ele><time>2013-11-22T09:15:53.0000000+00:00</time></trkpt><trkpt lat="30.69054222" lon="34.92492676"><ele>662.9</ele><time>2013-11-22T09:15:58.0000000+00:00</time></trkpt><trkpt lat="30.6904316" lon="34.92491913"><ele>662.8</ele><time>2013-11-22T09:16:03.0000000+00:00</time></trkpt><trkpt lat="30.69039726" lon="34.92502594"><ele>661.8</ele><time>2013-11-22T09:16:08.0000000+00:00</time></trkpt><trkpt lat="30.69044304" lon="34.92516708"><ele>661.2</ele><time>2013-11-22T09:16:13.0000000+00:00</time></trkpt><trkpt lat="30.69046974" lon="34.92524719"><ele>661.0</ele><time>2013-11-22T09:16:18.0000000+00:00</time></trkpt><trkpt lat="30.69047546" lon="34.92525101"><ele>659.7</ele><time>2013-11-22T09:16:23.0000000+00:00</time></trkpt><trkpt lat="30.69047546" lon="34.92525101"><ele>659.7</ele><time>2013-11-22T09:16:28.0000000+00:00</time></trkpt><trkpt lat="30.69060135" lon="34.9253006"><ele>658.8</ele><time>2013-11-22T09:16:33.0000000+00:00</time></trkpt><trkpt lat="30.69078064" lon="34.92529678"><ele>658.1</ele><time>2013-11-22T09:16:38.0000000+00:00</time></trkpt><trkpt lat="30.69096184" lon="34.92530441"><ele>658.5</ele><time>2013-11-22T09:16:43.0000000+00:00</time></trkpt><trkpt lat="30.69114494" lon="34.92533875"><ele>656.8</ele><time>2013-11-22T09:16:48.0000000+00:00</time></trkpt><trkpt lat="30.69137764" lon="34.92541885"><ele>653.2</ele><time>2013-11-22T09:16:53.0000000+00:00</time></trkpt><trkpt lat="30.69163322" lon="34.92549896"><ele>647.5</ele><time>2013-11-22T09:16:58.0000000+00:00</time></trkpt><trkpt lat="30.69192886" lon="34.9255867"><ele>645.5</ele><time>2013-11-22T09:17:03.0000000+00:00</time></trkpt><trkpt lat="30.69220352" lon="34.92564774"><ele>645.6</ele><time>2013-11-22T09:17:08.0000000+00:00</time></trkpt><trkpt lat="30.69226837" lon="34.92566681"><ele>647.3</ele><time>2013-11-22T09:17:13.0000000+00:00</time></trkpt><trkpt lat="30.69226265" lon="34.92566299"><ele>647.3</ele><time>2013-11-22T09:17:18.0000000+00:00</time></trkpt><trkpt lat="30.69226265" lon="34.92566299"><ele>647.3</ele><time>2013-11-22T09:17:23.0000000+00:00</time></trkpt><trkpt lat="30.69226265" lon="34.92566299"><ele>647.3</ele><time>2013-11-22T09:17:28.0000000+00:00</time></trkpt><trkpt lat="30.69226074" lon="34.92566681"><ele>647.3</ele><time>2013-11-22T09:17:33.0000000+00:00</time></trkpt><trkpt lat="30.69226074" lon="34.92566299"><ele>647.3</ele><time>2013-11-22T09:17:38.0000000+00:00</time></trkpt><trkpt lat="30.69226074" lon="34.92566681"><ele>647.3</ele><time>2013-11-22T09:17:43.0000000+00:00</time></trkpt><trkpt lat="30.69226074" lon="34.92566681"><ele>647.4</ele><time>2013-11-22T09:17:48.0000000+00:00</time></trkpt><trkpt lat="30.69226074" lon="34.92566681"><ele>647.5</ele><time>2013-11-22T09:17:53.0000000+00:00</time></trkpt><trkpt lat="30.69226265" lon="34.92566681"><ele>647.5</ele><time>2013-11-22T09:17:58.0000000+00:00</time></trkpt><trkpt lat="30.69226265" lon="34.92566681"><ele>647.5</ele><time>2013-11-22T09:18:03.0000000+00:00</time></trkpt><trkpt lat="30.69226265" lon="34.92566681"><ele>647.5</ele><time>2013-11-22T09:18:08.0000000+00:00</time></trkpt><trkpt lat="30.69226265" lon="34.92566681"><ele>647.6</ele><time>2013-11-22T09:18:13.0000000+00:00</time></trkpt><trkpt lat="30.69226265" lon="34.92566681"><ele>647.6</ele><time>2013-11-22T09:18:18.0000000+00:00</time></trkpt><trkpt lat="30.69226265" lon="34.92566681"><ele>647.6</ele><time>2013-11-22T09:18:23.0000000+00:00</time></trkpt><trkpt lat="30.69226265" lon="34.92566681"><ele>647.6</ele><time>2013-11-22T09:18:28.0000000+00:00</time></trkpt><trkpt lat="30.69226456" lon="34.92566681"><ele>647.6</ele><time>2013-11-22T09:18:33.0000000+00:00</time></trkpt><trkpt lat="30.69226456" lon="34.92566681"><ele>647.6</ele><time>2013-11-22T09:18:38.0000000+00:00</time></trkpt><trkpt lat="30.69226456" lon="34.92566681"><ele>647.6</ele><time>2013-11-22T09:18:43.0000000+00:00</time></trkpt><trkpt lat="30.69226456" lon="34.92566681"><ele>647.6</ele><time>2013-11-22T09:18:48.0000000+00:00</time></trkpt><trkpt lat="30.69226456" lon="34.92566681"><ele>647.6</ele><time>2013-11-22T09:18:53.0000000+00:00</time></trkpt><trkpt lat="30.69226456" lon="34.92566681"><ele>647.7</ele><time>2013-11-22T09:18:58.0000000+00:00</time></trkpt><trkpt lat="30.69226456" lon="34.92566681"><ele>647.7</ele><time>2013-11-22T09:19:03.0000000+00:00</time></trkpt><trkpt lat="30.69226456" lon="34.92566681"><ele>647.7</ele><time>2013-11-22T09:19:08.0000000+00:00</time></trkpt><trkpt lat="30.69226456" lon="34.92566681"><ele>647.7</ele><time>2013-11-22T09:19:13.0000000+00:00</time></trkpt><trkpt lat="30.69226456" lon="34.92566681"><ele>647.7</ele><time>2013-11-22T09:19:18.0000000+00:00</time></trkpt><trkpt lat="30.69226646" lon="34.92566681"><ele>647.7</ele><time>2013-11-22T09:19:23.0000000+00:00</time></trkpt><trkpt lat="30.69226646" lon="34.92566681"><ele>647.7</ele><time>2013-11-22T09:19:28.0000000+00:00</time></trkpt><trkpt lat="30.69226646" lon="34.92566681"><ele>647.7</ele><time>2013-11-22T09:19:33.0000000+00:00</time></trkpt><trkpt lat="30.69226646" lon="34.92566681"><ele>647.7</ele><time>2013-11-22T09:19:38.0000000+00:00</time></trkpt><trkpt lat="30.69226646" lon="34.92566681"><ele>647.7</ele><time>2013-11-22T09:19:43.0000000+00:00</time></trkpt><trkpt lat="30.69226646" lon="34.92566681"><ele>647.7</ele><time>2013-11-22T09:19:48.0000000+00:00</time></trkpt><trkpt lat="30.69226646" lon="34.92566681"><ele>647.7</ele><time>2013-11-22T09:19:53.0000000+00:00</time></trkpt><trkpt lat="30.69226646" lon="34.92566681"><ele>647.8</ele><time>2013-11-22T09:19:58.0000000+00:00</time></trkpt><trkpt lat="30.69227219" lon="34.92567444"><ele>647.8</ele><time>2013-11-22T09:20:03.0000000+00:00</time></trkpt><trkpt lat="30.69227028" lon="34.92568207"><ele>648.0</ele><time>2013-11-22T09:20:08.0000000+00:00</time></trkpt><trkpt lat="30.69227028" lon="34.92568207"><ele>648.0</ele><time>2013-11-22T09:20:13.0000000+00:00</time></trkpt><trkpt lat="30.69227028" lon="34.92568207"><ele>648.1</ele><time>2013-11-22T09:20:18.0000000+00:00</time></trkpt><trkpt lat="30.69224167" lon="34.92572403"><ele>650.7</ele><time>2013-11-22T09:20:23.0000000+00:00</time></trkpt><trkpt lat="30.69221687" lon="34.92578888"><ele>651.9</ele><time>2013-11-22T09:20:28.0000000+00:00</time></trkpt><trkpt lat="30.69218636" lon="34.92588043"><ele>653.5</ele><time>2013-11-22T09:20:33.0000000+00:00</time></trkpt><trkpt lat="30.69211578" lon="34.92595291"><ele>654.6</ele><time>2013-11-22T09:20:38.0000000+00:00</time></trkpt><trkpt lat="30.6920681" lon="34.92598724"><ele>654.4</ele><time>2013-11-22T09:20:43.0000000+00:00</time></trkpt><trkpt lat="30.69197655" lon="34.92602158"><ele>654.4</ele><time>2013-11-22T09:20:48.0000000+00:00</time></trkpt><trkpt lat="30.69189644" lon="34.92607117"><ele>655.0</ele><time>2013-11-22T09:20:53.0000000+00:00</time></trkpt><trkpt lat="30.69182587" lon="34.92611694"><ele>655.4</ele><time>2013-11-22T09:20:58.0000000+00:00</time></trkpt><trkpt lat="30.69176865" lon="34.92617416"><ele>655.8</ele><time>2013-11-22T09:21:03.0000000+00:00</time></trkpt><trkpt lat="30.69171715" lon="34.92626572"><ele>656.4</ele><time>2013-11-22T09:21:08.0000000+00:00</time></trkpt><trkpt lat="30.69167137" lon="34.92629623"><ele>656.8</ele><time>2013-11-22T09:21:13.0000000+00:00</time></trkpt><trkpt lat="30.69162941" lon="34.92632675"><ele>657.4</ele><time>2013-11-22T09:21:18.0000000+00:00</time></trkpt><trkpt lat="30.69159317" lon="34.92637634"><ele>659.0</ele><time>2013-11-22T09:21:23.0000000+00:00</time></trkpt><trkpt lat="30.69154167" lon="34.92643356"><ele>660.1</ele><time>2013-11-22T09:21:28.0000000+00:00</time></trkpt><trkpt lat="30.69151688" lon="34.92644119"><ele>660.4</ele><time>2013-11-22T09:21:33.0000000+00:00</time></trkpt><trkpt lat="30.69147492" lon="34.9264679"><ele>660.3</ele><time>2013-11-22T09:21:38.0000000+00:00</time></trkpt><trkpt lat="30.69143486" lon="34.92649841"><ele>660.2</ele><time>2013-11-22T09:21:43.0000000+00:00</time></trkpt><trkpt lat="30.69139671" lon="34.92652893"><ele>660.5</ele><time>2013-11-22T09:21:48.0000000+00:00</time></trkpt><trkpt lat="30.69134903" lon="34.92656708"><ele>661.5</ele><time>2013-11-22T09:21:53.0000000+00:00</time></trkpt><trkpt lat="30.69130325" lon="34.92658234"><ele>660.5</ele><time>2013-11-22T09:21:58.0000000+00:00</time></trkpt><trkpt lat="30.69127274" lon="34.9266243"><ele>660.7</ele><time>2013-11-22T09:22:03.0000000+00:00</time></trkpt><trkpt lat="30.6912384" lon="34.926651"><ele>660.3</ele><time>2013-11-22T09:22:08.0000000+00:00</time></trkpt><trkpt lat="30.69120598" lon="34.92668152"><ele>660.4</ele><time>2013-11-22T09:22:13.0000000+00:00</time></trkpt><trkpt lat="30.69116592" lon="34.92669678"><ele>660.5</ele><time>2013-11-22T09:22:18.0000000+00:00</time></trkpt><trkpt lat="30.69112015" lon="34.9267273"><ele>661.5</ele><time>2013-11-22T09:22:23.0000000+00:00</time></trkpt><trkpt lat="30.69107628" lon="34.92675781"><ele>661.4</ele><time>2013-11-22T09:22:28.0000000+00:00</time></trkpt><trkpt lat="30.69103622" lon="34.92678452"><ele>661.7</ele><time>2013-11-22T09:22:33.0000000+00:00</time></trkpt><trkpt lat="30.6910286" lon="34.92679215"><ele>662.0</ele><time>2013-11-22T09:22:38.0000000+00:00</time></trkpt><trkpt lat="30.69101334" lon="34.92678452"><ele>662.4</ele><time>2013-11-22T09:22:43.0000000+00:00</time></trkpt><trkpt lat="30.69096565" lon="34.9268074"><ele>662.7</ele><time>2013-11-22T09:22:48.0000000+00:00</time></trkpt><trkpt lat="30.69088745" lon="34.92684555"><ele>662.8</ele><time>2013-11-22T09:22:53.0000000+00:00</time></trkpt><trkpt lat="30.69081307" lon="34.92687988"><ele>663.0</ele><time>2013-11-22T09:22:58.0000000+00:00</time></trkpt><trkpt lat="30.69074822" lon="34.92689896"><ele>663.3</ele><time>2013-11-22T09:23:03.0000000+00:00</time></trkpt><trkpt lat="30.69068146" lon="34.92692566"><ele>663.6</ele><time>2013-11-22T09:23:08.0000000+00:00</time></trkpt><trkpt lat="30.69063187" lon="34.92696762"><ele>664.4</ele><time>2013-11-22T09:23:13.0000000+00:00</time></trkpt><trkpt lat="30.69059372" lon="34.9270134"><ele>665.1</ele><time>2013-11-22T09:23:18.0000000+00:00</time></trkpt><trkpt lat="30.69054222" lon="34.9270401"><ele>664.9</ele><time>2013-11-22T09:23:23.0000000+00:00</time></trkpt><trkpt lat="30.69048691" lon="34.92707443"><ele>664.9</ele><time>2013-11-22T09:23:28.0000000+00:00</time></trkpt><trkpt lat="30.69042969" lon="34.92711258"><ele>664.6</ele><time>2013-11-22T09:23:33.0000000+00:00</time></trkpt><trkpt lat="30.69038963" lon="34.92715073"><ele>665.3</ele><time>2013-11-22T09:23:38.0000000+00:00</time></trkpt><trkpt lat="30.69035339" lon="34.92718887"><ele>666.1</ele><time>2013-11-22T09:23:43.0000000+00:00</time></trkpt><trkpt lat="30.69030571" lon="34.92721176"><ele>666.2</ele><time>2013-11-22T09:23:48.0000000+00:00</time></trkpt><trkpt lat="30.69023895" lon="34.92723846"><ele>666.3</ele><time>2013-11-22T09:23:53.0000000+00:00</time></trkpt><trkpt lat="30.69017792" lon="34.92725754"><ele>666.9</ele><time>2013-11-22T09:23:58.0000000+00:00</time></trkpt><trkpt lat="30.69009781" lon="34.92727661"><ele>666.3</ele><time>2013-11-22T09:24:03.0000000+00:00</time></trkpt><trkpt lat="30.69000626" lon="34.92731476"><ele>665.0</ele><time>2013-11-22T09:24:08.0000000+00:00</time></trkpt><trkpt lat="30.68985748" lon="34.92738342"><ele>663.1</ele><time>2013-11-22T09:24:13.0000000+00:00</time></trkpt><trkpt lat="30.68976021" lon="34.92752075"><ele>663.4</ele><time>2013-11-22T09:24:18.0000000+00:00</time></trkpt><trkpt lat="30.68969917" lon="34.92758179"><ele>666.8</ele><time>2013-11-22T09:24:23.0000000+00:00</time></trkpt><trkpt lat="30.68963814" lon="34.92766571"><ele>669.3</ele><time>2013-11-22T09:24:28.0000000+00:00</time></trkpt><trkpt lat="30.68958473" lon="34.92775726"><ele>671.9</ele><time>2013-11-22T09:24:33.0000000+00:00</time></trkpt><trkpt lat="30.68954468" lon="34.92786408"><ele>673.7</ele><time>2013-11-22T09:24:38.0000000+00:00</time></trkpt><trkpt lat="30.68951988" lon="34.92794037"><ele>673.7</ele><time>2013-11-22T09:24:43.0000000+00:00</time></trkpt><trkpt lat="30.68945885" lon="34.92804337"><ele>673.0</ele><time>2013-11-22T09:24:48.0000000+00:00</time></trkpt><trkpt lat="30.68929863" lon="34.92816925"><ele>670.5</ele><time>2013-11-22T09:24:53.0000000+00:00</time></trkpt><trkpt lat="30.68915939" lon="34.9282608"><ele>670.7</ele><time>2013-11-22T09:24:58.0000000+00:00</time></trkpt><trkpt lat="30.68907738" lon="34.92832184"><ele>669.1</ele><time>2013-11-22T09:25:03.0000000+00:00</time></trkpt><trkpt lat="30.68899536" lon="34.92837906"><ele>669.4</ele><time>2013-11-22T09:25:08.0000000+00:00</time></trkpt><trkpt lat="30.6889286" lon="34.92844772"><ele>671.1</ele><time>2013-11-22T09:25:13.0000000+00:00</time></trkpt><trkpt lat="30.68883324" lon="34.92850113"><ele>671.4</ele><time>2013-11-22T09:25:18.0000000+00:00</time></trkpt><trkpt lat="30.68877792" lon="34.92855454"><ele>672.2</ele><time>2013-11-22T09:25:23.0000000+00:00</time></trkpt><trkpt lat="30.68871117" lon="34.92858505"><ele>671.4</ele><time>2013-11-22T09:25:28.0000000+00:00</time></trkpt><trkpt lat="30.68865395" lon="34.92860794"><ele>670.8</ele><time>2013-11-22T09:25:33.0000000+00:00</time></trkpt><trkpt lat="30.68860626" lon="34.92861939"><ele>669.6</ele><time>2013-11-22T09:25:38.0000000+00:00</time></trkpt><trkpt lat="30.68855286" lon="34.9286499"><ele>669.8</ele><time>2013-11-22T09:25:43.0000000+00:00</time></trkpt><trkpt lat="30.68855095" lon="34.92865372"><ele>670.5</ele><time>2013-11-22T09:25:48.0000000+00:00</time></trkpt><trkpt lat="30.68855095" lon="34.92865372"><ele>670.5</ele><time>2013-11-22T09:25:53.0000000+00:00</time></trkpt><trkpt lat="30.68855095" lon="34.92865372"><ele>670.6</ele><time>2013-11-22T09:25:58.0000000+00:00</time></trkpt><trkpt lat="30.68855095" lon="34.92865372"><ele>670.6</ele><time>2013-11-22T09:26:03.0000000+00:00</time></trkpt><trkpt lat="30.68854904" lon="34.9286499"><ele>670.6</ele><time>2013-11-22T09:26:08.0000000+00:00</time></trkpt><trkpt lat="30.68854523" lon="34.92865372"><ele>670.6</ele><time>2013-11-22T09:26:13.0000000+00:00</time></trkpt><trkpt lat="30.68854523" lon="34.92865372"><ele>670.6</ele><time>2013-11-22T09:26:18.0000000+00:00</time></trkpt><trkpt lat="30.68854713" lon="34.9286499"><ele>670.6</ele><time>2013-11-22T09:26:23.0000000+00:00</time></trkpt><trkpt lat="30.68854713" lon="34.9286499"><ele>670.6</ele><time>2013-11-22T09:26:28.0000000+00:00</time></trkpt><trkpt lat="30.68854713" lon="34.9286499"><ele>670.7</ele><time>2013-11-22T09:26:33.0000000+00:00</time></trkpt><trkpt lat="30.68854713" lon="34.9286499"><ele>670.7</ele><time>2013-11-22T09:26:38.0000000+00:00</time></trkpt><trkpt lat="30.68854713" lon="34.9286499"><ele>670.7</ele><time>2013-11-22T09:26:43.0000000+00:00</time></trkpt><trkpt lat="30.68854713" lon="34.92865372"><ele>670.8</ele><time>2013-11-22T09:26:48.0000000+00:00</time></trkpt><trkpt lat="30.68858719" lon="34.9286499"><ele>671.3</ele><time>2013-11-22T09:26:53.0000000+00:00</time></trkpt><trkpt lat="30.68867111" lon="34.92862701"><ele>671.0</ele><time>2013-11-22T09:26:58.0000000+00:00</time></trkpt><trkpt lat="30.68880653" lon="34.92858505"><ele>670.8</ele><time>2013-11-22T09:27:03.0000000+00:00</time></trkpt><trkpt lat="30.68890953" lon="34.92847443"><ele>671.8</ele><time>2013-11-22T09:27:08.0000000+00:00</time></trkpt><trkpt lat="30.68906784" lon="34.92835999"><ele>670.9</ele><time>2013-11-22T09:27:13.0000000+00:00</time></trkpt><trkpt lat="30.68922806" lon="34.92823029"><ele>670.6</ele><time>2013-11-22T09:27:18.0000000+00:00</time></trkpt><trkpt lat="30.68928146" lon="34.92821121"><ele>670.6</ele><time>2013-11-22T09:27:23.0000000+00:00</time></trkpt><trkpt lat="30.68928719" lon="34.92821121"><ele>672.0</ele><time>2013-11-22T09:27:28.0000000+00:00</time></trkpt><trkpt lat="30.689291" lon="34.92821503"><ele>672.3</ele><time>2013-11-22T09:27:33.0000000+00:00</time></trkpt><trkpt lat="30.68928909" lon="34.92821503"><ele>672.1</ele><time>2013-11-22T09:27:38.0000000+00:00</time></trkpt><trkpt lat="30.68930244" lon="34.9282074"><ele>672.1</ele><time>2013-11-22T09:27:43.0000000+00:00</time></trkpt><trkpt lat="30.68930054" lon="34.92822266"><ele>672.0</ele><time>2013-11-22T09:27:48.0000000+00:00</time></trkpt><trkpt lat="30.68928909" lon="34.92822647"><ele>671.6</ele><time>2013-11-22T09:27:53.0000000+00:00</time></trkpt><trkpt lat="30.68928909" lon="34.92823792"><ele>671.6</ele><time>2013-11-22T09:27:58.0000000+00:00</time></trkpt><trkpt lat="30.68927765" lon="34.92823029"><ele>671.3</ele><time>2013-11-22T09:28:03.0000000+00:00</time></trkpt><trkpt lat="30.68927956" lon="34.92822647"><ele>671.4</ele><time>2013-11-22T09:28:08.0000000+00:00</time></trkpt><trkpt lat="30.68927956" lon="34.92821884"><ele>671.6</ele><time>2013-11-22T09:28:13.0000000+00:00</time></trkpt><trkpt lat="30.68930244" lon="34.92820358"><ele>672.3</ele><time>2013-11-22T09:28:18.0000000+00:00</time></trkpt><trkpt lat="30.68936157" lon="34.92816544"><ele>673.4</ele><time>2013-11-22T09:28:23.0000000+00:00</time></trkpt><trkpt lat="30.68945313" lon="34.92809296"><ele>674.2</ele><time>2013-11-22T09:28:28.0000000+00:00</time></trkpt><trkpt lat="30.68951225" lon="34.92803574"><ele>674.7</ele><time>2013-11-22T09:28:33.0000000+00:00</time></trkpt><trkpt lat="30.68953705" lon="34.92796707"><ele>675.5</ele><time>2013-11-22T09:28:38.0000000+00:00</time></trkpt><trkpt lat="30.68954849" lon="34.92792893"><ele>676.1</ele><time>2013-11-22T09:28:43.0000000+00:00</time></trkpt><trkpt lat="30.68957329" lon="34.92785645"><ele>676.7</ele><time>2013-11-22T09:28:48.0000000+00:00</time></trkpt><trkpt lat="30.68961525" lon="34.92778778"><ele>675.9</ele><time>2013-11-22T09:28:53.0000000+00:00</time></trkpt><trkpt lat="30.68960762" lon="34.92778397"><ele>676.4</ele><time>2013-11-22T09:28:58.0000000+00:00</time></trkpt><trkpt lat="30.68963623" lon="34.92773819"><ele>676.2</ele><time>2013-11-22T09:29:03.0000000+00:00</time></trkpt><trkpt lat="30.6897068" lon="34.92761231"><ele>674.7</ele><time>2013-11-22T09:29:08.0000000+00:00</time></trkpt><trkpt lat="30.68981934" lon="34.92748261"><ele>673.4</ele><time>2013-11-22T09:29:13.0000000+00:00</time></trkpt><trkpt lat="30.68992996" lon="34.92737198"><ele>674.1</ele><time>2013-11-22T09:29:18.0000000+00:00</time></trkpt><trkpt lat="30.69002342" lon="34.92733765"><ele>674.4</ele><time>2013-11-22T09:29:23.0000000+00:00</time></trkpt><trkpt lat="30.69009972" lon="34.9272995"><ele>674.9</ele><time>2013-11-22T09:29:28.0000000+00:00</time></trkpt><trkpt lat="30.69017601" lon="34.92727661"><ele>675.0</ele><time>2013-11-22T09:29:33.0000000+00:00</time></trkpt><trkpt lat="30.69022942" lon="34.92725372"><ele>675.7</ele><time>2013-11-22T09:29:38.0000000+00:00</time></trkpt><trkpt lat="30.69033432" lon="34.92724228"><ele>675.3</ele><time>2013-11-22T09:29:43.0000000+00:00</time></trkpt><trkpt lat="30.6904335" lon="34.92720413"><ele>673.1</ele><time>2013-11-22T09:29:48.0000000+00:00</time></trkpt><trkpt lat="30.69052124" lon="34.92710877"><ele>671.0</ele><time>2013-11-22T09:29:53.0000000+00:00</time></trkpt><trkpt lat="30.69060135" lon="34.9270668"><ele>670.0</ele><time>2013-11-22T09:29:58.0000000+00:00</time></trkpt><trkpt lat="30.69073296" lon="34.92695999"><ele>667.8</ele><time>2013-11-22T09:30:03.0000000+00:00</time></trkpt><trkpt lat="30.69096947" lon="34.92684555"><ele>665.6</ele><time>2013-11-22T09:30:08.0000000+00:00</time></trkpt><trkpt lat="30.69119644" lon="34.9267273"><ele>663.1</ele><time>2013-11-22T09:30:13.0000000+00:00</time></trkpt><trkpt lat="30.69139671" lon="34.92657852"><ele>659.3</ele><time>2013-11-22T09:30:18.0000000+00:00</time></trkpt><trkpt lat="30.69158936" lon="34.92643356"><ele>656.0</ele><time>2013-11-22T09:30:23.0000000+00:00</time></trkpt><trkpt lat="30.691782" lon="34.92623901"><ele>652.6</ele><time>2013-11-22T09:30:28.0000000+00:00</time></trkpt><trkpt lat="30.6920166" lon="34.92601395"><ele>649.0</ele><time>2013-11-22T09:30:33.0000000+00:00</time></trkpt><trkpt lat="30.69220924" lon="34.92590332"><ele>647.0</ele><time>2013-11-22T09:30:38.0000000+00:00</time></trkpt><trkpt lat="30.69226646" lon="34.92571259"><ele>646.8</ele><time>2013-11-22T09:30:43.0000000+00:00</time></trkpt><trkpt lat="30.69241142" lon="34.92566681"><ele>647.0</ele><time>2013-11-22T09:30:48.0000000+00:00</time></trkpt><trkpt lat="30.69242859" lon="34.92567825"><ele>649.6</ele><time>2013-11-22T09:30:53.0000000+00:00</time></trkpt><trkpt lat="30.69247246" lon="34.92569351"><ele>649.7</ele><time>2013-11-22T09:30:58.0000000+00:00</time></trkpt><trkpt lat="30.69261169" lon="34.9257431"><ele>649.6</ele><time>2013-11-22T09:31:03.0000000+00:00</time></trkpt><trkpt lat="30.69278526" lon="34.92578507"><ele>648.6</ele><time>2013-11-22T09:31:08.0000000+00:00</time></trkpt><trkpt lat="30.69294167" lon="34.92583466"><ele>648.8</ele><time>2013-11-22T09:31:13.0000000+00:00</time></trkpt><trkpt lat="30.69310188" lon="34.92589951"><ele>649.3</ele><time>2013-11-22T09:31:18.0000000+00:00</time></trkpt><trkpt lat="30.69325256" lon="34.92593765"><ele>649.3</ele><time>2013-11-22T09:31:23.0000000+00:00</time></trkpt><trkpt lat="30.69341087" lon="34.92599869"><ele>649.7</ele><time>2013-11-22T09:31:28.0000000+00:00</time></trkpt><trkpt lat="30.69360352" lon="34.92605972"><ele>649.3</ele><time>2013-11-22T09:31:33.0000000+00:00</time></trkpt><trkpt lat="30.69373322" lon="34.92608643"><ele>650.1</ele><time>2013-11-22T09:31:38.0000000+00:00</time></trkpt><trkpt lat="30.69387245" lon="34.92612076"><ele>650.3</ele><time>2013-11-22T09:31:43.0000000+00:00</time></trkpt><trkpt lat="30.69399262" lon="34.92616653"><ele>649.9</ele><time>2013-11-22T09:31:48.0000000+00:00</time></trkpt><trkpt lat="30.69414139" lon="34.92622376"><ele>650.6</ele><time>2013-11-22T09:31:53.0000000+00:00</time></trkpt><trkpt lat="30.69431686" lon="34.92626572"><ele>649.3</ele><time>2013-11-22T09:31:58.0000000+00:00</time></trkpt><trkpt lat="30.69456673" lon="34.92633057"><ele>646.7</ele><time>2013-11-22T09:32:03.0000000+00:00</time></trkpt><trkpt lat="30.69489861" lon="34.9264679"><ele>644.6</ele><time>2013-11-22T09:32:08.0000000+00:00</time></trkpt><trkpt lat="30.69528008" lon="34.92667007"><ele>643.0</ele><time>2013-11-22T09:32:13.0000000+00:00</time></trkpt><trkpt lat="30.6956234" lon="34.92683029"><ele>644.0</ele><time>2013-11-22T09:32:18.0000000+00:00</time></trkpt><trkpt lat="30.69588471" lon="34.92692947"><ele>647.2</ele><time>2013-11-22T09:32:23.0000000+00:00</time></trkpt><trkpt lat="30.69604492" lon="34.92700195"><ele>646.4</ele><time>2013-11-22T09:32:28.0000000+00:00</time></trkpt><trkpt lat="30.69623566" lon="34.92707825"><ele>646.8</ele><time>2013-11-22T09:32:33.0000000+00:00</time></trkpt><trkpt lat="30.69643211" lon="34.92713547"><ele>646.4</ele><time>2013-11-22T09:32:38.0000000+00:00</time></trkpt><trkpt lat="30.69663048" lon="34.92718887"><ele>645.1</ele><time>2013-11-22T09:32:43.0000000+00:00</time></trkpt><trkpt lat="30.69683456" lon="34.92720413"><ele>645.3</ele><time>2013-11-22T09:32:48.0000000+00:00</time></trkpt><trkpt lat="30.6970253" lon="34.92721176"><ele>646.2</ele><time>2013-11-22T09:32:53.0000000+00:00</time></trkpt><trkpt lat="30.69719887" lon="34.92720795"><ele>645.5</ele><time>2013-11-22T09:32:58.0000000+00:00</time></trkpt><trkpt lat="30.69738007" lon="34.9271965"><ele>644.9</ele><time>2013-11-22T09:33:03.0000000+00:00</time></trkpt><trkpt lat="30.69758225" lon="34.92718506"><ele>644.5</ele><time>2013-11-22T09:33:08.0000000+00:00</time></trkpt><trkpt lat="30.69784164" lon="34.92713547"><ele>643.0</ele><time>2013-11-22T09:33:13.0000000+00:00</time></trkpt><trkpt lat="30.69805718" lon="34.92709732"><ele>642.3</ele><time>2013-11-22T09:33:18.0000000+00:00</time></trkpt><trkpt lat="30.69809151" lon="34.92711258"><ele>640.8</ele><time>2013-11-22T09:33:23.0000000+00:00</time></trkpt><trkpt lat="30.69808388" lon="34.92711258"><ele>640.8</ele><time>2013-11-22T09:33:28.0000000+00:00</time></trkpt><trkpt lat="30.69808388" lon="34.92711639"><ele>640.6</ele><time>2013-11-22T09:33:33.0000000+00:00</time></trkpt><trkpt lat="30.69808197" lon="34.92711639"><ele>640.5</ele><time>2013-11-22T09:33:38.0000000+00:00</time></trkpt><trkpt lat="30.6980896" lon="34.92712402"><ele>640.4</ele><time>2013-11-22T09:33:43.0000000+00:00</time></trkpt><trkpt lat="30.69812775" lon="34.92721176"><ele>641.0</ele><time>2013-11-22T09:33:48.0000000+00:00</time></trkpt><trkpt lat="30.69819832" lon="34.92734528"><ele>640.9</ele><time>2013-11-22T09:33:53.0000000+00:00</time></trkpt><trkpt lat="30.69828796" lon="34.92745972"><ele>641.2</ele><time>2013-11-22T09:33:58.0000000+00:00</time></trkpt><trkpt lat="30.69839859" lon="34.9275589"><ele>639.8</ele><time>2013-11-22T09:34:03.0000000+00:00</time></trkpt><trkpt lat="30.69852448" lon="34.92765427"><ele>639.0</ele><time>2013-11-22T09:34:08.0000000+00:00</time></trkpt><trkpt lat="30.69864845" lon="34.92781448"><ele>639.0</ele><time>2013-11-22T09:34:13.0000000+00:00</time></trkpt><trkpt lat="30.69871712" lon="34.92796707"><ele>640.0</ele><time>2013-11-22T09:34:18.0000000+00:00</time></trkpt><trkpt lat="30.698843" lon="34.92809296"><ele>638.2</ele><time>2013-11-22T09:34:23.0000000+00:00</time></trkpt><trkpt lat="30.69900894" lon="34.92817307"><ele>638.2</ele><time>2013-11-22T09:34:28.0000000+00:00</time></trkpt><trkpt lat="30.6992054" lon="34.92822266"><ele>637.8</ele><time>2013-11-22T09:34:33.0000000+00:00</time></trkpt><trkpt lat="30.69935036" lon="34.92831039"><ele>639.2</ele><time>2013-11-22T09:34:38.0000000+00:00</time></trkpt><trkpt lat="30.69943619" lon="34.92843628"><ele>639.7</ele><time>2013-11-22T09:34:43.0000000+00:00</time></trkpt><trkpt lat="30.69947815" lon="34.92851639"><ele>641.1</ele><time>2013-11-22T09:34:48.0000000+00:00</time></trkpt><trkpt lat="30.6995182" lon="34.92856598"><ele>641.3</ele><time>2013-11-22T09:34:53.0000000+00:00</time></trkpt><trkpt lat="30.69958687" lon="34.92867661"><ele>640.4</ele><time>2013-11-22T09:34:58.0000000+00:00</time></trkpt><trkpt lat="30.69963837" lon="34.92878723"><ele>642.0</ele><time>2013-11-22T09:35:03.0000000+00:00</time></trkpt><trkpt lat="30.69969559" lon="34.92887878"><ele>641.5</ele><time>2013-11-22T09:35:08.0000000+00:00</time></trkpt><trkpt lat="30.69971275" lon="34.92897415"><ele>641.3</ele><time>2013-11-22T09:35:13.0000000+00:00</time></trkpt><trkpt lat="30.69968605" lon="34.92907715"><ele>640.7</ele><time>2013-11-22T09:35:18.0000000+00:00</time></trkpt><trkpt lat="30.69961929" lon="34.92920685"><ele>640.0</ele><time>2013-11-22T09:35:23.0000000+00:00</time></trkpt><trkpt lat="30.69953728" lon="34.92934418"><ele>640.1</ele><time>2013-11-22T09:35:28.0000000+00:00</time></trkpt><trkpt lat="30.69952011" lon="34.92956543"><ele>636.7</ele><time>2013-11-22T09:35:33.0000000+00:00</time></trkpt><trkpt lat="30.69950676" lon="34.92974472"><ele>636.6</ele><time>2013-11-22T09:35:38.0000000+00:00</time></trkpt><trkpt lat="30.69972801" lon="34.92976379"><ele>632.8</ele><time>2013-11-22T09:35:43.0000000+00:00</time></trkpt><trkpt lat="30.69980621" lon="34.92977142"><ele>632.4</ele><time>2013-11-22T09:35:48.0000000+00:00</time></trkpt><trkpt lat="30.69987488" lon="34.92975617"><ele>634.5</ele><time>2013-11-22T09:35:53.0000000+00:00</time></trkpt><trkpt lat="30.69987679" lon="34.92974854"><ele>634.7</ele><time>2013-11-22T09:35:58.0000000+00:00</time></trkpt><trkpt lat="30.6998806" lon="34.92974854"><ele>634.7</ele><time>2013-11-22T09:36:03.0000000+00:00</time></trkpt><trkpt lat="30.69996643" lon="34.92972946"><ele>635.7</ele><time>2013-11-22T09:36:08.0000000+00:00</time></trkpt><trkpt lat="30.70009613" lon="34.9296875"><ele>635.8</ele><time>2013-11-22T09:36:13.0000000+00:00</time></trkpt><trkpt lat="30.70028687" lon="34.92964935"><ele>635.9</ele><time>2013-11-22T09:36:18.0000000+00:00</time></trkpt><trkpt lat="30.70043373" lon="34.92966461"><ele>635.9</ele><time>2013-11-22T09:36:23.0000000+00:00</time></trkpt><trkpt lat="30.70055199" lon="34.92969894"><ele>636.7</ele><time>2013-11-22T09:36:28.0000000+00:00</time></trkpt><trkpt lat="30.7006855" lon="34.92968369"><ele>638.9</ele><time>2013-11-22T09:36:33.0000000+00:00</time></trkpt><trkpt lat="30.70078659" lon="34.92964172"><ele>639.6</ele><time>2013-11-22T09:36:38.0000000+00:00</time></trkpt><trkpt lat="30.70091057" lon="34.92956924"><ele>637.6</ele><time>2013-11-22T09:36:43.0000000+00:00</time></trkpt><trkpt lat="30.70103645" lon="34.92951202"><ele>636.9</ele><time>2013-11-22T09:36:48.0000000+00:00</time></trkpt><trkpt lat="30.70115471" lon="34.92950058"><ele>637.2</ele><time>2013-11-22T09:36:53.0000000+00:00</time></trkpt><trkpt lat="30.70125389" lon="34.92946243"><ele>636.2</ele><time>2013-11-22T09:36:58.0000000+00:00</time></trkpt><trkpt lat="30.70132828" lon="34.92943192"><ele>636.8</ele><time>2013-11-22T09:37:03.0000000+00:00</time></trkpt><trkpt lat="30.70141792" lon="34.92936325"><ele>636.5</ele><time>2013-11-22T09:37:08.0000000+00:00</time></trkpt><trkpt lat="30.70146942" lon="34.92924881"><ele>636.6</ele><time>2013-11-22T09:37:13.0000000+00:00</time></trkpt><trkpt lat="30.70152283" lon="34.92909241"><ele>637.3</ele><time>2013-11-22T09:37:18.0000000+00:00</time></trkpt><trkpt lat="30.70156288" lon="34.92897415"><ele>637.8</ele><time>2013-11-22T09:37:23.0000000+00:00</time></trkpt><trkpt lat="30.7016449" lon="34.92887878"><ele>638.5</ele><time>2013-11-22T09:37:28.0000000+00:00</time></trkpt><trkpt lat="30.70175171" lon="34.92881393"><ele>638.5</ele><time>2013-11-22T09:37:33.0000000+00:00</time></trkpt><trkpt lat="30.70182037" lon="34.92874908"><ele>638.7</ele><time>2013-11-22T09:37:38.0000000+00:00</time></trkpt><trkpt lat="30.7019062" lon="34.92866135"><ele>639.2</ele><time>2013-11-22T09:37:43.0000000+00:00</time></trkpt><trkpt lat="30.70202255" lon="34.92858124"><ele>639.0</ele><time>2013-11-22T09:37:48.0000000+00:00</time></trkpt><trkpt lat="30.70212174" lon="34.92853165"><ele>639.6</ele><time>2013-11-22T09:37:53.0000000+00:00</time></trkpt><trkpt lat="30.7022171" lon="34.92848206"><ele>639.8</ele><time>2013-11-22T09:37:58.0000000+00:00</time></trkpt><trkpt lat="30.70234299" lon="34.92846298"><ele>640.6</ele><time>2013-11-22T09:38:03.0000000+00:00</time></trkpt><trkpt lat="30.70240212" lon="34.92850876"><ele>641.3</ele><time>2013-11-22T09:38:08.0000000+00:00</time></trkpt><trkpt lat="30.70247269" lon="34.92855072"><ele>641.9</ele><time>2013-11-22T09:38:13.0000000+00:00</time></trkpt><trkpt lat="30.70254135" lon="34.92861176"><ele>642.7</ele><time>2013-11-22T09:38:18.0000000+00:00</time></trkpt><trkpt lat="30.70258331" lon="34.92872238"><ele>645.2</ele><time>2013-11-22T09:38:23.0000000+00:00</time></trkpt><trkpt lat="30.70262909" lon="34.92882538"><ele>644.4</ele><time>2013-11-22T09:38:28.0000000+00:00</time></trkpt><trkpt lat="30.70269394" lon="34.92888641"><ele>644.5</ele><time>2013-11-22T09:38:33.0000000+00:00</time></trkpt><trkpt lat="30.70274162" lon="34.92893601"><ele>643.9</ele><time>2013-11-22T09:38:38.0000000+00:00</time></trkpt><trkpt lat="30.70280075" lon="34.92899704"><ele>643.6</ele><time>2013-11-22T09:38:43.0000000+00:00</time></trkpt><trkpt lat="30.70288467" lon="34.92899704"><ele>644.9</ele><time>2013-11-22T09:38:48.0000000+00:00</time></trkpt><trkpt lat="30.70295715" lon="34.92894745"><ele>646.4</ele><time>2013-11-22T09:38:53.0000000+00:00</time></trkpt><trkpt lat="30.70303536" lon="34.92894745"><ele>649.0</ele><time>2013-11-22T09:38:58.0000000+00:00</time></trkpt><trkpt lat="30.70308304" lon="34.92903137"><ele>651.6</ele><time>2013-11-22T09:39:03.0000000+00:00</time></trkpt><trkpt lat="30.70305252" lon="34.92915344"><ele>653.6</ele><time>2013-11-22T09:39:08.0000000+00:00</time></trkpt><trkpt lat="30.70300293" lon="34.92930985"><ele>656.6</ele><time>2013-11-22T09:39:13.0000000+00:00</time></trkpt><trkpt lat="30.70294762" lon="34.92947769"><ele>658.6</ele><time>2013-11-22T09:39:18.0000000+00:00</time></trkpt><trkpt lat="30.70299912" lon="34.92961884"><ele>659.6</ele><time>2013-11-22T09:39:23.0000000+00:00</time></trkpt><trkpt lat="30.7031002" lon="34.92966843"><ele>661.1</ele><time>2013-11-22T09:39:28.0000000+00:00</time></trkpt><trkpt lat="30.70321083" lon="34.92972183"><ele>663.6</ele><time>2013-11-22T09:39:33.0000000+00:00</time></trkpt><trkpt lat="30.7032814" lon="34.92982101"><ele>665.5</ele><time>2013-11-22T09:39:38.0000000+00:00</time></trkpt><trkpt lat="30.70335007" lon="34.92990112"><ele>667.8</ele><time>2013-11-22T09:39:43.0000000+00:00</time></trkpt><trkpt lat="30.70336151" lon="34.93000794"><ele>670.0</ele><time>2013-11-22T09:39:48.0000000+00:00</time></trkpt><trkpt lat="30.70338059" lon="34.93013001"><ele>671.1</ele><time>2013-11-22T09:39:53.0000000+00:00</time></trkpt><trkpt lat="30.70339584" lon="34.93014145"><ele>671.3</ele><time>2013-11-22T09:39:58.0000000+00:00</time></trkpt><trkpt lat="30.70339584" lon="34.93013763"><ele>671.5</ele><time>2013-11-22T09:40:03.0000000+00:00</time></trkpt><trkpt lat="30.70339584" lon="34.93014908"><ele>671.7</ele><time>2013-11-22T09:40:08.0000000+00:00</time></trkpt><trkpt lat="30.70339775" lon="34.93015289"><ele>671.8</ele><time>2013-11-22T09:40:13.0000000+00:00</time></trkpt><trkpt lat="30.70339966" lon="34.93021393"><ele>672.5</ele><time>2013-11-22T09:40:18.0000000+00:00</time></trkpt><trkpt lat="30.70338631" lon="34.93031693"><ele>673.5</ele><time>2013-11-22T09:40:23.0000000+00:00</time></trkpt><trkpt lat="30.70339775" lon="34.93040848"><ele>674.5</ele><time>2013-11-22T09:40:28.0000000+00:00</time></trkpt><trkpt lat="30.70344544" lon="34.93048096"><ele>675.7</ele><time>2013-11-22T09:40:33.0000000+00:00</time></trkpt><trkpt lat="30.70347405" lon="34.93057632"><ele>676.8</ele><time>2013-11-22T09:40:38.0000000+00:00</time></trkpt><trkpt lat="30.70347214" lon="34.93064117"><ele>678.4</ele><time>2013-11-22T09:40:43.0000000+00:00</time></trkpt><trkpt lat="30.70344925" lon="34.93070984"><ele>679.7</ele><time>2013-11-22T09:40:48.0000000+00:00</time></trkpt><trkpt lat="30.70343018" lon="34.93077087"><ele>681.7</ele><time>2013-11-22T09:40:53.0000000+00:00</time></trkpt><trkpt lat="30.70341682" lon="34.93084717"><ele>682.8</ele><time>2013-11-22T09:40:58.0000000+00:00</time></trkpt><trkpt lat="30.7034111" lon="34.93091202"><ele>683.4</ele><time>2013-11-22T09:41:03.0000000+00:00</time></trkpt><trkpt lat="30.70345497" lon="34.93099594"><ele>684.3</ele><time>2013-11-22T09:41:08.0000000+00:00</time></trkpt><trkpt lat="30.70347023" lon="34.93107987"><ele>685.9</ele><time>2013-11-22T09:41:13.0000000+00:00</time></trkpt><trkpt lat="30.70350456" lon="34.9311676"><ele>686.9</ele><time>2013-11-22T09:41:18.0000000+00:00</time></trkpt><trkpt lat="30.7035389" lon="34.93125916"><ele>687.1</ele><time>2013-11-22T09:41:23.0000000+00:00</time></trkpt><trkpt lat="30.70357704" lon="34.93135071"><ele>686.4</ele><time>2013-11-22T09:41:28.0000000+00:00</time></trkpt><trkpt lat="30.70352554" lon="34.93138886"><ele>683.9</ele><time>2013-11-22T09:41:33.0000000+00:00</time></trkpt><trkpt lat="30.70346451" lon="34.93141174"><ele>681.7</ele><time>2013-11-22T09:41:38.0000000+00:00</time></trkpt><trkpt lat="30.70339966" lon="34.93143463"><ele>680.4</ele><time>2013-11-22T09:41:43.0000000+00:00</time></trkpt><trkpt lat="30.70333862" lon="34.93144608"><ele>678.5</ele><time>2013-11-22T09:41:48.0000000+00:00</time></trkpt><trkpt lat="30.7032795" lon="34.93147278"><ele>677.4</ele><time>2013-11-22T09:41:53.0000000+00:00</time></trkpt><trkpt lat="30.70320892" lon="34.93152618"><ele>676.9</ele><time>2013-11-22T09:41:58.0000000+00:00</time></trkpt><trkpt lat="30.70315552" lon="34.93158341"><ele>676.1</ele><time>2013-11-22T09:42:03.0000000+00:00</time></trkpt><trkpt lat="30.70310593" lon="34.93162918"><ele>674.4</ele><time>2013-11-22T09:42:08.0000000+00:00</time></trkpt><trkpt lat="30.7030468" lon="34.93169022"><ele>674.0</ele><time>2013-11-22T09:42:13.0000000+00:00</time></trkpt><trkpt lat="30.70299721" lon="34.93175125"><ele>674.0</ele><time>2013-11-22T09:42:18.0000000+00:00</time></trkpt><trkpt lat="30.70294952" lon="34.93179321"><ele>674.5</ele><time>2013-11-22T09:42:23.0000000+00:00</time></trkpt><trkpt lat="30.7028904" lon="34.93179321"><ele>675.6</ele><time>2013-11-22T09:42:28.0000000+00:00</time></trkpt><trkpt lat="30.70280457" lon="34.93177795"><ele>675.9</ele><time>2013-11-22T09:42:33.0000000+00:00</time></trkpt><trkpt lat="30.70273399" lon="34.93175888"><ele>676.3</ele><time>2013-11-22T09:42:38.0000000+00:00</time></trkpt><trkpt lat="30.70266342" lon="34.9317627"><ele>677.5</ele><time>2013-11-22T09:42:43.0000000+00:00</time></trkpt><trkpt lat="30.70261383" lon="34.93180084"><ele>679.5</ele><time>2013-11-22T09:42:48.0000000+00:00</time></trkpt><trkpt lat="30.70256233" lon="34.93183518"><ele>682.3</ele><time>2013-11-22T09:42:53.0000000+00:00</time></trkpt><trkpt lat="30.70249939" lon="34.93186188"><ele>684.0</ele><time>2013-11-22T09:42:58.0000000+00:00</time></trkpt><trkpt lat="30.70243454" lon="34.93184662"><ele>683.7</ele><time>2013-11-22T09:43:03.0000000+00:00</time></trkpt><trkpt lat="30.70238113" lon="34.93181992"><ele>685.1</ele><time>2013-11-22T09:43:08.0000000+00:00</time></trkpt><trkpt lat="30.70232201" lon="34.93180847"><ele>685.6</ele><time>2013-11-22T09:43:13.0000000+00:00</time></trkpt><trkpt lat="30.70225906" lon="34.93180084"><ele>687.3</ele><time>2013-11-22T09:43:18.0000000+00:00</time></trkpt><trkpt lat="30.7022152" lon="34.93176651"><ele>688.8</ele><time>2013-11-22T09:43:23.0000000+00:00</time></trkpt><trkpt lat="30.70216751" lon="34.93173981"><ele>689.5</ele><time>2013-11-22T09:43:28.0000000+00:00</time></trkpt><trkpt lat="30.70211029" lon="34.93177033"><ele>690.4</ele><time>2013-11-22T09:43:33.0000000+00:00</time></trkpt><trkpt lat="30.70210457" lon="34.93177414"><ele>690.5</ele><time>2013-11-22T09:43:38.0000000+00:00</time></trkpt><trkpt lat="30.70210266" lon="34.93177414"><ele>690.4</ele><time>2013-11-22T09:43:43.0000000+00:00</time></trkpt><trkpt lat="30.70203972" lon="34.93180084"><ele>690.1</ele><time>2013-11-22T09:43:48.0000000+00:00</time></trkpt><trkpt lat="30.70191002" lon="34.93188477"><ele>688.9</ele><time>2013-11-22T09:43:53.0000000+00:00</time></trkpt><trkpt lat="30.70182991" lon="34.93195725"><ele>688.4</ele><time>2013-11-22T09:43:58.0000000+00:00</time></trkpt><trkpt lat="30.70176125" lon="34.93200302"><ele>688.4</ele><time>2013-11-22T09:44:03.0000000+00:00</time></trkpt><trkpt lat="30.70170593" lon="34.9320488"><ele>689.0</ele><time>2013-11-22T09:44:08.0000000+00:00</time></trkpt><trkpt lat="30.70165825" lon="34.93209839"><ele>688.8</ele><time>2013-11-22T09:44:13.0000000+00:00</time></trkpt><trkpt lat="30.70159721" lon="34.93215179"><ele>687.8</ele><time>2013-11-22T09:44:18.0000000+00:00</time></trkpt><trkpt lat="30.70154762" lon="34.93218231"><ele>688.4</ele><time>2013-11-22T09:44:23.0000000+00:00</time></trkpt><trkpt lat="30.70153046" lon="34.93218613"><ele>690.4</ele><time>2013-11-22T09:44:28.0000000+00:00</time></trkpt><trkpt lat="30.70150375" lon="34.93219757"><ele>690.7</ele><time>2013-11-22T09:44:33.0000000+00:00</time></trkpt><trkpt lat="30.70146561" lon="34.93219757"><ele>691.7</ele><time>2013-11-22T09:44:38.0000000+00:00</time></trkpt><trkpt lat="30.70142937" lon="34.93221283"><ele>692.0</ele><time>2013-11-22T09:44:43.0000000+00:00</time></trkpt><trkpt lat="30.70139885" lon="34.93220902"><ele>692.6</ele><time>2013-11-22T09:44:48.0000000+00:00</time></trkpt><trkpt lat="30.70136452" lon="34.93222046"><ele>693.9</ele><time>2013-11-22T09:44:53.0000000+00:00</time></trkpt><trkpt lat="30.70132256" lon="34.93224335"><ele>694.7</ele><time>2013-11-22T09:44:58.0000000+00:00</time></trkpt><trkpt lat="30.70128822" lon="34.93226242"><ele>694.5</ele><time>2013-11-22T09:45:03.0000000+00:00</time></trkpt><trkpt lat="30.70125008" lon="34.93228912"><ele>695.2</ele><time>2013-11-22T09:45:08.0000000+00:00</time></trkpt><trkpt lat="30.70121193" lon="34.93231583"><ele>696.0</ele><time>2013-11-22T09:45:13.0000000+00:00</time></trkpt><trkpt lat="30.70117188" lon="34.93232727"><ele>696.2</ele><time>2013-11-22T09:45:18.0000000+00:00</time></trkpt><trkpt lat="30.70111847" lon="34.93233872"><ele>696.5</ele><time>2013-11-22T09:45:23.0000000+00:00</time></trkpt><trkpt lat="30.70106697" lon="34.93235779"><ele>697.3</ele><time>2013-11-22T09:45:28.0000000+00:00</time></trkpt><trkpt lat="30.70102692" lon="34.93236923"><ele>698.0</ele><time>2013-11-22T09:45:33.0000000+00:00</time></trkpt><trkpt lat="30.70097542" lon="34.93238831"><ele>699.1</ele><time>2013-11-22T09:45:38.0000000+00:00</time></trkpt><trkpt lat="30.7009449" lon="34.93242264"><ele>699.1</ele><time>2013-11-22T09:45:43.0000000+00:00</time></trkpt><trkpt lat="30.70093155" lon="34.93241882"><ele>699.7</ele><time>2013-11-22T09:45:48.0000000+00:00</time></trkpt><trkpt lat="30.70092011" lon="34.93243027"><ele>699.7</ele><time>2013-11-22T09:45:53.0000000+00:00</time></trkpt><trkpt lat="30.70088959" lon="34.93248367"><ele>699.8</ele><time>2013-11-22T09:45:58.0000000+00:00</time></trkpt><trkpt lat="30.7008667" lon="34.93252564"><ele>698.6</ele><time>2013-11-22T09:46:03.0000000+00:00</time></trkpt><trkpt lat="30.70084" lon="34.93257141"><ele>697.9</ele><time>2013-11-22T09:46:08.0000000+00:00</time></trkpt><trkpt lat="30.70081139" lon="34.93263245"><ele>698.5</ele><time>2013-11-22T09:46:13.0000000+00:00</time></trkpt><trkpt lat="30.70078659" lon="34.93268967"><ele>699.5</ele><time>2013-11-22T09:46:18.0000000+00:00</time></trkpt><trkpt lat="30.70075417" lon="34.93273163"><ele>700.4</ele><time>2013-11-22T09:46:23.0000000+00:00</time></trkpt><trkpt lat="30.70071983" lon="34.93278122"><ele>701.7</ele><time>2013-11-22T09:46:28.0000000+00:00</time></trkpt><trkpt lat="30.70068169" lon="34.93282318"><ele>702.8</ele><time>2013-11-22T09:46:33.0000000+00:00</time></trkpt><trkpt lat="30.7006321" lon="34.9328537"><ele>703.4</ele><time>2013-11-22T09:46:38.0000000+00:00</time></trkpt><trkpt lat="30.70059013" lon="34.93288422"><ele>705.4</ele><time>2013-11-22T09:46:43.0000000+00:00</time></trkpt><trkpt lat="30.70054436" lon="34.93291473"><ele>706.5</ele><time>2013-11-22T09:46:48.0000000+00:00</time></trkpt><trkpt lat="30.70049858" lon="34.93294144"><ele>706.1</ele><time>2013-11-22T09:46:53.0000000+00:00</time></trkpt><trkpt lat="30.70045471" lon="34.9329567"><ele>705.1</ele><time>2013-11-22T09:46:58.0000000+00:00</time></trkpt><trkpt lat="30.70040512" lon="34.93298721"><ele>704.1</ele><time>2013-11-22T09:47:03.0000000+00:00</time></trkpt><trkpt lat="30.70034981" lon="34.93301773"><ele>703.8</ele><time>2013-11-22T09:47:08.0000000+00:00</time></trkpt><trkpt lat="30.7002945" lon="34.9330368"><ele>703.8</ele><time>2013-11-22T09:47:13.0000000+00:00</time></trkpt><trkpt lat="30.70023727" lon="34.93306732"><ele>703.9</ele><time>2013-11-22T09:47:18.0000000+00:00</time></trkpt><trkpt lat="30.70018578" lon="34.93309021"><ele>703.6</ele><time>2013-11-22T09:47:23.0000000+00:00</time></trkpt><trkpt lat="30.70012856" lon="34.93310165"><ele>704.6</ele><time>2013-11-22T09:47:28.0000000+00:00</time></trkpt><trkpt lat="30.70007324" lon="34.93310165"><ele>703.7</ele><time>2013-11-22T09:47:33.0000000+00:00</time></trkpt><trkpt lat="30.70001793" lon="34.93312836"><ele>704.0</ele><time>2013-11-22T09:47:38.0000000+00:00</time></trkpt><trkpt lat="30.69997406" lon="34.93315888"><ele>704.2</ele><time>2013-11-22T09:47:43.0000000+00:00</time></trkpt><trkpt lat="30.69991684" lon="34.93317795"><ele>704.8</ele><time>2013-11-22T09:47:48.0000000+00:00</time></trkpt><trkpt lat="30.69986725" lon="34.93320084"><ele>705.5</ele><time>2013-11-22T09:47:53.0000000+00:00</time></trkpt><trkpt lat="30.69984818" lon="34.93321228"><ele>705.8</ele><time>2013-11-22T09:47:58.0000000+00:00</time></trkpt><trkpt lat="30.69984818" lon="34.93321228"><ele>705.7</ele><time>2013-11-22T09:48:03.0000000+00:00</time></trkpt><trkpt lat="30.69984818" lon="34.93321228"><ele>705.8</ele><time>2013-11-22T09:48:08.0000000+00:00</time></trkpt><trkpt lat="30.69984818" lon="34.93321228"><ele>705.8</ele><time>2013-11-22T09:48:13.0000000+00:00</time></trkpt><trkpt lat="30.69984818" lon="34.93321228"><ele>705.8</ele><time>2013-11-22T09:48:18.0000000+00:00</time></trkpt><trkpt lat="30.69984818" lon="34.93321228"><ele>705.8</ele><time>2013-11-22T09:48:23.0000000+00:00</time></trkpt><trkpt lat="30.69984818" lon="34.93321228"><ele>705.7</ele><time>2013-11-22T09:48:28.0000000+00:00</time></trkpt><trkpt lat="30.69984818" lon="34.93321228"><ele>705.7</ele><time>2013-11-22T09:48:33.0000000+00:00</time></trkpt><trkpt lat="30.69984818" lon="34.93321228"><ele>705.7</ele><time>2013-11-22T09:48:38.0000000+00:00</time></trkpt><trkpt lat="30.69984818" lon="34.93321228"><ele>705.7</ele><time>2013-11-22T09:48:43.0000000+00:00</time></trkpt><trkpt lat="30.69984818" lon="34.93321228"><ele>705.7</ele><time>2013-11-22T09:48:48.0000000+00:00</time></trkpt><trkpt lat="30.69984627" lon="34.93321228"><ele>705.8</ele><time>2013-11-22T09:48:53.0000000+00:00</time></trkpt><trkpt lat="30.69978523" lon="34.93325043"><ele>707.7</ele><time>2013-11-22T09:48:58.0000000+00:00</time></trkpt><trkpt lat="30.69972801" lon="34.93328857"><ele>708.2</ele><time>2013-11-22T09:49:03.0000000+00:00</time></trkpt><trkpt lat="30.69966316" lon="34.93331909"><ele>708.9</ele><time>2013-11-22T09:49:08.0000000+00:00</time></trkpt><trkpt lat="30.69960976" lon="34.93335342"><ele>708.9</ele><time>2013-11-22T09:49:13.0000000+00:00</time></trkpt><trkpt lat="30.69956398" lon="34.93339539"><ele>709.0</ele><time>2013-11-22T09:49:18.0000000+00:00</time></trkpt><trkpt lat="30.6995163" lon="34.93344116"><ele>708.7</ele><time>2013-11-22T09:49:23.0000000+00:00</time></trkpt><trkpt lat="30.69946671" lon="34.93348694"><ele>707.9</ele><time>2013-11-22T09:49:28.0000000+00:00</time></trkpt><trkpt lat="30.69943619" lon="34.93354034"><ele>707.5</ele><time>2013-11-22T09:49:33.0000000+00:00</time></trkpt><trkpt lat="30.69942284" lon="34.93358231"><ele>708.8</ele><time>2013-11-22T09:49:38.0000000+00:00</time></trkpt><trkpt lat="30.69940567" lon="34.93361664"><ele>708.6</ele><time>2013-11-22T09:49:43.0000000+00:00</time></trkpt><trkpt lat="30.69937134" lon="34.93372345"><ele>707.7</ele><time>2013-11-22T09:49:48.0000000+00:00</time></trkpt><trkpt lat="30.69935989" lon="34.93381882"><ele>707.5</ele><time>2013-11-22T09:49:53.0000000+00:00</time></trkpt><trkpt lat="30.69935989" lon="34.93390656"><ele>707.5</ele><time>2013-11-22T09:49:58.0000000+00:00</time></trkpt><trkpt lat="30.69932938" lon="34.93398666"><ele>707.1</ele><time>2013-11-22T09:50:03.0000000+00:00</time></trkpt><trkpt lat="30.69928169" lon="34.93407059"><ele>705.8</ele><time>2013-11-22T09:50:08.0000000+00:00</time></trkpt><trkpt lat="30.69921303" lon="34.93414688"><ele>704.7</ele><time>2013-11-22T09:50:13.0000000+00:00</time></trkpt><trkpt lat="30.69913292" lon="34.93421173"><ele>703.6</ele><time>2013-11-22T09:50:18.0000000+00:00</time></trkpt><trkpt lat="30.6990509" lon="34.93429565"><ele>702.3</ele><time>2013-11-22T09:50:23.0000000+00:00</time></trkpt><trkpt lat="30.69898033" lon="34.93439102"><ele>701.3</ele><time>2013-11-22T09:50:28.0000000+00:00</time></trkpt><trkpt lat="30.69889641" lon="34.93446732"><ele>700.2</ele><time>2013-11-22T09:50:33.0000000+00:00</time></trkpt><trkpt lat="30.69881821" lon="34.93453598"><ele>699.9</ele><time>2013-11-22T09:50:38.0000000+00:00</time></trkpt><trkpt lat="30.69874764" lon="34.9346199"><ele>700.4</ele><time>2013-11-22T09:50:43.0000000+00:00</time></trkpt><trkpt lat="30.69869423" lon="34.93471909"><ele>699.1</ele><time>2013-11-22T09:50:48.0000000+00:00</time></trkpt><trkpt lat="30.69863319" lon="34.93481064"><ele>698.7</ele><time>2013-11-22T09:50:53.0000000+00:00</time></trkpt><trkpt lat="30.69856644" lon="34.93489456"><ele>698.4</ele><time>2013-11-22T09:50:58.0000000+00:00</time></trkpt><trkpt lat="30.69845581" lon="34.93497086"><ele>698.7</ele><time>2013-11-22T09:51:03.0000000+00:00</time></trkpt><trkpt lat="30.69834328" lon="34.93502426"><ele>700.0</ele><time>2013-11-22T09:51:08.0000000+00:00</time></trkpt><trkpt lat="30.69828033" lon="34.93511963"><ele>699.5</ele><time>2013-11-22T09:51:13.0000000+00:00</time></trkpt><trkpt lat="30.69822502" lon="34.93519974"><ele>699.5</ele><time>2013-11-22T09:51:18.0000000+00:00</time></trkpt><trkpt lat="30.69813538" lon="34.9352684"><ele>699.4</ele><time>2013-11-22T09:51:23.0000000+00:00</time></trkpt><trkpt lat="30.69804573" lon="34.93535614"><ele>699.4</ele><time>2013-11-22T09:51:28.0000000+00:00</time></trkpt><trkpt lat="30.69796944" lon="34.93543625"><ele>700.7</ele><time>2013-11-22T09:51:33.0000000+00:00</time></trkpt><trkpt lat="30.69789124" lon="34.93548584"><ele>701.8</ele><time>2013-11-22T09:51:38.0000000+00:00</time></trkpt><trkpt lat="30.69780922" lon="34.93552399"><ele>701.6</ele><time>2013-11-22T09:51:43.0000000+00:00</time></trkpt><trkpt lat="30.69773102" lon="34.9355545"><ele>701.7</ele><time>2013-11-22T09:51:48.0000000+00:00</time></trkpt><trkpt lat="30.69766426" lon="34.93559647"><ele>702.2</ele><time>2013-11-22T09:51:53.0000000+00:00</time></trkpt><trkpt lat="30.69758797" lon="34.9356575"><ele>702.4</ele><time>2013-11-22T09:51:58.0000000+00:00</time></trkpt><trkpt lat="30.69750214" lon="34.93571854"><ele>702.2</ele><time>2013-11-22T09:52:03.0000000+00:00</time></trkpt><trkpt lat="30.6973896" lon="34.93577957"><ele>702.2</ele><time>2013-11-22T09:52:08.0000000+00:00</time></trkpt><trkpt lat="30.69730949" lon="34.93587494"><ele>703.6</ele><time>2013-11-22T09:52:13.0000000+00:00</time></trkpt><trkpt lat="30.69725418" lon="34.93598938"><ele>704.9</ele><time>2013-11-22T09:52:18.0000000+00:00</time></trkpt><trkpt lat="30.69723892" lon="34.93610382"><ele>706.5</ele><time>2013-11-22T09:52:23.0000000+00:00</time></trkpt><trkpt lat="30.69725418" lon="34.93622208"><ele>709.6</ele><time>2013-11-22T09:52:28.0000000+00:00</time></trkpt><trkpt lat="30.69727135" lon="34.93635178"><ele>711.4</ele><time>2013-11-22T09:52:33.0000000+00:00</time></trkpt><trkpt lat="30.69724655" lon="34.93647766"><ele>711.3</ele><time>2013-11-22T09:52:38.0000000+00:00</time></trkpt><trkpt lat="30.69717407" lon="34.93656921"><ele>710.5</ele><time>2013-11-22T09:52:43.0000000+00:00</time></trkpt><trkpt lat="30.69709778" lon="34.93664932"><ele>710.5</ele><time>2013-11-22T09:52:48.0000000+00:00</time></trkpt><trkpt lat="30.69700813" lon="34.93668747"><ele>710.7</ele><time>2013-11-22T09:52:53.0000000+00:00</time></trkpt><trkpt lat="30.69692993" lon="34.93671417"><ele>709.8</ele><time>2013-11-22T09:52:58.0000000+00:00</time></trkpt><trkpt lat="30.69688606" lon="34.93674469"><ele>710.0</ele><time>2013-11-22T09:53:03.0000000+00:00</time></trkpt><trkpt lat="30.69681931" lon="34.93681717"><ele>709.9</ele><time>2013-11-22T09:53:08.0000000+00:00</time></trkpt><trkpt lat="30.69675255" lon="34.93690109"><ele>709.4</ele><time>2013-11-22T09:53:13.0000000+00:00</time></trkpt><trkpt lat="30.69669914" lon="34.93696213"><ele>709.7</ele><time>2013-11-22T09:53:18.0000000+00:00</time></trkpt><trkpt lat="30.69662476" lon="34.93701935"><ele>710.0</ele><time>2013-11-22T09:53:23.0000000+00:00</time></trkpt><trkpt lat="30.69658279" lon="34.93706513"><ele>708.6</ele><time>2013-11-22T09:53:28.0000000+00:00</time></trkpt><trkpt lat="30.69652748" lon="34.93712997"><ele>707.8</ele><time>2013-11-22T09:53:33.0000000+00:00</time></trkpt><trkpt lat="30.69648552" lon="34.93720245"><ele>708.4</ele><time>2013-11-22T09:53:38.0000000+00:00</time></trkpt><trkpt lat="30.69644928" lon="34.93727875"><ele>708.8</ele><time>2013-11-22T09:53:43.0000000+00:00</time></trkpt><trkpt lat="30.69641495" lon="34.93734741"><ele>709.4</ele><time>2013-11-22T09:53:48.0000000+00:00</time></trkpt><trkpt lat="30.6963768" lon="34.93740845"><ele>710.3</ele><time>2013-11-22T09:53:53.0000000+00:00</time></trkpt><trkpt lat="30.69634438" lon="34.93749237"><ele>710.0</ele><time>2013-11-22T09:53:58.0000000+00:00</time></trkpt><trkpt lat="30.69627571" lon="34.93757629"><ele>710.5</ele><time>2013-11-22T09:54:03.0000000+00:00</time></trkpt><trkpt lat="30.69620323" lon="34.93766403"><ele>710.7</ele><time>2013-11-22T09:54:08.0000000+00:00</time></trkpt><trkpt lat="30.69610977" lon="34.9377594"><ele>711.1</ele><time>2013-11-22T09:54:13.0000000+00:00</time></trkpt><trkpt lat="30.69602966" lon="34.93784714"><ele>711.9</ele><time>2013-11-22T09:54:18.0000000+00:00</time></trkpt><trkpt lat="30.69594383" lon="34.93792725"><ele>711.7</ele><time>2013-11-22T09:54:23.0000000+00:00</time></trkpt><trkpt lat="30.69586182" lon="34.93799973"><ele>712.5</ele><time>2013-11-22T09:54:28.0000000+00:00</time></trkpt><trkpt lat="30.69579506" lon="34.93805695"><ele>712.7</ele><time>2013-11-22T09:54:33.0000000+00:00</time></trkpt><trkpt lat="30.69574547" lon="34.93810272"><ele>712.5</ele><time>2013-11-22T09:54:38.0000000+00:00</time></trkpt><trkpt lat="30.6956768" lon="34.93816376"><ele>712.7</ele><time>2013-11-22T09:54:43.0000000+00:00</time></trkpt><trkpt lat="30.69559097" lon="34.93823624"><ele>712.2</ele><time>2013-11-22T09:54:48.0000000+00:00</time></trkpt><trkpt lat="30.69553185" lon="34.93831253"><ele>712.8</ele><time>2013-11-22T09:54:53.0000000+00:00</time></trkpt><trkpt lat="30.69544792" lon="34.93837357"><ele>714.2</ele><time>2013-11-22T09:54:58.0000000+00:00</time></trkpt><trkpt lat="30.69536972" lon="34.9384346"><ele>714.9</ele><time>2013-11-22T09:55:03.0000000+00:00</time></trkpt><trkpt lat="30.69530487" lon="34.93848419"><ele>714.7</ele><time>2013-11-22T09:55:08.0000000+00:00</time></trkpt><trkpt lat="30.69524002" lon="34.93852615"><ele>714.9</ele><time>2013-11-22T09:55:13.0000000+00:00</time></trkpt><trkpt lat="30.69517708" lon="34.93857956"><ele>714.7</ele><time>2013-11-22T09:55:18.0000000+00:00</time></trkpt><trkpt lat="30.6951046" lon="34.93861771"><ele>715.1</ele><time>2013-11-22T09:55:23.0000000+00:00</time></trkpt><trkpt lat="30.69503212" lon="34.93867874"><ele>715.1</ele><time>2013-11-22T09:55:28.0000000+00:00</time></trkpt><trkpt lat="30.69496918" lon="34.93872833"><ele>716.1</ele><time>2013-11-22T09:55:33.0000000+00:00</time></trkpt><trkpt lat="30.69490433" lon="34.93877411"><ele>716.9</ele><time>2013-11-22T09:55:38.0000000+00:00</time></trkpt><trkpt lat="30.69483757" lon="34.9388237"><ele>717.2</ele><time>2013-11-22T09:55:43.0000000+00:00</time></trkpt><trkpt lat="30.69479179" lon="34.93888474"><ele>717.6</ele><time>2013-11-22T09:55:48.0000000+00:00</time></trkpt><trkpt lat="30.69470978" lon="34.93893051"><ele>717.1</ele><time>2013-11-22T09:55:53.0000000+00:00</time></trkpt><trkpt lat="30.69466209" lon="34.93897629"><ele>718.5</ele><time>2013-11-22T09:55:58.0000000+00:00</time></trkpt><trkpt lat="30.694664" lon="34.93897629"><ele>719.2</ele><time>2013-11-22T09:56:03.0000000+00:00</time></trkpt><trkpt lat="30.694664" lon="34.93897247"><ele>719.6</ele><time>2013-11-22T09:56:08.0000000+00:00</time></trkpt><trkpt lat="30.69466972" lon="34.93897629"><ele>718.7</ele><time>2013-11-22T09:56:13.0000000+00:00</time></trkpt><trkpt lat="30.69467163" lon="34.93898392"><ele>718.8</ele><time>2013-11-22T09:56:18.0000000+00:00</time></trkpt><trkpt lat="30.69467354" lon="34.93898392"><ele>718.2</ele><time>2013-11-22T09:56:23.0000000+00:00</time></trkpt><trkpt lat="30.69466209" lon="34.93898773"><ele>718.0</ele><time>2013-11-22T09:56:28.0000000+00:00</time></trkpt><trkpt lat="30.69466019" lon="34.93898773"><ele>718.0</ele><time>2013-11-22T09:56:33.0000000+00:00</time></trkpt><trkpt lat="30.69466019" lon="34.93898773"><ele>717.9</ele><time>2013-11-22T09:56:38.0000000+00:00</time></trkpt><trkpt lat="30.69466019" lon="34.93898773"><ele>717.9</ele><time>2013-11-22T09:56:43.0000000+00:00</time></trkpt><trkpt lat="30.69466019" lon="34.93898773"><ele>717.9</ele><time>2013-11-22T09:56:48.0000000+00:00</time></trkpt><trkpt lat="30.69466019" lon="34.93898773"><ele>717.9</ele><time>2013-11-22T09:56:53.0000000+00:00</time></trkpt><trkpt lat="30.69466019" lon="34.93898773"><ele>717.9</ele><time>2013-11-22T09:56:58.0000000+00:00</time></trkpt><trkpt lat="30.69466019" lon="34.93898773"><ele>717.9</ele><time>2013-11-22T09:57:03.0000000+00:00</time></trkpt><trkpt lat="30.69466019" lon="34.93898773"><ele>717.9</ele><time>2013-11-22T09:57:08.0000000+00:00</time></trkpt><trkpt lat="30.69466019" lon="34.93898773"><ele>717.9</ele><time>2013-11-22T09:57:13.0000000+00:00</time></trkpt><trkpt lat="30.69466019" lon="34.93898773"><ele>717.9</ele><time>2013-11-22T09:57:18.0000000+00:00</time></trkpt><trkpt lat="30.69466019" lon="34.93898773"><ele>717.9</ele><time>2013-11-22T09:57:23.0000000+00:00</time></trkpt><trkpt lat="30.69466019" lon="34.93898773"><ele>717.9</ele><time>2013-11-22T09:57:28.0000000+00:00</time></trkpt><trkpt lat="30.69463539" lon="34.93901062"><ele>718.0</ele><time>2013-11-22T09:57:33.0000000+00:00</time></trkpt><trkpt lat="30.69459724" lon="34.93909073"><ele>717.5</ele><time>2013-11-22T09:57:38.0000000+00:00</time></trkpt><trkpt lat="30.69456101" lon="34.93931198"><ele>716.8</ele><time>2013-11-22T09:57:43.0000000+00:00</time></trkpt><trkpt lat="30.69451714" lon="34.93974686"><ele>714.6</ele><time>2013-11-22T09:57:48.0000000+00:00</time></trkpt><trkpt lat="30.69452286" lon="34.9402771"><ele>714.7</ele><time>2013-11-22T09:57:53.0000000+00:00</time></trkpt><trkpt lat="30.69446373" lon="34.94071198"><ele>714.4</ele><time>2013-11-22T09:57:58.0000000+00:00</time></trkpt><trkpt lat="30.69444656" lon="34.94091034"><ele>712.8</ele><time>2013-11-22T09:58:03.0000000+00:00</time></trkpt><trkpt lat="30.69439507" lon="34.94100952"><ele>710.2</ele><time>2013-11-22T09:58:08.0000000+00:00</time></trkpt><trkpt lat="30.6943531" lon="34.94102478"><ele>711.4</ele><time>2013-11-22T09:58:13.0000000+00:00</time></trkpt><trkpt lat="30.6942482" lon="34.941082"><ele>710.6</ele><time>2013-11-22T09:58:18.0000000+00:00</time></trkpt><trkpt lat="30.69413185" lon="34.94112778"><ele>709.7</ele><time>2013-11-22T09:58:23.0000000+00:00</time></trkpt><trkpt lat="30.69405747" lon="34.94120789"><ele>708.8</ele><time>2013-11-22T09:58:28.0000000+00:00</time></trkpt><trkpt lat="30.69398499" lon="34.94129562"><ele>707.5</ele><time>2013-11-22T09:58:33.0000000+00:00</time></trkpt><trkpt lat="30.69391251" lon="34.94143677"><ele>706.2</ele><time>2013-11-22T09:58:38.0000000+00:00</time></trkpt><trkpt lat="30.69390106" lon="34.94163895"><ele>704.9</ele><time>2013-11-22T09:58:43.0000000+00:00</time></trkpt><trkpt lat="30.69389916" lon="34.94182587"><ele>703.8</ele><time>2013-11-22T09:58:48.0000000+00:00</time></trkpt><trkpt lat="30.69395065" lon="34.94199371"><ele>701.9</ele><time>2013-11-22T09:58:53.0000000+00:00</time></trkpt><trkpt lat="30.69389916" lon="34.94219589"><ele>701.1</ele><time>2013-11-22T09:58:58.0000000+00:00</time></trkpt><trkpt lat="30.69384384" lon="34.94232559"><ele>698.7</ele><time>2013-11-22T09:59:03.0000000+00:00</time></trkpt><trkpt lat="30.69380951" lon="34.94238281"><ele>698.0</ele><time>2013-11-22T09:59:08.0000000+00:00</time></trkpt><trkpt lat="30.69381523" lon="34.94238281"><ele>698.5</ele><time>2013-11-22T09:59:13.0000000+00:00</time></trkpt><trkpt lat="30.69381332" lon="34.94238281"><ele>698.4</ele><time>2013-11-22T09:59:18.0000000+00:00</time></trkpt><trkpt lat="30.69381523" lon="34.942379"><ele>698.5</ele><time>2013-11-22T09:59:23.0000000+00:00</time></trkpt><trkpt lat="30.69381332" lon="34.94239044"><ele>698.5</ele><time>2013-11-22T09:59:28.0000000+00:00</time></trkpt><trkpt lat="30.69381905" lon="34.94250488"><ele>698.8</ele><time>2013-11-22T09:59:33.0000000+00:00</time></trkpt><trkpt lat="30.69382668" lon="34.94265747"><ele>698.3</ele><time>2013-11-22T09:59:38.0000000+00:00</time></trkpt><trkpt lat="30.69382095" lon="34.94280624"><ele>697.7</ele><time>2013-11-22T09:59:43.0000000+00:00</time></trkpt><trkpt lat="30.69380951" lon="34.94293594"><ele>697.7</ele><time>2013-11-22T09:59:48.0000000+00:00</time></trkpt><trkpt lat="30.69382477" lon="34.94301987"><ele>697.8</ele><time>2013-11-22T09:59:53.0000000+00:00</time></trkpt><trkpt lat="30.69383812" lon="34.94303513"><ele>698.3</ele><time>2013-11-22T09:59:58.0000000+00:00</time></trkpt><trkpt lat="30.69383621" lon="34.94303513"><ele>698.3</ele><time>2013-11-22T10:00:03.0000000+00:00</time></trkpt><trkpt lat="30.69383431" lon="34.94303131"><ele>698.3</ele><time>2013-11-22T10:00:08.0000000+00:00</time></trkpt><trkpt lat="30.69383431" lon="34.94304276"><ele>698.3</ele><time>2013-11-22T10:00:13.0000000+00:00</time></trkpt><trkpt lat="30.69383621" lon="34.94309998"><ele>696.9</ele><time>2013-11-22T10:00:18.0000000+00:00</time></trkpt><trkpt lat="30.69383812" lon="34.94318008"><ele>695.0</ele><time>2013-11-22T10:00:23.0000000+00:00</time></trkpt><trkpt lat="30.69380379" lon="34.94326782"><ele>694.7</ele><time>2013-11-22T10:00:28.0000000+00:00</time></trkpt><trkpt lat="30.69375038" lon="34.94333649"><ele>693.3</ele><time>2013-11-22T10:00:33.0000000+00:00</time></trkpt><trkpt lat="30.69371986" lon="34.94339752"><ele>692.3</ele><time>2013-11-22T10:00:38.0000000+00:00</time></trkpt><trkpt lat="30.69372559" lon="34.94340897"><ele>691.8</ele><time>2013-11-22T10:00:43.0000000+00:00</time></trkpt><trkpt lat="30.69373703" lon="34.94340515"><ele>692.8</ele><time>2013-11-22T10:00:48.0000000+00:00</time></trkpt><trkpt lat="30.69373703" lon="34.94340515"><ele>692.5</ele><time>2013-11-22T10:00:53.0000000+00:00</time></trkpt><trkpt lat="30.69373322" lon="34.94339752"><ele>692.5</ele><time>2013-11-22T10:00:58.0000000+00:00</time></trkpt><trkpt lat="30.69373322" lon="34.94339371"><ele>693.1</ele><time>2013-11-22T10:01:03.0000000+00:00</time></trkpt><trkpt lat="30.69373703" lon="34.94338989"><ele>693.1</ele><time>2013-11-22T10:01:08.0000000+00:00</time></trkpt><trkpt lat="30.69372177" lon="34.94340897"><ele>693.0</ele><time>2013-11-22T10:01:13.0000000+00:00</time></trkpt><trkpt lat="30.69372177" lon="34.9434166"><ele>692.7</ele><time>2013-11-22T10:01:18.0000000+00:00</time></trkpt><trkpt lat="30.6937027" lon="34.94345856"><ele>692.2</ele><time>2013-11-22T10:01:23.0000000+00:00</time></trkpt><trkpt lat="30.6936779" lon="34.94350052"><ele>691.1</ele><time>2013-11-22T10:01:28.0000000+00:00</time></trkpt><trkpt lat="30.69363213" lon="34.94360352"><ele>689.9</ele><time>2013-11-22T10:01:33.0000000+00:00</time></trkpt><trkpt lat="30.69358254" lon="34.9437294"><ele>688.7</ele><time>2013-11-22T10:01:38.0000000+00:00</time></trkpt><trkpt lat="30.69351196" lon="34.9438591"><ele>686.5</ele><time>2013-11-22T10:01:43.0000000+00:00</time></trkpt><trkpt lat="30.69345665" lon="34.94395828"><ele>682.5</ele><time>2013-11-22T10:01:48.0000000+00:00</time></trkpt><trkpt lat="30.69347954" lon="34.94413376"><ele>680.6</ele><time>2013-11-22T10:01:53.0000000+00:00</time></trkpt><trkpt lat="30.69345665" lon="34.94437027"><ele>679.1</ele><time>2013-11-22T10:01:58.0000000+00:00</time></trkpt><trkpt lat="30.69337654" lon="34.94440842"><ele>678.5</ele><time>2013-11-22T10:02:03.0000000+00:00</time></trkpt><trkpt lat="30.69330978" lon="34.94435501"><ele>677.1</ele><time>2013-11-22T10:02:08.0000000+00:00</time></trkpt><trkpt lat="30.69326782" lon="34.94431686"><ele>676.3</ele><time>2013-11-22T10:02:13.0000000+00:00</time></trkpt><trkpt lat="30.69326401" lon="34.94431686"><ele>676.2</ele><time>2013-11-22T10:02:18.0000000+00:00</time></trkpt><trkpt lat="30.69326592" lon="34.94431686"><ele>676.2</ele><time>2013-11-22T10:02:23.0000000+00:00</time></trkpt><trkpt lat="30.69326592" lon="34.94431686"><ele>676.2</ele><time>2013-11-22T10:02:28.0000000+00:00</time></trkpt><trkpt lat="30.69326592" lon="34.94431686"><ele>676.1</ele><time>2013-11-22T10:02:33.0000000+00:00</time></trkpt><trkpt lat="30.69326782" lon="34.94431686"><ele>676.3</ele><time>2013-11-22T10:02:38.0000000+00:00</time></trkpt><trkpt lat="30.69326973" lon="34.94431686"><ele>676.5</ele><time>2013-11-22T10:02:43.0000000+00:00</time></trkpt><trkpt lat="30.69332886" lon="34.94435883"><ele>676.5</ele><time>2013-11-22T10:02:48.0000000+00:00</time></trkpt><trkpt lat="30.69338989" lon="34.94441223"><ele>676.3</ele><time>2013-11-22T10:02:53.0000000+00:00</time></trkpt><trkpt lat="30.69349098" lon="34.94442749"><ele>675.6</ele><time>2013-11-22T10:02:58.0000000+00:00</time></trkpt><trkpt lat="30.69356537" lon="34.94443893"><ele>673.8</ele><time>2013-11-22T10:03:03.0000000+00:00</time></trkpt><trkpt lat="30.69366264" lon="34.94442368"><ele>672.7</ele><time>2013-11-22T10:03:08.0000000+00:00</time></trkpt><trkpt lat="30.69374657" lon="34.94443512"><ele>672.7</ele><time>2013-11-22T10:03:13.0000000+00:00</time></trkpt><trkpt lat="30.69382858" lon="34.94448853"><ele>675.0</ele><time>2013-11-22T10:03:18.0000000+00:00</time></trkpt><trkpt lat="30.69390678" lon="34.94458771"><ele>675.4</ele><time>2013-11-22T10:03:23.0000000+00:00</time></trkpt><trkpt lat="30.69396973" lon="34.94475174"><ele>675.8</ele><time>2013-11-22T10:03:28.0000000+00:00</time></trkpt><trkpt lat="30.69399834" lon="34.94489288"><ele>675.5</ele><time>2013-11-22T10:03:33.0000000+00:00</time></trkpt><trkpt lat="30.69408417" lon="34.94498444"><ele>676.8</ele><time>2013-11-22T10:03:38.0000000+00:00</time></trkpt><trkpt lat="30.69418716" lon="34.94509888"><ele>677.9</ele><time>2013-11-22T10:03:43.0000000+00:00</time></trkpt><trkpt lat="30.69424629" lon="34.94519424"><ele>682.3</ele><time>2013-11-22T10:03:48.0000000+00:00</time></trkpt><trkpt lat="30.69430161" lon="34.94527054"><ele>684.2</ele><time>2013-11-22T10:03:53.0000000+00:00</time></trkpt><trkpt lat="30.69434357" lon="34.94536972"><ele>684.1</ele><time>2013-11-22T10:03:58.0000000+00:00</time></trkpt><trkpt lat="30.69436455" lon="34.94549561"><ele>682.5</ele><time>2013-11-22T10:04:03.0000000+00:00</time></trkpt><trkpt lat="30.69441032" lon="34.94563675"><ele>683.8</ele><time>2013-11-22T10:04:08.0000000+00:00</time></trkpt><trkpt lat="30.69447327" lon="34.9457283"><ele>685.7</ele><time>2013-11-22T10:04:13.0000000+00:00</time></trkpt><trkpt lat="30.6945858" lon="34.94578552"><ele>683.8</ele><time>2013-11-22T10:04:18.0000000+00:00</time></trkpt><trkpt lat="30.69474793" lon="34.94583511"><ele>682.1</ele><time>2013-11-22T10:04:23.0000000+00:00</time></trkpt><trkpt lat="30.69489861" lon="34.94596863"><ele>679.6</ele><time>2013-11-22T10:04:28.0000000+00:00</time></trkpt><trkpt lat="30.69510078" lon="34.94618225"><ele>677.9</ele><time>2013-11-22T10:04:33.0000000+00:00</time></trkpt><trkpt lat="30.6952877" lon="34.94643021"><ele>678.2</ele><time>2013-11-22T10:04:38.0000000+00:00</time></trkpt><trkpt lat="30.69537354" lon="34.94667435"><ele>678.0</ele><time>2013-11-22T10:04:43.0000000+00:00</time></trkpt><trkpt lat="30.69543266" lon="34.94690704"><ele>676.0</ele><time>2013-11-22T10:04:48.0000000+00:00</time></trkpt><trkpt lat="30.69548988" lon="34.94721222"><ele>672.9</ele><time>2013-11-22T10:04:53.0000000+00:00</time></trkpt><trkpt lat="30.69556618" lon="34.94749069"><ele>669.6</ele><time>2013-11-22T10:04:58.0000000+00:00</time></trkpt><trkpt lat="30.69564247" lon="34.94760513"><ele>672.3</ele><time>2013-11-22T10:05:03.0000000+00:00</time></trkpt><trkpt lat="30.69566917" lon="34.94768524"><ele>672.4</ele><time>2013-11-22T10:05:08.0000000+00:00</time></trkpt><trkpt lat="30.69565392" lon="34.94771576"><ele>672.5</ele><time>2013-11-22T10:05:13.0000000+00:00</time></trkpt><trkpt lat="30.69565392" lon="34.94771957"><ele>672.5</ele><time>2013-11-22T10:05:18.0000000+00:00</time></trkpt><trkpt lat="30.69565392" lon="34.94771957"><ele>672.5</ele><time>2013-11-22T10:05:23.0000000+00:00</time></trkpt><trkpt lat="30.69565392" lon="34.94771957"><ele>672.5</ele><time>2013-11-22T10:05:28.0000000+00:00</time></trkpt><trkpt lat="30.69565392" lon="34.94771957"><ele>672.5</ele><time>2013-11-22T10:05:33.0000000+00:00</time></trkpt><trkpt lat="30.69565392" lon="34.94772339"><ele>672.6</ele><time>2013-11-22T10:05:38.0000000+00:00</time></trkpt><trkpt lat="30.69561195" lon="34.94779587"><ele>673.3</ele><time>2013-11-22T10:05:43.0000000+00:00</time></trkpt><trkpt lat="30.69556809" lon="34.94794083"><ele>672.9</ele><time>2013-11-22T10:05:48.0000000+00:00</time></trkpt><trkpt lat="30.69547844" lon="34.94809723"><ele>673.2</ele><time>2013-11-22T10:05:53.0000000+00:00</time></trkpt><trkpt lat="30.69544792" lon="34.94820023"><ele>672.9</ele><time>2013-11-22T10:05:58.0000000+00:00</time></trkpt><trkpt lat="30.69544792" lon="34.94829178"><ele>673.3</ele><time>2013-11-22T10:06:03.0000000+00:00</time></trkpt><trkpt lat="30.69543839" lon="34.94836426"><ele>673.1</ele><time>2013-11-22T10:06:08.0000000+00:00</time></trkpt><trkpt lat="30.69548225" lon="34.94841766"><ele>672.4</ele><time>2013-11-22T10:06:13.0000000+00:00</time></trkpt><trkpt lat="30.6955204" lon="34.94844055"><ele>672.8</ele><time>2013-11-22T10:06:18.0000000+00:00</time></trkpt><trkpt lat="30.69553757" lon="34.94844055"><ele>674.1</ele><time>2013-11-22T10:06:23.0000000+00:00</time></trkpt><trkpt lat="30.6955986" lon="34.94847488"><ele>673.8</ele><time>2013-11-22T10:06:28.0000000+00:00</time></trkpt><trkpt lat="30.69566155" lon="34.94850922"><ele>672.5</ele><time>2013-11-22T10:06:33.0000000+00:00</time></trkpt><trkpt lat="30.69573593" lon="34.9485321"><ele>672.0</ele><time>2013-11-22T10:06:38.0000000+00:00</time></trkpt><trkpt lat="30.69579125" lon="34.94854736"><ele>672.7</ele><time>2013-11-22T10:06:43.0000000+00:00</time></trkpt><trkpt lat="30.69584465" lon="34.94856644"><ele>675.6</ele><time>2013-11-22T10:06:48.0000000+00:00</time></trkpt><trkpt lat="30.69593811" lon="34.94855499"><ele>676.2</ele><time>2013-11-22T10:06:53.0000000+00:00</time></trkpt><trkpt lat="30.69601822" lon="34.94854736"><ele>676.5</ele><time>2013-11-22T10:06:58.0000000+00:00</time></trkpt><trkpt lat="30.69605637" lon="34.94858551"><ele>677.0</ele><time>2013-11-22T10:07:03.0000000+00:00</time></trkpt><trkpt lat="30.69607544" lon="34.94858551"><ele>677.0</ele><time>2013-11-22T10:07:08.0000000+00:00</time></trkpt><trkpt lat="30.69613266" lon="34.9486618"><ele>676.7</ele><time>2013-11-22T10:07:13.0000000+00:00</time></trkpt><trkpt lat="30.69624329" lon="34.94874954"><ele>676.1</ele><time>2013-11-22T10:07:18.0000000+00:00</time></trkpt><trkpt lat="30.69633865" lon="34.94880676"><ele>675.4</ele><time>2013-11-22T10:07:23.0000000+00:00</time></trkpt><trkpt lat="30.69639397" lon="34.94893265"><ele>675.3</ele><time>2013-11-22T10:07:28.0000000+00:00</time></trkpt><trkpt lat="30.69649887" lon="34.94906235"><ele>675.2</ele><time>2013-11-22T10:07:33.0000000+00:00</time></trkpt><trkpt lat="30.69659042" lon="34.94924164"><ele>673.2</ele><time>2013-11-22T10:07:38.0000000+00:00</time></trkpt><trkpt lat="30.69667053" lon="34.94937897"><ele>673.2</ele><time>2013-11-22T10:07:43.0000000+00:00</time></trkpt><trkpt lat="30.69665909" lon="34.9493866"><ele>673.5</ele><time>2013-11-22T10:07:48.0000000+00:00</time></trkpt><trkpt lat="30.69665146" lon="34.9493866"><ele>673.5</ele><time>2013-11-22T10:07:53.0000000+00:00</time></trkpt><trkpt lat="30.69665146" lon="34.9493866"><ele>673.5</ele><time>2013-11-22T10:07:58.0000000+00:00</time></trkpt><trkpt lat="30.69664955" lon="34.9493866"><ele>673.5</ele><time>2013-11-22T10:08:03.0000000+00:00</time></trkpt><trkpt lat="30.69667053" lon="34.94942474"><ele>673.7</ele><time>2013-11-22T10:08:08.0000000+00:00</time></trkpt><trkpt lat="30.69671059" lon="34.94955826"><ele>674.0</ele><time>2013-11-22T10:08:13.0000000+00:00</time></trkpt><trkpt lat="30.69675827" lon="34.94974136"><ele>673.4</ele><time>2013-11-22T10:08:18.0000000+00:00</time></trkpt><trkpt lat="30.69678307" lon="34.94993973"><ele>672.7</ele><time>2013-11-22T10:08:23.0000000+00:00</time></trkpt><trkpt lat="30.69676399" lon="34.95014954"><ele>671.8</ele><time>2013-11-22T10:08:28.0000000+00:00</time></trkpt><trkpt lat="30.69677734" lon="34.95040894"><ele>669.6</ele><time>2013-11-22T10:08:33.0000000+00:00</time></trkpt><trkpt lat="30.69689369" lon="34.95063782"><ele>669.5</ele><time>2013-11-22T10:08:38.0000000+00:00</time></trkpt><trkpt lat="30.69705391" lon="34.95068741"><ele>668.8</ele><time>2013-11-22T10:08:43.0000000+00:00</time></trkpt><trkpt lat="30.69723892" lon="34.95068359"><ele>667.6</ele><time>2013-11-22T10:08:48.0000000+00:00</time></trkpt><trkpt lat="30.69744492" lon="34.95067978"><ele>666.5</ele><time>2013-11-22T10:08:53.0000000+00:00</time></trkpt><trkpt lat="30.69768524" lon="34.95069122"><ele>663.7</ele><time>2013-11-22T10:08:58.0000000+00:00</time></trkpt><trkpt lat="30.69782639" lon="34.95079041"><ele>661.0</ele><time>2013-11-22T10:09:03.0000000+00:00</time></trkpt><trkpt lat="30.69794846" lon="34.95087814"><ele>660.8</ele><time>2013-11-22T10:09:08.0000000+00:00</time></trkpt><trkpt lat="30.6981926" lon="34.9508934"><ele>657.6</ele><time>2013-11-22T10:09:13.0000000+00:00</time></trkpt><trkpt lat="30.69849014" lon="34.95079804"><ele>654.5</ele><time>2013-11-22T10:09:18.0000000+00:00</time></trkpt><trkpt lat="30.69882202" lon="34.95079422"><ele>651.7</ele><time>2013-11-22T10:09:23.0000000+00:00</time></trkpt><trkpt lat="30.69919205" lon="34.95093918"><ele>648.8</ele><time>2013-11-22T10:09:28.0000000+00:00</time></trkpt><trkpt lat="30.6995697" lon="34.95119858"><ele>632.6</ele><time>2013-11-22T10:09:34.0000000+00:00</time></trkpt><trkpt lat="30.69960785" lon="34.95124817"><ele>639.3</ele><time>2013-11-22T10:09:39.0000000+00:00</time></trkpt><trkpt lat="30.69962311" lon="34.95126724"><ele>643.7</ele><time>2013-11-22T10:09:44.0000000+00:00</time></trkpt><trkpt lat="30.69960403" lon="34.95127487"><ele>643.8</ele><time>2013-11-22T10:09:49.0000000+00:00</time></trkpt><trkpt lat="30.69959641" lon="34.95126724"><ele>645.4</ele><time>2013-11-22T10:09:54.0000000+00:00</time></trkpt><trkpt lat="30.69960022" lon="34.9512558"><ele>645.4</ele><time>2013-11-22T10:09:59.0000000+00:00</time></trkpt><trkpt lat="30.69960213" lon="34.95127869"><ele>645.3</ele><time>2013-11-22T10:10:04.0000000+00:00</time></trkpt><trkpt lat="30.69960022" lon="34.95131302"><ele>646.3</ele><time>2013-11-22T10:10:09.0000000+00:00</time></trkpt><trkpt lat="30.69960213" lon="34.95133972"><ele>646.2</ele><time>2013-11-22T10:10:14.0000000+00:00</time></trkpt><trkpt lat="30.69960785" lon="34.95133972"><ele>645.5</ele><time>2013-11-22T10:10:19.0000000+00:00</time></trkpt><trkpt lat="30.69960403" lon="34.95133972"><ele>646.8</ele><time>2013-11-22T10:10:24.0000000+00:00</time></trkpt><trkpt lat="30.69960403" lon="34.95132446"><ele>646.6</ele><time>2013-11-22T10:10:29.0000000+00:00</time></trkpt><trkpt lat="30.69960213" lon="34.95132065"><ele>646.7</ele><time>2013-11-22T10:10:34.0000000+00:00</time></trkpt><trkpt lat="30.69960403" lon="34.95132065"><ele>646.7</ele><time>2013-11-22T10:10:39.0000000+00:00</time></trkpt><trkpt lat="30.69960403" lon="34.95132065"><ele>646.7</ele><time>2013-11-22T10:10:44.0000000+00:00</time></trkpt><trkpt lat="30.69960403" lon="34.95132065"><ele>646.7</ele><time>2013-11-22T10:10:49.0000000+00:00</time></trkpt><trkpt lat="30.69960403" lon="34.95132065"><ele>646.7</ele><time>2013-11-22T10:10:54.0000000+00:00</time></trkpt><trkpt lat="30.69960403" lon="34.95132065"><ele>646.6</ele><time>2013-11-22T10:10:59.0000000+00:00</time></trkpt><trkpt lat="30.69960213" lon="34.95132065"><ele>646.6</ele><time>2013-11-22T10:11:04.0000000+00:00</time></trkpt><trkpt lat="30.69960213" lon="34.95132065"><ele>646.6</ele><time>2013-11-22T10:11:09.0000000+00:00</time></trkpt><trkpt lat="30.69960213" lon="34.95132065"><ele>646.6</ele><time>2013-11-22T10:11:14.0000000+00:00</time></trkpt><trkpt lat="30.69960213" lon="34.95132065"><ele>646.6</ele><time>2013-11-22T10:11:19.0000000+00:00</time></trkpt><trkpt lat="30.69960213" lon="34.95132065"><ele>646.6</ele><time>2013-11-22T10:11:24.0000000+00:00</time></trkpt><trkpt lat="30.69960213" lon="34.95132065"><ele>646.6</ele><time>2013-11-22T10:11:29.0000000+00:00</time></trkpt><trkpt lat="30.69960213" lon="34.95132065"><ele>646.6</ele><time>2013-11-22T10:11:34.0000000+00:00</time></trkpt><trkpt lat="30.69960213" lon="34.95132065"><ele>646.6</ele><time>2013-11-22T10:11:39.0000000+00:00</time></trkpt><trkpt lat="30.69960213" lon="34.95132065"><ele>646.5</ele><time>2013-11-22T10:11:44.0000000+00:00</time></trkpt><trkpt lat="30.69960213" lon="34.95132065"><ele>646.5</ele><time>2013-11-22T10:11:49.0000000+00:00</time></trkpt><trkpt lat="30.69960213" lon="34.95132065"><ele>646.5</ele><time>2013-11-22T10:11:54.0000000+00:00</time></trkpt><trkpt lat="30.69960213" lon="34.95132065"><ele>646.5</ele><time>2013-11-22T10:11:59.0000000+00:00</time></trkpt><trkpt lat="30.69960213" lon="34.95132065"><ele>646.5</ele><time>2013-11-22T10:12:04.0000000+00:00</time></trkpt><trkpt lat="30.69960213" lon="34.95132065"><ele>646.5</ele><time>2013-11-22T10:12:09.0000000+00:00</time></trkpt><trkpt lat="30.69960213" lon="34.95132065"><ele>646.4</ele><time>2013-11-22T10:12:14.0000000+00:00</time></trkpt><trkpt lat="30.69960213" lon="34.95132065"><ele>646.4</ele><time>2013-11-22T10:12:19.0000000+00:00</time></trkpt><trkpt lat="30.69960213" lon="34.95132065"><ele>646.4</ele><time>2013-11-22T10:12:24.0000000+00:00</time></trkpt><trkpt lat="30.69960213" lon="34.95132446"><ele>646.3</ele><time>2013-11-22T10:12:29.0000000+00:00</time></trkpt><trkpt lat="30.69960213" lon="34.95132446"><ele>646.3</ele><time>2013-11-22T10:12:34.0000000+00:00</time></trkpt><trkpt lat="30.69960213" lon="34.95132446"><ele>646.3</ele><time>2013-11-22T10:12:39.0000000+00:00</time></trkpt><trkpt lat="30.69960213" lon="34.95132446"><ele>646.3</ele><time>2013-11-22T10:12:44.0000000+00:00</time></trkpt><trkpt lat="30.69960213" lon="34.95132446"><ele>646.3</ele><time>2013-11-22T10:12:49.0000000+00:00</time></trkpt><trkpt lat="30.69960213" lon="34.95132446"><ele>646.2</ele><time>2013-11-22T10:12:54.0000000+00:00</time></trkpt><trkpt lat="30.69960213" lon="34.95132446"><ele>646.2</ele><time>2013-11-22T10:12:59.0000000+00:00</time></trkpt><trkpt lat="30.69960213" lon="34.95132446"><ele>646.2</ele><time>2013-11-22T10:13:04.0000000+00:00</time></trkpt><trkpt lat="30.69960213" lon="34.95132446"><ele>646.2</ele><time>2013-11-22T10:13:09.0000000+00:00</time></trkpt><trkpt lat="30.69960213" lon="34.95132446"><ele>646.2</ele><time>2013-11-22T10:13:14.0000000+00:00</time></trkpt><trkpt lat="30.69960213" lon="34.95132446"><ele>646.2</ele><time>2013-11-22T10:13:19.0000000+00:00</time></trkpt><trkpt lat="30.69960022" lon="34.9513092"><ele>647.0</ele><time>2013-11-22T10:13:24.0000000+00:00</time></trkpt><trkpt lat="30.69960403" lon="34.95129776"><ele>647.4</ele><time>2013-11-22T10:13:29.0000000+00:00</time></trkpt><trkpt lat="30.69960594" lon="34.95129395"><ele>647.8</ele><time>2013-11-22T10:13:34.0000000+00:00</time></trkpt><trkpt lat="30.69960594" lon="34.95129395"><ele>647.8</ele><time>2013-11-22T10:13:39.0000000+00:00</time></trkpt><trkpt lat="30.69960594" lon="34.95129395"><ele>647.8</ele><time>2013-11-22T10:13:44.0000000+00:00</time></trkpt><trkpt lat="30.69960594" lon="34.95129395"><ele>647.8</ele><time>2013-11-22T10:13:49.0000000+00:00</time></trkpt><trkpt lat="30.69960594" lon="34.95129395"><ele>647.8</ele><time>2013-11-22T10:13:54.0000000+00:00</time></trkpt><trkpt lat="30.69960594" lon="34.95129395"><ele>647.8</ele><time>2013-11-22T10:13:59.0000000+00:00</time></trkpt><trkpt lat="30.69960594" lon="34.95129395"><ele>647.7</ele><time>2013-11-22T10:14:04.0000000+00:00</time></trkpt><trkpt lat="30.69960594" lon="34.95129395"><ele>647.7</ele><time>2013-11-22T10:14:09.0000000+00:00</time></trkpt><trkpt lat="30.69960594" lon="34.95129395"><ele>647.8</ele><time>2013-11-22T10:14:14.0000000+00:00</time></trkpt><trkpt lat="30.69960403" lon="34.95129395"><ele>647.7</ele><time>2013-11-22T10:14:19.0000000+00:00</time></trkpt><trkpt lat="30.69960403" lon="34.95129395"><ele>647.7</ele><time>2013-11-22T10:14:24.0000000+00:00</time></trkpt><trkpt lat="30.69960403" lon="34.95129395"><ele>647.7</ele><time>2013-11-22T10:14:29.0000000+00:00</time></trkpt><trkpt lat="30.69960403" lon="34.95129395"><ele>647.7</ele><time>2013-11-22T10:14:34.0000000+00:00</time></trkpt><trkpt lat="30.69960403" lon="34.95129776"><ele>647.7</ele><time>2013-11-22T10:14:39.0000000+00:00</time></trkpt><trkpt lat="30.69960403" lon="34.95130539"><ele>647.2</ele><time>2013-11-22T10:14:44.0000000+00:00</time></trkpt><trkpt lat="30.69960403" lon="34.9513092"><ele>646.7</ele><time>2013-11-22T10:14:49.0000000+00:00</time></trkpt><trkpt lat="30.69960022" lon="34.9513092"><ele>646.3</ele><time>2013-11-22T10:14:54.0000000+00:00</time></trkpt><trkpt lat="30.69960213" lon="34.9513092"><ele>646.0</ele><time>2013-11-22T10:14:59.0000000+00:00</time></trkpt><trkpt lat="30.69960213" lon="34.9513092"><ele>646.0</ele><time>2013-11-22T10:15:04.0000000+00:00</time></trkpt><trkpt lat="30.69960213" lon="34.95131302"><ele>646.3</ele><time>2013-11-22T10:15:09.0000000+00:00</time></trkpt><trkpt lat="30.69960403" lon="34.9513092"><ele>646.3</ele><time>2013-11-22T10:15:14.0000000+00:00</time></trkpt><trkpt lat="30.69960594" lon="34.95131302"><ele>646.2</ele><time>2013-11-22T10:15:19.0000000+00:00</time></trkpt><trkpt lat="30.69960594" lon="34.95131302"><ele>646.2</ele><time>2013-11-22T10:15:24.0000000+00:00</time></trkpt><trkpt lat="30.69960594" lon="34.95131302"><ele>646.2</ele><time>2013-11-22T10:15:29.0000000+00:00</time></trkpt><trkpt lat="30.69960594" lon="34.95131302"><ele>646.2</ele><time>2013-11-22T10:15:34.0000000+00:00</time></trkpt><trkpt lat="30.69960594" lon="34.95131302"><ele>646.2</ele><time>2013-11-22T10:15:39.0000000+00:00</time></trkpt><trkpt lat="30.69960594" lon="34.95131302"><ele>646.2</ele><time>2013-11-22T10:15:44.0000000+00:00</time></trkpt><trkpt lat="30.69960594" lon="34.95131302"><ele>646.2</ele><time>2013-11-22T10:15:49.0000000+00:00</time></trkpt><trkpt lat="30.69960785" lon="34.95131302"><ele>646.2</ele><time>2013-11-22T10:15:54.0000000+00:00</time></trkpt><trkpt lat="30.69960785" lon="34.95131302"><ele>646.2</ele><time>2013-11-22T10:15:59.0000000+00:00</time></trkpt><trkpt lat="30.69960785" lon="34.95131302"><ele>646.2</ele><time>2013-11-22T10:16:04.0000000+00:00</time></trkpt><trkpt lat="30.69960785" lon="34.95131302"><ele>646.2</ele><time>2013-11-22T10:16:09.0000000+00:00</time></trkpt><trkpt lat="30.69960785" lon="34.95131302"><ele>646.2</ele><time>2013-11-22T10:16:14.0000000+00:00</time></trkpt><trkpt lat="30.69960785" lon="34.95131302"><ele>646.2</ele><time>2013-11-22T10:16:19.0000000+00:00</time></trkpt><trkpt lat="30.69960785" lon="34.95131302"><ele>646.2</ele><time>2013-11-22T10:16:24.0000000+00:00</time></trkpt><trkpt lat="30.69960785" lon="34.95131302"><ele>646.2</ele><time>2013-11-22T10:16:29.0000000+00:00</time></trkpt><trkpt lat="30.69960785" lon="34.95131302"><ele>646.2</ele><time>2013-11-22T10:16:34.0000000+00:00</time></trkpt><trkpt lat="30.69960785" lon="34.95131302"><ele>646.2</ele><time>2013-11-22T10:16:39.0000000+00:00</time></trkpt><trkpt lat="30.69960785" lon="34.95131302"><ele>646.2</ele><time>2013-11-22T10:16:44.0000000+00:00</time></trkpt><trkpt lat="30.69960785" lon="34.95131302"><ele>646.2</ele><time>2013-11-22T10:16:49.0000000+00:00</time></trkpt><trkpt lat="30.69960785" lon="34.95131302"><ele>646.2</ele><time>2013-11-22T10:16:54.0000000+00:00</time></trkpt><trkpt lat="30.69960785" lon="34.95131302"><ele>646.2</ele><time>2013-11-22T10:16:59.0000000+00:00</time></trkpt><trkpt lat="30.69960785" lon="34.95131302"><ele>646.2</ele><time>2013-11-22T10:17:04.0000000+00:00</time></trkpt><trkpt lat="30.69960785" lon="34.95131302"><ele>646.2</ele><time>2013-11-22T10:17:09.0000000+00:00</time></trkpt><trkpt lat="30.69960785" lon="34.95131302"><ele>646.2</ele><time>2013-11-22T10:17:14.0000000+00:00</time></trkpt><trkpt lat="30.69960785" lon="34.95131302"><ele>646.2</ele><time>2013-11-22T10:17:19.0000000+00:00</time></trkpt><trkpt lat="30.69960785" lon="34.95131302"><ele>646.2</ele><time>2013-11-22T10:17:24.0000000+00:00</time></trkpt><trkpt lat="30.69960785" lon="34.95131683"><ele>646.2</ele><time>2013-11-22T10:17:29.0000000+00:00</time></trkpt><trkpt lat="30.69960785" lon="34.95131683"><ele>646.2</ele><time>2013-11-22T10:17:34.0000000+00:00</time></trkpt><trkpt lat="30.69960785" lon="34.95131683"><ele>646.2</ele><time>2013-11-22T10:17:39.0000000+00:00</time></trkpt><trkpt lat="30.69960785" lon="34.95131683"><ele>646.2</ele><time>2013-11-22T10:17:44.0000000+00:00</time></trkpt><trkpt lat="30.69960785" lon="34.95131683"><ele>646.2</ele><time>2013-11-22T10:17:49.0000000+00:00</time></trkpt><trkpt lat="30.69960785" lon="34.95131683"><ele>646.3</ele><time>2013-11-22T10:17:54.0000000+00:00</time></trkpt><trkpt lat="30.69960785" lon="34.95131683"><ele>646.3</ele><time>2013-11-22T10:17:59.0000000+00:00</time></trkpt><trkpt lat="30.69960785" lon="34.95131683"><ele>646.3</ele><time>2013-11-22T10:18:04.0000000+00:00</time></trkpt><trkpt lat="30.69960785" lon="34.95131683"><ele>646.3</ele><time>2013-11-22T10:18:09.0000000+00:00</time></trkpt><trkpt lat="30.69960785" lon="34.95131683"><ele>646.3</ele><time>2013-11-22T10:18:14.0000000+00:00</time></trkpt><trkpt lat="30.69960785" lon="34.95131683"><ele>646.3</ele><time>2013-11-22T10:18:19.0000000+00:00</time></trkpt><trkpt lat="30.69960785" lon="34.95131683"><ele>646.3</ele><time>2013-11-22T10:18:24.0000000+00:00</time></trkpt><trkpt lat="30.69960785" lon="34.95131683"><ele>646.3</ele><time>2013-11-22T10:18:29.0000000+00:00</time></trkpt><trkpt lat="30.69960785" lon="34.95131683"><ele>646.3</ele><time>2013-11-22T10:18:34.0000000+00:00</time></trkpt><trkpt lat="30.69960785" lon="34.95131683"><ele>646.3</ele><time>2013-11-22T10:18:39.0000000+00:00</time></trkpt><trkpt lat="30.69960785" lon="34.95131683"><ele>646.3</ele><time>2013-11-22T10:18:44.0000000+00:00</time></trkpt><trkpt lat="30.69960785" lon="34.95131683"><ele>646.3</ele><time>2013-11-22T10:18:49.0000000+00:00</time></trkpt><trkpt lat="30.69960785" lon="34.95131683"><ele>646.3</ele><time>2013-11-22T10:18:54.0000000+00:00</time></trkpt><trkpt lat="30.69960785" lon="34.95131683"><ele>646.3</ele><time>2013-11-22T10:18:59.0000000+00:00</time></trkpt><trkpt lat="30.69960785" lon="34.95131683"><ele>646.3</ele><time>2013-11-22T10:19:04.0000000+00:00</time></trkpt><trkpt lat="30.69960785" lon="34.95131683"><ele>646.3</ele><time>2013-11-22T10:19:09.0000000+00:00</time></trkpt><trkpt lat="30.69960785" lon="34.95131683"><ele>646.3</ele><time>2013-11-22T10:19:14.0000000+00:00</time></trkpt><trkpt lat="30.69960785" lon="34.95131683"><ele>646.3</ele><time>2013-11-22T10:19:19.0000000+00:00</time></trkpt><trkpt lat="30.69960785" lon="34.95131683"><ele>646.3</ele><time>2013-11-22T10:19:24.0000000+00:00</time></trkpt><trkpt lat="30.69960785" lon="34.95131683"><ele>646.3</ele><time>2013-11-22T10:19:29.0000000+00:00</time></trkpt><trkpt lat="30.69960785" lon="34.95131683"><ele>646.3</ele><time>2013-11-22T10:19:34.0000000+00:00</time></trkpt><trkpt lat="30.69960785" lon="34.95131683"><ele>646.3</ele><time>2013-11-22T10:19:39.0000000+00:00</time></trkpt><trkpt lat="30.69960785" lon="34.95131683"><ele>646.3</ele><time>2013-11-22T10:19:44.0000000+00:00</time></trkpt><trkpt lat="30.69960785" lon="34.95132065"><ele>646.3</ele><time>2013-11-22T10:19:49.0000000+00:00</time></trkpt><trkpt lat="30.69960785" lon="34.95132065"><ele>646.3</ele><time>2013-11-22T10:19:54.0000000+00:00</time></trkpt><trkpt lat="30.69960785" lon="34.95132065"><ele>646.3</ele><time>2013-11-22T10:19:59.0000000+00:00</time></trkpt><trkpt lat="30.69960785" lon="34.95132065"><ele>646.3</ele><time>2013-11-22T10:20:04.0000000+00:00</time></trkpt><trkpt lat="30.69960785" lon="34.95132065"><ele>646.3</ele><time>2013-11-22T10:20:09.0000000+00:00</time></trkpt><trkpt lat="30.69960785" lon="34.95132065"><ele>646.3</ele><time>2013-11-22T10:20:14.0000000+00:00</time></trkpt><trkpt lat="30.69960785" lon="34.95132065"><ele>646.3</ele><time>2013-11-22T10:20:19.0000000+00:00</time></trkpt><trkpt lat="30.69960785" lon="34.95132065"><ele>646.3</ele><time>2013-11-22T10:20:24.0000000+00:00</time></trkpt><trkpt lat="30.69960785" lon="34.95132065"><ele>646.3</ele><time>2013-11-22T10:20:29.0000000+00:00</time></trkpt><trkpt lat="30.69960785" lon="34.95132065"><ele>646.3</ele><time>2013-11-22T10:20:34.0000000+00:00</time></trkpt><trkpt lat="30.69960785" lon="34.95132065"><ele>646.3</ele><time>2013-11-22T10:20:39.0000000+00:00</time></trkpt><trkpt lat="30.69960785" lon="34.95132065"><ele>646.3</ele><time>2013-11-22T10:20:44.0000000+00:00</time></trkpt><trkpt lat="30.69960785" lon="34.95132065"><ele>646.4</ele><time>2013-11-22T10:20:49.0000000+00:00</time></trkpt><trkpt lat="30.69960785" lon="34.95132065"><ele>646.4</ele><time>2013-11-22T10:20:54.0000000+00:00</time></trkpt><trkpt lat="30.69960785" lon="34.95132065"><ele>646.4</ele><time>2013-11-22T10:20:59.0000000+00:00</time></trkpt><trkpt lat="30.69960785" lon="34.95132065"><ele>646.3</ele><time>2013-11-22T10:21:04.0000000+00:00</time></trkpt><trkpt lat="30.69960785" lon="34.95132065"><ele>646.4</ele><time>2013-11-22T10:21:09.0000000+00:00</time></trkpt><trkpt lat="30.69960785" lon="34.95132065"><ele>646.4</ele><time>2013-11-22T10:21:14.0000000+00:00</time></trkpt><trkpt lat="30.69960785" lon="34.95132065"><ele>646.4</ele><time>2013-11-22T10:21:19.0000000+00:00</time></trkpt><trkpt lat="30.69960785" lon="34.95132065"><ele>646.4</ele><time>2013-11-22T10:21:24.0000000+00:00</time></trkpt><trkpt lat="30.69960785" lon="34.95132065"><ele>646.4</ele><time>2013-11-22T10:21:29.0000000+00:00</time></trkpt><trkpt lat="30.69960785" lon="34.95132065"><ele>646.4</ele><time>2013-11-22T10:21:34.0000000+00:00</time></trkpt><trkpt lat="30.69960785" lon="34.95132065"><ele>646.4</ele><time>2013-11-22T10:21:39.0000000+00:00</time></trkpt><trkpt lat="30.69960785" lon="34.95132065"><ele>646.4</ele><time>2013-11-22T10:21:44.0000000+00:00</time></trkpt><trkpt lat="30.69960785" lon="34.95132065"><ele>646.4</ele><time>2013-11-22T10:21:49.0000000+00:00</time></trkpt><trkpt lat="30.69960785" lon="34.95132065"><ele>646.3</ele><time>2013-11-22T10:21:54.0000000+00:00</time></trkpt><trkpt lat="30.69960785" lon="34.95132065"><ele>646.3</ele><time>2013-11-22T10:21:59.0000000+00:00</time></trkpt><trkpt lat="30.69960785" lon="34.95132065"><ele>646.3</ele><time>2013-11-22T10:22:04.0000000+00:00</time></trkpt><trkpt lat="30.69960785" lon="34.95132065"><ele>646.4</ele><time>2013-11-22T10:22:09.0000000+00:00</time></trkpt><trkpt lat="30.69960785" lon="34.95132065"><ele>646.4</ele><time>2013-11-22T10:22:14.0000000+00:00</time></trkpt><trkpt lat="30.69960785" lon="34.95132065"><ele>646.3</ele><time>2013-11-22T10:22:19.0000000+00:00</time></trkpt><trkpt lat="30.69960785" lon="34.95132065"><ele>646.3</ele><time>2013-11-22T10:22:24.0000000+00:00</time></trkpt><trkpt lat="30.69960785" lon="34.95132065"><ele>646.3</ele><time>2013-11-22T10:22:29.0000000+00:00</time></trkpt><trkpt lat="30.69960594" lon="34.95132065"><ele>646.3</ele><time>2013-11-22T10:22:34.0000000+00:00</time></trkpt><trkpt lat="30.69960594" lon="34.95132065"><ele>646.3</ele><time>2013-11-22T10:22:39.0000000+00:00</time></trkpt><trkpt lat="30.69960594" lon="34.95132065"><ele>646.3</ele><time>2013-11-22T10:22:44.0000000+00:00</time></trkpt><trkpt lat="30.69960594" lon="34.95132065"><ele>646.3</ele><time>2013-11-22T10:22:49.0000000+00:00</time></trkpt><trkpt lat="30.69960594" lon="34.95132065"><ele>646.3</ele><time>2013-11-22T10:22:54.0000000+00:00</time></trkpt><trkpt lat="30.69960594" lon="34.95132065"><ele>646.3</ele><time>2013-11-22T10:22:59.0000000+00:00</time></trkpt><trkpt lat="30.69960594" lon="34.95132446"><ele>646.3</ele><time>2013-11-22T10:23:04.0000000+00:00</time></trkpt><trkpt lat="30.69960594" lon="34.95132446"><ele>646.3</ele><time>2013-11-22T10:23:09.0000000+00:00</time></trkpt><trkpt lat="30.69960594" lon="34.95132446"><ele>646.3</ele><time>2013-11-22T10:23:14.0000000+00:00</time></trkpt><trkpt lat="30.69960594" lon="34.95132446"><ele>646.3</ele><time>2013-11-22T10:23:19.0000000+00:00</time></trkpt><trkpt lat="30.69960594" lon="34.95132446"><ele>646.3</ele><time>2013-11-22T10:23:24.0000000+00:00</time></trkpt><trkpt lat="30.69960594" lon="34.95132446"><ele>646.3</ele><time>2013-11-22T10:23:29.0000000+00:00</time></trkpt><trkpt lat="30.69960594" lon="34.95132446"><ele>646.3</ele><time>2013-11-22T10:23:34.0000000+00:00</time></trkpt><trkpt lat="30.69960594" lon="34.95132446"><ele>646.3</ele><time>2013-11-22T10:23:39.0000000+00:00</time></trkpt><trkpt lat="30.69960594" lon="34.95132446"><ele>646.3</ele><time>2013-11-22T10:23:44.0000000+00:00</time></trkpt><trkpt lat="30.69960594" lon="34.95132446"><ele>646.3</ele><time>2013-11-22T10:23:49.0000000+00:00</time></trkpt><trkpt lat="30.69960594" lon="34.95132446"><ele>646.3</ele><time>2013-11-22T10:23:54.0000000+00:00</time></trkpt><trkpt lat="30.69960594" lon="34.95132446"><ele>646.3</ele><time>2013-11-22T10:23:59.0000000+00:00</time></trkpt><trkpt lat="30.69960594" lon="34.95132446"><ele>646.3</ele><time>2013-11-22T10:24:04.0000000+00:00</time></trkpt><trkpt lat="30.69960594" lon="34.95132446"><ele>646.3</ele><time>2013-11-22T10:24:09.0000000+00:00</time></trkpt><trkpt lat="30.69960594" lon="34.95132446"><ele>646.3</ele><time>2013-11-22T10:24:14.0000000+00:00</time></trkpt><trkpt lat="30.69960594" lon="34.95132446"><ele>646.3</ele><time>2013-11-22T10:24:19.0000000+00:00</time></trkpt><trkpt lat="30.69960594" lon="34.95132446"><ele>646.3</ele><time>2013-11-22T10:24:24.0000000+00:00</time></trkpt><trkpt lat="30.69960594" lon="34.95132446"><ele>646.3</ele><time>2013-11-22T10:24:29.0000000+00:00</time></trkpt><trkpt lat="30.69960594" lon="34.95132446"><ele>646.3</ele><time>2013-11-22T10:24:34.0000000+00:00</time></trkpt><trkpt lat="30.69960594" lon="34.95132446"><ele>646.3</ele><time>2013-11-22T10:24:39.0000000+00:00</time></trkpt><trkpt lat="30.69960594" lon="34.95132446"><ele>646.3</ele><time>2013-11-22T10:24:44.0000000+00:00</time></trkpt><trkpt lat="30.69960594" lon="34.95132446"><ele>646.3</ele><time>2013-11-22T10:24:49.0000000+00:00</time></trkpt><trkpt lat="30.69960594" lon="34.95132446"><ele>646.3</ele><time>2013-11-22T10:24:54.0000000+00:00</time></trkpt><trkpt lat="30.69960594" lon="34.95132446"><ele>646.3</ele><time>2013-11-22T10:24:59.0000000+00:00</time></trkpt><trkpt lat="30.69960594" lon="34.95132446"><ele>646.3</ele><time>2013-11-22T10:25:04.0000000+00:00</time></trkpt><trkpt lat="30.69960594" lon="34.95132446"><ele>646.3</ele><time>2013-11-22T10:25:09.0000000+00:00</time></trkpt><trkpt lat="30.69960594" lon="34.95132446"><ele>646.3</ele><time>2013-11-22T10:25:14.0000000+00:00</time></trkpt><trkpt lat="30.69960594" lon="34.95132446"><ele>646.3</ele><time>2013-11-22T10:25:19.0000000+00:00</time></trkpt><trkpt lat="30.69960594" lon="34.95132446"><ele>646.3</ele><time>2013-11-22T10:25:24.0000000+00:00</time></trkpt><trkpt lat="30.69960594" lon="34.95132446"><ele>646.3</ele><time>2013-11-22T10:25:29.0000000+00:00</time></trkpt><trkpt lat="30.69960594" lon="34.95132446"><ele>646.3</ele><time>2013-11-22T10:25:34.0000000+00:00</time></trkpt><trkpt lat="30.69960594" lon="34.95132446"><ele>646.3</ele><time>2013-11-22T10:25:39.0000000+00:00</time></trkpt><trkpt lat="30.69960594" lon="34.95132446"><ele>646.3</ele><time>2013-11-22T10:25:44.0000000+00:00</time></trkpt><trkpt lat="30.69960594" lon="34.95132446"><ele>646.3</ele><time>2013-11-22T10:25:49.0000000+00:00</time></trkpt><trkpt lat="30.69960594" lon="34.95132446"><ele>646.3</ele><time>2013-11-22T10:25:54.0000000+00:00</time></trkpt><trkpt lat="30.69960594" lon="34.95132446"><ele>646.3</ele><time>2013-11-22T10:25:59.0000000+00:00</time></trkpt><trkpt lat="30.69960594" lon="34.95132446"><ele>646.3</ele><time>2013-11-22T10:26:04.0000000+00:00</time></trkpt><trkpt lat="30.69960594" lon="34.95132446"><ele>646.3</ele><time>2013-11-22T10:26:09.0000000+00:00</time></trkpt><trkpt lat="30.69960594" lon="34.95132446"><ele>646.3</ele><time>2013-11-22T10:26:14.0000000+00:00</time></trkpt><trkpt lat="30.69960594" lon="34.95132446"><ele>646.3</ele><time>2013-11-22T10:26:19.0000000+00:00</time></trkpt><trkpt lat="30.69960594" lon="34.95132446"><ele>646.3</ele><time>2013-11-22T10:26:24.0000000+00:00</time></trkpt><trkpt lat="30.69960594" lon="34.95132446"><ele>646.3</ele><time>2013-11-22T10:26:29.0000000+00:00</time></trkpt><trkpt lat="30.69960594" lon="34.95132446"><ele>646.3</ele><time>2013-11-22T10:26:34.0000000+00:00</time></trkpt><trkpt lat="30.69960594" lon="34.95132446"><ele>646.3</ele><time>2013-11-22T10:26:39.0000000+00:00</time></trkpt><trkpt lat="30.69960594" lon="34.95132446"><ele>646.4</ele><time>2013-11-22T10:26:44.0000000+00:00</time></trkpt><trkpt lat="30.69960594" lon="34.95132446"><ele>646.4</ele><time>2013-11-22T10:26:49.0000000+00:00</time></trkpt><trkpt lat="30.69960594" lon="34.95132446"><ele>646.4</ele><time>2013-11-22T10:26:54.0000000+00:00</time></trkpt><trkpt lat="30.69960594" lon="34.95132446"><ele>646.4</ele><time>2013-11-22T10:26:59.0000000+00:00</time></trkpt><trkpt lat="30.69960594" lon="34.95132446"><ele>646.4</ele><time>2013-11-22T10:27:04.0000000+00:00</time></trkpt><trkpt lat="30.69960594" lon="34.95132446"><ele>646.4</ele><time>2013-11-22T10:27:09.0000000+00:00</time></trkpt><trkpt lat="30.69960594" lon="34.95132446"><ele>646.4</ele><time>2013-11-22T10:27:14.0000000+00:00</time></trkpt><trkpt lat="30.69960594" lon="34.95132446"><ele>646.4</ele><time>2013-11-22T10:27:19.0000000+00:00</time></trkpt><trkpt lat="30.69960594" lon="34.95132446"><ele>646.4</ele><time>2013-11-22T10:27:24.0000000+00:00</time></trkpt><trkpt lat="30.69960594" lon="34.95132446"><ele>646.4</ele><time>2013-11-22T10:27:29.0000000+00:00</time></trkpt><trkpt lat="30.69960594" lon="34.95132446"><ele>646.4</ele><time>2013-11-22T10:27:34.0000000+00:00</time></trkpt><trkpt lat="30.69960594" lon="34.95132828"><ele>646.4</ele><time>2013-11-22T10:27:39.0000000+00:00</time></trkpt><trkpt lat="30.69960594" lon="34.95132828"><ele>646.4</ele><time>2013-11-22T10:27:44.0000000+00:00</time></trkpt><trkpt lat="30.69960594" lon="34.95132828"><ele>646.5</ele><time>2013-11-22T10:27:49.0000000+00:00</time></trkpt><trkpt lat="30.69960594" lon="34.95132828"><ele>646.5</ele><time>2013-11-22T10:27:54.0000000+00:00</time></trkpt><trkpt lat="30.69960594" lon="34.95132828"><ele>646.5</ele><time>2013-11-22T10:27:59.0000000+00:00</time></trkpt><trkpt lat="30.69960785" lon="34.95132828"><ele>646.6</ele><time>2013-11-22T10:28:04.0000000+00:00</time></trkpt><trkpt lat="30.69960785" lon="34.95132828"><ele>646.6</ele><time>2013-11-22T10:28:09.0000000+00:00</time></trkpt><trkpt lat="30.69960785" lon="34.95132828"><ele>646.7</ele><time>2013-11-22T10:28:14.0000000+00:00</time></trkpt><trkpt lat="30.69960785" lon="34.95132828"><ele>646.7</ele><time>2013-11-22T10:28:19.0000000+00:00</time></trkpt><trkpt lat="30.69960785" lon="34.95132828"><ele>646.8</ele><time>2013-11-22T10:28:24.0000000+00:00</time></trkpt><trkpt lat="30.69960785" lon="34.95132828"><ele>646.8</ele><time>2013-11-22T10:28:29.0000000+00:00</time></trkpt><trkpt lat="30.69960976" lon="34.95132828"><ele>646.9</ele><time>2013-11-22T10:28:34.0000000+00:00</time></trkpt><trkpt lat="30.69960976" lon="34.95132828"><ele>646.9</ele><time>2013-11-22T10:28:39.0000000+00:00</time></trkpt><trkpt lat="30.69960976" lon="34.95132828"><ele>646.9</ele><time>2013-11-22T10:28:44.0000000+00:00</time></trkpt><trkpt lat="30.69960976" lon="34.95132828"><ele>647.0</ele><time>2013-11-22T10:28:49.0000000+00:00</time></trkpt><trkpt lat="30.69960976" lon="34.95132828"><ele>647.0</ele><time>2013-11-22T10:28:54.0000000+00:00</time></trkpt><trkpt lat="30.69960976" lon="34.95132828"><ele>647.0</ele><time>2013-11-22T10:28:59.0000000+00:00</time></trkpt><trkpt lat="30.69961166" lon="34.95132828"><ele>647.1</ele><time>2013-11-22T10:29:04.0000000+00:00</time></trkpt><trkpt lat="30.69961166" lon="34.95132828"><ele>647.1</ele><time>2013-11-22T10:29:09.0000000+00:00</time></trkpt><trkpt lat="30.69961166" lon="34.95132828"><ele>647.1</ele><time>2013-11-22T10:29:14.0000000+00:00</time></trkpt><trkpt lat="30.69961166" lon="34.95132828"><ele>647.2</ele><time>2013-11-22T10:29:19.0000000+00:00</time></trkpt><trkpt lat="30.69961166" lon="34.95132828"><ele>647.2</ele><time>2013-11-22T10:29:24.0000000+00:00</time></trkpt><trkpt lat="30.69961166" lon="34.95132828"><ele>647.2</ele><time>2013-11-22T10:29:29.0000000+00:00</time></trkpt><trkpt lat="30.69961166" lon="34.95132828"><ele>647.3</ele><time>2013-11-22T10:29:34.0000000+00:00</time></trkpt><trkpt lat="30.69961166" lon="34.95132828"><ele>647.3</ele><time>2013-11-22T10:29:39.0000000+00:00</time></trkpt><trkpt lat="30.69961166" lon="34.95132828"><ele>647.3</ele><time>2013-11-22T10:29:44.0000000+00:00</time></trkpt><trkpt lat="30.69961357" lon="34.95132828"><ele>647.4</ele><time>2013-11-22T10:29:49.0000000+00:00</time></trkpt><trkpt lat="30.69961357" lon="34.95132828"><ele>647.4</ele><time>2013-11-22T10:29:54.0000000+00:00</time></trkpt><trkpt lat="30.69961357" lon="34.95132828"><ele>647.5</ele><time>2013-11-22T10:29:59.0000000+00:00</time></trkpt><trkpt lat="30.69961357" lon="34.95132828"><ele>647.5</ele><time>2013-11-22T10:30:04.0000000+00:00</time></trkpt><trkpt lat="30.69961357" lon="34.95132828"><ele>647.6</ele><time>2013-11-22T10:30:09.0000000+00:00</time></trkpt><trkpt lat="30.69961548" lon="34.95132446"><ele>647.6</ele><time>2013-11-22T10:30:14.0000000+00:00</time></trkpt><trkpt lat="30.69961548" lon="34.95132446"><ele>647.6</ele><time>2013-11-22T10:30:19.0000000+00:00</time></trkpt><trkpt lat="30.69961548" lon="34.95132446"><ele>647.7</ele><time>2013-11-22T10:30:24.0000000+00:00</time></trkpt><trkpt lat="30.69961548" lon="34.95132446"><ele>647.7</ele><time>2013-11-22T10:30:29.0000000+00:00</time></trkpt><trkpt lat="30.69961548" lon="34.95132446"><ele>647.8</ele><time>2013-11-22T10:30:34.0000000+00:00</time></trkpt><trkpt lat="30.69961548" lon="34.95132828"><ele>647.8</ele><time>2013-11-22T10:30:39.0000000+00:00</time></trkpt><trkpt lat="30.69961548" lon="34.95132828"><ele>647.8</ele><time>2013-11-22T10:30:44.0000000+00:00</time></trkpt><trkpt lat="30.69961739" lon="34.95132828"><ele>647.9</ele><time>2013-11-22T10:30:49.0000000+00:00</time></trkpt><trkpt lat="30.69961739" lon="34.95132446"><ele>647.9</ele><time>2013-11-22T10:30:54.0000000+00:00</time></trkpt><trkpt lat="30.69961739" lon="34.95132828"><ele>647.9</ele><time>2013-11-22T10:30:59.0000000+00:00</time></trkpt><trkpt lat="30.69961739" lon="34.95132446"><ele>648.0</ele><time>2013-11-22T10:31:04.0000000+00:00</time></trkpt><trkpt lat="30.69961739" lon="34.95132446"><ele>648.0</ele><time>2013-11-22T10:31:09.0000000+00:00</time></trkpt><trkpt lat="30.69961739" lon="34.95132446"><ele>648.0</ele><time>2013-11-22T10:31:14.0000000+00:00</time></trkpt><trkpt lat="30.69961929" lon="34.95132446"><ele>648.1</ele><time>2013-11-22T10:31:19.0000000+00:00</time></trkpt><trkpt lat="30.69961929" lon="34.95132446"><ele>648.1</ele><time>2013-11-22T10:31:24.0000000+00:00</time></trkpt><trkpt lat="30.69961929" lon="34.95132446"><ele>648.1</ele><time>2013-11-22T10:31:29.0000000+00:00</time></trkpt><trkpt lat="30.69961929" lon="34.95132446"><ele>648.2</ele><time>2013-11-22T10:31:34.0000000+00:00</time></trkpt><trkpt lat="30.69961929" lon="34.95132446"><ele>648.2</ele><time>2013-11-22T10:31:39.0000000+00:00</time></trkpt><trkpt lat="30.69961929" lon="34.95132446"><ele>648.2</ele><time>2013-11-22T10:31:44.0000000+00:00</time></trkpt><trkpt lat="30.69961929" lon="34.95132446"><ele>648.3</ele><time>2013-11-22T10:31:49.0000000+00:00</time></trkpt><trkpt lat="30.69961929" lon="34.95132446"><ele>648.3</ele><time>2013-11-22T10:31:54.0000000+00:00</time></trkpt><trkpt lat="30.69961929" lon="34.95132446"><ele>648.3</ele><time>2013-11-22T10:31:59.0000000+00:00</time></trkpt><trkpt lat="30.69961929" lon="34.95132446"><ele>648.3</ele><time>2013-11-22T10:32:04.0000000+00:00</time></trkpt><trkpt lat="30.6996212" lon="34.95132446"><ele>648.3</ele><time>2013-11-22T10:32:09.0000000+00:00</time></trkpt><trkpt lat="30.6996212" lon="34.95132446"><ele>648.4</ele><time>2013-11-22T10:32:14.0000000+00:00</time></trkpt><trkpt lat="30.6996212" lon="34.95132446"><ele>648.4</ele><time>2013-11-22T10:32:19.0000000+00:00</time></trkpt><trkpt lat="30.6996212" lon="34.95132828"><ele>648.4</ele><time>2013-11-22T10:32:24.0000000+00:00</time></trkpt><trkpt lat="30.6996212" lon="34.95132828"><ele>648.4</ele><time>2013-11-22T10:32:29.0000000+00:00</time></trkpt><trkpt lat="30.6996212" lon="34.95132828"><ele>648.5</ele><time>2013-11-22T10:32:34.0000000+00:00</time></trkpt><trkpt lat="30.6996212" lon="34.95132828"><ele>648.5</ele><time>2013-11-22T10:32:39.0000000+00:00</time></trkpt><trkpt lat="30.6996212" lon="34.95132828"><ele>648.5</ele><time>2013-11-22T10:32:44.0000000+00:00</time></trkpt><trkpt lat="30.6996212" lon="34.95132828"><ele>648.5</ele><time>2013-11-22T10:32:49.0000000+00:00</time></trkpt><trkpt lat="30.6996212" lon="34.95132828"><ele>648.5</ele><time>2013-11-22T10:32:54.0000000+00:00</time></trkpt><trkpt lat="30.6996212" lon="34.95132828"><ele>648.5</ele><time>2013-11-22T10:32:59.0000000+00:00</time></trkpt><trkpt lat="30.6996212" lon="34.95132828"><ele>648.5</ele><time>2013-11-22T10:33:04.0000000+00:00</time></trkpt><trkpt lat="30.6996212" lon="34.95132828"><ele>648.5</ele><time>2013-11-22T10:33:09.0000000+00:00</time></trkpt><trkpt lat="30.6996212" lon="34.95132828"><ele>648.6</ele><time>2013-11-22T10:33:14.0000000+00:00</time></trkpt><trkpt lat="30.6996212" lon="34.95132828"><ele>648.6</ele><time>2013-11-22T10:33:19.0000000+00:00</time></trkpt><trkpt lat="30.6996212" lon="34.95132828"><ele>648.6</ele><time>2013-11-22T10:33:24.0000000+00:00</time></trkpt><trkpt lat="30.6996212" lon="34.95132828"><ele>648.6</ele><time>2013-11-22T10:33:29.0000000+00:00</time></trkpt><trkpt lat="30.6996212" lon="34.95132828"><ele>648.6</ele><time>2013-11-22T10:33:34.0000000+00:00</time></trkpt><trkpt lat="30.69962311" lon="34.95132828"><ele>648.6</ele><time>2013-11-22T10:33:39.0000000+00:00</time></trkpt><trkpt lat="30.69962311" lon="34.95132828"><ele>648.6</ele><time>2013-11-22T10:33:44.0000000+00:00</time></trkpt><trkpt lat="30.69962311" lon="34.95132828"><ele>648.7</ele><time>2013-11-22T10:33:49.0000000+00:00</time></trkpt><trkpt lat="30.69962311" lon="34.95132828"><ele>648.7</ele><time>2013-11-22T10:33:54.0000000+00:00</time></trkpt><trkpt lat="30.69962311" lon="34.95132828"><ele>648.7</ele><time>2013-11-22T10:33:59.0000000+00:00</time></trkpt><trkpt lat="30.69962311" lon="34.95132828"><ele>648.7</ele><time>2013-11-22T10:34:04.0000000+00:00</time></trkpt><trkpt lat="30.69962311" lon="34.95132828"><ele>648.7</ele><time>2013-11-22T10:34:09.0000000+00:00</time></trkpt><trkpt lat="30.69962311" lon="34.95132828"><ele>648.8</ele><time>2013-11-22T10:34:14.0000000+00:00</time></trkpt><trkpt lat="30.69962311" lon="34.95132828"><ele>648.8</ele><time>2013-11-22T10:34:19.0000000+00:00</time></trkpt><trkpt lat="30.69962311" lon="34.95132828"><ele>648.8</ele><time>2013-11-22T10:34:24.0000000+00:00</time></trkpt><trkpt lat="30.69962311" lon="34.95132828"><ele>648.8</ele><time>2013-11-22T10:34:29.0000000+00:00</time></trkpt><trkpt lat="30.69962311" lon="34.95132828"><ele>648.8</ele><time>2013-11-22T10:34:34.0000000+00:00</time></trkpt><trkpt lat="30.69962311" lon="34.95132828"><ele>648.8</ele><time>2013-11-22T10:34:39.0000000+00:00</time></trkpt><trkpt lat="30.69962311" lon="34.95132828"><ele>648.8</ele><time>2013-11-22T10:34:44.0000000+00:00</time></trkpt><trkpt lat="30.69962311" lon="34.95132828"><ele>648.8</ele><time>2013-11-22T10:34:49.0000000+00:00</time></trkpt><trkpt lat="30.69962502" lon="34.95132828"><ele>648.9</ele><time>2013-11-22T10:34:54.0000000+00:00</time></trkpt><trkpt lat="30.69962502" lon="34.95132828"><ele>648.9</ele><time>2013-11-22T10:34:59.0000000+00:00</time></trkpt><trkpt lat="30.69962502" lon="34.95132828"><ele>648.9</ele><time>2013-11-22T10:35:04.0000000+00:00</time></trkpt><trkpt lat="30.69962502" lon="34.95132828"><ele>648.9</ele><time>2013-11-22T10:35:09.0000000+00:00</time></trkpt><trkpt lat="30.69962502" lon="34.95132828"><ele>649.0</ele><time>2013-11-22T10:35:14.0000000+00:00</time></trkpt><trkpt lat="30.69962502" lon="34.95132828"><ele>649.0</ele><time>2013-11-22T10:35:19.0000000+00:00</time></trkpt><trkpt lat="30.69962502" lon="34.95132828"><ele>649.0</ele><time>2013-11-22T10:35:24.0000000+00:00</time></trkpt><trkpt lat="30.69962502" lon="34.95132828"><ele>649.0</ele><time>2013-11-22T10:35:29.0000000+00:00</time></trkpt><trkpt lat="30.69962502" lon="34.95132828"><ele>649.0</ele><time>2013-11-22T10:35:34.0000000+00:00</time></trkpt><trkpt lat="30.69962502" lon="34.95132828"><ele>649.0</ele><time>2013-11-22T10:35:39.0000000+00:00</time></trkpt><trkpt lat="30.69962502" lon="34.95132828"><ele>649.1</ele><time>2013-11-22T10:35:44.0000000+00:00</time></trkpt><trkpt lat="30.69962502" lon="34.95132828"><ele>649.1</ele><time>2013-11-22T10:35:49.0000000+00:00</time></trkpt><trkpt lat="30.69962502" lon="34.95132828"><ele>649.1</ele><time>2013-11-22T10:35:54.0000000+00:00</time></trkpt><trkpt lat="30.69962502" lon="34.95132828"><ele>649.1</ele><time>2013-11-22T10:35:59.0000000+00:00</time></trkpt><trkpt lat="30.69962692" lon="34.95132828"><ele>649.1</ele><time>2013-11-22T10:36:04.0000000+00:00</time></trkpt><trkpt lat="30.69962692" lon="34.95132828"><ele>649.2</ele><time>2013-11-22T10:36:09.0000000+00:00</time></trkpt><trkpt lat="30.69962692" lon="34.95132828"><ele>649.2</ele><time>2013-11-22T10:36:14.0000000+00:00</time></trkpt><trkpt lat="30.69962692" lon="34.95132828"><ele>649.2</ele><time>2013-11-22T10:36:19.0000000+00:00</time></trkpt><trkpt lat="30.69962692" lon="34.95132828"><ele>649.2</ele><time>2013-11-22T10:36:24.0000000+00:00</time></trkpt><trkpt lat="30.69962692" lon="34.95132828"><ele>649.3</ele><time>2013-11-22T10:36:29.0000000+00:00</time></trkpt><trkpt lat="30.69962692" lon="34.95132828"><ele>649.3</ele><time>2013-11-22T10:36:34.0000000+00:00</time></trkpt><trkpt lat="30.69962692" lon="34.95132828"><ele>649.3</ele><time>2013-11-22T10:36:39.0000000+00:00</time></trkpt><trkpt lat="30.69962692" lon="34.95132828"><ele>649.3</ele><time>2013-11-22T10:36:44.0000000+00:00</time></trkpt><trkpt lat="30.69962692" lon="34.95132828"><ele>649.3</ele><time>2013-11-22T10:36:49.0000000+00:00</time></trkpt><trkpt lat="30.69962692" lon="34.95132828"><ele>649.4</ele><time>2013-11-22T10:36:54.0000000+00:00</time></trkpt><trkpt lat="30.69962692" lon="34.95132828"><ele>649.4</ele><time>2013-11-22T10:36:59.0000000+00:00</time></trkpt><trkpt lat="30.69962883" lon="34.95132828"><ele>649.4</ele><time>2013-11-22T10:37:04.0000000+00:00</time></trkpt><trkpt lat="30.69962883" lon="34.95132828"><ele>649.5</ele><time>2013-11-22T10:37:09.0000000+00:00</time></trkpt><trkpt lat="30.69962883" lon="34.95132828"><ele>649.5</ele><time>2013-11-22T10:37:14.0000000+00:00</time></trkpt><trkpt lat="30.69962883" lon="34.95132828"><ele>649.5</ele><time>2013-11-22T10:37:19.0000000+00:00</time></trkpt><trkpt lat="30.69962883" lon="34.95132828"><ele>649.5</ele><time>2013-11-22T10:37:24.0000000+00:00</time></trkpt><trkpt lat="30.69962883" lon="34.95132828"><ele>649.5</ele><time>2013-11-22T10:37:29.0000000+00:00</time></trkpt><trkpt lat="30.69962883" lon="34.95132828"><ele>649.5</ele><time>2013-11-22T10:37:34.0000000+00:00</time></trkpt><trkpt lat="30.69962883" lon="34.95132828"><ele>649.6</ele><time>2013-11-22T10:37:39.0000000+00:00</time></trkpt><trkpt lat="30.69962883" lon="34.95132828"><ele>649.6</ele><time>2013-11-22T10:37:44.0000000+00:00</time></trkpt><trkpt lat="30.69962883" lon="34.95132828"><ele>649.6</ele><time>2013-11-22T10:37:49.0000000+00:00</time></trkpt><trkpt lat="30.69962883" lon="34.95132828"><ele>649.7</ele><time>2013-11-22T10:37:54.0000000+00:00</time></trkpt><trkpt lat="30.69963074" lon="34.95132828"><ele>649.7</ele><time>2013-11-22T10:37:59.0000000+00:00</time></trkpt><trkpt lat="30.69963074" lon="34.95132828"><ele>649.7</ele><time>2013-11-22T10:38:04.0000000+00:00</time></trkpt><trkpt lat="30.69963074" lon="34.95132828"><ele>649.7</ele><time>2013-11-22T10:38:09.0000000+00:00</time></trkpt><trkpt lat="30.69963074" lon="34.95132828"><ele>649.8</ele><time>2013-11-22T10:38:14.0000000+00:00</time></trkpt><trkpt lat="30.69963074" lon="34.95132828"><ele>649.8</ele><time>2013-11-22T10:38:19.0000000+00:00</time></trkpt><trkpt lat="30.69963074" lon="34.95132828"><ele>649.8</ele><time>2013-11-22T10:38:24.0000000+00:00</time></trkpt><trkpt lat="30.69963074" lon="34.95132828"><ele>649.9</ele><time>2013-11-22T10:38:29.0000000+00:00</time></trkpt><trkpt lat="30.69963074" lon="34.95132828"><ele>649.9</ele><time>2013-11-22T10:38:34.0000000+00:00</time></trkpt><trkpt lat="30.69963074" lon="34.95132828"><ele>649.9</ele><time>2013-11-22T10:38:39.0000000+00:00</time></trkpt><trkpt lat="30.69963074" lon="34.95132828"><ele>649.9</ele><time>2013-11-22T10:38:44.0000000+00:00</time></trkpt><trkpt lat="30.69963074" lon="34.95132828"><ele>649.9</ele><time>2013-11-22T10:38:49.0000000+00:00</time></trkpt><trkpt lat="30.69963074" lon="34.95132828"><ele>649.9</ele><time>2013-11-22T10:38:54.0000000+00:00</time></trkpt><trkpt lat="30.69963074" lon="34.95132828"><ele>649.9</ele><time>2013-11-22T10:38:59.0000000+00:00</time></trkpt><trkpt lat="30.69963265" lon="34.95132828"><ele>649.9</ele><time>2013-11-22T10:39:04.0000000+00:00</time></trkpt><trkpt lat="30.69963074" lon="34.95132828"><ele>649.9</ele><time>2013-11-22T10:39:09.0000000+00:00</time></trkpt><trkpt lat="30.69963265" lon="34.95132828"><ele>649.9</ele><time>2013-11-22T10:39:14.0000000+00:00</time></trkpt><trkpt lat="30.69963265" lon="34.95132828"><ele>650.0</ele><time>2013-11-22T10:39:19.0000000+00:00</time></trkpt><trkpt lat="30.69963265" lon="34.95132828"><ele>650.0</ele><time>2013-11-22T10:39:24.0000000+00:00</time></trkpt><trkpt lat="30.69963265" lon="34.95132828"><ele>650.0</ele><time>2013-11-22T10:39:29.0000000+00:00</time></trkpt><trkpt lat="30.69963265" lon="34.95132828"><ele>650.0</ele><time>2013-11-22T10:39:34.0000000+00:00</time></trkpt><trkpt lat="30.69963265" lon="34.95132828"><ele>650.0</ele><time>2013-11-22T10:39:39.0000000+00:00</time></trkpt><trkpt lat="30.69963265" lon="34.95132828"><ele>650.0</ele><time>2013-11-22T10:39:44.0000000+00:00</time></trkpt><trkpt lat="30.69963265" lon="34.95132828"><ele>650.0</ele><time>2013-11-22T10:39:49.0000000+00:00</time></trkpt><trkpt lat="30.69963265" lon="34.95132828"><ele>650.0</ele><time>2013-11-22T10:39:54.0000000+00:00</time></trkpt><trkpt lat="30.69963265" lon="34.95132828"><ele>650.0</ele><time>2013-11-22T10:39:59.0000000+00:00</time></trkpt><trkpt lat="30.69963265" lon="34.95132828"><ele>650.0</ele><time>2013-11-22T10:40:04.0000000+00:00</time></trkpt><trkpt lat="30.69963265" lon="34.95132828"><ele>650.0</ele><time>2013-11-22T10:40:09.0000000+00:00</time></trkpt><trkpt lat="30.69963265" lon="34.95132828"><ele>650.0</ele><time>2013-11-22T10:40:14.0000000+00:00</time></trkpt><trkpt lat="30.69963265" lon="34.95132828"><ele>650.0</ele><time>2013-11-22T10:40:19.0000000+00:00</time></trkpt><trkpt lat="30.69963265" lon="34.95132828"><ele>650.0</ele><time>2013-11-22T10:40:24.0000000+00:00</time></trkpt><trkpt lat="30.69963265" lon="34.95132828"><ele>650.0</ele><time>2013-11-22T10:40:29.0000000+00:00</time></trkpt><trkpt lat="30.69963265" lon="34.95132828"><ele>650.0</ele><time>2013-11-22T10:40:34.0000000+00:00</time></trkpt><trkpt lat="30.69963265" lon="34.95132828"><ele>650.0</ele><time>2013-11-22T10:40:39.0000000+00:00</time></trkpt><trkpt lat="30.69963265" lon="34.95132828"><ele>650.0</ele><time>2013-11-22T10:40:44.0000000+00:00</time></trkpt><trkpt lat="30.69963265" lon="34.95132828"><ele>650.0</ele><time>2013-11-22T10:40:49.0000000+00:00</time></trkpt><trkpt lat="30.69963265" lon="34.95132828"><ele>650.1</ele><time>2013-11-22T10:40:54.0000000+00:00</time></trkpt><trkpt lat="30.69963265" lon="34.95132828"><ele>650.0</ele><time>2013-11-22T10:40:59.0000000+00:00</time></trkpt><trkpt lat="30.69963265" lon="34.95132828"><ele>650.0</ele><time>2013-11-22T10:41:04.0000000+00:00</time></trkpt><trkpt lat="30.69963265" lon="34.95132828"><ele>650.0</ele><time>2013-11-22T10:41:09.0000000+00:00</time></trkpt><trkpt lat="30.69963265" lon="34.95132828"><ele>650.0</ele><time>2013-11-22T10:41:14.0000000+00:00</time></trkpt><trkpt lat="30.69963265" lon="34.95132828"><ele>650.0</ele><time>2013-11-22T10:41:19.0000000+00:00</time></trkpt><trkpt lat="30.69963265" lon="34.95132828"><ele>650.0</ele><time>2013-11-22T10:41:24.0000000+00:00</time></trkpt><trkpt lat="30.69963265" lon="34.95132828"><ele>650.0</ele><time>2013-11-22T10:41:29.0000000+00:00</time></trkpt><trkpt lat="30.69963265" lon="34.95132828"><ele>650.0</ele><time>2013-11-22T10:41:34.0000000+00:00</time></trkpt><trkpt lat="30.69963265" lon="34.95132828"><ele>650.0</ele><time>2013-11-22T10:41:39.0000000+00:00</time></trkpt><trkpt lat="30.69963265" lon="34.95132828"><ele>650.0</ele><time>2013-11-22T10:41:44.0000000+00:00</time></trkpt><trkpt lat="30.69963265" lon="34.95132828"><ele>650.1</ele><time>2013-11-22T10:41:49.0000000+00:00</time></trkpt><trkpt lat="30.69963265" lon="34.95132828"><ele>650.1</ele><time>2013-11-22T10:41:54.0000000+00:00</time></trkpt><trkpt lat="30.69963265" lon="34.95132828"><ele>650.0</ele><time>2013-11-22T10:41:59.0000000+00:00</time></trkpt><trkpt lat="30.69963265" lon="34.95132828"><ele>650.1</ele><time>2013-11-22T10:42:04.0000000+00:00</time></trkpt><trkpt lat="30.69963265" lon="34.95132828"><ele>650.0</ele><time>2013-11-22T10:42:09.0000000+00:00</time></trkpt><trkpt lat="30.69963265" lon="34.95132828"><ele>650.0</ele><time>2013-11-22T10:42:14.0000000+00:00</time></trkpt><trkpt lat="30.69963265" lon="34.95132828"><ele>650.1</ele><time>2013-11-22T10:42:19.0000000+00:00</time></trkpt><trkpt lat="30.69963265" lon="34.95132828"><ele>650.1</ele><time>2013-11-22T10:42:24.0000000+00:00</time></trkpt><trkpt lat="30.69963265" lon="34.95132828"><ele>650.0</ele><time>2013-11-22T10:42:29.0000000+00:00</time></trkpt><trkpt lat="30.69963265" lon="34.95133209"><ele>650.0</ele><time>2013-11-22T10:42:34.0000000+00:00</time></trkpt><trkpt lat="30.69963265" lon="34.95133209"><ele>650.0</ele><time>2013-11-22T10:42:39.0000000+00:00</time></trkpt><trkpt lat="30.69963265" lon="34.95133209"><ele>650.0</ele><time>2013-11-22T10:42:44.0000000+00:00</time></trkpt><trkpt lat="30.69963265" lon="34.95133209"><ele>650.0</ele><time>2013-11-22T10:42:49.0000000+00:00</time></trkpt><trkpt lat="30.69963265" lon="34.95133209"><ele>650.0</ele><time>2013-11-22T10:42:54.0000000+00:00</time></trkpt><trkpt lat="30.69963265" lon="34.95133209"><ele>650.1</ele><time>2013-11-22T10:42:59.0000000+00:00</time></trkpt><trkpt lat="30.69963265" lon="34.95133209"><ele>650.1</ele><time>2013-11-22T10:43:04.0000000+00:00</time></trkpt><trkpt lat="30.69963265" lon="34.95133209"><ele>650.1</ele><time>2013-11-22T10:43:09.0000000+00:00</time></trkpt><trkpt lat="30.69963265" lon="34.95133209"><ele>650.1</ele><time>2013-11-22T10:43:14.0000000+00:00</time></trkpt><trkpt lat="30.69963265" lon="34.95133209"><ele>650.1</ele><time>2013-11-22T10:43:19.0000000+00:00</time></trkpt><trkpt lat="30.69963265" lon="34.95133209"><ele>650.1</ele><time>2013-11-22T10:43:24.0000000+00:00</time></trkpt><trkpt lat="30.69963265" lon="34.95133209"><ele>650.1</ele><time>2013-11-22T10:43:29.0000000+00:00</time></trkpt><trkpt lat="30.69963265" lon="34.95133209"><ele>650.1</ele><time>2013-11-22T10:43:34.0000000+00:00</time></trkpt><trkpt lat="30.69963265" lon="34.95133209"><ele>650.1</ele><time>2013-11-22T10:43:39.0000000+00:00</time></trkpt><trkpt lat="30.69963265" lon="34.95133209"><ele>650.1</ele><time>2013-11-22T10:43:44.0000000+00:00</time></trkpt><trkpt lat="30.69963265" lon="34.95133209"><ele>650.1</ele><time>2013-11-22T10:43:49.0000000+00:00</time></trkpt><trkpt lat="30.69963265" lon="34.95133209"><ele>650.2</ele><time>2013-11-22T10:43:54.0000000+00:00</time></trkpt><trkpt lat="30.69963265" lon="34.95133209"><ele>650.2</ele><time>2013-11-22T10:43:59.0000000+00:00</time></trkpt><trkpt lat="30.69963265" lon="34.95133209"><ele>650.2</ele><time>2013-11-22T10:44:04.0000000+00:00</time></trkpt><trkpt lat="30.69963265" lon="34.95133209"><ele>650.2</ele><time>2013-11-22T10:44:09.0000000+00:00</time></trkpt><trkpt lat="30.69963265" lon="34.95133209"><ele>650.2</ele><time>2013-11-22T10:44:14.0000000+00:00</time></trkpt><trkpt lat="30.69963265" lon="34.95133209"><ele>650.2</ele><time>2013-11-22T10:44:19.0000000+00:00</time></trkpt><trkpt lat="30.69963265" lon="34.95133209"><ele>650.2</ele><time>2013-11-22T10:44:24.0000000+00:00</time></trkpt><trkpt lat="30.69963265" lon="34.95133209"><ele>650.2</ele><time>2013-11-22T10:44:29.0000000+00:00</time></trkpt><trkpt lat="30.69963455" lon="34.95133209"><ele>650.2</ele><time>2013-11-22T10:44:34.0000000+00:00</time></trkpt><trkpt lat="30.69963455" lon="34.95133209"><ele>650.2</ele><time>2013-11-22T10:44:39.0000000+00:00</time></trkpt><trkpt lat="30.69963265" lon="34.95133209"><ele>650.2</ele><time>2013-11-22T10:44:44.0000000+00:00</time></trkpt><trkpt lat="30.69963265" lon="34.95133209"><ele>650.2</ele><time>2013-11-22T10:44:49.0000000+00:00</time></trkpt><trkpt lat="30.69963265" lon="34.95133209"><ele>650.2</ele><time>2013-11-22T10:44:54.0000000+00:00</time></trkpt><trkpt lat="30.69963455" lon="34.95133209"><ele>650.2</ele><time>2013-11-22T10:44:59.0000000+00:00</time></trkpt><trkpt lat="30.69963455" lon="34.95133209"><ele>650.3</ele><time>2013-11-22T10:45:04.0000000+00:00</time></trkpt><trkpt lat="30.69963455" lon="34.95133209"><ele>650.3</ele><time>2013-11-22T10:45:09.0000000+00:00</time></trkpt><trkpt lat="30.69963455" lon="34.95133209"><ele>650.3</ele><time>2013-11-22T10:45:14.0000000+00:00</time></trkpt><trkpt lat="30.69963455" lon="34.95133209"><ele>650.3</ele><time>2013-11-22T10:45:19.0000000+00:00</time></trkpt><trkpt lat="30.69963455" lon="34.95133209"><ele>650.3</ele><time>2013-11-22T10:45:24.0000000+00:00</time></trkpt><trkpt lat="30.69963455" lon="34.95133209"><ele>650.3</ele><time>2013-11-22T10:45:29.0000000+00:00</time></trkpt><trkpt lat="30.69963455" lon="34.95133209"><ele>650.3</ele><time>2013-11-22T10:45:34.0000000+00:00</time></trkpt><trkpt lat="30.69963455" lon="34.95133209"><ele>650.3</ele><time>2013-11-22T10:45:39.0000000+00:00</time></trkpt><trkpt lat="30.69963455" lon="34.95133209"><ele>650.3</ele><time>2013-11-22T10:45:44.0000000+00:00</time></trkpt><trkpt lat="30.69963455" lon="34.95133209"><ele>650.3</ele><time>2013-11-22T10:45:49.0000000+00:00</time></trkpt><trkpt lat="30.69963455" lon="34.95133209"><ele>650.3</ele><time>2013-11-22T10:45:54.0000000+00:00</time></trkpt><trkpt lat="30.69963455" lon="34.95133209"><ele>650.3</ele><time>2013-11-22T10:45:59.0000000+00:00</time></trkpt><trkpt lat="30.69963455" lon="34.95133209"><ele>650.3</ele><time>2013-11-22T10:46:04.0000000+00:00</time></trkpt><trkpt lat="30.69963455" lon="34.95133209"><ele>650.3</ele><time>2013-11-22T10:46:09.0000000+00:00</time></trkpt><trkpt lat="30.69963265" lon="34.95133209"><ele>650.3</ele><time>2013-11-22T10:46:14.0000000+00:00</time></trkpt><trkpt lat="30.69963265" lon="34.95133209"><ele>650.3</ele><time>2013-11-22T10:46:19.0000000+00:00</time></trkpt><trkpt lat="30.69963265" lon="34.95133209"><ele>650.3</ele><time>2013-11-22T10:46:24.0000000+00:00</time></trkpt><trkpt lat="30.69963265" lon="34.95133209"><ele>650.3</ele><time>2013-11-22T10:46:29.0000000+00:00</time></trkpt><trkpt lat="30.69963265" lon="34.95133209"><ele>650.3</ele><time>2013-11-22T10:46:34.0000000+00:00</time></trkpt><trkpt lat="30.69963265" lon="34.95133209"><ele>650.3</ele><time>2013-11-22T10:46:39.0000000+00:00</time></trkpt><trkpt lat="30.69963265" lon="34.95133209"><ele>650.4</ele><time>2013-11-22T10:46:44.0000000+00:00</time></trkpt><trkpt lat="30.69963265" lon="34.95133209"><ele>650.4</ele><time>2013-11-22T10:46:49.0000000+00:00</time></trkpt><trkpt lat="30.69963265" lon="34.95133209"><ele>650.4</ele><time>2013-11-22T10:46:54.0000000+00:00</time></trkpt><trkpt lat="30.69963265" lon="34.95133209"><ele>650.4</ele><time>2013-11-22T10:46:59.0000000+00:00</time></trkpt><trkpt lat="30.69963265" lon="34.95133209"><ele>650.4</ele><time>2013-11-22T10:47:04.0000000+00:00</time></trkpt><trkpt lat="30.69963265" lon="34.95133209"><ele>650.4</ele><time>2013-11-22T10:47:09.0000000+00:00</time></trkpt><trkpt lat="30.69963265" lon="34.95133209"><ele>650.4</ele><time>2013-11-22T10:47:14.0000000+00:00</time></trkpt><trkpt lat="30.69963265" lon="34.95133209"><ele>650.4</ele><time>2013-11-22T10:47:19.0000000+00:00</time></trkpt><trkpt lat="30.69963265" lon="34.95133209"><ele>650.4</ele><time>2013-11-22T10:47:24.0000000+00:00</time></trkpt><trkpt lat="30.69963265" lon="34.95133209"><ele>650.4</ele><time>2013-11-22T10:47:29.0000000+00:00</time></trkpt><trkpt lat="30.69963265" lon="34.95133209"><ele>650.4</ele><time>2013-11-22T10:47:34.0000000+00:00</time></trkpt><trkpt lat="30.69963265" lon="34.95133209"><ele>650.4</ele><time>2013-11-22T10:47:39.0000000+00:00</time></trkpt><trkpt lat="30.69963074" lon="34.95135117"><ele>651.2</ele><time>2013-11-22T10:47:44.0000000+00:00</time></trkpt><trkpt lat="30.69963074" lon="34.9513588"><ele>652.1</ele><time>2013-11-22T10:47:49.0000000+00:00</time></trkpt><trkpt lat="30.69963074" lon="34.95136643"><ele>652.8</ele><time>2013-11-22T10:47:54.0000000+00:00</time></trkpt><trkpt lat="30.69963265" lon="34.95137405"><ele>653.4</ele><time>2013-11-22T10:47:59.0000000+00:00</time></trkpt><trkpt lat="30.69963265" lon="34.95138168"><ele>654.1</ele><time>2013-11-22T10:48:04.0000000+00:00</time></trkpt><trkpt lat="30.69963455" lon="34.95138931"><ele>654.7</ele><time>2013-11-22T10:48:09.0000000+00:00</time></trkpt><trkpt lat="30.69963646" lon="34.95139694"><ele>655.3</ele><time>2013-11-22T10:48:14.0000000+00:00</time></trkpt><trkpt lat="30.69963837" lon="34.95140076"><ele>655.8</ele><time>2013-11-22T10:48:19.0000000+00:00</time></trkpt><trkpt lat="30.69964027" lon="34.95140457"><ele>656.4</ele><time>2013-11-22T10:48:24.0000000+00:00</time></trkpt><trkpt lat="30.69963837" lon="34.95140457"><ele>657.0</ele><time>2013-11-22T10:48:29.0000000+00:00</time></trkpt><trkpt lat="30.69963837" lon="34.95140839"><ele>657.5</ele><time>2013-11-22T10:48:34.0000000+00:00</time></trkpt><trkpt lat="30.69963837" lon="34.95140839"><ele>657.9</ele><time>2013-11-22T10:48:39.0000000+00:00</time></trkpt><trkpt lat="30.69963837" lon="34.95140839"><ele>658.2</ele><time>2013-11-22T10:48:44.0000000+00:00</time></trkpt><trkpt lat="30.69963837" lon="34.95140839"><ele>658.2</ele><time>2013-11-22T10:48:49.0000000+00:00</time></trkpt><trkpt lat="30.69963837" lon="34.95140839"><ele>658.1</ele><time>2013-11-22T10:48:54.0000000+00:00</time></trkpt><trkpt lat="30.69963837" lon="34.95140839"><ele>658.1</ele><time>2013-11-22T10:48:59.0000000+00:00</time></trkpt><trkpt lat="30.69963837" lon="34.95140839"><ele>658.1</ele><time>2013-11-22T10:49:04.0000000+00:00</time></trkpt><trkpt lat="30.69963837" lon="34.95140839"><ele>658.0</ele><time>2013-11-22T10:49:09.0000000+00:00</time></trkpt><trkpt lat="30.69963837" lon="34.95140839"><ele>658.0</ele><time>2013-11-22T10:49:14.0000000+00:00</time></trkpt><trkpt lat="30.69963837" lon="34.95140839"><ele>658.0</ele><time>2013-11-22T10:49:19.0000000+00:00</time></trkpt><trkpt lat="30.69963837" lon="34.95140839"><ele>657.9</ele><time>2013-11-22T10:49:24.0000000+00:00</time></trkpt><trkpt lat="30.69963837" lon="34.95140839"><ele>657.9</ele><time>2013-11-22T10:49:29.0000000+00:00</time></trkpt><trkpt lat="30.69963837" lon="34.95140839"><ele>657.9</ele><time>2013-11-22T10:49:34.0000000+00:00</time></trkpt><trkpt lat="30.69963837" lon="34.95140839"><ele>657.9</ele><time>2013-11-22T10:49:39.0000000+00:00</time></trkpt><trkpt lat="30.69963837" lon="34.95140839"><ele>657.8</ele><time>2013-11-22T10:49:44.0000000+00:00</time></trkpt><trkpt lat="30.69963837" lon="34.95140839"><ele>657.8</ele><time>2013-11-22T10:49:49.0000000+00:00</time></trkpt><trkpt lat="30.69963837" lon="34.95140457"><ele>657.8</ele><time>2013-11-22T10:49:54.0000000+00:00</time></trkpt><trkpt lat="30.69963837" lon="34.95140457"><ele>657.7</ele><time>2013-11-22T10:49:59.0000000+00:00</time></trkpt><trkpt lat="30.69963837" lon="34.95140457"><ele>657.7</ele><time>2013-11-22T10:50:04.0000000+00:00</time></trkpt><trkpt lat="30.69963837" lon="34.95140457"><ele>657.7</ele><time>2013-11-22T10:50:09.0000000+00:00</time></trkpt><trkpt lat="30.69963837" lon="34.95140457"><ele>657.7</ele><time>2013-11-22T10:50:14.0000000+00:00</time></trkpt><trkpt lat="30.69963837" lon="34.95140457"><ele>657.6</ele><time>2013-11-22T10:50:19.0000000+00:00</time></trkpt><trkpt lat="30.69963837" lon="34.95140457"><ele>657.6</ele><time>2013-11-22T10:50:24.0000000+00:00</time></trkpt><trkpt lat="30.69963837" lon="34.95140457"><ele>657.6</ele><time>2013-11-22T10:50:29.0000000+00:00</time></trkpt><trkpt lat="30.69963837" lon="34.95140457"><ele>657.6</ele><time>2013-11-22T10:50:34.0000000+00:00</time></trkpt><trkpt lat="30.69963837" lon="34.95140457"><ele>657.6</ele><time>2013-11-22T10:50:39.0000000+00:00</time></trkpt><trkpt lat="30.69964027" lon="34.95140457"><ele>657.6</ele><time>2013-11-22T10:50:44.0000000+00:00</time></trkpt><trkpt lat="30.69963837" lon="34.95140457"><ele>657.6</ele><time>2013-11-22T10:50:49.0000000+00:00</time></trkpt><trkpt lat="30.69964027" lon="34.95140076"><ele>657.6</ele><time>2013-11-22T10:50:54.0000000+00:00</time></trkpt><trkpt lat="30.69964027" lon="34.95139694"><ele>657.5</ele><time>2013-11-22T10:50:59.0000000+00:00</time></trkpt><trkpt lat="30.69964027" lon="34.95139694"><ele>657.5</ele><time>2013-11-22T10:51:04.0000000+00:00</time></trkpt><trkpt lat="30.69964027" lon="34.95139694"><ele>657.5</ele><time>2013-11-22T10:51:09.0000000+00:00</time></trkpt><trkpt lat="30.69964027" lon="34.95139694"><ele>657.5</ele><time>2013-11-22T10:51:14.0000000+00:00</time></trkpt><trkpt lat="30.69964027" lon="34.95138931"><ele>657.4</ele><time>2013-11-22T10:51:19.0000000+00:00</time></trkpt><trkpt lat="30.69963646" lon="34.9513855"><ele>657.8</ele><time>2013-11-22T10:51:24.0000000+00:00</time></trkpt><trkpt lat="30.69963455" lon="34.95139313"><ele>658.0</ele><time>2013-11-22T10:51:29.0000000+00:00</time></trkpt><trkpt lat="30.69963265" lon="34.95139313"><ele>658.3</ele><time>2013-11-22T10:51:34.0000000+00:00</time></trkpt><trkpt lat="30.69963455" lon="34.95139313"><ele>658.5</ele><time>2013-11-22T10:51:39.0000000+00:00</time></trkpt><trkpt lat="30.69964218" lon="34.95138931"><ele>658.4</ele><time>2013-11-22T10:51:44.0000000+00:00</time></trkpt><trkpt lat="30.69963837" lon="34.95138931"><ele>658.1</ele><time>2013-11-22T10:51:49.0000000+00:00</time></trkpt><trkpt lat="30.69963646" lon="34.95138931"><ele>658.1</ele><time>2013-11-22T10:51:54.0000000+00:00</time></trkpt><trkpt lat="30.69963646" lon="34.95138931"><ele>658.0</ele><time>2013-11-22T10:51:59.0000000+00:00</time></trkpt><trkpt lat="30.69963837" lon="34.95138931"><ele>658.0</ele><time>2013-11-22T10:52:04.0000000+00:00</time></trkpt><trkpt lat="30.69963837" lon="34.95138931"><ele>658.0</ele><time>2013-11-22T10:52:09.0000000+00:00</time></trkpt><trkpt lat="30.69963837" lon="34.95138931"><ele>658.0</ele><time>2013-11-22T10:52:14.0000000+00:00</time></trkpt><trkpt lat="30.69963837" lon="34.95138931"><ele>658.0</ele><time>2013-11-22T10:52:19.0000000+00:00</time></trkpt><trkpt lat="30.69964027" lon="34.95138931"><ele>658.1</ele><time>2013-11-22T10:52:24.0000000+00:00</time></trkpt><trkpt lat="30.69964027" lon="34.95138931"><ele>658.0</ele><time>2013-11-22T10:52:29.0000000+00:00</time></trkpt><trkpt lat="30.69964027" lon="34.95138931"><ele>658.0</ele><time>2013-11-22T10:52:34.0000000+00:00</time></trkpt><trkpt lat="30.69964027" lon="34.95138931"><ele>658.0</ele><time>2013-11-22T10:52:39.0000000+00:00</time></trkpt><trkpt lat="30.69964027" lon="34.95138931"><ele>658.0</ele><time>2013-11-22T10:52:44.0000000+00:00</time></trkpt><trkpt lat="30.69964027" lon="34.95138931"><ele>658.0</ele><time>2013-11-22T10:52:49.0000000+00:00</time></trkpt><trkpt lat="30.69964027" lon="34.95138931"><ele>658.0</ele><time>2013-11-22T10:52:54.0000000+00:00</time></trkpt><trkpt lat="30.69964027" lon="34.95138931"><ele>658.0</ele><time>2013-11-22T10:52:59.0000000+00:00</time></trkpt><trkpt lat="30.69963646" lon="34.95137787"><ele>657.8</ele><time>2013-11-22T10:53:04.0000000+00:00</time></trkpt><trkpt lat="30.69963074" lon="34.9513588"><ele>657.3</ele><time>2013-11-22T10:53:09.0000000+00:00</time></trkpt><trkpt lat="30.69959259" lon="34.95134354"><ele>656.2</ele><time>2013-11-22T10:53:14.0000000+00:00</time></trkpt><trkpt lat="30.69958878" lon="34.9513588"><ele>655.1</ele><time>2013-11-22T10:53:19.0000000+00:00</time></trkpt><trkpt lat="30.69958687" lon="34.9513588"><ele>655.3</ele><time>2013-11-22T10:53:24.0000000+00:00</time></trkpt><trkpt lat="30.69958687" lon="34.95138168"><ele>655.6</ele><time>2013-11-22T10:53:29.0000000+00:00</time></trkpt><trkpt lat="30.69958496" lon="34.95138168"><ele>656.0</ele><time>2013-11-22T10:53:34.0000000+00:00</time></trkpt><trkpt lat="30.69958115" lon="34.95137787"><ele>656.3</ele><time>2013-11-22T10:53:39.0000000+00:00</time></trkpt><trkpt lat="30.69958115" lon="34.95137787"><ele>656.4</ele><time>2013-11-22T10:53:44.0000000+00:00</time></trkpt><trkpt lat="30.69958115" lon="34.9513855"><ele>656.5</ele><time>2013-11-22T10:53:49.0000000+00:00</time></trkpt><trkpt lat="30.69957924" lon="34.95150375"><ele>655.0</ele><time>2013-11-22T10:53:54.0000000+00:00</time></trkpt><trkpt lat="30.69957161" lon="34.95165253"><ele>653.9</ele><time>2013-11-22T10:53:59.0000000+00:00</time></trkpt><trkpt lat="30.69954491" lon="34.95183182"><ele>653.2</ele><time>2013-11-22T10:54:04.0000000+00:00</time></trkpt><trkpt lat="30.69952393" lon="34.95196915"><ele>653.0</ele><time>2013-11-22T10:54:09.0000000+00:00</time></trkpt><trkpt lat="30.69952011" lon="34.95199585"><ele>652.9</ele><time>2013-11-22T10:54:14.0000000+00:00</time></trkpt><trkpt lat="30.69952202" lon="34.95199585"><ele>652.9</ele><time>2013-11-22T10:54:19.0000000+00:00</time></trkpt><trkpt lat="30.69952011" lon="34.95199585"><ele>653.0</ele><time>2013-11-22T10:54:24.0000000+00:00</time></trkpt><trkpt lat="30.69952011" lon="34.95199585"><ele>653.0</ele><time>2013-11-22T10:54:29.0000000+00:00</time></trkpt><trkpt lat="30.69952202" lon="34.95199204"><ele>652.9</ele><time>2013-11-22T10:54:34.0000000+00:00</time></trkpt><trkpt lat="30.69952202" lon="34.95199204"><ele>652.9</ele><time>2013-11-22T10:54:39.0000000+00:00</time></trkpt><trkpt lat="30.69952202" lon="34.95199204"><ele>652.9</ele><time>2013-11-22T10:54:44.0000000+00:00</time></trkpt><trkpt lat="30.69952202" lon="34.95199204"><ele>652.9</ele><time>2013-11-22T10:54:49.0000000+00:00</time></trkpt><trkpt lat="30.69952202" lon="34.95199204"><ele>652.8</ele><time>2013-11-22T10:54:54.0000000+00:00</time></trkpt><trkpt lat="30.69952202" lon="34.95199204"><ele>652.8</ele><time>2013-11-22T10:54:59.0000000+00:00</time></trkpt><trkpt lat="30.69948578" lon="34.95207214"><ele>652.8</ele><time>2013-11-22T10:55:04.0000000+00:00</time></trkpt><trkpt lat="30.69942665" lon="34.95220947"><ele>652.2</ele><time>2013-11-22T10:55:09.0000000+00:00</time></trkpt><trkpt lat="30.69933891" lon="34.95230866"><ele>651.7</ele><time>2013-11-22T10:55:14.0000000+00:00</time></trkpt><trkpt lat="30.69932175" lon="34.95233154"><ele>651.3</ele><time>2013-11-22T10:55:19.0000000+00:00</time></trkpt><trkpt lat="30.6993084" lon="34.9523468"><ele>651.3</ele><time>2013-11-22T10:55:24.0000000+00:00</time></trkpt><trkpt lat="30.69923401" lon="34.95246887"><ele>650.0</ele><time>2013-11-22T10:55:29.0000000+00:00</time></trkpt><trkpt lat="30.69913864" lon="34.95260239"><ele>649.2</ele><time>2013-11-22T10:55:34.0000000+00:00</time></trkpt><trkpt lat="30.69903755" lon="34.95272446"><ele>648.1</ele><time>2013-11-22T10:55:39.0000000+00:00</time></trkpt><trkpt lat="30.69893837" lon="34.95283508"><ele>646.1</ele><time>2013-11-22T10:55:44.0000000+00:00</time></trkpt><trkpt lat="30.69887161" lon="34.95301819"><ele>642.9</ele><time>2013-11-22T10:55:49.0000000+00:00</time></trkpt><trkpt lat="30.69888306" lon="34.9532547"><ele>639.5</ele><time>2013-11-22T10:55:54.0000000+00:00</time></trkpt><trkpt lat="30.69876289" lon="34.95342255"><ele>636.4</ele><time>2013-11-22T10:55:59.0000000+00:00</time></trkpt><trkpt lat="30.69861221" lon="34.95353317"><ele>634.3</ele><time>2013-11-22T10:56:04.0000000+00:00</time></trkpt><trkpt lat="30.69849396" lon="34.95362854"><ele>632.8</ele><time>2013-11-22T10:56:09.0000000+00:00</time></trkpt><trkpt lat="30.69836807" lon="34.9536705"><ele>632.6</ele><time>2013-11-22T10:56:14.0000000+00:00</time></trkpt><trkpt lat="30.69824219" lon="34.95371628"><ele>632.1</ele><time>2013-11-22T10:56:19.0000000+00:00</time></trkpt><trkpt lat="30.69810295" lon="34.9537468"><ele>630.1</ele><time>2013-11-22T10:56:24.0000000+00:00</time></trkpt><trkpt lat="30.69797897" lon="34.95378876"><ele>630.0</ele><time>2013-11-22T10:56:29.0000000+00:00</time></trkpt><trkpt lat="30.69786644" lon="34.95384979"><ele>628.6</ele><time>2013-11-22T10:56:34.0000000+00:00</time></trkpt><trkpt lat="30.69772148" lon="34.95392227"><ele>628.1</ele><time>2013-11-22T10:56:39.0000000+00:00</time></trkpt><trkpt lat="30.69756126" lon="34.95399857"><ele>628.2</ele><time>2013-11-22T10:56:44.0000000+00:00</time></trkpt><trkpt lat="30.6974411" lon="34.95410156"><ele>628.9</ele><time>2013-11-22T10:56:49.0000000+00:00</time></trkpt><trkpt lat="30.6973114" lon="34.95419312"><ele>627.8</ele><time>2013-11-22T10:56:54.0000000+00:00</time></trkpt><trkpt lat="30.69720078" lon="34.95420075"><ele>627.1</ele><time>2013-11-22T10:56:59.0000000+00:00</time></trkpt><trkpt lat="30.69707108" lon="34.95420075"><ele>627.3</ele><time>2013-11-22T10:57:04.0000000+00:00</time></trkpt><trkpt lat="30.69693375" lon="34.9541626"><ele>627.2</ele><time>2013-11-22T10:57:09.0000000+00:00</time></trkpt><trkpt lat="30.69678497" lon="34.95411682"><ele>628.8</ele><time>2013-11-22T10:57:14.0000000+00:00</time></trkpt><trkpt lat="30.69660187" lon="34.95409775"><ele>630.8</ele><time>2013-11-22T10:57:19.0000000+00:00</time></trkpt><trkpt lat="30.69641495" lon="34.95411301"><ele>631.0</ele><time>2013-11-22T10:57:24.0000000+00:00</time></trkpt><trkpt lat="30.69622612" lon="34.95413208"><ele>629.0</ele><time>2013-11-22T10:57:29.0000000+00:00</time></trkpt><trkpt lat="30.69606972" lon="34.95411301"><ele>626.8</ele><time>2013-11-22T10:57:34.0000000+00:00</time></trkpt><trkpt lat="30.69597435" lon="34.9540863"><ele>628.6</ele><time>2013-11-22T10:57:39.0000000+00:00</time></trkpt><trkpt lat="30.69588661" lon="34.95403671"><ele>629.8</ele><time>2013-11-22T10:57:44.0000000+00:00</time></trkpt><trkpt lat="30.69579315" lon="34.95399857"><ele>631.1</ele><time>2013-11-22T10:57:49.0000000+00:00</time></trkpt><trkpt lat="30.69571495" lon="34.95397186"><ele>632.0</ele><time>2013-11-22T10:57:54.0000000+00:00</time></trkpt><trkpt lat="30.69566536" lon="34.95393753"><ele>632.4</ele><time>2013-11-22T10:57:59.0000000+00:00</time></trkpt><trkpt lat="30.69560051" lon="34.95391464"><ele>632.0</ele><time>2013-11-22T10:58:04.0000000+00:00</time></trkpt><trkpt lat="30.69560051" lon="34.95390701"><ele>631.4</ele><time>2013-11-22T10:58:09.0000000+00:00</time></trkpt><trkpt lat="30.69553375" lon="34.9538765"><ele>630.9</ele><time>2013-11-22T10:58:14.0000000+00:00</time></trkpt><trkpt lat="30.69544983" lon="34.95380783"><ele>629.2</ele><time>2013-11-22T10:58:19.0000000+00:00</time></trkpt><trkpt lat="30.6954422" lon="34.9538002"><ele>629.1</ele><time>2013-11-22T10:58:24.0000000+00:00</time></trkpt><trkpt lat="30.6954422" lon="34.95380402"><ele>629.1</ele><time>2013-11-22T10:58:29.0000000+00:00</time></trkpt><trkpt lat="30.69542885" lon="34.95378113"><ele>628.6</ele><time>2013-11-22T10:58:34.0000000+00:00</time></trkpt><trkpt lat="30.69537163" lon="34.95372009"><ele>627.4</ele><time>2013-11-22T10:58:39.0000000+00:00</time></trkpt><trkpt lat="30.69533157" lon="34.9536705"><ele>626.7</ele><time>2013-11-22T10:58:44.0000000+00:00</time></trkpt><trkpt lat="30.69531059" lon="34.95356751"><ele>625.1</ele><time>2013-11-22T10:58:49.0000000+00:00</time></trkpt><trkpt lat="30.6953125" lon="34.9534111"><ele>621.2</ele><time>2013-11-22T10:58:54.0000000+00:00</time></trkpt><trkpt lat="30.6952858" lon="34.95314407"><ele>616.6</ele><time>2013-11-22T10:58:59.0000000+00:00</time></trkpt><trkpt lat="30.69526291" lon="34.95288467"><ele>613.3</ele><time>2013-11-22T10:59:04.0000000+00:00</time></trkpt><trkpt lat="30.69524193" lon="34.95272064"><ele>611.2</ele><time>2013-11-22T10:59:09.0000000+00:00</time></trkpt><trkpt lat="30.69524193" lon="34.95265198"><ele>609.6</ele><time>2013-11-22T10:59:14.0000000+00:00</time></trkpt><trkpt lat="30.69524193" lon="34.95256805"><ele>608.5</ele><time>2013-11-22T10:59:19.0000000+00:00</time></trkpt><trkpt lat="30.69525147" lon="34.95257568"><ele>608.5</ele><time>2013-11-22T10:59:24.0000000+00:00</time></trkpt><trkpt lat="30.69525528" lon="34.9525795"><ele>608.5</ele><time>2013-11-22T10:59:29.0000000+00:00</time></trkpt><trkpt lat="30.69524002" lon="34.95252609"><ele>608.5</ele><time>2013-11-22T10:59:34.0000000+00:00</time></trkpt><trkpt lat="30.69520378" lon="34.95240021"><ele>607.1</ele><time>2013-11-22T10:59:39.0000000+00:00</time></trkpt><trkpt lat="30.69511414" lon="34.95222855"><ele>603.2</ele><time>2013-11-22T10:59:44.0000000+00:00</time></trkpt><trkpt lat="30.69496155" lon="34.9521637"><ele>600.4</ele><time>2013-11-22T10:59:49.0000000+00:00</time></trkpt><trkpt lat="30.69488144" lon="34.95217133"><ele>597.2</ele><time>2013-11-22T10:59:54.0000000+00:00</time></trkpt><trkpt lat="30.69477463" lon="34.95217896"><ele>595.8</ele><time>2013-11-22T10:59:59.0000000+00:00</time></trkpt><trkpt lat="30.6947422" lon="34.95217133"><ele>594.9</ele><time>2013-11-22T11:00:04.0000000+00:00</time></trkpt><trkpt lat="30.69469452" lon="34.95215988"><ele>594.5</ele><time>2013-11-22T11:00:09.0000000+00:00</time></trkpt><trkpt lat="30.69458389" lon="34.95211792"><ele>593.3</ele><time>2013-11-22T11:00:14.0000000+00:00</time></trkpt><trkpt lat="30.69454002" lon="34.95206451"><ele>592.5</ele><time>2013-11-22T11:00:19.0000000+00:00</time></trkpt><trkpt lat="30.6945076" lon="34.95197296"><ele>592.3</ele><time>2013-11-22T11:00:24.0000000+00:00</time></trkpt><trkpt lat="30.69447327" lon="34.95185089"><ele>590.0</ele><time>2013-11-22T11:00:29.0000000+00:00</time></trkpt><trkpt lat="30.69437981" lon="34.95174027"><ele>584.3</ele><time>2013-11-22T11:00:34.0000000+00:00</time></trkpt><trkpt lat="30.69427872" lon="34.95169067"><ele>581.7</ele><time>2013-11-22T11:00:39.0000000+00:00</time></trkpt><trkpt lat="30.69415093" lon="34.95165634"><ele>578.1</ele><time>2013-11-22T11:00:44.0000000+00:00</time></trkpt><trkpt lat="30.69402504" lon="34.95161057"><ele>574.6</ele><time>2013-11-22T11:00:49.0000000+00:00</time></trkpt><trkpt lat="30.69395256" lon="34.95152283"><ele>572.6</ele><time>2013-11-22T11:00:54.0000000+00:00</time></trkpt><trkpt lat="30.69388008" lon="34.95146942"><ele>571.3</ele><time>2013-11-22T11:00:59.0000000+00:00</time></trkpt><trkpt lat="30.6938839" lon="34.95146942"><ele>569.4</ele><time>2013-11-22T11:01:04.0000000+00:00</time></trkpt><trkpt lat="30.6938839" lon="34.95147324"><ele>569.3</ele><time>2013-11-22T11:01:09.0000000+00:00</time></trkpt><trkpt lat="30.6938839" lon="34.95147324"><ele>569.2</ele><time>2013-11-22T11:01:14.0000000+00:00</time></trkpt><trkpt lat="30.6938839" lon="34.95147324"><ele>569.2</ele><time>2013-11-22T11:01:19.0000000+00:00</time></trkpt><trkpt lat="30.69388199" lon="34.95147324"><ele>569.2</ele><time>2013-11-22T11:01:24.0000000+00:00</time></trkpt><trkpt lat="30.69388199" lon="34.95147324"><ele>569.2</ele><time>2013-11-22T11:01:29.0000000+00:00</time></trkpt><trkpt lat="30.69388199" lon="34.95147324"><ele>569.1</ele><time>2013-11-22T11:01:34.0000000+00:00</time></trkpt><trkpt lat="30.69388199" lon="34.95147324"><ele>569.1</ele><time>2013-11-22T11:01:39.0000000+00:00</time></trkpt><trkpt lat="30.69388199" lon="34.95147324"><ele>569.2</ele><time>2013-11-22T11:01:44.0000000+00:00</time></trkpt><trkpt lat="30.69388199" lon="34.95147324"><ele>569.1</ele><time>2013-11-22T11:01:49.0000000+00:00</time></trkpt><trkpt lat="30.69388199" lon="34.95147324"><ele>569.1</ele><time>2013-11-22T11:01:54.0000000+00:00</time></trkpt><trkpt lat="30.69388199" lon="34.95147324"><ele>569.2</ele><time>2013-11-22T11:01:59.0000000+00:00</time></trkpt><trkpt lat="30.69388199" lon="34.95147324"><ele>569.2</ele><time>2013-11-22T11:02:04.0000000+00:00</time></trkpt><trkpt lat="30.69388199" lon="34.95147324"><ele>569.2</ele><time>2013-11-22T11:02:09.0000000+00:00</time></trkpt><trkpt lat="30.69386673" lon="34.95147705"><ele>569.2</ele><time>2013-11-22T11:02:14.0000000+00:00</time></trkpt><trkpt lat="30.69377327" lon="34.95149994"><ele>568.6</ele><time>2013-11-22T11:02:19.0000000+00:00</time></trkpt><trkpt lat="30.69367027" lon="34.95153809"><ele>567.8</ele><time>2013-11-22T11:02:24.0000000+00:00</time></trkpt><trkpt lat="30.6935482" lon="34.95152283"><ele>567.5</ele><time>2013-11-22T11:02:29.0000000+00:00</time></trkpt><trkpt lat="30.69341278" lon="34.95148468"><ele>564.6</ele><time>2013-11-22T11:02:34.0000000+00:00</time></trkpt><trkpt lat="30.69322968" lon="34.95143509"><ele>563.2</ele><time>2013-11-22T11:02:39.0000000+00:00</time></trkpt><trkpt lat="30.69306946" lon="34.95132065"><ele>563.2</ele><time>2013-11-22T11:02:44.0000000+00:00</time></trkpt><trkpt lat="30.69298363" lon="34.95114517"><ele>563.1</ele><time>2013-11-22T11:02:49.0000000+00:00</time></trkpt><trkpt lat="30.69299316" lon="34.95098877"><ele>561.9</ele><time>2013-11-22T11:02:54.0000000+00:00</time></trkpt><trkpt lat="30.69302559" lon="34.95082855"><ele>560.7</ele><time>2013-11-22T11:02:59.0000000+00:00</time></trkpt><trkpt lat="30.69303131" lon="34.95070267"><ele>562.4</ele><time>2013-11-22T11:03:04.0000000+00:00</time></trkpt><trkpt lat="30.69294167" lon="34.9505043"><ele>559.3</ele><time>2013-11-22T11:03:09.0000000+00:00</time></trkpt><trkpt lat="30.69285584" lon="34.95043945"><ele>559.5</ele><time>2013-11-22T11:03:14.0000000+00:00</time></trkpt><trkpt lat="30.69273949" lon="34.95035553"><ele>559.0</ele><time>2013-11-22T11:03:19.0000000+00:00</time></trkpt><trkpt lat="30.69264031" lon="34.9503212"><ele>560.5</ele><time>2013-11-22T11:03:24.0000000+00:00</time></trkpt><trkpt lat="30.69252014" lon="34.95034027"><ele>561.3</ele><time>2013-11-22T11:03:29.0000000+00:00</time></trkpt><trkpt lat="30.69232941" lon="34.95038605"><ele>559.3</ele><time>2013-11-22T11:03:34.0000000+00:00</time></trkpt><trkpt lat="30.69200897" lon="34.95046234"><ele>557.0</ele><time>2013-11-22T11:03:39.0000000+00:00</time></trkpt><trkpt lat="30.69164658" lon="34.95059967"><ele>554.1</ele><time>2013-11-22T11:03:44.0000000+00:00</time></trkpt><trkpt lat="30.69130325" lon="34.95079041"><ele>552.7</ele><time>2013-11-22T11:03:49.0000000+00:00</time></trkpt><trkpt lat="30.69094658" lon="34.95092773"><ele>550.6</ele><time>2013-11-22T11:03:54.0000000+00:00</time></trkpt><trkpt lat="30.69062614" lon="34.95095444"><ele>549.5</ele><time>2013-11-22T11:03:59.0000000+00:00</time></trkpt><trkpt lat="30.6903286" lon="34.95092392"><ele>548.3</ele><time>2013-11-22T11:04:04.0000000+00:00</time></trkpt><trkpt lat="30.69009018" lon="34.95080185"><ele>547.0</ele><time>2013-11-22T11:04:09.0000000+00:00</time></trkpt><trkpt lat="30.6897831" lon="34.95069504"><ele>544.0</ele><time>2013-11-22T11:04:14.0000000+00:00</time></trkpt><trkpt lat="30.68941879" lon="34.95059204"><ele>542.5</ele><time>2013-11-22T11:04:19.0000000+00:00</time></trkpt><trkpt lat="30.68908882" lon="34.95050812"><ele>541.4</ele><time>2013-11-22T11:04:24.0000000+00:00</time></trkpt><trkpt lat="30.68873787" lon="34.95047379"><ele>540.0</ele><time>2013-11-22T11:04:29.0000000+00:00</time></trkpt><trkpt lat="30.68840218" lon="34.95042038"><ele>538.9</ele><time>2013-11-22T11:04:34.0000000+00:00</time></trkpt><trkpt lat="30.68807221" lon="34.95041275"><ele>537.4</ele><time>2013-11-22T11:04:39.0000000+00:00</time></trkpt><trkpt lat="30.68776703" lon="34.95037079"><ele>536.3</ele><time>2013-11-22T11:04:44.0000000+00:00</time></trkpt><trkpt lat="30.68750382" lon="34.95027161"><ele>535.0</ele><time>2013-11-22T11:04:49.0000000+00:00</time></trkpt><trkpt lat="30.68727684" lon="34.95014191"><ele>534.3</ele><time>2013-11-22T11:04:54.0000000+00:00</time></trkpt><trkpt lat="30.68709183" lon="34.95001984"><ele>534.1</ele><time>2013-11-22T11:04:59.0000000+00:00</time></trkpt><trkpt lat="30.6869297" lon="34.94991303"><ele>532.6</ele><time>2013-11-22T11:05:04.0000000+00:00</time></trkpt><trkpt lat="30.68675423" lon="34.94985199"><ele>532.3</ele><time>2013-11-22T11:05:09.0000000+00:00</time></trkpt><trkpt lat="30.68654251" lon="34.94983292"><ele>531.6</ele><time>2013-11-22T11:05:14.0000000+00:00</time></trkpt><trkpt lat="30.68632889" lon="34.94981384"><ele>531.0</ele><time>2013-11-22T11:05:19.0000000+00:00</time></trkpt><trkpt lat="30.68611336" lon="34.9498024"><ele>530.6</ele><time>2013-11-22T11:05:24.0000000+00:00</time></trkpt><trkpt lat="30.68595123" lon="34.94968033"><ele>530.1</ele><time>2013-11-22T11:05:29.0000000+00:00</time></trkpt><trkpt lat="30.6858387" lon="34.94947052"><ele>530.5</ele><time>2013-11-22T11:05:34.0000000+00:00</time></trkpt><trkpt lat="30.68577576" lon="34.94934082"><ele>530.4</ele><time>2013-11-22T11:05:39.0000000+00:00</time></trkpt><trkpt lat="30.6857605" lon="34.94923019"><ele>530.9</ele><time>2013-11-22T11:05:44.0000000+00:00</time></trkpt><trkpt lat="30.68574715" lon="34.94911575"><ele>530.8</ele><time>2013-11-22T11:05:49.0000000+00:00</time></trkpt><trkpt lat="30.68569946" lon="34.9489212"><ele>531.5</ele><time>2013-11-22T11:05:54.0000000+00:00</time></trkpt><trkpt lat="30.68564796" lon="34.94870758"><ele>531.7</ele><time>2013-11-22T11:05:59.0000000+00:00</time></trkpt><trkpt lat="30.685606" lon="34.94855881"><ele>531.1</ele><time>2013-11-22T11:06:04.0000000+00:00</time></trkpt><trkpt lat="30.68559456" lon="34.94847107"><ele>530.9</ele><time>2013-11-22T11:06:09.0000000+00:00</time></trkpt><trkpt lat="30.68558502" lon="34.94839478"><ele>530.8</ele><time>2013-11-22T11:06:14.0000000+00:00</time></trkpt><trkpt lat="30.68556023" lon="34.94829559"><ele>531.3</ele><time>2013-11-22T11:06:19.0000000+00:00</time></trkpt><trkpt lat="30.68554115" lon="34.94821549"><ele>531.3</ele><time>2013-11-22T11:06:24.0000000+00:00</time></trkpt><trkpt lat="30.68551445" lon="34.94813538"><ele>531.9</ele><time>2013-11-22T11:06:29.0000000+00:00</time></trkpt><trkpt lat="30.68548775" lon="34.94805145"><ele>532.1</ele><time>2013-11-22T11:06:34.0000000+00:00</time></trkpt><trkpt lat="30.68545342" lon="34.94794464"><ele>531.5</ele><time>2013-11-22T11:06:39.0000000+00:00</time></trkpt><trkpt lat="30.68540955" lon="34.94782257"><ele>531.9</ele><time>2013-11-22T11:06:44.0000000+00:00</time></trkpt><trkpt lat="30.68538666" lon="34.94775391"><ele>532.5</ele><time>2013-11-22T11:06:49.0000000+00:00</time></trkpt><trkpt lat="30.68537903" lon="34.94768906"><ele>532.3</ele><time>2013-11-22T11:06:54.0000000+00:00</time></trkpt><trkpt lat="30.68535233" lon="34.94757843"><ele>532.6</ele><time>2013-11-22T11:06:59.0000000+00:00</time></trkpt><trkpt lat="30.68532944" lon="34.94742966"><ele>532.3</ele><time>2013-11-22T11:07:04.0000000+00:00</time></trkpt><trkpt lat="30.68529511" lon="34.94730377"><ele>532.8</ele><time>2013-11-22T11:07:09.0000000+00:00</time></trkpt><trkpt lat="30.68527222" lon="34.94719696"><ele>532.5</ele><time>2013-11-22T11:07:14.0000000+00:00</time></trkpt><trkpt lat="30.6852417" lon="34.94708252"><ele>533.1</ele><time>2013-11-22T11:07:19.0000000+00:00</time></trkpt><trkpt lat="30.68520165" lon="34.94697189"><ele>532.3</ele><time>2013-11-22T11:07:24.0000000+00:00</time></trkpt><trkpt lat="30.68515968" lon="34.94681168"><ele>530.4</ele><time>2013-11-22T11:07:29.0000000+00:00</time></trkpt><trkpt lat="30.68510628" lon="34.94658661"><ele>529.5</ele><time>2013-11-22T11:07:34.0000000+00:00</time></trkpt><trkpt lat="30.68510819" lon="34.94654465"><ele>529.9</ele><time>2013-11-22T11:07:39.0000000+00:00</time></trkpt><trkpt lat="30.68511391" lon="34.94654465"><ele>530.0</ele><time>2013-11-22T11:07:44.0000000+00:00</time></trkpt><trkpt lat="30.68511391" lon="34.94654465"><ele>530.1</ele><time>2013-11-22T11:07:49.0000000+00:00</time></trkpt><trkpt lat="30.68511581" lon="34.94654465"><ele>530.2</ele><time>2013-11-22T11:07:54.0000000+00:00</time></trkpt><trkpt lat="30.68512154" lon="34.94654083"><ele>530.2</ele><time>2013-11-22T11:07:59.0000000+00:00</time></trkpt><trkpt lat="30.68512726" lon="34.94654083"><ele>530.3</ele><time>2013-11-22T11:08:04.0000000+00:00</time></trkpt><trkpt lat="30.68512726" lon="34.94654083"><ele>530.5</ele><time>2013-11-22T11:08:09.0000000+00:00</time></trkpt><trkpt lat="30.68512917" lon="34.94653702"><ele>530.7</ele><time>2013-11-22T11:08:14.0000000+00:00</time></trkpt><trkpt lat="30.68512726" lon="34.94653702"><ele>530.7</ele><time>2013-11-22T11:08:19.0000000+00:00</time></trkpt><trkpt lat="30.68512154" lon="34.94653702"><ele>530.7</ele><time>2013-11-22T11:08:24.0000000+00:00</time></trkpt><trkpt lat="30.68511772" lon="34.94654465"><ele>530.7</ele><time>2013-11-22T11:08:29.0000000+00:00</time></trkpt><trkpt lat="30.68511581" lon="34.94654465"><ele>530.8</ele><time>2013-11-22T11:08:34.0000000+00:00</time></trkpt><trkpt lat="30.68511391" lon="34.94654083"><ele>530.8</ele><time>2013-11-22T11:08:39.0000000+00:00</time></trkpt><trkpt lat="30.68511772" lon="34.94653702"><ele>530.9</ele><time>2013-11-22T11:08:44.0000000+00:00</time></trkpt><trkpt lat="30.68511963" lon="34.9465332"><ele>531.0</ele><time>2013-11-22T11:08:49.0000000+00:00</time></trkpt><trkpt lat="30.68511772" lon="34.9465332"><ele>531.0</ele><time>2013-11-22T11:08:54.0000000+00:00</time></trkpt><trkpt lat="30.68511963" lon="34.9465332"><ele>531.0</ele><time>2013-11-22T11:08:59.0000000+00:00</time></trkpt><trkpt lat="30.68512154" lon="34.94652939"><ele>531.1</ele><time>2013-11-22T11:09:04.0000000+00:00</time></trkpt><trkpt lat="30.68511963" lon="34.94652176"><ele>531.1</ele><time>2013-11-22T11:09:09.0000000+00:00</time></trkpt><trkpt lat="30.68512154" lon="34.94651794"><ele>531.2</ele><time>2013-11-22T11:09:14.0000000+00:00</time></trkpt><trkpt lat="30.68511963" lon="34.94651794"><ele>531.2</ele><time>2013-11-22T11:09:19.0000000+00:00</time></trkpt><trkpt lat="30.68511772" lon="34.94652176"><ele>531.2</ele><time>2013-11-22T11:09:24.0000000+00:00</time></trkpt><trkpt lat="30.68511772" lon="34.94652176"><ele>531.2</ele><time>2013-11-22T11:09:29.0000000+00:00</time></trkpt><trkpt lat="30.68511772" lon="34.94652176"><ele>531.2</ele><time>2013-11-22T11:09:34.0000000+00:00</time></trkpt><trkpt lat="30.68511772" lon="34.94652176"><ele>531.2</ele><time>2013-11-22T11:09:39.0000000+00:00</time></trkpt><trkpt lat="30.68511772" lon="34.94652176"><ele>531.2</ele><time>2013-11-22T11:09:44.0000000+00:00</time></trkpt><trkpt lat="30.68511772" lon="34.94652176"><ele>531.2</ele><time>2013-11-22T11:09:49.0000000+00:00</time></trkpt><trkpt lat="30.68511772" lon="34.94652176"><ele>531.2</ele><time>2013-11-22T11:09:54.0000000+00:00</time></trkpt><trkpt lat="30.68511772" lon="34.94652176"><ele>531.2</ele><time>2013-11-22T11:09:59.0000000+00:00</time></trkpt><trkpt lat="30.68511963" lon="34.94652176"><ele>531.2</ele><time>2013-11-22T11:10:04.0000000+00:00</time></trkpt><trkpt lat="30.68511963" lon="34.94652176"><ele>531.1</ele><time>2013-11-22T11:10:09.0000000+00:00</time></trkpt><trkpt lat="30.68511963" lon="34.94652176"><ele>531.1</ele><time>2013-11-22T11:10:14.0000000+00:00</time></trkpt><trkpt lat="30.68511963" lon="34.94652176"><ele>531.1</ele><time>2013-11-22T11:10:19.0000000+00:00</time></trkpt><trkpt lat="30.68511963" lon="34.94652176"><ele>531.1</ele><time>2013-11-22T11:10:24.0000000+00:00</time></trkpt><trkpt lat="30.68511963" lon="34.94652176"><ele>531.1</ele><time>2013-11-22T11:10:29.0000000+00:00</time></trkpt><trkpt lat="30.68511963" lon="34.94652176"><ele>531.1</ele><time>2013-11-22T11:10:34.0000000+00:00</time></trkpt><trkpt lat="30.68511963" lon="34.94652176"><ele>531.0</ele><time>2013-11-22T11:10:39.0000000+00:00</time></trkpt><trkpt lat="30.68511772" lon="34.94652176"><ele>531.0</ele><time>2013-11-22T11:10:44.0000000+00:00</time></trkpt><trkpt lat="30.68511772" lon="34.94652176"><ele>531.0</ele><time>2013-11-22T11:10:49.0000000+00:00</time></trkpt><trkpt lat="30.68511772" lon="34.94652176"><ele>531.0</ele><time>2013-11-22T11:10:54.0000000+00:00</time></trkpt><trkpt lat="30.68511772" lon="34.94652176"><ele>531.0</ele><time>2013-11-22T11:10:59.0000000+00:00</time></trkpt><trkpt lat="30.68511772" lon="34.94652557"><ele>531.0</ele><time>2013-11-22T11:11:04.0000000+00:00</time></trkpt><trkpt lat="30.68511772" lon="34.94652557"><ele>531.0</ele><time>2013-11-22T11:11:09.0000000+00:00</time></trkpt><trkpt lat="30.68511772" lon="34.94652176"><ele>531.0</ele><time>2013-11-22T11:11:14.0000000+00:00</time></trkpt><trkpt lat="30.68511963" lon="34.94652557"><ele>531.0</ele><time>2013-11-22T11:11:19.0000000+00:00</time></trkpt><trkpt lat="30.68511772" lon="34.94652557"><ele>531.0</ele><time>2013-11-22T11:11:24.0000000+00:00</time></trkpt><trkpt lat="30.68510437" lon="34.94647217"><ele>530.0</ele><time>2013-11-22T11:11:29.0000000+00:00</time></trkpt><trkpt lat="30.68506622" lon="34.94634247"><ele>528.9</ele><time>2013-11-22T11:11:34.0000000+00:00</time></trkpt><trkpt lat="30.68492317" lon="34.94613648"><ele>523.3</ele><time>2013-11-22T11:11:39.0000000+00:00</time></trkpt><trkpt lat="30.68470001" lon="34.94590378"><ele>519.4</ele><time>2013-11-22T11:11:44.0000000+00:00</time></trkpt><trkpt lat="30.68458176" lon="34.94575501"><ele>518.0</ele><time>2013-11-22T11:11:49.0000000+00:00</time></trkpt><trkpt lat="30.68446541" lon="34.94559097"><ele>517.3</ele><time>2013-11-22T11:11:54.0000000+00:00</time></trkpt><trkpt lat="30.6843586" lon="34.94543076"><ele>517.3</ele><time>2013-11-22T11:11:59.0000000+00:00</time></trkpt><trkpt lat="30.68424225" lon="34.94525909"><ele>515.6</ele><time>2013-11-22T11:12:04.0000000+00:00</time></trkpt><trkpt lat="30.68409729" lon="34.94516373"><ele>515.0</ele><time>2013-11-22T11:12:09.0000000+00:00</time></trkpt><trkpt lat="30.68392372" lon="34.94510269"><ele>514.6</ele><time>2013-11-22T11:12:14.0000000+00:00</time></trkpt><trkpt lat="30.68371773" lon="34.94506073"><ele>514.8</ele><time>2013-11-22T11:12:19.0000000+00:00</time></trkpt><trkpt lat="30.68354797" lon="34.9449997"><ele>515.0</ele><time>2013-11-22T11:12:24.0000000+00:00</time></trkpt><trkpt lat="30.6833992" lon="34.94490051"><ele>514.1</ele><time>2013-11-22T11:12:29.0000000+00:00</time></trkpt><trkpt lat="30.68327332" lon="34.94479752"><ele>513.2</ele><time>2013-11-22T11:12:34.0000000+00:00</time></trkpt><trkpt lat="30.68309784" lon="34.94469833"><ele>512.1</ele><time>2013-11-22T11:12:39.0000000+00:00</time></trkpt><trkpt lat="30.68293572" lon="34.94460678"><ele>510.6</ele><time>2013-11-22T11:12:44.0000000+00:00</time></trkpt><trkpt lat="30.68276978" lon="34.94449997"><ele>510.1</ele><time>2013-11-22T11:12:49.0000000+00:00</time></trkpt><trkpt lat="30.682621" lon="34.94438171"><ele>512.8</ele><time>2013-11-22T11:12:54.0000000+00:00</time></trkpt><trkpt lat="30.68249321" lon="34.9442482"><ele>511.7</ele><time>2013-11-22T11:12:59.0000000+00:00</time></trkpt><trkpt lat="30.68233109" lon="34.94411087"><ele>512.2</ele><time>2013-11-22T11:13:04.0000000+00:00</time></trkpt><trkpt lat="30.68216515" lon="34.9439888"><ele>511.1</ele><time>2013-11-22T11:13:09.0000000+00:00</time></trkpt><trkpt lat="30.68205261" lon="34.94382858"><ele>510.7</ele><time>2013-11-22T11:13:14.0000000+00:00</time></trkpt><trkpt lat="30.68203354" lon="34.94378281"><ele>511.4</ele><time>2013-11-22T11:13:19.0000000+00:00</time></trkpt><trkpt lat="30.68202782" lon="34.94376373"><ele>513.0</ele><time>2013-11-22T11:13:24.0000000+00:00</time></trkpt><trkpt lat="30.68200874" lon="34.94373703"><ele>513.4</ele><time>2013-11-22T11:13:29.0000000+00:00</time></trkpt><trkpt lat="30.68198586" lon="34.94370651"><ele>515.2</ele><time>2013-11-22T11:13:34.0000000+00:00</time></trkpt><trkpt lat="30.6819725" lon="34.94368362"><ele>516.1</ele><time>2013-11-22T11:13:39.0000000+00:00</time></trkpt><trkpt lat="30.68195343" lon="34.94365692"><ele>517.1</ele><time>2013-11-22T11:13:44.0000000+00:00</time></trkpt><trkpt lat="30.68193245" lon="34.94363785"><ele>517.8</ele><time>2013-11-22T11:13:49.0000000+00:00</time></trkpt><trkpt lat="30.68190765" lon="34.94362259"><ele>517.9</ele><time>2013-11-22T11:13:54.0000000+00:00</time></trkpt><trkpt lat="30.68188095" lon="34.94360352"><ele>517.5</ele><time>2013-11-22T11:13:59.0000000+00:00</time></trkpt><trkpt lat="30.68183899" lon="34.94357681"><ele>517.5</ele><time>2013-11-22T11:14:04.0000000+00:00</time></trkpt><trkpt lat="30.68180847" lon="34.94355393"><ele>518.5</ele><time>2013-11-22T11:14:09.0000000+00:00</time></trkpt><trkpt lat="30.68177605" lon="34.94352722"><ele>519.0</ele><time>2013-11-22T11:14:14.0000000+00:00</time></trkpt><trkpt lat="30.68169975" lon="34.94346237"><ele>519.0</ele><time>2013-11-22T11:14:19.0000000+00:00</time></trkpt><trkpt lat="30.68160439" lon="34.94338989"><ele>518.5</ele><time>2013-11-22T11:14:24.0000000+00:00</time></trkpt><trkpt lat="30.68152809" lon="34.94328308"><ele>518.5</ele><time>2013-11-22T11:14:29.0000000+00:00</time></trkpt><trkpt lat="30.68139839" lon="34.94314957"><ele>516.6</ele><time>2013-11-22T11:14:34.0000000+00:00</time></trkpt><trkpt lat="30.68125153" lon="34.94291687"><ele>514.7</ele><time>2013-11-22T11:14:39.0000000+00:00</time></trkpt><trkpt lat="30.68117142" lon="34.94281387"><ele>514.9</ele><time>2013-11-22T11:14:44.0000000+00:00</time></trkpt><trkpt lat="30.68111038" lon="34.94271088"><ele>516.5</ele><time>2013-11-22T11:14:49.0000000+00:00</time></trkpt><trkpt lat="30.68101502" lon="34.94253922"><ele>514.0</ele><time>2013-11-22T11:14:54.0000000+00:00</time></trkpt><trkpt lat="30.68068504" lon="34.94232941"><ele>510.6</ele><time>2013-11-22T11:14:59.0000000+00:00</time></trkpt><trkpt lat="30.68040657" lon="34.94206619"><ele>510.1</ele><time>2013-11-22T11:15:04.0000000+00:00</time></trkpt><trkpt lat="30.68018723" lon="34.94181442"><ele>508.3</ele><time>2013-11-22T11:15:09.0000000+00:00</time></trkpt><trkpt lat="30.68009567" lon="34.94172669"><ele>509.3</ele><time>2013-11-22T11:15:14.0000000+00:00</time></trkpt><trkpt lat="30.68010712" lon="34.9417305"><ele>510.1</ele><time>2013-11-22T11:15:19.0000000+00:00</time></trkpt><trkpt lat="30.68010902" lon="34.9417305"><ele>510.1</ele><time>2013-11-22T11:15:24.0000000+00:00</time></trkpt><trkpt lat="30.68011093" lon="34.94173431"><ele>510.1</ele><time>2013-11-22T11:15:29.0000000+00:00</time></trkpt><trkpt lat="30.68010902" lon="34.94173431"><ele>510.1</ele><time>2013-11-22T11:15:34.0000000+00:00</time></trkpt><trkpt lat="30.68012619" lon="34.94176102"><ele>511.0</ele><time>2013-11-22T11:15:39.0000000+00:00</time></trkpt><trkpt lat="30.68013954" lon="34.94176483"><ele>511.4</ele><time>2013-11-22T11:15:44.0000000+00:00</time></trkpt><trkpt lat="30.68013954" lon="34.94176483"><ele>511.4</ele><time>2013-11-22T11:15:49.0000000+00:00</time></trkpt><trkpt lat="30.68014908" lon="34.94176102"><ele>511.4</ele><time>2013-11-22T11:15:54.0000000+00:00</time></trkpt><trkpt lat="30.68013382" lon="34.94170761"><ele>511.2</ele><time>2013-11-22T11:15:59.0000000+00:00</time></trkpt><trkpt lat="30.68013191" lon="34.94159699"><ele>510.4</ele><time>2013-11-22T11:16:04.0000000+00:00</time></trkpt><trkpt lat="30.6801548" lon="34.94146347"><ele>510.8</ele><time>2013-11-22T11:16:09.0000000+00:00</time></trkpt><trkpt lat="30.6801796" lon="34.94135284"><ele>509.0</ele><time>2013-11-22T11:16:14.0000000+00:00</time></trkpt><trkpt lat="30.68023872" lon="34.94122696"><ele>507.8</ele><time>2013-11-22T11:16:19.0000000+00:00</time></trkpt><trkpt lat="30.68025971" lon="34.94110489"><ele>506.6</ele><time>2013-11-22T11:16:24.0000000+00:00</time></trkpt><trkpt lat="30.68028832" lon="34.94097138"><ele>506.2</ele><time>2013-11-22T11:16:29.0000000+00:00</time></trkpt><trkpt lat="30.68032074" lon="34.94081116"><ele>506.0</ele><time>2013-11-22T11:16:34.0000000+00:00</time></trkpt><trkpt lat="30.68037605" lon="34.94067383"><ele>506.4</ele><time>2013-11-22T11:16:39.0000000+00:00</time></trkpt><trkpt lat="30.68047714" lon="34.94057465"><ele>507.8</ele><time>2013-11-22T11:16:44.0000000+00:00</time></trkpt><trkpt lat="30.68057823" lon="34.9404335"><ele>508.5</ele><time>2013-11-22T11:16:49.0000000+00:00</time></trkpt><trkpt lat="30.68066597" lon="34.94028473"><ele>509.4</ele><time>2013-11-22T11:16:54.0000000+00:00</time></trkpt><trkpt lat="30.68077087" lon="34.94013977"><ele>506.6</ele><time>2013-11-22T11:16:59.0000000+00:00</time></trkpt><trkpt lat="30.68085671" lon="34.94006729"><ele>507.6</ele><time>2013-11-22T11:17:04.0000000+00:00</time></trkpt><trkpt lat="30.68091011" lon="34.94000244"><ele>508.1</ele><time>2013-11-22T11:17:09.0000000+00:00</time></trkpt><trkpt lat="30.68094063" lon="34.93995285"><ele>508.4</ele><time>2013-11-22T11:17:14.0000000+00:00</time></trkpt><trkpt lat="30.68099594" lon="34.93988419"><ele>509.2</ele><time>2013-11-22T11:17:19.0000000+00:00</time></trkpt><trkpt lat="30.68104744" lon="34.93979645"><ele>508.8</ele><time>2013-11-22T11:17:24.0000000+00:00</time></trkpt><trkpt lat="30.68111801" lon="34.93972778"><ele>509.8</ele><time>2013-11-22T11:17:29.0000000+00:00</time></trkpt><trkpt lat="30.68116951" lon="34.9396553"><ele>512.9</ele><time>2013-11-22T11:17:34.0000000+00:00</time></trkpt><trkpt lat="30.6812191" lon="34.93955612"><ele>511.6</ele><time>2013-11-22T11:17:39.0000000+00:00</time></trkpt><trkpt lat="30.68126297" lon="34.93944168"><ele>511.1</ele><time>2013-11-22T11:17:44.0000000+00:00</time></trkpt><trkpt lat="30.68126679" lon="34.93929672"><ele>510.7</ele><time>2013-11-22T11:17:49.0000000+00:00</time></trkpt><trkpt lat="30.68123627" lon="34.93914032"><ele>510.8</ele><time>2013-11-22T11:17:54.0000000+00:00</time></trkpt><trkpt lat="30.68119812" lon="34.93897247"><ele>510.3</ele><time>2013-11-22T11:17:59.0000000+00:00</time></trkpt><trkpt lat="30.68113518" lon="34.93885803"><ele>510.3</ele><time>2013-11-22T11:18:04.0000000+00:00</time></trkpt><trkpt lat="30.68109894" lon="34.93875885"><ele>511.2</ele><time>2013-11-22T11:18:09.0000000+00:00</time></trkpt><trkpt lat="30.68104363" lon="34.93862534"><ele>511.5</ele><time>2013-11-22T11:18:14.0000000+00:00</time></trkpt><trkpt lat="30.68093681" lon="34.93852234"><ele>514.4</ele><time>2013-11-22T11:18:19.0000000+00:00</time></trkpt><trkpt lat="30.68085098" lon="34.93841171"><ele>516.8</ele><time>2013-11-22T11:18:24.0000000+00:00</time></trkpt><trkpt lat="30.68077278" lon="34.93832398"><ele>516.9</ele><time>2013-11-22T11:18:29.0000000+00:00</time></trkpt><trkpt lat="30.68070602" lon="34.93823242"><ele>517.3</ele><time>2013-11-22T11:18:34.0000000+00:00</time></trkpt><trkpt lat="30.6806488" lon="34.93814468"><ele>517.3</ele><time>2013-11-22T11:18:39.0000000+00:00</time></trkpt><trkpt lat="30.68063927" lon="34.93814087"><ele>517.6</ele><time>2013-11-22T11:18:44.0000000+00:00</time></trkpt><trkpt lat="30.68063736" lon="34.93814087"><ele>517.7</ele><time>2013-11-22T11:18:49.0000000+00:00</time></trkpt><trkpt lat="30.68063164" lon="34.93812561"><ele>517.8</ele><time>2013-11-22T11:18:54.0000000+00:00</time></trkpt><trkpt lat="30.68071747" lon="34.93801117"><ele>517.8</ele><time>2013-11-22T11:18:59.0000000+00:00</time></trkpt><trkpt lat="30.68082428" lon="34.93790054"><ele>517.0</ele><time>2013-11-22T11:19:04.0000000+00:00</time></trkpt><trkpt lat="30.68091965" lon="34.9377594"><ele>515.2</ele><time>2013-11-22T11:19:09.0000000+00:00</time></trkpt><trkpt lat="30.68098259" lon="34.93754959"><ele>512.5</ele><time>2013-11-22T11:19:14.0000000+00:00</time></trkpt><trkpt lat="30.68099594" lon="34.93740463"><ele>513.8</ele><time>2013-11-22T11:19:19.0000000+00:00</time></trkpt><trkpt lat="30.68101692" lon="34.93728638"><ele>514.1</ele><time>2013-11-22T11:19:24.0000000+00:00</time></trkpt><trkpt lat="30.6810627" lon="34.93720627"><ele>515.5</ele><time>2013-11-22T11:19:29.0000000+00:00</time></trkpt><trkpt lat="30.68113136" lon="34.93711853"><ele>514.8</ele><time>2013-11-22T11:19:34.0000000+00:00</time></trkpt><trkpt lat="30.68117523" lon="34.93697357"><ele>514.3</ele><time>2013-11-22T11:19:39.0000000+00:00</time></trkpt><trkpt lat="30.68118477" lon="34.93684006"><ele>514.3</ele><time>2013-11-22T11:19:44.0000000+00:00</time></trkpt><trkpt lat="30.6812191" lon="34.93673706"><ele>515.1</ele><time>2013-11-22T11:19:49.0000000+00:00</time></trkpt><trkpt lat="30.68126679" lon="34.93667984"><ele>515.8</ele><time>2013-11-22T11:19:54.0000000+00:00</time></trkpt><trkpt lat="30.68133545" lon="34.93658829"><ele>516.0</ele><time>2013-11-22T11:19:59.0000000+00:00</time></trkpt><trkpt lat="30.68137169" lon="34.93645096"><ele>515.0</ele><time>2013-11-22T11:20:04.0000000+00:00</time></trkpt><trkpt lat="30.6814251" lon="34.93629837"><ele>513.5</ele><time>2013-11-22T11:20:09.0000000+00:00</time></trkpt><trkpt lat="30.68136978" lon="34.9361496"><ele>513.7</ele><time>2013-11-22T11:20:14.0000000+00:00</time></trkpt><trkpt lat="30.68125916" lon="34.93602753"><ele>513.8</ele><time>2013-11-22T11:20:19.0000000+00:00</time></trkpt><trkpt lat="30.68116951" lon="34.9358635"><ele>514.1</ele><time>2013-11-22T11:20:24.0000000+00:00</time></trkpt><trkpt lat="30.68107414" lon="34.93572235"><ele>513.8</ele><time>2013-11-22T11:20:29.0000000+00:00</time></trkpt><trkpt lat="30.68098259" lon="34.93558884"><ele>513.7</ele><time>2013-11-22T11:20:34.0000000+00:00</time></trkpt><trkpt lat="30.68089485" lon="34.9354744"><ele>513.1</ele><time>2013-11-22T11:20:39.0000000+00:00</time></trkpt><trkpt lat="30.68080902" lon="34.93532944"><ele>513.2</ele><time>2013-11-22T11:20:44.0000000+00:00</time></trkpt><trkpt lat="30.68069649" lon="34.93517304"><ele>512.5</ele><time>2013-11-22T11:20:49.0000000+00:00</time></trkpt><trkpt lat="30.68060494" lon="34.93502426"><ele>512.5</ele><time>2013-11-22T11:20:54.0000000+00:00</time></trkpt><trkpt lat="30.68050766" lon="34.9348259"><ele>512.4</ele><time>2013-11-22T11:20:59.0000000+00:00</time></trkpt><trkpt lat="30.68041039" lon="34.93459702"><ele>512.3</ele><time>2013-11-22T11:21:04.0000000+00:00</time></trkpt><trkpt lat="30.68034363" lon="34.93437576"><ele>512.6</ele><time>2013-11-22T11:21:09.0000000+00:00</time></trkpt><trkpt lat="30.68029594" lon="34.93421173"><ele>513.1</ele><time>2013-11-22T11:21:14.0000000+00:00</time></trkpt><trkpt lat="30.68022728" lon="34.93401718"><ele>512.4</ele><time>2013-11-22T11:21:19.0000000+00:00</time></trkpt><trkpt lat="30.68014526" lon="34.93385696"><ele>512.7</ele><time>2013-11-22T11:21:24.0000000+00:00</time></trkpt><trkpt lat="30.68012238" lon="34.93380737"><ele>514.1</ele><time>2013-11-22T11:21:29.0000000+00:00</time></trkpt><trkpt lat="30.68007278" lon="34.93374634"><ele>514.6</ele><time>2013-11-22T11:21:34.0000000+00:00</time></trkpt><trkpt lat="30.68003655" lon="34.93371201"><ele>515.6</ele><time>2013-11-22T11:21:39.0000000+00:00</time></trkpt><trkpt lat="30.6800251" lon="34.9336853"><ele>516.9</ele><time>2013-11-22T11:21:44.0000000+00:00</time></trkpt><trkpt lat="30.67997742" lon="34.93367386"><ele>516.8</ele><time>2013-11-22T11:21:49.0000000+00:00</time></trkpt><trkpt lat="30.67996216" lon="34.93367004"><ele>517.0</ele><time>2013-11-22T11:21:54.0000000+00:00</time></trkpt><trkpt lat="30.67994118" lon="34.93366623"><ele>517.0</ele><time>2013-11-22T11:21:59.0000000+00:00</time></trkpt><trkpt lat="30.67977142" lon="34.93369293"><ele>516.0</ele><time>2013-11-22T11:22:04.0000000+00:00</time></trkpt><trkpt lat="30.67959213" lon="34.93361282"><ele>513.8</ele><time>2013-11-22T11:22:09.0000000+00:00</time></trkpt><trkpt lat="30.67944145" lon="34.93341446"><ele>511.7</ele><time>2013-11-22T11:22:14.0000000+00:00</time></trkpt><trkpt lat="30.67928505" lon="34.93335724"><ele>512.4</ele><time>2013-11-22T11:22:19.0000000+00:00</time></trkpt><trkpt lat="30.67918396" lon="34.93333817"><ele>512.8</ele><time>2013-11-22T11:22:24.0000000+00:00</time></trkpt><trkpt lat="30.67908096" lon="34.93323135"><ele>512.7</ele><time>2013-11-22T11:22:29.0000000+00:00</time></trkpt><trkpt lat="30.67894745" lon="34.93315888"><ele>511.3</ele><time>2013-11-22T11:22:34.0000000+00:00</time></trkpt><trkpt lat="30.67886353" lon="34.9330368"><ele>509.2</ele><time>2013-11-22T11:22:39.0000000+00:00</time></trkpt><trkpt lat="30.67875862" lon="34.93307877"><ele>511.5</ele><time>2013-11-22T11:22:44.0000000+00:00</time></trkpt><trkpt lat="30.67873955" lon="34.93304825"><ele>512.5</ele><time>2013-11-22T11:22:49.0000000+00:00</time></trkpt><trkpt lat="30.67875481" lon="34.93299103"><ele>512.2</ele><time>2013-11-22T11:22:54.0000000+00:00</time></trkpt><trkpt lat="30.6787777" lon="34.93291092"><ele>513.8</ele><time>2013-11-22T11:22:59.0000000+00:00</time></trkpt><trkpt lat="30.67881775" lon="34.932827"><ele>515.2</ele><time>2013-11-22T11:23:04.0000000+00:00</time></trkpt><trkpt lat="30.67884827" lon="34.93278122"><ele>515.7</ele><time>2013-11-22T11:23:09.0000000+00:00</time></trkpt><trkpt lat="30.67890739" lon="34.932724"><ele>516.1</ele><time>2013-11-22T11:23:14.0000000+00:00</time></trkpt><trkpt lat="30.67895126" lon="34.93264008"><ele>517.1</ele><time>2013-11-22T11:23:19.0000000+00:00</time></trkpt><trkpt lat="30.67898941" lon="34.93255997"><ele>516.5</ele><time>2013-11-22T11:23:24.0000000+00:00</time></trkpt><trkpt lat="30.67904282" lon="34.93247604"><ele>516.8</ele><time>2013-11-22T11:23:29.0000000+00:00</time></trkpt><trkpt lat="30.67908669" lon="34.93241119"><ele>517.5</ele><time>2013-11-22T11:23:34.0000000+00:00</time></trkpt><trkpt lat="30.67913437" lon="34.93234634"><ele>517.2</ele><time>2013-11-22T11:23:39.0000000+00:00</time></trkpt><trkpt lat="30.67918015" lon="34.93227387"><ele>517.1</ele><time>2013-11-22T11:23:44.0000000+00:00</time></trkpt><trkpt lat="30.67922592" lon="34.93219757"><ele>517.7</ele><time>2013-11-22T11:23:49.0000000+00:00</time></trkpt><trkpt lat="30.67924309" lon="34.93208313"><ele>518.5</ele><time>2013-11-22T11:23:54.0000000+00:00</time></trkpt><trkpt lat="30.67925453" lon="34.9319725"><ele>519.8</ele><time>2013-11-22T11:23:59.0000000+00:00</time></trkpt><trkpt lat="30.67925072" lon="34.93188858"><ele>521.3</ele><time>2013-11-22T11:24:04.0000000+00:00</time></trkpt><trkpt lat="30.67920113" lon="34.93184662"><ele>522.1</ele><time>2013-11-22T11:24:09.0000000+00:00</time></trkpt><trkpt lat="30.67920113" lon="34.93184662"><ele>522.3</ele><time>2013-11-22T11:24:14.0000000+00:00</time></trkpt><trkpt lat="30.67920113" lon="34.93184662"><ele>522.4</ele><time>2013-11-22T11:24:19.0000000+00:00</time></trkpt><trkpt lat="30.6791954" lon="34.93185043"><ele>522.4</ele><time>2013-11-22T11:24:24.0000000+00:00</time></trkpt><trkpt lat="30.67910576" lon="34.93187332"><ele>522.9</ele><time>2013-11-22T11:24:29.0000000+00:00</time></trkpt><trkpt lat="30.67899704" lon="34.93187714"><ele>522.5</ele><time>2013-11-22T11:24:34.0000000+00:00</time></trkpt><trkpt lat="30.67886734" lon="34.93188477"><ele>521.5</ele><time>2013-11-22T11:24:39.0000000+00:00</time></trkpt><trkpt lat="30.67870331" lon="34.93187714"><ele>521.2</ele><time>2013-11-22T11:24:44.0000000+00:00</time></trkpt><trkpt lat="30.67855263" lon="34.93180847"><ele>517.4</ele><time>2013-11-22T11:24:49.0000000+00:00</time></trkpt><trkpt lat="30.67847252" lon="34.93167496"><ele>515.8</ele><time>2013-11-22T11:24:54.0000000+00:00</time></trkpt><trkpt lat="30.67840576" lon="34.93154526"><ele>513.8</ele><time>2013-11-22T11:24:59.0000000+00:00</time></trkpt><trkpt lat="30.67826653" lon="34.93135452"><ele>511.4</ele><time>2013-11-22T11:25:04.0000000+00:00</time></trkpt><trkpt lat="30.67814255" lon="34.93110657"><ele>509.3</ele><time>2013-11-22T11:25:09.0000000+00:00</time></trkpt><trkpt lat="30.67819595" lon="34.93092346"><ele>510.2</ele><time>2013-11-22T11:25:14.0000000+00:00</time></trkpt><trkpt lat="30.67828178" lon="34.93080139"><ele>512.5</ele><time>2013-11-22T11:25:19.0000000+00:00</time></trkpt><trkpt lat="30.67835617" lon="34.93064499"><ele>510.7</ele><time>2013-11-22T11:25:24.0000000+00:00</time></trkpt><trkpt lat="30.67846298" lon="34.93045425"><ele>508.5</ele><time>2013-11-22T11:25:29.0000000+00:00</time></trkpt><trkpt lat="30.67856789" lon="34.93026352"><ele>507.7</ele><time>2013-11-22T11:25:34.0000000+00:00</time></trkpt><trkpt lat="30.67862129" lon="34.93006516"><ele>508.8</ele><time>2013-11-22T11:25:39.0000000+00:00</time></trkpt><trkpt lat="30.67865181" lon="34.92986298"><ele>510.8</ele><time>2013-11-22T11:25:44.0000000+00:00</time></trkpt><trkpt lat="30.67866516" lon="34.92972565"><ele>511.1</ele><time>2013-11-22T11:25:49.0000000+00:00</time></trkpt><trkpt lat="30.6787014" lon="34.92957687"><ele>510.9</ele><time>2013-11-22T11:25:54.0000000+00:00</time></trkpt><trkpt lat="30.6787262" lon="34.92946625"><ele>511.6</ele><time>2013-11-22T11:25:59.0000000+00:00</time></trkpt><trkpt lat="30.67874336" lon="34.92934036"><ele>512.8</ele><time>2013-11-22T11:26:04.0000000+00:00</time></trkpt><trkpt lat="30.67877579" lon="34.92921829"><ele>514.2</ele><time>2013-11-22T11:26:09.0000000+00:00</time></trkpt><trkpt lat="30.67873192" lon="34.92911148"><ele>515.5</ele><time>2013-11-22T11:26:14.0000000+00:00</time></trkpt><trkpt lat="30.67869568" lon="34.92902374"><ele>517.3</ele><time>2013-11-22T11:26:19.0000000+00:00</time></trkpt><trkpt lat="30.67860222" lon="34.92895126"><ele>517.3</ele><time>2013-11-22T11:26:24.0000000+00:00</time></trkpt><trkpt lat="30.67845535" lon="34.92889404"><ele>517.4</ele><time>2013-11-22T11:26:29.0000000+00:00</time></trkpt><trkpt lat="30.67827606" lon="34.92881775"><ele>515.9</ele><time>2013-11-22T11:26:34.0000000+00:00</time></trkpt><trkpt lat="30.67808533" lon="34.92876434"><ele>514.3</ele><time>2013-11-22T11:26:39.0000000+00:00</time></trkpt><trkpt lat="30.67790985" lon="34.92881775"><ele>513.0</ele><time>2013-11-22T11:26:44.0000000+00:00</time></trkpt><trkpt lat="30.67773247" lon="34.92875671"><ele>511.7</ele><time>2013-11-22T11:26:49.0000000+00:00</time></trkpt><trkpt lat="30.67763329" lon="34.92848206"><ele>510.1</ele><time>2013-11-22T11:26:54.0000000+00:00</time></trkpt><trkpt lat="30.67775917" lon="34.92827988"><ele>508.5</ele><time>2013-11-22T11:26:59.0000000+00:00</time></trkpt><trkpt lat="30.67787933" lon="34.92821884"><ele>512.1</ele><time>2013-11-22T11:27:04.0000000+00:00</time></trkpt><trkpt lat="30.677948" lon="34.92819977"><ele>514.3</ele><time>2013-11-22T11:27:09.0000000+00:00</time></trkpt><trkpt lat="30.67800713" lon="34.92818832"><ele>516.5</ele><time>2013-11-22T11:27:14.0000000+00:00</time></trkpt><trkpt lat="30.67807388" lon="34.92815018"><ele>518.2</ele><time>2013-11-22T11:27:19.0000000+00:00</time></trkpt><trkpt lat="30.6781311" lon="34.9281044"><ele>519.6</ele><time>2013-11-22T11:27:24.0000000+00:00</time></trkpt><trkpt lat="30.67819023" lon="34.92806625"><ele>519.9</ele><time>2013-11-22T11:27:29.0000000+00:00</time></trkpt><trkpt lat="30.67824364" lon="34.92802048"><ele>520.8</ele><time>2013-11-22T11:27:34.0000000+00:00</time></trkpt><trkpt lat="30.67830849" lon="34.92795944"><ele>521.4</ele><time>2013-11-22T11:27:39.0000000+00:00</time></trkpt><trkpt lat="30.67837143" lon="34.92787933"><ele>522.3</ele><time>2013-11-22T11:27:44.0000000+00:00</time></trkpt><trkpt lat="30.67841911" lon="34.92774963"><ele>520.7</ele><time>2013-11-22T11:27:49.0000000+00:00</time></trkpt><trkpt lat="30.6784668" lon="34.92764282"><ele>519.7</ele><time>2013-11-22T11:27:54.0000000+00:00</time></trkpt><trkpt lat="30.67839813" lon="34.92746735"><ele>518.8</ele><time>2013-11-22T11:27:59.0000000+00:00</time></trkpt><trkpt lat="30.67834282" lon="34.92730713"><ele>518.4</ele><time>2013-11-22T11:28:04.0000000+00:00</time></trkpt><trkpt lat="30.67830086" lon="34.92721939"><ele>517.5</ele><time>2013-11-22T11:28:09.0000000+00:00</time></trkpt><trkpt lat="30.67827416" lon="34.92713928"><ele>517.5</ele><time>2013-11-22T11:28:14.0000000+00:00</time></trkpt><trkpt lat="30.67827225" lon="34.9270668"><ele>517.6</ele><time>2013-11-22T11:28:19.0000000+00:00</time></trkpt><trkpt lat="30.67829132" lon="34.92695618"><ele>515.9</ele><time>2013-11-22T11:28:24.0000000+00:00</time></trkpt><trkpt lat="30.67834663" lon="34.92683029"><ele>514.8</ele><time>2013-11-22T11:28:29.0000000+00:00</time></trkpt><trkpt lat="30.67840576" lon="34.92670441"><ele>515.3</ele><time>2013-11-22T11:28:34.0000000+00:00</time></trkpt><trkpt lat="30.67846489" lon="34.92658615"><ele>515.9</ele><time>2013-11-22T11:28:39.0000000+00:00</time></trkpt><trkpt lat="30.67850876" lon="34.92646408"><ele>517.4</ele><time>2013-11-22T11:28:44.0000000+00:00</time></trkpt><trkpt lat="30.67856407" lon="34.92635346"><ele>519.3</ele><time>2013-11-22T11:28:49.0000000+00:00</time></trkpt><trkpt lat="30.67860794" lon="34.92625427"><ele>519.0</ele><time>2013-11-22T11:28:54.0000000+00:00</time></trkpt><trkpt lat="30.67866516" lon="34.9261322"><ele>520.4</ele><time>2013-11-22T11:28:59.0000000+00:00</time></trkpt><trkpt lat="30.67867088" lon="34.92598724"><ele>518.1</ele><time>2013-11-22T11:29:04.0000000+00:00</time></trkpt><trkpt lat="30.67868996" lon="34.9258461"><ele>517.5</ele><time>2013-11-22T11:29:09.0000000+00:00</time></trkpt><trkpt lat="30.67871666" lon="34.92570114"><ele>517.6</ele><time>2013-11-22T11:29:14.0000000+00:00</time></trkpt><trkpt lat="30.67871857" lon="34.92564011"><ele>517.6</ele><time>2013-11-22T11:29:19.0000000+00:00</time></trkpt><trkpt lat="30.67871666" lon="34.92564011"><ele>518.2</ele><time>2013-11-22T11:29:24.0000000+00:00</time></trkpt><trkpt lat="30.67871475" lon="34.92564011"><ele>518.2</ele><time>2013-11-22T11:29:29.0000000+00:00</time></trkpt><trkpt lat="30.67871475" lon="34.92563248"><ele>518.3</ele><time>2013-11-22T11:29:34.0000000+00:00</time></trkpt><trkpt lat="30.67872429" lon="34.92552567"><ele>517.6</ele><time>2013-11-22T11:29:39.0000000+00:00</time></trkpt><trkpt lat="30.67875862" lon="34.92537689"><ele>516.7</ele><time>2013-11-22T11:29:44.0000000+00:00</time></trkpt><trkpt lat="30.67880631" lon="34.92527008"><ele>517.8</ele><time>2013-11-22T11:29:49.0000000+00:00</time></trkpt><trkpt lat="30.67884636" lon="34.92519379"><ele>519.0</ele><time>2013-11-22T11:29:54.0000000+00:00</time></trkpt><trkpt lat="30.67891502" lon="34.92511368"><ele>522.5</ele><time>2013-11-22T11:29:59.0000000+00:00</time></trkpt><trkpt lat="30.67899132" lon="34.92503738"><ele>523.3</ele><time>2013-11-22T11:30:04.0000000+00:00</time></trkpt><trkpt lat="30.67904091" lon="34.92494965"><ele>525.3</ele><time>2013-11-22T11:30:09.0000000+00:00</time></trkpt><trkpt lat="30.67907715" lon="34.92487717"><ele>525.5</ele><time>2013-11-22T11:30:14.0000000+00:00</time></trkpt><trkpt lat="30.67915916" lon="34.92477417"><ele>526.3</ele><time>2013-11-22T11:30:19.0000000+00:00</time></trkpt><trkpt lat="30.67916107" lon="34.92476654"><ele>526.8</ele><time>2013-11-22T11:30:24.0000000+00:00</time></trkpt><trkpt lat="30.6791687" lon="34.92476273"><ele>526.8</ele><time>2013-11-22T11:30:29.0000000+00:00</time></trkpt><trkpt lat="30.6791687" lon="34.9247551"><ele>526.7</ele><time>2013-11-22T11:30:34.0000000+00:00</time></trkpt><trkpt lat="30.6791687" lon="34.92475891"><ele>526.7</ele><time>2013-11-22T11:30:39.0000000+00:00</time></trkpt><trkpt lat="30.6791687" lon="34.92475891"><ele>526.7</ele><time>2013-11-22T11:30:44.0000000+00:00</time></trkpt><trkpt lat="30.67916679" lon="34.92475891"><ele>526.6</ele><time>2013-11-22T11:30:49.0000000+00:00</time></trkpt><trkpt lat="30.67916489" lon="34.92476273"><ele>526.6</ele><time>2013-11-22T11:30:54.0000000+00:00</time></trkpt><trkpt lat="30.67916298" lon="34.92476654"><ele>526.6</ele><time>2013-11-22T11:30:59.0000000+00:00</time></trkpt><trkpt lat="30.67916298" lon="34.92476654"><ele>526.6</ele><time>2013-11-22T11:31:04.0000000+00:00</time></trkpt><trkpt lat="30.67916298" lon="34.92476654"><ele>526.6</ele><time>2013-11-22T11:31:09.0000000+00:00</time></trkpt><trkpt lat="30.67916298" lon="34.92476654"><ele>526.6</ele><time>2013-11-22T11:31:14.0000000+00:00</time></trkpt><trkpt lat="30.67916298" lon="34.92476654"><ele>526.6</ele><time>2013-11-22T11:31:19.0000000+00:00</time></trkpt><trkpt lat="30.67916298" lon="34.92476654"><ele>526.6</ele><time>2013-11-22T11:31:24.0000000+00:00</time></trkpt><trkpt lat="30.67916298" lon="34.92476654"><ele>526.6</ele><time>2013-11-22T11:31:29.0000000+00:00</time></trkpt><trkpt lat="30.67916107" lon="34.92476654"><ele>526.6</ele><time>2013-11-22T11:31:34.0000000+00:00</time></trkpt><trkpt lat="30.67916107" lon="34.92476654"><ele>526.7</ele><time>2013-11-22T11:31:39.0000000+00:00</time></trkpt><trkpt lat="30.67916107" lon="34.92476654"><ele>526.7</ele><time>2013-11-22T11:31:44.0000000+00:00</time></trkpt><trkpt lat="30.67916107" lon="34.92476654"><ele>526.7</ele><time>2013-11-22T11:31:49.0000000+00:00</time></trkpt><trkpt lat="30.67916107" lon="34.92476654"><ele>526.7</ele><time>2013-11-22T11:31:54.0000000+00:00</time></trkpt><trkpt lat="30.67916107" lon="34.92476654"><ele>526.7</ele><time>2013-11-22T11:31:59.0000000+00:00</time></trkpt><trkpt lat="30.67916107" lon="34.92476654"><ele>526.7</ele><time>2013-11-22T11:32:04.0000000+00:00</time></trkpt><trkpt lat="30.67916107" lon="34.92476654"><ele>526.7</ele><time>2013-11-22T11:32:09.0000000+00:00</time></trkpt><trkpt lat="30.67916107" lon="34.92476654"><ele>526.7</ele><time>2013-11-22T11:32:14.0000000+00:00</time></trkpt><trkpt lat="30.67916298" lon="34.92476654"><ele>526.7</ele><time>2013-11-22T11:32:19.0000000+00:00</time></trkpt><trkpt lat="30.67916298" lon="34.92476654"><ele>526.8</ele><time>2013-11-22T11:32:24.0000000+00:00</time></trkpt><trkpt lat="30.67916298" lon="34.92476654"><ele>526.8</ele><time>2013-11-22T11:32:29.0000000+00:00</time></trkpt><trkpt lat="30.67916298" lon="34.92476654"><ele>526.8</ele><time>2013-11-22T11:32:34.0000000+00:00</time></trkpt><trkpt lat="30.67916298" lon="34.92476654"><ele>526.8</ele><time>2013-11-22T11:32:39.0000000+00:00</time></trkpt><trkpt lat="30.67916298" lon="34.92476273"><ele>526.9</ele><time>2013-11-22T11:32:44.0000000+00:00</time></trkpt><trkpt lat="30.67915916" lon="34.9246521"><ele>526.0</ele><time>2013-11-22T11:32:49.0000000+00:00</time></trkpt><trkpt lat="30.67907906" lon="34.92464066"><ele>526.0</ele><time>2013-11-22T11:32:54.0000000+00:00</time></trkpt><trkpt lat="30.67897415" lon="34.92465973"><ele>527.0</ele><time>2013-11-22T11:32:59.0000000+00:00</time></trkpt><trkpt lat="30.67885017" lon="34.92470169"><ele>525.9</ele><time>2013-11-22T11:33:04.0000000+00:00</time></trkpt><trkpt lat="30.67856598" lon="34.92470932"><ele>521.5</ele><time>2013-11-22T11:33:09.0000000+00:00</time></trkpt><trkpt lat="30.67816734" lon="34.92469406"><ele>520.2</ele><time>2013-11-22T11:33:14.0000000+00:00</time></trkpt><trkpt lat="30.67780495" lon="34.92468262"><ele>520.8</ele><time>2013-11-22T11:33:19.0000000+00:00</time></trkpt><trkpt lat="30.67753983" lon="34.92466354"><ele>521.4</ele><time>2013-11-22T11:33:24.0000000+00:00</time></trkpt><trkpt lat="30.67741966" lon="34.92464829"><ele>521.1</ele><time>2013-11-22T11:33:29.0000000+00:00</time></trkpt><trkpt lat="30.67728233" lon="34.92462921"><ele>521.1</ele><time>2013-11-22T11:33:34.0000000+00:00</time></trkpt><trkpt lat="30.67713547" lon="34.92461014"><ele>521.1</ele><time>2013-11-22T11:33:39.0000000+00:00</time></trkpt><trkpt lat="30.67697716" lon="34.92457962"><ele>520.8</ele><time>2013-11-22T11:33:44.0000000+00:00</time></trkpt><trkpt lat="30.67677307" lon="34.92455673"><ele>519.1</ele><time>2013-11-22T11:33:49.0000000+00:00</time></trkpt><trkpt lat="30.67650223" lon="34.92457581"><ele>518.0</ele><time>2013-11-22T11:33:54.0000000+00:00</time></trkpt><trkpt lat="30.67630768" lon="34.92458344"><ele>519.1</ele><time>2013-11-22T11:33:59.0000000+00:00</time></trkpt><trkpt lat="30.67615509" lon="34.92457581"><ele>519.2</ele><time>2013-11-22T11:34:04.0000000+00:00</time></trkpt><trkpt lat="30.67603111" lon="34.92458725"><ele>519.2</ele><time>2013-11-22T11:34:09.0000000+00:00</time></trkpt><trkpt lat="30.67588615" lon="34.92460632"><ele>520.8</ele><time>2013-11-22T11:34:14.0000000+00:00</time></trkpt><trkpt lat="30.67569733" lon="34.92462158"><ele>521.6</ele><time>2013-11-22T11:34:19.0000000+00:00</time></trkpt><trkpt lat="30.6754837" lon="34.92464066"><ele>521.6</ele><time>2013-11-22T11:34:24.0000000+00:00</time></trkpt><trkpt lat="30.67525864" lon="34.92465973"><ele>521.1</ele><time>2013-11-22T11:34:29.0000000+00:00</time></trkpt><trkpt lat="30.6750164" lon="34.92468643"><ele>520.0</ele><time>2013-11-22T11:34:34.0000000+00:00</time></trkpt><trkpt lat="30.67470741" lon="34.92471314"><ele>517.6</ele><time>2013-11-22T11:34:39.0000000+00:00</time></trkpt><trkpt lat="30.6744194" lon="34.92473602"><ele>516.3</ele><time>2013-11-22T11:34:44.0000000+00:00</time></trkpt><trkpt lat="30.67411423" lon="34.92475891"><ele>515.3</ele><time>2013-11-22T11:34:49.0000000+00:00</time></trkpt><trkpt lat="30.67383003" lon="34.92477799"><ele>513.6</ele><time>2013-11-22T11:34:54.0000000+00:00</time></trkpt><trkpt lat="30.67362404" lon="34.92479706"><ele>514.0</ele><time>2013-11-22T11:34:59.0000000+00:00</time></trkpt><trkpt lat="30.67339897" lon="34.92482376"><ele>513.9</ele><time>2013-11-22T11:35:04.0000000+00:00</time></trkpt><trkpt lat="30.67318916" lon="34.92484665"><ele>514.9</ele><time>2013-11-22T11:35:09.0000000+00:00</time></trkpt><trkpt lat="30.6729641" lon="34.92488861"><ele>514.6</ele><time>2013-11-22T11:35:14.0000000+00:00</time></trkpt><trkpt lat="30.67276764" lon="34.92491531"><ele>514.8</ele><time>2013-11-22T11:35:19.0000000+00:00</time></trkpt><trkpt lat="30.67269325" lon="34.92492294"><ele>514.6</ele><time>2013-11-22T11:35:24.0000000+00:00</time></trkpt><trkpt lat="30.67268944" lon="34.92491913"><ele>512.0</ele><time>2013-11-22T11:35:29.0000000+00:00</time></trkpt><trkpt lat="30.6726799" lon="34.92491531"><ele>512.0</ele><time>2013-11-22T11:35:34.0000000+00:00</time></trkpt><trkpt lat="30.67255592" lon="34.92492294"><ele>511.9</ele><time>2013-11-22T11:35:39.0000000+00:00</time></trkpt><trkpt lat="30.67237282" lon="34.92494965"><ele>511.5</ele><time>2013-11-22T11:35:44.0000000+00:00</time></trkpt><trkpt lat="30.67216873" lon="34.92498016"><ele>511.2</ele><time>2013-11-22T11:35:49.0000000+00:00</time></trkpt><trkpt lat="30.67197418" lon="34.9250145"><ele>510.6</ele><time>2013-11-22T11:35:54.0000000+00:00</time></trkpt><trkpt lat="30.67176056" lon="34.92504501"><ele>514.5</ele><time>2013-11-22T11:35:59.0000000+00:00</time></trkpt><trkpt lat="30.67156792" lon="34.92505264"><ele>513.8</ele><time>2013-11-22T11:36:04.0000000+00:00</time></trkpt><trkpt lat="30.67135239" lon="34.92506409"><ele>514.5</ele><time>2013-11-22T11:36:09.0000000+00:00</time></trkpt><trkpt lat="30.67113686" lon="34.92507172"><ele>513.6</ele><time>2013-11-22T11:36:14.0000000+00:00</time></trkpt><trkpt lat="30.67092133" lon="34.92509079"><ele>512.7</ele><time>2013-11-22T11:36:19.0000000+00:00</time></trkpt><trkpt lat="30.67067528" lon="34.92512131"><ele>511.1</ele><time>2013-11-22T11:36:24.0000000+00:00</time></trkpt><trkpt lat="30.67041016" lon="34.92515183"><ele>509.3</ele><time>2013-11-22T11:36:29.0000000+00:00</time></trkpt><trkpt lat="30.67014885" lon="34.92518616"><ele>508.0</ele><time>2013-11-22T11:36:34.0000000+00:00</time></trkpt><trkpt lat="30.66992188" lon="34.92521668"><ele>507.2</ele><time>2013-11-22T11:36:39.0000000+00:00</time></trkpt><trkpt lat="30.66970062" lon="34.92523193"><ele>505.8</ele><time>2013-11-22T11:36:44.0000000+00:00</time></trkpt><trkpt lat="30.66949081" lon="34.92522812"><ele>503.2</ele><time>2013-11-22T11:36:49.0000000+00:00</time></trkpt><trkpt lat="30.66929245" lon="34.92525482"><ele>502.1</ele><time>2013-11-22T11:36:54.0000000+00:00</time></trkpt><trkpt lat="30.66914558" lon="34.92528153"><ele>501.7</ele><time>2013-11-22T11:36:59.0000000+00:00</time></trkpt><trkpt lat="30.66903305" lon="34.92529678"><ele>501.5</ele><time>2013-11-22T11:37:04.0000000+00:00</time></trkpt><trkpt lat="30.66888619" lon="34.92531204"><ele>501.7</ele><time>2013-11-22T11:37:09.0000000+00:00</time></trkpt><trkpt lat="30.66870689" lon="34.92533112"><ele>501.1</ele><time>2013-11-22T11:37:14.0000000+00:00</time></trkpt><trkpt lat="30.66853714" lon="34.92535019"><ele>501.2</ele><time>2013-11-22T11:37:19.0000000+00:00</time></trkpt><trkpt lat="30.66833305" lon="34.92538071"><ele>502.4</ele><time>2013-11-22T11:37:24.0000000+00:00</time></trkpt><trkpt lat="30.66813469" lon="34.92540741"><ele>504.0</ele><time>2013-11-22T11:37:29.0000000+00:00</time></trkpt><trkpt lat="30.66790962" lon="34.92543793"><ele>503.1</ele><time>2013-11-22T11:37:34.0000000+00:00</time></trkpt><trkpt lat="30.66768646" lon="34.92547226"><ele>501.7</ele><time>2013-11-22T11:37:39.0000000+00:00</time></trkpt><trkpt lat="30.66745377" lon="34.92549896"><ele>499.7</ele><time>2013-11-22T11:37:44.0000000+00:00</time></trkpt><trkpt lat="30.66721916" lon="34.92552567"><ele>498.4</ele><time>2013-11-22T11:37:49.0000000+00:00</time></trkpt><trkpt lat="30.66699791" lon="34.92554855"><ele>498.5</ele><time>2013-11-22T11:37:54.0000000+00:00</time></trkpt><trkpt lat="30.66676712" lon="34.9255867"><ele>497.6</ele><time>2013-11-22T11:37:59.0000000+00:00</time></trkpt><trkpt lat="30.66657448" lon="34.92560959"><ele>496.7</ele><time>2013-11-22T11:38:04.0000000+00:00</time></trkpt><trkpt lat="30.66640472" lon="34.92562866"><ele>496.6</ele><time>2013-11-22T11:38:09.0000000+00:00</time></trkpt><trkpt lat="30.6662674" lon="34.92564011"><ele>496.0</ele><time>2013-11-22T11:38:14.0000000+00:00</time></trkpt><trkpt lat="30.66618347" lon="34.92564392"><ele>494.8</ele><time>2013-11-22T11:38:19.0000000+00:00</time></trkpt><trkpt lat="30.66611671" lon="34.92564392"><ele>494.7</ele><time>2013-11-22T11:38:24.0000000+00:00</time></trkpt><trkpt lat="30.66605187" lon="34.92564774"><ele>495.0</ele><time>2013-11-22T11:38:29.0000000+00:00</time></trkpt><trkpt lat="30.66598702" lon="34.92565537"><ele>495.6</ele><time>2013-11-22T11:38:34.0000000+00:00</time></trkpt><trkpt lat="30.66589737" lon="34.92565918"><ele>495.4</ele><time>2013-11-22T11:38:39.0000000+00:00</time></trkpt><trkpt lat="30.6658001" lon="34.92568207"><ele>494.9</ele><time>2013-11-22T11:38:44.0000000+00:00</time></trkpt><trkpt lat="30.66567612" lon="34.92568207"><ele>494.2</ele><time>2013-11-22T11:38:49.0000000+00:00</time></trkpt><trkpt lat="30.66551781" lon="34.92568588"><ele>493.3</ele><time>2013-11-22T11:38:54.0000000+00:00</time></trkpt><trkpt lat="30.66533279" lon="34.92568588"><ele>491.9</ele><time>2013-11-22T11:38:59.0000000+00:00</time></trkpt><trkpt lat="30.66510773" lon="34.92568588"><ele>491.3</ele><time>2013-11-22T11:39:04.0000000+00:00</time></trkpt><trkpt lat="30.66487694" lon="34.92568588"><ele>490.9</ele><time>2013-11-22T11:39:09.0000000+00:00</time></trkpt><trkpt lat="30.66462517" lon="34.92567825"><ele>490.7</ele><time>2013-11-22T11:39:14.0000000+00:00</time></trkpt><trkpt lat="30.6644001" lon="34.92567825"><ele>490.7</ele><time>2013-11-22T11:39:19.0000000+00:00</time></trkpt><trkpt lat="30.66415405" lon="34.92568588"><ele>489.7</ele><time>2013-11-22T11:39:24.0000000+00:00</time></trkpt><trkpt lat="30.66391182" lon="34.92567062"><ele>490.1</ele><time>2013-11-22T11:39:29.0000000+00:00</time></trkpt><trkpt lat="30.66368294" lon="34.92566681"><ele>490.6</ele><time>2013-11-22T11:39:34.0000000+00:00</time></trkpt><trkpt lat="30.66342926" lon="34.92565918"><ele>490.8</ele><time>2013-11-22T11:39:39.0000000+00:00</time></trkpt><trkpt lat="30.66318131" lon="34.92565155"><ele>491.8</ele><time>2013-11-22T11:39:44.0000000+00:00</time></trkpt><trkpt lat="30.66293907" lon="34.92565537"><ele>491.7</ele><time>2013-11-22T11:39:49.0000000+00:00</time></trkpt><trkpt lat="30.66271591" lon="34.92567062"><ele>492.1</ele><time>2013-11-22T11:39:54.0000000+00:00</time></trkpt><trkpt lat="30.66247749" lon="34.92565537"><ele>493.2</ele><time>2013-11-22T11:39:59.0000000+00:00</time></trkpt><trkpt lat="30.6622982" lon="34.92563629"><ele>494.5</ele><time>2013-11-22T11:40:04.0000000+00:00</time></trkpt><trkpt lat="30.66214371" lon="34.92565918"><ele>493.4</ele><time>2013-11-22T11:40:09.0000000+00:00</time></trkpt><trkpt lat="30.66189957" lon="34.92564011"><ele>486.7</ele><time>2013-11-22T11:40:14.0000000+00:00</time></trkpt><trkpt lat="30.66163826" lon="34.92561722"><ele>485.4</ele><time>2013-11-22T11:40:19.0000000+00:00</time></trkpt><trkpt lat="30.66139603" lon="34.92562103"><ele>487.1</ele><time>2013-11-22T11:40:24.0000000+00:00</time></trkpt><trkpt lat="30.66115952" lon="34.92561722"><ele>487.0</ele><time>2013-11-22T11:40:29.0000000+00:00</time></trkpt><trkpt lat="30.66090775" lon="34.92560959"><ele>487.8</ele><time>2013-11-22T11:40:34.0000000+00:00</time></trkpt><trkpt lat="30.66068268" lon="34.9255867"><ele>488.3</ele><time>2013-11-22T11:40:39.0000000+00:00</time></trkpt><trkpt lat="30.66046715" lon="34.92555618"><ele>488.8</ele><time>2013-11-22T11:40:44.0000000+00:00</time></trkpt><trkpt lat="30.66023445" lon="34.92552567"><ele>488.0</ele><time>2013-11-22T11:40:49.0000000+00:00</time></trkpt><trkpt lat="30.66004372" lon="34.92549133"><ele>487.8</ele><time>2013-11-22T11:40:54.0000000+00:00</time></trkpt><trkpt lat="30.6598587" lon="34.92541885"><ele>487.0</ele><time>2013-11-22T11:40:59.0000000+00:00</time></trkpt><trkpt lat="30.65966988" lon="34.92535782"><ele>486.1</ele><time>2013-11-22T11:41:04.0000000+00:00</time></trkpt><trkpt lat="30.65948677" lon="34.92530441"><ele>486.0</ele><time>2013-11-22T11:41:09.0000000+00:00</time></trkpt><trkpt lat="30.65927696" lon="34.92525482"><ele>487.0</ele><time>2013-11-22T11:41:14.0000000+00:00</time></trkpt><trkpt lat="30.65910721" lon="34.92520905"><ele>487.4</ele><time>2013-11-22T11:41:19.0000000+00:00</time></trkpt><trkpt lat="30.65891075" lon="34.92517853"><ele>487.3</ele><time>2013-11-22T11:41:24.0000000+00:00</time></trkpt><trkpt lat="30.658741" lon="34.92513275"><ele>487.7</ele><time>2013-11-22T11:41:29.0000000+00:00</time></trkpt><trkpt lat="30.65858078" lon="34.92508316"><ele>487.1</ele><time>2013-11-22T11:41:34.0000000+00:00</time></trkpt><trkpt lat="30.65846252" lon="34.92502976"><ele>486.4</ele><time>2013-11-22T11:41:39.0000000+00:00</time></trkpt><trkpt lat="30.65842629" lon="34.92500305"><ele>484.2</ele><time>2013-11-22T11:41:44.0000000+00:00</time></trkpt><trkpt lat="30.65840721" lon="34.92499161"><ele>483.8</ele><time>2013-11-22T11:41:49.0000000+00:00</time></trkpt><trkpt lat="30.65830994" lon="34.92497253"><ele>484.5</ele><time>2013-11-22T11:41:54.0000000+00:00</time></trkpt><trkpt lat="30.65816307" lon="34.92495346"><ele>485.0</ele><time>2013-11-22T11:41:59.0000000+00:00</time></trkpt><trkpt lat="30.65793991" lon="34.92490006"><ele>482.6</ele><time>2013-11-22T11:42:04.0000000+00:00</time></trkpt><trkpt lat="30.65769196" lon="34.92484665"><ele>482.2</ele><time>2013-11-22T11:42:09.0000000+00:00</time></trkpt><trkpt lat="30.65750504" lon="34.92477417"><ele>482.6</ele><time>2013-11-22T11:42:14.0000000+00:00</time></trkpt><trkpt lat="30.65727997" lon="34.92472076"><ele>482.9</ele><time>2013-11-22T11:42:19.0000000+00:00</time></trkpt><trkpt lat="30.65706062" lon="34.92466736"><ele>481.0</ele><time>2013-11-22T11:42:24.0000000+00:00</time></trkpt><trkpt lat="30.65683174" lon="34.92461777"><ele>479.5</ele><time>2013-11-22T11:42:29.0000000+00:00</time></trkpt><trkpt lat="30.6566391" lon="34.92455292"><ele>478.0</ele><time>2013-11-22T11:42:34.0000000+00:00</time></trkpt><trkpt lat="30.6564312" lon="34.92448425"><ele>478.6</ele><time>2013-11-22T11:42:39.0000000+00:00</time></trkpt><trkpt lat="30.65620422" lon="34.92443085"><ele>478.8</ele><time>2013-11-22T11:42:44.0000000+00:00</time></trkpt><trkpt lat="30.65596771" lon="34.92437363"><ele>481.2</ele><time>2013-11-22T11:42:49.0000000+00:00</time></trkpt><trkpt lat="30.65575981" lon="34.92433548"><ele>482.6</ele><time>2013-11-22T11:42:54.0000000+00:00</time></trkpt><trkpt lat="30.6554966" lon="34.92424774"><ele>477.9</ele><time>2013-11-22T11:42:59.0000000+00:00</time></trkpt><trkpt lat="30.65522575" lon="34.92417145"><ele>478.6</ele><time>2013-11-22T11:43:04.0000000+00:00</time></trkpt><trkpt lat="30.65501785" lon="34.92412186"><ele>480.6</ele><time>2013-11-22T11:43:09.0000000+00:00</time></trkpt><trkpt lat="30.6548214" lon="34.92408371"><ele>482.7</ele><time>2013-11-22T11:43:14.0000000+00:00</time></trkpt><trkpt lat="30.65462685" lon="34.92403412"><ele>481.8</ele><time>2013-11-22T11:43:19.0000000+00:00</time></trkpt><trkpt lat="30.65440178" lon="34.92398453"><ele>482.6</ele><time>2013-11-22T11:43:24.0000000+00:00</time></trkpt><trkpt lat="30.65416718" lon="34.92394638"><ele>483.5</ele><time>2013-11-22T11:43:29.0000000+00:00</time></trkpt><trkpt lat="30.65393639" lon="34.9238739"><ele>484.5</ele><time>2013-11-22T11:43:34.0000000+00:00</time></trkpt><trkpt lat="30.65371132" lon="34.92380905"><ele>485.3</ele><time>2013-11-22T11:43:39.0000000+00:00</time></trkpt><trkpt lat="30.65349579" lon="34.92373276"><ele>486.5</ele><time>2013-11-22T11:43:44.0000000+00:00</time></trkpt><trkpt lat="30.6532898" lon="34.92371368"><ele>489.7</ele><time>2013-11-22T11:43:49.0000000+00:00</time></trkpt><trkpt lat="30.65312004" lon="34.92366028"><ele>490.0</ele><time>2013-11-22T11:43:54.0000000+00:00</time></trkpt><trkpt lat="30.65295219" lon="34.9236145"><ele>490.4</ele><time>2013-11-22T11:43:59.0000000+00:00</time></trkpt><trkpt lat="30.6528244" lon="34.92358017"><ele>490.6</ele><time>2013-11-22T11:44:04.0000000+00:00</time></trkpt><trkpt lat="30.6526947" lon="34.92355728"><ele>489.6</ele><time>2013-11-22T11:44:09.0000000+00:00</time></trkpt><trkpt lat="30.65253258" lon="34.92352295"><ele>488.2</ele><time>2013-11-22T11:44:14.0000000+00:00</time></trkpt><trkpt lat="30.65236855" lon="34.92346954"><ele>485.5</ele><time>2013-11-22T11:44:19.0000000+00:00</time></trkpt><trkpt lat="30.65212631" lon="34.92338944"><ele>480.1</ele><time>2013-11-22T11:44:24.0000000+00:00</time></trkpt><trkpt lat="30.65189743" lon="34.92333984"><ele>483.9</ele><time>2013-11-22T11:44:29.0000000+00:00</time></trkpt><trkpt lat="30.65171051" lon="34.92328262"><ele>484.0</ele><time>2013-11-22T11:44:34.0000000+00:00</time></trkpt><trkpt lat="30.65160179" lon="34.92324066"><ele>480.8</ele><time>2013-11-22T11:44:39.0000000+00:00</time></trkpt><trkpt lat="30.65159798" lon="34.92323685"><ele>479.5</ele><time>2013-11-22T11:44:44.0000000+00:00</time></trkpt><trkpt lat="30.65159798" lon="34.92323685"><ele>479.5</ele><time>2013-11-22T11:44:49.0000000+00:00</time></trkpt><trkpt lat="30.65153313" lon="34.92322159"><ele>478.5</ele><time>2013-11-22T11:44:54.0000000+00:00</time></trkpt><trkpt lat="30.6513176" lon="34.92316437"><ele>475.4</ele><time>2013-11-22T11:44:59.0000000+00:00</time></trkpt><trkpt lat="30.65102768" lon="34.92308044"><ele>473.7</ele><time>2013-11-22T11:45:04.0000000+00:00</time></trkpt><trkpt lat="30.6507473" lon="34.92301559"><ele>472.2</ele><time>2013-11-22T11:45:09.0000000+00:00</time></trkpt><trkpt lat="30.65050507" lon="34.92295837"><ele>471.6</ele><time>2013-11-22T11:45:14.0000000+00:00</time></trkpt><trkpt lat="30.65031242" lon="34.92290878"><ele>471.4</ele><time>2013-11-22T11:45:19.0000000+00:00</time></trkpt><trkpt lat="30.65014839" lon="34.92285538"><ele>471.6</ele><time>2013-11-22T11:45:24.0000000+00:00</time></trkpt><trkpt lat="30.64994431" lon="34.92281342"><ele>471.7</ele><time>2013-11-22T11:45:29.0000000+00:00</time></trkpt><trkpt lat="30.64973068" lon="34.92275238"><ele>471.5</ele><time>2013-11-22T11:45:34.0000000+00:00</time></trkpt><trkpt lat="30.64954186" lon="34.92271042"><ele>472.0</ele><time>2013-11-22T11:45:39.0000000+00:00</time></trkpt><trkpt lat="30.64935494" lon="34.92266083"><ele>473.0</ele><time>2013-11-22T11:45:44.0000000+00:00</time></trkpt><trkpt lat="30.64916611" lon="34.92261887"><ele>474.4</ele><time>2013-11-22T11:45:49.0000000+00:00</time></trkpt><trkpt lat="30.64900208" lon="34.92256546"><ele>475.7</ele><time>2013-11-22T11:45:54.0000000+00:00</time></trkpt><trkpt lat="30.64887238" lon="34.92253113"><ele>475.9</ele><time>2013-11-22T11:45:59.0000000+00:00</time></trkpt><trkpt lat="30.64873505" lon="34.9224968"><ele>475.8</ele><time>2013-11-22T11:46:04.0000000+00:00</time></trkpt><trkpt lat="30.6485424" lon="34.92243576"><ele>473.6</ele><time>2013-11-22T11:46:09.0000000+00:00</time></trkpt><trkpt lat="30.64819908" lon="34.92234421"><ele>472.6</ele><time>2013-11-22T11:46:14.0000000+00:00</time></trkpt><trkpt lat="30.64784432" lon="34.92223358"><ele>471.0</ele><time>2013-11-22T11:46:19.0000000+00:00</time></trkpt><trkpt lat="30.64753342" lon="34.92214584"><ele>471.0</ele><time>2013-11-22T11:46:24.0000000+00:00</time></trkpt><trkpt lat="30.6472683" lon="34.92207718"><ele>470.0</ele><time>2013-11-22T11:46:29.0000000+00:00</time></trkpt><trkpt lat="30.6470089" lon="34.92201233"><ele>467.3</ele><time>2013-11-22T11:46:34.0000000+00:00</time></trkpt><trkpt lat="30.64676666" lon="34.92193222"><ele>464.1</ele><time>2013-11-22T11:46:39.0000000+00:00</time></trkpt><trkpt lat="30.64651489" lon="34.92185211"><ele>462.5</ele><time>2013-11-22T11:46:44.0000000+00:00</time></trkpt><trkpt lat="30.64625168" lon="34.92176437"><ele>462.0</ele><time>2013-11-22T11:46:49.0000000+00:00</time></trkpt><trkpt lat="30.64599419" lon="34.92167664"><ele>461.1</ele><time>2013-11-22T11:46:54.0000000+00:00</time></trkpt><trkpt lat="30.64572525" lon="34.92159653"><ele>458.7</ele><time>2013-11-22T11:46:59.0000000+00:00</time></trkpt><trkpt lat="30.6454792" lon="34.92152023"><ele>459.0</ele><time>2013-11-22T11:47:04.0000000+00:00</time></trkpt><trkpt lat="30.6452179" lon="34.92144394"><ele>456.6</ele><time>2013-11-22T11:47:09.0000000+00:00</time></trkpt><trkpt lat="30.64498711" lon="34.92139435"><ele>458.2</ele><time>2013-11-22T11:47:14.0000000+00:00</time></trkpt><trkpt lat="30.64477539" lon="34.92133713"><ele>459.3</ele><time>2013-11-22T11:47:19.0000000+00:00</time></trkpt><trkpt lat="30.64454269" lon="34.9213028"><ele>459.9</ele><time>2013-11-22T11:47:24.0000000+00:00</time></trkpt><trkpt lat="30.64431953" lon="34.9212532"><ele>461.2</ele><time>2013-11-22T11:47:29.0000000+00:00</time></trkpt><trkpt lat="30.64416885" lon="34.92124939"><ele>463.1</ele><time>2013-11-22T11:47:34.0000000+00:00</time></trkpt><trkpt lat="30.64404678" lon="34.92120361"><ele>461.5</ele><time>2013-11-22T11:47:39.0000000+00:00</time></trkpt><trkpt lat="30.64388084" lon="34.92117691"><ele>461.8</ele><time>2013-11-22T11:47:44.0000000+00:00</time></trkpt><trkpt lat="30.64367485" lon="34.92114258"><ele>461.9</ele><time>2013-11-22T11:47:49.0000000+00:00</time></trkpt><trkpt lat="30.64346695" lon="34.92112351"><ele>463.1</ele><time>2013-11-22T11:47:54.0000000+00:00</time></trkpt><trkpt lat="30.64325142" lon="34.92112732"><ele>463.2</ele><time>2013-11-22T11:47:59.0000000+00:00</time></trkpt><trkpt lat="30.64305496" lon="34.92111206"><ele>462.7</ele><time>2013-11-22T11:48:04.0000000+00:00</time></trkpt><trkpt lat="30.64283943" lon="34.92112351"><ele>463.4</ele><time>2013-11-22T11:48:09.0000000+00:00</time></trkpt><trkpt lat="30.64261818" lon="34.92112732"><ele>463.7</ele><time>2013-11-22T11:48:14.0000000+00:00</time></trkpt><trkpt lat="30.64241982" lon="34.92113113"><ele>463.2</ele><time>2013-11-22T11:48:19.0000000+00:00</time></trkpt><trkpt lat="30.64222145" lon="34.92110062"><ele>461.3</ele><time>2013-11-22T11:48:24.0000000+00:00</time></trkpt><trkpt lat="30.64198494" lon="34.92105103"><ele>460.4</ele><time>2013-11-22T11:48:29.0000000+00:00</time></trkpt><trkpt lat="30.64175224" lon="34.92102432"><ele>461.2</ele><time>2013-11-22T11:48:34.0000000+00:00</time></trkpt><trkpt lat="30.6415081" lon="34.92099762"><ele>460.4</ele><time>2013-11-22T11:48:39.0000000+00:00</time></trkpt><trkpt lat="30.64125061" lon="34.92097473"><ele>460.2</ele><time>2013-11-22T11:48:44.0000000+00:00</time></trkpt><trkpt lat="30.64101219" lon="34.92095184"><ele>458.5</ele><time>2013-11-22T11:48:49.0000000+00:00</time></trkpt><trkpt lat="30.6408062" lon="34.92094803"><ele>457.3</ele><time>2013-11-22T11:48:54.0000000+00:00</time></trkpt><trkpt lat="30.64060783" lon="34.92092896"><ele>457.2</ele><time>2013-11-22T11:48:59.0000000+00:00</time></trkpt><trkpt lat="30.64039803" lon="34.92088699"><ele>456.8</ele><time>2013-11-22T11:49:04.0000000+00:00</time></trkpt><trkpt lat="30.64016342" lon="34.92084503"><ele>457.5</ele><time>2013-11-22T11:49:09.0000000+00:00</time></trkpt><trkpt lat="30.63993645" lon="34.9208374"><ele>457.9</ele><time>2013-11-22T11:49:14.0000000+00:00</time></trkpt><trkpt lat="30.63971901" lon="34.92084122"><ele>458.4</ele><time>2013-11-22T11:49:19.0000000+00:00</time></trkpt><trkpt lat="30.63955307" lon="34.92082977"><ele>458.1</ele><time>2013-11-22T11:49:24.0000000+00:00</time></trkpt><trkpt lat="30.63942337" lon="34.92079544"><ele>459.3</ele><time>2013-11-22T11:49:29.0000000+00:00</time></trkpt><trkpt lat="30.6392498" lon="34.92075729"><ele>459.8</ele><time>2013-11-22T11:49:34.0000000+00:00</time></trkpt><trkpt lat="30.6390419" lon="34.92071152"><ele>459.6</ele><time>2013-11-22T11:49:39.0000000+00:00</time></trkpt><trkpt lat="30.63889122" lon="34.92065811"><ele>460.8</ele><time>2013-11-22T11:49:44.0000000+00:00</time></trkpt><trkpt lat="30.63870049" lon="34.92064285"><ele>460.7</ele><time>2013-11-22T11:49:49.0000000+00:00</time></trkpt><trkpt lat="30.63847351" lon="34.92060089"><ele>459.8</ele><time>2013-11-22T11:49:54.0000000+00:00</time></trkpt><trkpt lat="30.63824844" lon="34.92057037"><ele>458.8</ele><time>2013-11-22T11:49:59.0000000+00:00</time></trkpt><trkpt lat="30.63800812" lon="34.92054367"><ele>458.3</ele><time>2013-11-22T11:50:04.0000000+00:00</time></trkpt><trkpt lat="30.6377945" lon="34.92055893"><ele>457.7</ele><time>2013-11-22T11:50:09.0000000+00:00</time></trkpt><trkpt lat="30.63759041" lon="34.92053986"><ele>457.1</ele><time>2013-11-22T11:50:14.0000000+00:00</time></trkpt><trkpt lat="30.63744354" lon="34.92061615"><ele>457.4</ele><time>2013-11-22T11:50:19.0000000+00:00</time></trkpt><trkpt lat="30.63731575" lon="34.92066956"><ele>455.0</ele><time>2013-11-22T11:50:24.0000000+00:00</time></trkpt><trkpt lat="30.6372242" lon="34.92065048"><ele>454.9</ele><time>2013-11-22T11:50:29.0000000+00:00</time></trkpt><trkpt lat="30.63713074" lon="34.92063141"><ele>456.2</ele><time>2013-11-22T11:50:34.0000000+00:00</time></trkpt><trkpt lat="30.63705063" lon="34.92062759"><ele>457.8</ele><time>2013-11-22T11:50:39.0000000+00:00</time></trkpt><trkpt lat="30.63695335" lon="34.92060471"><ele>453.5</ele><time>2013-11-22T11:50:44.0000000+00:00</time></trkpt><trkpt lat="30.63683891" lon="34.920578"><ele>450.1</ele><time>2013-11-22T11:50:49.0000000+00:00</time></trkpt><trkpt lat="30.63670921" lon="34.92057037"><ele>450.3</ele><time>2013-11-22T11:50:54.0000000+00:00</time></trkpt><trkpt lat="30.63653755" lon="34.92055893"><ele>450.7</ele><time>2013-11-22T11:50:59.0000000+00:00</time></trkpt><trkpt lat="30.63636398" lon="34.92057419"><ele>451.1</ele><time>2013-11-22T11:51:04.0000000+00:00</time></trkpt><trkpt lat="30.63620186" lon="34.92058182"><ele>452.5</ele><time>2013-11-22T11:51:09.0000000+00:00</time></trkpt><trkpt lat="30.63600731" lon="34.92053986"><ele>449.1</ele><time>2013-11-22T11:51:14.0000000+00:00</time></trkpt><trkpt lat="30.635746" lon="34.92054749"><ele>446.4</ele><time>2013-11-22T11:51:19.0000000+00:00</time></trkpt><trkpt lat="30.63545227" lon="34.92057037"><ele>445.5</ele><time>2013-11-22T11:51:24.0000000+00:00</time></trkpt><trkpt lat="30.63515282" lon="34.92058182"><ele>437.2</ele><time>2013-11-22T11:51:29.0000000+00:00</time></trkpt><trkpt lat="30.63489723" lon="34.92059326"><ele>438.9</ele><time>2013-11-22T11:51:34.0000000+00:00</time></trkpt><trkpt lat="30.6346817" lon="34.92059326"><ele>440.0</ele><time>2013-11-22T11:51:39.0000000+00:00</time></trkpt><trkpt lat="30.63444519" lon="34.92059708"><ele>441.2</ele><time>2013-11-22T11:51:44.0000000+00:00</time></trkpt><trkpt lat="30.63422775" lon="34.92060471"><ele>441.2</ele><time>2013-11-22T11:51:49.0000000+00:00</time></trkpt><trkpt lat="30.6340332" lon="34.92060852"><ele>442.5</ele><time>2013-11-22T11:51:54.0000000+00:00</time></trkpt><trkpt lat="30.63384438" lon="34.92061615"><ele>442.9</ele><time>2013-11-22T11:51:59.0000000+00:00</time></trkpt><trkpt lat="30.63361549" lon="34.92061615"><ele>440.1</ele><time>2013-11-22T11:52:04.0000000+00:00</time></trkpt><trkpt lat="30.63339043" lon="34.92061997"><ele>439.1</ele><time>2013-11-22T11:52:09.0000000+00:00</time></trkpt><trkpt lat="30.63317108" lon="34.92061615"><ele>439.9</ele><time>2013-11-22T11:52:14.0000000+00:00</time></trkpt><trkpt lat="30.63297463" lon="34.92061234"><ele>440.9</ele><time>2013-11-22T11:52:19.0000000+00:00</time></trkpt><trkpt lat="30.63279533" lon="34.92062378"><ele>439.4</ele><time>2013-11-22T11:52:24.0000000+00:00</time></trkpt><trkpt lat="30.63259697" lon="34.92060852"><ele>441.4</ele><time>2013-11-22T11:52:29.0000000+00:00</time></trkpt><trkpt lat="30.63238716" lon="34.92062378"><ele>442.5</ele><time>2013-11-22T11:52:34.0000000+00:00</time></trkpt><trkpt lat="30.63220978" lon="34.92065048"><ele>443.9</ele><time>2013-11-22T11:52:39.0000000+00:00</time></trkpt><trkpt lat="30.6321106" lon="34.92070007"><ele>442.9</ele><time>2013-11-22T11:52:44.0000000+00:00</time></trkpt><trkpt lat="30.63203239" lon="34.92071152"><ele>443.6</ele><time>2013-11-22T11:52:49.0000000+00:00</time></trkpt><trkpt lat="30.63193893" lon="34.92072296"><ele>442.0</ele><time>2013-11-22T11:52:54.0000000+00:00</time></trkpt><trkpt lat="30.63184929" lon="34.92071533"><ele>441.1</ele><time>2013-11-22T11:52:59.0000000+00:00</time></trkpt><trkpt lat="30.63169289" lon="34.92073059"><ele>441.5</ele><time>2013-11-22T11:53:04.0000000+00:00</time></trkpt><trkpt lat="30.63147354" lon="34.92076492"><ele>440.9</ele><time>2013-11-22T11:53:09.0000000+00:00</time></trkpt><trkpt lat="30.6312542" lon="34.92078018"><ele>440.0</ele><time>2013-11-22T11:53:14.0000000+00:00</time></trkpt><trkpt lat="30.63107872" lon="34.92078781"><ele>439.0</ele><time>2013-11-22T11:53:19.0000000+00:00</time></trkpt><trkpt lat="30.63091278" lon="34.92078018"><ele>439.1</ele><time>2013-11-22T11:53:24.0000000+00:00</time></trkpt><trkpt lat="30.63074493" lon="34.92077255"><ele>439.5</ele><time>2013-11-22T11:53:29.0000000+00:00</time></trkpt><trkpt lat="30.63059044" lon="34.92079163"><ele>440.1</ele><time>2013-11-22T11:53:34.0000000+00:00</time></trkpt><trkpt lat="30.63043213" lon="34.92079544"><ele>441.0</ele><time>2013-11-22T11:53:39.0000000+00:00</time></trkpt><trkpt lat="30.63027382" lon="34.9208107"><ele>441.5</ele><time>2013-11-22T11:53:44.0000000+00:00</time></trkpt><trkpt lat="30.63018608" lon="34.92080689"><ele>440.9</ele><time>2013-11-22T11:53:49.0000000+00:00</time></trkpt><trkpt lat="30.63009262" lon="34.92078781"><ele>443.3</ele><time>2013-11-22T11:53:54.0000000+00:00</time></trkpt><trkpt lat="30.62994766" lon="34.92079926"><ele>444.2</ele><time>2013-11-22T11:53:59.0000000+00:00</time></trkpt><trkpt lat="30.62983131" lon="34.92080307"><ele>445.0</ele><time>2013-11-22T11:54:04.0000000+00:00</time></trkpt><trkpt lat="30.62968636" lon="34.92080689"><ele>445.1</ele><time>2013-11-22T11:54:09.0000000+00:00</time></trkpt><trkpt lat="30.62950897" lon="34.92079926"><ele>444.2</ele><time>2013-11-22T11:54:14.0000000+00:00</time></trkpt><trkpt lat="30.62931442" lon="34.92080689"><ele>443.6</ele><time>2013-11-22T11:54:19.0000000+00:00</time></trkpt><trkpt lat="30.6291275" lon="34.92082214"><ele>442.1</ele><time>2013-11-22T11:54:24.0000000+00:00</time></trkpt><trkpt lat="30.62893677" lon="34.92084122"><ele>440.3</ele><time>2013-11-22T11:54:29.0000000+00:00</time></trkpt><trkpt lat="30.62888336" lon="34.92082596"><ele>440.5</ele><time>2013-11-22T11:54:34.0000000+00:00</time></trkpt><trkpt lat="30.62888527" lon="34.92082596"><ele>440.5</ele><time>2013-11-22T11:54:39.0000000+00:00</time></trkpt><trkpt lat="30.62888527" lon="34.92082596"><ele>440.4</ele><time>2013-11-22T11:54:44.0000000+00:00</time></trkpt><trkpt lat="30.62888527" lon="34.92082596"><ele>440.4</ele><time>2013-11-22T11:54:49.0000000+00:00</time></trkpt><trkpt lat="30.62888718" lon="34.92082596"><ele>440.6</ele><time>2013-11-22T11:54:54.0000000+00:00</time></trkpt><trkpt lat="30.62888718" lon="34.92082596"><ele>440.5</ele><time>2013-11-22T11:54:59.0000000+00:00</time></trkpt><trkpt lat="30.62888718" lon="34.92082214"><ele>440.5</ele><time>2013-11-22T11:55:04.0000000+00:00</time></trkpt><trkpt lat="30.62888336" lon="34.92082214"><ele>440.6</ele><time>2013-11-22T11:55:09.0000000+00:00</time></trkpt><trkpt lat="30.62888527" lon="34.92082214"><ele>440.6</ele><time>2013-11-22T11:55:14.0000000+00:00</time></trkpt><trkpt lat="30.62888527" lon="34.92081833"><ele>440.6</ele><time>2013-11-22T11:55:19.0000000+00:00</time></trkpt><trkpt lat="30.62888527" lon="34.92081833"><ele>440.6</ele><time>2013-11-22T11:55:24.0000000+00:00</time></trkpt><trkpt lat="30.62888527" lon="34.92081833"><ele>440.6</ele><time>2013-11-22T11:55:29.0000000+00:00</time></trkpt><trkpt lat="30.62888527" lon="34.92081833"><ele>440.6</ele><time>2013-11-22T11:55:34.0000000+00:00</time></trkpt><trkpt lat="30.62888718" lon="34.92081833"><ele>440.6</ele><time>2013-11-22T11:55:39.0000000+00:00</time></trkpt><trkpt lat="30.62888908" lon="34.92081833"><ele>440.7</ele><time>2013-11-22T11:55:44.0000000+00:00</time></trkpt><trkpt lat="30.62888336" lon="34.92081451"><ele>442.0</ele><time>2013-11-22T11:55:49.0000000+00:00</time></trkpt><trkpt lat="30.62887955" lon="34.9208107"><ele>443.5</ele><time>2013-11-22T11:55:54.0000000+00:00</time></trkpt><trkpt lat="30.62887764" lon="34.92080689"><ele>444.4</ele><time>2013-11-22T11:55:59.0000000+00:00</time></trkpt><trkpt lat="30.62887573" lon="34.92080689"><ele>444.7</ele><time>2013-11-22T11:56:04.0000000+00:00</time></trkpt><trkpt lat="30.62887383" lon="34.92080689"><ele>445.4</ele><time>2013-11-22T11:56:09.0000000+00:00</time></trkpt><trkpt lat="30.62885284" lon="34.92081451"><ele>445.8</ele><time>2013-11-22T11:56:14.0000000+00:00</time></trkpt><trkpt lat="30.62877464" lon="34.92082214"><ele>445.4</ele><time>2013-11-22T11:56:19.0000000+00:00</time></trkpt><trkpt lat="30.62865639" lon="34.92082977"><ele>444.0</ele><time>2013-11-22T11:56:24.0000000+00:00</time></trkpt><trkpt lat="30.62848091" lon="34.92084122"><ele>441.9</ele><time>2013-11-22T11:56:29.0000000+00:00</time></trkpt><trkpt lat="30.62831116" lon="34.92084122"><ele>440.5</ele><time>2013-11-22T11:56:34.0000000+00:00</time></trkpt><trkpt lat="30.62813759" lon="34.92085266"><ele>439.3</ele><time>2013-11-22T11:56:39.0000000+00:00</time></trkpt><trkpt lat="30.62800026" lon="34.92085648"><ele>441.0</ele><time>2013-11-22T11:56:44.0000000+00:00</time></trkpt><trkpt lat="30.62786675" lon="34.92086411"><ele>442.0</ele><time>2013-11-22T11:56:49.0000000+00:00</time></trkpt><trkpt lat="30.62771416" lon="34.92087174"><ele>440.4</ele><time>2013-11-22T11:56:54.0000000+00:00</time></trkpt><trkpt lat="30.6275425" lon="34.92088699"><ele>437.7</ele><time>2013-11-22T11:56:59.0000000+00:00</time></trkpt><trkpt lat="30.62736893" lon="34.92090225"><ele>438.5</ele><time>2013-11-22T11:57:04.0000000+00:00</time></trkpt><trkpt lat="30.62718391" lon="34.92091751"><ele>436.9</ele><time>2013-11-22T11:57:09.0000000+00:00</time></trkpt><trkpt lat="30.62699127" lon="34.92093277"><ele>436.4</ele><time>2013-11-22T11:57:14.0000000+00:00</time></trkpt><trkpt lat="30.62679291" lon="34.92094421"><ele>436.1</ele><time>2013-11-22T11:57:19.0000000+00:00</time></trkpt><trkpt lat="30.62657547" lon="34.92094421"><ele>435.3</ele><time>2013-11-22T11:57:24.0000000+00:00</time></trkpt><trkpt lat="30.6263752" lon="34.92095566"><ele>436.2</ele><time>2013-11-22T11:57:29.0000000+00:00</time></trkpt><trkpt lat="30.62617111" lon="34.92096329"><ele>435.6</ele><time>2013-11-22T11:57:34.0000000+00:00</time></trkpt><trkpt lat="30.62603378" lon="34.92097473"><ele>436.7</ele><time>2013-11-22T11:57:39.0000000+00:00</time></trkpt><trkpt lat="30.62594986" lon="34.92098618"><ele>438.6</ele><time>2013-11-22T11:57:44.0000000+00:00</time></trkpt><trkpt lat="30.62583351" lon="34.92098999"><ele>439.1</ele><time>2013-11-22T11:57:49.0000000+00:00</time></trkpt><trkpt lat="30.62570953" lon="34.92098618"><ele>439.6</ele><time>2013-11-22T11:57:54.0000000+00:00</time></trkpt><trkpt lat="30.62555885" lon="34.92099762"><ele>440.5</ele><time>2013-11-22T11:57:59.0000000+00:00</time></trkpt><trkpt lat="30.62542915" lon="34.92101288"><ele>440.6</ele><time>2013-11-22T11:58:04.0000000+00:00</time></trkpt><trkpt lat="30.62528801" lon="34.92101669"><ele>441.2</ele><time>2013-11-22T11:58:09.0000000+00:00</time></trkpt><trkpt lat="30.62513161" lon="34.92101669"><ele>441.3</ele><time>2013-11-22T11:58:14.0000000+00:00</time></trkpt><trkpt lat="30.6249485" lon="34.92102432"><ele>441.2</ele><time>2013-11-22T11:58:19.0000000+00:00</time></trkpt><trkpt lat="30.62478638" lon="34.92103195"><ele>441.5</ele><time>2013-11-22T11:58:24.0000000+00:00</time></trkpt><trkpt lat="30.62462807" lon="34.9210434"><ele>440.8</ele><time>2013-11-22T11:58:29.0000000+00:00</time></trkpt><trkpt lat="30.62450409" lon="34.92105103"><ele>440.4</ele><time>2013-11-22T11:58:34.0000000+00:00</time></trkpt><trkpt lat="30.62436104" lon="34.9210434"><ele>440.1</ele><time>2013-11-22T11:58:39.0000000+00:00</time></trkpt><trkpt lat="30.62413788" lon="34.92105866"><ele>438.1</ele><time>2013-11-22T11:58:44.0000000+00:00</time></trkpt><trkpt lat="30.62391281" lon="34.9210701"><ele>436.9</ele><time>2013-11-22T11:58:49.0000000+00:00</time></trkpt><trkpt lat="30.62365723" lon="34.92108536"><ele>436.2</ele><time>2013-11-22T11:58:54.0000000+00:00</time></trkpt><trkpt lat="30.62342644" lon="34.92109299"><ele>435.0</ele><time>2013-11-22T11:58:59.0000000+00:00</time></trkpt><trkpt lat="30.62317085" lon="34.92110062"><ele>434.5</ele><time>2013-11-22T11:59:04.0000000+00:00</time></trkpt><trkpt lat="30.62293816" lon="34.9210968"><ele>434.0</ele><time>2013-11-22T11:59:09.0000000+00:00</time></trkpt><trkpt lat="30.62269402" lon="34.92111206"><ele>433.5</ele><time>2013-11-22T11:59:14.0000000+00:00</time></trkpt><trkpt lat="30.62245178" lon="34.92113113"><ele>432.7</ele><time>2013-11-22T11:59:19.0000000+00:00</time></trkpt><trkpt lat="30.62221718" lon="34.92115021"><ele>432.8</ele><time>2013-11-22T11:59:24.0000000+00:00</time></trkpt><trkpt lat="30.62199974" lon="34.92113495"><ele>432.0</ele><time>2013-11-22T11:59:29.0000000+00:00</time></trkpt><trkpt lat="30.62179565" lon="34.9210968"><ele>432.6</ele><time>2013-11-22T11:59:34.0000000+00:00</time></trkpt><trkpt lat="30.62158585" lon="34.9210434"><ele>433.1</ele><time>2013-11-22T11:59:39.0000000+00:00</time></trkpt><trkpt lat="30.62140083" lon="34.92098618"><ele>435.0</ele><time>2013-11-22T11:59:44.0000000+00:00</time></trkpt><trkpt lat="30.62129402" lon="34.92093277"><ele>434.0</ele><time>2013-11-22T11:59:49.0000000+00:00</time></trkpt><trkpt lat="30.62118721" lon="34.92086029"><ele>433.6</ele><time>2013-11-22T11:59:54.0000000+00:00</time></trkpt><trkpt lat="30.62104797" lon="34.92079544"><ele>432.4</ele><time>2013-11-22T11:59:59.0000000+00:00</time></trkpt><trkpt lat="30.62088394" lon="34.92072296"><ele>432.5</ele><time>2013-11-22T12:00:04.0000000+00:00</time></trkpt><trkpt lat="30.62080574" lon="34.92059708"><ele>429.6</ele><time>2013-11-22T12:00:09.0000000+00:00</time></trkpt><trkpt lat="30.62085342" lon="34.92044449"><ele>427.7</ele><time>2013-11-22T12:00:14.0000000+00:00</time></trkpt><trkpt lat="30.620924" lon="34.92028809"><ele>425.9</ele><time>2013-11-22T12:00:19.0000000+00:00</time></trkpt><trkpt lat="30.6209774" lon="34.92016983"><ele>425.4</ele><time>2013-11-22T12:00:24.0000000+00:00</time></trkpt><trkpt lat="30.62101364" lon="34.92008591"><ele>424.8</ele><time>2013-11-22T12:00:29.0000000+00:00</time></trkpt><trkpt lat="30.62100601" lon="34.92002106"><ele>427.2</ele><time>2013-11-22T12:00:34.0000000+00:00</time></trkpt><trkpt lat="30.62092781" lon="34.91998673"><ele>430.3</ele><time>2013-11-22T12:00:39.0000000+00:00</time></trkpt><trkpt lat="30.62084198" lon="34.91992569"><ele>429.8</ele><time>2013-11-22T12:00:44.0000000+00:00</time></trkpt><trkpt lat="30.62072563" lon="34.91986466"><ele>431.4</ele><time>2013-11-22T12:00:49.0000000+00:00</time></trkpt><trkpt lat="30.6205864" lon="34.91981888"><ele>431.9</ele><time>2013-11-22T12:00:54.0000000+00:00</time></trkpt><trkpt lat="30.62044525" lon="34.91978455"><ele>433.9</ele><time>2013-11-22T12:00:59.0000000+00:00</time></trkpt><trkpt lat="30.62029266" lon="34.91976547"><ele>434.1</ele><time>2013-11-22T12:01:04.0000000+00:00</time></trkpt><trkpt lat="30.62017822" lon="34.91976166"><ele>434.6</ele><time>2013-11-22T12:01:09.0000000+00:00</time></trkpt><trkpt lat="30.62004089" lon="34.91973496"><ele>434.8</ele><time>2013-11-22T12:01:14.0000000+00:00</time></trkpt><trkpt lat="30.6199646" lon="34.91976547"><ele>435.5</ele><time>2013-11-22T12:01:19.0000000+00:00</time></trkpt><trkpt lat="30.61990738" lon="34.91978455"><ele>436.9</ele><time>2013-11-22T12:01:24.0000000+00:00</time></trkpt><trkpt lat="30.61991119" lon="34.91983414"><ele>437.9</ele><time>2013-11-22T12:01:29.0000000+00:00</time></trkpt><trkpt lat="30.61996841" lon="34.91984177"><ele>438.2</ele><time>2013-11-22T12:01:34.0000000+00:00</time></trkpt><trkpt lat="30.61995506" lon="34.91983032"><ele>438.1</ele><time>2013-11-22T12:01:39.0000000+00:00</time></trkpt><trkpt lat="30.61995506" lon="34.91983032"><ele>437.9</ele><time>2013-11-22T12:01:44.0000000+00:00</time></trkpt><trkpt lat="30.61995506" lon="34.91983032"><ele>437.8</ele><time>2013-11-22T12:01:49.0000000+00:00</time></trkpt><trkpt lat="30.61995506" lon="34.91983032"><ele>437.8</ele><time>2013-11-22T12:01:54.0000000+00:00</time></trkpt><trkpt lat="30.61995506" lon="34.91983032"><ele>437.8</ele><time>2013-11-22T12:01:59.0000000+00:00</time></trkpt><trkpt lat="30.61995506" lon="34.91983032"><ele>437.8</ele><time>2013-11-22T12:02:04.0000000+00:00</time></trkpt><trkpt lat="30.61995506" lon="34.91983032"><ele>437.9</ele><time>2013-11-22T12:02:09.0000000+00:00</time></trkpt><trkpt lat="30.61995506" lon="34.91983032"><ele>437.9</ele><time>2013-11-22T12:02:14.0000000+00:00</time></trkpt><trkpt lat="30.61995506" lon="34.91983032"><ele>437.9</ele><time>2013-11-22T12:02:19.0000000+00:00</time></trkpt><trkpt lat="30.61995506" lon="34.91983032"><ele>437.9</ele><time>2013-11-22T12:02:24.0000000+00:00</time></trkpt><trkpt lat="30.61995506" lon="34.91983032"><ele>437.9</ele><time>2013-11-22T12:02:29.0000000+00:00</time></trkpt><trkpt lat="30.61995506" lon="34.91983032"><ele>437.9</ele><time>2013-11-22T12:02:34.0000000+00:00</time></trkpt><trkpt lat="30.61995506" lon="34.91983032"><ele>437.9</ele><time>2013-11-22T12:02:39.0000000+00:00</time></trkpt><trkpt lat="30.61995506" lon="34.91983032"><ele>437.9</ele><time>2013-11-22T12:02:44.0000000+00:00</time></trkpt><trkpt lat="30.61995506" lon="34.91983032"><ele>438.0</ele><time>2013-11-22T12:02:49.0000000+00:00</time></trkpt><trkpt lat="30.61995506" lon="34.91983032"><ele>438.0</ele><time>2013-11-22T12:02:54.0000000+00:00</time></trkpt><trkpt lat="30.61995506" lon="34.91983032"><ele>438.0</ele><time>2013-11-22T12:02:59.0000000+00:00</time></trkpt><trkpt lat="30.61995506" lon="34.91983032"><ele>438.0</ele><time>2013-11-22T12:03:04.0000000+00:00</time></trkpt><trkpt lat="30.61995506" lon="34.91983032"><ele>438.0</ele><time>2013-11-22T12:03:09.0000000+00:00</time></trkpt><trkpt lat="30.61995506" lon="34.91983032"><ele>438.0</ele><time>2013-11-22T12:03:14.0000000+00:00</time></trkpt><trkpt lat="30.61995506" lon="34.91983032"><ele>438.0</ele><time>2013-11-22T12:03:19.0000000+00:00</time></trkpt><trkpt lat="30.61995506" lon="34.91983032"><ele>438.0</ele><time>2013-11-22T12:03:24.0000000+00:00</time></trkpt><trkpt lat="30.61995506" lon="34.91983032"><ele>438.0</ele><time>2013-11-22T12:03:29.0000000+00:00</time></trkpt><trkpt lat="30.61995506" lon="34.91983032"><ele>438.0</ele><time>2013-11-22T12:03:34.0000000+00:00</time></trkpt><trkpt lat="30.61995506" lon="34.91983032"><ele>438.0</ele><time>2013-11-22T12:03:39.0000000+00:00</time></trkpt><trkpt lat="30.61995506" lon="34.91983032"><ele>438.0</ele><time>2013-11-22T12:03:44.0000000+00:00</time></trkpt><trkpt lat="30.61995506" lon="34.91983032"><ele>438.1</ele><time>2013-11-22T12:03:49.0000000+00:00</time></trkpt><trkpt lat="30.61995506" lon="34.91983032"><ele>438.1</ele><time>2013-11-22T12:03:54.0000000+00:00</time></trkpt><trkpt lat="30.61995506" lon="34.91983032"><ele>438.1</ele><time>2013-11-22T12:03:59.0000000+00:00</time></trkpt><trkpt lat="30.61995506" lon="34.91983032"><ele>438.1</ele><time>2013-11-22T12:04:04.0000000+00:00</time></trkpt><trkpt lat="30.61995506" lon="34.91983032"><ele>438.1</ele><time>2013-11-22T12:04:09.0000000+00:00</time></trkpt><trkpt lat="30.61995506" lon="34.91982651"><ele>438.1</ele><time>2013-11-22T12:04:14.0000000+00:00</time></trkpt><trkpt lat="30.61995506" lon="34.91982651"><ele>438.1</ele><time>2013-11-22T12:04:19.0000000+00:00</time></trkpt><trkpt lat="30.61995506" lon="34.91982651"><ele>438.1</ele><time>2013-11-22T12:04:24.0000000+00:00</time></trkpt><trkpt lat="30.61995506" lon="34.91982651"><ele>438.1</ele><time>2013-11-22T12:04:29.0000000+00:00</time></trkpt><trkpt lat="30.61995506" lon="34.91982651"><ele>438.1</ele><time>2013-11-22T12:04:34.0000000+00:00</time></trkpt><trkpt lat="30.61995506" lon="34.91982651"><ele>438.1</ele><time>2013-11-22T12:04:39.0000000+00:00</time></trkpt><trkpt lat="30.61995506" lon="34.91982651"><ele>438.1</ele><time>2013-11-22T12:04:44.0000000+00:00</time></trkpt><trkpt lat="30.61995506" lon="34.91982651"><ele>438.1</ele><time>2013-11-22T12:04:49.0000000+00:00</time></trkpt><trkpt lat="30.61995506" lon="34.91982651"><ele>438.1</ele><time>2013-11-22T12:04:54.0000000+00:00</time></trkpt><trkpt lat="30.61995506" lon="34.91982651"><ele>438.1</ele><time>2013-11-22T12:04:59.0000000+00:00</time></trkpt><trkpt lat="30.61995506" lon="34.91982651"><ele>438.1</ele><time>2013-11-22T12:05:04.0000000+00:00</time></trkpt><trkpt lat="30.61995506" lon="34.91982651"><ele>438.1</ele><time>2013-11-22T12:05:09.0000000+00:00</time></trkpt><trkpt lat="30.61995506" lon="34.91982651"><ele>438.2</ele><time>2013-11-22T12:05:14.0000000+00:00</time></trkpt><trkpt lat="30.61995506" lon="34.91982651"><ele>438.2</ele><time>2013-11-22T12:05:19.0000000+00:00</time></trkpt><trkpt lat="30.61995506" lon="34.91982651"><ele>438.2</ele><time>2013-11-22T12:05:24.0000000+00:00</time></trkpt><trkpt lat="30.61995506" lon="34.91982651"><ele>438.2</ele><time>2013-11-22T12:05:29.0000000+00:00</time></trkpt><trkpt lat="30.61995506" lon="34.91982651"><ele>438.2</ele><time>2013-11-22T12:05:34.0000000+00:00</time></trkpt><trkpt lat="30.61995506" lon="34.91982651"><ele>438.2</ele><time>2013-11-22T12:05:39.0000000+00:00</time></trkpt><trkpt lat="30.61995506" lon="34.91982651"><ele>438.3</ele><time>2013-11-22T12:05:44.0000000+00:00</time></trkpt><trkpt lat="30.61995506" lon="34.91982651"><ele>438.3</ele><time>2013-11-22T12:05:49.0000000+00:00</time></trkpt><trkpt lat="30.61995506" lon="34.91982651"><ele>438.3</ele><time>2013-11-22T12:05:54.0000000+00:00</time></trkpt><trkpt lat="30.61995506" lon="34.91982651"><ele>438.3</ele><time>2013-11-22T12:05:59.0000000+00:00</time></trkpt><trkpt lat="30.61995506" lon="34.91982651"><ele>438.3</ele><time>2013-11-22T12:06:04.0000000+00:00</time></trkpt><trkpt lat="30.61995506" lon="34.91982651"><ele>438.3</ele><time>2013-11-22T12:06:09.0000000+00:00</time></trkpt><trkpt lat="30.61995506" lon="34.91982651"><ele>438.3</ele><time>2013-11-22T12:06:14.0000000+00:00</time></trkpt><trkpt lat="30.61995506" lon="34.91982651"><ele>438.3</ele><time>2013-11-22T12:06:19.0000000+00:00</time></trkpt><trkpt lat="30.61995506" lon="34.91982651"><ele>438.2</ele><time>2013-11-22T12:06:24.0000000+00:00</time></trkpt><trkpt lat="30.61995506" lon="34.91982651"><ele>438.2</ele><time>2013-11-22T12:06:29.0000000+00:00</time></trkpt><trkpt lat="30.61995506" lon="34.91982651"><ele>438.3</ele><time>2013-11-22T12:06:34.0000000+00:00</time></trkpt><trkpt lat="30.61995506" lon="34.91982651"><ele>438.3</ele><time>2013-11-22T12:06:39.0000000+00:00</time></trkpt><trkpt lat="30.61995506" lon="34.91982651"><ele>438.3</ele><time>2013-11-22T12:06:44.0000000+00:00</time></trkpt><trkpt lat="30.61995506" lon="34.91982651"><ele>438.3</ele><time>2013-11-22T12:06:49.0000000+00:00</time></trkpt><trkpt lat="30.61995506" lon="34.91982651"><ele>438.3</ele><time>2013-11-22T12:06:54.0000000+00:00</time></trkpt><trkpt lat="30.61995316" lon="34.91982651"><ele>438.3</ele><time>2013-11-22T12:06:59.0000000+00:00</time></trkpt><trkpt lat="30.61995316" lon="34.91982651"><ele>438.3</ele><time>2013-11-22T12:07:04.0000000+00:00</time></trkpt><trkpt lat="30.61995316" lon="34.91982651"><ele>438.3</ele><time>2013-11-22T12:07:09.0000000+00:00</time></trkpt><trkpt lat="30.61995316" lon="34.91982651"><ele>438.3</ele><time>2013-11-22T12:07:14.0000000+00:00</time></trkpt><trkpt lat="30.61995316" lon="34.91982651"><ele>438.4</ele><time>2013-11-22T12:07:19.0000000+00:00</time></trkpt><trkpt lat="30.61995316" lon="34.91982651"><ele>438.4</ele><time>2013-11-22T12:07:24.0000000+00:00</time></trkpt><trkpt lat="30.61995316" lon="34.91982651"><ele>438.4</ele><time>2013-11-22T12:07:29.0000000+00:00</time></trkpt><trkpt lat="30.61995316" lon="34.91982651"><ele>438.4</ele><time>2013-11-22T12:07:34.0000000+00:00</time></trkpt><trkpt lat="30.61995316" lon="34.91982651"><ele>438.4</ele><time>2013-11-22T12:07:39.0000000+00:00</time></trkpt><trkpt lat="30.61995316" lon="34.91982651"><ele>438.4</ele><time>2013-11-22T12:07:44.0000000+00:00</time></trkpt><trkpt lat="30.61995316" lon="34.91982651"><ele>438.4</ele><time>2013-11-22T12:07:49.0000000+00:00</time></trkpt><trkpt lat="30.61995316" lon="34.91982651"><ele>438.4</ele><time>2013-11-22T12:07:54.0000000+00:00</time></trkpt><trkpt lat="30.61995316" lon="34.91982651"><ele>438.4</ele><time>2013-11-22T12:07:59.0000000+00:00</time></trkpt><trkpt lat="30.61995316" lon="34.91982651"><ele>438.4</ele><time>2013-11-22T12:08:04.0000000+00:00</time></trkpt><trkpt lat="30.61995316" lon="34.91982651"><ele>438.4</ele><time>2013-11-22T12:08:09.0000000+00:00</time></trkpt><trkpt lat="30.61995316" lon="34.91982651"><ele>438.4</ele><time>2013-11-22T12:08:14.0000000+00:00</time></trkpt><trkpt lat="30.61995316" lon="34.91982651"><ele>438.4</ele><time>2013-11-22T12:08:19.0000000+00:00</time></trkpt><trkpt lat="30.61995316" lon="34.91982651"><ele>438.4</ele><time>2013-11-22T12:08:24.0000000+00:00</time></trkpt><trkpt lat="30.61995316" lon="34.91982651"><ele>438.4</ele><time>2013-11-22T12:08:29.0000000+00:00</time></trkpt><trkpt lat="30.61995316" lon="34.91982651"><ele>438.4</ele><time>2013-11-22T12:08:34.0000000+00:00</time></trkpt><trkpt lat="30.61995316" lon="34.91982651"><ele>438.4</ele><time>2013-11-22T12:08:39.0000000+00:00</time></trkpt><trkpt lat="30.61995316" lon="34.91982651"><ele>438.4</ele><time>2013-11-22T12:08:44.0000000+00:00</time></trkpt><trkpt lat="30.61995316" lon="34.91982651"><ele>438.4</ele><time>2013-11-22T12:08:49.0000000+00:00</time></trkpt><trkpt lat="30.61995316" lon="34.91982651"><ele>438.4</ele><time>2013-11-22T12:08:54.0000000+00:00</time></trkpt><trkpt lat="30.61995316" lon="34.91982651"><ele>438.4</ele><time>2013-11-22T12:08:59.0000000+00:00</time></trkpt><trkpt lat="30.61995316" lon="34.91982651"><ele>438.4</ele><time>2013-11-22T12:09:04.0000000+00:00</time></trkpt><trkpt lat="30.61995316" lon="34.91982651"><ele>438.5</ele><time>2013-11-22T12:09:09.0000000+00:00</time></trkpt><trkpt lat="30.61995316" lon="34.91982651"><ele>438.5</ele><time>2013-11-22T12:09:14.0000000+00:00</time></trkpt><trkpt lat="30.61995316" lon="34.91982651"><ele>438.5</ele><time>2013-11-22T12:09:19.0000000+00:00</time></trkpt><trkpt lat="30.61995316" lon="34.91982651"><ele>438.5</ele><time>2013-11-22T12:09:24.0000000+00:00</time></trkpt><trkpt lat="30.61995316" lon="34.91982651"><ele>438.5</ele><time>2013-11-22T12:09:29.0000000+00:00</time></trkpt><trkpt lat="30.61995125" lon="34.91982651"><ele>438.5</ele><time>2013-11-22T12:09:34.0000000+00:00</time></trkpt><trkpt lat="30.61995125" lon="34.91982651"><ele>438.5</ele><time>2013-11-22T12:09:39.0000000+00:00</time></trkpt><trkpt lat="30.61995125" lon="34.91982651"><ele>438.5</ele><time>2013-11-22T12:09:44.0000000+00:00</time></trkpt><trkpt lat="30.61995125" lon="34.91982651"><ele>438.5</ele><time>2013-11-22T12:09:49.0000000+00:00</time></trkpt><trkpt lat="30.61995125" lon="34.91982651"><ele>438.5</ele><time>2013-11-22T12:09:54.0000000+00:00</time></trkpt><trkpt lat="30.61995125" lon="34.91982651"><ele>438.5</ele><time>2013-11-22T12:09:59.0000000+00:00</time></trkpt><trkpt lat="30.61995125" lon="34.91982651"><ele>438.5</ele><time>2013-11-22T12:10:04.0000000+00:00</time></trkpt><trkpt lat="30.61995125" lon="34.91982651"><ele>438.5</ele><time>2013-11-22T12:10:09.0000000+00:00</time></trkpt><trkpt lat="30.61995125" lon="34.91982651"><ele>438.5</ele><time>2013-11-22T12:10:14.0000000+00:00</time></trkpt><trkpt lat="30.61995125" lon="34.91982651"><ele>438.5</ele><time>2013-11-22T12:10:19.0000000+00:00</time></trkpt><trkpt lat="30.61995125" lon="34.91982651"><ele>438.5</ele><time>2013-11-22T12:10:24.0000000+00:00</time></trkpt><trkpt lat="30.61995125" lon="34.91982651"><ele>438.5</ele><time>2013-11-22T12:10:29.0000000+00:00</time></trkpt><trkpt lat="30.61995125" lon="34.91982651"><ele>438.5</ele><time>2013-11-22T12:10:34.0000000+00:00</time></trkpt><trkpt lat="30.61995125" lon="34.91982651"><ele>438.5</ele><time>2013-11-22T12:10:39.0000000+00:00</time></trkpt><trkpt lat="30.61995125" lon="34.91982651"><ele>438.6</ele><time>2013-11-22T12:10:44.0000000+00:00</time></trkpt><trkpt lat="30.61995125" lon="34.91982651"><ele>438.6</ele><time>2013-11-22T12:10:49.0000000+00:00</time></trkpt><trkpt lat="30.61995125" lon="34.91982651"><ele>438.6</ele><time>2013-11-22T12:10:54.0000000+00:00</time></trkpt><trkpt lat="30.61995125" lon="34.91982651"><ele>438.6</ele><time>2013-11-22T12:10:59.0000000+00:00</time></trkpt><trkpt lat="30.61995125" lon="34.91982651"><ele>438.6</ele><time>2013-11-22T12:11:04.0000000+00:00</time></trkpt><trkpt lat="30.61995125" lon="34.91982651"><ele>438.6</ele><time>2013-11-22T12:11:09.0000000+00:00</time></trkpt><trkpt lat="30.61995125" lon="34.91982651"><ele>438.6</ele><time>2013-11-22T12:11:14.0000000+00:00</time></trkpt><trkpt lat="30.61994934" lon="34.91982651"><ele>438.6</ele><time>2013-11-22T12:11:19.0000000+00:00</time></trkpt><trkpt lat="30.61994934" lon="34.91982651"><ele>438.6</ele><time>2013-11-22T12:11:24.0000000+00:00</time></trkpt><trkpt lat="30.61994934" lon="34.91982651"><ele>438.6</ele><time>2013-11-22T12:11:29.0000000+00:00</time></trkpt><trkpt lat="30.61994934" lon="34.91982651"><ele>438.6</ele><time>2013-11-22T12:11:34.0000000+00:00</time></trkpt><trkpt lat="30.61994934" lon="34.91982651"><ele>438.6</ele><time>2013-11-22T12:11:39.0000000+00:00</time></trkpt><trkpt lat="30.61994934" lon="34.91982651"><ele>438.6</ele><time>2013-11-22T12:11:44.0000000+00:00</time></trkpt><trkpt lat="30.61994934" lon="34.91982651"><ele>438.7</ele><time>2013-11-22T12:11:49.0000000+00:00</time></trkpt><trkpt lat="30.61994934" lon="34.91982651"><ele>438.7</ele><time>2013-11-22T12:11:54.0000000+00:00</time></trkpt><trkpt lat="30.61994934" lon="34.91982651"><ele>438.7</ele><time>2013-11-22T12:11:59.0000000+00:00</time></trkpt><trkpt lat="30.61994934" lon="34.91982651"><ele>438.7</ele><time>2013-11-22T12:12:04.0000000+00:00</time></trkpt><trkpt lat="30.61994934" lon="34.91982651"><ele>438.7</ele><time>2013-11-22T12:12:09.0000000+00:00</time></trkpt><trkpt lat="30.61994934" lon="34.91982651"><ele>438.7</ele><time>2013-11-22T12:12:14.0000000+00:00</time></trkpt><trkpt lat="30.61994934" lon="34.91982651"><ele>438.7</ele><time>2013-11-22T12:12:19.0000000+00:00</time></trkpt><trkpt lat="30.61994934" lon="34.91982651"><ele>438.7</ele><time>2013-11-22T12:12:24.0000000+00:00</time></trkpt><trkpt lat="30.61994934" lon="34.91982651"><ele>438.7</ele><time>2013-11-22T12:12:29.0000000+00:00</time></trkpt><trkpt lat="30.61994934" lon="34.91982651"><ele>438.7</ele><time>2013-11-22T12:12:34.0000000+00:00</time></trkpt><trkpt lat="30.61994934" lon="34.91982651"><ele>438.7</ele><time>2013-11-22T12:12:39.0000000+00:00</time></trkpt><trkpt lat="30.61994934" lon="34.91982651"><ele>438.7</ele><time>2013-11-22T12:12:44.0000000+00:00</time></trkpt><trkpt lat="30.61994934" lon="34.91982651"><ele>438.7</ele><time>2013-11-22T12:12:49.0000000+00:00</time></trkpt><trkpt lat="30.61994934" lon="34.91982651"><ele>438.7</ele><time>2013-11-22T12:12:54.0000000+00:00</time></trkpt><trkpt lat="30.61994934" lon="34.91982651"><ele>438.7</ele><time>2013-11-22T12:12:59.0000000+00:00</time></trkpt><trkpt lat="30.61994934" lon="34.91982651"><ele>438.7</ele><time>2013-11-22T12:13:04.0000000+00:00</time></trkpt><trkpt lat="30.61994934" lon="34.91982651"><ele>438.7</ele><time>2013-11-22T12:13:09.0000000+00:00</time></trkpt><trkpt lat="30.61994743" lon="34.91982651"><ele>438.6</ele><time>2013-11-22T12:13:14.0000000+00:00</time></trkpt><trkpt lat="30.61994743" lon="34.91982651"><ele>438.6</ele><time>2013-11-22T12:13:19.0000000+00:00</time></trkpt><trkpt lat="30.61994743" lon="34.91982651"><ele>438.6</ele><time>2013-11-22T12:13:24.0000000+00:00</time></trkpt><trkpt lat="30.61994743" lon="34.91982651"><ele>438.6</ele><time>2013-11-22T12:13:29.0000000+00:00</time></trkpt><trkpt lat="30.61994743" lon="34.91982651"><ele>438.6</ele><time>2013-11-22T12:13:34.0000000+00:00</time></trkpt><trkpt lat="30.61994743" lon="34.91982651"><ele>438.6</ele><time>2013-11-22T12:13:39.0000000+00:00</time></trkpt><trkpt lat="30.61994743" lon="34.91982651"><ele>438.6</ele><time>2013-11-22T12:13:44.0000000+00:00</time></trkpt><trkpt lat="30.61994743" lon="34.91982651"><ele>438.6</ele><time>2013-11-22T12:13:49.0000000+00:00</time></trkpt><trkpt lat="30.61994743" lon="34.91982651"><ele>438.6</ele><time>2013-11-22T12:13:54.0000000+00:00</time></trkpt><trkpt lat="30.61994743" lon="34.91982651"><ele>438.6</ele><time>2013-11-22T12:13:59.0000000+00:00</time></trkpt><trkpt lat="30.61994743" lon="34.91982651"><ele>438.6</ele><time>2013-11-22T12:14:04.0000000+00:00</time></trkpt><trkpt lat="30.61994743" lon="34.91982651"><ele>438.6</ele><time>2013-11-22T12:14:09.0000000+00:00</time></trkpt><trkpt lat="30.61994743" lon="34.91982651"><ele>438.6</ele><time>2013-11-22T12:14:14.0000000+00:00</time></trkpt><trkpt lat="30.61994743" lon="34.91982651"><ele>438.6</ele><time>2013-11-22T12:14:19.0000000+00:00</time></trkpt><trkpt lat="30.61994743" lon="34.91982651"><ele>438.7</ele><time>2013-11-22T12:14:24.0000000+00:00</time></trkpt><trkpt lat="30.61994743" lon="34.91982651"><ele>438.7</ele><time>2013-11-22T12:14:29.0000000+00:00</time></trkpt><trkpt lat="30.61994743" lon="34.91983032"><ele>438.6</ele><time>2013-11-22T12:14:34.0000000+00:00</time></trkpt><trkpt lat="30.61994743" lon="34.91983032"><ele>438.6</ele><time>2013-11-22T12:14:39.0000000+00:00</time></trkpt><trkpt lat="30.61994743" lon="34.91983032"><ele>438.7</ele><time>2013-11-22T12:14:44.0000000+00:00</time></trkpt><trkpt lat="30.61994743" lon="34.91983032"><ele>438.7</ele><time>2013-11-22T12:14:49.0000000+00:00</time></trkpt><trkpt lat="30.61994553" lon="34.91983032"><ele>438.7</ele><time>2013-11-22T12:14:54.0000000+00:00</time></trkpt><trkpt lat="30.61994553" lon="34.91983032"><ele>438.7</ele><time>2013-11-22T12:14:59.0000000+00:00</time></trkpt><trkpt lat="30.61994553" lon="34.91983032"><ele>438.8</ele><time>2013-11-22T12:15:04.0000000+00:00</time></trkpt><trkpt lat="30.61994553" lon="34.91983032"><ele>438.8</ele><time>2013-11-22T12:15:09.0000000+00:00</time></trkpt><trkpt lat="30.61994553" lon="34.91983032"><ele>438.8</ele><time>2013-11-22T12:15:14.0000000+00:00</time></trkpt><trkpt lat="30.61994553" lon="34.91983032"><ele>438.8</ele><time>2013-11-22T12:15:19.0000000+00:00</time></trkpt><trkpt lat="30.61994553" lon="34.91983032"><ele>438.8</ele><time>2013-11-22T12:15:24.0000000+00:00</time></trkpt><trkpt lat="30.61994553" lon="34.91983032"><ele>438.8</ele><time>2013-11-22T12:15:29.0000000+00:00</time></trkpt><trkpt lat="30.61994553" lon="34.91983032"><ele>438.8</ele><time>2013-11-22T12:15:34.0000000+00:00</time></trkpt><trkpt lat="30.61994553" lon="34.91983032"><ele>438.8</ele><time>2013-11-22T12:15:39.0000000+00:00</time></trkpt><trkpt lat="30.61994362" lon="34.91983032"><ele>438.9</ele><time>2013-11-22T12:15:44.0000000+00:00</time></trkpt><trkpt lat="30.61994362" lon="34.91983032"><ele>438.9</ele><time>2013-11-22T12:15:49.0000000+00:00</time></trkpt><trkpt lat="30.61994362" lon="34.91983032"><ele>438.9</ele><time>2013-11-22T12:15:54.0000000+00:00</time></trkpt><trkpt lat="30.61994362" lon="34.91983032"><ele>438.9</ele><time>2013-11-22T12:15:59.0000000+00:00</time></trkpt><trkpt lat="30.61994362" lon="34.91983032"><ele>438.9</ele><time>2013-11-22T12:16:04.0000000+00:00</time></trkpt><trkpt lat="30.61994362" lon="34.91983032"><ele>438.9</ele><time>2013-11-22T12:16:09.0000000+00:00</time></trkpt><trkpt lat="30.61994362" lon="34.91983032"><ele>438.9</ele><time>2013-11-22T12:16:14.0000000+00:00</time></trkpt><trkpt lat="30.61994362" lon="34.91983032"><ele>438.9</ele><time>2013-11-22T12:16:19.0000000+00:00</time></trkpt><trkpt lat="30.61994362" lon="34.91983032"><ele>438.9</ele><time>2013-11-22T12:16:24.0000000+00:00</time></trkpt><trkpt lat="30.61994362" lon="34.91983032"><ele>438.9</ele><time>2013-11-22T12:16:29.0000000+00:00</time></trkpt><trkpt lat="30.61994362" lon="34.91983032"><ele>438.9</ele><time>2013-11-22T12:16:34.0000000+00:00</time></trkpt><trkpt lat="30.61994362" lon="34.91983032"><ele>438.9</ele><time>2013-11-22T12:16:39.0000000+00:00</time></trkpt><trkpt lat="30.61994362" lon="34.91983032"><ele>438.9</ele><time>2013-11-22T12:16:44.0000000+00:00</time></trkpt><trkpt lat="30.61994171" lon="34.91983032"><ele>438.9</ele><time>2013-11-22T12:16:49.0000000+00:00</time></trkpt><trkpt lat="30.61994171" lon="34.91983032"><ele>438.9</ele><time>2013-11-22T12:16:54.0000000+00:00</time></trkpt><trkpt lat="30.61994171" lon="34.91983032"><ele>438.9</ele><time>2013-11-22T12:16:59.0000000+00:00</time></trkpt><trkpt lat="30.61994171" lon="34.91983032"><ele>438.9</ele><time>2013-11-22T12:17:04.0000000+00:00</time></trkpt><trkpt lat="30.61994171" lon="34.91983032"><ele>439.0</ele><time>2013-11-22T12:17:09.0000000+00:00</time></trkpt><trkpt lat="30.61994171" lon="34.91983032"><ele>439.0</ele><time>2013-11-22T12:17:14.0000000+00:00</time></trkpt><trkpt lat="30.61994171" lon="34.91983032"><ele>439.0</ele><time>2013-11-22T12:17:19.0000000+00:00</time></trkpt><trkpt lat="30.61994171" lon="34.91983032"><ele>439.0</ele><time>2013-11-22T12:17:24.0000000+00:00</time></trkpt><trkpt lat="30.61994171" lon="34.91983032"><ele>439.0</ele><time>2013-11-22T12:17:29.0000000+00:00</time></trkpt><trkpt lat="30.61994171" lon="34.91983032"><ele>439.0</ele><time>2013-11-22T12:17:34.0000000+00:00</time></trkpt><trkpt lat="30.61994171" lon="34.91983032"><ele>439.0</ele><time>2013-11-22T12:17:39.0000000+00:00</time></trkpt><trkpt lat="30.61994171" lon="34.91983032"><ele>439.0</ele><time>2013-11-22T12:17:44.0000000+00:00</time></trkpt><trkpt lat="30.61994171" lon="34.91983032"><ele>439.0</ele><time>2013-11-22T12:17:49.0000000+00:00</time></trkpt><trkpt lat="30.61994171" lon="34.91983032"><ele>439.1</ele><time>2013-11-22T12:17:54.0000000+00:00</time></trkpt><trkpt lat="30.61994171" lon="34.91983032"><ele>439.1</ele><time>2013-11-22T12:17:59.0000000+00:00</time></trkpt><trkpt lat="30.61994171" lon="34.91983032"><ele>439.1</ele><time>2013-11-22T12:18:04.0000000+00:00</time></trkpt><trkpt lat="30.61994171" lon="34.91983032"><ele>439.1</ele><time>2013-11-22T12:18:09.0000000+00:00</time></trkpt><trkpt lat="30.61994171" lon="34.91983032"><ele>439.1</ele><time>2013-11-22T12:18:14.0000000+00:00</time></trkpt><trkpt lat="30.61994171" lon="34.91983032"><ele>439.1</ele><time>2013-11-22T12:18:19.0000000+00:00</time></trkpt><trkpt lat="30.6199398" lon="34.91983032"><ele>439.1</ele><time>2013-11-22T12:18:24.0000000+00:00</time></trkpt><trkpt lat="30.6199398" lon="34.91983032"><ele>439.1</ele><time>2013-11-22T12:18:29.0000000+00:00</time></trkpt><trkpt lat="30.6199398" lon="34.91983032"><ele>439.1</ele><time>2013-11-22T12:18:34.0000000+00:00</time></trkpt><trkpt lat="30.6199398" lon="34.91983032"><ele>439.2</ele><time>2013-11-22T12:18:39.0000000+00:00</time></trkpt><trkpt lat="30.6199398" lon="34.91983032"><ele>439.2</ele><time>2013-11-22T12:18:44.0000000+00:00</time></trkpt><trkpt lat="30.6199398" lon="34.91983032"><ele>439.2</ele><time>2013-11-22T12:18:49.0000000+00:00</time></trkpt><trkpt lat="30.6199398" lon="34.91983032"><ele>439.2</ele><time>2013-11-22T12:18:54.0000000+00:00</time></trkpt><trkpt lat="30.6199398" lon="34.91983032"><ele>439.2</ele><time>2013-11-22T12:18:59.0000000+00:00</time></trkpt><trkpt lat="30.6199398" lon="34.91983032"><ele>439.2</ele><time>2013-11-22T12:19:04.0000000+00:00</time></trkpt><trkpt lat="30.6199398" lon="34.91983032"><ele>439.2</ele><time>2013-11-22T12:19:09.0000000+00:00</time></trkpt><trkpt lat="30.6199398" lon="34.91983032"><ele>439.2</ele><time>2013-11-22T12:19:14.0000000+00:00</time></trkpt><trkpt lat="30.6199398" lon="34.91983032"><ele>439.2</ele><time>2013-11-22T12:19:19.0000000+00:00</time></trkpt><trkpt lat="30.6199398" lon="34.91983032"><ele>439.2</ele><time>2013-11-22T12:19:24.0000000+00:00</time></trkpt><trkpt lat="30.6199398" lon="34.91983032"><ele>439.2</ele><time>2013-11-22T12:19:29.0000000+00:00</time></trkpt><trkpt lat="30.6199398" lon="34.91983032"><ele>439.2</ele><time>2013-11-22T12:19:34.0000000+00:00</time></trkpt><trkpt lat="30.6199398" lon="34.91983032"><ele>439.2</ele><time>2013-11-22T12:19:39.0000000+00:00</time></trkpt><trkpt lat="30.6199398" lon="34.91983032"><ele>439.2</ele><time>2013-11-22T12:19:44.0000000+00:00</time></trkpt><trkpt lat="30.6199398" lon="34.91983032"><ele>439.2</ele><time>2013-11-22T12:19:49.0000000+00:00</time></trkpt><trkpt lat="30.6199398" lon="34.91983032"><ele>439.2</ele><time>2013-11-22T12:19:54.0000000+00:00</time></trkpt><trkpt lat="30.6199398" lon="34.91983032"><ele>439.2</ele><time>2013-11-22T12:19:59.0000000+00:00</time></trkpt><trkpt lat="30.6199398" lon="34.91983032"><ele>439.2</ele><time>2013-11-22T12:20:04.0000000+00:00</time></trkpt><trkpt lat="30.6199398" lon="34.91983032"><ele>439.2</ele><time>2013-11-22T12:20:09.0000000+00:00</time></trkpt><trkpt lat="30.6199398" lon="34.91983032"><ele>439.2</ele><time>2013-11-22T12:20:14.0000000+00:00</time></trkpt><trkpt lat="30.6199398" lon="34.91983032"><ele>439.2</ele><time>2013-11-22T12:20:19.0000000+00:00</time></trkpt><trkpt lat="30.6199379" lon="34.91983032"><ele>439.3</ele><time>2013-11-22T12:20:24.0000000+00:00</time></trkpt><trkpt lat="30.6199379" lon="34.91983032"><ele>439.3</ele><time>2013-11-22T12:20:29.0000000+00:00</time></trkpt><trkpt lat="30.6199379" lon="34.91983032"><ele>439.3</ele><time>2013-11-22T12:20:34.0000000+00:00</time></trkpt><trkpt lat="30.6199379" lon="34.91983032"><ele>439.3</ele><time>2013-11-22T12:20:39.0000000+00:00</time></trkpt><trkpt lat="30.6199379" lon="34.91983032"><ele>439.3</ele><time>2013-11-22T12:20:44.0000000+00:00</time></trkpt><trkpt lat="30.6199379" lon="34.91983032"><ele>439.3</ele><time>2013-11-22T12:20:49.0000000+00:00</time></trkpt><trkpt lat="30.6199379" lon="34.91983032"><ele>439.3</ele><time>2013-11-22T12:20:54.0000000+00:00</time></trkpt><trkpt lat="30.6199379" lon="34.91983032"><ele>439.3</ele><time>2013-11-22T12:20:59.0000000+00:00</time></trkpt><trkpt lat="30.6199379" lon="34.91983032"><ele>439.3</ele><time>2013-11-22T12:21:04.0000000+00:00</time></trkpt><trkpt lat="30.6199379" lon="34.91983032"><ele>439.3</ele><time>2013-11-22T12:21:09.0000000+00:00</time></trkpt><trkpt lat="30.6199379" lon="34.91983032"><ele>439.3</ele><time>2013-11-22T12:21:14.0000000+00:00</time></trkpt><trkpt lat="30.6199379" lon="34.91983032"><ele>439.4</ele><time>2013-11-22T12:21:19.0000000+00:00</time></trkpt><trkpt lat="30.6199379" lon="34.91983032"><ele>439.4</ele><time>2013-11-22T12:21:24.0000000+00:00</time></trkpt><trkpt lat="30.6199379" lon="34.91983032"><ele>439.4</ele><time>2013-11-22T12:21:29.0000000+00:00</time></trkpt><trkpt lat="30.61993599" lon="34.91983032"><ele>439.4</ele><time>2013-11-22T12:21:34.0000000+00:00</time></trkpt><trkpt lat="30.61993599" lon="34.91983032"><ele>439.4</ele><time>2013-11-22T12:21:39.0000000+00:00</time></trkpt><trkpt lat="30.61993599" lon="34.91983032"><ele>439.4</ele><time>2013-11-22T12:21:44.0000000+00:00</time></trkpt><trkpt lat="30.61993599" lon="34.91983032"><ele>439.4</ele><time>2013-11-22T12:21:49.0000000+00:00</time></trkpt><trkpt lat="30.61993599" lon="34.91983032"><ele>439.4</ele><time>2013-11-22T12:21:54.0000000+00:00</time></trkpt><trkpt lat="30.61993599" lon="34.91983032"><ele>439.4</ele><time>2013-11-22T12:21:59.0000000+00:00</time></trkpt><trkpt lat="30.61993599" lon="34.91983032"><ele>439.4</ele><time>2013-11-22T12:22:04.0000000+00:00</time></trkpt><trkpt lat="30.61993599" lon="34.91982651"><ele>439.4</ele><time>2013-11-22T12:22:09.0000000+00:00</time></trkpt><trkpt lat="30.61993599" lon="34.91982651"><ele>439.4</ele><time>2013-11-22T12:22:14.0000000+00:00</time></trkpt><trkpt lat="30.61993599" lon="34.91982651"><ele>439.4</ele><time>2013-11-22T12:22:19.0000000+00:00</time></trkpt><trkpt lat="30.61993599" lon="34.91982651"><ele>439.5</ele><time>2013-11-22T12:22:24.0000000+00:00</time></trkpt><trkpt lat="30.61993599" lon="34.91982651"><ele>439.5</ele><time>2013-11-22T12:22:29.0000000+00:00</time></trkpt><trkpt lat="30.61993599" lon="34.91982651"><ele>439.5</ele><time>2013-11-22T12:22:34.0000000+00:00</time></trkpt><trkpt lat="30.61993599" lon="34.91982651"><ele>439.5</ele><time>2013-11-22T12:22:39.0000000+00:00</time></trkpt><trkpt lat="30.61993599" lon="34.91982651"><ele>439.5</ele><time>2013-11-22T12:22:44.0000000+00:00</time></trkpt><trkpt lat="30.61993599" lon="34.91982651"><ele>439.5</ele><time>2013-11-22T12:22:49.0000000+00:00</time></trkpt><trkpt lat="30.61993599" lon="34.91982651"><ele>439.5</ele><time>2013-11-22T12:22:54.0000000+00:00</time></trkpt><trkpt lat="30.61993599" lon="34.91982651"><ele>439.5</ele><time>2013-11-22T12:22:59.0000000+00:00</time></trkpt><trkpt lat="30.61993599" lon="34.91982651"><ele>439.5</ele><time>2013-11-22T12:23:04.0000000+00:00</time></trkpt><trkpt lat="30.61993599" lon="34.91982651"><ele>439.5</ele><time>2013-11-22T12:23:09.0000000+00:00</time></trkpt><trkpt lat="30.61993408" lon="34.91982651"><ele>439.5</ele><time>2013-11-22T12:23:14.0000000+00:00</time></trkpt><trkpt lat="30.61993408" lon="34.91982651"><ele>439.5</ele><time>2013-11-22T12:23:19.0000000+00:00</time></trkpt><trkpt lat="30.61993408" lon="34.91982651"><ele>439.5</ele><time>2013-11-22T12:23:24.0000000+00:00</time></trkpt><trkpt lat="30.61993408" lon="34.91982651"><ele>439.5</ele><time>2013-11-22T12:23:29.0000000+00:00</time></trkpt><trkpt lat="30.61993408" lon="34.91982651"><ele>439.5</ele><time>2013-11-22T12:23:34.0000000+00:00</time></trkpt><trkpt lat="30.61993408" lon="34.91982651"><ele>439.5</ele><time>2013-11-22T12:23:39.0000000+00:00</time></trkpt><trkpt lat="30.61993408" lon="34.91982651"><ele>439.5</ele><time>2013-11-22T12:23:44.0000000+00:00</time></trkpt><trkpt lat="30.61993408" lon="34.91982651"><ele>439.5</ele><time>2013-11-22T12:23:49.0000000+00:00</time></trkpt><trkpt lat="30.61993408" lon="34.91982651"><ele>439.5</ele><time>2013-11-22T12:23:54.0000000+00:00</time></trkpt><trkpt lat="30.61993408" lon="34.91982651"><ele>439.5</ele><time>2013-11-22T12:23:59.0000000+00:00</time></trkpt><trkpt lat="30.61993408" lon="34.91983032"><ele>439.5</ele><time>2013-11-22T12:24:04.0000000+00:00</time></trkpt><trkpt lat="30.61993408" lon="34.91983032"><ele>439.5</ele><time>2013-11-22T12:24:09.0000000+00:00</time></trkpt><trkpt lat="30.61993408" lon="34.91983032"><ele>439.5</ele><time>2013-11-22T12:24:14.0000000+00:00</time></trkpt><trkpt lat="30.61993408" lon="34.91983032"><ele>439.5</ele><time>2013-11-22T12:24:19.0000000+00:00</time></trkpt><trkpt lat="30.61993408" lon="34.91983032"><ele>439.5</ele><time>2013-11-22T12:24:24.0000000+00:00</time></trkpt><trkpt lat="30.61993408" lon="34.91983032"><ele>439.5</ele><time>2013-11-22T12:24:29.0000000+00:00</time></trkpt><trkpt lat="30.61993408" lon="34.91983032"><ele>439.5</ele><time>2013-11-22T12:24:34.0000000+00:00</time></trkpt><trkpt lat="30.61993408" lon="34.91983032"><ele>439.5</ele><time>2013-11-22T12:24:39.0000000+00:00</time></trkpt><trkpt lat="30.61993408" lon="34.91983032"><ele>439.5</ele><time>2013-11-22T12:24:44.0000000+00:00</time></trkpt><trkpt lat="30.61993408" lon="34.91983032"><ele>439.5</ele><time>2013-11-22T12:24:49.0000000+00:00</time></trkpt><trkpt lat="30.61993408" lon="34.91983032"><ele>439.5</ele><time>2013-11-22T12:24:54.0000000+00:00</time></trkpt><trkpt lat="30.61993218" lon="34.91983032"><ele>439.5</ele><time>2013-11-22T12:24:59.0000000+00:00</time></trkpt><trkpt lat="30.61993218" lon="34.91983032"><ele>439.5</ele><time>2013-11-22T12:25:04.0000000+00:00</time></trkpt><trkpt lat="30.61993218" lon="34.91983032"><ele>439.5</ele><time>2013-11-22T12:25:09.0000000+00:00</time></trkpt><trkpt lat="30.61993218" lon="34.91983032"><ele>439.5</ele><time>2013-11-22T12:25:14.0000000+00:00</time></trkpt><trkpt lat="30.61993218" lon="34.91983032"><ele>439.5</ele><time>2013-11-22T12:25:19.0000000+00:00</time></trkpt><trkpt lat="30.61993218" lon="34.91983032"><ele>439.5</ele><time>2013-11-22T12:25:24.0000000+00:00</time></trkpt><trkpt lat="30.61993218" lon="34.91983032"><ele>439.5</ele><time>2013-11-22T12:25:29.0000000+00:00</time></trkpt><trkpt lat="30.61993218" lon="34.91983032"><ele>439.6</ele><time>2013-11-22T12:25:34.0000000+00:00</time></trkpt><trkpt lat="30.61993218" lon="34.91983032"><ele>439.6</ele><time>2013-11-22T12:25:39.0000000+00:00</time></trkpt><trkpt lat="30.61993218" lon="34.91983032"><ele>439.6</ele><time>2013-11-22T12:25:44.0000000+00:00</time></trkpt><trkpt lat="30.61993218" lon="34.91983032"><ele>439.6</ele><time>2013-11-22T12:25:49.0000000+00:00</time></trkpt><trkpt lat="30.61993218" lon="34.91983032"><ele>439.6</ele><time>2013-11-22T12:25:54.0000000+00:00</time></trkpt><trkpt lat="30.61993218" lon="34.91983032"><ele>439.6</ele><time>2013-11-22T12:25:59.0000000+00:00</time></trkpt><trkpt lat="30.61993218" lon="34.91983032"><ele>439.6</ele><time>2013-11-22T12:26:04.0000000+00:00</time></trkpt><trkpt lat="30.61993027" lon="34.91983032"><ele>439.6</ele><time>2013-11-22T12:26:09.0000000+00:00</time></trkpt><trkpt lat="30.61993027" lon="34.91983032"><ele>439.6</ele><time>2013-11-22T12:26:14.0000000+00:00</time></trkpt><trkpt lat="30.61993027" lon="34.91983032"><ele>439.6</ele><time>2013-11-22T12:26:19.0000000+00:00</time></trkpt><trkpt lat="30.61993027" lon="34.91983032"><ele>439.7</ele><time>2013-11-22T12:26:24.0000000+00:00</time></trkpt><trkpt lat="30.61993027" lon="34.91983032"><ele>439.7</ele><time>2013-11-22T12:26:29.0000000+00:00</time></trkpt><trkpt lat="30.61993027" lon="34.91983032"><ele>439.7</ele><time>2013-11-22T12:26:34.0000000+00:00</time></trkpt><trkpt lat="30.61993027" lon="34.91983032"><ele>439.7</ele><time>2013-11-22T12:26:39.0000000+00:00</time></trkpt><trkpt lat="30.61993027" lon="34.91983032"><ele>439.7</ele><time>2013-11-22T12:26:44.0000000+00:00</time></trkpt><trkpt lat="30.61993027" lon="34.91983032"><ele>439.7</ele><time>2013-11-22T12:26:49.0000000+00:00</time></trkpt><trkpt lat="30.61993027" lon="34.91983032"><ele>439.7</ele><time>2013-11-22T12:26:54.0000000+00:00</time></trkpt><trkpt lat="30.61993027" lon="34.91983032"><ele>439.7</ele><time>2013-11-22T12:26:59.0000000+00:00</time></trkpt><trkpt lat="30.61993027" lon="34.91983032"><ele>439.7</ele><time>2013-11-22T12:27:04.0000000+00:00</time></trkpt><trkpt lat="30.61993027" lon="34.91983032"><ele>439.7</ele><time>2013-11-22T12:27:09.0000000+00:00</time></trkpt><trkpt lat="30.61993027" lon="34.91983032"><ele>439.7</ele><time>2013-11-22T12:27:14.0000000+00:00</time></trkpt><trkpt lat="30.61993027" lon="34.91983032"><ele>439.7</ele><time>2013-11-22T12:27:19.0000000+00:00</time></trkpt><trkpt lat="30.61993027" lon="34.91983032"><ele>439.7</ele><time>2013-11-22T12:27:24.0000000+00:00</time></trkpt><trkpt lat="30.61993027" lon="34.91983032"><ele>439.7</ele><time>2013-11-22T12:27:29.0000000+00:00</time></trkpt><trkpt lat="30.61993027" lon="34.91983032"><ele>439.7</ele><time>2013-11-22T12:27:34.0000000+00:00</time></trkpt><trkpt lat="30.61993027" lon="34.91983032"><ele>439.7</ele><time>2013-11-22T12:27:39.0000000+00:00</time></trkpt><trkpt lat="30.61993027" lon="34.91983032"><ele>439.7</ele><time>2013-11-22T12:27:44.0000000+00:00</time></trkpt><trkpt lat="30.61993027" lon="34.91983032"><ele>439.7</ele><time>2013-11-22T12:27:49.0000000+00:00</time></trkpt><trkpt lat="30.61992836" lon="34.91983032"><ele>439.7</ele><time>2013-11-22T12:27:54.0000000+00:00</time></trkpt><trkpt lat="30.61992836" lon="34.91983032"><ele>439.7</ele><time>2013-11-22T12:27:59.0000000+00:00</time></trkpt><trkpt lat="30.61992836" lon="34.91983032"><ele>439.7</ele><time>2013-11-22T12:28:04.0000000+00:00</time></trkpt><trkpt lat="30.61992836" lon="34.91983032"><ele>439.7</ele><time>2013-11-22T12:28:09.0000000+00:00</time></trkpt><trkpt lat="30.61992836" lon="34.91983032"><ele>439.7</ele><time>2013-11-22T12:28:14.0000000+00:00</time></trkpt><trkpt lat="30.61992836" lon="34.91983032"><ele>439.7</ele><time>2013-11-22T12:28:19.0000000+00:00</time></trkpt><trkpt lat="30.61992836" lon="34.91983032"><ele>439.7</ele><time>2013-11-22T12:28:24.0000000+00:00</time></trkpt><trkpt lat="30.61992836" lon="34.91983032"><ele>439.7</ele><time>2013-11-22T12:28:29.0000000+00:00</time></trkpt><trkpt lat="30.61992836" lon="34.91983032"><ele>439.7</ele><time>2013-11-22T12:28:34.0000000+00:00</time></trkpt><trkpt lat="30.61992836" lon="34.91983032"><ele>439.7</ele><time>2013-11-22T12:28:39.0000000+00:00</time></trkpt><trkpt lat="30.61992836" lon="34.91983032"><ele>439.7</ele><time>2013-11-22T12:28:44.0000000+00:00</time></trkpt><trkpt lat="30.61992836" lon="34.91983032"><ele>439.7</ele><time>2013-11-22T12:28:49.0000000+00:00</time></trkpt><trkpt lat="30.61992836" lon="34.91983032"><ele>439.6</ele><time>2013-11-22T12:28:54.0000000+00:00</time></trkpt><trkpt lat="30.61992836" lon="34.91983032"><ele>439.6</ele><time>2013-11-22T12:28:59.0000000+00:00</time></trkpt><trkpt lat="30.61992836" lon="34.91983032"><ele>439.6</ele><time>2013-11-22T12:29:04.0000000+00:00</time></trkpt><trkpt lat="30.61992836" lon="34.91983032"><ele>439.6</ele><time>2013-11-22T12:29:09.0000000+00:00</time></trkpt><trkpt lat="30.61992836" lon="34.91983032"><ele>439.6</ele><time>2013-11-22T12:29:14.0000000+00:00</time></trkpt><trkpt lat="30.61992836" lon="34.91983032"><ele>439.6</ele><time>2013-11-22T12:29:19.0000000+00:00</time></trkpt><trkpt lat="30.61992836" lon="34.91983032"><ele>439.6</ele><time>2013-11-22T12:29:24.0000000+00:00</time></trkpt><trkpt lat="30.61992836" lon="34.91983032"><ele>439.6</ele><time>2013-11-22T12:29:29.0000000+00:00</time></trkpt><trkpt lat="30.61992836" lon="34.91983032"><ele>439.6</ele><time>2013-11-22T12:29:34.0000000+00:00</time></trkpt><trkpt lat="30.61992836" lon="34.91983032"><ele>439.6</ele><time>2013-11-22T12:29:39.0000000+00:00</time></trkpt><trkpt lat="30.61992836" lon="34.91983032"><ele>439.6</ele><time>2013-11-22T12:29:44.0000000+00:00</time></trkpt><trkpt lat="30.61992836" lon="34.91983032"><ele>439.6</ele><time>2013-11-22T12:29:49.0000000+00:00</time></trkpt><trkpt lat="30.61992836" lon="34.91983032"><ele>439.6</ele><time>2013-11-22T12:29:54.0000000+00:00</time></trkpt><trkpt lat="30.61992836" lon="34.91983032"><ele>439.6</ele><time>2013-11-22T12:29:59.0000000+00:00</time></trkpt><trkpt lat="30.61992836" lon="34.91983032"><ele>439.6</ele><time>2013-11-22T12:30:04.0000000+00:00</time></trkpt><trkpt lat="30.61992645" lon="34.91983032"><ele>439.6</ele><time>2013-11-22T12:30:09.0000000+00:00</time></trkpt><trkpt lat="30.61992645" lon="34.91983032"><ele>439.6</ele><time>2013-11-22T12:30:14.0000000+00:00</time></trkpt><trkpt lat="30.61992645" lon="34.91983032"><ele>439.6</ele><time>2013-11-22T12:30:19.0000000+00:00</time></trkpt><trkpt lat="30.61992645" lon="34.91983032"><ele>439.6</ele><time>2013-11-22T12:30:24.0000000+00:00</time></trkpt><trkpt lat="30.61992645" lon="34.91983032"><ele>439.6</ele><time>2013-11-22T12:30:29.0000000+00:00</time></trkpt><trkpt lat="30.61992645" lon="34.91983032"><ele>439.6</ele><time>2013-11-22T12:30:34.0000000+00:00</time></trkpt><trkpt lat="30.61992645" lon="34.91983032"><ele>439.6</ele><time>2013-11-22T12:30:39.0000000+00:00</time></trkpt><trkpt lat="30.61992645" lon="34.91983032"><ele>439.6</ele><time>2013-11-22T12:30:44.0000000+00:00</time></trkpt><trkpt lat="30.61992645" lon="34.91983032"><ele>439.6</ele><time>2013-11-22T12:30:49.0000000+00:00</time></trkpt><trkpt lat="30.61992645" lon="34.91983032"><ele>439.6</ele><time>2013-11-22T12:30:54.0000000+00:00</time></trkpt><trkpt lat="30.61992645" lon="34.91983032"><ele>439.6</ele><time>2013-11-22T12:30:59.0000000+00:00</time></trkpt><trkpt lat="30.61992645" lon="34.91983032"><ele>439.6</ele><time>2013-11-22T12:31:04.0000000+00:00</time></trkpt><trkpt lat="30.61992645" lon="34.91983032"><ele>439.6</ele><time>2013-11-22T12:31:09.0000000+00:00</time></trkpt><trkpt lat="30.61992645" lon="34.91983032"><ele>439.6</ele><time>2013-11-22T12:31:14.0000000+00:00</time></trkpt><trkpt lat="30.61992645" lon="34.91983032"><ele>439.6</ele><time>2013-11-22T12:31:19.0000000+00:00</time></trkpt><trkpt lat="30.61992645" lon="34.91983032"><ele>439.6</ele><time>2013-11-22T12:31:24.0000000+00:00</time></trkpt><trkpt lat="30.61992645" lon="34.91983032"><ele>439.6</ele><time>2013-11-22T12:31:29.0000000+00:00</time></trkpt><trkpt lat="30.61992645" lon="34.91983414"><ele>439.6</ele><time>2013-11-22T12:31:34.0000000+00:00</time></trkpt><trkpt lat="30.61992645" lon="34.91983414"><ele>439.6</ele><time>2013-11-22T12:31:39.0000000+00:00</time></trkpt><trkpt lat="30.61992645" lon="34.91983414"><ele>439.6</ele><time>2013-11-22T12:31:44.0000000+00:00</time></trkpt><trkpt lat="30.61992645" lon="34.91983414"><ele>439.6</ele><time>2013-11-22T12:31:49.0000000+00:00</time></trkpt><trkpt lat="30.61992645" lon="34.91983414"><ele>439.6</ele><time>2013-11-22T12:31:54.0000000+00:00</time></trkpt><trkpt lat="30.61992645" lon="34.91983414"><ele>439.6</ele><time>2013-11-22T12:31:59.0000000+00:00</time></trkpt><trkpt lat="30.61992645" lon="34.91983414"><ele>439.6</ele><time>2013-11-22T12:32:04.0000000+00:00</time></trkpt><trkpt lat="30.61992645" lon="34.91983414"><ele>439.6</ele><time>2013-11-22T12:32:09.0000000+00:00</time></trkpt><trkpt lat="30.61992645" lon="34.91983414"><ele>439.6</ele><time>2013-11-22T12:32:14.0000000+00:00</time></trkpt><trkpt lat="30.61992645" lon="34.91983414"><ele>439.6</ele><time>2013-11-22T12:32:19.0000000+00:00</time></trkpt><trkpt lat="30.61992645" lon="34.91983414"><ele>439.6</ele><time>2013-11-22T12:32:24.0000000+00:00</time></trkpt><trkpt lat="30.61992645" lon="34.91983414"><ele>439.6</ele><time>2013-11-22T12:32:29.0000000+00:00</time></trkpt><trkpt lat="30.61992645" lon="34.91983414"><ele>439.6</ele><time>2013-11-22T12:32:34.0000000+00:00</time></trkpt><trkpt lat="30.61992645" lon="34.91983414"><ele>439.6</ele><time>2013-11-22T12:32:39.0000000+00:00</time></trkpt><trkpt lat="30.61992645" lon="34.91983414"><ele>439.6</ele><time>2013-11-22T12:32:44.0000000+00:00</time></trkpt><trkpt lat="30.61992645" lon="34.91983414"><ele>439.6</ele><time>2013-11-22T12:32:49.0000000+00:00</time></trkpt><trkpt lat="30.61992645" lon="34.91983414"><ele>439.6</ele><time>2013-11-22T12:32:54.0000000+00:00</time></trkpt><trkpt lat="30.61992645" lon="34.91983414"><ele>439.6</ele><time>2013-11-22T12:32:59.0000000+00:00</time></trkpt><trkpt lat="30.61992645" lon="34.91983414"><ele>439.6</ele><time>2013-11-22T12:33:04.0000000+00:00</time></trkpt><trkpt lat="30.61992645" lon="34.91983414"><ele>439.6</ele><time>2013-11-22T12:33:09.0000000+00:00</time></trkpt><trkpt lat="30.61992645" lon="34.91983414"><ele>439.6</ele><time>2013-11-22T12:33:14.0000000+00:00</time></trkpt><trkpt lat="30.61992645" lon="34.91983414"><ele>439.6</ele><time>2013-11-22T12:33:19.0000000+00:00</time></trkpt><trkpt lat="30.61992645" lon="34.91983414"><ele>439.6</ele><time>2013-11-22T12:33:24.0000000+00:00</time></trkpt><trkpt lat="30.61992645" lon="34.91983414"><ele>439.5</ele><time>2013-11-22T12:33:29.0000000+00:00</time></trkpt><trkpt lat="30.61992645" lon="34.91983414"><ele>439.5</ele><time>2013-11-22T12:33:34.0000000+00:00</time></trkpt><trkpt lat="30.61992645" lon="34.91983414"><ele>439.5</ele><time>2013-11-22T12:33:39.0000000+00:00</time></trkpt><trkpt lat="30.61992645" lon="34.91983414"><ele>439.5</ele><time>2013-11-22T12:33:44.0000000+00:00</time></trkpt><trkpt lat="30.61992645" lon="34.91983414"><ele>439.5</ele><time>2013-11-22T12:33:49.0000000+00:00</time></trkpt><trkpt lat="30.61992645" lon="34.91983414"><ele>439.5</ele><time>2013-11-22T12:33:54.0000000+00:00</time></trkpt><trkpt lat="30.61992645" lon="34.91983414"><ele>439.5</ele><time>2013-11-22T12:33:59.0000000+00:00</time></trkpt><trkpt lat="30.61992645" lon="34.91983414"><ele>439.5</ele><time>2013-11-22T12:34:04.0000000+00:00</time></trkpt><trkpt lat="30.61992645" lon="34.91983414"><ele>439.5</ele><time>2013-11-22T12:34:09.0000000+00:00</time></trkpt><trkpt lat="30.61992645" lon="34.91983414"><ele>439.5</ele><time>2013-11-22T12:34:14.0000000+00:00</time></trkpt><trkpt lat="30.61992645" lon="34.91983414"><ele>439.5</ele><time>2013-11-22T12:34:19.0000000+00:00</time></trkpt><trkpt lat="30.61992645" lon="34.91983414"><ele>439.5</ele><time>2013-11-22T12:34:24.0000000+00:00</time></trkpt><trkpt lat="30.61992645" lon="34.91983795"><ele>439.5</ele><time>2013-11-22T12:34:29.0000000+00:00</time></trkpt><trkpt lat="30.61992645" lon="34.91983795"><ele>439.5</ele><time>2013-11-22T12:34:34.0000000+00:00</time></trkpt><trkpt lat="30.61992455" lon="34.91983795"><ele>439.5</ele><time>2013-11-22T12:34:39.0000000+00:00</time></trkpt><trkpt lat="30.61992455" lon="34.91983795"><ele>439.5</ele><time>2013-11-22T12:34:44.0000000+00:00</time></trkpt><trkpt lat="30.61992455" lon="34.91983795"><ele>439.5</ele><time>2013-11-22T12:34:49.0000000+00:00</time></trkpt><trkpt lat="30.61992455" lon="34.91983795"><ele>439.5</ele><time>2013-11-22T12:34:54.0000000+00:00</time></trkpt><trkpt lat="30.61992455" lon="34.91983795"><ele>439.5</ele><time>2013-11-22T12:34:59.0000000+00:00</time></trkpt><trkpt lat="30.61992455" lon="34.91983795"><ele>439.5</ele><time>2013-11-22T12:35:04.0000000+00:00</time></trkpt><trkpt lat="30.61992455" lon="34.91983795"><ele>439.5</ele><time>2013-11-22T12:35:09.0000000+00:00</time></trkpt><trkpt lat="30.61992455" lon="34.91983795"><ele>439.5</ele><time>2013-11-22T12:35:14.0000000+00:00</time></trkpt><trkpt lat="30.61992455" lon="34.91983795"><ele>439.5</ele><time>2013-11-22T12:35:19.0000000+00:00</time></trkpt><trkpt lat="30.61992455" lon="34.91983795"><ele>439.5</ele><time>2013-11-22T12:35:24.0000000+00:00</time></trkpt><trkpt lat="30.61992455" lon="34.91983795"><ele>439.5</ele><time>2013-11-22T12:35:29.0000000+00:00</time></trkpt><trkpt lat="30.61992455" lon="34.91983795"><ele>439.5</ele><time>2013-11-22T12:35:34.0000000+00:00</time></trkpt><trkpt lat="30.61992455" lon="34.91983795"><ele>439.5</ele><time>2013-11-22T12:35:39.0000000+00:00</time></trkpt><trkpt lat="30.61992455" lon="34.91983795"><ele>439.5</ele><time>2013-11-22T12:35:44.0000000+00:00</time></trkpt><trkpt lat="30.61992455" lon="34.91983795"><ele>439.5</ele><time>2013-11-22T12:35:49.0000000+00:00</time></trkpt><trkpt lat="30.61992455" lon="34.91983795"><ele>439.5</ele><time>2013-11-22T12:35:54.0000000+00:00</time></trkpt><trkpt lat="30.61992455" lon="34.91983795"><ele>439.5</ele><time>2013-11-22T12:35:59.0000000+00:00</time></trkpt><trkpt lat="30.61992455" lon="34.91983795"><ele>439.5</ele><time>2013-11-22T12:36:04.0000000+00:00</time></trkpt><trkpt lat="30.61992455" lon="34.91983795"><ele>439.5</ele><time>2013-11-22T12:36:09.0000000+00:00</time></trkpt><trkpt lat="30.61992455" lon="34.91983795"><ele>439.5</ele><time>2013-11-22T12:36:14.0000000+00:00</time></trkpt><trkpt lat="30.61992455" lon="34.91983795"><ele>439.5</ele><time>2013-11-22T12:36:19.0000000+00:00</time></trkpt><trkpt lat="30.61992455" lon="34.91983795"><ele>439.5</ele><time>2013-11-22T12:36:24.0000000+00:00</time></trkpt><trkpt lat="30.61992455" lon="34.91983795"><ele>439.5</ele><time>2013-11-22T12:36:29.0000000+00:00</time></trkpt><trkpt lat="30.61992455" lon="34.91983795"><ele>439.5</ele><time>2013-11-22T12:36:34.0000000+00:00</time></trkpt><trkpt lat="30.61992455" lon="34.91983795"><ele>439.5</ele><time>2013-11-22T12:36:39.0000000+00:00</time></trkpt><trkpt lat="30.61992264" lon="34.91983795"><ele>439.5</ele><time>2013-11-22T12:36:44.0000000+00:00</time></trkpt><trkpt lat="30.61992264" lon="34.91983795"><ele>439.5</ele><time>2013-11-22T12:36:49.0000000+00:00</time></trkpt><trkpt lat="30.61992264" lon="34.91983795"><ele>439.5</ele><time>2013-11-22T12:36:54.0000000+00:00</time></trkpt><trkpt lat="30.61992264" lon="34.91983795"><ele>439.5</ele><time>2013-11-22T12:36:59.0000000+00:00</time></trkpt><trkpt lat="30.61992264" lon="34.91983795"><ele>439.5</ele><time>2013-11-22T12:37:04.0000000+00:00</time></trkpt><trkpt lat="30.61992264" lon="34.91983795"><ele>439.5</ele><time>2013-11-22T12:37:09.0000000+00:00</time></trkpt><trkpt lat="30.61992264" lon="34.91983795"><ele>439.5</ele><time>2013-11-22T12:37:14.0000000+00:00</time></trkpt><trkpt lat="30.61992264" lon="34.91983795"><ele>439.5</ele><time>2013-11-22T12:37:19.0000000+00:00</time></trkpt><trkpt lat="30.61992264" lon="34.91983795"><ele>439.5</ele><time>2013-11-22T12:37:24.0000000+00:00</time></trkpt><trkpt lat="30.61992264" lon="34.91983795"><ele>439.5</ele><time>2013-11-22T12:37:29.0000000+00:00</time></trkpt><trkpt lat="30.61992264" lon="34.91983795"><ele>439.5</ele><time>2013-11-22T12:37:34.0000000+00:00</time></trkpt><trkpt lat="30.61992264" lon="34.91983795"><ele>439.5</ele><time>2013-11-22T12:37:39.0000000+00:00</time></trkpt><trkpt lat="30.61992264" lon="34.91983795"><ele>439.4</ele><time>2013-11-22T12:37:44.0000000+00:00</time></trkpt><trkpt lat="30.61992264" lon="34.91983795"><ele>439.4</ele><time>2013-11-22T12:37:49.0000000+00:00</time></trkpt><trkpt lat="30.61992264" lon="34.91983795"><ele>439.4</ele><time>2013-11-22T12:37:54.0000000+00:00</time></trkpt><trkpt lat="30.61992264" lon="34.91983795"><ele>439.4</ele><time>2013-11-22T12:37:59.0000000+00:00</time></trkpt><trkpt lat="30.61992264" lon="34.91983795"><ele>439.4</ele><time>2013-11-22T12:38:04.0000000+00:00</time></trkpt><trkpt lat="30.61992264" lon="34.91983795"><ele>439.4</ele><time>2013-11-22T12:38:09.0000000+00:00</time></trkpt><trkpt lat="30.61992264" lon="34.91983795"><ele>439.4</ele><time>2013-11-22T12:38:14.0000000+00:00</time></trkpt><trkpt lat="30.61992264" lon="34.91983795"><ele>439.4</ele><time>2013-11-22T12:38:19.0000000+00:00</time></trkpt><trkpt lat="30.61992264" lon="34.91984177"><ele>439.4</ele><time>2013-11-22T12:38:24.0000000+00:00</time></trkpt><trkpt lat="30.61992264" lon="34.91984177"><ele>439.4</ele><time>2013-11-22T12:38:29.0000000+00:00</time></trkpt><trkpt lat="30.61992264" lon="34.91984177"><ele>439.4</ele><time>2013-11-22T12:38:34.0000000+00:00</time></trkpt><trkpt lat="30.61992264" lon="34.91984177"><ele>439.4</ele><time>2013-11-22T12:38:39.0000000+00:00</time></trkpt><trkpt lat="30.61992264" lon="34.91984177"><ele>439.4</ele><time>2013-11-22T12:38:44.0000000+00:00</time></trkpt><trkpt lat="30.61992264" lon="34.91984177"><ele>439.4</ele><time>2013-11-22T12:38:49.0000000+00:00</time></trkpt><trkpt lat="30.61992264" lon="34.91984177"><ele>439.4</ele><time>2013-11-22T12:38:54.0000000+00:00</time></trkpt><trkpt lat="30.61992264" lon="34.91984177"><ele>439.4</ele><time>2013-11-22T12:38:59.0000000+00:00</time></trkpt><trkpt lat="30.61992264" lon="34.91984177"><ele>439.4</ele><time>2013-11-22T12:39:04.0000000+00:00</time></trkpt><trkpt lat="30.61992264" lon="34.91984177"><ele>439.4</ele><time>2013-11-22T12:39:09.0000000+00:00</time></trkpt><trkpt lat="30.61992264" lon="34.91984177"><ele>439.4</ele><time>2013-11-22T12:39:14.0000000+00:00</time></trkpt><trkpt lat="30.61992264" lon="34.91984177"><ele>439.4</ele><time>2013-11-22T12:39:19.0000000+00:00</time></trkpt><trkpt lat="30.61992264" lon="34.91984177"><ele>439.4</ele><time>2013-11-22T12:39:24.0000000+00:00</time></trkpt><trkpt lat="30.61992264" lon="34.91984177"><ele>439.4</ele><time>2013-11-22T12:39:29.0000000+00:00</time></trkpt><trkpt lat="30.61992264" lon="34.91984177"><ele>439.4</ele><time>2013-11-22T12:39:34.0000000+00:00</time></trkpt><trkpt lat="30.61992264" lon="34.91984177"><ele>439.4</ele><time>2013-11-22T12:39:39.0000000+00:00</time></trkpt><trkpt lat="30.61992264" lon="34.91984177"><ele>439.4</ele><time>2013-11-22T12:39:44.0000000+00:00</time></trkpt><trkpt lat="30.61992264" lon="34.91984177"><ele>439.4</ele><time>2013-11-22T12:39:49.0000000+00:00</time></trkpt><trkpt lat="30.61992264" lon="34.91984177"><ele>439.4</ele><time>2013-11-22T12:39:54.0000000+00:00</time></trkpt><trkpt lat="30.61992264" lon="34.91984177"><ele>439.4</ele><time>2013-11-22T12:39:59.0000000+00:00</time></trkpt><trkpt lat="30.61992264" lon="34.91984177"><ele>439.4</ele><time>2013-11-22T12:40:04.0000000+00:00</time></trkpt><trkpt lat="30.61992264" lon="34.91984177"><ele>439.4</ele><time>2013-11-22T12:40:09.0000000+00:00</time></trkpt><trkpt lat="30.61992264" lon="34.91984177"><ele>439.4</ele><time>2013-11-22T12:40:14.0000000+00:00</time></trkpt><trkpt lat="30.61992264" lon="34.91984558"><ele>439.4</ele><time>2013-11-22T12:40:19.0000000+00:00</time></trkpt><trkpt lat="30.61992264" lon="34.91984558"><ele>439.4</ele><time>2013-11-22T12:40:24.0000000+00:00</time></trkpt><trkpt lat="30.61992264" lon="34.91984558"><ele>439.4</ele><time>2013-11-22T12:40:29.0000000+00:00</time></trkpt><trkpt lat="30.61992264" lon="34.91984558"><ele>439.4</ele><time>2013-11-22T12:40:34.0000000+00:00</time></trkpt><trkpt lat="30.61992264" lon="34.91984558"><ele>439.4</ele><time>2013-11-22T12:40:39.0000000+00:00</time></trkpt><trkpt lat="30.61992264" lon="34.91984558"><ele>439.4</ele><time>2013-11-22T12:40:44.0000000+00:00</time></trkpt><trkpt lat="30.61992264" lon="34.91984558"><ele>439.4</ele><time>2013-11-22T12:40:49.0000000+00:00</time></trkpt><trkpt lat="30.61992264" lon="34.91984558"><ele>439.4</ele><time>2013-11-22T12:40:54.0000000+00:00</time></trkpt><trkpt lat="30.61992264" lon="34.91984558"><ele>439.4</ele><time>2013-11-22T12:40:59.0000000+00:00</time></trkpt><trkpt lat="30.61992264" lon="34.91984558"><ele>439.4</ele><time>2013-11-22T12:41:04.0000000+00:00</time></trkpt><trkpt lat="30.61992264" lon="34.91984558"><ele>439.4</ele><time>2013-11-22T12:41:09.0000000+00:00</time></trkpt><trkpt lat="30.61992264" lon="34.91984558"><ele>439.4</ele><time>2013-11-22T12:41:14.0000000+00:00</time></trkpt><trkpt lat="30.61992264" lon="34.91984558"><ele>439.4</ele><time>2013-11-22T12:41:19.0000000+00:00</time></trkpt><trkpt lat="30.61992264" lon="34.91984558"><ele>439.4</ele><time>2013-11-22T12:41:24.0000000+00:00</time></trkpt><trkpt lat="30.61992264" lon="34.91984558"><ele>439.4</ele><time>2013-11-22T12:41:29.0000000+00:00</time></trkpt><trkpt lat="30.61992264" lon="34.91984558"><ele>439.4</ele><time>2013-11-22T12:41:34.0000000+00:00</time></trkpt><trkpt lat="30.61992264" lon="34.91984558"><ele>439.4</ele><time>2013-11-22T12:41:39.0000000+00:00</time></trkpt><trkpt lat="30.61992264" lon="34.91984558"><ele>439.4</ele><time>2013-11-22T12:41:44.0000000+00:00</time></trkpt><trkpt lat="30.61992264" lon="34.91984558"><ele>439.4</ele><time>2013-11-22T12:41:49.0000000+00:00</time></trkpt><trkpt lat="30.61992264" lon="34.91984558"><ele>439.4</ele><time>2013-11-22T12:41:54.0000000+00:00</time></trkpt><trkpt lat="30.61992264" lon="34.91984558"><ele>439.4</ele><time>2013-11-22T12:41:59.0000000+00:00</time></trkpt><trkpt lat="30.61992264" lon="34.9198494"><ele>439.4</ele><time>2013-11-22T12:42:04.0000000+00:00</time></trkpt><trkpt lat="30.61992264" lon="34.9198494"><ele>439.4</ele><time>2013-11-22T12:42:09.0000000+00:00</time></trkpt><trkpt lat="30.61992264" lon="34.9198494"><ele>439.4</ele><time>2013-11-22T12:42:14.0000000+00:00</time></trkpt><trkpt lat="30.61992264" lon="34.9198494"><ele>439.4</ele><time>2013-11-22T12:42:19.0000000+00:00</time></trkpt><trkpt lat="30.61992264" lon="34.9198494"><ele>439.4</ele><time>2013-11-22T12:42:24.0000000+00:00</time></trkpt><trkpt lat="30.61992264" lon="34.9198494"><ele>439.4</ele><time>2013-11-22T12:42:29.0000000+00:00</time></trkpt><trkpt lat="30.61992264" lon="34.9198494"><ele>439.4</ele><time>2013-11-22T12:42:34.0000000+00:00</time></trkpt><trkpt lat="30.61992264" lon="34.9198494"><ele>439.3</ele><time>2013-11-22T12:42:39.0000000+00:00</time></trkpt><trkpt lat="30.61992264" lon="34.9198494"><ele>439.3</ele><time>2013-11-22T12:42:44.0000000+00:00</time></trkpt><trkpt lat="30.61992455" lon="34.9198494"><ele>439.3</ele><time>2013-11-22T12:42:49.0000000+00:00</time></trkpt><trkpt lat="30.61992455" lon="34.9198494"><ele>439.3</ele><time>2013-11-22T12:42:54.0000000+00:00</time></trkpt><trkpt lat="30.61992455" lon="34.9198494"><ele>439.3</ele><time>2013-11-22T12:42:59.0000000+00:00</time></trkpt><trkpt lat="30.61992455" lon="34.9198494"><ele>439.3</ele><time>2013-11-22T12:43:04.0000000+00:00</time></trkpt><trkpt lat="30.61992455" lon="34.9198494"><ele>439.3</ele><time>2013-11-22T12:43:09.0000000+00:00</time></trkpt><trkpt lat="30.61992455" lon="34.9198494"><ele>439.3</ele><time>2013-11-22T12:43:14.0000000+00:00</time></trkpt><trkpt lat="30.61991119" lon="34.91986847"><ele>439.2</ele><time>2013-11-22T12:43:19.0000000+00:00</time></trkpt><trkpt lat="30.61989594" lon="34.9199028"><ele>438.9</ele><time>2013-11-22T12:43:24.0000000+00:00</time></trkpt><trkpt lat="30.61987686" lon="34.91994858"><ele>438.5</ele><time>2013-11-22T12:43:29.0000000+00:00</time></trkpt><trkpt lat="30.61985207" lon="34.92000961"><ele>438.8</ele><time>2013-11-22T12:43:34.0000000+00:00</time></trkpt><trkpt lat="30.61983109" lon="34.92006683"><ele>438.8</ele><time>2013-11-22T12:43:39.0000000+00:00</time></trkpt><trkpt lat="30.61981964" lon="34.92012405"><ele>438.4</ele><time>2013-11-22T12:43:44.0000000+00:00</time></trkpt><trkpt lat="30.61981964" lon="34.92013168"><ele>438.5</ele><time>2013-11-22T12:43:49.0000000+00:00</time></trkpt><trkpt lat="30.61981964" lon="34.92013168"><ele>438.4</ele><time>2013-11-22T12:43:54.0000000+00:00</time></trkpt><trkpt lat="30.61981964" lon="34.92013168"><ele>438.3</ele><time>2013-11-22T12:43:59.0000000+00:00</time></trkpt><trkpt lat="30.61981964" lon="34.92013168"><ele>438.3</ele><time>2013-11-22T12:44:04.0000000+00:00</time></trkpt><trkpt lat="30.61981964" lon="34.92013168"><ele>438.3</ele><time>2013-11-22T12:44:09.0000000+00:00</time></trkpt><trkpt lat="30.61981583" lon="34.92013168"><ele>438.1</ele><time>2013-11-22T12:44:14.0000000+00:00</time></trkpt><trkpt lat="30.61981583" lon="34.92013168"><ele>437.8</ele><time>2013-11-22T12:44:19.0000000+00:00</time></trkpt><trkpt lat="30.61982155" lon="34.92013168"><ele>437.6</ele><time>2013-11-22T12:44:24.0000000+00:00</time></trkpt><trkpt lat="30.61982536" lon="34.92013168"><ele>437.4</ele><time>2013-11-22T12:44:29.0000000+00:00</time></trkpt><trkpt lat="30.61982727" lon="34.9201355"><ele>437.1</ele><time>2013-11-22T12:44:34.0000000+00:00</time></trkpt><trkpt lat="30.61982536" lon="34.9201355"><ele>437.0</ele><time>2013-11-22T12:44:39.0000000+00:00</time></trkpt><trkpt lat="30.61982727" lon="34.92013931"><ele>437.0</ele><time>2013-11-22T12:44:44.0000000+00:00</time></trkpt><trkpt lat="30.61982727" lon="34.92013931"><ele>436.9</ele><time>2013-11-22T12:44:49.0000000+00:00</time></trkpt><trkpt lat="30.61982346" lon="34.9201355"><ele>436.9</ele><time>2013-11-22T12:44:54.0000000+00:00</time></trkpt><trkpt lat="30.61981201" lon="34.9201355"><ele>436.4</ele><time>2013-11-22T12:44:59.0000000+00:00</time></trkpt><trkpt lat="30.61980438" lon="34.92013168"><ele>436.5</ele><time>2013-11-22T12:45:04.0000000+00:00</time></trkpt><trkpt lat="30.61980057" lon="34.92013168"><ele>436.6</ele><time>2013-11-22T12:45:09.0000000+00:00</time></trkpt><trkpt lat="30.61979675" lon="34.92013168"><ele>436.8</ele><time>2013-11-22T12:45:14.0000000+00:00</time></trkpt><trkpt lat="30.61979485" lon="34.9201355"><ele>437.0</ele><time>2013-11-22T12:45:19.0000000+00:00</time></trkpt><trkpt lat="30.61978722" lon="34.92013168"><ele>436.8</ele><time>2013-11-22T12:45:24.0000000+00:00</time></trkpt><trkpt lat="30.61977005" lon="34.92012024"><ele>436.6</ele><time>2013-11-22T12:45:29.0000000+00:00</time></trkpt><trkpt lat="30.61977005" lon="34.92012024"><ele>436.6</ele><time>2013-11-22T12:45:34.0000000+00:00</time></trkpt><trkpt lat="30.61977005" lon="34.92012024"><ele>436.6</ele><time>2013-11-22T12:45:39.0000000+00:00</time></trkpt><trkpt lat="30.61977005" lon="34.92012024"><ele>436.6</ele><time>2013-11-22T12:45:44.0000000+00:00</time></trkpt><trkpt lat="30.61977005" lon="34.92012024"><ele>436.6</ele><time>2013-11-22T12:45:49.0000000+00:00</time></trkpt><trkpt lat="30.61977005" lon="34.92012024"><ele>436.6</ele><time>2013-11-22T12:45:54.0000000+00:00</time></trkpt><trkpt lat="30.61977005" lon="34.92012024"><ele>436.6</ele><time>2013-11-22T12:45:59.0000000+00:00</time></trkpt><trkpt lat="30.61977196" lon="34.92011643"><ele>436.0</ele><time>2013-11-22T12:46:04.0000000+00:00</time></trkpt><trkpt lat="30.61977959" lon="34.92011643"><ele>435.2</ele><time>2013-11-22T12:46:09.0000000+00:00</time></trkpt><trkpt lat="30.61977959" lon="34.92011643"><ele>434.5</ele><time>2013-11-22T12:46:14.0000000+00:00</time></trkpt><trkpt lat="30.61978149" lon="34.92012405"><ele>434.1</ele><time>2013-11-22T12:46:19.0000000+00:00</time></trkpt><trkpt lat="30.61978722" lon="34.92012405"><ele>434.4</ele><time>2013-11-22T12:46:24.0000000+00:00</time></trkpt><trkpt lat="30.61979485" lon="34.92011643"><ele>434.7</ele><time>2013-11-22T12:46:29.0000000+00:00</time></trkpt><trkpt lat="30.61980629" lon="34.92012787"><ele>434.9</ele><time>2013-11-22T12:46:34.0000000+00:00</time></trkpt><trkpt lat="30.61981964" lon="34.9201355"><ele>434.7</ele><time>2013-11-22T12:46:39.0000000+00:00</time></trkpt><trkpt lat="30.61982536" lon="34.92014313"><ele>434.2</ele><time>2013-11-22T12:46:44.0000000+00:00</time></trkpt><trkpt lat="30.61982918" lon="34.92014694"><ele>434.0</ele><time>2013-11-22T12:46:49.0000000+00:00</time></trkpt><trkpt lat="30.61982727" lon="34.92014694"><ele>434.2</ele><time>2013-11-22T12:46:54.0000000+00:00</time></trkpt><trkpt lat="30.6198349" lon="34.92015457"><ele>434.2</ele><time>2013-11-22T12:46:59.0000000+00:00</time></trkpt><trkpt lat="30.61984062" lon="34.92015839"><ele>434.5</ele><time>2013-11-22T12:47:04.0000000+00:00</time></trkpt><trkpt lat="30.61989212" lon="34.92020798"><ele>434.1</ele><time>2013-11-22T12:47:09.0000000+00:00</time></trkpt><trkpt lat="30.61995316" lon="34.92029953"><ele>434.5</ele><time>2013-11-22T12:47:14.0000000+00:00</time></trkpt><trkpt lat="30.61998749" lon="34.92041779"><ele>435.6</ele><time>2013-11-22T12:47:19.0000000+00:00</time></trkpt><trkpt lat="30.61999703" lon="34.92045212"><ele>435.1</ele><time>2013-11-22T12:47:24.0000000+00:00</time></trkpt><trkpt lat="30.61999703" lon="34.92044449"><ele>434.9</ele><time>2013-11-22T12:47:29.0000000+00:00</time></trkpt><trkpt lat="30.61999893" lon="34.92044067"><ele>434.4</ele><time>2013-11-22T12:47:34.0000000+00:00</time></trkpt><trkpt lat="30.61999703" lon="34.92043686"><ele>434.1</ele><time>2013-11-22T12:47:39.0000000+00:00</time></trkpt><trkpt lat="30.61999703" lon="34.92043686"><ele>434.1</ele><time>2013-11-22T12:47:44.0000000+00:00</time></trkpt><trkpt lat="30.61999321" lon="34.92043304"><ele>434.4</ele><time>2013-11-22T12:47:49.0000000+00:00</time></trkpt><trkpt lat="30.61999321" lon="34.92042923"><ele>434.6</ele><time>2013-11-22T12:47:54.0000000+00:00</time></trkpt><trkpt lat="30.6199913" lon="34.92043304"><ele>434.5</ele><time>2013-11-22T12:47:59.0000000+00:00</time></trkpt><trkpt lat="30.61995888" lon="34.92045593"><ele>434.7</ele><time>2013-11-22T12:48:04.0000000+00:00</time></trkpt><trkpt lat="30.61991119" lon="34.92041016"><ele>435.0</ele><time>2013-11-22T12:48:09.0000000+00:00</time></trkpt><trkpt lat="30.61983681" lon="34.92038345"><ele>435.6</ele><time>2013-11-22T12:48:14.0000000+00:00</time></trkpt><trkpt lat="30.61976242" lon="34.92037201"><ele>436.4</ele><time>2013-11-22T12:48:19.0000000+00:00</time></trkpt><trkpt lat="30.61970329" lon="34.92036057"><ele>436.9</ele><time>2013-11-22T12:48:24.0000000+00:00</time></trkpt><trkpt lat="30.61964798" lon="34.92034531"><ele>436.2</ele><time>2013-11-22T12:48:29.0000000+00:00</time></trkpt><trkpt lat="30.61956978" lon="34.92029953"><ele>437.7</ele><time>2013-11-22T12:48:34.0000000+00:00</time></trkpt><trkpt lat="30.61955071" lon="34.9202919"><ele>437.4</ele><time>2013-11-22T12:48:39.0000000+00:00</time></trkpt><trkpt lat="30.61955261" lon="34.92029572"><ele>437.4</ele><time>2013-11-22T12:48:44.0000000+00:00</time></trkpt><trkpt lat="30.6195221" lon="34.92028427"><ele>437.0</ele><time>2013-11-22T12:48:49.0000000+00:00</time></trkpt><trkpt lat="30.61945915" lon="34.92024994"><ele>436.8</ele><time>2013-11-22T12:48:54.0000000+00:00</time></trkpt><trkpt lat="30.61940765" lon="34.92023468"><ele>438.1</ele><time>2013-11-22T12:48:59.0000000+00:00</time></trkpt><trkpt lat="30.61937332" lon="34.92021179"><ele>437.2</ele><time>2013-11-22T12:49:04.0000000+00:00</time></trkpt><trkpt lat="30.61937523" lon="34.92020798"><ele>436.7</ele><time>2013-11-22T12:49:09.0000000+00:00</time></trkpt><trkpt lat="30.61937523" lon="34.92020798"><ele>436.8</ele><time>2013-11-22T12:49:14.0000000+00:00</time></trkpt><trkpt lat="30.61937523" lon="34.92020798"><ele>436.8</ele><time>2013-11-22T12:49:19.0000000+00:00</time></trkpt><trkpt lat="30.61937523" lon="34.92020798"><ele>436.8</ele><time>2013-11-22T12:49:24.0000000+00:00</time></trkpt><trkpt lat="30.61937523" lon="34.92020798"><ele>436.8</ele><time>2013-11-22T12:49:29.0000000+00:00</time></trkpt><trkpt lat="30.61937523" lon="34.92020798"><ele>436.8</ele><time>2013-11-22T12:49:34.0000000+00:00</time></trkpt><trkpt lat="30.61937523" lon="34.92020798"><ele>436.9</ele><time>2013-11-22T12:49:39.0000000+00:00</time></trkpt><trkpt lat="30.61937523" lon="34.92020798"><ele>436.9</ele><time>2013-11-22T12:49:44.0000000+00:00</time></trkpt><trkpt lat="30.61937523" lon="34.92020798"><ele>436.9</ele><time>2013-11-22T12:49:49.0000000+00:00</time></trkpt><trkpt lat="30.61937523" lon="34.92020798"><ele>436.9</ele><time>2013-11-22T12:49:54.0000000+00:00</time></trkpt><trkpt lat="30.61937523" lon="34.92020798"><ele>436.9</ele><time>2013-11-22T12:49:59.0000000+00:00</time></trkpt><trkpt lat="30.61937523" lon="34.92020798"><ele>436.9</ele><time>2013-11-22T12:50:04.0000000+00:00</time></trkpt><trkpt lat="30.6193161" lon="34.92018509"><ele>436.5</ele><time>2013-11-22T12:50:09.0000000+00:00</time></trkpt><trkpt lat="30.61920357" lon="34.92016602"><ele>435.8</ele><time>2013-11-22T12:50:14.0000000+00:00</time></trkpt><trkpt lat="30.61906052" lon="34.92013931"><ele>435.2</ele><time>2013-11-22T12:50:19.0000000+00:00</time></trkpt><trkpt lat="30.61903191" lon="34.9201355"><ele>435.0</ele><time>2013-11-22T12:50:24.0000000+00:00</time></trkpt><trkpt lat="30.61897659" lon="34.92014694"><ele>435.0</ele><time>2013-11-22T12:50:29.0000000+00:00</time></trkpt><trkpt lat="30.61880684" lon="34.92015457"><ele>431.9</ele><time>2013-11-22T12:50:34.0000000+00:00</time></trkpt><trkpt lat="30.61862183" lon="34.92015076"><ele>428.8</ele><time>2013-11-22T12:50:39.0000000+00:00</time></trkpt><trkpt lat="30.61845779" lon="34.92014313"><ele>427.6</ele><time>2013-11-22T12:50:44.0000000+00:00</time></trkpt><trkpt lat="30.61835671" lon="34.91996384"><ele>425.6</ele><time>2013-11-22T12:50:49.0000000+00:00</time></trkpt><trkpt lat="30.61832619" lon="34.91974258"><ele>424.5</ele><time>2013-11-22T12:50:54.0000000+00:00</time></trkpt><trkpt lat="30.61828232" lon="34.91953278"><ele>423.9</ele><time>2013-11-22T12:50:59.0000000+00:00</time></trkpt><trkpt lat="30.61821365" lon="34.9193573"><ele>422.7</ele><time>2013-11-22T12:51:04.0000000+00:00</time></trkpt><trkpt lat="30.61812973" lon="34.91917801"><ele>419.0</ele><time>2013-11-22T12:51:09.0000000+00:00</time></trkpt><trkpt lat="30.61804771" lon="34.91897583"><ele>419.9</ele><time>2013-11-22T12:51:14.0000000+00:00</time></trkpt><trkpt lat="30.61802864" lon="34.91883087"><ele>420.7</ele><time>2013-11-22T12:51:19.0000000+00:00</time></trkpt><trkpt lat="30.61803627" lon="34.9187088"><ele>420.6</ele><time>2013-11-22T12:51:24.0000000+00:00</time></trkpt><trkpt lat="30.61806107" lon="34.91858673"><ele>420.2</ele><time>2013-11-22T12:51:29.0000000+00:00</time></trkpt><trkpt lat="30.6180954" lon="34.91843414"><ele>421.1</ele><time>2013-11-22T12:51:34.0000000+00:00</time></trkpt><trkpt lat="30.61811829" lon="34.91828919"><ele>423.0</ele><time>2013-11-22T12:51:39.0000000+00:00</time></trkpt><trkpt lat="30.61816406" lon="34.91812134"><ele>425.1</ele><time>2013-11-22T12:51:44.0000000+00:00</time></trkpt><trkpt lat="30.61821365" lon="34.91795349"><ele>426.2</ele><time>2013-11-22T12:51:49.0000000+00:00</time></trkpt><trkpt lat="30.6182766" lon="34.91780853"><ele>426.1</ele><time>2013-11-22T12:51:54.0000000+00:00</time></trkpt><trkpt lat="30.61830521" lon="34.91762161"><ele>423.4</ele><time>2013-11-22T12:51:59.0000000+00:00</time></trkpt><trkpt lat="30.61831856" lon="34.9174614"><ele>423.0</ele><time>2013-11-22T12:52:04.0000000+00:00</time></trkpt><trkpt lat="30.61833191" lon="34.91740799"><ele>420.3</ele><time>2013-11-22T12:52:09.0000000+00:00</time></trkpt><trkpt lat="30.61833191" lon="34.9174118"><ele>420.1</ele><time>2013-11-22T12:52:14.0000000+00:00</time></trkpt><trkpt lat="30.61833" lon="34.9174118"><ele>420.2</ele><time>2013-11-22T12:52:19.0000000+00:00</time></trkpt><trkpt lat="30.61832809" lon="34.9174118"><ele>420.3</ele><time>2013-11-22T12:52:24.0000000+00:00</time></trkpt><trkpt lat="30.61832809" lon="34.9174118"><ele>420.3</ele><time>2013-11-22T12:52:29.0000000+00:00</time></trkpt><trkpt lat="30.61832809" lon="34.9174118"><ele>420.3</ele><time>2013-11-22T12:52:34.0000000+00:00</time></trkpt><trkpt lat="30.61832809" lon="34.9174118"><ele>420.3</ele><time>2013-11-22T12:52:39.0000000+00:00</time></trkpt><trkpt lat="30.61832809" lon="34.9174118"><ele>420.3</ele><time>2013-11-22T12:52:44.0000000+00:00</time></trkpt><trkpt lat="30.61832809" lon="34.9174118"><ele>420.3</ele><time>2013-11-22T12:52:49.0000000+00:00</time></trkpt><trkpt lat="30.61832809" lon="34.9174118"><ele>420.3</ele><time>2013-11-22T12:52:54.0000000+00:00</time></trkpt><trkpt lat="30.61832809" lon="34.9174118"><ele>420.3</ele><time>2013-11-22T12:52:59.0000000+00:00</time></trkpt><trkpt lat="30.61833572" lon="34.91740418"><ele>420.4</ele><time>2013-11-22T12:53:04.0000000+00:00</time></trkpt><trkpt lat="30.61834145" lon="34.91740036"><ele>420.9</ele><time>2013-11-22T12:53:09.0000000+00:00</time></trkpt><trkpt lat="30.61833954" lon="34.91740036"><ele>421.5</ele><time>2013-11-22T12:53:14.0000000+00:00</time></trkpt><trkpt lat="30.61833954" lon="34.91740036"><ele>421.5</ele><time>2013-11-22T12:53:19.0000000+00:00</time></trkpt><trkpt lat="30.61833954" lon="34.91740036"><ele>421.5</ele><time>2013-11-22T12:53:24.0000000+00:00</time></trkpt><trkpt lat="30.61833954" lon="34.91740036"><ele>421.4</ele><time>2013-11-22T12:53:29.0000000+00:00</time></trkpt><trkpt lat="30.61833954" lon="34.91740036"><ele>421.4</ele><time>2013-11-22T12:53:34.0000000+00:00</time></trkpt><trkpt lat="30.61833954" lon="34.91740036"><ele>421.4</ele><time>2013-11-22T12:53:39.0000000+00:00</time></trkpt><trkpt lat="30.61833954" lon="34.91740036"><ele>421.4</ele><time>2013-11-22T12:53:44.0000000+00:00</time></trkpt><trkpt lat="30.61833954" lon="34.91740036"><ele>421.4</ele><time>2013-11-22T12:53:49.0000000+00:00</time></trkpt><trkpt lat="30.61833954" lon="34.91740036"><ele>421.4</ele><time>2013-11-22T12:53:54.0000000+00:00</time></trkpt><trkpt lat="30.61833954" lon="34.91740036"><ele>421.5</ele><time>2013-11-22T12:53:59.0000000+00:00</time></trkpt><trkpt lat="30.61833954" lon="34.91740036"><ele>421.6</ele><time>2013-11-22T12:54:04.0000000+00:00</time></trkpt><trkpt lat="30.61833954" lon="34.91740036"><ele>421.6</ele><time>2013-11-22T12:54:09.0000000+00:00</time></trkpt><trkpt lat="30.61833954" lon="34.91740036"><ele>421.6</ele><time>2013-11-22T12:54:14.0000000+00:00</time></trkpt><trkpt lat="30.61833954" lon="34.91740036"><ele>421.6</ele><time>2013-11-22T12:54:19.0000000+00:00</time></trkpt><trkpt lat="30.61833954" lon="34.91740036"><ele>421.6</ele><time>2013-11-22T12:54:24.0000000+00:00</time></trkpt><trkpt lat="30.61833954" lon="34.91740036"><ele>421.6</ele><time>2013-11-22T12:54:29.0000000+00:00</time></trkpt><trkpt lat="30.61840248" lon="34.91729736"><ele>422.1</ele><time>2013-11-22T12:54:34.0000000+00:00</time></trkpt><trkpt lat="30.6184864" lon="34.91713715"><ele>422.6</ele><time>2013-11-22T12:54:39.0000000+00:00</time></trkpt><trkpt lat="30.61858368" lon="34.91700745"><ele>422.0</ele><time>2013-11-22T12:54:44.0000000+00:00</time></trkpt><trkpt lat="30.61870384" lon="34.91688919"><ele>422.5</ele><time>2013-11-22T12:54:49.0000000+00:00</time></trkpt><trkpt lat="30.6188488" lon="34.91675949"><ele>423.6</ele><time>2013-11-22T12:54:54.0000000+00:00</time></trkpt><trkpt lat="30.61901665" lon="34.91667175"><ele>421.4</ele><time>2013-11-22T12:54:59.0000000+00:00</time></trkpt><trkpt lat="30.61920548" lon="34.91667557"><ele>418.8</ele><time>2013-11-22T12:55:04.0000000+00:00</time></trkpt><trkpt lat="30.61938667" lon="34.91675186"><ele>419.5</ele><time>2013-11-22T12:55:09.0000000+00:00</time></trkpt><trkpt lat="30.61958122" lon="34.91682053"><ele>420.3</ele><time>2013-11-22T12:55:14.0000000+00:00</time></trkpt><trkpt lat="30.61977196" lon="34.91687775"><ele>419.5</ele><time>2013-11-22T12:55:19.0000000+00:00</time></trkpt><trkpt lat="30.61997795" lon="34.91692352"><ele>423.9</ele><time>2013-11-22T12:55:24.0000000+00:00</time></trkpt><trkpt lat="30.62014389" lon="34.91691208"><ele>430.7</ele><time>2013-11-22T12:55:29.0000000+00:00</time></trkpt><trkpt lat="30.62023735" lon="34.91689301"><ele>433.7</ele><time>2013-11-22T12:55:34.0000000+00:00</time></trkpt><trkpt lat="30.6203289" lon="34.91687393"><ele>436.5</ele><time>2013-11-22T12:55:39.0000000+00:00</time></trkpt><trkpt lat="30.6204586" lon="34.91684723"><ele>438.3</ele><time>2013-11-22T12:55:44.0000000+00:00</time></trkpt><trkpt lat="30.6206131" lon="34.9168129"><ele>438.8</ele><time>2013-11-22T12:55:49.0000000+00:00</time></trkpt><trkpt lat="30.6207962" lon="34.91675949"><ele>441.0</ele><time>2013-11-22T12:55:54.0000000+00:00</time></trkpt><trkpt lat="30.62097931" lon="34.9166832"><ele>442.6</ele><time>2013-11-22T12:55:59.0000000+00:00</time></trkpt><trkpt lat="30.62115288" lon="34.91658783"><ele>442.8</ele><time>2013-11-22T12:56:04.0000000+00:00</time></trkpt><trkpt lat="30.62129211" lon="34.91642761"><ele>442.8</ele><time>2013-11-22T12:56:09.0000000+00:00</time></trkpt><trkpt lat="30.62143135" lon="34.91624069"><ele>442.8</ele><time>2013-11-22T12:56:14.0000000+00:00</time></trkpt><trkpt lat="30.62162018" lon="34.91612244"><ele>443.3</ele><time>2013-11-22T12:56:19.0000000+00:00</time></trkpt><trkpt lat="30.62182999" lon="34.91601181"><ele>443.1</ele><time>2013-11-22T12:56:24.0000000+00:00</time></trkpt><trkpt lat="30.62201691" lon="34.91592026"><ele>443.9</ele><time>2013-11-22T12:56:29.0000000+00:00</time></trkpt><trkpt lat="30.62210655" lon="34.91586685"><ele>444.3</ele><time>2013-11-22T12:56:34.0000000+00:00</time></trkpt><trkpt lat="30.62220383" lon="34.91581345"><ele>443.6</ele><time>2013-11-22T12:56:39.0000000+00:00</time></trkpt><trkpt lat="30.62229157" lon="34.91576767"><ele>441.9</ele><time>2013-11-22T12:56:44.0000000+00:00</time></trkpt><trkpt lat="30.62238884" lon="34.91570664"><ele>442.6</ele><time>2013-11-22T12:56:49.0000000+00:00</time></trkpt><trkpt lat="30.62249374" lon="34.91563034"><ele>442.9</ele><time>2013-11-22T12:56:54.0000000+00:00</time></trkpt><trkpt lat="30.622612" lon="34.91555023"><ele>442.7</ele><time>2013-11-22T12:56:59.0000000+00:00</time></trkpt><trkpt lat="30.62273979" lon="34.91546631"><ele>444.2</ele><time>2013-11-22T12:57:04.0000000+00:00</time></trkpt><trkpt lat="30.62290764" lon="34.91543198"><ele>444.8</ele><time>2013-11-22T12:57:09.0000000+00:00</time></trkpt><trkpt lat="30.62306595" lon="34.91537476"><ele>440.8</ele><time>2013-11-22T12:57:14.0000000+00:00</time></trkpt><trkpt lat="30.62318993" lon="34.91536713"><ele>438.0</ele><time>2013-11-22T12:57:19.0000000+00:00</time></trkpt><trkpt lat="30.62332916" lon="34.91534424"><ele>434.4</ele><time>2013-11-22T12:57:24.0000000+00:00</time></trkpt><trkpt lat="30.62355804" lon="34.91531372"><ele>431.8</ele><time>2013-11-22T12:57:29.0000000+00:00</time></trkpt><trkpt lat="30.62377358" lon="34.91516495"><ele>428.3</ele><time>2013-11-22T12:57:34.0000000+00:00</time></trkpt><trkpt lat="30.62392235" lon="34.91487122"><ele>424.5</ele><time>2013-11-22T12:57:39.0000000+00:00</time></trkpt><trkpt lat="30.62400818" lon="34.9144516"><ele>419.3</ele><time>2013-11-22T12:57:44.0000000+00:00</time></trkpt><trkpt lat="30.62401772" lon="34.9140358"><ele>419.4</ele><time>2013-11-22T12:57:49.0000000+00:00</time></trkpt><trkpt lat="30.62402153" lon="34.91383362"><ele>421.0</ele><time>2013-11-22T12:57:54.0000000+00:00</time></trkpt><trkpt lat="30.62401009" lon="34.91371918"><ele>419.0</ele><time>2013-11-22T12:57:59.0000000+00:00</time></trkpt><trkpt lat="30.62397957" lon="34.91360474"><ele>421.4</ele><time>2013-11-22T12:58:04.0000000+00:00</time></trkpt><trkpt lat="30.62394142" lon="34.91348267"><ele>421.2</ele><time>2013-11-22T12:58:09.0000000+00:00</time></trkpt><trkpt lat="30.62389374" lon="34.91337967"><ele>421.5</ele><time>2013-11-22T12:58:14.0000000+00:00</time></trkpt><trkpt lat="30.6238327" lon="34.91327667"><ele>421.8</ele><time>2013-11-22T12:58:19.0000000+00:00</time></trkpt><trkpt lat="30.62376976" lon="34.91317749"><ele>423.1</ele><time>2013-11-22T12:58:24.0000000+00:00</time></trkpt><trkpt lat="30.62369347" lon="34.91310501"><ele>426.0</ele><time>2013-11-22T12:58:29.0000000+00:00</time></trkpt><trkpt lat="30.62365532" lon="34.91301727"><ele>428.3</ele><time>2013-11-22T12:58:34.0000000+00:00</time></trkpt><trkpt lat="30.62359238" lon="34.91292954"><ele>428.3</ele><time>2013-11-22T12:58:39.0000000+00:00</time></trkpt><trkpt lat="30.62355042" lon="34.91283798"><ele>426.7</ele><time>2013-11-22T12:58:44.0000000+00:00</time></trkpt><trkpt lat="30.62348557" lon="34.91274643"><ele>427.6</ele><time>2013-11-22T12:58:49.0000000+00:00</time></trkpt><trkpt lat="30.62341118" lon="34.91266632"><ele>429.6</ele><time>2013-11-22T12:58:54.0000000+00:00</time></trkpt><trkpt lat="30.62336922" lon="34.91258621"><ele>430.4</ele><time>2013-11-22T12:58:59.0000000+00:00</time></trkpt><trkpt lat="30.62331581" lon="34.91246796"><ele>431.6</ele><time>2013-11-22T12:59:04.0000000+00:00</time></trkpt><trkpt lat="30.62324143" lon="34.91236115"><ele>432.7</ele><time>2013-11-22T12:59:09.0000000+00:00</time></trkpt><trkpt lat="30.62316322" lon="34.91223908"><ele>434.2</ele><time>2013-11-22T12:59:14.0000000+00:00</time></trkpt><trkpt lat="30.62303925" lon="34.91212845"><ele>436.2</ele><time>2013-11-22T12:59:19.0000000+00:00</time></trkpt><trkpt lat="30.62289047" lon="34.91202927"><ele>438.5</ele><time>2013-11-22T12:59:24.0000000+00:00</time></trkpt><trkpt lat="30.62273979" lon="34.91193008"><ele>440.7</ele><time>2013-11-22T12:59:29.0000000+00:00</time></trkpt><trkpt lat="30.622612" lon="34.91179276"><ele>443.8</ele><time>2013-11-22T12:59:34.0000000+00:00</time></trkpt><trkpt lat="30.62248039" lon="34.91166306"><ele>444.5</ele><time>2013-11-22T12:59:39.0000000+00:00</time></trkpt><trkpt lat="30.62236404" lon="34.91154099"><ele>444.4</ele><time>2013-11-22T12:59:44.0000000+00:00</time></trkpt><trkpt lat="30.62225723" lon="34.91145706"><ele>446.0</ele><time>2013-11-22T12:59:49.0000000+00:00</time></trkpt><trkpt lat="30.62213707" lon="34.91135788"><ele>446.9</ele><time>2013-11-22T12:59:54.0000000+00:00</time></trkpt><trkpt lat="30.62199783" lon="34.91124725"><ele>449.5</ele><time>2013-11-22T12:59:59.0000000+00:00</time></trkpt><trkpt lat="30.62185669" lon="34.91114426"><ele>450.8</ele><time>2013-11-22T13:00:04.0000000+00:00</time></trkpt><trkpt lat="30.62171173" lon="34.91103745"><ele>452.2</ele><time>2013-11-22T13:00:09.0000000+00:00</time></trkpt><trkpt lat="30.6215744" lon="34.91091919"><ele>452.5</ele><time>2013-11-22T13:00:14.0000000+00:00</time></trkpt><trkpt lat="30.62145233" lon="34.91077805"><ele>452.9</ele><time>2013-11-22T13:00:19.0000000+00:00</time></trkpt><trkpt lat="30.6213665" lon="34.9106102"><ele>453.8</ele><time>2013-11-22T13:00:24.0000000+00:00</time></trkpt><trkpt lat="30.62130165" lon="34.91047669"><ele>454.6</ele><time>2013-11-22T13:00:29.0000000+00:00</time></trkpt><trkpt lat="30.62125397" lon="34.91040421"><ele>454.9</ele><time>2013-11-22T13:00:34.0000000+00:00</time></trkpt><trkpt lat="30.62123871" lon="34.91036987"><ele>454.9</ele><time>2013-11-22T13:00:39.0000000+00:00</time></trkpt><trkpt lat="30.62124062" lon="34.91036987"><ele>455.1</ele><time>2013-11-22T13:00:44.0000000+00:00</time></trkpt><trkpt lat="30.62124252" lon="34.91036987"><ele>455.2</ele><time>2013-11-22T13:00:49.0000000+00:00</time></trkpt><trkpt lat="30.6212368" lon="34.91036987"><ele>455.4</ele><time>2013-11-22T13:00:54.0000000+00:00</time></trkpt><trkpt lat="30.6212368" lon="34.91036987"><ele>455.5</ele><time>2013-11-22T13:00:59.0000000+00:00</time></trkpt><trkpt lat="30.6212368" lon="34.91036987"><ele>455.7</ele><time>2013-11-22T13:01:04.0000000+00:00</time></trkpt><trkpt lat="30.6212368" lon="34.91036987"><ele>455.7</ele><time>2013-11-22T13:01:09.0000000+00:00</time></trkpt><trkpt lat="30.62123299" lon="34.91036224"><ele>456.0</ele><time>2013-11-22T13:01:14.0000000+00:00</time></trkpt><trkpt lat="30.62119484" lon="34.91029739"><ele>455.8</ele><time>2013-11-22T13:01:19.0000000+00:00</time></trkpt><trkpt lat="30.62120056" lon="34.91019058"><ele>456.9</ele><time>2013-11-22T13:01:24.0000000+00:00</time></trkpt><trkpt lat="30.62130165" lon="34.91007996"><ele>459.0</ele><time>2013-11-22T13:01:29.0000000+00:00</time></trkpt><trkpt lat="30.62135506" lon="34.9099884"><ele>459.3</ele><time>2013-11-22T13:01:34.0000000+00:00</time></trkpt><trkpt lat="30.62141419" lon="34.90988159"><ele>463.5</ele><time>2013-11-22T13:01:39.0000000+00:00</time></trkpt><trkpt lat="30.62141419" lon="34.90978241"><ele>461.6</ele><time>2013-11-22T13:01:44.0000000+00:00</time></trkpt><trkpt lat="30.62132835" lon="34.90969086"><ele>462.1</ele><time>2013-11-22T13:01:49.0000000+00:00</time></trkpt><trkpt lat="30.62124634" lon="34.9095993"><ele>460.9</ele><time>2013-11-22T13:01:54.0000000+00:00</time></trkpt><trkpt lat="30.62119293" lon="34.90952683"><ele>461.3</ele><time>2013-11-22T13:01:59.0000000+00:00</time></trkpt><trkpt lat="30.62120247" lon="34.90942001"><ele>462.1</ele><time>2013-11-22T13:02:04.0000000+00:00</time></trkpt><trkpt lat="30.6212616" lon="34.90933228"><ele>461.5</ele><time>2013-11-22T13:02:09.0000000+00:00</time></trkpt><trkpt lat="30.62131882" lon="34.90926361"><ele>461.1</ele><time>2013-11-22T13:02:14.0000000+00:00</time></trkpt><trkpt lat="30.621315" lon="34.90924835"><ele>462.9</ele><time>2013-11-22T13:02:19.0000000+00:00</time></trkpt><trkpt lat="30.621315" lon="34.90924835"><ele>462.9</ele><time>2013-11-22T13:02:24.0000000+00:00</time></trkpt><trkpt lat="30.621315" lon="34.90924835"><ele>462.9</ele><time>2013-11-22T13:02:29.0000000+00:00</time></trkpt><trkpt lat="30.621315" lon="34.90924835"><ele>462.9</ele><time>2013-11-22T13:02:34.0000000+00:00</time></trkpt><trkpt lat="30.621315" lon="34.90924835"><ele>462.9</ele><time>2013-11-22T13:02:39.0000000+00:00</time></trkpt><trkpt lat="30.621315" lon="34.90924835"><ele>462.9</ele><time>2013-11-22T13:02:44.0000000+00:00</time></trkpt><trkpt lat="30.621315" lon="34.90924835"><ele>462.9</ele><time>2013-11-22T13:02:49.0000000+00:00</time></trkpt><trkpt lat="30.621315" lon="34.90924835"><ele>462.9</ele><time>2013-11-22T13:02:54.0000000+00:00</time></trkpt><trkpt lat="30.621315" lon="34.90924835"><ele>463.0</ele><time>2013-11-22T13:02:59.0000000+00:00</time></trkpt><trkpt lat="30.621315" lon="34.90924835"><ele>463.0</ele><time>2013-11-22T13:03:04.0000000+00:00</time></trkpt><trkpt lat="30.621315" lon="34.90924835"><ele>463.0</ele><time>2013-11-22T13:03:09.0000000+00:00</time></trkpt><trkpt lat="30.621315" lon="34.90924835"><ele>463.0</ele><time>2013-11-22T13:03:14.0000000+00:00</time></trkpt><trkpt lat="30.621315" lon="34.90924835"><ele>463.1</ele><time>2013-11-22T13:03:19.0000000+00:00</time></trkpt><trkpt lat="30.621315" lon="34.90924835"><ele>463.1</ele><time>2013-11-22T13:03:24.0000000+00:00</time></trkpt><trkpt lat="30.621315" lon="34.90924835"><ele>463.1</ele><time>2013-11-22T13:03:29.0000000+00:00</time></trkpt><trkpt lat="30.621315" lon="34.90924835"><ele>463.2</ele><time>2013-11-22T13:03:34.0000000+00:00</time></trkpt><trkpt lat="30.621315" lon="34.90924835"><ele>463.3</ele><time>2013-11-22T13:03:39.0000000+00:00</time></trkpt><trkpt lat="30.621315" lon="34.90924835"><ele>463.3</ele><time>2013-11-22T13:03:44.0000000+00:00</time></trkpt><trkpt lat="30.6213131" lon="34.90924835"><ele>463.4</ele><time>2013-11-22T13:03:49.0000000+00:00</time></trkpt><trkpt lat="30.6213131" lon="34.90924835"><ele>463.4</ele><time>2013-11-22T13:03:54.0000000+00:00</time></trkpt><trkpt lat="30.6213131" lon="34.90924835"><ele>463.4</ele><time>2013-11-22T13:03:59.0000000+00:00</time></trkpt><trkpt lat="30.6213131" lon="34.90924835"><ele>463.5</ele><time>2013-11-22T13:04:04.0000000+00:00</time></trkpt><trkpt lat="30.6213131" lon="34.90924835"><ele>463.5</ele><time>2013-11-22T13:04:09.0000000+00:00</time></trkpt><trkpt lat="30.6213131" lon="34.90924835"><ele>463.5</ele><time>2013-11-22T13:04:14.0000000+00:00</time></trkpt><trkpt lat="30.6213131" lon="34.90924835"><ele>463.5</ele><time>2013-11-22T13:04:19.0000000+00:00</time></trkpt><trkpt lat="30.6213131" lon="34.90924835"><ele>463.5</ele><time>2013-11-22T13:04:24.0000000+00:00</time></trkpt><trkpt lat="30.6213131" lon="34.90924835"><ele>463.6</ele><time>2013-11-22T13:04:29.0000000+00:00</time></trkpt><trkpt lat="30.6213131" lon="34.90924835"><ele>463.6</ele><time>2013-11-22T13:04:34.0000000+00:00</time></trkpt><trkpt lat="30.6213131" lon="34.90924835"><ele>463.6</ele><time>2013-11-22T13:04:39.0000000+00:00</time></trkpt><trkpt lat="30.6213131" lon="34.90924835"><ele>463.7</ele><time>2013-11-22T13:04:44.0000000+00:00</time></trkpt><trkpt lat="30.6213131" lon="34.90924835"><ele>463.7</ele><time>2013-11-22T13:04:49.0000000+00:00</time></trkpt><trkpt lat="30.6213131" lon="34.90924454"><ele>464.3</ele><time>2013-11-22T13:04:54.0000000+00:00</time></trkpt><trkpt lat="30.62130737" lon="34.90924835"><ele>464.5</ele><time>2013-11-22T13:04:59.0000000+00:00</time></trkpt><trkpt lat="30.62129974" lon="34.90924835"><ele>465.2</ele><time>2013-11-22T13:05:04.0000000+00:00</time></trkpt><trkpt lat="30.62129211" lon="34.90926743"><ele>466.7</ele><time>2013-11-22T13:05:09.0000000+00:00</time></trkpt><trkpt lat="30.62129402" lon="34.90927887"><ele>467.8</ele><time>2013-11-22T13:05:14.0000000+00:00</time></trkpt><trkpt lat="30.62129211" lon="34.9092865"><ele>468.3</ele><time>2013-11-22T13:05:19.0000000+00:00</time></trkpt><trkpt lat="30.62128639" lon="34.90929413"><ele>469.1</ele><time>2013-11-22T13:05:24.0000000+00:00</time></trkpt><trkpt lat="30.62128449" lon="34.90929794"><ele>469.6</ele><time>2013-11-22T13:05:29.0000000+00:00</time></trkpt><trkpt lat="30.62128258" lon="34.90930176"><ele>470.1</ele><time>2013-11-22T13:05:34.0000000+00:00</time></trkpt><trkpt lat="30.62128258" lon="34.90930176"><ele>470.1</ele><time>2013-11-22T13:05:39.0000000+00:00</time></trkpt><trkpt lat="30.62128258" lon="34.90930176"><ele>470.1</ele><time>2013-11-22T13:05:44.0000000+00:00</time></trkpt><trkpt lat="30.62128258" lon="34.90930176"><ele>470.1</ele><time>2013-11-22T13:05:49.0000000+00:00</time></trkpt><trkpt lat="30.62128258" lon="34.90930176"><ele>470.1</ele><time>2013-11-22T13:05:54.0000000+00:00</time></trkpt><trkpt lat="30.62128258" lon="34.90930176"><ele>470.1</ele><time>2013-11-22T13:05:59.0000000+00:00</time></trkpt><trkpt lat="30.62128258" lon="34.90930176"><ele>470.2</ele><time>2013-11-22T13:06:04.0000000+00:00</time></trkpt><trkpt lat="30.62128258" lon="34.90930176"><ele>470.2</ele><time>2013-11-22T13:06:09.0000000+00:00</time></trkpt><trkpt lat="30.62128258" lon="34.90930176"><ele>470.2</ele><time>2013-11-22T13:06:14.0000000+00:00</time></trkpt><trkpt lat="30.62128067" lon="34.90930176"><ele>470.2</ele><time>2013-11-22T13:06:19.0000000+00:00</time></trkpt><trkpt lat="30.62128067" lon="34.90930176"><ele>470.2</ele><time>2013-11-22T13:06:24.0000000+00:00</time></trkpt><trkpt lat="30.62128067" lon="34.90930176"><ele>470.2</ele><time>2013-11-22T13:06:29.0000000+00:00</time></trkpt><trkpt lat="30.62128067" lon="34.90930176"><ele>470.2</ele><time>2013-11-22T13:06:34.0000000+00:00</time></trkpt><trkpt lat="30.62128067" lon="34.90930176"><ele>470.2</ele><time>2013-11-22T13:06:39.0000000+00:00</time></trkpt><trkpt lat="30.62128067" lon="34.90930176"><ele>470.2</ele><time>2013-11-22T13:06:44.0000000+00:00</time></trkpt><trkpt lat="30.62128067" lon="34.90930176"><ele>470.2</ele><time>2013-11-22T13:06:49.0000000+00:00</time></trkpt><trkpt lat="30.62128067" lon="34.90930176"><ele>470.2</ele><time>2013-11-22T13:06:54.0000000+00:00</time></trkpt><trkpt lat="30.62129402" lon="34.90928268"><ele>469.2</ele><time>2013-11-22T13:06:59.0000000+00:00</time></trkpt><trkpt lat="30.62129402" lon="34.90928268"><ele>469.2</ele><time>2013-11-22T13:07:04.0000000+00:00</time></trkpt><trkpt lat="30.62129402" lon="34.90928268"><ele>469.2</ele><time>2013-11-22T13:07:09.0000000+00:00</time></trkpt><trkpt lat="30.62129211" lon="34.9092865"><ele>469.2</ele><time>2013-11-22T13:07:14.0000000+00:00</time></trkpt><trkpt lat="30.62129784" lon="34.90928268"><ele>469.6</ele><time>2013-11-22T13:07:19.0000000+00:00</time></trkpt><trkpt lat="30.62130547" lon="34.90926743"><ele>468.4</ele><time>2013-11-22T13:07:24.0000000+00:00</time></trkpt><trkpt lat="30.621315" lon="34.90925598"><ele>468.6</ele><time>2013-11-22T13:07:29.0000000+00:00</time></trkpt><trkpt lat="30.62131882" lon="34.90924072"><ele>468.1</ele><time>2013-11-22T13:07:34.0000000+00:00</time></trkpt><trkpt lat="30.62132072" lon="34.90922928"><ele>467.9</ele><time>2013-11-22T13:07:39.0000000+00:00</time></trkpt><trkpt lat="30.62132454" lon="34.90922165"><ele>467.5</ele><time>2013-11-22T13:07:44.0000000+00:00</time></trkpt><trkpt lat="30.62132454" lon="34.90921783"><ele>466.8</ele><time>2013-11-22T13:07:49.0000000+00:00</time></trkpt><trkpt lat="30.62132645" lon="34.90921783"><ele>466.2</ele><time>2013-11-22T13:07:54.0000000+00:00</time></trkpt><trkpt lat="30.62132454" lon="34.90921783"><ele>465.9</ele><time>2013-11-22T13:07:59.0000000+00:00</time></trkpt><trkpt lat="30.62132645" lon="34.90922165"><ele>465.6</ele><time>2013-11-22T13:08:04.0000000+00:00</time></trkpt><trkpt lat="30.62132645" lon="34.90922165"><ele>465.4</ele><time>2013-11-22T13:08:09.0000000+00:00</time></trkpt><trkpt lat="30.62132454" lon="34.90922165"><ele>465.3</ele><time>2013-11-22T13:08:14.0000000+00:00</time></trkpt><trkpt lat="30.62132454" lon="34.90921783"><ele>465.1</ele><time>2013-11-22T13:08:19.0000000+00:00</time></trkpt><trkpt lat="30.62132645" lon="34.90921402"><ele>465.0</ele><time>2013-11-22T13:08:24.0000000+00:00</time></trkpt><trkpt lat="30.62133217" lon="34.90921402"><ele>465.1</ele><time>2013-11-22T13:08:29.0000000+00:00</time></trkpt><trkpt lat="30.62133789" lon="34.90922928"><ele>466.3</ele><time>2013-11-22T13:08:34.0000000+00:00</time></trkpt><trkpt lat="30.62133598" lon="34.90922546"><ele>466.7</ele><time>2013-11-22T13:08:39.0000000+00:00</time></trkpt><trkpt lat="30.62133408" lon="34.90922928"><ele>467.9</ele><time>2013-11-22T13:08:44.0000000+00:00</time></trkpt><trkpt lat="30.62133598" lon="34.90922546"><ele>468.7</ele><time>2013-11-22T13:08:49.0000000+00:00</time></trkpt><trkpt lat="30.62133217" lon="34.90922928"><ele>469.3</ele><time>2013-11-22T13:08:54.0000000+00:00</time></trkpt><trkpt lat="30.62133598" lon="34.90923691"><ele>469.9</ele><time>2013-11-22T13:08:59.0000000+00:00</time></trkpt><trkpt lat="30.62134171" lon="34.90924072"><ele>470.2</ele><time>2013-11-22T13:09:04.0000000+00:00</time></trkpt><trkpt lat="30.62133789" lon="34.90924835"><ele>470.4</ele><time>2013-11-22T13:09:09.0000000+00:00</time></trkpt><trkpt lat="30.6213398" lon="34.90924835"><ele>470.6</ele><time>2013-11-22T13:09:14.0000000+00:00</time></trkpt><trkpt lat="30.62134171" lon="34.90924835"><ele>470.6</ele><time>2013-11-22T13:09:19.0000000+00:00</time></trkpt><trkpt lat="30.6213398" lon="34.90925217"><ele>470.7</ele><time>2013-11-22T13:09:24.0000000+00:00</time></trkpt><trkpt lat="30.62133789" lon="34.90925598"><ele>470.8</ele><time>2013-11-22T13:09:29.0000000+00:00</time></trkpt><trkpt lat="30.62133408" lon="34.9092598"><ele>470.9</ele><time>2013-11-22T13:09:34.0000000+00:00</time></trkpt><trkpt lat="30.62132645" lon="34.90926743"><ele>470.9</ele><time>2013-11-22T13:09:39.0000000+00:00</time></trkpt><trkpt lat="30.62131691" lon="34.90927887"><ele>471.2</ele><time>2013-11-22T13:09:44.0000000+00:00</time></trkpt><trkpt lat="30.62130547" lon="34.90929413"><ele>471.7</ele><time>2013-11-22T13:09:49.0000000+00:00</time></trkpt><trkpt lat="30.62131119" lon="34.90929794"><ele>472.5</ele><time>2013-11-22T13:09:54.0000000+00:00</time></trkpt><trkpt lat="30.62131119" lon="34.90927887"><ele>473.0</ele><time>2013-11-22T13:09:59.0000000+00:00</time></trkpt><trkpt lat="30.6213131" lon="34.90927887"><ele>473.1</ele><time>2013-11-22T13:10:04.0000000+00:00</time></trkpt><trkpt lat="30.6213131" lon="34.90927887"><ele>472.8</ele><time>2013-11-22T13:10:09.0000000+00:00</time></trkpt><trkpt lat="30.6212635" lon="34.90929794"><ele>472.2</ele><time>2013-11-22T13:10:14.0000000+00:00</time></trkpt><trkpt lat="30.62122154" lon="34.90935135"><ele>471.0</ele><time>2013-11-22T13:10:19.0000000+00:00</time></trkpt><trkpt lat="30.6211853" lon="34.9094162"><ele>469.6</ele><time>2013-11-22T13:10:24.0000000+00:00</time></trkpt><trkpt lat="30.6211834" lon="34.90951538"><ele>470.0</ele><time>2013-11-22T13:10:29.0000000+00:00</time></trkpt><trkpt lat="30.62123108" lon="34.90961075"><ele>470.0</ele><time>2013-11-22T13:10:34.0000000+00:00</time></trkpt><trkpt lat="30.6212883" lon="34.90968323"><ele>469.3</ele><time>2013-11-22T13:10:39.0000000+00:00</time></trkpt><trkpt lat="30.62136459" lon="34.90974808"><ele>468.4</ele><time>2013-11-22T13:10:44.0000000+00:00</time></trkpt><trkpt lat="30.62141991" lon="34.90981674"><ele>466.4</ele><time>2013-11-22T13:10:49.0000000+00:00</time></trkpt><trkpt lat="30.62136078" lon="34.9099884"><ele>464.0</ele><time>2013-11-22T13:10:54.0000000+00:00</time></trkpt><trkpt lat="30.62120819" lon="34.91019058"><ele>461.6</ele><time>2013-11-22T13:10:59.0000000+00:00</time></trkpt><trkpt lat="30.62105179" lon="34.91020203"><ele>461.4</ele><time>2013-11-22T13:11:04.0000000+00:00</time></trkpt><trkpt lat="30.62091065" lon="34.91005707"><ele>460.7</ele><time>2013-11-22T13:11:09.0000000+00:00</time></trkpt><trkpt lat="30.62078095" lon="34.90987015"><ele>461.8</ele><time>2013-11-22T13:11:14.0000000+00:00</time></trkpt><trkpt lat="30.62068367" lon="34.9096756"><ele>461.5</ele><time>2013-11-22T13:11:19.0000000+00:00</time></trkpt><trkpt lat="30.62054062" lon="34.90950394"><ele>460.3</ele><time>2013-11-22T13:11:24.0000000+00:00</time></trkpt><trkpt lat="30.62041473" lon="34.90935135"><ele>458.9</ele><time>2013-11-22T13:11:29.0000000+00:00</time></trkpt><trkpt lat="30.62031174" lon="34.90919876"><ele>459.3</ele><time>2013-11-22T13:11:34.0000000+00:00</time></trkpt><trkpt lat="30.62021828" lon="34.90906525"><ele>459.9</ele><time>2013-11-22T13:11:39.0000000+00:00</time></trkpt><trkpt lat="30.62015915" lon="34.90896225"><ele>460.8</ele><time>2013-11-22T13:11:44.0000000+00:00</time></trkpt><trkpt lat="30.62010002" lon="34.90891266"><ele>459.3</ele><time>2013-11-22T13:11:49.0000000+00:00</time></trkpt><trkpt lat="30.62001801" lon="34.90879059"><ele>461.3</ele><time>2013-11-22T13:11:54.0000000+00:00</time></trkpt><trkpt lat="30.61992645" lon="34.90864945"><ele>463.4</ele><time>2013-11-22T13:11:59.0000000+00:00</time></trkpt><trkpt lat="30.61984062" lon="34.90846252"><ele>464.3</ele><time>2013-11-22T13:12:04.0000000+00:00</time></trkpt><trkpt lat="30.61976242" lon="34.90824127"><ele>464.4</ele><time>2013-11-22T13:12:09.0000000+00:00</time></trkpt><trkpt lat="30.61969376" lon="34.90800858"><ele>465.2</ele><time>2013-11-22T13:12:14.0000000+00:00</time></trkpt><trkpt lat="30.61961365" lon="34.90773773"><ele>466.7</ele><time>2013-11-22T13:12:19.0000000+00:00</time></trkpt><trkpt lat="30.61957932" lon="34.90743256"><ele>468.4</ele><time>2013-11-22T13:12:24.0000000+00:00</time></trkpt><trkpt lat="30.61955643" lon="34.90715027"><ele>471.1</ele><time>2013-11-22T13:12:29.0000000+00:00</time></trkpt><trkpt lat="30.61947823" lon="34.90687943"><ele>473.7</ele><time>2013-11-22T13:12:34.0000000+00:00</time></trkpt><trkpt lat="30.6193924" lon="34.90668488"><ele>475.6</ele><time>2013-11-22T13:12:39.0000000+00:00</time></trkpt><trkpt lat="30.61933327" lon="34.90652847"><ele>477.1</ele><time>2013-11-22T13:12:44.0000000+00:00</time></trkpt><trkpt lat="30.61927986" lon="34.90639114"><ele>478.7</ele><time>2013-11-22T13:12:49.0000000+00:00</time></trkpt><trkpt lat="30.61922646" lon="34.90625"><ele>480.3</ele><time>2013-11-22T13:12:54.0000000+00:00</time></trkpt><trkpt lat="30.61918449" lon="34.90610123"><ele>482.2</ele><time>2013-11-22T13:12:59.0000000+00:00</time></trkpt><trkpt lat="30.61915207" lon="34.9059906"><ele>482.4</ele><time>2013-11-22T13:13:04.0000000+00:00</time></trkpt><trkpt lat="30.61910248" lon="34.90587235"><ele>482.6</ele><time>2013-11-22T13:13:09.0000000+00:00</time></trkpt><trkpt lat="30.61903954" lon="34.90573883"><ele>484.2</ele><time>2013-11-22T13:13:14.0000000+00:00</time></trkpt><trkpt lat="30.61899185" lon="34.90558243"><ele>487.0</ele><time>2013-11-22T13:13:19.0000000+00:00</time></trkpt><trkpt lat="30.61895752" lon="34.90542221"><ele>488.8</ele><time>2013-11-22T13:13:24.0000000+00:00</time></trkpt><trkpt lat="30.61892891" lon="34.90526581"><ele>489.6</ele><time>2013-11-22T13:13:29.0000000+00:00</time></trkpt><trkpt lat="30.61891365" lon="34.90510178"><ele>490.7</ele><time>2013-11-22T13:13:34.0000000+00:00</time></trkpt><trkpt lat="30.6188755" lon="34.90491486"><ele>489.2</ele><time>2013-11-22T13:13:39.0000000+00:00</time></trkpt><trkpt lat="30.61878014" lon="34.90470123"><ele>486.8</ele><time>2013-11-22T13:13:44.0000000+00:00</time></trkpt><trkpt lat="30.61867142" lon="34.90445709"><ele>484.7</ele><time>2013-11-22T13:13:49.0000000+00:00</time></trkpt><trkpt lat="30.61853027" lon="34.90418243"><ele>482.4</ele><time>2013-11-22T13:13:54.0000000+00:00</time></trkpt><trkpt lat="30.61835671" lon="34.90385819"><ele>480.6</ele><time>2013-11-22T13:13:59.0000000+00:00</time></trkpt><trkpt lat="30.61818123" lon="34.90351105"><ele>477.6</ele><time>2013-11-22T13:14:04.0000000+00:00</time></trkpt><trkpt lat="30.61797142" lon="34.90316773"><ele>476.2</ele><time>2013-11-22T13:14:09.0000000+00:00</time></trkpt><trkpt lat="30.61767769" lon="34.90297699"><ele>473.0</ele><time>2013-11-22T13:14:14.0000000+00:00</time></trkpt><trkpt lat="30.61746979" lon="34.90274048"><ele>472.0</ele><time>2013-11-22T13:14:19.0000000+00:00</time></trkpt><trkpt lat="30.61740875" lon="34.90245056"><ele>473.5</ele><time>2013-11-22T13:14:24.0000000+00:00</time></trkpt><trkpt lat="30.61743546" lon="34.9021759"><ele>474.9</ele><time>2013-11-22T13:14:29.0000000+00:00</time></trkpt><trkpt lat="30.61750412" lon="34.90192032"><ele>474.0</ele><time>2013-11-22T13:14:34.0000000+00:00</time></trkpt><trkpt lat="30.61756134" lon="34.90166473"><ele>474.2</ele><time>2013-11-22T13:14:39.0000000+00:00</time></trkpt><trkpt lat="30.61758232" lon="34.90142059"><ele>475.8</ele><time>2013-11-22T13:14:44.0000000+00:00</time></trkpt><trkpt lat="30.61761475" lon="34.90122223"><ele>476.7</ele><time>2013-11-22T13:14:49.0000000+00:00</time></trkpt><trkpt lat="30.61764526" lon="34.90102005"><ele>478.0</ele><time>2013-11-22T13:14:54.0000000+00:00</time></trkpt><trkpt lat="30.61767197" lon="34.90084076"><ele>479.3</ele><time>2013-11-22T13:14:59.0000000+00:00</time></trkpt><trkpt lat="30.61770248" lon="34.9006424"><ele>480.4</ele><time>2013-11-22T13:15:04.0000000+00:00</time></trkpt><trkpt lat="30.61773682" lon="34.90042877"><ele>482.2</ele><time>2013-11-22T13:15:09.0000000+00:00</time></trkpt><trkpt lat="30.61776924" lon="34.90020371"><ele>483.8</ele><time>2013-11-22T13:15:14.0000000+00:00</time></trkpt><trkpt lat="30.61779022" lon="34.89994812"><ele>485.3</ele><time>2013-11-22T13:15:19.0000000+00:00</time></trkpt><trkpt lat="30.6178093" lon="34.89968872"><ele>486.5</ele><time>2013-11-22T13:15:24.0000000+00:00</time></trkpt><trkpt lat="30.61782646" lon="34.8994751"><ele>487.4</ele><time>2013-11-22T13:15:29.0000000+00:00</time></trkpt><trkpt lat="30.61785507" lon="34.89927673"><ele>487.3</ele><time>2013-11-22T13:15:34.0000000+00:00</time></trkpt><trkpt lat="30.61790466" lon="34.89908218"><ele>488.0</ele><time>2013-11-22T13:15:39.0000000+00:00</time></trkpt><trkpt lat="30.61794663" lon="34.89886856"><ele>488.1</ele><time>2013-11-22T13:15:44.0000000+00:00</time></trkpt><trkpt lat="30.6179924" lon="34.89864731"><ele>487.1</ele><time>2013-11-22T13:15:49.0000000+00:00</time></trkpt><trkpt lat="30.61803818" lon="34.89841843"><ele>486.6</ele><time>2013-11-22T13:15:54.0000000+00:00</time></trkpt><trkpt lat="30.61808205" lon="34.89819717"><ele>486.6</ele><time>2013-11-22T13:15:59.0000000+00:00</time></trkpt><trkpt lat="30.61810112" lon="34.89803314"><ele>487.7</ele><time>2013-11-22T13:16:04.0000000+00:00</time></trkpt><trkpt lat="30.61812782" lon="34.89787674"><ele>489.0</ele><time>2013-11-22T13:16:09.0000000+00:00</time></trkpt><trkpt lat="30.61813927" lon="34.89770508"><ele>490.5</ele><time>2013-11-22T13:16:14.0000000+00:00</time></trkpt><trkpt lat="30.61813164" lon="34.89756012"><ele>492.2</ele><time>2013-11-22T13:16:19.0000000+00:00</time></trkpt><trkpt lat="30.61810875" lon="34.89741516"><ele>495.1</ele><time>2013-11-22T13:16:24.0000000+00:00</time></trkpt><trkpt lat="30.61809349" lon="34.89729691"><ele>498.3</ele><time>2013-11-22T13:16:29.0000000+00:00</time></trkpt><trkpt lat="30.61805153" lon="34.89717865"><ele>499.3</ele><time>2013-11-22T13:16:34.0000000+00:00</time></trkpt><trkpt lat="30.61800385" lon="34.89707565"><ele>497.9</ele><time>2013-11-22T13:16:39.0000000+00:00</time></trkpt><trkpt lat="30.61795616" lon="34.89698792"><ele>497.1</ele><time>2013-11-22T13:16:44.0000000+00:00</time></trkpt><trkpt lat="30.6178894" lon="34.89689636"><ele>496.2</ele><time>2013-11-22T13:16:49.0000000+00:00</time></trkpt><trkpt lat="30.61780167" lon="34.89685059"><ele>492.9</ele><time>2013-11-22T13:16:54.0000000+00:00</time></trkpt><trkpt lat="30.61772728" lon="34.89678955"><ele>488.7</ele><time>2013-11-22T13:16:59.0000000+00:00</time></trkpt><trkpt lat="30.61769104" lon="34.8967514"><ele>486.6</ele><time>2013-11-22T13:17:04.0000000+00:00</time></trkpt><trkpt lat="30.61763001" lon="34.89668655"><ele>484.4</ele><time>2013-11-22T13:17:09.0000000+00:00</time></trkpt><trkpt lat="30.61756516" lon="34.89662933"><ele>484.6</ele><time>2013-11-22T13:17:14.0000000+00:00</time></trkpt><trkpt lat="30.61750794" lon="34.89657974"><ele>484.3</ele><time>2013-11-22T13:17:19.0000000+00:00</time></trkpt><trkpt lat="30.61744309" lon="34.89650726"><ele>485.1</ele><time>2013-11-22T13:17:24.0000000+00:00</time></trkpt><trkpt lat="30.61738205" lon="34.8964386"><ele>485.0</ele><time>2013-11-22T13:17:29.0000000+00:00</time></trkpt><trkpt lat="30.61732292" lon="34.89636993"><ele>484.4</ele><time>2013-11-22T13:17:34.0000000+00:00</time></trkpt><trkpt lat="30.61727333" lon="34.8963089"><ele>484.0</ele><time>2013-11-22T13:17:39.0000000+00:00</time></trkpt><trkpt lat="30.61721993" lon="34.89622498"><ele>483.9</ele><time>2013-11-22T13:17:44.0000000+00:00</time></trkpt><trkpt lat="30.61717606" lon="34.89613724"><ele>484.8</ele><time>2013-11-22T13:17:49.0000000+00:00</time></trkpt><trkpt lat="30.617136" lon="34.89603424"><ele>486.1</ele><time>2013-11-22T13:17:54.0000000+00:00</time></trkpt><trkpt lat="30.61710167" lon="34.89592362"><ele>487.9</ele><time>2013-11-22T13:17:59.0000000+00:00</time></trkpt><trkpt lat="30.61707687" lon="34.89579392"><ele>488.8</ele><time>2013-11-22T13:18:04.0000000+00:00</time></trkpt><trkpt lat="30.61706352" lon="34.89564133"><ele>491.1</ele><time>2013-11-22T13:18:09.0000000+00:00</time></trkpt><trkpt lat="30.61705589" lon="34.89550018"><ele>493.3</ele><time>2013-11-22T13:18:14.0000000+00:00</time></trkpt><trkpt lat="30.61703491" lon="34.89530945"><ele>494.9</ele><time>2013-11-22T13:18:19.0000000+00:00</time></trkpt><trkpt lat="30.61705589" lon="34.89514542"><ele>497.3</ele><time>2013-11-22T13:18:24.0000000+00:00</time></trkpt><trkpt lat="30.61707497" lon="34.89494705"><ele>498.8</ele><time>2013-11-22T13:18:29.0000000+00:00</time></trkpt><trkpt lat="30.61708641" lon="34.89471054"><ele>499.2</ele><time>2013-11-22T13:18:34.0000000+00:00</time></trkpt><trkpt lat="30.61712837" lon="34.89439011"><ele>499.8</ele><time>2013-11-22T13:18:39.0000000+00:00</time></trkpt><trkpt lat="30.61715698" lon="34.89402008"><ele>500.5</ele><time>2013-11-22T13:18:44.0000000+00:00</time></trkpt><trkpt lat="30.61718178" lon="34.89364624"><ele>499.6</ele><time>2013-11-22T13:18:49.0000000+00:00</time></trkpt><trkpt lat="30.61719894" lon="34.89328766"><ele>500.1</ele><time>2013-11-22T13:18:54.0000000+00:00</time></trkpt><trkpt lat="30.6172123" lon="34.89296722"><ele>499.5</ele><time>2013-11-22T13:18:59.0000000+00:00</time></trkpt><trkpt lat="30.61722183" lon="34.89264298"><ele>500.0</ele><time>2013-11-22T13:19:04.0000000+00:00</time></trkpt><trkpt lat="30.61724663" lon="34.89241028"><ele>499.8</ele><time>2013-11-22T13:19:09.0000000+00:00</time></trkpt><trkpt lat="30.61725235" lon="34.89228439"><ele>500.5</ele><time>2013-11-22T13:19:14.0000000+00:00</time></trkpt><trkpt lat="30.61725998" lon="34.89217758"><ele>502.5</ele><time>2013-11-22T13:19:19.0000000+00:00</time></trkpt><trkpt lat="30.61725235" lon="34.89210129"><ele>503.6</ele><time>2013-11-22T13:19:24.0000000+00:00</time></trkpt><trkpt lat="30.61725235" lon="34.89200211"><ele>505.3</ele><time>2013-11-22T13:19:29.0000000+00:00</time></trkpt><trkpt lat="30.61723137" lon="34.89186478"><ele>507.1</ele><time>2013-11-22T13:19:34.0000000+00:00</time></trkpt><trkpt lat="30.61721039" lon="34.89172363"><ele>508.4</ele><time>2013-11-22T13:19:39.0000000+00:00</time></trkpt><trkpt lat="30.6171608" lon="34.89156723"><ele>510.1</ele><time>2013-11-22T13:19:44.0000000+00:00</time></trkpt><trkpt lat="30.61712265" lon="34.89144516"><ele>510.4</ele><time>2013-11-22T13:19:49.0000000+00:00</time></trkpt><trkpt lat="30.61706734" lon="34.89136887"><ele>509.3</ele><time>2013-11-22T13:19:54.0000000+00:00</time></trkpt><trkpt lat="30.61702919" lon="34.89121628"><ele>509.4</ele><time>2013-11-22T13:19:59.0000000+00:00</time></trkpt><trkpt lat="30.61705399" lon="34.89104462"><ele>508.6</ele><time>2013-11-22T13:20:04.0000000+00:00</time></trkpt><trkpt lat="30.61711121" lon="34.89089203"><ele>509.0</ele><time>2013-11-22T13:20:09.0000000+00:00</time></trkpt><trkpt lat="30.61718369" lon="34.89073181"><ele>508.9</ele><time>2013-11-22T13:20:14.0000000+00:00</time></trkpt><trkpt lat="30.61728096" lon="34.89057159"><ele>509.9</ele><time>2013-11-22T13:20:19.0000000+00:00</time></trkpt><trkpt lat="30.61738777" lon="34.89043045"><ele>511.0</ele><time>2013-11-22T13:20:24.0000000+00:00</time></trkpt><trkpt lat="30.61754036" lon="34.89044571"><ele>507.5</ele><time>2013-11-22T13:20:29.0000000+00:00</time></trkpt><trkpt lat="30.61762047" lon="34.8904686"><ele>504.0</ele><time>2013-11-22T13:20:34.0000000+00:00</time></trkpt><trkpt lat="30.6176281" lon="34.89047623"><ele>502.1</ele><time>2013-11-22T13:20:39.0000000+00:00</time></trkpt><trkpt lat="30.61762428" lon="34.89047241"><ele>500.3</ele><time>2013-11-22T13:20:44.0000000+00:00</time></trkpt><trkpt lat="30.61762428" lon="34.89047241"><ele>500.2</ele><time>2013-11-22T13:20:49.0000000+00:00</time></trkpt><trkpt lat="30.61762428" lon="34.89047623"><ele>500.1</ele><time>2013-11-22T13:20:54.0000000+00:00</time></trkpt><trkpt lat="30.6176281" lon="34.89047623"><ele>500.1</ele><time>2013-11-22T13:20:59.0000000+00:00</time></trkpt><trkpt lat="30.6176281" lon="34.8903923"><ele>499.5</ele><time>2013-11-22T13:21:04.0000000+00:00</time></trkpt><trkpt lat="30.61750984" lon="34.89039993"><ele>498.5</ele><time>2013-11-22T13:21:09.0000000+00:00</time></trkpt><trkpt lat="30.61742973" lon="34.89036179"><ele>498.4</ele><time>2013-11-22T13:21:14.0000000+00:00</time></trkpt><trkpt lat="30.61744118" lon="34.89017487"><ele>501.7</ele><time>2013-11-22T13:21:19.0000000+00:00</time></trkpt><trkpt lat="30.61745834" lon="34.88996506"><ele>504.2</ele><time>2013-11-22T13:21:24.0000000+00:00</time></trkpt><trkpt lat="30.61748886" lon="34.88979721"><ele>505.1</ele><time>2013-11-22T13:21:29.0000000+00:00</time></trkpt><trkpt lat="30.61756325" lon="34.88962174"><ele>505.4</ele><time>2013-11-22T13:21:34.0000000+00:00</time></trkpt><trkpt lat="30.61761475" lon="34.88943481"><ele>505.6</ele><time>2013-11-22T13:21:39.0000000+00:00</time></trkpt><trkpt lat="30.6176014" lon="34.88921356"><ele>506.4</ele><time>2013-11-22T13:21:44.0000000+00:00</time></trkpt><trkpt lat="30.6175251" lon="34.88892365"><ele>506.4</ele><time>2013-11-22T13:21:49.0000000+00:00</time></trkpt><trkpt lat="30.61738586" lon="34.8886261"><ele>503.1</ele><time>2013-11-22T13:21:54.0000000+00:00</time></trkpt><trkpt lat="30.61723328" lon="34.88829804"><ele>500.5</ele><time>2013-11-22T13:21:59.0000000+00:00</time></trkpt><trkpt lat="30.61703682" lon="34.88806534"><ele>500.1</ele><time>2013-11-22T13:22:04.0000000+00:00</time></trkpt><trkpt lat="30.61686325" lon="34.88785553"><ele>498.7</ele><time>2013-11-22T13:22:09.0000000+00:00</time></trkpt><trkpt lat="30.61668778" lon="34.88755798"><ele>496.5</ele><time>2013-11-22T13:22:14.0000000+00:00</time></trkpt><trkpt lat="30.61653137" lon="34.8872757"><ele>496.8</ele><time>2013-11-22T13:22:19.0000000+00:00</time></trkpt><trkpt lat="30.61639595" lon="34.8870697"><ele>496.8</ele><time>2013-11-22T13:22:24.0000000+00:00</time></trkpt><trkpt lat="30.61630249" lon="34.88694382"><ele>496.5</ele><time>2013-11-22T13:22:29.0000000+00:00</time></trkpt><trkpt lat="30.61624146" lon="34.88687897"><ele>495.8</ele><time>2013-11-22T13:22:34.0000000+00:00</time></trkpt><trkpt lat="30.61618996" lon="34.88679504"><ele>495.4</ele><time>2013-11-22T13:22:39.0000000+00:00</time></trkpt><trkpt lat="30.61613083" lon="34.88670731"><ele>494.9</ele><time>2013-11-22T13:22:44.0000000+00:00</time></trkpt><trkpt lat="30.61605835" lon="34.88660812"><ele>495.1</ele><time>2013-11-22T13:22:49.0000000+00:00</time></trkpt><trkpt lat="30.61598206" lon="34.88650131"><ele>495.1</ele><time>2013-11-22T13:22:54.0000000+00:00</time></trkpt><trkpt lat="30.61586952" lon="34.88639069"><ele>494.3</ele><time>2013-11-22T13:22:59.0000000+00:00</time></trkpt><trkpt lat="30.61574173" lon="34.88624191"><ele>492.8</ele><time>2013-11-22T13:23:04.0000000+00:00</time></trkpt><trkpt lat="30.61562729" lon="34.8860817"><ele>493.4</ele><time>2013-11-22T13:23:09.0000000+00:00</time></trkpt><trkpt lat="30.61553955" lon="34.88594818"><ele>492.9</ele><time>2013-11-22T13:23:14.0000000+00:00</time></trkpt><trkpt lat="30.61545944" lon="34.88588333"><ele>491.4</ele><time>2013-11-22T13:23:19.0000000+00:00</time></trkpt><trkpt lat="30.61534691" lon="34.88581467"><ele>489.4</ele><time>2013-11-22T13:23:24.0000000+00:00</time></trkpt><trkpt lat="30.61519623" lon="34.88571549"><ele>487.4</ele><time>2013-11-22T13:23:29.0000000+00:00</time></trkpt><trkpt lat="30.61501122" lon="34.88555908"><ele>486.0</ele><time>2013-11-22T13:23:34.0000000+00:00</time></trkpt><trkpt lat="30.61481476" lon="34.88536835"><ele>485.2</ele><time>2013-11-22T13:23:39.0000000+00:00</time></trkpt><trkpt lat="30.61464119" lon="34.88519669"><ele>484.9</ele><time>2013-11-22T13:23:44.0000000+00:00</time></trkpt><trkpt lat="30.61444664" lon="34.88502884"><ele>483.4</ele><time>2013-11-22T13:23:49.0000000+00:00</time></trkpt><trkpt lat="30.61427116" lon="34.88486862"><ele>483.1</ele><time>2013-11-22T13:23:54.0000000+00:00</time></trkpt><trkpt lat="30.61413956" lon="34.88469696"><ele>484.4</ele><time>2013-11-22T13:23:59.0000000+00:00</time></trkpt><trkpt lat="30.61410523" lon="34.88450623"><ele>486.7</ele><time>2013-11-22T13:24:04.0000000+00:00</time></trkpt><trkpt lat="30.6140976" lon="34.88436508"><ele>489.1</ele><time>2013-11-22T13:24:09.0000000+00:00</time></trkpt><trkpt lat="30.61409187" lon="34.88423157"><ele>491.5</ele><time>2013-11-22T13:24:14.0000000+00:00</time></trkpt><trkpt lat="30.61409187" lon="34.88407517"><ele>493.6</ele><time>2013-11-22T13:24:19.0000000+00:00</time></trkpt><trkpt lat="30.61408615" lon="34.88394547"><ele>495.2</ele><time>2013-11-22T13:24:24.0000000+00:00</time></trkpt><trkpt lat="30.61407089" lon="34.88378906"><ele>497.2</ele><time>2013-11-22T13:24:29.0000000+00:00</time></trkpt><trkpt lat="30.61405945" lon="34.88367462"><ele>498.3</ele><time>2013-11-22T13:24:34.0000000+00:00</time></trkpt><trkpt lat="30.61400986" lon="34.88349915"><ele>497.8</ele><time>2013-11-22T13:24:39.0000000+00:00</time></trkpt><trkpt lat="30.61393166" lon="34.88336945"><ele>498.8</ele><time>2013-11-22T13:24:44.0000000+00:00</time></trkpt><trkpt lat="30.6138382" lon="34.88319778"><ele>497.6</ele><time>2013-11-22T13:24:49.0000000+00:00</time></trkpt><trkpt lat="30.6137619" lon="34.88298798"><ele>496.4</ele><time>2013-11-22T13:24:54.0000000+00:00</time></trkpt><trkpt lat="30.61368561" lon="34.88277435"><ele>496.7</ele><time>2013-11-22T13:24:59.0000000+00:00</time></trkpt><trkpt lat="30.61357117" lon="34.88259125"><ele>497.3</ele><time>2013-11-22T13:25:04.0000000+00:00</time></trkpt><trkpt lat="30.61346626" lon="34.88241196"><ele>497.8</ele><time>2013-11-22T13:25:09.0000000+00:00</time></trkpt><trkpt lat="30.61340904" lon="34.88220215"><ele>498.7</ele><time>2013-11-22T13:25:14.0000000+00:00</time></trkpt><trkpt lat="30.61333275" lon="34.88197708"><ele>499.3</ele><time>2013-11-22T13:25:19.0000000+00:00</time></trkpt><trkpt lat="30.61326599" lon="34.88176727"><ele>501.3</ele><time>2013-11-22T13:25:24.0000000+00:00</time></trkpt><trkpt lat="30.61319733" lon="34.88154984"><ele>503.1</ele><time>2013-11-22T13:25:29.0000000+00:00</time></trkpt><trkpt lat="30.61310387" lon="34.8813591"><ele>501.5</ele><time>2013-11-22T13:25:34.0000000+00:00</time></trkpt><trkpt lat="30.61294365" lon="34.88115311"><ele>499.2</ele><time>2013-11-22T13:25:39.0000000+00:00</time></trkpt><trkpt lat="30.61279297" lon="34.88095474"><ele>499.6</ele><time>2013-11-22T13:25:44.0000000+00:00</time></trkpt><trkpt lat="30.6126976" lon="34.88075638"><ele>499.5</ele><time>2013-11-22T13:25:49.0000000+00:00</time></trkpt><trkpt lat="30.61260414" lon="34.88056183"><ele>498.1</ele><time>2013-11-22T13:25:54.0000000+00:00</time></trkpt><trkpt lat="30.61250114" lon="34.88040161"><ele>497.1</ele><time>2013-11-22T13:25:59.0000000+00:00</time></trkpt><trkpt lat="30.6123848" lon="34.88023758"><ele>495.3</ele><time>2013-11-22T13:26:04.0000000+00:00</time></trkpt><trkpt lat="30.61225128" lon="34.88008881"><ele>495.2</ele><time>2013-11-22T13:26:09.0000000+00:00</time></trkpt><trkpt lat="30.61214829" lon="34.87991715"><ele>495.6</ele><time>2013-11-22T13:26:14.0000000+00:00</time></trkpt><trkpt lat="30.6120472" lon="34.87973785"><ele>497.2</ele><time>2013-11-22T13:26:19.0000000+00:00</time></trkpt><trkpt lat="30.61193276" lon="34.87956238"><ele>498.9</ele><time>2013-11-22T13:26:24.0000000+00:00</time></trkpt><trkpt lat="30.61178017" lon="34.87944031"><ele>500.3</ele><time>2013-11-22T13:26:29.0000000+00:00</time></trkpt><trkpt lat="30.61167336" lon="34.87937546"><ele>501.0</ele><time>2013-11-22T13:26:34.0000000+00:00</time></trkpt><trkpt lat="30.61160469" lon="34.87926865"><ele>499.3</ele><time>2013-11-22T13:26:39.0000000+00:00</time></trkpt><trkpt lat="30.61149979" lon="34.87913895"><ele>499.0</ele><time>2013-11-22T13:26:44.0000000+00:00</time></trkpt><trkpt lat="30.61141396" lon="34.87902832"><ele>498.4</ele><time>2013-11-22T13:26:49.0000000+00:00</time></trkpt><trkpt lat="30.61133194" lon="34.87888336"><ele>498.0</ele><time>2013-11-22T13:26:54.0000000+00:00</time></trkpt><trkpt lat="30.61123085" lon="34.87876511"><ele>497.0</ele><time>2013-11-22T13:26:59.0000000+00:00</time></trkpt><trkpt lat="30.61112213" lon="34.87866211"><ele>494.8</ele><time>2013-11-22T13:27:04.0000000+00:00</time></trkpt><trkpt lat="30.6110096" lon="34.87856293"><ele>493.2</ele><time>2013-11-22T13:27:09.0000000+00:00</time></trkpt><trkpt lat="30.61088753" lon="34.87844086"><ele>493.8</ele><time>2013-11-22T13:27:14.0000000+00:00</time></trkpt><trkpt lat="30.61077499" lon="34.87831497"><ele>494.6</ele><time>2013-11-22T13:27:19.0000000+00:00</time></trkpt><trkpt lat="30.61067581" lon="34.87817764"><ele>494.3</ele><time>2013-11-22T13:27:24.0000000+00:00</time></trkpt><trkpt lat="30.610569" lon="34.8780365"><ele>497.4</ele><time>2013-11-22T13:27:29.0000000+00:00</time></trkpt><trkpt lat="30.61047554" lon="34.87789536"><ele>497.1</ele><time>2013-11-22T13:27:34.0000000+00:00</time></trkpt><trkpt lat="30.61040115" lon="34.87775803"><ele>497.8</ele><time>2013-11-22T13:27:39.0000000+00:00</time></trkpt><trkpt lat="30.61037254" lon="34.87752533"><ele>498.5</ele><time>2013-11-22T13:27:44.0000000+00:00</time></trkpt><trkpt lat="30.61036301" lon="34.87725067"><ele>499.0</ele><time>2013-11-22T13:27:49.0000000+00:00</time></trkpt><trkpt lat="30.61032105" lon="34.87701416"><ele>501.3</ele><time>2013-11-22T13:27:54.0000000+00:00</time></trkpt><trkpt lat="30.61027718" lon="34.87675476"><ele>502.1</ele><time>2013-11-22T13:27:59.0000000+00:00</time></trkpt><trkpt lat="30.61021423" lon="34.87653351"><ele>502.0</ele><time>2013-11-22T13:28:04.0000000+00:00</time></trkpt><trkpt lat="30.61011505" lon="34.87636185"><ele>503.1</ele><time>2013-11-22T13:28:09.0000000+00:00</time></trkpt><trkpt lat="30.60997963" lon="34.876194"><ele>502.5</ele><time>2013-11-22T13:28:14.0000000+00:00</time></trkpt><trkpt lat="30.60987091" lon="34.87602997"><ele>500.6</ele><time>2013-11-22T13:28:19.0000000+00:00</time></trkpt><trkpt lat="30.60975266" lon="34.8758049"><ele>500.6</ele><time>2013-11-22T13:28:24.0000000+00:00</time></trkpt><trkpt lat="30.6096096" lon="34.87562561"><ele>500.2</ele><time>2013-11-22T13:28:29.0000000+00:00</time></trkpt><trkpt lat="30.60946083" lon="34.87552643"><ele>498.4</ele><time>2013-11-22T13:28:34.0000000+00:00</time></trkpt><trkpt lat="30.60928345" lon="34.87539673"><ele>495.2</ele><time>2013-11-22T13:28:39.0000000+00:00</time></trkpt><trkpt lat="30.60911179" lon="34.87526703"><ele>495.3</ele><time>2013-11-22T13:28:44.0000000+00:00</time></trkpt><trkpt lat="30.60898018" lon="34.87519836"><ele>496.2</ele><time>2013-11-22T13:28:49.0000000+00:00</time></trkpt><trkpt lat="30.60888481" lon="34.87513733"><ele>494.0</ele><time>2013-11-22T13:28:54.0000000+00:00</time></trkpt><trkpt lat="30.60873222" lon="34.87506867"><ele>493.9</ele><time>2013-11-22T13:28:59.0000000+00:00</time></trkpt><trkpt lat="30.60855484" lon="34.87496185"><ele>493.6</ele><time>2013-11-22T13:29:04.0000000+00:00</time></trkpt><trkpt lat="30.60838127" lon="34.87485123"><ele>491.2</ele><time>2013-11-22T13:29:09.0000000+00:00</time></trkpt><trkpt lat="30.60823822" lon="34.8747406"><ele>490.8</ele><time>2013-11-22T13:29:14.0000000+00:00</time></trkpt><trkpt lat="30.60806084" lon="34.8746376"><ele>491.5</ele><time>2013-11-22T13:29:19.0000000+00:00</time></trkpt><trkpt lat="30.60791969" lon="34.8745575"><ele>492.5</ele><time>2013-11-22T13:29:24.0000000+00:00</time></trkpt><trkpt lat="30.60777092" lon="34.87446976"><ele>493.1</ele><time>2013-11-22T13:29:29.0000000+00:00</time></trkpt><trkpt lat="30.60760689" lon="34.87438965"><ele>493.5</ele><time>2013-11-22T13:29:34.0000000+00:00</time></trkpt><trkpt lat="30.60752106" lon="34.87435913"><ele>493.1</ele><time>2013-11-22T13:29:39.0000000+00:00</time></trkpt><trkpt lat="30.60742569" lon="34.87432861"><ele>493.1</ele><time>2013-11-22T13:29:44.0000000+00:00</time></trkpt><trkpt lat="30.60730553" lon="34.87429047"><ele>497.0</ele><time>2013-11-22T13:29:49.0000000+00:00</time></trkpt><trkpt lat="30.60719872" lon="34.87428284"><ele>499.6</ele><time>2013-11-22T13:29:54.0000000+00:00</time></trkpt><trkpt lat="30.60710716" lon="34.87427521"><ele>499.5</ele><time>2013-11-22T13:29:59.0000000+00:00</time></trkpt><trkpt lat="30.60700989" lon="34.87427521"><ele>500.5</ele><time>2013-11-22T13:30:04.0000000+00:00</time></trkpt><trkpt lat="30.60692024" lon="34.87427139"><ele>501.1</ele><time>2013-11-22T13:30:09.0000000+00:00</time></trkpt><trkpt lat="30.60683441" lon="34.87425995"><ele>500.2</ele><time>2013-11-22T13:30:14.0000000+00:00</time></trkpt><trkpt lat="30.6067276" lon="34.87424851"><ele>500.0</ele><time>2013-11-22T13:30:19.0000000+00:00</time></trkpt><trkpt lat="30.6066246" lon="34.87423706"><ele>499.9</ele><time>2013-11-22T13:30:24.0000000+00:00</time></trkpt><trkpt lat="30.60651398" lon="34.8742218"><ele>500.7</ele><time>2013-11-22T13:30:29.0000000+00:00</time></trkpt><trkpt lat="30.60639191" lon="34.87420654"><ele>500.7</ele><time>2013-11-22T13:30:34.0000000+00:00</time></trkpt><trkpt lat="30.6062851" lon="34.87420273"><ele>500.8</ele><time>2013-11-22T13:30:39.0000000+00:00</time></trkpt><trkpt lat="30.60616493" lon="34.87420654"><ele>500.9</ele><time>2013-11-22T13:30:44.0000000+00:00</time></trkpt><trkpt lat="30.60605431" lon="34.8741951"><ele>502.3</ele><time>2013-11-22T13:30:49.0000000+00:00</time></trkpt><trkpt lat="30.60598755" lon="34.87419128"><ele>502.0</ele><time>2013-11-22T13:30:54.0000000+00:00</time></trkpt><trkpt lat="30.60593224" lon="34.87419128"><ele>502.4</ele><time>2013-11-22T13:30:59.0000000+00:00</time></trkpt><trkpt lat="30.60587883" lon="34.87421036"><ele>502.5</ele><time>2013-11-22T13:31:04.0000000+00:00</time></trkpt><trkpt lat="30.60581207" lon="34.87422943"><ele>502.8</ele><time>2013-11-22T13:31:09.0000000+00:00</time></trkpt><trkpt lat="30.60571098" lon="34.87424469"><ele>502.9</ele><time>2013-11-22T13:31:14.0000000+00:00</time></trkpt><trkpt lat="30.60557556" lon="34.87425232"><ele>502.3</ele><time>2013-11-22T13:31:19.0000000+00:00</time></trkpt><trkpt lat="30.60549545" lon="34.87424851"><ele>502.3</ele><time>2013-11-22T13:31:24.0000000+00:00</time></trkpt><trkpt lat="30.60542679" lon="34.87425232"><ele>503.4</ele><time>2013-11-22T13:31:29.0000000+00:00</time></trkpt><trkpt lat="30.60536385" lon="34.87423325"><ele>505.4</ele><time>2013-11-22T13:31:34.0000000+00:00</time></trkpt><trkpt lat="30.60527229" lon="34.87423325"><ele>505.3</ele><time>2013-11-22T13:31:39.0000000+00:00</time></trkpt><trkpt lat="30.60517883" lon="34.87421799"><ele>506.3</ele><time>2013-11-22T13:31:44.0000000+00:00</time></trkpt><trkpt lat="30.60508156" lon="34.8742218"><ele>507.1</ele><time>2013-11-22T13:31:49.0000000+00:00</time></trkpt><trkpt lat="30.60499191" lon="34.87421799"><ele>508.1</ele><time>2013-11-22T13:31:54.0000000+00:00</time></trkpt><trkpt lat="30.60488701" lon="34.8742218"><ele>508.5</ele><time>2013-11-22T13:31:59.0000000+00:00</time></trkpt><trkpt lat="30.60478401" lon="34.87421417"><ele>510.1</ele><time>2013-11-22T13:32:04.0000000+00:00</time></trkpt><trkpt lat="30.60468483" lon="34.87421799"><ele>509.8</ele><time>2013-11-22T13:32:09.0000000+00:00</time></trkpt><trkpt lat="30.60459137" lon="34.87420654"><ele>511.1</ele><time>2013-11-22T13:32:14.0000000+00:00</time></trkpt><trkpt lat="30.60453987" lon="34.87420654"><ele>510.9</ele><time>2013-11-22T13:32:19.0000000+00:00</time></trkpt><trkpt lat="30.6044426" lon="34.87418747"><ele>511.4</ele><time>2013-11-22T13:32:24.0000000+00:00</time></trkpt><trkpt lat="30.6043396" lon="34.87412262"><ele>512.6</ele><time>2013-11-22T13:32:29.0000000+00:00</time></trkpt><trkpt lat="30.60421372" lon="34.87401962"><ele>513.5</ele><time>2013-11-22T13:32:34.0000000+00:00</time></trkpt><trkpt lat="30.6040802" lon="34.87388611"><ele>514.6</ele><time>2013-11-22T13:32:39.0000000+00:00</time></trkpt><trkpt lat="30.60393333" lon="34.87373734"><ele>514.7</ele><time>2013-11-22T13:32:44.0000000+00:00</time></trkpt><trkpt lat="30.60378647" lon="34.87355804"><ele>516.5</ele><time>2013-11-22T13:32:49.0000000+00:00</time></trkpt><trkpt lat="30.60363579" lon="34.87334824"><ele>517.9</ele><time>2013-11-22T13:32:54.0000000+00:00</time></trkpt><trkpt lat="30.60353279" lon="34.87314224"><ele>517.6</ele><time>2013-11-22T13:32:59.0000000+00:00</time></trkpt><trkpt lat="30.60345268" lon="34.87294388"><ele>517.8</ele><time>2013-11-22T13:33:04.0000000+00:00</time></trkpt><trkpt lat="30.60335732" lon="34.8727417"><ele>518.2</ele><time>2013-11-22T13:33:09.0000000+00:00</time></trkpt><trkpt lat="30.60323715" lon="34.87247086"><ele>517.5</ele><time>2013-11-22T13:33:14.0000000+00:00</time></trkpt><trkpt lat="30.60316467" lon="34.87226868"><ele>518.8</ele><time>2013-11-22T13:33:19.0000000+00:00</time></trkpt><trkpt lat="30.60308456" lon="34.87211227"><ele>519.2</ele><time>2013-11-22T13:33:24.0000000+00:00</time></trkpt><trkpt lat="30.60295677" lon="34.87197495"><ele>516.6</ele><time>2013-11-22T13:33:29.0000000+00:00</time></trkpt><trkpt lat="30.60282898" lon="34.87185288"><ele>516.7</ele><time>2013-11-22T13:33:34.0000000+00:00</time></trkpt><trkpt lat="30.60276985" lon="34.87178421"><ele>515.6</ele><time>2013-11-22T13:33:39.0000000+00:00</time></trkpt><trkpt lat="30.60272598" lon="34.87173462"><ele>515.0</ele><time>2013-11-22T13:33:44.0000000+00:00</time></trkpt><trkpt lat="30.60267258" lon="34.87169266"><ele>514.9</ele><time>2013-11-22T13:33:49.0000000+00:00</time></trkpt><trkpt lat="30.60260773" lon="34.8716507"><ele>515.0</ele><time>2013-11-22T13:33:54.0000000+00:00</time></trkpt><trkpt lat="30.60254288" lon="34.87160873"><ele>514.7</ele><time>2013-11-22T13:33:59.0000000+00:00</time></trkpt><trkpt lat="30.60248375" lon="34.8715744"><ele>514.6</ele><time>2013-11-22T13:34:04.0000000+00:00</time></trkpt><trkpt lat="30.60242462" lon="34.8715477"><ele>514.0</ele><time>2013-11-22T13:34:09.0000000+00:00</time></trkpt><trkpt lat="30.60235977" lon="34.87151718"><ele>514.8</ele><time>2013-11-22T13:34:14.0000000+00:00</time></trkpt><trkpt lat="30.60231972" lon="34.87147141"><ele>514.3</ele><time>2013-11-22T13:34:19.0000000+00:00</time></trkpt><trkpt lat="30.60226822" lon="34.8714447"><ele>515.5</ele><time>2013-11-22T13:34:24.0000000+00:00</time></trkpt><trkpt lat="30.60222435" lon="34.87139893"><ele>515.7</ele><time>2013-11-22T13:34:29.0000000+00:00</time></trkpt><trkpt lat="30.60215187" lon="34.87134552"><ele>516.0</ele><time>2013-11-22T13:34:34.0000000+00:00</time></trkpt><trkpt lat="30.60211372" lon="34.87125015"><ele>519.3</ele><time>2013-11-22T13:34:39.0000000+00:00</time></trkpt><trkpt lat="30.602108" lon="34.87115097"><ele>522.1</ele><time>2013-11-22T13:34:44.0000000+00:00</time></trkpt><trkpt lat="30.60212898" lon="34.87106705"><ele>524.1</ele><time>2013-11-22T13:34:49.0000000+00:00</time></trkpt><trkpt lat="30.60212326" lon="34.87099838"><ele>523.4</ele><time>2013-11-22T13:34:54.0000000+00:00</time></trkpt><trkpt lat="30.60211754" lon="34.87099457"><ele>524.6</ele><time>2013-11-22T13:34:59.0000000+00:00</time></trkpt><trkpt lat="30.60210991" lon="34.87099838"><ele>524.8</ele><time>2013-11-22T13:35:04.0000000+00:00</time></trkpt><trkpt lat="30.60210037" lon="34.8710022"><ele>525.5</ele><time>2013-11-22T13:35:09.0000000+00:00</time></trkpt><trkpt lat="30.60210228" lon="34.8710022"><ele>526.0</ele><time>2013-11-22T13:35:14.0000000+00:00</time></trkpt><trkpt lat="30.60209465" lon="34.87099838"><ele>526.7</ele><time>2013-11-22T13:35:19.0000000+00:00</time></trkpt><trkpt lat="30.60209656" lon="34.8710022"><ele>527.1</ele><time>2013-11-22T13:35:24.0000000+00:00</time></trkpt><trkpt lat="30.60209084" lon="34.87100601"><ele>527.3</ele><time>2013-11-22T13:35:29.0000000+00:00</time></trkpt><trkpt lat="30.60209084" lon="34.87100983"><ele>528.2</ele><time>2013-11-22T13:35:34.0000000+00:00</time></trkpt><trkpt lat="30.60209084" lon="34.87100983"><ele>528.2</ele><time>2013-11-22T13:35:39.0000000+00:00</time></trkpt><trkpt lat="30.60209084" lon="34.87100983"><ele>528.2</ele><time>2013-11-22T13:35:44.0000000+00:00</time></trkpt><trkpt lat="30.60209656" lon="34.87101364"><ele>528.2</ele><time>2013-11-22T13:35:49.0000000+00:00</time></trkpt><trkpt lat="30.60210228" lon="34.87101364"><ele>528.4</ele><time>2013-11-22T13:35:54.0000000+00:00</time></trkpt><trkpt lat="30.60210228" lon="34.87101364"><ele>528.4</ele><time>2013-11-22T13:35:59.0000000+00:00</time></trkpt><trkpt lat="30.60212517" lon="34.87098694"><ele>528.6</ele><time>2013-11-22T13:36:04.0000000+00:00</time></trkpt><trkpt lat="30.60222626" lon="34.87089157"><ele>528.7</ele><time>2013-11-22T13:36:09.0000000+00:00</time></trkpt><trkpt lat="30.60231972" lon="34.8707962"><ele>528.6</ele><time>2013-11-22T13:36:14.0000000+00:00</time></trkpt><trkpt lat="30.60237122" lon="34.87074661"><ele>529.8</ele><time>2013-11-22T13:36:19.0000000+00:00</time></trkpt><trkpt lat="30.60237312" lon="34.87073135"><ele>530.5</ele><time>2013-11-22T13:36:24.0000000+00:00</time></trkpt><trkpt lat="30.60237122" lon="34.87073517"><ele>530.6</ele><time>2013-11-22T13:36:29.0000000+00:00</time></trkpt><trkpt lat="30.60237122" lon="34.87073517"><ele>530.7</ele><time>2013-11-22T13:36:34.0000000+00:00</time></trkpt><trkpt lat="30.60237312" lon="34.87073517"><ele>530.8</ele><time>2013-11-22T13:36:39.0000000+00:00</time></trkpt><trkpt lat="30.60244942" lon="34.87067413"><ele>530.7</ele><time>2013-11-22T13:36:44.0000000+00:00</time></trkpt><trkpt lat="30.60251999" lon="34.87059403"><ele>530.8</ele><time>2013-11-22T13:36:49.0000000+00:00</time></trkpt><trkpt lat="30.60259628" lon="34.87050247"><ele>529.9</ele><time>2013-11-22T13:36:54.0000000+00:00</time></trkpt><trkpt lat="30.60274506" lon="34.87031555"><ele>530.6</ele><time>2013-11-22T13:36:59.0000000+00:00</time></trkpt><trkpt lat="30.60292053" lon="34.87004471"><ele>530.3</ele><time>2013-11-22T13:37:04.0000000+00:00</time></trkpt><trkpt lat="30.60313416" lon="34.86968613"><ele>529.0</ele><time>2013-11-22T13:37:09.0000000+00:00</time></trkpt><trkpt lat="30.60337639" lon="34.86927414"><ele>527.6</ele><time>2013-11-22T13:37:14.0000000+00:00</time></trkpt><trkpt lat="30.60363197" lon="34.86880875"><ele>525.3</ele><time>2013-11-22T13:37:19.0000000+00:00</time></trkpt><trkpt lat="30.60391235" lon="34.86826706"><ele>523.3</ele><time>2013-11-22T13:37:24.0000000+00:00</time></trkpt><trkpt lat="30.60425186" lon="34.86761856"><ele>521.5</ele><time>2013-11-22T13:37:29.0000000+00:00</time></trkpt><trkpt lat="30.6046238" lon="34.86690903"><ele>519.7</ele><time>2013-11-22T13:37:34.0000000+00:00</time></trkpt><trkpt lat="30.60496712" lon="34.86628342"><ele>517.3</ele><time>2013-11-22T13:37:39.0000000+00:00</time></trkpt><trkpt lat="30.60530281" lon="34.86577988"><ele>517.2</ele><time>2013-11-22T13:37:44.0000000+00:00</time></trkpt><trkpt lat="30.60563088" lon="34.86539459"><ele>519.0</ele><time>2013-11-22T13:37:49.0000000+00:00</time></trkpt><trkpt lat="30.60594368" lon="34.86508179"><ele>519.2</ele><time>2013-11-22T13:37:54.0000000+00:00</time></trkpt><trkpt lat="30.60624123" lon="34.86485291"><ele>520.8</ele><time>2013-11-22T13:37:59.0000000+00:00</time></trkpt><trkpt lat="30.60653687" lon="34.86465836"><ele>520.5</ele><time>2013-11-22T13:38:04.0000000+00:00</time></trkpt><trkpt lat="30.6068325" lon="34.86450958"><ele>519.9</ele><time>2013-11-22T13:38:09.0000000+00:00</time></trkpt><trkpt lat="30.60705757" lon="34.86439514"><ele>520.4</ele><time>2013-11-22T13:38:14.0000000+00:00</time></trkpt><trkpt lat="30.6072197" lon="34.86431885"><ele>519.7</ele><time>2013-11-22T13:38:19.0000000+00:00</time></trkpt><trkpt lat="30.60734749" lon="34.86424637"><ele>517.4</ele><time>2013-11-22T13:38:24.0000000+00:00</time></trkpt><trkpt lat="30.60745621" lon="34.86419678"><ele>517.9</ele><time>2013-11-22T13:38:29.0000000+00:00</time></trkpt><trkpt lat="30.60761261" lon="34.86410904"><ele>518.2</ele><time>2013-11-22T13:38:34.0000000+00:00</time></trkpt><trkpt lat="30.60780525" lon="34.86401749"><ele>517.5</ele><time>2013-11-22T13:38:39.0000000+00:00</time></trkpt><trkpt lat="30.60800552" lon="34.86391068"><ele>518.1</ele><time>2013-11-22T13:38:44.0000000+00:00</time></trkpt><trkpt lat="30.60821152" lon="34.86380005"><ele>520.0</ele><time>2013-11-22T13:38:49.0000000+00:00</time></trkpt><trkpt lat="30.60842323" lon="34.86368561"><ele>521.1</ele><time>2013-11-22T13:38:54.0000000+00:00</time></trkpt><trkpt lat="30.60860634" lon="34.86356354"><ele>522.6</ele><time>2013-11-22T13:38:59.0000000+00:00</time></trkpt><trkpt lat="30.60881233" lon="34.86342621"><ele>524.0</ele><time>2013-11-22T13:39:04.0000000+00:00</time></trkpt><trkpt lat="30.60903931" lon="34.86323929"><ele>524.3</ele><time>2013-11-22T13:39:09.0000000+00:00</time></trkpt><trkpt lat="30.60928726" lon="34.86301804"><ele>520.5</ele><time>2013-11-22T13:39:14.0000000+00:00</time></trkpt><trkpt lat="30.60958672" lon="34.86274338"><ele>515.8</ele><time>2013-11-22T13:39:19.0000000+00:00</time></trkpt><trkpt lat="30.60995293" lon="34.86240768"><ele>511.3</ele><time>2013-11-22T13:39:24.0000000+00:00</time></trkpt><trkpt lat="30.61035538" lon="34.86201859"><ele>508.8</ele><time>2013-11-22T13:39:29.0000000+00:00</time></trkpt><trkpt lat="30.61075783" lon="34.86162567"><ele>506.8</ele><time>2013-11-22T13:39:34.0000000+00:00</time></trkpt><trkpt lat="30.6111126" lon="34.86127853"><ele>506.2</ele><time>2013-11-22T13:39:39.0000000+00:00</time></trkpt><trkpt lat="30.61141396" lon="34.86098099"><ele>506.3</ele><time>2013-11-22T13:39:44.0000000+00:00</time></trkpt><trkpt lat="30.61166573" lon="34.8607254"><ele>507.2</ele><time>2013-11-22T13:39:49.0000000+00:00</time></trkpt><trkpt lat="30.61190796" lon="34.86050797"><ele>507.3</ele><time>2013-11-22T13:39:54.0000000+00:00</time></trkpt><trkpt lat="30.6121006" lon="34.86029816"><ele>505.6</ele><time>2013-11-22T13:39:59.0000000+00:00</time></trkpt><trkpt lat="30.61224175" lon="34.86011124"><ele>507.5</ele><time>2013-11-22T13:40:04.0000000+00:00</time></trkpt><trkpt lat="30.6123848" lon="34.8598938"><ele>505.0</ele><time>2013-11-22T13:40:09.0000000+00:00</time></trkpt><trkpt lat="30.61249924" lon="34.85968781"><ele>508.2</ele><time>2013-11-22T13:40:14.0000000+00:00</time></trkpt><trkpt lat="30.61258698" lon="34.85947037"><ele>505.7</ele><time>2013-11-22T13:40:19.0000000+00:00</time></trkpt><trkpt lat="30.6126709" lon="34.8592186"><ele>503.1</ele><time>2013-11-22T13:40:24.0000000+00:00</time></trkpt><trkpt lat="30.61274147" lon="34.85897827"><ele>506.4</ele><time>2013-11-22T13:40:29.0000000+00:00</time></trkpt><trkpt lat="30.6128006" lon="34.85874176"><ele>509.4</ele><time>2013-11-22T13:40:34.0000000+00:00</time></trkpt><trkpt lat="30.61284256" lon="34.85850525"><ele>510.9</ele><time>2013-11-22T13:40:39.0000000+00:00</time></trkpt><trkpt lat="30.61288643" lon="34.85825729"><ele>512.4</ele><time>2013-11-22T13:40:44.0000000+00:00</time></trkpt><trkpt lat="30.61292267" lon="34.8580246"><ele>514.3</ele><time>2013-11-22T13:40:49.0000000+00:00</time></trkpt><trkpt lat="30.61294937" lon="34.85780335"><ele>514.6</ele><time>2013-11-22T13:40:54.0000000+00:00</time></trkpt><trkpt lat="30.61297035" lon="34.85754776"><ele>514.8</ele><time>2013-11-22T13:40:59.0000000+00:00</time></trkpt><trkpt lat="30.61300659" lon="34.85726929"><ele>513.6</ele><time>2013-11-22T13:41:04.0000000+00:00</time></trkpt><trkpt lat="30.61305428" lon="34.85697937"><ele>514.1</ele><time>2013-11-22T13:41:09.0000000+00:00</time></trkpt><trkpt lat="30.61308098" lon="34.85672379"><ele>515.1</ele><time>2013-11-22T13:41:14.0000000+00:00</time></trkpt><trkpt lat="30.61314011" lon="34.85649109"><ele>514.6</ele><time>2013-11-22T13:41:19.0000000+00:00</time></trkpt><trkpt lat="30.61320686" lon="34.85627747"><ele>514.9</ele><time>2013-11-22T13:41:24.0000000+00:00</time></trkpt><trkpt lat="30.61326599" lon="34.8561058"><ele>516.0</ele><time>2013-11-22T13:41:29.0000000+00:00</time></trkpt><trkpt lat="30.61333656" lon="34.85592651"><ele>518.4</ele><time>2013-11-22T13:41:34.0000000+00:00</time></trkpt><trkpt lat="30.61341286" lon="34.85573578"><ele>518.7</ele><time>2013-11-22T13:41:39.0000000+00:00</time></trkpt><trkpt lat="30.61349106" lon="34.85554886"><ele>519.8</ele><time>2013-11-22T13:41:44.0000000+00:00</time></trkpt><trkpt lat="30.61355209" lon="34.85543823"><ele>523.0</ele><time>2013-11-22T13:41:49.0000000+00:00</time></trkpt><trkpt lat="30.61360169" lon="34.85533905"><ele>524.1</ele><time>2013-11-22T13:41:54.0000000+00:00</time></trkpt><trkpt lat="30.61367226" lon="34.85520172"><ele>523.7</ele><time>2013-11-22T13:41:59.0000000+00:00</time></trkpt><trkpt lat="30.61372376" lon="34.85506439"><ele>520.2</ele><time>2013-11-22T13:42:04.0000000+00:00</time></trkpt><trkpt lat="30.61379433" lon="34.85491943"><ele>518.3</ele><time>2013-11-22T13:42:09.0000000+00:00</time></trkpt><trkpt lat="30.61386681" lon="34.85473633"><ele>516.3</ele><time>2013-11-22T13:42:14.0000000+00:00</time></trkpt><trkpt lat="30.61396408" lon="34.85451508"><ele>517.3</ele><time>2013-11-22T13:42:19.0000000+00:00</time></trkpt><trkpt lat="30.6140213" lon="34.85433197"><ele>514.8</ele><time>2013-11-22T13:42:24.0000000+00:00</time></trkpt><trkpt lat="30.61410332" lon="34.85411072"><ele>514.3</ele><time>2013-11-22T13:42:29.0000000+00:00</time></trkpt><trkpt lat="30.61416054" lon="34.85394669"><ele>513.8</ele><time>2013-11-22T13:42:34.0000000+00:00</time></trkpt><trkpt lat="30.61423492" lon="34.8537674"><ele>517.5</ele><time>2013-11-22T13:42:39.0000000+00:00</time></trkpt><trkpt lat="30.61428452" lon="34.8535881"><ele>516.3</ele><time>2013-11-22T13:42:44.0000000+00:00</time></trkpt><trkpt lat="30.61431313" lon="34.85348129"><ele>515.0</ele><time>2013-11-22T13:42:49.0000000+00:00</time></trkpt><trkpt lat="30.61435318" lon="34.85336304"><ele>515.5</ele><time>2013-11-22T13:42:54.0000000+00:00</time></trkpt><trkpt lat="30.61438179" lon="34.85322952"><ele>514.3</ele><time>2013-11-22T13:42:59.0000000+00:00</time></trkpt><trkpt lat="30.61443329" lon="34.85304642"><ele>514.5</ele><time>2013-11-22T13:43:04.0000000+00:00</time></trkpt><trkpt lat="30.6144886" lon="34.85284424"><ele>514.5</ele><time>2013-11-22T13:43:09.0000000+00:00</time></trkpt><trkpt lat="30.61452103" lon="34.85268021"><ele>513.5</ele><time>2013-11-22T13:43:14.0000000+00:00</time></trkpt><trkpt lat="30.61458397" lon="34.8524704"><ele>516.4</ele><time>2013-11-22T13:43:19.0000000+00:00</time></trkpt><trkpt lat="30.6146431" lon="34.8522644"><ele>518.1</ele><time>2013-11-22T13:43:24.0000000+00:00</time></trkpt><trkpt lat="30.61469078" lon="34.85204315"><ele>518.6</ele><time>2013-11-22T13:43:29.0000000+00:00</time></trkpt><trkpt lat="30.61472702" lon="34.85184479"><ele>518.3</ele><time>2013-11-22T13:43:34.0000000+00:00</time></trkpt><trkpt lat="30.61478615" lon="34.85162354"><ele>519.2</ele><time>2013-11-22T13:43:39.0000000+00:00</time></trkpt><trkpt lat="30.61483002" lon="34.85141754"><ele>516.8</ele><time>2013-11-22T13:43:44.0000000+00:00</time></trkpt><trkpt lat="30.61489105" lon="34.85120773"><ele>517.0</ele><time>2013-11-22T13:43:49.0000000+00:00</time></trkpt><trkpt lat="30.61496162" lon="34.85100174"><ele>516.9</ele><time>2013-11-22T13:43:54.0000000+00:00</time></trkpt><trkpt lat="30.61504173" lon="34.85079575"><ele>515.7</ele><time>2013-11-22T13:43:59.0000000+00:00</time></trkpt><trkpt lat="30.61512375" lon="34.85062027"><ele>517.2</ele><time>2013-11-22T13:44:04.0000000+00:00</time></trkpt><trkpt lat="30.61521339" lon="34.85045242"><ele>518.6</ele><time>2013-11-22T13:44:09.0000000+00:00</time></trkpt><trkpt lat="30.61533928" lon="34.85025787"><ele>521.6</ele><time>2013-11-22T13:44:14.0000000+00:00</time></trkpt><trkpt lat="30.61547661" lon="34.85005188"><ele>523.2</ele><time>2013-11-22T13:44:19.0000000+00:00</time></trkpt><trkpt lat="30.61559486" lon="34.84990311"><ele>524.2</ele><time>2013-11-22T13:44:24.0000000+00:00</time></trkpt><trkpt lat="30.61570358" lon="34.84976578"><ele>523.7</ele><time>2013-11-22T13:44:29.0000000+00:00</time></trkpt><trkpt lat="30.61584091" lon="34.84960175"><ele>522.9</ele><time>2013-11-22T13:44:34.0000000+00:00</time></trkpt><trkpt lat="30.61600304" lon="34.84943008"><ele>524.0</ele><time>2013-11-22T13:44:39.0000000+00:00</time></trkpt><trkpt lat="30.61617851" lon="34.84922028"><ele>525.5</ele><time>2013-11-22T13:44:44.0000000+00:00</time></trkpt><trkpt lat="30.61631203" lon="34.84908295"><ele>526.1</ele><time>2013-11-22T13:44:49.0000000+00:00</time></trkpt><trkpt lat="30.61645126" lon="34.84892273"><ele>525.6</ele><time>2013-11-22T13:44:54.0000000+00:00</time></trkpt><trkpt lat="30.61660767" lon="34.84873962"><ele>521.8</ele><time>2013-11-22T13:44:59.0000000+00:00</time></trkpt><trkpt lat="30.61673927" lon="34.84858704"><ele>520.7</ele><time>2013-11-22T13:45:04.0000000+00:00</time></trkpt><trkpt lat="30.61686516" lon="34.84843826"><ele>522.0</ele><time>2013-11-22T13:45:09.0000000+00:00</time></trkpt><trkpt lat="30.61699677" lon="34.84828568"><ele>524.3</ele><time>2013-11-22T13:45:14.0000000+00:00</time></trkpt><trkpt lat="30.61713028" lon="34.84813309"><ele>526.0</ele><time>2013-11-22T13:45:19.0000000+00:00</time></trkpt><trkpt lat="30.61724854" lon="34.84798431"><ele>528.6</ele><time>2013-11-22T13:45:24.0000000+00:00</time></trkpt><trkpt lat="30.6173687" lon="34.84782791"><ele>531.4</ele><time>2013-11-22T13:45:29.0000000+00:00</time></trkpt><trkpt lat="30.61748886" lon="34.84767532"><ele>533.6</ele><time>2013-11-22T13:45:34.0000000+00:00</time></trkpt><trkpt lat="30.61762619" lon="34.84751511"><ele>535.0</ele><time>2013-11-22T13:45:39.0000000+00:00</time></trkpt><trkpt lat="30.61776543" lon="34.84736633"><ele>533.0</ele><time>2013-11-22T13:45:44.0000000+00:00</time></trkpt><trkpt lat="30.61789322" lon="34.84721756"><ele>532.6</ele><time>2013-11-22T13:45:49.0000000+00:00</time></trkpt><trkpt lat="30.6179924" lon="34.84711075"><ele>533.6</ele><time>2013-11-22T13:45:54.0000000+00:00</time></trkpt><trkpt lat="30.61806107" lon="34.84703827"><ele>531.2</ele><time>2013-11-22T13:45:59.0000000+00:00</time></trkpt><trkpt lat="30.61811066" lon="34.8469696"><ele>528.8</ele><time>2013-11-22T13:46:04.0000000+00:00</time></trkpt><trkpt lat="30.61814308" lon="34.84692383"><ele>526.3</ele><time>2013-11-22T13:46:09.0000000+00:00</time></trkpt><trkpt lat="30.61818695" lon="34.84688568"><ele>522.5</ele><time>2013-11-22T13:46:14.0000000+00:00</time></trkpt><trkpt lat="30.6182785" lon="34.8467865"><ele>520.7</ele><time>2013-11-22T13:46:19.0000000+00:00</time></trkpt><trkpt lat="30.61841011" lon="34.84664536"><ele>521.6</ele><time>2013-11-22T13:46:24.0000000+00:00</time></trkpt><trkpt lat="30.61854553" lon="34.84648895"><ele>522.5</ele><time>2013-11-22T13:46:29.0000000+00:00</time></trkpt><trkpt lat="30.61868095" lon="34.84632874"><ele>525.1</ele><time>2013-11-22T13:46:34.0000000+00:00</time></trkpt><trkpt lat="30.61882973" lon="34.8461647"><ele>527.2</ele><time>2013-11-22T13:46:39.0000000+00:00</time></trkpt><trkpt lat="30.61896133" lon="34.84599304"><ele>528.3</ele><time>2013-11-22T13:46:44.0000000+00:00</time></trkpt><trkpt lat="30.61910439" lon="34.8458252"><ele>529.2</ele><time>2013-11-22T13:46:49.0000000+00:00</time></trkpt><trkpt lat="30.61927414" lon="34.84563065"><ele>528.3</ele><time>2013-11-22T13:46:54.0000000+00:00</time></trkpt><trkpt lat="30.61942101" lon="34.84545136"><ele>526.8</ele><time>2013-11-22T13:46:59.0000000+00:00</time></trkpt><trkpt lat="30.61955833" lon="34.84528732"><ele>526.9</ele><time>2013-11-22T13:47:04.0000000+00:00</time></trkpt><trkpt lat="30.61970139" lon="34.84510422"><ele>528.5</ele><time>2013-11-22T13:47:09.0000000+00:00</time></trkpt><trkpt lat="30.61985207" lon="34.84493256"><ele>528.6</ele><time>2013-11-22T13:47:14.0000000+00:00</time></trkpt><trkpt lat="30.61999893" lon="34.84476852"><ele>528.1</ele><time>2013-11-22T13:47:19.0000000+00:00</time></trkpt><trkpt lat="30.62014771" lon="34.84458542"><ele>528.4</ele><time>2013-11-22T13:47:24.0000000+00:00</time></trkpt><trkpt lat="30.62029648" lon="34.84441757"><ele>528.9</ele><time>2013-11-22T13:47:29.0000000+00:00</time></trkpt><trkpt lat="30.62045097" lon="34.8442421"><ele>529.1</ele><time>2013-11-22T13:47:34.0000000+00:00</time></trkpt><trkpt lat="30.62059975" lon="34.84408569"><ele>529.3</ele><time>2013-11-22T13:47:39.0000000+00:00</time></trkpt><trkpt lat="30.62075043" lon="34.84394074"><ele>530.1</ele><time>2013-11-22T13:47:44.0000000+00:00</time></trkpt><trkpt lat="30.62088776" lon="34.84382248"><ele>531.2</ele><time>2013-11-22T13:47:49.0000000+00:00</time></trkpt><trkpt lat="30.62102699" lon="34.84370041"><ele>532.4</ele><time>2013-11-22T13:47:54.0000000+00:00</time></trkpt><trkpt lat="30.62111855" lon="34.84358215"><ele>533.0</ele><time>2013-11-22T13:47:59.0000000+00:00</time></trkpt><trkpt lat="30.62104034" lon="34.84348679"><ele>532.0</ele><time>2013-11-22T13:48:04.0000000+00:00</time></trkpt><trkpt lat="30.62103653" lon="34.84350205"><ele>531.0</ele><time>2013-11-22T13:48:09.0000000+00:00</time></trkpt><trkpt lat="30.62103653" lon="34.84350205"><ele>530.9</ele><time>2013-11-22T13:48:14.0000000+00:00</time></trkpt><trkpt lat="30.62103653" lon="34.84350205"><ele>530.9</ele><time>2013-11-22T13:48:19.0000000+00:00</time></trkpt><trkpt lat="30.62103653" lon="34.84350205"><ele>531.0</ele><time>2013-11-22T13:48:24.0000000+00:00</time></trkpt><trkpt lat="30.62103653" lon="34.84350205"><ele>531.0</ele><time>2013-11-22T13:48:29.0000000+00:00</time></trkpt><trkpt lat="30.62103462" lon="34.84350205"><ele>531.1</ele><time>2013-11-22T13:48:34.0000000+00:00</time></trkpt><trkpt lat="30.62103462" lon="34.84350205"><ele>531.3</ele><time>2013-11-22T13:48:39.0000000+00:00</time></trkpt><trkpt lat="30.62103462" lon="34.84350205"><ele>531.3</ele><time>2013-11-22T13:48:44.0000000+00:00</time></trkpt><trkpt lat="30.62103462" lon="34.84350205"><ele>531.3</ele><time>2013-11-22T13:48:49.0000000+00:00</time></trkpt><trkpt lat="30.62103462" lon="34.84350205"><ele>531.3</ele><time>2013-11-22T13:48:54.0000000+00:00</time></trkpt><trkpt lat="30.62103462" lon="34.84350205"><ele>531.2</ele><time>2013-11-22T13:48:59.0000000+00:00</time></trkpt><trkpt lat="30.62103462" lon="34.84350205"><ele>531.2</ele><time>2013-11-22T13:49:04.0000000+00:00</time></trkpt><trkpt lat="30.62103462" lon="34.84350586"><ele>531.2</ele><time>2013-11-22T13:49:09.0000000+00:00</time></trkpt><trkpt lat="30.62103462" lon="34.84350586"><ele>531.2</ele><time>2013-11-22T13:49:14.0000000+00:00</time></trkpt><trkpt lat="30.62103462" lon="34.84350586"><ele>531.1</ele><time>2013-11-22T13:49:19.0000000+00:00</time></trkpt><trkpt lat="30.62103462" lon="34.84350586"><ele>531.1</ele><time>2013-11-22T13:49:24.0000000+00:00</time></trkpt><trkpt lat="30.62103462" lon="34.84350586"><ele>531.1</ele><time>2013-11-22T13:49:29.0000000+00:00</time></trkpt><trkpt lat="30.62103653" lon="34.84350586"><ele>531.1</ele><time>2013-11-22T13:49:34.0000000+00:00</time></trkpt><trkpt lat="30.62103653" lon="34.84350586"><ele>531.1</ele><time>2013-11-22T13:49:39.0000000+00:00</time></trkpt><trkpt lat="30.62103653" lon="34.84350586"><ele>531.0</ele><time>2013-11-22T13:49:44.0000000+00:00</time></trkpt><trkpt lat="30.62103653" lon="34.84350586"><ele>531.0</ele><time>2013-11-22T13:49:49.0000000+00:00</time></trkpt><trkpt lat="30.62103653" lon="34.84350586"><ele>531.0</ele><time>2013-11-22T13:49:54.0000000+00:00</time></trkpt><trkpt lat="30.62104225" lon="34.8434906"><ele>531.1</ele><time>2013-11-22T13:49:59.0000000+00:00</time></trkpt><trkpt lat="30.62104988" lon="34.84348297"><ele>531.2</ele><time>2013-11-22T13:50:04.0000000+00:00</time></trkpt><trkpt lat="30.62104225" lon="34.84346771"><ele>531.3</ele><time>2013-11-22T13:50:09.0000000+00:00</time></trkpt><trkpt lat="30.62104225" lon="34.84346771"><ele>531.3</ele><time>2013-11-22T13:50:14.0000000+00:00</time></trkpt><trkpt lat="30.62104034" lon="34.84346771"><ele>531.1</ele><time>2013-11-22T13:50:19.0000000+00:00</time></trkpt><trkpt lat="30.62104034" lon="34.84346771"><ele>531.0</ele><time>2013-11-22T13:50:24.0000000+00:00</time></trkpt><trkpt lat="30.62104034" lon="34.84346771"><ele>531.0</ele><time>2013-11-22T13:50:29.0000000+00:00</time></trkpt><trkpt lat="30.62104034" lon="34.84346771"><ele>530.9</ele><time>2013-11-22T13:50:34.0000000+00:00</time></trkpt><trkpt lat="30.62104034" lon="34.84346771"><ele>530.9</ele><time>2013-11-22T13:50:39.0000000+00:00</time></trkpt><trkpt lat="30.62103844" lon="34.84346771"><ele>530.8</ele><time>2013-11-22T13:50:44.0000000+00:00</time></trkpt><trkpt lat="30.62103844" lon="34.84346771"><ele>530.8</ele><time>2013-11-22T13:50:49.0000000+00:00</time></trkpt><trkpt lat="30.62103844" lon="34.84346771"><ele>530.8</ele><time>2013-11-22T13:50:54.0000000+00:00</time></trkpt><trkpt lat="30.62103844" lon="34.84346771"><ele>530.8</ele><time>2013-11-22T13:50:59.0000000+00:00</time></trkpt><trkpt lat="30.62103844" lon="34.84346008"><ele>530.8</ele><time>2013-11-22T13:51:04.0000000+00:00</time></trkpt><trkpt lat="30.62103844" lon="34.84346008"><ele>530.7</ele><time>2013-11-22T13:51:09.0000000+00:00</time></trkpt><trkpt lat="30.62103844" lon="34.84346008"><ele>530.7</ele><time>2013-11-22T13:51:14.0000000+00:00</time></trkpt><trkpt lat="30.62103653" lon="34.84346008"><ele>530.6</ele><time>2013-11-22T13:51:19.0000000+00:00</time></trkpt><trkpt lat="30.62103653" lon="34.84346008"><ele>530.6</ele><time>2013-11-22T13:51:24.0000000+00:00</time></trkpt><trkpt lat="30.62103653" lon="34.84346008"><ele>530.6</ele><time>2013-11-22T13:51:29.0000000+00:00</time></trkpt><trkpt lat="30.62103653" lon="34.84346008"><ele>530.5</ele><time>2013-11-22T13:51:34.0000000+00:00</time></trkpt><trkpt lat="30.62103653" lon="34.84346008"><ele>530.5</ele><time>2013-11-22T13:51:39.0000000+00:00</time></trkpt><trkpt lat="30.62103653" lon="34.84346008"><ele>530.5</ele><time>2013-11-22T13:51:44.0000000+00:00</time></trkpt><trkpt lat="30.62103653" lon="34.84346008"><ele>530.4</ele><time>2013-11-22T13:51:49.0000000+00:00</time></trkpt><trkpt lat="30.62103653" lon="34.84345245"><ele>530.5</ele><time>2013-11-22T13:51:54.0000000+00:00</time></trkpt><trkpt lat="30.62103653" lon="34.84345245"><ele>530.7</ele><time>2013-11-22T13:51:59.0000000+00:00</time></trkpt><trkpt lat="30.62103653" lon="34.84345245"><ele>530.7</ele><time>2013-11-22T13:52:04.0000000+00:00</time></trkpt><trkpt lat="30.62103462" lon="34.84345245"><ele>530.7</ele><time>2013-11-22T13:52:09.0000000+00:00</time></trkpt><trkpt lat="30.62103462" lon="34.84345245"><ele>530.7</ele><time>2013-11-22T13:52:14.0000000+00:00</time></trkpt><trkpt lat="30.62103462" lon="34.84345245"><ele>530.7</ele><time>2013-11-22T13:52:19.0000000+00:00</time></trkpt><trkpt lat="30.62103462" lon="34.84345245"><ele>530.7</ele><time>2013-11-22T13:52:24.0000000+00:00</time></trkpt><trkpt lat="30.62103462" lon="34.84345245"><ele>530.6</ele><time>2013-11-22T13:52:29.0000000+00:00</time></trkpt><trkpt lat="30.62103272" lon="34.84345245"><ele>530.6</ele><time>2013-11-22T13:52:34.0000000+00:00</time></trkpt><trkpt lat="30.62103272" lon="34.84345245"><ele>530.6</ele><time>2013-11-22T13:52:39.0000000+00:00</time></trkpt><trkpt lat="30.62103272" lon="34.84345245"><ele>530.6</ele><time>2013-11-22T13:52:44.0000000+00:00</time></trkpt><trkpt lat="30.62103272" lon="34.84345245"><ele>530.5</ele><time>2013-11-22T13:52:49.0000000+00:00</time></trkpt><trkpt lat="30.62103272" lon="34.84345245"><ele>530.5</ele><time>2013-11-22T13:52:54.0000000+00:00</time></trkpt><trkpt lat="30.62103272" lon="34.84345245"><ele>530.5</ele><time>2013-11-22T13:52:59.0000000+00:00</time></trkpt><trkpt lat="30.62103272" lon="34.84345245"><ele>530.5</ele><time>2013-11-22T13:53:04.0000000+00:00</time></trkpt><trkpt lat="30.62103272" lon="34.84345245"><ele>530.4</ele><time>2013-11-22T13:53:09.0000000+00:00</time></trkpt><trkpt lat="30.62103272" lon="34.84345245"><ele>530.4</ele><time>2013-11-22T13:53:14.0000000+00:00</time></trkpt><trkpt lat="30.62103081" lon="34.84345245"><ele>530.4</ele><time>2013-11-22T13:53:19.0000000+00:00</time></trkpt><trkpt lat="30.62103081" lon="34.84345245"><ele>530.3</ele><time>2013-11-22T13:53:24.0000000+00:00</time></trkpt><trkpt lat="30.62103081" lon="34.84345245"><ele>530.3</ele><time>2013-11-22T13:53:29.0000000+00:00</time></trkpt><trkpt lat="30.62103081" lon="34.84345245"><ele>530.3</ele><time>2013-11-22T13:53:34.0000000+00:00</time></trkpt><trkpt lat="30.62103081" lon="34.84345245"><ele>530.3</ele><time>2013-11-22T13:53:39.0000000+00:00</time></trkpt><trkpt lat="30.62103081" lon="34.84345245"><ele>530.2</ele><time>2013-11-22T13:53:44.0000000+00:00</time></trkpt><trkpt lat="30.6210289" lon="34.84345245"><ele>530.2</ele><time>2013-11-22T13:53:49.0000000+00:00</time></trkpt><trkpt lat="30.6210289" lon="34.84345245"><ele>530.2</ele><time>2013-11-22T13:53:54.0000000+00:00</time></trkpt><trkpt lat="30.62102699" lon="34.84346008"><ele>530.2</ele><time>2013-11-22T13:53:59.0000000+00:00</time></trkpt><trkpt lat="30.62103462" lon="34.84346008"><ele>530.1</ele><time>2013-11-22T13:54:04.0000000+00:00</time></trkpt><trkpt lat="30.62111664" lon="34.8434639"><ele>530.4</ele><time>2013-11-22T13:54:09.0000000+00:00</time></trkpt><trkpt lat="30.62122154" lon="34.84347534"><ele>530.7</ele><time>2013-11-22T13:54:14.0000000+00:00</time></trkpt><trkpt lat="30.6213398" lon="34.84343338"><ele>530.5</ele><time>2013-11-22T13:54:19.0000000+00:00</time></trkpt><trkpt lat="30.62144852" lon="34.84333038"><ele>530.0</ele><time>2013-11-22T13:54:24.0000000+00:00</time></trkpt><trkpt lat="30.62155533" lon="34.84321976"><ele>529.0</ele><time>2013-11-22T13:54:29.0000000+00:00</time></trkpt><trkpt lat="30.62166214" lon="34.84310913"><ele>528.4</ele><time>2013-11-22T13:54:34.0000000+00:00</time></trkpt><trkpt lat="30.62177467" lon="34.84299851"><ele>527.3</ele><time>2013-11-22T13:54:39.0000000+00:00</time></trkpt><trkpt lat="30.62190628" lon="34.84287262"><ele>526.1</ele><time>2013-11-22T13:54:44.0000000+00:00</time></trkpt><trkpt lat="30.62204552" lon="34.84274292"><ele>525.1</ele><time>2013-11-22T13:54:49.0000000+00:00</time></trkpt><trkpt lat="30.62219048" lon="34.84260178"><ele>524.7</ele><time>2013-11-22T13:54:54.0000000+00:00</time></trkpt><trkpt lat="30.62236023" lon="34.84244537"><ele>523.3</ele><time>2013-11-22T13:54:59.0000000+00:00</time></trkpt><trkpt lat="30.62254143" lon="34.84228897"><ele>522.4</ele><time>2013-11-22T13:55:04.0000000+00:00</time></trkpt><trkpt lat="30.6227417" lon="34.8421135"><ele>521.0</ele><time>2013-11-22T13:55:09.0000000+00:00</time></trkpt><trkpt lat="30.62293243" lon="34.84194565"><ele>521.6</ele><time>2013-11-22T13:55:14.0000000+00:00</time></trkpt><trkpt lat="30.62311173" lon="34.8417778"><ele>522.0</ele><time>2013-11-22T13:55:19.0000000+00:00</time></trkpt><trkpt lat="30.62329483" lon="34.84160233"><ele>522.7</ele><time>2013-11-22T13:55:24.0000000+00:00</time></trkpt><trkpt lat="30.62348557" lon="34.84141541"><ele>522.6</ele><time>2013-11-22T13:55:29.0000000+00:00</time></trkpt><trkpt lat="30.62366867" lon="34.84118652"><ele>522.3</ele><time>2013-11-22T13:55:34.0000000+00:00</time></trkpt><trkpt lat="30.62383461" lon="34.84095383"><ele>522.2</ele><time>2013-11-22T13:55:39.0000000+00:00</time></trkpt><trkpt lat="30.62398148" lon="34.84069824"><ele>520.6</ele><time>2013-11-22T13:55:44.0000000+00:00</time></trkpt><trkpt lat="30.62410164" lon="34.84042358"><ele>519.0</ele><time>2013-11-22T13:55:49.0000000+00:00</time></trkpt><trkpt lat="30.62417984" lon="34.84013367"><ele>515.5</ele><time>2013-11-22T13:55:54.0000000+00:00</time></trkpt><trkpt lat="30.62423134" lon="34.83982086"><ele>514.6</ele><time>2013-11-22T13:55:59.0000000+00:00</time></trkpt><trkpt lat="30.62425041" lon="34.83950806"><ele>516.1</ele><time>2013-11-22T13:56:04.0000000+00:00</time></trkpt><trkpt lat="30.62426949" lon="34.83919144"><ele>520.0</ele><time>2013-11-22T13:56:09.0000000+00:00</time></trkpt><trkpt lat="30.62427712" lon="34.8389473"><ele>522.3</ele><time>2013-11-22T13:56:14.0000000+00:00</time></trkpt><trkpt lat="30.62429619" lon="34.83871079"><ele>524.9</ele><time>2013-11-22T13:56:19.0000000+00:00</time></trkpt><trkpt lat="30.62430191" lon="34.83846664"><ele>529.1</ele><time>2013-11-22T13:56:24.0000000+00:00</time></trkpt><trkpt lat="30.62432098" lon="34.8382225"><ele>534.3</ele><time>2013-11-22T13:56:29.0000000+00:00</time></trkpt><trkpt lat="30.62433434" lon="34.83802033"><ele>538.1</ele><time>2013-11-22T13:56:34.0000000+00:00</time></trkpt><trkpt lat="30.62435341" lon="34.83779526"><ele>544.5</ele><time>2013-11-22T13:56:39.0000000+00:00</time></trkpt><trkpt lat="30.62436676" lon="34.83758164"><ele>550.4</ele><time>2013-11-22T13:56:44.0000000+00:00</time></trkpt><trkpt lat="30.62438774" lon="34.8373642"><ele>554.3</ele><time>2013-11-22T13:56:49.0000000+00:00</time></trkpt><trkpt lat="30.62440109" lon="34.83716583"><ele>558.4</ele><time>2013-11-22T13:56:54.0000000+00:00</time></trkpt><trkpt lat="30.624403" lon="34.83697128"><ele>560.3</ele><time>2013-11-22T13:56:59.0000000+00:00</time></trkpt><trkpt lat="30.62441635" lon="34.83679962"><ele>563.3</ele><time>2013-11-22T13:57:04.0000000+00:00</time></trkpt><trkpt lat="30.62439919" lon="34.83660126"><ele>567.1</ele><time>2013-11-22T13:57:09.0000000+00:00</time></trkpt><trkpt lat="30.62441063" lon="34.83643341"><ele>570.6</ele><time>2013-11-22T13:57:14.0000000+00:00</time></trkpt><trkpt lat="30.62440872" lon="34.83629608"><ele>571.9</ele><time>2013-11-22T13:57:19.0000000+00:00</time></trkpt><trkpt lat="30.62443161" lon="34.83610916"><ele>569.3</ele><time>2013-11-22T13:57:24.0000000+00:00</time></trkpt><trkpt lat="30.62444115" lon="34.83593369"><ele>569.6</ele><time>2013-11-22T13:57:29.0000000+00:00</time></trkpt><trkpt lat="30.62445259" lon="34.83575821"><ele>569.7</ele><time>2013-11-22T13:57:34.0000000+00:00</time></trkpt><trkpt lat="30.62446594" lon="34.83555985"><ele>568.1</ele><time>2013-11-22T13:57:39.0000000+00:00</time></trkpt><trkpt lat="30.62448311" lon="34.83534622"><ele>569.9</ele><time>2013-11-22T13:57:44.0000000+00:00</time></trkpt><trkpt lat="30.62449074" lon="34.83512497"><ele>572.8</ele><time>2013-11-22T13:57:49.0000000+00:00</time></trkpt><trkpt lat="30.62448883" lon="34.83493805"><ele>574.5</ele><time>2013-11-22T13:57:54.0000000+00:00</time></trkpt><trkpt lat="30.62449455" lon="34.83476639"><ele>575.3</ele><time>2013-11-22T13:57:59.0000000+00:00</time></trkpt><trkpt lat="30.62449455" lon="34.83457947"><ele>577.3</ele><time>2013-11-22T13:58:04.0000000+00:00</time></trkpt><trkpt lat="30.62450981" lon="34.83437347"><ele>578.8</ele><time>2013-11-22T13:58:09.0000000+00:00</time></trkpt><trkpt lat="30.62451553" lon="34.83415985"><ele>584.2</ele><time>2013-11-22T13:58:14.0000000+00:00</time></trkpt><trkpt lat="30.62453079" lon="34.8339386"><ele>585.2</ele><time>2013-11-22T13:58:19.0000000+00:00</time></trkpt><trkpt lat="30.62455559" lon="34.83371735"><ele>583.3</ele><time>2013-11-22T13:58:24.0000000+00:00</time></trkpt><trkpt lat="30.62455177" lon="34.83354187"><ele>583.1</ele><time>2013-11-22T13:58:29.0000000+00:00</time></trkpt><trkpt lat="30.62456322" lon="34.83334351"><ele>585.6</ele><time>2013-11-22T13:58:34.0000000+00:00</time></trkpt><trkpt lat="30.62457848" lon="34.83314133"><ele>586.3</ele><time>2013-11-22T13:58:39.0000000+00:00</time></trkpt><trkpt lat="30.62459374" lon="34.83298111"><ele>583.4</ele><time>2013-11-22T13:58:44.0000000+00:00</time></trkpt><trkpt lat="30.62459564" lon="34.83278656"><ele>581.0</ele><time>2013-11-22T13:58:49.0000000+00:00</time></trkpt><trkpt lat="30.62462235" lon="34.83258438"><ele>579.6</ele><time>2013-11-22T13:58:54.0000000+00:00</time></trkpt><trkpt lat="30.62464714" lon="34.83241653"><ele>578.4</ele><time>2013-11-22T13:58:59.0000000+00:00</time></trkpt><trkpt lat="30.62466812" lon="34.83221436"><ele>574.8</ele><time>2013-11-22T13:59:04.0000000+00:00</time></trkpt><trkpt lat="30.62467957" lon="34.83200073"><ele>575.3</ele><time>2013-11-22T13:59:09.0000000+00:00</time></trkpt><trkpt lat="30.62470245" lon="34.83177185"><ele>572.5</ele><time>2013-11-22T13:59:14.0000000+00:00</time></trkpt><trkpt lat="30.62472153" lon="34.83154297"><ele>571.7</ele><time>2013-11-22T13:59:19.0000000+00:00</time></trkpt><trkpt lat="30.62472153" lon="34.83132553"><ele>572.8</ele><time>2013-11-22T13:59:24.0000000+00:00</time></trkpt><trkpt lat="30.62473297" lon="34.83110046"><ele>571.4</ele><time>2013-11-22T13:59:29.0000000+00:00</time></trkpt><trkpt lat="30.62473297" lon="34.83087158"><ele>573.3</ele><time>2013-11-22T13:59:34.0000000+00:00</time></trkpt><trkpt lat="30.62473297" lon="34.83068466"><ele>578.3</ele><time>2013-11-22T13:59:39.0000000+00:00</time></trkpt><trkpt lat="30.6247406" lon="34.8304863"><ele>581.6</ele><time>2013-11-22T13:59:44.0000000+00:00</time></trkpt><trkpt lat="30.62474632" lon="34.83031464"><ele>581.0</ele><time>2013-11-22T13:59:49.0000000+00:00</time></trkpt><trkpt lat="30.62476921" lon="34.83012009"><ele>576.3</ele><time>2013-11-22T13:59:54.0000000+00:00</time></trkpt><trkpt lat="30.62477303" lon="34.82995606"><ele>571.1</ele><time>2013-11-22T13:59:59.0000000+00:00</time></trkpt><trkpt lat="30.62478828" lon="34.82976151"><ele>568.9</ele><time>2013-11-22T14:00:04.0000000+00:00</time></trkpt><trkpt lat="30.62480164" lon="34.82956314"><ele>569.0</ele><time>2013-11-22T14:00:09.0000000+00:00</time></trkpt><trkpt lat="30.62481117" lon="34.82937241"><ele>570.3</ele><time>2013-11-22T14:00:14.0000000+00:00</time></trkpt><trkpt lat="30.62482643" lon="34.82915878"><ele>570.4</ele><time>2013-11-22T14:00:19.0000000+00:00</time></trkpt><trkpt lat="30.62485504" lon="34.82894135"><ele>569.2</ele><time>2013-11-22T14:00:24.0000000+00:00</time></trkpt><trkpt lat="30.62487412" lon="34.82871628"><ele>568.8</ele><time>2013-11-22T14:00:29.0000000+00:00</time></trkpt><trkpt lat="30.624897" lon="34.82849884"><ele>567.9</ele><time>2013-11-22T14:00:34.0000000+00:00</time></trkpt><trkpt lat="30.62490463" lon="34.82831192"><ele>568.7</ele><time>2013-11-22T14:00:39.0000000+00:00</time></trkpt><trkpt lat="30.62491226" lon="34.82810974"><ele>572.2</ele><time>2013-11-22T14:00:44.0000000+00:00</time></trkpt><trkpt lat="30.62491417" lon="34.82797241"><ele>574.3</ele><time>2013-11-22T14:00:49.0000000+00:00</time></trkpt><trkpt lat="30.62491608" lon="34.82784653"><ele>575.5</ele><time>2013-11-22T14:00:54.0000000+00:00</time></trkpt><trkpt lat="30.62492371" lon="34.8277092"><ele>576.2</ele><time>2013-11-22T14:00:59.0000000+00:00</time></trkpt><trkpt lat="30.62493897" lon="34.82754517"><ele>575.6</ele><time>2013-11-22T14:01:04.0000000+00:00</time></trkpt><trkpt lat="30.62494469" lon="34.82738495"><ele>576.4</ele><time>2013-11-22T14:01:09.0000000+00:00</time></trkpt><trkpt lat="30.62495613" lon="34.82723618"><ele>576.7</ele><time>2013-11-22T14:01:14.0000000+00:00</time></trkpt><trkpt lat="30.62496185" lon="34.82711029"><ele>577.7</ele><time>2013-11-22T14:01:19.0000000+00:00</time></trkpt><trkpt lat="30.6249733" lon="34.82698441"><ele>578.8</ele><time>2013-11-22T14:01:24.0000000+00:00</time></trkpt><trkpt lat="30.6249752" lon="34.82688522"><ele>581.5</ele><time>2013-11-22T14:01:29.0000000+00:00</time></trkpt><trkpt lat="30.62498093" lon="34.82677841"><ele>581.3</ele><time>2013-11-22T14:01:34.0000000+00:00</time></trkpt><trkpt lat="30.62499046" lon="34.82665253"><ele>580.5</ele><time>2013-11-22T14:01:39.0000000+00:00</time></trkpt><trkpt lat="30.62501144" lon="34.82652664"><ele>579.8</ele><time>2013-11-22T14:01:44.0000000+00:00</time></trkpt><trkpt lat="30.6250248" lon="34.82640457"><ele>579.1</ele><time>2013-11-22T14:01:49.0000000+00:00</time></trkpt><trkpt lat="30.62501717" lon="34.82629776"><ele>581.2</ele><time>2013-11-22T14:01:54.0000000+00:00</time></trkpt><trkpt lat="30.62503052" lon="34.82622528"><ele>582.0</ele><time>2013-11-22T14:01:59.0000000+00:00</time></trkpt><trkpt lat="30.6250267" lon="34.82614517"><ele>583.1</ele><time>2013-11-22T14:02:04.0000000+00:00</time></trkpt><trkpt lat="30.6250267" lon="34.82606125"><ele>583.9</ele><time>2013-11-22T14:02:09.0000000+00:00</time></trkpt><trkpt lat="30.6250248" lon="34.82595825"><ele>585.9</ele><time>2013-11-22T14:02:14.0000000+00:00</time></trkpt><trkpt lat="30.6250267" lon="34.82586289"><ele>586.8</ele><time>2013-11-22T14:02:19.0000000+00:00</time></trkpt><trkpt lat="30.62503243" lon="34.82574463"><ele>587.8</ele><time>2013-11-22T14:02:24.0000000+00:00</time></trkpt><trkpt lat="30.62503815" lon="34.82563019"><ele>588.3</ele><time>2013-11-22T14:02:29.0000000+00:00</time></trkpt><trkpt lat="30.62503243" lon="34.82551193"><ele>588.1</ele><time>2013-11-22T14:02:34.0000000+00:00</time></trkpt><trkpt lat="30.62503433" lon="34.82540131"><ele>589.5</ele><time>2013-11-22T14:02:39.0000000+00:00</time></trkpt><trkpt lat="30.62502861" lon="34.82528687"><ele>590.4</ele><time>2013-11-22T14:02:44.0000000+00:00</time></trkpt><trkpt lat="30.62503624" lon="34.82517242"><ele>588.1</ele><time>2013-11-22T14:02:49.0000000+00:00</time></trkpt><trkpt lat="30.62504005" lon="34.82505798"><ele>586.3</ele><time>2013-11-22T14:02:54.0000000+00:00</time></trkpt><trkpt lat="30.62503433" lon="34.82495499"><ele>585.5</ele><time>2013-11-22T14:02:59.0000000+00:00</time></trkpt><trkpt lat="30.62501526" lon="34.82486343"><ele>586.2</ele><time>2013-11-22T14:03:04.0000000+00:00</time></trkpt><trkpt lat="30.62499046" lon="34.82476807"><ele>585.7</ele><time>2013-11-22T14:03:09.0000000+00:00</time></trkpt><trkpt lat="30.62496567" lon="34.82465363"><ele>586.1</ele><time>2013-11-22T14:03:14.0000000+00:00</time></trkpt><trkpt lat="30.62494278" lon="34.82453537"><ele>586.1</ele><time>2013-11-22T14:03:19.0000000+00:00</time></trkpt><trkpt lat="30.62490845" lon="34.82442474"><ele>587.6</ele><time>2013-11-22T14:03:24.0000000+00:00</time></trkpt><trkpt lat="30.62488556" lon="34.82431412"><ele>587.4</ele><time>2013-11-22T14:03:29.0000000+00:00</time></trkpt><trkpt lat="30.62485504" lon="34.82419968"><ele>588.5</ele><time>2013-11-22T14:03:34.0000000+00:00</time></trkpt><trkpt lat="30.62482071" lon="34.82408142"><ele>589.4</ele><time>2013-11-22T14:03:39.0000000+00:00</time></trkpt><trkpt lat="30.62479591" lon="34.82397461"><ele>588.2</ele><time>2013-11-22T14:03:44.0000000+00:00</time></trkpt><trkpt lat="30.62476349" lon="34.82387161"><ele>588.5</ele><time>2013-11-22T14:03:49.0000000+00:00</time></trkpt><trkpt lat="30.62472916" lon="34.82381439"><ele>588.6</ele><time>2013-11-22T14:03:54.0000000+00:00</time></trkpt><trkpt lat="30.62470245" lon="34.82372665"><ele>588.3</ele><time>2013-11-22T14:03:59.0000000+00:00</time></trkpt><trkpt lat="30.62464905" lon="34.8236351"><ele>590.3</ele><time>2013-11-22T14:04:04.0000000+00:00</time></trkpt><trkpt lat="30.62459755" lon="34.82353592"><ele>591.4</ele><time>2013-11-22T14:04:09.0000000+00:00</time></trkpt><trkpt lat="30.6245594" lon="34.82344055"><ele>591.7</ele><time>2013-11-22T14:04:14.0000000+00:00</time></trkpt><trkpt lat="30.62454033" lon="34.82339096"><ele>592.4</ele><time>2013-11-22T14:04:19.0000000+00:00</time></trkpt><trkpt lat="30.62449074" lon="34.82329941"><ele>592.4</ele><time>2013-11-22T14:04:24.0000000+00:00</time></trkpt><trkpt lat="30.62443924" lon="34.82320786"><ele>592.8</ele><time>2013-11-22T14:04:29.0000000+00:00</time></trkpt><trkpt lat="30.62438583" lon="34.8231163"><ele>592.5</ele><time>2013-11-22T14:04:34.0000000+00:00</time></trkpt><trkpt lat="30.62432671" lon="34.82302094"><ele>592.2</ele><time>2013-11-22T14:04:39.0000000+00:00</time></trkpt><trkpt lat="30.6243" lon="34.82296372"><ele>590.7</ele><time>2013-11-22T14:04:44.0000000+00:00</time></trkpt><trkpt lat="30.6242466" lon="34.82289505"><ele>592.0</ele><time>2013-11-22T14:04:49.0000000+00:00</time></trkpt><trkpt lat="30.62418747" lon="34.82279587"><ele>592.8</ele><time>2013-11-22T14:04:54.0000000+00:00</time></trkpt><trkpt lat="30.62411881" lon="34.82271576"><ele>593.9</ele><time>2013-11-22T14:04:59.0000000+00:00</time></trkpt><trkpt lat="30.62405968" lon="34.82263184"><ele>594.4</ele><time>2013-11-22T14:05:04.0000000+00:00</time></trkpt><trkpt lat="30.62402344" lon="34.8225708"><ele>594.0</ele><time>2013-11-22T14:05:09.0000000+00:00</time></trkpt><trkpt lat="30.62397194" lon="34.82248306"><ele>593.0</ele><time>2013-11-22T14:05:14.0000000+00:00</time></trkpt><trkpt lat="30.62390328" lon="34.82237625"><ele>597.8</ele><time>2013-11-22T14:05:19.0000000+00:00</time></trkpt><trkpt lat="30.62384415" lon="34.82227325"><ele>597.4</ele><time>2013-11-22T14:05:24.0000000+00:00</time></trkpt><trkpt lat="30.62377548" lon="34.82218552"><ele>598.9</ele><time>2013-11-22T14:05:29.0000000+00:00</time></trkpt><trkpt lat="30.62370873" lon="34.82208633"><ele>599.3</ele><time>2013-11-22T14:05:34.0000000+00:00</time></trkpt><trkpt lat="30.62363815" lon="34.82198715"><ele>600.6</ele><time>2013-11-22T14:05:39.0000000+00:00</time></trkpt><trkpt lat="30.6235714" lon="34.82191467"><ele>602.9</ele><time>2013-11-22T14:05:44.0000000+00:00</time></trkpt><trkpt lat="30.62351036" lon="34.82180786"><ele>602.4</ele><time>2013-11-22T14:05:49.0000000+00:00</time></trkpt><trkpt lat="30.62345696" lon="34.82171249"><ele>601.4</ele><time>2013-11-22T14:05:54.0000000+00:00</time></trkpt><trkpt lat="30.62340736" lon="34.82164002"><ele>602.1</ele><time>2013-11-22T14:05:59.0000000+00:00</time></trkpt><trkpt lat="30.62334251" lon="34.82155609"><ele>604.4</ele><time>2013-11-22T14:06:04.0000000+00:00</time></trkpt><trkpt lat="30.62328529" lon="34.82147217"><ele>605.0</ele><time>2013-11-22T14:06:09.0000000+00:00</time></trkpt><trkpt lat="30.62322426" lon="34.8213768"><ele>605.4</ele><time>2013-11-22T14:06:14.0000000+00:00</time></trkpt><trkpt lat="30.62319565" lon="34.82129288"><ele>604.9</ele><time>2013-11-22T14:06:19.0000000+00:00</time></trkpt><trkpt lat="30.62313843" lon="34.82120895"><ele>606.3</ele><time>2013-11-22T14:06:24.0000000+00:00</time></trkpt><trkpt lat="30.62308502" lon="34.8211174"><ele>606.1</ele><time>2013-11-22T14:06:29.0000000+00:00</time></trkpt><trkpt lat="30.62303352" lon="34.82105255"><ele>608.1</ele><time>2013-11-22T14:06:34.0000000+00:00</time></trkpt><trkpt lat="30.62299156" lon="34.82099915"><ele>611.1</ele><time>2013-11-22T14:06:39.0000000+00:00</time></trkpt><trkpt lat="30.62293243" lon="34.82091522"><ele>613.3</ele><time>2013-11-22T14:06:44.0000000+00:00</time></trkpt><trkpt lat="30.62287903" lon="34.82081604"><ele>614.4</ele><time>2013-11-22T14:06:49.0000000+00:00</time></trkpt><trkpt lat="30.62282181" lon="34.82070541"><ele>613.9</ele><time>2013-11-22T14:06:54.0000000+00:00</time></trkpt><trkpt lat="30.62276268" lon="34.82061768"><ele>613.6</ele><time>2013-11-22T14:06:59.0000000+00:00</time></trkpt><trkpt lat="30.62268639" lon="34.82051849"><ele>616.7</ele><time>2013-11-22T14:07:04.0000000+00:00</time></trkpt><trkpt lat="30.62262154" lon="34.82041168"><ele>616.9</ele><time>2013-11-22T14:07:09.0000000+00:00</time></trkpt><trkpt lat="30.62256432" lon="34.82034683"><ele>617.1</ele><time>2013-11-22T14:07:14.0000000+00:00</time></trkpt><trkpt lat="30.62252426" lon="34.82027817"><ele>616.7</ele><time>2013-11-22T14:07:19.0000000+00:00</time></trkpt><trkpt lat="30.6224575" lon="34.82019424"><ele>616.4</ele><time>2013-11-22T14:07:24.0000000+00:00</time></trkpt><trkpt lat="30.6223793" lon="34.82009506"><ele>617.7</ele><time>2013-11-22T14:07:29.0000000+00:00</time></trkpt><trkpt lat="30.62229347" lon="34.82000351"><ele>617.4</ele><time>2013-11-22T14:07:34.0000000+00:00</time></trkpt><trkpt lat="30.62225342" lon="34.81993866"><ele>616.4</ele><time>2013-11-22T14:07:39.0000000+00:00</time></trkpt><trkpt lat="30.62218666" lon="34.81987381"><ele>616.3</ele><time>2013-11-22T14:07:44.0000000+00:00</time></trkpt><trkpt lat="30.62208557" lon="34.81978989"><ele>617.3</ele><time>2013-11-22T14:07:49.0000000+00:00</time></trkpt><trkpt lat="30.62198257" lon="34.81969833"><ele>619.8</ele><time>2013-11-22T14:07:54.0000000+00:00</time></trkpt><trkpt lat="30.62190437" lon="34.81963348"><ele>620.9</ele><time>2013-11-22T14:07:59.0000000+00:00</time></trkpt><trkpt lat="30.62180901" lon="34.81958008"><ele>621.7</ele><time>2013-11-22T14:08:04.0000000+00:00</time></trkpt><trkpt lat="30.62171936" lon="34.81952667"><ele>619.3</ele><time>2013-11-22T14:08:09.0000000+00:00</time></trkpt><trkpt lat="30.62160873" lon="34.81946564"><ele>618.0</ele><time>2013-11-22T14:08:14.0000000+00:00</time></trkpt><trkpt lat="30.62151146" lon="34.81941223"><ele>617.7</ele><time>2013-11-22T14:08:19.0000000+00:00</time></trkpt><trkpt lat="30.62141419" lon="34.81937027"><ele>617.5</ele><time>2013-11-22T14:08:24.0000000+00:00</time></trkpt><trkpt lat="30.62132835" lon="34.81933212"><ele>617.4</ele><time>2013-11-22T14:08:29.0000000+00:00</time></trkpt><trkpt lat="30.62125397" lon="34.81929398"><ele>616.3</ele><time>2013-11-22T14:08:34.0000000+00:00</time></trkpt><trkpt lat="30.62117767" lon="34.81927109"><ele>614.7</ele><time>2013-11-22T14:08:39.0000000+00:00</time></trkpt><trkpt lat="30.62109375" lon="34.81924057"><ele>615.0</ele><time>2013-11-22T14:08:44.0000000+00:00</time></trkpt><trkpt lat="30.62100983" lon="34.81920624"><ele>615.8</ele><time>2013-11-22T14:08:49.0000000+00:00</time></trkpt><trkpt lat="30.6209259" lon="34.81918335"><ele>615.8</ele><time>2013-11-22T14:08:54.0000000+00:00</time></trkpt><trkpt lat="30.62082672" lon="34.81915283"><ele>616.6</ele><time>2013-11-22T14:08:59.0000000+00:00</time></trkpt><trkpt lat="30.62072945" lon="34.8191185"><ele>616.1</ele><time>2013-11-22T14:09:04.0000000+00:00</time></trkpt><trkpt lat="30.6206398" lon="34.81908798"><ele>615.4</ele><time>2013-11-22T14:09:09.0000000+00:00</time></trkpt><trkpt lat="30.62055016" lon="34.81905747"><ele>616.6</ele><time>2013-11-22T14:09:14.0000000+00:00</time></trkpt><trkpt lat="30.62046623" lon="34.81900787"><ele>618.3</ele><time>2013-11-22T14:09:19.0000000+00:00</time></trkpt><trkpt lat="30.62040329" lon="34.81893921"><ele>621.5</ele><time>2013-11-22T14:09:24.0000000+00:00</time></trkpt><trkpt lat="30.62035942" lon="34.81885529"><ele>625.5</ele><time>2013-11-22T14:09:29.0000000+00:00</time></trkpt><trkpt lat="30.62034607" lon="34.81873703"><ele>626.9</ele><time>2013-11-22T14:09:34.0000000+00:00</time></trkpt><trkpt lat="30.62034988" lon="34.81861877"><ele>629.6</ele><time>2013-11-22T14:09:39.0000000+00:00</time></trkpt><trkpt lat="30.62037468" lon="34.81852722"><ele>631.2</ele><time>2013-11-22T14:09:44.0000000+00:00</time></trkpt><trkpt lat="30.62043381" lon="34.81845474"><ele>631.0</ele><time>2013-11-22T14:09:49.0000000+00:00</time></trkpt><trkpt lat="30.62049866" lon="34.81838226"><ele>630.8</ele><time>2013-11-22T14:09:54.0000000+00:00</time></trkpt><trkpt lat="30.62056923" lon="34.81835175"><ele>631.6</ele><time>2013-11-22T14:09:59.0000000+00:00</time></trkpt><trkpt lat="30.62063408" lon="34.81833649"><ele>633.0</ele><time>2013-11-22T14:10:04.0000000+00:00</time></trkpt><trkpt lat="30.6206646" lon="34.81834793"><ele>633.3</ele><time>2013-11-22T14:10:09.0000000+00:00</time></trkpt><trkpt lat="30.62073135" lon="34.818367"><ele>633.4</ele><time>2013-11-22T14:10:14.0000000+00:00</time></trkpt><trkpt lat="30.62080956" lon="34.81838608"><ele>634.2</ele><time>2013-11-22T14:10:19.0000000+00:00</time></trkpt><trkpt lat="30.62088776" lon="34.81840897"><ele>636.3</ele><time>2013-11-22T14:10:24.0000000+00:00</time></trkpt><trkpt lat="30.62097168" lon="34.81843185"><ele>638.1</ele><time>2013-11-22T14:10:29.0000000+00:00</time></trkpt><trkpt lat="30.62104225" lon="34.81843948"><ele>637.8</ele><time>2013-11-22T14:10:34.0000000+00:00</time></trkpt><trkpt lat="30.62108421" lon="34.81845856"><ele>636.4</ele><time>2013-11-22T14:10:39.0000000+00:00</time></trkpt><trkpt lat="30.62108421" lon="34.81845856"><ele>636.2</ele><time>2013-11-22T14:10:44.0000000+00:00</time></trkpt><trkpt lat="30.62108421" lon="34.81845856"><ele>636.2</ele><time>2013-11-22T14:10:49.0000000+00:00</time></trkpt><trkpt lat="30.62108421" lon="34.81845856"><ele>636.1</ele><time>2013-11-22T14:10:54.0000000+00:00</time></trkpt><trkpt lat="30.62108421" lon="34.81845856"><ele>636.1</ele><time>2013-11-22T14:10:59.0000000+00:00</time></trkpt><trkpt lat="30.62108421" lon="34.81845856"><ele>636.1</ele><time>2013-11-22T14:11:04.0000000+00:00</time></trkpt><trkpt lat="30.62108421" lon="34.81845856"><ele>636.1</ele><time>2013-11-22T14:11:09.0000000+00:00</time></trkpt><trkpt lat="30.62108421" lon="34.81845856"><ele>636.1</ele><time>2013-11-22T14:11:14.0000000+00:00</time></trkpt><trkpt lat="30.62108421" lon="34.81845856"><ele>636.1</ele><time>2013-11-22T14:11:19.0000000+00:00</time></trkpt><trkpt lat="30.62115479" lon="34.81847"><ele>636.6</ele><time>2013-11-22T14:11:24.0000000+00:00</time></trkpt><trkpt lat="30.6212368" lon="34.81849289"><ele>637.0</ele><time>2013-11-22T14:11:29.0000000+00:00</time></trkpt><trkpt lat="30.621315" lon="34.81851196"><ele>638.1</ele><time>2013-11-22T14:11:34.0000000+00:00</time></trkpt><trkpt lat="30.6213913" lon="34.81853867"><ele>637.8</ele><time>2013-11-22T14:11:39.0000000+00:00</time></trkpt><trkpt lat="30.62146378" lon="34.81856537"><ele>637.8</ele><time>2013-11-22T14:11:44.0000000+00:00</time></trkpt><trkpt lat="30.6215229" lon="34.81858063"><ele>637.9</ele><time>2013-11-22T14:11:49.0000000+00:00</time></trkpt><trkpt lat="30.62160492" lon="34.81861115"><ele>637.8</ele><time>2013-11-22T14:11:54.0000000+00:00</time></trkpt><trkpt lat="30.62168121" lon="34.81863785"><ele>638.6</ele><time>2013-11-22T14:11:59.0000000+00:00</time></trkpt><trkpt lat="30.62171173" lon="34.81864548"><ele>639.3</ele><time>2013-11-22T14:12:04.0000000+00:00</time></trkpt><trkpt lat="30.62171364" lon="34.81864548"><ele>639.1</ele><time>2013-11-22T14:12:09.0000000+00:00</time></trkpt><trkpt lat="30.62171364" lon="34.81864548"><ele>639.1</ele><time>2013-11-22T14:12:14.0000000+00:00</time></trkpt><trkpt lat="30.62174988" lon="34.81864929"><ele>639.7</ele><time>2013-11-22T14:12:19.0000000+00:00</time></trkpt><trkpt lat="30.62183571" lon="34.81866455"><ele>640.8</ele><time>2013-11-22T14:12:24.0000000+00:00</time></trkpt><trkpt lat="30.62193489" lon="34.81868362"><ele>641.5</ele><time>2013-11-22T14:12:29.0000000+00:00</time></trkpt><trkpt lat="30.62202072" lon="34.81871033"><ele>641.7</ele><time>2013-11-22T14:12:34.0000000+00:00</time></trkpt><trkpt lat="30.62209702" lon="34.8187294"><ele>642.3</ele><time>2013-11-22T14:12:39.0000000+00:00</time></trkpt><trkpt lat="30.62217903" lon="34.81876373"><ele>642.9</ele><time>2013-11-22T14:12:44.0000000+00:00</time></trkpt><trkpt lat="30.62226868" lon="34.81878662"><ele>643.8</ele><time>2013-11-22T14:12:49.0000000+00:00</time></trkpt><trkpt lat="30.62234688" lon="34.81882095"><ele>643.7</ele><time>2013-11-22T14:12:54.0000000+00:00</time></trkpt><trkpt lat="30.62243843" lon="34.81885529"><ele>644.7</ele><time>2013-11-22T14:12:59.0000000+00:00</time></trkpt><trkpt lat="30.62252617" lon="34.81887436"><ele>645.5</ele><time>2013-11-22T14:13:04.0000000+00:00</time></trkpt><trkpt lat="30.62259102" lon="34.81889343"><ele>645.4</ele><time>2013-11-22T14:13:09.0000000+00:00</time></trkpt><trkpt lat="30.6226635" lon="34.81892395"><ele>645.6</ele><time>2013-11-22T14:13:14.0000000+00:00</time></trkpt><trkpt lat="30.6227665" lon="34.81893921"><ele>647.3</ele><time>2013-11-22T14:13:19.0000000+00:00</time></trkpt><trkpt lat="30.62286568" lon="34.81895447"><ele>647.0</ele><time>2013-11-22T14:13:24.0000000+00:00</time></trkpt><trkpt lat="30.62296295" lon="34.81894302"><ele>649.0</ele><time>2013-11-22T14:13:29.0000000+00:00</time></trkpt><trkpt lat="30.62305069" lon="34.81889343"><ele>650.7</ele><time>2013-11-22T14:13:34.0000000+00:00</time></trkpt><trkpt lat="30.62312126" lon="34.81880188"><ele>651.7</ele><time>2013-11-22T14:13:39.0000000+00:00</time></trkpt><trkpt lat="30.623106" lon="34.81872177"><ele>651.9</ele><time>2013-11-22T14:13:44.0000000+00:00</time></trkpt><trkpt lat="30.6230011" lon="34.8185463"><ele>651.9</ele><time>2013-11-22T14:13:49.0000000+00:00</time></trkpt><trkpt lat="30.62291718" lon="34.81843567"><ele>652.0</ele><time>2013-11-22T14:13:54.0000000+00:00</time></trkpt><trkpt lat="30.62283325" lon="34.81839752"><ele>653.8</ele><time>2013-11-22T14:13:59.0000000+00:00</time></trkpt><trkpt lat="30.62272835" lon="34.81835556"><ele>653.5</ele><time>2013-11-22T14:14:04.0000000+00:00</time></trkpt><trkpt lat="30.62263107" lon="34.81831741"><ele>654.7</ele><time>2013-11-22T14:14:09.0000000+00:00</time></trkpt><trkpt lat="30.62255669" lon="34.81829453"><ele>655.7</ele><time>2013-11-22T14:14:14.0000000+00:00</time></trkpt><trkpt lat="30.62247849" lon="34.81825638"><ele>656.5</ele><time>2013-11-22T14:14:19.0000000+00:00</time></trkpt><trkpt lat="30.62239838" lon="34.81821823"><ele>657.2</ele><time>2013-11-22T14:14:24.0000000+00:00</time></trkpt><trkpt lat="30.62229729" lon="34.81818008"><ele>657.4</ele><time>2013-11-22T14:14:29.0000000+00:00</time></trkpt><trkpt lat="30.62224388" lon="34.81815338"><ele>658.1</ele><time>2013-11-22T14:14:34.0000000+00:00</time></trkpt><trkpt lat="30.62217331" lon="34.81811905"><ele>659.1</ele><time>2013-11-22T14:14:39.0000000+00:00</time></trkpt><trkpt lat="30.62214088" lon="34.81810761"><ele>657.8</ele><time>2013-11-22T14:14:44.0000000+00:00</time></trkpt><trkpt lat="30.6220417" lon="34.81806564"><ele>657.2</ele><time>2013-11-22T14:14:49.0000000+00:00</time></trkpt><trkpt lat="30.62195015" lon="34.81802368"><ele>657.7</ele><time>2013-11-22T14:14:54.0000000+00:00</time></trkpt><trkpt lat="30.6218605" lon="34.81797791"><ele>658.4</ele><time>2013-11-22T14:14:59.0000000+00:00</time></trkpt><trkpt lat="30.62176132" lon="34.81793213"><ele>658.5</ele><time>2013-11-22T14:15:04.0000000+00:00</time></trkpt><trkpt lat="30.62167358" lon="34.81788635"><ele>659.6</ele><time>2013-11-22T14:15:09.0000000+00:00</time></trkpt><trkpt lat="30.62157631" lon="34.81784439"><ele>660.2</ele><time>2013-11-22T14:15:14.0000000+00:00</time></trkpt><trkpt lat="30.62153626" lon="34.81782532"><ele>661.3</ele><time>2013-11-22T14:15:19.0000000+00:00</time></trkpt><trkpt lat="30.62143517" lon="34.81778717"><ele>661.5</ele><time>2013-11-22T14:15:24.0000000+00:00</time></trkpt><trkpt lat="30.62135887" lon="34.81774902"><ele>663.7</ele><time>2013-11-22T14:15:29.0000000+00:00</time></trkpt><trkpt lat="30.62128449" lon="34.81770325"><ele>664.5</ele><time>2013-11-22T14:15:34.0000000+00:00</time></trkpt><trkpt lat="30.62124825" lon="34.81763077"><ele>666.4</ele><time>2013-11-22T14:15:39.0000000+00:00</time></trkpt><trkpt lat="30.62124634" lon="34.81753159"><ele>667.5</ele><time>2013-11-22T14:15:44.0000000+00:00</time></trkpt><trkpt lat="30.62129021" lon="34.81744385"><ele>670.9</ele><time>2013-11-22T14:15:49.0000000+00:00</time></trkpt><trkpt lat="30.62135506" lon="34.81743622"><ele>671.3</ele><time>2013-11-22T14:15:54.0000000+00:00</time></trkpt><trkpt lat="30.62144089" lon="34.81747818"><ele>671.6</ele><time>2013-11-22T14:15:59.0000000+00:00</time></trkpt><trkpt lat="30.62149239" lon="34.81750107"><ele>672.3</ele><time>2013-11-22T14:16:04.0000000+00:00</time></trkpt><trkpt lat="30.62149048" lon="34.81749725"><ele>672.5</ele><time>2013-11-22T14:16:09.0000000+00:00</time></trkpt><trkpt lat="30.62149048" lon="34.81749725"><ele>672.5</ele><time>2013-11-22T14:16:14.0000000+00:00</time></trkpt><trkpt lat="30.62149048" lon="34.81749725"><ele>672.5</ele><time>2013-11-22T14:16:19.0000000+00:00</time></trkpt><trkpt lat="30.62149048" lon="34.81749725"><ele>672.5</ele><time>2013-11-22T14:16:24.0000000+00:00</time></trkpt><trkpt lat="30.62149048" lon="34.81749725"><ele>672.5</ele><time>2013-11-22T14:16:29.0000000+00:00</time></trkpt><trkpt lat="30.62149048" lon="34.81749725"><ele>672.5</ele><time>2013-11-22T14:16:34.0000000+00:00</time></trkpt><trkpt lat="30.62149048" lon="34.81749725"><ele>672.5</ele><time>2013-11-22T14:16:39.0000000+00:00</time></trkpt><trkpt lat="30.62149048" lon="34.81749725"><ele>672.5</ele><time>2013-11-22T14:16:44.0000000+00:00</time></trkpt><trkpt lat="30.62148857" lon="34.81749725"><ele>672.5</ele><time>2013-11-22T14:16:49.0000000+00:00</time></trkpt><trkpt lat="30.62148857" lon="34.81749725"><ele>672.5</ele><time>2013-11-22T14:16:54.0000000+00:00</time></trkpt><trkpt lat="30.62152863" lon="34.81750488"><ele>672.6</ele><time>2013-11-22T14:16:59.0000000+00:00</time></trkpt><trkpt lat="30.62161827" lon="34.81753159"><ele>673.1</ele><time>2013-11-22T14:17:04.0000000+00:00</time></trkpt><trkpt lat="30.6217041" lon="34.8175621"><ele>673.1</ele><time>2013-11-22T14:17:09.0000000+00:00</time></trkpt><trkpt lat="30.62176514" lon="34.81758118"><ele>672.4</ele><time>2013-11-22T14:17:14.0000000+00:00</time></trkpt><trkpt lat="30.62184143" lon="34.81760407"><ele>672.1</ele><time>2013-11-22T14:17:19.0000000+00:00</time></trkpt><trkpt lat="30.62191963" lon="34.81762695"><ele>672.1</ele><time>2013-11-22T14:17:24.0000000+00:00</time></trkpt><trkpt lat="30.62200928" lon="34.81764984"><ele>673.5</ele><time>2013-11-22T14:17:29.0000000+00:00</time></trkpt><trkpt lat="30.62207031" lon="34.81765366"><ele>675.4</ele><time>2013-11-22T14:17:34.0000000+00:00</time></trkpt><trkpt lat="30.62214279" lon="34.81767273"><ele>676.9</ele><time>2013-11-22T14:17:39.0000000+00:00</time></trkpt><trkpt lat="30.62222099" lon="34.81769943"><ele>677.4</ele><time>2013-11-22T14:17:44.0000000+00:00</time></trkpt><trkpt lat="30.62228584" lon="34.81770325"><ele>678.8</ele><time>2013-11-22T14:17:49.0000000+00:00</time></trkpt><trkpt lat="30.62236786" lon="34.81774139"><ele>678.2</ele><time>2013-11-22T14:17:54.0000000+00:00</time></trkpt><trkpt lat="30.62245178" lon="34.81777954"><ele>678.9</ele><time>2013-11-22T14:17:59.0000000+00:00</time></trkpt><trkpt lat="30.62253761" lon="34.81781006"><ele>679.6</ele><time>2013-11-22T14:18:04.0000000+00:00</time></trkpt><trkpt lat="30.62259674" lon="34.81783676"><ele>679.6</ele><time>2013-11-22T14:18:09.0000000+00:00</time></trkpt><trkpt lat="30.62268639" lon="34.81787491"><ele>680.3</ele><time>2013-11-22T14:18:14.0000000+00:00</time></trkpt><trkpt lat="30.62277794" lon="34.81789398"><ele>681.6</ele><time>2013-11-22T14:18:19.0000000+00:00</time></trkpt><trkpt lat="30.62285614" lon="34.81791687"><ele>682.9</ele><time>2013-11-22T14:18:24.0000000+00:00</time></trkpt><trkpt lat="30.62292671" lon="34.81794357"><ele>683.9</ele><time>2013-11-22T14:18:29.0000000+00:00</time></trkpt><trkpt lat="30.62301445" lon="34.81797409"><ele>685.3</ele><time>2013-11-22T14:18:34.0000000+00:00</time></trkpt><trkpt lat="30.62307549" lon="34.81799316"><ele>685.4</ele><time>2013-11-22T14:18:39.0000000+00:00</time></trkpt><trkpt lat="30.62314987" lon="34.81801987"><ele>686.3</ele><time>2013-11-22T14:18:44.0000000+00:00</time></trkpt><trkpt lat="30.6232338" lon="34.81804657"><ele>687.7</ele><time>2013-11-22T14:18:49.0000000+00:00</time></trkpt><trkpt lat="30.62332726" lon="34.8180809"><ele>688.9</ele><time>2013-11-22T14:18:54.0000000+00:00</time></trkpt><trkpt lat="30.62338448" lon="34.81807709"><ele>689.0</ele><time>2013-11-22T14:18:59.0000000+00:00</time></trkpt><trkpt lat="30.62343025" lon="34.81803894"><ele>689.7</ele><time>2013-11-22T14:19:04.0000000+00:00</time></trkpt><trkpt lat="30.62348557" lon="34.81796265"><ele>691.0</ele><time>2013-11-22T14:19:09.0000000+00:00</time></trkpt><trkpt lat="30.62352181" lon="34.8178978"><ele>692.4</ele><time>2013-11-22T14:19:14.0000000+00:00</time></trkpt><trkpt lat="30.62352943" lon="34.81781387"><ele>693.2</ele><time>2013-11-22T14:19:19.0000000+00:00</time></trkpt><trkpt lat="30.62349892" lon="34.81775665"><ele>693.1</ele><time>2013-11-22T14:19:24.0000000+00:00</time></trkpt><trkpt lat="30.62344933" lon="34.81769562"><ele>693.5</ele><time>2013-11-22T14:19:29.0000000+00:00</time></trkpt><trkpt lat="30.62339973" lon="34.8176651"><ele>693.5</ele><time>2013-11-22T14:19:34.0000000+00:00</time></trkpt><trkpt lat="30.62333489" lon="34.81764603"><ele>693.5</ele><time>2013-11-22T14:19:39.0000000+00:00</time></trkpt><trkpt lat="30.62325668" lon="34.81761551"><ele>693.7</ele><time>2013-11-22T14:19:44.0000000+00:00</time></trkpt><trkpt lat="30.62321091" lon="34.81760025"><ele>694.8</ele><time>2013-11-22T14:19:49.0000000+00:00</time></trkpt><trkpt lat="30.62321281" lon="34.81760025"><ele>695.3</ele><time>2013-11-22T14:19:54.0000000+00:00</time></trkpt><trkpt lat="30.62321663" lon="34.81760025"><ele>695.7</ele><time>2013-11-22T14:19:59.0000000+00:00</time></trkpt><trkpt lat="30.62316322" lon="34.81758499"><ele>696.2</ele><time>2013-11-22T14:20:04.0000000+00:00</time></trkpt><trkpt lat="30.62305069" lon="34.81753159"><ele>694.7</ele><time>2013-11-22T14:20:09.0000000+00:00</time></trkpt><trkpt lat="30.62297249" lon="34.81749344"><ele>694.4</ele><time>2013-11-22T14:20:14.0000000+00:00</time></trkpt><trkpt lat="30.62290382" lon="34.81745529"><ele>693.6</ele><time>2013-11-22T14:20:19.0000000+00:00</time></trkpt><trkpt lat="30.6228466" lon="34.81742477"><ele>693.1</ele><time>2013-11-22T14:20:24.0000000+00:00</time></trkpt><trkpt lat="30.62275696" lon="34.81738663"><ele>693.1</ele><time>2013-11-22T14:20:29.0000000+00:00</time></trkpt><trkpt lat="30.62270546" lon="34.81736374"><ele>693.5</ele><time>2013-11-22T14:20:34.0000000+00:00</time></trkpt><trkpt lat="30.62259865" lon="34.81731033"><ele>693.0</ele><time>2013-11-22T14:20:39.0000000+00:00</time></trkpt><trkpt lat="30.62255669" lon="34.81729507"><ele>693.8</ele><time>2013-11-22T14:20:44.0000000+00:00</time></trkpt><trkpt lat="30.6224556" lon="34.81724548"><ele>694.4</ele><time>2013-11-22T14:20:49.0000000+00:00</time></trkpt><trkpt lat="30.62234306" lon="34.81720352"><ele>695.5</ele><time>2013-11-22T14:20:54.0000000+00:00</time></trkpt><trkpt lat="30.6222496" lon="34.81715393"><ele>696.2</ele><time>2013-11-22T14:20:59.0000000+00:00</time></trkpt><trkpt lat="30.62216568" lon="34.81711578"><ele>696.8</ele><time>2013-11-22T14:21:04.0000000+00:00</time></trkpt><trkpt lat="30.62209892" lon="34.81707001"><ele>697.3</ele><time>2013-11-22T14:21:09.0000000+00:00</time></trkpt><trkpt lat="30.62203026" lon="34.8170166"><ele>698.3</ele><time>2013-11-22T14:21:14.0000000+00:00</time></trkpt><trkpt lat="30.6219902" lon="34.81697846"><ele>699.5</ele><time>2013-11-22T14:21:19.0000000+00:00</time></trkpt><trkpt lat="30.62190819" lon="34.81690598"><ele>700.6</ele><time>2013-11-22T14:21:24.0000000+00:00</time></trkpt><trkpt lat="30.62183189" lon="34.81683731"><ele>703.1</ele><time>2013-11-22T14:21:29.0000000+00:00</time></trkpt><trkpt lat="30.6218071" lon="34.81678772"><ele>703.4</ele><time>2013-11-22T14:21:34.0000000+00:00</time></trkpt><trkpt lat="30.6217556" lon="34.81670761"><ele>705.4</ele><time>2013-11-22T14:21:39.0000000+00:00</time></trkpt><trkpt lat="30.6217041" lon="34.81660461"><ele>706.4</ele><time>2013-11-22T14:21:44.0000000+00:00</time></trkpt><trkpt lat="30.62164688" lon="34.81649017"><ele>707.8</ele><time>2013-11-22T14:21:49.0000000+00:00</time></trkpt><trkpt lat="30.62160683" lon="34.81641769"><ele>707.9</ele><time>2013-11-22T14:21:54.0000000+00:00</time></trkpt><trkpt lat="30.62152863" lon="34.81630325"><ele>708.6</ele><time>2013-11-22T14:21:59.0000000+00:00</time></trkpt><trkpt lat="30.62145805" lon="34.81620026"><ele>709.7</ele><time>2013-11-22T14:22:04.0000000+00:00</time></trkpt><trkpt lat="30.62140656" lon="34.81614304"><ele>711.6</ele><time>2013-11-22T14:22:09.0000000+00:00</time></trkpt><trkpt lat="30.62133026" lon="34.816082"><ele>711.3</ele><time>2013-11-22T14:22:14.0000000+00:00</time></trkpt><trkpt lat="30.62125588" lon="34.81601715"><ele>711.2</ele><time>2013-11-22T14:22:19.0000000+00:00</time></trkpt><trkpt lat="30.62116623" lon="34.81594086"><ele>711.3</ele><time>2013-11-22T14:22:24.0000000+00:00</time></trkpt><trkpt lat="30.62110329" lon="34.81586456"><ele>710.8</ele><time>2013-11-22T14:22:29.0000000+00:00</time></trkpt><trkpt lat="30.62101173" lon="34.81578064"><ele>710.4</ele><time>2013-11-22T14:22:34.0000000+00:00</time></trkpt><trkpt lat="30.62094498" lon="34.81572723"><ele>710.2</ele><time>2013-11-22T14:22:39.0000000+00:00</time></trkpt><trkpt lat="30.62084198" lon="34.81565857"><ele>710.4</ele><time>2013-11-22T14:22:44.0000000+00:00</time></trkpt><trkpt lat="30.62074089" lon="34.81558228"><ele>710.7</ele><time>2013-11-22T14:22:49.0000000+00:00</time></trkpt><trkpt lat="30.62065125" lon="34.81549072"><ele>710.4</ele><time>2013-11-22T14:22:54.0000000+00:00</time></trkpt><trkpt lat="30.62056732" lon="34.81542969"><ele>711.8</ele><time>2013-11-22T14:22:59.0000000+00:00</time></trkpt><trkpt lat="30.62047195" lon="34.81537247"><ele>713.5</ele><time>2013-11-22T14:23:04.0000000+00:00</time></trkpt><trkpt lat="30.62035942" lon="34.81530762"><ele>713.5</ele><time>2013-11-22T14:23:09.0000000+00:00</time></trkpt><trkpt lat="30.62024307" lon="34.81525421"><ele>713.7</ele><time>2013-11-22T14:23:14.0000000+00:00</time></trkpt><trkpt lat="30.62009049" lon="34.81521225"><ele>713.6</ele><time>2013-11-22T14:23:19.0000000+00:00</time></trkpt><trkpt lat="30.61998558" lon="34.81516266"><ele>714.2</ele><time>2013-11-22T14:23:24.0000000+00:00</time></trkpt><trkpt lat="30.61987114" lon="34.81510544"><ele>715.0</ele><time>2013-11-22T14:23:29.0000000+00:00</time></trkpt><trkpt lat="30.61977768" lon="34.81502533"><ele>715.6</ele><time>2013-11-22T14:23:34.0000000+00:00</time></trkpt><trkpt lat="30.61970711" lon="34.81495285"><ele>716.9</ele><time>2013-11-22T14:23:39.0000000+00:00</time></trkpt><trkpt lat="30.61965942" lon="34.81488037"><ele>718.2</ele><time>2013-11-22T14:23:44.0000000+00:00</time></trkpt><trkpt lat="30.61957359" lon="34.81475067"><ele>719.0</ele><time>2013-11-22T14:23:49.0000000+00:00</time></trkpt><trkpt lat="30.61949921" lon="34.81459808"><ele>719.9</ele><time>2013-11-22T14:23:54.0000000+00:00</time></trkpt><trkpt lat="30.61943436" lon="34.81443024"><ele>721.2</ele><time>2013-11-22T14:23:59.0000000+00:00</time></trkpt><trkpt lat="30.61940002" lon="34.81428146"><ele>722.9</ele><time>2013-11-22T14:24:04.0000000+00:00</time></trkpt><trkpt lat="30.61934662" lon="34.81412125"><ele>723.9</ele><time>2013-11-22T14:24:09.0000000+00:00</time></trkpt><trkpt lat="30.61929321" lon="34.81402588"><ele>724.6</ele><time>2013-11-22T14:24:14.0000000+00:00</time></trkpt><trkpt lat="30.61925316" lon="34.81394196"><ele>725.4</ele><time>2013-11-22T14:24:19.0000000+00:00</time></trkpt><trkpt lat="30.61921692" lon="34.81387711"><ele>726.4</ele><time>2013-11-22T14:24:24.0000000+00:00</time></trkpt><trkpt lat="30.61917687" lon="34.81378555"><ele>727.1</ele><time>2013-11-22T14:24:29.0000000+00:00</time></trkpt><trkpt lat="30.61913681" lon="34.81371307"><ele>727.9</ele><time>2013-11-22T14:24:34.0000000+00:00</time></trkpt><trkpt lat="30.61908913" lon="34.81363297"><ele>729.0</ele><time>2013-11-22T14:24:39.0000000+00:00</time></trkpt><trkpt lat="30.61905098" lon="34.81354141"><ele>730.4</ele><time>2013-11-22T14:24:44.0000000+00:00</time></trkpt><trkpt lat="30.61900139" lon="34.81345749"><ele>731.9</ele><time>2013-11-22T14:24:49.0000000+00:00</time></trkpt><trkpt lat="30.61895561" lon="34.81335831"><ele>733.3</ele><time>2013-11-22T14:24:54.0000000+00:00</time></trkpt><trkpt lat="30.61890602" lon="34.81324768"><ele>735.1</ele><time>2013-11-22T14:24:59.0000000+00:00</time></trkpt><trkpt lat="30.61888313" lon="34.81319046"><ele>736.3</ele><time>2013-11-22T14:25:04.0000000+00:00</time></trkpt><trkpt lat="30.61883926" lon="34.81311035"><ele>738.0</ele><time>2013-11-22T14:25:09.0000000+00:00</time></trkpt><trkpt lat="30.61882782" lon="34.8130455"><ele>738.8</ele><time>2013-11-22T14:25:14.0000000+00:00</time></trkpt><trkpt lat="30.61879349" lon="34.81299591"><ele>739.7</ele><time>2013-11-22T14:25:19.0000000+00:00</time></trkpt><trkpt lat="30.61876869" lon="34.81292725"><ele>740.8</ele><time>2013-11-22T14:25:24.0000000+00:00</time></trkpt><trkpt lat="30.61873627" lon="34.81285858"><ele>742.1</ele><time>2013-11-22T14:25:29.0000000+00:00</time></trkpt><trkpt lat="30.61868668" lon="34.81281662"><ele>742.8</ele><time>2013-11-22T14:25:34.0000000+00:00</time></trkpt><trkpt lat="30.61865425" lon="34.81272888"><ele>743.9</ele><time>2013-11-22T14:25:39.0000000+00:00</time></trkpt><trkpt lat="30.61861992" lon="34.81264496"><ele>745.8</ele><time>2013-11-22T14:25:44.0000000+00:00</time></trkpt><trkpt lat="30.61858749" lon="34.81254578"><ele>747.2</ele><time>2013-11-22T14:25:49.0000000+00:00</time></trkpt><trkpt lat="30.61855316" lon="34.81246948"><ele>748.4</ele><time>2013-11-22T14:25:54.0000000+00:00</time></trkpt><trkpt lat="30.61852837" lon="34.81237793"><ele>749.3</ele><time>2013-11-22T14:25:59.0000000+00:00</time></trkpt><trkpt lat="30.61849213" lon="34.81229401"><ele>750.4</ele><time>2013-11-22T14:26:04.0000000+00:00</time></trkpt><trkpt lat="30.6184597" lon="34.81219482"><ele>751.2</ele><time>2013-11-22T14:26:09.0000000+00:00</time></trkpt><trkpt lat="30.61841393" lon="34.8121109"><ele>751.9</ele><time>2013-11-22T14:26:14.0000000+00:00</time></trkpt><trkpt lat="30.6183815" lon="34.81205368"><ele>752.4</ele><time>2013-11-22T14:26:19.0000000+00:00</time></trkpt><trkpt lat="30.61834526" lon="34.81196976"><ele>752.3</ele><time>2013-11-22T14:26:24.0000000+00:00</time></trkpt><trkpt lat="30.61830139" lon="34.8118782"><ele>752.6</ele><time>2013-11-22T14:26:29.0000000+00:00</time></trkpt><trkpt lat="30.61827469" lon="34.81180954"><ele>752.2</ele><time>2013-11-22T14:26:34.0000000+00:00</time></trkpt><trkpt lat="30.6182518" lon="34.81173706"><ele>751.3</ele><time>2013-11-22T14:26:39.0000000+00:00</time></trkpt><trkpt lat="30.61821747" lon="34.81164551"><ele>750.8</ele><time>2013-11-22T14:26:44.0000000+00:00</time></trkpt><trkpt lat="30.61819267" lon="34.81158447"><ele>749.6</ele><time>2013-11-22T14:26:49.0000000+00:00</time></trkpt><trkpt lat="30.61816788" lon="34.81151199"><ele>748.7</ele><time>2013-11-22T14:26:54.0000000+00:00</time></trkpt><trkpt lat="30.61813927" lon="34.81142044"><ele>746.5</ele><time>2013-11-22T14:26:59.0000000+00:00</time></trkpt><trkpt lat="30.61809349" lon="34.81134033"><ele>745.1</ele><time>2013-11-22T14:27:04.0000000+00:00</time></trkpt><trkpt lat="30.61806297" lon="34.81126404"><ele>744.0</ele><time>2013-11-22T14:27:09.0000000+00:00</time></trkpt><trkpt lat="30.6180191" lon="34.811203"><ele>742.1</ele><time>2013-11-22T14:27:14.0000000+00:00</time></trkpt><trkpt lat="30.61799622" lon="34.81111145"><ele>738.6</ele><time>2013-11-22T14:27:19.0000000+00:00</time></trkpt><trkpt lat="30.61796379" lon="34.81103134"><ele>735.2</ele><time>2013-11-22T14:27:24.0000000+00:00</time></trkpt><trkpt lat="30.6179409" lon="34.81095505"><ele>732.8</ele><time>2013-11-22T14:27:29.0000000+00:00</time></trkpt><trkpt lat="30.61789894" lon="34.81090164"><ele>731.1</ele><time>2013-11-22T14:27:34.0000000+00:00</time></trkpt><trkpt lat="30.61786079" lon="34.81082916"><ele>728.8</ele><time>2013-11-22T14:27:39.0000000+00:00</time></trkpt><trkpt lat="30.61783028" lon="34.81074524"><ele>726.6</ele><time>2013-11-22T14:27:44.0000000+00:00</time></trkpt><trkpt lat="30.61779404" lon="34.81069183"><ele>723.5</ele><time>2013-11-22T14:27:49.0000000+00:00</time></trkpt><trkpt lat="30.61773682" lon="34.81059647"><ele>720.4</ele><time>2013-11-22T14:27:54.0000000+00:00</time></trkpt><trkpt lat="30.61762619" lon="34.81053925"><ele>722.9</ele><time>2013-11-22T14:27:59.0000000+00:00</time></trkpt><trkpt lat="30.61758232" lon="34.81048966"><ele>722.7</ele><time>2013-11-22T14:28:04.0000000+00:00</time></trkpt><trkpt lat="30.61750984" lon="34.81041336"><ele>722.5</ele><time>2013-11-22T14:28:09.0000000+00:00</time></trkpt><trkpt lat="30.61746979" lon="34.8103714"><ele>723.1</ele><time>2013-11-22T14:28:14.0000000+00:00</time></trkpt><trkpt lat="30.61747742" lon="34.81036758"><ele>722.9</ele><time>2013-11-22T14:28:19.0000000+00:00</time></trkpt><trkpt lat="30.61747932" lon="34.81036377"><ele>722.7</ele><time>2013-11-22T14:28:24.0000000+00:00</time></trkpt><trkpt lat="30.61747932" lon="34.81036377"><ele>722.7</ele><time>2013-11-22T14:28:29.0000000+00:00</time></trkpt><trkpt lat="30.61747932" lon="34.81036377"><ele>722.7</ele><time>2013-11-22T14:28:34.0000000+00:00</time></trkpt><trkpt lat="30.61747932" lon="34.81036377"><ele>722.8</ele><time>2013-11-22T14:28:39.0000000+00:00</time></trkpt><trkpt lat="30.61746407" lon="34.81034088"><ele>723.1</ele><time>2013-11-22T14:28:44.0000000+00:00</time></trkpt><trkpt lat="30.61741638" lon="34.81027222"><ele>722.9</ele><time>2013-11-22T14:28:49.0000000+00:00</time></trkpt><trkpt lat="30.61736488" lon="34.81019974"><ele>723.8</ele><time>2013-11-22T14:28:54.0000000+00:00</time></trkpt><trkpt lat="30.61731339" lon="34.81012344"><ele>725.0</ele><time>2013-11-22T14:28:59.0000000+00:00</time></trkpt><trkpt lat="30.61724472" lon="34.81005859"><ele>726.1</ele><time>2013-11-22T14:29:04.0000000+00:00</time></trkpt><trkpt lat="30.61718369" lon="34.8099823"><ele>726.5</ele><time>2013-11-22T14:29:09.0000000+00:00</time></trkpt><trkpt lat="30.61712074" lon="34.80991745"><ele>729.1</ele><time>2013-11-22T14:29:14.0000000+00:00</time></trkpt><trkpt lat="30.61705589" lon="34.80986404"><ele>732.0</ele><time>2013-11-22T14:29:19.0000000+00:00</time></trkpt><trkpt lat="30.6170063" lon="34.80978775"><ele>735.0</ele><time>2013-11-22T14:29:24.0000000+00:00</time></trkpt><trkpt lat="30.61694336" lon="34.80973434"><ele>738.8</ele><time>2013-11-22T14:29:29.0000000+00:00</time></trkpt><trkpt lat="30.6168766" lon="34.8096695"><ele>742.0</ele><time>2013-11-22T14:29:34.0000000+00:00</time></trkpt><trkpt lat="30.61682701" lon="34.8096199"><ele>744.5</ele><time>2013-11-22T14:29:39.0000000+00:00</time></trkpt><trkpt lat="30.61677361" lon="34.80955505"><ele>747.0</ele><time>2013-11-22T14:29:44.0000000+00:00</time></trkpt><trkpt lat="30.61672211" lon="34.80950165"><ele>749.7</ele><time>2013-11-22T14:29:49.0000000+00:00</time></trkpt><trkpt lat="30.61667061" lon="34.80945206"><ele>751.6</ele><time>2013-11-22T14:29:54.0000000+00:00</time></trkpt><trkpt lat="30.61662865" lon="34.8094101"><ele>753.5</ele><time>2013-11-22T14:29:59.0000000+00:00</time></trkpt><trkpt lat="30.61659432" lon="34.80942535"><ele>757.6</ele><time>2013-11-22T14:30:04.0000000+00:00</time></trkpt><trkpt lat="30.61659432" lon="34.80942535"><ele>757.9</ele><time>2013-11-22T14:30:09.0000000+00:00</time></trkpt><trkpt lat="30.61658096" lon="34.80941773"><ele>758.4</ele><time>2013-11-22T14:30:14.0000000+00:00</time></trkpt><trkpt lat="30.61656189" lon="34.8094101"><ele>758.8</ele><time>2013-11-22T14:30:19.0000000+00:00</time></trkpt><trkpt lat="30.61655045" lon="34.80940628"><ele>758.3</ele><time>2013-11-22T14:30:24.0000000+00:00</time></trkpt><trkpt lat="30.61654854" lon="34.80940628"><ele>758.5</ele><time>2013-11-22T14:30:29.0000000+00:00</time></trkpt><trkpt lat="30.61654854" lon="34.80940628"><ele>758.6</ele><time>2013-11-22T14:30:34.0000000+00:00</time></trkpt><trkpt lat="30.61654854" lon="34.80940628"><ele>758.6</ele><time>2013-11-22T14:30:39.0000000+00:00</time></trkpt><trkpt lat="30.61654854" lon="34.80940628"><ele>758.6</ele><time>2013-11-22T14:30:44.0000000+00:00</time></trkpt><trkpt lat="30.61654854" lon="34.80940628"><ele>758.6</ele><time>2013-11-22T14:30:49.0000000+00:00</time></trkpt><trkpt lat="30.61654854" lon="34.80940628"><ele>758.6</ele><time>2013-11-22T14:30:54.0000000+00:00</time></trkpt><trkpt lat="30.61654663" lon="34.80940628"><ele>758.6</ele><time>2013-11-22T14:30:59.0000000+00:00</time></trkpt><trkpt lat="30.6164875" lon="34.8093605"><ele>760.5</ele><time>2013-11-22T14:31:04.0000000+00:00</time></trkpt><trkpt lat="30.61642075" lon="34.80929947"><ele>762.4</ele><time>2013-11-22T14:31:09.0000000+00:00</time></trkpt><trkpt lat="30.61635971" lon="34.80924988"><ele>764.2</ele><time>2013-11-22T14:31:14.0000000+00:00</time></trkpt><trkpt lat="30.61630631" lon="34.80921936"><ele>766.0</ele><time>2013-11-22T14:31:19.0000000+00:00</time></trkpt><trkpt lat="30.61623764" lon="34.80919647"><ele>767.0</ele><time>2013-11-22T14:31:24.0000000+00:00</time></trkpt><trkpt lat="30.61615562" lon="34.80917358"><ele>768.0</ele><time>2013-11-22T14:31:29.0000000+00:00</time></trkpt><trkpt lat="30.61605454" lon="34.80918121"><ele>769.6</ele><time>2013-11-22T14:31:34.0000000+00:00</time></trkpt><trkpt lat="30.61599541" lon="34.80918884"><ele>771.2</ele><time>2013-11-22T14:31:39.0000000+00:00</time></trkpt><trkpt lat="30.61593437" lon="34.80918121"><ele>773.9</ele><time>2013-11-22T14:31:44.0000000+00:00</time></trkpt><trkpt lat="30.61584282" lon="34.80919647"><ele>775.2</ele><time>2013-11-22T14:31:49.0000000+00:00</time></trkpt><trkpt lat="30.61577606" lon="34.80919266"><ele>776.9</ele><time>2013-11-22T14:31:54.0000000+00:00</time></trkpt><trkpt lat="30.61569595" lon="34.80920792"><ele>778.2</ele><time>2013-11-22T14:31:59.0000000+00:00</time></trkpt><trkpt lat="30.61560059" lon="34.80922699"><ele>780.1</ele><time>2013-11-22T14:32:04.0000000+00:00</time></trkpt><trkpt lat="30.6155262" lon="34.80923462"><ele>780.9</ele><time>2013-11-22T14:32:09.0000000+00:00</time></trkpt><trkpt lat="30.61542702" lon="34.80922699"><ele>780.0</ele><time>2013-11-22T14:32:14.0000000+00:00</time></trkpt><trkpt lat="30.61532021" lon="34.80921936"><ele>779.7</ele><time>2013-11-22T14:32:19.0000000+00:00</time></trkpt><trkpt lat="30.6152153" lon="34.8092041"><ele>779.5</ele><time>2013-11-22T14:32:24.0000000+00:00</time></trkpt><trkpt lat="30.61512566" lon="34.80919266"><ele>778.5</ele><time>2013-11-22T14:32:29.0000000+00:00</time></trkpt><trkpt lat="30.6150322" lon="34.80917358"><ele>778.6</ele><time>2013-11-22T14:32:34.0000000+00:00</time></trkpt><trkpt lat="30.6149292" lon="34.80914688"><ele>777.6</ele><time>2013-11-22T14:32:39.0000000+00:00</time></trkpt><trkpt lat="30.61484909" lon="34.80913925"><ele>780.0</ele><time>2013-11-22T14:32:44.0000000+00:00</time></trkpt><trkpt lat="30.61476708" lon="34.80912399"><ele>780.3</ele><time>2013-11-22T14:32:49.0000000+00:00</time></trkpt><trkpt lat="30.61467934" lon="34.80910873"><ele>780.8</ele><time>2013-11-22T14:32:54.0000000+00:00</time></trkpt><trkpt lat="30.61459541" lon="34.80908966"><ele>781.7</ele><time>2013-11-22T14:32:59.0000000+00:00</time></trkpt><trkpt lat="30.61450005" lon="34.80908203"><ele>783.2</ele><time>2013-11-22T14:33:04.0000000+00:00</time></trkpt><trkpt lat="30.6144104" lon="34.80907059"><ele>783.9</ele><time>2013-11-22T14:33:09.0000000+00:00</time></trkpt><trkpt lat="30.61432457" lon="34.80905914"><ele>783.7</ele><time>2013-11-22T14:33:14.0000000+00:00</time></trkpt><trkpt lat="30.6142292" lon="34.80903626"><ele>783.6</ele><time>2013-11-22T14:33:19.0000000+00:00</time></trkpt><trkpt lat="30.61417198" lon="34.80904007"><ele>783.8</ele><time>2013-11-22T14:33:24.0000000+00:00</time></trkpt><trkpt lat="30.61408997" lon="34.809021"><ele>784.3</ele><time>2013-11-22T14:33:29.0000000+00:00</time></trkpt><trkpt lat="30.61399651" lon="34.80900574"><ele>784.8</ele><time>2013-11-22T14:33:34.0000000+00:00</time></trkpt><trkpt lat="30.61391449" lon="34.80899048"><ele>785.4</ele><time>2013-11-22T14:33:39.0000000+00:00</time></trkpt><trkpt lat="30.61384392" lon="34.80897522"><ele>786.0</ele><time>2013-11-22T14:33:44.0000000+00:00</time></trkpt><trkpt lat="30.61377716" lon="34.80896378"><ele>786.6</ele><time>2013-11-22T14:33:49.0000000+00:00</time></trkpt><trkpt lat="30.61368561" lon="34.80895233"><ele>787.0</ele><time>2013-11-22T14:33:54.0000000+00:00</time></trkpt><trkpt lat="30.61366653" lon="34.8089447"><ele>786.4</ele><time>2013-11-22T14:33:59.0000000+00:00</time></trkpt><trkpt lat="30.61367226" lon="34.80893707"><ele>785.5</ele><time>2013-11-22T14:34:04.0000000+00:00</time></trkpt><trkpt lat="30.61361885" lon="34.808918"><ele>785.8</ele><time>2013-11-22T14:34:09.0000000+00:00</time></trkpt><trkpt lat="30.61352921" lon="34.80890656"><ele>787.5</ele><time>2013-11-22T14:34:14.0000000+00:00</time></trkpt><trkpt lat="30.613451" lon="34.80889511"><ele>787.8</ele><time>2013-11-22T14:34:19.0000000+00:00</time></trkpt><trkpt lat="30.61338234" lon="34.80888367"><ele>789.0</ele><time>2013-11-22T14:34:24.0000000+00:00</time></trkpt><trkpt lat="30.61328507" lon="34.80887985"><ele>790.0</ele><time>2013-11-22T14:34:29.0000000+00:00</time></trkpt><trkpt lat="30.61319161" lon="34.80886078"><ele>790.9</ele><time>2013-11-22T14:34:34.0000000+00:00</time></trkpt><trkpt lat="30.61308861" lon="34.80884552"><ele>792.4</ele><time>2013-11-22T14:34:39.0000000+00:00</time></trkpt><trkpt lat="30.61300087" lon="34.80883789"><ele>793.6</ele><time>2013-11-22T14:34:44.0000000+00:00</time></trkpt><trkpt lat="30.61294174" lon="34.80882263"><ele>793.5</ele><time>2013-11-22T14:34:49.0000000+00:00</time></trkpt><trkpt lat="30.61290169" lon="34.80881119"><ele>793.8</ele><time>2013-11-22T14:34:54.0000000+00:00</time></trkpt><trkpt lat="30.61280441" lon="34.80880737"><ele>795.8</ele><time>2013-11-22T14:34:59.0000000+00:00</time></trkpt><trkpt lat="30.61269379" lon="34.80879211"><ele>797.1</ele><time>2013-11-22T14:35:04.0000000+00:00</time></trkpt><trkpt lat="30.61259842" lon="34.80878067"><ele>798.4</ele><time>2013-11-22T14:35:09.0000000+00:00</time></trkpt><trkpt lat="30.61248779" lon="34.80875778"><ele>799.2</ele><time>2013-11-22T14:35:14.0000000+00:00</time></trkpt><trkpt lat="30.61238861" lon="34.80874252"><ele>799.5</ele><time>2013-11-22T14:35:19.0000000+00:00</time></trkpt><trkpt lat="30.61229897" lon="34.80873489"><ele>801.9</ele><time>2013-11-22T14:35:24.0000000+00:00</time></trkpt><trkpt lat="30.61220169" lon="34.80872345"><ele>802.5</ele><time>2013-11-22T14:35:29.0000000+00:00</time></trkpt><trkpt lat="30.61211968" lon="34.80870438"><ele>802.0</ele><time>2013-11-22T14:35:34.0000000+00:00</time></trkpt><trkpt lat="30.61205292" lon="34.80869675"><ele>801.2</ele><time>2013-11-22T14:35:39.0000000+00:00</time></trkpt><trkpt lat="30.6119709" lon="34.80867767"><ele>803.3</ele><time>2013-11-22T14:35:44.0000000+00:00</time></trkpt><trkpt lat="30.61187553" lon="34.8086586"><ele>804.4</ele><time>2013-11-22T14:35:49.0000000+00:00</time></trkpt><trkpt lat="30.61182976" lon="34.80863953"><ele>804.0</ele><time>2013-11-22T14:35:54.0000000+00:00</time></trkpt><trkpt lat="30.61175728" lon="34.80862808"><ele>804.9</ele><time>2013-11-22T14:35:59.0000000+00:00</time></trkpt><trkpt lat="30.61166191" lon="34.80858994"><ele>805.4</ele><time>2013-11-22T14:36:04.0000000+00:00</time></trkpt><trkpt lat="30.61159706" lon="34.80858231"><ele>805.3</ele><time>2013-11-22T14:36:09.0000000+00:00</time></trkpt><trkpt lat="30.61151886" lon="34.80855942"><ele>806.2</ele><time>2013-11-22T14:36:14.0000000+00:00</time></trkpt><trkpt lat="30.61144638" lon="34.80854034"><ele>808.2</ele><time>2013-11-22T14:36:19.0000000+00:00</time></trkpt><trkpt lat="30.61137199" lon="34.80852127"><ele>808.3</ele><time>2013-11-22T14:36:24.0000000+00:00</time></trkpt><trkpt lat="30.61130524" lon="34.8085022"><ele>809.3</ele><time>2013-11-22T14:36:29.0000000+00:00</time></trkpt><trkpt lat="30.61123276" lon="34.80847549"><ele>809.8</ele><time>2013-11-22T14:36:34.0000000+00:00</time></trkpt><trkpt lat="30.61115646" lon="34.80846024"><ele>810.9</ele><time>2013-11-22T14:36:39.0000000+00:00</time></trkpt><trkpt lat="30.6110611" lon="34.80843353"><ele>812.3</ele><time>2013-11-22T14:36:44.0000000+00:00</time></trkpt><trkpt lat="30.61098862" lon="34.80841446"><ele>813.1</ele><time>2013-11-22T14:36:49.0000000+00:00</time></trkpt><trkpt lat="30.61089706" lon="34.80839157"><ele>814.4</ele><time>2013-11-22T14:36:54.0000000+00:00</time></trkpt><trkpt lat="30.61081123" lon="34.80836105"><ele>816.8</ele><time>2013-11-22T14:36:59.0000000+00:00</time></trkpt><trkpt lat="30.61075783" lon="34.8083458"><ele>818.3</ele><time>2013-11-22T14:37:04.0000000+00:00</time></trkpt><trkpt lat="30.61069298" lon="34.80833054"><ele>820.2</ele><time>2013-11-22T14:37:09.0000000+00:00</time></trkpt><trkpt lat="30.61063576" lon="34.80831909"><ele>821.0</ele><time>2013-11-22T14:37:14.0000000+00:00</time></trkpt><trkpt lat="30.61055565" lon="34.80830002"><ele>822.9</ele><time>2013-11-22T14:37:19.0000000+00:00</time></trkpt><trkpt lat="30.61048317" lon="34.80828095"><ele>823.5</ele><time>2013-11-22T14:37:24.0000000+00:00</time></trkpt><trkpt lat="30.61041832" lon="34.80825806"><ele>823.3</ele><time>2013-11-22T14:37:29.0000000+00:00</time></trkpt><trkpt lat="30.61033058" lon="34.80823517"><ele>825.1</ele><time>2013-11-22T14:37:34.0000000+00:00</time></trkpt><trkpt lat="30.61024857" lon="34.80820847"><ele>826.0</ele><time>2013-11-22T14:37:39.0000000+00:00</time></trkpt><trkpt lat="30.61015129" lon="34.80818558"><ele>828.4</ele><time>2013-11-22T14:37:44.0000000+00:00</time></trkpt><trkpt lat="30.61007118" lon="34.80815125"><ele>828.7</ele><time>2013-11-22T14:37:49.0000000+00:00</time></trkpt><trkpt lat="30.60997009" lon="34.80810547"><ele>829.5</ele><time>2013-11-22T14:37:54.0000000+00:00</time></trkpt><trkpt lat="30.60990715" lon="34.80803299"><ele>829.2</ele><time>2013-11-22T14:37:59.0000000+00:00</time></trkpt><trkpt lat="30.60983467" lon="34.80794525"><ele>829.0</ele><time>2013-11-22T14:38:04.0000000+00:00</time></trkpt><trkpt lat="30.60976982" lon="34.80785751"><ele>829.8</ele><time>2013-11-22T14:38:09.0000000+00:00</time></trkpt><trkpt lat="30.60971642" lon="34.80775833"><ele>831.5</ele><time>2013-11-22T14:38:14.0000000+00:00</time></trkpt><trkpt lat="30.60967445" lon="34.80764771"><ele>833.4</ele><time>2013-11-22T14:38:19.0000000+00:00</time></trkpt><trkpt lat="30.60963631" lon="34.80754852"><ele>835.5</ele><time>2013-11-22T14:38:24.0000000+00:00</time></trkpt><trkpt lat="30.60963631" lon="34.8074646"><ele>837.8</ele><time>2013-11-22T14:38:29.0000000+00:00</time></trkpt><trkpt lat="30.60961723" lon="34.80739594"><ele>839.8</ele><time>2013-11-22T14:38:34.0000000+00:00</time></trkpt><trkpt lat="30.60964394" lon="34.80726242"><ele>840.7</ele><time>2013-11-22T14:38:39.0000000+00:00</time></trkpt><trkpt lat="30.6096859" lon="34.80709457"><ele>841.9</ele><time>2013-11-22T14:38:44.0000000+00:00</time></trkpt><trkpt lat="30.60973549" lon="34.80698776"><ele>843.5</ele><time>2013-11-22T14:38:49.0000000+00:00</time></trkpt><trkpt lat="30.60982895" lon="34.80683899"><ele>844.3</ele><time>2013-11-22T14:38:54.0000000+00:00</time></trkpt><trkpt lat="30.6098938" lon="34.80675125"><ele>843.2</ele><time>2013-11-22T14:38:59.0000000+00:00</time></trkpt><trkpt lat="30.60992432" lon="34.80669785"><ele>842.8</ele><time>2013-11-22T14:39:04.0000000+00:00</time></trkpt><trkpt lat="30.60998917" lon="34.80658722"><ele>842.7</ele><time>2013-11-22T14:39:09.0000000+00:00</time></trkpt><trkpt lat="30.61005592" lon="34.80645752"><ele>842.6</ele><time>2013-11-22T14:39:14.0000000+00:00</time></trkpt><trkpt lat="30.61013413" lon="34.80634308"><ele>842.8</ele><time>2013-11-22T14:39:19.0000000+00:00</time></trkpt><trkpt lat="30.61019516" lon="34.80624008"><ele>843.8</ele><time>2013-11-22T14:39:24.0000000+00:00</time></trkpt><trkpt lat="30.61028862" lon="34.80611801"><ele>845.1</ele><time>2013-11-22T14:39:29.0000000+00:00</time></trkpt><trkpt lat="30.61041069" lon="34.80600739"><ele>845.1</ele><time>2013-11-22T14:39:34.0000000+00:00</time></trkpt><trkpt lat="30.61048889" lon="34.80591965"><ele>843.1</ele><time>2013-11-22T14:39:39.0000000+00:00</time></trkpt><trkpt lat="30.6104908" lon="34.80590439"><ele>839.8</ele><time>2013-11-22T14:39:44.0000000+00:00</time></trkpt><trkpt lat="30.6104908" lon="34.80590439"><ele>839.7</ele><time>2013-11-22T14:39:49.0000000+00:00</time></trkpt><trkpt lat="30.6104908" lon="34.80590439"><ele>839.6</ele><time>2013-11-22T14:39:54.0000000+00:00</time></trkpt><trkpt lat="30.61050034" lon="34.80589294"><ele>840.0</ele><time>2013-11-22T14:39:59.0000000+00:00</time></trkpt><trkpt lat="30.61054039" lon="34.80583572"><ele>841.1</ele><time>2013-11-22T14:40:04.0000000+00:00</time></trkpt><trkpt lat="30.61058998" lon="34.80574036"><ele>840.1</ele><time>2013-11-22T14:40:09.0000000+00:00</time></trkpt><trkpt lat="30.61066628" lon="34.8056488"><ele>841.0</ele><time>2013-11-22T14:40:14.0000000+00:00</time></trkpt><trkpt lat="30.61074257" lon="34.80553436"><ele>842.0</ele><time>2013-11-22T14:40:19.0000000+00:00</time></trkpt><trkpt lat="30.61080551" lon="34.80546188"><ele>842.5</ele><time>2013-11-22T14:40:24.0000000+00:00</time></trkpt><trkpt lat="30.61084366" lon="34.80540848"><ele>841.8</ele><time>2013-11-22T14:40:29.0000000+00:00</time></trkpt><trkpt lat="30.61087036" lon="34.80530548"><ele>841.5</ele><time>2013-11-22T14:40:34.0000000+00:00</time></trkpt><trkpt lat="30.61086273" lon="34.8051796"><ele>840.8</ele><time>2013-11-22T14:40:39.0000000+00:00</time></trkpt><trkpt lat="30.6108551" lon="34.80505371"><ele>840.0</ele><time>2013-11-22T14:40:44.0000000+00:00</time></trkpt><trkpt lat="30.61087799" lon="34.80495071"><ele>839.4</ele><time>2013-11-22T14:40:49.0000000+00:00</time></trkpt><trkpt lat="30.61089325" lon="34.80485535"><ele>840.2</ele><time>2013-11-22T14:40:54.0000000+00:00</time></trkpt><trkpt lat="30.61084747" lon="34.80474854"><ele>841.9</ele><time>2013-11-22T14:40:59.0000000+00:00</time></trkpt><trkpt lat="30.61080742" lon="34.8048439"><ele>843.4</ele><time>2013-11-22T14:41:04.0000000+00:00</time></trkpt><trkpt lat="30.61086083" lon="34.80490494"><ele>843.8</ele><time>2013-11-22T14:41:09.0000000+00:00</time></trkpt><trkpt lat="30.61081696" lon="34.8049202"><ele>844.1</ele><time>2013-11-22T14:41:14.0000000+00:00</time></trkpt><trkpt lat="30.6106472" lon="34.80495071"><ele>844.8</ele><time>2013-11-22T14:41:19.0000000+00:00</time></trkpt><trkpt lat="30.61049461" lon="34.8051033"><ele>843.3</ele><time>2013-11-22T14:41:24.0000000+00:00</time></trkpt><trkpt lat="30.61033058" lon="34.80525971"><ele>842.7</ele><time>2013-11-22T14:41:29.0000000+00:00</time></trkpt><trkpt lat="30.61019707" lon="34.80537415"><ele>842.8</ele><time>2013-11-22T14:41:34.0000000+00:00</time></trkpt><trkpt lat="30.61009979" lon="34.80545425"><ele>842.1</ele><time>2013-11-22T14:41:39.0000000+00:00</time></trkpt><trkpt lat="30.61001778" lon="34.80552292"><ele>842.8</ele><time>2013-11-22T14:41:44.0000000+00:00</time></trkpt><trkpt lat="30.60993004" lon="34.80558014"><ele>844.0</ele><time>2013-11-22T14:41:49.0000000+00:00</time></trkpt><trkpt lat="30.60986137" lon="34.80564117"><ele>844.9</ele><time>2013-11-22T14:41:54.0000000+00:00</time></trkpt><trkpt lat="30.60978127" lon="34.80569458"><ele>846.0</ele><time>2013-11-22T14:41:59.0000000+00:00</time></trkpt><trkpt lat="30.60970306" lon="34.80574799"><ele>847.4</ele><time>2013-11-22T14:42:04.0000000+00:00</time></trkpt><trkpt lat="30.6096344" lon="34.80580139"><ele>848.6</ele><time>2013-11-22T14:42:09.0000000+00:00</time></trkpt><trkpt lat="30.60955048" lon="34.80585861"><ele>850.2</ele><time>2013-11-22T14:42:14.0000000+00:00</time></trkpt><trkpt lat="30.60948563" lon="34.80591583"><ele>850.8</ele><time>2013-11-22T14:42:19.0000000+00:00</time></trkpt><trkpt lat="30.60941505" lon="34.80597687"><ele>852.4</ele><time>2013-11-22T14:42:24.0000000+00:00</time></trkpt><trkpt lat="30.60934639" lon="34.80602646"><ele>852.8</ele><time>2013-11-22T14:42:29.0000000+00:00</time></trkpt><trkpt lat="30.60926247" lon="34.80601883"><ele>852.7</ele><time>2013-11-22T14:42:34.0000000+00:00</time></trkpt><trkpt lat="30.60915566" lon="34.80595398"><ele>853.0</ele><time>2013-11-22T14:42:39.0000000+00:00</time></trkpt><trkpt lat="30.60902405" lon="34.80587769"><ele>853.0</ele><time>2013-11-22T14:42:44.0000000+00:00</time></trkpt><trkpt lat="30.60891151" lon="34.80580139"><ele>853.2</ele><time>2013-11-22T14:42:49.0000000+00:00</time></trkpt><trkpt lat="30.608778" lon="34.80574417"><ele>853.1</ele><time>2013-11-22T14:42:54.0000000+00:00</time></trkpt><trkpt lat="30.60868263" lon="34.80577087"><ele>851.9</ele><time>2013-11-22T14:42:59.0000000+00:00</time></trkpt><trkpt lat="30.60862541" lon="34.80580139"><ele>852.9</ele><time>2013-11-22T14:43:04.0000000+00:00</time></trkpt><trkpt lat="30.60854721" lon="34.80583954"><ele>853.9</ele><time>2013-11-22T14:43:09.0000000+00:00</time></trkpt><trkpt lat="30.60847282" lon="34.80586624"><ele>854.0</ele><time>2013-11-22T14:43:14.0000000+00:00</time></trkpt><trkpt lat="30.60841179" lon="34.8058815"><ele>854.8</ele><time>2013-11-22T14:43:19.0000000+00:00</time></trkpt><trkpt lat="30.60834885" lon="34.80585861"><ele>855.7</ele><time>2013-11-22T14:43:24.0000000+00:00</time></trkpt><trkpt lat="30.60830879" lon="34.80590057"><ele>854.9</ele><time>2013-11-22T14:43:29.0000000+00:00</time></trkpt><trkpt lat="30.60830879" lon="34.80594635"><ele>854.3</ele><time>2013-11-22T14:43:34.0000000+00:00</time></trkpt><trkpt lat="30.60831642" lon="34.80596542"><ele>854.3</ele><time>2013-11-22T14:43:39.0000000+00:00</time></trkpt><trkpt lat="30.60831642" lon="34.80597687"><ele>854.3</ele><time>2013-11-22T14:43:44.0000000+00:00</time></trkpt><trkpt lat="30.60832214" lon="34.80599213"><ele>854.4</ele><time>2013-11-22T14:43:49.0000000+00:00</time></trkpt><trkpt lat="30.60838127" lon="34.80598831"><ele>854.0</ele><time>2013-11-22T14:43:54.0000000+00:00</time></trkpt><trkpt lat="30.60844612" lon="34.80603409"><ele>855.0</ele><time>2013-11-22T14:43:59.0000000+00:00</time></trkpt><trkpt lat="30.6084404" lon="34.80612564"><ele>855.7</ele><time>2013-11-22T14:44:04.0000000+00:00</time></trkpt><trkpt lat="30.60839272" lon="34.80620575"><ele>855.9</ele><time>2013-11-22T14:44:09.0000000+00:00</time></trkpt><trkpt lat="30.60839272" lon="34.80623627"><ele>855.4</ele><time>2013-11-22T14:44:14.0000000+00:00</time></trkpt><trkpt lat="30.60840416" lon="34.80625153"><ele>856.0</ele><time>2013-11-22T14:44:19.0000000+00:00</time></trkpt><trkpt lat="30.60844421" lon="34.80626679"><ele>857.2</ele><time>2013-11-22T14:44:24.0000000+00:00</time></trkpt><trkpt lat="30.60848618" lon="34.80633926"><ele>857.7</ele><time>2013-11-22T14:44:29.0000000+00:00</time></trkpt><trkpt lat="30.60844612" lon="34.80638886"><ele>858.0</ele><time>2013-11-22T14:44:34.0000000+00:00</time></trkpt><trkpt lat="30.60840225" lon="34.80646515"><ele>859.1</ele><time>2013-11-22T14:44:39.0000000+00:00</time></trkpt><trkpt lat="30.60836411" lon="34.80648041"><ele>859.1</ele><time>2013-11-22T14:44:44.0000000+00:00</time></trkpt><trkpt lat="30.60836029" lon="34.80644608"><ele>858.7</ele><time>2013-11-22T14:44:49.0000000+00:00</time></trkpt><trkpt lat="30.60835457" lon="34.80643845"><ele>858.5</ele><time>2013-11-22T14:44:54.0000000+00:00</time></trkpt><trkpt lat="30.60827637" lon="34.8063736"><ele>857.2</ele><time>2013-11-22T14:44:59.0000000+00:00</time></trkpt><trkpt lat="30.60815048" lon="34.80630112"><ele>857.8</ele><time>2013-11-22T14:45:04.0000000+00:00</time></trkpt><trkpt lat="30.60810089" lon="34.80628586"><ele>857.6</ele><time>2013-11-22T14:45:09.0000000+00:00</time></trkpt><trkpt lat="30.60810089" lon="34.80628586"><ele>857.1</ele><time>2013-11-22T14:45:14.0000000+00:00</time></trkpt><trkpt lat="30.60809898" lon="34.80628586"><ele>857.0</ele><time>2013-11-22T14:45:19.0000000+00:00</time></trkpt><trkpt lat="30.60809708" lon="34.80628586"><ele>857.0</ele><time>2013-11-22T14:45:24.0000000+00:00</time></trkpt><trkpt lat="30.60804176" lon="34.80628204"><ele>857.9</ele><time>2013-11-22T14:45:29.0000000+00:00</time></trkpt><trkpt lat="30.60800934" lon="34.8062973"><ele>858.0</ele><time>2013-11-22T14:45:34.0000000+00:00</time></trkpt><trkpt lat="30.60796547" lon="34.80632401"><ele>858.1</ele><time>2013-11-22T14:45:39.0000000+00:00</time></trkpt><trkpt lat="30.60791969" lon="34.80635834"><ele>858.7</ele><time>2013-11-22T14:45:44.0000000+00:00</time></trkpt><trkpt lat="30.60791206" lon="34.80636215"><ele>858.5</ele><time>2013-11-22T14:45:49.0000000+00:00</time></trkpt><trkpt lat="30.60791206" lon="34.80636215"><ele>858.6</ele><time>2013-11-22T14:45:54.0000000+00:00</time></trkpt><trkpt lat="30.60791206" lon="34.80636215"><ele>858.6</ele><time>2013-11-22T14:45:59.0000000+00:00</time></trkpt><trkpt lat="30.60791206" lon="34.80636215"><ele>858.6</ele><time>2013-11-22T14:46:04.0000000+00:00</time></trkpt><trkpt lat="30.60791206" lon="34.80636215"><ele>858.6</ele><time>2013-11-22T14:46:09.0000000+00:00</time></trkpt><trkpt lat="30.60791206" lon="34.80636215"><ele>858.6</ele><time>2013-11-22T14:46:14.0000000+00:00</time></trkpt><trkpt lat="30.60791206" lon="34.80636215"><ele>858.6</ele><time>2013-11-22T14:46:19.0000000+00:00</time></trkpt><trkpt lat="30.60791206" lon="34.80636215"><ele>858.6</ele><time>2013-11-22T14:46:24.0000000+00:00</time></trkpt><trkpt lat="30.60791206" lon="34.80636215"><ele>858.7</ele><time>2013-11-22T14:46:29.0000000+00:00</time></trkpt><trkpt lat="30.60791206" lon="34.80636215"><ele>858.7</ele><time>2013-11-22T14:46:34.0000000+00:00</time></trkpt><trkpt lat="30.60791206" lon="34.80636215"><ele>858.7</ele><time>2013-11-22T14:46:39.0000000+00:00</time></trkpt><trkpt lat="30.60791206" lon="34.80636215"><ele>858.6</ele><time>2013-11-22T14:46:44.0000000+00:00</time></trkpt><trkpt lat="30.60791206" lon="34.80636215"><ele>858.6</ele><time>2013-11-22T14:46:49.0000000+00:00</time></trkpt><trkpt lat="30.60791206" lon="34.80636215"><ele>858.6</ele><time>2013-11-22T14:46:54.0000000+00:00</time></trkpt><trkpt lat="30.60791206" lon="34.80636215"><ele>858.6</ele><time>2013-11-22T14:46:59.0000000+00:00</time></trkpt><trkpt lat="30.60791206" lon="34.80636215"><ele>858.6</ele><time>2013-11-22T14:47:04.0000000+00:00</time></trkpt><trkpt lat="30.60791206" lon="34.80636215"><ele>858.6</ele><time>2013-11-22T14:47:09.0000000+00:00</time></trkpt><trkpt lat="30.60791206" lon="34.80636215"><ele>858.6</ele><time>2013-11-22T14:47:14.0000000+00:00</time></trkpt><trkpt lat="30.60791206" lon="34.80636215"><ele>858.6</ele><time>2013-11-22T14:47:19.0000000+00:00</time></trkpt><trkpt lat="30.60791206" lon="34.80636215"><ele>858.6</ele><time>2013-11-22T14:47:24.0000000+00:00</time></trkpt><trkpt lat="30.60791206" lon="34.80636215"><ele>858.6</ele><time>2013-11-22T14:47:29.0000000+00:00</time></trkpt><trkpt lat="30.60791206" lon="34.80636215"><ele>858.6</ele><time>2013-11-22T14:47:34.0000000+00:00</time></trkpt><trkpt lat="30.60791206" lon="34.80635834"><ele>858.6</ele><time>2013-11-22T14:47:39.0000000+00:00</time></trkpt><trkpt lat="30.60791206" lon="34.80635834"><ele>858.6</ele><time>2013-11-22T14:47:44.0000000+00:00</time></trkpt><trkpt lat="30.60791206" lon="34.80635834"><ele>858.6</ele><time>2013-11-22T14:47:49.0000000+00:00</time></trkpt><trkpt lat="30.60791206" lon="34.80635834"><ele>858.5</ele><time>2013-11-22T14:47:54.0000000+00:00</time></trkpt><trkpt lat="30.60791206" lon="34.80635834"><ele>858.5</ele><time>2013-11-22T14:47:59.0000000+00:00</time></trkpt><trkpt lat="30.60791206" lon="34.80635834"><ele>858.5</ele><time>2013-11-22T14:48:04.0000000+00:00</time></trkpt><trkpt lat="30.60791206" lon="34.80635834"><ele>858.5</ele><time>2013-11-22T14:48:09.0000000+00:00</time></trkpt><trkpt lat="30.60791206" lon="34.80635834"><ele>858.5</ele><time>2013-11-22T14:48:14.0000000+00:00</time></trkpt><trkpt lat="30.60791206" lon="34.80635834"><ele>858.5</ele><time>2013-11-22T14:48:19.0000000+00:00</time></trkpt><trkpt lat="30.60791206" lon="34.80635834"><ele>858.5</ele><time>2013-11-22T14:48:24.0000000+00:00</time></trkpt><trkpt lat="30.60791206" lon="34.80635834"><ele>858.5</ele><time>2013-11-22T14:48:29.0000000+00:00</time></trkpt><trkpt lat="30.60791206" lon="34.80635834"><ele>858.5</ele><time>2013-11-22T14:48:34.0000000+00:00</time></trkpt><trkpt lat="30.60791206" lon="34.80635834"><ele>858.5</ele><time>2013-11-22T14:48:39.0000000+00:00</time></trkpt><trkpt lat="30.60791206" lon="34.80635834"><ele>858.5</ele><time>2013-11-22T14:48:44.0000000+00:00</time></trkpt><trkpt lat="30.60791206" lon="34.80635834"><ele>858.5</ele><time>2013-11-22T14:48:49.0000000+00:00</time></trkpt><trkpt lat="30.60791206" lon="34.80635834"><ele>858.4</ele><time>2013-11-22T14:48:54.0000000+00:00</time></trkpt><trkpt lat="30.60791397" lon="34.80635834"><ele>858.4</ele><time>2013-11-22T14:48:59.0000000+00:00</time></trkpt><trkpt lat="30.60791397" lon="34.80635834"><ele>858.4</ele><time>2013-11-22T14:49:04.0000000+00:00</time></trkpt><trkpt lat="30.60791397" lon="34.80635834"><ele>858.4</ele><time>2013-11-22T14:49:09.0000000+00:00</time></trkpt><trkpt lat="30.60791397" lon="34.80635834"><ele>858.4</ele><time>2013-11-22T14:49:14.0000000+00:00</time></trkpt><trkpt lat="30.60791397" lon="34.80635834"><ele>858.4</ele><time>2013-11-22T14:49:19.0000000+00:00</time></trkpt><trkpt lat="30.60791397" lon="34.80635834"><ele>858.4</ele><time>2013-11-22T14:49:24.0000000+00:00</time></trkpt><trkpt lat="30.60791397" lon="34.80635834"><ele>858.4</ele><time>2013-11-22T14:49:29.0000000+00:00</time></trkpt><trkpt lat="30.60791397" lon="34.80635834"><ele>858.4</ele><time>2013-11-22T14:49:34.0000000+00:00</time></trkpt><trkpt lat="30.60791397" lon="34.80635834"><ele>858.4</ele><time>2013-11-22T14:49:39.0000000+00:00</time></trkpt><trkpt lat="30.60791397" lon="34.80635834"><ele>858.4</ele><time>2013-11-22T14:49:44.0000000+00:00</time></trkpt><trkpt lat="30.60791397" lon="34.80635834"><ele>858.4</ele><time>2013-11-22T14:49:49.0000000+00:00</time></trkpt><trkpt lat="30.60791397" lon="34.80635834"><ele>858.4</ele><time>2013-11-22T14:49:54.0000000+00:00</time></trkpt><trkpt lat="30.60791397" lon="34.80635834"><ele>858.4</ele><time>2013-11-22T14:49:59.0000000+00:00</time></trkpt><trkpt lat="30.60791397" lon="34.80635834"><ele>858.4</ele><time>2013-11-22T14:50:04.0000000+00:00</time></trkpt><trkpt lat="30.60791397" lon="34.80635834"><ele>858.4</ele><time>2013-11-22T14:50:09.0000000+00:00</time></trkpt><trkpt lat="30.60791397" lon="34.80635834"><ele>858.4</ele><time>2013-11-22T14:50:14.0000000+00:00</time></trkpt><trkpt lat="30.60791397" lon="34.80635834"><ele>858.4</ele><time>2013-11-22T14:50:19.0000000+00:00</time></trkpt><trkpt lat="30.60791397" lon="34.80635834"><ele>858.4</ele><time>2013-11-22T14:50:24.0000000+00:00</time></trkpt><trkpt lat="30.60791397" lon="34.80636215"><ele>858.3</ele><time>2013-11-22T14:50:29.0000000+00:00</time></trkpt><trkpt lat="30.60791969" lon="34.80635071"><ele>858.2</ele><time>2013-11-22T14:50:34.0000000+00:00</time></trkpt><trkpt lat="30.6079216" lon="34.80634308"><ele>858.2</ele><time>2013-11-22T14:50:39.0000000+00:00</time></trkpt><trkpt lat="30.6079216" lon="34.80632019"><ele>858.1</ele><time>2013-11-22T14:50:44.0000000+00:00</time></trkpt><trkpt lat="30.60792732" lon="34.80622482"><ele>857.7</ele><time>2013-11-22T14:50:49.0000000+00:00</time></trkpt><trkpt lat="30.60791397" lon="34.80614853"><ele>857.1</ele><time>2013-11-22T14:50:54.0000000+00:00</time></trkpt><trkpt lat="30.60789299" lon="34.80612183"><ele>856.7</ele><time>2013-11-22T14:50:59.0000000+00:00</time></trkpt><trkpt lat="30.60783386" lon="34.8061142"><ele>856.6</ele><time>2013-11-22T14:51:04.0000000+00:00</time></trkpt><trkpt lat="30.60779762" lon="34.8061142"><ele>855.9</ele><time>2013-11-22T14:51:09.0000000+00:00</time></trkpt><trkpt lat="30.60779572" lon="34.8061142"><ele>855.4</ele><time>2013-11-22T14:51:14.0000000+00:00</time></trkpt><trkpt lat="30.60779762" lon="34.8061142"><ele>855.3</ele><time>2013-11-22T14:51:19.0000000+00:00</time></trkpt><trkpt lat="30.60779762" lon="34.8061142"><ele>855.3</ele><time>2013-11-22T14:51:24.0000000+00:00</time></trkpt><trkpt lat="30.60778427" lon="34.80612183"><ele>855.1</ele><time>2013-11-22T14:51:29.0000000+00:00</time></trkpt><trkpt lat="30.6077385" lon="34.80609512"><ele>854.3</ele><time>2013-11-22T14:51:34.0000000+00:00</time></trkpt><trkpt lat="30.60768318" lon="34.80605698"><ele>853.2</ele><time>2013-11-22T14:51:39.0000000+00:00</time></trkpt><trkpt lat="30.6076622" lon="34.80601502"><ele>852.3</ele><time>2013-11-22T14:51:44.0000000+00:00</time></trkpt><trkpt lat="30.60764504" lon="34.80598831"><ele>852.3</ele><time>2013-11-22T14:51:49.0000000+00:00</time></trkpt><trkpt lat="30.60766602" lon="34.80593109"><ele>851.9</ele><time>2013-11-22T14:51:54.0000000+00:00</time></trkpt><trkpt lat="30.60766792" lon="34.80590439"><ele>851.1</ele><time>2013-11-22T14:51:59.0000000+00:00</time></trkpt><trkpt lat="30.60764694" lon="34.80588532"><ele>850.2</ele><time>2013-11-22T14:52:04.0000000+00:00</time></trkpt><trkpt lat="30.60760689" lon="34.80586243"><ele>849.3</ele><time>2013-11-22T14:52:09.0000000+00:00</time></trkpt><trkpt lat="30.607584" lon="34.80578613"><ele>847.4</ele><time>2013-11-22T14:52:14.0000000+00:00</time></trkpt><trkpt lat="30.607584" lon="34.80569458"><ele>845.4</ele><time>2013-11-22T14:52:19.0000000+00:00</time></trkpt><trkpt lat="30.60762215" lon="34.80564499"><ele>844.4</ele><time>2013-11-22T14:52:24.0000000+00:00</time></trkpt><trkpt lat="30.60767555" lon="34.80557251"><ele>843.8</ele><time>2013-11-22T14:52:29.0000000+00:00</time></trkpt><trkpt lat="30.60769081" lon="34.80551148"><ele>842.0</ele><time>2013-11-22T14:52:34.0000000+00:00</time></trkpt><trkpt lat="30.60767365" lon="34.80537033"><ele>840.7</ele><time>2013-11-22T14:52:39.0000000+00:00</time></trkpt><trkpt lat="30.60771751" lon="34.80521011"><ele>840.0</ele><time>2013-11-22T14:52:44.0000000+00:00</time></trkpt><trkpt lat="30.60785103" lon="34.80509186"><ele>840.9</ele><time>2013-11-22T14:52:49.0000000+00:00</time></trkpt><trkpt lat="30.60797882" lon="34.80498505"><ele>841.6</ele><time>2013-11-22T14:52:54.0000000+00:00</time></trkpt><trkpt lat="30.60806847" lon="34.80490494"><ele>841.5</ele><time>2013-11-22T14:52:59.0000000+00:00</time></trkpt><trkpt lat="30.60816574" lon="34.80481339"><ele>841.1</ele><time>2013-11-22T14:53:04.0000000+00:00</time></trkpt><trkpt lat="30.60826111" lon="34.80472946"><ele>840.5</ele><time>2013-11-22T14:53:09.0000000+00:00</time></trkpt><trkpt lat="30.60837364" lon="34.80463791"><ele>841.3</ele><time>2013-11-22T14:53:14.0000000+00:00</time></trkpt><trkpt lat="30.60847855" lon="34.80456924"><ele>843.4</ele><time>2013-11-22T14:53:19.0000000+00:00</time></trkpt><trkpt lat="30.60854912" lon="34.80453873"><ele>844.6</ele><time>2013-11-22T14:53:24.0000000+00:00</time></trkpt><trkpt lat="30.6086998" lon="34.80454636"><ele>843.5</ele><time>2013-11-22T14:53:29.0000000+00:00</time></trkpt><trkpt lat="30.60888863" lon="34.80448532"><ele>843.6</ele><time>2013-11-22T14:53:34.0000000+00:00</time></trkpt><trkpt lat="30.60905266" lon="34.8043747"><ele>843.0</ele><time>2013-11-22T14:53:39.0000000+00:00</time></trkpt><trkpt lat="30.60922623" lon="34.804245"><ele>843.2</ele><time>2013-11-22T14:53:44.0000000+00:00</time></trkpt><trkpt lat="30.60934258" lon="34.80413437"><ele>842.8</ele><time>2013-11-22T14:53:49.0000000+00:00</time></trkpt><trkpt lat="30.60948563" lon="34.8041954"><ele>843.0</ele><time>2013-11-22T14:53:54.0000000+00:00</time></trkpt><trkpt lat="30.60972214" lon="34.80430985"><ele>841.6</ele><time>2013-11-22T14:53:59.0000000+00:00</time></trkpt><trkpt lat="30.61005402" lon="34.80443955"><ele>840.2</ele><time>2013-11-22T14:54:04.0000000+00:00</time></trkpt><trkpt lat="30.61037445" lon="34.80456543"><ele>839.9</ele><time>2013-11-22T14:54:09.0000000+00:00</time></trkpt><trkpt lat="30.61058426" lon="34.80464935"><ele>841.9</ele><time>2013-11-22T14:54:14.0000000+00:00</time></trkpt><trkpt lat="30.61070442" lon="34.80473328"><ele>840.8</ele><time>2013-11-22T14:54:19.0000000+00:00</time></trkpt><trkpt lat="30.61082649" lon="34.80474472"><ele>840.7</ele><time>2013-11-22T14:54:24.0000000+00:00</time></trkpt><trkpt lat="30.61092186" lon="34.80466843"><ele>841.3</ele><time>2013-11-22T14:54:29.0000000+00:00</time></trkpt><trkpt lat="30.61097717" lon="34.80461502"><ele>840.8</ele><time>2013-11-22T14:54:34.0000000+00:00</time></trkpt><trkpt lat="30.61102867" lon="34.80456162"><ele>840.1</ele><time>2013-11-22T14:54:39.0000000+00:00</time></trkpt><trkpt lat="30.61108971" lon="34.80450821"><ele>839.4</ele><time>2013-11-22T14:54:44.0000000+00:00</time></trkpt><trkpt lat="30.61114693" lon="34.80445862"><ele>839.1</ele><time>2013-11-22T14:54:49.0000000+00:00</time></trkpt><trkpt lat="30.61120224" lon="34.80441666"><ele>839.2</ele><time>2013-11-22T14:54:54.0000000+00:00</time></trkpt><trkpt lat="30.61126709" lon="34.80441666"><ele>838.7</ele><time>2013-11-22T14:54:59.0000000+00:00</time></trkpt><trkpt lat="30.61133194" lon="34.80438232"><ele>838.5</ele><time>2013-11-22T14:55:04.0000000+00:00</time></trkpt><trkpt lat="30.61137581" lon="34.80434036"><ele>837.8</ele><time>2013-11-22T14:55:09.0000000+00:00</time></trkpt><trkpt lat="30.61138535" lon="34.80433273"><ele>837.6</ele><time>2013-11-22T14:55:14.0000000+00:00</time></trkpt><trkpt lat="30.61138535" lon="34.80433273"><ele>837.6</ele><time>2013-11-22T14:55:19.0000000+00:00</time></trkpt><trkpt lat="30.61138535" lon="34.80433273"><ele>837.7</ele><time>2013-11-22T14:55:24.0000000+00:00</time></trkpt><trkpt lat="30.61138535" lon="34.80433273"><ele>837.7</ele><time>2013-11-22T14:55:29.0000000+00:00</time></trkpt><trkpt lat="30.61138535" lon="34.80433273"><ele>837.7</ele><time>2013-11-22T14:55:34.0000000+00:00</time></trkpt><trkpt lat="30.61138535" lon="34.80433273"><ele>837.7</ele><time>2013-11-22T14:55:39.0000000+00:00</time></trkpt><trkpt lat="30.61138535" lon="34.80433273"><ele>837.7</ele><time>2013-11-22T14:55:44.0000000+00:00</time></trkpt><trkpt lat="30.61138535" lon="34.80433273"><ele>837.8</ele><time>2013-11-22T14:55:49.0000000+00:00</time></trkpt><trkpt lat="30.61138535" lon="34.80433273"><ele>837.8</ele><time>2013-11-22T14:55:54.0000000+00:00</time></trkpt><trkpt lat="30.61138725" lon="34.80433273"><ele>837.8</ele><time>2013-11-22T14:55:59.0000000+00:00</time></trkpt><trkpt lat="30.61138725" lon="34.80433273"><ele>837.8</ele><time>2013-11-22T14:56:04.0000000+00:00</time></trkpt><trkpt lat="30.61138535" lon="34.80432892"><ele>837.7</ele><time>2013-11-22T14:56:09.0000000+00:00</time></trkpt><trkpt lat="30.61147499" lon="34.80434799"><ele>836.8</ele><time>2013-11-22T14:56:14.0000000+00:00</time></trkpt><trkpt lat="30.6115818" lon="34.80437851"><ele>836.4</ele><time>2013-11-22T14:56:19.0000000+00:00</time></trkpt><trkpt lat="30.61170387" lon="34.80432129"><ele>834.8</ele><time>2013-11-22T14:56:24.0000000+00:00</time></trkpt><trkpt lat="30.61181259" lon="34.80419922"><ele>836.0</ele><time>2013-11-22T14:56:29.0000000+00:00</time></trkpt><trkpt lat="30.61193657" lon="34.8040657"><ele>835.3</ele><time>2013-11-22T14:56:34.0000000+00:00</time></trkpt><trkpt lat="30.61213684" lon="34.80397034"><ele>834.3</ele><time>2013-11-22T14:56:39.0000000+00:00</time></trkpt><trkpt lat="30.61236" lon="34.80390167"><ele>832.7</ele><time>2013-11-22T14:56:44.0000000+00:00</time></trkpt><trkpt lat="30.61248779" lon="34.8038826"><ele>833.0</ele><time>2013-11-22T14:56:49.0000000+00:00</time></trkpt><trkpt lat="30.61253357" lon="34.80395508"><ele>833.8</ele><time>2013-11-22T14:56:54.0000000+00:00</time></trkpt><trkpt lat="30.61256599" lon="34.80410004"><ele>833.2</ele><time>2013-11-22T14:56:59.0000000+00:00</time></trkpt><trkpt lat="30.61265564" lon="34.80425644"><ele>832.7</ele><time>2013-11-22T14:57:04.0000000+00:00</time></trkpt><trkpt lat="30.61277962" lon="34.80435944"><ele>833.0</ele><time>2013-11-22T14:57:09.0000000+00:00</time></trkpt><trkpt lat="30.61295128" lon="34.80435181"><ele>832.7</ele><time>2013-11-22T14:57:14.0000000+00:00</time></trkpt><trkpt lat="30.61312866" lon="34.80422974"><ele>830.6</ele><time>2013-11-22T14:57:19.0000000+00:00</time></trkpt><trkpt lat="30.61322594" lon="34.80400085"><ele>829.4</ele><time>2013-11-22T14:57:24.0000000+00:00</time></trkpt><trkpt lat="30.61341286" lon="34.80384064"><ele>828.3</ele><time>2013-11-22T14:57:29.0000000+00:00</time></trkpt><trkpt lat="30.61366081" lon="34.80374908"><ele>827.3</ele><time>2013-11-22T14:57:34.0000000+00:00</time></trkpt><trkpt lat="30.61388969" lon="34.80368424"><ele>827.4</ele><time>2013-11-22T14:57:39.0000000+00:00</time></trkpt><trkpt lat="30.61412811" lon="34.80364609"><ele>828.3</ele><time>2013-11-22T14:57:44.0000000+00:00</time></trkpt><trkpt lat="30.61433411" lon="34.80360031"><ele>828.9</ele><time>2013-11-22T14:57:49.0000000+00:00</time></trkpt><trkpt lat="30.61453056" lon="34.80356598"><ele>831.2</ele><time>2013-11-22T14:57:54.0000000+00:00</time></trkpt><trkpt lat="30.61476898" lon="34.80354691"><ele>832.5</ele><time>2013-11-22T14:57:59.0000000+00:00</time></trkpt><trkpt lat="30.61496925" lon="34.80353928"><ele>833.3</ele><time>2013-11-22T14:58:04.0000000+00:00</time></trkpt><trkpt lat="30.61515045" lon="34.80354691"><ele>834.0</ele><time>2013-11-22T14:58:09.0000000+00:00</time></trkpt><trkpt lat="30.61529923" lon="34.80353928"><ele>834.8</ele><time>2013-11-22T14:58:14.0000000+00:00</time></trkpt><trkpt lat="30.61548233" lon="34.80354691"><ele>835.7</ele><time>2013-11-22T14:58:19.0000000+00:00</time></trkpt><trkpt lat="30.61566353" lon="34.80355072"><ele>837.1</ele><time>2013-11-22T14:58:24.0000000+00:00</time></trkpt><trkpt lat="30.61584091" lon="34.80354691"><ele>838.2</ele><time>2013-11-22T14:58:29.0000000+00:00</time></trkpt><trkpt lat="30.61600494" lon="34.80356598"><ele>839.1</ele><time>2013-11-22T14:58:34.0000000+00:00</time></trkpt><trkpt lat="30.61618996" lon="34.80356598"><ele>839.0</ele><time>2013-11-22T14:58:39.0000000+00:00</time></trkpt><trkpt lat="30.61637878" lon="34.80357361"><ele>838.9</ele><time>2013-11-22T14:58:44.0000000+00:00</time></trkpt><trkpt lat="30.61660385" lon="34.80357742"><ele>838.5</ele><time>2013-11-22T14:58:49.0000000+00:00</time></trkpt><trkpt lat="30.61682129" lon="34.80358505"><ele>838.5</ele><time>2013-11-22T14:58:54.0000000+00:00</time></trkpt><trkpt lat="30.61702919" lon="34.80359268"><ele>838.8</ele><time>2013-11-22T14:58:59.0000000+00:00</time></trkpt><trkpt lat="30.61724281" lon="34.80360031"><ele>838.0</ele><time>2013-11-22T14:59:04.0000000+00:00</time></trkpt><trkpt lat="30.61746788" lon="34.80360794"><ele>837.4</ele><time>2013-11-22T14:59:09.0000000+00:00</time></trkpt><trkpt lat="30.61769295" lon="34.80361939"><ele>836.7</ele><time>2013-11-22T14:59:14.0000000+00:00</time></trkpt><trkpt lat="30.61795425" lon="34.80362701"><ele>835.6</ele><time>2013-11-22T14:59:19.0000000+00:00</time></trkpt><trkpt lat="30.61825943" lon="34.80363846"><ele>833.9</ele><time>2013-11-22T14:59:24.0000000+00:00</time></trkpt><trkpt lat="30.61859703" lon="34.80366516"><ele>833.0</ele><time>2013-11-22T14:59:29.0000000+00:00</time></trkpt><trkpt lat="30.6189518" lon="34.80367661"><ele>832.3</ele><time>2013-11-22T14:59:34.0000000+00:00</time></trkpt><trkpt lat="30.61929321" lon="34.80368424"><ele>832.0</ele><time>2013-11-22T14:59:39.0000000+00:00</time></trkpt><trkpt lat="30.61962128" lon="34.80369949"><ele>831.6</ele><time>2013-11-22T14:59:44.0000000+00:00</time></trkpt><trkpt lat="30.61993027" lon="34.80371857"><ele>831.6</ele><time>2013-11-22T14:59:49.0000000+00:00</time></trkpt><trkpt lat="30.62021828" lon="34.80374146"><ele>830.7</ele><time>2013-11-22T14:59:54.0000000+00:00</time></trkpt><trkpt lat="30.6204834" lon="34.80374908"><ele>830.7</ele><time>2013-11-22T14:59:59.0000000+00:00</time></trkpt><trkpt lat="30.62074661" lon="34.80375671"><ele>830.5</ele><time>2013-11-22T15:00:04.0000000+00:00</time></trkpt><trkpt lat="30.6210289" lon="34.80377197"><ele>829.9</ele><time>2013-11-22T15:00:09.0000000+00:00</time></trkpt><trkpt lat="30.6213398" lon="34.80380249"><ele>828.1</ele><time>2013-11-22T15:00:14.0000000+00:00</time></trkpt><trkpt lat="30.62165642" lon="34.80381393"><ele>827.1</ele><time>2013-11-22T15:00:19.0000000+00:00</time></trkpt><trkpt lat="30.62196159" lon="34.80384445"><ele>825.2</ele><time>2013-11-22T15:00:24.0000000+00:00</time></trkpt><trkpt lat="30.62212563" lon="34.80362701"><ele>823.9</ele><time>2013-11-22T15:00:29.0000000+00:00</time></trkpt><trkpt lat="30.622118" lon="34.80340195"><ele>825.1</ele><time>2013-11-22T15:00:34.0000000+00:00</time></trkpt><trkpt lat="30.62210083" lon="34.80325317"><ele>826.0</ele><time>2013-11-22T15:00:39.0000000+00:00</time></trkpt><trkpt lat="30.62207985" lon="34.80302429"><ele>826.8</ele><time>2013-11-22T15:00:44.0000000+00:00</time></trkpt><trkpt lat="30.62207031" lon="34.80279541"><ele>827.8</ele><time>2013-11-22T15:00:49.0000000+00:00</time></trkpt><trkpt lat="30.62206459" lon="34.80258179"><ele>829.1</ele><time>2013-11-22T15:00:54.0000000+00:00</time></trkpt><trkpt lat="30.62205887" lon="34.80241013"><ele>830.1</ele><time>2013-11-22T15:00:59.0000000+00:00</time></trkpt><trkpt lat="30.62205124" lon="34.80231476"><ele>831.9</ele><time>2013-11-22T15:01:04.0000000+00:00</time></trkpt><trkpt lat="30.62203407" lon="34.80221939"><ele>832.9</ele><time>2013-11-22T15:01:09.0000000+00:00</time></trkpt><trkpt lat="30.62200356" lon="34.80210495"><ele>832.6</ele><time>2013-11-22T15:01:14.0000000+00:00</time></trkpt><trkpt lat="30.6219883" lon="34.80198288"><ele>831.5</ele><time>2013-11-22T15:01:19.0000000+00:00</time></trkpt><trkpt lat="30.62195969" lon="34.80186844"><ele>829.9</ele><time>2013-11-22T15:01:24.0000000+00:00</time></trkpt><trkpt lat="30.62192535" lon="34.80171967"><ele>828.8</ele><time>2013-11-22T15:01:29.0000000+00:00</time></trkpt><trkpt lat="30.62188149" lon="34.80158615"><ele>828.8</ele><time>2013-11-22T15:01:34.0000000+00:00</time></trkpt><trkpt lat="30.62184525" lon="34.80147553"><ele>827.9</ele><time>2013-11-22T15:01:39.0000000+00:00</time></trkpt><trkpt lat="30.62181091" lon="34.80138397"><ele>827.8</ele><time>2013-11-22T15:01:44.0000000+00:00</time></trkpt><trkpt lat="30.6217804" lon="34.80125427"><ele>827.0</ele><time>2013-11-22T15:01:49.0000000+00:00</time></trkpt><trkpt lat="30.62171173" lon="34.80111694"><ele>826.7</ele><time>2013-11-22T15:01:54.0000000+00:00</time></trkpt><trkpt lat="30.62158775" lon="34.80115509"><ele>825.4</ele><time>2013-11-22T15:01:59.0000000+00:00</time></trkpt><trkpt lat="30.621418" lon="34.80123138"><ele>826.9</ele><time>2013-11-22T15:02:04.0000000+00:00</time></trkpt><trkpt lat="30.6212635" lon="34.80126953"><ele>826.2</ele><time>2013-11-22T15:02:09.0000000+00:00</time></trkpt><trkpt lat="30.62122154" lon="34.80117035"><ele>825.3</ele><time>2013-11-22T15:02:14.0000000+00:00</time></trkpt><trkpt lat="30.62124825" lon="34.80122757"><ele>825.7</ele><time>2013-11-22T15:02:19.0000000+00:00</time></trkpt><trkpt lat="30.62135124" lon="34.80124664"><ele>826.5</ele><time>2013-11-22T15:02:24.0000000+00:00</time></trkpt><trkpt lat="30.6214695" lon="34.80118561"><ele>827.9</ele><time>2013-11-22T15:02:29.0000000+00:00</time></trkpt><trkpt lat="30.62159157" lon="34.80112457"><ele>827.2</ele><time>2013-11-22T15:02:34.0000000+00:00</time></trkpt><trkpt lat="30.62167358" lon="34.80104828"><ele>826.9</ele><time>2013-11-22T15:02:39.0000000+00:00</time></trkpt><trkpt lat="30.62166023" lon="34.80090332"><ele>826.9</ele><time>2013-11-22T15:02:44.0000000+00:00</time></trkpt><trkpt lat="30.62159157" lon="34.80073547"><ele>827.5</ele><time>2013-11-22T15:02:49.0000000+00:00</time></trkpt><trkpt lat="30.62148857" lon="34.80059433"><ele>828.9</ele><time>2013-11-22T15:02:54.0000000+00:00</time></trkpt><trkpt lat="30.62138367" lon="34.80043411"><ele>828.6</ele><time>2013-11-22T15:02:59.0000000+00:00</time></trkpt><trkpt lat="30.62128449" lon="34.80030441"><ele>827.2</ele><time>2013-11-22T15:03:04.0000000+00:00</time></trkpt><trkpt lat="30.62112618" lon="34.80033875"><ele>826.9</ele><time>2013-11-22T15:03:09.0000000+00:00</time></trkpt><trkpt lat="30.62095261" lon="34.80044937"><ele>828.3</ele><time>2013-11-22T15:03:14.0000000+00:00</time></trkpt><trkpt lat="30.620821" lon="34.80051804"><ele>827.9</ele><time>2013-11-22T15:03:19.0000000+00:00</time></trkpt><trkpt lat="30.62066269" lon="34.80059052"><ele>826.8</ele><time>2013-11-22T15:03:24.0000000+00:00</time></trkpt><trkpt lat="30.62055969" lon="34.80067444"><ele>825.7</ele><time>2013-11-22T15:03:29.0000000+00:00</time></trkpt><trkpt lat="30.62042999" lon="34.80075455"><ele>825.8</ele><time>2013-11-22T15:03:34.0000000+00:00</time></trkpt><trkpt lat="30.6203537" lon="34.80078888"><ele>824.8</ele><time>2013-11-22T15:03:39.0000000+00:00</time></trkpt><trkpt lat="30.62031174" lon="34.80078507"><ele>824.1</ele><time>2013-11-22T15:03:44.0000000+00:00</time></trkpt><trkpt lat="30.62025833" lon="34.80082321"><ele>824.0</ele><time>2013-11-22T15:03:49.0000000+00:00</time></trkpt><trkpt lat="30.62017632" lon="34.8009491"><ele>824.2</ele><time>2013-11-22T15:03:54.0000000+00:00</time></trkpt><trkpt lat="30.62006569" lon="34.80104065"><ele>825.5</ele><time>2013-11-22T15:03:59.0000000+00:00</time></trkpt><trkpt lat="30.61995888" lon="34.80110169"><ele>826.1</ele><time>2013-11-22T15:04:04.0000000+00:00</time></trkpt><trkpt lat="30.61984062" lon="34.80112457"><ele>826.1</ele><time>2013-11-22T15:04:09.0000000+00:00</time></trkpt><trkpt lat="30.61976242" lon="34.80118942"><ele>826.3</ele><time>2013-11-22T15:04:14.0000000+00:00</time></trkpt><trkpt lat="30.61971855" lon="34.80118561"><ele>825.1</ele><time>2013-11-22T15:04:19.0000000+00:00</time></trkpt><trkpt lat="30.61971855" lon="34.80118561"><ele>825.0</ele><time>2013-11-22T15:04:24.0000000+00:00</time></trkpt><trkpt lat="30.61971855" lon="34.80118561"><ele>825.1</ele><time>2013-11-22T15:04:29.0000000+00:00</time></trkpt><trkpt lat="30.61971855" lon="34.80118561"><ele>825.1</ele><time>2013-11-22T15:04:34.0000000+00:00</time></trkpt><trkpt lat="30.61972046" lon="34.80118561"><ele>825.2</ele><time>2013-11-22T15:04:39.0000000+00:00</time></trkpt><trkpt lat="30.61972046" lon="34.80118561"><ele>825.2</ele><time>2013-11-22T15:04:44.0000000+00:00</time></trkpt><trkpt lat="30.61970329" lon="34.80120468"><ele>825.1</ele><time>2013-11-22T15:04:49.0000000+00:00</time></trkpt><trkpt lat="30.61966133" lon="34.80130386"><ele>825.5</ele><time>2013-11-22T15:04:54.0000000+00:00</time></trkpt><trkpt lat="30.61962128" lon="34.80144119"><ele>826.0</ele><time>2013-11-22T15:04:59.0000000+00:00</time></trkpt><trkpt lat="30.61960602" lon="34.80165482"><ele>826.7</ele><time>2013-11-22T15:05:04.0000000+00:00</time></trkpt><trkpt lat="30.61959457" lon="34.80186081"><ele>827.9</ele><time>2013-11-22T15:05:09.0000000+00:00</time></trkpt><trkpt lat="30.61957359" lon="34.80203629"><ele>827.8</ele><time>2013-11-22T15:05:14.0000000+00:00</time></trkpt><trkpt lat="30.61956024" lon="34.80219269"><ele>828.2</ele><time>2013-11-22T15:05:19.0000000+00:00</time></trkpt><trkpt lat="30.61952591" lon="34.80225754"><ele>828.2</ele><time>2013-11-22T15:05:24.0000000+00:00</time></trkpt><trkpt lat="30.61945343" lon="34.80227661"><ele>827.9</ele><time>2013-11-22T15:05:29.0000000+00:00</time></trkpt><trkpt lat="30.61938477" lon="34.80227661"><ele>828.5</ele><time>2013-11-22T15:05:34.0000000+00:00</time></trkpt><trkpt lat="30.61926842" lon="34.80228043"><ele>829.2</ele><time>2013-11-22T15:05:39.0000000+00:00</time></trkpt><trkpt lat="30.61917687" lon="34.80226898"><ele>828.9</ele><time>2013-11-22T15:05:44.0000000+00:00</time></trkpt><trkpt lat="30.61907768" lon="34.80229187"><ele>829.5</ele><time>2013-11-22T15:05:49.0000000+00:00</time></trkpt><trkpt lat="30.61904144" lon="34.8022995"><ele>830.2</ele><time>2013-11-22T15:05:54.0000000+00:00</time></trkpt><trkpt lat="30.61904144" lon="34.80229569"><ele>830.1</ele><time>2013-11-22T15:05:59.0000000+00:00</time></trkpt><trkpt lat="30.61904144" lon="34.80229569"><ele>830.0</ele><time>2013-11-22T15:06:04.0000000+00:00</time></trkpt><trkpt lat="30.61904144" lon="34.80229569"><ele>830.0</ele><time>2013-11-22T15:06:09.0000000+00:00</time></trkpt><trkpt lat="30.61904144" lon="34.80229569"><ele>830.1</ele><time>2013-11-22T15:06:14.0000000+00:00</time></trkpt><trkpt lat="30.61904335" lon="34.80229569"><ele>830.1</ele><time>2013-11-22T15:06:19.0000000+00:00</time></trkpt><trkpt lat="30.61904144" lon="34.80229569"><ele>830.1</ele><time>2013-11-22T15:06:24.0000000+00:00</time></trkpt><trkpt lat="30.61894989" lon="34.80227661"><ele>830.7</ele><time>2013-11-22T15:06:29.0000000+00:00</time></trkpt><trkpt lat="30.61880493" lon="34.80229569"><ele>831.0</ele><time>2013-11-22T15:06:34.0000000+00:00</time></trkpt><trkpt lat="30.61870384" lon="34.80230331"><ele>830.8</ele><time>2013-11-22T15:06:39.0000000+00:00</time></trkpt><trkpt lat="30.6185894" lon="34.80222702"><ele>830.6</ele><time>2013-11-22T15:06:44.0000000+00:00</time></trkpt><trkpt lat="30.6185379" lon="34.80205154"><ele>827.9</ele><time>2013-11-22T15:06:49.0000000+00:00</time></trkpt><trkpt lat="30.61851692" lon="34.80186462"><ele>825.6</ele><time>2013-11-22T15:06:54.0000000+00:00</time></trkpt><trkpt lat="30.61852264" lon="34.8017273"><ele>823.2</ele><time>2013-11-22T15:06:59.0000000+00:00</time></trkpt><trkpt lat="30.618536" lon="34.8016777"><ele>823.1</ele><time>2013-11-22T15:07:04.0000000+00:00</time></trkpt><trkpt lat="30.61853218" lon="34.80166626"><ele>822.5</ele><time>2013-11-22T15:07:09.0000000+00:00</time></trkpt><trkpt lat="30.61853409" lon="34.80166245"><ele>822.4</ele><time>2013-11-22T15:07:14.0000000+00:00</time></trkpt><trkpt lat="30.61855125" lon="34.80164719"><ele>822.9</ele><time>2013-11-22T15:07:19.0000000+00:00</time></trkpt><trkpt lat="30.6185627" lon="34.80163956"><ele>823.3</ele><time>2013-11-22T15:07:24.0000000+00:00</time></trkpt><trkpt lat="30.61857224" lon="34.80163956"><ele>824.1</ele><time>2013-11-22T15:07:29.0000000+00:00</time></trkpt><trkpt lat="30.61857033" lon="34.801651"><ele>824.1</ele><time>2013-11-22T15:07:34.0000000+00:00</time></trkpt><trkpt lat="30.61857414" lon="34.80167007"><ele>824.1</ele><time>2013-11-22T15:07:39.0000000+00:00</time></trkpt><trkpt lat="30.61858368" lon="34.80170822"><ele>824.4</ele><time>2013-11-22T15:07:44.0000000+00:00</time></trkpt><trkpt lat="30.61860466" lon="34.80169296"><ele>825.0</ele><time>2013-11-22T15:07:49.0000000+00:00</time></trkpt><trkpt lat="30.61860466" lon="34.80169678"><ele>825.1</ele><time>2013-11-22T15:07:54.0000000+00:00</time></trkpt><trkpt lat="30.61860466" lon="34.80169678"><ele>825.3</ele><time>2013-11-22T15:07:59.0000000+00:00</time></trkpt><trkpt lat="30.61860466" lon="34.80169678"><ele>825.4</ele><time>2013-11-22T15:08:04.0000000+00:00</time></trkpt><trkpt lat="30.61860466" lon="34.80169678"><ele>825.4</ele><time>2013-11-22T15:08:09.0000000+00:00</time></trkpt><trkpt lat="30.61860466" lon="34.80169678"><ele>825.4</ele><time>2013-11-22T15:08:14.0000000+00:00</time></trkpt><trkpt lat="30.61860466" lon="34.80169678"><ele>825.5</ele><time>2013-11-22T15:08:19.0000000+00:00</time></trkpt><trkpt lat="30.61860466" lon="34.80169678"><ele>825.5</ele><time>2013-11-22T15:08:24.0000000+00:00</time></trkpt><trkpt lat="30.61860466" lon="34.80169678"><ele>825.5</ele><time>2013-11-22T15:08:29.0000000+00:00</time></trkpt><trkpt lat="30.61860466" lon="34.80169678"><ele>825.5</ele><time>2013-11-22T15:08:34.0000000+00:00</time></trkpt><trkpt lat="30.61860466" lon="34.80169678"><ele>825.5</ele><time>2013-11-22T15:08:39.0000000+00:00</time></trkpt><trkpt lat="30.61860466" lon="34.80169678"><ele>825.5</ele><time>2013-11-22T15:08:44.0000000+00:00</time></trkpt><trkpt lat="30.61860466" lon="34.80169678"><ele>825.5</ele><time>2013-11-22T15:08:49.0000000+00:00</time></trkpt></trkseg><trkseg><trkpt lat="30.6186409" lon="34.80186462"><ele>835.4</ele><time>2013-11-23T05:37:04.0000000+00:00</time></trkpt><trkpt lat="30.61867142" lon="34.80181885"><ele>837.3</ele><time>2013-11-23T05:37:09.0000000+00:00</time></trkpt><trkpt lat="30.6186657" lon="34.80181122"><ele>837.0</ele><time>2013-11-23T05:37:14.0000000+00:00</time></trkpt><trkpt lat="30.61867333" lon="34.8018074"><ele>836.3</ele><time>2013-11-23T05:37:19.0000000+00:00</time></trkpt><trkpt lat="30.61868477" lon="34.80180359"><ele>836.0</ele><time>2013-11-23T05:37:24.0000000+00:00</time></trkpt><trkpt lat="30.61868858" lon="34.80178833"><ele>835.7</ele><time>2013-11-23T05:37:29.0000000+00:00</time></trkpt><trkpt lat="30.61869621" lon="34.80177689"><ele>835.6</ele><time>2013-11-23T05:37:34.0000000+00:00</time></trkpt><trkpt lat="30.61870194" lon="34.80177689"><ele>835.3</ele><time>2013-11-23T05:37:39.0000000+00:00</time></trkpt><trkpt lat="30.61870194" lon="34.8017807"><ele>835.3</ele><time>2013-11-23T05:37:44.0000000+00:00</time></trkpt><trkpt lat="30.61870194" lon="34.8017807"><ele>835.3</ele><time>2013-11-23T05:37:49.0000000+00:00</time></trkpt><trkpt lat="30.61870194" lon="34.80178452"><ele>835.3</ele><time>2013-11-23T05:37:54.0000000+00:00</time></trkpt><trkpt lat="30.61870194" lon="34.80178452"><ele>835.3</ele><time>2013-11-23T05:37:59.0000000+00:00</time></trkpt><trkpt lat="30.61870194" lon="34.80178452"><ele>835.4</ele><time>2013-11-23T05:38:04.0000000+00:00</time></trkpt><trkpt lat="30.61870194" lon="34.80178452"><ele>835.4</ele><time>2013-11-23T05:38:09.0000000+00:00</time></trkpt><trkpt lat="30.61870194" lon="34.8017807"><ele>835.5</ele><time>2013-11-23T05:38:14.0000000+00:00</time></trkpt><trkpt lat="30.61870194" lon="34.8017807"><ele>835.5</ele><time>2013-11-23T05:38:19.0000000+00:00</time></trkpt><trkpt lat="30.61870194" lon="34.8017807"><ele>835.5</ele><time>2013-11-23T05:38:24.0000000+00:00</time></trkpt><trkpt lat="30.61870194" lon="34.8017807"><ele>835.5</ele><time>2013-11-23T05:38:29.0000000+00:00</time></trkpt><trkpt lat="30.61870194" lon="34.8017807"><ele>835.6</ele><time>2013-11-23T05:38:34.0000000+00:00</time></trkpt><trkpt lat="30.61870194" lon="34.80177689"><ele>835.7</ele><time>2013-11-23T05:38:39.0000000+00:00</time></trkpt><trkpt lat="30.61870194" lon="34.80177689"><ele>835.8</ele><time>2013-11-23T05:38:44.0000000+00:00</time></trkpt><trkpt lat="30.61870194" lon="34.80177689"><ele>835.8</ele><time>2013-11-23T05:38:49.0000000+00:00</time></trkpt><trkpt lat="30.61870194" lon="34.80177689"><ele>835.9</ele><time>2013-11-23T05:38:54.0000000+00:00</time></trkpt><trkpt lat="30.61870194" lon="34.80177689"><ele>835.9</ele><time>2013-11-23T05:38:59.0000000+00:00</time></trkpt><trkpt lat="30.61870194" lon="34.80177307"><ele>835.9</ele><time>2013-11-23T05:39:04.0000000+00:00</time></trkpt><trkpt lat="30.61870194" lon="34.80177307"><ele>835.9</ele><time>2013-11-23T05:39:09.0000000+00:00</time></trkpt><trkpt lat="30.61870194" lon="34.80177307"><ele>835.9</ele><time>2013-11-23T05:39:14.0000000+00:00</time></trkpt><trkpt lat="30.61870194" lon="34.80177307"><ele>835.9</ele><time>2013-11-23T05:39:19.0000000+00:00</time></trkpt><trkpt lat="30.61870194" lon="34.80177307"><ele>835.9</ele><time>2013-11-23T05:39:24.0000000+00:00</time></trkpt><trkpt lat="30.61870194" lon="34.80177307"><ele>836.0</ele><time>2013-11-23T05:39:29.0000000+00:00</time></trkpt><trkpt lat="30.61870194" lon="34.80177307"><ele>836.0</ele><time>2013-11-23T05:39:34.0000000+00:00</time></trkpt><trkpt lat="30.61870194" lon="34.80177307"><ele>836.0</ele><time>2013-11-23T05:39:39.0000000+00:00</time></trkpt><trkpt lat="30.61870194" lon="34.80177307"><ele>836.0</ele><time>2013-11-23T05:39:44.0000000+00:00</time></trkpt><trkpt lat="30.61870194" lon="34.80177307"><ele>836.0</ele><time>2013-11-23T05:39:49.0000000+00:00</time></trkpt><trkpt lat="30.61870194" lon="34.80177307"><ele>836.0</ele><time>2013-11-23T05:39:54.0000000+00:00</time></trkpt><trkpt lat="30.61870194" lon="34.80177307"><ele>836.0</ele><time>2013-11-23T05:39:59.0000000+00:00</time></trkpt><trkpt lat="30.61870194" lon="34.80177307"><ele>836.1</ele><time>2013-11-23T05:40:04.0000000+00:00</time></trkpt><trkpt lat="30.61870194" lon="34.80177307"><ele>836.1</ele><time>2013-11-23T05:40:09.0000000+00:00</time></trkpt><trkpt lat="30.61870194" lon="34.80177307"><ele>836.1</ele><time>2013-11-23T05:40:14.0000000+00:00</time></trkpt><trkpt lat="30.61870003" lon="34.80177307"><ele>836.2</ele><time>2013-11-23T05:40:19.0000000+00:00</time></trkpt><trkpt lat="30.61870003" lon="34.80177307"><ele>836.2</ele><time>2013-11-23T05:40:24.0000000+00:00</time></trkpt><trkpt lat="30.61870003" lon="34.80177307"><ele>836.3</ele><time>2013-11-23T05:40:29.0000000+00:00</time></trkpt><trkpt lat="30.61870003" lon="34.80177307"><ele>836.3</ele><time>2013-11-23T05:40:34.0000000+00:00</time></trkpt><trkpt lat="30.61870003" lon="34.80177307"><ele>836.4</ele><time>2013-11-23T05:40:39.0000000+00:00</time></trkpt><trkpt lat="30.61870003" lon="34.80177307"><ele>836.4</ele><time>2013-11-23T05:40:44.0000000+00:00</time></trkpt><trkpt lat="30.61870003" lon="34.80177307"><ele>836.4</ele><time>2013-11-23T05:40:49.0000000+00:00</time></trkpt><trkpt lat="30.61870003" lon="34.80177307"><ele>836.5</ele><time>2013-11-23T05:40:54.0000000+00:00</time></trkpt><trkpt lat="30.61870003" lon="34.80177307"><ele>836.5</ele><time>2013-11-23T05:40:59.0000000+00:00</time></trkpt><trkpt lat="30.61870003" lon="34.80177307"><ele>836.5</ele><time>2013-11-23T05:41:04.0000000+00:00</time></trkpt><trkpt lat="30.61870003" lon="34.80177307"><ele>836.6</ele><time>2013-11-23T05:41:09.0000000+00:00</time></trkpt><trkpt lat="30.61870003" lon="34.80177307"><ele>836.6</ele><time>2013-11-23T05:41:14.0000000+00:00</time></trkpt><trkpt lat="30.61870003" lon="34.80176926"><ele>836.6</ele><time>2013-11-23T05:41:19.0000000+00:00</time></trkpt><trkpt lat="30.61870003" lon="34.80176926"><ele>836.7</ele><time>2013-11-23T05:41:24.0000000+00:00</time></trkpt><trkpt lat="30.61870003" lon="34.80176926"><ele>836.7</ele><time>2013-11-23T05:41:29.0000000+00:00</time></trkpt><trkpt lat="30.61870003" lon="34.80176926"><ele>836.8</ele><time>2013-11-23T05:41:34.0000000+00:00</time></trkpt><trkpt lat="30.61870003" lon="34.80176544"><ele>836.8</ele><time>2013-11-23T05:41:39.0000000+00:00</time></trkpt><trkpt lat="30.61870003" lon="34.80176544"><ele>836.8</ele><time>2013-11-23T05:41:44.0000000+00:00</time></trkpt><trkpt lat="30.61870003" lon="34.80176544"><ele>836.8</ele><time>2013-11-23T05:41:49.0000000+00:00</time></trkpt><trkpt lat="30.61870003" lon="34.80176163"><ele>836.8</ele><time>2013-11-23T05:41:54.0000000+00:00</time></trkpt><trkpt lat="30.61869812" lon="34.80176163"><ele>836.9</ele><time>2013-11-23T05:41:59.0000000+00:00</time></trkpt><trkpt lat="30.61869812" lon="34.80176163"><ele>836.9</ele><time>2013-11-23T05:42:04.0000000+00:00</time></trkpt><trkpt lat="30.61869812" lon="34.80176163"><ele>836.9</ele><time>2013-11-23T05:42:09.0000000+00:00</time></trkpt><trkpt lat="30.61869812" lon="34.80176163"><ele>837.0</ele><time>2013-11-23T05:42:14.0000000+00:00</time></trkpt><trkpt lat="30.61869812" lon="34.80176163"><ele>837.0</ele><time>2013-11-23T05:42:19.0000000+00:00</time></trkpt><trkpt lat="30.61869812" lon="34.80175781"><ele>837.0</ele><time>2013-11-23T05:42:24.0000000+00:00</time></trkpt><trkpt lat="30.61869812" lon="34.80175781"><ele>837.0</ele><time>2013-11-23T05:42:29.0000000+00:00</time></trkpt><trkpt lat="30.61869812" lon="34.80175781"><ele>837.0</ele><time>2013-11-23T05:42:34.0000000+00:00</time></trkpt><trkpt lat="30.61869812" lon="34.80175781"><ele>837.1</ele><time>2013-11-23T05:42:39.0000000+00:00</time></trkpt><trkpt lat="30.61869812" lon="34.80175781"><ele>837.1</ele><time>2013-11-23T05:42:44.0000000+00:00</time></trkpt><trkpt lat="30.61869812" lon="34.80175781"><ele>837.1</ele><time>2013-11-23T05:42:49.0000000+00:00</time></trkpt><trkpt lat="30.61869812" lon="34.80175781"><ele>837.1</ele><time>2013-11-23T05:42:54.0000000+00:00</time></trkpt><trkpt lat="30.61869812" lon="34.80175781"><ele>837.1</ele><time>2013-11-23T05:42:59.0000000+00:00</time></trkpt><trkpt lat="30.61869812" lon="34.80175781"><ele>837.1</ele><time>2013-11-23T05:43:04.0000000+00:00</time></trkpt><trkpt lat="30.61869812" lon="34.80175781"><ele>837.1</ele><time>2013-11-23T05:43:09.0000000+00:00</time></trkpt><trkpt lat="30.61869812" lon="34.80175781"><ele>837.1</ele><time>2013-11-23T05:43:14.0000000+00:00</time></trkpt><trkpt lat="30.61869621" lon="34.80175781"><ele>837.2</ele><time>2013-11-23T05:43:19.0000000+00:00</time></trkpt><trkpt lat="30.61869621" lon="34.80175781"><ele>837.2</ele><time>2013-11-23T05:43:24.0000000+00:00</time></trkpt><trkpt lat="30.61869621" lon="34.801754"><ele>837.2</ele><time>2013-11-23T05:43:29.0000000+00:00</time></trkpt><trkpt lat="30.61869621" lon="34.801754"><ele>837.2</ele><time>2013-11-23T05:43:34.0000000+00:00</time></trkpt><trkpt lat="30.61869431" lon="34.801754"><ele>837.2</ele><time>2013-11-23T05:43:39.0000000+00:00</time></trkpt><trkpt lat="30.6186924" lon="34.801754"><ele>837.1</ele><time>2013-11-23T05:43:44.0000000+00:00</time></trkpt><trkpt lat="30.61868286" lon="34.801754"><ele>837.2</ele><time>2013-11-23T05:43:49.0000000+00:00</time></trkpt><trkpt lat="30.61865997" lon="34.80173492"><ele>837.3</ele><time>2013-11-23T05:43:54.0000000+00:00</time></trkpt><trkpt lat="30.61861992" lon="34.80165863"><ele>837.6</ele><time>2013-11-23T05:43:59.0000000+00:00</time></trkpt><trkpt lat="30.6186142" lon="34.80158234"><ele>837.6</ele><time>2013-11-23T05:44:04.0000000+00:00</time></trkpt><trkpt lat="30.61859322" lon="34.80158615"><ele>837.0</ele><time>2013-11-23T05:44:09.0000000+00:00</time></trkpt><trkpt lat="30.61859131" lon="34.80158234"><ele>836.1</ele><time>2013-11-23T05:44:14.0000000+00:00</time></trkpt><trkpt lat="30.6185894" lon="34.80158234"><ele>835.4</ele><time>2013-11-23T05:44:19.0000000+00:00</time></trkpt><trkpt lat="30.61858559" lon="34.80158615"><ele>834.7</ele><time>2013-11-23T05:44:24.0000000+00:00</time></trkpt><trkpt lat="30.61858559" lon="34.80158997"><ele>834.0</ele><time>2013-11-23T05:44:29.0000000+00:00</time></trkpt><trkpt lat="30.61859322" lon="34.80159378"><ele>833.3</ele><time>2013-11-23T05:44:34.0000000+00:00</time></trkpt><trkpt lat="30.61859703" lon="34.80159378"><ele>832.7</ele><time>2013-11-23T05:44:39.0000000+00:00</time></trkpt><trkpt lat="30.61860466" lon="34.80159378"><ele>832.0</ele><time>2013-11-23T05:44:44.0000000+00:00</time></trkpt><trkpt lat="30.61861229" lon="34.80158997"><ele>831.3</ele><time>2013-11-23T05:44:49.0000000+00:00</time></trkpt><trkpt lat="30.61861992" lon="34.80158615"><ele>830.7</ele><time>2013-11-23T05:44:54.0000000+00:00</time></trkpt><trkpt lat="30.61862755" lon="34.80158234"><ele>830.2</ele><time>2013-11-23T05:44:59.0000000+00:00</time></trkpt><trkpt lat="30.61863327" lon="34.80158234"><ele>829.6</ele><time>2013-11-23T05:45:04.0000000+00:00</time></trkpt><trkpt lat="30.61863709" lon="34.80158234"><ele>829.1</ele><time>2013-11-23T05:45:09.0000000+00:00</time></trkpt><trkpt lat="30.6186409" lon="34.80158615"><ele>828.7</ele><time>2013-11-23T05:45:14.0000000+00:00</time></trkpt><trkpt lat="30.61864281" lon="34.80158615"><ele>828.3</ele><time>2013-11-23T05:45:19.0000000+00:00</time></trkpt><trkpt lat="30.6186409" lon="34.80157852"><ele>828.2</ele><time>2013-11-23T05:45:24.0000000+00:00</time></trkpt><trkpt lat="30.61862564" lon="34.80155182"><ele>829.0</ele><time>2013-11-23T05:45:29.0000000+00:00</time></trkpt><trkpt lat="30.6186161" lon="34.80152893"><ele>829.7</ele><time>2013-11-23T05:45:34.0000000+00:00</time></trkpt><trkpt lat="30.61859322" lon="34.80152512"><ele>831.6</ele><time>2013-11-23T05:45:39.0000000+00:00</time></trkpt><trkpt lat="30.61857414" lon="34.80150986"><ele>833.5</ele><time>2013-11-23T05:45:44.0000000+00:00</time></trkpt><trkpt lat="30.6185627" lon="34.80150223"><ele>834.5</ele><time>2013-11-23T05:45:49.0000000+00:00</time></trkpt><trkpt lat="30.61852837" lon="34.80151749"><ele>837.8</ele><time>2013-11-23T05:45:54.0000000+00:00</time></trkpt><trkpt lat="30.61849403" lon="34.8015213"><ele>840.4</ele><time>2013-11-23T05:45:59.0000000+00:00</time></trkpt><trkpt lat="30.61849976" lon="34.8015213"><ele>840.7</ele><time>2013-11-23T05:46:04.0000000+00:00</time></trkpt><trkpt lat="30.61849403" lon="34.80152512"><ele>841.5</ele><time>2013-11-23T05:46:09.0000000+00:00</time></trkpt><trkpt lat="30.61849403" lon="34.80152512"><ele>842.0</ele><time>2013-11-23T05:46:14.0000000+00:00</time></trkpt><trkpt lat="30.61849213" lon="34.80152512"><ele>842.5</ele><time>2013-11-23T05:46:19.0000000+00:00</time></trkpt><trkpt lat="30.61848831" lon="34.80152893"><ele>843.1</ele><time>2013-11-23T05:46:24.0000000+00:00</time></trkpt><trkpt lat="30.61848259" lon="34.80152893"><ele>843.9</ele><time>2013-11-23T05:46:29.0000000+00:00</time></trkpt><trkpt lat="30.61847687" lon="34.80152893"><ele>844.9</ele><time>2013-11-23T05:46:34.0000000+00:00</time></trkpt><trkpt lat="30.61847305" lon="34.80153275"><ele>845.7</ele><time>2013-11-23T05:46:39.0000000+00:00</time></trkpt><trkpt lat="30.61847115" lon="34.80153656"><ele>846.4</ele><time>2013-11-23T05:46:44.0000000+00:00</time></trkpt><trkpt lat="30.61847115" lon="34.80153656"><ele>847.0</ele><time>2013-11-23T05:46:49.0000000+00:00</time></trkpt><trkpt lat="30.61847305" lon="34.80154419"><ele>847.7</ele><time>2013-11-23T05:46:54.0000000+00:00</time></trkpt><trkpt lat="30.61847687" lon="34.801548"><ele>848.5</ele><time>2013-11-23T05:46:59.0000000+00:00</time></trkpt><trkpt lat="30.61848068" lon="34.801548"><ele>849.1</ele><time>2013-11-23T05:47:04.0000000+00:00</time></trkpt><trkpt lat="30.6184864" lon="34.80155182"><ele>849.5</ele><time>2013-11-23T05:47:09.0000000+00:00</time></trkpt><trkpt lat="30.61849022" lon="34.80155945"><ele>849.6</ele><time>2013-11-23T05:47:14.0000000+00:00</time></trkpt><trkpt lat="30.61850357" lon="34.80157089"><ele>849.9</ele><time>2013-11-23T05:47:19.0000000+00:00</time></trkpt><trkpt lat="30.61851502" lon="34.80158234"><ele>849.9</ele><time>2013-11-23T05:47:24.0000000+00:00</time></trkpt><trkpt lat="30.61851311" lon="34.80160141"><ele>849.1</ele><time>2013-11-23T05:47:29.0000000+00:00</time></trkpt><trkpt lat="30.61850357" lon="34.80160523"><ele>849.1</ele><time>2013-11-23T05:47:34.0000000+00:00</time></trkpt><trkpt lat="30.61850929" lon="34.80160141"><ele>849.0</ele><time>2013-11-23T05:47:39.0000000+00:00</time></trkpt><trkpt lat="30.6185112" lon="34.80160523"><ele>848.9</ele><time>2013-11-23T05:47:44.0000000+00:00</time></trkpt><trkpt lat="30.61851502" lon="34.80160523"><ele>849.0</ele><time>2013-11-23T05:47:49.0000000+00:00</time></trkpt><trkpt lat="30.61851883" lon="34.80160141"><ele>849.0</ele><time>2013-11-23T05:47:54.0000000+00:00</time></trkpt><trkpt lat="30.61852646" lon="34.80159378"><ele>849.2</ele><time>2013-11-23T05:47:59.0000000+00:00</time></trkpt><trkpt lat="30.61853409" lon="34.80158615"><ele>849.4</ele><time>2013-11-23T05:48:04.0000000+00:00</time></trkpt><trkpt lat="30.61854172" lon="34.80158234"><ele>849.5</ele><time>2013-11-23T05:48:09.0000000+00:00</time></trkpt><trkpt lat="30.61854935" lon="34.80157471"><ele>849.7</ele><time>2013-11-23T05:48:14.0000000+00:00</time></trkpt><trkpt lat="30.61855507" lon="34.80157089"><ele>849.8</ele><time>2013-11-23T05:48:19.0000000+00:00</time></trkpt><trkpt lat="30.61855507" lon="34.80157089"><ele>850.0</ele><time>2013-11-23T05:48:24.0000000+00:00</time></trkpt><trkpt lat="30.61855888" lon="34.80156708"><ele>850.1</ele><time>2013-11-23T05:48:29.0000000+00:00</time></trkpt><trkpt lat="30.61855888" lon="34.80156708"><ele>850.1</ele><time>2013-11-23T05:48:34.0000000+00:00</time></trkpt><trkpt lat="30.61856079" lon="34.80156708"><ele>850.1</ele><time>2013-11-23T05:48:39.0000000+00:00</time></trkpt><trkpt lat="30.61856079" lon="34.80156708"><ele>850.0</ele><time>2013-11-23T05:48:44.0000000+00:00</time></trkpt><trkpt lat="30.61856079" lon="34.80156708"><ele>850.0</ele><time>2013-11-23T05:48:49.0000000+00:00</time></trkpt><trkpt lat="30.61856079" lon="34.80156708"><ele>850.0</ele><time>2013-11-23T05:48:54.0000000+00:00</time></trkpt><trkpt lat="30.61856079" lon="34.80156708"><ele>850.0</ele><time>2013-11-23T05:48:59.0000000+00:00</time></trkpt><trkpt lat="30.61856079" lon="34.80156708"><ele>850.0</ele><time>2013-11-23T05:49:04.0000000+00:00</time></trkpt><trkpt lat="30.61856079" lon="34.80156708"><ele>850.0</ele><time>2013-11-23T05:49:09.0000000+00:00</time></trkpt><trkpt lat="30.61856079" lon="34.80156708"><ele>850.0</ele><time>2013-11-23T05:49:14.0000000+00:00</time></trkpt><trkpt lat="30.61856079" lon="34.80156708"><ele>850.0</ele><time>2013-11-23T05:49:19.0000000+00:00</time></trkpt><trkpt lat="30.61856079" lon="34.80156708"><ele>850.0</ele><time>2013-11-23T05:49:24.0000000+00:00</time></trkpt><trkpt lat="30.61856079" lon="34.80156708"><ele>850.0</ele><time>2013-11-23T05:49:29.0000000+00:00</time></trkpt><trkpt lat="30.61856079" lon="34.80156708"><ele>850.0</ele><time>2013-11-23T05:49:34.0000000+00:00</time></trkpt><trkpt lat="30.61856079" lon="34.80156708"><ele>850.0</ele><time>2013-11-23T05:49:39.0000000+00:00</time></trkpt><trkpt lat="30.61855888" lon="34.80156708"><ele>849.9</ele><time>2013-11-23T05:49:44.0000000+00:00</time></trkpt><trkpt lat="30.61856079" lon="34.80158234"><ele>848.7</ele><time>2013-11-23T05:49:49.0000000+00:00</time></trkpt><trkpt lat="30.61855125" lon="34.80168152"><ele>847.1</ele><time>2013-11-23T05:49:54.0000000+00:00</time></trkpt><trkpt lat="30.61855125" lon="34.80173111"><ele>846.6</ele><time>2013-11-23T05:49:59.0000000+00:00</time></trkpt><trkpt lat="30.618536" lon="34.80166626"><ele>847.4</ele><time>2013-11-23T05:50:04.0000000+00:00</time></trkpt><trkpt lat="30.618536" lon="34.80150986"><ele>847.0</ele><time>2013-11-23T05:50:09.0000000+00:00</time></trkpt><trkpt lat="30.61850739" lon="34.80130768"><ele>846.9</ele><time>2013-11-23T05:50:14.0000000+00:00</time></trkpt><trkpt lat="30.61850357" lon="34.80105209"><ele>845.1</ele><time>2013-11-23T05:50:19.0000000+00:00</time></trkpt><trkpt lat="30.61849213" lon="34.80077362"><ele>844.2</ele><time>2013-11-23T05:50:24.0000000+00:00</time></trkpt><trkpt lat="30.61843872" lon="34.80052948"><ele>843.1</ele><time>2013-11-23T05:50:29.0000000+00:00</time></trkpt><trkpt lat="30.6183033" lon="34.80040741"><ele>841.1</ele><time>2013-11-23T05:50:34.0000000+00:00</time></trkpt><trkpt lat="30.61813164" lon="34.80049515"><ele>838.8</ele><time>2013-11-23T05:50:39.0000000+00:00</time></trkpt><trkpt lat="30.61795425" lon="34.80057526"><ele>837.2</ele><time>2013-11-23T05:50:44.0000000+00:00</time></trkpt><trkpt lat="30.61781883" lon="34.80061722"><ele>836.0</ele><time>2013-11-23T05:50:49.0000000+00:00</time></trkpt><trkpt lat="30.61766434" lon="34.80062103"><ele>834.0</ele><time>2013-11-23T05:50:54.0000000+00:00</time></trkpt><trkpt lat="30.61748886" lon="34.8006134"><ele>832.1</ele><time>2013-11-23T05:50:59.0000000+00:00</time></trkpt><trkpt lat="30.61730003" lon="34.8005867"><ele>830.5</ele><time>2013-11-23T05:51:04.0000000+00:00</time></trkpt><trkpt lat="30.61709976" lon="34.80056"><ele>829.7</ele><time>2013-11-23T05:51:09.0000000+00:00</time></trkpt><trkpt lat="30.61688995" lon="34.80051422"><ele>829.2</ele><time>2013-11-23T05:51:14.0000000+00:00</time></trkpt><trkpt lat="30.61673164" lon="34.80046082"><ele>829.2</ele><time>2013-11-23T05:51:19.0000000+00:00</time></trkpt><trkpt lat="30.61660767" lon="34.80053711"><ele>829.9</ele><time>2013-11-23T05:51:24.0000000+00:00</time></trkpt><trkpt lat="30.61652565" lon="34.80068207"><ele>831.2</ele><time>2013-11-23T05:51:29.0000000+00:00</time></trkpt><trkpt lat="30.61650848" lon="34.80083084"><ele>832.5</ele><time>2013-11-23T05:51:34.0000000+00:00</time></trkpt><trkpt lat="30.61647606" lon="34.80097961"><ele>832.7</ele><time>2013-11-23T05:51:39.0000000+00:00</time></trkpt><trkpt lat="30.61643601" lon="34.80118942"><ele>832.4</ele><time>2013-11-23T05:51:44.0000000+00:00</time></trkpt><trkpt lat="30.61639786" lon="34.80140305"><ele>832.6</ele><time>2013-11-23T05:51:49.0000000+00:00</time></trkpt><trkpt lat="30.61637497" lon="34.80162811"><ele>832.6</ele><time>2013-11-23T05:51:54.0000000+00:00</time></trkpt><trkpt lat="30.61634064" lon="34.801857"><ele>833.0</ele><time>2013-11-23T05:51:59.0000000+00:00</time></trkpt><trkpt lat="30.61631393" lon="34.80207825"><ele>833.3</ele><time>2013-11-23T05:52:04.0000000+00:00</time></trkpt><trkpt lat="30.61628914" lon="34.80230713"><ele>833.3</ele><time>2013-11-23T05:52:09.0000000+00:00</time></trkpt><trkpt lat="30.6162796" lon="34.8025322"><ele>833.8</ele><time>2013-11-23T05:52:14.0000000+00:00</time></trkpt><trkpt lat="30.61627007" lon="34.80278397"><ele>833.5</ele><time>2013-11-23T05:52:19.0000000+00:00</time></trkpt><trkpt lat="30.61625862" lon="34.803051"><ele>833.0</ele><time>2013-11-23T05:52:24.0000000+00:00</time></trkpt><trkpt lat="30.61624527" lon="34.80331802"><ele>832.8</ele><time>2013-11-23T05:52:29.0000000+00:00</time></trkpt><trkpt lat="30.61608505" lon="34.80344009"><ele>832.8</ele><time>2013-11-23T05:52:34.0000000+00:00</time></trkpt><trkpt lat="30.61586189" lon="34.80342865"><ele>831.3</ele><time>2013-11-23T05:52:39.0000000+00:00</time></trkpt><trkpt lat="30.61562347" lon="34.80341721"><ele>830.5</ele><time>2013-11-23T05:52:44.0000000+00:00</time></trkpt><trkpt lat="30.61540031" lon="34.80339432"><ele>830.1</ele><time>2013-11-23T05:52:49.0000000+00:00</time></trkpt><trkpt lat="30.61519814" lon="34.80338287"><ele>829.0</ele><time>2013-11-23T05:52:54.0000000+00:00</time></trkpt><trkpt lat="30.61499596" lon="34.80339813"><ele>827.9</ele><time>2013-11-23T05:52:59.0000000+00:00</time></trkpt><trkpt lat="30.61481094" lon="34.80340576"><ele>826.6</ele><time>2013-11-23T05:53:04.0000000+00:00</time></trkpt><trkpt lat="30.61461639" lon="34.80340958"><ele>825.1</ele><time>2013-11-23T05:53:09.0000000+00:00</time></trkpt><trkpt lat="30.61441612" lon="34.80343247"><ele>824.2</ele><time>2013-11-23T05:53:14.0000000+00:00</time></trkpt><trkpt lat="30.61421585" lon="34.80345917"><ele>823.1</ele><time>2013-11-23T05:53:19.0000000+00:00</time></trkpt><trkpt lat="30.61400986" lon="34.80351257"><ele>822.7</ele><time>2013-11-23T05:53:24.0000000+00:00</time></trkpt><trkpt lat="30.61379433" lon="34.80357361"><ele>821.9</ele><time>2013-11-23T05:53:29.0000000+00:00</time></trkpt><trkpt lat="30.61359787" lon="34.80363846"><ele>821.5</ele><time>2013-11-23T05:53:34.0000000+00:00</time></trkpt><trkpt lat="30.61344338" lon="34.80374146"><ele>822.9</ele><time>2013-11-23T05:53:39.0000000+00:00</time></trkpt><trkpt lat="30.61325645" lon="34.80379486"><ele>822.9</ele><time>2013-11-23T05:53:44.0000000+00:00</time></trkpt><trkpt lat="30.61307144" lon="34.80373001"><ele>823.8</ele><time>2013-11-23T05:53:49.0000000+00:00</time></trkpt><trkpt lat="30.61291313" lon="34.80365372"><ele>824.3</ele><time>2013-11-23T05:53:54.0000000+00:00</time></trkpt><trkpt lat="30.61277199" lon="34.80368042"><ele>824.4</ele><time>2013-11-23T05:53:59.0000000+00:00</time></trkpt><trkpt lat="30.61266136" lon="34.80377197"><ele>825.0</ele><time>2013-11-23T05:54:04.0000000+00:00</time></trkpt><trkpt lat="30.61260605" lon="34.80387497"><ele>825.8</ele><time>2013-11-23T05:54:09.0000000+00:00</time></trkpt><trkpt lat="30.61255455" lon="34.804039"><ele>826.3</ele><time>2013-11-23T05:54:14.0000000+00:00</time></trkpt><trkpt lat="30.61245537" lon="34.80416489"><ele>827.2</ele><time>2013-11-23T05:54:19.0000000+00:00</time></trkpt><trkpt lat="30.61234856" lon="34.80422974"><ele>828.6</ele><time>2013-11-23T05:54:24.0000000+00:00</time></trkpt><trkpt lat="30.61227417" lon="34.80426025"><ele>828.6</ele><time>2013-11-23T05:54:29.0000000+00:00</time></trkpt><trkpt lat="30.61223221" lon="34.8042984"><ele>829.0</ele><time>2013-11-23T05:54:34.0000000+00:00</time></trkpt><trkpt lat="30.61222839" lon="34.80441666"><ele>829.7</ele><time>2013-11-23T05:54:39.0000000+00:00</time></trkpt><trkpt lat="30.61227608" lon="34.80452347"><ele>829.6</ele><time>2013-11-23T05:54:44.0000000+00:00</time></trkpt><trkpt lat="30.61237717" lon="34.80463028"><ele>829.6</ele><time>2013-11-23T05:54:49.0000000+00:00</time></trkpt><trkpt lat="30.61246491" lon="34.80467606"><ele>830.1</ele><time>2013-11-23T05:54:54.0000000+00:00</time></trkpt><trkpt lat="30.61248779" lon="34.80470657"><ele>830.3</ele><time>2013-11-23T05:54:59.0000000+00:00</time></trkpt><trkpt lat="30.61248398" lon="34.8047142"><ele>830.8</ele><time>2013-11-23T05:55:04.0000000+00:00</time></trkpt><trkpt lat="30.61248207" lon="34.80470276"><ele>832.6</ele><time>2013-11-23T05:55:09.0000000+00:00</time></trkpt><trkpt lat="30.61247063" lon="34.8046875"><ele>833.5</ele><time>2013-11-23T05:55:14.0000000+00:00</time></trkpt><trkpt lat="30.61245537" lon="34.80466843"><ele>835.0</ele><time>2013-11-23T05:55:19.0000000+00:00</time></trkpt><trkpt lat="30.61246872" lon="34.8046875"><ele>836.0</ele><time>2013-11-23T05:55:24.0000000+00:00</time></trkpt><trkpt lat="30.61246681" lon="34.80468369"><ele>836.0</ele><time>2013-11-23T05:55:29.0000000+00:00</time></trkpt><trkpt lat="30.61246491" lon="34.80467987"><ele>836.0</ele><time>2013-11-23T05:55:34.0000000+00:00</time></trkpt><trkpt lat="30.612463" lon="34.80467606"><ele>836.0</ele><time>2013-11-23T05:55:39.0000000+00:00</time></trkpt><trkpt lat="30.61245918" lon="34.80467224"><ele>836.1</ele><time>2013-11-23T05:55:44.0000000+00:00</time></trkpt><trkpt lat="30.61245918" lon="34.80467224"><ele>836.3</ele><time>2013-11-23T05:55:49.0000000+00:00</time></trkpt><trkpt lat="30.61245537" lon="34.80467224"><ele>836.5</ele><time>2013-11-23T05:55:54.0000000+00:00</time></trkpt><trkpt lat="30.61245346" lon="34.80466843"><ele>837.0</ele><time>2013-11-23T05:55:59.0000000+00:00</time></trkpt><trkpt lat="30.61244965" lon="34.80466461"><ele>837.5</ele><time>2013-11-23T05:56:04.0000000+00:00</time></trkpt><trkpt lat="30.61244583" lon="34.80466461"><ele>838.1</ele><time>2013-11-23T05:56:09.0000000+00:00</time></trkpt><trkpt lat="30.61244202" lon="34.8046608"><ele>838.9</ele><time>2013-11-23T05:56:14.0000000+00:00</time></trkpt><trkpt lat="30.6124382" lon="34.8046608"><ele>839.8</ele><time>2013-11-23T05:56:19.0000000+00:00</time></trkpt><trkpt lat="30.61243248" lon="34.80465698"><ele>840.8</ele><time>2013-11-23T05:56:24.0000000+00:00</time></trkpt><trkpt lat="30.61242485" lon="34.80464935"><ele>841.9</ele><time>2013-11-23T05:56:29.0000000+00:00</time></trkpt><trkpt lat="30.61241913" lon="34.80464935"><ele>843.0</ele><time>2013-11-23T05:56:34.0000000+00:00</time></trkpt><trkpt lat="30.61241341" lon="34.80464554"><ele>844.3</ele><time>2013-11-23T05:56:39.0000000+00:00</time></trkpt><trkpt lat="30.61240578" lon="34.80464172"><ele>845.6</ele><time>2013-11-23T05:56:44.0000000+00:00</time></trkpt><trkpt lat="30.61239815" lon="34.80463409"><ele>847.0</ele><time>2013-11-23T05:56:49.0000000+00:00</time></trkpt><trkpt lat="30.61238861" lon="34.80463028"><ele>848.3</ele><time>2013-11-23T05:56:54.0000000+00:00</time></trkpt><trkpt lat="30.61237907" lon="34.80462265"><ele>849.6</ele><time>2013-11-23T05:56:59.0000000+00:00</time></trkpt><trkpt lat="30.61237145" lon="34.80461502"><ele>850.8</ele><time>2013-11-23T05:57:04.0000000+00:00</time></trkpt><trkpt lat="30.61236572" lon="34.80461121"><ele>851.8</ele><time>2013-11-23T05:57:09.0000000+00:00</time></trkpt><trkpt lat="30.61236" lon="34.80460739"><ele>852.6</ele><time>2013-11-23T05:57:14.0000000+00:00</time></trkpt><trkpt lat="30.61235428" lon="34.80459976"><ele>853.3</ele><time>2013-11-23T05:57:19.0000000+00:00</time></trkpt><trkpt lat="30.61234856" lon="34.80459595"><ele>853.8</ele><time>2013-11-23T05:57:24.0000000+00:00</time></trkpt><trkpt lat="30.61234474" lon="34.80459213"><ele>854.3</ele><time>2013-11-23T05:57:29.0000000+00:00</time></trkpt><trkpt lat="30.61234093" lon="34.8045845"><ele>854.7</ele><time>2013-11-23T05:57:34.0000000+00:00</time></trkpt><trkpt lat="30.61233711" lon="34.8045845"><ele>855.2</ele><time>2013-11-23T05:57:39.0000000+00:00</time></trkpt><trkpt lat="30.61233521" lon="34.80458069"><ele>855.6</ele><time>2013-11-23T05:57:44.0000000+00:00</time></trkpt><trkpt lat="30.6123333" lon="34.80458069"><ele>856.1</ele><time>2013-11-23T05:57:49.0000000+00:00</time></trkpt><trkpt lat="30.61233139" lon="34.80458069"><ele>856.5</ele><time>2013-11-23T05:57:54.0000000+00:00</time></trkpt><trkpt lat="30.61233139" lon="34.80458069"><ele>857.0</ele><time>2013-11-23T05:57:59.0000000+00:00</time></trkpt><trkpt lat="30.61232948" lon="34.80458069"><ele>857.5</ele><time>2013-11-23T05:58:04.0000000+00:00</time></trkpt><trkpt lat="30.61232758" lon="34.80458069"><ele>858.0</ele><time>2013-11-23T05:58:09.0000000+00:00</time></trkpt><trkpt lat="30.61232758" lon="34.80458069"><ele>858.5</ele><time>2013-11-23T05:58:14.0000000+00:00</time></trkpt><trkpt lat="30.61232567" lon="34.80458069"><ele>859.0</ele><time>2013-11-23T05:58:19.0000000+00:00</time></trkpt><trkpt lat="30.61232376" lon="34.80458069"><ele>859.5</ele><time>2013-11-23T05:58:24.0000000+00:00</time></trkpt><trkpt lat="30.61232185" lon="34.80458069"><ele>860.1</ele><time>2013-11-23T05:58:29.0000000+00:00</time></trkpt><trkpt lat="30.61231995" lon="34.80457687"><ele>860.7</ele><time>2013-11-23T05:58:34.0000000+00:00</time></trkpt><trkpt lat="30.61231613" lon="34.80457687"><ele>861.3</ele><time>2013-11-23T05:58:39.0000000+00:00</time></trkpt><trkpt lat="30.61231232" lon="34.80457306"><ele>861.8</ele><time>2013-11-23T05:58:44.0000000+00:00</time></trkpt><trkpt lat="30.61231041" lon="34.80457306"><ele>862.3</ele><time>2013-11-23T05:58:49.0000000+00:00</time></trkpt><trkpt lat="30.6123085" lon="34.80456924"><ele>862.8</ele><time>2013-11-23T05:58:54.0000000+00:00</time></trkpt><trkpt lat="30.61230469" lon="34.80456924"><ele>863.3</ele><time>2013-11-23T05:58:59.0000000+00:00</time></trkpt><trkpt lat="30.61230278" lon="34.80456543"><ele>863.8</ele><time>2013-11-23T05:59:04.0000000+00:00</time></trkpt><trkpt lat="30.61230087" lon="34.80456543"><ele>864.3</ele><time>2013-11-23T05:59:09.0000000+00:00</time></trkpt><trkpt lat="30.61229706" lon="34.80456162"><ele>864.7</ele><time>2013-11-23T05:59:14.0000000+00:00</time></trkpt><trkpt lat="30.61229515" lon="34.80456162"><ele>865.2</ele><time>2013-11-23T05:59:19.0000000+00:00</time></trkpt><trkpt lat="30.61229324" lon="34.80456162"><ele>865.5</ele><time>2013-11-23T05:59:24.0000000+00:00</time></trkpt><trkpt lat="30.61229134" lon="34.80456162"><ele>865.9</ele><time>2013-11-23T05:59:29.0000000+00:00</time></trkpt><trkpt lat="30.61229134" lon="34.80456543"><ele>866.3</ele><time>2013-11-23T05:59:34.0000000+00:00</time></trkpt><trkpt lat="30.61228943" lon="34.80456162"><ele>866.7</ele><time>2013-11-23T05:59:39.0000000+00:00</time></trkpt><trkpt lat="30.61228371" lon="34.8045578"><ele>867.0</ele><time>2013-11-23T05:59:44.0000000+00:00</time></trkpt><trkpt lat="30.61227608" lon="34.80454254"><ele>867.4</ele><time>2013-11-23T05:59:49.0000000+00:00</time></trkpt><trkpt lat="30.612257" lon="34.80451202"><ele>868.1</ele><time>2013-11-23T05:59:54.0000000+00:00</time></trkpt><trkpt lat="30.61223412" lon="34.80448532"><ele>869.0</ele><time>2013-11-23T05:59:59.0000000+00:00</time></trkpt><trkpt lat="30.61222649" lon="34.80447769"><ele>869.7</ele><time>2013-11-23T06:00:04.0000000+00:00</time></trkpt><trkpt lat="30.61222267" lon="34.80447388"><ele>870.0</ele><time>2013-11-23T06:00:09.0000000+00:00</time></trkpt><trkpt lat="30.61221886" lon="34.80447006"><ele>870.4</ele><time>2013-11-23T06:00:14.0000000+00:00</time></trkpt><trkpt lat="30.61221504" lon="34.80446625"><ele>870.8</ele><time>2013-11-23T06:00:19.0000000+00:00</time></trkpt><trkpt lat="30.61221123" lon="34.80446625"><ele>871.2</ele><time>2013-11-23T06:00:24.0000000+00:00</time></trkpt><trkpt lat="30.61220932" lon="34.80446625"><ele>871.6</ele><time>2013-11-23T06:00:29.0000000+00:00</time></trkpt><trkpt lat="30.61220551" lon="34.80446625"><ele>872.1</ele><time>2013-11-23T06:00:34.0000000+00:00</time></trkpt><trkpt lat="30.61220551" lon="34.80446625"><ele>872.5</ele><time>2013-11-23T06:00:39.0000000+00:00</time></trkpt><trkpt lat="30.61220551" lon="34.80447006"><ele>872.4</ele><time>2013-11-23T06:00:44.0000000+00:00</time></trkpt><trkpt lat="30.61220551" lon="34.80447006"><ele>872.4</ele><time>2013-11-23T06:00:49.0000000+00:00</time></trkpt><trkpt lat="30.61220551" lon="34.80447006"><ele>872.4</ele><time>2013-11-23T06:00:54.0000000+00:00</time></trkpt><trkpt lat="30.61220741" lon="34.80447006"><ele>872.4</ele><time>2013-11-23T06:00:59.0000000+00:00</time></trkpt><trkpt lat="30.61220741" lon="34.80447006"><ele>872.4</ele><time>2013-11-23T06:01:04.0000000+00:00</time></trkpt><trkpt lat="30.61220741" lon="34.80447006"><ele>872.4</ele><time>2013-11-23T06:01:09.0000000+00:00</time></trkpt><trkpt lat="30.61220741" lon="34.80447006"><ele>872.4</ele><time>2013-11-23T06:01:14.0000000+00:00</time></trkpt><trkpt lat="30.61220741" lon="34.80447006"><ele>872.4</ele><time>2013-11-23T06:01:19.0000000+00:00</time></trkpt><trkpt lat="30.61220741" lon="34.80447388"><ele>872.4</ele><time>2013-11-23T06:01:24.0000000+00:00</time></trkpt><trkpt lat="30.61220741" lon="34.80447388"><ele>872.4</ele><time>2013-11-23T06:01:29.0000000+00:00</time></trkpt><trkpt lat="30.61220741" lon="34.80447388"><ele>872.5</ele><time>2013-11-23T06:01:34.0000000+00:00</time></trkpt><trkpt lat="30.61220741" lon="34.80447388"><ele>872.5</ele><time>2013-11-23T06:01:39.0000000+00:00</time></trkpt><trkpt lat="30.61220741" lon="34.80447388"><ele>872.5</ele><time>2013-11-23T06:01:44.0000000+00:00</time></trkpt><trkpt lat="30.61220741" lon="34.80447388"><ele>872.6</ele><time>2013-11-23T06:01:49.0000000+00:00</time></trkpt><trkpt lat="30.61220741" lon="34.80447769"><ele>872.6</ele><time>2013-11-23T06:01:54.0000000+00:00</time></trkpt><trkpt lat="30.61220741" lon="34.80447769"><ele>872.6</ele><time>2013-11-23T06:01:59.0000000+00:00</time></trkpt><trkpt lat="30.61220741" lon="34.80447769"><ele>872.6</ele><time>2013-11-23T06:02:04.0000000+00:00</time></trkpt><trkpt lat="30.61220741" lon="34.80447769"><ele>872.6</ele><time>2013-11-23T06:02:09.0000000+00:00</time></trkpt><trkpt lat="30.61220741" lon="34.80447769"><ele>872.6</ele><time>2013-11-23T06:02:14.0000000+00:00</time></trkpt><trkpt lat="30.61220741" lon="34.80447769"><ele>872.6</ele><time>2013-11-23T06:02:19.0000000+00:00</time></trkpt><trkpt lat="30.61220741" lon="34.80448151"><ele>872.6</ele><time>2013-11-23T06:02:24.0000000+00:00</time></trkpt><trkpt lat="30.61220741" lon="34.80448151"><ele>872.6</ele><time>2013-11-23T06:02:29.0000000+00:00</time></trkpt><trkpt lat="30.61220741" lon="34.80448151"><ele>872.6</ele><time>2013-11-23T06:02:34.0000000+00:00</time></trkpt><trkpt lat="30.61220741" lon="34.80448151"><ele>872.6</ele><time>2013-11-23T06:02:39.0000000+00:00</time></trkpt><trkpt lat="30.61220741" lon="34.80448151"><ele>872.6</ele><time>2013-11-23T06:02:44.0000000+00:00</time></trkpt><trkpt lat="30.61220741" lon="34.80448532"><ele>872.6</ele><time>2013-11-23T06:02:49.0000000+00:00</time></trkpt><trkpt lat="30.61220741" lon="34.80448532"><ele>872.5</ele><time>2013-11-23T06:02:54.0000000+00:00</time></trkpt><trkpt lat="30.61220932" lon="34.80448532"><ele>872.5</ele><time>2013-11-23T06:02:59.0000000+00:00</time></trkpt><trkpt lat="30.61220932" lon="34.80448914"><ele>872.5</ele><time>2013-11-23T06:03:04.0000000+00:00</time></trkpt><trkpt lat="30.61220932" lon="34.80448914"><ele>872.5</ele><time>2013-11-23T06:03:09.0000000+00:00</time></trkpt><trkpt lat="30.61220932" lon="34.80448914"><ele>872.5</ele><time>2013-11-23T06:03:14.0000000+00:00</time></trkpt><trkpt lat="30.61220932" lon="34.80448914"><ele>872.5</ele><time>2013-11-23T06:03:19.0000000+00:00</time></trkpt><trkpt lat="30.61220932" lon="34.80448914"><ele>872.4</ele><time>2013-11-23T06:03:24.0000000+00:00</time></trkpt><trkpt lat="30.61220932" lon="34.80448914"><ele>872.4</ele><time>2013-11-23T06:03:29.0000000+00:00</time></trkpt><trkpt lat="30.61220932" lon="34.80448914"><ele>872.3</ele><time>2013-11-23T06:03:34.0000000+00:00</time></trkpt><trkpt lat="30.61220932" lon="34.80448914"><ele>872.3</ele><time>2013-11-23T06:03:39.0000000+00:00</time></trkpt><trkpt lat="30.61220932" lon="34.80448914"><ele>872.3</ele><time>2013-11-23T06:03:44.0000000+00:00</time></trkpt><trkpt lat="30.61220932" lon="34.80448914"><ele>872.3</ele><time>2013-11-23T06:03:49.0000000+00:00</time></trkpt><trkpt lat="30.61220932" lon="34.80448914"><ele>872.3</ele><time>2013-11-23T06:03:54.0000000+00:00</time></trkpt><trkpt lat="30.61220932" lon="34.80448914"><ele>872.4</ele><time>2013-11-23T06:03:59.0000000+00:00</time></trkpt><trkpt lat="30.61220932" lon="34.80448914"><ele>872.3</ele><time>2013-11-23T06:04:04.0000000+00:00</time></trkpt><trkpt lat="30.61220932" lon="34.80448914"><ele>872.3</ele><time>2013-11-23T06:04:09.0000000+00:00</time></trkpt><trkpt lat="30.61220932" lon="34.80448914"><ele>872.3</ele><time>2013-11-23T06:04:14.0000000+00:00</time></trkpt><trkpt lat="30.61220932" lon="34.80448914"><ele>872.2</ele><time>2013-11-23T06:04:19.0000000+00:00</time></trkpt><trkpt lat="30.61220932" lon="34.80448914"><ele>872.2</ele><time>2013-11-23T06:04:24.0000000+00:00</time></trkpt><trkpt lat="30.61220741" lon="34.80448914"><ele>872.1</ele><time>2013-11-23T06:04:29.0000000+00:00</time></trkpt><trkpt lat="30.61220741" lon="34.80448914"><ele>872.2</ele><time>2013-11-23T06:04:34.0000000+00:00</time></trkpt><trkpt lat="30.61220741" lon="34.80448914"><ele>872.1</ele><time>2013-11-23T06:04:39.0000000+00:00</time></trkpt><trkpt lat="30.61220741" lon="34.80448914"><ele>872.1</ele><time>2013-11-23T06:04:44.0000000+00:00</time></trkpt><trkpt lat="30.61220741" lon="34.80449295"><ele>872.0</ele><time>2013-11-23T06:04:49.0000000+00:00</time></trkpt><trkpt lat="30.61220932" lon="34.80449295"><ele>871.9</ele><time>2013-11-23T06:04:54.0000000+00:00</time></trkpt><trkpt lat="30.61220932" lon="34.80449295"><ele>872.0</ele><time>2013-11-23T06:04:59.0000000+00:00</time></trkpt><trkpt lat="30.61220741" lon="34.80449295"><ele>872.0</ele><time>2013-11-23T06:05:04.0000000+00:00</time></trkpt><trkpt lat="30.61220741" lon="34.80449295"><ele>872.0</ele><time>2013-11-23T06:05:09.0000000+00:00</time></trkpt><trkpt lat="30.61220741" lon="34.80449295"><ele>872.0</ele><time>2013-11-23T06:05:14.0000000+00:00</time></trkpt><trkpt lat="30.61220932" lon="34.80449295"><ele>872.0</ele><time>2013-11-23T06:05:19.0000000+00:00</time></trkpt><trkpt lat="30.61220932" lon="34.80449295"><ele>872.0</ele><time>2013-11-23T06:05:24.0000000+00:00</time></trkpt><trkpt lat="30.61220932" lon="34.80449295"><ele>871.9</ele><time>2013-11-23T06:05:29.0000000+00:00</time></trkpt><trkpt lat="30.61220932" lon="34.80449295"><ele>871.9</ele><time>2013-11-23T06:05:34.0000000+00:00</time></trkpt><trkpt lat="30.61220932" lon="34.80449295"><ele>871.9</ele><time>2013-11-23T06:05:39.0000000+00:00</time></trkpt><trkpt lat="30.61220932" lon="34.80449295"><ele>871.9</ele><time>2013-11-23T06:05:44.0000000+00:00</time></trkpt><trkpt lat="30.61220932" lon="34.80449295"><ele>871.9</ele><time>2013-11-23T06:05:49.0000000+00:00</time></trkpt><trkpt lat="30.61220932" lon="34.80449295"><ele>871.9</ele><time>2013-11-23T06:05:54.0000000+00:00</time></trkpt><trkpt lat="30.61220932" lon="34.80449295"><ele>871.9</ele><time>2013-11-23T06:05:59.0000000+00:00</time></trkpt><trkpt lat="30.61220932" lon="34.80449295"><ele>871.9</ele><time>2013-11-23T06:06:04.0000000+00:00</time></trkpt><trkpt lat="30.61220932" lon="34.80449295"><ele>871.9</ele><time>2013-11-23T06:06:09.0000000+00:00</time></trkpt><trkpt lat="30.61220932" lon="34.80449295"><ele>871.9</ele><time>2013-11-23T06:06:14.0000000+00:00</time></trkpt><trkpt lat="30.61220932" lon="34.80449295"><ele>871.8</ele><time>2013-11-23T06:06:19.0000000+00:00</time></trkpt><trkpt lat="30.61220932" lon="34.80449295"><ele>871.8</ele><time>2013-11-23T06:06:24.0000000+00:00</time></trkpt><trkpt lat="30.61221123" lon="34.80449295"><ele>871.7</ele><time>2013-11-23T06:06:29.0000000+00:00</time></trkpt><trkpt lat="30.61221123" lon="34.80449295"><ele>871.7</ele><time>2013-11-23T06:06:34.0000000+00:00</time></trkpt><trkpt lat="30.61221123" lon="34.80449295"><ele>871.6</ele><time>2013-11-23T06:06:39.0000000+00:00</time></trkpt><trkpt lat="30.61221123" lon="34.80449295"><ele>871.5</ele><time>2013-11-23T06:06:44.0000000+00:00</time></trkpt><trkpt lat="30.61221123" lon="34.80449295"><ele>871.5</ele><time>2013-11-23T06:06:49.0000000+00:00</time></trkpt><trkpt lat="30.61221314" lon="34.80449677"><ele>871.4</ele><time>2013-11-23T06:06:54.0000000+00:00</time></trkpt><trkpt lat="30.61221314" lon="34.80449677"><ele>871.4</ele><time>2013-11-23T06:06:59.0000000+00:00</time></trkpt><trkpt lat="30.61221314" lon="34.80449677"><ele>871.4</ele><time>2013-11-23T06:07:04.0000000+00:00</time></trkpt><trkpt lat="30.61221314" lon="34.80449677"><ele>871.3</ele><time>2013-11-23T06:07:09.0000000+00:00</time></trkpt><trkpt lat="30.61221314" lon="34.80449295"><ele>871.2</ele><time>2013-11-23T06:07:14.0000000+00:00</time></trkpt><trkpt lat="30.61221314" lon="34.80449295"><ele>871.2</ele><time>2013-11-23T06:07:19.0000000+00:00</time></trkpt><trkpt lat="30.61226845" lon="34.8045311"><ele>870.1</ele><time>2013-11-23T06:07:24.0000000+00:00</time></trkpt><trkpt lat="30.61232948" lon="34.80458069"><ele>868.9</ele><time>2013-11-23T06:07:29.0000000+00:00</time></trkpt><trkpt lat="30.61232948" lon="34.80458069"><ele>868.8</ele><time>2013-11-23T06:07:34.0000000+00:00</time></trkpt><trkpt lat="30.61232948" lon="34.80458069"><ele>868.8</ele><time>2013-11-23T06:07:39.0000000+00:00</time></trkpt><trkpt lat="30.61232948" lon="34.80458069"><ele>868.8</ele><time>2013-11-23T06:07:44.0000000+00:00</time></trkpt><trkpt lat="30.61232948" lon="34.80458069"><ele>868.8</ele><time>2013-11-23T06:07:49.0000000+00:00</time></trkpt><trkpt lat="30.61232948" lon="34.80458069"><ele>868.7</ele><time>2013-11-23T06:07:54.0000000+00:00</time></trkpt><trkpt lat="30.61232758" lon="34.80454636"><ele>868.6</ele><time>2013-11-23T06:07:59.0000000+00:00</time></trkpt><trkpt lat="30.6123333" lon="34.80445099"><ele>868.3</ele><time>2013-11-23T06:08:04.0000000+00:00</time></trkpt><trkpt lat="30.61229515" lon="34.80443192"><ele>865.7</ele><time>2013-11-23T06:08:09.0000000+00:00</time></trkpt><trkpt lat="30.61222458" lon="34.80442047"><ele>863.5</ele><time>2013-11-23T06:08:14.0000000+00:00</time></trkpt><trkpt lat="30.61223221" lon="34.80438232"><ele>860.4</ele><time>2013-11-23T06:08:19.0000000+00:00</time></trkpt><trkpt lat="30.6122818" lon="34.80432129"><ele>858.6</ele><time>2013-11-23T06:08:24.0000000+00:00</time></trkpt><trkpt lat="30.61242867" lon="34.8042717"><ele>856.8</ele><time>2013-11-23T06:08:29.0000000+00:00</time></trkpt><trkpt lat="30.61266518" lon="34.80434418"><ele>855.0</ele><time>2013-11-23T06:08:34.0000000+00:00</time></trkpt><trkpt lat="30.61289787" lon="34.80443192"><ele>854.0</ele><time>2013-11-23T06:08:39.0000000+00:00</time></trkpt><trkpt lat="30.61310005" lon="34.80433655"><ele>852.5</ele><time>2013-11-23T06:08:44.0000000+00:00</time></trkpt><trkpt lat="30.61320114" lon="34.80408478"><ele>848.8</ele><time>2013-11-23T06:08:49.0000000+00:00</time></trkpt><trkpt lat="30.61313438" lon="34.80382919"><ele>847.2</ele><time>2013-11-23T06:08:54.0000000+00:00</time></trkpt><trkpt lat="30.61300659" lon="34.80370712"><ele>846.9</ele><time>2013-11-23T06:08:59.0000000+00:00</time></trkpt><trkpt lat="30.61286926" lon="34.80366898"><ele>847.0</ele><time>2013-11-23T06:09:04.0000000+00:00</time></trkpt><trkpt lat="30.61272049" lon="34.8036232"><ele>846.9</ele><time>2013-11-23T06:09:09.0000000+00:00</time></trkpt><trkpt lat="30.61257362" lon="34.80348969"><ele>846.2</ele><time>2013-11-23T06:09:14.0000000+00:00</time></trkpt><trkpt lat="30.61246491" lon="34.80333328"><ele>846.3</ele><time>2013-11-23T06:09:19.0000000+00:00</time></trkpt><trkpt lat="30.61233711" lon="34.80318451"><ele>846.7</ele><time>2013-11-23T06:09:24.0000000+00:00</time></trkpt><trkpt lat="30.61221504" lon="34.80304718"><ele>846.7</ele><time>2013-11-23T06:09:29.0000000+00:00</time></trkpt><trkpt lat="30.61212349" lon="34.80294418"><ele>845.6</ele><time>2013-11-23T06:09:34.0000000+00:00</time></trkpt><trkpt lat="30.61198616" lon="34.80283737"><ele>845.7</ele><time>2013-11-23T06:09:39.0000000+00:00</time></trkpt><trkpt lat="30.61184311" lon="34.80271149"><ele>845.3</ele><time>2013-11-23T06:09:44.0000000+00:00</time></trkpt><trkpt lat="30.61167336" lon="34.8025856"><ele>844.8</ele><time>2013-11-23T06:09:49.0000000+00:00</time></trkpt><trkpt lat="30.61150742" lon="34.80247116"><ele>844.8</ele><time>2013-11-23T06:09:54.0000000+00:00</time></trkpt><trkpt lat="30.61136055" lon="34.80239487"><ele>845.5</ele><time>2013-11-23T06:09:59.0000000+00:00</time></trkpt><trkpt lat="30.61125374" lon="34.80234909"><ele>844.9</ele><time>2013-11-23T06:10:04.0000000+00:00</time></trkpt><trkpt lat="30.61113739" lon="34.80229569"><ele>844.3</ele><time>2013-11-23T06:10:09.0000000+00:00</time></trkpt><trkpt lat="30.61103058" lon="34.80222321"><ele>843.4</ele><time>2013-11-23T06:10:14.0000000+00:00</time></trkpt><trkpt lat="30.61087608" lon="34.80214691"><ele>844.5</ele><time>2013-11-23T06:10:19.0000000+00:00</time></trkpt><trkpt lat="30.61074829" lon="34.80207825"><ele>844.5</ele><time>2013-11-23T06:10:24.0000000+00:00</time></trkpt><trkpt lat="30.61064339" lon="34.80200958"><ele>844.0</ele><time>2013-11-23T06:10:29.0000000+00:00</time></trkpt><trkpt lat="30.610569" lon="34.80196381"><ele>844.1</ele><time>2013-11-23T06:10:34.0000000+00:00</time></trkpt><trkpt lat="30.61049461" lon="34.80192184"><ele>843.9</ele><time>2013-11-23T06:10:39.0000000+00:00</time></trkpt><trkpt lat="30.61042404" lon="34.80184555"><ele>843.1</ele><time>2013-11-23T06:10:44.0000000+00:00</time></trkpt><trkpt lat="30.61030197" lon="34.80176544"><ele>843.5</ele><time>2013-11-23T06:10:49.0000000+00:00</time></trkpt><trkpt lat="30.61018753" lon="34.80166626"><ele>842.9</ele><time>2013-11-23T06:10:54.0000000+00:00</time></trkpt><trkpt lat="30.61007118" lon="34.80158234"><ele>843.7</ele><time>2013-11-23T06:10:59.0000000+00:00</time></trkpt><trkpt lat="30.60992432" lon="34.8015213"><ele>845.5</ele><time>2013-11-23T06:11:04.0000000+00:00</time></trkpt><trkpt lat="30.60980415" lon="34.80144501"><ele>847.1</ele><time>2013-11-23T06:11:09.0000000+00:00</time></trkpt><trkpt lat="30.60970688" lon="34.80136871"><ele>847.6</ele><time>2013-11-23T06:11:14.0000000+00:00</time></trkpt><trkpt lat="30.60965157" lon="34.80130386"><ele>847.4</ele><time>2013-11-23T06:11:19.0000000+00:00</time></trkpt><trkpt lat="30.60961342" lon="34.80122376"><ele>847.5</ele><time>2013-11-23T06:11:24.0000000+00:00</time></trkpt><trkpt lat="30.60952568" lon="34.80116653"><ele>848.1</ele><time>2013-11-23T06:11:29.0000000+00:00</time></trkpt><trkpt lat="30.6094532" lon="34.80115891"><ele>848.0</ele><time>2013-11-23T06:11:34.0000000+00:00</time></trkpt><trkpt lat="30.60939598" lon="34.8011322"><ele>848.2</ele><time>2013-11-23T06:11:39.0000000+00:00</time></trkpt><trkpt lat="30.60933113" lon="34.80108261"><ele>848.1</ele><time>2013-11-23T06:11:44.0000000+00:00</time></trkpt><trkpt lat="30.60923195" lon="34.80099487"><ele>848.6</ele><time>2013-11-23T06:11:49.0000000+00:00</time></trkpt><trkpt lat="30.60913467" lon="34.80089188"><ele>848.7</ele><time>2013-11-23T06:11:54.0000000+00:00</time></trkpt><trkpt lat="30.60902786" lon="34.80082321"><ele>849.7</ele><time>2013-11-23T06:11:59.0000000+00:00</time></trkpt><trkpt lat="30.60894966" lon="34.80076599"><ele>850.5</ele><time>2013-11-23T06:12:04.0000000+00:00</time></trkpt><trkpt lat="30.60886002" lon="34.80067825"><ele>851.4</ele><time>2013-11-23T06:12:09.0000000+00:00</time></trkpt><trkpt lat="30.60876274" lon="34.80056381"><ele>851.2</ele><time>2013-11-23T06:12:14.0000000+00:00</time></trkpt><trkpt lat="30.60867691" lon="34.80043411"><ele>851.0</ele><time>2013-11-23T06:12:19.0000000+00:00</time></trkpt><trkpt lat="30.6085968" lon="34.80030823"><ele>850.4</ele><time>2013-11-23T06:12:24.0000000+00:00</time></trkpt><trkpt lat="30.60851097" lon="34.80014801"><ele>849.7</ele><time>2013-11-23T06:12:29.0000000+00:00</time></trkpt><trkpt lat="30.60835266" lon="34.79994202"><ele>850.5</ele><time>2013-11-23T06:12:34.0000000+00:00</time></trkpt><trkpt lat="30.6082058" lon="34.79964829"><ele>849.1</ele><time>2013-11-23T06:12:39.0000000+00:00</time></trkpt><trkpt lat="30.60811806" lon="34.79936218"><ele>847.5</ele><time>2013-11-23T06:12:44.0000000+00:00</time></trkpt><trkpt lat="30.60806465" lon="34.79906082"><ele>845.3</ele><time>2013-11-23T06:12:49.0000000+00:00</time></trkpt><trkpt lat="30.60804749" lon="34.79868698"><ele>842.4</ele><time>2013-11-23T06:12:54.0000000+00:00</time></trkpt><trkpt lat="30.60801125" lon="34.79833984"><ele>841.1</ele><time>2013-11-23T06:12:59.0000000+00:00</time></trkpt><trkpt lat="30.60805321" lon="34.79806519"><ele>839.7</ele><time>2013-11-23T06:13:04.0000000+00:00</time></trkpt><trkpt lat="30.60813904" lon="34.79780579"><ele>838.8</ele><time>2013-11-23T06:13:09.0000000+00:00</time></trkpt><trkpt lat="30.60826302" lon="34.79753113"><ele>837.5</ele><time>2013-11-23T06:13:14.0000000+00:00</time></trkpt><trkpt lat="30.60840607" lon="34.79722214"><ele>835.9</ele><time>2013-11-23T06:13:19.0000000+00:00</time></trkpt><trkpt lat="30.60858154" lon="34.7968483"><ele>833.2</ele><time>2013-11-23T06:13:24.0000000+00:00</time></trkpt><trkpt lat="30.60879707" lon="34.79640961"><ele>830.1</ele><time>2013-11-23T06:13:29.0000000+00:00</time></trkpt><trkpt lat="30.60901451" lon="34.79593277"><ele>827.8</ele><time>2013-11-23T06:13:34.0000000+00:00</time></trkpt><trkpt lat="30.60915756" lon="34.79561615"><ele>827.1</ele><time>2013-11-23T06:13:39.0000000+00:00</time></trkpt><trkpt lat="30.6091938" lon="34.79554367"><ele>826.3</ele><time>2013-11-23T06:13:44.0000000+00:00</time></trkpt><trkpt lat="30.60914612" lon="34.79563522"><ele>826.7</ele><time>2013-11-23T06:13:49.0000000+00:00</time></trkpt><trkpt lat="30.60905266" lon="34.79579544"><ele>827.2</ele><time>2013-11-23T06:13:54.0000000+00:00</time></trkpt><trkpt lat="30.6089592" lon="34.79598999"><ele>827.5</ele><time>2013-11-23T06:13:59.0000000+00:00</time></trkpt><trkpt lat="30.60887146" lon="34.79618835"><ele>828.0</ele><time>2013-11-23T06:14:04.0000000+00:00</time></trkpt><trkpt lat="30.60878182" lon="34.79638672"><ele>828.8</ele><time>2013-11-23T06:14:09.0000000+00:00</time></trkpt><trkpt lat="30.60868645" lon="34.79658127"><ele>829.9</ele><time>2013-11-23T06:14:14.0000000+00:00</time></trkpt><trkpt lat="30.60859489" lon="34.79676056"><ele>830.7</ele><time>2013-11-23T06:14:19.0000000+00:00</time></trkpt><trkpt lat="30.60853005" lon="34.79690933"><ele>831.6</ele><time>2013-11-23T06:14:24.0000000+00:00</time></trkpt><trkpt lat="30.60845375" lon="34.79705811"><ele>832.5</ele><time>2013-11-23T06:14:29.0000000+00:00</time></trkpt><trkpt lat="30.60837364" lon="34.79719925"><ele>833.7</ele><time>2013-11-23T06:14:34.0000000+00:00</time></trkpt><trkpt lat="30.60829544" lon="34.79736328"><ele>834.4</ele><time>2013-11-23T06:14:39.0000000+00:00</time></trkpt><trkpt lat="30.60821724" lon="34.7975502"><ele>835.2</ele><time>2013-11-23T06:14:44.0000000+00:00</time></trkpt><trkpt lat="30.60813332" lon="34.79774475"><ele>835.8</ele><time>2013-11-23T06:14:49.0000000+00:00</time></trkpt><trkpt lat="30.60807037" lon="34.7979393"><ele>836.1</ele><time>2013-11-23T06:14:54.0000000+00:00</time></trkpt><trkpt lat="30.60802651" lon="34.7980957"><ele>836.6</ele><time>2013-11-23T06:14:59.0000000+00:00</time></trkpt><trkpt lat="30.60798073" lon="34.79827881"><ele>837.4</ele><time>2013-11-23T06:15:04.0000000+00:00</time></trkpt><trkpt lat="30.60795593" lon="34.79844284"><ele>838.1</ele><time>2013-11-23T06:15:09.0000000+00:00</time></trkpt><trkpt lat="30.60794449" lon="34.79862595"><ele>838.8</ele><time>2013-11-23T06:15:14.0000000+00:00</time></trkpt><trkpt lat="30.60793304" lon="34.79878616"><ele>839.7</ele><time>2013-11-23T06:15:19.0000000+00:00</time></trkpt><trkpt lat="30.60793495" lon="34.79890823"><ele>840.6</ele><time>2013-11-23T06:15:24.0000000+00:00</time></trkpt><trkpt lat="30.60788155" lon="34.79901123"><ele>841.1</ele><time>2013-11-23T06:15:29.0000000+00:00</time></trkpt><trkpt lat="30.6078186" lon="34.79905701"><ele>841.4</ele><time>2013-11-23T06:15:34.0000000+00:00</time></trkpt><trkpt lat="30.60783958" lon="34.79909897"><ele>842.0</ele><time>2013-11-23T06:15:39.0000000+00:00</time></trkpt><trkpt lat="30.60792923" lon="34.79917908"><ele>842.5</ele><time>2013-11-23T06:15:44.0000000+00:00</time></trkpt><trkpt lat="30.60795403" lon="34.79931641"><ele>843.3</ele><time>2013-11-23T06:15:49.0000000+00:00</time></trkpt><trkpt lat="30.60797882" lon="34.79939652"><ele>844.0</ele><time>2013-11-23T06:15:54.0000000+00:00</time></trkpt><trkpt lat="30.60800552" lon="34.79948807"><ele>844.5</ele><time>2013-11-23T06:15:59.0000000+00:00</time></trkpt><trkpt lat="30.60802841" lon="34.79959488"><ele>845.4</ele><time>2013-11-23T06:16:04.0000000+00:00</time></trkpt><trkpt lat="30.60806847" lon="34.79970551"><ele>846.1</ele><time>2013-11-23T06:16:09.0000000+00:00</time></trkpt><trkpt lat="30.60811043" lon="34.79982758"><ele>846.8</ele><time>2013-11-23T06:16:14.0000000+00:00</time></trkpt><trkpt lat="30.60815239" lon="34.7999382"><ele>847.5</ele><time>2013-11-23T06:16:19.0000000+00:00</time></trkpt><trkpt lat="30.60820389" lon="34.80004501"><ele>848.3</ele><time>2013-11-23T06:16:24.0000000+00:00</time></trkpt><trkpt lat="30.60825729" lon="34.8001709"><ele>848.7</ele><time>2013-11-23T06:16:29.0000000+00:00</time></trkpt><trkpt lat="30.60833359" lon="34.80029678"><ele>849.0</ele><time>2013-11-23T06:16:34.0000000+00:00</time></trkpt><trkpt lat="30.60839462" lon="34.80041504"><ele>849.2</ele><time>2013-11-23T06:16:39.0000000+00:00</time></trkpt><trkpt lat="30.60849571" lon="34.80054855"><ele>849.1</ele><time>2013-11-23T06:16:44.0000000+00:00</time></trkpt><trkpt lat="30.60860825" lon="34.8006897"><ele>848.9</ele><time>2013-11-23T06:16:49.0000000+00:00</time></trkpt><trkpt lat="30.60873413" lon="34.80083847"><ele>848.1</ele><time>2013-11-23T06:16:54.0000000+00:00</time></trkpt><trkpt lat="30.60890007" lon="34.80099487"><ele>846.6</ele><time>2013-11-23T06:16:59.0000000+00:00</time></trkpt><trkpt lat="30.60913086" lon="34.80117035"><ele>844.5</ele><time>2013-11-23T06:17:04.0000000+00:00</time></trkpt><trkpt lat="30.6093502" lon="34.80135346"><ele>842.2</ele><time>2013-11-23T06:17:09.0000000+00:00</time></trkpt><trkpt lat="30.60930443" lon="34.80160523"><ele>840.8</ele><time>2013-11-23T06:17:14.0000000+00:00</time></trkpt><trkpt lat="30.60911942" lon="34.801754"><ele>840.7</ele><time>2013-11-23T06:17:19.0000000+00:00</time></trkpt><trkpt lat="30.60894585" lon="34.80170441"><ele>841.5</ele><time>2013-11-23T06:17:24.0000000+00:00</time></trkpt><trkpt lat="30.60881424" lon="34.80164719"><ele>841.9</ele><time>2013-11-23T06:17:29.0000000+00:00</time></trkpt><trkpt lat="30.60865974" lon="34.80157471"><ele>842.2</ele><time>2013-11-23T06:17:34.0000000+00:00</time></trkpt><trkpt lat="30.60853005" lon="34.80152512"><ele>842.5</ele><time>2013-11-23T06:17:39.0000000+00:00</time></trkpt><trkpt lat="30.60844421" lon="34.80140686"><ele>842.9</ele><time>2013-11-23T06:17:44.0000000+00:00</time></trkpt><trkpt lat="30.60836411" lon="34.80128479"><ele>843.3</ele><time>2013-11-23T06:17:49.0000000+00:00</time></trkpt><trkpt lat="30.60824585" lon="34.80120468"><ele>844.1</ele><time>2013-11-23T06:17:54.0000000+00:00</time></trkpt><trkpt lat="30.60814476" lon="34.80114365"><ele>844.8</ele><time>2013-11-23T06:17:59.0000000+00:00</time></trkpt><trkpt lat="30.60805893" lon="34.80104828"><ele>845.7</ele><time>2013-11-23T06:18:04.0000000+00:00</time></trkpt><trkpt lat="30.60795784" lon="34.80095673"><ele>846.3</ele><time>2013-11-23T06:18:09.0000000+00:00</time></trkpt><trkpt lat="30.60785294" lon="34.80086136"><ele>847.0</ele><time>2013-11-23T06:18:14.0000000+00:00</time></trkpt><trkpt lat="30.6077404" lon="34.80082321"><ele>847.9</ele><time>2013-11-23T06:18:19.0000000+00:00</time></trkpt><trkpt lat="30.60760689" lon="34.80086517"><ele>848.3</ele><time>2013-11-23T06:18:24.0000000+00:00</time></trkpt><trkpt lat="30.60750771" lon="34.80094147"><ele>849.4</ele><time>2013-11-23T06:18:29.0000000+00:00</time></trkpt><trkpt lat="30.60741234" lon="34.80102539"><ele>849.3</ele><time>2013-11-23T06:18:34.0000000+00:00</time></trkpt><trkpt lat="30.60730934" lon="34.8011055"><ele>850.2</ele><time>2013-11-23T06:18:39.0000000+00:00</time></trkpt><trkpt lat="30.60721207" lon="34.80118942"><ele>851.5</ele><time>2013-11-23T06:18:44.0000000+00:00</time></trkpt><trkpt lat="30.60708237" lon="34.80125427"><ele>853.0</ele><time>2013-11-23T06:18:49.0000000+00:00</time></trkpt><trkpt lat="30.60696793" lon="34.80132675"><ele>854.2</ele><time>2013-11-23T06:18:54.0000000+00:00</time></trkpt><trkpt lat="30.60687447" lon="34.80137253"><ele>856.7</ele><time>2013-11-23T06:18:59.0000000+00:00</time></trkpt><trkpt lat="30.60679436" lon="34.80143356"><ele>859.3</ele><time>2013-11-23T06:19:04.0000000+00:00</time></trkpt><trkpt lat="30.60668564" lon="34.80150986"><ele>862.1</ele><time>2013-11-23T06:19:09.0000000+00:00</time></trkpt><trkpt lat="30.60655212" lon="34.80160523"><ele>865.0</ele><time>2013-11-23T06:19:14.0000000+00:00</time></trkpt><trkpt lat="30.60642624" lon="34.80168915"><ele>865.3</ele><time>2013-11-23T06:19:19.0000000+00:00</time></trkpt><trkpt lat="30.60632515" lon="34.80175781"><ele>866.3</ele><time>2013-11-23T06:19:24.0000000+00:00</time></trkpt><trkpt lat="30.60622978" lon="34.80183411"><ele>868.6</ele><time>2013-11-23T06:19:29.0000000+00:00</time></trkpt><trkpt lat="30.60614586" lon="34.8018837"><ele>870.9</ele><time>2013-11-23T06:19:34.0000000+00:00</time></trkpt><trkpt lat="30.60606384" lon="34.80195999"><ele>872.8</ele><time>2013-11-23T06:19:39.0000000+00:00</time></trkpt><trkpt lat="30.60592461" lon="34.80208588"><ele>874.0</ele><time>2013-11-23T06:19:44.0000000+00:00</time></trkpt><trkpt lat="30.6058197" lon="34.80217362"><ele>876.7</ele><time>2013-11-23T06:19:49.0000000+00:00</time></trkpt><trkpt lat="30.60574722" lon="34.80226898"><ele>878.4</ele><time>2013-11-23T06:19:54.0000000+00:00</time></trkpt><trkpt lat="30.60580826" lon="34.80239868"><ele>877.8</ele><time>2013-11-23T06:19:59.0000000+00:00</time></trkpt><trkpt lat="30.6058979" lon="34.80255127"><ele>876.6</ele><time>2013-11-23T06:20:04.0000000+00:00</time></trkpt><trkpt lat="30.60597611" lon="34.80271149"><ele>876.3</ele><time>2013-11-23T06:20:09.0000000+00:00</time></trkpt><trkpt lat="30.60608292" lon="34.80289459"><ele>875.8</ele><time>2013-11-23T06:20:14.0000000+00:00</time></trkpt><trkpt lat="30.60618591" lon="34.80308151"><ele>875.0</ele><time>2013-11-23T06:20:19.0000000+00:00</time></trkpt><trkpt lat="30.60628891" lon="34.80326462"><ele>874.2</ele><time>2013-11-23T06:20:24.0000000+00:00</time></trkpt><trkpt lat="30.60639381" lon="34.80345154"><ele>873.2</ele><time>2013-11-23T06:20:29.0000000+00:00</time></trkpt><trkpt lat="30.60650826" lon="34.80365753"><ele>872.1</ele><time>2013-11-23T06:20:34.0000000+00:00</time></trkpt><trkpt lat="30.60665512" lon="34.80386734"><ele>870.0</ele><time>2013-11-23T06:20:39.0000000+00:00</time></trkpt><trkpt lat="30.60666847" lon="34.80400848"><ele>869.8</ele><time>2013-11-23T06:20:44.0000000+00:00</time></trkpt><trkpt lat="30.60659409" lon="34.80405426"><ele>870.3</ele><time>2013-11-23T06:20:49.0000000+00:00</time></trkpt><trkpt lat="30.60652542" lon="34.80410767"><ele>871.1</ele><time>2013-11-23T06:20:54.0000000+00:00</time></trkpt><trkpt lat="30.60646057" lon="34.80417633"><ele>871.6</ele><time>2013-11-23T06:20:59.0000000+00:00</time></trkpt><trkpt lat="30.60640717" lon="34.80422974"><ele>872.3</ele><time>2013-11-23T06:21:04.0000000+00:00</time></trkpt><trkpt lat="30.60634804" lon="34.80427933"><ele>872.9</ele><time>2013-11-23T06:21:09.0000000+00:00</time></trkpt><trkpt lat="30.60627937" lon="34.80434418"><ele>872.6</ele><time>2013-11-23T06:21:14.0000000+00:00</time></trkpt><trkpt lat="30.60625458" lon="34.80435944"><ele>871.7</ele><time>2013-11-23T06:21:19.0000000+00:00</time></trkpt><trkpt lat="30.60625076" lon="34.80434799"><ele>871.5</ele><time>2013-11-23T06:21:24.0000000+00:00</time></trkpt><trkpt lat="30.60625076" lon="34.80434799"><ele>871.4</ele><time>2013-11-23T06:21:29.0000000+00:00</time></trkpt><trkpt lat="30.60624886" lon="34.80435562"><ele>871.4</ele><time>2013-11-23T06:21:34.0000000+00:00</time></trkpt><trkpt lat="30.60624504" lon="34.80436707"><ele>871.4</ele><time>2013-11-23T06:21:39.0000000+00:00</time></trkpt><trkpt lat="30.60624123" lon="34.8043747"><ele>871.4</ele><time>2013-11-23T06:21:44.0000000+00:00</time></trkpt><trkpt lat="30.60623932" lon="34.80437851"><ele>871.5</ele><time>2013-11-23T06:21:49.0000000+00:00</time></trkpt><trkpt lat="30.60624123" lon="34.80437851"><ele>871.5</ele><time>2013-11-23T06:21:54.0000000+00:00</time></trkpt><trkpt lat="30.60624123" lon="34.80437851"><ele>871.5</ele><time>2013-11-23T06:21:59.0000000+00:00</time></trkpt><trkpt lat="30.60624123" lon="34.80438232"><ele>871.6</ele><time>2013-11-23T06:22:04.0000000+00:00</time></trkpt><trkpt lat="30.60624123" lon="34.80438232"><ele>871.6</ele><time>2013-11-23T06:22:09.0000000+00:00</time></trkpt><trkpt lat="30.60624123" lon="34.80438232"><ele>871.6</ele><time>2013-11-23T06:22:14.0000000+00:00</time></trkpt><trkpt lat="30.60624123" lon="34.80438232"><ele>871.6</ele><time>2013-11-23T06:22:19.0000000+00:00</time></trkpt><trkpt lat="30.60624123" lon="34.80438232"><ele>871.6</ele><time>2013-11-23T06:22:24.0000000+00:00</time></trkpt><trkpt lat="30.60624123" lon="34.80438232"><ele>871.6</ele><time>2013-11-23T06:22:29.0000000+00:00</time></trkpt><trkpt lat="30.60624123" lon="34.80438232"><ele>871.6</ele><time>2013-11-23T06:22:34.0000000+00:00</time></trkpt><trkpt lat="30.60624313" lon="34.80438232"><ele>871.5</ele><time>2013-11-23T06:22:39.0000000+00:00</time></trkpt><trkpt lat="30.60625267" lon="34.80437851"><ele>871.9</ele><time>2013-11-23T06:22:44.0000000+00:00</time></trkpt><trkpt lat="30.60624504" lon="34.80438232"><ele>872.7</ele><time>2013-11-23T06:22:49.0000000+00:00</time></trkpt><trkpt lat="30.60624504" lon="34.80438232"><ele>872.9</ele><time>2013-11-23T06:22:54.0000000+00:00</time></trkpt><trkpt lat="30.60624313" lon="34.80438232"><ele>873.0</ele><time>2013-11-23T06:22:59.0000000+00:00</time></trkpt><trkpt lat="30.60624313" lon="34.80438232"><ele>873.0</ele><time>2013-11-23T06:23:04.0000000+00:00</time></trkpt><trkpt lat="30.60624504" lon="34.80438232"><ele>873.0</ele><time>2013-11-23T06:23:09.0000000+00:00</time></trkpt><trkpt lat="30.60624504" lon="34.80438232"><ele>873.0</ele><time>2013-11-23T06:23:14.0000000+00:00</time></trkpt><trkpt lat="30.60624695" lon="34.80438232"><ele>873.0</ele><time>2013-11-23T06:23:19.0000000+00:00</time></trkpt><trkpt lat="30.60624695" lon="34.80438232"><ele>873.0</ele><time>2013-11-23T06:23:24.0000000+00:00</time></trkpt><trkpt lat="30.60624695" lon="34.80438232"><ele>873.0</ele><time>2013-11-23T06:23:29.0000000+00:00</time></trkpt><trkpt lat="30.60624695" lon="34.80438232"><ele>873.0</ele><time>2013-11-23T06:23:34.0000000+00:00</time></trkpt><trkpt lat="30.60624695" lon="34.80438232"><ele>873.0</ele><time>2013-11-23T06:23:39.0000000+00:00</time></trkpt><trkpt lat="30.60624695" lon="34.80438232"><ele>872.9</ele><time>2013-11-23T06:23:44.0000000+00:00</time></trkpt><trkpt lat="30.60629273" lon="34.80438995"><ele>872.5</ele><time>2013-11-23T06:23:49.0000000+00:00</time></trkpt><trkpt lat="30.60632324" lon="34.80433655"><ele>871.5</ele><time>2013-11-23T06:23:54.0000000+00:00</time></trkpt><trkpt lat="30.60642242" lon="34.80423355"><ele>869.5</ele><time>2013-11-23T06:23:59.0000000+00:00</time></trkpt><trkpt lat="30.60661125" lon="34.80407333"><ele>866.8</ele><time>2013-11-23T06:24:04.0000000+00:00</time></trkpt><trkpt lat="30.60677719" lon="34.80393982"><ele>865.3</ele><time>2013-11-23T06:24:09.0000000+00:00</time></trkpt><trkpt lat="30.60697556" lon="34.80379868"><ele>863.5</ele><time>2013-11-23T06:24:14.0000000+00:00</time></trkpt><trkpt lat="30.60721588" lon="34.8036232"><ele>860.8</ele><time>2013-11-23T06:24:19.0000000+00:00</time></trkpt><trkpt lat="30.60748673" lon="34.80342484"><ele>857.7</ele><time>2013-11-23T06:24:24.0000000+00:00</time></trkpt><trkpt lat="30.60777473" lon="34.8032074"><ele>854.6</ele><time>2013-11-23T06:24:29.0000000+00:00</time></trkpt><trkpt lat="30.60801506" lon="34.80302811"><ele>852.0</ele><time>2013-11-23T06:24:34.0000000+00:00</time></trkpt><trkpt lat="30.60820007" lon="34.80289078"><ele>849.1</ele><time>2013-11-23T06:24:39.0000000+00:00</time></trkpt><trkpt lat="30.60831833" lon="34.80276108"><ele>847.3</ele><time>2013-11-23T06:24:44.0000000+00:00</time></trkpt><trkpt lat="30.60834122" lon="34.80254746"><ele>846.2</ele><time>2013-11-23T06:24:49.0000000+00:00</time></trkpt><trkpt lat="30.60836029" lon="34.8023262"><ele>846.0</ele><time>2013-11-23T06:24:54.0000000+00:00</time></trkpt><trkpt lat="30.60837746" lon="34.80211258"><ele>846.5</ele><time>2013-11-23T06:24:59.0000000+00:00</time></trkpt><trkpt lat="30.60839653" lon="34.8019104"><ele>847.1</ele><time>2013-11-23T06:25:04.0000000+00:00</time></trkpt><trkpt lat="30.60841179" lon="34.80167007"><ele>846.9</ele><time>2013-11-23T06:25:09.0000000+00:00</time></trkpt><trkpt lat="30.60836792" lon="34.80143356"><ele>845.9</ele><time>2013-11-23T06:25:14.0000000+00:00</time></trkpt><trkpt lat="30.60830879" lon="34.80131531"><ele>843.5</ele><time>2013-11-23T06:25:19.0000000+00:00</time></trkpt><trkpt lat="30.6082325" lon="34.80124664"><ele>843.7</ele><time>2013-11-23T06:25:24.0000000+00:00</time></trkpt><trkpt lat="30.60815239" lon="34.80114746"><ele>844.3</ele><time>2013-11-23T06:25:29.0000000+00:00</time></trkpt><trkpt lat="30.60806656" lon="34.80105209"><ele>844.5</ele><time>2013-11-23T06:25:34.0000000+00:00</time></trkpt><trkpt lat="30.60797882" lon="34.80096817"><ele>845.3</ele><time>2013-11-23T06:25:39.0000000+00:00</time></trkpt><trkpt lat="30.60792542" lon="34.80105209"><ele>845.7</ele><time>2013-11-23T06:25:44.0000000+00:00</time></trkpt><trkpt lat="30.60801506" lon="34.80110169"><ele>845.0</ele><time>2013-11-23T06:25:49.0000000+00:00</time></trkpt><trkpt lat="30.60800171" lon="34.80105591"><ele>844.8</ele><time>2013-11-23T06:25:54.0000000+00:00</time></trkpt><trkpt lat="30.60793877" lon="34.80099487"><ele>845.2</ele><time>2013-11-23T06:25:59.0000000+00:00</time></trkpt><trkpt lat="30.60784721" lon="34.80090332"><ele>845.7</ele><time>2013-11-23T06:26:04.0000000+00:00</time></trkpt><trkpt lat="30.60772896" lon="34.80080032"><ele>846.2</ele><time>2013-11-23T06:26:09.0000000+00:00</time></trkpt><trkpt lat="30.6076088" lon="34.80070114"><ele>846.4</ele><time>2013-11-23T06:26:14.0000000+00:00</time></trkpt><trkpt lat="30.60747528" lon="34.80058289"><ele>846.3</ele><time>2013-11-23T06:26:19.0000000+00:00</time></trkpt><trkpt lat="30.60734558" lon="34.80044937"><ele>846.8</ele><time>2013-11-23T06:26:24.0000000+00:00</time></trkpt><trkpt lat="30.60717011" lon="34.80032349"><ele>847.2</ele><time>2013-11-23T06:26:29.0000000+00:00</time></trkpt><trkpt lat="30.60699272" lon="34.80020905"><ele>847.6</ele><time>2013-11-23T06:26:34.0000000+00:00</time></trkpt><trkpt lat="30.60684395" lon="34.8000679"><ele>846.5</ele><time>2013-11-23T06:26:39.0000000+00:00</time></trkpt><trkpt lat="30.6067009" lon="34.79991531"><ele>845.4</ele><time>2013-11-23T06:26:44.0000000+00:00</time></trkpt><trkpt lat="30.60656357" lon="34.79978561"><ele>845.0</ele><time>2013-11-23T06:26:49.0000000+00:00</time></trkpt><trkpt lat="30.60642242" lon="34.7996521"><ele>844.5</ele><time>2013-11-23T06:26:54.0000000+00:00</time></trkpt><trkpt lat="30.60624313" lon="34.79956436"><ele>844.0</ele><time>2013-11-23T06:26:59.0000000+00:00</time></trkpt><trkpt lat="30.6061306" lon="34.79938126"><ele>842.4</ele><time>2013-11-23T06:27:04.0000000+00:00</time></trkpt><trkpt lat="30.60624886" lon="34.79915237"><ele>840.9</ele><time>2013-11-23T06:27:09.0000000+00:00</time></trkpt><trkpt lat="30.60638237" lon="34.7989502"><ele>840.0</ele><time>2013-11-23T06:27:14.0000000+00:00</time></trkpt><trkpt lat="30.60643196" lon="34.79876328"><ele>839.6</ele><time>2013-11-23T06:27:19.0000000+00:00</time></trkpt><trkpt lat="30.60632515" lon="34.7986145"><ele>839.8</ele><time>2013-11-23T06:27:24.0000000+00:00</time></trkpt><trkpt lat="30.60618782" lon="34.79849625"><ele>839.4</ele><time>2013-11-23T06:27:29.0000000+00:00</time></trkpt><trkpt lat="30.60606766" lon="34.79836273"><ele>839.2</ele><time>2013-11-23T06:27:34.0000000+00:00</time></trkpt><trkpt lat="30.6059494" lon="34.7982254"><ele>839.3</ele><time>2013-11-23T06:27:39.0000000+00:00</time></trkpt><trkpt lat="30.60584831" lon="34.79814911"><ele>839.7</ele><time>2013-11-23T06:27:44.0000000+00:00</time></trkpt><trkpt lat="30.60580063" lon="34.79805374"><ele>841.0</ele><time>2013-11-23T06:27:49.0000000+00:00</time></trkpt><trkpt lat="30.60574532" lon="34.79796982"><ele>841.6</ele><time>2013-11-23T06:27:54.0000000+00:00</time></trkpt><trkpt lat="30.60569763" lon="34.79785156"><ele>842.5</ele><time>2013-11-23T06:27:59.0000000+00:00</time></trkpt><trkpt lat="30.60559464" lon="34.79776764"><ele>843.0</ele><time>2013-11-23T06:28:04.0000000+00:00</time></trkpt><trkpt lat="30.60551262" lon="34.79777908"><ele>843.4</ele><time>2013-11-23T06:28:09.0000000+00:00</time></trkpt><trkpt lat="30.6054287" lon="34.79779434"><ele>843.9</ele><time>2013-11-23T06:28:14.0000000+00:00</time></trkpt><trkpt lat="30.60533905" lon="34.79779053"><ele>844.5</ele><time>2013-11-23T06:28:19.0000000+00:00</time></trkpt><trkpt lat="30.60527802" lon="34.79779434"><ele>845.3</ele><time>2013-11-23T06:28:24.0000000+00:00</time></trkpt><trkpt lat="30.6052208" lon="34.79779816"><ele>846.0</ele><time>2013-11-23T06:28:29.0000000+00:00</time></trkpt><trkpt lat="30.60515595" lon="34.79776001"><ele>846.6</ele><time>2013-11-23T06:28:34.0000000+00:00</time></trkpt><trkpt lat="30.60508537" lon="34.79770279"><ele>847.3</ele><time>2013-11-23T06:28:39.0000000+00:00</time></trkpt><trkpt lat="30.6050148" lon="34.79764557"><ele>847.9</ele><time>2013-11-23T06:28:44.0000000+00:00</time></trkpt><trkpt lat="30.60493851" lon="34.79761505"><ele>848.4</ele><time>2013-11-23T06:28:49.0000000+00:00</time></trkpt><trkpt lat="30.60486221" lon="34.79757309"><ele>849.2</ele><time>2013-11-23T06:28:54.0000000+00:00</time></trkpt><trkpt lat="30.60479736" lon="34.7975235"><ele>849.9</ele><time>2013-11-23T06:28:59.0000000+00:00</time></trkpt><trkpt lat="30.60471726" lon="34.79748917"><ele>850.5</ele><time>2013-11-23T06:29:04.0000000+00:00</time></trkpt><trkpt lat="30.60464096" lon="34.79744339"><ele>851.1</ele><time>2013-11-23T06:29:09.0000000+00:00</time></trkpt><trkpt lat="30.60456467" lon="34.79740524"><ele>851.7</ele><time>2013-11-23T06:29:14.0000000+00:00</time></trkpt><trkpt lat="30.60449219" lon="34.79735184"><ele>852.4</ele><time>2013-11-23T06:29:19.0000000+00:00</time></trkpt><trkpt lat="30.60442734" lon="34.79729462"><ele>853.0</ele><time>2013-11-23T06:29:24.0000000+00:00</time></trkpt><trkpt lat="30.6043663" lon="34.79724121"><ele>853.6</ele><time>2013-11-23T06:29:29.0000000+00:00</time></trkpt><trkpt lat="30.60430527" lon="34.79717636"><ele>854.4</ele><time>2013-11-23T06:29:34.0000000+00:00</time></trkpt><trkpt lat="30.60424233" lon="34.79711151"><ele>855.1</ele><time>2013-11-23T06:29:39.0000000+00:00</time></trkpt><trkpt lat="30.60416603" lon="34.79705811"><ele>855.9</ele><time>2013-11-23T06:29:44.0000000+00:00</time></trkpt><trkpt lat="30.60408974" lon="34.79701233"><ele>856.5</ele><time>2013-11-23T06:29:49.0000000+00:00</time></trkpt><trkpt lat="30.60402298" lon="34.79695892"><ele>857.4</ele><time>2013-11-23T06:29:54.0000000+00:00</time></trkpt><trkpt lat="30.60396576" lon="34.79689407"><ele>858.2</ele><time>2013-11-23T06:29:59.0000000+00:00</time></trkpt><trkpt lat="30.603899" lon="34.79685211"><ele>859.0</ele><time>2013-11-23T06:30:04.0000000+00:00</time></trkpt><trkpt lat="30.60383987" lon="34.79681397"><ele>859.1</ele><time>2013-11-23T06:30:09.0000000+00:00</time></trkpt><trkpt lat="30.60383797" lon="34.79681015"><ele>859.0</ele><time>2013-11-23T06:30:14.0000000+00:00</time></trkpt><trkpt lat="30.60381317" lon="34.79679108"><ele>859.2</ele><time>2013-11-23T06:30:19.0000000+00:00</time></trkpt><trkpt lat="30.6037426" lon="34.79679108"><ele>859.8</ele><time>2013-11-23T06:30:24.0000000+00:00</time></trkpt><trkpt lat="30.60367775" lon="34.79679871"><ele>860.5</ele><time>2013-11-23T06:30:29.0000000+00:00</time></trkpt><trkpt lat="30.60360718" lon="34.79679871"><ele>860.8</ele><time>2013-11-23T06:30:34.0000000+00:00</time></trkpt><trkpt lat="30.60354805" lon="34.79684448"><ele>861.5</ele><time>2013-11-23T06:30:39.0000000+00:00</time></trkpt><trkpt lat="30.6034832" lon="34.79688644"><ele>862.4</ele><time>2013-11-23T06:30:44.0000000+00:00</time></trkpt><trkpt lat="30.60341835" lon="34.79694748"><ele>862.9</ele><time>2013-11-23T06:30:49.0000000+00:00</time></trkpt><trkpt lat="30.60335159" lon="34.79700089"><ele>863.4</ele><time>2013-11-23T06:30:54.0000000+00:00</time></trkpt><trkpt lat="30.60328102" lon="34.79705048"><ele>864.0</ele><time>2013-11-23T06:30:59.0000000+00:00</time></trkpt><trkpt lat="30.60321236" lon="34.79709244"><ele>864.7</ele><time>2013-11-23T06:31:04.0000000+00:00</time></trkpt><trkpt lat="30.60315132" lon="34.79714203"><ele>865.0</ele><time>2013-11-23T06:31:09.0000000+00:00</time></trkpt><trkpt lat="30.60307503" lon="34.79718399"><ele>865.6</ele><time>2013-11-23T06:31:14.0000000+00:00</time></trkpt><trkpt lat="30.6029911" lon="34.79724884"><ele>865.8</ele><time>2013-11-23T06:31:19.0000000+00:00</time></trkpt><trkpt lat="30.60291863" lon="34.79726791"><ele>866.3</ele><time>2013-11-23T06:31:24.0000000+00:00</time></trkpt><trkpt lat="30.60285378" lon="34.79724503"><ele>866.9</ele><time>2013-11-23T06:31:29.0000000+00:00</time></trkpt><trkpt lat="30.60278702" lon="34.79722977"><ele>866.8</ele><time>2013-11-23T06:31:34.0000000+00:00</time></trkpt><trkpt lat="30.60278511" lon="34.79722977"><ele>866.6</ele><time>2013-11-23T06:31:39.0000000+00:00</time></trkpt><trkpt lat="30.6027813" lon="34.79722977"><ele>866.6</ele><time>2013-11-23T06:31:44.0000000+00:00</time></trkpt><trkpt lat="30.60277939" lon="34.79721832"><ele>866.7</ele><time>2013-11-23T06:31:49.0000000+00:00</time></trkpt><trkpt lat="30.60277939" lon="34.79721832"><ele>866.8</ele><time>2013-11-23T06:31:54.0000000+00:00</time></trkpt><trkpt lat="30.6027832" lon="34.79721832"><ele>867.0</ele><time>2013-11-23T06:31:59.0000000+00:00</time></trkpt><trkpt lat="30.60277748" lon="34.79722214"><ele>867.2</ele><time>2013-11-23T06:32:04.0000000+00:00</time></trkpt><trkpt lat="30.60277176" lon="34.79722595"><ele>867.4</ele><time>2013-11-23T06:32:09.0000000+00:00</time></trkpt><trkpt lat="30.60277748" lon="34.79722595"><ele>865.6</ele><time>2013-11-23T06:32:14.0000000+00:00</time></trkpt><trkpt lat="30.60277748" lon="34.79722595"><ele>865.6</ele><time>2013-11-23T06:32:19.0000000+00:00</time></trkpt><trkpt lat="30.60277748" lon="34.79722595"><ele>865.6</ele><time>2013-11-23T06:32:24.0000000+00:00</time></trkpt><trkpt lat="30.60277748" lon="34.79722595"><ele>865.6</ele><time>2013-11-23T06:32:29.0000000+00:00</time></trkpt><trkpt lat="30.60277748" lon="34.79722595"><ele>865.5</ele><time>2013-11-23T06:32:34.0000000+00:00</time></trkpt><trkpt lat="30.60277748" lon="34.79722595"><ele>865.5</ele><time>2013-11-23T06:32:39.0000000+00:00</time></trkpt><trkpt lat="30.60277748" lon="34.79722595"><ele>865.5</ele><time>2013-11-23T06:32:44.0000000+00:00</time></trkpt><trkpt lat="30.60277748" lon="34.79722595"><ele>865.5</ele><time>2013-11-23T06:32:49.0000000+00:00</time></trkpt><trkpt lat="30.60277748" lon="34.79722595"><ele>865.5</ele><time>2013-11-23T06:32:54.0000000+00:00</time></trkpt><trkpt lat="30.60277748" lon="34.79722595"><ele>865.5</ele><time>2013-11-23T06:32:59.0000000+00:00</time></trkpt><trkpt lat="30.60277748" lon="34.79722595"><ele>865.5</ele><time>2013-11-23T06:33:04.0000000+00:00</time></trkpt><trkpt lat="30.60277748" lon="34.79722595"><ele>865.5</ele><time>2013-11-23T06:33:09.0000000+00:00</time></trkpt><trkpt lat="30.60277748" lon="34.79722595"><ele>865.4</ele><time>2013-11-23T06:33:14.0000000+00:00</time></trkpt><trkpt lat="30.60277748" lon="34.79722595"><ele>865.4</ele><time>2013-11-23T06:33:19.0000000+00:00</time></trkpt><trkpt lat="30.60277748" lon="34.79722595"><ele>865.4</ele><time>2013-11-23T06:33:24.0000000+00:00</time></trkpt><trkpt lat="30.60277939" lon="34.79722595"><ele>865.4</ele><time>2013-11-23T06:33:29.0000000+00:00</time></trkpt><trkpt lat="30.60277939" lon="34.79722595"><ele>865.4</ele><time>2013-11-23T06:33:34.0000000+00:00</time></trkpt><trkpt lat="30.60277939" lon="34.79722214"><ele>865.4</ele><time>2013-11-23T06:33:39.0000000+00:00</time></trkpt><trkpt lat="30.60277939" lon="34.79722214"><ele>865.3</ele><time>2013-11-23T06:33:44.0000000+00:00</time></trkpt><trkpt lat="30.60277939" lon="34.79722214"><ele>865.3</ele><time>2013-11-23T06:33:49.0000000+00:00</time></trkpt><trkpt lat="30.60277939" lon="34.79722214"><ele>865.3</ele><time>2013-11-23T06:33:54.0000000+00:00</time></trkpt><trkpt lat="30.60277939" lon="34.79722214"><ele>865.3</ele><time>2013-11-23T06:33:59.0000000+00:00</time></trkpt><trkpt lat="30.60277939" lon="34.79722214"><ele>865.3</ele><time>2013-11-23T06:34:04.0000000+00:00</time></trkpt><trkpt lat="30.60277939" lon="34.79722214"><ele>865.3</ele><time>2013-11-23T06:34:09.0000000+00:00</time></trkpt><trkpt lat="30.60277939" lon="34.79722214"><ele>865.3</ele><time>2013-11-23T06:34:14.0000000+00:00</time></trkpt><trkpt lat="30.60277939" lon="34.79722214"><ele>865.3</ele><time>2013-11-23T06:34:19.0000000+00:00</time></trkpt><trkpt lat="30.60277939" lon="34.79722214"><ele>865.2</ele><time>2013-11-23T06:34:24.0000000+00:00</time></trkpt><trkpt lat="30.60277939" lon="34.79722214"><ele>865.2</ele><time>2013-11-23T06:34:29.0000000+00:00</time></trkpt><trkpt lat="30.60277939" lon="34.79722214"><ele>865.2</ele><time>2013-11-23T06:34:34.0000000+00:00</time></trkpt><trkpt lat="30.60277939" lon="34.79722214"><ele>865.2</ele><time>2013-11-23T06:34:39.0000000+00:00</time></trkpt><trkpt lat="30.60277939" lon="34.79722214"><ele>865.2</ele><time>2013-11-23T06:34:44.0000000+00:00</time></trkpt><trkpt lat="30.60277939" lon="34.79722214"><ele>865.2</ele><time>2013-11-23T06:34:49.0000000+00:00</time></trkpt><trkpt lat="30.60277939" lon="34.79722214"><ele>865.2</ele><time>2013-11-23T06:34:54.0000000+00:00</time></trkpt><trkpt lat="30.60277939" lon="34.79722214"><ele>865.1</ele><time>2013-11-23T06:34:59.0000000+00:00</time></trkpt><trkpt lat="30.60277939" lon="34.79722214"><ele>865.1</ele><time>2013-11-23T06:35:04.0000000+00:00</time></trkpt><trkpt lat="30.60277939" lon="34.79722214"><ele>865.1</ele><time>2013-11-23T06:35:09.0000000+00:00</time></trkpt><trkpt lat="30.60277939" lon="34.79722214"><ele>865.1</ele><time>2013-11-23T06:35:14.0000000+00:00</time></trkpt><trkpt lat="30.60277939" lon="34.79722214"><ele>865.1</ele><time>2013-11-23T06:35:19.0000000+00:00</time></trkpt><trkpt lat="30.60277939" lon="34.79722214"><ele>865.1</ele><time>2013-11-23T06:35:24.0000000+00:00</time></trkpt><trkpt lat="30.60277939" lon="34.79722214"><ele>865.1</ele><time>2013-11-23T06:35:29.0000000+00:00</time></trkpt><trkpt lat="30.6027813" lon="34.79722214"><ele>865.1</ele><time>2013-11-23T06:35:34.0000000+00:00</time></trkpt><trkpt lat="30.6027813" lon="34.79722214"><ele>865.0</ele><time>2013-11-23T06:35:39.0000000+00:00</time></trkpt><trkpt lat="30.6027813" lon="34.79722214"><ele>865.0</ele><time>2013-11-23T06:35:44.0000000+00:00</time></trkpt><trkpt lat="30.6027813" lon="34.79722214"><ele>865.0</ele><time>2013-11-23T06:35:49.0000000+00:00</time></trkpt><trkpt lat="30.6027813" lon="34.79722214"><ele>865.0</ele><time>2013-11-23T06:35:54.0000000+00:00</time></trkpt><trkpt lat="30.6027813" lon="34.79722214"><ele>865.0</ele><time>2013-11-23T06:35:59.0000000+00:00</time></trkpt><trkpt lat="30.6027813" lon="34.79722214"><ele>865.0</ele><time>2013-11-23T06:36:04.0000000+00:00</time></trkpt><trkpt lat="30.6027813" lon="34.79722214"><ele>865.0</ele><time>2013-11-23T06:36:09.0000000+00:00</time></trkpt><trkpt lat="30.6027813" lon="34.79722214"><ele>865.0</ele><time>2013-11-23T06:36:14.0000000+00:00</time></trkpt><trkpt lat="30.6027813" lon="34.79722214"><ele>864.9</ele><time>2013-11-23T06:36:19.0000000+00:00</time></trkpt><trkpt lat="30.6027813" lon="34.79722214"><ele>864.9</ele><time>2013-11-23T06:36:24.0000000+00:00</time></trkpt><trkpt lat="30.6027813" lon="34.79722214"><ele>864.9</ele><time>2013-11-23T06:36:29.0000000+00:00</time></trkpt><trkpt lat="30.6027813" lon="34.79722214"><ele>864.9</ele><time>2013-11-23T06:36:34.0000000+00:00</time></trkpt><trkpt lat="30.6027813" lon="34.79722214"><ele>864.9</ele><time>2013-11-23T06:36:39.0000000+00:00</time></trkpt><trkpt lat="30.6027813" lon="34.79722214"><ele>864.9</ele><time>2013-11-23T06:36:44.0000000+00:00</time></trkpt><trkpt lat="30.6027813" lon="34.79722214"><ele>864.9</ele><time>2013-11-23T06:36:49.0000000+00:00</time></trkpt><trkpt lat="30.6027813" lon="34.79722214"><ele>864.9</ele><time>2013-11-23T06:36:54.0000000+00:00</time></trkpt><trkpt lat="30.6027813" lon="34.79721832"><ele>864.8</ele><time>2013-11-23T06:36:59.0000000+00:00</time></trkpt><trkpt lat="30.6027813" lon="34.79721832"><ele>864.8</ele><time>2013-11-23T06:37:04.0000000+00:00</time></trkpt><trkpt lat="30.6027813" lon="34.79721832"><ele>864.8</ele><time>2013-11-23T06:37:09.0000000+00:00</time></trkpt><trkpt lat="30.6027813" lon="34.79721832"><ele>864.8</ele><time>2013-11-23T06:37:14.0000000+00:00</time></trkpt><trkpt lat="30.6027813" lon="34.79721832"><ele>864.8</ele><time>2013-11-23T06:37:19.0000000+00:00</time></trkpt><trkpt lat="30.6027813" lon="34.79721832"><ele>864.8</ele><time>2013-11-23T06:37:24.0000000+00:00</time></trkpt><trkpt lat="30.6027813" lon="34.79721832"><ele>864.8</ele><time>2013-11-23T06:37:29.0000000+00:00</time></trkpt><trkpt lat="30.6027813" lon="34.79721832"><ele>864.8</ele><time>2013-11-23T06:37:34.0000000+00:00</time></trkpt><trkpt lat="30.6027813" lon="34.79721832"><ele>864.8</ele><time>2013-11-23T06:37:39.0000000+00:00</time></trkpt><trkpt lat="30.6027813" lon="34.79721832"><ele>864.7</ele><time>2013-11-23T06:37:44.0000000+00:00</time></trkpt><trkpt lat="30.6027813" lon="34.79721832"><ele>864.7</ele><time>2013-11-23T06:37:49.0000000+00:00</time></trkpt><trkpt lat="30.6027813" lon="34.79721832"><ele>864.7</ele><time>2013-11-23T06:37:54.0000000+00:00</time></trkpt><trkpt lat="30.6027813" lon="34.79721832"><ele>864.7</ele><time>2013-11-23T06:37:59.0000000+00:00</time></trkpt><trkpt lat="30.6027813" lon="34.79721832"><ele>864.7</ele><time>2013-11-23T06:38:04.0000000+00:00</time></trkpt><trkpt lat="30.6027813" lon="34.79721832"><ele>864.7</ele><time>2013-11-23T06:38:09.0000000+00:00</time></trkpt><trkpt lat="30.6027813" lon="34.79721832"><ele>864.7</ele><time>2013-11-23T06:38:14.0000000+00:00</time></trkpt><trkpt lat="30.6027813" lon="34.79721832"><ele>864.6</ele><time>2013-11-23T06:38:19.0000000+00:00</time></trkpt><trkpt lat="30.6027832" lon="34.79721832"><ele>864.6</ele><time>2013-11-23T06:38:24.0000000+00:00</time></trkpt><trkpt lat="30.6027832" lon="34.79721832"><ele>864.6</ele><time>2013-11-23T06:38:29.0000000+00:00</time></trkpt><trkpt lat="30.6027832" lon="34.79721832"><ele>864.6</ele><time>2013-11-23T06:38:34.0000000+00:00</time></trkpt><trkpt lat="30.6027832" lon="34.79721832"><ele>864.6</ele><time>2013-11-23T06:38:39.0000000+00:00</time></trkpt><trkpt lat="30.6027832" lon="34.79721832"><ele>864.6</ele><time>2013-11-23T06:38:44.0000000+00:00</time></trkpt><trkpt lat="30.6027832" lon="34.79721832"><ele>864.6</ele><time>2013-11-23T06:38:49.0000000+00:00</time></trkpt><trkpt lat="30.6027832" lon="34.79721832"><ele>864.6</ele><time>2013-11-23T06:38:54.0000000+00:00</time></trkpt><trkpt lat="30.6027832" lon="34.79721832"><ele>864.6</ele><time>2013-11-23T06:38:59.0000000+00:00</time></trkpt><trkpt lat="30.6027832" lon="34.79721832"><ele>864.6</ele><time>2013-11-23T06:39:04.0000000+00:00</time></trkpt><trkpt lat="30.6027832" lon="34.79721832"><ele>864.5</ele><time>2013-11-23T06:39:09.0000000+00:00</time></trkpt><trkpt lat="30.6027832" lon="34.79721832"><ele>864.5</ele><time>2013-11-23T06:39:14.0000000+00:00</time></trkpt><trkpt lat="30.6027832" lon="34.79721832"><ele>864.5</ele><time>2013-11-23T06:39:19.0000000+00:00</time></trkpt><trkpt lat="30.6027832" lon="34.79721832"><ele>864.5</ele><time>2013-11-23T06:39:24.0000000+00:00</time></trkpt><trkpt lat="30.6027832" lon="34.79721451"><ele>864.5</ele><time>2013-11-23T06:39:29.0000000+00:00</time></trkpt><trkpt lat="30.6027832" lon="34.79721451"><ele>864.5</ele><time>2013-11-23T06:39:34.0000000+00:00</time></trkpt><trkpt lat="30.6027832" lon="34.79721451"><ele>864.5</ele><time>2013-11-23T06:39:39.0000000+00:00</time></trkpt><trkpt lat="30.6027832" lon="34.79721451"><ele>864.4</ele><time>2013-11-23T06:39:44.0000000+00:00</time></trkpt><trkpt lat="30.6027832" lon="34.79721451"><ele>864.4</ele><time>2013-11-23T06:39:49.0000000+00:00</time></trkpt><trkpt lat="30.6027832" lon="34.79721451"><ele>864.4</ele><time>2013-11-23T06:39:54.0000000+00:00</time></trkpt><trkpt lat="30.6027832" lon="34.79721451"><ele>864.3</ele><time>2013-11-23T06:39:59.0000000+00:00</time></trkpt><trkpt lat="30.6027832" lon="34.79721451"><ele>864.3</ele><time>2013-11-23T06:40:04.0000000+00:00</time></trkpt><trkpt lat="30.6027832" lon="34.79721451"><ele>864.3</ele><time>2013-11-23T06:40:09.0000000+00:00</time></trkpt><trkpt lat="30.6027832" lon="34.79721451"><ele>864.2</ele><time>2013-11-23T06:40:14.0000000+00:00</time></trkpt><trkpt lat="30.6027832" lon="34.79721451"><ele>864.2</ele><time>2013-11-23T06:40:19.0000000+00:00</time></trkpt><trkpt lat="30.6027832" lon="34.79721451"><ele>864.2</ele><time>2013-11-23T06:40:24.0000000+00:00</time></trkpt><trkpt lat="30.6027832" lon="34.79721451"><ele>864.1</ele><time>2013-11-23T06:40:29.0000000+00:00</time></trkpt><trkpt lat="30.6027832" lon="34.79721451"><ele>864.1</ele><time>2013-11-23T06:40:34.0000000+00:00</time></trkpt><trkpt lat="30.6027832" lon="34.79721451"><ele>864.1</ele><time>2013-11-23T06:40:39.0000000+00:00</time></trkpt><trkpt lat="30.6027832" lon="34.79721451"><ele>864.1</ele><time>2013-11-23T06:40:44.0000000+00:00</time></trkpt><trkpt lat="30.6027832" lon="34.79721451"><ele>864.1</ele><time>2013-11-23T06:40:49.0000000+00:00</time></trkpt><trkpt lat="30.6027832" lon="34.79721451"><ele>864.0</ele><time>2013-11-23T06:40:54.0000000+00:00</time></trkpt><trkpt lat="30.6027832" lon="34.79721069"><ele>864.0</ele><time>2013-11-23T06:40:59.0000000+00:00</time></trkpt><trkpt lat="30.6027832" lon="34.79721069"><ele>864.0</ele><time>2013-11-23T06:41:04.0000000+00:00</time></trkpt><trkpt lat="30.6027832" lon="34.79721069"><ele>864.0</ele><time>2013-11-23T06:41:09.0000000+00:00</time></trkpt><trkpt lat="30.6027832" lon="34.79721069"><ele>864.0</ele><time>2013-11-23T06:41:14.0000000+00:00</time></trkpt><trkpt lat="30.6027832" lon="34.79721069"><ele>863.9</ele><time>2013-11-23T06:41:19.0000000+00:00</time></trkpt><trkpt lat="30.6027832" lon="34.79721069"><ele>863.9</ele><time>2013-11-23T06:41:24.0000000+00:00</time></trkpt><trkpt lat="30.6027832" lon="34.79721069"><ele>863.9</ele><time>2013-11-23T06:41:29.0000000+00:00</time></trkpt><trkpt lat="30.6027832" lon="34.79721069"><ele>863.9</ele><time>2013-11-23T06:41:34.0000000+00:00</time></trkpt><trkpt lat="30.6027832" lon="34.79721069"><ele>863.9</ele><time>2013-11-23T06:41:39.0000000+00:00</time></trkpt><trkpt lat="30.6027832" lon="34.79721069"><ele>863.8</ele><time>2013-11-23T06:41:44.0000000+00:00</time></trkpt><trkpt lat="30.6027832" lon="34.79721069"><ele>863.8</ele><time>2013-11-23T06:41:49.0000000+00:00</time></trkpt><trkpt lat="30.6027832" lon="34.79721069"><ele>863.8</ele><time>2013-11-23T06:41:54.0000000+00:00</time></trkpt><trkpt lat="30.6027832" lon="34.79721069"><ele>863.8</ele><time>2013-11-23T06:41:59.0000000+00:00</time></trkpt><trkpt lat="30.6027832" lon="34.79721069"><ele>863.8</ele><time>2013-11-23T06:42:04.0000000+00:00</time></trkpt><trkpt lat="30.6027832" lon="34.79721069"><ele>863.7</ele><time>2013-11-23T06:42:09.0000000+00:00</time></trkpt><trkpt lat="30.6027832" lon="34.79721069"><ele>863.7</ele><time>2013-11-23T06:42:14.0000000+00:00</time></trkpt><trkpt lat="30.6027832" lon="34.79721069"><ele>863.7</ele><time>2013-11-23T06:42:19.0000000+00:00</time></trkpt><trkpt lat="30.6027832" lon="34.79721069"><ele>863.7</ele><time>2013-11-23T06:42:24.0000000+00:00</time></trkpt><trkpt lat="30.6027832" lon="34.79721069"><ele>863.7</ele><time>2013-11-23T06:42:29.0000000+00:00</time></trkpt><trkpt lat="30.6027832" lon="34.79721069"><ele>863.6</ele><time>2013-11-23T06:42:34.0000000+00:00</time></trkpt><trkpt lat="30.6027832" lon="34.79721069"><ele>863.6</ele><time>2013-11-23T06:42:39.0000000+00:00</time></trkpt><trkpt lat="30.6027832" lon="34.79721069"><ele>863.6</ele><time>2013-11-23T06:42:44.0000000+00:00</time></trkpt><trkpt lat="30.6027832" lon="34.79721069"><ele>863.6</ele><time>2013-11-23T06:42:49.0000000+00:00</time></trkpt><trkpt lat="30.6027832" lon="34.79721069"><ele>863.6</ele><time>2013-11-23T06:42:54.0000000+00:00</time></trkpt><trkpt lat="30.6027832" lon="34.79720688"><ele>863.6</ele><time>2013-11-23T06:42:59.0000000+00:00</time></trkpt><trkpt lat="30.6027832" lon="34.79720688"><ele>863.6</ele><time>2013-11-23T06:43:04.0000000+00:00</time></trkpt><trkpt lat="30.6027832" lon="34.79720688"><ele>863.5</ele><time>2013-11-23T06:43:09.0000000+00:00</time></trkpt><trkpt lat="30.6027832" lon="34.79720688"><ele>863.5</ele><time>2013-11-23T06:43:14.0000000+00:00</time></trkpt><trkpt lat="30.6027832" lon="34.79720688"><ele>863.5</ele><time>2013-11-23T06:43:19.0000000+00:00</time></trkpt><trkpt lat="30.6027832" lon="34.79720688"><ele>863.5</ele><time>2013-11-23T06:43:24.0000000+00:00</time></trkpt><trkpt lat="30.6027832" lon="34.79720688"><ele>863.5</ele><time>2013-11-23T06:43:29.0000000+00:00</time></trkpt><trkpt lat="30.6027832" lon="34.79720688"><ele>863.5</ele><time>2013-11-23T06:43:34.0000000+00:00</time></trkpt><trkpt lat="30.6027832" lon="34.79720688"><ele>863.4</ele><time>2013-11-23T06:43:39.0000000+00:00</time></trkpt><trkpt lat="30.6027832" lon="34.79720688"><ele>863.4</ele><time>2013-11-23T06:43:44.0000000+00:00</time></trkpt><trkpt lat="30.6027832" lon="34.79720688"><ele>863.4</ele><time>2013-11-23T06:43:49.0000000+00:00</time></trkpt><trkpt lat="30.6027832" lon="34.79720688"><ele>863.4</ele><time>2013-11-23T06:43:54.0000000+00:00</time></trkpt><trkpt lat="30.6027832" lon="34.79720688"><ele>863.4</ele><time>2013-11-23T06:43:59.0000000+00:00</time></trkpt><trkpt lat="30.6027832" lon="34.79720688"><ele>863.4</ele><time>2013-11-23T06:44:04.0000000+00:00</time></trkpt><trkpt lat="30.6027813" lon="34.79719925"><ele>863.5</ele><time>2013-11-23T06:44:09.0000000+00:00</time></trkpt><trkpt lat="30.6027813" lon="34.79721069"><ele>863.2</ele><time>2013-11-23T06:44:14.0000000+00:00</time></trkpt><trkpt lat="30.6027813" lon="34.79720688"><ele>863.1</ele><time>2013-11-23T06:44:19.0000000+00:00</time></trkpt><trkpt lat="30.60277748" lon="34.79721069"><ele>863.1</ele><time>2013-11-23T06:44:24.0000000+00:00</time></trkpt><trkpt lat="30.60277748" lon="34.79721069"><ele>863.2</ele><time>2013-11-23T06:44:29.0000000+00:00</time></trkpt><trkpt lat="30.60277557" lon="34.79721069"><ele>863.2</ele><time>2013-11-23T06:44:34.0000000+00:00</time></trkpt><trkpt lat="30.60277557" lon="34.79721832"><ele>863.3</ele><time>2013-11-23T06:44:39.0000000+00:00</time></trkpt><trkpt lat="30.60277557" lon="34.79721451"><ele>863.2</ele><time>2013-11-23T06:44:44.0000000+00:00</time></trkpt><trkpt lat="30.60277557" lon="34.79721451"><ele>863.2</ele><time>2013-11-23T06:44:49.0000000+00:00</time></trkpt><trkpt lat="30.60277557" lon="34.79721451"><ele>863.2</ele><time>2013-11-23T06:44:54.0000000+00:00</time></trkpt><trkpt lat="30.60277367" lon="34.79721451"><ele>863.2</ele><time>2013-11-23T06:44:59.0000000+00:00</time></trkpt><trkpt lat="30.60277367" lon="34.79721451"><ele>863.2</ele><time>2013-11-23T06:45:04.0000000+00:00</time></trkpt><trkpt lat="30.60277367" lon="34.79721451"><ele>863.2</ele><time>2013-11-23T06:45:09.0000000+00:00</time></trkpt><trkpt lat="30.60277367" lon="34.79721451"><ele>863.2</ele><time>2013-11-23T06:45:14.0000000+00:00</time></trkpt><trkpt lat="30.60277367" lon="34.79721451"><ele>863.2</ele><time>2013-11-23T06:45:19.0000000+00:00</time></trkpt><trkpt lat="30.60277748" lon="34.79721832"><ele>863.2</ele><time>2013-11-23T06:45:24.0000000+00:00</time></trkpt><trkpt lat="30.60285568" lon="34.79724121"><ele>862.8</ele><time>2013-11-23T06:45:29.0000000+00:00</time></trkpt><trkpt lat="30.60297394" lon="34.79724503"><ele>861.3</ele><time>2013-11-23T06:45:34.0000000+00:00</time></trkpt><trkpt lat="30.60311317" lon="34.79718781"><ele>860.4</ele><time>2013-11-23T06:45:39.0000000+00:00</time></trkpt><trkpt lat="30.60323906" lon="34.79710007"><ele>859.0</ele><time>2013-11-23T06:45:44.0000000+00:00</time></trkpt><trkpt lat="30.60339928" lon="34.796978"><ele>857.6</ele><time>2013-11-23T06:45:49.0000000+00:00</time></trkpt><trkpt lat="30.6035881" lon="34.79683304"><ele>855.9</ele><time>2013-11-23T06:45:54.0000000+00:00</time></trkpt><trkpt lat="30.60383606" lon="34.79688263"><ele>854.4</ele><time>2013-11-23T06:45:59.0000000+00:00</time></trkpt><trkpt lat="30.60415649" lon="34.79711533"><ele>850.9</ele><time>2013-11-23T06:46:04.0000000+00:00</time></trkpt><trkpt lat="30.60451508" lon="34.79743576"><ele>846.6</ele><time>2013-11-23T06:46:09.0000000+00:00</time></trkpt><trkpt lat="30.60490799" lon="34.79766846"><ele>843.1</ele><time>2013-11-23T06:46:14.0000000+00:00</time></trkpt><trkpt lat="30.60522842" lon="34.79781342"><ele>839.6</ele><time>2013-11-23T06:46:19.0000000+00:00</time></trkpt><trkpt lat="30.60539818" lon="34.797966"><ele>837.9</ele><time>2013-11-23T06:46:24.0000000+00:00</time></trkpt><trkpt lat="30.60556984" lon="34.79814911"><ele>837.0</ele><time>2013-11-23T06:46:29.0000000+00:00</time></trkpt><trkpt lat="30.60573006" lon="34.79795837"><ele>836.8</ele><time>2013-11-23T06:46:34.0000000+00:00</time></trkpt><trkpt lat="30.60573959" lon="34.79787827"><ele>836.5</ele><time>2013-11-23T06:46:39.0000000+00:00</time></trkpt><trkpt lat="30.60573769" lon="34.79787827"><ele>836.5</ele><time>2013-11-23T06:46:44.0000000+00:00</time></trkpt><trkpt lat="30.60573769" lon="34.79784393"><ele>836.4</ele><time>2013-11-23T06:46:49.0000000+00:00</time></trkpt><trkpt lat="30.60581017" lon="34.79771042"><ele>836.0</ele><time>2013-11-23T06:46:54.0000000+00:00</time></trkpt><trkpt lat="30.60595131" lon="34.79758835"><ele>835.5</ele><time>2013-11-23T06:46:59.0000000+00:00</time></trkpt><trkpt lat="30.60614967" lon="34.79747772"><ele>834.6</ele><time>2013-11-23T06:47:04.0000000+00:00</time></trkpt><trkpt lat="30.60640335" lon="34.79736328"><ele>832.6</ele><time>2013-11-23T06:47:09.0000000+00:00</time></trkpt><trkpt lat="30.60667229" lon="34.79717255"><ele>831.3</ele><time>2013-11-23T06:47:14.0000000+00:00</time></trkpt><trkpt lat="30.60689735" lon="34.79686356"><ele>829.6</ele><time>2013-11-23T06:47:19.0000000+00:00</time></trkpt><trkpt lat="30.60702896" lon="34.79646683"><ele>827.4</ele><time>2013-11-23T06:47:24.0000000+00:00</time></trkpt><trkpt lat="30.60706139" lon="34.79605103"><ele>826.7</ele><time>2013-11-23T06:47:29.0000000+00:00</time></trkpt><trkpt lat="30.60706711" lon="34.79567337"><ele>826.4</ele><time>2013-11-23T06:47:34.0000000+00:00</time></trkpt><trkpt lat="30.60700607" lon="34.79535294"><ele>826.3</ele><time>2013-11-23T06:47:39.0000000+00:00</time></trkpt><trkpt lat="30.60702515" lon="34.79513931"><ele>827.2</ele><time>2013-11-23T06:47:44.0000000+00:00</time></trkpt><trkpt lat="30.6071434" lon="34.79499817"><ele>827.3</ele><time>2013-11-23T06:47:49.0000000+00:00</time></trkpt><trkpt lat="30.60722542" lon="34.79483795"><ele>827.3</ele><time>2013-11-23T06:47:54.0000000+00:00</time></trkpt><trkpt lat="30.60727882" lon="34.79468918"><ele>827.9</ele><time>2013-11-23T06:47:59.0000000+00:00</time></trkpt><trkpt lat="30.60732842" lon="34.79456711"><ele>828.4</ele><time>2013-11-23T06:48:04.0000000+00:00</time></trkpt><trkpt lat="30.60738754" lon="34.79452133"><ele>828.2</ele><time>2013-11-23T06:48:09.0000000+00:00</time></trkpt><trkpt lat="30.60740852" lon="34.79462814"><ele>827.7</ele><time>2013-11-23T06:48:14.0000000+00:00</time></trkpt><trkpt lat="30.60748482" lon="34.79481888"><ele>826.2</ele><time>2013-11-23T06:48:19.0000000+00:00</time></trkpt><trkpt lat="30.60763168" lon="34.7950058"><ele>824.1</ele><time>2013-11-23T06:48:24.0000000+00:00</time></trkpt><trkpt lat="30.60783958" lon="34.79514313"><ele>822.3</ele><time>2013-11-23T06:48:29.0000000+00:00</time></trkpt><trkpt lat="30.60810852" lon="34.79521179"><ele>820.8</ele><time>2013-11-23T06:48:34.0000000+00:00</time></trkpt><trkpt lat="30.60837364" lon="34.79517365"><ele>819.8</ele><time>2013-11-23T06:48:39.0000000+00:00</time></trkpt><trkpt lat="30.60864258" lon="34.79514694"><ele>817.8</ele><time>2013-11-23T06:48:44.0000000+00:00</time></trkpt><trkpt lat="30.60892868" lon="34.79507065"><ele>814.7</ele><time>2013-11-23T06:48:49.0000000+00:00</time></trkpt><trkpt lat="30.60913658" lon="34.79508209"><ele>812.5</ele><time>2013-11-23T06:48:54.0000000+00:00</time></trkpt><trkpt lat="30.60924912" lon="34.79518509"><ele>812.1</ele><time>2013-11-23T06:48:59.0000000+00:00</time></trkpt><trkpt lat="30.60934258" lon="34.79514694"><ele>812.8</ele><time>2013-11-23T06:49:04.0000000+00:00</time></trkpt><trkpt lat="30.6094265" lon="34.79502869"><ele>812.7</ele><time>2013-11-23T06:49:09.0000000+00:00</time></trkpt><trkpt lat="30.60950851" lon="34.79485703"><ele>812.5</ele><time>2013-11-23T06:49:14.0000000+00:00</time></trkpt><trkpt lat="30.60959625" lon="34.79466629"><ele>812.2</ele><time>2013-11-23T06:49:19.0000000+00:00</time></trkpt><trkpt lat="30.60968971" lon="34.79446411"><ele>812.0</ele><time>2013-11-23T06:49:24.0000000+00:00</time></trkpt><trkpt lat="30.60979652" lon="34.79426575"><ele>811.8</ele><time>2013-11-23T06:49:29.0000000+00:00</time></trkpt><trkpt lat="30.60989761" lon="34.79405594"><ele>811.7</ele><time>2013-11-23T06:49:34.0000000+00:00</time></trkpt><trkpt lat="30.60998726" lon="34.79386139"><ele>811.7</ele><time>2013-11-23T06:49:39.0000000+00:00</time></trkpt><trkpt lat="30.61010361" lon="34.79368973"><ele>811.7</ele><time>2013-11-23T06:49:44.0000000+00:00</time></trkpt><trkpt lat="30.61021805" lon="34.7935257"><ele>811.0</ele><time>2013-11-23T06:49:49.0000000+00:00</time></trkpt><trkpt lat="30.6103344" lon="34.79334641"><ele>810.7</ele><time>2013-11-23T06:49:54.0000000+00:00</time></trkpt><trkpt lat="30.61043739" lon="34.79314804"><ele>809.9</ele><time>2013-11-23T06:49:59.0000000+00:00</time></trkpt><trkpt lat="30.61051941" lon="34.79294205"><ele>809.1</ele><time>2013-11-23T06:50:04.0000000+00:00</time></trkpt><trkpt lat="30.61056519" lon="34.7927208"><ele>808.4</ele><time>2013-11-23T06:50:09.0000000+00:00</time></trkpt><trkpt lat="30.61059952" lon="34.79248428"><ele>809.0</ele><time>2013-11-23T06:50:14.0000000+00:00</time></trkpt><trkpt lat="30.61058807" lon="34.79224014"><ele>809.0</ele><time>2013-11-23T06:50:19.0000000+00:00</time></trkpt><trkpt lat="30.6105175" lon="34.79200745"><ele>809.3</ele><time>2013-11-23T06:50:24.0000000+00:00</time></trkpt><trkpt lat="30.61040688" lon="34.79179764"><ele>809.9</ele><time>2013-11-23T06:50:29.0000000+00:00</time></trkpt><trkpt lat="30.61030006" lon="34.79166031"><ele>810.9</ele><time>2013-11-23T06:50:34.0000000+00:00</time></trkpt><trkpt lat="30.61018944" lon="34.79158783"><ele>811.8</ele><time>2013-11-23T06:50:39.0000000+00:00</time></trkpt><trkpt lat="30.61007309" lon="34.79150009"><ele>812.7</ele><time>2013-11-23T06:50:44.0000000+00:00</time></trkpt><trkpt lat="30.60996246" lon="34.79143143"><ele>813.6</ele><time>2013-11-23T06:50:49.0000000+00:00</time></trkpt><trkpt lat="30.60982513" lon="34.79133225"><ele>814.6</ele><time>2013-11-23T06:50:54.0000000+00:00</time></trkpt><trkpt lat="30.60967827" lon="34.79124069"><ele>815.6</ele><time>2013-11-23T06:50:59.0000000+00:00</time></trkpt><trkpt lat="30.60953903" lon="34.79112625"><ele>816.9</ele><time>2013-11-23T06:51:04.0000000+00:00</time></trkpt><trkpt lat="30.60942078" lon="34.7910347"><ele>818.5</ele><time>2013-11-23T06:51:09.0000000+00:00</time></trkpt><trkpt lat="30.60927582" lon="34.79092789"><ele>819.3</ele><time>2013-11-23T06:51:14.0000000+00:00</time></trkpt><trkpt lat="30.60917473" lon="34.79082871"><ele>820.0</ele><time>2013-11-23T06:51:19.0000000+00:00</time></trkpt><trkpt lat="30.60905838" lon="34.79069138"><ele>820.5</ele><time>2013-11-23T06:51:24.0000000+00:00</time></trkpt><trkpt lat="30.60895348" lon="34.79052734"><ele>821.0</ele><time>2013-11-23T06:51:29.0000000+00:00</time></trkpt><trkpt lat="30.60887528" lon="34.79034805"><ele>821.3</ele><time>2013-11-23T06:51:34.0000000+00:00</time></trkpt><trkpt lat="30.60878944" lon="34.7901535"><ele>821.2</ele><time>2013-11-23T06:51:39.0000000+00:00</time></trkpt><trkpt lat="30.60873604" lon="34.78995132"><ele>821.8</ele><time>2013-11-23T06:51:44.0000000+00:00</time></trkpt><trkpt lat="30.60871315" lon="34.789711"><ele>821.8</ele><time>2013-11-23T06:51:49.0000000+00:00</time></trkpt><trkpt lat="30.60873032" lon="34.78947067"><ele>821.2</ele><time>2013-11-23T06:51:54.0000000+00:00</time></trkpt><trkpt lat="30.60879898" lon="34.78917694"><ele>821.3</ele><time>2013-11-23T06:51:59.0000000+00:00</time></trkpt><trkpt lat="30.60889053" lon="34.78892136"><ele>820.9</ele><time>2013-11-23T06:52:04.0000000+00:00</time></trkpt><trkpt lat="30.60902405" lon="34.7887001"><ele>821.3</ele><time>2013-11-23T06:52:09.0000000+00:00</time></trkpt><trkpt lat="30.60915947" lon="34.78847885"><ele>821.9</ele><time>2013-11-23T06:52:14.0000000+00:00</time></trkpt><trkpt lat="30.60927582" lon="34.7882576"><ele>822.0</ele><time>2013-11-23T06:52:19.0000000+00:00</time></trkpt><trkpt lat="30.60938263" lon="34.78801727"><ele>821.9</ele><time>2013-11-23T06:52:24.0000000+00:00</time></trkpt><trkpt lat="30.60944748" lon="34.78776169"><ele>822.0</ele><time>2013-11-23T06:52:29.0000000+00:00</time></trkpt><trkpt lat="30.60946655" lon="34.78749085"><ele>822.8</ele><time>2013-11-23T06:52:34.0000000+00:00</time></trkpt><trkpt lat="30.60942078" lon="34.78731537"><ele>823.4</ele><time>2013-11-23T06:52:39.0000000+00:00</time></trkpt><trkpt lat="30.60937119" lon="34.78717804"><ele>824.4</ele><time>2013-11-23T06:52:44.0000000+00:00</time></trkpt><trkpt lat="30.60929298" lon="34.78704834"><ele>825.2</ele><time>2013-11-23T06:52:49.0000000+00:00</time></trkpt><trkpt lat="30.6091919" lon="34.78689194"><ele>826.0</ele><time>2013-11-23T06:52:54.0000000+00:00</time></trkpt><trkpt lat="30.60906601" lon="34.78677368"><ele>826.9</ele><time>2013-11-23T06:52:59.0000000+00:00</time></trkpt><trkpt lat="30.60893631" lon="34.78667831"><ele>827.6</ele><time>2013-11-23T06:53:04.0000000+00:00</time></trkpt><trkpt lat="30.60878372" lon="34.78657913"><ele>828.2</ele><time>2013-11-23T06:53:09.0000000+00:00</time></trkpt><trkpt lat="30.60867691" lon="34.78648758"><ele>828.9</ele><time>2013-11-23T06:53:14.0000000+00:00</time></trkpt><trkpt lat="30.60855675" lon="34.78639984"><ele>829.9</ele><time>2013-11-23T06:53:19.0000000+00:00</time></trkpt><trkpt lat="30.60843086" lon="34.78630066"><ele>830.9</ele><time>2013-11-23T06:53:24.0000000+00:00</time></trkpt><trkpt lat="30.60829926" lon="34.78619385"><ele>832.1</ele><time>2013-11-23T06:53:29.0000000+00:00</time></trkpt><trkpt lat="30.60814667" lon="34.78609085"><ele>832.5</ele><time>2013-11-23T06:53:34.0000000+00:00</time></trkpt><trkpt lat="30.60803413" lon="34.78601074"><ele>833.3</ele><time>2013-11-23T06:53:39.0000000+00:00</time></trkpt><trkpt lat="30.60788918" lon="34.78593826"><ele>834.5</ele><time>2013-11-23T06:53:44.0000000+00:00</time></trkpt><trkpt lat="30.60774803" lon="34.78587723"><ele>835.5</ele><time>2013-11-23T06:53:49.0000000+00:00</time></trkpt><trkpt lat="30.60760498" lon="34.78583145"><ele>836.4</ele><time>2013-11-23T06:53:54.0000000+00:00</time></trkpt><trkpt lat="30.60749245" lon="34.78579712"><ele>837.9</ele><time>2013-11-23T06:53:59.0000000+00:00</time></trkpt><trkpt lat="30.6073761" lon="34.78575134"><ele>838.8</ele><time>2013-11-23T06:54:04.0000000+00:00</time></trkpt><trkpt lat="30.60725021" lon="34.78571701"><ele>839.8</ele><time>2013-11-23T06:54:09.0000000+00:00</time></trkpt><trkpt lat="30.60713005" lon="34.78566742"><ele>841.2</ele><time>2013-11-23T06:54:14.0000000+00:00</time></trkpt><trkpt lat="30.6070137" lon="34.78562164"><ele>842.0</ele><time>2013-11-23T06:54:19.0000000+00:00</time></trkpt><trkpt lat="30.60689163" lon="34.78556442"><ele>842.9</ele><time>2013-11-23T06:54:24.0000000+00:00</time></trkpt><trkpt lat="30.60676765" lon="34.7855072"><ele>843.6</ele><time>2013-11-23T06:54:29.0000000+00:00</time></trkpt><trkpt lat="30.60666275" lon="34.78546143"><ele>843.1</ele><time>2013-11-23T06:54:34.0000000+00:00</time></trkpt><trkpt lat="30.6065464" lon="34.78538513"><ele>842.9</ele><time>2013-11-23T06:54:39.0000000+00:00</time></trkpt><trkpt lat="30.6064415" lon="34.78530502"><ele>842.8</ele><time>2013-11-23T06:54:44.0000000+00:00</time></trkpt><trkpt lat="30.60635757" lon="34.78516769"><ele>843.0</ele><time>2013-11-23T06:54:49.0000000+00:00</time></trkpt><trkpt lat="30.60627365" lon="34.78499985"><ele>843.5</ele><time>2013-11-23T06:54:54.0000000+00:00</time></trkpt><trkpt lat="30.60618973" lon="34.78480911"><ele>843.1</ele><time>2013-11-23T06:54:59.0000000+00:00</time></trkpt><trkpt lat="30.60611725" lon="34.78461075"><ele>842.8</ele><time>2013-11-23T06:55:04.0000000+00:00</time></trkpt><trkpt lat="30.60603333" lon="34.78440476"><ele>842.0</ele><time>2013-11-23T06:55:09.0000000+00:00</time></trkpt><trkpt lat="30.60595322" lon="34.78419113"><ele>841.5</ele><time>2013-11-23T06:55:14.0000000+00:00</time></trkpt><trkpt lat="30.60586739" lon="34.78396225"><ele>841.3</ele><time>2013-11-23T06:55:19.0000000+00:00</time></trkpt><trkpt lat="30.60575676" lon="34.78373718"><ele>841.4</ele><time>2013-11-23T06:55:24.0000000+00:00</time></trkpt><trkpt lat="30.60559845" lon="34.78355789"><ele>841.0</ele><time>2013-11-23T06:55:29.0000000+00:00</time></trkpt><trkpt lat="30.60539246" lon="34.78344345"><ele>840.7</ele><time>2013-11-23T06:55:34.0000000+00:00</time></trkpt><trkpt lat="30.60517883" lon="34.78337097"><ele>841.0</ele><time>2013-11-23T06:55:39.0000000+00:00</time></trkpt><trkpt lat="30.60493851" lon="34.78329468"><ele>841.6</ele><time>2013-11-23T06:55:44.0000000+00:00</time></trkpt><trkpt lat="30.604702" lon="34.78321075"><ele>841.5</ele><time>2013-11-23T06:55:49.0000000+00:00</time></trkpt><trkpt lat="30.60447884" lon="34.78313065"><ele>841.5</ele><time>2013-11-23T06:55:54.0000000+00:00</time></trkpt><trkpt lat="30.60425758" lon="34.78305054"><ele>841.5</ele><time>2013-11-23T06:55:59.0000000+00:00</time></trkpt><trkpt lat="30.60408402" lon="34.7829895"><ele>841.5</ele><time>2013-11-23T06:56:04.0000000+00:00</time></trkpt><trkpt lat="30.60398483" lon="34.78294754"><ele>842.2</ele><time>2013-11-23T06:56:09.0000000+00:00</time></trkpt><trkpt lat="30.60392571" lon="34.78291321"><ele>842.6</ele><time>2013-11-23T06:56:14.0000000+00:00</time></trkpt><trkpt lat="30.60383987" lon="34.78288651"><ele>842.5</ele><time>2013-11-23T06:56:19.0000000+00:00</time></trkpt><trkpt lat="30.60377693" lon="34.78281784"><ele>843.1</ele><time>2013-11-23T06:56:24.0000000+00:00</time></trkpt><trkpt lat="30.60381317" lon="34.78274536"><ele>843.5</ele><time>2013-11-23T06:56:29.0000000+00:00</time></trkpt><trkpt lat="30.60395432" lon="34.78273773"><ele>843.3</ele><time>2013-11-23T06:56:34.0000000+00:00</time></trkpt><trkpt lat="30.60413742" lon="34.78276825"><ele>843.5</ele><time>2013-11-23T06:56:39.0000000+00:00</time></trkpt><trkpt lat="30.60436058" lon="34.78282929"><ele>845.4</ele><time>2013-11-23T06:56:44.0000000+00:00</time></trkpt><trkpt lat="30.60457802" lon="34.78291702"><ele>847.2</ele><time>2013-11-23T06:56:49.0000000+00:00</time></trkpt><trkpt lat="30.60478401" lon="34.78296661"><ele>848.0</ele><time>2013-11-23T06:56:54.0000000+00:00</time></trkpt><trkpt lat="30.6050148" lon="34.78298569"><ele>848.7</ele><time>2013-11-23T06:56:59.0000000+00:00</time></trkpt><trkpt lat="30.60520554" lon="34.78297424"><ele>849.8</ele><time>2013-11-23T06:57:04.0000000+00:00</time></trkpt><trkpt lat="30.60534477" lon="34.78293228"><ele>850.7</ele><time>2013-11-23T06:57:09.0000000+00:00</time></trkpt><trkpt lat="30.60549736" lon="34.78284073"><ele>850.8</ele><time>2013-11-23T06:57:14.0000000+00:00</time></trkpt><trkpt lat="30.60564804" lon="34.78272247"><ele>850.2</ele><time>2013-11-23T06:57:19.0000000+00:00</time></trkpt><trkpt lat="30.60577583" lon="34.78258514"><ele>849.0</ele><time>2013-11-23T06:57:24.0000000+00:00</time></trkpt><trkpt lat="30.60590363" lon="34.78243637"><ele>847.9</ele><time>2013-11-23T06:57:29.0000000+00:00</time></trkpt><trkpt lat="30.60610771" lon="34.78223038"><ele>846.1</ele><time>2013-11-23T06:57:34.0000000+00:00</time></trkpt><trkpt lat="30.60632706" lon="34.78191376"><ele>843.4</ele><time>2013-11-23T06:57:39.0000000+00:00</time></trkpt><trkpt lat="30.60648727" lon="34.78148651"><ele>840.3</ele><time>2013-11-23T06:57:44.0000000+00:00</time></trkpt><trkpt lat="30.60659599" lon="34.78098679"><ele>836.8</ele><time>2013-11-23T06:57:49.0000000+00:00</time></trkpt><trkpt lat="30.60659027" lon="34.78042221"><ele>834.3</ele><time>2013-11-23T06:57:54.0000000+00:00</time></trkpt><trkpt lat="30.60669327" lon="34.77991104"><ele>833.3</ele><time>2013-11-23T06:57:59.0000000+00:00</time></trkpt><trkpt lat="30.60691452" lon="34.77945709"><ele>831.5</ele><time>2013-11-23T06:58:04.0000000+00:00</time></trkpt><trkpt lat="30.60708427" lon="34.77899551"><ele>830.6</ele><time>2013-11-23T06:58:09.0000000+00:00</time></trkpt><trkpt lat="30.60715294" lon="34.77853775"><ele>829.8</ele><time>2013-11-23T06:58:14.0000000+00:00</time></trkpt><trkpt lat="30.60721588" lon="34.77810288"><ele>828.7</ele><time>2013-11-23T06:58:19.0000000+00:00</time></trkpt><trkpt lat="30.60743332" lon="34.77772522"><ele>827.3</ele><time>2013-11-23T06:58:24.0000000+00:00</time></trkpt><trkpt lat="30.60779762" lon="34.77740479"><ele>825.0</ele><time>2013-11-23T06:58:29.0000000+00:00</time></trkpt><trkpt lat="30.60824204" lon="34.77716065"><ele>823.0</ele><time>2013-11-23T06:58:34.0000000+00:00</time></trkpt><trkpt lat="30.60872841" lon="34.77709961"><ele>821.0</ele><time>2013-11-23T06:58:39.0000000+00:00</time></trkpt><trkpt lat="30.60918045" lon="34.77730179"><ele>820.5</ele><time>2013-11-23T06:58:44.0000000+00:00</time></trkpt><trkpt lat="30.60957527" lon="34.77750015"><ele>820.6</ele><time>2013-11-23T06:58:49.0000000+00:00</time></trkpt><trkpt lat="30.60980988" lon="34.77760315"><ele>820.4</ele><time>2013-11-23T06:58:54.0000000+00:00</time></trkpt><trkpt lat="30.60985756" lon="34.77761459"><ele>820.4</ele><time>2013-11-23T06:58:59.0000000+00:00</time></trkpt><trkpt lat="30.60985756" lon="34.77761459"><ele>820.5</ele><time>2013-11-23T06:59:04.0000000+00:00</time></trkpt><trkpt lat="30.60985756" lon="34.77761459"><ele>820.4</ele><time>2013-11-23T06:59:09.0000000+00:00</time></trkpt><trkpt lat="30.60985756" lon="34.77761459"><ele>820.4</ele><time>2013-11-23T06:59:14.0000000+00:00</time></trkpt><trkpt lat="30.60986137" lon="34.77761459"><ele>820.4</ele><time>2013-11-23T06:59:19.0000000+00:00</time></trkpt><trkpt lat="30.60993958" lon="34.77758789"><ele>820.1</ele><time>2013-11-23T06:59:24.0000000+00:00</time></trkpt><trkpt lat="30.60999489" lon="34.77765274"><ele>820.1</ele><time>2013-11-23T06:59:29.0000000+00:00</time></trkpt><trkpt lat="30.60999107" lon="34.77767944"><ele>820.0</ele><time>2013-11-23T06:59:34.0000000+00:00</time></trkpt><trkpt lat="30.60999107" lon="34.77767944"><ele>819.9</ele><time>2013-11-23T06:59:39.0000000+00:00</time></trkpt><trkpt lat="30.60999107" lon="34.77767944"><ele>819.9</ele><time>2013-11-23T06:59:44.0000000+00:00</time></trkpt><trkpt lat="30.60999107" lon="34.77767944"><ele>819.9</ele><time>2013-11-23T06:59:49.0000000+00:00</time></trkpt><trkpt lat="30.61004067" lon="34.77765656"><ele>820.0</ele><time>2013-11-23T06:59:54.0000000+00:00</time></trkpt><trkpt lat="30.61011505" lon="34.7775383"><ele>819.8</ele><time>2013-11-23T06:59:59.0000000+00:00</time></trkpt><trkpt lat="30.61016464" lon="34.77742386"><ele>819.2</ele><time>2013-11-23T07:00:04.0000000+00:00</time></trkpt><trkpt lat="30.61018181" lon="34.77738953"><ele>819.1</ele><time>2013-11-23T07:00:09.0000000+00:00</time></trkpt><trkpt lat="30.61018753" lon="34.7773819"><ele>819.3</ele><time>2013-11-23T07:00:14.0000000+00:00</time></trkpt><trkpt lat="30.61018753" lon="34.77737808"><ele>819.3</ele><time>2013-11-23T07:00:19.0000000+00:00</time></trkpt><trkpt lat="30.61018944" lon="34.77737808"><ele>819.3</ele><time>2013-11-23T07:00:24.0000000+00:00</time></trkpt><trkpt lat="30.61019135" lon="34.77736664"><ele>819.2</ele><time>2013-11-23T07:00:29.0000000+00:00</time></trkpt><trkpt lat="30.61023521" lon="34.7773056"><ele>819.5</ele><time>2013-11-23T07:00:34.0000000+00:00</time></trkpt><trkpt lat="30.61031342" lon="34.77723694"><ele>819.3</ele><time>2013-11-23T07:00:39.0000000+00:00</time></trkpt><trkpt lat="30.61034775" lon="34.77719498"><ele>819.7</ele><time>2013-11-23T07:00:44.0000000+00:00</time></trkpt><trkpt lat="30.61034775" lon="34.77713013"><ele>820.2</ele><time>2013-11-23T07:00:49.0000000+00:00</time></trkpt><trkpt lat="30.61034203" lon="34.77703476"><ele>820.0</ele><time>2013-11-23T07:00:54.0000000+00:00</time></trkpt><trkpt lat="30.6103363" lon="34.77700424"><ele>820.1</ele><time>2013-11-23T07:00:59.0000000+00:00</time></trkpt><trkpt lat="30.61035347" lon="34.77696991"><ele>820.2</ele><time>2013-11-23T07:01:04.0000000+00:00</time></trkpt><trkpt lat="30.61035538" lon="34.77696991"><ele>820.3</ele><time>2013-11-23T07:01:09.0000000+00:00</time></trkpt><trkpt lat="30.61035729" lon="34.77696991"><ele>820.5</ele><time>2013-11-23T07:01:14.0000000+00:00</time></trkpt><trkpt lat="30.61035919" lon="34.77696991"><ele>820.7</ele><time>2013-11-23T07:01:19.0000000+00:00</time></trkpt><trkpt lat="30.61036301" lon="34.77696991"><ele>821.0</ele><time>2013-11-23T07:01:24.0000000+00:00</time></trkpt><trkpt lat="30.61036682" lon="34.77696991"><ele>821.3</ele><time>2013-11-23T07:01:29.0000000+00:00</time></trkpt><trkpt lat="30.61037064" lon="34.77696991"><ele>821.7</ele><time>2013-11-23T07:01:34.0000000+00:00</time></trkpt><trkpt lat="30.61037445" lon="34.77696991"><ele>822.0</ele><time>2013-11-23T07:01:39.0000000+00:00</time></trkpt><trkpt lat="30.61038017" lon="34.77696991"><ele>822.5</ele><time>2013-11-23T07:01:44.0000000+00:00</time></trkpt><trkpt lat="30.6103859" lon="34.77696991"><ele>823.0</ele><time>2013-11-23T07:01:49.0000000+00:00</time></trkpt><trkpt lat="30.61039162" lon="34.77696991"><ele>823.5</ele><time>2013-11-23T07:01:54.0000000+00:00</time></trkpt><trkpt lat="30.61039734" lon="34.77696991"><ele>824.0</ele><time>2013-11-23T07:01:59.0000000+00:00</time></trkpt><trkpt lat="30.61039925" lon="34.77696991"><ele>824.1</ele><time>2013-11-23T07:02:04.0000000+00:00</time></trkpt><trkpt lat="30.61040115" lon="34.77696991"><ele>824.2</ele><time>2013-11-23T07:02:09.0000000+00:00</time></trkpt><trkpt lat="30.61039925" lon="34.77696991"><ele>824.2</ele><time>2013-11-23T07:02:14.0000000+00:00</time></trkpt><trkpt lat="30.61039925" lon="34.77696991"><ele>824.2</ele><time>2013-11-23T07:02:19.0000000+00:00</time></trkpt><trkpt lat="30.61039925" lon="34.77696991"><ele>824.2</ele><time>2013-11-23T07:02:24.0000000+00:00</time></trkpt><trkpt lat="30.61039925" lon="34.77696991"><ele>824.2</ele><time>2013-11-23T07:02:29.0000000+00:00</time></trkpt><trkpt lat="30.61039925" lon="34.77696991"><ele>824.2</ele><time>2013-11-23T07:02:34.0000000+00:00</time></trkpt><trkpt lat="30.61039925" lon="34.77696991"><ele>824.2</ele><time>2013-11-23T07:02:39.0000000+00:00</time></trkpt><trkpt lat="30.61039925" lon="34.77696991"><ele>824.2</ele><time>2013-11-23T07:02:44.0000000+00:00</time></trkpt><trkpt lat="30.61039925" lon="34.77696991"><ele>824.2</ele><time>2013-11-23T07:02:49.0000000+00:00</time></trkpt><trkpt lat="30.61039925" lon="34.77696991"><ele>824.2</ele><time>2013-11-23T07:02:54.0000000+00:00</time></trkpt><trkpt lat="30.61039925" lon="34.77696991"><ele>824.2</ele><time>2013-11-23T07:02:59.0000000+00:00</time></trkpt><trkpt lat="30.61040115" lon="34.77696991"><ele>824.2</ele><time>2013-11-23T07:03:04.0000000+00:00</time></trkpt><trkpt lat="30.61040115" lon="34.77696991"><ele>824.2</ele><time>2013-11-23T07:03:09.0000000+00:00</time></trkpt><trkpt lat="30.61040115" lon="34.77696991"><ele>824.2</ele><time>2013-11-23T07:03:14.0000000+00:00</time></trkpt><trkpt lat="30.61039925" lon="34.77696991"><ele>824.2</ele><time>2013-11-23T07:03:19.0000000+00:00</time></trkpt><trkpt lat="30.61039925" lon="34.77696991"><ele>824.1</ele><time>2013-11-23T07:03:24.0000000+00:00</time></trkpt><trkpt lat="30.61039925" lon="34.77696991"><ele>824.1</ele><time>2013-11-23T07:03:29.0000000+00:00</time></trkpt><trkpt lat="30.61039925" lon="34.77696991"><ele>824.1</ele><time>2013-11-23T07:03:34.0000000+00:00</time></trkpt><trkpt lat="30.61039925" lon="34.77696991"><ele>824.1</ele><time>2013-11-23T07:03:39.0000000+00:00</time></trkpt><trkpt lat="30.61039925" lon="34.77696991"><ele>824.1</ele><time>2013-11-23T07:03:44.0000000+00:00</time></trkpt><trkpt lat="30.61039925" lon="34.77696991"><ele>824.1</ele><time>2013-11-23T07:03:49.0000000+00:00</time></trkpt><trkpt lat="30.61039925" lon="34.77696991"><ele>824.1</ele><time>2013-11-23T07:03:54.0000000+00:00</time></trkpt><trkpt lat="30.61039925" lon="34.77696991"><ele>824.1</ele><time>2013-11-23T07:03:59.0000000+00:00</time></trkpt><trkpt lat="30.61039925" lon="34.77696991"><ele>824.1</ele><time>2013-11-23T07:04:04.0000000+00:00</time></trkpt><trkpt lat="30.61039925" lon="34.77696991"><ele>824.1</ele><time>2013-11-23T07:04:09.0000000+00:00</time></trkpt><trkpt lat="30.61039925" lon="34.77696991"><ele>824.1</ele><time>2013-11-23T07:04:14.0000000+00:00</time></trkpt><trkpt lat="30.61039925" lon="34.77696991"><ele>824.1</ele><time>2013-11-23T07:04:19.0000000+00:00</time></trkpt><trkpt lat="30.61039925" lon="34.77696991"><ele>824.1</ele><time>2013-11-23T07:04:24.0000000+00:00</time></trkpt><trkpt lat="30.61039925" lon="34.77696991"><ele>824.1</ele><time>2013-11-23T07:04:29.0000000+00:00</time></trkpt><trkpt lat="30.61039925" lon="34.77696991"><ele>824.1</ele><time>2013-11-23T07:04:34.0000000+00:00</time></trkpt><trkpt lat="30.61039925" lon="34.77696991"><ele>824.1</ele><time>2013-11-23T07:04:39.0000000+00:00</time></trkpt><trkpt lat="30.61039925" lon="34.77696991"><ele>824.1</ele><time>2013-11-23T07:04:44.0000000+00:00</time></trkpt><trkpt lat="30.61039925" lon="34.77696991"><ele>824.1</ele><time>2013-11-23T07:04:49.0000000+00:00</time></trkpt><trkpt lat="30.61039925" lon="34.77696991"><ele>824.1</ele><time>2013-11-23T07:04:54.0000000+00:00</time></trkpt><trkpt lat="30.61039925" lon="34.77696991"><ele>824.1</ele><time>2013-11-23T07:04:59.0000000+00:00</time></trkpt><trkpt lat="30.61039925" lon="34.77696991"><ele>824.1</ele><time>2013-11-23T07:05:04.0000000+00:00</time></trkpt><trkpt lat="30.61039925" lon="34.77696991"><ele>824.1</ele><time>2013-11-23T07:05:09.0000000+00:00</time></trkpt><trkpt lat="30.61039925" lon="34.77696991"><ele>824.1</ele><time>2013-11-23T07:05:14.0000000+00:00</time></trkpt><trkpt lat="30.61039925" lon="34.77696991"><ele>824.1</ele><time>2013-11-23T07:05:19.0000000+00:00</time></trkpt><trkpt lat="30.61039925" lon="34.77696991"><ele>824.1</ele><time>2013-11-23T07:05:24.0000000+00:00</time></trkpt><trkpt lat="30.61039925" lon="34.77696991"><ele>824.1</ele><time>2013-11-23T07:05:29.0000000+00:00</time></trkpt><trkpt lat="30.61039925" lon="34.77696991"><ele>824.1</ele><time>2013-11-23T07:05:34.0000000+00:00</time></trkpt><trkpt lat="30.61039925" lon="34.77696991"><ele>824.1</ele><time>2013-11-23T07:05:39.0000000+00:00</time></trkpt><trkpt lat="30.61039925" lon="34.77696991"><ele>824.1</ele><time>2013-11-23T07:05:44.0000000+00:00</time></trkpt><trkpt lat="30.61039925" lon="34.77696991"><ele>824.1</ele><time>2013-11-23T07:05:49.0000000+00:00</time></trkpt><trkpt lat="30.61039925" lon="34.77696991"><ele>824.1</ele><time>2013-11-23T07:05:54.0000000+00:00</time></trkpt><trkpt lat="30.61039925" lon="34.77696991"><ele>824.1</ele><time>2013-11-23T07:05:59.0000000+00:00</time></trkpt><trkpt lat="30.61039925" lon="34.77696991"><ele>824.1</ele><time>2013-11-23T07:06:04.0000000+00:00</time></trkpt><trkpt lat="30.61039925" lon="34.77696991"><ele>824.1</ele><time>2013-11-23T07:06:09.0000000+00:00</time></trkpt><trkpt lat="30.61039925" lon="34.77696991"><ele>824.1</ele><time>2013-11-23T07:06:14.0000000+00:00</time></trkpt><trkpt lat="30.61039925" lon="34.77696991"><ele>824.0</ele><time>2013-11-23T07:06:19.0000000+00:00</time></trkpt><trkpt lat="30.61039925" lon="34.77696991"><ele>824.0</ele><time>2013-11-23T07:06:24.0000000+00:00</time></trkpt><trkpt lat="30.61039925" lon="34.77696991"><ele>824.0</ele><time>2013-11-23T07:06:29.0000000+00:00</time></trkpt><trkpt lat="30.61039925" lon="34.77696991"><ele>824.0</ele><time>2013-11-23T07:06:34.0000000+00:00</time></trkpt><trkpt lat="30.61039925" lon="34.77696991"><ele>824.0</ele><time>2013-11-23T07:06:39.0000000+00:00</time></trkpt><trkpt lat="30.61039925" lon="34.77696991"><ele>824.0</ele><time>2013-11-23T07:06:44.0000000+00:00</time></trkpt><trkpt lat="30.61039925" lon="34.77696991"><ele>824.0</ele><time>2013-11-23T07:06:49.0000000+00:00</time></trkpt><trkpt lat="30.61039925" lon="34.77696991"><ele>824.0</ele><time>2013-11-23T07:06:54.0000000+00:00</time></trkpt><trkpt lat="30.61039925" lon="34.77696991"><ele>824.0</ele><time>2013-11-23T07:06:59.0000000+00:00</time></trkpt><trkpt lat="30.61039925" lon="34.77696991"><ele>824.0</ele><time>2013-11-23T07:07:04.0000000+00:00</time></trkpt><trkpt lat="30.61039925" lon="34.77696991"><ele>824.0</ele><time>2013-11-23T07:07:09.0000000+00:00</time></trkpt><trkpt lat="30.61039925" lon="34.77696991"><ele>824.0</ele><time>2013-11-23T07:07:14.0000000+00:00</time></trkpt><trkpt lat="30.61039925" lon="34.77696991"><ele>824.0</ele><time>2013-11-23T07:07:19.0000000+00:00</time></trkpt><trkpt lat="30.61039925" lon="34.77696991"><ele>824.0</ele><time>2013-11-23T07:07:24.0000000+00:00</time></trkpt><trkpt lat="30.61039925" lon="34.77696991"><ele>824.0</ele><time>2013-11-23T07:07:29.0000000+00:00</time></trkpt><trkpt lat="30.61039925" lon="34.77696991"><ele>824.0</ele><time>2013-11-23T07:07:34.0000000+00:00</time></trkpt><trkpt lat="30.61039925" lon="34.77696991"><ele>824.0</ele><time>2013-11-23T07:07:39.0000000+00:00</time></trkpt><trkpt lat="30.61039925" lon="34.77696991"><ele>824.0</ele><time>2013-11-23T07:07:44.0000000+00:00</time></trkpt><trkpt lat="30.61039925" lon="34.77696991"><ele>824.0</ele><time>2013-11-23T07:07:49.0000000+00:00</time></trkpt><trkpt lat="30.61039925" lon="34.77696991"><ele>823.9</ele><time>2013-11-23T07:07:54.0000000+00:00</time></trkpt><trkpt lat="30.61039925" lon="34.77696991"><ele>823.9</ele><time>2013-11-23T07:07:59.0000000+00:00</time></trkpt><trkpt lat="30.61039734" lon="34.77696991"><ele>823.9</ele><time>2013-11-23T07:08:04.0000000+00:00</time></trkpt><trkpt lat="30.61039734" lon="34.77696991"><ele>823.9</ele><time>2013-11-23T07:08:09.0000000+00:00</time></trkpt><trkpt lat="30.61039734" lon="34.77696991"><ele>823.9</ele><time>2013-11-23T07:08:14.0000000+00:00</time></trkpt><trkpt lat="30.61039734" lon="34.77696991"><ele>823.8</ele><time>2013-11-23T07:08:19.0000000+00:00</time></trkpt><trkpt lat="30.61039734" lon="34.77696991"><ele>823.8</ele><time>2013-11-23T07:08:24.0000000+00:00</time></trkpt><trkpt lat="30.61039734" lon="34.77696991"><ele>823.8</ele><time>2013-11-23T07:08:29.0000000+00:00</time></trkpt><trkpt lat="30.61039734" lon="34.77696991"><ele>823.8</ele><time>2013-11-23T07:08:34.0000000+00:00</time></trkpt><trkpt lat="30.61039734" lon="34.77696991"><ele>823.8</ele><time>2013-11-23T07:08:39.0000000+00:00</time></trkpt><trkpt lat="30.61039734" lon="34.77696991"><ele>823.8</ele><time>2013-11-23T07:08:44.0000000+00:00</time></trkpt><trkpt lat="30.61039734" lon="34.77696991"><ele>823.7</ele><time>2013-11-23T07:08:49.0000000+00:00</time></trkpt><trkpt lat="30.61039734" lon="34.77696991"><ele>823.7</ele><time>2013-11-23T07:08:54.0000000+00:00</time></trkpt><trkpt lat="30.61039734" lon="34.77696991"><ele>823.7</ele><time>2013-11-23T07:08:59.0000000+00:00</time></trkpt><trkpt lat="30.61039543" lon="34.77696991"><ele>823.7</ele><time>2013-11-23T07:09:04.0000000+00:00</time></trkpt><trkpt lat="30.61039543" lon="34.77696991"><ele>823.7</ele><time>2013-11-23T07:09:09.0000000+00:00</time></trkpt><trkpt lat="30.61039543" lon="34.77696991"><ele>823.7</ele><time>2013-11-23T07:09:14.0000000+00:00</time></trkpt><trkpt lat="30.61039543" lon="34.77696991"><ele>823.7</ele><time>2013-11-23T07:09:19.0000000+00:00</time></trkpt><trkpt lat="30.61039543" lon="34.77696991"><ele>823.7</ele><time>2013-11-23T07:09:24.0000000+00:00</time></trkpt><trkpt lat="30.61039543" lon="34.77696991"><ele>823.7</ele><time>2013-11-23T07:09:29.0000000+00:00</time></trkpt><trkpt lat="30.61039543" lon="34.77696991"><ele>823.6</ele><time>2013-11-23T07:09:34.0000000+00:00</time></trkpt><trkpt lat="30.61039543" lon="34.77696991"><ele>823.6</ele><time>2013-11-23T07:09:39.0000000+00:00</time></trkpt><trkpt lat="30.61039543" lon="34.77696991"><ele>823.6</ele><time>2013-11-23T07:09:44.0000000+00:00</time></trkpt><trkpt lat="30.61039543" lon="34.77696991"><ele>823.6</ele><time>2013-11-23T07:09:49.0000000+00:00</time></trkpt><trkpt lat="30.61039543" lon="34.77696991"><ele>823.6</ele><time>2013-11-23T07:09:54.0000000+00:00</time></trkpt><trkpt lat="30.61039543" lon="34.77696991"><ele>823.6</ele><time>2013-11-23T07:09:59.0000000+00:00</time></trkpt><trkpt lat="30.61039543" lon="34.77696991"><ele>823.6</ele><time>2013-11-23T07:10:04.0000000+00:00</time></trkpt><trkpt lat="30.61039543" lon="34.77696991"><ele>823.6</ele><time>2013-11-23T07:10:09.0000000+00:00</time></trkpt><trkpt lat="30.61039543" lon="34.77696991"><ele>823.6</ele><time>2013-11-23T07:10:14.0000000+00:00</time></trkpt><trkpt lat="30.61039543" lon="34.77696991"><ele>823.6</ele><time>2013-11-23T07:10:19.0000000+00:00</time></trkpt><trkpt lat="30.61039543" lon="34.77696991"><ele>823.6</ele><time>2013-11-23T07:10:24.0000000+00:00</time></trkpt><trkpt lat="30.61039543" lon="34.77697372"><ele>823.6</ele><time>2013-11-23T07:10:29.0000000+00:00</time></trkpt><trkpt lat="30.61039543" lon="34.77697372"><ele>823.6</ele><time>2013-11-23T07:10:34.0000000+00:00</time></trkpt><trkpt lat="30.61039543" lon="34.77697372"><ele>823.6</ele><time>2013-11-23T07:10:39.0000000+00:00</time></trkpt><trkpt lat="30.61039543" lon="34.77697372"><ele>823.6</ele><time>2013-11-23T07:10:44.0000000+00:00</time></trkpt><trkpt lat="30.61039352" lon="34.77697372"><ele>823.6</ele><time>2013-11-23T07:10:49.0000000+00:00</time></trkpt><trkpt lat="30.61039352" lon="34.77697372"><ele>823.6</ele><time>2013-11-23T07:10:54.0000000+00:00</time></trkpt><trkpt lat="30.61039352" lon="34.77697372"><ele>823.6</ele><time>2013-11-23T07:10:59.0000000+00:00</time></trkpt><trkpt lat="30.61039352" lon="34.77697372"><ele>823.6</ele><time>2013-11-23T07:11:04.0000000+00:00</time></trkpt><trkpt lat="30.61039352" lon="34.77697372"><ele>823.6</ele><time>2013-11-23T07:11:09.0000000+00:00</time></trkpt><trkpt lat="30.61039352" lon="34.77697372"><ele>823.6</ele><time>2013-11-23T07:11:14.0000000+00:00</time></trkpt><trkpt lat="30.61039352" lon="34.77697372"><ele>823.6</ele><time>2013-11-23T07:11:19.0000000+00:00</time></trkpt><trkpt lat="30.61039352" lon="34.77697372"><ele>823.6</ele><time>2013-11-23T07:11:24.0000000+00:00</time></trkpt><trkpt lat="30.61039352" lon="34.77697372"><ele>823.6</ele><time>2013-11-23T07:11:29.0000000+00:00</time></trkpt><trkpt lat="30.61039352" lon="34.77697372"><ele>823.6</ele><time>2013-11-23T07:11:34.0000000+00:00</time></trkpt><trkpt lat="30.61039352" lon="34.77697372"><ele>823.5</ele><time>2013-11-23T07:11:39.0000000+00:00</time></trkpt><trkpt lat="30.61039352" lon="34.77697372"><ele>823.6</ele><time>2013-11-23T07:11:44.0000000+00:00</time></trkpt><trkpt lat="30.61039352" lon="34.77697372"><ele>823.6</ele><time>2013-11-23T07:11:49.0000000+00:00</time></trkpt><trkpt lat="30.61039352" lon="34.77697372"><ele>823.6</ele><time>2013-11-23T07:11:54.0000000+00:00</time></trkpt><trkpt lat="30.61039352" lon="34.77697372"><ele>823.6</ele><time>2013-11-23T07:11:59.0000000+00:00</time></trkpt><trkpt lat="30.61039352" lon="34.77697372"><ele>823.6</ele><time>2013-11-23T07:12:04.0000000+00:00</time></trkpt><trkpt lat="30.61039352" lon="34.77697372"><ele>823.6</ele><time>2013-11-23T07:12:09.0000000+00:00</time></trkpt><trkpt lat="30.61039352" lon="34.77697372"><ele>823.6</ele><time>2013-11-23T07:12:14.0000000+00:00</time></trkpt><trkpt lat="30.61039352" lon="34.77697372"><ele>823.6</ele><time>2013-11-23T07:12:19.0000000+00:00</time></trkpt><trkpt lat="30.61039352" lon="34.77697372"><ele>823.6</ele><time>2013-11-23T07:12:24.0000000+00:00</time></trkpt><trkpt lat="30.61039162" lon="34.77697372"><ele>823.6</ele><time>2013-11-23T07:12:29.0000000+00:00</time></trkpt><trkpt lat="30.61039162" lon="34.77697372"><ele>823.6</ele><time>2013-11-23T07:12:34.0000000+00:00</time></trkpt><trkpt lat="30.61039162" lon="34.77697372"><ele>823.6</ele><time>2013-11-23T07:12:39.0000000+00:00</time></trkpt><trkpt lat="30.61039162" lon="34.77697372"><ele>823.6</ele><time>2013-11-23T07:12:44.0000000+00:00</time></trkpt><trkpt lat="30.61039162" lon="34.77697372"><ele>823.6</ele><time>2013-11-23T07:12:49.0000000+00:00</time></trkpt><trkpt lat="30.61039162" lon="34.77697372"><ele>823.6</ele><time>2013-11-23T07:12:54.0000000+00:00</time></trkpt><trkpt lat="30.61039162" lon="34.77697372"><ele>823.5</ele><time>2013-11-23T07:12:59.0000000+00:00</time></trkpt><trkpt lat="30.61039162" lon="34.77697372"><ele>823.5</ele><time>2013-11-23T07:13:04.0000000+00:00</time></trkpt><trkpt lat="30.61039162" lon="34.77697372"><ele>823.5</ele><time>2013-11-23T07:13:09.0000000+00:00</time></trkpt><trkpt lat="30.61039162" lon="34.77697372"><ele>823.5</ele><time>2013-11-23T07:13:14.0000000+00:00</time></trkpt><trkpt lat="30.61039162" lon="34.77697372"><ele>823.5</ele><time>2013-11-23T07:13:19.0000000+00:00</time></trkpt><trkpt lat="30.61039162" lon="34.77697372"><ele>823.5</ele><time>2013-11-23T07:13:24.0000000+00:00</time></trkpt><trkpt lat="30.61039162" lon="34.77697372"><ele>823.5</ele><time>2013-11-23T07:13:29.0000000+00:00</time></trkpt><trkpt lat="30.61039162" lon="34.77697372"><ele>823.5</ele><time>2013-11-23T07:13:34.0000000+00:00</time></trkpt><trkpt lat="30.61039162" lon="34.77697372"><ele>823.5</ele><time>2013-11-23T07:13:39.0000000+00:00</time></trkpt><trkpt lat="30.61039162" lon="34.77697372"><ele>823.5</ele><time>2013-11-23T07:13:44.0000000+00:00</time></trkpt><trkpt lat="30.61039162" lon="34.77697372"><ele>823.5</ele><time>2013-11-23T07:13:49.0000000+00:00</time></trkpt><trkpt lat="30.61039162" lon="34.77697372"><ele>823.5</ele><time>2013-11-23T07:13:54.0000000+00:00</time></trkpt><trkpt lat="30.61039162" lon="34.77697372"><ele>823.5</ele><time>2013-11-23T07:13:59.0000000+00:00</time></trkpt><trkpt lat="30.61039162" lon="34.77697372"><ele>823.5</ele><time>2013-11-23T07:14:04.0000000+00:00</time></trkpt><trkpt lat="30.61039162" lon="34.77697372"><ele>823.5</ele><time>2013-11-23T07:14:09.0000000+00:00</time></trkpt><trkpt lat="30.61038971" lon="34.77697372"><ele>823.5</ele><time>2013-11-23T07:14:14.0000000+00:00</time></trkpt><trkpt lat="30.61038971" lon="34.77697372"><ele>823.5</ele><time>2013-11-23T07:14:19.0000000+00:00</time></trkpt><trkpt lat="30.61038971" lon="34.77697372"><ele>823.5</ele><time>2013-11-23T07:14:24.0000000+00:00</time></trkpt><trkpt lat="30.61038971" lon="34.77697372"><ele>823.5</ele><time>2013-11-23T07:14:29.0000000+00:00</time></trkpt><trkpt lat="30.61038971" lon="34.77697372"><ele>823.5</ele><time>2013-11-23T07:14:34.0000000+00:00</time></trkpt><trkpt lat="30.61038971" lon="34.77697372"><ele>823.5</ele><time>2013-11-23T07:14:39.0000000+00:00</time></trkpt><trkpt lat="30.61038971" lon="34.77697372"><ele>823.5</ele><time>2013-11-23T07:14:44.0000000+00:00</time></trkpt><trkpt lat="30.61038971" lon="34.77697754"><ele>823.5</ele><time>2013-11-23T07:14:49.0000000+00:00</time></trkpt><trkpt lat="30.61038971" lon="34.77697754"><ele>823.5</ele><time>2013-11-23T07:14:54.0000000+00:00</time></trkpt><trkpt lat="30.61038971" lon="34.77697754"><ele>823.5</ele><time>2013-11-23T07:14:59.0000000+00:00</time></trkpt><trkpt lat="30.61038971" lon="34.77697754"><ele>823.5</ele><time>2013-11-23T07:15:04.0000000+00:00</time></trkpt><trkpt lat="30.61038971" lon="34.77697754"><ele>823.5</ele><time>2013-11-23T07:15:09.0000000+00:00</time></trkpt><trkpt lat="30.61038971" lon="34.77697754"><ele>823.5</ele><time>2013-11-23T07:15:14.0000000+00:00</time></trkpt><trkpt lat="30.61038971" lon="34.77697754"><ele>823.5</ele><time>2013-11-23T07:15:19.0000000+00:00</time></trkpt><trkpt lat="30.61038971" lon="34.77697754"><ele>823.5</ele><time>2013-11-23T07:15:24.0000000+00:00</time></trkpt><trkpt lat="30.61038971" lon="34.77697754"><ele>823.5</ele><time>2013-11-23T07:15:29.0000000+00:00</time></trkpt><trkpt lat="30.61038971" lon="34.77697754"><ele>823.5</ele><time>2013-11-23T07:15:34.0000000+00:00</time></trkpt><trkpt lat="30.61038971" lon="34.77697754"><ele>823.5</ele><time>2013-11-23T07:15:39.0000000+00:00</time></trkpt><trkpt lat="30.61038971" lon="34.77697754"><ele>823.5</ele><time>2013-11-23T07:15:44.0000000+00:00</time></trkpt><trkpt lat="30.61038971" lon="34.77697754"><ele>823.5</ele><time>2013-11-23T07:15:49.0000000+00:00</time></trkpt><trkpt lat="30.61038971" lon="34.77697754"><ele>823.5</ele><time>2013-11-23T07:15:54.0000000+00:00</time></trkpt><trkpt lat="30.61038971" lon="34.77697754"><ele>823.5</ele><time>2013-11-23T07:15:59.0000000+00:00</time></trkpt><trkpt lat="30.61038971" lon="34.77697754"><ele>823.5</ele><time>2013-11-23T07:16:04.0000000+00:00</time></trkpt><trkpt lat="30.61038971" lon="34.77697754"><ele>823.5</ele><time>2013-11-23T07:16:09.0000000+00:00</time></trkpt><trkpt lat="30.61038971" lon="34.77697754"><ele>823.5</ele><time>2013-11-23T07:16:14.0000000+00:00</time></trkpt><trkpt lat="30.61038971" lon="34.77697754"><ele>823.5</ele><time>2013-11-23T07:16:19.0000000+00:00</time></trkpt><trkpt lat="30.61038971" lon="34.77697754"><ele>823.5</ele><time>2013-11-23T07:16:24.0000000+00:00</time></trkpt><trkpt lat="30.61038971" lon="34.77697754"><ele>823.5</ele><time>2013-11-23T07:16:29.0000000+00:00</time></trkpt><trkpt lat="30.61038971" lon="34.77697754"><ele>823.5</ele><time>2013-11-23T07:16:34.0000000+00:00</time></trkpt><trkpt lat="30.61038971" lon="34.77697754"><ele>823.5</ele><time>2013-11-23T07:16:39.0000000+00:00</time></trkpt><trkpt lat="30.61038971" lon="34.77697754"><ele>823.5</ele><time>2013-11-23T07:16:44.0000000+00:00</time></trkpt><trkpt lat="30.61038971" lon="34.77697754"><ele>823.5</ele><time>2013-11-23T07:16:49.0000000+00:00</time></trkpt><trkpt lat="30.61038971" lon="34.77697754"><ele>823.5</ele><time>2013-11-23T07:16:54.0000000+00:00</time></trkpt><trkpt lat="30.61038971" lon="34.77697754"><ele>823.5</ele><time>2013-11-23T07:16:59.0000000+00:00</time></trkpt><trkpt lat="30.61038971" lon="34.77697754"><ele>823.6</ele><time>2013-11-23T07:17:04.0000000+00:00</time></trkpt><trkpt lat="30.61038971" lon="34.77697754"><ele>823.6</ele><time>2013-11-23T07:17:09.0000000+00:00</time></trkpt><trkpt lat="30.61038971" lon="34.77697754"><ele>823.6</ele><time>2013-11-23T07:17:14.0000000+00:00</time></trkpt><trkpt lat="30.61038971" lon="34.77697754"><ele>823.6</ele><time>2013-11-23T07:17:19.0000000+00:00</time></trkpt><trkpt lat="30.61038971" lon="34.77697754"><ele>823.6</ele><time>2013-11-23T07:17:24.0000000+00:00</time></trkpt><trkpt lat="30.61038971" lon="34.77697754"><ele>823.6</ele><time>2013-11-23T07:17:29.0000000+00:00</time></trkpt><trkpt lat="30.61038971" lon="34.77697754"><ele>823.6</ele><time>2013-11-23T07:17:34.0000000+00:00</time></trkpt><trkpt lat="30.61038971" lon="34.77697754"><ele>823.6</ele><time>2013-11-23T07:17:39.0000000+00:00</time></trkpt><trkpt lat="30.61038971" lon="34.77697754"><ele>823.6</ele><time>2013-11-23T07:17:44.0000000+00:00</time></trkpt><trkpt lat="30.61038971" lon="34.77697754"><ele>823.6</ele><time>2013-11-23T07:17:49.0000000+00:00</time></trkpt><trkpt lat="30.61038971" lon="34.77697754"><ele>823.6</ele><time>2013-11-23T07:17:54.0000000+00:00</time></trkpt><trkpt lat="30.61038971" lon="34.77697754"><ele>823.6</ele><time>2013-11-23T07:17:59.0000000+00:00</time></trkpt><trkpt lat="30.61038971" lon="34.77697754"><ele>823.6</ele><time>2013-11-23T07:18:04.0000000+00:00</time></trkpt><trkpt lat="30.61038971" lon="34.77697754"><ele>823.6</ele><time>2013-11-23T07:18:09.0000000+00:00</time></trkpt><trkpt lat="30.61038971" lon="34.77697754"><ele>823.6</ele><time>2013-11-23T07:18:14.0000000+00:00</time></trkpt><trkpt lat="30.61038971" lon="34.77697754"><ele>823.6</ele><time>2013-11-23T07:18:19.0000000+00:00</time></trkpt><trkpt lat="30.61038971" lon="34.77697754"><ele>823.5</ele><time>2013-11-23T07:18:24.0000000+00:00</time></trkpt><trkpt lat="30.61038971" lon="34.77697754"><ele>823.5</ele><time>2013-11-23T07:18:29.0000000+00:00</time></trkpt><trkpt lat="30.61038971" lon="34.77697754"><ele>823.5</ele><time>2013-11-23T07:18:34.0000000+00:00</time></trkpt><trkpt lat="30.61038971" lon="34.77697754"><ele>823.5</ele><time>2013-11-23T07:18:39.0000000+00:00</time></trkpt><trkpt lat="30.61038971" lon="34.77697754"><ele>823.5</ele><time>2013-11-23T07:18:44.0000000+00:00</time></trkpt><trkpt lat="30.61038971" lon="34.77697754"><ele>823.5</ele><time>2013-11-23T07:18:49.0000000+00:00</time></trkpt><trkpt lat="30.61038971" lon="34.77697754"><ele>823.5</ele><time>2013-11-23T07:18:54.0000000+00:00</time></trkpt><trkpt lat="30.61038971" lon="34.77697754"><ele>823.5</ele><time>2013-11-23T07:18:59.0000000+00:00</time></trkpt><trkpt lat="30.61038971" lon="34.77697754"><ele>823.6</ele><time>2013-11-23T07:19:04.0000000+00:00</time></trkpt><trkpt lat="30.61038971" lon="34.77697754"><ele>823.6</ele><time>2013-11-23T07:19:09.0000000+00:00</time></trkpt><trkpt lat="30.61038971" lon="34.77697754"><ele>823.6</ele><time>2013-11-23T07:19:14.0000000+00:00</time></trkpt><trkpt lat="30.61038971" lon="34.77697754"><ele>823.6</ele><time>2013-11-23T07:19:19.0000000+00:00</time></trkpt><trkpt lat="30.61038971" lon="34.77697754"><ele>823.6</ele><time>2013-11-23T07:19:24.0000000+00:00</time></trkpt><trkpt lat="30.61038971" lon="34.77697754"><ele>823.6</ele><time>2013-11-23T07:19:29.0000000+00:00</time></trkpt><trkpt lat="30.61038971" lon="34.77697754"><ele>823.6</ele><time>2013-11-23T07:19:34.0000000+00:00</time></trkpt><trkpt lat="30.61038971" lon="34.77697754"><ele>823.6</ele><time>2013-11-23T07:19:39.0000000+00:00</time></trkpt><trkpt lat="30.61038971" lon="34.77697754"><ele>823.7</ele><time>2013-11-23T07:19:44.0000000+00:00</time></trkpt><trkpt lat="30.61038971" lon="34.77697754"><ele>823.7</ele><time>2013-11-23T07:19:49.0000000+00:00</time></trkpt><trkpt lat="30.61038971" lon="34.77697754"><ele>823.7</ele><time>2013-11-23T07:19:54.0000000+00:00</time></trkpt><trkpt lat="30.61038971" lon="34.77697754"><ele>823.7</ele><time>2013-11-23T07:19:59.0000000+00:00</time></trkpt><trkpt lat="30.61038971" lon="34.77697754"><ele>823.7</ele><time>2013-11-23T07:20:04.0000000+00:00</time></trkpt><trkpt lat="30.61038971" lon="34.77697754"><ele>823.7</ele><time>2013-11-23T07:20:09.0000000+00:00</time></trkpt><trkpt lat="30.61038971" lon="34.77697754"><ele>823.7</ele><time>2013-11-23T07:20:14.0000000+00:00</time></trkpt><trkpt lat="30.6103878" lon="34.77697754"><ele>823.7</ele><time>2013-11-23T07:20:19.0000000+00:00</time></trkpt><trkpt lat="30.6103878" lon="34.77697754"><ele>823.7</ele><time>2013-11-23T07:20:24.0000000+00:00</time></trkpt><trkpt lat="30.6103878" lon="34.77697754"><ele>823.7</ele><time>2013-11-23T07:20:29.0000000+00:00</time></trkpt><trkpt lat="30.6103878" lon="34.77697754"><ele>823.7</ele><time>2013-11-23T07:20:34.0000000+00:00</time></trkpt><trkpt lat="30.6103878" lon="34.77697754"><ele>823.7</ele><time>2013-11-23T07:20:39.0000000+00:00</time></trkpt><trkpt lat="30.6103878" lon="34.77697754"><ele>823.7</ele><time>2013-11-23T07:20:44.0000000+00:00</time></trkpt><trkpt lat="30.6103878" lon="34.77697754"><ele>823.7</ele><time>2013-11-23T07:20:49.0000000+00:00</time></trkpt><trkpt lat="30.6103878" lon="34.77697754"><ele>823.7</ele><time>2013-11-23T07:20:54.0000000+00:00</time></trkpt><trkpt lat="30.6103878" lon="34.77697754"><ele>823.7</ele><time>2013-11-23T07:20:59.0000000+00:00</time></trkpt><trkpt lat="30.6103878" lon="34.77697754"><ele>823.7</ele><time>2013-11-23T07:21:04.0000000+00:00</time></trkpt><trkpt lat="30.6103878" lon="34.77697754"><ele>823.7</ele><time>2013-11-23T07:21:09.0000000+00:00</time></trkpt><trkpt lat="30.6103878" lon="34.77697754"><ele>823.7</ele><time>2013-11-23T07:21:14.0000000+00:00</time></trkpt><trkpt lat="30.6103878" lon="34.77698135"><ele>823.7</ele><time>2013-11-23T07:21:19.0000000+00:00</time></trkpt><trkpt lat="30.6103878" lon="34.77698135"><ele>823.7</ele><time>2013-11-23T07:21:24.0000000+00:00</time></trkpt><trkpt lat="30.6103878" lon="34.77698135"><ele>823.7</ele><time>2013-11-23T07:21:29.0000000+00:00</time></trkpt><trkpt lat="30.6103878" lon="34.77698135"><ele>823.7</ele><time>2013-11-23T07:21:34.0000000+00:00</time></trkpt><trkpt lat="30.6103878" lon="34.77698135"><ele>823.7</ele><time>2013-11-23T07:21:39.0000000+00:00</time></trkpt><trkpt lat="30.6103878" lon="34.77698135"><ele>823.7</ele><time>2013-11-23T07:21:44.0000000+00:00</time></trkpt><trkpt lat="30.6103878" lon="34.77698135"><ele>823.7</ele><time>2013-11-23T07:21:49.0000000+00:00</time></trkpt><trkpt lat="30.6103878" lon="34.77698135"><ele>823.8</ele><time>2013-11-23T07:21:54.0000000+00:00</time></trkpt><trkpt lat="30.6103878" lon="34.77698135"><ele>823.7</ele><time>2013-11-23T07:21:59.0000000+00:00</time></trkpt><trkpt lat="30.6103859" lon="34.77698135"><ele>823.8</ele><time>2013-11-23T07:22:04.0000000+00:00</time></trkpt><trkpt lat="30.6103859" lon="34.77698135"><ele>823.8</ele><time>2013-11-23T07:22:09.0000000+00:00</time></trkpt><trkpt lat="30.6103859" lon="34.77698135"><ele>823.8</ele><time>2013-11-23T07:22:14.0000000+00:00</time></trkpt><trkpt lat="30.6103859" lon="34.77698135"><ele>823.8</ele><time>2013-11-23T07:22:19.0000000+00:00</time></trkpt><trkpt lat="30.6103859" lon="34.77698135"><ele>823.8</ele><time>2013-11-23T07:22:24.0000000+00:00</time></trkpt><trkpt lat="30.6103859" lon="34.77698135"><ele>823.8</ele><time>2013-11-23T07:22:29.0000000+00:00</time></trkpt><trkpt lat="30.6103859" lon="34.77698135"><ele>823.8</ele><time>2013-11-23T07:22:34.0000000+00:00</time></trkpt><trkpt lat="30.6103859" lon="34.77698135"><ele>823.8</ele><time>2013-11-23T07:22:39.0000000+00:00</time></trkpt><trkpt lat="30.6103859" lon="34.77698135"><ele>823.8</ele><time>2013-11-23T07:22:44.0000000+00:00</time></trkpt><trkpt lat="30.6103859" lon="34.77698135"><ele>823.8</ele><time>2013-11-23T07:22:49.0000000+00:00</time></trkpt><trkpt lat="30.6103859" lon="34.77698135"><ele>823.8</ele><time>2013-11-23T07:22:54.0000000+00:00</time></trkpt><trkpt lat="30.6103859" lon="34.77698135"><ele>823.8</ele><time>2013-11-23T07:22:59.0000000+00:00</time></trkpt><trkpt lat="30.6103859" lon="34.77698135"><ele>823.8</ele><time>2013-11-23T07:23:04.0000000+00:00</time></trkpt><trkpt lat="30.6103859" lon="34.77698135"><ele>823.8</ele><time>2013-11-23T07:23:09.0000000+00:00</time></trkpt><trkpt lat="30.6103859" lon="34.77698135"><ele>823.8</ele><time>2013-11-23T07:23:14.0000000+00:00</time></trkpt><trkpt lat="30.6103859" lon="34.77698135"><ele>823.8</ele><time>2013-11-23T07:23:19.0000000+00:00</time></trkpt><trkpt lat="30.6103859" lon="34.77698135"><ele>823.8</ele><time>2013-11-23T07:23:24.0000000+00:00</time></trkpt><trkpt lat="30.6103859" lon="34.77698135"><ele>823.8</ele><time>2013-11-23T07:23:29.0000000+00:00</time></trkpt><trkpt lat="30.6103859" lon="34.77698135"><ele>823.8</ele><time>2013-11-23T07:23:34.0000000+00:00</time></trkpt><trkpt lat="30.6103859" lon="34.77698135"><ele>823.8</ele><time>2013-11-23T07:23:39.0000000+00:00</time></trkpt><trkpt lat="30.6103859" lon="34.77698135"><ele>823.8</ele><time>2013-11-23T07:23:44.0000000+00:00</time></trkpt><trkpt lat="30.6103859" lon="34.77698135"><ele>823.8</ele><time>2013-11-23T07:23:49.0000000+00:00</time></trkpt><trkpt lat="30.61038399" lon="34.77698135"><ele>823.8</ele><time>2013-11-23T07:23:54.0000000+00:00</time></trkpt><trkpt lat="30.61038399" lon="34.77698135"><ele>823.8</ele><time>2013-11-23T07:23:59.0000000+00:00</time></trkpt><trkpt lat="30.61038399" lon="34.77698135"><ele>823.8</ele><time>2013-11-23T07:24:04.0000000+00:00</time></trkpt><trkpt lat="30.61038399" lon="34.77698135"><ele>823.8</ele><time>2013-11-23T07:24:09.0000000+00:00</time></trkpt><trkpt lat="30.61038399" lon="34.77698135"><ele>823.8</ele><time>2013-11-23T07:24:14.0000000+00:00</time></trkpt><trkpt lat="30.61038399" lon="34.77698135"><ele>823.8</ele><time>2013-11-23T07:24:19.0000000+00:00</time></trkpt><trkpt lat="30.61038399" lon="34.77698135"><ele>823.8</ele><time>2013-11-23T07:24:24.0000000+00:00</time></trkpt><trkpt lat="30.61038399" lon="34.77698135"><ele>823.9</ele><time>2013-11-23T07:24:29.0000000+00:00</time></trkpt><trkpt lat="30.61038399" lon="34.77698517"><ele>823.9</ele><time>2013-11-23T07:24:34.0000000+00:00</time></trkpt><trkpt lat="30.61038399" lon="34.77698517"><ele>823.9</ele><time>2013-11-23T07:24:39.0000000+00:00</time></trkpt><trkpt lat="30.61038399" lon="34.77698517"><ele>823.9</ele><time>2013-11-23T07:24:44.0000000+00:00</time></trkpt><trkpt lat="30.61038399" lon="34.77698517"><ele>823.9</ele><time>2013-11-23T07:24:49.0000000+00:00</time></trkpt><trkpt lat="30.61038399" lon="34.77698517"><ele>823.9</ele><time>2013-11-23T07:24:54.0000000+00:00</time></trkpt><trkpt lat="30.61038208" lon="34.77698517"><ele>823.9</ele><time>2013-11-23T07:24:59.0000000+00:00</time></trkpt><trkpt lat="30.61038208" lon="34.77698517"><ele>823.9</ele><time>2013-11-23T07:25:04.0000000+00:00</time></trkpt><trkpt lat="30.61038208" lon="34.77698517"><ele>823.9</ele><time>2013-11-23T07:25:09.0000000+00:00</time></trkpt><trkpt lat="30.61038208" lon="34.77698517"><ele>823.9</ele><time>2013-11-23T07:25:14.0000000+00:00</time></trkpt><trkpt lat="30.61038208" lon="34.77698517"><ele>823.9</ele><time>2013-11-23T07:25:19.0000000+00:00</time></trkpt><trkpt lat="30.61038208" lon="34.77698517"><ele>823.9</ele><time>2013-11-23T07:25:24.0000000+00:00</time></trkpt><trkpt lat="30.61038208" lon="34.77698517"><ele>823.9</ele><time>2013-11-23T07:25:29.0000000+00:00</time></trkpt><trkpt lat="30.61038208" lon="34.77698517"><ele>823.9</ele><time>2013-11-23T07:25:34.0000000+00:00</time></trkpt><trkpt lat="30.61038208" lon="34.77698517"><ele>823.9</ele><time>2013-11-23T07:25:39.0000000+00:00</time></trkpt><trkpt lat="30.61038208" lon="34.77698517"><ele>823.9</ele><time>2013-11-23T07:25:44.0000000+00:00</time></trkpt><trkpt lat="30.61038208" lon="34.77698517"><ele>823.9</ele><time>2013-11-23T07:25:49.0000000+00:00</time></trkpt><trkpt lat="30.61038208" lon="34.77698517"><ele>823.9</ele><time>2013-11-23T07:25:54.0000000+00:00</time></trkpt><trkpt lat="30.61038208" lon="34.77698517"><ele>823.9</ele><time>2013-11-23T07:25:59.0000000+00:00</time></trkpt><trkpt lat="30.61038208" lon="34.77698517"><ele>823.9</ele><time>2013-11-23T07:26:04.0000000+00:00</time></trkpt><trkpt lat="30.61038208" lon="34.77698517"><ele>823.9</ele><time>2013-11-23T07:26:09.0000000+00:00</time></trkpt><trkpt lat="30.61038208" lon="34.77698517"><ele>823.9</ele><time>2013-11-23T07:26:14.0000000+00:00</time></trkpt><trkpt lat="30.61038017" lon="34.77698517"><ele>824.0</ele><time>2013-11-23T07:26:19.0000000+00:00</time></trkpt><trkpt lat="30.61038017" lon="34.77698517"><ele>824.0</ele><time>2013-11-23T07:26:24.0000000+00:00</time></trkpt><trkpt lat="30.61038017" lon="34.77698517"><ele>824.0</ele><time>2013-11-23T07:26:29.0000000+00:00</time></trkpt><trkpt lat="30.61038017" lon="34.77698517"><ele>824.0</ele><time>2013-11-23T07:26:34.0000000+00:00</time></trkpt><trkpt lat="30.61038017" lon="34.77698517"><ele>824.0</ele><time>2013-11-23T07:26:39.0000000+00:00</time></trkpt><trkpt lat="30.61038017" lon="34.77698517"><ele>823.9</ele><time>2013-11-23T07:26:44.0000000+00:00</time></trkpt><trkpt lat="30.61038017" lon="34.77698517"><ele>823.9</ele><time>2013-11-23T07:26:49.0000000+00:00</time></trkpt><trkpt lat="30.61038017" lon="34.77698898"><ele>824.0</ele><time>2013-11-23T07:26:54.0000000+00:00</time></trkpt><trkpt lat="30.61038017" lon="34.77698898"><ele>824.0</ele><time>2013-11-23T07:26:59.0000000+00:00</time></trkpt><trkpt lat="30.61038017" lon="34.77698898"><ele>824.0</ele><time>2013-11-23T07:27:04.0000000+00:00</time></trkpt><trkpt lat="30.61038017" lon="34.77698898"><ele>824.0</ele><time>2013-11-23T07:27:09.0000000+00:00</time></trkpt><trkpt lat="30.61038017" lon="34.77698898"><ele>824.0</ele><time>2013-11-23T07:27:14.0000000+00:00</time></trkpt><trkpt lat="30.61038017" lon="34.77698898"><ele>824.0</ele><time>2013-11-23T07:27:19.0000000+00:00</time></trkpt><trkpt lat="30.61038017" lon="34.77698898"><ele>824.0</ele><time>2013-11-23T07:27:24.0000000+00:00</time></trkpt><trkpt lat="30.61038017" lon="34.77698898"><ele>824.0</ele><time>2013-11-23T07:27:29.0000000+00:00</time></trkpt><trkpt lat="30.61038017" lon="34.77698898"><ele>824.0</ele><time>2013-11-23T07:27:34.0000000+00:00</time></trkpt><trkpt lat="30.61038017" lon="34.77698898"><ele>824.0</ele><time>2013-11-23T07:27:39.0000000+00:00</time></trkpt><trkpt lat="30.61038017" lon="34.77698898"><ele>824.0</ele><time>2013-11-23T07:27:44.0000000+00:00</time></trkpt><trkpt lat="30.61038017" lon="34.77698898"><ele>824.0</ele><time>2013-11-23T07:27:49.0000000+00:00</time></trkpt><trkpt lat="30.61038017" lon="34.77698898"><ele>824.0</ele><time>2013-11-23T07:27:54.0000000+00:00</time></trkpt><trkpt lat="30.61038017" lon="34.77698898"><ele>824.0</ele><time>2013-11-23T07:27:59.0000000+00:00</time></trkpt><trkpt lat="30.61038017" lon="34.77698898"><ele>824.0</ele><time>2013-11-23T07:28:04.0000000+00:00</time></trkpt><trkpt lat="30.61038017" lon="34.77698898"><ele>824.0</ele><time>2013-11-23T07:28:09.0000000+00:00</time></trkpt><trkpt lat="30.61038017" lon="34.77698898"><ele>824.0</ele><time>2013-11-23T07:28:14.0000000+00:00</time></trkpt><trkpt lat="30.61038017" lon="34.77698898"><ele>824.0</ele><time>2013-11-23T07:28:19.0000000+00:00</time></trkpt><trkpt lat="30.61038017" lon="34.77698898"><ele>824.0</ele><time>2013-11-23T07:28:24.0000000+00:00</time></trkpt><trkpt lat="30.61037827" lon="34.77698898"><ele>824.1</ele><time>2013-11-23T07:28:29.0000000+00:00</time></trkpt><trkpt lat="30.61037827" lon="34.77698898"><ele>824.1</ele><time>2013-11-23T07:28:34.0000000+00:00</time></trkpt><trkpt lat="30.61037827" lon="34.77698898"><ele>824.0</ele><time>2013-11-23T07:28:39.0000000+00:00</time></trkpt><trkpt lat="30.61037827" lon="34.77698898"><ele>824.0</ele><time>2013-11-23T07:28:44.0000000+00:00</time></trkpt><trkpt lat="30.61037827" lon="34.77698898"><ele>824.0</ele><time>2013-11-23T07:28:49.0000000+00:00</time></trkpt><trkpt lat="30.61037827" lon="34.77698898"><ele>824.0</ele><time>2013-11-23T07:28:54.0000000+00:00</time></trkpt><trkpt lat="30.61037827" lon="34.77698898"><ele>824.0</ele><time>2013-11-23T07:28:59.0000000+00:00</time></trkpt><trkpt lat="30.61037827" lon="34.77698898"><ele>824.0</ele><time>2013-11-23T07:29:04.0000000+00:00</time></trkpt><trkpt lat="30.61037827" lon="34.77698898"><ele>824.0</ele><time>2013-11-23T07:29:09.0000000+00:00</time></trkpt><trkpt lat="30.61037827" lon="34.77698898"><ele>824.0</ele><time>2013-11-23T07:29:14.0000000+00:00</time></trkpt><trkpt lat="30.61037827" lon="34.77698898"><ele>824.0</ele><time>2013-11-23T07:29:19.0000000+00:00</time></trkpt><trkpt lat="30.61037827" lon="34.77698898"><ele>824.0</ele><time>2013-11-23T07:29:24.0000000+00:00</time></trkpt><trkpt lat="30.61037827" lon="34.77698898"><ele>824.0</ele><time>2013-11-23T07:29:29.0000000+00:00</time></trkpt><trkpt lat="30.61037827" lon="34.77698898"><ele>824.0</ele><time>2013-11-23T07:29:34.0000000+00:00</time></trkpt><trkpt lat="30.61037827" lon="34.77698898"><ele>823.9</ele><time>2013-11-23T07:29:39.0000000+00:00</time></trkpt><trkpt lat="30.61037827" lon="34.77698898"><ele>823.9</ele><time>2013-11-23T07:29:44.0000000+00:00</time></trkpt><trkpt lat="30.61037827" lon="34.77698898"><ele>823.9</ele><time>2013-11-23T07:29:49.0000000+00:00</time></trkpt><trkpt lat="30.61037827" lon="34.77698898"><ele>823.9</ele><time>2013-11-23T07:29:54.0000000+00:00</time></trkpt><trkpt lat="30.61037827" lon="34.77698898"><ele>823.9</ele><time>2013-11-23T07:29:59.0000000+00:00</time></trkpt><trkpt lat="30.61037827" lon="34.77698898"><ele>823.9</ele><time>2013-11-23T07:30:04.0000000+00:00</time></trkpt><trkpt lat="30.61037827" lon="34.77698898"><ele>823.9</ele><time>2013-11-23T07:30:09.0000000+00:00</time></trkpt><trkpt lat="30.61037827" lon="34.77698898"><ele>823.9</ele><time>2013-11-23T07:30:14.0000000+00:00</time></trkpt><trkpt lat="30.61037827" lon="34.77698898"><ele>823.9</ele><time>2013-11-23T07:30:19.0000000+00:00</time></trkpt><trkpt lat="30.61037827" lon="34.77698898"><ele>823.9</ele><time>2013-11-23T07:30:24.0000000+00:00</time></trkpt><trkpt lat="30.61037827" lon="34.77698898"><ele>823.9</ele><time>2013-11-23T07:30:29.0000000+00:00</time></trkpt><trkpt lat="30.61037827" lon="34.77698898"><ele>823.9</ele><time>2013-11-23T07:30:34.0000000+00:00</time></trkpt><trkpt lat="30.61037827" lon="34.77698898"><ele>823.9</ele><time>2013-11-23T07:30:39.0000000+00:00</time></trkpt><trkpt lat="30.61037827" lon="34.77698898"><ele>823.9</ele><time>2013-11-23T07:30:44.0000000+00:00</time></trkpt><trkpt lat="30.61037827" lon="34.77698898"><ele>823.9</ele><time>2013-11-23T07:30:49.0000000+00:00</time></trkpt><trkpt lat="30.61037827" lon="34.77698898"><ele>823.9</ele><time>2013-11-23T07:30:54.0000000+00:00</time></trkpt><trkpt lat="30.61037827" lon="34.77698898"><ele>823.9</ele><time>2013-11-23T07:30:59.0000000+00:00</time></trkpt><trkpt lat="30.61037827" lon="34.77698898"><ele>823.9</ele><time>2013-11-23T07:31:04.0000000+00:00</time></trkpt><trkpt lat="30.61037827" lon="34.77698898"><ele>823.9</ele><time>2013-11-23T07:31:09.0000000+00:00</time></trkpt><trkpt lat="30.61037827" lon="34.77698898"><ele>823.9</ele><time>2013-11-23T07:31:14.0000000+00:00</time></trkpt><trkpt lat="30.61037827" lon="34.77698898"><ele>823.9</ele><time>2013-11-23T07:31:19.0000000+00:00</time></trkpt><trkpt lat="30.61037827" lon="34.77698898"><ele>823.9</ele><time>2013-11-23T07:31:24.0000000+00:00</time></trkpt><trkpt lat="30.61037827" lon="34.77698898"><ele>823.9</ele><time>2013-11-23T07:31:29.0000000+00:00</time></trkpt><trkpt lat="30.61037827" lon="34.77698898"><ele>823.9</ele><time>2013-11-23T07:31:34.0000000+00:00</time></trkpt><trkpt lat="30.61037827" lon="34.77698898"><ele>823.9</ele><time>2013-11-23T07:31:39.0000000+00:00</time></trkpt><trkpt lat="30.61037827" lon="34.77698898"><ele>823.9</ele><time>2013-11-23T07:31:44.0000000+00:00</time></trkpt><trkpt lat="30.61037827" lon="34.77698898"><ele>823.9</ele><time>2013-11-23T07:31:49.0000000+00:00</time></trkpt><trkpt lat="30.61037827" lon="34.77698898"><ele>823.9</ele><time>2013-11-23T07:31:54.0000000+00:00</time></trkpt><trkpt lat="30.61037827" lon="34.77698898"><ele>823.9</ele><time>2013-11-23T07:31:59.0000000+00:00</time></trkpt><trkpt lat="30.61037827" lon="34.77698898"><ele>823.9</ele><time>2013-11-23T07:32:04.0000000+00:00</time></trkpt><trkpt lat="30.61037827" lon="34.77698898"><ele>823.9</ele><time>2013-11-23T07:32:09.0000000+00:00</time></trkpt><trkpt lat="30.61037827" lon="34.77698898"><ele>823.9</ele><time>2013-11-23T07:32:14.0000000+00:00</time></trkpt><trkpt lat="30.61037827" lon="34.77698898"><ele>823.9</ele><time>2013-11-23T07:32:19.0000000+00:00</time></trkpt><trkpt lat="30.61037827" lon="34.77698898"><ele>823.9</ele><time>2013-11-23T07:32:24.0000000+00:00</time></trkpt><trkpt lat="30.61037827" lon="34.77698898"><ele>823.8</ele><time>2013-11-23T07:32:29.0000000+00:00</time></trkpt><trkpt lat="30.61037827" lon="34.77698898"><ele>823.8</ele><time>2013-11-23T07:32:34.0000000+00:00</time></trkpt><trkpt lat="30.61037827" lon="34.77698898"><ele>823.8</ele><time>2013-11-23T07:32:39.0000000+00:00</time></trkpt><trkpt lat="30.61037827" lon="34.77698898"><ele>823.8</ele><time>2013-11-23T07:32:44.0000000+00:00</time></trkpt><trkpt lat="30.61037827" lon="34.77698898"><ele>823.8</ele><time>2013-11-23T07:32:49.0000000+00:00</time></trkpt><trkpt lat="30.61037827" lon="34.77698898"><ele>823.8</ele><time>2013-11-23T07:32:54.0000000+00:00</time></trkpt><trkpt lat="30.61037827" lon="34.77698898"><ele>823.8</ele><time>2013-11-23T07:32:59.0000000+00:00</time></trkpt><trkpt lat="30.61037827" lon="34.77698898"><ele>823.8</ele><time>2013-11-23T07:33:04.0000000+00:00</time></trkpt><trkpt lat="30.61037827" lon="34.77698898"><ele>823.8</ele><time>2013-11-23T07:33:09.0000000+00:00</time></trkpt><trkpt lat="30.61037827" lon="34.77698898"><ele>823.8</ele><time>2013-11-23T07:33:14.0000000+00:00</time></trkpt><trkpt lat="30.61037827" lon="34.77698898"><ele>823.8</ele><time>2013-11-23T07:33:19.0000000+00:00</time></trkpt><trkpt lat="30.61037827" lon="34.77698898"><ele>823.7</ele><time>2013-11-23T07:33:24.0000000+00:00</time></trkpt><trkpt lat="30.61037827" lon="34.77698898"><ele>823.7</ele><time>2013-11-23T07:33:29.0000000+00:00</time></trkpt><trkpt lat="30.61037827" lon="34.77698898"><ele>823.7</ele><time>2013-11-23T07:33:34.0000000+00:00</time></trkpt><trkpt lat="30.61037827" lon="34.77698898"><ele>823.7</ele><time>2013-11-23T07:33:39.0000000+00:00</time></trkpt><trkpt lat="30.61038017" lon="34.77698898"><ele>823.7</ele><time>2013-11-23T07:33:44.0000000+00:00</time></trkpt><trkpt lat="30.61038017" lon="34.77698898"><ele>823.7</ele><time>2013-11-23T07:33:49.0000000+00:00</time></trkpt><trkpt lat="30.61038017" lon="34.77698898"><ele>823.6</ele><time>2013-11-23T07:33:54.0000000+00:00</time></trkpt><trkpt lat="30.61038017" lon="34.77698898"><ele>823.6</ele><time>2013-11-23T07:33:59.0000000+00:00</time></trkpt><trkpt lat="30.61038017" lon="34.77698898"><ele>823.6</ele><time>2013-11-23T07:34:04.0000000+00:00</time></trkpt><trkpt lat="30.61038017" lon="34.77698898"><ele>823.6</ele><time>2013-11-23T07:34:09.0000000+00:00</time></trkpt><trkpt lat="30.61038017" lon="34.77698898"><ele>823.6</ele><time>2013-11-23T07:34:14.0000000+00:00</time></trkpt><trkpt lat="30.61038017" lon="34.77698898"><ele>823.6</ele><time>2013-11-23T07:34:19.0000000+00:00</time></trkpt><trkpt lat="30.61038017" lon="34.77698898"><ele>823.6</ele><time>2013-11-23T07:34:24.0000000+00:00</time></trkpt><trkpt lat="30.61038017" lon="34.77698898"><ele>823.6</ele><time>2013-11-23T07:34:29.0000000+00:00</time></trkpt><trkpt lat="30.61038017" lon="34.77698898"><ele>823.6</ele><time>2013-11-23T07:34:34.0000000+00:00</time></trkpt><trkpt lat="30.61038017" lon="34.77698898"><ele>823.6</ele><time>2013-11-23T07:34:39.0000000+00:00</time></trkpt><trkpt lat="30.61038017" lon="34.77698898"><ele>823.6</ele><time>2013-11-23T07:34:44.0000000+00:00</time></trkpt><trkpt lat="30.61038017" lon="34.77698898"><ele>823.6</ele><time>2013-11-23T07:34:49.0000000+00:00</time></trkpt><trkpt lat="30.61038017" lon="34.77698898"><ele>823.6</ele><time>2013-11-23T07:34:54.0000000+00:00</time></trkpt><trkpt lat="30.61038017" lon="34.77698898"><ele>823.6</ele><time>2013-11-23T07:34:59.0000000+00:00</time></trkpt><trkpt lat="30.61038017" lon="34.77698898"><ele>823.5</ele><time>2013-11-23T07:35:04.0000000+00:00</time></trkpt><trkpt lat="30.61038017" lon="34.77698898"><ele>823.5</ele><time>2013-11-23T07:35:09.0000000+00:00</time></trkpt><trkpt lat="30.61038017" lon="34.77698898"><ele>823.5</ele><time>2013-11-23T07:35:14.0000000+00:00</time></trkpt><trkpt lat="30.61038017" lon="34.77698898"><ele>823.5</ele><time>2013-11-23T07:35:19.0000000+00:00</time></trkpt><trkpt lat="30.61038017" lon="34.77698898"><ele>823.5</ele><time>2013-11-23T07:35:24.0000000+00:00</time></trkpt><trkpt lat="30.61038017" lon="34.77698898"><ele>823.5</ele><time>2013-11-23T07:35:29.0000000+00:00</time></trkpt><trkpt lat="30.61038017" lon="34.77698898"><ele>823.5</ele><time>2013-11-23T07:35:34.0000000+00:00</time></trkpt><trkpt lat="30.61038017" lon="34.77698898"><ele>823.5</ele><time>2013-11-23T07:35:39.0000000+00:00</time></trkpt><trkpt lat="30.61038017" lon="34.77698898"><ele>823.5</ele><time>2013-11-23T07:35:44.0000000+00:00</time></trkpt><trkpt lat="30.61038017" lon="34.77698898"><ele>823.5</ele><time>2013-11-23T07:35:49.0000000+00:00</time></trkpt><trkpt lat="30.61038017" lon="34.77698898"><ele>823.5</ele><time>2013-11-23T07:35:54.0000000+00:00</time></trkpt><trkpt lat="30.61038017" lon="34.77698898"><ele>823.4</ele><time>2013-11-23T07:35:59.0000000+00:00</time></trkpt><trkpt lat="30.61038017" lon="34.77698898"><ele>823.4</ele><time>2013-11-23T07:36:04.0000000+00:00</time></trkpt><trkpt lat="30.61038017" lon="34.77698898"><ele>823.4</ele><time>2013-11-23T07:36:09.0000000+00:00</time></trkpt><trkpt lat="30.61038017" lon="34.77698898"><ele>823.4</ele><time>2013-11-23T07:36:14.0000000+00:00</time></trkpt><trkpt lat="30.61038017" lon="34.77698517"><ele>823.4</ele><time>2013-11-23T07:36:19.0000000+00:00</time></trkpt><trkpt lat="30.61038017" lon="34.77698517"><ele>823.4</ele><time>2013-11-23T07:36:24.0000000+00:00</time></trkpt><trkpt lat="30.61038017" lon="34.77698517"><ele>823.4</ele><time>2013-11-23T07:36:29.0000000+00:00</time></trkpt><trkpt lat="30.61038017" lon="34.77698517"><ele>823.4</ele><time>2013-11-23T07:36:34.0000000+00:00</time></trkpt><trkpt lat="30.61038017" lon="34.77698517"><ele>823.4</ele><time>2013-11-23T07:36:39.0000000+00:00</time></trkpt><trkpt lat="30.61038017" lon="34.77698517"><ele>823.3</ele><time>2013-11-23T07:36:44.0000000+00:00</time></trkpt><trkpt lat="30.61038017" lon="34.77698517"><ele>823.3</ele><time>2013-11-23T07:36:49.0000000+00:00</time></trkpt><trkpt lat="30.61038017" lon="34.77698517"><ele>823.3</ele><time>2013-11-23T07:36:54.0000000+00:00</time></trkpt><trkpt lat="30.61038017" lon="34.77698517"><ele>823.3</ele><time>2013-11-23T07:36:59.0000000+00:00</time></trkpt><trkpt lat="30.61038017" lon="34.77698517"><ele>823.3</ele><time>2013-11-23T07:37:04.0000000+00:00</time></trkpt><trkpt lat="30.61038017" lon="34.77698517"><ele>823.3</ele><time>2013-11-23T07:37:09.0000000+00:00</time></trkpt><trkpt lat="30.61038017" lon="34.77698517"><ele>823.3</ele><time>2013-11-23T07:37:14.0000000+00:00</time></trkpt><trkpt lat="30.61038017" lon="34.77698517"><ele>823.3</ele><time>2013-11-23T07:37:19.0000000+00:00</time></trkpt><trkpt lat="30.61038017" lon="34.77698517"><ele>823.3</ele><time>2013-11-23T07:37:24.0000000+00:00</time></trkpt><trkpt lat="30.61038017" lon="34.77698517"><ele>823.3</ele><time>2013-11-23T07:37:29.0000000+00:00</time></trkpt><trkpt lat="30.61038017" lon="34.77698517"><ele>823.3</ele><time>2013-11-23T07:37:34.0000000+00:00</time></trkpt><trkpt lat="30.61038017" lon="34.77698517"><ele>823.3</ele><time>2013-11-23T07:37:39.0000000+00:00</time></trkpt><trkpt lat="30.61038017" lon="34.77698517"><ele>823.3</ele><time>2013-11-23T07:37:44.0000000+00:00</time></trkpt><trkpt lat="30.61038017" lon="34.77698517"><ele>823.3</ele><time>2013-11-23T07:37:49.0000000+00:00</time></trkpt><trkpt lat="30.61038017" lon="34.77698517"><ele>823.3</ele><time>2013-11-23T07:37:54.0000000+00:00</time></trkpt><trkpt lat="30.61038017" lon="34.77698517"><ele>823.3</ele><time>2013-11-23T07:37:59.0000000+00:00</time></trkpt><trkpt lat="30.61038017" lon="34.77698517"><ele>823.3</ele><time>2013-11-23T07:38:04.0000000+00:00</time></trkpt><trkpt lat="30.61038017" lon="34.77698517"><ele>823.3</ele><time>2013-11-23T07:38:09.0000000+00:00</time></trkpt><trkpt lat="30.61038017" lon="34.77698517"><ele>823.4</ele><time>2013-11-23T07:38:14.0000000+00:00</time></trkpt><trkpt lat="30.61038017" lon="34.77698517"><ele>823.4</ele><time>2013-11-23T07:38:19.0000000+00:00</time></trkpt><trkpt lat="30.61038017" lon="34.77698517"><ele>823.4</ele><time>2013-11-23T07:38:24.0000000+00:00</time></trkpt><trkpt lat="30.61038017" lon="34.77698517"><ele>823.4</ele><time>2013-11-23T07:38:29.0000000+00:00</time></trkpt><trkpt lat="30.61038017" lon="34.77698517"><ele>823.4</ele><time>2013-11-23T07:38:34.0000000+00:00</time></trkpt><trkpt lat="30.61038017" lon="34.77698517"><ele>823.4</ele><time>2013-11-23T07:38:39.0000000+00:00</time></trkpt><trkpt lat="30.61038017" lon="34.77698517"><ele>823.4</ele><time>2013-11-23T07:38:44.0000000+00:00</time></trkpt><trkpt lat="30.61038017" lon="34.77698517"><ele>823.4</ele><time>2013-11-23T07:38:49.0000000+00:00</time></trkpt><trkpt lat="30.61038017" lon="34.77698517"><ele>823.4</ele><time>2013-11-23T07:38:54.0000000+00:00</time></trkpt><trkpt lat="30.61038017" lon="34.77698517"><ele>823.4</ele><time>2013-11-23T07:38:59.0000000+00:00</time></trkpt><trkpt lat="30.61038017" lon="34.77698517"><ele>823.4</ele><time>2013-11-23T07:39:04.0000000+00:00</time></trkpt><trkpt lat="30.61037827" lon="34.77698517"><ele>823.4</ele><time>2013-11-23T07:39:09.0000000+00:00</time></trkpt><trkpt lat="30.61037827" lon="34.77698517"><ele>823.4</ele><time>2013-11-23T07:39:14.0000000+00:00</time></trkpt><trkpt lat="30.61037827" lon="34.77698517"><ele>823.4</ele><time>2013-11-23T07:39:19.0000000+00:00</time></trkpt><trkpt lat="30.61037827" lon="34.77698517"><ele>823.4</ele><time>2013-11-23T07:39:24.0000000+00:00</time></trkpt><trkpt lat="30.61037827" lon="34.77698517"><ele>823.4</ele><time>2013-11-23T07:39:29.0000000+00:00</time></trkpt><trkpt lat="30.61037827" lon="34.77698517"><ele>823.4</ele><time>2013-11-23T07:39:34.0000000+00:00</time></trkpt><trkpt lat="30.61037827" lon="34.77698517"><ele>823.3</ele><time>2013-11-23T07:39:39.0000000+00:00</time></trkpt><trkpt lat="30.61037827" lon="34.77698517"><ele>823.3</ele><time>2013-11-23T07:39:44.0000000+00:00</time></trkpt><trkpt lat="30.61037827" lon="34.77698517"><ele>823.3</ele><time>2013-11-23T07:39:49.0000000+00:00</time></trkpt><trkpt lat="30.61037827" lon="34.77698517"><ele>823.3</ele><time>2013-11-23T07:39:54.0000000+00:00</time></trkpt><trkpt lat="30.61037827" lon="34.77698517"><ele>823.3</ele><time>2013-11-23T07:39:59.0000000+00:00</time></trkpt><trkpt lat="30.61037827" lon="34.77698517"><ele>823.3</ele><time>2013-11-23T07:40:04.0000000+00:00</time></trkpt><trkpt lat="30.61037827" lon="34.77698517"><ele>823.3</ele><time>2013-11-23T07:40:09.0000000+00:00</time></trkpt><trkpt lat="30.61037827" lon="34.77698517"><ele>823.3</ele><time>2013-11-23T07:40:14.0000000+00:00</time></trkpt><trkpt lat="30.61037827" lon="34.77698517"><ele>823.3</ele><time>2013-11-23T07:40:19.0000000+00:00</time></trkpt><trkpt lat="30.61037827" lon="34.77698517"><ele>823.3</ele><time>2013-11-23T07:40:24.0000000+00:00</time></trkpt><trkpt lat="30.61037827" lon="34.77698517"><ele>823.3</ele><time>2013-11-23T07:40:29.0000000+00:00</time></trkpt><trkpt lat="30.61037827" lon="34.77698517"><ele>823.3</ele><time>2013-11-23T07:40:34.0000000+00:00</time></trkpt><trkpt lat="30.61037827" lon="34.77698517"><ele>823.3</ele><time>2013-11-23T07:40:39.0000000+00:00</time></trkpt><trkpt lat="30.61037827" lon="34.77698517"><ele>823.3</ele><time>2013-11-23T07:40:44.0000000+00:00</time></trkpt><trkpt lat="30.61037827" lon="34.77698517"><ele>823.3</ele><time>2013-11-23T07:40:49.0000000+00:00</time></trkpt><trkpt lat="30.61037636" lon="34.77698517"><ele>823.3</ele><time>2013-11-23T07:40:54.0000000+00:00</time></trkpt><trkpt lat="30.61037636" lon="34.77698517"><ele>823.3</ele><time>2013-11-23T07:40:59.0000000+00:00</time></trkpt><trkpt lat="30.61037636" lon="34.77698517"><ele>823.2</ele><time>2013-11-23T07:41:04.0000000+00:00</time></trkpt><trkpt lat="30.61037636" lon="34.77698517"><ele>823.2</ele><time>2013-11-23T07:41:09.0000000+00:00</time></trkpt><trkpt lat="30.61037636" lon="34.77698517"><ele>823.2</ele><time>2013-11-23T07:41:14.0000000+00:00</time></trkpt><trkpt lat="30.61037636" lon="34.77698517"><ele>823.2</ele><time>2013-11-23T07:41:19.0000000+00:00</time></trkpt><trkpt lat="30.61037636" lon="34.77698517"><ele>823.2</ele><time>2013-11-23T07:41:24.0000000+00:00</time></trkpt><trkpt lat="30.61037636" lon="34.77698517"><ele>823.2</ele><time>2013-11-23T07:41:29.0000000+00:00</time></trkpt><trkpt lat="30.61037636" lon="34.77698517"><ele>823.2</ele><time>2013-11-23T07:41:34.0000000+00:00</time></trkpt><trkpt lat="30.61037636" lon="34.77698517"><ele>823.2</ele><time>2013-11-23T07:41:39.0000000+00:00</time></trkpt><trkpt lat="30.61037636" lon="34.77698517"><ele>823.2</ele><time>2013-11-23T07:41:44.0000000+00:00</time></trkpt><trkpt lat="30.61037636" lon="34.77698517"><ele>823.2</ele><time>2013-11-23T07:41:49.0000000+00:00</time></trkpt><trkpt lat="30.61037636" lon="34.77698517"><ele>823.1</ele><time>2013-11-23T07:41:54.0000000+00:00</time></trkpt><trkpt lat="30.61037636" lon="34.77698517"><ele>823.1</ele><time>2013-11-23T07:41:59.0000000+00:00</time></trkpt><trkpt lat="30.61037636" lon="34.77698517"><ele>823.1</ele><time>2013-11-23T07:42:04.0000000+00:00</time></trkpt><trkpt lat="30.61037636" lon="34.77698517"><ele>823.1</ele><time>2013-11-23T07:42:09.0000000+00:00</time></trkpt><trkpt lat="30.61037636" lon="34.77698517"><ele>823.1</ele><time>2013-11-23T07:42:14.0000000+00:00</time></trkpt><trkpt lat="30.61037636" lon="34.77698517"><ele>823.1</ele><time>2013-11-23T07:42:19.0000000+00:00</time></trkpt><trkpt lat="30.61037636" lon="34.77698517"><ele>823.1</ele><time>2013-11-23T07:42:24.0000000+00:00</time></trkpt><trkpt lat="30.61037636" lon="34.77698517"><ele>823.1</ele><time>2013-11-23T07:42:29.0000000+00:00</time></trkpt><trkpt lat="30.61037636" lon="34.77698517"><ele>823.1</ele><time>2013-11-23T07:42:34.0000000+00:00</time></trkpt><trkpt lat="30.61037636" lon="34.77698517"><ele>823.1</ele><time>2013-11-23T07:42:39.0000000+00:00</time></trkpt><trkpt lat="30.61037636" lon="34.77698135"><ele>823.1</ele><time>2013-11-23T07:42:44.0000000+00:00</time></trkpt><trkpt lat="30.61037636" lon="34.77698135"><ele>823.1</ele><time>2013-11-23T07:42:49.0000000+00:00</time></trkpt><trkpt lat="30.61037636" lon="34.77698135"><ele>823.1</ele><time>2013-11-23T07:42:54.0000000+00:00</time></trkpt><trkpt lat="30.61037636" lon="34.77698135"><ele>823.0</ele><time>2013-11-23T07:42:59.0000000+00:00</time></trkpt><trkpt lat="30.61037636" lon="34.77698135"><ele>823.0</ele><time>2013-11-23T07:43:04.0000000+00:00</time></trkpt><trkpt lat="30.61037636" lon="34.77698135"><ele>823.0</ele><time>2013-11-23T07:43:09.0000000+00:00</time></trkpt><trkpt lat="30.61037636" lon="34.77698135"><ele>823.0</ele><time>2013-11-23T07:43:14.0000000+00:00</time></trkpt><trkpt lat="30.61037636" lon="34.77698135"><ele>823.0</ele><time>2013-11-23T07:43:19.0000000+00:00</time></trkpt><trkpt lat="30.61037636" lon="34.77698135"><ele>823.0</ele><time>2013-11-23T07:43:24.0000000+00:00</time></trkpt><trkpt lat="30.61037636" lon="34.77698517"><ele>823.0</ele><time>2013-11-23T07:43:29.0000000+00:00</time></trkpt><trkpt lat="30.61037445" lon="34.77698517"><ele>823.0</ele><time>2013-11-23T07:43:34.0000000+00:00</time></trkpt><trkpt lat="30.61037445" lon="34.77698517"><ele>823.0</ele><time>2013-11-23T07:43:39.0000000+00:00</time></trkpt><trkpt lat="30.61037445" lon="34.77698517"><ele>823.1</ele><time>2013-11-23T07:43:44.0000000+00:00</time></trkpt><trkpt lat="30.61037445" lon="34.77698517"><ele>823.1</ele><time>2013-11-23T07:43:49.0000000+00:00</time></trkpt><trkpt lat="30.61037445" lon="34.77698517"><ele>823.0</ele><time>2013-11-23T07:43:54.0000000+00:00</time></trkpt><trkpt lat="30.61037445" lon="34.77698517"><ele>823.0</ele><time>2013-11-23T07:43:59.0000000+00:00</time></trkpt><trkpt lat="30.61037445" lon="34.77698517"><ele>823.1</ele><time>2013-11-23T07:44:04.0000000+00:00</time></trkpt><trkpt lat="30.61037445" lon="34.77698517"><ele>823.0</ele><time>2013-11-23T07:44:09.0000000+00:00</time></trkpt><trkpt lat="30.61037445" lon="34.77698517"><ele>823.0</ele><time>2013-11-23T07:44:14.0000000+00:00</time></trkpt><trkpt lat="30.61037445" lon="34.77698517"><ele>823.0</ele><time>2013-11-23T07:44:19.0000000+00:00</time></trkpt><trkpt lat="30.61037445" lon="34.77698517"><ele>823.0</ele><time>2013-11-23T07:44:24.0000000+00:00</time></trkpt><trkpt lat="30.61037254" lon="34.77698517"><ele>823.0</ele><time>2013-11-23T07:44:29.0000000+00:00</time></trkpt><trkpt lat="30.61037254" lon="34.77698517"><ele>823.0</ele><time>2013-11-23T07:44:34.0000000+00:00</time></trkpt><trkpt lat="30.61037254" lon="34.77698517"><ele>823.0</ele><time>2013-11-23T07:44:39.0000000+00:00</time></trkpt><trkpt lat="30.61037254" lon="34.77698517"><ele>823.0</ele><time>2013-11-23T07:44:44.0000000+00:00</time></trkpt><trkpt lat="30.61037254" lon="34.77698517"><ele>823.0</ele><time>2013-11-23T07:44:49.0000000+00:00</time></trkpt><trkpt lat="30.61037254" lon="34.77698517"><ele>823.0</ele><time>2013-11-23T07:44:54.0000000+00:00</time></trkpt><trkpt lat="30.61037254" lon="34.77698517"><ele>823.0</ele><time>2013-11-23T07:44:59.0000000+00:00</time></trkpt><trkpt lat="30.61037254" lon="34.77698517"><ele>823.0</ele><time>2013-11-23T07:45:04.0000000+00:00</time></trkpt><trkpt lat="30.61037254" lon="34.77698517"><ele>823.0</ele><time>2013-11-23T07:45:09.0000000+00:00</time></trkpt><trkpt lat="30.61037254" lon="34.77698517"><ele>823.0</ele><time>2013-11-23T07:45:14.0000000+00:00</time></trkpt><trkpt lat="30.61037254" lon="34.77698517"><ele>823.0</ele><time>2013-11-23T07:45:19.0000000+00:00</time></trkpt><trkpt lat="30.61037254" lon="34.77698517"><ele>823.0</ele><time>2013-11-23T07:45:24.0000000+00:00</time></trkpt><trkpt lat="30.61037064" lon="34.77698517"><ele>823.0</ele><time>2013-11-23T07:45:29.0000000+00:00</time></trkpt><trkpt lat="30.61037064" lon="34.77698517"><ele>823.0</ele><time>2013-11-23T07:45:34.0000000+00:00</time></trkpt><trkpt lat="30.61037064" lon="34.77698517"><ele>823.1</ele><time>2013-11-23T07:45:39.0000000+00:00</time></trkpt><trkpt lat="30.61037064" lon="34.77698517"><ele>823.1</ele><time>2013-11-23T07:45:44.0000000+00:00</time></trkpt><trkpt lat="30.61037064" lon="34.77698517"><ele>823.1</ele><time>2013-11-23T07:45:49.0000000+00:00</time></trkpt><trkpt lat="30.61037064" lon="34.77698517"><ele>823.1</ele><time>2013-11-23T07:45:54.0000000+00:00</time></trkpt><trkpt lat="30.61037064" lon="34.77698517"><ele>823.1</ele><time>2013-11-23T07:45:59.0000000+00:00</time></trkpt><trkpt lat="30.61037064" lon="34.77698517"><ele>823.1</ele><time>2013-11-23T07:46:04.0000000+00:00</time></trkpt><trkpt lat="30.61037064" lon="34.77698517"><ele>823.1</ele><time>2013-11-23T07:46:09.0000000+00:00</time></trkpt><trkpt lat="30.61037064" lon="34.77698517"><ele>823.1</ele><time>2013-11-23T07:46:14.0000000+00:00</time></trkpt><trkpt lat="30.61037064" lon="34.77698517"><ele>823.1</ele><time>2013-11-23T07:46:19.0000000+00:00</time></trkpt><trkpt lat="30.61037064" lon="34.77698517"><ele>823.2</ele><time>2013-11-23T07:46:24.0000000+00:00</time></trkpt><trkpt lat="30.61037064" lon="34.77698517"><ele>823.2</ele><time>2013-11-23T07:46:29.0000000+00:00</time></trkpt><trkpt lat="30.61037064" lon="34.77698517"><ele>823.2</ele><time>2013-11-23T07:46:34.0000000+00:00</time></trkpt><trkpt lat="30.61037064" lon="34.77698517"><ele>823.2</ele><time>2013-11-23T07:46:39.0000000+00:00</time></trkpt><trkpt lat="30.61037064" lon="34.77698517"><ele>823.2</ele><time>2013-11-23T07:46:44.0000000+00:00</time></trkpt><trkpt lat="30.61037064" lon="34.77698517"><ele>823.2</ele><time>2013-11-23T07:46:49.0000000+00:00</time></trkpt><trkpt lat="30.61037064" lon="34.77698517"><ele>823.2</ele><time>2013-11-23T07:46:54.0000000+00:00</time></trkpt><trkpt lat="30.61037064" lon="34.77698517"><ele>823.2</ele><time>2013-11-23T07:46:59.0000000+00:00</time></trkpt><trkpt lat="30.61037064" lon="34.77698517"><ele>823.2</ele><time>2013-11-23T07:47:04.0000000+00:00</time></trkpt><trkpt lat="30.61037064" lon="34.77698517"><ele>823.2</ele><time>2013-11-23T07:47:09.0000000+00:00</time></trkpt><trkpt lat="30.61037064" lon="34.77698517"><ele>823.2</ele><time>2013-11-23T07:47:14.0000000+00:00</time></trkpt><trkpt lat="30.61037064" lon="34.77698517"><ele>823.2</ele><time>2013-11-23T07:47:19.0000000+00:00</time></trkpt><trkpt lat="30.61037064" lon="34.77698517"><ele>823.2</ele><time>2013-11-23T07:47:24.0000000+00:00</time></trkpt><trkpt lat="30.61037064" lon="34.77698517"><ele>823.2</ele><time>2013-11-23T07:47:29.0000000+00:00</time></trkpt><trkpt lat="30.61037064" lon="34.77698517"><ele>823.2</ele><time>2013-11-23T07:47:34.0000000+00:00</time></trkpt><trkpt lat="30.61036873" lon="34.77698517"><ele>823.1</ele><time>2013-11-23T07:47:39.0000000+00:00</time></trkpt><trkpt lat="30.61036873" lon="34.77698517"><ele>823.1</ele><time>2013-11-23T07:47:44.0000000+00:00</time></trkpt><trkpt lat="30.61036873" lon="34.77698517"><ele>823.1</ele><time>2013-11-23T07:47:49.0000000+00:00</time></trkpt><trkpt lat="30.61036873" lon="34.77698517"><ele>823.1</ele><time>2013-11-23T07:47:54.0000000+00:00</time></trkpt><trkpt lat="30.61036873" lon="34.77698517"><ele>823.1</ele><time>2013-11-23T07:47:59.0000000+00:00</time></trkpt><trkpt lat="30.61036873" lon="34.77698517"><ele>823.1</ele><time>2013-11-23T07:48:04.0000000+00:00</time></trkpt><trkpt lat="30.61036873" lon="34.77698517"><ele>823.1</ele><time>2013-11-23T07:48:09.0000000+00:00</time></trkpt><trkpt lat="30.61036873" lon="34.77698517"><ele>823.1</ele><time>2013-11-23T07:48:14.0000000+00:00</time></trkpt><trkpt lat="30.61036873" lon="34.77698517"><ele>823.1</ele><time>2013-11-23T07:48:19.0000000+00:00</time></trkpt><trkpt lat="30.61036873" lon="34.77698517"><ele>823.1</ele><time>2013-11-23T07:48:24.0000000+00:00</time></trkpt><trkpt lat="30.61036873" lon="34.77698517"><ele>823.1</ele><time>2013-11-23T07:48:29.0000000+00:00</time></trkpt><trkpt lat="30.61036873" lon="34.77698517"><ele>823.1</ele><time>2013-11-23T07:48:34.0000000+00:00</time></trkpt><trkpt lat="30.61036873" lon="34.77698517"><ele>823.1</ele><time>2013-11-23T07:48:39.0000000+00:00</time></trkpt><trkpt lat="30.61036873" lon="34.77698517"><ele>823.1</ele><time>2013-11-23T07:48:44.0000000+00:00</time></trkpt><trkpt lat="30.61036873" lon="34.77698517"><ele>823.1</ele><time>2013-11-23T07:48:49.0000000+00:00</time></trkpt><trkpt lat="30.61036873" lon="34.77698517"><ele>823.0</ele><time>2013-11-23T07:48:54.0000000+00:00</time></trkpt><trkpt lat="30.61036873" lon="34.77698517"><ele>823.0</ele><time>2013-11-23T07:48:59.0000000+00:00</time></trkpt><trkpt lat="30.61036873" lon="34.77698517"><ele>823.0</ele><time>2013-11-23T07:49:04.0000000+00:00</time></trkpt><trkpt lat="30.61036873" lon="34.77698517"><ele>823.0</ele><time>2013-11-23T07:49:09.0000000+00:00</time></trkpt><trkpt lat="30.61036873" lon="34.77698517"><ele>823.0</ele><time>2013-11-23T07:49:14.0000000+00:00</time></trkpt><trkpt lat="30.61036873" lon="34.77698135"><ele>823.0</ele><time>2013-11-23T07:49:19.0000000+00:00</time></trkpt><trkpt lat="30.61036682" lon="34.77698135"><ele>823.0</ele><time>2013-11-23T07:49:24.0000000+00:00</time></trkpt><trkpt lat="30.61036682" lon="34.77698135"><ele>823.0</ele><time>2013-11-23T07:49:29.0000000+00:00</time></trkpt><trkpt lat="30.61036682" lon="34.77698135"><ele>823.0</ele><time>2013-11-23T07:49:34.0000000+00:00</time></trkpt><trkpt lat="30.61036682" lon="34.77698135"><ele>823.0</ele><time>2013-11-23T07:49:39.0000000+00:00</time></trkpt><trkpt lat="30.61036682" lon="34.77698135"><ele>823.0</ele><time>2013-11-23T07:49:44.0000000+00:00</time></trkpt><trkpt lat="30.61036682" lon="34.77698135"><ele>823.0</ele><time>2013-11-23T07:49:49.0000000+00:00</time></trkpt><trkpt lat="30.61036682" lon="34.77698135"><ele>823.0</ele><time>2013-11-23T07:49:54.0000000+00:00</time></trkpt><trkpt lat="30.61036682" lon="34.77698135"><ele>823.0</ele><time>2013-11-23T07:49:59.0000000+00:00</time></trkpt><trkpt lat="30.61036682" lon="34.77698135"><ele>823.0</ele><time>2013-11-23T07:50:04.0000000+00:00</time></trkpt><trkpt lat="30.61036682" lon="34.77698135"><ele>823.0</ele><time>2013-11-23T07:50:09.0000000+00:00</time></trkpt><trkpt lat="30.61036682" lon="34.77698135"><ele>823.0</ele><time>2013-11-23T07:50:14.0000000+00:00</time></trkpt><trkpt lat="30.61036682" lon="34.77698135"><ele>823.0</ele><time>2013-11-23T07:50:19.0000000+00:00</time></trkpt><trkpt lat="30.61036682" lon="34.77698135"><ele>823.0</ele><time>2013-11-23T07:50:24.0000000+00:00</time></trkpt><trkpt lat="30.61036682" lon="34.77698135"><ele>823.0</ele><time>2013-11-23T07:50:29.0000000+00:00</time></trkpt><trkpt lat="30.61036682" lon="34.77698135"><ele>823.0</ele><time>2013-11-23T07:50:34.0000000+00:00</time></trkpt><trkpt lat="30.61036682" lon="34.77698135"><ele>823.0</ele><time>2013-11-23T07:50:39.0000000+00:00</time></trkpt><trkpt lat="30.61036682" lon="34.77698135"><ele>823.0</ele><time>2013-11-23T07:50:44.0000000+00:00</time></trkpt><trkpt lat="30.61036682" lon="34.77698135"><ele>823.0</ele><time>2013-11-23T07:50:49.0000000+00:00</time></trkpt><trkpt lat="30.61036682" lon="34.77698135"><ele>823.0</ele><time>2013-11-23T07:50:54.0000000+00:00</time></trkpt><trkpt lat="30.61036682" lon="34.77698135"><ele>823.0</ele><time>2013-11-23T07:50:59.0000000+00:00</time></trkpt><trkpt lat="30.61036682" lon="34.77698517"><ele>823.0</ele><time>2013-11-23T07:51:04.0000000+00:00</time></trkpt><trkpt lat="30.61036682" lon="34.77698517"><ele>823.0</ele><time>2013-11-23T07:51:09.0000000+00:00</time></trkpt><trkpt lat="30.61036682" lon="34.77698517"><ele>823.1</ele><time>2013-11-23T07:51:14.0000000+00:00</time></trkpt><trkpt lat="30.61036682" lon="34.77698517"><ele>823.1</ele><time>2013-11-23T07:51:19.0000000+00:00</time></trkpt><trkpt lat="30.61036682" lon="34.77698517"><ele>823.1</ele><time>2013-11-23T07:51:24.0000000+00:00</time></trkpt><trkpt lat="30.61036682" lon="34.77698517"><ele>823.1</ele><time>2013-11-23T07:51:29.0000000+00:00</time></trkpt><trkpt lat="30.61036682" lon="34.77698517"><ele>823.1</ele><time>2013-11-23T07:51:34.0000000+00:00</time></trkpt><trkpt lat="30.61036682" lon="34.77698517"><ele>823.1</ele><time>2013-11-23T07:51:39.0000000+00:00</time></trkpt><trkpt lat="30.61036682" lon="34.77698517"><ele>823.1</ele><time>2013-11-23T07:51:44.0000000+00:00</time></trkpt><trkpt lat="30.61036682" lon="34.77698517"><ele>823.1</ele><time>2013-11-23T07:51:49.0000000+00:00</time></trkpt><trkpt lat="30.61036682" lon="34.77698517"><ele>823.1</ele><time>2013-11-23T07:51:54.0000000+00:00</time></trkpt><trkpt lat="30.61036682" lon="34.77698135"><ele>823.1</ele><time>2013-11-23T07:51:59.0000000+00:00</time></trkpt><trkpt lat="30.61036682" lon="34.77698135"><ele>823.1</ele><time>2013-11-23T07:52:04.0000000+00:00</time></trkpt><trkpt lat="30.61036682" lon="34.77698135"><ele>823.1</ele><time>2013-11-23T07:52:09.0000000+00:00</time></trkpt><trkpt lat="30.61036682" lon="34.77698135"><ele>823.1</ele><time>2013-11-23T07:52:14.0000000+00:00</time></trkpt><trkpt lat="30.61036682" lon="34.77698135"><ele>823.1</ele><time>2013-11-23T07:52:19.0000000+00:00</time></trkpt><trkpt lat="30.61036491" lon="34.77698135"><ele>823.1</ele><time>2013-11-23T07:52:24.0000000+00:00</time></trkpt><trkpt lat="30.61036491" lon="34.77698135"><ele>823.1</ele><time>2013-11-23T07:52:29.0000000+00:00</time></trkpt><trkpt lat="30.61036491" lon="34.77698135"><ele>823.1</ele><time>2013-11-23T07:52:34.0000000+00:00</time></trkpt><trkpt lat="30.61036491" lon="34.77698135"><ele>823.1</ele><time>2013-11-23T07:52:39.0000000+00:00</time></trkpt><trkpt lat="30.61036491" lon="34.77698135"><ele>823.2</ele><time>2013-11-23T07:52:44.0000000+00:00</time></trkpt><trkpt lat="30.61036491" lon="34.77698135"><ele>823.2</ele><time>2013-11-23T07:52:49.0000000+00:00</time></trkpt><trkpt lat="30.61036491" lon="34.77698135"><ele>823.2</ele><time>2013-11-23T07:52:54.0000000+00:00</time></trkpt><trkpt lat="30.61036491" lon="34.77698135"><ele>823.2</ele><time>2013-11-23T07:52:59.0000000+00:00</time></trkpt><trkpt lat="30.61036491" lon="34.77698135"><ele>823.2</ele><time>2013-11-23T07:53:04.0000000+00:00</time></trkpt><trkpt lat="30.61036491" lon="34.77698135"><ele>823.2</ele><time>2013-11-23T07:53:09.0000000+00:00</time></trkpt><trkpt lat="30.61036491" lon="34.77698135"><ele>823.2</ele><time>2013-11-23T07:53:14.0000000+00:00</time></trkpt><trkpt lat="30.61036491" lon="34.77698135"><ele>823.2</ele><time>2013-11-23T07:53:19.0000000+00:00</time></trkpt><trkpt lat="30.61036491" lon="34.77698135"><ele>823.2</ele><time>2013-11-23T07:53:24.0000000+00:00</time></trkpt><trkpt lat="30.61036491" lon="34.77698135"><ele>823.2</ele><time>2013-11-23T07:53:29.0000000+00:00</time></trkpt><trkpt lat="30.61036491" lon="34.77698135"><ele>823.2</ele><time>2013-11-23T07:53:34.0000000+00:00</time></trkpt><trkpt lat="30.61036491" lon="34.77698135"><ele>823.2</ele><time>2013-11-23T07:53:39.0000000+00:00</time></trkpt><trkpt lat="30.61036491" lon="34.77698135"><ele>823.2</ele><time>2013-11-23T07:53:44.0000000+00:00</time></trkpt><trkpt lat="30.61036491" lon="34.77698135"><ele>823.1</ele><time>2013-11-23T07:53:49.0000000+00:00</time></trkpt><trkpt lat="30.61036491" lon="34.77698135"><ele>823.1</ele><time>2013-11-23T07:53:54.0000000+00:00</time></trkpt><trkpt lat="30.61036491" lon="34.77698135"><ele>823.1</ele><time>2013-11-23T07:53:59.0000000+00:00</time></trkpt><trkpt lat="30.61036491" lon="34.77698135"><ele>823.1</ele><time>2013-11-23T07:54:04.0000000+00:00</time></trkpt><trkpt lat="30.61036491" lon="34.77698135"><ele>823.1</ele><time>2013-11-23T07:54:09.0000000+00:00</time></trkpt><trkpt lat="30.61036491" lon="34.77698135"><ele>823.2</ele><time>2013-11-23T07:54:14.0000000+00:00</time></trkpt><trkpt lat="30.61036491" lon="34.77698135"><ele>823.2</ele><time>2013-11-23T07:54:19.0000000+00:00</time></trkpt><trkpt lat="30.61036491" lon="34.77698135"><ele>823.2</ele><time>2013-11-23T07:54:24.0000000+00:00</time></trkpt><trkpt lat="30.61036301" lon="34.77698135"><ele>823.2</ele><time>2013-11-23T07:54:29.0000000+00:00</time></trkpt><trkpt lat="30.61036301" lon="34.77698135"><ele>823.2</ele><time>2013-11-23T07:54:34.0000000+00:00</time></trkpt><trkpt lat="30.61036301" lon="34.77698135"><ele>823.2</ele><time>2013-11-23T07:54:39.0000000+00:00</time></trkpt><trkpt lat="30.61036301" lon="34.77698135"><ele>823.2</ele><time>2013-11-23T07:54:44.0000000+00:00</time></trkpt><trkpt lat="30.61036301" lon="34.77698135"><ele>823.2</ele><time>2013-11-23T07:54:49.0000000+00:00</time></trkpt><trkpt lat="30.61036301" lon="34.77698135"><ele>823.2</ele><time>2013-11-23T07:54:54.0000000+00:00</time></trkpt><trkpt lat="30.61036301" lon="34.77698135"><ele>823.2</ele><time>2013-11-23T07:54:59.0000000+00:00</time></trkpt><trkpt lat="30.61036301" lon="34.77698135"><ele>823.2</ele><time>2013-11-23T07:55:04.0000000+00:00</time></trkpt><trkpt lat="30.61036301" lon="34.77698135"><ele>823.2</ele><time>2013-11-23T07:55:09.0000000+00:00</time></trkpt><trkpt lat="30.61036301" lon="34.77698135"><ele>823.2</ele><time>2013-11-23T07:55:14.0000000+00:00</time></trkpt><trkpt lat="30.61036301" lon="34.77698135"><ele>823.2</ele><time>2013-11-23T07:55:19.0000000+00:00</time></trkpt><trkpt lat="30.61036301" lon="34.77698135"><ele>823.2</ele><time>2013-11-23T07:55:24.0000000+00:00</time></trkpt><trkpt lat="30.61036301" lon="34.77698135"><ele>823.2</ele><time>2013-11-23T07:55:29.0000000+00:00</time></trkpt><trkpt lat="30.61036301" lon="34.77698135"><ele>823.3</ele><time>2013-11-23T07:55:34.0000000+00:00</time></trkpt><trkpt lat="30.61036301" lon="34.77698135"><ele>823.3</ele><time>2013-11-23T07:55:39.0000000+00:00</time></trkpt><trkpt lat="30.61036301" lon="34.77698135"><ele>823.3</ele><time>2013-11-23T07:55:44.0000000+00:00</time></trkpt><trkpt lat="30.61036301" lon="34.77698135"><ele>823.3</ele><time>2013-11-23T07:55:49.0000000+00:00</time></trkpt><trkpt lat="30.6103611" lon="34.77698135"><ele>823.3</ele><time>2013-11-23T07:55:54.0000000+00:00</time></trkpt><trkpt lat="30.6103611" lon="34.77698135"><ele>823.3</ele><time>2013-11-23T07:55:59.0000000+00:00</time></trkpt><trkpt lat="30.6103611" lon="34.77698135"><ele>823.3</ele><time>2013-11-23T07:56:04.0000000+00:00</time></trkpt><trkpt lat="30.6103611" lon="34.77698135"><ele>823.3</ele><time>2013-11-23T07:56:09.0000000+00:00</time></trkpt><trkpt lat="30.6103611" lon="34.77698135"><ele>823.3</ele><time>2013-11-23T07:56:14.0000000+00:00</time></trkpt><trkpt lat="30.6103611" lon="34.77698135"><ele>823.3</ele><time>2013-11-23T07:56:19.0000000+00:00</time></trkpt><trkpt lat="30.6103611" lon="34.77698135"><ele>823.3</ele><time>2013-11-23T07:56:24.0000000+00:00</time></trkpt><trkpt lat="30.6103611" lon="34.77698135"><ele>823.3</ele><time>2013-11-23T07:56:29.0000000+00:00</time></trkpt><trkpt lat="30.6103611" lon="34.77698135"><ele>823.3</ele><time>2013-11-23T07:56:34.0000000+00:00</time></trkpt><trkpt lat="30.6103611" lon="34.77698135"><ele>823.3</ele><time>2013-11-23T07:56:39.0000000+00:00</time></trkpt><trkpt lat="30.6103611" lon="34.77698135"><ele>823.3</ele><time>2013-11-23T07:56:44.0000000+00:00</time></trkpt><trkpt lat="30.6103611" lon="34.77698135"><ele>823.3</ele><time>2013-11-23T07:56:49.0000000+00:00</time></trkpt><trkpt lat="30.6103611" lon="34.77698135"><ele>823.3</ele><time>2013-11-23T07:56:54.0000000+00:00</time></trkpt><trkpt lat="30.6103611" lon="34.77698135"><ele>823.3</ele><time>2013-11-23T07:56:59.0000000+00:00</time></trkpt><trkpt lat="30.6103611" lon="34.77698135"><ele>823.3</ele><time>2013-11-23T07:57:04.0000000+00:00</time></trkpt><trkpt lat="30.6103611" lon="34.77698135"><ele>823.3</ele><time>2013-11-23T07:57:09.0000000+00:00</time></trkpt><trkpt lat="30.6103611" lon="34.77698135"><ele>823.3</ele><time>2013-11-23T07:57:14.0000000+00:00</time></trkpt><trkpt lat="30.6103611" lon="34.77698135"><ele>823.3</ele><time>2013-11-23T07:57:19.0000000+00:00</time></trkpt><trkpt lat="30.6103611" lon="34.77698135"><ele>823.3</ele><time>2013-11-23T07:57:24.0000000+00:00</time></trkpt><trkpt lat="30.6103611" lon="34.77698135"><ele>823.3</ele><time>2013-11-23T07:57:29.0000000+00:00</time></trkpt><trkpt lat="30.6103611" lon="34.77698135"><ele>823.3</ele><time>2013-11-23T07:57:34.0000000+00:00</time></trkpt><trkpt lat="30.6103611" lon="34.77698135"><ele>823.3</ele><time>2013-11-23T07:57:39.0000000+00:00</time></trkpt><trkpt lat="30.6103611" lon="34.77698135"><ele>823.3</ele><time>2013-11-23T07:57:44.0000000+00:00</time></trkpt><trkpt lat="30.6103611" lon="34.77698135"><ele>823.3</ele><time>2013-11-23T07:57:49.0000000+00:00</time></trkpt><trkpt lat="30.6103611" lon="34.77698135"><ele>823.3</ele><time>2013-11-23T07:57:54.0000000+00:00</time></trkpt><trkpt lat="30.6103611" lon="34.77698135"><ele>823.3</ele><time>2013-11-23T07:57:59.0000000+00:00</time></trkpt><trkpt lat="30.6103611" lon="34.77698135"><ele>823.3</ele><time>2013-11-23T07:58:04.0000000+00:00</time></trkpt><trkpt lat="30.6103611" lon="34.77698135"><ele>823.3</ele><time>2013-11-23T07:58:09.0000000+00:00</time></trkpt><trkpt lat="30.6103611" lon="34.77698135"><ele>823.3</ele><time>2013-11-23T07:58:14.0000000+00:00</time></trkpt><trkpt lat="30.61035919" lon="34.77698135"><ele>823.3</ele><time>2013-11-23T07:58:19.0000000+00:00</time></trkpt><trkpt lat="30.61035919" lon="34.77698135"><ele>823.3</ele><time>2013-11-23T07:58:24.0000000+00:00</time></trkpt><trkpt lat="30.61035919" lon="34.77698135"><ele>823.3</ele><time>2013-11-23T07:58:29.0000000+00:00</time></trkpt><trkpt lat="30.61035919" lon="34.77698135"><ele>823.3</ele><time>2013-11-23T07:58:34.0000000+00:00</time></trkpt><trkpt lat="30.61035919" lon="34.77698135"><ele>823.3</ele><time>2013-11-23T07:58:39.0000000+00:00</time></trkpt><trkpt lat="30.61035919" lon="34.77698135"><ele>823.3</ele><time>2013-11-23T07:58:44.0000000+00:00</time></trkpt><trkpt lat="30.61035919" lon="34.77698135"><ele>823.3</ele><time>2013-11-23T07:58:49.0000000+00:00</time></trkpt><trkpt lat="30.61035919" lon="34.77698135"><ele>823.3</ele><time>2013-11-23T07:58:54.0000000+00:00</time></trkpt><trkpt lat="30.61035919" lon="34.77698135"><ele>823.3</ele><time>2013-11-23T07:58:59.0000000+00:00</time></trkpt><trkpt lat="30.61035919" lon="34.77698135"><ele>823.3</ele><time>2013-11-23T07:59:04.0000000+00:00</time></trkpt><trkpt lat="30.61035919" lon="34.77698135"><ele>823.3</ele><time>2013-11-23T07:59:09.0000000+00:00</time></trkpt><trkpt lat="30.61035919" lon="34.77698135"><ele>823.3</ele><time>2013-11-23T07:59:14.0000000+00:00</time></trkpt><trkpt lat="30.61035919" lon="34.77698135"><ele>823.3</ele><time>2013-11-23T07:59:19.0000000+00:00</time></trkpt><trkpt lat="30.61035919" lon="34.77698135"><ele>823.3</ele><time>2013-11-23T07:59:24.0000000+00:00</time></trkpt><trkpt lat="30.61035919" lon="34.77698135"><ele>823.2</ele><time>2013-11-23T07:59:29.0000000+00:00</time></trkpt><trkpt lat="30.61035919" lon="34.77698135"><ele>823.2</ele><time>2013-11-23T07:59:34.0000000+00:00</time></trkpt><trkpt lat="30.61035919" lon="34.77698135"><ele>823.2</ele><time>2013-11-23T07:59:39.0000000+00:00</time></trkpt><trkpt lat="30.61035919" lon="34.77698135"><ele>823.2</ele><time>2013-11-23T07:59:44.0000000+00:00</time></trkpt><trkpt lat="30.61035919" lon="34.77698135"><ele>823.3</ele><time>2013-11-23T07:59:49.0000000+00:00</time></trkpt><trkpt lat="30.61035919" lon="34.77698135"><ele>823.3</ele><time>2013-11-23T07:59:54.0000000+00:00</time></trkpt><trkpt lat="30.61035919" lon="34.77698135"><ele>823.3</ele><time>2013-11-23T07:59:59.0000000+00:00</time></trkpt><trkpt lat="30.61035919" lon="34.77698135"><ele>823.3</ele><time>2013-11-23T08:00:04.0000000+00:00</time></trkpt><trkpt lat="30.61035919" lon="34.77698135"><ele>823.3</ele><time>2013-11-23T08:00:09.0000000+00:00</time></trkpt><trkpt lat="30.61035919" lon="34.77698135"><ele>823.3</ele><time>2013-11-23T08:00:14.0000000+00:00</time></trkpt><trkpt lat="30.61035919" lon="34.77698135"><ele>823.3</ele><time>2013-11-23T08:00:19.0000000+00:00</time></trkpt><trkpt lat="30.61035919" lon="34.77698135"><ele>823.3</ele><time>2013-11-23T08:00:24.0000000+00:00</time></trkpt><trkpt lat="30.61035919" lon="34.77698135"><ele>823.3</ele><time>2013-11-23T08:00:29.0000000+00:00</time></trkpt><trkpt lat="30.61035919" lon="34.77698135"><ele>823.3</ele><time>2013-11-23T08:00:34.0000000+00:00</time></trkpt><trkpt lat="30.61035919" lon="34.77698135"><ele>823.3</ele><time>2013-11-23T08:00:39.0000000+00:00</time></trkpt><trkpt lat="30.61035919" lon="34.77698135"><ele>823.3</ele><time>2013-11-23T08:00:44.0000000+00:00</time></trkpt><trkpt lat="30.61035919" lon="34.77698135"><ele>823.3</ele><time>2013-11-23T08:00:49.0000000+00:00</time></trkpt><trkpt lat="30.61035919" lon="34.77698135"><ele>823.3</ele><time>2013-11-23T08:00:54.0000000+00:00</time></trkpt><trkpt lat="30.61035919" lon="34.77698135"><ele>823.3</ele><time>2013-11-23T08:00:59.0000000+00:00</time></trkpt><trkpt lat="30.61035919" lon="34.77698135"><ele>823.3</ele><time>2013-11-23T08:01:04.0000000+00:00</time></trkpt><trkpt lat="30.61035919" lon="34.77698135"><ele>823.3</ele><time>2013-11-23T08:01:09.0000000+00:00</time></trkpt><trkpt lat="30.61035919" lon="34.77698135"><ele>823.3</ele><time>2013-11-23T08:01:14.0000000+00:00</time></trkpt><trkpt lat="30.61035919" lon="34.77698135"><ele>823.3</ele><time>2013-11-23T08:01:19.0000000+00:00</time></trkpt><trkpt lat="30.61035919" lon="34.77698135"><ele>823.3</ele><time>2013-11-23T08:01:24.0000000+00:00</time></trkpt><trkpt lat="30.61035919" lon="34.77698135"><ele>823.3</ele><time>2013-11-23T08:01:29.0000000+00:00</time></trkpt><trkpt lat="30.61035919" lon="34.77698135"><ele>823.3</ele><time>2013-11-23T08:01:34.0000000+00:00</time></trkpt><trkpt lat="30.61035919" lon="34.77698135"><ele>823.3</ele><time>2013-11-23T08:01:39.0000000+00:00</time></trkpt><trkpt lat="30.61035919" lon="34.77698517"><ele>823.3</ele><time>2013-11-23T08:01:44.0000000+00:00</time></trkpt><trkpt lat="30.61035919" lon="34.77698517"><ele>823.3</ele><time>2013-11-23T08:01:49.0000000+00:00</time></trkpt><trkpt lat="30.61035919" lon="34.77698517"><ele>823.3</ele><time>2013-11-23T08:01:54.0000000+00:00</time></trkpt><trkpt lat="30.61035919" lon="34.77698517"><ele>823.3</ele><time>2013-11-23T08:01:59.0000000+00:00</time></trkpt><trkpt lat="30.61035919" lon="34.77698517"><ele>823.4</ele><time>2013-11-23T08:02:04.0000000+00:00</time></trkpt><trkpt lat="30.61035919" lon="34.77698517"><ele>823.4</ele><time>2013-11-23T08:02:09.0000000+00:00</time></trkpt><trkpt lat="30.61035919" lon="34.77698517"><ele>823.4</ele><time>2013-11-23T08:02:14.0000000+00:00</time></trkpt><trkpt lat="30.61035919" lon="34.77698517"><ele>823.4</ele><time>2013-11-23T08:02:19.0000000+00:00</time></trkpt><trkpt lat="30.61035919" lon="34.77698517"><ele>823.4</ele><time>2013-11-23T08:02:24.0000000+00:00</time></trkpt><trkpt lat="30.61035919" lon="34.77698517"><ele>823.4</ele><time>2013-11-23T08:02:29.0000000+00:00</time></trkpt><trkpt lat="30.61035919" lon="34.77698517"><ele>823.4</ele><time>2013-11-23T08:02:34.0000000+00:00</time></trkpt><trkpt lat="30.61035919" lon="34.77698517"><ele>823.4</ele><time>2013-11-23T08:02:39.0000000+00:00</time></trkpt><trkpt lat="30.61035729" lon="34.77698517"><ele>823.4</ele><time>2013-11-23T08:02:44.0000000+00:00</time></trkpt><trkpt lat="30.61035729" lon="34.77698517"><ele>823.4</ele><time>2013-11-23T08:02:49.0000000+00:00</time></trkpt><trkpt lat="30.61035729" lon="34.77698517"><ele>823.5</ele><time>2013-11-23T08:02:54.0000000+00:00</time></trkpt><trkpt lat="30.61035729" lon="34.77698517"><ele>823.5</ele><time>2013-11-23T08:02:59.0000000+00:00</time></trkpt><trkpt lat="30.61035729" lon="34.77698517"><ele>823.5</ele><time>2013-11-23T08:03:04.0000000+00:00</time></trkpt><trkpt lat="30.61035729" lon="34.77698517"><ele>823.5</ele><time>2013-11-23T08:03:09.0000000+00:00</time></trkpt><trkpt lat="30.61035729" lon="34.77698517"><ele>823.5</ele><time>2013-11-23T08:03:14.0000000+00:00</time></trkpt><trkpt lat="30.61035919" lon="34.77698517"><ele>823.5</ele><time>2013-11-23T08:03:19.0000000+00:00</time></trkpt><trkpt lat="30.61035919" lon="34.77698517"><ele>823.5</ele><time>2013-11-23T08:03:24.0000000+00:00</time></trkpt><trkpt lat="30.61035729" lon="34.77698517"><ele>823.6</ele><time>2013-11-23T08:03:29.0000000+00:00</time></trkpt><trkpt lat="30.61035919" lon="34.77698517"><ele>823.6</ele><time>2013-11-23T08:03:34.0000000+00:00</time></trkpt><trkpt lat="30.61035919" lon="34.77698517"><ele>823.6</ele><time>2013-11-23T08:03:39.0000000+00:00</time></trkpt><trkpt lat="30.61035919" lon="34.77698517"><ele>823.6</ele><time>2013-11-23T08:03:44.0000000+00:00</time></trkpt><trkpt lat="30.61035919" lon="34.77698517"><ele>823.6</ele><time>2013-11-23T08:03:49.0000000+00:00</time></trkpt><trkpt lat="30.61035919" lon="34.77698517"><ele>823.6</ele><time>2013-11-23T08:03:54.0000000+00:00</time></trkpt><trkpt lat="30.61035919" lon="34.77698517"><ele>823.6</ele><time>2013-11-23T08:03:59.0000000+00:00</time></trkpt><trkpt lat="30.61035919" lon="34.77698517"><ele>823.6</ele><time>2013-11-23T08:04:04.0000000+00:00</time></trkpt><trkpt lat="30.61035919" lon="34.77698517"><ele>823.6</ele><time>2013-11-23T08:04:09.0000000+00:00</time></trkpt><trkpt lat="30.61035919" lon="34.77698517"><ele>823.6</ele><time>2013-11-23T08:04:14.0000000+00:00</time></trkpt><trkpt lat="30.61035919" lon="34.77698517"><ele>823.6</ele><time>2013-11-23T08:04:19.0000000+00:00</time></trkpt><trkpt lat="30.61035919" lon="34.77698517"><ele>823.7</ele><time>2013-11-23T08:04:24.0000000+00:00</time></trkpt><trkpt lat="30.61035919" lon="34.77698517"><ele>823.7</ele><time>2013-11-23T08:04:29.0000000+00:00</time></trkpt><trkpt lat="30.61035919" lon="34.77698517"><ele>823.7</ele><time>2013-11-23T08:04:34.0000000+00:00</time></trkpt><trkpt lat="30.61035919" lon="34.77698517"><ele>823.7</ele><time>2013-11-23T08:04:39.0000000+00:00</time></trkpt><trkpt lat="30.61035919" lon="34.77698517"><ele>823.7</ele><time>2013-11-23T08:04:44.0000000+00:00</time></trkpt><trkpt lat="30.61035919" lon="34.77698517"><ele>823.7</ele><time>2013-11-23T08:04:49.0000000+00:00</time></trkpt><trkpt lat="30.61035919" lon="34.77698517"><ele>823.7</ele><time>2013-11-23T08:04:54.0000000+00:00</time></trkpt><trkpt lat="30.61035919" lon="34.77698517"><ele>823.7</ele><time>2013-11-23T08:04:59.0000000+00:00</time></trkpt><trkpt lat="30.61035919" lon="34.77698517"><ele>823.8</ele><time>2013-11-23T08:05:04.0000000+00:00</time></trkpt><trkpt lat="30.61035919" lon="34.77698517"><ele>823.8</ele><time>2013-11-23T08:05:09.0000000+00:00</time></trkpt><trkpt lat="30.61035919" lon="34.77698517"><ele>823.8</ele><time>2013-11-23T08:05:14.0000000+00:00</time></trkpt><trkpt lat="30.61035919" lon="34.77698517"><ele>823.8</ele><time>2013-11-23T08:05:19.0000000+00:00</time></trkpt><trkpt lat="30.61035919" lon="34.77698517"><ele>823.8</ele><time>2013-11-23T08:05:24.0000000+00:00</time></trkpt><trkpt lat="30.61035729" lon="34.77698517"><ele>823.8</ele><time>2013-11-23T08:05:29.0000000+00:00</time></trkpt><trkpt lat="30.61035729" lon="34.77698517"><ele>823.8</ele><time>2013-11-23T08:05:34.0000000+00:00</time></trkpt><trkpt lat="30.61035729" lon="34.77698517"><ele>823.8</ele><time>2013-11-23T08:05:39.0000000+00:00</time></trkpt><trkpt lat="30.61035729" lon="34.77698517"><ele>823.8</ele><time>2013-11-23T08:05:44.0000000+00:00</time></trkpt><trkpt lat="30.61035729" lon="34.77698517"><ele>823.8</ele><time>2013-11-23T08:05:49.0000000+00:00</time></trkpt><trkpt lat="30.61035729" lon="34.77698517"><ele>823.8</ele><time>2013-11-23T08:05:54.0000000+00:00</time></trkpt><trkpt lat="30.61035729" lon="34.77698517"><ele>823.8</ele><time>2013-11-23T08:05:59.0000000+00:00</time></trkpt><trkpt lat="30.61035729" lon="34.77698517"><ele>823.9</ele><time>2013-11-23T08:06:04.0000000+00:00</time></trkpt><trkpt lat="30.61035729" lon="34.77698517"><ele>823.9</ele><time>2013-11-23T08:06:09.0000000+00:00</time></trkpt><trkpt lat="30.61035919" lon="34.77698517"><ele>823.9</ele><time>2013-11-23T08:06:14.0000000+00:00</time></trkpt><trkpt lat="30.61035919" lon="34.77698517"><ele>823.9</ele><time>2013-11-23T08:06:19.0000000+00:00</time></trkpt><trkpt lat="30.61035919" lon="34.77698517"><ele>823.9</ele><time>2013-11-23T08:06:24.0000000+00:00</time></trkpt><trkpt lat="30.61035919" lon="34.77698517"><ele>823.9</ele><time>2013-11-23T08:06:29.0000000+00:00</time></trkpt><trkpt lat="30.61035919" lon="34.77698517"><ele>823.9</ele><time>2013-11-23T08:06:34.0000000+00:00</time></trkpt><trkpt lat="30.61035919" lon="34.77698517"><ele>823.9</ele><time>2013-11-23T08:06:39.0000000+00:00</time></trkpt><trkpt lat="30.61035919" lon="34.77698517"><ele>823.9</ele><time>2013-11-23T08:06:44.0000000+00:00</time></trkpt><trkpt lat="30.61035919" lon="34.77698517"><ele>823.9</ele><time>2013-11-23T08:06:49.0000000+00:00</time></trkpt><trkpt lat="30.61035919" lon="34.77698517"><ele>824.0</ele><time>2013-11-23T08:06:54.0000000+00:00</time></trkpt><trkpt lat="30.61035919" lon="34.77698517"><ele>824.0</ele><time>2013-11-23T08:06:59.0000000+00:00</time></trkpt><trkpt lat="30.61035919" lon="34.77698517"><ele>824.0</ele><time>2013-11-23T08:07:04.0000000+00:00</time></trkpt><trkpt lat="30.61035919" lon="34.77698517"><ele>824.0</ele><time>2013-11-23T08:07:09.0000000+00:00</time></trkpt><trkpt lat="30.61035919" lon="34.77698517"><ele>824.0</ele><time>2013-11-23T08:07:14.0000000+00:00</time></trkpt><trkpt lat="30.61035919" lon="34.77698517"><ele>824.0</ele><time>2013-11-23T08:07:19.0000000+00:00</time></trkpt><trkpt lat="30.61035919" lon="34.77698517"><ele>824.0</ele><time>2013-11-23T08:07:24.0000000+00:00</time></trkpt><trkpt lat="30.61035919" lon="34.77698517"><ele>824.0</ele><time>2013-11-23T08:07:29.0000000+00:00</time></trkpt><trkpt lat="30.61035347" lon="34.7769928"><ele>824.1</ele><time>2013-11-23T08:07:34.0000000+00:00</time></trkpt><trkpt lat="30.61035729" lon="34.77700806"><ele>824.5</ele><time>2013-11-23T08:07:39.0000000+00:00</time></trkpt><trkpt lat="30.61035919" lon="34.77701187"><ele>824.5</ele><time>2013-11-23T08:07:44.0000000+00:00</time></trkpt><trkpt lat="30.61035729" lon="34.77708435"><ele>824.6</ele><time>2013-11-23T08:07:49.0000000+00:00</time></trkpt><trkpt lat="30.61034584" lon="34.77719498"><ele>824.3</ele><time>2013-11-23T08:07:54.0000000+00:00</time></trkpt><trkpt lat="30.61024666" lon="34.77732468"><ele>825.0</ele><time>2013-11-23T08:07:59.0000000+00:00</time></trkpt><trkpt lat="30.61018181" lon="34.77742386"><ele>825.7</ele><time>2013-11-23T08:08:04.0000000+00:00</time></trkpt><trkpt lat="30.61009598" lon="34.777565"><ele>826.3</ele><time>2013-11-23T08:08:09.0000000+00:00</time></trkpt><trkpt lat="30.61001778" lon="34.77764893"><ele>826.4</ele><time>2013-11-23T08:08:14.0000000+00:00</time></trkpt><trkpt lat="30.6099968" lon="34.77765656"><ele>826.9</ele><time>2013-11-23T08:08:19.0000000+00:00</time></trkpt><trkpt lat="30.60999107" lon="34.777668"><ele>827.0</ele><time>2013-11-23T08:08:24.0000000+00:00</time></trkpt><trkpt lat="30.60997391" lon="34.77763748"><ele>827.7</ele><time>2013-11-23T08:08:29.0000000+00:00</time></trkpt><trkpt lat="30.60989952" lon="34.77765274"><ele>828.3</ele><time>2013-11-23T08:08:34.0000000+00:00</time></trkpt><trkpt lat="30.60976028" lon="34.77761078"><ele>827.9</ele><time>2013-11-23T08:08:39.0000000+00:00</time></trkpt><trkpt lat="30.60958481" lon="34.77752686"><ele>827.5</ele><time>2013-11-23T08:08:44.0000000+00:00</time></trkpt><trkpt lat="30.60945129" lon="34.77746582"><ele>827.1</ele><time>2013-11-23T08:08:49.0000000+00:00</time></trkpt><trkpt lat="30.60935402" lon="34.7774086"><ele>827.7</ele><time>2013-11-23T08:08:54.0000000+00:00</time></trkpt><trkpt lat="30.60920143" lon="34.77734757"><ele>827.1</ele><time>2013-11-23T08:08:59.0000000+00:00</time></trkpt><trkpt lat="30.6090107" lon="34.77727509"><ele>827.0</ele><time>2013-11-23T08:09:04.0000000+00:00</time></trkpt><trkpt lat="30.60879326" lon="34.77719116"><ele>826.6</ele><time>2013-11-23T08:09:09.0000000+00:00</time></trkpt><trkpt lat="30.6085701" lon="34.7771492"><ele>826.3</ele><time>2013-11-23T08:09:14.0000000+00:00</time></trkpt><trkpt lat="30.60840035" lon="34.77719116"><ele>826.8</ele><time>2013-11-23T08:09:19.0000000+00:00</time></trkpt><trkpt lat="30.60826874" lon="34.77721405"><ele>826.9</ele><time>2013-11-23T08:09:24.0000000+00:00</time></trkpt><trkpt lat="30.60811043" lon="34.77722549"><ele>827.2</ele><time>2013-11-23T08:09:29.0000000+00:00</time></trkpt><trkpt lat="30.60800552" lon="34.77727509"><ele>828.1</ele><time>2013-11-23T08:09:34.0000000+00:00</time></trkpt><trkpt lat="30.60785675" lon="34.77736664"><ele>828.5</ele><time>2013-11-23T08:09:39.0000000+00:00</time></trkpt><trkpt lat="30.60772896" lon="34.77747726"><ele>829.4</ele><time>2013-11-23T08:09:44.0000000+00:00</time></trkpt><trkpt lat="30.60764313" lon="34.77760315"><ele>832.7</ele><time>2013-11-23T08:09:49.0000000+00:00</time></trkpt><trkpt lat="30.60753632" lon="34.77774048"><ele>836.7</ele><time>2013-11-23T08:09:54.0000000+00:00</time></trkpt><trkpt lat="30.60739708" lon="34.77785111"><ele>839.3</ele><time>2013-11-23T08:09:59.0000000+00:00</time></trkpt><trkpt lat="30.6072979" lon="34.77799225"><ele>839.5</ele><time>2013-11-23T08:10:04.0000000+00:00</time></trkpt><trkpt lat="30.6072197" lon="34.77815247"><ele>840.6</ele><time>2013-11-23T08:10:09.0000000+00:00</time></trkpt><trkpt lat="30.60720635" lon="34.77827072"><ele>840.9</ele><time>2013-11-23T08:10:14.0000000+00:00</time></trkpt><trkpt lat="30.60718727" lon="34.77845383"><ele>840.8</ele><time>2013-11-23T08:10:19.0000000+00:00</time></trkpt><trkpt lat="30.60715675" lon="34.77866364"><ele>841.3</ele><time>2013-11-23T08:10:24.0000000+00:00</time></trkpt><trkpt lat="30.60713387" lon="34.77888107"><ele>841.5</ele><time>2013-11-23T08:10:29.0000000+00:00</time></trkpt><trkpt lat="30.60708046" lon="34.77909851"><ele>841.7</ele><time>2013-11-23T08:10:34.0000000+00:00</time></trkpt><trkpt lat="30.60700989" lon="34.77931595"><ele>841.5</ele><time>2013-11-23T08:10:39.0000000+00:00</time></trkpt><trkpt lat="30.60690308" lon="34.77952194"><ele>842.2</ele><time>2013-11-23T08:10:44.0000000+00:00</time></trkpt><trkpt lat="30.60681725" lon="34.77968979"><ele>843.2</ele><time>2013-11-23T08:10:49.0000000+00:00</time></trkpt><trkpt lat="30.60673332" lon="34.77988052"><ele>844.0</ele><time>2013-11-23T08:10:54.0000000+00:00</time></trkpt><trkpt lat="30.60665512" lon="34.78005981"><ele>844.7</ele><time>2013-11-23T08:10:59.0000000+00:00</time></trkpt><trkpt lat="30.60660172" lon="34.78023529"><ele>845.1</ele><time>2013-11-23T08:11:04.0000000+00:00</time></trkpt><trkpt lat="30.60658073" lon="34.78044128"><ele>845.7</ele><time>2013-11-23T08:11:09.0000000+00:00</time></trkpt><trkpt lat="30.60658264" lon="34.78063965"><ele>846.3</ele><time>2013-11-23T08:11:14.0000000+00:00</time></trkpt><trkpt lat="30.60659409" lon="34.78077698"><ele>847.1</ele><time>2013-11-23T08:11:19.0000000+00:00</time></trkpt><trkpt lat="30.60659027" lon="34.7808609"><ele>847.5</ele><time>2013-11-23T08:11:24.0000000+00:00</time></trkpt><trkpt lat="30.60658646" lon="34.78094482"><ele>847.8</ele><time>2013-11-23T08:11:29.0000000+00:00</time></trkpt><trkpt lat="30.60658073" lon="34.78102875"><ele>848.5</ele><time>2013-11-23T08:11:34.0000000+00:00</time></trkpt><trkpt lat="30.6065712" lon="34.78113556"><ele>848.7</ele><time>2013-11-23T08:11:39.0000000+00:00</time></trkpt><trkpt lat="30.60655022" lon="34.78125"><ele>848.8</ele><time>2013-11-23T08:11:44.0000000+00:00</time></trkpt><trkpt lat="30.60652924" lon="34.78136063"><ele>849.5</ele><time>2013-11-23T08:11:49.0000000+00:00</time></trkpt><trkpt lat="30.60649681" lon="34.78148651"><ele>849.7</ele><time>2013-11-23T08:11:54.0000000+00:00</time></trkpt><trkpt lat="30.60646057" lon="34.78157806"><ele>850.5</ele><time>2013-11-23T08:11:59.0000000+00:00</time></trkpt><trkpt lat="30.60642624" lon="34.78167725"><ele>851.2</ele><time>2013-11-23T08:12:04.0000000+00:00</time></trkpt><trkpt lat="30.60639572" lon="34.78177643"><ele>852.0</ele><time>2013-11-23T08:12:09.0000000+00:00</time></trkpt><trkpt lat="30.60634804" lon="34.7818985"><ele>852.7</ele><time>2013-11-23T08:12:14.0000000+00:00</time></trkpt><trkpt lat="30.60629654" lon="34.78201294"><ele>853.2</ele><time>2013-11-23T08:12:19.0000000+00:00</time></trkpt><trkpt lat="30.60622788" lon="34.78211975"><ele>853.7</ele><time>2013-11-23T08:12:24.0000000+00:00</time></trkpt><trkpt lat="30.60614777" lon="34.78221893"><ele>854.3</ele><time>2013-11-23T08:12:29.0000000+00:00</time></trkpt><trkpt lat="30.6060524" lon="34.78231049"><ele>854.8</ele><time>2013-11-23T08:12:34.0000000+00:00</time></trkpt><trkpt lat="30.6059494" lon="34.78243637"><ele>855.5</ele><time>2013-11-23T08:12:39.0000000+00:00</time></trkpt><trkpt lat="30.60583687" lon="34.782547"><ele>856.6</ele><time>2013-11-23T08:12:44.0000000+00:00</time></trkpt><trkpt lat="30.60573196" lon="34.78267288"><ele>857.6</ele><time>2013-11-23T08:12:49.0000000+00:00</time></trkpt><trkpt lat="30.60562134" lon="34.78279495"><ele>858.9</ele><time>2013-11-23T08:12:54.0000000+00:00</time></trkpt><trkpt lat="30.60547638" lon="34.78290939"><ele>859.5</ele><time>2013-11-23T08:12:59.0000000+00:00</time></trkpt><trkpt lat="30.60530281" lon="34.78298569"><ele>858.1</ele><time>2013-11-23T08:13:04.0000000+00:00</time></trkpt><trkpt lat="30.60506439" lon="34.78302002"><ele>856.0</ele><time>2013-11-23T08:13:09.0000000+00:00</time></trkpt><trkpt lat="30.6047821" lon="34.78299713"><ele>855.0</ele><time>2013-11-23T08:13:14.0000000+00:00</time></trkpt><trkpt lat="30.60452652" lon="34.78291702"><ele>853.4</ele><time>2013-11-23T08:13:19.0000000+00:00</time></trkpt><trkpt lat="30.6042099" lon="34.78280258"><ele>850.8</ele><time>2013-11-23T08:13:24.0000000+00:00</time></trkpt><trkpt lat="30.60387039" lon="34.78276062"><ele>850.0</ele><time>2013-11-23T08:13:29.0000000+00:00</time></trkpt><trkpt lat="30.60359764" lon="34.78282166"><ele>850.2</ele><time>2013-11-23T08:13:34.0000000+00:00</time></trkpt><trkpt lat="30.60338974" lon="34.78277206"><ele>850.7</ele><time>2013-11-23T08:13:39.0000000+00:00</time></trkpt><trkpt lat="30.60319901" lon="34.78268433"><ele>851.5</ele><time>2013-11-23T08:13:44.0000000+00:00</time></trkpt><trkpt lat="30.6030159" lon="34.78254318"><ele>852.1</ele><time>2013-11-23T08:13:49.0000000+00:00</time></trkpt><trkpt lat="30.60287285" lon="34.78231812"><ele>852.8</ele><time>2013-11-23T08:13:54.0000000+00:00</time></trkpt><trkpt lat="30.60278702" lon="34.78210068"><ele>852.8</ele><time>2013-11-23T08:13:59.0000000+00:00</time></trkpt><trkpt lat="30.60271835" lon="34.78186798"><ele>852.5</ele><time>2013-11-23T08:14:04.0000000+00:00</time></trkpt><trkpt lat="30.60264969" lon="34.78160858"><ele>852.7</ele><time>2013-11-23T08:14:09.0000000+00:00</time></trkpt><trkpt lat="30.6025734" lon="34.78134537"><ele>853.2</ele><time>2013-11-23T08:14:14.0000000+00:00</time></trkpt><trkpt lat="30.60248375" lon="34.78110504"><ele>853.5</ele><time>2013-11-23T08:14:19.0000000+00:00</time></trkpt><trkpt lat="30.60236359" lon="34.78091812"><ele>854.2</ele><time>2013-11-23T08:14:24.0000000+00:00</time></trkpt><trkpt lat="30.60222817" lon="34.78077698"><ele>854.3</ele><time>2013-11-23T08:14:29.0000000+00:00</time></trkpt><trkpt lat="30.60206986" lon="34.78065491"><ele>854.7</ele><time>2013-11-23T08:14:34.0000000+00:00</time></trkpt><trkpt lat="30.60190392" lon="34.78052139"><ele>855.3</ele><time>2013-11-23T08:14:39.0000000+00:00</time></trkpt><trkpt lat="30.60178375" lon="34.78044128"><ele>856.8</ele><time>2013-11-23T08:14:44.0000000+00:00</time></trkpt><trkpt lat="30.60165978" lon="34.78034592"><ele>856.8</ele><time>2013-11-23T08:14:49.0000000+00:00</time></trkpt><trkpt lat="30.60153389" lon="34.78024292"><ele>858.0</ele><time>2013-11-23T08:14:54.0000000+00:00</time></trkpt><trkpt lat="30.60142136" lon="34.78014374"><ele>858.7</ele><time>2013-11-23T08:14:59.0000000+00:00</time></trkpt><trkpt lat="30.60130119" lon="34.78003693"><ele>859.2</ele><time>2013-11-23T08:15:04.0000000+00:00</time></trkpt><trkpt lat="30.60118866" lon="34.77991104"><ele>859.9</ele><time>2013-11-23T08:15:09.0000000+00:00</time></trkpt><trkpt lat="30.60108757" lon="34.77977753"><ele>860.6</ele><time>2013-11-23T08:15:14.0000000+00:00</time></trkpt><trkpt lat="30.60098648" lon="34.77961731"><ele>861.5</ele><time>2013-11-23T08:15:19.0000000+00:00</time></trkpt><trkpt lat="30.60089684" lon="34.77942658"><ele>861.6</ele><time>2013-11-23T08:15:24.0000000+00:00</time></trkpt><trkpt lat="30.60080147" lon="34.77923203"><ele>861.6</ele><time>2013-11-23T08:15:29.0000000+00:00</time></trkpt><trkpt lat="30.60070801" lon="34.77902603"><ele>862.4</ele><time>2013-11-23T08:15:34.0000000+00:00</time></trkpt><trkpt lat="30.60064697" lon="34.77885437"><ele>863.1</ele><time>2013-11-23T08:15:39.0000000+00:00</time></trkpt><trkpt lat="30.60059166" lon="34.77861404"><ele>863.6</ele><time>2013-11-23T08:15:44.0000000+00:00</time></trkpt><trkpt lat="30.60062218" lon="34.77834702"><ele>863.5</ele><time>2013-11-23T08:15:49.0000000+00:00</time></trkpt><trkpt lat="30.60074043" lon="34.77806473"><ele>862.5</ele><time>2013-11-23T08:15:54.0000000+00:00</time></trkpt><trkpt lat="30.6009655" lon="34.77773285"><ele>860.0</ele><time>2013-11-23T08:15:59.0000000+00:00</time></trkpt><trkpt lat="30.60126305" lon="34.77732468"><ele>856.6</ele><time>2013-11-23T08:16:04.0000000+00:00</time></trkpt><trkpt lat="30.60159302" lon="34.7768631"><ele>853.6</ele><time>2013-11-23T08:16:09.0000000+00:00</time></trkpt><trkpt lat="30.60193443" lon="34.77634811"><ele>850.4</ele><time>2013-11-23T08:16:14.0000000+00:00</time></trkpt><trkpt lat="30.60226631" lon="34.77574539"><ele>846.5</ele><time>2013-11-23T08:16:19.0000000+00:00</time></trkpt><trkpt lat="30.60232735" lon="34.77500153"><ele>843.3</ele><time>2013-11-23T08:16:24.0000000+00:00</time></trkpt><trkpt lat="30.60210228" lon="34.77447891"><ele>846.5</ele><time>2013-11-23T08:16:29.0000000+00:00</time></trkpt><trkpt lat="30.60186577" lon="34.77411652"><ele>848.2</ele><time>2013-11-23T08:16:34.0000000+00:00</time></trkpt><trkpt lat="30.60165596" lon="34.77380371"><ele>847.8</ele><time>2013-11-23T08:16:39.0000000+00:00</time></trkpt><trkpt lat="30.6014595" lon="34.77349854"><ele>847.2</ele><time>2013-11-23T08:16:44.0000000+00:00</time></trkpt><trkpt lat="30.60127258" lon="34.77319717"><ele>846.7</ele><time>2013-11-23T08:16:49.0000000+00:00</time></trkpt><trkpt lat="30.60110855" lon="34.77293778"><ele>847.2</ele><time>2013-11-23T08:16:54.0000000+00:00</time></trkpt><trkpt lat="30.60096741" lon="34.77272034"><ele>847.5</ele><time>2013-11-23T08:16:59.0000000+00:00</time></trkpt><trkpt lat="30.60078239" lon="34.77252197"><ele>847.7</ele><time>2013-11-23T08:17:04.0000000+00:00</time></trkpt><trkpt lat="30.60057068" lon="34.7723999"><ele>848.7</ele><time>2013-11-23T08:17:09.0000000+00:00</time></trkpt><trkpt lat="30.60038757" lon="34.77233505"><ele>849.0</ele><time>2013-11-23T08:17:14.0000000+00:00</time></trkpt><trkpt lat="30.60020638" lon="34.77227783"><ele>849.5</ele><time>2013-11-23T08:17:19.0000000+00:00</time></trkpt><trkpt lat="30.60001564" lon="34.77222824"><ele>849.6</ele><time>2013-11-23T08:17:24.0000000+00:00</time></trkpt><trkpt lat="30.59988022" lon="34.77218628"><ele>849.9</ele><time>2013-11-23T08:17:29.0000000+00:00</time></trkpt><trkpt lat="30.59973145" lon="34.77214432"><ele>850.4</ele><time>2013-11-23T08:17:34.0000000+00:00</time></trkpt><trkpt lat="30.59962654" lon="34.7721138"><ele>850.8</ele><time>2013-11-23T08:17:39.0000000+00:00</time></trkpt><trkpt lat="30.5995636" lon="34.7720871"><ele>851.4</ele><time>2013-11-23T08:17:44.0000000+00:00</time></trkpt><trkpt lat="30.59947586" lon="34.77206039"><ele>851.6</ele><time>2013-11-23T08:17:49.0000000+00:00</time></trkpt><trkpt lat="30.59931946" lon="34.7720108"><ele>852.0</ele><time>2013-11-23T08:17:54.0000000+00:00</time></trkpt><trkpt lat="30.59914589" lon="34.7719574"><ele>852.5</ele><time>2013-11-23T08:17:59.0000000+00:00</time></trkpt><trkpt lat="30.59897614" lon="34.77189636"><ele>853.0</ele><time>2013-11-23T08:18:04.0000000+00:00</time></trkpt><trkpt lat="30.5988121" lon="34.77180481"><ele>853.5</ele><time>2013-11-23T08:18:09.0000000+00:00</time></trkpt><trkpt lat="30.59865761" lon="34.77169037"><ele>853.9</ele><time>2013-11-23T08:18:14.0000000+00:00</time></trkpt><trkpt lat="30.59854507" lon="34.77152634"><ele>854.6</ele><time>2013-11-23T08:18:19.0000000+00:00</time></trkpt><trkpt lat="30.59847069" lon="34.77132034"><ele>854.6</ele><time>2013-11-23T08:18:24.0000000+00:00</time></trkpt><trkpt lat="30.59840965" lon="34.77106857"><ele>854.5</ele><time>2013-11-23T08:18:29.0000000+00:00</time></trkpt><trkpt lat="30.59835434" lon="34.77082443"><ele>855.2</ele><time>2013-11-23T08:18:34.0000000+00:00</time></trkpt><trkpt lat="30.59828568" lon="34.77058411"><ele>855.5</ele><time>2013-11-23T08:18:39.0000000+00:00</time></trkpt><trkpt lat="30.59821701" lon="34.77031326"><ele>855.5</ele><time>2013-11-23T08:18:44.0000000+00:00</time></trkpt><trkpt lat="30.59815216" lon="34.77003098"><ele>855.7</ele><time>2013-11-23T08:18:49.0000000+00:00</time></trkpt><trkpt lat="30.59811401" lon="34.76974487"><ele>855.3</ele><time>2013-11-23T08:18:54.0000000+00:00</time></trkpt><trkpt lat="30.5981369" lon="34.76940918"><ele>854.2</ele><time>2013-11-23T08:18:59.0000000+00:00</time></trkpt><trkpt lat="30.59820747" lon="34.76901245"><ele>852.0</ele><time>2013-11-23T08:19:04.0000000+00:00</time></trkpt><trkpt lat="30.59829521" lon="34.76852417"><ele>848.2</ele><time>2013-11-23T08:19:09.0000000+00:00</time></trkpt><trkpt lat="30.59839058" lon="34.76793671"><ele>843.2</ele><time>2013-11-23T08:19:14.0000000+00:00</time></trkpt><trkpt lat="30.59848785" lon="34.76729584"><ele>841.7</ele><time>2013-11-23T08:19:19.0000000+00:00</time></trkpt><trkpt lat="30.59863091" lon="34.76672363"><ele>840.6</ele><time>2013-11-23T08:19:24.0000000+00:00</time></trkpt><trkpt lat="30.59875488" lon="34.76620102"><ele>839.9</ele><time>2013-11-23T08:19:29.0000000+00:00</time></trkpt><trkpt lat="30.59875488" lon="34.76578522"><ele>838.5</ele><time>2013-11-23T08:19:34.0000000+00:00</time></trkpt><trkpt lat="30.59863472" lon="34.7655983"><ele>837.4</ele><time>2013-11-23T08:19:39.0000000+00:00</time></trkpt><trkpt lat="30.59863472" lon="34.7655983"><ele>837.0</ele><time>2013-11-23T08:19:44.0000000+00:00</time></trkpt><trkpt lat="30.59863281" lon="34.7655983"><ele>836.9</ele><time>2013-11-23T08:19:49.0000000+00:00</time></trkpt><trkpt lat="30.59863472" lon="34.7655983"><ele>836.9</ele><time>2013-11-23T08:19:54.0000000+00:00</time></trkpt><trkpt lat="30.59863472" lon="34.7655983"><ele>836.9</ele><time>2013-11-23T08:19:59.0000000+00:00</time></trkpt><trkpt lat="30.59863281" lon="34.7655983"><ele>836.9</ele><time>2013-11-23T08:20:04.0000000+00:00</time></trkpt><trkpt lat="30.59863281" lon="34.76557922"><ele>836.9</ele><time>2013-11-23T08:20:09.0000000+00:00</time></trkpt><trkpt lat="30.5986824" lon="34.76567078"><ele>839.6</ele><time>2013-11-23T08:20:14.0000000+00:00</time></trkpt><trkpt lat="30.59874535" lon="34.76583862"><ele>841.2</ele><time>2013-11-23T08:20:19.0000000+00:00</time></trkpt><trkpt lat="30.59874344" lon="34.76601791"><ele>841.3</ele><time>2013-11-23T08:20:24.0000000+00:00</time></trkpt><trkpt lat="30.59872437" lon="34.76615524"><ele>840.4</ele><time>2013-11-23T08:20:29.0000000+00:00</time></trkpt><trkpt lat="30.59866905" lon="34.76629257"><ele>841.2</ele><time>2013-11-23T08:20:34.0000000+00:00</time></trkpt><trkpt lat="30.5986023" lon="34.7665062"><ele>840.2</ele><time>2013-11-23T08:20:39.0000000+00:00</time></trkpt><trkpt lat="30.59853363" lon="34.76673889"><ele>839.3</ele><time>2013-11-23T08:20:44.0000000+00:00</time></trkpt><trkpt lat="30.59846115" lon="34.76696777"><ele>838.7</ele><time>2013-11-23T08:20:49.0000000+00:00</time></trkpt><trkpt lat="30.59841156" lon="34.76714325"><ele>838.7</ele><time>2013-11-23T08:20:54.0000000+00:00</time></trkpt><trkpt lat="30.59837914" lon="34.76724243"><ele>839.3</ele><time>2013-11-23T08:20:59.0000000+00:00</time></trkpt><trkpt lat="30.5983429" lon="34.76731491"><ele>837.7</ele><time>2013-11-23T08:21:04.0000000+00:00</time></trkpt><trkpt lat="30.5983181" lon="34.76742172"><ele>837.0</ele><time>2013-11-23T08:21:09.0000000+00:00</time></trkpt><trkpt lat="30.59828758" lon="34.7675705"><ele>836.9</ele><time>2013-11-23T08:21:14.0000000+00:00</time></trkpt><trkpt lat="30.59826469" lon="34.76771927"><ele>837.2</ele><time>2013-11-23T08:21:19.0000000+00:00</time></trkpt><trkpt lat="30.59823799" lon="34.76776123"><ele>837.1</ele><time>2013-11-23T08:21:24.0000000+00:00</time></trkpt><trkpt lat="30.59822273" lon="34.7678299"><ele>837.1</ele><time>2013-11-23T08:21:29.0000000+00:00</time></trkpt><trkpt lat="30.59822846" lon="34.76791763"><ele>837.3</ele><time>2013-11-23T08:21:34.0000000+00:00</time></trkpt><trkpt lat="30.59822273" lon="34.76799011"><ele>838.9</ele><time>2013-11-23T08:21:39.0000000+00:00</time></trkpt><trkpt lat="30.59823418" lon="34.76805115"><ele>839.8</ele><time>2013-11-23T08:21:44.0000000+00:00</time></trkpt><trkpt lat="30.59832192" lon="34.76802445"><ele>841.8</ele><time>2013-11-23T08:21:49.0000000+00:00</time></trkpt><trkpt lat="30.59844589" lon="34.76791"><ele>841.7</ele><time>2013-11-23T08:21:54.0000000+00:00</time></trkpt><trkpt lat="30.59860611" lon="34.76773834"><ele>842.6</ele><time>2013-11-23T08:21:59.0000000+00:00</time></trkpt><trkpt lat="30.5987339" lon="34.76750946"><ele>843.2</ele><time>2013-11-23T08:22:04.0000000+00:00</time></trkpt><trkpt lat="30.59874344" lon="34.7672081"><ele>842.1</ele><time>2013-11-23T08:22:09.0000000+00:00</time></trkpt><trkpt lat="30.59881592" lon="34.76685715"><ele>840.0</ele><time>2013-11-23T08:22:14.0000000+00:00</time></trkpt><trkpt lat="30.59899712" lon="34.76648712"><ele>838.7</ele><time>2013-11-23T08:22:19.0000000+00:00</time></trkpt><trkpt lat="30.59921074" lon="34.76615906"><ele>837.9</ele><time>2013-11-23T08:22:24.0000000+00:00</time></trkpt><trkpt lat="30.59947395" lon="34.76588821"><ele>839.0</ele><time>2013-11-23T08:22:29.0000000+00:00</time></trkpt><trkpt lat="30.5996933" lon="34.76556015"><ele>839.0</ele><time>2013-11-23T08:22:34.0000000+00:00</time></trkpt><trkpt lat="30.59983254" lon="34.76512146"><ele>838.4</ele><time>2013-11-23T08:22:39.0000000+00:00</time></trkpt><trkpt lat="30.60010719" lon="34.76486206"><ele>842.4</ele><time>2013-11-23T08:22:44.0000000+00:00</time></trkpt><trkpt lat="30.60033989" lon="34.76461792"><ele>844.2</ele><time>2013-11-23T08:22:49.0000000+00:00</time></trkpt><trkpt lat="30.60048485" lon="34.76436615"><ele>844.9</ele><time>2013-11-23T08:22:54.0000000+00:00</time></trkpt><trkpt lat="30.60066414" lon="34.76407242"><ele>844.1</ele><time>2013-11-23T08:22:59.0000000+00:00</time></trkpt><trkpt lat="30.60081101" lon="34.76377487"><ele>843.0</ele><time>2013-11-23T08:23:04.0000000+00:00</time></trkpt><trkpt lat="30.60090637" lon="34.76346588"><ele>842.2</ele><time>2013-11-23T08:23:09.0000000+00:00</time></trkpt><trkpt lat="30.60097504" lon="34.76314545"><ele>841.7</ele><time>2013-11-23T08:23:14.0000000+00:00</time></trkpt><trkpt lat="30.60105705" lon="34.76281357"><ele>839.9</ele><time>2013-11-23T08:23:19.0000000+00:00</time></trkpt><trkpt lat="30.60112381" lon="34.76250076"><ele>839.2</ele><time>2013-11-23T08:23:24.0000000+00:00</time></trkpt><trkpt lat="30.60118675" lon="34.76216507"><ele>838.5</ele><time>2013-11-23T08:23:29.0000000+00:00</time></trkpt><trkpt lat="30.60125732" lon="34.76184082"><ele>838.0</ele><time>2013-11-23T08:23:34.0000000+00:00</time></trkpt><trkpt lat="30.60131645" lon="34.76152039"><ele>837.3</ele><time>2013-11-23T08:23:39.0000000+00:00</time></trkpt><trkpt lat="30.6014061" lon="34.7612114"><ele>836.7</ele><time>2013-11-23T08:23:44.0000000+00:00</time></trkpt><trkpt lat="30.60155487" lon="34.76100159"><ele>838.4</ele><time>2013-11-23T08:23:49.0000000+00:00</time></trkpt><trkpt lat="30.6016655" lon="34.76073456"><ele>840.7</ele><time>2013-11-23T08:23:54.0000000+00:00</time></trkpt><trkpt lat="30.60177994" lon="34.76041031"><ele>840.4</ele><time>2013-11-23T08:23:59.0000000+00:00</time></trkpt><trkpt lat="30.60188675" lon="34.76002121"><ele>838.1</ele><time>2013-11-23T08:24:04.0000000+00:00</time></trkpt><trkpt lat="30.60204125" lon="34.759758"><ele>839.0</ele><time>2013-11-23T08:24:09.0000000+00:00</time></trkpt><trkpt lat="30.60223961" lon="34.75954437"><ele>839.0</ele><time>2013-11-23T08:24:14.0000000+00:00</time></trkpt><trkpt lat="30.60238266" lon="34.7592392"><ele>839.3</ele><time>2013-11-23T08:24:19.0000000+00:00</time></trkpt><trkpt lat="30.60250282" lon="34.75894165"><ele>840.7</ele><time>2013-11-23T08:24:24.0000000+00:00</time></trkpt><trkpt lat="30.60257149" lon="34.75862885"><ele>840.3</ele><time>2013-11-23T08:24:29.0000000+00:00</time></trkpt><trkpt lat="30.60259056" lon="34.75831223"><ele>839.7</ele><time>2013-11-23T08:24:34.0000000+00:00</time></trkpt><trkpt lat="30.60258675" lon="34.75797653"><ele>837.2</ele><time>2013-11-23T08:24:39.0000000+00:00</time></trkpt><trkpt lat="30.60253525" lon="34.75767899"><ele>834.2</ele><time>2013-11-23T08:24:44.0000000+00:00</time></trkpt><trkpt lat="30.60245705" lon="34.75737"><ele>831.6</ele><time>2013-11-23T08:24:49.0000000+00:00</time></trkpt><trkpt lat="30.60239029" lon="34.75704956"><ele>828.8</ele><time>2013-11-23T08:24:54.0000000+00:00</time></trkpt><trkpt lat="30.60232163" lon="34.75672913"><ele>828.3</ele><time>2013-11-23T08:24:59.0000000+00:00</time></trkpt><trkpt lat="30.60229492" lon="34.75642777"><ele>828.1</ele><time>2013-11-23T08:25:04.0000000+00:00</time></trkpt><trkpt lat="30.60234451" lon="34.75614929"><ele>829.1</ele><time>2013-11-23T08:25:09.0000000+00:00</time></trkpt><trkpt lat="30.60238838" lon="34.75586319"><ele>829.3</ele><time>2013-11-23T08:25:14.0000000+00:00</time></trkpt><trkpt lat="30.60244751" lon="34.75553894"><ele>828.8</ele><time>2013-11-23T08:25:19.0000000+00:00</time></trkpt><trkpt lat="30.60263443" lon="34.75527954"><ele>827.9</ele><time>2013-11-23T08:25:24.0000000+00:00</time></trkpt><trkpt lat="30.60287857" lon="34.75513077"><ele>827.1</ele><time>2013-11-23T08:25:29.0000000+00:00</time></trkpt><trkpt lat="30.60309792" lon="34.75494766"><ele>827.2</ele><time>2013-11-23T08:25:34.0000000+00:00</time></trkpt><trkpt lat="30.60329628" lon="34.75466919"><ele>827.3</ele><time>2013-11-23T08:25:39.0000000+00:00</time></trkpt><trkpt lat="30.60344505" lon="34.75434876"><ele>825.4</ele><time>2013-11-23T08:25:44.0000000+00:00</time></trkpt><trkpt lat="30.60361481" lon="34.75406647"><ele>823.5</ele><time>2013-11-23T08:25:49.0000000+00:00</time></trkpt><trkpt lat="30.6038208" lon="34.75379562"><ele>824.2</ele><time>2013-11-23T08:25:54.0000000+00:00</time></trkpt><trkpt lat="30.60396767" lon="34.75349808"><ele>826.0</ele><time>2013-11-23T08:25:59.0000000+00:00</time></trkpt><trkpt lat="30.60407829" lon="34.75323105"><ele>827.4</ele><time>2013-11-23T08:26:04.0000000+00:00</time></trkpt><trkpt lat="30.60419846" lon="34.75298309"><ele>829.0</ele><time>2013-11-23T08:26:09.0000000+00:00</time></trkpt><trkpt lat="30.60433197" lon="34.75272369"><ele>830.0</ele><time>2013-11-23T08:26:14.0000000+00:00</time></trkpt><trkpt lat="30.60449028" lon="34.75246811"><ele>830.3</ele><time>2013-11-23T08:26:19.0000000+00:00</time></trkpt><trkpt lat="30.60466385" lon="34.75223541"><ele>829.7</ele><time>2013-11-23T08:26:24.0000000+00:00</time></trkpt><trkpt lat="30.60482597" lon="34.75193787"><ele>828.4</ele><time>2013-11-23T08:26:29.0000000+00:00</time></trkpt><trkpt lat="30.60495567" lon="34.7516098"><ele>828.3</ele><time>2013-11-23T08:26:34.0000000+00:00</time></trkpt><trkpt lat="30.60512543" lon="34.75131607"><ele>827.6</ele><time>2013-11-23T08:26:39.0000000+00:00</time></trkpt><trkpt lat="30.60534287" lon="34.75109863"><ele>827.1</ele><time>2013-11-23T08:26:44.0000000+00:00</time></trkpt><trkpt lat="30.60559845" lon="34.75094986"><ele>827.1</ele><time>2013-11-23T08:26:49.0000000+00:00</time></trkpt><trkpt lat="30.60585785" lon="34.75074768"><ele>826.5</ele><time>2013-11-23T08:26:54.0000000+00:00</time></trkpt><trkpt lat="30.60606957" lon="34.75050736"><ele>826.1</ele><time>2013-11-23T08:26:59.0000000+00:00</time></trkpt><trkpt lat="30.60625458" lon="34.75026703"><ele>824.0</ele><time>2013-11-23T08:27:04.0000000+00:00</time></trkpt><trkpt lat="30.60644531" lon="34.75009918"><ele>822.7</ele><time>2013-11-23T08:27:09.0000000+00:00</time></trkpt><trkpt lat="30.60665131" lon="34.74994278"><ele>820.9</ele><time>2013-11-23T08:27:14.0000000+00:00</time></trkpt><trkpt lat="30.60683632" lon="34.74979019"><ele>820.4</ele><time>2013-11-23T08:27:19.0000000+00:00</time></trkpt><trkpt lat="30.60700035" lon="34.74965668"><ele>819.8</ele><time>2013-11-23T08:27:24.0000000+00:00</time></trkpt><trkpt lat="30.60717201" lon="34.74950028"><ele>820.4</ele><time>2013-11-23T08:27:29.0000000+00:00</time></trkpt><trkpt lat="30.60737801" lon="34.74934769"><ele>821.1</ele><time>2013-11-23T08:27:34.0000000+00:00</time></trkpt><trkpt lat="30.60751915" lon="34.74913406"><ele>820.5</ele><time>2013-11-23T08:27:39.0000000+00:00</time></trkpt><trkpt lat="30.60770798" lon="34.74905777"><ele>821.6</ele><time>2013-11-23T08:27:44.0000000+00:00</time></trkpt><trkpt lat="30.60793495" lon="34.74907684"><ele>821.9</ele><time>2013-11-23T08:27:49.0000000+00:00</time></trkpt><trkpt lat="30.60818863" lon="34.74905777"><ele>822.3</ele><time>2013-11-23T08:27:54.0000000+00:00</time></trkpt><trkpt lat="30.60848618" lon="34.74903488"><ele>822.1</ele><time>2013-11-23T08:27:59.0000000+00:00</time></trkpt><trkpt lat="30.60877419" lon="34.74903107"><ele>822.2</ele><time>2013-11-23T08:28:04.0000000+00:00</time></trkpt><trkpt lat="30.60904694" lon="34.74897766"><ele>822.4</ele><time>2013-11-23T08:28:09.0000000+00:00</time></trkpt><trkpt lat="30.60930634" lon="34.74888229"><ele>822.6</ele><time>2013-11-23T08:28:14.0000000+00:00</time></trkpt><trkpt lat="30.60956574" lon="34.74878311"><ele>822.5</ele><time>2013-11-23T08:28:19.0000000+00:00</time></trkpt><trkpt lat="30.60981178" lon="34.74868774"><ele>822.4</ele><time>2013-11-23T08:28:24.0000000+00:00</time></trkpt><trkpt lat="30.61004639" lon="34.74859619"><ele>822.2</ele><time>2013-11-23T08:28:29.0000000+00:00</time></trkpt><trkpt lat="30.61021233" lon="34.74843216"><ele>822.1</ele><time>2013-11-23T08:28:34.0000000+00:00</time></trkpt><trkpt lat="30.61022186" lon="34.7481575"><ele>821.8</ele><time>2013-11-23T08:28:39.0000000+00:00</time></trkpt><trkpt lat="30.61017036" lon="34.74788284"><ele>820.5</ele><time>2013-11-23T08:28:44.0000000+00:00</time></trkpt><trkpt lat="30.61009026" lon="34.74761963"><ele>818.7</ele><time>2013-11-23T08:28:49.0000000+00:00</time></trkpt><trkpt lat="30.61000061" lon="34.74735642"><ele>818.1</ele><time>2013-11-23T08:28:54.0000000+00:00</time></trkpt><trkpt lat="30.60989571" lon="34.74711609"><ele>817.3</ele><time>2013-11-23T08:28:59.0000000+00:00</time></trkpt><trkpt lat="30.60980606" lon="34.74687958"><ele>815.3</ele><time>2013-11-23T08:29:04.0000000+00:00</time></trkpt><trkpt lat="30.60976028" lon="34.74661255"><ele>814.6</ele><time>2013-11-23T08:29:09.0000000+00:00</time></trkpt><trkpt lat="30.60972595" lon="34.74638367"><ele>813.6</ele><time>2013-11-23T08:29:14.0000000+00:00</time></trkpt><trkpt lat="30.60969925" lon="34.74623108"><ele>812.8</ele><time>2013-11-23T08:29:19.0000000+00:00</time></trkpt><trkpt lat="30.60964203" lon="34.74612045"><ele>811.7</ele><time>2013-11-23T08:29:24.0000000+00:00</time></trkpt><trkpt lat="30.60958862" lon="34.74606323"><ele>810.5</ele><time>2013-11-23T08:29:29.0000000+00:00</time></trkpt><trkpt lat="30.60952568" lon="34.74598694"><ele>809.9</ele><time>2013-11-23T08:29:34.0000000+00:00</time></trkpt><trkpt lat="30.60946846" lon="34.74597168"><ele>809.4</ele><time>2013-11-23T08:29:39.0000000+00:00</time></trkpt><trkpt lat="30.60937691" lon="34.74597549"><ele>809.4</ele><time>2013-11-23T08:29:44.0000000+00:00</time></trkpt><trkpt lat="30.60923576" lon="34.74595642"><ele>808.9</ele><time>2013-11-23T08:29:49.0000000+00:00</time></trkpt><trkpt lat="30.60912323" lon="34.74591065"><ele>808.5</ele><time>2013-11-23T08:29:54.0000000+00:00</time></trkpt><trkpt lat="30.60898781" lon="34.74585342"><ele>808.6</ele><time>2013-11-23T08:29:59.0000000+00:00</time></trkpt><trkpt lat="30.60884094" lon="34.74576569"><ele>809.2</ele><time>2013-11-23T08:30:04.0000000+00:00</time></trkpt><trkpt lat="30.60871887" lon="34.74567032"><ele>809.3</ele><time>2013-11-23T08:30:09.0000000+00:00</time></trkpt><trkpt lat="30.6085701" lon="34.74559403"><ele>808.3</ele><time>2013-11-23T08:30:14.0000000+00:00</time></trkpt><trkpt lat="30.60842133" lon="34.74552536"><ele>808.2</ele><time>2013-11-23T08:30:19.0000000+00:00</time></trkpt><trkpt lat="30.60827637" lon="34.74543381"><ele>808.5</ele><time>2013-11-23T08:30:24.0000000+00:00</time></trkpt><trkpt lat="30.60812759" lon="34.74536133"><ele>808.9</ele><time>2013-11-23T08:30:29.0000000+00:00</time></trkpt><trkpt lat="30.60799599" lon="34.74528503"><ele>808.8</ele><time>2013-11-23T08:30:34.0000000+00:00</time></trkpt><trkpt lat="30.60787201" lon="34.74518204"><ele>808.6</ele><time>2013-11-23T08:30:39.0000000+00:00</time></trkpt><trkpt lat="30.60772133" lon="34.74508286"><ele>808.5</ele><time>2013-11-23T08:30:44.0000000+00:00</time></trkpt><trkpt lat="30.60755348" lon="34.74495316"><ele>808.5</ele><time>2013-11-23T08:30:49.0000000+00:00</time></trkpt><trkpt lat="30.60739327" lon="34.74485016"><ele>808.5</ele><time>2013-11-23T08:30:54.0000000+00:00</time></trkpt><trkpt lat="30.60720635" lon="34.74472809"><ele>808.0</ele><time>2013-11-23T08:30:59.0000000+00:00</time></trkpt><trkpt lat="30.60703278" lon="34.74461365"><ele>808.1</ele><time>2013-11-23T08:31:04.0000000+00:00</time></trkpt><trkpt lat="30.60682869" lon="34.74454117"><ele>808.3</ele><time>2013-11-23T08:31:09.0000000+00:00</time></trkpt><trkpt lat="30.60663605" lon="34.74451065"><ele>808.5</ele><time>2013-11-23T08:31:14.0000000+00:00</time></trkpt><trkpt lat="30.60649872" lon="34.74450302"><ele>808.8</ele><time>2013-11-23T08:31:19.0000000+00:00</time></trkpt><trkpt lat="30.60635567" lon="34.74444962"><ele>809.3</ele><time>2013-11-23T08:31:24.0000000+00:00</time></trkpt><trkpt lat="30.60622215" lon="34.74440384"><ele>809.9</ele><time>2013-11-23T08:31:29.0000000+00:00</time></trkpt><trkpt lat="30.60605812" lon="34.74436188"><ele>810.3</ele><time>2013-11-23T08:31:34.0000000+00:00</time></trkpt><trkpt lat="30.60594559" lon="34.74431992"><ele>811.4</ele><time>2013-11-23T08:31:39.0000000+00:00</time></trkpt><trkpt lat="30.60584068" lon="34.74428558"><ele>812.3</ele><time>2013-11-23T08:31:44.0000000+00:00</time></trkpt><trkpt lat="30.60569763" lon="34.74422836"><ele>812.1</ele><time>2013-11-23T08:31:49.0000000+00:00</time></trkpt><trkpt lat="30.60553932" lon="34.7441597"><ele>812.0</ele><time>2013-11-23T08:31:54.0000000+00:00</time></trkpt><trkpt lat="30.60535622" lon="34.74411392"><ele>812.2</ele><time>2013-11-23T08:31:59.0000000+00:00</time></trkpt><trkpt lat="30.60518456" lon="34.74402618"><ele>812.2</ele><time>2013-11-23T08:32:04.0000000+00:00</time></trkpt><trkpt lat="30.60502052" lon="34.74394226"><ele>812.1</ele><time>2013-11-23T08:32:09.0000000+00:00</time></trkpt><trkpt lat="30.60486221" lon="34.74393845"><ele>811.9</ele><time>2013-11-23T08:32:14.0000000+00:00</time></trkpt><trkpt lat="30.60468864" lon="34.74390411"><ele>811.9</ele><time>2013-11-23T08:32:19.0000000+00:00</time></trkpt><trkpt lat="30.60455322" lon="34.74388886"><ele>812.2</ele><time>2013-11-23T08:32:24.0000000+00:00</time></trkpt><trkpt lat="30.60440445" lon="34.74378586"><ele>811.8</ele><time>2013-11-23T08:32:29.0000000+00:00</time></trkpt><trkpt lat="30.60429001" lon="34.74383164"><ele>812.5</ele><time>2013-11-23T08:32:34.0000000+00:00</time></trkpt><trkpt lat="30.60416412" lon="34.743927"><ele>812.6</ele><time>2013-11-23T08:32:39.0000000+00:00</time></trkpt><trkpt lat="30.60399246" lon="34.74394226"><ele>813.2</ele><time>2013-11-23T08:32:44.0000000+00:00</time></trkpt><trkpt lat="30.60381317" lon="34.74388886"><ele>812.8</ele><time>2013-11-23T08:32:49.0000000+00:00</time></trkpt><trkpt lat="30.60367775" lon="34.74373627"><ele>812.7</ele><time>2013-11-23T08:32:54.0000000+00:00</time></trkpt><trkpt lat="30.60356903" lon="34.74353409"><ele>813.0</ele><time>2013-11-23T08:32:59.0000000+00:00</time></trkpt><trkpt lat="30.60344505" lon="34.74337387"><ele>813.0</ele><time>2013-11-23T08:33:04.0000000+00:00</time></trkpt><trkpt lat="30.60331917" lon="34.74317169"><ele>813.2</ele><time>2013-11-23T08:33:09.0000000+00:00</time></trkpt><trkpt lat="30.60321045" lon="34.74299622"><ele>812.9</ele><time>2013-11-23T08:33:14.0000000+00:00</time></trkpt><trkpt lat="30.60309029" lon="34.74287415"><ele>813.5</ele><time>2013-11-23T08:33:19.0000000+00:00</time></trkpt><trkpt lat="30.60298729" lon="34.74277115"><ele>814.0</ele><time>2013-11-23T08:33:24.0000000+00:00</time></trkpt><trkpt lat="30.60287094" lon="34.74264526"><ele>814.2</ele><time>2013-11-23T08:33:29.0000000+00:00</time></trkpt><trkpt lat="30.60273743" lon="34.74253082"><ele>814.4</ele><time>2013-11-23T08:33:34.0000000+00:00</time></trkpt><trkpt lat="30.6025753" lon="34.74244309"><ele>814.9</ele><time>2013-11-23T08:33:39.0000000+00:00</time></trkpt><trkpt lat="30.60241318" lon="34.74237061"><ele>815.4</ele><time>2013-11-23T08:33:44.0000000+00:00</time></trkpt><trkpt lat="30.60226631" lon="34.7423172"><ele>815.0</ele><time>2013-11-23T08:33:49.0000000+00:00</time></trkpt><trkpt lat="30.60207176" lon="34.74229813"><ele>815.9</ele><time>2013-11-23T08:33:54.0000000+00:00</time></trkpt><trkpt lat="30.60189247" lon="34.74224472"><ele>816.5</ele><time>2013-11-23T08:33:59.0000000+00:00</time></trkpt><trkpt lat="30.60174751" lon="34.74216843"><ele>817.5</ele><time>2013-11-23T08:34:04.0000000+00:00</time></trkpt><trkpt lat="30.60159683" lon="34.74215698"><ele>817.2</ele><time>2013-11-23T08:34:09.0000000+00:00</time></trkpt><trkpt lat="30.60146523" lon="34.74217224"><ele>817.7</ele><time>2013-11-23T08:34:14.0000000+00:00</time></trkpt><trkpt lat="30.60135651" lon="34.74206543"><ele>817.2</ele><time>2013-11-23T08:34:19.0000000+00:00</time></trkpt><trkpt lat="30.60133743" lon="34.7418747"><ele>816.8</ele><time>2013-11-23T08:34:24.0000000+00:00</time></trkpt><trkpt lat="30.60129356" lon="34.74171066"><ele>816.2</ele><time>2013-11-23T08:34:29.0000000+00:00</time></trkpt><trkpt lat="30.6012497" lon="34.74154282"><ele>815.7</ele><time>2013-11-23T08:34:34.0000000+00:00</time></trkpt><trkpt lat="30.60117912" lon="34.74144745"><ele>815.9</ele><time>2013-11-23T08:34:39.0000000+00:00</time></trkpt><trkpt lat="30.60107613" lon="34.74133301"><ele>815.9</ele><time>2013-11-23T08:34:44.0000000+00:00</time></trkpt><trkpt lat="30.60094452" lon="34.74121094"><ele>816.1</ele><time>2013-11-23T08:34:49.0000000+00:00</time></trkpt><trkpt lat="30.60082817" lon="34.74108505"><ele>816.3</ele><time>2013-11-23T08:34:54.0000000+00:00</time></trkpt><trkpt lat="30.60074997" lon="34.74102402"><ele>816.4</ele><time>2013-11-23T08:34:59.0000000+00:00</time></trkpt><trkpt lat="30.60069084" lon="34.74098206"><ele>816.3</ele><time>2013-11-23T08:35:04.0000000+00:00</time></trkpt><trkpt lat="30.60059929" lon="34.74091339"><ele>815.8</ele><time>2013-11-23T08:35:09.0000000+00:00</time></trkpt><trkpt lat="30.60050201" lon="34.74078751"><ele>815.4</ele><time>2013-11-23T08:35:14.0000000+00:00</time></trkpt><trkpt lat="30.60040665" lon="34.74059677"><ele>814.7</ele><time>2013-11-23T08:35:19.0000000+00:00</time></trkpt><trkpt lat="30.60030174" lon="34.74044418"><ele>814.5</ele><time>2013-11-23T08:35:24.0000000+00:00</time></trkpt><trkpt lat="30.60015869" lon="34.74028397"><ele>814.3</ele><time>2013-11-23T08:35:29.0000000+00:00</time></trkpt><trkpt lat="30.60006523" lon="34.74016953"><ele>813.7</ele><time>2013-11-23T08:35:34.0000000+00:00</time></trkpt><trkpt lat="30.59994316" lon="34.7400589"><ele>814.1</ele><time>2013-11-23T08:35:39.0000000+00:00</time></trkpt><trkpt lat="30.59980965" lon="34.74002838"><ele>813.9</ele><time>2013-11-23T08:35:44.0000000+00:00</time></trkpt><trkpt lat="30.59967995" lon="34.73999023"><ele>813.6</ele><time>2013-11-23T08:35:49.0000000+00:00</time></trkpt><trkpt lat="30.59957504" lon="34.73984146"><ele>812.9</ele><time>2013-11-23T08:35:54.0000000+00:00</time></trkpt><trkpt lat="30.59947586" lon="34.73978424"><ele>813.7</ele><time>2013-11-23T08:35:59.0000000+00:00</time></trkpt><trkpt lat="30.59933472" lon="34.73976898"><ele>814.4</ele><time>2013-11-23T08:36:04.0000000+00:00</time></trkpt><trkpt lat="30.59921265" lon="34.73980713"><ele>814.2</ele><time>2013-11-23T08:36:09.0000000+00:00</time></trkpt><trkpt lat="30.59905434" lon="34.73981094"><ele>814.3</ele><time>2013-11-23T08:36:14.0000000+00:00</time></trkpt><trkpt lat="30.59889221" lon="34.73979187"><ele>815.3</ele><time>2013-11-23T08:36:19.0000000+00:00</time></trkpt><trkpt lat="30.59873581" lon="34.73972321"><ele>816.3</ele><time>2013-11-23T08:36:24.0000000+00:00</time></trkpt><trkpt lat="30.59862137" lon="34.73959351"><ele>816.5</ele><time>2013-11-23T08:36:29.0000000+00:00</time></trkpt><trkpt lat="30.59852982" lon="34.73942184"><ele>816.5</ele><time>2013-11-23T08:36:34.0000000+00:00</time></trkpt><trkpt lat="30.59840775" lon="34.73928833"><ele>817.2</ele><time>2013-11-23T08:36:39.0000000+00:00</time></trkpt><trkpt lat="30.59834862" lon="34.73920441"><ele>817.6</ele><time>2013-11-23T08:36:44.0000000+00:00</time></trkpt><trkpt lat="30.5982933" lon="34.73911285"><ele>817.6</ele><time>2013-11-23T08:36:49.0000000+00:00</time></trkpt><trkpt lat="30.59824753" lon="34.7389946"><ele>817.5</ele><time>2013-11-23T08:36:54.0000000+00:00</time></trkpt><trkpt lat="30.59820366" lon="34.73888779"><ele>817.6</ele><time>2013-11-23T08:36:59.0000000+00:00</time></trkpt><trkpt lat="30.59816933" lon="34.73878098"><ele>817.7</ele><time>2013-11-23T08:37:04.0000000+00:00</time></trkpt><trkpt lat="30.59814644" lon="34.73875427"><ele>817.4</ele><time>2013-11-23T08:37:09.0000000+00:00</time></trkpt><trkpt lat="30.59814644" lon="34.73875809"><ele>817.3</ele><time>2013-11-23T08:37:14.0000000+00:00</time></trkpt><trkpt lat="30.59814644" lon="34.73875809"><ele>817.3</ele><time>2013-11-23T08:37:19.0000000+00:00</time></trkpt><trkpt lat="30.59814644" lon="34.73875809"><ele>817.3</ele><time>2013-11-23T08:37:24.0000000+00:00</time></trkpt><trkpt lat="30.59814644" lon="34.73875809"><ele>817.3</ele><time>2013-11-23T08:37:29.0000000+00:00</time></trkpt><trkpt lat="30.59814644" lon="34.73875809"><ele>817.3</ele><time>2013-11-23T08:37:34.0000000+00:00</time></trkpt><trkpt lat="30.59810257" lon="34.73869705"><ele>817.9</ele><time>2013-11-23T08:37:39.0000000+00:00</time></trkpt><trkpt lat="30.59800148" lon="34.73858261"><ele>819.3</ele><time>2013-11-23T08:37:44.0000000+00:00</time></trkpt><trkpt lat="30.59793663" lon="34.73841476"><ele>819.9</ele><time>2013-11-23T08:37:49.0000000+00:00</time></trkpt><trkpt lat="30.59789848" lon="34.7382431"><ele>820.6</ele><time>2013-11-23T08:37:54.0000000+00:00</time></trkpt><trkpt lat="30.59787369" lon="34.73804092"><ele>821.1</ele><time>2013-11-23T08:37:59.0000000+00:00</time></trkpt><trkpt lat="30.59780693" lon="34.73783493"><ele>821.3</ele><time>2013-11-23T08:38:04.0000000+00:00</time></trkpt><trkpt lat="30.59772492" lon="34.7376709"><ele>821.3</ele><time>2013-11-23T08:38:09.0000000+00:00</time></trkpt><trkpt lat="30.59756851" lon="34.73760986"><ele>821.0</ele><time>2013-11-23T08:38:14.0000000+00:00</time></trkpt><trkpt lat="30.59743881" lon="34.73758698"><ele>820.9</ele><time>2013-11-23T08:38:19.0000000+00:00</time></trkpt><trkpt lat="30.59730721" lon="34.73755264"><ele>820.8</ele><time>2013-11-23T08:38:24.0000000+00:00</time></trkpt><trkpt lat="30.59716034" lon="34.73752213"><ele>821.1</ele><time>2013-11-23T08:38:29.0000000+00:00</time></trkpt><trkpt lat="30.59700394" lon="34.73750687"><ele>821.5</ele><time>2013-11-23T08:38:34.0000000+00:00</time></trkpt><trkpt lat="30.596838" lon="34.73752213"><ele>822.7</ele><time>2013-11-23T08:38:39.0000000+00:00</time></trkpt><trkpt lat="30.59664726" lon="34.73754883"><ele>823.4</ele><time>2013-11-23T08:38:44.0000000+00:00</time></trkpt><trkpt lat="30.59647751" lon="34.7375679"><ele>824.2</ele><time>2013-11-23T08:38:49.0000000+00:00</time></trkpt><trkpt lat="30.5963192" lon="34.73758698"><ele>824.4</ele><time>2013-11-23T08:38:54.0000000+00:00</time></trkpt><trkpt lat="30.59616661" lon="34.73754883"><ele>825.4</ele><time>2013-11-23T08:38:59.0000000+00:00</time></trkpt><trkpt lat="30.59601784" lon="34.73748016"><ele>825.6</ele><time>2013-11-23T08:39:04.0000000+00:00</time></trkpt><trkpt lat="30.59585571" lon="34.73745346"><ele>826.2</ele><time>2013-11-23T08:39:09.0000000+00:00</time></trkpt><trkpt lat="30.5956955" lon="34.73740006"><ele>827.7</ele><time>2013-11-23T08:39:14.0000000+00:00</time></trkpt><trkpt lat="30.59553719" lon="34.73727799"><ele>828.1</ele><time>2013-11-23T08:39:19.0000000+00:00</time></trkpt><trkpt lat="30.59542275" lon="34.73719406"><ele>829.1</ele><time>2013-11-23T08:39:24.0000000+00:00</time></trkpt><trkpt lat="30.59536934" lon="34.73712921"><ele>829.3</ele><time>2013-11-23T08:39:29.0000000+00:00</time></trkpt><trkpt lat="30.59531403" lon="34.73699951"><ele>829.0</ele><time>2013-11-23T08:39:34.0000000+00:00</time></trkpt><trkpt lat="30.5952301" lon="34.73683548"><ele>829.0</ele><time>2013-11-23T08:39:39.0000000+00:00</time></trkpt><trkpt lat="30.59511185" lon="34.73671722"><ele>829.6</ele><time>2013-11-23T08:39:44.0000000+00:00</time></trkpt><trkpt lat="30.59498024" lon="34.73661041"><ele>830.3</ele><time>2013-11-23T08:39:49.0000000+00:00</time></trkpt><trkpt lat="30.59487915" lon="34.7364769"><ele>831.2</ele><time>2013-11-23T08:39:54.0000000+00:00</time></trkpt><trkpt lat="30.59474754" lon="34.73633957"><ele>831.6</ele><time>2013-11-23T08:39:59.0000000+00:00</time></trkpt><trkpt lat="30.59461784" lon="34.73622894"><ele>832.2</ele><time>2013-11-23T08:40:04.0000000+00:00</time></trkpt><trkpt lat="30.59449196" lon="34.73612976"><ele>833.1</ele><time>2013-11-23T08:40:09.0000000+00:00</time></trkpt><trkpt lat="30.59431839" lon="34.73603821"><ele>833.5</ele><time>2013-11-23T08:40:14.0000000+00:00</time></trkpt><trkpt lat="30.59414482" lon="34.73598099"><ele>833.8</ele><time>2013-11-23T08:40:19.0000000+00:00</time></trkpt><trkpt lat="30.59393883" lon="34.73589706"><ele>834.4</ele><time>2013-11-23T08:40:24.0000000+00:00</time></trkpt><trkpt lat="30.59376335" lon="34.73580933"><ele>835.0</ele><time>2013-11-23T08:40:29.0000000+00:00</time></trkpt><trkpt lat="30.5935669" lon="34.73572922"><ele>834.6</ele><time>2013-11-23T08:40:34.0000000+00:00</time></trkpt><trkpt lat="30.59337425" lon="34.73570252"><ele>834.3</ele><time>2013-11-23T08:40:39.0000000+00:00</time></trkpt><trkpt lat="30.5932045" lon="34.73569489"><ele>835.2</ele><time>2013-11-23T08:40:44.0000000+00:00</time></trkpt><trkpt lat="30.59304237" lon="34.73567581"><ele>835.5</ele><time>2013-11-23T08:40:49.0000000+00:00</time></trkpt><trkpt lat="30.59289551" lon="34.73566437"><ele>835.4</ele><time>2013-11-23T08:40:54.0000000+00:00</time></trkpt><trkpt lat="30.59276772" lon="34.73564529"><ele>835.8</ele><time>2013-11-23T08:40:59.0000000+00:00</time></trkpt><trkpt lat="30.59262276" lon="34.73558807"><ele>835.7</ele><time>2013-11-23T08:41:04.0000000+00:00</time></trkpt><trkpt lat="30.59244728" lon="34.73557663"><ele>835.8</ele><time>2013-11-23T08:41:09.0000000+00:00</time></trkpt><trkpt lat="30.59234428" lon="34.73560715"><ele>835.6</ele><time>2013-11-23T08:41:14.0000000+00:00</time></trkpt><trkpt lat="30.59226608" lon="34.73563004"><ele>835.8</ele><time>2013-11-23T08:41:19.0000000+00:00</time></trkpt><trkpt lat="30.59214211" lon="34.73567581"><ele>835.7</ele><time>2013-11-23T08:41:24.0000000+00:00</time></trkpt><trkpt lat="30.59200668" lon="34.7356987"><ele>836.0</ele><time>2013-11-23T08:41:29.0000000+00:00</time></trkpt><trkpt lat="30.59187317" lon="34.73572159"><ele>836.4</ele><time>2013-11-23T08:41:34.0000000+00:00</time></trkpt><trkpt lat="30.59176064" lon="34.73577499"><ele>837.4</ele><time>2013-11-23T08:41:39.0000000+00:00</time></trkpt><trkpt lat="30.59163094" lon="34.73581314"><ele>837.0</ele><time>2013-11-23T08:41:44.0000000+00:00</time></trkpt><trkpt lat="30.59149551" lon="34.73587036"><ele>836.8</ele><time>2013-11-23T08:41:49.0000000+00:00</time></trkpt><trkpt lat="30.59136009" lon="34.73594284"><ele>837.4</ele><time>2013-11-23T08:41:54.0000000+00:00</time></trkpt><trkpt lat="30.59121895" lon="34.73601151"><ele>838.1</ele><time>2013-11-23T08:41:59.0000000+00:00</time></trkpt><trkpt lat="30.59109688" lon="34.73607636"><ele>838.8</ele><time>2013-11-23T08:42:04.0000000+00:00</time></trkpt><trkpt lat="30.59094811" lon="34.73616028"><ele>838.6</ele><time>2013-11-23T08:42:09.0000000+00:00</time></trkpt><trkpt lat="30.59079361" lon="34.73625183"><ele>838.6</ele><time>2013-11-23T08:42:14.0000000+00:00</time></trkpt><trkpt lat="30.59063721" lon="34.73635101"><ele>839.6</ele><time>2013-11-23T08:42:19.0000000+00:00</time></trkpt><trkpt lat="30.59047508" lon="34.73642349"><ele>840.3</ele><time>2013-11-23T08:42:24.0000000+00:00</time></trkpt><trkpt lat="30.59031677" lon="34.73652268"><ele>840.7</ele><time>2013-11-23T08:42:29.0000000+00:00</time></trkpt><trkpt lat="30.59016037" lon="34.73661804"><ele>840.9</ele><time>2013-11-23T08:42:34.0000000+00:00</time></trkpt><trkpt lat="30.58998489" lon="34.73662567"><ele>841.4</ele><time>2013-11-23T08:42:39.0000000+00:00</time></trkpt><trkpt lat="30.58984375" lon="34.73657608"><ele>841.3</ele><time>2013-11-23T08:42:44.0000000+00:00</time></trkpt><trkpt lat="30.58966255" lon="34.73651123"><ele>841.1</ele><time>2013-11-23T08:42:49.0000000+00:00</time></trkpt><trkpt lat="30.58952713" lon="34.73643112"><ele>841.1</ele><time>2013-11-23T08:42:54.0000000+00:00</time></trkpt><trkpt lat="30.58940315" lon="34.7363205"><ele>841.4</ele><time>2013-11-23T08:42:59.0000000+00:00</time></trkpt><trkpt lat="30.58924866" lon="34.73620987"><ele>841.5</ele><time>2013-11-23T08:43:04.0000000+00:00</time></trkpt><trkpt lat="30.58909035" lon="34.73613739"><ele>841.9</ele><time>2013-11-23T08:43:09.0000000+00:00</time></trkpt><trkpt lat="30.58895302" lon="34.7361145"><ele>842.4</ele><time>2013-11-23T08:43:14.0000000+00:00</time></trkpt><trkpt lat="30.58880806" lon="34.73609924"><ele>843.0</ele><time>2013-11-23T08:43:19.0000000+00:00</time></trkpt><trkpt lat="30.58864975" lon="34.73603439"><ele>843.1</ele><time>2013-11-23T08:43:24.0000000+00:00</time></trkpt><trkpt lat="30.58848953" lon="34.7359848"><ele>843.7</ele><time>2013-11-23T08:43:29.0000000+00:00</time></trkpt><trkpt lat="30.5883503" lon="34.73598099"><ele>845.0</ele><time>2013-11-23T08:43:34.0000000+00:00</time></trkpt><trkpt lat="30.58820915" lon="34.73598862"><ele>846.0</ele><time>2013-11-23T08:43:39.0000000+00:00</time></trkpt><trkpt lat="30.58804703" lon="34.73601532"><ele>846.8</ele><time>2013-11-23T08:43:44.0000000+00:00</time></trkpt><trkpt lat="30.58786774" lon="34.73601151"><ele>847.5</ele><time>2013-11-23T08:43:49.0000000+00:00</time></trkpt><trkpt lat="30.58769035" lon="34.73597336"><ele>848.8</ele><time>2013-11-23T08:43:54.0000000+00:00</time></trkpt><trkpt lat="30.58755875" lon="34.73595429"><ele>850.5</ele><time>2013-11-23T08:43:59.0000000+00:00</time></trkpt><trkpt lat="30.58740997" lon="34.73596573"><ele>851.6</ele><time>2013-11-23T08:44:04.0000000+00:00</time></trkpt><trkpt lat="30.58730698" lon="34.7359848"><ele>851.7</ele><time>2013-11-23T08:44:09.0000000+00:00</time></trkpt><trkpt lat="30.58718681" lon="34.73603058"><ele>851.6</ele><time>2013-11-23T08:44:14.0000000+00:00</time></trkpt><trkpt lat="30.58704376" lon="34.73607636"><ele>851.8</ele><time>2013-11-23T08:44:19.0000000+00:00</time></trkpt><trkpt lat="30.58689499" lon="34.73611069"><ele>851.9</ele><time>2013-11-23T08:44:24.0000000+00:00</time></trkpt><trkpt lat="30.58677292" lon="34.73613739"><ele>851.9</ele><time>2013-11-23T08:44:29.0000000+00:00</time></trkpt><trkpt lat="30.58667564" lon="34.73614883"><ele>851.3</ele><time>2013-11-23T08:44:34.0000000+00:00</time></trkpt><trkpt lat="30.58656502" lon="34.73616028"><ele>851.0</ele><time>2013-11-23T08:44:39.0000000+00:00</time></trkpt><trkpt lat="30.58646774" lon="34.73617172"><ele>851.3</ele><time>2013-11-23T08:44:44.0000000+00:00</time></trkpt><trkpt lat="30.58636093" lon="34.7362175"><ele>852.5</ele><time>2013-11-23T08:44:49.0000000+00:00</time></trkpt><trkpt lat="30.58626175" lon="34.73630524"><ele>853.3</ele><time>2013-11-23T08:44:54.0000000+00:00</time></trkpt><trkpt lat="30.58616829" lon="34.7364006"><ele>854.1</ele><time>2013-11-23T08:44:59.0000000+00:00</time></trkpt><trkpt lat="30.58608055" lon="34.73651886"><ele>854.0</ele><time>2013-11-23T08:45:04.0000000+00:00</time></trkpt><trkpt lat="30.58602142" lon="34.73661423"><ele>854.3</ele><time>2013-11-23T08:45:09.0000000+00:00</time></trkpt><trkpt lat="30.58599854" lon="34.73672485"><ele>854.3</ele><time>2013-11-23T08:45:14.0000000+00:00</time></trkpt><trkpt lat="30.58593369" lon="34.73682404"><ele>854.7</ele><time>2013-11-23T08:45:19.0000000+00:00</time></trkpt><trkpt lat="30.58587837" lon="34.73694611"><ele>855.2</ele><time>2013-11-23T08:45:24.0000000+00:00</time></trkpt><trkpt lat="30.58583641" lon="34.7370491"><ele>855.4</ele><time>2013-11-23T08:45:29.0000000+00:00</time></trkpt><trkpt lat="30.58581162" lon="34.73711014"><ele>855.5</ele><time>2013-11-23T08:45:34.0000000+00:00</time></trkpt><trkpt lat="30.58578301" lon="34.73717117"><ele>855.3</ele><time>2013-11-23T08:45:39.0000000+00:00</time></trkpt><trkpt lat="30.5857544" lon="34.73722076"><ele>855.5</ele><time>2013-11-23T08:45:44.0000000+00:00</time></trkpt><trkpt lat="30.58571816" lon="34.73726654"><ele>856.3</ele><time>2013-11-23T08:45:49.0000000+00:00</time></trkpt><trkpt lat="30.58567238" lon="34.73732376"><ele>857.0</ele><time>2013-11-23T08:45:54.0000000+00:00</time></trkpt><trkpt lat="30.58562851" lon="34.73737335"><ele>857.3</ele><time>2013-11-23T08:45:59.0000000+00:00</time></trkpt><trkpt lat="30.58558273" lon="34.73741531"><ele>857.7</ele><time>2013-11-23T08:46:04.0000000+00:00</time></trkpt><trkpt lat="30.58554268" lon="34.73746109"><ele>857.9</ele><time>2013-11-23T08:46:09.0000000+00:00</time></trkpt><trkpt lat="30.5854969" lon="34.73751068"><ele>858.5</ele><time>2013-11-23T08:46:14.0000000+00:00</time></trkpt><trkpt lat="30.58545685" lon="34.73756409"><ele>859.1</ele><time>2013-11-23T08:46:19.0000000+00:00</time></trkpt><trkpt lat="30.58539581" lon="34.73762131"><ele>859.3</ele><time>2013-11-23T08:46:24.0000000+00:00</time></trkpt><trkpt lat="30.58532143" lon="34.73766327"><ele>859.9</ele><time>2013-11-23T08:46:29.0000000+00:00</time></trkpt><trkpt lat="30.58523369" lon="34.73768997"><ele>859.7</ele><time>2013-11-23T08:46:34.0000000+00:00</time></trkpt><trkpt lat="30.58514977" lon="34.73772812"><ele>859.5</ele><time>2013-11-23T08:46:39.0000000+00:00</time></trkpt><trkpt lat="30.58508492" lon="34.73778534"><ele>859.8</ele><time>2013-11-23T08:46:44.0000000+00:00</time></trkpt><trkpt lat="30.58500671" lon="34.73783112"><ele>860.0</ele><time>2013-11-23T08:46:49.0000000+00:00</time></trkpt><trkpt lat="30.58491898" lon="34.73787308"><ele>860.2</ele><time>2013-11-23T08:46:54.0000000+00:00</time></trkpt><trkpt lat="30.58482742" lon="34.73788834"><ele>860.5</ele><time>2013-11-23T08:46:59.0000000+00:00</time></trkpt><trkpt lat="30.58472061" lon="34.73789215"><ele>861.0</ele><time>2013-11-23T08:47:04.0000000+00:00</time></trkpt><trkpt lat="30.58462715" lon="34.73788071"><ele>860.7</ele><time>2013-11-23T08:47:09.0000000+00:00</time></trkpt><trkpt lat="30.58454704" lon="34.73784256"><ele>860.0</ele><time>2013-11-23T08:47:14.0000000+00:00</time></trkpt><trkpt lat="30.58444595" lon="34.73778153"><ele>859.2</ele><time>2013-11-23T08:47:19.0000000+00:00</time></trkpt><trkpt lat="30.58434677" lon="34.73770905"><ele>858.4</ele><time>2013-11-23T08:47:24.0000000+00:00</time></trkpt><trkpt lat="30.58432579" lon="34.73770142"><ele>858.0</ele><time>2013-11-23T08:47:29.0000000+00:00</time></trkpt><trkpt lat="30.58432388" lon="34.73770142"><ele>858.0</ele><time>2013-11-23T08:47:34.0000000+00:00</time></trkpt><trkpt lat="30.58432579" lon="34.73770142"><ele>858.0</ele><time>2013-11-23T08:47:39.0000000+00:00</time></trkpt><trkpt lat="30.58432579" lon="34.73770523"><ele>858.0</ele><time>2013-11-23T08:47:44.0000000+00:00</time></trkpt><trkpt lat="30.58432388" lon="34.73770142"><ele>857.9</ele><time>2013-11-23T08:47:49.0000000+00:00</time></trkpt><trkpt lat="30.58431816" lon="34.73770142"><ele>857.4</ele><time>2013-11-23T08:47:54.0000000+00:00</time></trkpt><trkpt lat="30.58431625" lon="34.73769379"><ele>857.0</ele><time>2013-11-23T08:47:59.0000000+00:00</time></trkpt><trkpt lat="30.58431244" lon="34.73769379"><ele>856.9</ele><time>2013-11-23T08:48:04.0000000+00:00</time></trkpt><trkpt lat="30.58430862" lon="34.73769379"><ele>856.7</ele><time>2013-11-23T08:48:09.0000000+00:00</time></trkpt><trkpt lat="30.58430862" lon="34.73768997"><ele>856.6</ele><time>2013-11-23T08:48:14.0000000+00:00</time></trkpt><trkpt lat="30.58430862" lon="34.73768997"><ele>856.6</ele><time>2013-11-23T08:48:19.0000000+00:00</time></trkpt><trkpt lat="30.58430481" lon="34.73768616"><ele>856.6</ele><time>2013-11-23T08:48:24.0000000+00:00</time></trkpt><trkpt lat="30.5843029" lon="34.73768616"><ele>856.5</ele><time>2013-11-23T08:48:29.0000000+00:00</time></trkpt><trkpt lat="30.5843029" lon="34.73768616"><ele>856.5</ele><time>2013-11-23T08:48:34.0000000+00:00</time></trkpt><trkpt lat="30.5843029" lon="34.73768616"><ele>856.5</ele><time>2013-11-23T08:48:39.0000000+00:00</time></trkpt><trkpt lat="30.5843029" lon="34.73768616"><ele>856.5</ele><time>2013-11-23T08:48:44.0000000+00:00</time></trkpt><trkpt lat="30.5843029" lon="34.73768616"><ele>856.5</ele><time>2013-11-23T08:48:49.0000000+00:00</time></trkpt><trkpt lat="30.5843029" lon="34.73768616"><ele>856.5</ele><time>2013-11-23T08:48:54.0000000+00:00</time></trkpt><trkpt lat="30.5843029" lon="34.73768616"><ele>856.5</ele><time>2013-11-23T08:48:59.0000000+00:00</time></trkpt><trkpt lat="30.5843029" lon="34.73768616"><ele>856.5</ele><time>2013-11-23T08:49:04.0000000+00:00</time></trkpt><trkpt lat="30.5843029" lon="34.73768616"><ele>856.5</ele><time>2013-11-23T08:49:09.0000000+00:00</time></trkpt><trkpt lat="30.5843029" lon="34.73768616"><ele>856.5</ele><time>2013-11-23T08:49:14.0000000+00:00</time></trkpt><trkpt lat="30.5843029" lon="34.73768616"><ele>856.5</ele><time>2013-11-23T08:49:19.0000000+00:00</time></trkpt><trkpt lat="30.5843029" lon="34.73768616"><ele>856.5</ele><time>2013-11-23T08:49:24.0000000+00:00</time></trkpt><trkpt lat="30.5843029" lon="34.73768616"><ele>856.5</ele><time>2013-11-23T08:49:29.0000000+00:00</time></trkpt><trkpt lat="30.5843029" lon="34.73768616"><ele>856.5</ele><time>2013-11-23T08:49:34.0000000+00:00</time></trkpt><trkpt lat="30.5843029" lon="34.73768616"><ele>856.5</ele><time>2013-11-23T08:49:39.0000000+00:00</time></trkpt><trkpt lat="30.5843029" lon="34.73768616"><ele>856.5</ele><time>2013-11-23T08:49:44.0000000+00:00</time></trkpt><trkpt lat="30.5843029" lon="34.73768616"><ele>856.5</ele><time>2013-11-23T08:49:49.0000000+00:00</time></trkpt><trkpt lat="30.58429337" lon="34.73768234"><ele>856.4</ele><time>2013-11-23T08:49:54.0000000+00:00</time></trkpt><trkpt lat="30.58429337" lon="34.73768234"><ele>856.2</ele><time>2013-11-23T08:49:59.0000000+00:00</time></trkpt><trkpt lat="30.5843029" lon="34.73768997"><ele>855.3</ele><time>2013-11-23T08:50:04.0000000+00:00</time></trkpt><trkpt lat="30.58430672" lon="34.73768616"><ele>854.7</ele><time>2013-11-23T08:50:09.0000000+00:00</time></trkpt><trkpt lat="30.58430481" lon="34.73767853"><ele>854.9</ele><time>2013-11-23T08:50:14.0000000+00:00</time></trkpt><trkpt lat="30.58430481" lon="34.73768234"><ele>855.0</ele><time>2013-11-23T08:50:19.0000000+00:00</time></trkpt><trkpt lat="30.58430481" lon="34.73768616"><ele>855.0</ele><time>2013-11-23T08:50:24.0000000+00:00</time></trkpt><trkpt lat="30.58430481" lon="34.73768616"><ele>855.1</ele><time>2013-11-23T08:50:29.0000000+00:00</time></trkpt><trkpt lat="30.58430481" lon="34.73768616"><ele>855.1</ele><time>2013-11-23T08:50:34.0000000+00:00</time></trkpt><trkpt lat="30.58430481" lon="34.73768616"><ele>855.1</ele><time>2013-11-23T08:50:39.0000000+00:00</time></trkpt><trkpt lat="30.58430672" lon="34.73768616"><ele>855.2</ele><time>2013-11-23T08:50:44.0000000+00:00</time></trkpt><trkpt lat="30.58430672" lon="34.73768616"><ele>855.2</ele><time>2013-11-23T08:50:49.0000000+00:00</time></trkpt><trkpt lat="30.58430672" lon="34.73768616"><ele>855.2</ele><time>2013-11-23T08:50:54.0000000+00:00</time></trkpt><trkpt lat="30.58430672" lon="34.73768616"><ele>855.3</ele><time>2013-11-23T08:50:59.0000000+00:00</time></trkpt><trkpt lat="30.58430672" lon="34.73768616"><ele>855.3</ele><time>2013-11-23T08:51:04.0000000+00:00</time></trkpt><trkpt lat="30.58430672" lon="34.73768616"><ele>855.3</ele><time>2013-11-23T08:51:09.0000000+00:00</time></trkpt><trkpt lat="30.58430672" lon="34.73768616"><ele>855.3</ele><time>2013-11-23T08:51:14.0000000+00:00</time></trkpt><trkpt lat="30.58430672" lon="34.73768616"><ele>855.3</ele><time>2013-11-23T08:51:19.0000000+00:00</time></trkpt><trkpt lat="30.58430672" lon="34.73768616"><ele>855.3</ele><time>2013-11-23T08:51:24.0000000+00:00</time></trkpt><trkpt lat="30.58430672" lon="34.73768616"><ele>855.4</ele><time>2013-11-23T08:51:29.0000000+00:00</time></trkpt><trkpt lat="30.58430672" lon="34.73768616"><ele>855.3</ele><time>2013-11-23T08:51:34.0000000+00:00</time></trkpt><trkpt lat="30.58430672" lon="34.73768616"><ele>855.3</ele><time>2013-11-23T08:51:39.0000000+00:00</time></trkpt><trkpt lat="30.58430481" lon="34.73768616"><ele>855.2</ele><time>2013-11-23T08:51:44.0000000+00:00</time></trkpt><trkpt lat="30.58430481" lon="34.73768616"><ele>855.3</ele><time>2013-11-23T08:51:49.0000000+00:00</time></trkpt><trkpt lat="30.58430481" lon="34.73768616"><ele>855.3</ele><time>2013-11-23T08:51:54.0000000+00:00</time></trkpt><trkpt lat="30.58426094" lon="34.73768997"><ele>854.9</ele><time>2013-11-23T08:51:59.0000000+00:00</time></trkpt><trkpt lat="30.58422852" lon="34.73769379"><ele>855.0</ele><time>2013-11-23T08:52:04.0000000+00:00</time></trkpt><trkpt lat="30.58423042" lon="34.73768997"><ele>855.1</ele><time>2013-11-23T08:52:09.0000000+00:00</time></trkpt><trkpt lat="30.58419418" lon="34.73768997"><ele>854.8</ele><time>2013-11-23T08:52:14.0000000+00:00</time></trkpt><trkpt lat="30.58413506" lon="34.73769379"><ele>854.1</ele><time>2013-11-23T08:52:19.0000000+00:00</time></trkpt><trkpt lat="30.58409882" lon="34.73768997"><ele>853.6</ele><time>2013-11-23T08:52:24.0000000+00:00</time></trkpt><trkpt lat="30.58409691" lon="34.73768997"><ele>853.8</ele><time>2013-11-23T08:52:29.0000000+00:00</time></trkpt><trkpt lat="30.58408928" lon="34.73770523"><ele>854.1</ele><time>2013-11-23T08:52:34.0000000+00:00</time></trkpt><trkpt lat="30.58406639" lon="34.73777008"><ele>853.9</ele><time>2013-11-23T08:52:39.0000000+00:00</time></trkpt><trkpt lat="30.58404732" lon="34.73783875"><ele>853.8</ele><time>2013-11-23T08:52:44.0000000+00:00</time></trkpt><trkpt lat="30.58398247" lon="34.73787308"><ele>853.0</ele><time>2013-11-23T08:52:49.0000000+00:00</time></trkpt><trkpt lat="30.58394432" lon="34.73789215"><ele>852.5</ele><time>2013-11-23T08:52:54.0000000+00:00</time></trkpt><trkpt lat="30.58390236" lon="34.73791504"><ele>851.7</ele><time>2013-11-23T08:52:59.0000000+00:00</time></trkpt><trkpt lat="30.58390236" lon="34.73791504"><ele>851.7</ele><time>2013-11-23T08:53:04.0000000+00:00</time></trkpt><trkpt lat="30.58390236" lon="34.73791504"><ele>851.7</ele><time>2013-11-23T08:53:09.0000000+00:00</time></trkpt><trkpt lat="30.58390236" lon="34.73791504"><ele>851.7</ele><time>2013-11-23T08:53:14.0000000+00:00</time></trkpt><trkpt lat="30.58383942" lon="34.73796463"><ele>851.1</ele><time>2013-11-23T08:53:19.0000000+00:00</time></trkpt><trkpt lat="30.58375359" lon="34.73802948"><ele>850.2</ele><time>2013-11-23T08:53:24.0000000+00:00</time></trkpt><trkpt lat="30.58366966" lon="34.73810577"><ele>848.5</ele><time>2013-11-23T08:53:29.0000000+00:00</time></trkpt><trkpt lat="30.58359146" lon="34.73819733"><ele>847.4</ele><time>2013-11-23T08:53:34.0000000+00:00</time></trkpt><trkpt lat="30.58352852" lon="34.73826599"><ele>846.2</ele><time>2013-11-23T08:53:39.0000000+00:00</time></trkpt><trkpt lat="30.58348465" lon="34.7383461"><ele>844.8</ele><time>2013-11-23T08:53:44.0000000+00:00</time></trkpt><trkpt lat="30.58345223" lon="34.73843002"><ele>843.6</ele><time>2013-11-23T08:53:49.0000000+00:00</time></trkpt><trkpt lat="30.58342934" lon="34.73853302"><ele>842.0</ele><time>2013-11-23T08:53:54.0000000+00:00</time></trkpt><trkpt lat="30.5833931" lon="34.73862839"><ele>840.5</ele><time>2013-11-23T08:53:59.0000000+00:00</time></trkpt><trkpt lat="30.58332825" lon="34.73876572"><ele>839.0</ele><time>2013-11-23T08:54:04.0000000+00:00</time></trkpt><trkpt lat="30.58329201" lon="34.7389183"><ele>838.1</ele><time>2013-11-23T08:54:09.0000000+00:00</time></trkpt><trkpt lat="30.58324623" lon="34.73907471"><ele>837.4</ele><time>2013-11-23T08:54:14.0000000+00:00</time></trkpt><trkpt lat="30.58322334" lon="34.73924637"><ele>836.9</ele><time>2013-11-23T08:54:19.0000000+00:00</time></trkpt><trkpt lat="30.58314323" lon="34.73935318"><ele>836.2</ele><time>2013-11-23T08:54:24.0000000+00:00</time></trkpt><trkpt lat="30.58301354" lon="34.73949432"><ele>835.6</ele><time>2013-11-23T08:54:29.0000000+00:00</time></trkpt><trkpt lat="30.58290291" lon="34.73963165"><ele>835.1</ele><time>2013-11-23T08:54:34.0000000+00:00</time></trkpt><trkpt lat="30.58283615" lon="34.73983383"><ele>834.3</ele><time>2013-11-23T08:54:39.0000000+00:00</time></trkpt><trkpt lat="30.58275604" lon="34.73998642"><ele>833.2</ele><time>2013-11-23T08:54:44.0000000+00:00</time></trkpt><trkpt lat="30.58268929" lon="34.7400856"><ele>832.1</ele><time>2013-11-23T08:54:49.0000000+00:00</time></trkpt><trkpt lat="30.58257866" lon="34.74011231"><ele>830.1</ele><time>2013-11-23T08:54:54.0000000+00:00</time></trkpt><trkpt lat="30.58246803" lon="34.74017334"><ele>828.1</ele><time>2013-11-23T08:54:59.0000000+00:00</time></trkpt><trkpt lat="30.58237267" lon="34.74023819"><ele>826.8</ele><time>2013-11-23T08:55:04.0000000+00:00</time></trkpt><trkpt lat="30.58230972" lon="34.74031067"><ele>826.5</ele><time>2013-11-23T08:55:09.0000000+00:00</time></trkpt><trkpt lat="30.58230019" lon="34.74032974"><ele>826.9</ele><time>2013-11-23T08:55:14.0000000+00:00</time></trkpt><trkpt lat="30.58229065" lon="34.740345"><ele>826.5</ele><time>2013-11-23T08:55:19.0000000+00:00</time></trkpt><trkpt lat="30.5822525" lon="34.74038696"><ele>825.9</ele><time>2013-11-23T08:55:24.0000000+00:00</time></trkpt><trkpt lat="30.5822525" lon="34.74044037"><ele>825.6</ele><time>2013-11-23T08:55:29.0000000+00:00</time></trkpt><trkpt lat="30.58226967" lon="34.74047089"><ele>825.8</ele><time>2013-11-23T08:55:34.0000000+00:00</time></trkpt><trkpt lat="30.58226204" lon="34.74047852"><ele>826.0</ele><time>2013-11-23T08:55:39.0000000+00:00</time></trkpt><trkpt lat="30.58224487" lon="34.74049377"><ele>825.6</ele><time>2013-11-23T08:55:44.0000000+00:00</time></trkpt><trkpt lat="30.58224106" lon="34.74051285"><ele>825.5</ele><time>2013-11-23T08:55:49.0000000+00:00</time></trkpt><trkpt lat="30.58225632" lon="34.74058151"><ele>824.0</ele><time>2013-11-23T08:55:54.0000000+00:00</time></trkpt><trkpt lat="30.58225822" lon="34.74061203"><ele>823.1</ele><time>2013-11-23T08:55:59.0000000+00:00</time></trkpt><trkpt lat="30.58225822" lon="34.74062729"><ele>822.8</ele><time>2013-11-23T08:56:04.0000000+00:00</time></trkpt><trkpt lat="30.58220863" lon="34.74070358"><ele>821.1</ele><time>2013-11-23T08:56:09.0000000+00:00</time></trkpt><trkpt lat="30.58214951" lon="34.7407074"><ele>819.7</ele><time>2013-11-23T08:56:14.0000000+00:00</time></trkpt><trkpt lat="30.58215714" lon="34.74071884"><ele>818.7</ele><time>2013-11-23T08:56:19.0000000+00:00</time></trkpt><trkpt lat="30.58215523" lon="34.74071884"><ele>818.7</ele><time>2013-11-23T08:56:24.0000000+00:00</time></trkpt><trkpt lat="30.58215332" lon="34.7407074"><ele>818.4</ele><time>2013-11-23T08:56:29.0000000+00:00</time></trkpt><trkpt lat="30.58214188" lon="34.74067307"><ele>817.5</ele><time>2013-11-23T08:56:34.0000000+00:00</time></trkpt><trkpt lat="30.5820961" lon="34.74062729"><ele>816.0</ele><time>2013-11-23T08:56:39.0000000+00:00</time></trkpt><trkpt lat="30.58202553" lon="34.740551"><ele>814.0</ele><time>2013-11-23T08:56:44.0000000+00:00</time></trkpt><trkpt lat="30.58196259" lon="34.74047089"><ele>812.7</ele><time>2013-11-23T08:56:49.0000000+00:00</time></trkpt><trkpt lat="30.5818882" lon="34.74041367"><ele>811.2</ele><time>2013-11-23T08:56:54.0000000+00:00</time></trkpt><trkpt lat="30.58184242" lon="34.74039078"><ele>810.4</ele><time>2013-11-23T08:56:59.0000000+00:00</time></trkpt><trkpt lat="30.58184242" lon="34.74038696"><ele>810.1</ele><time>2013-11-23T08:57:04.0000000+00:00</time></trkpt><trkpt lat="30.58184242" lon="34.74039078"><ele>810.1</ele><time>2013-11-23T08:57:09.0000000+00:00</time></trkpt><trkpt lat="30.58184242" lon="34.74039078"><ele>810.0</ele><time>2013-11-23T08:57:14.0000000+00:00</time></trkpt><trkpt lat="30.58184242" lon="34.74039078"><ele>810.0</ele><time>2013-11-23T08:57:19.0000000+00:00</time></trkpt><trkpt lat="30.58176613" lon="34.74037552"><ele>808.6</ele><time>2013-11-23T08:57:24.0000000+00:00</time></trkpt><trkpt lat="30.58169174" lon="34.74040222"><ele>806.9</ele><time>2013-11-23T08:57:29.0000000+00:00</time></trkpt><trkpt lat="30.58160591" lon="34.74040222"><ele>805.7</ele><time>2013-11-23T08:57:34.0000000+00:00</time></trkpt><trkpt lat="30.5815258" lon="34.74039459"><ele>804.4</ele><time>2013-11-23T08:57:39.0000000+00:00</time></trkpt><trkpt lat="30.58142662" lon="34.74039078"><ele>802.9</ele><time>2013-11-23T08:57:44.0000000+00:00</time></trkpt><trkpt lat="30.58135223" lon="34.74040222"><ele>802.5</ele><time>2013-11-23T08:57:49.0000000+00:00</time></trkpt><trkpt lat="30.58127213" lon="34.74042893"><ele>801.4</ele><time>2013-11-23T08:57:54.0000000+00:00</time></trkpt><trkpt lat="30.58123589" lon="34.74044418"><ele>800.8</ele><time>2013-11-23T08:57:59.0000000+00:00</time></trkpt><trkpt lat="30.58122635" lon="34.74045563"><ele>801.3</ele><time>2013-11-23T08:58:04.0000000+00:00</time></trkpt><trkpt lat="30.58120918" lon="34.74049377"><ele>801.9</ele><time>2013-11-23T08:58:09.0000000+00:00</time></trkpt><trkpt lat="30.58119011" lon="34.74052429"><ele>802.8</ele><time>2013-11-23T08:58:14.0000000+00:00</time></trkpt><trkpt lat="30.58117485" lon="34.74050903"><ele>802.2</ele><time>2013-11-23T08:58:19.0000000+00:00</time></trkpt><trkpt lat="30.58117104" lon="34.74048233"><ele>801.9</ele><time>2013-11-23T08:58:24.0000000+00:00</time></trkpt><trkpt lat="30.58117676" lon="34.74048996"><ele>801.8</ele><time>2013-11-23T08:58:29.0000000+00:00</time></trkpt><trkpt lat="30.58117676" lon="34.74048996"><ele>801.8</ele><time>2013-11-23T08:58:34.0000000+00:00</time></trkpt><trkpt lat="30.58117485" lon="34.74048615"><ele>801.7</ele><time>2013-11-23T08:58:39.0000000+00:00</time></trkpt><trkpt lat="30.58119774" lon="34.74046326"><ele>801.5</ele><time>2013-11-23T08:58:44.0000000+00:00</time></trkpt><trkpt lat="30.58119583" lon="34.74045563"><ele>801.8</ele><time>2013-11-23T08:58:49.0000000+00:00</time></trkpt><trkpt lat="30.58119583" lon="34.74045181"><ele>801.6</ele><time>2013-11-23T08:58:54.0000000+00:00</time></trkpt><trkpt lat="30.58119583" lon="34.74044037"><ele>801.5</ele><time>2013-11-23T08:58:59.0000000+00:00</time></trkpt><trkpt lat="30.58119583" lon="34.74044037"><ele>801.4</ele><time>2013-11-23T08:59:04.0000000+00:00</time></trkpt><trkpt lat="30.58119583" lon="34.74044037"><ele>801.4</ele><time>2013-11-23T08:59:09.0000000+00:00</time></trkpt><trkpt lat="30.58119774" lon="34.74043274"><ele>801.3</ele><time>2013-11-23T08:59:14.0000000+00:00</time></trkpt><trkpt lat="30.58120155" lon="34.74041367"><ele>800.5</ele><time>2013-11-23T08:59:19.0000000+00:00</time></trkpt><trkpt lat="30.58120155" lon="34.74039078"><ele>799.6</ele><time>2013-11-23T08:59:24.0000000+00:00</time></trkpt><trkpt lat="30.58118057" lon="34.74036026"><ele>799.0</ele><time>2013-11-23T08:59:29.0000000+00:00</time></trkpt><trkpt lat="30.58117294" lon="34.74034882"><ele>798.9</ele><time>2013-11-23T08:59:34.0000000+00:00</time></trkpt><trkpt lat="30.58115387" lon="34.74033737"><ele>798.5</ele><time>2013-11-23T08:59:39.0000000+00:00</time></trkpt><trkpt lat="30.5811367" lon="34.74032974"><ele>798.0</ele><time>2013-11-23T08:59:44.0000000+00:00</time></trkpt><trkpt lat="30.58112145" lon="34.74032211"><ele>797.2</ele><time>2013-11-23T08:59:49.0000000+00:00</time></trkpt><trkpt lat="30.58111954" lon="34.74032211"><ele>797.4</ele><time>2013-11-23T08:59:54.0000000+00:00</time></trkpt><trkpt lat="30.58110428" lon="34.74029923"><ele>796.6</ele><time>2013-11-23T08:59:59.0000000+00:00</time></trkpt><trkpt lat="30.58107567" lon="34.74027634"><ele>796.3</ele><time>2013-11-23T09:00:04.0000000+00:00</time></trkpt><trkpt lat="30.58107376" lon="34.74027634"><ele>796.5</ele><time>2013-11-23T09:00:09.0000000+00:00</time></trkpt><trkpt lat="30.58107376" lon="34.74027634"><ele>796.5</ele><time>2013-11-23T09:00:14.0000000+00:00</time></trkpt><trkpt lat="30.58107376" lon="34.74027634"><ele>796.5</ele><time>2013-11-23T09:00:19.0000000+00:00</time></trkpt><trkpt lat="30.58107376" lon="34.74027634"><ele>796.5</ele><time>2013-11-23T09:00:24.0000000+00:00</time></trkpt><trkpt lat="30.58105278" lon="34.74027634"><ele>796.2</ele><time>2013-11-23T09:00:29.0000000+00:00</time></trkpt><trkpt lat="30.5809803" lon="34.74031067"><ele>795.5</ele><time>2013-11-23T09:00:34.0000000+00:00</time></trkpt><trkpt lat="30.58091164" lon="34.7404213"><ele>795.3</ele><time>2013-11-23T09:00:39.0000000+00:00</time></trkpt><trkpt lat="30.58088875" lon="34.74053955"><ele>796.0</ele><time>2013-11-23T09:00:44.0000000+00:00</time></trkpt><trkpt lat="30.58084869" lon="34.7406311"><ele>796.1</ele><time>2013-11-23T09:00:49.0000000+00:00</time></trkpt><trkpt lat="30.58078957" lon="34.74068451"><ele>795.3</ele><time>2013-11-23T09:00:54.0000000+00:00</time></trkpt><trkpt lat="30.58072472" lon="34.7407341"><ele>794.2</ele><time>2013-11-23T09:00:59.0000000+00:00</time></trkpt><trkpt lat="30.58064652" lon="34.74079132"><ele>792.0</ele><time>2013-11-23T09:01:04.0000000+00:00</time></trkpt><trkpt lat="30.58057594" lon="34.74084091"><ele>790.4</ele><time>2013-11-23T09:01:09.0000000+00:00</time></trkpt><trkpt lat="30.58049011" lon="34.74089432"><ele>787.8</ele><time>2013-11-23T09:01:14.0000000+00:00</time></trkpt><trkpt lat="30.58042526" lon="34.7408905"><ele>786.0</ele><time>2013-11-23T09:01:19.0000000+00:00</time></trkpt><trkpt lat="30.58036804" lon="34.7408638"><ele>783.7</ele><time>2013-11-23T09:01:24.0000000+00:00</time></trkpt><trkpt lat="30.58034897" lon="34.74085617"><ele>783.0</ele><time>2013-11-23T09:01:29.0000000+00:00</time></trkpt><trkpt lat="30.58034897" lon="34.74085617"><ele>783.0</ele><time>2013-11-23T09:01:34.0000000+00:00</time></trkpt><trkpt lat="30.58032036" lon="34.74082565"><ele>781.6</ele><time>2013-11-23T09:01:39.0000000+00:00</time></trkpt><trkpt lat="30.58027077" lon="34.74075317"><ele>779.7</ele><time>2013-11-23T09:01:44.0000000+00:00</time></trkpt><trkpt lat="30.58023644" lon="34.74063873"><ele>777.6</ele><time>2013-11-23T09:01:49.0000000+00:00</time></trkpt><trkpt lat="30.58024216" lon="34.74051666"><ele>775.3</ele><time>2013-11-23T09:01:54.0000000+00:00</time></trkpt><trkpt lat="30.58022499" lon="34.74036026"><ele>772.1</ele><time>2013-11-23T09:01:59.0000000+00:00</time></trkpt><trkpt lat="30.58024216" lon="34.74007034"><ele>769.1</ele><time>2013-11-23T09:02:04.0000000+00:00</time></trkpt><trkpt lat="30.58023644" lon="34.73974991"><ele>769.1</ele><time>2013-11-23T09:02:09.0000000+00:00</time></trkpt><trkpt lat="30.58017731" lon="34.73955917"><ele>769.2</ele><time>2013-11-23T09:02:14.0000000+00:00</time></trkpt><trkpt lat="30.58012009" lon="34.73945999"><ele>769.4</ele><time>2013-11-23T09:02:19.0000000+00:00</time></trkpt><trkpt lat="30.5800724" lon="34.7394371"><ele>769.4</ele><time>2013-11-23T09:02:24.0000000+00:00</time></trkpt><trkpt lat="30.58002091" lon="34.73939514"><ele>769.4</ele><time>2013-11-23T09:02:29.0000000+00:00</time></trkpt><trkpt lat="30.57995606" lon="34.73933792"><ele>769.3</ele><time>2013-11-23T09:02:34.0000000+00:00</time></trkpt><trkpt lat="30.57994461" lon="34.73926163"><ele>768.3</ele><time>2013-11-23T09:02:39.0000000+00:00</time></trkpt><trkpt lat="30.57993317" lon="34.73924637"><ele>768.5</ele><time>2013-11-23T09:02:44.0000000+00:00</time></trkpt><trkpt lat="30.57990646" lon="34.73923874"><ele>768.7</ele><time>2013-11-23T09:02:49.0000000+00:00</time></trkpt><trkpt lat="30.57990456" lon="34.73923874"><ele>768.7</ele><time>2013-11-23T09:02:54.0000000+00:00</time></trkpt><trkpt lat="30.57990456" lon="34.73923874"><ele>768.7</ele><time>2013-11-23T09:02:59.0000000+00:00</time></trkpt><trkpt lat="30.57987595" lon="34.73921967"><ele>767.9</ele><time>2013-11-23T09:03:04.0000000+00:00</time></trkpt><trkpt lat="30.57984924" lon="34.73917007"><ele>766.3</ele><time>2013-11-23T09:03:09.0000000+00:00</time></trkpt><trkpt lat="30.57977295" lon="34.73913574"><ele>764.1</ele><time>2013-11-23T09:03:14.0000000+00:00</time></trkpt><trkpt lat="30.57976151" lon="34.73912811"><ele>763.7</ele><time>2013-11-23T09:03:19.0000000+00:00</time></trkpt><trkpt lat="30.57972908" lon="34.73910904"><ele>763.2</ele><time>2013-11-23T09:03:24.0000000+00:00</time></trkpt><trkpt lat="30.57969666" lon="34.73908234"><ele>762.3</ele><time>2013-11-23T09:03:29.0000000+00:00</time></trkpt><trkpt lat="30.57966232" lon="34.73905945"><ele>761.3</ele><time>2013-11-23T09:03:34.0000000+00:00</time></trkpt><trkpt lat="30.57965469" lon="34.73905945"><ele>760.8</ele><time>2013-11-23T09:03:39.0000000+00:00</time></trkpt><trkpt lat="30.57965469" lon="34.73905945"><ele>760.8</ele><time>2013-11-23T09:03:44.0000000+00:00</time></trkpt><trkpt lat="30.57965469" lon="34.73905945"><ele>760.8</ele><time>2013-11-23T09:03:49.0000000+00:00</time></trkpt><trkpt lat="30.57965469" lon="34.73905945"><ele>760.8</ele><time>2013-11-23T09:03:54.0000000+00:00</time></trkpt><trkpt lat="30.57965469" lon="34.73905945"><ele>760.8</ele><time>2013-11-23T09:03:59.0000000+00:00</time></trkpt><trkpt lat="30.57965469" lon="34.73905945"><ele>760.8</ele><time>2013-11-23T09:04:04.0000000+00:00</time></trkpt><trkpt lat="30.57965469" lon="34.73905945"><ele>760.8</ele><time>2013-11-23T09:04:09.0000000+00:00</time></trkpt><trkpt lat="30.57965469" lon="34.73905945"><ele>760.8</ele><time>2013-11-23T09:04:14.0000000+00:00</time></trkpt><trkpt lat="30.57965469" lon="34.73905945"><ele>760.8</ele><time>2013-11-23T09:04:19.0000000+00:00</time></trkpt><trkpt lat="30.57965469" lon="34.73905945"><ele>760.8</ele><time>2013-11-23T09:04:24.0000000+00:00</time></trkpt><trkpt lat="30.57965469" lon="34.73905945"><ele>760.8</ele><time>2013-11-23T09:04:29.0000000+00:00</time></trkpt><trkpt lat="30.57965469" lon="34.73905945"><ele>760.8</ele><time>2013-11-23T09:04:34.0000000+00:00</time></trkpt><trkpt lat="30.57965469" lon="34.73905945"><ele>760.7</ele><time>2013-11-23T09:04:39.0000000+00:00</time></trkpt><trkpt lat="30.57965469" lon="34.73905945"><ele>760.7</ele><time>2013-11-23T09:04:44.0000000+00:00</time></trkpt><trkpt lat="30.57965469" lon="34.73905945"><ele>760.7</ele><time>2013-11-23T09:04:49.0000000+00:00</time></trkpt><trkpt lat="30.57965279" lon="34.73905945"><ele>760.7</ele><time>2013-11-23T09:04:54.0000000+00:00</time></trkpt><trkpt lat="30.57965279" lon="34.73905945"><ele>760.7</ele><time>2013-11-23T09:04:59.0000000+00:00</time></trkpt><trkpt lat="30.57965469" lon="34.73905945"><ele>760.7</ele><time>2013-11-23T09:05:04.0000000+00:00</time></trkpt><trkpt lat="30.57965469" lon="34.73905945"><ele>760.7</ele><time>2013-11-23T09:05:09.0000000+00:00</time></trkpt><trkpt lat="30.57965279" lon="34.73905945"><ele>760.7</ele><time>2013-11-23T09:05:14.0000000+00:00</time></trkpt><trkpt lat="30.57965279" lon="34.73905945"><ele>760.7</ele><time>2013-11-23T09:05:19.0000000+00:00</time></trkpt><trkpt lat="30.57965279" lon="34.73905945"><ele>760.7</ele><time>2013-11-23T09:05:24.0000000+00:00</time></trkpt><trkpt lat="30.57965279" lon="34.73906326"><ele>760.7</ele><time>2013-11-23T09:05:29.0000000+00:00</time></trkpt><trkpt lat="30.57963753" lon="34.73905945"><ele>760.8</ele><time>2013-11-23T09:05:34.0000000+00:00</time></trkpt><trkpt lat="30.57960701" lon="34.73905945"><ele>761.0</ele><time>2013-11-23T09:05:39.0000000+00:00</time></trkpt><trkpt lat="30.57954788" lon="34.73904419"><ele>760.5</ele><time>2013-11-23T09:05:44.0000000+00:00</time></trkpt><trkpt lat="30.57953644" lon="34.73904038"><ele>760.5</ele><time>2013-11-23T09:05:49.0000000+00:00</time></trkpt><trkpt lat="30.57952309" lon="34.73904038"><ele>760.3</ele><time>2013-11-23T09:05:54.0000000+00:00</time></trkpt><trkpt lat="30.57952309" lon="34.73904038"><ele>760.3</ele><time>2013-11-23T09:05:59.0000000+00:00</time></trkpt><trkpt lat="30.57950401" lon="34.73903275"><ele>760.2</ele><time>2013-11-23T09:06:04.0000000+00:00</time></trkpt><trkpt lat="30.57946777" lon="34.73901749"><ele>759.6</ele><time>2013-11-23T09:06:09.0000000+00:00</time></trkpt><trkpt lat="30.57944298" lon="34.73900604"><ele>760.0</ele><time>2013-11-23T09:06:14.0000000+00:00</time></trkpt><trkpt lat="30.57941246" lon="34.7389946"><ele>759.9</ele><time>2013-11-23T09:06:19.0000000+00:00</time></trkpt><trkpt lat="30.57938385" lon="34.7389946"><ele>760.5</ele><time>2013-11-23T09:06:24.0000000+00:00</time></trkpt><trkpt lat="30.5793705" lon="34.73901367"><ele>759.7</ele><time>2013-11-23T09:06:29.0000000+00:00</time></trkpt><trkpt lat="30.57935906" lon="34.73903656"><ele>760.3</ele><time>2013-11-23T09:06:34.0000000+00:00</time></trkpt><trkpt lat="30.57933998" lon="34.739048"><ele>760.9</ele><time>2013-11-23T09:06:39.0000000+00:00</time></trkpt><trkpt lat="30.57931328" lon="34.73905182"><ele>760.3</ele><time>2013-11-23T09:06:44.0000000+00:00</time></trkpt><trkpt lat="30.57927704" lon="34.73907089"><ele>760.6</ele><time>2013-11-23T09:06:49.0000000+00:00</time></trkpt><trkpt lat="30.57920265" lon="34.73910141"><ele>759.3</ele><time>2013-11-23T09:06:54.0000000+00:00</time></trkpt><trkpt lat="30.5791378" lon="34.73909378"><ele>757.3</ele><time>2013-11-23T09:06:59.0000000+00:00</time></trkpt><trkpt lat="30.57907105" lon="34.73904419"><ele>754.4</ele><time>2013-11-23T09:07:04.0000000+00:00</time></trkpt><trkpt lat="30.57901192" lon="34.73899078"><ele>752.3</ele><time>2013-11-23T09:07:09.0000000+00:00</time></trkpt><trkpt lat="30.57893753" lon="34.73896408"><ele>750.6</ele><time>2013-11-23T09:07:14.0000000+00:00</time></trkpt><trkpt lat="30.57892799" lon="34.7389679"><ele>750.7</ele><time>2013-11-23T09:07:19.0000000+00:00</time></trkpt><trkpt lat="30.57892799" lon="34.73896027"><ele>750.6</ele><time>2013-11-23T09:07:24.0000000+00:00</time></trkpt><trkpt lat="30.57892799" lon="34.73894882"><ele>749.8</ele><time>2013-11-23T09:07:29.0000000+00:00</time></trkpt><trkpt lat="30.57893944" lon="34.7389183"><ele>749.1</ele><time>2013-11-23T09:07:34.0000000+00:00</time></trkpt><trkpt lat="30.5789299" lon="34.73888779"><ele>748.7</ele><time>2013-11-23T09:07:39.0000000+00:00</time></trkpt><trkpt lat="30.5789299" lon="34.73884964"><ele>748.0</ele><time>2013-11-23T09:07:44.0000000+00:00</time></trkpt><trkpt lat="30.57892799" lon="34.73881531"><ele>747.4</ele><time>2013-11-23T09:07:49.0000000+00:00</time></trkpt><trkpt lat="30.57892609" lon="34.73877335"><ele>746.6</ele><time>2013-11-23T09:07:54.0000000+00:00</time></trkpt><trkpt lat="30.57893181" lon="34.7387352"><ele>745.5</ele><time>2013-11-23T09:07:59.0000000+00:00</time></trkpt><trkpt lat="30.5789299" lon="34.73870087"><ele>744.6</ele><time>2013-11-23T09:08:04.0000000+00:00</time></trkpt><trkpt lat="30.57893372" lon="34.73867035"><ele>744.1</ele><time>2013-11-23T09:08:09.0000000+00:00</time></trkpt><trkpt lat="30.57893181" lon="34.73862839"><ele>743.4</ele><time>2013-11-23T09:08:14.0000000+00:00</time></trkpt><trkpt lat="30.5789299" lon="34.73858643"><ele>742.5</ele><time>2013-11-23T09:08:19.0000000+00:00</time></trkpt><trkpt lat="30.57894898" lon="34.73854828"><ele>742.0</ele><time>2013-11-23T09:08:24.0000000+00:00</time></trkpt><trkpt lat="30.5789547" lon="34.73852539"><ele>741.4</ele><time>2013-11-23T09:08:29.0000000+00:00</time></trkpt><trkpt lat="30.57894707" lon="34.73852539"><ele>741.5</ele><time>2013-11-23T09:08:34.0000000+00:00</time></trkpt><trkpt lat="30.57894898" lon="34.73852158"><ele>741.5</ele><time>2013-11-23T09:08:39.0000000+00:00</time></trkpt><trkpt lat="30.57895088" lon="34.73852158"><ele>741.5</ele><time>2013-11-23T09:08:44.0000000+00:00</time></trkpt><trkpt lat="30.57895088" lon="34.7385025"><ele>741.4</ele><time>2013-11-23T09:08:49.0000000+00:00</time></trkpt><trkpt lat="30.57888603" lon="34.73843002"><ele>739.3</ele><time>2013-11-23T09:08:54.0000000+00:00</time></trkpt><trkpt lat="30.57880783" lon="34.73835373"><ele>736.7</ele><time>2013-11-23T09:08:59.0000000+00:00</time></trkpt><trkpt lat="30.57872963" lon="34.73829269"><ele>734.7</ele><time>2013-11-23T09:09:04.0000000+00:00</time></trkpt><trkpt lat="30.57865524" lon="34.73822403"><ele>732.1</ele><time>2013-11-23T09:09:09.0000000+00:00</time></trkpt><trkpt lat="30.57855225" lon="34.73815155"><ele>729.0</ele><time>2013-11-23T09:09:14.0000000+00:00</time></trkpt><trkpt lat="30.57847786" lon="34.73815537"><ele>727.2</ele><time>2013-11-23T09:09:19.0000000+00:00</time></trkpt><trkpt lat="30.57845306" lon="34.73817825"><ele>727.0</ele><time>2013-11-23T09:09:24.0000000+00:00</time></trkpt><trkpt lat="30.57842255" lon="34.73817825"><ele>726.5</ele><time>2013-11-23T09:09:29.0000000+00:00</time></trkpt><trkpt lat="30.5784111" lon="34.73817444"><ele>726.2</ele><time>2013-11-23T09:09:34.0000000+00:00</time></trkpt><trkpt lat="30.57839584" lon="34.73817062"><ele>725.5</ele><time>2013-11-23T09:09:39.0000000+00:00</time></trkpt><trkpt lat="30.57839012" lon="34.73816681"><ele>725.4</ele><time>2013-11-23T09:09:44.0000000+00:00</time></trkpt><trkpt lat="30.5783844" lon="34.73817062"><ele>725.3</ele><time>2013-11-23T09:09:49.0000000+00:00</time></trkpt><trkpt lat="30.57836914" lon="34.73816299"><ele>724.6</ele><time>2013-11-23T09:09:54.0000000+00:00</time></trkpt><trkpt lat="30.57830811" lon="34.73809052"><ele>722.0</ele><time>2013-11-23T09:09:59.0000000+00:00</time></trkpt><trkpt lat="30.57824516" lon="34.73802185"><ele>719.8</ele><time>2013-11-23T09:10:04.0000000+00:00</time></trkpt><trkpt lat="30.57818222" lon="34.73794937"><ele>718.0</ele><time>2013-11-23T09:10:09.0000000+00:00</time></trkpt><trkpt lat="30.5781517" lon="34.73791122"><ele>717.2</ele><time>2013-11-23T09:10:14.0000000+00:00</time></trkpt><trkpt lat="30.57809067" lon="34.73786545"><ele>715.7</ele><time>2013-11-23T09:10:19.0000000+00:00</time></trkpt><trkpt lat="30.57803536" lon="34.73782349"><ele>714.1</ele><time>2013-11-23T09:10:24.0000000+00:00</time></trkpt><trkpt lat="30.57801247" lon="34.73779678"><ele>713.6</ele><time>2013-11-23T09:10:29.0000000+00:00</time></trkpt><trkpt lat="30.57795525" lon="34.73774338"><ele>712.5</ele><time>2013-11-23T09:10:34.0000000+00:00</time></trkpt><trkpt lat="30.57789803" lon="34.73769379"><ele>711.5</ele><time>2013-11-23T09:10:39.0000000+00:00</time></trkpt><trkpt lat="30.57782555" lon="34.73760605"><ele>710.4</ele><time>2013-11-23T09:10:44.0000000+00:00</time></trkpt><trkpt lat="30.57777405" lon="34.73751068"><ele>709.5</ele><time>2013-11-23T09:10:49.0000000+00:00</time></trkpt><trkpt lat="30.57771111" lon="34.73745728"><ele>708.2</ele><time>2013-11-23T09:10:54.0000000+00:00</time></trkpt><trkpt lat="30.57762718" lon="34.73743057"><ele>706.8</ele><time>2013-11-23T09:10:59.0000000+00:00</time></trkpt><trkpt lat="30.57754517" lon="34.73736572"><ele>705.3</ele><time>2013-11-23T09:11:04.0000000+00:00</time></trkpt><trkpt lat="30.57746506" lon="34.73729706"><ele>703.4</ele><time>2013-11-23T09:11:09.0000000+00:00</time></trkpt><trkpt lat="30.57738304" lon="34.73723984"><ele>702.1</ele><time>2013-11-23T09:11:14.0000000+00:00</time></trkpt><trkpt lat="30.57729149" lon="34.73720169"><ele>700.2</ele><time>2013-11-23T09:11:19.0000000+00:00</time></trkpt><trkpt lat="30.5772152" lon="34.73712158"><ele>698.6</ele><time>2013-11-23T09:11:24.0000000+00:00</time></trkpt><trkpt lat="30.5771637" lon="34.73703003"><ele>697.5</ele><time>2013-11-23T09:11:29.0000000+00:00</time></trkpt><trkpt lat="30.57714462" lon="34.73699188"><ele>697.4</ele><time>2013-11-23T09:11:34.0000000+00:00</time></trkpt><trkpt lat="30.57714653" lon="34.73699188"><ele>697.4</ele><time>2013-11-23T09:11:39.0000000+00:00</time></trkpt><trkpt lat="30.57714653" lon="34.73699188"><ele>697.4</ele><time>2013-11-23T09:11:44.0000000+00:00</time></trkpt><trkpt lat="30.57714462" lon="34.73697662"><ele>697.3</ele><time>2013-11-23T09:11:49.0000000+00:00</time></trkpt><trkpt lat="30.57710266" lon="34.73687744"><ele>696.3</ele><time>2013-11-23T09:11:54.0000000+00:00</time></trkpt><trkpt lat="30.57706642" lon="34.73680878"><ele>695.7</ele><time>2013-11-23T09:11:59.0000000+00:00</time></trkpt><trkpt lat="30.57701874" lon="34.73674393"><ele>694.8</ele><time>2013-11-23T09:12:04.0000000+00:00</time></trkpt><trkpt lat="30.57693481" lon="34.73666763"><ele>693.4</ele><time>2013-11-23T09:12:09.0000000+00:00</time></trkpt><trkpt lat="30.57682991" lon="34.73666382"><ele>692.5</ele><time>2013-11-23T09:12:14.0000000+00:00</time></trkpt><trkpt lat="30.57674789" lon="34.73669815"><ele>692.1</ele><time>2013-11-23T09:12:19.0000000+00:00</time></trkpt><trkpt lat="30.57667351" lon="34.73671341"><ele>690.9</ele><time>2013-11-23T09:12:24.0000000+00:00</time></trkpt><trkpt lat="30.57665062" lon="34.73665619"><ele>689.2</ele><time>2013-11-23T09:12:29.0000000+00:00</time></trkpt><trkpt lat="30.57657242" lon="34.73661041"><ele>687.2</ele><time>2013-11-23T09:12:34.0000000+00:00</time></trkpt><trkpt lat="30.57650566" lon="34.73659897"><ele>686.2</ele><time>2013-11-23T09:12:39.0000000+00:00</time></trkpt><trkpt lat="30.57647514" lon="34.7365799"><ele>685.7</ele><time>2013-11-23T09:12:44.0000000+00:00</time></trkpt><trkpt lat="30.57646179" lon="34.7365799"><ele>685.4</ele><time>2013-11-23T09:12:49.0000000+00:00</time></trkpt><trkpt lat="30.57646179" lon="34.7365799"><ele>685.1</ele><time>2013-11-23T09:12:54.0000000+00:00</time></trkpt><trkpt lat="30.57645989" lon="34.7365799"><ele>684.9</ele><time>2013-11-23T09:12:59.0000000+00:00</time></trkpt><trkpt lat="30.57645798" lon="34.7365799"><ele>684.6</ele><time>2013-11-23T09:13:04.0000000+00:00</time></trkpt><trkpt lat="30.57645226" lon="34.73657608"><ele>684.4</ele><time>2013-11-23T09:13:09.0000000+00:00</time></trkpt><trkpt lat="30.57640266" lon="34.73655701"><ele>684.2</ele><time>2013-11-23T09:13:14.0000000+00:00</time></trkpt><trkpt lat="30.57635117" lon="34.73646545"><ele>682.5</ele><time>2013-11-23T09:13:19.0000000+00:00</time></trkpt><trkpt lat="30.57633019" lon="34.73634338"><ele>680.6</ele><time>2013-11-23T09:13:24.0000000+00:00</time></trkpt><trkpt lat="30.57633972" lon="34.73620987"><ele>679.7</ele><time>2013-11-23T09:13:29.0000000+00:00</time></trkpt><trkpt lat="30.57635307" lon="34.73611832"><ele>679.0</ele><time>2013-11-23T09:13:34.0000000+00:00</time></trkpt><trkpt lat="30.5763855" lon="34.73604202"><ele>677.7</ele><time>2013-11-23T09:13:39.0000000+00:00</time></trkpt><trkpt lat="30.5764904" lon="34.73588181"><ele>675.0</ele><time>2013-11-23T09:13:44.0000000+00:00</time></trkpt><trkpt lat="30.57656288" lon="34.73572159"><ele>672.2</ele><time>2013-11-23T09:13:49.0000000+00:00</time></trkpt><trkpt lat="30.57655907" lon="34.73552322"><ele>668.2</ele><time>2013-11-23T09:13:54.0000000+00:00</time></trkpt><trkpt lat="30.57649231" lon="34.73529053"><ele>663.7</ele><time>2013-11-23T09:13:59.0000000+00:00</time></trkpt><trkpt lat="30.57633209" lon="34.73511505"><ele>661.0</ele><time>2013-11-23T09:14:04.0000000+00:00</time></trkpt><trkpt lat="30.57610893" lon="34.73504639"><ele>658.9</ele><time>2013-11-23T09:14:09.0000000+00:00</time></trkpt><trkpt lat="30.57592011" lon="34.73497772"><ele>657.1</ele><time>2013-11-23T09:14:14.0000000+00:00</time></trkpt><trkpt lat="30.57578659" lon="34.73493576"><ele>655.7</ele><time>2013-11-23T09:14:19.0000000+00:00</time></trkpt><trkpt lat="30.57574844" lon="34.73493195"><ele>655.2</ele><time>2013-11-23T09:14:24.0000000+00:00</time></trkpt><trkpt lat="30.57565689" lon="34.73495483"><ele>654.0</ele><time>2013-11-23T09:14:29.0000000+00:00</time></trkpt><trkpt lat="30.57551956" lon="34.73494721"><ele>652.7</ele><time>2013-11-23T09:14:34.0000000+00:00</time></trkpt><trkpt lat="30.57543945" lon="34.7350769"><ele>651.6</ele><time>2013-11-23T09:14:39.0000000+00:00</time></trkpt><trkpt lat="30.57535172" lon="34.73526001"><ele>650.0</ele><time>2013-11-23T09:14:44.0000000+00:00</time></trkpt><trkpt lat="30.57518578" lon="34.73537827"><ele>649.2</ele><time>2013-11-23T09:14:49.0000000+00:00</time></trkpt><trkpt lat="30.57508659" lon="34.73561478"><ele>647.3</ele><time>2013-11-23T09:14:54.0000000+00:00</time></trkpt><trkpt lat="30.57500649" lon="34.73583221"><ele>648.0</ele><time>2013-11-23T09:14:59.0000000+00:00</time></trkpt><trkpt lat="30.57492256" lon="34.73603439"><ele>648.5</ele><time>2013-11-23T09:15:04.0000000+00:00</time></trkpt><trkpt lat="30.57495499" lon="34.73627472"><ele>647.9</ele><time>2013-11-23T09:15:09.0000000+00:00</time></trkpt><trkpt lat="30.57505608" lon="34.73631287"><ele>650.2</ele><time>2013-11-23T09:15:14.0000000+00:00</time></trkpt><trkpt lat="30.57506752" lon="34.73632431"><ele>650.5</ele><time>2013-11-23T09:15:19.0000000+00:00</time></trkpt><trkpt lat="30.57509232" lon="34.73635101"><ele>651.2</ele><time>2013-11-23T09:15:24.0000000+00:00</time></trkpt><trkpt lat="30.57511139" lon="34.73639679"><ele>653.0</ele><time>2013-11-23T09:15:29.0000000+00:00</time></trkpt><trkpt lat="30.57511902" lon="34.73644638"><ele>654.8</ele><time>2013-11-23T09:15:34.0000000+00:00</time></trkpt><trkpt lat="30.57509804" lon="34.73654175"><ele>655.8</ele><time>2013-11-23T09:15:39.0000000+00:00</time></trkpt><trkpt lat="30.57507134" lon="34.7367096"><ele>655.6</ele><time>2013-11-23T09:15:44.0000000+00:00</time></trkpt><trkpt lat="30.57505226" lon="34.73694992"><ele>655.3</ele><time>2013-11-23T09:15:49.0000000+00:00</time></trkpt><trkpt lat="30.57496262" lon="34.73717117"><ele>654.5</ele><time>2013-11-23T09:15:54.0000000+00:00</time></trkpt><trkpt lat="30.57483482" lon="34.73740006"><ele>653.4</ele><time>2013-11-23T09:15:59.0000000+00:00</time></trkpt><trkpt lat="30.57474709" lon="34.7375946"><ele>652.9</ele><time>2013-11-23T09:16:04.0000000+00:00</time></trkpt><trkpt lat="30.57465744" lon="34.7376442"><ele>649.5</ele><time>2013-11-23T09:16:09.0000000+00:00</time></trkpt><trkpt lat="30.57466316" lon="34.73764801"><ele>649.1</ele><time>2013-11-23T09:16:14.0000000+00:00</time></trkpt><trkpt lat="30.57466126" lon="34.73764801"><ele>648.9</ele><time>2013-11-23T09:16:19.0000000+00:00</time></trkpt><trkpt lat="30.57466126" lon="34.73764801"><ele>648.7</ele><time>2013-11-23T09:16:24.0000000+00:00</time></trkpt><trkpt lat="30.57465935" lon="34.73764801"><ele>648.7</ele><time>2013-11-23T09:16:29.0000000+00:00</time></trkpt><trkpt lat="30.57465935" lon="34.73764801"><ele>648.6</ele><time>2013-11-23T09:16:34.0000000+00:00</time></trkpt><trkpt lat="30.57465935" lon="34.73764801"><ele>648.5</ele><time>2013-11-23T09:16:39.0000000+00:00</time></trkpt><trkpt lat="30.57464218" lon="34.73768997"><ele>648.0</ele><time>2013-11-23T09:16:44.0000000+00:00</time></trkpt><trkpt lat="30.57462311" lon="34.73786545"><ele>647.4</ele><time>2013-11-23T09:16:49.0000000+00:00</time></trkpt><trkpt lat="30.57457542" lon="34.73808289"><ele>646.2</ele><time>2013-11-23T09:16:54.0000000+00:00</time></trkpt><trkpt lat="30.57449722" lon="34.73828507"><ele>645.4</ele><time>2013-11-23T09:16:59.0000000+00:00</time></trkpt><trkpt lat="30.57435799" lon="34.73842239"><ele>644.0</ele><time>2013-11-23T09:17:04.0000000+00:00</time></trkpt><trkpt lat="30.57425499" lon="34.73852921"><ele>642.9</ele><time>2013-11-23T09:17:09.0000000+00:00</time></trkpt><trkpt lat="30.57413101" lon="34.73859024"><ele>641.4</ele><time>2013-11-23T09:17:14.0000000+00:00</time></trkpt><trkpt lat="30.57400131" lon="34.73862839"><ele>640.3</ele><time>2013-11-23T09:17:19.0000000+00:00</time></trkpt><trkpt lat="30.57390785" lon="34.73879623"><ele>639.6</ele><time>2013-11-23T09:17:24.0000000+00:00</time></trkpt><trkpt lat="30.57378006" lon="34.73894882"><ele>638.7</ele><time>2013-11-23T09:17:29.0000000+00:00</time></trkpt><trkpt lat="30.57360268" lon="34.73908615"><ele>637.2</ele><time>2013-11-23T09:17:34.0000000+00:00</time></trkpt><trkpt lat="30.57342339" lon="34.73913574"><ele>635.2</ele><time>2013-11-23T09:17:39.0000000+00:00</time></trkpt><trkpt lat="30.57331085" lon="34.73924255"><ele>634.5</ele><time>2013-11-23T09:17:44.0000000+00:00</time></trkpt><trkpt lat="30.57334328" lon="34.73946381"><ele>635.4</ele><time>2013-11-23T09:17:49.0000000+00:00</time></trkpt><trkpt lat="30.57327843" lon="34.73965836"><ele>634.7</ele><time>2013-11-23T09:17:54.0000000+00:00</time></trkpt><trkpt lat="30.57318497" lon="34.73978043"><ele>634.3</ele><time>2013-11-23T09:17:59.0000000+00:00</time></trkpt><trkpt lat="30.5731144" lon="34.7399025"><ele>634.6</ele><time>2013-11-23T09:18:04.0000000+00:00</time></trkpt><trkpt lat="30.57301521" lon="34.74002457"><ele>634.5</ele><time>2013-11-23T09:18:09.0000000+00:00</time></trkpt><trkpt lat="30.5729084" lon="34.74007034"><ele>633.7</ele><time>2013-11-23T09:18:14.0000000+00:00</time></trkpt><trkpt lat="30.57281494" lon="34.74013519"><ele>632.7</ele><time>2013-11-23T09:18:19.0000000+00:00</time></trkpt><trkpt lat="30.57272911" lon="34.74020386"><ele>631.5</ele><time>2013-11-23T09:18:24.0000000+00:00</time></trkpt><trkpt lat="30.57267761" lon="34.74027252"><ele>632.0</ele><time>2013-11-23T09:18:29.0000000+00:00</time></trkpt><trkpt lat="30.57263374" lon="34.74033737"><ele>631.9</ele><time>2013-11-23T09:18:34.0000000+00:00</time></trkpt><trkpt lat="30.57259941" lon="34.74036789"><ele>632.2</ele><time>2013-11-23T09:18:39.0000000+00:00</time></trkpt><trkpt lat="30.57255936" lon="34.74041367"><ele>632.5</ele><time>2013-11-23T09:18:44.0000000+00:00</time></trkpt><trkpt lat="30.57247543" lon="34.74048233"><ele>632.9</ele><time>2013-11-23T09:18:49.0000000+00:00</time></trkpt><trkpt lat="30.57240105" lon="34.74052811"><ele>632.6</ele><time>2013-11-23T09:18:54.0000000+00:00</time></trkpt><trkpt lat="30.57233048" lon="34.74056625"><ele>631.7</ele><time>2013-11-23T09:18:59.0000000+00:00</time></trkpt><trkpt lat="30.57222366" lon="34.74065781"><ele>631.3</ele><time>2013-11-23T09:19:04.0000000+00:00</time></trkpt><trkpt lat="30.57211494" lon="34.74084091"><ele>630.2</ele><time>2013-11-23T09:19:09.0000000+00:00</time></trkpt><trkpt lat="30.57200432" lon="34.74106979"><ele>630.0</ele><time>2013-11-23T09:19:14.0000000+00:00</time></trkpt><trkpt lat="30.57187462" lon="34.74115372"><ele>628.6</ele><time>2013-11-23T09:19:19.0000000+00:00</time></trkpt><trkpt lat="30.57172966" lon="34.74120712"><ele>628.2</ele><time>2013-11-23T09:19:24.0000000+00:00</time></trkpt><trkpt lat="30.57160378" lon="34.74128342"><ele>626.3</ele><time>2013-11-23T09:19:29.0000000+00:00</time></trkpt><trkpt lat="30.57147598" lon="34.74135971"><ele>625.5</ele><time>2013-11-23T09:19:34.0000000+00:00</time></trkpt><trkpt lat="30.57135201" lon="34.74143982"><ele>624.6</ele><time>2013-11-23T09:19:39.0000000+00:00</time></trkpt><trkpt lat="30.57123184" lon="34.74150085"><ele>623.9</ele><time>2013-11-23T09:19:44.0000000+00:00</time></trkpt><trkpt lat="30.57110405" lon="34.7415657"><ele>621.7</ele><time>2013-11-23T09:19:49.0000000+00:00</time></trkpt><trkpt lat="30.57099342" lon="34.74163055"><ele>621.5</ele><time>2013-11-23T09:19:54.0000000+00:00</time></trkpt><trkpt lat="30.57086945" lon="34.74172974"><ele>622.5</ele><time>2013-11-23T09:19:59.0000000+00:00</time></trkpt><trkpt lat="30.57073784" lon="34.74178314"><ele>620.8</ele><time>2013-11-23T09:20:04.0000000+00:00</time></trkpt><trkpt lat="30.57063294" lon="34.74184036"><ele>622.3</ele><time>2013-11-23T09:20:09.0000000+00:00</time></trkpt><trkpt lat="30.57050324" lon="34.74195099"><ele>621.7</ele><time>2013-11-23T09:20:14.0000000+00:00</time></trkpt><trkpt lat="30.57038689" lon="34.74205399"><ele>621.0</ele><time>2013-11-23T09:20:19.0000000+00:00</time></trkpt><trkpt lat="30.57024193" lon="34.74212265"><ele>619.3</ele><time>2013-11-23T09:20:24.0000000+00:00</time></trkpt><trkpt lat="30.57012177" lon="34.74218369"><ele>617.4</ele><time>2013-11-23T09:20:29.0000000+00:00</time></trkpt><trkpt lat="30.57000923" lon="34.74225617"><ele>616.4</ele><time>2013-11-23T09:20:34.0000000+00:00</time></trkpt><trkpt lat="30.56992149" lon="34.74229813"><ele>615.1</ele><time>2013-11-23T09:20:39.0000000+00:00</time></trkpt><trkpt lat="30.56979752" lon="34.74236679"><ele>613.9</ele><time>2013-11-23T09:20:44.0000000+00:00</time></trkpt><trkpt lat="30.56966972" lon="34.7424469"><ele>612.6</ele><time>2013-11-23T09:20:49.0000000+00:00</time></trkpt><trkpt lat="30.56955719" lon="34.74249649"><ele>611.2</ele><time>2013-11-23T09:20:54.0000000+00:00</time></trkpt><trkpt lat="30.56946182" lon="34.74259949"><ele>610.7</ele><time>2013-11-23T09:20:59.0000000+00:00</time></trkpt><trkpt lat="30.5693531" lon="34.74276733"><ele>610.3</ele><time>2013-11-23T09:21:04.0000000+00:00</time></trkpt><trkpt lat="30.5692234" lon="34.74300003"><ele>609.8</ele><time>2013-11-23T09:21:09.0000000+00:00</time></trkpt><trkpt lat="30.56909752" lon="34.74323654"><ele>609.5</ele><time>2013-11-23T09:21:14.0000000+00:00</time></trkpt><trkpt lat="30.56899452" lon="34.74347687"><ele>610.3</ele><time>2013-11-23T09:21:19.0000000+00:00</time></trkpt><trkpt lat="30.56892014" lon="34.74370194"><ele>608.5</ele><time>2013-11-23T09:21:24.0000000+00:00</time></trkpt><trkpt lat="30.56885719" lon="34.74388123"><ele>608.7</ele><time>2013-11-23T09:21:29.0000000+00:00</time></trkpt><trkpt lat="30.56883431" lon="34.74397659"><ele>610.4</ele><time>2013-11-23T09:21:34.0000000+00:00</time></trkpt><trkpt lat="30.5688076" lon="34.74410629"><ele>610.5</ele><time>2013-11-23T09:21:39.0000000+00:00</time></trkpt><trkpt lat="30.5687561" lon="34.7442627"><ele>611.2</ele><time>2013-11-23T09:21:44.0000000+00:00</time></trkpt><trkpt lat="30.56868553" lon="34.74444199"><ele>611.0</ele><time>2013-11-23T09:21:49.0000000+00:00</time></trkpt><trkpt lat="30.56858063" lon="34.74460983"><ele>610.3</ele><time>2013-11-23T09:21:54.0000000+00:00</time></trkpt><trkpt lat="30.56847382" lon="34.74477387"><ele>609.9</ele><time>2013-11-23T09:21:59.0000000+00:00</time></trkpt><trkpt lat="30.56840515" lon="34.74493027"><ele>609.9</ele><time>2013-11-23T09:22:04.0000000+00:00</time></trkpt><trkpt lat="30.56834412" lon="34.74507141"><ele>609.3</ele><time>2013-11-23T09:22:09.0000000+00:00</time></trkpt><trkpt lat="30.5682621" lon="34.74522018"><ele>608.7</ele><time>2013-11-23T09:22:14.0000000+00:00</time></trkpt><trkpt lat="30.56816673" lon="34.74535751"><ele>607.3</ele><time>2013-11-23T09:22:19.0000000+00:00</time></trkpt><trkpt lat="30.56803131" lon="34.74549484"><ele>605.1</ele><time>2013-11-23T09:22:24.0000000+00:00</time></trkpt><trkpt lat="30.56788445" lon="34.74562836"><ele>603.7</ele><time>2013-11-23T09:22:29.0000000+00:00</time></trkpt><trkpt lat="30.56777" lon="34.74572372"><ele>603.1</ele><time>2013-11-23T09:22:34.0000000+00:00</time></trkpt><trkpt lat="30.56768417" lon="34.74578857"><ele>602.0</ele><time>2013-11-23T09:22:39.0000000+00:00</time></trkpt><trkpt lat="30.56762505" lon="34.74582291"><ele>601.9</ele><time>2013-11-23T09:22:44.0000000+00:00</time></trkpt><trkpt lat="30.56752586" lon="34.74594879"><ele>600.5</ele><time>2013-11-23T09:22:49.0000000+00:00</time></trkpt><trkpt lat="30.56741142" lon="34.74602127"><ele>599.8</ele><time>2013-11-23T09:22:54.0000000+00:00</time></trkpt><trkpt lat="30.56728363" lon="34.74612427"><ele>599.2</ele><time>2013-11-23T09:22:59.0000000+00:00</time></trkpt><trkpt lat="30.56722069" lon="34.74624252"><ele>600.4</ele><time>2013-11-23T09:23:04.0000000+00:00</time></trkpt><trkpt lat="30.56719017" lon="34.74633789"><ele>601.9</ele><time>2013-11-23T09:23:09.0000000+00:00</time></trkpt><trkpt lat="30.56716919" lon="34.7464447"><ele>603.4</ele><time>2013-11-23T09:23:14.0000000+00:00</time></trkpt><trkpt lat="30.56716538" lon="34.74650955"><ele>604.8</ele><time>2013-11-23T09:23:19.0000000+00:00</time></trkpt><trkpt lat="30.56716156" lon="34.7465744"><ele>606.8</ele><time>2013-11-23T09:23:24.0000000+00:00</time></trkpt><trkpt lat="30.56716919" lon="34.74661255"><ele>608.0</ele><time>2013-11-23T09:23:29.0000000+00:00</time></trkpt><trkpt lat="30.56716919" lon="34.74666214"><ele>608.8</ele><time>2013-11-23T09:23:34.0000000+00:00</time></trkpt><trkpt lat="30.56715965" lon="34.7467308"><ele>607.9</ele><time>2013-11-23T09:23:39.0000000+00:00</time></trkpt><trkpt lat="30.56714821" lon="34.74676895"><ele>608.3</ele><time>2013-11-23T09:23:44.0000000+00:00</time></trkpt><trkpt lat="30.56713867" lon="34.74684143"><ele>608.6</ele><time>2013-11-23T09:23:49.0000000+00:00</time></trkpt><trkpt lat="30.56712914" lon="34.74694443"><ele>609.2</ele><time>2013-11-23T09:23:54.0000000+00:00</time></trkpt><trkpt lat="30.56712151" lon="34.74708176"><ele>609.8</ele><time>2013-11-23T09:23:59.0000000+00:00</time></trkpt><trkpt lat="30.56711578" lon="34.74720001"><ele>610.7</ele><time>2013-11-23T09:24:04.0000000+00:00</time></trkpt><trkpt lat="30.56711197" lon="34.74733353"><ele>610.5</ele><time>2013-11-23T09:24:09.0000000+00:00</time></trkpt><trkpt lat="30.56709671" lon="34.7474556"><ele>611.0</ele><time>2013-11-23T09:24:14.0000000+00:00</time></trkpt><trkpt lat="30.56708527" lon="34.74758148"><ele>611.9</ele><time>2013-11-23T09:24:19.0000000+00:00</time></trkpt><trkpt lat="30.56707573" lon="34.74772263"><ele>612.5</ele><time>2013-11-23T09:24:24.0000000+00:00</time></trkpt><trkpt lat="30.56706429" lon="34.74789047"><ele>612.8</ele><time>2013-11-23T09:24:29.0000000+00:00</time></trkpt><trkpt lat="30.56703949" lon="34.74804306"><ele>612.7</ele><time>2013-11-23T09:24:34.0000000+00:00</time></trkpt><trkpt lat="30.56702423" lon="34.7481575"><ele>612.4</ele><time>2013-11-23T09:24:39.0000000+00:00</time></trkpt><trkpt lat="30.56700516" lon="34.74831772"><ele>612.1</ele><time>2013-11-23T09:24:44.0000000+00:00</time></trkpt><trkpt lat="30.56696701" lon="34.74852753"><ele>611.5</ele><time>2013-11-23T09:24:49.0000000+00:00</time></trkpt><trkpt lat="30.56691933" lon="34.7487793"><ele>609.9</ele><time>2013-11-23T09:24:54.0000000+00:00</time></trkpt><trkpt lat="30.5668869" lon="34.74906158"><ele>608.1</ele><time>2013-11-23T09:24:59.0000000+00:00</time></trkpt><trkpt lat="30.56683731" lon="34.74936295"><ele>606.1</ele><time>2013-11-23T09:25:04.0000000+00:00</time></trkpt><trkpt lat="30.56686783" lon="34.74969864"><ele>604.7</ele><time>2013-11-23T09:25:09.0000000+00:00</time></trkpt><trkpt lat="30.56687164" lon="34.75005341"><ele>602.9</ele><time>2013-11-23T09:25:14.0000000+00:00</time></trkpt><trkpt lat="30.56684113" lon="34.7503891"><ele>603.5</ele><time>2013-11-23T09:25:19.0000000+00:00</time></trkpt><trkpt lat="30.5668354" lon="34.75059509"><ele>605.1</ele><time>2013-11-23T09:25:24.0000000+00:00</time></trkpt><trkpt lat="30.56682968" lon="34.75070953"><ele>606.1</ele><time>2013-11-23T09:25:29.0000000+00:00</time></trkpt><trkpt lat="30.56681633" lon="34.75085449"><ele>606.3</ele><time>2013-11-23T09:25:34.0000000+00:00</time></trkpt><trkpt lat="30.56685257" lon="34.75105286"><ele>603.9</ele><time>2013-11-23T09:25:39.0000000+00:00</time></trkpt><trkpt lat="30.56692505" lon="34.75138855"><ele>601.9</ele><time>2013-11-23T09:25:44.0000000+00:00</time></trkpt><trkpt lat="30.56700897" lon="34.75166321"><ele>602.5</ele><time>2013-11-23T09:25:49.0000000+00:00</time></trkpt><trkpt lat="30.56703568" lon="34.75180817"><ele>603.8</ele><time>2013-11-23T09:25:54.0000000+00:00</time></trkpt><trkpt lat="30.56705093" lon="34.75189209"><ele>605.2</ele><time>2013-11-23T09:25:59.0000000+00:00</time></trkpt><trkpt lat="30.56705666" lon="34.75196838"><ele>605.6</ele><time>2013-11-23T09:26:04.0000000+00:00</time></trkpt><trkpt lat="30.56706619" lon="34.75206757"><ele>605.6</ele><time>2013-11-23T09:26:09.0000000+00:00</time></trkpt><trkpt lat="30.56707192" lon="34.75209427"><ele>605.3</ele><time>2013-11-23T09:26:14.0000000+00:00</time></trkpt><trkpt lat="30.56707192" lon="34.75209427"><ele>605.3</ele><time>2013-11-23T09:26:19.0000000+00:00</time></trkpt><trkpt lat="30.56707192" lon="34.75209427"><ele>605.2</ele><time>2013-11-23T09:26:24.0000000+00:00</time></trkpt><trkpt lat="30.56707192" lon="34.75209427"><ele>605.2</ele><time>2013-11-23T09:26:29.0000000+00:00</time></trkpt><trkpt lat="30.56707382" lon="34.75209427"><ele>605.0</ele><time>2013-11-23T09:26:34.0000000+00:00</time></trkpt><trkpt lat="30.56707382" lon="34.75209427"><ele>604.9</ele><time>2013-11-23T09:26:39.0000000+00:00</time></trkpt><trkpt lat="30.56707573" lon="34.75209427"><ele>604.8</ele><time>2013-11-23T09:26:44.0000000+00:00</time></trkpt><trkpt lat="30.56707573" lon="34.75209427"><ele>604.7</ele><time>2013-11-23T09:26:49.0000000+00:00</time></trkpt><trkpt lat="30.56707573" lon="34.75209427"><ele>604.7</ele><time>2013-11-23T09:26:54.0000000+00:00</time></trkpt><trkpt lat="30.56707573" lon="34.75209427"><ele>604.7</ele><time>2013-11-23T09:26:59.0000000+00:00</time></trkpt><trkpt lat="30.56707573" lon="34.75209427"><ele>604.7</ele><time>2013-11-23T09:27:04.0000000+00:00</time></trkpt><trkpt lat="30.56707573" lon="34.75209427"><ele>604.6</ele><time>2013-11-23T09:27:09.0000000+00:00</time></trkpt><trkpt lat="30.56707573" lon="34.75209427"><ele>604.6</ele><time>2013-11-23T09:27:14.0000000+00:00</time></trkpt><trkpt lat="30.56707573" lon="34.75209427"><ele>604.6</ele><time>2013-11-23T09:27:19.0000000+00:00</time></trkpt><trkpt lat="30.56707573" lon="34.75209427"><ele>604.6</ele><time>2013-11-23T09:27:24.0000000+00:00</time></trkpt><trkpt lat="30.56707573" lon="34.75209427"><ele>604.6</ele><time>2013-11-23T09:27:29.0000000+00:00</time></trkpt><trkpt lat="30.56707573" lon="34.75209427"><ele>604.6</ele><time>2013-11-23T09:27:34.0000000+00:00</time></trkpt><trkpt lat="30.56707573" lon="34.75209427"><ele>604.6</ele><time>2013-11-23T09:27:39.0000000+00:00</time></trkpt><trkpt lat="30.56707764" lon="34.75209427"><ele>604.6</ele><time>2013-11-23T09:27:44.0000000+00:00</time></trkpt><trkpt lat="30.56707764" lon="34.75209427"><ele>604.5</ele><time>2013-11-23T09:27:49.0000000+00:00</time></trkpt><trkpt lat="30.56707764" lon="34.75209427"><ele>604.5</ele><time>2013-11-23T09:27:54.0000000+00:00</time></trkpt><trkpt lat="30.56707764" lon="34.75209808"><ele>604.5</ele><time>2013-11-23T09:27:59.0000000+00:00</time></trkpt><trkpt lat="30.56708908" lon="34.7522316"><ele>603.8</ele><time>2013-11-23T09:28:04.0000000+00:00</time></trkpt><trkpt lat="30.56710053" lon="34.75244522"><ele>602.8</ele><time>2013-11-23T09:28:09.0000000+00:00</time></trkpt><trkpt lat="30.56712341" lon="34.75263596"><ele>601.9</ele><time>2013-11-23T09:28:14.0000000+00:00</time></trkpt><trkpt lat="30.56713867" lon="34.75282669"><ele>602.1</ele><time>2013-11-23T09:28:19.0000000+00:00</time></trkpt><trkpt lat="30.56715775" lon="34.75300598"><ele>602.0</ele><time>2013-11-23T09:28:24.0000000+00:00</time></trkpt><trkpt lat="30.567173" lon="34.75315476"><ele>601.4</ele><time>2013-11-23T09:28:29.0000000+00:00</time></trkpt><trkpt lat="30.56718254" lon="34.75334168"><ele>601.6</ele><time>2013-11-23T09:28:34.0000000+00:00</time></trkpt><trkpt lat="30.56718445" lon="34.75355148"><ele>601.5</ele><time>2013-11-23T09:28:39.0000000+00:00</time></trkpt><trkpt lat="30.56716919" lon="34.75374603"><ele>601.6</ele><time>2013-11-23T09:28:44.0000000+00:00</time></trkpt><trkpt lat="30.56715584" lon="34.75394058"><ele>601.1</ele><time>2013-11-23T09:28:49.0000000+00:00</time></trkpt><trkpt lat="30.56711006" lon="34.75414658"><ele>600.2</ele><time>2013-11-23T09:28:54.0000000+00:00</time></trkpt><trkpt lat="30.56706238" lon="34.75435638"><ele>599.5</ele><time>2013-11-23T09:28:59.0000000+00:00</time></trkpt><trkpt lat="30.56700707" lon="34.75455475"><ele>597.6</ele><time>2013-11-23T09:29:04.0000000+00:00</time></trkpt><trkpt lat="30.56690979" lon="34.75474167"><ele>597.5</ele><time>2013-11-23T09:29:09.0000000+00:00</time></trkpt><trkpt lat="30.56678772" lon="34.75489044"><ele>597.0</ele><time>2013-11-23T09:29:14.0000000+00:00</time></trkpt><trkpt lat="30.56665802" lon="34.7550087"><ele>595.6</ele><time>2013-11-23T09:29:19.0000000+00:00</time></trkpt><trkpt lat="30.56652832" lon="34.75505447"><ele>594.3</ele><time>2013-11-23T09:29:24.0000000+00:00</time></trkpt><trkpt lat="30.56637573" lon="34.75510407"><ele>591.9</ele><time>2013-11-23T09:29:29.0000000+00:00</time></trkpt><trkpt lat="30.56620216" lon="34.7551651"><ele>590.5</ele><time>2013-11-23T09:29:34.0000000+00:00</time></trkpt><trkpt lat="30.56607628" lon="34.75516129"><ele>590.2</ele><time>2013-11-23T09:29:39.0000000+00:00</time></trkpt><trkpt lat="30.56594086" lon="34.75527573"><ele>586.5</ele><time>2013-11-23T09:29:44.0000000+00:00</time></trkpt><trkpt lat="30.56583405" lon="34.75548935"><ele>585.8</ele><time>2013-11-23T09:29:49.0000000+00:00</time></trkpt><trkpt lat="30.56588173" lon="34.75571442"><ele>587.1</ele><time>2013-11-23T09:29:54.0000000+00:00</time></trkpt><trkpt lat="30.56594276" lon="34.75587082"><ele>588.3</ele><time>2013-11-23T09:29:59.0000000+00:00</time></trkpt><trkpt lat="30.56604385" lon="34.75597"><ele>588.5</ele><time>2013-11-23T09:30:04.0000000+00:00</time></trkpt><trkpt lat="30.56606674" lon="34.75614166"><ele>588.2</ele><time>2013-11-23T09:30:09.0000000+00:00</time></trkpt><trkpt lat="30.56611443" lon="34.75630188"><ele>589.8</ele><time>2013-11-23T09:30:14.0000000+00:00</time></trkpt><trkpt lat="30.56617737" lon="34.75647736"><ele>590.8</ele><time>2013-11-23T09:30:19.0000000+00:00</time></trkpt><trkpt lat="30.5662384" lon="34.75669479"><ele>591.9</ele><time>2013-11-23T09:30:24.0000000+00:00</time></trkpt><trkpt lat="30.56625748" lon="34.7568779"><ele>592.1</ele><time>2013-11-23T09:30:29.0000000+00:00</time></trkpt><trkpt lat="30.56626701" lon="34.75701904"><ele>592.3</ele><time>2013-11-23T09:30:34.0000000+00:00</time></trkpt><trkpt lat="30.56628609" lon="34.75712204"><ele>592.6</ele><time>2013-11-23T09:30:39.0000000+00:00</time></trkpt><trkpt lat="30.56629753" lon="34.75722122"><ele>592.2</ele><time>2013-11-23T09:30:44.0000000+00:00</time></trkpt><trkpt lat="30.56632233" lon="34.75733566"><ele>591.9</ele><time>2013-11-23T09:30:49.0000000+00:00</time></trkpt><trkpt lat="30.56634331" lon="34.75749207"><ele>591.8</ele><time>2013-11-23T09:30:54.0000000+00:00</time></trkpt><trkpt lat="30.5663929" lon="34.7576828"><ele>591.6</ele><time>2013-11-23T09:30:59.0000000+00:00</time></trkpt><trkpt lat="30.56648254" lon="34.75788879"><ele>591.0</ele><time>2013-11-23T09:31:04.0000000+00:00</time></trkpt><trkpt lat="30.56653404" lon="34.75809097"><ele>590.9</ele><time>2013-11-23T09:31:09.0000000+00:00</time></trkpt><trkpt lat="30.56649971" lon="34.75823593"><ele>591.1</ele><time>2013-11-23T09:31:14.0000000+00:00</time></trkpt><trkpt lat="30.56636238" lon="34.75832748"><ele>590.0</ele><time>2013-11-23T09:31:19.0000000+00:00</time></trkpt><trkpt lat="30.56631279" lon="34.75848007"><ele>589.2</ele><time>2013-11-23T09:31:24.0000000+00:00</time></trkpt><trkpt lat="30.56640625" lon="34.75864029"><ele>590.0</ele><time>2013-11-23T09:31:29.0000000+00:00</time></trkpt><trkpt lat="30.56647873" lon="34.75873947"><ele>592.6</ele><time>2013-11-23T09:31:34.0000000+00:00</time></trkpt><trkpt lat="30.56655312" lon="34.75884247"><ele>592.8</ele><time>2013-11-23T09:31:39.0000000+00:00</time></trkpt><trkpt lat="30.56662941" lon="34.75894165"><ele>594.6</ele><time>2013-11-23T09:31:44.0000000+00:00</time></trkpt><trkpt lat="30.5667057" lon="34.75901794"><ele>596.7</ele><time>2013-11-23T09:31:49.0000000+00:00</time></trkpt><trkpt lat="30.56678581" lon="34.75911713"><ele>596.6</ele><time>2013-11-23T09:31:54.0000000+00:00</time></trkpt><trkpt lat="30.56684303" lon="34.75922775"><ele>598.3</ele><time>2013-11-23T09:31:59.0000000+00:00</time></trkpt><trkpt lat="30.56690025" lon="34.75935364"><ele>596.8</ele><time>2013-11-23T09:32:04.0000000+00:00</time></trkpt><trkpt lat="30.56693459" lon="34.75949478"><ele>597.0</ele><time>2013-11-23T09:32:09.0000000+00:00</time></trkpt><trkpt lat="30.56696129" lon="34.75964737"><ele>597.3</ele><time>2013-11-23T09:32:14.0000000+00:00</time></trkpt><trkpt lat="30.56702614" lon="34.75979233"><ele>596.0</ele><time>2013-11-23T09:32:19.0000000+00:00</time></trkpt><trkpt lat="30.56705666" lon="34.75992966"><ele>597.5</ele><time>2013-11-23T09:32:24.0000000+00:00</time></trkpt><trkpt lat="30.56708145" lon="34.76010895"><ele>596.9</ele><time>2013-11-23T09:32:29.0000000+00:00</time></trkpt><trkpt lat="30.56709671" lon="34.76027298"><ele>594.3</ele><time>2013-11-23T09:32:34.0000000+00:00</time></trkpt><trkpt lat="30.56709671" lon="34.76045227"><ele>594.5</ele><time>2013-11-23T09:32:39.0000000+00:00</time></trkpt><trkpt lat="30.5670929" lon="34.76065445"><ele>596.4</ele><time>2013-11-23T09:32:44.0000000+00:00</time></trkpt><trkpt lat="30.56708145" lon="34.76077652"><ele>597.1</ele><time>2013-11-23T09:32:49.0000000+00:00</time></trkpt><trkpt lat="30.56707382" lon="34.76092911"><ele>595.8</ele><time>2013-11-23T09:32:54.0000000+00:00</time></trkpt><trkpt lat="30.56707382" lon="34.76105499"><ele>593.5</ele><time>2013-11-23T09:32:59.0000000+00:00</time></trkpt><trkpt lat="30.56707001" lon="34.76121521"><ele>591.3</ele><time>2013-11-23T09:33:04.0000000+00:00</time></trkpt><trkpt lat="30.56705093" lon="34.76137924"><ele>590.6</ele><time>2013-11-23T09:33:09.0000000+00:00</time></trkpt><trkpt lat="30.56701279" lon="34.76158142"><ele>590.4</ele><time>2013-11-23T09:33:14.0000000+00:00</time></trkpt><trkpt lat="30.56698608" lon="34.76175308"><ele>590.2</ele><time>2013-11-23T09:33:19.0000000+00:00</time></trkpt><trkpt lat="30.56699944" lon="34.76195145"><ele>589.7</ele><time>2013-11-23T09:33:24.0000000+00:00</time></trkpt><trkpt lat="30.56701279" lon="34.76209641"><ele>589.0</ele><time>2013-11-23T09:33:29.0000000+00:00</time></trkpt><trkpt lat="30.56702423" lon="34.76225281"><ele>589.9</ele><time>2013-11-23T09:33:34.0000000+00:00</time></trkpt><trkpt lat="30.56701469" lon="34.76240158"><ele>592.2</ele><time>2013-11-23T09:33:39.0000000+00:00</time></trkpt><trkpt lat="30.56699562" lon="34.76244736"><ele>593.5</ele><time>2013-11-23T09:33:44.0000000+00:00</time></trkpt><trkpt lat="30.56699562" lon="34.76244736"><ele>593.5</ele><time>2013-11-23T09:33:49.0000000+00:00</time></trkpt><trkpt lat="30.56699562" lon="34.76244736"><ele>593.4</ele><time>2013-11-23T09:33:54.0000000+00:00</time></trkpt><trkpt lat="30.56699753" lon="34.76244736"><ele>593.3</ele><time>2013-11-23T09:33:59.0000000+00:00</time></trkpt><trkpt lat="30.56699753" lon="34.76244736"><ele>593.3</ele><time>2013-11-23T09:34:04.0000000+00:00</time></trkpt><trkpt lat="30.56699753" lon="34.76244736"><ele>593.3</ele><time>2013-11-23T09:34:09.0000000+00:00</time></trkpt><trkpt lat="30.56699562" lon="34.76245117"><ele>593.2</ele><time>2013-11-23T09:34:14.0000000+00:00</time></trkpt><trkpt lat="30.56694984" lon="34.76255417"><ele>593.4</ele><time>2013-11-23T09:34:19.0000000+00:00</time></trkpt><trkpt lat="30.56684494" lon="34.7627449"><ele>590.8</ele><time>2013-11-23T09:34:24.0000000+00:00</time></trkpt><trkpt lat="30.56670761" lon="34.76300812"><ele>590.4</ele><time>2013-11-23T09:34:29.0000000+00:00</time></trkpt><trkpt lat="30.56663704" lon="34.76322174"><ele>590.1</ele><time>2013-11-23T09:34:34.0000000+00:00</time></trkpt><trkpt lat="30.5665741" lon="34.76338959"><ele>591.0</ele><time>2013-11-23T09:34:39.0000000+00:00</time></trkpt><trkpt lat="30.56650353" lon="34.76351166"><ele>590.5</ele><time>2013-11-23T09:34:44.0000000+00:00</time></trkpt><trkpt lat="30.56649208" lon="34.76352692"><ele>590.9</ele><time>2013-11-23T09:34:49.0000000+00:00</time></trkpt><trkpt lat="30.56648254" lon="34.76353836"><ele>590.9</ele><time>2013-11-23T09:34:54.0000000+00:00</time></trkpt><trkpt lat="30.56646156" lon="34.76358032"><ele>591.6</ele><time>2013-11-23T09:34:59.0000000+00:00</time></trkpt><trkpt lat="30.56645775" lon="34.76362228"><ele>592.1</ele><time>2013-11-23T09:35:04.0000000+00:00</time></trkpt><trkpt lat="30.56646156" lon="34.76366043"><ele>592.7</ele><time>2013-11-23T09:35:09.0000000+00:00</time></trkpt><trkpt lat="30.56647301" lon="34.76371002"><ele>593.5</ele><time>2013-11-23T09:35:14.0000000+00:00</time></trkpt><trkpt lat="30.56648636" lon="34.76374817"><ele>595.6</ele><time>2013-11-23T09:35:19.0000000+00:00</time></trkpt><trkpt lat="30.5665226" lon="34.76382065"><ele>596.7</ele><time>2013-11-23T09:35:24.0000000+00:00</time></trkpt><trkpt lat="30.56660652" lon="34.76393509"><ele>597.4</ele><time>2013-11-23T09:35:29.0000000+00:00</time></trkpt><trkpt lat="30.56668854" lon="34.76403046"><ele>597.9</ele><time>2013-11-23T09:35:34.0000000+00:00</time></trkpt><trkpt lat="30.56677628" lon="34.76413727"><ele>598.1</ele><time>2013-11-23T09:35:39.0000000+00:00</time></trkpt><trkpt lat="30.5668869" lon="34.76424408"><ele>598.2</ele><time>2013-11-23T09:35:44.0000000+00:00</time></trkpt><trkpt lat="30.56696129" lon="34.76435852"><ele>598.8</ele><time>2013-11-23T09:35:49.0000000+00:00</time></trkpt><trkpt lat="30.5670414" lon="34.76444626"><ele>599.0</ele><time>2013-11-23T09:35:54.0000000+00:00</time></trkpt><trkpt lat="30.56710243" lon="34.76451874"><ele>599.3</ele><time>2013-11-23T09:35:59.0000000+00:00</time></trkpt><trkpt lat="30.56716347" lon="34.76461411"><ele>599.0</ele><time>2013-11-23T09:36:04.0000000+00:00</time></trkpt><trkpt lat="30.56721115" lon="34.76475143"><ele>598.0</ele><time>2013-11-23T09:36:09.0000000+00:00</time></trkpt><trkpt lat="30.56723213" lon="34.76488113"><ele>597.1</ele><time>2013-11-23T09:36:14.0000000+00:00</time></trkpt><trkpt lat="30.56726074" lon="34.76502991"><ele>596.7</ele><time>2013-11-23T09:36:19.0000000+00:00</time></trkpt><trkpt lat="30.56726265" lon="34.76519775"><ele>596.0</ele><time>2013-11-23T09:36:24.0000000+00:00</time></trkpt><trkpt lat="30.56724358" lon="34.76542664"><ele>593.9</ele><time>2013-11-23T09:36:29.0000000+00:00</time></trkpt><trkpt lat="30.56723023" lon="34.76567841"><ele>593.1</ele><time>2013-11-23T09:36:34.0000000+00:00</time></trkpt><trkpt lat="30.56727028" lon="34.76583099"><ele>594.1</ele><time>2013-11-23T09:36:39.0000000+00:00</time></trkpt><trkpt lat="30.5673027" lon="34.76600647"><ele>595.2</ele><time>2013-11-23T09:36:44.0000000+00:00</time></trkpt><trkpt lat="30.56732369" lon="34.76618958"><ele>594.8</ele><time>2013-11-23T09:36:49.0000000+00:00</time></trkpt><trkpt lat="30.56733704" lon="34.76636505"><ele>595.0</ele><time>2013-11-23T09:36:54.0000000+00:00</time></trkpt><trkpt lat="30.56735611" lon="34.76655579"><ele>596.0</ele><time>2013-11-23T09:36:59.0000000+00:00</time></trkpt><trkpt lat="30.56738854" lon="34.76675797"><ele>596.3</ele><time>2013-11-23T09:37:04.0000000+00:00</time></trkpt><trkpt lat="30.56744385" lon="34.7669487"><ele>596.6</ele><time>2013-11-23T09:37:09.0000000+00:00</time></trkpt><trkpt lat="30.56749344" lon="34.76710892"><ele>596.6</ele><time>2013-11-23T09:37:14.0000000+00:00</time></trkpt><trkpt lat="30.56755447" lon="34.76731873"><ele>594.4</ele><time>2013-11-23T09:37:19.0000000+00:00</time></trkpt><trkpt lat="30.56765556" lon="34.76754761"><ele>593.2</ele><time>2013-11-23T09:37:24.0000000+00:00</time></trkpt><trkpt lat="30.56772232" lon="34.76768112"><ele>593.9</ele><time>2013-11-23T09:37:29.0000000+00:00</time></trkpt><trkpt lat="30.56778526" lon="34.76780319"><ele>594.5</ele><time>2013-11-23T09:37:34.0000000+00:00</time></trkpt><trkpt lat="30.56787682" lon="34.76797867"><ele>595.2</ele><time>2013-11-23T09:37:39.0000000+00:00</time></trkpt><trkpt lat="30.56795311" lon="34.76818085"><ele>593.8</ele><time>2013-11-23T09:37:44.0000000+00:00</time></trkpt><trkpt lat="30.56801033" lon="34.76835632"><ele>594.3</ele><time>2013-11-23T09:37:49.0000000+00:00</time></trkpt><trkpt lat="30.5680542" lon="34.76848602"><ele>595.1</ele><time>2013-11-23T09:37:54.0000000+00:00</time></trkpt><trkpt lat="30.56811714" lon="34.76863098"><ele>596.1</ele><time>2013-11-23T09:37:59.0000000+00:00</time></trkpt><trkpt lat="30.56816673" lon="34.7687645"><ele>597.5</ele><time>2013-11-23T09:38:04.0000000+00:00</time></trkpt><trkpt lat="30.56822968" lon="34.7689476"><ele>597.5</ele><time>2013-11-23T09:38:09.0000000+00:00</time></trkpt><trkpt lat="30.56827736" lon="34.7691536"><ele>597.0</ele><time>2013-11-23T09:38:14.0000000+00:00</time></trkpt><trkpt lat="30.56833077" lon="34.76935196"><ele>596.6</ele><time>2013-11-23T09:38:19.0000000+00:00</time></trkpt><trkpt lat="30.56839943" lon="34.76955032"><ele>596.0</ele><time>2013-11-23T09:38:24.0000000+00:00</time></trkpt><trkpt lat="30.56846046" lon="34.76974487"><ele>595.8</ele><time>2013-11-23T09:38:29.0000000+00:00</time></trkpt><trkpt lat="30.56852341" lon="34.76994705"><ele>595.8</ele><time>2013-11-23T09:38:34.0000000+00:00</time></trkpt><trkpt lat="30.56860542" lon="34.77017212"><ele>596.1</ele><time>2013-11-23T09:38:39.0000000+00:00</time></trkpt><trkpt lat="30.56869125" lon="34.77038956"><ele>596.6</ele><time>2013-11-23T09:38:44.0000000+00:00</time></trkpt><trkpt lat="30.56879044" lon="34.77057266"><ele>596.0</ele><time>2013-11-23T09:38:49.0000000+00:00</time></trkpt><trkpt lat="30.56886482" lon="34.77072144"><ele>595.3</ele><time>2013-11-23T09:38:54.0000000+00:00</time></trkpt><trkpt lat="30.56893349" lon="34.77083588"><ele>594.5</ele><time>2013-11-23T09:38:59.0000000+00:00</time></trkpt><trkpt lat="30.56901169" lon="34.77098084"><ele>591.7</ele><time>2013-11-23T09:39:04.0000000+00:00</time></trkpt><trkpt lat="30.5690155" lon="34.77124023"><ele>588.0</ele><time>2013-11-23T09:39:09.0000000+00:00</time></trkpt><trkpt lat="30.56898689" lon="34.771492"><ele>587.9</ele><time>2013-11-23T09:39:14.0000000+00:00</time></trkpt><trkpt lat="30.56897736" lon="34.77159882"><ele>587.5</ele><time>2013-11-23T09:39:19.0000000+00:00</time></trkpt><trkpt lat="30.56900215" lon="34.77170563"><ele>588.6</ele><time>2013-11-23T09:39:24.0000000+00:00</time></trkpt><trkpt lat="30.56902885" lon="34.77177429"><ele>589.6</ele><time>2013-11-23T09:39:29.0000000+00:00</time></trkpt><trkpt lat="30.56905937" lon="34.77183533"><ele>590.1</ele><time>2013-11-23T09:39:34.0000000+00:00</time></trkpt><trkpt lat="30.56908417" lon="34.77190399"><ele>591.3</ele><time>2013-11-23T09:39:39.0000000+00:00</time></trkpt><trkpt lat="30.56912613" lon="34.77197647"><ele>591.9</ele><time>2013-11-23T09:39:44.0000000+00:00</time></trkpt><trkpt lat="30.56916618" lon="34.77205658"><ele>591.2</ele><time>2013-11-23T09:39:49.0000000+00:00</time></trkpt><trkpt lat="30.56921768" lon="34.77214432"><ele>591.7</ele><time>2013-11-23T09:39:54.0000000+00:00</time></trkpt><trkpt lat="30.56926918" lon="34.77224731"><ele>592.1</ele><time>2013-11-23T09:39:59.0000000+00:00</time></trkpt><trkpt lat="30.56931496" lon="34.77238083"><ele>592.9</ele><time>2013-11-23T09:40:04.0000000+00:00</time></trkpt><trkpt lat="30.56936264" lon="34.77254868"><ele>593.9</ele><time>2013-11-23T09:40:09.0000000+00:00</time></trkpt><trkpt lat="30.56941223" lon="34.77273178"><ele>593.0</ele><time>2013-11-23T09:40:14.0000000+00:00</time></trkpt><trkpt lat="30.56945038" lon="34.77292633"><ele>593.5</ele><time>2013-11-23T09:40:19.0000000+00:00</time></trkpt><trkpt lat="30.56948662" lon="34.77310562"><ele>593.9</ele><time>2013-11-23T09:40:24.0000000+00:00</time></trkpt><trkpt lat="30.56949043" lon="34.77327347"><ele>592.9</ele><time>2013-11-23T09:40:29.0000000+00:00</time></trkpt><trkpt lat="30.56951332" lon="34.77348328"><ele>592.8</ele><time>2013-11-23T09:40:34.0000000+00:00</time></trkpt><trkpt lat="30.56954575" lon="34.77366638"><ele>592.4</ele><time>2013-11-23T09:40:39.0000000+00:00</time></trkpt><trkpt lat="30.56960678" lon="34.77388763"><ele>592.9</ele><time>2013-11-23T09:40:44.0000000+00:00</time></trkpt><trkpt lat="30.56962776" lon="34.77407455"><ele>592.8</ele><time>2013-11-23T09:40:49.0000000+00:00</time></trkpt><trkpt lat="30.56967163" lon="34.77427673"><ele>591.3</ele><time>2013-11-23T09:40:54.0000000+00:00</time></trkpt><trkpt lat="30.56970787" lon="34.77445602"><ele>590.7</ele><time>2013-11-23T09:40:59.0000000+00:00</time></trkpt><trkpt lat="30.56974793" lon="34.77468109"><ele>590.6</ele><time>2013-11-23T09:41:04.0000000+00:00</time></trkpt><trkpt lat="30.56977844" lon="34.77490616"><ele>591.0</ele><time>2013-11-23T09:41:09.0000000+00:00</time></trkpt><trkpt lat="30.56980324" lon="34.77508926"><ele>591.3</ele><time>2013-11-23T09:41:14.0000000+00:00</time></trkpt><trkpt lat="30.5698204" lon="34.77529144"><ele>590.7</ele><time>2013-11-23T09:41:19.0000000+00:00</time></trkpt><trkpt lat="30.5698185" lon="34.77550507"><ele>590.5</ele><time>2013-11-23T09:41:24.0000000+00:00</time></trkpt><trkpt lat="30.56980133" lon="34.77572632"><ele>589.3</ele><time>2013-11-23T09:41:29.0000000+00:00</time></trkpt><trkpt lat="30.5697937" lon="34.77592468"><ele>589.6</ele><time>2013-11-23T09:41:34.0000000+00:00</time></trkpt><trkpt lat="30.56978226" lon="34.77614212"><ele>590.1</ele><time>2013-11-23T09:41:39.0000000+00:00</time></trkpt><trkpt lat="30.56976509" lon="34.77635574"><ele>589.5</ele><time>2013-11-23T09:41:44.0000000+00:00</time></trkpt><trkpt lat="30.56975555" lon="34.776577"><ele>589.3</ele><time>2013-11-23T09:41:49.0000000+00:00</time></trkpt><trkpt lat="30.56971741" lon="34.77679443"><ele>588.1</ele><time>2013-11-23T09:41:54.0000000+00:00</time></trkpt><trkpt lat="30.56970596" lon="34.77700043"><ele>586.9</ele><time>2013-11-23T09:41:59.0000000+00:00</time></trkpt><trkpt lat="30.56972122" lon="34.77724838"><ele>586.5</ele><time>2013-11-23T09:42:04.0000000+00:00</time></trkpt><trkpt lat="30.56973267" lon="34.77749252"><ele>585.6</ele><time>2013-11-23T09:42:09.0000000+00:00</time></trkpt><trkpt lat="30.56977654" lon="34.77776337"><ele>584.5</ele><time>2013-11-23T09:42:14.0000000+00:00</time></trkpt><trkpt lat="30.56983948" lon="34.7779808"><ele>586.6</ele><time>2013-11-23T09:42:19.0000000+00:00</time></trkpt><trkpt lat="30.56989861" lon="34.77807999"><ele>587.4</ele><time>2013-11-23T09:42:24.0000000+00:00</time></trkpt><trkpt lat="30.5699482" lon="34.77823257"><ele>587.6</ele><time>2013-11-23T09:42:29.0000000+00:00</time></trkpt><trkpt lat="30.56998253" lon="34.77839661"><ele>587.0</ele><time>2013-11-23T09:42:34.0000000+00:00</time></trkpt><trkpt lat="30.57001686" lon="34.77857208"><ele>586.8</ele><time>2013-11-23T09:42:39.0000000+00:00</time></trkpt><trkpt lat="30.57005692" lon="34.77877426"><ele>585.6</ele><time>2013-11-23T09:42:44.0000000+00:00</time></trkpt><trkpt lat="30.57010269" lon="34.77899933"><ele>584.8</ele><time>2013-11-23T09:42:49.0000000+00:00</time></trkpt><trkpt lat="30.57011795" lon="34.77919006"><ele>584.4</ele><time>2013-11-23T09:42:54.0000000+00:00</time></trkpt><trkpt lat="30.5701561" lon="34.77939987"><ele>584.3</ele><time>2013-11-23T09:42:59.0000000+00:00</time></trkpt><trkpt lat="30.57023621" lon="34.7796135"><ele>583.6</ele><time>2013-11-23T09:43:04.0000000+00:00</time></trkpt><trkpt lat="30.57030869" lon="34.77977371"><ele>583.8</ele><time>2013-11-23T09:43:09.0000000+00:00</time></trkpt><trkpt lat="30.57039261" lon="34.77993774"><ele>584.7</ele><time>2013-11-23T09:43:14.0000000+00:00</time></trkpt><trkpt lat="30.57047844" lon="34.78009796"><ele>585.5</ele><time>2013-11-23T09:43:19.0000000+00:00</time></trkpt><trkpt lat="30.57056236" lon="34.78024292"><ele>585.7</ele><time>2013-11-23T09:43:24.0000000+00:00</time></trkpt><trkpt lat="30.57066727" lon="34.78040314"><ele>585.7</ele><time>2013-11-23T09:43:29.0000000+00:00</time></trkpt><trkpt lat="30.57077026" lon="34.78058243"><ele>585.5</ele><time>2013-11-23T09:43:34.0000000+00:00</time></trkpt><trkpt lat="30.57086372" lon="34.78075409"><ele>585.4</ele><time>2013-11-23T09:43:39.0000000+00:00</time></trkpt><trkpt lat="30.5709362" lon="34.78090668"><ele>585.0</ele><time>2013-11-23T09:43:44.0000000+00:00</time></trkpt><trkpt lat="30.57100487" lon="34.78104019"><ele>585.0</ele><time>2013-11-23T09:43:49.0000000+00:00</time></trkpt><trkpt lat="30.57115555" lon="34.78121567"><ele>583.2</ele><time>2013-11-23T09:43:54.0000000+00:00</time></trkpt><trkpt lat="30.57118988" lon="34.78139877"><ele>582.7</ele><time>2013-11-23T09:43:59.0000000+00:00</time></trkpt><trkpt lat="30.57113266" lon="34.78156662"><ele>581.0</ele><time>2013-11-23T09:44:04.0000000+00:00</time></trkpt><trkpt lat="30.57111359" lon="34.78160095"><ele>580.6</ele><time>2013-11-23T09:44:09.0000000+00:00</time></trkpt><trkpt lat="30.57109642" lon="34.7816391"><ele>581.7</ele><time>2013-11-23T09:44:14.0000000+00:00</time></trkpt><trkpt lat="30.57109261" lon="34.78165054"><ele>582.0</ele><time>2013-11-23T09:44:19.0000000+00:00</time></trkpt><trkpt lat="30.57109451" lon="34.78166199"><ele>582.4</ele><time>2013-11-23T09:44:24.0000000+00:00</time></trkpt><trkpt lat="30.57112122" lon="34.78176117"><ele>582.5</ele><time>2013-11-23T09:44:29.0000000+00:00</time></trkpt><trkpt lat="30.57114983" lon="34.7818985"><ele>582.3</ele><time>2013-11-23T09:44:34.0000000+00:00</time></trkpt><trkpt lat="30.57117271" lon="34.78204346"><ele>582.4</ele><time>2013-11-23T09:44:39.0000000+00:00</time></trkpt><trkpt lat="30.57120895" lon="34.78218842"><ele>582.4</ele><time>2013-11-23T09:44:44.0000000+00:00</time></trkpt><trkpt lat="30.57125664" lon="34.7823143"><ele>582.8</ele><time>2013-11-23T09:44:49.0000000+00:00</time></trkpt><trkpt lat="30.57133865" lon="34.78245163"><ele>583.2</ele><time>2013-11-23T09:44:54.0000000+00:00</time></trkpt><trkpt lat="30.57143021" lon="34.78258514"><ele>583.1</ele><time>2013-11-23T09:44:59.0000000+00:00</time></trkpt><trkpt lat="30.57155609" lon="34.78277206"><ele>582.7</ele><time>2013-11-23T09:45:04.0000000+00:00</time></trkpt><trkpt lat="30.57174683" lon="34.78293991"><ele>582.6</ele><time>2013-11-23T09:45:09.0000000+00:00</time></trkpt><trkpt lat="30.57190895" lon="34.78312683"><ele>581.0</ele><time>2013-11-23T09:45:14.0000000+00:00</time></trkpt><trkpt lat="30.57201386" lon="34.78327179"><ele>580.2</ele><time>2013-11-23T09:45:19.0000000+00:00</time></trkpt><trkpt lat="30.57208443" lon="34.78341675"><ele>580.2</ele><time>2013-11-23T09:45:24.0000000+00:00</time></trkpt><trkpt lat="30.57216263" lon="34.78353119"><ele>580.3</ele><time>2013-11-23T09:45:29.0000000+00:00</time></trkpt><trkpt lat="30.57223511" lon="34.78364182"><ele>580.1</ele><time>2013-11-23T09:45:34.0000000+00:00</time></trkpt><trkpt lat="30.57227135" lon="34.78381729"><ele>581.1</ele><time>2013-11-23T09:45:39.0000000+00:00</time></trkpt><trkpt lat="30.57230568" lon="34.78401184"><ele>580.9</ele><time>2013-11-23T09:45:44.0000000+00:00</time></trkpt><trkpt lat="30.57236671" lon="34.78415299"><ele>580.2</ele><time>2013-11-23T09:45:49.0000000+00:00</time></trkpt><trkpt lat="30.57243347" lon="34.78426743"><ele>581.2</ele><time>2013-11-23T09:45:54.0000000+00:00</time></trkpt><trkpt lat="30.5724659" lon="34.78439713"><ele>581.8</ele><time>2013-11-23T09:45:59.0000000+00:00</time></trkpt><trkpt lat="30.57250595" lon="34.78452301"><ele>581.7</ele><time>2013-11-23T09:46:04.0000000+00:00</time></trkpt><trkpt lat="30.57251167" lon="34.78455353"><ele>581.3</ele><time>2013-11-23T09:46:09.0000000+00:00</time></trkpt><trkpt lat="30.57251167" lon="34.78455353"><ele>581.3</ele><time>2013-11-23T09:46:14.0000000+00:00</time></trkpt><trkpt lat="30.57251167" lon="34.78454971"><ele>581.3</ele><time>2013-11-23T09:46:19.0000000+00:00</time></trkpt><trkpt lat="30.57251167" lon="34.78454971"><ele>581.3</ele><time>2013-11-23T09:46:24.0000000+00:00</time></trkpt><trkpt lat="30.57251358" lon="34.78456116"><ele>581.4</ele><time>2013-11-23T09:46:29.0000000+00:00</time></trkpt><trkpt lat="30.5725441" lon="34.7846756"><ele>581.5</ele><time>2013-11-23T09:46:34.0000000+00:00</time></trkpt><trkpt lat="30.5725956" lon="34.78481674"><ele>581.2</ele><time>2013-11-23T09:46:39.0000000+00:00</time></trkpt><trkpt lat="30.57270432" lon="34.78497315"><ele>581.8</ele><time>2013-11-23T09:46:44.0000000+00:00</time></trkpt><trkpt lat="30.57278824" lon="34.78515625"><ele>582.0</ele><time>2013-11-23T09:46:49.0000000+00:00</time></trkpt><trkpt lat="30.57288551" lon="34.78533936"><ele>583.3</ele><time>2013-11-23T09:46:54.0000000+00:00</time></trkpt><trkpt lat="30.57296372" lon="34.78549957"><ele>583.3</ele><time>2013-11-23T09:46:59.0000000+00:00</time></trkpt><trkpt lat="30.5730381" lon="34.78569794"><ele>583.0</ele><time>2013-11-23T09:47:04.0000000+00:00</time></trkpt><trkpt lat="30.57309532" lon="34.78588867"><ele>582.0</ele><time>2013-11-23T09:47:09.0000000+00:00</time></trkpt><trkpt lat="30.57327652" lon="34.78604126"><ele>580.8</ele><time>2013-11-23T09:47:14.0000000+00:00</time></trkpt><trkpt lat="30.57342339" lon="34.78616333"><ele>581.6</ele><time>2013-11-23T09:47:19.0000000+00:00</time></trkpt><trkpt lat="30.57356072" lon="34.78633499"><ele>582.6</ele><time>2013-11-23T09:47:24.0000000+00:00</time></trkpt><trkpt lat="30.57366371" lon="34.78655243"><ele>583.2</ele><time>2013-11-23T09:47:29.0000000+00:00</time></trkpt><trkpt lat="30.57372093" lon="34.78675461"><ele>584.2</ele><time>2013-11-23T09:47:34.0000000+00:00</time></trkpt><trkpt lat="30.57376289" lon="34.78690338"><ele>584.9</ele><time>2013-11-23T09:47:39.0000000+00:00</time></trkpt><trkpt lat="30.57382393" lon="34.78704453"><ele>583.8</ele><time>2013-11-23T09:47:44.0000000+00:00</time></trkpt><trkpt lat="30.57391548" lon="34.78718567"><ele>582.8</ele><time>2013-11-23T09:47:49.0000000+00:00</time></trkpt><trkpt lat="30.57408333" lon="34.78738403"><ele>580.7</ele><time>2013-11-23T09:47:54.0000000+00:00</time></trkpt><trkpt lat="30.57422447" lon="34.78756714"><ele>579.8</ele><time>2013-11-23T09:47:59.0000000+00:00</time></trkpt><trkpt lat="30.5742569" lon="34.78775024"><ele>577.4</ele><time>2013-11-23T09:48:04.0000000+00:00</time></trkpt><trkpt lat="30.57419968" lon="34.78794098"><ele>574.3</ele><time>2013-11-23T09:48:09.0000000+00:00</time></trkpt><trkpt lat="30.57412529" lon="34.78821945"><ele>572.7</ele><time>2013-11-23T09:48:14.0000000+00:00</time></trkpt><trkpt lat="30.57423019" lon="34.78834152"><ele>572.3</ele><time>2013-11-23T09:48:19.0000000+00:00</time></trkpt><trkpt lat="30.57438469" lon="34.78840256"><ele>573.0</ele><time>2013-11-23T09:48:24.0000000+00:00</time></trkpt><trkpt lat="30.57453919" lon="34.78843308"><ele>573.1</ele><time>2013-11-23T09:48:29.0000000+00:00</time></trkpt><trkpt lat="30.57470512" lon="34.78848267"><ele>573.7</ele><time>2013-11-23T09:48:34.0000000+00:00</time></trkpt><trkpt lat="30.57484055" lon="34.78852844"><ele>573.5</ele><time>2013-11-23T09:48:39.0000000+00:00</time></trkpt><trkpt lat="30.5749588" lon="34.78855896"><ele>573.5</ele><time>2013-11-23T09:48:44.0000000+00:00</time></trkpt><trkpt lat="30.57498932" lon="34.78858185"><ele>574.1</ele><time>2013-11-23T09:48:49.0000000+00:00</time></trkpt><trkpt lat="30.5749855" lon="34.78858185"><ele>574.5</ele><time>2013-11-23T09:48:54.0000000+00:00</time></trkpt><trkpt lat="30.5749855" lon="34.78858185"><ele>574.5</ele><time>2013-11-23T09:48:59.0000000+00:00</time></trkpt><trkpt lat="30.5749855" lon="34.78857803"><ele>574.5</ele><time>2013-11-23T09:49:04.0000000+00:00</time></trkpt><trkpt lat="30.57498741" lon="34.78857422"><ele>574.2</ele><time>2013-11-23T09:49:09.0000000+00:00</time></trkpt><trkpt lat="30.57498741" lon="34.78857422"><ele>574.0</ele><time>2013-11-23T09:49:14.0000000+00:00</time></trkpt><trkpt lat="30.5749855" lon="34.78857422"><ele>573.9</ele><time>2013-11-23T09:49:19.0000000+00:00</time></trkpt><trkpt lat="30.5749855" lon="34.78857422"><ele>573.7</ele><time>2013-11-23T09:49:24.0000000+00:00</time></trkpt><trkpt lat="30.5749855" lon="34.78857422"><ele>573.7</ele><time>2013-11-23T09:49:29.0000000+00:00</time></trkpt><trkpt lat="30.5749855" lon="34.78857422"><ele>573.6</ele><time>2013-11-23T09:49:34.0000000+00:00</time></trkpt><trkpt lat="30.5749855" lon="34.78857422"><ele>573.6</ele><time>2013-11-23T09:49:39.0000000+00:00</time></trkpt><trkpt lat="30.5749855" lon="34.7885704"><ele>573.5</ele><time>2013-11-23T09:49:44.0000000+00:00</time></trkpt><trkpt lat="30.5749855" lon="34.7885704"><ele>573.5</ele><time>2013-11-23T09:49:49.0000000+00:00</time></trkpt><trkpt lat="30.5749855" lon="34.78857422"><ele>573.5</ele><time>2013-11-23T09:49:54.0000000+00:00</time></trkpt><trkpt lat="30.5749855" lon="34.7885704"><ele>573.4</ele><time>2013-11-23T09:49:59.0000000+00:00</time></trkpt><trkpt lat="30.5749836" lon="34.78857422"><ele>573.4</ele><time>2013-11-23T09:50:04.0000000+00:00</time></trkpt><trkpt lat="30.5749836" lon="34.7885704"><ele>573.3</ele><time>2013-11-23T09:50:09.0000000+00:00</time></trkpt><trkpt lat="30.5749836" lon="34.7885704"><ele>573.3</ele><time>2013-11-23T09:50:14.0000000+00:00</time></trkpt><trkpt lat="30.5749836" lon="34.7885704"><ele>573.3</ele><time>2013-11-23T09:50:19.0000000+00:00</time></trkpt><trkpt lat="30.5749836" lon="34.7885704"><ele>573.2</ele><time>2013-11-23T09:50:24.0000000+00:00</time></trkpt><trkpt lat="30.5749836" lon="34.7885704"><ele>573.2</ele><time>2013-11-23T09:50:29.0000000+00:00</time></trkpt><trkpt lat="30.5749836" lon="34.7885704"><ele>573.2</ele><time>2013-11-23T09:50:34.0000000+00:00</time></trkpt><trkpt lat="30.5749836" lon="34.7885704"><ele>573.1</ele><time>2013-11-23T09:50:39.0000000+00:00</time></trkpt><trkpt lat="30.5749836" lon="34.7885704"><ele>573.1</ele><time>2013-11-23T09:50:44.0000000+00:00</time></trkpt><trkpt lat="30.57498169" lon="34.7885704"><ele>573.0</ele><time>2013-11-23T09:50:49.0000000+00:00</time></trkpt><trkpt lat="30.57498169" lon="34.7885704"><ele>573.0</ele><time>2013-11-23T09:50:54.0000000+00:00</time></trkpt><trkpt lat="30.57498169" lon="34.7885704"><ele>573.0</ele><time>2013-11-23T09:50:59.0000000+00:00</time></trkpt><trkpt lat="30.57498169" lon="34.7885704"><ele>573.0</ele><time>2013-11-23T09:51:04.0000000+00:00</time></trkpt><trkpt lat="30.57498169" lon="34.7885704"><ele>572.9</ele><time>2013-11-23T09:51:09.0000000+00:00</time></trkpt><trkpt lat="30.57498169" lon="34.7885704"><ele>572.9</ele><time>2013-11-23T09:51:14.0000000+00:00</time></trkpt><trkpt lat="30.57498169" lon="34.7885704"><ele>572.9</ele><time>2013-11-23T09:51:19.0000000+00:00</time></trkpt><trkpt lat="30.57498169" lon="34.7885704"><ele>572.8</ele><time>2013-11-23T09:51:24.0000000+00:00</time></trkpt><trkpt lat="30.57498169" lon="34.7885704"><ele>572.8</ele><time>2013-11-23T09:51:29.0000000+00:00</time></trkpt><trkpt lat="30.57498169" lon="34.7885704"><ele>572.8</ele><time>2013-11-23T09:51:34.0000000+00:00</time></trkpt><trkpt lat="30.57498169" lon="34.7885704"><ele>572.7</ele><time>2013-11-23T09:51:39.0000000+00:00</time></trkpt><trkpt lat="30.57498169" lon="34.7885704"><ele>572.7</ele><time>2013-11-23T09:51:44.0000000+00:00</time></trkpt><trkpt lat="30.57497978" lon="34.7885704"><ele>572.7</ele><time>2013-11-23T09:51:49.0000000+00:00</time></trkpt><trkpt lat="30.57497978" lon="34.7885704"><ele>572.6</ele><time>2013-11-23T09:51:54.0000000+00:00</time></trkpt><trkpt lat="30.57497978" lon="34.7885704"><ele>572.6</ele><time>2013-11-23T09:51:59.0000000+00:00</time></trkpt><trkpt lat="30.57497978" lon="34.7885704"><ele>572.6</ele><time>2013-11-23T09:52:04.0000000+00:00</time></trkpt><trkpt lat="30.57497978" lon="34.7885704"><ele>572.5</ele><time>2013-11-23T09:52:09.0000000+00:00</time></trkpt><trkpt lat="30.57497978" lon="34.7885704"><ele>572.5</ele><time>2013-11-23T09:52:14.0000000+00:00</time></trkpt><trkpt lat="30.57497978" lon="34.7885704"><ele>572.5</ele><time>2013-11-23T09:52:19.0000000+00:00</time></trkpt><trkpt lat="30.57497978" lon="34.7885704"><ele>572.4</ele><time>2013-11-23T09:52:24.0000000+00:00</time></trkpt><trkpt lat="30.57497978" lon="34.7885704"><ele>572.4</ele><time>2013-11-23T09:52:29.0000000+00:00</time></trkpt><trkpt lat="30.57497978" lon="34.7885704"><ele>572.3</ele><time>2013-11-23T09:52:34.0000000+00:00</time></trkpt><trkpt lat="30.57497978" lon="34.7885704"><ele>572.3</ele><time>2013-11-23T09:52:39.0000000+00:00</time></trkpt><trkpt lat="30.57497978" lon="34.7885704"><ele>572.3</ele><time>2013-11-23T09:52:44.0000000+00:00</time></trkpt><trkpt lat="30.57497978" lon="34.7885704"><ele>572.2</ele><time>2013-11-23T09:52:49.0000000+00:00</time></trkpt><trkpt lat="30.57497788" lon="34.7885704"><ele>572.2</ele><time>2013-11-23T09:52:54.0000000+00:00</time></trkpt><trkpt lat="30.57497788" lon="34.7885704"><ele>572.2</ele><time>2013-11-23T09:52:59.0000000+00:00</time></trkpt><trkpt lat="30.57497788" lon="34.7885704"><ele>572.1</ele><time>2013-11-23T09:53:04.0000000+00:00</time></trkpt><trkpt lat="30.57497788" lon="34.7885704"><ele>572.1</ele><time>2013-11-23T09:53:09.0000000+00:00</time></trkpt><trkpt lat="30.57497788" lon="34.7885704"><ele>572.1</ele><time>2013-11-23T09:53:14.0000000+00:00</time></trkpt><trkpt lat="30.57497788" lon="34.7885704"><ele>572.0</ele><time>2013-11-23T09:53:19.0000000+00:00</time></trkpt><trkpt lat="30.57497788" lon="34.7885704"><ele>572.0</ele><time>2013-11-23T09:53:24.0000000+00:00</time></trkpt><trkpt lat="30.57497788" lon="34.7885704"><ele>572.0</ele><time>2013-11-23T09:53:29.0000000+00:00</time></trkpt><trkpt lat="30.57497788" lon="34.7885704"><ele>571.9</ele><time>2013-11-23T09:53:34.0000000+00:00</time></trkpt><trkpt lat="30.57497788" lon="34.7885704"><ele>571.9</ele><time>2013-11-23T09:53:39.0000000+00:00</time></trkpt><trkpt lat="30.57497788" lon="34.7885704"><ele>571.9</ele><time>2013-11-23T09:53:44.0000000+00:00</time></trkpt><trkpt lat="30.57497597" lon="34.7885704"><ele>571.8</ele><time>2013-11-23T09:53:49.0000000+00:00</time></trkpt><trkpt lat="30.57497597" lon="34.7885704"><ele>571.8</ele><time>2013-11-23T09:53:54.0000000+00:00</time></trkpt><trkpt lat="30.57497597" lon="34.7885704"><ele>571.8</ele><time>2013-11-23T09:53:59.0000000+00:00</time></trkpt><trkpt lat="30.57497597" lon="34.7885704"><ele>571.7</ele><time>2013-11-23T09:54:04.0000000+00:00</time></trkpt><trkpt lat="30.57497597" lon="34.7885704"><ele>571.7</ele><time>2013-11-23T09:54:09.0000000+00:00</time></trkpt><trkpt lat="30.57497597" lon="34.7885704"><ele>571.7</ele><time>2013-11-23T09:54:14.0000000+00:00</time></trkpt><trkpt lat="30.57497597" lon="34.7885704"><ele>571.6</ele><time>2013-11-23T09:54:19.0000000+00:00</time></trkpt><trkpt lat="30.57497597" lon="34.7885704"><ele>571.6</ele><time>2013-11-23T09:54:24.0000000+00:00</time></trkpt><trkpt lat="30.57497597" lon="34.7885704"><ele>571.6</ele><time>2013-11-23T09:54:29.0000000+00:00</time></trkpt><trkpt lat="30.57497597" lon="34.7885704"><ele>571.5</ele><time>2013-11-23T09:54:34.0000000+00:00</time></trkpt><trkpt lat="30.57497597" lon="34.7885704"><ele>571.5</ele><time>2013-11-23T09:54:39.0000000+00:00</time></trkpt><trkpt lat="30.57497406" lon="34.7885704"><ele>571.5</ele><time>2013-11-23T09:54:44.0000000+00:00</time></trkpt><trkpt lat="30.57497406" lon="34.7885704"><ele>571.5</ele><time>2013-11-23T09:54:49.0000000+00:00</time></trkpt><trkpt lat="30.57497406" lon="34.7885704"><ele>571.4</ele><time>2013-11-23T09:54:54.0000000+00:00</time></trkpt><trkpt lat="30.57497406" lon="34.7885704"><ele>571.4</ele><time>2013-11-23T09:54:59.0000000+00:00</time></trkpt><trkpt lat="30.57497406" lon="34.7885704"><ele>571.4</ele><time>2013-11-23T09:55:04.0000000+00:00</time></trkpt><trkpt lat="30.57497406" lon="34.7885704"><ele>571.3</ele><time>2013-11-23T09:55:09.0000000+00:00</time></trkpt><trkpt lat="30.57497406" lon="34.7885704"><ele>571.3</ele><time>2013-11-23T09:55:14.0000000+00:00</time></trkpt><trkpt lat="30.57497406" lon="34.7885704"><ele>571.3</ele><time>2013-11-23T09:55:19.0000000+00:00</time></trkpt><trkpt lat="30.57497406" lon="34.7885704"><ele>571.3</ele><time>2013-11-23T09:55:24.0000000+00:00</time></trkpt><trkpt lat="30.57497406" lon="34.7885704"><ele>571.2</ele><time>2013-11-23T09:55:29.0000000+00:00</time></trkpt><trkpt lat="30.57497406" lon="34.7885704"><ele>571.2</ele><time>2013-11-23T09:55:34.0000000+00:00</time></trkpt><trkpt lat="30.57497215" lon="34.7885704"><ele>571.2</ele><time>2013-11-23T09:55:39.0000000+00:00</time></trkpt><trkpt lat="30.57497215" lon="34.7885704"><ele>571.1</ele><time>2013-11-23T09:55:44.0000000+00:00</time></trkpt><trkpt lat="30.57497215" lon="34.7885704"><ele>571.1</ele><time>2013-11-23T09:55:49.0000000+00:00</time></trkpt><trkpt lat="30.57497215" lon="34.7885704"><ele>571.1</ele><time>2013-11-23T09:55:54.0000000+00:00</time></trkpt><trkpt lat="30.57497215" lon="34.7885704"><ele>571.0</ele><time>2013-11-23T09:55:59.0000000+00:00</time></trkpt><trkpt lat="30.57497215" lon="34.7885704"><ele>571.0</ele><time>2013-11-23T09:56:04.0000000+00:00</time></trkpt><trkpt lat="30.57497215" lon="34.7885704"><ele>571.0</ele><time>2013-11-23T09:56:09.0000000+00:00</time></trkpt><trkpt lat="30.57497215" lon="34.7885704"><ele>570.9</ele><time>2013-11-23T09:56:14.0000000+00:00</time></trkpt><trkpt lat="30.57497215" lon="34.7885704"><ele>570.9</ele><time>2013-11-23T09:56:19.0000000+00:00</time></trkpt><trkpt lat="30.57497215" lon="34.7885704"><ele>570.9</ele><time>2013-11-23T09:56:24.0000000+00:00</time></trkpt><trkpt lat="30.57497215" lon="34.7885704"><ele>570.8</ele><time>2013-11-23T09:56:29.0000000+00:00</time></trkpt><trkpt lat="30.57497215" lon="34.7885704"><ele>570.8</ele><time>2013-11-23T09:56:34.0000000+00:00</time></trkpt><trkpt lat="30.57497215" lon="34.7885704"><ele>570.8</ele><time>2013-11-23T09:56:39.0000000+00:00</time></trkpt><trkpt lat="30.57497215" lon="34.7885704"><ele>570.8</ele><time>2013-11-23T09:56:44.0000000+00:00</time></trkpt><trkpt lat="30.57497215" lon="34.7885704"><ele>570.7</ele><time>2013-11-23T09:56:49.0000000+00:00</time></trkpt><trkpt lat="30.57497215" lon="34.7885704"><ele>570.7</ele><time>2013-11-23T09:56:54.0000000+00:00</time></trkpt><trkpt lat="30.57497215" lon="34.7885704"><ele>570.7</ele><time>2013-11-23T09:56:59.0000000+00:00</time></trkpt><trkpt lat="30.57497025" lon="34.7885704"><ele>570.7</ele><time>2013-11-23T09:57:04.0000000+00:00</time></trkpt><trkpt lat="30.57497025" lon="34.7885704"><ele>570.6</ele><time>2013-11-23T09:57:09.0000000+00:00</time></trkpt><trkpt lat="30.57497025" lon="34.7885704"><ele>570.6</ele><time>2013-11-23T09:57:14.0000000+00:00</time></trkpt><trkpt lat="30.57497025" lon="34.7885704"><ele>570.6</ele><time>2013-11-23T09:57:19.0000000+00:00</time></trkpt><trkpt lat="30.57497025" lon="34.7885704"><ele>570.5</ele><time>2013-11-23T09:57:24.0000000+00:00</time></trkpt><trkpt lat="30.57497025" lon="34.7885704"><ele>570.5</ele><time>2013-11-23T09:57:29.0000000+00:00</time></trkpt><trkpt lat="30.57497025" lon="34.7885704"><ele>570.5</ele><time>2013-11-23T09:57:34.0000000+00:00</time></trkpt><trkpt lat="30.57497025" lon="34.7885704"><ele>570.5</ele><time>2013-11-23T09:57:39.0000000+00:00</time></trkpt><trkpt lat="30.57497025" lon="34.7885704"><ele>570.5</ele><time>2013-11-23T09:57:44.0000000+00:00</time></trkpt><trkpt lat="30.57497025" lon="34.7885704"><ele>570.4</ele><time>2013-11-23T09:57:49.0000000+00:00</time></trkpt><trkpt lat="30.57497025" lon="34.7885704"><ele>570.4</ele><time>2013-11-23T09:57:54.0000000+00:00</time></trkpt><trkpt lat="30.57497025" lon="34.7885704"><ele>570.4</ele><time>2013-11-23T09:57:59.0000000+00:00</time></trkpt><trkpt lat="30.57497025" lon="34.7885704"><ele>570.4</ele><time>2013-11-23T09:58:04.0000000+00:00</time></trkpt><trkpt lat="30.57497025" lon="34.7885704"><ele>570.3</ele><time>2013-11-23T09:58:09.0000000+00:00</time></trkpt><trkpt lat="30.57497025" lon="34.7885704"><ele>570.3</ele><time>2013-11-23T09:58:14.0000000+00:00</time></trkpt><trkpt lat="30.57497025" lon="34.7885704"><ele>570.3</ele><time>2013-11-23T09:58:19.0000000+00:00</time></trkpt><trkpt lat="30.57497025" lon="34.7885704"><ele>570.3</ele><time>2013-11-23T09:58:24.0000000+00:00</time></trkpt><trkpt lat="30.57497025" lon="34.7885704"><ele>570.2</ele><time>2013-11-23T09:58:29.0000000+00:00</time></trkpt><trkpt lat="30.57497025" lon="34.7885704"><ele>570.2</ele><time>2013-11-23T09:58:34.0000000+00:00</time></trkpt><trkpt lat="30.57496834" lon="34.7885704"><ele>570.2</ele><time>2013-11-23T09:58:39.0000000+00:00</time></trkpt><trkpt lat="30.57496834" lon="34.7885704"><ele>570.1</ele><time>2013-11-23T09:58:44.0000000+00:00</time></trkpt><trkpt lat="30.57496834" lon="34.7885704"><ele>570.1</ele><time>2013-11-23T09:58:49.0000000+00:00</time></trkpt><trkpt lat="30.57496834" lon="34.7885704"><ele>570.1</ele><time>2013-11-23T09:58:54.0000000+00:00</time></trkpt><trkpt lat="30.57496834" lon="34.7885704"><ele>570.0</ele><time>2013-11-23T09:58:59.0000000+00:00</time></trkpt><trkpt lat="30.57496834" lon="34.7885704"><ele>570.0</ele><time>2013-11-23T09:59:04.0000000+00:00</time></trkpt><trkpt lat="30.57496834" lon="34.7885704"><ele>570.0</ele><time>2013-11-23T09:59:09.0000000+00:00</time></trkpt><trkpt lat="30.57496834" lon="34.7885704"><ele>570.0</ele><time>2013-11-23T09:59:14.0000000+00:00</time></trkpt><trkpt lat="30.57496834" lon="34.7885704"><ele>570.0</ele><time>2013-11-23T09:59:19.0000000+00:00</time></trkpt><trkpt lat="30.57496834" lon="34.7885704"><ele>569.9</ele><time>2013-11-23T09:59:24.0000000+00:00</time></trkpt><trkpt lat="30.57496834" lon="34.78856659"><ele>569.9</ele><time>2013-11-23T09:59:29.0000000+00:00</time></trkpt><trkpt lat="30.57496834" lon="34.78856659"><ele>569.9</ele><time>2013-11-23T09:59:34.0000000+00:00</time></trkpt><trkpt lat="30.57496834" lon="34.78856659"><ele>569.8</ele><time>2013-11-23T09:59:39.0000000+00:00</time></trkpt><trkpt lat="30.57496834" lon="34.78856659"><ele>569.8</ele><time>2013-11-23T09:59:44.0000000+00:00</time></trkpt><trkpt lat="30.57496834" lon="34.78856659"><ele>569.8</ele><time>2013-11-23T09:59:49.0000000+00:00</time></trkpt><trkpt lat="30.57496834" lon="34.78856659"><ele>569.7</ele><time>2013-11-23T09:59:54.0000000+00:00</time></trkpt><trkpt lat="30.57496834" lon="34.78856659"><ele>569.7</ele><time>2013-11-23T09:59:59.0000000+00:00</time></trkpt><trkpt lat="30.57496834" lon="34.78856659"><ele>569.7</ele><time>2013-11-23T10:00:04.0000000+00:00</time></trkpt><trkpt lat="30.57496834" lon="34.78856659"><ele>569.6</ele><time>2013-11-23T10:00:09.0000000+00:00</time></trkpt><trkpt lat="30.57496834" lon="34.78856659"><ele>569.6</ele><time>2013-11-23T10:00:14.0000000+00:00</time></trkpt><trkpt lat="30.57496834" lon="34.78856659"><ele>569.6</ele><time>2013-11-23T10:00:19.0000000+00:00</time></trkpt><trkpt lat="30.57496834" lon="34.78856659"><ele>569.5</ele><time>2013-11-23T10:00:24.0000000+00:00</time></trkpt><trkpt lat="30.57496834" lon="34.78856659"><ele>569.5</ele><time>2013-11-23T10:00:29.0000000+00:00</time></trkpt><trkpt lat="30.57496834" lon="34.78856659"><ele>569.5</ele><time>2013-11-23T10:00:34.0000000+00:00</time></trkpt><trkpt lat="30.57496643" lon="34.78856659"><ele>569.5</ele><time>2013-11-23T10:00:39.0000000+00:00</time></trkpt><trkpt lat="30.57496643" lon="34.78856659"><ele>569.4</ele><time>2013-11-23T10:00:44.0000000+00:00</time></trkpt><trkpt lat="30.57496643" lon="34.78856659"><ele>569.4</ele><time>2013-11-23T10:00:49.0000000+00:00</time></trkpt><trkpt lat="30.57496643" lon="34.78856659"><ele>569.4</ele><time>2013-11-23T10:00:54.0000000+00:00</time></trkpt><trkpt lat="30.57496834" lon="34.78856659"><ele>569.4</ele><time>2013-11-23T10:00:59.0000000+00:00</time></trkpt><trkpt lat="30.57496834" lon="34.78856659"><ele>569.4</ele><time>2013-11-23T10:01:04.0000000+00:00</time></trkpt><trkpt lat="30.57496834" lon="34.78856659"><ele>569.4</ele><time>2013-11-23T10:01:09.0000000+00:00</time></trkpt><trkpt lat="30.57496834" lon="34.78856659"><ele>569.4</ele><time>2013-11-23T10:01:14.0000000+00:00</time></trkpt><trkpt lat="30.57496834" lon="34.78856659"><ele>569.4</ele><time>2013-11-23T10:01:19.0000000+00:00</time></trkpt><trkpt lat="30.57496834" lon="34.78856659"><ele>569.4</ele><time>2013-11-23T10:01:24.0000000+00:00</time></trkpt><trkpt lat="30.57496834" lon="34.78856659"><ele>569.5</ele><time>2013-11-23T10:01:29.0000000+00:00</time></trkpt><trkpt lat="30.57496834" lon="34.78856659"><ele>569.5</ele><time>2013-11-23T10:01:34.0000000+00:00</time></trkpt><trkpt lat="30.57505608" lon="34.78861618"><ele>569.5</ele><time>2013-11-23T10:01:39.0000000+00:00</time></trkpt><trkpt lat="30.57514191" lon="34.78865051"><ele>569.5</ele><time>2013-11-23T10:01:44.0000000+00:00</time></trkpt><trkpt lat="30.57522392" lon="34.78868103"><ele>569.6</ele><time>2013-11-23T10:01:49.0000000+00:00</time></trkpt><trkpt lat="30.57530022" lon="34.7887001"><ele>569.9</ele><time>2013-11-23T10:01:54.0000000+00:00</time></trkpt><trkpt lat="30.5753746" lon="34.78870773"><ele>570.7</ele><time>2013-11-23T10:01:59.0000000+00:00</time></trkpt><trkpt lat="30.57544327" lon="34.78873825"><ele>573.3</ele><time>2013-11-23T10:02:04.0000000+00:00</time></trkpt><trkpt lat="30.57554627" lon="34.7887764"><ele>574.5</ele><time>2013-11-23T10:02:09.0000000+00:00</time></trkpt><trkpt lat="30.57564735" lon="34.78880692"><ele>576.6</ele><time>2013-11-23T10:02:14.0000000+00:00</time></trkpt><trkpt lat="30.57574844" lon="34.78880692"><ele>577.4</ele><time>2013-11-23T10:02:19.0000000+00:00</time></trkpt><trkpt lat="30.57584572" lon="34.78879166"><ele>577.8</ele><time>2013-11-23T10:02:24.0000000+00:00</time></trkpt><trkpt lat="30.57596207" lon="34.78878021"><ele>577.7</ele><time>2013-11-23T10:02:29.0000000+00:00</time></trkpt><trkpt lat="30.57605171" lon="34.7887764"><ele>577.4</ele><time>2013-11-23T10:02:34.0000000+00:00</time></trkpt><trkpt lat="30.57613373" lon="34.7887764"><ele>577.7</ele><time>2013-11-23T10:02:39.0000000+00:00</time></trkpt><trkpt lat="30.5762043" lon="34.78877258"><ele>577.5</ele><time>2013-11-23T10:02:44.0000000+00:00</time></trkpt><trkpt lat="30.57628059" lon="34.78878021"><ele>577.4</ele><time>2013-11-23T10:02:49.0000000+00:00</time></trkpt><trkpt lat="30.57635307" lon="34.78879547"><ele>577.2</ele><time>2013-11-23T10:02:54.0000000+00:00</time></trkpt><trkpt lat="30.57642746" lon="34.78882217"><ele>577.3</ele><time>2013-11-23T10:02:59.0000000+00:00</time></trkpt><trkpt lat="30.57642746" lon="34.7888298"><ele>577.3</ele><time>2013-11-23T10:03:04.0000000+00:00</time></trkpt><trkpt lat="30.57642746" lon="34.78883362"><ele>577.3</ele><time>2013-11-23T10:03:09.0000000+00:00</time></trkpt><trkpt lat="30.57642746" lon="34.78883362"><ele>577.2</ele><time>2013-11-23T10:03:14.0000000+00:00</time></trkpt><trkpt lat="30.57642746" lon="34.78883362"><ele>577.2</ele><time>2013-11-23T10:03:19.0000000+00:00</time></trkpt><trkpt lat="30.57642746" lon="34.78883362"><ele>577.2</ele><time>2013-11-23T10:03:24.0000000+00:00</time></trkpt><trkpt lat="30.57642746" lon="34.78883362"><ele>577.2</ele><time>2013-11-23T10:03:29.0000000+00:00</time></trkpt><trkpt lat="30.57642937" lon="34.78883362"><ele>577.2</ele><time>2013-11-23T10:03:34.0000000+00:00</time></trkpt><trkpt lat="30.57653618" lon="34.78885269"><ele>577.0</ele><time>2013-11-23T10:03:39.0000000+00:00</time></trkpt><trkpt lat="30.57667732" lon="34.78888702"><ele>576.8</ele><time>2013-11-23T10:03:44.0000000+00:00</time></trkpt><trkpt lat="30.57681656" lon="34.78892136"><ele>576.8</ele><time>2013-11-23T10:03:49.0000000+00:00</time></trkpt><trkpt lat="30.57693291" lon="34.78895187"><ele>576.6</ele><time>2013-11-23T10:03:54.0000000+00:00</time></trkpt><trkpt lat="30.57707214" lon="34.78898239"><ele>576.6</ele><time>2013-11-23T10:03:59.0000000+00:00</time></trkpt><trkpt lat="30.57722473" lon="34.78900528"><ele>576.4</ele><time>2013-11-23T10:04:04.0000000+00:00</time></trkpt><trkpt lat="30.57735252" lon="34.78901672"><ele>575.7</ele><time>2013-11-23T10:04:09.0000000+00:00</time></trkpt><trkpt lat="30.57748413" lon="34.7890358"><ele>575.3</ele><time>2013-11-23T10:04:14.0000000+00:00</time></trkpt><trkpt lat="30.57763672" lon="34.78904724"><ele>574.5</ele><time>2013-11-23T10:04:19.0000000+00:00</time></trkpt><trkpt lat="30.57786179" lon="34.78903961"><ele>571.6</ele><time>2013-11-23T10:04:24.0000000+00:00</time></trkpt><trkpt lat="30.57817268" lon="34.78908157"><ele>568.8</ele><time>2013-11-23T10:04:29.0000000+00:00</time></trkpt><trkpt lat="30.57847977" lon="34.78927231"><ele>569.5</ele><time>2013-11-23T10:04:34.0000000+00:00</time></trkpt><trkpt lat="30.57878876" lon="34.78940582"><ele>570.4</ele><time>2013-11-23T10:04:39.0000000+00:00</time></trkpt><trkpt lat="30.57907105" lon="34.78952789"><ele>570.0</ele><time>2013-11-23T10:04:44.0000000+00:00</time></trkpt><trkpt lat="30.57935333" lon="34.78964233"><ele>567.4</ele><time>2013-11-23T10:04:49.0000000+00:00</time></trkpt><trkpt lat="30.57962036" lon="34.78983307"><ele>565.8</ele><time>2013-11-23T10:04:54.0000000+00:00</time></trkpt><trkpt lat="30.57977104" lon="34.7900238"><ele>566.6</ele><time>2013-11-23T10:04:59.0000000+00:00</time></trkpt><trkpt lat="30.57981873" lon="34.79010773"><ele>567.4</ele><time>2013-11-23T10:05:04.0000000+00:00</time></trkpt><trkpt lat="30.57987404" lon="34.79020309"><ele>568.1</ele><time>2013-11-23T10:05:09.0000000+00:00</time></trkpt><trkpt lat="30.57993698" lon="34.79031372"><ele>569.3</ele><time>2013-11-23T10:05:14.0000000+00:00</time></trkpt><trkpt lat="30.57998276" lon="34.79040909"><ele>570.4</ele><time>2013-11-23T10:05:19.0000000+00:00</time></trkpt><trkpt lat="30.58002853" lon="34.79049683"><ele>571.1</ele><time>2013-11-23T10:05:24.0000000+00:00</time></trkpt><trkpt lat="30.58006859" lon="34.79058456"><ele>571.7</ele><time>2013-11-23T10:05:29.0000000+00:00</time></trkpt><trkpt lat="30.58010101" lon="34.7906723"><ele>572.9</ele><time>2013-11-23T10:05:34.0000000+00:00</time></trkpt><trkpt lat="30.58011818" lon="34.79076767"><ele>573.3</ele><time>2013-11-23T10:05:39.0000000+00:00</time></trkpt><trkpt lat="30.58014488" lon="34.79088593"><ele>573.2</ele><time>2013-11-23T10:05:44.0000000+00:00</time></trkpt><trkpt lat="30.58018303" lon="34.79102707"><ele>573.1</ele><time>2013-11-23T10:05:49.0000000+00:00</time></trkpt><trkpt lat="30.58023453" lon="34.79118347"><ele>572.8</ele><time>2013-11-23T10:05:54.0000000+00:00</time></trkpt><trkpt lat="30.58025742" lon="34.79133987"><ele>572.0</ele><time>2013-11-23T10:05:59.0000000+00:00</time></trkpt><trkpt lat="30.5802803" lon="34.79152298"><ele>569.5</ele><time>2013-11-23T10:06:04.0000000+00:00</time></trkpt><trkpt lat="30.58031845" lon="34.79174805"><ele>567.2</ele><time>2013-11-23T10:06:09.0000000+00:00</time></trkpt><trkpt lat="30.58035469" lon="34.79193115"><ele>565.3</ele><time>2013-11-23T10:06:14.0000000+00:00</time></trkpt><trkpt lat="30.58037376" lon="34.79217148"><ele>561.3</ele><time>2013-11-23T10:06:19.0000000+00:00</time></trkpt><trkpt lat="30.58040428" lon="34.79256058"><ele>557.1</ele><time>2013-11-23T10:06:24.0000000+00:00</time></trkpt><trkpt lat="30.58038139" lon="34.79292679"><ele>556.7</ele><time>2013-11-23T10:06:29.0000000+00:00</time></trkpt><trkpt lat="30.58031082" lon="34.79325867"><ele>555.2</ele><time>2013-11-23T10:06:34.0000000+00:00</time></trkpt><trkpt lat="30.58027077" lon="34.79358292"><ele>553.8</ele><time>2013-11-23T10:06:39.0000000+00:00</time></trkpt><trkpt lat="30.58016968" lon="34.79389954"><ele>552.6</ele><time>2013-11-23T10:06:44.0000000+00:00</time></trkpt><trkpt lat="30.58010483" lon="34.7942543"><ele>549.9</ele><time>2013-11-23T10:06:49.0000000+00:00</time></trkpt><trkpt lat="30.58005905" lon="34.79449081"><ele>550.2</ele><time>2013-11-23T10:06:54.0000000+00:00</time></trkpt><trkpt lat="30.58002663" lon="34.79465866"><ele>550.1</ele><time>2013-11-23T10:06:59.0000000+00:00</time></trkpt><trkpt lat="30.58000565" lon="34.7947731"><ele>550.3</ele><time>2013-11-23T10:07:04.0000000+00:00</time></trkpt><trkpt lat="30.57998085" lon="34.79489136"><ele>549.8</ele><time>2013-11-23T10:07:09.0000000+00:00</time></trkpt><trkpt lat="30.57995224" lon="34.79505158"><ele>549.1</ele><time>2013-11-23T10:07:14.0000000+00:00</time></trkpt><trkpt lat="30.57990265" lon="34.79520416"><ele>549.0</ele><time>2013-11-23T10:07:19.0000000+00:00</time></trkpt><trkpt lat="30.57988548" lon="34.79524612"><ele>549.9</ele><time>2013-11-23T10:07:24.0000000+00:00</time></trkpt><trkpt lat="30.57987785" lon="34.79529953"><ele>549.4</ele><time>2013-11-23T10:07:29.0000000+00:00</time></trkpt><trkpt lat="30.57985306" lon="34.7954483"><ele>548.6</ele><time>2013-11-23T10:07:34.0000000+00:00</time></trkpt><trkpt lat="30.57982826" lon="34.795578"><ele>547.5</ele><time>2013-11-23T10:07:39.0000000+00:00</time></trkpt><trkpt lat="30.57979584" lon="34.79572296"><ele>548.3</ele><time>2013-11-23T10:07:44.0000000+00:00</time></trkpt><trkpt lat="30.57976341" lon="34.79583359"><ele>548.3</ele><time>2013-11-23T10:07:49.0000000+00:00</time></trkpt><trkpt lat="30.57974625" lon="34.79596329"><ele>549.6</ele><time>2013-11-23T10:07:54.0000000+00:00</time></trkpt><trkpt lat="30.57971573" lon="34.79608536"><ele>549.8</ele><time>2013-11-23T10:07:59.0000000+00:00</time></trkpt><trkpt lat="30.57969284" lon="34.79616547"><ele>550.8</ele><time>2013-11-23T10:08:04.0000000+00:00</time></trkpt><trkpt lat="30.57967377" lon="34.79626465"><ele>552.0</ele><time>2013-11-23T10:08:09.0000000+00:00</time></trkpt><trkpt lat="30.57964897" lon="34.79638672"><ele>552.0</ele><time>2013-11-23T10:08:14.0000000+00:00</time></trkpt><trkpt lat="30.57964706" lon="34.79652023"><ele>553.1</ele><time>2013-11-23T10:08:19.0000000+00:00</time></trkpt><trkpt lat="30.57964134" lon="34.79665756"><ele>553.7</ele><time>2013-11-23T10:08:24.0000000+00:00</time></trkpt><trkpt lat="30.57964325" lon="34.79679108"><ele>553.5</ele><time>2013-11-23T10:08:29.0000000+00:00</time></trkpt><trkpt lat="30.57964516" lon="34.79690552"><ele>553.9</ele><time>2013-11-23T10:08:34.0000000+00:00</time></trkpt><trkpt lat="30.57963181" lon="34.7970314"><ele>555.2</ele><time>2013-11-23T10:08:39.0000000+00:00</time></trkpt><trkpt lat="30.57961464" lon="34.79715729"><ele>556.2</ele><time>2013-11-23T10:08:44.0000000+00:00</time></trkpt><trkpt lat="30.57962608" lon="34.79730988"><ele>557.1</ele><time>2013-11-23T10:08:49.0000000+00:00</time></trkpt><trkpt lat="30.57964325" lon="34.79748917"><ele>557.3</ele><time>2013-11-23T10:08:54.0000000+00:00</time></trkpt><trkpt lat="30.57966805" lon="34.7976799"><ele>558.2</ele><time>2013-11-23T10:08:59.0000000+00:00</time></trkpt><trkpt lat="30.5797081" lon="34.7978859"><ele>558.6</ele><time>2013-11-23T10:09:04.0000000+00:00</time></trkpt><trkpt lat="30.57971382" lon="34.79808426"><ele>559.2</ele><time>2013-11-23T10:09:09.0000000+00:00</time></trkpt><trkpt lat="30.57975006" lon="34.79831696"><ele>559.5</ele><time>2013-11-23T10:09:14.0000000+00:00</time></trkpt><trkpt lat="30.57975769" lon="34.79853058"><ele>559.4</ele><time>2013-11-23T10:09:19.0000000+00:00</time></trkpt><trkpt lat="30.5797348" lon="34.7987442"><ele>559.2</ele><time>2013-11-23T10:09:24.0000000+00:00</time></trkpt><trkpt lat="30.57970238" lon="34.79896545"><ele>559.0</ele><time>2013-11-23T10:09:29.0000000+00:00</time></trkpt><trkpt lat="30.57966805" lon="34.79912567"><ele>559.2</ele><time>2013-11-23T10:09:34.0000000+00:00</time></trkpt><trkpt lat="30.57962227" lon="34.79929733"><ele>559.3</ele><time>2013-11-23T10:09:39.0000000+00:00</time></trkpt><trkpt lat="30.57958221" lon="34.79948425"><ele>558.9</ele><time>2013-11-23T10:09:44.0000000+00:00</time></trkpt><trkpt lat="30.57959557" lon="34.79965973"><ele>559.8</ele><time>2013-11-23T10:09:49.0000000+00:00</time></trkpt><trkpt lat="30.5797081" lon="34.79983902"><ele>559.6</ele><time>2013-11-23T10:09:54.0000000+00:00</time></trkpt><trkpt lat="30.57982826" lon="34.79998779"><ele>560.0</ele><time>2013-11-23T10:09:59.0000000+00:00</time></trkpt><trkpt lat="30.57992744" lon="34.80012131"><ele>560.3</ele><time>2013-11-23T10:10:04.0000000+00:00</time></trkpt><trkpt lat="30.58002091" lon="34.80024338"><ele>559.7</ele><time>2013-11-23T10:10:09.0000000+00:00</time></trkpt><trkpt lat="30.58011627" lon="34.80036545"><ele>560.6</ele><time>2013-11-23T10:10:14.0000000+00:00</time></trkpt><trkpt lat="30.58021927" lon="34.80049896"><ele>560.7</ele><time>2013-11-23T10:10:19.0000000+00:00</time></trkpt><trkpt lat="30.58029175" lon="34.80061722"><ele>560.9</ele><time>2013-11-23T10:10:24.0000000+00:00</time></trkpt><trkpt lat="30.58036423" lon="34.80072784"><ele>561.4</ele><time>2013-11-23T10:10:29.0000000+00:00</time></trkpt><trkpt lat="30.58044624" lon="34.80084992"><ele>561.3</ele><time>2013-11-23T10:10:34.0000000+00:00</time></trkpt><trkpt lat="30.58054924" lon="34.80098343"><ele>561.6</ele><time>2013-11-23T10:10:39.0000000+00:00</time></trkpt><trkpt lat="30.58067131" lon="34.80114365"><ele>561.9</ele><time>2013-11-23T10:10:44.0000000+00:00</time></trkpt><trkpt lat="30.58079147" lon="34.80128098"><ele>561.0</ele><time>2013-11-23T10:10:49.0000000+00:00</time></trkpt><trkpt lat="30.58089447" lon="34.80140686"><ele>561.0</ele><time>2013-11-23T10:10:54.0000000+00:00</time></trkpt><trkpt lat="30.58101273" lon="34.80157852"><ele>559.4</ele><time>2013-11-23T10:10:59.0000000+00:00</time></trkpt><trkpt lat="30.58113289" lon="34.80174255"><ele>559.8</ele><time>2013-11-23T10:11:04.0000000+00:00</time></trkpt><trkpt lat="30.58128548" lon="34.8018837"><ele>558.7</ele><time>2013-11-23T10:11:09.0000000+00:00</time></trkpt><trkpt lat="30.58140564" lon="34.80208206"><ele>557.7</ele><time>2013-11-23T10:11:14.0000000+00:00</time></trkpt><trkpt lat="30.58152008" lon="34.80229187"><ele>557.0</ele><time>2013-11-23T10:11:19.0000000+00:00</time></trkpt><trkpt lat="30.58163643" lon="34.80246735"><ele>557.5</ele><time>2013-11-23T10:11:24.0000000+00:00</time></trkpt><trkpt lat="30.58175659" lon="34.8025856"><ele>558.1</ele><time>2013-11-23T10:11:29.0000000+00:00</time></trkpt><trkpt lat="30.58183289" lon="34.80263901"><ele>558.8</ele><time>2013-11-23T10:11:34.0000000+00:00</time></trkpt><trkpt lat="30.58183289" lon="34.80263901"><ele>558.4</ele><time>2013-11-23T10:11:39.0000000+00:00</time></trkpt><trkpt lat="30.58183289" lon="34.80263901"><ele>558.3</ele><time>2013-11-23T10:11:44.0000000+00:00</time></trkpt><trkpt lat="30.58183098" lon="34.80263901"><ele>558.3</ele><time>2013-11-23T10:11:49.0000000+00:00</time></trkpt><trkpt lat="30.58183098" lon="34.80263901"><ele>558.3</ele><time>2013-11-23T10:11:54.0000000+00:00</time></trkpt><trkpt lat="30.58183289" lon="34.80263901"><ele>558.2</ele><time>2013-11-23T10:11:59.0000000+00:00</time></trkpt><trkpt lat="30.58188629" lon="34.80268478"><ele>558.2</ele><time>2013-11-23T10:12:04.0000000+00:00</time></trkpt><trkpt lat="30.58197212" lon="34.80277634"><ele>557.7</ele><time>2013-11-23T10:12:09.0000000+00:00</time></trkpt><trkpt lat="30.58209992" lon="34.80286026"><ele>556.9</ele><time>2013-11-23T10:12:14.0000000+00:00</time></trkpt><trkpt lat="30.58224869" lon="34.80293655"><ele>556.3</ele><time>2013-11-23T10:12:19.0000000+00:00</time></trkpt><trkpt lat="30.58238411" lon="34.80299377"><ele>556.1</ele><time>2013-11-23T10:12:24.0000000+00:00</time></trkpt><trkpt lat="30.58254051" lon="34.8030777"><ele>555.4</ele><time>2013-11-23T10:12:29.0000000+00:00</time></trkpt><trkpt lat="30.58268356" lon="34.80317688"><ele>555.5</ele><time>2013-11-23T10:12:34.0000000+00:00</time></trkpt><trkpt lat="30.58282661" lon="34.80326462"><ele>555.4</ele><time>2013-11-23T10:12:39.0000000+00:00</time></trkpt><trkpt lat="30.58295631" lon="34.80335617"><ele>555.0</ele><time>2013-11-23T10:12:44.0000000+00:00</time></trkpt><trkpt lat="30.58310509" lon="34.80345154"><ele>554.3</ele><time>2013-11-23T10:12:49.0000000+00:00</time></trkpt><trkpt lat="30.58325005" lon="34.80355454"><ele>554.3</ele><time>2013-11-23T10:12:54.0000000+00:00</time></trkpt><trkpt lat="30.58338547" lon="34.80364227"><ele>554.2</ele><time>2013-11-23T10:12:59.0000000+00:00</time></trkpt><trkpt lat="30.58351326" lon="34.80373383"><ele>553.5</ele><time>2013-11-23T10:13:04.0000000+00:00</time></trkpt><trkpt lat="30.58362007" lon="34.80382156"><ele>553.6</ele><time>2013-11-23T10:13:09.0000000+00:00</time></trkpt><trkpt lat="30.58375168" lon="34.80394363"><ele>553.3</ele><time>2013-11-23T10:13:14.0000000+00:00</time></trkpt><trkpt lat="30.58387566" lon="34.80408478"><ele>553.0</ele><time>2013-11-23T10:13:19.0000000+00:00</time></trkpt><trkpt lat="30.58401489" lon="34.80422211"><ele>551.9</ele><time>2013-11-23T10:13:24.0000000+00:00</time></trkpt><trkpt lat="30.58415413" lon="34.80434418"><ele>551.7</ele><time>2013-11-23T10:13:29.0000000+00:00</time></trkpt><trkpt lat="30.58428764" lon="34.80447006"><ele>551.2</ele><time>2013-11-23T10:13:34.0000000+00:00</time></trkpt><trkpt lat="30.58441353" lon="34.80460739"><ele>550.3</ele><time>2013-11-23T10:13:39.0000000+00:00</time></trkpt><trkpt lat="30.58453941" lon="34.80472946"><ele>550.1</ele><time>2013-11-23T10:13:44.0000000+00:00</time></trkpt><trkpt lat="30.58464241" lon="34.80489731"><ele>549.6</ele><time>2013-11-23T10:13:49.0000000+00:00</time></trkpt><trkpt lat="30.58473587" lon="34.8051033"><ele>549.2</ele><time>2013-11-23T10:13:54.0000000+00:00</time></trkpt><trkpt lat="30.58480644" lon="34.80529404"><ele>548.7</ele><time>2013-11-23T10:13:59.0000000+00:00</time></trkpt><trkpt lat="30.58486748" lon="34.8054657"><ele>547.6</ele><time>2013-11-23T10:14:04.0000000+00:00</time></trkpt><trkpt lat="30.58489227" lon="34.8055954"><ele>546.0</ele><time>2013-11-23T10:14:09.0000000+00:00</time></trkpt><trkpt lat="30.58489037" lon="34.80570984"><ele>543.8</ele><time>2013-11-23T10:14:14.0000000+00:00</time></trkpt><trkpt lat="30.58488464" lon="34.80583572"><ele>540.7</ele><time>2013-11-23T10:14:19.0000000+00:00</time></trkpt><trkpt lat="30.58488655" lon="34.80596924"><ele>538.3</ele><time>2013-11-23T10:14:24.0000000+00:00</time></trkpt><trkpt lat="30.58497047" lon="34.80608368"><ele>536.4</ele><time>2013-11-23T10:14:29.0000000+00:00</time></trkpt><trkpt lat="30.58508873" lon="34.80615234"><ele>535.3</ele><time>2013-11-23T10:14:34.0000000+00:00</time></trkpt><trkpt lat="30.58525848" lon="34.80617523"><ele>534.4</ele><time>2013-11-23T10:14:39.0000000+00:00</time></trkpt><trkpt lat="30.5854435" lon="34.80632401"><ele>535.2</ele><time>2013-11-23T10:14:44.0000000+00:00</time></trkpt><trkpt lat="30.58567238" lon="34.80635834"><ele>535.2</ele><time>2013-11-23T10:14:49.0000000+00:00</time></trkpt><trkpt lat="30.58588028" lon="34.80635071"><ele>534.7</ele><time>2013-11-23T10:14:54.0000000+00:00</time></trkpt><trkpt lat="30.58597946" lon="34.80641556"><ele>534.6</ele><time>2013-11-23T10:14:59.0000000+00:00</time></trkpt><trkpt lat="30.58600235" lon="34.80656052"><ele>534.3</ele><time>2013-11-23T10:15:04.0000000+00:00</time></trkpt><trkpt lat="30.58602715" lon="34.80669785"><ele>534.2</ele><time>2013-11-23T10:15:09.0000000+00:00</time></trkpt><trkpt lat="30.58605385" lon="34.80679321"><ele>534.6</ele><time>2013-11-23T10:15:14.0000000+00:00</time></trkpt><trkpt lat="30.5861187" lon="34.8069191"><ele>533.5</ele><time>2013-11-23T10:15:19.0000000+00:00</time></trkpt><trkpt lat="30.58626175" lon="34.80706787"><ele>533.9</ele><time>2013-11-23T10:15:24.0000000+00:00</time></trkpt><trkpt lat="30.58638573" lon="34.80717087"><ele>533.2</ele><time>2013-11-23T10:15:29.0000000+00:00</time></trkpt><trkpt lat="30.58646202" lon="34.80731583"><ele>533.3</ele><time>2013-11-23T10:15:34.0000000+00:00</time></trkpt><trkpt lat="30.58649445" lon="34.80741501"><ele>534.0</ele><time>2013-11-23T10:15:39.0000000+00:00</time></trkpt><trkpt lat="30.58651352" lon="34.8074913"><ele>534.9</ele><time>2013-11-23T10:15:44.0000000+00:00</time></trkpt><trkpt lat="30.58653259" lon="34.80753708"><ele>535.0</ele><time>2013-11-23T10:15:49.0000000+00:00</time></trkpt><trkpt lat="30.58653259" lon="34.80754852"><ele>534.4</ele><time>2013-11-23T10:15:54.0000000+00:00</time></trkpt><trkpt lat="30.58652878" lon="34.80756378"><ele>534.5</ele><time>2013-11-23T10:15:59.0000000+00:00</time></trkpt><trkpt lat="30.58652687" lon="34.80760193"><ele>535.0</ele><time>2013-11-23T10:16:04.0000000+00:00</time></trkpt><trkpt lat="30.58651161" lon="34.80764008"><ele>535.8</ele><time>2013-11-23T10:16:09.0000000+00:00</time></trkpt><trkpt lat="30.58649063" lon="34.80767822"><ele>536.6</ele><time>2013-11-23T10:16:14.0000000+00:00</time></trkpt><trkpt lat="30.58647347" lon="34.80771256"><ele>537.0</ele><time>2013-11-23T10:16:19.0000000+00:00</time></trkpt><trkpt lat="30.58646011" lon="34.80773926"><ele>537.4</ele><time>2013-11-23T10:16:24.0000000+00:00</time></trkpt><trkpt lat="30.58644676" lon="34.80777359"><ele>537.7</ele><time>2013-11-23T10:16:29.0000000+00:00</time></trkpt><trkpt lat="30.58643341" lon="34.80780792"><ele>538.2</ele><time>2013-11-23T10:16:34.0000000+00:00</time></trkpt><trkpt lat="30.58642197" lon="34.80783844"><ele>538.6</ele><time>2013-11-23T10:16:39.0000000+00:00</time></trkpt><trkpt lat="30.58641434" lon="34.80787277"><ele>539.2</ele><time>2013-11-23T10:16:44.0000000+00:00</time></trkpt><trkpt lat="30.58641625" lon="34.80790329"><ele>539.6</ele><time>2013-11-23T10:16:49.0000000+00:00</time></trkpt><trkpt lat="30.58642006" lon="34.80794907"><ele>540.2</ele><time>2013-11-23T10:16:54.0000000+00:00</time></trkpt><trkpt lat="30.58643532" lon="34.80799484"><ele>540.9</ele><time>2013-11-23T10:16:59.0000000+00:00</time></trkpt><trkpt lat="30.58646202" lon="34.80804825"><ele>541.8</ele><time>2013-11-23T10:17:04.0000000+00:00</time></trkpt><trkpt lat="30.58648682" lon="34.80807877"><ele>542.8</ele><time>2013-11-23T10:17:09.0000000+00:00</time></trkpt><trkpt lat="30.58649826" lon="34.8080864"><ele>542.3</ele><time>2013-11-23T10:17:14.0000000+00:00</time></trkpt><trkpt lat="30.58652496" lon="34.8081131"><ele>542.6</ele><time>2013-11-23T10:17:19.0000000+00:00</time></trkpt><trkpt lat="30.58659554" lon="34.80817032"><ele>542.4</ele><time>2013-11-23T10:17:24.0000000+00:00</time></trkpt><trkpt lat="30.58667755" lon="34.80823898"><ele>542.1</ele><time>2013-11-23T10:17:29.0000000+00:00</time></trkpt><trkpt lat="30.58672142" lon="34.80828476"><ele>542.0</ele><time>2013-11-23T10:17:34.0000000+00:00</time></trkpt><trkpt lat="30.5867691" lon="34.80839157"><ele>542.2</ele><time>2013-11-23T10:17:39.0000000+00:00</time></trkpt><trkpt lat="30.58680725" lon="34.80853272"><ele>541.3</ele><time>2013-11-23T10:17:44.0000000+00:00</time></trkpt><trkpt lat="30.58682823" lon="34.80869675"><ele>541.1</ele><time>2013-11-23T10:17:49.0000000+00:00</time></trkpt><trkpt lat="30.58684731" lon="34.80887604"><ele>540.6</ele><time>2013-11-23T10:17:54.0000000+00:00</time></trkpt><trkpt lat="30.58686829" lon="34.80905151"><ele>540.3</ele><time>2013-11-23T10:17:59.0000000+00:00</time></trkpt><trkpt lat="30.58695221" lon="34.80927658"><ele>538.8</ele><time>2013-11-23T10:18:04.0000000+00:00</time></trkpt><trkpt lat="30.58708954" lon="34.80957031"><ele>538.2</ele><time>2013-11-23T10:18:09.0000000+00:00</time></trkpt><trkpt lat="30.58721733" lon="34.80986786"><ele>538.3</ele><time>2013-11-23T10:18:14.0000000+00:00</time></trkpt><trkpt lat="30.58729363" lon="34.81014252"><ele>538.1</ele><time>2013-11-23T10:18:19.0000000+00:00</time></trkpt><trkpt lat="30.58733559" lon="34.81040192"><ele>536.2</ele><time>2013-11-23T10:18:24.0000000+00:00</time></trkpt><trkpt lat="30.58735466" lon="34.81059647"><ele>535.0</ele><time>2013-11-23T10:18:29.0000000+00:00</time></trkpt><trkpt lat="30.58739853" lon="34.81076813"><ele>535.8</ele><time>2013-11-23T10:18:34.0000000+00:00</time></trkpt><trkpt lat="30.58745003" lon="34.81095123"><ele>535.9</ele><time>2013-11-23T10:18:39.0000000+00:00</time></trkpt><trkpt lat="30.58752251" lon="34.81112289"><ele>535.6</ele><time>2013-11-23T10:18:44.0000000+00:00</time></trkpt><trkpt lat="30.58756065" lon="34.81124497"><ele>535.4</ele><time>2013-11-23T10:18:49.0000000+00:00</time></trkpt><trkpt lat="30.58758736" lon="34.81136322"><ele>535.1</ele><time>2013-11-23T10:18:54.0000000+00:00</time></trkpt><trkpt lat="30.58765602" lon="34.81150436"><ele>534.5</ele><time>2013-11-23T10:18:59.0000000+00:00</time></trkpt><trkpt lat="30.58773804" lon="34.81166458"><ele>531.9</ele><time>2013-11-23T10:19:04.0000000+00:00</time></trkpt><trkpt lat="30.58785629" lon="34.81200409"><ele>526.2</ele><time>2013-11-23T10:19:09.0000000+00:00</time></trkpt><trkpt lat="30.58805084" lon="34.81240845"><ele>524.6</ele><time>2013-11-23T10:19:14.0000000+00:00</time></trkpt><trkpt lat="30.58821297" lon="34.81276703"><ele>524.4</ele><time>2013-11-23T10:19:19.0000000+00:00</time></trkpt><trkpt lat="30.58827972" lon="34.81306076"><ele>524.4</ele><time>2013-11-23T10:19:24.0000000+00:00</time></trkpt><trkpt lat="30.58830833" lon="34.8132515"><ele>524.5</ele><time>2013-11-23T10:19:29.0000000+00:00</time></trkpt><trkpt lat="30.58834267" lon="34.81344223"><ele>525.0</ele><time>2013-11-23T10:19:34.0000000+00:00</time></trkpt><trkpt lat="30.58840179" lon="34.8136673"><ele>523.3</ele><time>2013-11-23T10:19:39.0000000+00:00</time></trkpt><trkpt lat="30.58843994" lon="34.81385803"><ele>524.4</ele><time>2013-11-23T10:19:44.0000000+00:00</time></trkpt><trkpt lat="30.58844948" lon="34.81406784"><ele>522.0</ele><time>2013-11-23T10:19:49.0000000+00:00</time></trkpt><trkpt lat="30.58845902" lon="34.81425095"><ele>522.9</ele><time>2013-11-23T10:19:54.0000000+00:00</time></trkpt><trkpt lat="30.58845902" lon="34.81446838"><ele>522.2</ele><time>2013-11-23T10:19:59.0000000+00:00</time></trkpt><trkpt lat="30.58845711" lon="34.81466675"><ele>522.6</ele><time>2013-11-23T10:20:04.0000000+00:00</time></trkpt><trkpt lat="30.58846664" lon="34.81488037"><ele>523.9</ele><time>2013-11-23T10:20:09.0000000+00:00</time></trkpt><trkpt lat="30.58849716" lon="34.81507874"><ele>522.3</ele><time>2013-11-23T10:20:14.0000000+00:00</time></trkpt><trkpt lat="30.58852959" lon="34.81523514"><ele>523.7</ele><time>2013-11-23T10:20:19.0000000+00:00</time></trkpt><trkpt lat="30.5885582" lon="34.81536865"><ele>524.9</ele><time>2013-11-23T10:20:24.0000000+00:00</time></trkpt><trkpt lat="30.58858872" lon="34.81555176"><ele>522.4</ele><time>2013-11-23T10:20:29.0000000+00:00</time></trkpt><trkpt lat="30.58859253" lon="34.81578827"><ele>521.3</ele><time>2013-11-23T10:20:34.0000000+00:00</time></trkpt><trkpt lat="30.58859825" lon="34.81604385"><ele>522.3</ele><time>2013-11-23T10:20:39.0000000+00:00</time></trkpt><trkpt lat="30.58861923" lon="34.81632614"><ele>523.8</ele><time>2013-11-23T10:20:44.0000000+00:00</time></trkpt><trkpt lat="30.58862686" lon="34.81665802"><ele>526.2</ele><time>2013-11-23T10:20:49.0000000+00:00</time></trkpt><trkpt lat="30.58857346" lon="34.81700516"><ele>526.2</ele><time>2013-11-23T10:20:54.0000000+00:00</time></trkpt><trkpt lat="30.58853722" lon="34.81734848"><ele>525.9</ele><time>2013-11-23T10:20:59.0000000+00:00</time></trkpt><trkpt lat="30.58856964" lon="34.81766129"><ele>527.5</ele><time>2013-11-23T10:21:04.0000000+00:00</time></trkpt><trkpt lat="30.58864975" lon="34.81798554"><ele>527.8</ele><time>2013-11-23T10:21:09.0000000+00:00</time></trkpt><trkpt lat="30.58870506" lon="34.81820297"><ele>530.3</ele><time>2013-11-23T10:21:14.0000000+00:00</time></trkpt><trkpt lat="30.58876038" lon="34.8183136"><ele>530.6</ele><time>2013-11-23T10:21:19.0000000+00:00</time></trkpt><trkpt lat="30.58881187" lon="34.8184433"><ele>530.8</ele><time>2013-11-23T10:21:24.0000000+00:00</time></trkpt><trkpt lat="30.58888245" lon="34.81860733"><ele>529.9</ele><time>2013-11-23T10:21:29.0000000+00:00</time></trkpt><trkpt lat="30.58897018" lon="34.8188324"><ele>527.1</ele><time>2013-11-23T10:21:34.0000000+00:00</time></trkpt><trkpt lat="30.58907127" lon="34.81904984"><ele>526.3</ele><time>2013-11-23T10:21:39.0000000+00:00</time></trkpt><trkpt lat="30.58918762" lon="34.81925201"><ele>527.5</ele><time>2013-11-23T10:21:44.0000000+00:00</time></trkpt><trkpt lat="30.58929634" lon="34.81948471"><ele>526.8</ele><time>2013-11-23T10:21:49.0000000+00:00</time></trkpt><trkpt lat="30.58935356" lon="34.8197937"><ele>524.7</ele><time>2013-11-23T10:21:54.0000000+00:00</time></trkpt><trkpt lat="30.5893898" lon="34.82010269"><ele>526.6</ele><time>2013-11-23T10:21:59.0000000+00:00</time></trkpt><trkpt lat="30.58944893" lon="34.82036972"><ele>526.6</ele><time>2013-11-23T10:22:04.0000000+00:00</time></trkpt><trkpt lat="30.58951187" lon="34.82059097"><ele>525.8</ele><time>2013-11-23T10:22:09.0000000+00:00</time></trkpt><trkpt lat="30.58954239" lon="34.8207016"><ele>527.6</ele><time>2013-11-23T10:22:14.0000000+00:00</time></trkpt><trkpt lat="30.58957291" lon="34.8208313"><ele>525.7</ele><time>2013-11-23T10:22:19.0000000+00:00</time></trkpt><trkpt lat="30.58958435" lon="34.82098389"><ele>526.2</ele><time>2013-11-23T10:22:24.0000000+00:00</time></trkpt><trkpt lat="30.58961868" lon="34.82120132"><ele>524.8</ele><time>2013-11-23T10:22:29.0000000+00:00</time></trkpt><trkpt lat="30.58967018" lon="34.82144165"><ele>523.3</ele><time>2013-11-23T10:22:34.0000000+00:00</time></trkpt><trkpt lat="30.58971977" lon="34.82167816"><ele>523.2</ele><time>2013-11-23T10:22:39.0000000+00:00</time></trkpt><trkpt lat="30.58975411" lon="34.82197952"><ele>521.8</ele><time>2013-11-23T10:22:44.0000000+00:00</time></trkpt><trkpt lat="30.5898056" lon="34.82227325"><ele>520.0</ele><time>2013-11-23T10:22:49.0000000+00:00</time></trkpt><trkpt lat="30.58983994" lon="34.82252502"><ele>521.0</ele><time>2013-11-23T10:22:54.0000000+00:00</time></trkpt><trkpt lat="30.58986664" lon="34.82277679"><ele>520.9</ele><time>2013-11-23T10:22:59.0000000+00:00</time></trkpt><trkpt lat="30.5898819" lon="34.82303238"><ele>522.2</ele><time>2013-11-23T10:23:04.0000000+00:00</time></trkpt><trkpt lat="30.58989906" lon="34.82325363"><ele>522.7</ele><time>2013-11-23T10:23:09.0000000+00:00</time></trkpt><trkpt lat="30.58992004" lon="34.82345963"><ele>523.3</ele><time>2013-11-23T10:23:14.0000000+00:00</time></trkpt><trkpt lat="30.58994675" lon="34.82365418"><ele>522.8</ele><time>2013-11-23T10:23:19.0000000+00:00</time></trkpt><trkpt lat="30.58994675" lon="34.82387924"><ele>523.4</ele><time>2013-11-23T10:23:24.0000000+00:00</time></trkpt><trkpt lat="30.58994865" lon="34.82412338"><ele>523.9</ele><time>2013-11-23T10:23:29.0000000+00:00</time></trkpt><trkpt lat="30.58995628" lon="34.82434082"><ele>524.5</ele><time>2013-11-23T10:23:34.0000000+00:00</time></trkpt><trkpt lat="30.58998489" lon="34.82460022"><ele>524.6</ele><time>2013-11-23T10:23:39.0000000+00:00</time></trkpt><trkpt lat="30.58999634" lon="34.82484818"><ele>524.6</ele><time>2013-11-23T10:23:44.0000000+00:00</time></trkpt><trkpt lat="30.58996582" lon="34.82505417"><ele>525.3</ele><time>2013-11-23T10:23:49.0000000+00:00</time></trkpt><trkpt lat="30.58987236" lon="34.82525635"><ele>525.4</ele><time>2013-11-23T10:23:54.0000000+00:00</time></trkpt><trkpt lat="30.58974075" lon="34.82540894"><ele>525.2</ele><time>2013-11-23T10:23:59.0000000+00:00</time></trkpt><trkpt lat="30.58965874" lon="34.82551575"><ele>524.4</ele><time>2013-11-23T10:24:04.0000000+00:00</time></trkpt><trkpt lat="30.5896225" lon="34.82560349"><ele>524.9</ele><time>2013-11-23T10:24:09.0000000+00:00</time></trkpt><trkpt lat="30.58958626" lon="34.82569885"><ele>526.3</ele><time>2013-11-23T10:24:14.0000000+00:00</time></trkpt><trkpt lat="30.58957481" lon="34.82583618"><ele>526.7</ele><time>2013-11-23T10:24:19.0000000+00:00</time></trkpt><trkpt lat="30.58959389" lon="34.82595062"><ele>527.1</ele><time>2013-11-23T10:24:24.0000000+00:00</time></trkpt><trkpt lat="30.58960724" lon="34.8261528"><ele>527.4</ele><time>2013-11-23T10:24:29.0000000+00:00</time></trkpt><trkpt lat="30.58963585" lon="34.82635117"><ele>527.4</ele><time>2013-11-23T10:24:34.0000000+00:00</time></trkpt><trkpt lat="30.58966637" lon="34.82653427"><ele>527.0</ele><time>2013-11-23T10:24:39.0000000+00:00</time></trkpt><trkpt lat="30.58970833" lon="34.82675552"><ele>526.4</ele><time>2013-11-23T10:24:44.0000000+00:00</time></trkpt><trkpt lat="30.58975983" lon="34.82697296"><ele>526.4</ele><time>2013-11-23T10:24:49.0000000+00:00</time></trkpt><trkpt lat="30.58982849" lon="34.82720947"><ele>526.8</ele><time>2013-11-23T10:24:54.0000000+00:00</time></trkpt><trkpt lat="30.58987808" lon="34.82744217"><ele>526.3</ele><time>2013-11-23T10:24:59.0000000+00:00</time></trkpt><trkpt lat="30.58991814" lon="34.82766342"><ele>526.4</ele><time>2013-11-23T10:25:04.0000000+00:00</time></trkpt><trkpt lat="30.58996391" lon="34.82788086"><ele>527.0</ele><time>2013-11-23T10:25:09.0000000+00:00</time></trkpt><trkpt lat="30.59007072" lon="34.82810211"><ele>527.0</ele><time>2013-11-23T10:25:14.0000000+00:00</time></trkpt><trkpt lat="30.59023285" lon="34.82827377"><ele>525.3</ele><time>2013-11-23T10:25:19.0000000+00:00</time></trkpt><trkpt lat="30.59044838" lon="34.82842636"><ele>522.5</ele><time>2013-11-23T10:25:24.0000000+00:00</time></trkpt><trkpt lat="30.59057999" lon="34.82865524"><ele>521.6</ele><time>2013-11-23T10:25:29.0000000+00:00</time></trkpt><trkpt lat="30.59058189" lon="34.82892609"><ele>521.2</ele><time>2013-11-23T10:25:34.0000000+00:00</time></trkpt><trkpt lat="30.59057808" lon="34.82916641"><ele>520.5</ele><time>2013-11-23T10:25:39.0000000+00:00</time></trkpt><trkpt lat="30.59055519" lon="34.82938004"><ele>518.7</ele><time>2013-11-23T10:25:44.0000000+00:00</time></trkpt><trkpt lat="30.5905571" lon="34.82956696"><ele>517.1</ele><time>2013-11-23T10:25:49.0000000+00:00</time></trkpt><trkpt lat="30.59060478" lon="34.82969284"><ele>516.8</ele><time>2013-11-23T10:25:54.0000000+00:00</time></trkpt><trkpt lat="30.59067726" lon="34.82981491"><ele>516.1</ele><time>2013-11-23T10:25:59.0000000+00:00</time></trkpt><trkpt lat="30.59080315" lon="34.82992935"><ele>515.8</ele><time>2013-11-23T10:26:04.0000000+00:00</time></trkpt><trkpt lat="30.59095955" lon="34.82996368"><ele>516.2</ele><time>2013-11-23T10:26:09.0000000+00:00</time></trkpt><trkpt lat="30.59103966" lon="34.83003998"><ele>518.1</ele><time>2013-11-23T10:26:14.0000000+00:00</time></trkpt><trkpt lat="30.59115219" lon="34.83019257"><ele>518.5</ele><time>2013-11-23T10:26:19.0000000+00:00</time></trkpt><trkpt lat="30.59122849" lon="34.83031845"><ele>518.2</ele><time>2013-11-23T10:26:24.0000000+00:00</time></trkpt><trkpt lat="30.59130287" lon="34.83046341"><ele>518.4</ele><time>2013-11-23T10:26:29.0000000+00:00</time></trkpt><trkpt lat="30.59134674" lon="34.83063889"><ele>518.6</ele><time>2013-11-23T10:26:34.0000000+00:00</time></trkpt><trkpt lat="30.59138298" lon="34.83085251"><ele>518.2</ele><time>2013-11-23T10:26:39.0000000+00:00</time></trkpt><trkpt lat="30.59137726" lon="34.83102036"><ele>518.0</ele><time>2013-11-23T10:26:44.0000000+00:00</time></trkpt><trkpt lat="30.59139633" lon="34.83116531"><ele>516.8</ele><time>2013-11-23T10:26:49.0000000+00:00</time></trkpt><trkpt lat="30.59140205" lon="34.83130264"><ele>516.0</ele><time>2013-11-23T10:26:54.0000000+00:00</time></trkpt><trkpt lat="30.59139061" lon="34.83147812"><ele>514.7</ele><time>2013-11-23T10:26:59.0000000+00:00</time></trkpt><trkpt lat="30.59139442" lon="34.83164215"><ele>514.2</ele><time>2013-11-23T10:27:04.0000000+00:00</time></trkpt><trkpt lat="30.59140778" lon="34.83174515"><ele>512.8</ele><time>2013-11-23T10:27:09.0000000+00:00</time></trkpt><trkpt lat="30.59142494" lon="34.83178711"><ele>512.0</ele><time>2013-11-23T10:27:14.0000000+00:00</time></trkpt><trkpt lat="30.59144402" lon="34.83181"><ele>511.0</ele><time>2013-11-23T10:27:19.0000000+00:00</time></trkpt><trkpt lat="30.59145355" lon="34.83181763"><ele>511.2</ele><time>2013-11-23T10:27:24.0000000+00:00</time></trkpt><trkpt lat="30.59145355" lon="34.83181763"><ele>511.2</ele><time>2013-11-23T10:27:29.0000000+00:00</time></trkpt><trkpt lat="30.59145355" lon="34.83181763"><ele>511.2</ele><time>2013-11-23T10:27:34.0000000+00:00</time></trkpt><trkpt lat="30.59145355" lon="34.83181763"><ele>511.2</ele><time>2013-11-23T10:27:39.0000000+00:00</time></trkpt><trkpt lat="30.59145355" lon="34.83181763"><ele>511.2</ele><time>2013-11-23T10:27:44.0000000+00:00</time></trkpt><trkpt lat="30.59145355" lon="34.83181763"><ele>511.2</ele><time>2013-11-23T10:27:49.0000000+00:00</time></trkpt><trkpt lat="30.59145355" lon="34.83181763"><ele>511.3</ele><time>2013-11-23T10:27:54.0000000+00:00</time></trkpt><trkpt lat="30.59145737" lon="34.83187866"><ele>511.3</ele><time>2013-11-23T10:27:59.0000000+00:00</time></trkpt><trkpt lat="30.59145355" lon="34.83200073"><ele>511.2</ele><time>2013-11-23T10:28:04.0000000+00:00</time></trkpt><trkpt lat="30.59145737" lon="34.83218002"><ele>510.4</ele><time>2013-11-23T10:28:09.0000000+00:00</time></trkpt><trkpt lat="30.59147453" lon="34.83234024"><ele>510.1</ele><time>2013-11-23T10:28:14.0000000+00:00</time></trkpt><trkpt lat="30.59150124" lon="34.83250046"><ele>510.1</ele><time>2013-11-23T10:28:19.0000000+00:00</time></trkpt><trkpt lat="30.59152985" lon="34.83266068"><ele>510.4</ele><time>2013-11-23T10:28:24.0000000+00:00</time></trkpt><trkpt lat="30.59156227" lon="34.8328476"><ele>511.7</ele><time>2013-11-23T10:28:29.0000000+00:00</time></trkpt><trkpt lat="30.5915966" lon="34.83300018"><ele>513.5</ele><time>2013-11-23T10:28:34.0000000+00:00</time></trkpt><trkpt lat="30.59166145" lon="34.8331604"><ele>514.1</ele><time>2013-11-23T10:28:39.0000000+00:00</time></trkpt><trkpt lat="30.5917244" lon="34.83330154"><ele>514.0</ele><time>2013-11-23T10:28:44.0000000+00:00</time></trkpt><trkpt lat="30.59176636" lon="34.83344269"><ele>515.0</ele><time>2013-11-23T10:28:49.0000000+00:00</time></trkpt><trkpt lat="30.59177208" lon="34.8335762"><ele>515.2</ele><time>2013-11-23T10:28:54.0000000+00:00</time></trkpt><trkpt lat="30.59172058" lon="34.8337059"><ele>515.3</ele><time>2013-11-23T10:28:59.0000000+00:00</time></trkpt><trkpt lat="30.59169769" lon="34.83383179"><ele>515.8</ele><time>2013-11-23T10:29:04.0000000+00:00</time></trkpt><trkpt lat="30.59169388" lon="34.83382416"><ele>516.4</ele><time>2013-11-23T10:29:09.0000000+00:00</time></trkpt><trkpt lat="30.59169388" lon="34.83382034"><ele>516.4</ele><time>2013-11-23T10:29:14.0000000+00:00</time></trkpt><trkpt lat="30.59169388" lon="34.83382034"><ele>516.5</ele><time>2013-11-23T10:29:19.0000000+00:00</time></trkpt><trkpt lat="30.59169388" lon="34.83382034"><ele>516.5</ele><time>2013-11-23T10:29:24.0000000+00:00</time></trkpt><trkpt lat="30.59169197" lon="34.83382034"><ele>516.5</ele><time>2013-11-23T10:29:29.0000000+00:00</time></trkpt><trkpt lat="30.59169197" lon="34.83382034"><ele>516.5</ele><time>2013-11-23T10:29:34.0000000+00:00</time></trkpt><trkpt lat="30.59168816" lon="34.83388519"><ele>516.6</ele><time>2013-11-23T10:29:39.0000000+00:00</time></trkpt><trkpt lat="30.59164619" lon="34.83404923"><ele>516.9</ele><time>2013-11-23T10:29:44.0000000+00:00</time></trkpt><trkpt lat="30.59156227" lon="34.83419418"><ele>517.3</ele><time>2013-11-23T10:29:49.0000000+00:00</time></trkpt><trkpt lat="30.59151268" lon="34.83437729"><ele>516.9</ele><time>2013-11-23T10:29:54.0000000+00:00</time></trkpt><trkpt lat="30.59153175" lon="34.83448792"><ele>517.4</ele><time>2013-11-23T10:29:59.0000000+00:00</time></trkpt><trkpt lat="30.59155464" lon="34.83457184"><ele>518.6</ele><time>2013-11-23T10:30:04.0000000+00:00</time></trkpt><trkpt lat="30.59156036" lon="34.83457947"><ele>518.9</ele><time>2013-11-23T10:30:09.0000000+00:00</time></trkpt><trkpt lat="30.59156036" lon="34.83457947"><ele>518.9</ele><time>2013-11-23T10:30:14.0000000+00:00</time></trkpt><trkpt lat="30.59156036" lon="34.83457565"><ele>519.0</ele><time>2013-11-23T10:30:19.0000000+00:00</time></trkpt><trkpt lat="30.59156799" lon="34.83459854"><ele>519.5</ele><time>2013-11-23T10:30:24.0000000+00:00</time></trkpt><trkpt lat="30.59157753" lon="34.83468628"><ele>520.7</ele><time>2013-11-23T10:30:29.0000000+00:00</time></trkpt><trkpt lat="30.59158135" lon="34.83476639"><ele>521.8</ele><time>2013-11-23T10:30:34.0000000+00:00</time></trkpt><trkpt lat="30.59157372" lon="34.83486557"><ele>522.4</ele><time>2013-11-23T10:30:39.0000000+00:00</time></trkpt><trkpt lat="30.59154892" lon="34.83495331"><ele>523.2</ele><time>2013-11-23T10:30:44.0000000+00:00</time></trkpt><trkpt lat="30.5915165" lon="34.83502197"><ele>523.3</ele><time>2013-11-23T10:30:49.0000000+00:00</time></trkpt><trkpt lat="30.59148979" lon="34.83508682"><ele>524.0</ele><time>2013-11-23T10:30:54.0000000+00:00</time></trkpt><trkpt lat="30.59146881" lon="34.83517456"><ele>524.9</ele><time>2013-11-23T10:30:59.0000000+00:00</time></trkpt><trkpt lat="30.59142494" lon="34.83526993"><ele>524.8</ele><time>2013-11-23T10:31:04.0000000+00:00</time></trkpt><trkpt lat="30.59136772" lon="34.83537293"><ele>525.2</ele><time>2013-11-23T10:31:09.0000000+00:00</time></trkpt><trkpt lat="30.59129334" lon="34.83547211"><ele>526.0</ele><time>2013-11-23T10:31:14.0000000+00:00</time></trkpt><trkpt lat="30.5912056" lon="34.83557129"><ele>526.9</ele><time>2013-11-23T10:31:19.0000000+00:00</time></trkpt><trkpt lat="30.59113503" lon="34.8356781"><ele>527.8</ele><time>2013-11-23T10:31:24.0000000+00:00</time></trkpt><trkpt lat="30.5910759" lon="34.83577728"><ele>528.4</ele><time>2013-11-23T10:31:29.0000000+00:00</time></trkpt><trkpt lat="30.59102821" lon="34.83587265"><ele>528.5</ele><time>2013-11-23T10:31:34.0000000+00:00</time></trkpt><trkpt lat="30.59098053" lon="34.83599854"><ele>530.0</ele><time>2013-11-23T10:31:39.0000000+00:00</time></trkpt><trkpt lat="30.59091187" lon="34.83609772"><ele>529.9</ele><time>2013-11-23T10:31:44.0000000+00:00</time></trkpt><trkpt lat="30.59083748" lon="34.83620834"><ele>530.7</ele><time>2013-11-23T10:31:49.0000000+00:00</time></trkpt><trkpt lat="30.59074783" lon="34.83631516"><ele>531.4</ele><time>2013-11-23T10:31:54.0000000+00:00</time></trkpt><trkpt lat="30.59064865" lon="34.83640671"><ele>531.5</ele><time>2013-11-23T10:31:59.0000000+00:00</time></trkpt><trkpt lat="30.5905571" lon="34.83647919"><ele>531.8</ele><time>2013-11-23T10:32:04.0000000+00:00</time></trkpt><trkpt lat="30.59045601" lon="34.83656311"><ele>532.0</ele><time>2013-11-23T10:32:09.0000000+00:00</time></trkpt><trkpt lat="30.59038734" lon="34.83662033"><ele>533.1</ele><time>2013-11-23T10:32:14.0000000+00:00</time></trkpt><trkpt lat="30.5902977" lon="34.83669281"><ele>533.5</ele><time>2013-11-23T10:32:19.0000000+00:00</time></trkpt><trkpt lat="30.59019089" lon="34.8368187"><ele>532.6</ele><time>2013-11-23T10:32:24.0000000+00:00</time></trkpt><trkpt lat="30.59010696" lon="34.83700562"><ele>533.0</ele><time>2013-11-23T10:32:29.0000000+00:00</time></trkpt><trkpt lat="30.5900135" lon="34.83718491"><ele>532.2</ele><time>2013-11-23T10:32:34.0000000+00:00</time></trkpt><trkpt lat="30.58995819" lon="34.83729553"><ele>531.9</ele><time>2013-11-23T10:32:39.0000000+00:00</time></trkpt><trkpt lat="30.58987618" lon="34.8374176"><ele>530.2</ele><time>2013-11-23T10:32:44.0000000+00:00</time></trkpt><trkpt lat="30.58972931" lon="34.83751297"><ele>527.8</ele><time>2013-11-23T10:32:49.0000000+00:00</time></trkpt><trkpt lat="30.58952332" lon="34.83758926"><ele>525.1</ele><time>2013-11-23T10:32:54.0000000+00:00</time></trkpt><trkpt lat="30.58926392" lon="34.83773422"><ele>523.0</ele><time>2013-11-23T10:32:59.0000000+00:00</time></trkpt><trkpt lat="30.58917999" lon="34.83792496"><ele>523.3</ele><time>2013-11-23T10:33:04.0000000+00:00</time></trkpt><trkpt lat="30.58911324" lon="34.83804321"><ele>523.9</ele><time>2013-11-23T10:33:09.0000000+00:00</time></trkpt><trkpt lat="30.58902359" lon="34.83811188"><ele>524.7</ele><time>2013-11-23T10:33:14.0000000+00:00</time></trkpt><trkpt lat="30.58891678" lon="34.83816528"><ele>525.4</ele><time>2013-11-23T10:33:19.0000000+00:00</time></trkpt><trkpt lat="30.58880615" lon="34.83821487"><ele>526.5</ele><time>2013-11-23T10:33:24.0000000+00:00</time></trkpt><trkpt lat="30.58872414" lon="34.83825684"><ele>526.9</ele><time>2013-11-23T10:33:29.0000000+00:00</time></trkpt><trkpt lat="30.58862877" lon="34.83831787"><ele>527.2</ele><time>2013-11-23T10:33:34.0000000+00:00</time></trkpt><trkpt lat="30.58856583" lon="34.83838272"><ele>526.9</ele><time>2013-11-23T10:33:39.0000000+00:00</time></trkpt><trkpt lat="30.58852387" lon="34.83845139"><ele>528.0</ele><time>2013-11-23T10:33:44.0000000+00:00</time></trkpt><trkpt lat="30.58848381" lon="34.83852387"><ele>528.9</ele><time>2013-11-23T10:33:49.0000000+00:00</time></trkpt><trkpt lat="30.58844757" lon="34.83859253"><ele>529.3</ele><time>2013-11-23T10:33:54.0000000+00:00</time></trkpt><trkpt lat="30.58842087" lon="34.83866882"><ele>529.7</ele><time>2013-11-23T10:33:59.0000000+00:00</time></trkpt><trkpt lat="30.58839417" lon="34.83872986"><ele>531.1</ele><time>2013-11-23T10:34:04.0000000+00:00</time></trkpt><trkpt lat="30.58835983" lon="34.83878326"><ele>531.4</ele><time>2013-11-23T10:34:09.0000000+00:00</time></trkpt><trkpt lat="30.58833695" lon="34.83885956"><ele>533.1</ele><time>2013-11-23T10:34:14.0000000+00:00</time></trkpt><trkpt lat="30.58832169" lon="34.83891296"><ele>536.0</ele><time>2013-11-23T10:34:19.0000000+00:00</time></trkpt><trkpt lat="30.58830833" lon="34.838974"><ele>537.9</ele><time>2013-11-23T10:34:24.0000000+00:00</time></trkpt><trkpt lat="30.58828545" lon="34.83903503"><ele>539.7</ele><time>2013-11-23T10:34:29.0000000+00:00</time></trkpt><trkpt lat="30.58826828" lon="34.83909988"><ele>541.6</ele><time>2013-11-23T10:34:34.0000000+00:00</time></trkpt><trkpt lat="30.58824921" lon="34.83916855"><ele>542.5</ele><time>2013-11-23T10:34:39.0000000+00:00</time></trkpt><trkpt lat="30.58820725" lon="34.83924484"><ele>544.0</ele><time>2013-11-23T10:34:44.0000000+00:00</time></trkpt><trkpt lat="30.58814621" lon="34.8393364"><ele>544.4</ele><time>2013-11-23T10:34:49.0000000+00:00</time></trkpt><trkpt lat="30.58808899" lon="34.83944321"><ele>545.1</ele><time>2013-11-23T10:34:54.0000000+00:00</time></trkpt><trkpt lat="30.58804894" lon="34.83953095"><ele>546.1</ele><time>2013-11-23T10:34:59.0000000+00:00</time></trkpt><trkpt lat="30.58800125" lon="34.83966446"><ele>546.3</ele><time>2013-11-23T10:35:04.0000000+00:00</time></trkpt><trkpt lat="30.5879364" lon="34.83979416"><ele>546.5</ele><time>2013-11-23T10:35:09.0000000+00:00</time></trkpt><trkpt lat="30.58787346" lon="34.83990097"><ele>546.5</ele><time>2013-11-23T10:35:14.0000000+00:00</time></trkpt><trkpt lat="30.58778954" lon="34.84001923"><ele>545.6</ele><time>2013-11-23T10:35:19.0000000+00:00</time></trkpt><trkpt lat="30.587677" lon="34.840168"><ele>542.1</ele><time>2013-11-23T10:35:24.0000000+00:00</time></trkpt><trkpt lat="30.58758926" lon="34.84040451"><ele>538.9</ele><time>2013-11-23T10:35:29.0000000+00:00</time></trkpt><trkpt lat="30.58750153" lon="34.84072876"><ele>537.8</ele><time>2013-11-23T10:35:34.0000000+00:00</time></trkpt><trkpt lat="30.5874939" lon="34.84092712"><ele>538.1</ele><time>2013-11-23T10:35:39.0000000+00:00</time></trkpt><trkpt lat="30.58744812" lon="34.8411026"><ele>537.3</ele><time>2013-11-23T10:35:44.0000000+00:00</time></trkpt><trkpt lat="30.58738709" lon="34.84125519"><ele>536.6</ele><time>2013-11-23T10:35:49.0000000+00:00</time></trkpt><trkpt lat="30.58732987" lon="34.8413887"><ele>536.3</ele><time>2013-11-23T10:35:54.0000000+00:00</time></trkpt><trkpt lat="30.58725739" lon="34.84150314"><ele>536.7</ele><time>2013-11-23T10:35:59.0000000+00:00</time></trkpt><trkpt lat="30.58716393" lon="34.84161377"><ele>537.8</ele><time>2013-11-23T10:36:04.0000000+00:00</time></trkpt><trkpt lat="30.58705139" lon="34.84167481"><ele>536.5</ele><time>2013-11-23T10:36:09.0000000+00:00</time></trkpt><trkpt lat="30.58691025" lon="34.84180832"><ele>534.4</ele><time>2013-11-23T10:36:14.0000000+00:00</time></trkpt><trkpt lat="30.58675003" lon="34.84196091"><ele>534.0</ele><time>2013-11-23T10:36:19.0000000+00:00</time></trkpt><trkpt lat="30.58663559" lon="34.84205246"><ele>533.9</ele><time>2013-11-23T10:36:24.0000000+00:00</time></trkpt><trkpt lat="30.58655357" lon="34.84217835"><ele>535.0</ele><time>2013-11-23T10:36:29.0000000+00:00</time></trkpt><trkpt lat="30.58652878" lon="34.84235764"><ele>534.4</ele><time>2013-11-23T10:36:34.0000000+00:00</time></trkpt><trkpt lat="30.58649826" lon="34.84253311"><ele>534.6</ele><time>2013-11-23T10:36:39.0000000+00:00</time></trkpt><trkpt lat="30.58642387" lon="34.84268189"><ele>532.9</ele><time>2013-11-23T10:36:44.0000000+00:00</time></trkpt><trkpt lat="30.58627701" lon="34.8428154"><ele>532.3</ele><time>2013-11-23T10:36:49.0000000+00:00</time></trkpt><trkpt lat="30.5861187" lon="34.84287262"><ele>532.7</ele><time>2013-11-23T10:36:54.0000000+00:00</time></trkpt><trkpt lat="30.58595467" lon="34.84294891"><ele>532.1</ele><time>2013-11-23T10:36:59.0000000+00:00</time></trkpt><trkpt lat="30.58581162" lon="34.84306335"><ele>531.9</ele><time>2013-11-23T10:37:04.0000000+00:00</time></trkpt><trkpt lat="30.58569527" lon="34.84316635"><ele>531.8</ele><time>2013-11-23T10:37:09.0000000+00:00</time></trkpt><trkpt lat="30.58555412" lon="34.84321213"><ele>532.3</ele><time>2013-11-23T10:37:14.0000000+00:00</time></trkpt><trkpt lat="30.58541298" lon="34.84322357"><ele>532.6</ele><time>2013-11-23T10:37:19.0000000+00:00</time></trkpt><trkpt lat="30.58524704" lon="34.84324646"><ele>533.4</ele><time>2013-11-23T10:37:24.0000000+00:00</time></trkpt><trkpt lat="30.58510017" lon="34.84327316"><ele>534.0</ele><time>2013-11-23T10:37:29.0000000+00:00</time></trkpt><trkpt lat="30.58493042" lon="34.84327316"><ele>534.6</ele><time>2013-11-23T10:37:34.0000000+00:00</time></trkpt><trkpt lat="30.58480072" lon="34.84327698"><ele>534.5</ele><time>2013-11-23T10:37:39.0000000+00:00</time></trkpt><trkpt lat="30.58471489" lon="34.84328079"><ele>534.6</ele><time>2013-11-23T10:37:44.0000000+00:00</time></trkpt><trkpt lat="30.58457375" lon="34.84331513"><ele>534.2</ele><time>2013-11-23T10:37:49.0000000+00:00</time></trkpt><trkpt lat="30.58446121" lon="34.84335709"><ele>535.1</ele><time>2013-11-23T10:37:54.0000000+00:00</time></trkpt><trkpt lat="30.58433342" lon="34.84340286"><ele>535.3</ele><time>2013-11-23T10:37:59.0000000+00:00</time></trkpt><trkpt lat="30.58421135" lon="34.84345627"><ele>535.4</ele><time>2013-11-23T10:38:04.0000000+00:00</time></trkpt><trkpt lat="30.58412361" lon="34.84347916"><ele>535.4</ele><time>2013-11-23T10:38:09.0000000+00:00</time></trkpt><trkpt lat="30.58400536" lon="34.84352875"><ele>536.3</ele><time>2013-11-23T10:38:14.0000000+00:00</time></trkpt><trkpt lat="30.58387375" lon="34.84358978"><ele>536.6</ele><time>2013-11-23T10:38:19.0000000+00:00</time></trkpt><trkpt lat="30.58378983" lon="34.84364319"><ele>537.1</ele><time>2013-11-23T10:38:24.0000000+00:00</time></trkpt><trkpt lat="30.58369827" lon="34.84370804"><ele>537.0</ele><time>2013-11-23T10:38:29.0000000+00:00</time></trkpt><trkpt lat="30.58360291" lon="34.84377289"><ele>537.4</ele><time>2013-11-23T10:38:34.0000000+00:00</time></trkpt><trkpt lat="30.583498" lon="34.84382629"><ele>537.3</ele><time>2013-11-23T10:38:39.0000000+00:00</time></trkpt><trkpt lat="30.58333015" lon="34.84386063"><ele>537.3</ele><time>2013-11-23T10:38:44.0000000+00:00</time></trkpt><trkpt lat="30.58311653" lon="34.84387589"><ele>535.2</ele><time>2013-11-23T10:38:49.0000000+00:00</time></trkpt><trkpt lat="30.58289719" lon="34.84395599"><ele>535.0</ele><time>2013-11-23T10:38:54.0000000+00:00</time></trkpt><trkpt lat="30.58273506" lon="34.8440361"><ele>535.8</ele><time>2013-11-23T10:38:59.0000000+00:00</time></trkpt><trkpt lat="30.58260155" lon="34.84418869"><ele>536.3</ele><time>2013-11-23T10:39:04.0000000+00:00</time></trkpt><trkpt lat="30.5824852" lon="34.84432983"><ele>536.5</ele><time>2013-11-23T10:39:09.0000000+00:00</time></trkpt><trkpt lat="30.58238411" lon="34.84441376"><ele>537.0</ele><time>2013-11-23T10:39:14.0000000+00:00</time></trkpt><trkpt lat="30.58224869" lon="34.84446335"><ele>538.1</ele><time>2013-11-23T10:39:19.0000000+00:00</time></trkpt><trkpt lat="30.58211899" lon="34.84453964"><ele>537.6</ele><time>2013-11-23T10:39:24.0000000+00:00</time></trkpt><trkpt lat="30.58201027" lon="34.84467697"><ele>537.4</ele><time>2013-11-23T10:39:29.0000000+00:00</time></trkpt><trkpt lat="30.58191109" lon="34.84476852"><ele>537.5</ele><time>2013-11-23T10:39:34.0000000+00:00</time></trkpt><trkpt lat="30.58176422" lon="34.84485626"><ele>537.9</ele><time>2013-11-23T10:39:39.0000000+00:00</time></trkpt><trkpt lat="30.5816288" lon="34.84493637"><ele>537.5</ele><time>2013-11-23T10:39:44.0000000+00:00</time></trkpt><trkpt lat="30.5814743" lon="34.84504318"><ele>537.7</ele><time>2013-11-23T10:39:49.0000000+00:00</time></trkpt><trkpt lat="30.58134651" lon="34.84514999"><ele>537.7</ele><time>2013-11-23T10:39:54.0000000+00:00</time></trkpt><trkpt lat="30.58122635" lon="34.84526444"><ele>537.8</ele><time>2013-11-23T10:39:59.0000000+00:00</time></trkpt><trkpt lat="30.58112145" lon="34.84533691"><ele>538.0</ele><time>2013-11-23T10:40:04.0000000+00:00</time></trkpt><trkpt lat="30.58098412" lon="34.84542084"><ele>538.4</ele><time>2013-11-23T10:40:09.0000000+00:00</time></trkpt><trkpt lat="30.58085632" lon="34.84552765"><ele>538.0</ele><time>2013-11-23T10:40:14.0000000+00:00</time></trkpt><trkpt lat="30.5807991" lon="34.84557343"><ele>539.0</ele><time>2013-11-23T10:40:19.0000000+00:00</time></trkpt><trkpt lat="30.58080101" lon="34.84556961"><ele>539.0</ele><time>2013-11-23T10:40:24.0000000+00:00</time></trkpt><trkpt lat="30.58080101" lon="34.84556961"><ele>539.0</ele><time>2013-11-23T10:40:29.0000000+00:00</time></trkpt><trkpt lat="30.58080101" lon="34.84556961"><ele>539.1</ele><time>2013-11-23T10:40:34.0000000+00:00</time></trkpt><trkpt lat="30.58080101" lon="34.84556961"><ele>539.1</ele><time>2013-11-23T10:40:39.0000000+00:00</time></trkpt><trkpt lat="30.58080292" lon="34.84556961"><ele>539.2</ele><time>2013-11-23T10:40:44.0000000+00:00</time></trkpt><trkpt lat="30.58080292" lon="34.84556961"><ele>539.2</ele><time>2013-11-23T10:40:49.0000000+00:00</time></trkpt><trkpt lat="30.58080292" lon="34.84556961"><ele>539.3</ele><time>2013-11-23T10:40:54.0000000+00:00</time></trkpt><trkpt lat="30.58080292" lon="34.84556961"><ele>539.3</ele><time>2013-11-23T10:40:59.0000000+00:00</time></trkpt><trkpt lat="30.58080292" lon="34.84556961"><ele>539.3</ele><time>2013-11-23T10:41:04.0000000+00:00</time></trkpt><trkpt lat="30.58080292" lon="34.84556961"><ele>539.3</ele><time>2013-11-23T10:41:09.0000000+00:00</time></trkpt><trkpt lat="30.58080292" lon="34.84556961"><ele>539.3</ele><time>2013-11-23T10:41:14.0000000+00:00</time></trkpt><trkpt lat="30.58080292" lon="34.84556961"><ele>539.3</ele><time>2013-11-23T10:41:19.0000000+00:00</time></trkpt><trkpt lat="30.5807476" lon="34.84561539"><ele>539.6</ele><time>2013-11-23T10:41:24.0000000+00:00</time></trkpt><trkpt lat="30.58063698" lon="34.84565735"><ele>540.1</ele><time>2013-11-23T10:41:29.0000000+00:00</time></trkpt><trkpt lat="30.58051682" lon="34.84569168"><ele>541.5</ele><time>2013-11-23T10:41:34.0000000+00:00</time></trkpt><trkpt lat="30.58040619" lon="34.84576798"><ele>542.6</ele><time>2013-11-23T10:41:39.0000000+00:00</time></trkpt><trkpt lat="30.58029366" lon="34.84582138"><ele>544.2</ele><time>2013-11-23T10:41:44.0000000+00:00</time></trkpt><trkpt lat="30.58016396" lon="34.8458252"><ele>544.1</ele><time>2013-11-23T10:41:49.0000000+00:00</time></trkpt><trkpt lat="30.58003235" lon="34.84578705"><ele>543.8</ele><time>2013-11-23T10:41:54.0000000+00:00</time></trkpt><trkpt lat="30.57989693" lon="34.84577942"><ele>544.9</ele><time>2013-11-23T10:41:59.0000000+00:00</time></trkpt><trkpt lat="30.57975006" lon="34.84584045"><ele>545.5</ele><time>2013-11-23T10:42:04.0000000+00:00</time></trkpt><trkpt lat="30.57967186" lon="34.84592056"><ele>546.1</ele><time>2013-11-23T10:42:09.0000000+00:00</time></trkpt><trkpt lat="30.57958794" lon="34.846035"><ele>546.6</ele><time>2013-11-23T10:42:14.0000000+00:00</time></trkpt><trkpt lat="30.57950401" lon="34.84615326"><ele>547.2</ele><time>2013-11-23T10:42:19.0000000+00:00</time></trkpt><trkpt lat="30.57946014" lon="34.84621048"><ele>547.0</ele><time>2013-11-23T10:42:24.0000000+00:00</time></trkpt><trkpt lat="30.57943916" lon="34.84625244"><ele>547.3</ele><time>2013-11-23T10:42:29.0000000+00:00</time></trkpt><trkpt lat="30.57938385" lon="34.84630966"><ele>547.6</ele><time>2013-11-23T10:42:34.0000000+00:00</time></trkpt><trkpt lat="30.57931519" lon="34.84638977"><ele>548.3</ele><time>2013-11-23T10:42:39.0000000+00:00</time></trkpt><trkpt lat="30.57921982" lon="34.84648895"><ele>548.9</ele><time>2013-11-23T10:42:44.0000000+00:00</time></trkpt><trkpt lat="30.57912827" lon="34.84659958"><ele>549.2</ele><time>2013-11-23T10:42:49.0000000+00:00</time></trkpt><trkpt lat="30.57907867" lon="34.84666443"><ele>549.5</ele><time>2013-11-23T10:42:54.0000000+00:00</time></trkpt><trkpt lat="30.5790062" lon="34.84676743"><ele>549.9</ele><time>2013-11-23T10:42:59.0000000+00:00</time></trkpt><trkpt lat="30.57892227" lon="34.84686661"><ele>550.6</ele><time>2013-11-23T10:43:04.0000000+00:00</time></trkpt><trkpt lat="30.57884407" lon="34.84695435"><ele>551.1</ele><time>2013-11-23T10:43:09.0000000+00:00</time></trkpt><trkpt lat="30.57876015" lon="34.84706116"><ele>551.7</ele><time>2013-11-23T10:43:14.0000000+00:00</time></trkpt><trkpt lat="30.57865334" lon="34.84718323"><ele>551.9</ele><time>2013-11-23T10:43:19.0000000+00:00</time></trkpt><trkpt lat="30.57857513" lon="34.84726334"><ele>552.3</ele><time>2013-11-23T10:43:24.0000000+00:00</time></trkpt><trkpt lat="30.57848167" lon="34.8473587"><ele>552.6</ele><time>2013-11-23T10:43:29.0000000+00:00</time></trkpt><trkpt lat="30.57842255" lon="34.84741974"><ele>552.6</ele><time>2013-11-23T10:43:34.0000000+00:00</time></trkpt><trkpt lat="30.57838249" lon="34.84745789"><ele>552.6</ele><time>2013-11-23T10:43:39.0000000+00:00</time></trkpt><trkpt lat="30.57832146" lon="34.84751511"><ele>552.8</ele><time>2013-11-23T10:43:44.0000000+00:00</time></trkpt><trkpt lat="30.57825279" lon="34.84759522"><ele>553.0</ele><time>2013-11-23T10:43:49.0000000+00:00</time></trkpt><trkpt lat="30.57815933" lon="34.84769058"><ele>553.3</ele><time>2013-11-23T10:43:54.0000000+00:00</time></trkpt><trkpt lat="30.57808685" lon="34.8477478"><ele>553.9</ele><time>2013-11-23T10:43:59.0000000+00:00</time></trkpt><trkpt lat="30.57800293" lon="34.8478241"><ele>553.6</ele><time>2013-11-23T10:44:04.0000000+00:00</time></trkpt><trkpt lat="30.57791328" lon="34.84792709"><ele>554.1</ele><time>2013-11-23T10:44:09.0000000+00:00</time></trkpt><trkpt lat="30.57782364" lon="34.84803772"><ele>554.4</ele><time>2013-11-23T10:44:14.0000000+00:00</time></trkpt><trkpt lat="30.57773972" lon="34.84816361"><ele>554.7</ele><time>2013-11-23T10:44:19.0000000+00:00</time></trkpt><trkpt lat="30.57766533" lon="34.84830475"><ele>554.6</ele><time>2013-11-23T10:44:24.0000000+00:00</time></trkpt><trkpt lat="30.57761002" lon="34.84845352"><ele>555.3</ele><time>2013-11-23T10:44:29.0000000+00:00</time></trkpt><trkpt lat="30.57755089" lon="34.84860611"><ele>555.8</ele><time>2013-11-23T10:44:34.0000000+00:00</time></trkpt><trkpt lat="30.57747078" lon="34.84874725"><ele>556.0</ele><time>2013-11-23T10:44:39.0000000+00:00</time></trkpt><trkpt lat="30.57740402" lon="34.84889603"><ele>556.5</ele><time>2013-11-23T10:44:44.0000000+00:00</time></trkpt><trkpt lat="30.57732964" lon="34.84904862"><ele>557.0</ele><time>2013-11-23T10:44:49.0000000+00:00</time></trkpt><trkpt lat="30.5772686" lon="34.84923172"><ele>556.1</ele><time>2013-11-23T10:44:54.0000000+00:00</time></trkpt><trkpt lat="30.57725525" lon="34.84936523"><ele>555.9</ele><time>2013-11-23T10:44:59.0000000+00:00</time></trkpt><trkpt lat="30.57723045" lon="34.84952927"><ele>555.6</ele><time>2013-11-23T10:45:04.0000000+00:00</time></trkpt><trkpt lat="30.57718086" lon="34.8496666"><ele>555.8</ele><time>2013-11-23T10:45:09.0000000+00:00</time></trkpt><trkpt lat="30.57715035" lon="34.84971619"><ele>555.8</ele><time>2013-11-23T10:45:14.0000000+00:00</time></trkpt><trkpt lat="30.57710266" lon="34.84980774"><ele>555.9</ele><time>2013-11-23T10:45:19.0000000+00:00</time></trkpt><trkpt lat="30.57703781" lon="34.84994125"><ele>555.4</ele><time>2013-11-23T10:45:24.0000000+00:00</time></trkpt><trkpt lat="30.57698059" lon="34.85007477"><ele>555.3</ele><time>2013-11-23T10:45:29.0000000+00:00</time></trkpt><trkpt lat="30.57690811" lon="34.85024262"><ele>554.0</ele><time>2013-11-23T10:45:34.0000000+00:00</time></trkpt><trkpt lat="30.5768528" lon="34.8503685"><ele>555.7</ele><time>2013-11-23T10:45:39.0000000+00:00</time></trkpt><trkpt lat="30.57681465" lon="34.85048676"><ele>555.9</ele><time>2013-11-23T10:45:44.0000000+00:00</time></trkpt><trkpt lat="30.57680321" lon="34.85062027"><ele>555.3</ele><time>2013-11-23T10:45:49.0000000+00:00</time></trkpt><trkpt lat="30.57678986" lon="34.85072327"><ele>555.7</ele><time>2013-11-23T10:45:54.0000000+00:00</time></trkpt><trkpt lat="30.57679176" lon="34.85080338"><ele>556.8</ele><time>2013-11-23T10:45:59.0000000+00:00</time></trkpt><trkpt lat="30.57678795" lon="34.85091019"><ele>556.4</ele><time>2013-11-23T10:46:04.0000000+00:00</time></trkpt><trkpt lat="30.57677078" lon="34.85102844"><ele>556.9</ele><time>2013-11-23T10:46:09.0000000+00:00</time></trkpt><trkpt lat="30.57673454" lon="34.85117722"><ele>556.8</ele><time>2013-11-23T10:46:14.0000000+00:00</time></trkpt><trkpt lat="30.5766964" lon="34.85129929"><ele>557.0</ele><time>2013-11-23T10:46:19.0000000+00:00</time></trkpt><trkpt lat="30.57668495" lon="34.85148239"><ele>555.8</ele><time>2013-11-23T10:46:24.0000000+00:00</time></trkpt><trkpt lat="30.57672882" lon="34.85163117"><ele>556.3</ele><time>2013-11-23T10:46:29.0000000+00:00</time></trkpt><trkpt lat="30.57683754" lon="34.85173416"><ele>556.3</ele><time>2013-11-23T10:46:34.0000000+00:00</time></trkpt><trkpt lat="30.57695961" lon="34.85177994"><ele>557.4</ele><time>2013-11-23T10:46:39.0000000+00:00</time></trkpt><trkpt lat="30.57703972" lon="34.85179138"><ele>557.1</ele><time>2013-11-23T10:46:44.0000000+00:00</time></trkpt><trkpt lat="30.57711792" lon="34.85188675"><ele>555.5</ele><time>2013-11-23T10:46:49.0000000+00:00</time></trkpt><trkpt lat="30.57714081" lon="34.85189438"><ele>556.3</ele><time>2013-11-23T10:46:54.0000000+00:00</time></trkpt><trkpt lat="30.57717705" lon="34.85190201"><ele>557.0</ele><time>2013-11-23T10:46:59.0000000+00:00</time></trkpt><trkpt lat="30.57719421" lon="34.85190582"><ele>557.6</ele><time>2013-11-23T10:47:04.0000000+00:00</time></trkpt><trkpt lat="30.57719421" lon="34.85190582"><ele>557.7</ele><time>2013-11-23T10:47:09.0000000+00:00</time></trkpt><trkpt lat="30.57719421" lon="34.85190582"><ele>557.8</ele><time>2013-11-23T10:47:14.0000000+00:00</time></trkpt><trkpt lat="30.57719421" lon="34.85190582"><ele>557.8</ele><time>2013-11-23T10:47:19.0000000+00:00</time></trkpt><trkpt lat="30.57719421" lon="34.85190582"><ele>557.8</ele><time>2013-11-23T10:47:24.0000000+00:00</time></trkpt><trkpt lat="30.57719421" lon="34.85190582"><ele>557.8</ele><time>2013-11-23T10:47:29.0000000+00:00</time></trkpt><trkpt lat="30.57719421" lon="34.85190582"><ele>557.8</ele><time>2013-11-23T10:47:34.0000000+00:00</time></trkpt><trkpt lat="30.57719421" lon="34.85190582"><ele>557.8</ele><time>2013-11-23T10:47:39.0000000+00:00</time></trkpt><trkpt lat="30.57719421" lon="34.85190582"><ele>557.8</ele><time>2013-11-23T10:47:44.0000000+00:00</time></trkpt><trkpt lat="30.57719994" lon="34.85191345"><ele>557.8</ele><time>2013-11-23T10:47:49.0000000+00:00</time></trkpt><trkpt lat="30.5772152" lon="34.85193253"><ele>558.6</ele><time>2013-11-23T10:47:54.0000000+00:00</time></trkpt><trkpt lat="30.57722664" lon="34.85204315"><ele>558.7</ele><time>2013-11-23T10:47:59.0000000+00:00</time></trkpt><trkpt lat="30.5772152" lon="34.85215378"><ele>559.2</ele><time>2013-11-23T10:48:04.0000000+00:00</time></trkpt><trkpt lat="30.57717323" lon="34.85224152"><ele>559.7</ele><time>2013-11-23T10:48:09.0000000+00:00</time></trkpt><trkpt lat="30.57716179" lon="34.85234833"><ele>560.0</ele><time>2013-11-23T10:48:14.0000000+00:00</time></trkpt><trkpt lat="30.57718849" lon="34.85246658"><ele>559.0</ele><time>2013-11-23T10:48:19.0000000+00:00</time></trkpt><trkpt lat="30.57720375" lon="34.85258102"><ele>560.2</ele><time>2013-11-23T10:48:24.0000000+00:00</time></trkpt><trkpt lat="30.57719994" lon="34.85268402"><ele>559.5</ele><time>2013-11-23T10:48:29.0000000+00:00</time></trkpt><trkpt lat="30.57719421" lon="34.85279465"><ele>559.7</ele><time>2013-11-23T10:48:34.0000000+00:00</time></trkpt><trkpt lat="30.57717323" lon="34.85294724"><ele>559.5</ele><time>2013-11-23T10:48:39.0000000+00:00</time></trkpt><trkpt lat="30.57715416" lon="34.85308838"><ele>560.6</ele><time>2013-11-23T10:48:44.0000000+00:00</time></trkpt><trkpt lat="30.57712174" lon="34.85326004"><ele>560.2</ele><time>2013-11-23T10:48:49.0000000+00:00</time></trkpt><trkpt lat="30.57709885" lon="34.85342407"><ele>559.3</ele><time>2013-11-23T10:48:54.0000000+00:00</time></trkpt><trkpt lat="30.57707024" lon="34.85351944"><ele>561.5</ele><time>2013-11-23T10:48:59.0000000+00:00</time></trkpt><trkpt lat="30.5770874" lon="34.85364533"><ele>562.6</ele><time>2013-11-23T10:49:04.0000000+00:00</time></trkpt><trkpt lat="30.57710075" lon="34.85377884"><ele>563.3</ele><time>2013-11-23T10:49:09.0000000+00:00</time></trkpt><trkpt lat="30.57714462" lon="34.8538971"><ele>563.2</ele><time>2013-11-23T10:49:14.0000000+00:00</time></trkpt><trkpt lat="30.57723045" lon="34.85401535"><ele>563.4</ele><time>2013-11-23T10:49:19.0000000+00:00</time></trkpt><trkpt lat="30.57730103" lon="34.85411072"><ele>564.2</ele><time>2013-11-23T10:49:24.0000000+00:00</time></trkpt><trkpt lat="30.57736588" lon="34.85417557"><ele>565.6</ele><time>2013-11-23T10:49:29.0000000+00:00</time></trkpt><trkpt lat="30.57742882" lon="34.85425949"><ele>567.1</ele><time>2013-11-23T10:49:34.0000000+00:00</time></trkpt><trkpt lat="30.57747841" lon="34.85438156"><ele>567.6</ele><time>2013-11-23T10:49:39.0000000+00:00</time></trkpt><trkpt lat="30.57752419" lon="34.85451889"><ele>568.3</ele><time>2013-11-23T10:49:44.0000000+00:00</time></trkpt><trkpt lat="30.5775528" lon="34.85463715"><ele>569.6</ele><time>2013-11-23T10:49:49.0000000+00:00</time></trkpt><trkpt lat="30.57760048" lon="34.8547554"><ele>569.7</ele><time>2013-11-23T10:49:54.0000000+00:00</time></trkpt><trkpt lat="30.57764053" lon="34.85482788"><ele>570.2</ele><time>2013-11-23T10:49:59.0000000+00:00</time></trkpt><trkpt lat="30.57770729" lon="34.8549118"><ele>572.1</ele><time>2013-11-23T10:50:04.0000000+00:00</time></trkpt><trkpt lat="30.57779121" lon="34.85501099"><ele>573.7</ele><time>2013-11-23T10:50:09.0000000+00:00</time></trkpt><trkpt lat="30.57788849" lon="34.8551445"><ele>571.0</ele><time>2013-11-23T10:50:14.0000000+00:00</time></trkpt><trkpt lat="30.57800102" lon="34.8552208"><ele>572.2</ele><time>2013-11-23T10:50:19.0000000+00:00</time></trkpt><trkpt lat="30.57813835" lon="34.85527802"><ele>572.8</ele><time>2013-11-23T10:50:24.0000000+00:00</time></trkpt><trkpt lat="30.57825851" lon="34.85527039"><ele>574.8</ele><time>2013-11-23T10:50:29.0000000+00:00</time></trkpt><trkpt lat="30.57836342" lon="34.85524368"><ele>576.0</ele><time>2013-11-23T10:50:34.0000000+00:00</time></trkpt><trkpt lat="30.57843208" lon="34.85523224"><ele>577.2</ele><time>2013-11-23T10:50:39.0000000+00:00</time></trkpt><trkpt lat="30.57844162" lon="34.85522842"><ele>576.8</ele><time>2013-11-23T10:50:44.0000000+00:00</time></trkpt><trkpt lat="30.57846069" lon="34.85523224"><ele>577.2</ele><time>2013-11-23T10:50:49.0000000+00:00</time></trkpt><trkpt lat="30.57850266" lon="34.8552475"><ele>578.4</ele><time>2013-11-23T10:50:54.0000000+00:00</time></trkpt><trkpt lat="30.5785389" lon="34.85527039"><ele>578.8</ele><time>2013-11-23T10:50:59.0000000+00:00</time></trkpt><trkpt lat="30.57858467" lon="34.85528565"><ele>580.4</ele><time>2013-11-23T10:51:04.0000000+00:00</time></trkpt><trkpt lat="30.57859612" lon="34.85529709"><ele>581.0</ele><time>2013-11-23T10:51:09.0000000+00:00</time></trkpt><trkpt lat="30.57859612" lon="34.85529709"><ele>581.3</ele><time>2013-11-23T10:51:14.0000000+00:00</time></trkpt><trkpt lat="30.57863426" lon="34.85530472"><ele>582.2</ele><time>2013-11-23T10:51:19.0000000+00:00</time></trkpt><trkpt lat="30.5786705" lon="34.85531616"><ele>583.9</ele><time>2013-11-23T10:51:24.0000000+00:00</time></trkpt><trkpt lat="30.57868958" lon="34.85531616"><ele>584.0</ele><time>2013-11-23T10:51:29.0000000+00:00</time></trkpt><trkpt lat="30.57871437" lon="34.85531616"><ele>584.1</ele><time>2013-11-23T10:51:34.0000000+00:00</time></trkpt><trkpt lat="30.57888794" lon="34.85531235"><ele>578.3</ele><time>2013-11-23T10:51:39.0000000+00:00</time></trkpt><trkpt lat="30.57919121" lon="34.85520935"><ele>572.9</ele><time>2013-11-23T10:51:44.0000000+00:00</time></trkpt><trkpt lat="30.57946968" lon="34.85523224"><ele>571.0</ele><time>2013-11-23T10:51:49.0000000+00:00</time></trkpt><trkpt lat="30.5797081" lon="34.85517883"><ele>571.5</ele><time>2013-11-23T10:51:54.0000000+00:00</time></trkpt><trkpt lat="30.57989311" lon="34.8552208"><ele>571.7</ele><time>2013-11-23T10:51:59.0000000+00:00</time></trkpt><trkpt lat="30.57997894" lon="34.85529327"><ele>573.0</ele><time>2013-11-23T10:52:04.0000000+00:00</time></trkpt><trkpt lat="30.58004189" lon="34.85538101"><ele>573.1</ele><time>2013-11-23T10:52:09.0000000+00:00</time></trkpt><trkpt lat="30.58018303" lon="34.85549927"><ele>570.2</ele><time>2013-11-23T10:52:14.0000000+00:00</time></trkpt><trkpt lat="30.58044243" lon="34.85554886"><ele>568.1</ele><time>2013-11-23T10:52:19.0000000+00:00</time></trkpt><trkpt lat="30.58076859" lon="34.85554886"><ele>565.8</ele><time>2013-11-23T10:52:24.0000000+00:00</time></trkpt><trkpt lat="30.58104134" lon="34.85561371"><ele>566.8</ele><time>2013-11-23T10:52:29.0000000+00:00</time></trkpt><trkpt lat="30.58130837" lon="34.85561371"><ele>565.6</ele><time>2013-11-23T10:52:34.0000000+00:00</time></trkpt><trkpt lat="30.58162499" lon="34.85548019"><ele>565.1</ele><time>2013-11-23T10:52:39.0000000+00:00</time></trkpt><trkpt lat="30.58189392" lon="34.85544205"><ele>564.3</ele><time>2013-11-23T10:52:44.0000000+00:00</time></trkpt><trkpt lat="30.58215714" lon="34.85560989"><ele>563.8</ele><time>2013-11-23T10:52:49.0000000+00:00</time></trkpt><trkpt lat="30.58246994" lon="34.85578537"><ele>562.6</ele><time>2013-11-23T10:52:54.0000000+00:00</time></trkpt><trkpt lat="30.58278275" lon="34.85585403"><ele>562.3</ele><time>2013-11-23T10:52:59.0000000+00:00</time></trkpt><trkpt lat="30.58309937" lon="34.85603333"><ele>562.0</ele><time>2013-11-23T10:53:04.0000000+00:00</time></trkpt><trkpt lat="30.58340836" lon="34.85621643"><ele>558.5</ele><time>2013-11-23T10:53:09.0000000+00:00</time></trkpt><trkpt lat="30.58362389" lon="34.85652924"><ele>557.8</ele><time>2013-11-23T10:53:14.0000000+00:00</time></trkpt><trkpt lat="30.58384514" lon="34.85682297"><ele>556.4</ele><time>2013-11-23T10:53:19.0000000+00:00</time></trkpt><trkpt lat="30.58406067" lon="34.85720444"><ele>554.4</ele><time>2013-11-23T10:53:24.0000000+00:00</time></trkpt><trkpt lat="30.58421516" lon="34.85756683"><ele>554.4</ele><time>2013-11-23T10:53:29.0000000+00:00</time></trkpt><trkpt lat="30.58440208" lon="34.85788727"><ele>552.1</ele><time>2013-11-23T10:53:34.0000000+00:00</time></trkpt><trkpt lat="30.58464432" lon="34.85819626"><ele>552.4</ele><time>2013-11-23T10:53:39.0000000+00:00</time></trkpt><trkpt lat="30.58483505" lon="34.85850906"><ele>552.2</ele><time>2013-11-23T10:53:44.0000000+00:00</time></trkpt><trkpt lat="30.58507156" lon="34.85882568"><ele>550.0</ele><time>2013-11-23T10:53:49.0000000+00:00</time></trkpt><trkpt lat="30.58521843" lon="34.85924912"><ele>547.3</ele><time>2013-11-23T10:53:54.0000000+00:00</time></trkpt><trkpt lat="30.58533859" lon="34.85967636"><ele>546.5</ele><time>2013-11-23T10:53:59.0000000+00:00</time></trkpt><trkpt lat="30.58550835" lon="34.86005783"><ele>547.1</ele><time>2013-11-23T10:54:04.0000000+00:00</time></trkpt><trkpt lat="30.58577538" lon="34.86030579"><ele>547.5</ele><time>2013-11-23T10:54:09.0000000+00:00</time></trkpt><trkpt lat="30.58610153" lon="34.86044693"><ele>547.0</ele><time>2013-11-23T10:54:14.0000000+00:00</time></trkpt><trkpt lat="30.58639717" lon="34.8605957"><ele>546.2</ele><time>2013-11-23T10:54:19.0000000+00:00</time></trkpt><trkpt lat="30.58659363" lon="34.8609581"><ele>545.5</ele><time>2013-11-23T10:54:24.0000000+00:00</time></trkpt><trkpt lat="30.58678436" lon="34.86131287"><ele>545.7</ele><time>2013-11-23T10:54:29.0000000+00:00</time></trkpt><trkpt lat="30.5869503" lon="34.86167908"><ele>546.4</ele><time>2013-11-23T10:54:34.0000000+00:00</time></trkpt><trkpt lat="30.5871315" lon="34.86203766"><ele>545.6</ele><time>2013-11-23T10:54:39.0000000+00:00</time></trkpt><trkpt lat="30.58721352" lon="34.86226273"><ele>546.9</ele><time>2013-11-23T10:54:44.0000000+00:00</time></trkpt><trkpt lat="30.58730507" lon="34.86247635"><ele>546.9</ele><time>2013-11-23T10:54:49.0000000+00:00</time></trkpt><trkpt lat="30.5873661" lon="34.86262512"><ele>548.3</ele><time>2013-11-23T10:54:54.0000000+00:00</time></trkpt><trkpt lat="30.58740425" lon="34.86272812"><ele>549.5</ele><time>2013-11-23T10:54:59.0000000+00:00</time></trkpt><trkpt lat="30.58745194" lon="34.86288834"><ele>549.5</ele><time>2013-11-23T10:55:04.0000000+00:00</time></trkpt><trkpt lat="30.58751488" lon="34.86312103"><ele>548.0</ele><time>2013-11-23T10:55:09.0000000+00:00</time></trkpt><trkpt lat="30.58756447" lon="34.86339569"><ele>546.9</ele><time>2013-11-23T10:55:14.0000000+00:00</time></trkpt><trkpt lat="30.58762169" lon="34.86366272"><ele>546.2</ele><time>2013-11-23T10:55:19.0000000+00:00</time></trkpt><trkpt lat="30.58767891" lon="34.86393356"><ele>545.4</ele><time>2013-11-23T10:55:24.0000000+00:00</time></trkpt><trkpt lat="30.58773232" lon="34.86421967"><ele>544.8</ele><time>2013-11-23T10:55:29.0000000+00:00</time></trkpt><trkpt lat="30.58771133" lon="34.86446762"><ele>545.3</ele><time>2013-11-23T10:55:34.0000000+00:00</time></trkpt><trkpt lat="30.58765221" lon="34.86462402"><ele>545.4</ele><time>2013-11-23T10:55:39.0000000+00:00</time></trkpt><trkpt lat="30.58763313" lon="34.86483002"><ele>544.4</ele><time>2013-11-23T10:55:44.0000000+00:00</time></trkpt><trkpt lat="30.58770943" lon="34.86513138"><ele>540.2</ele><time>2013-11-23T10:55:49.0000000+00:00</time></trkpt><trkpt lat="30.58789253" lon="34.86541367"><ele>537.9</ele><time>2013-11-23T10:55:54.0000000+00:00</time></trkpt><trkpt lat="30.58795357" lon="34.86550522"><ele>538.0</ele><time>2013-11-23T10:55:59.0000000+00:00</time></trkpt><trkpt lat="30.58795166" lon="34.86550522"><ele>538.0</ele><time>2013-11-23T10:56:04.0000000+00:00</time></trkpt><trkpt lat="30.58795166" lon="34.86550522"><ele>538.1</ele><time>2013-11-23T10:56:09.0000000+00:00</time></trkpt><trkpt lat="30.58810997" lon="34.86559296"><ele>534.8</ele><time>2013-11-23T10:56:14.0000000+00:00</time></trkpt><trkpt lat="30.58837318" lon="34.8658371"><ele>533.0</ele><time>2013-11-23T10:56:19.0000000+00:00</time></trkpt><trkpt lat="30.58863831" lon="34.86606979"><ele>531.5</ele><time>2013-11-23T10:56:24.0000000+00:00</time></trkpt><trkpt lat="30.58892059" lon="34.86629105"><ele>529.8</ele><time>2013-11-23T10:56:29.0000000+00:00</time></trkpt><trkpt lat="30.58904266" lon="34.86647797"><ele>532.0</ele><time>2013-11-23T10:56:34.0000000+00:00</time></trkpt><trkpt lat="30.58916092" lon="34.86662674"><ele>531.1</ele><time>2013-11-23T10:56:39.0000000+00:00</time></trkpt><trkpt lat="30.58935928" lon="34.86687851"><ele>528.7</ele><time>2013-11-23T10:56:44.0000000+00:00</time></trkpt><trkpt lat="30.58949661" lon="34.8670578"><ele>527.7</ele><time>2013-11-23T10:56:49.0000000+00:00</time></trkpt><trkpt lat="30.58953285" lon="34.86709976"><ele>526.8</ele><time>2013-11-23T10:56:54.0000000+00:00</time></trkpt><trkpt lat="30.58956528" lon="34.86710739"><ele>527.5</ele><time>2013-11-23T10:56:59.0000000+00:00</time></trkpt><trkpt lat="30.58965683" lon="34.86736679"><ele>525.8</ele><time>2013-11-23T10:57:04.0000000+00:00</time></trkpt><trkpt lat="30.5898304" lon="34.86769486"><ele>523.4</ele><time>2013-11-23T10:57:09.0000000+00:00</time></trkpt><trkpt lat="30.59005356" lon="34.86783218"><ele>524.7</ele><time>2013-11-23T10:57:14.0000000+00:00</time></trkpt><trkpt lat="30.59022522" lon="34.86803818"><ele>523.7</ele><time>2013-11-23T10:57:19.0000000+00:00</time></trkpt><trkpt lat="30.59039879" lon="34.8682785"><ele>523.1</ele><time>2013-11-23T10:57:24.0000000+00:00</time></trkpt><trkpt lat="30.59058952" lon="34.86856079"><ele>522.2</ele><time>2013-11-23T10:57:29.0000000+00:00</time></trkpt><trkpt lat="30.5907383" lon="34.86889267"><ele>521.3</ele><time>2013-11-23T10:57:34.0000000+00:00</time></trkpt><trkpt lat="30.59081078" lon="34.86930084"><ele>519.8</ele><time>2013-11-23T10:57:39.0000000+00:00</time></trkpt><trkpt lat="30.59093666" lon="34.86964417"><ele>520.1</ele><time>2013-11-23T10:57:44.0000000+00:00</time></trkpt><trkpt lat="30.59106636" lon="34.86997223"><ele>519.7</ele><time>2013-11-23T10:57:49.0000000+00:00</time></trkpt><trkpt lat="30.59119606" lon="34.87030029"><ele>519.3</ele><time>2013-11-23T10:57:54.0000000+00:00</time></trkpt><trkpt lat="30.5913887" lon="34.8705864"><ele>518.8</ele><time>2013-11-23T10:57:59.0000000+00:00</time></trkpt><trkpt lat="30.59164238" lon="34.87084961"><ele>518.2</ele><time>2013-11-23T10:58:04.0000000+00:00</time></trkpt><trkpt lat="30.59192085" lon="34.87107849"><ele>517.0</ele><time>2013-11-23T10:58:09.0000000+00:00</time></trkpt><trkpt lat="30.59221458" lon="34.87128067"><ele>516.4</ele><time>2013-11-23T10:58:14.0000000+00:00</time></trkpt><trkpt lat="30.59253693" lon="34.87146378"><ele>515.5</ele><time>2013-11-23T10:58:19.0000000+00:00</time></trkpt><trkpt lat="30.59282494" lon="34.8716774"><ele>515.1</ele><time>2013-11-23T10:58:24.0000000+00:00</time></trkpt><trkpt lat="30.59307671" lon="34.87193298"><ele>514.1</ele><time>2013-11-23T10:58:29.0000000+00:00</time></trkpt><trkpt lat="30.59324837" lon="34.87224579"><ele>513.9</ele><time>2013-11-23T10:58:34.0000000+00:00</time></trkpt><trkpt lat="30.5933094" lon="34.87252045"><ele>512.9</ele><time>2013-11-23T10:58:39.0000000+00:00</time></trkpt><trkpt lat="30.59329605" lon="34.87259293"><ele>513.0</ele><time>2013-11-23T10:58:44.0000000+00:00</time></trkpt><trkpt lat="30.59329224" lon="34.87258911"><ele>513.0</ele><time>2013-11-23T10:58:49.0000000+00:00</time></trkpt><trkpt lat="30.59329224" lon="34.87258911"><ele>513.0</ele><time>2013-11-23T10:58:54.0000000+00:00</time></trkpt><trkpt lat="30.59329224" lon="34.87258911"><ele>513.1</ele><time>2013-11-23T10:58:59.0000000+00:00</time></trkpt><trkpt lat="30.59329224" lon="34.87258911"><ele>513.1</ele><time>2013-11-23T10:59:04.0000000+00:00</time></trkpt><trkpt lat="30.59329224" lon="34.87258911"><ele>513.1</ele><time>2013-11-23T10:59:09.0000000+00:00</time></trkpt><trkpt lat="30.59329224" lon="34.8725853"><ele>513.1</ele><time>2013-11-23T10:59:14.0000000+00:00</time></trkpt><trkpt lat="30.59329224" lon="34.8725853"><ele>513.2</ele><time>2013-11-23T10:59:19.0000000+00:00</time></trkpt><trkpt lat="30.59329224" lon="34.8725853"><ele>513.2</ele><time>2013-11-23T10:59:24.0000000+00:00</time></trkpt><trkpt lat="30.59329414" lon="34.8725853"><ele>513.2</ele><time>2013-11-23T10:59:29.0000000+00:00</time></trkpt><trkpt lat="30.59329224" lon="34.8725853"><ele>513.2</ele><time>2013-11-23T10:59:34.0000000+00:00</time></trkpt><trkpt lat="30.59329414" lon="34.8725853"><ele>513.2</ele><time>2013-11-23T10:59:39.0000000+00:00</time></trkpt><trkpt lat="30.59329414" lon="34.8725853"><ele>513.2</ele><time>2013-11-23T10:59:44.0000000+00:00</time></trkpt><trkpt lat="30.59329414" lon="34.8725853"><ele>513.3</ele><time>2013-11-23T10:59:49.0000000+00:00</time></trkpt><trkpt lat="30.59329414" lon="34.8725853"><ele>513.3</ele><time>2013-11-23T10:59:54.0000000+00:00</time></trkpt><trkpt lat="30.59329414" lon="34.8725853"><ele>513.3</ele><time>2013-11-23T10:59:59.0000000+00:00</time></trkpt><trkpt lat="30.59329224" lon="34.8725853"><ele>513.3</ele><time>2013-11-23T11:00:04.0000000+00:00</time></trkpt><trkpt lat="30.59329414" lon="34.87258148"><ele>513.3</ele><time>2013-11-23T11:00:09.0000000+00:00</time></trkpt><trkpt lat="30.59329414" lon="34.87258148"><ele>513.3</ele><time>2013-11-23T11:00:14.0000000+00:00</time></trkpt><trkpt lat="30.59329414" lon="34.87258148"><ele>513.3</ele><time>2013-11-23T11:00:19.0000000+00:00</time></trkpt><trkpt lat="30.59329414" lon="34.87258148"><ele>513.3</ele><time>2013-11-23T11:00:24.0000000+00:00</time></trkpt><trkpt lat="30.59329414" lon="34.87258148"><ele>513.3</ele><time>2013-11-23T11:00:29.0000000+00:00</time></trkpt><trkpt lat="30.59329414" lon="34.87258148"><ele>513.3</ele><time>2013-11-23T11:00:34.0000000+00:00</time></trkpt><trkpt lat="30.59329414" lon="34.87258148"><ele>513.3</ele><time>2013-11-23T11:00:39.0000000+00:00</time></trkpt><trkpt lat="30.59329414" lon="34.87258148"><ele>513.3</ele><time>2013-11-23T11:00:44.0000000+00:00</time></trkpt><trkpt lat="30.59329414" lon="34.87258148"><ele>513.3</ele><time>2013-11-23T11:00:49.0000000+00:00</time></trkpt><trkpt lat="30.59329414" lon="34.87258148"><ele>513.3</ele><time>2013-11-23T11:00:54.0000000+00:00</time></trkpt><trkpt lat="30.59329605" lon="34.87258148"><ele>513.3</ele><time>2013-11-23T11:00:59.0000000+00:00</time></trkpt><trkpt lat="30.59329414" lon="34.87257767"><ele>513.3</ele><time>2013-11-23T11:01:04.0000000+00:00</time></trkpt><trkpt lat="30.59329414" lon="34.87257767"><ele>513.3</ele><time>2013-11-23T11:01:09.0000000+00:00</time></trkpt><trkpt lat="30.59329414" lon="34.87257767"><ele>513.3</ele><time>2013-11-23T11:01:14.0000000+00:00</time></trkpt><trkpt lat="30.59329414" lon="34.87257767"><ele>513.3</ele><time>2013-11-23T11:01:19.0000000+00:00</time></trkpt><trkpt lat="30.59329414" lon="34.87257767"><ele>513.3</ele><time>2013-11-23T11:01:24.0000000+00:00</time></trkpt><trkpt lat="30.59329414" lon="34.87257767"><ele>513.4</ele><time>2013-11-23T11:01:29.0000000+00:00</time></trkpt><trkpt lat="30.59329414" lon="34.87257767"><ele>513.4</ele><time>2013-11-23T11:01:34.0000000+00:00</time></trkpt><trkpt lat="30.59329414" lon="34.87257767"><ele>513.4</ele><time>2013-11-23T11:01:39.0000000+00:00</time></trkpt><trkpt lat="30.59329605" lon="34.87257767"><ele>513.4</ele><time>2013-11-23T11:01:44.0000000+00:00</time></trkpt><trkpt lat="30.59329605" lon="34.87257385"><ele>513.4</ele><time>2013-11-23T11:01:49.0000000+00:00</time></trkpt><trkpt lat="30.59329605" lon="34.87257385"><ele>513.4</ele><time>2013-11-23T11:01:54.0000000+00:00</time></trkpt><trkpt lat="30.59329605" lon="34.87257385"><ele>513.4</ele><time>2013-11-23T11:01:59.0000000+00:00</time></trkpt><trkpt lat="30.59329605" lon="34.87257385"><ele>513.4</ele><time>2013-11-23T11:02:04.0000000+00:00</time></trkpt><trkpt lat="30.59329605" lon="34.87257385"><ele>513.4</ele><time>2013-11-23T11:02:09.0000000+00:00</time></trkpt><trkpt lat="30.59329605" lon="34.87257385"><ele>513.4</ele><time>2013-11-23T11:02:14.0000000+00:00</time></trkpt><trkpt lat="30.59329605" lon="34.87257385"><ele>513.4</ele><time>2013-11-23T11:02:19.0000000+00:00</time></trkpt><trkpt lat="30.59329605" lon="34.87257385"><ele>513.4</ele><time>2013-11-23T11:02:24.0000000+00:00</time></trkpt><trkpt lat="30.59329605" lon="34.87257385"><ele>513.4</ele><time>2013-11-23T11:02:29.0000000+00:00</time></trkpt><trkpt lat="30.59329605" lon="34.87257385"><ele>513.4</ele><time>2013-11-23T11:02:34.0000000+00:00</time></trkpt><trkpt lat="30.59329605" lon="34.87257385"><ele>513.4</ele><time>2013-11-23T11:02:39.0000000+00:00</time></trkpt><trkpt lat="30.59329605" lon="34.87257385"><ele>513.4</ele><time>2013-11-23T11:02:44.0000000+00:00</time></trkpt><trkpt lat="30.59329605" lon="34.87257385"><ele>513.4</ele><time>2013-11-23T11:02:49.0000000+00:00</time></trkpt><trkpt lat="30.59329605" lon="34.87257385"><ele>513.4</ele><time>2013-11-23T11:02:54.0000000+00:00</time></trkpt><trkpt lat="30.59329605" lon="34.87257385"><ele>513.4</ele><time>2013-11-23T11:02:59.0000000+00:00</time></trkpt><trkpt lat="30.59329605" lon="34.87257385"><ele>513.4</ele><time>2013-11-23T11:03:04.0000000+00:00</time></trkpt><trkpt lat="30.59329605" lon="34.87257385"><ele>513.4</ele><time>2013-11-23T11:03:09.0000000+00:00</time></trkpt><trkpt lat="30.59329605" lon="34.87257385"><ele>513.4</ele><time>2013-11-23T11:03:14.0000000+00:00</time></trkpt><trkpt lat="30.59329605" lon="34.87257385"><ele>513.4</ele><time>2013-11-23T11:03:19.0000000+00:00</time></trkpt><trkpt lat="30.59329605" lon="34.87257385"><ele>513.4</ele><time>2013-11-23T11:03:24.0000000+00:00</time></trkpt><trkpt lat="30.59329605" lon="34.87257004"><ele>513.4</ele><time>2013-11-23T11:03:29.0000000+00:00</time></trkpt><trkpt lat="30.59329605" lon="34.87257004"><ele>513.4</ele><time>2013-11-23T11:03:34.0000000+00:00</time></trkpt><trkpt lat="30.59329605" lon="34.87257004"><ele>513.4</ele><time>2013-11-23T11:03:39.0000000+00:00</time></trkpt><trkpt lat="30.59329605" lon="34.87257004"><ele>513.4</ele><time>2013-11-23T11:03:44.0000000+00:00</time></trkpt><trkpt lat="30.59329605" lon="34.87257004"><ele>513.4</ele><time>2013-11-23T11:03:49.0000000+00:00</time></trkpt><trkpt lat="30.59329605" lon="34.87257004"><ele>513.4</ele><time>2013-11-23T11:03:54.0000000+00:00</time></trkpt><trkpt lat="30.59329605" lon="34.87257004"><ele>513.4</ele><time>2013-11-23T11:03:59.0000000+00:00</time></trkpt><trkpt lat="30.59329605" lon="34.87257004"><ele>513.3</ele><time>2013-11-23T11:04:04.0000000+00:00</time></trkpt><trkpt lat="30.59329605" lon="34.87257004"><ele>513.3</ele><time>2013-11-23T11:04:09.0000000+00:00</time></trkpt><trkpt lat="30.59329605" lon="34.87257004"><ele>513.3</ele><time>2013-11-23T11:04:14.0000000+00:00</time></trkpt><trkpt lat="30.59329605" lon="34.87257004"><ele>513.3</ele><time>2013-11-23T11:04:19.0000000+00:00</time></trkpt><trkpt lat="30.59329605" lon="34.87257004"><ele>513.3</ele><time>2013-11-23T11:04:24.0000000+00:00</time></trkpt><trkpt lat="30.59329605" lon="34.87257004"><ele>513.3</ele><time>2013-11-23T11:04:29.0000000+00:00</time></trkpt><trkpt lat="30.59329605" lon="34.87257004"><ele>513.3</ele><time>2013-11-23T11:04:34.0000000+00:00</time></trkpt><trkpt lat="30.59329605" lon="34.87256622"><ele>513.3</ele><time>2013-11-23T11:04:39.0000000+00:00</time></trkpt><trkpt lat="30.59329605" lon="34.87256622"><ele>513.3</ele><time>2013-11-23T11:04:44.0000000+00:00</time></trkpt><trkpt lat="30.59329605" lon="34.87256622"><ele>513.3</ele><time>2013-11-23T11:04:49.0000000+00:00</time></trkpt><trkpt lat="30.59329605" lon="34.87256622"><ele>513.3</ele><time>2013-11-23T11:04:54.0000000+00:00</time></trkpt><trkpt lat="30.59329414" lon="34.87256622"><ele>513.3</ele><time>2013-11-23T11:04:59.0000000+00:00</time></trkpt><trkpt lat="30.59329414" lon="34.87256622"><ele>513.3</ele><time>2013-11-23T11:05:04.0000000+00:00</time></trkpt><trkpt lat="30.59329414" lon="34.87256622"><ele>513.3</ele><time>2013-11-23T11:05:09.0000000+00:00</time></trkpt><trkpt lat="30.59329414" lon="34.87256622"><ele>513.3</ele><time>2013-11-23T11:05:14.0000000+00:00</time></trkpt><trkpt lat="30.59329414" lon="34.87256622"><ele>513.3</ele><time>2013-11-23T11:05:19.0000000+00:00</time></trkpt><trkpt lat="30.59329414" lon="34.87256622"><ele>513.3</ele><time>2013-11-23T11:05:24.0000000+00:00</time></trkpt><trkpt lat="30.59329414" lon="34.87256622"><ele>513.3</ele><time>2013-11-23T11:05:29.0000000+00:00</time></trkpt><trkpt lat="30.59329414" lon="34.87256622"><ele>513.3</ele><time>2013-11-23T11:05:34.0000000+00:00</time></trkpt><trkpt lat="30.59329414" lon="34.87256622"><ele>513.2</ele><time>2013-11-23T11:05:39.0000000+00:00</time></trkpt><trkpt lat="30.59329414" lon="34.87256622"><ele>513.2</ele><time>2013-11-23T11:05:44.0000000+00:00</time></trkpt><trkpt lat="30.59329414" lon="34.87256622"><ele>513.2</ele><time>2013-11-23T11:05:49.0000000+00:00</time></trkpt><trkpt lat="30.59329414" lon="34.87256622"><ele>513.2</ele><time>2013-11-23T11:05:54.0000000+00:00</time></trkpt><trkpt lat="30.59329414" lon="34.87256622"><ele>513.2</ele><time>2013-11-23T11:05:59.0000000+00:00</time></trkpt><trkpt lat="30.59329414" lon="34.87256622"><ele>513.2</ele><time>2013-11-23T11:06:04.0000000+00:00</time></trkpt><trkpt lat="30.59329414" lon="34.87256241"><ele>513.2</ele><time>2013-11-23T11:06:09.0000000+00:00</time></trkpt><trkpt lat="30.59329414" lon="34.87256241"><ele>513.2</ele><time>2013-11-23T11:06:14.0000000+00:00</time></trkpt><trkpt lat="30.59329414" lon="34.87256241"><ele>513.2</ele><time>2013-11-23T11:06:19.0000000+00:00</time></trkpt><trkpt lat="30.59329414" lon="34.87256241"><ele>513.2</ele><time>2013-11-23T11:06:24.0000000+00:00</time></trkpt><trkpt lat="30.59329414" lon="34.87256241"><ele>513.2</ele><time>2013-11-23T11:06:29.0000000+00:00</time></trkpt><trkpt lat="30.59329414" lon="34.87256241"><ele>513.2</ele><time>2013-11-23T11:06:34.0000000+00:00</time></trkpt><trkpt lat="30.59329414" lon="34.87256241"><ele>513.2</ele><time>2013-11-23T11:06:39.0000000+00:00</time></trkpt><trkpt lat="30.59329414" lon="34.87256241"><ele>513.2</ele><time>2013-11-23T11:06:44.0000000+00:00</time></trkpt><trkpt lat="30.59329414" lon="34.87256241"><ele>513.2</ele><time>2013-11-23T11:06:49.0000000+00:00</time></trkpt><trkpt lat="30.59329414" lon="34.87256241"><ele>513.2</ele><time>2013-11-23T11:06:54.0000000+00:00</time></trkpt><trkpt lat="30.59329414" lon="34.87256241"><ele>513.2</ele><time>2013-11-23T11:06:59.0000000+00:00</time></trkpt><trkpt lat="30.59329414" lon="34.87256241"><ele>513.2</ele><time>2013-11-23T11:07:04.0000000+00:00</time></trkpt><trkpt lat="30.59329414" lon="34.87256241"><ele>513.2</ele><time>2013-11-23T11:07:09.0000000+00:00</time></trkpt><trkpt lat="30.59329414" lon="34.87255859"><ele>513.2</ele><time>2013-11-23T11:07:14.0000000+00:00</time></trkpt><trkpt lat="30.59329414" lon="34.87255859"><ele>513.2</ele><time>2013-11-23T11:07:19.0000000+00:00</time></trkpt><trkpt lat="30.59329414" lon="34.87255859"><ele>513.2</ele><time>2013-11-23T11:07:24.0000000+00:00</time></trkpt><trkpt lat="30.59329414" lon="34.87255859"><ele>513.2</ele><time>2013-11-23T11:07:29.0000000+00:00</time></trkpt><trkpt lat="30.59329414" lon="34.87255859"><ele>513.2</ele><time>2013-11-23T11:07:34.0000000+00:00</time></trkpt><trkpt lat="30.59329414" lon="34.87255859"><ele>513.2</ele><time>2013-11-23T11:07:39.0000000+00:00</time></trkpt><trkpt lat="30.59329414" lon="34.87255859"><ele>513.2</ele><time>2013-11-23T11:07:44.0000000+00:00</time></trkpt><trkpt lat="30.59329414" lon="34.87255859"><ele>513.3</ele><time>2013-11-23T11:07:49.0000000+00:00</time></trkpt><trkpt lat="30.59329414" lon="34.87255859"><ele>513.3</ele><time>2013-11-23T11:07:54.0000000+00:00</time></trkpt><trkpt lat="30.59329414" lon="34.87255859"><ele>513.3</ele><time>2013-11-23T11:07:59.0000000+00:00</time></trkpt><trkpt lat="30.59329414" lon="34.87255859"><ele>513.3</ele><time>2013-11-23T11:08:04.0000000+00:00</time></trkpt><trkpt lat="30.59329414" lon="34.87255859"><ele>513.3</ele><time>2013-11-23T11:08:09.0000000+00:00</time></trkpt><trkpt lat="30.59329414" lon="34.87255478"><ele>513.3</ele><time>2013-11-23T11:08:14.0000000+00:00</time></trkpt><trkpt lat="30.59329414" lon="34.87255478"><ele>513.3</ele><time>2013-11-23T11:08:19.0000000+00:00</time></trkpt><trkpt lat="30.59329414" lon="34.87255478"><ele>513.3</ele><time>2013-11-23T11:08:24.0000000+00:00</time></trkpt><trkpt lat="30.59329414" lon="34.87255478"><ele>513.3</ele><time>2013-11-23T11:08:29.0000000+00:00</time></trkpt><trkpt lat="30.59329414" lon="34.87255478"><ele>513.3</ele><time>2013-11-23T11:08:34.0000000+00:00</time></trkpt><trkpt lat="30.59329414" lon="34.87255478"><ele>513.3</ele><time>2013-11-23T11:08:39.0000000+00:00</time></trkpt><trkpt lat="30.59329414" lon="34.87255478"><ele>513.3</ele><time>2013-11-23T11:08:44.0000000+00:00</time></trkpt><trkpt lat="30.59329414" lon="34.87255478"><ele>513.3</ele><time>2013-11-23T11:08:49.0000000+00:00</time></trkpt><trkpt lat="30.59329414" lon="34.87255478"><ele>513.3</ele><time>2013-11-23T11:08:54.0000000+00:00</time></trkpt><trkpt lat="30.59329414" lon="34.87255478"><ele>513.4</ele><time>2013-11-23T11:08:59.0000000+00:00</time></trkpt><trkpt lat="30.59329414" lon="34.87255478"><ele>513.4</ele><time>2013-11-23T11:09:04.0000000+00:00</time></trkpt><trkpt lat="30.59329414" lon="34.87255478"><ele>513.4</ele><time>2013-11-23T11:09:09.0000000+00:00</time></trkpt><trkpt lat="30.59329414" lon="34.87255478"><ele>513.4</ele><time>2013-11-23T11:09:14.0000000+00:00</time></trkpt><trkpt lat="30.59329414" lon="34.87255478"><ele>513.4</ele><time>2013-11-23T11:09:19.0000000+00:00</time></trkpt><trkpt lat="30.59329414" lon="34.87255478"><ele>513.4</ele><time>2013-11-23T11:09:24.0000000+00:00</time></trkpt><trkpt lat="30.59329414" lon="34.87255096"><ele>513.4</ele><time>2013-11-23T11:09:29.0000000+00:00</time></trkpt><trkpt lat="30.59329224" lon="34.87255096"><ele>513.4</ele><time>2013-11-23T11:09:34.0000000+00:00</time></trkpt><trkpt lat="30.59329224" lon="34.87255096"><ele>513.4</ele><time>2013-11-23T11:09:39.0000000+00:00</time></trkpt><trkpt lat="30.59329414" lon="34.87255096"><ele>513.4</ele><time>2013-11-23T11:09:44.0000000+00:00</time></trkpt><trkpt lat="30.59329414" lon="34.87255096"><ele>513.4</ele><time>2013-11-23T11:09:49.0000000+00:00</time></trkpt><trkpt lat="30.59329224" lon="34.87255096"><ele>513.4</ele><time>2013-11-23T11:09:54.0000000+00:00</time></trkpt><trkpt lat="30.59329224" lon="34.87255096"><ele>513.3</ele><time>2013-11-23T11:09:59.0000000+00:00</time></trkpt><trkpt lat="30.59329224" lon="34.87255096"><ele>513.4</ele><time>2013-11-23T11:10:04.0000000+00:00</time></trkpt><trkpt lat="30.59329224" lon="34.87255096"><ele>513.4</ele><time>2013-11-23T11:10:09.0000000+00:00</time></trkpt><trkpt lat="30.59329224" lon="34.87255096"><ele>513.4</ele><time>2013-11-23T11:10:14.0000000+00:00</time></trkpt><trkpt lat="30.59329224" lon="34.87255096"><ele>513.4</ele><time>2013-11-23T11:10:19.0000000+00:00</time></trkpt><trkpt lat="30.59329224" lon="34.87255096"><ele>513.4</ele><time>2013-11-23T11:10:24.0000000+00:00</time></trkpt><trkpt lat="30.59329224" lon="34.87255096"><ele>513.3</ele><time>2013-11-23T11:10:29.0000000+00:00</time></trkpt><trkpt lat="30.59329224" lon="34.87255096"><ele>513.3</ele><time>2013-11-23T11:10:34.0000000+00:00</time></trkpt><trkpt lat="30.59329224" lon="34.87255096"><ele>513.3</ele><time>2013-11-23T11:10:39.0000000+00:00</time></trkpt><trkpt lat="30.59329224" lon="34.87255096"><ele>513.4</ele><time>2013-11-23T11:10:44.0000000+00:00</time></trkpt><trkpt lat="30.59329224" lon="34.87255096"><ele>513.4</ele><time>2013-11-23T11:10:49.0000000+00:00</time></trkpt><trkpt lat="30.59329224" lon="34.87255096"><ele>513.3</ele><time>2013-11-23T11:10:54.0000000+00:00</time></trkpt><trkpt lat="30.59329224" lon="34.87254715"><ele>513.3</ele><time>2013-11-23T11:10:59.0000000+00:00</time></trkpt><trkpt lat="30.59329224" lon="34.87254715"><ele>513.3</ele><time>2013-11-23T11:11:04.0000000+00:00</time></trkpt><trkpt lat="30.59329224" lon="34.87254715"><ele>513.3</ele><time>2013-11-23T11:11:09.0000000+00:00</time></trkpt><trkpt lat="30.59329224" lon="34.87254715"><ele>513.3</ele><time>2013-11-23T11:11:14.0000000+00:00</time></trkpt><trkpt lat="30.59329224" lon="34.87254715"><ele>513.3</ele><time>2013-11-23T11:11:19.0000000+00:00</time></trkpt><trkpt lat="30.59329224" lon="34.87254715"><ele>513.3</ele><time>2013-11-23T11:11:24.0000000+00:00</time></trkpt><trkpt lat="30.59329224" lon="34.87254715"><ele>513.3</ele><time>2013-11-23T11:11:29.0000000+00:00</time></trkpt><trkpt lat="30.59329224" lon="34.87254715"><ele>513.3</ele><time>2013-11-23T11:11:34.0000000+00:00</time></trkpt><trkpt lat="30.59329224" lon="34.87254715"><ele>513.3</ele><time>2013-11-23T11:11:39.0000000+00:00</time></trkpt><trkpt lat="30.59329224" lon="34.87254715"><ele>513.3</ele><time>2013-11-23T11:11:44.0000000+00:00</time></trkpt><trkpt lat="30.59329224" lon="34.87254715"><ele>513.3</ele><time>2013-11-23T11:11:49.0000000+00:00</time></trkpt><trkpt lat="30.59329224" lon="34.87254715"><ele>513.3</ele><time>2013-11-23T11:11:54.0000000+00:00</time></trkpt><trkpt lat="30.59329224" lon="34.87254715"><ele>513.3</ele><time>2013-11-23T11:11:59.0000000+00:00</time></trkpt><trkpt lat="30.59329224" lon="34.87254715"><ele>513.3</ele><time>2013-11-23T11:12:04.0000000+00:00</time></trkpt><trkpt lat="30.59329224" lon="34.87254715"><ele>513.2</ele><time>2013-11-23T11:12:09.0000000+00:00</time></trkpt><trkpt lat="30.59329224" lon="34.87254715"><ele>513.2</ele><time>2013-11-23T11:12:14.0000000+00:00</time></trkpt><trkpt lat="30.59329224" lon="34.87254715"><ele>513.2</ele><time>2013-11-23T11:12:19.0000000+00:00</time></trkpt><trkpt lat="30.59329224" lon="34.87254715"><ele>513.2</ele><time>2013-11-23T11:12:24.0000000+00:00</time></trkpt><trkpt lat="30.59329224" lon="34.87254715"><ele>513.2</ele><time>2013-11-23T11:12:29.0000000+00:00</time></trkpt><trkpt lat="30.59329224" lon="34.87254715"><ele>513.2</ele><time>2013-11-23T11:12:34.0000000+00:00</time></trkpt><trkpt lat="30.59329224" lon="34.87254715"><ele>513.2</ele><time>2013-11-23T11:12:39.0000000+00:00</time></trkpt><trkpt lat="30.59329224" lon="34.87254334"><ele>513.2</ele><time>2013-11-23T11:12:44.0000000+00:00</time></trkpt><trkpt lat="30.59329224" lon="34.87254334"><ele>513.2</ele><time>2013-11-23T11:12:49.0000000+00:00</time></trkpt><trkpt lat="30.59329033" lon="34.87254334"><ele>513.2</ele><time>2013-11-23T11:12:54.0000000+00:00</time></trkpt><trkpt lat="30.59329033" lon="34.87254334"><ele>513.2</ele><time>2013-11-23T11:12:59.0000000+00:00</time></trkpt><trkpt lat="30.59329033" lon="34.87254334"><ele>513.2</ele><time>2013-11-23T11:13:04.0000000+00:00</time></trkpt><trkpt lat="30.59329224" lon="34.87254334"><ele>513.2</ele><time>2013-11-23T11:13:09.0000000+00:00</time></trkpt><trkpt lat="30.59329224" lon="34.87254334"><ele>513.3</ele><time>2013-11-23T11:13:14.0000000+00:00</time></trkpt><trkpt lat="30.59329224" lon="34.87254334"><ele>513.3</ele><time>2013-11-23T11:13:19.0000000+00:00</time></trkpt><trkpt lat="30.59329224" lon="34.87254334"><ele>513.3</ele><time>2013-11-23T11:13:24.0000000+00:00</time></trkpt><trkpt lat="30.59329224" lon="34.87254334"><ele>513.3</ele><time>2013-11-23T11:13:29.0000000+00:00</time></trkpt><trkpt lat="30.59329224" lon="34.87254334"><ele>513.4</ele><time>2013-11-23T11:13:34.0000000+00:00</time></trkpt><trkpt lat="30.59329224" lon="34.87254334"><ele>513.4</ele><time>2013-11-23T11:13:39.0000000+00:00</time></trkpt><trkpt lat="30.59329224" lon="34.87254334"><ele>513.5</ele><time>2013-11-23T11:13:44.0000000+00:00</time></trkpt><trkpt lat="30.59329224" lon="34.87254334"><ele>513.5</ele><time>2013-11-23T11:13:49.0000000+00:00</time></trkpt><trkpt lat="30.59329224" lon="34.87254334"><ele>513.5</ele><time>2013-11-23T11:13:54.0000000+00:00</time></trkpt><trkpt lat="30.59329414" lon="34.87254334"><ele>513.6</ele><time>2013-11-23T11:13:59.0000000+00:00</time></trkpt><trkpt lat="30.59329414" lon="34.87254334"><ele>513.6</ele><time>2013-11-23T11:14:04.0000000+00:00</time></trkpt><trkpt lat="30.59329414" lon="34.87254334"><ele>513.7</ele><time>2013-11-23T11:14:09.0000000+00:00</time></trkpt><trkpt lat="30.59329414" lon="34.87254334"><ele>513.7</ele><time>2013-11-23T11:14:14.0000000+00:00</time></trkpt><trkpt lat="30.59329414" lon="34.87254334"><ele>513.7</ele><time>2013-11-23T11:14:19.0000000+00:00</time></trkpt><trkpt lat="30.59329414" lon="34.87254334"><ele>513.8</ele><time>2013-11-23T11:14:24.0000000+00:00</time></trkpt><trkpt lat="30.59329414" lon="34.87254334"><ele>513.8</ele><time>2013-11-23T11:14:29.0000000+00:00</time></trkpt><trkpt lat="30.59329414" lon="34.87254334"><ele>513.8</ele><time>2013-11-23T11:14:34.0000000+00:00</time></trkpt><trkpt lat="30.59329414" lon="34.87254334"><ele>513.9</ele><time>2013-11-23T11:14:39.0000000+00:00</time></trkpt><trkpt lat="30.59329414" lon="34.87254334"><ele>513.9</ele><time>2013-11-23T11:14:44.0000000+00:00</time></trkpt><trkpt lat="30.59329414" lon="34.87254334"><ele>513.9</ele><time>2013-11-23T11:14:49.0000000+00:00</time></trkpt><trkpt lat="30.59329414" lon="34.87254334"><ele>514.0</ele><time>2013-11-23T11:14:54.0000000+00:00</time></trkpt><trkpt lat="30.59329414" lon="34.87254334"><ele>514.0</ele><time>2013-11-23T11:14:59.0000000+00:00</time></trkpt><trkpt lat="30.59329414" lon="34.87254334"><ele>514.0</ele><time>2013-11-23T11:15:04.0000000+00:00</time></trkpt><trkpt lat="30.59329414" lon="34.87254334"><ele>514.0</ele><time>2013-11-23T11:15:09.0000000+00:00</time></trkpt><trkpt lat="30.59329414" lon="34.87254334"><ele>514.1</ele><time>2013-11-23T11:15:14.0000000+00:00</time></trkpt><trkpt lat="30.59329414" lon="34.87254334"><ele>514.1</ele><time>2013-11-23T11:15:19.0000000+00:00</time></trkpt><trkpt lat="30.59329414" lon="34.87254334"><ele>514.1</ele><time>2013-11-23T11:15:24.0000000+00:00</time></trkpt><trkpt lat="30.59329605" lon="34.87254334"><ele>514.2</ele><time>2013-11-23T11:15:29.0000000+00:00</time></trkpt><trkpt lat="30.59329605" lon="34.87254334"><ele>514.2</ele><time>2013-11-23T11:15:34.0000000+00:00</time></trkpt><trkpt lat="30.59329605" lon="34.87254334"><ele>514.2</ele><time>2013-11-23T11:15:39.0000000+00:00</time></trkpt><trkpt lat="30.59329605" lon="34.87254334"><ele>514.3</ele><time>2013-11-23T11:15:44.0000000+00:00</time></trkpt><trkpt lat="30.59329605" lon="34.87254334"><ele>514.3</ele><time>2013-11-23T11:15:49.0000000+00:00</time></trkpt><trkpt lat="30.59329605" lon="34.87254334"><ele>514.3</ele><time>2013-11-23T11:15:54.0000000+00:00</time></trkpt><trkpt lat="30.59329605" lon="34.87254334"><ele>514.3</ele><time>2013-11-23T11:15:59.0000000+00:00</time></trkpt><trkpt lat="30.59329605" lon="34.87254334"><ele>514.4</ele><time>2013-11-23T11:16:04.0000000+00:00</time></trkpt><trkpt lat="30.59329605" lon="34.87254334"><ele>514.4</ele><time>2013-11-23T11:16:09.0000000+00:00</time></trkpt><trkpt lat="30.59329605" lon="34.87254334"><ele>514.4</ele><time>2013-11-23T11:16:14.0000000+00:00</time></trkpt><trkpt lat="30.59329605" lon="34.87254334"><ele>514.5</ele><time>2013-11-23T11:16:19.0000000+00:00</time></trkpt><trkpt lat="30.59329605" lon="34.87254334"><ele>514.5</ele><time>2013-11-23T11:16:24.0000000+00:00</time></trkpt><trkpt lat="30.59329605" lon="34.87254334"><ele>514.5</ele><time>2013-11-23T11:16:29.0000000+00:00</time></trkpt><trkpt lat="30.59329414" lon="34.87254334"><ele>514.5</ele><time>2013-11-23T11:16:34.0000000+00:00</time></trkpt><trkpt lat="30.59329605" lon="34.87254334"><ele>514.5</ele><time>2013-11-23T11:16:39.0000000+00:00</time></trkpt><trkpt lat="30.59329414" lon="34.87254334"><ele>514.5</ele><time>2013-11-23T11:16:44.0000000+00:00</time></trkpt><trkpt lat="30.59329605" lon="34.87254334"><ele>514.6</ele><time>2013-11-23T11:16:49.0000000+00:00</time></trkpt><trkpt lat="30.59329605" lon="34.87254334"><ele>514.6</ele><time>2013-11-23T11:16:54.0000000+00:00</time></trkpt><trkpt lat="30.59329605" lon="34.87254334"><ele>514.6</ele><time>2013-11-23T11:16:59.0000000+00:00</time></trkpt><trkpt lat="30.59329605" lon="34.87254334"><ele>514.6</ele><time>2013-11-23T11:17:04.0000000+00:00</time></trkpt><trkpt lat="30.59329605" lon="34.87254334"><ele>514.6</ele><time>2013-11-23T11:17:09.0000000+00:00</time></trkpt><trkpt lat="30.59329605" lon="34.87254334"><ele>514.7</ele><time>2013-11-23T11:17:14.0000000+00:00</time></trkpt><trkpt lat="30.59329605" lon="34.87254334"><ele>514.7</ele><time>2013-11-23T11:17:19.0000000+00:00</time></trkpt><trkpt lat="30.59329605" lon="34.87254334"><ele>514.7</ele><time>2013-11-23T11:17:24.0000000+00:00</time></trkpt><trkpt lat="30.59329605" lon="34.87254334"><ele>514.7</ele><time>2013-11-23T11:17:29.0000000+00:00</time></trkpt><trkpt lat="30.59329605" lon="34.87254334"><ele>514.7</ele><time>2013-11-23T11:17:34.0000000+00:00</time></trkpt><trkpt lat="30.59329605" lon="34.87254334"><ele>514.8</ele><time>2013-11-23T11:17:39.0000000+00:00</time></trkpt><trkpt lat="30.59329605" lon="34.87254334"><ele>514.8</ele><time>2013-11-23T11:17:44.0000000+00:00</time></trkpt><trkpt lat="30.59329605" lon="34.87254334"><ele>514.8</ele><time>2013-11-23T11:17:49.0000000+00:00</time></trkpt><trkpt lat="30.59329605" lon="34.87254334"><ele>514.8</ele><time>2013-11-23T11:17:54.0000000+00:00</time></trkpt><trkpt lat="30.59329605" lon="34.87254334"><ele>514.8</ele><time>2013-11-23T11:17:59.0000000+00:00</time></trkpt><trkpt lat="30.59329605" lon="34.87254334"><ele>514.8</ele><time>2013-11-23T11:18:04.0000000+00:00</time></trkpt><trkpt lat="30.59329605" lon="34.87254334"><ele>514.8</ele><time>2013-11-23T11:18:09.0000000+00:00</time></trkpt><trkpt lat="30.59329605" lon="34.87254334"><ele>514.8</ele><time>2013-11-23T11:18:14.0000000+00:00</time></trkpt><trkpt lat="30.59329605" lon="34.87254334"><ele>514.8</ele><time>2013-11-23T11:18:19.0000000+00:00</time></trkpt><trkpt lat="30.59329605" lon="34.87254334"><ele>514.8</ele><time>2013-11-23T11:18:24.0000000+00:00</time></trkpt><trkpt lat="30.59329605" lon="34.87254334"><ele>514.8</ele><time>2013-11-23T11:18:29.0000000+00:00</time></trkpt><trkpt lat="30.59329605" lon="34.87254334"><ele>514.8</ele><time>2013-11-23T11:18:34.0000000+00:00</time></trkpt><trkpt lat="30.59329605" lon="34.87254334"><ele>514.8</ele><time>2013-11-23T11:18:39.0000000+00:00</time></trkpt><trkpt lat="30.59329605" lon="34.87254334"><ele>514.8</ele><time>2013-11-23T11:18:44.0000000+00:00</time></trkpt><trkpt lat="30.59329605" lon="34.87254334"><ele>514.8</ele><time>2013-11-23T11:18:49.0000000+00:00</time></trkpt><trkpt lat="30.59329605" lon="34.87254334"><ele>514.8</ele><time>2013-11-23T11:18:54.0000000+00:00</time></trkpt><trkpt lat="30.59329605" lon="34.87254334"><ele>514.8</ele><time>2013-11-23T11:18:59.0000000+00:00</time></trkpt><trkpt lat="30.59329605" lon="34.87254334"><ele>514.8</ele><time>2013-11-23T11:19:04.0000000+00:00</time></trkpt><trkpt lat="30.59329605" lon="34.87254334"><ele>514.9</ele><time>2013-11-23T11:19:09.0000000+00:00</time></trkpt><trkpt lat="30.59329605" lon="34.87254334"><ele>514.9</ele><time>2013-11-23T11:19:14.0000000+00:00</time></trkpt><trkpt lat="30.59329605" lon="34.87254334"><ele>514.9</ele><time>2013-11-23T11:19:19.0000000+00:00</time></trkpt><trkpt lat="30.59329605" lon="34.87254334"><ele>514.9</ele><time>2013-11-23T11:19:24.0000000+00:00</time></trkpt><trkpt lat="30.59329605" lon="34.87254334"><ele>514.9</ele><time>2013-11-23T11:19:29.0000000+00:00</time></trkpt><trkpt lat="30.59329605" lon="34.87254334"><ele>514.9</ele><time>2013-11-23T11:19:34.0000000+00:00</time></trkpt><trkpt lat="30.59329605" lon="34.87254334"><ele>514.9</ele><time>2013-11-23T11:19:39.0000000+00:00</time></trkpt><trkpt lat="30.59329605" lon="34.87254334"><ele>515.0</ele><time>2013-11-23T11:19:44.0000000+00:00</time></trkpt><trkpt lat="30.59329414" lon="34.87254334"><ele>515.0</ele><time>2013-11-23T11:19:49.0000000+00:00</time></trkpt><trkpt lat="30.59329414" lon="34.87254334"><ele>515.0</ele><time>2013-11-23T11:19:54.0000000+00:00</time></trkpt><trkpt lat="30.59329414" lon="34.87254334"><ele>515.0</ele><time>2013-11-23T11:19:59.0000000+00:00</time></trkpt><trkpt lat="30.59329414" lon="34.87254334"><ele>515.0</ele><time>2013-11-23T11:20:04.0000000+00:00</time></trkpt><trkpt lat="30.59329414" lon="34.87254334"><ele>515.0</ele><time>2013-11-23T11:20:09.0000000+00:00</time></trkpt><trkpt lat="30.59329414" lon="34.87254334"><ele>515.1</ele><time>2013-11-23T11:20:14.0000000+00:00</time></trkpt><trkpt lat="30.59329414" lon="34.87253952"><ele>515.1</ele><time>2013-11-23T11:20:19.0000000+00:00</time></trkpt><trkpt lat="30.59329414" lon="34.87253952"><ele>515.1</ele><time>2013-11-23T11:20:24.0000000+00:00</time></trkpt><trkpt lat="30.59329414" lon="34.87253952"><ele>515.1</ele><time>2013-11-23T11:20:29.0000000+00:00</time></trkpt><trkpt lat="30.59329414" lon="34.87253952"><ele>515.2</ele><time>2013-11-23T11:20:34.0000000+00:00</time></trkpt><trkpt lat="30.59329414" lon="34.87253952"><ele>515.2</ele><time>2013-11-23T11:20:39.0000000+00:00</time></trkpt><trkpt lat="30.59329414" lon="34.87253952"><ele>515.2</ele><time>2013-11-23T11:20:44.0000000+00:00</time></trkpt><trkpt lat="30.59329414" lon="34.87253952"><ele>515.2</ele><time>2013-11-23T11:20:49.0000000+00:00</time></trkpt><trkpt lat="30.59329414" lon="34.87253952"><ele>515.2</ele><time>2013-11-23T11:20:54.0000000+00:00</time></trkpt><trkpt lat="30.59329414" lon="34.87253952"><ele>515.2</ele><time>2013-11-23T11:20:59.0000000+00:00</time></trkpt><trkpt lat="30.59329414" lon="34.87253952"><ele>515.2</ele><time>2013-11-23T11:21:04.0000000+00:00</time></trkpt><trkpt lat="30.59329414" lon="34.87253952"><ele>515.2</ele><time>2013-11-23T11:21:09.0000000+00:00</time></trkpt><trkpt lat="30.59329414" lon="34.87253952"><ele>515.2</ele><time>2013-11-23T11:21:14.0000000+00:00</time></trkpt><trkpt lat="30.59329414" lon="34.87253952"><ele>515.2</ele><time>2013-11-23T11:21:19.0000000+00:00</time></trkpt><trkpt lat="30.59329414" lon="34.87253952"><ele>515.2</ele><time>2013-11-23T11:21:24.0000000+00:00</time></trkpt><trkpt lat="30.59329414" lon="34.87253952"><ele>515.2</ele><time>2013-11-23T11:21:29.0000000+00:00</time></trkpt><trkpt lat="30.59329414" lon="34.87253952"><ele>515.3</ele><time>2013-11-23T11:21:34.0000000+00:00</time></trkpt><trkpt lat="30.59329414" lon="34.87253952"><ele>515.3</ele><time>2013-11-23T11:21:39.0000000+00:00</time></trkpt><trkpt lat="30.59329414" lon="34.87253952"><ele>515.3</ele><time>2013-11-23T11:21:44.0000000+00:00</time></trkpt><trkpt lat="30.59329414" lon="34.87253952"><ele>515.3</ele><time>2013-11-23T11:21:49.0000000+00:00</time></trkpt><trkpt lat="30.59329414" lon="34.87253952"><ele>515.2</ele><time>2013-11-23T11:21:54.0000000+00:00</time></trkpt><trkpt lat="30.59329414" lon="34.87253952"><ele>515.3</ele><time>2013-11-23T11:21:59.0000000+00:00</time></trkpt><trkpt lat="30.59329224" lon="34.87255478"><ele>514.3</ele><time>2013-11-23T11:22:04.0000000+00:00</time></trkpt><trkpt lat="30.59333038" lon="34.87256241"><ele>514.0</ele><time>2013-11-23T11:22:09.0000000+00:00</time></trkpt><trkpt lat="30.59340668" lon="34.872509"><ele>514.5</ele><time>2013-11-23T11:22:14.0000000+00:00</time></trkpt><trkpt lat="30.59348679" lon="34.87241745"><ele>514.8</ele><time>2013-11-23T11:22:19.0000000+00:00</time></trkpt><trkpt lat="30.59356308" lon="34.87236404"><ele>515.3</ele><time>2013-11-23T11:22:24.0000000+00:00</time></trkpt><trkpt lat="30.59365463" lon="34.87228775"><ele>515.0</ele><time>2013-11-23T11:22:29.0000000+00:00</time></trkpt><trkpt lat="30.59378815" lon="34.87218094"><ele>514.4</ele><time>2013-11-23T11:22:34.0000000+00:00</time></trkpt><trkpt lat="30.59389877" lon="34.87203598"><ele>513.8</ele><time>2013-11-23T11:22:39.0000000+00:00</time></trkpt><trkpt lat="30.59397507" lon="34.87187958"><ele>514.5</ele><time>2013-11-23T11:22:44.0000000+00:00</time></trkpt><trkpt lat="30.59402466" lon="34.8717308"><ele>515.3</ele><time>2013-11-23T11:22:49.0000000+00:00</time></trkpt><trkpt lat="30.59408379" lon="34.8715744"><ele>515.1</ele><time>2013-11-23T11:22:54.0000000+00:00</time></trkpt><trkpt lat="30.59416962" lon="34.87147141"><ele>515.7</ele><time>2013-11-23T11:22:59.0000000+00:00</time></trkpt><trkpt lat="30.59425163" lon="34.8713913"><ele>516.1</ele><time>2013-11-23T11:23:04.0000000+00:00</time></trkpt><trkpt lat="30.59431839" lon="34.87133789"><ele>516.1</ele><time>2013-11-23T11:23:09.0000000+00:00</time></trkpt><trkpt lat="30.59438515" lon="34.8712616"><ele>515.6</ele><time>2013-11-23T11:23:14.0000000+00:00</time></trkpt><trkpt lat="30.59444428" lon="34.87118149"><ele>516.5</ele><time>2013-11-23T11:23:19.0000000+00:00</time></trkpt><trkpt lat="30.59451294" lon="34.87107468"><ele>517.0</ele><time>2013-11-23T11:23:24.0000000+00:00</time></trkpt><trkpt lat="30.59458351" lon="34.87096787"><ele>517.0</ele><time>2013-11-23T11:23:29.0000000+00:00</time></trkpt><trkpt lat="30.59465218" lon="34.87086868"><ele>517.6</ele><time>2013-11-23T11:23:34.0000000+00:00</time></trkpt><trkpt lat="30.59474754" lon="34.87075806"><ele>517.3</ele><time>2013-11-23T11:23:39.0000000+00:00</time></trkpt><trkpt lat="30.59485817" lon="34.87064743"><ele>517.6</ele><time>2013-11-23T11:23:44.0000000+00:00</time></trkpt><trkpt lat="30.59495926" lon="34.87055588"><ele>518.3</ele><time>2013-11-23T11:23:49.0000000+00:00</time></trkpt><trkpt lat="30.59509087" lon="34.87043381"><ele>518.4</ele><time>2013-11-23T11:23:54.0000000+00:00</time></trkpt><trkpt lat="30.59521866" lon="34.87030792"><ele>518.4</ele><time>2013-11-23T11:23:59.0000000+00:00</time></trkpt><trkpt lat="30.59534454" lon="34.87018204"><ele>519.2</ele><time>2013-11-23T11:24:04.0000000+00:00</time></trkpt><trkpt lat="30.59547615" lon="34.87005997"><ele>520.1</ele><time>2013-11-23T11:24:09.0000000+00:00</time></trkpt><trkpt lat="30.59561539" lon="34.86994934"><ele>521.0</ele><time>2013-11-23T11:24:14.0000000+00:00</time></trkpt><trkpt lat="30.59576798" lon="34.8698349"><ele>521.5</ele><time>2013-11-23T11:24:19.0000000+00:00</time></trkpt><trkpt lat="30.59591103" lon="34.86971283"><ele>522.3</ele><time>2013-11-23T11:24:24.0000000+00:00</time></trkpt><trkpt lat="30.59601021" lon="34.86961365"><ele>522.5</ele><time>2013-11-23T11:24:29.0000000+00:00</time></trkpt><trkpt lat="30.59612274" lon="34.86949921"><ele>522.8</ele><time>2013-11-23T11:24:34.0000000+00:00</time></trkpt><trkpt lat="30.59622192" lon="34.86938095"><ele>523.6</ele><time>2013-11-23T11:24:39.0000000+00:00</time></trkpt><trkpt lat="30.59632111" lon="34.86925125"><ele>524.0</ele><time>2013-11-23T11:24:44.0000000+00:00</time></trkpt><trkpt lat="30.59642029" lon="34.86911392"><ele>524.5</ele><time>2013-11-23T11:24:49.0000000+00:00</time></trkpt><trkpt lat="30.59650421" lon="34.86899567"><ele>524.5</ele><time>2013-11-23T11:24:54.0000000+00:00</time></trkpt><trkpt lat="30.59657097" lon="34.86888504"><ele>524.0</ele><time>2013-11-23T11:24:59.0000000+00:00</time></trkpt><trkpt lat="30.59667015" lon="34.86874008"><ele>523.8</ele><time>2013-11-23T11:25:04.0000000+00:00</time></trkpt><trkpt lat="30.59676933" lon="34.86861801"><ele>523.0</ele><time>2013-11-23T11:25:09.0000000+00:00</time></trkpt><trkpt lat="30.59687042" lon="34.86848831"><ele>522.6</ele><time>2013-11-23T11:25:14.0000000+00:00</time></trkpt><trkpt lat="30.59698486" lon="34.86837387"><ele>522.4</ele><time>2013-11-23T11:25:19.0000000+00:00</time></trkpt><trkpt lat="30.59711075" lon="34.86821747"><ele>522.0</ele><time>2013-11-23T11:25:24.0000000+00:00</time></trkpt><trkpt lat="30.59724236" lon="34.86806107"><ele>521.5</ele><time>2013-11-23T11:25:29.0000000+00:00</time></trkpt><trkpt lat="30.59738159" lon="34.86790848"><ele>520.6</ele><time>2013-11-23T11:25:34.0000000+00:00</time></trkpt><trkpt lat="30.59751511" lon="34.86775208"><ele>520.1</ele><time>2013-11-23T11:25:39.0000000+00:00</time></trkpt><trkpt lat="30.59766007" lon="34.86758804"><ele>519.5</ele><time>2013-11-23T11:25:44.0000000+00:00</time></trkpt><trkpt lat="30.59782791" lon="34.86748505"><ele>519.0</ele><time>2013-11-23T11:25:49.0000000+00:00</time></trkpt><trkpt lat="30.59803581" lon="34.86743164"><ele>518.0</ele><time>2013-11-23T11:25:54.0000000+00:00</time></trkpt><trkpt lat="30.59825516" lon="34.86740494"><ele>517.5</ele><time>2013-11-23T11:25:59.0000000+00:00</time></trkpt><trkpt lat="30.59846115" lon="34.86737442"><ele>516.5</ele><time>2013-11-23T11:26:04.0000000+00:00</time></trkpt><trkpt lat="30.59857178" lon="34.86718369"><ele>515.9</ele><time>2013-11-23T11:26:09.0000000+00:00</time></trkpt><trkpt lat="30.59851074" lon="34.86693955"><ele>515.8</ele><time>2013-11-23T11:26:14.0000000+00:00</time></trkpt><trkpt lat="30.59848785" lon="34.86672974"><ele>516.6</ele><time>2013-11-23T11:26:19.0000000+00:00</time></trkpt><trkpt lat="30.59849739" lon="34.86660385"><ele>517.3</ele><time>2013-11-23T11:26:24.0000000+00:00</time></trkpt><trkpt lat="30.59851837" lon="34.86646652"><ele>517.9</ele><time>2013-11-23T11:26:29.0000000+00:00</time></trkpt><trkpt lat="30.59852791" lon="34.86631393"><ele>518.6</ele><time>2013-11-23T11:26:34.0000000+00:00</time></trkpt><trkpt lat="30.59855843" lon="34.86615753"><ele>518.9</ele><time>2013-11-23T11:26:39.0000000+00:00</time></trkpt><trkpt lat="30.59862709" lon="34.86598969"><ele>519.0</ele><time>2013-11-23T11:26:44.0000000+00:00</time></trkpt><trkpt lat="30.59870911" lon="34.86584091"><ele>519.4</ele><time>2013-11-23T11:26:49.0000000+00:00</time></trkpt><trkpt lat="30.59878349" lon="34.8657341"><ele>519.7</ele><time>2013-11-23T11:26:54.0000000+00:00</time></trkpt><trkpt lat="30.59882546" lon="34.86566544"><ele>519.8</ele><time>2013-11-23T11:26:59.0000000+00:00</time></trkpt><trkpt lat="30.59888077" lon="34.86556244"><ele>519.8</ele><time>2013-11-23T11:27:04.0000000+00:00</time></trkpt><trkpt lat="30.59892845" lon="34.86545563"><ele>519.9</ele><time>2013-11-23T11:27:09.0000000+00:00</time></trkpt><trkpt lat="30.59896851" lon="34.86536408"><ele>520.6</ele><time>2013-11-23T11:27:14.0000000+00:00</time></trkpt><trkpt lat="30.59900093" lon="34.86528015"><ele>521.4</ele><time>2013-11-23T11:27:19.0000000+00:00</time></trkpt><trkpt lat="30.59904099" lon="34.86521912"><ele>522.2</ele><time>2013-11-23T11:27:24.0000000+00:00</time></trkpt><trkpt lat="30.59904862" lon="34.8652153"><ele>522.4</ele><time>2013-11-23T11:27:29.0000000+00:00</time></trkpt><trkpt lat="30.59904862" lon="34.8652153"><ele>522.4</ele><time>2013-11-23T11:27:34.0000000+00:00</time></trkpt><trkpt lat="30.59905815" lon="34.86520767"><ele>522.5</ele><time>2013-11-23T11:27:39.0000000+00:00</time></trkpt><trkpt lat="30.59910393" lon="34.86523819"><ele>523.1</ele><time>2013-11-23T11:27:44.0000000+00:00</time></trkpt><trkpt lat="30.59918785" lon="34.86528015"><ele>523.5</ele><time>2013-11-23T11:27:49.0000000+00:00</time></trkpt><trkpt lat="30.59930992" lon="34.86528015"><ele>523.5</ele><time>2013-11-23T11:27:54.0000000+00:00</time></trkpt><trkpt lat="30.59944153" lon="34.86522675"><ele>522.8</ele><time>2013-11-23T11:27:59.0000000+00:00</time></trkpt><trkpt lat="30.59962273" lon="34.86505127"><ele>519.6</ele><time>2013-11-23T11:28:04.0000000+00:00</time></trkpt><trkpt lat="30.59976196" lon="34.86481857"><ele>520.4</ele><time>2013-11-23T11:28:09.0000000+00:00</time></trkpt><trkpt lat="30.59983826" lon="34.86474609"><ele>521.2</ele><time>2013-11-23T11:28:14.0000000+00:00</time></trkpt><trkpt lat="30.59990501" lon="34.8646698"><ele>520.8</ele><time>2013-11-23T11:28:19.0000000+00:00</time></trkpt><trkpt lat="30.59993553" lon="34.8645134"><ele>519.0</ele><time>2013-11-23T11:28:24.0000000+00:00</time></trkpt><trkpt lat="30.59996986" lon="34.86429215"><ele>516.6</ele><time>2013-11-23T11:28:29.0000000+00:00</time></trkpt><trkpt lat="30.60011864" lon="34.86418915"><ele>516.1</ele><time>2013-11-23T11:28:34.0000000+00:00</time></trkpt><trkpt lat="30.60019875" lon="34.8640976"><ele>514.9</ele><time>2013-11-23T11:28:39.0000000+00:00</time></trkpt><trkpt lat="30.60025597" lon="34.86401749"><ele>513.4</ele><time>2013-11-23T11:28:44.0000000+00:00</time></trkpt><trkpt lat="30.60040093" lon="34.86394119"><ele>509.9</ele><time>2013-11-23T11:28:49.0000000+00:00</time></trkpt><trkpt lat="30.60066032" lon="34.86388016"><ele>505.4</ele><time>2013-11-23T11:28:54.0000000+00:00</time></trkpt><trkpt lat="30.60099793" lon="34.86376572"><ele>502.0</ele><time>2013-11-23T11:28:59.0000000+00:00</time></trkpt><trkpt lat="30.60132599" lon="34.86356354"><ele>500.8</ele><time>2013-11-23T11:29:04.0000000+00:00</time></trkpt><trkpt lat="30.60160828" lon="34.86337662"><ele>500.9</ele><time>2013-11-23T11:29:09.0000000+00:00</time></trkpt><trkpt lat="30.60181427" lon="34.86317062"><ele>500.0</ele><time>2013-11-23T11:29:14.0000000+00:00</time></trkpt><trkpt lat="30.60195351" lon="34.86292648"><ele>499.7</ele><time>2013-11-23T11:29:19.0000000+00:00</time></trkpt><trkpt lat="30.60204125" lon="34.86273575"><ele>499.5</ele><time>2013-11-23T11:29:24.0000000+00:00</time></trkpt><trkpt lat="30.60214996" lon="34.86257553"><ele>498.9</ele><time>2013-11-23T11:29:29.0000000+00:00</time></trkpt><trkpt lat="30.60224915" lon="34.86244583"><ele>498.9</ele><time>2013-11-23T11:29:34.0000000+00:00</time></trkpt><trkpt lat="30.6023159" lon="34.86234283"><ele>499.8</ele><time>2013-11-23T11:29:39.0000000+00:00</time></trkpt><trkpt lat="30.60235786" lon="34.86226654"><ele>500.4</ele><time>2013-11-23T11:29:44.0000000+00:00</time></trkpt><trkpt lat="30.6023941" lon="34.86220169"><ele>500.6</ele><time>2013-11-23T11:29:49.0000000+00:00</time></trkpt><trkpt lat="30.60242081" lon="34.86214447"><ele>501.0</ele><time>2013-11-23T11:29:54.0000000+00:00</time></trkpt><trkpt lat="30.60244179" lon="34.86209869"><ele>501.7</ele><time>2013-11-23T11:29:59.0000000+00:00</time></trkpt><trkpt lat="30.60246086" lon="34.86205673"><ele>502.5</ele><time>2013-11-23T11:30:04.0000000+00:00</time></trkpt><trkpt lat="30.60247994" lon="34.86200714"><ele>503.1</ele><time>2013-11-23T11:30:09.0000000+00:00</time></trkpt><trkpt lat="30.60251808" lon="34.86196137"><ele>503.1</ele><time>2013-11-23T11:30:14.0000000+00:00</time></trkpt><trkpt lat="30.60256386" lon="34.86190414"><ele>503.5</ele><time>2013-11-23T11:30:19.0000000+00:00</time></trkpt><trkpt lat="30.6026268" lon="34.86184692"><ele>503.7</ele><time>2013-11-23T11:30:24.0000000+00:00</time></trkpt><trkpt lat="30.60268784" lon="34.86180115"><ele>503.9</ele><time>2013-11-23T11:30:29.0000000+00:00</time></trkpt><trkpt lat="30.6027565" lon="34.86175156"><ele>504.3</ele><time>2013-11-23T11:30:34.0000000+00:00</time></trkpt><trkpt lat="30.60286331" lon="34.86168671"><ele>504.8</ele><time>2013-11-23T11:30:39.0000000+00:00</time></trkpt><trkpt lat="30.60299301" lon="34.86158371"><ele>504.9</ele><time>2013-11-23T11:30:44.0000000+00:00</time></trkpt><trkpt lat="30.60310173" lon="34.86148834"><ele>504.8</ele><time>2013-11-23T11:30:49.0000000+00:00</time></trkpt><trkpt lat="30.60318375" lon="34.86139298"><ele>504.5</ele><time>2013-11-23T11:30:54.0000000+00:00</time></trkpt><trkpt lat="30.6032753" lon="34.8612442"><ele>503.5</ele><time>2013-11-23T11:30:59.0000000+00:00</time></trkpt><trkpt lat="30.60338593" lon="34.8611145"><ele>503.4</ele><time>2013-11-23T11:31:04.0000000+00:00</time></trkpt><trkpt lat="30.60352516" lon="34.86099243"><ele>503.8</ele><time>2013-11-23T11:31:09.0000000+00:00</time></trkpt><trkpt lat="30.60362625" lon="34.86087799"><ele>503.9</ele><time>2013-11-23T11:31:14.0000000+00:00</time></trkpt><trkpt lat="30.60372543" lon="34.86079407"><ele>503.8</ele><time>2013-11-23T11:31:19.0000000+00:00</time></trkpt><trkpt lat="30.6038208" lon="34.86071777"><ele>503.6</ele><time>2013-11-23T11:31:24.0000000+00:00</time></trkpt><trkpt lat="30.60392761" lon="34.86061096"><ele>504.0</ele><time>2013-11-23T11:31:29.0000000+00:00</time></trkpt><trkpt lat="30.60406494" lon="34.86049271"><ele>504.0</ele><time>2013-11-23T11:31:34.0000000+00:00</time></trkpt><trkpt lat="30.60418129" lon="34.8603859"><ele>504.0</ele><time>2013-11-23T11:31:39.0000000+00:00</time></trkpt><trkpt lat="30.60430908" lon="34.86027527"><ele>503.4</ele><time>2013-11-23T11:31:44.0000000+00:00</time></trkpt><trkpt lat="30.60444641" lon="34.86011887"><ele>502.0</ele><time>2013-11-23T11:31:49.0000000+00:00</time></trkpt><trkpt lat="30.60447311" lon="34.85985184"><ele>499.6</ele><time>2013-11-23T11:31:54.0000000+00:00</time></trkpt><trkpt lat="30.60445786" lon="34.85965729"><ele>500.0</ele><time>2013-11-23T11:31:59.0000000+00:00</time></trkpt><trkpt lat="30.60449028" lon="34.85957336"><ele>501.2</ele><time>2013-11-23T11:32:04.0000000+00:00</time></trkpt><trkpt lat="30.60453796" lon="34.85955048"><ele>501.9</ele><time>2013-11-23T11:32:09.0000000+00:00</time></trkpt><trkpt lat="30.60457802" lon="34.85952759"><ele>501.9</ele><time>2013-11-23T11:32:14.0000000+00:00</time></trkpt><trkpt lat="30.60461617" lon="34.85951996"><ele>501.8</ele><time>2013-11-23T11:32:19.0000000+00:00</time></trkpt><trkpt lat="30.60466194" lon="34.85951996"><ele>501.8</ele><time>2013-11-23T11:32:24.0000000+00:00</time></trkpt><trkpt lat="30.6047039" lon="34.85951996"><ele>501.6</ele><time>2013-11-23T11:32:29.0000000+00:00</time></trkpt><trkpt lat="30.60474777" lon="34.85951233"><ele>501.1</ele><time>2013-11-23T11:32:34.0000000+00:00</time></trkpt><trkpt lat="30.60480499" lon="34.85949326"><ele>501.2</ele><time>2013-11-23T11:32:39.0000000+00:00</time></trkpt><trkpt lat="30.60487938" lon="34.85946655"><ele>500.3</ele><time>2013-11-23T11:32:44.0000000+00:00</time></trkpt><trkpt lat="30.60500145" lon="34.85942459"><ele>500.5</ele><time>2013-11-23T11:32:49.0000000+00:00</time></trkpt><trkpt lat="30.60513878" lon="34.85937119"><ele>500.0</ele><time>2013-11-23T11:32:54.0000000+00:00</time></trkpt><trkpt lat="30.6052475" lon="34.85930634"><ele>500.2</ele><time>2013-11-23T11:32:59.0000000+00:00</time></trkpt><trkpt lat="30.6053772" lon="34.85923004"><ele>501.2</ele><time>2013-11-23T11:33:04.0000000+00:00</time></trkpt><trkpt lat="30.60547257" lon="34.85916138"><ele>500.9</ele><time>2013-11-23T11:33:09.0000000+00:00</time></trkpt><trkpt lat="30.60556984" lon="34.85910416"><ele>501.1</ele><time>2013-11-23T11:33:14.0000000+00:00</time></trkpt><trkpt lat="30.60569572" lon="34.85903168"><ele>501.7</ele><time>2013-11-23T11:33:19.0000000+00:00</time></trkpt><trkpt lat="30.60579872" lon="34.85896301"><ele>502.2</ele><time>2013-11-23T11:33:24.0000000+00:00</time></trkpt><trkpt lat="30.60590553" lon="34.85884094"><ele>500.5</ele><time>2013-11-23T11:33:29.0000000+00:00</time></trkpt><trkpt lat="30.60611343" lon="34.85859299"><ele>496.8</ele><time>2013-11-23T11:33:34.0000000+00:00</time></trkpt><trkpt lat="30.60630608" lon="34.85824585"><ele>495.3</ele><time>2013-11-23T11:33:39.0000000+00:00</time></trkpt><trkpt lat="30.60643005" lon="34.8579216"><ele>494.4</ele><time>2013-11-23T11:33:44.0000000+00:00</time></trkpt><trkpt lat="30.60660934" lon="34.85769272"><ele>493.6</ele><time>2013-11-23T11:33:49.0000000+00:00</time></trkpt><trkpt lat="30.60678101" lon="34.85749054"><ele>492.6</ele><time>2013-11-23T11:33:54.0000000+00:00</time></trkpt><trkpt lat="30.60694504" lon="34.85734177"><ele>492.0</ele><time>2013-11-23T11:33:59.0000000+00:00</time></trkpt><trkpt lat="30.60707474" lon="34.85725784"><ele>492.4</ele><time>2013-11-23T11:34:04.0000000+00:00</time></trkpt><trkpt lat="30.60715294" lon="34.85721207"><ele>493.4</ele><time>2013-11-23T11:34:09.0000000+00:00</time></trkpt><trkpt lat="30.60723305" lon="34.85715866"><ele>494.0</ele><time>2013-11-23T11:34:14.0000000+00:00</time></trkpt><trkpt lat="30.60731316" lon="34.85709381"><ele>493.5</ele><time>2013-11-23T11:34:19.0000000+00:00</time></trkpt><trkpt lat="30.60741997" lon="34.85697174"><ele>492.5</ele><time>2013-11-23T11:34:24.0000000+00:00</time></trkpt><trkpt lat="30.60754204" lon="34.85681152"><ele>492.5</ele><time>2013-11-23T11:34:29.0000000+00:00</time></trkpt><trkpt lat="30.60765839" lon="34.85665131"><ele>491.9</ele><time>2013-11-23T11:34:34.0000000+00:00</time></trkpt><trkpt lat="30.60776901" lon="34.8564949"><ele>491.8</ele><time>2013-11-23T11:34:39.0000000+00:00</time></trkpt><trkpt lat="30.6078682" lon="34.85635376"><ele>491.4</ele><time>2013-11-23T11:34:44.0000000+00:00</time></trkpt><trkpt lat="30.60796928" lon="34.8562355"><ele>491.0</ele><time>2013-11-23T11:34:49.0000000+00:00</time></trkpt><trkpt lat="30.60808182" lon="34.85609818"><ele>490.4</ele><time>2013-11-23T11:34:54.0000000+00:00</time></trkpt><trkpt lat="30.60819244" lon="34.85595322"><ele>490.3</ele><time>2013-11-23T11:34:59.0000000+00:00</time></trkpt><trkpt lat="30.60829735" lon="34.85582733"><ele>489.6</ele><time>2013-11-23T11:35:04.0000000+00:00</time></trkpt><trkpt lat="30.60840988" lon="34.85570908"><ele>489.1</ele><time>2013-11-23T11:35:09.0000000+00:00</time></trkpt><trkpt lat="30.6085186" lon="34.85562134"><ele>489.4</ele><time>2013-11-23T11:35:14.0000000+00:00</time></trkpt><trkpt lat="30.60865212" lon="34.85552216"><ele>489.3</ele><time>2013-11-23T11:35:19.0000000+00:00</time></trkpt><trkpt lat="30.60879517" lon="34.85540772"><ele>488.5</ele><time>2013-11-23T11:35:24.0000000+00:00</time></trkpt><trkpt lat="30.60894203" lon="34.85528183"><ele>487.7</ele><time>2013-11-23T11:35:29.0000000+00:00</time></trkpt><trkpt lat="30.60907745" lon="34.85515595"><ele>487.2</ele><time>2013-11-23T11:35:34.0000000+00:00</time></trkpt><trkpt lat="30.60917854" lon="34.8550148"><ele>486.6</ele><time>2013-11-23T11:35:39.0000000+00:00</time></trkpt><trkpt lat="30.60927391" lon="34.85487366"><ele>486.5</ele><time>2013-11-23T11:35:44.0000000+00:00</time></trkpt><trkpt lat="30.60937309" lon="34.85470581"><ele>485.6</ele><time>2013-11-23T11:35:49.0000000+00:00</time></trkpt><trkpt lat="30.60950279" lon="34.85455704"><ele>485.8</ele><time>2013-11-23T11:35:54.0000000+00:00</time></trkpt><trkpt lat="30.60968208" lon="34.85442734"><ele>486.3</ele><time>2013-11-23T11:35:59.0000000+00:00</time></trkpt><trkpt lat="30.6098671" lon="34.85432434"><ele>486.1</ele><time>2013-11-23T11:36:04.0000000+00:00</time></trkpt><trkpt lat="30.6100502" lon="34.85420609"><ele>485.6</ele><time>2013-11-23T11:36:09.0000000+00:00</time></trkpt><trkpt lat="30.61022186" lon="34.85411072"><ele>486.0</ele><time>2013-11-23T11:36:14.0000000+00:00</time></trkpt><trkpt lat="30.61041451" lon="34.85402298"><ele>485.9</ele><time>2013-11-23T11:36:19.0000000+00:00</time></trkpt><trkpt lat="30.61054421" lon="34.85386658"><ele>486.1</ele><time>2013-11-23T11:36:24.0000000+00:00</time></trkpt><trkpt lat="30.61061096" lon="34.85367203"><ele>486.3</ele><time>2013-11-23T11:36:29.0000000+00:00</time></trkpt><trkpt lat="30.61068916" lon="34.85349655"><ele>486.1</ele><time>2013-11-23T11:36:34.0000000+00:00</time></trkpt><trkpt lat="30.61081314" lon="34.85333633"><ele>485.4</ele><time>2013-11-23T11:36:39.0000000+00:00</time></trkpt><trkpt lat="30.61099625" lon="34.85327148"><ele>484.4</ele><time>2013-11-23T11:36:44.0000000+00:00</time></trkpt><trkpt lat="30.61115837" lon="34.85336685"><ele>483.6</ele><time>2013-11-23T11:36:49.0000000+00:00</time></trkpt><trkpt lat="30.61120606" lon="34.85345459"><ele>484.5</ele><time>2013-11-23T11:36:54.0000000+00:00</time></trkpt><trkpt lat="30.61118889" lon="34.85349655"><ele>484.7</ele><time>2013-11-23T11:36:59.0000000+00:00</time></trkpt><trkpt lat="30.61118698" lon="34.85349274"><ele>485.0</ele><time>2013-11-23T11:37:04.0000000+00:00</time></trkpt><trkpt lat="30.61118698" lon="34.85349274"><ele>485.0</ele><time>2013-11-23T11:37:09.0000000+00:00</time></trkpt><trkpt lat="30.61118698" lon="34.85349274"><ele>485.0</ele><time>2013-11-23T11:37:14.0000000+00:00</time></trkpt><trkpt lat="30.61118698" lon="34.85349274"><ele>485.1</ele><time>2013-11-23T11:37:19.0000000+00:00</time></trkpt><trkpt lat="30.61118698" lon="34.85349274"><ele>485.1</ele><time>2013-11-23T11:37:24.0000000+00:00</time></trkpt><trkpt lat="30.61118698" lon="34.85349274"><ele>485.1</ele><time>2013-11-23T11:37:29.0000000+00:00</time></trkpt><trkpt lat="30.61115265" lon="34.85352325"><ele>484.9</ele><time>2013-11-23T11:37:34.0000000+00:00</time></trkpt><trkpt lat="30.61112404" lon="34.85364533"><ele>485.2</ele><time>2013-11-23T11:37:39.0000000+00:00</time></trkpt><trkpt lat="30.61111832" lon="34.8537941"><ele>485.0</ele><time>2013-11-23T11:37:44.0000000+00:00</time></trkpt><trkpt lat="30.61112022" lon="34.85383225"><ele>484.5</ele><time>2013-11-23T11:37:49.0000000+00:00</time></trkpt><trkpt lat="30.61111832" lon="34.85388565"><ele>484.3</ele><time>2013-11-23T11:37:54.0000000+00:00</time></trkpt><trkpt lat="30.6111126" lon="34.85394669"><ele>484.3</ele><time>2013-11-23T11:37:59.0000000+00:00</time></trkpt><trkpt lat="30.6111126" lon="34.85399628"><ele>484.5</ele><time>2013-11-23T11:38:04.0000000+00:00</time></trkpt><trkpt lat="30.61111069" lon="34.85400772"><ele>484.5</ele><time>2013-11-23T11:38:09.0000000+00:00</time></trkpt><trkpt lat="30.61110878" lon="34.85409927"><ele>484.7</ele><time>2013-11-23T11:38:14.0000000+00:00</time></trkpt><trkpt lat="30.61108971" lon="34.85422134"><ele>485.0</ele><time>2013-11-23T11:38:19.0000000+00:00</time></trkpt><trkpt lat="30.61107636" lon="34.8543129"><ele>485.2</ele><time>2013-11-23T11:38:24.0000000+00:00</time></trkpt><trkpt lat="30.61106682" lon="34.85439301"><ele>485.4</ele><time>2013-11-23T11:38:29.0000000+00:00</time></trkpt><trkpt lat="30.61104393" lon="34.85446167"><ele>485.5</ele><time>2013-11-23T11:38:34.0000000+00:00</time></trkpt><trkpt lat="30.61101723" lon="34.8545723"><ele>485.1</ele><time>2013-11-23T11:38:39.0000000+00:00</time></trkpt><trkpt lat="30.61102295" lon="34.85468292"><ele>484.9</ele><time>2013-11-23T11:38:44.0000000+00:00</time></trkpt><trkpt lat="30.61102486" lon="34.85476685"><ele>484.5</ele><time>2013-11-23T11:38:49.0000000+00:00</time></trkpt><trkpt lat="30.6110096" lon="34.85487366"><ele>484.1</ele><time>2013-11-23T11:38:54.0000000+00:00</time></trkpt><trkpt lat="30.61101341" lon="34.85497665"><ele>484.1</ele><time>2013-11-23T11:38:59.0000000+00:00</time></trkpt><trkpt lat="30.61100578" lon="34.85507965"><ele>484.2</ele><time>2013-11-23T11:39:04.0000000+00:00</time></trkpt><trkpt lat="30.61099625" lon="34.85517883"><ele>484.5</ele><time>2013-11-23T11:39:09.0000000+00:00</time></trkpt><trkpt lat="30.61099625" lon="34.85528183"><ele>484.5</ele><time>2013-11-23T11:39:14.0000000+00:00</time></trkpt><trkpt lat="30.61100578" lon="34.85538483"><ele>484.1</ele><time>2013-11-23T11:39:19.0000000+00:00</time></trkpt><trkpt lat="30.61101151" lon="34.85550308"><ele>484.0</ele><time>2013-11-23T11:39:24.0000000+00:00</time></trkpt><trkpt lat="30.61102295" lon="34.85558701"><ele>484.1</ele><time>2013-11-23T11:39:29.0000000+00:00</time></trkpt><trkpt lat="30.61103058" lon="34.85569382"><ele>483.9</ele><time>2013-11-23T11:39:34.0000000+00:00</time></trkpt><trkpt lat="30.61103249" lon="34.85582733"><ele>484.0</ele><time>2013-11-23T11:39:39.0000000+00:00</time></trkpt><trkpt lat="30.61101532" lon="34.85595703"><ele>484.1</ele><time>2013-11-23T11:39:44.0000000+00:00</time></trkpt><trkpt lat="30.6110096" lon="34.85610199"><ele>484.1</ele><time>2013-11-23T11:39:49.0000000+00:00</time></trkpt><trkpt lat="30.61100578" lon="34.85625076"><ele>484.3</ele><time>2013-11-23T11:39:54.0000000+00:00</time></trkpt><trkpt lat="30.6109829" lon="34.85638428"><ele>484.4</ele><time>2013-11-23T11:39:59.0000000+00:00</time></trkpt><trkpt lat="30.61096764" lon="34.8564949"><ele>484.5</ele><time>2013-11-23T11:40:04.0000000+00:00</time></trkpt><trkpt lat="30.61097145" lon="34.85663223"><ele>484.1</ele><time>2013-11-23T11:40:09.0000000+00:00</time></trkpt><trkpt lat="30.61098099" lon="34.85678101"><ele>484.3</ele><time>2013-11-23T11:40:14.0000000+00:00</time></trkpt><trkpt lat="30.61102867" lon="34.85691834"><ele>484.3</ele><time>2013-11-23T11:40:19.0000000+00:00</time></trkpt><trkpt lat="30.61109161" lon="34.8570137"><ele>483.8</ele><time>2013-11-23T11:40:24.0000000+00:00</time></trkpt><trkpt lat="30.61115837" lon="34.85708237"><ele>483.3</ele><time>2013-11-23T11:40:29.0000000+00:00</time></trkpt><trkpt lat="30.61120796" lon="34.85717392"><ele>483.5</ele><time>2013-11-23T11:40:34.0000000+00:00</time></trkpt><trkpt lat="30.61125755" lon="34.85719681"><ele>483.3</ele><time>2013-11-23T11:40:39.0000000+00:00</time></trkpt><trkpt lat="30.61136437" lon="34.85718918"><ele>482.7</ele><time>2013-11-23T11:40:44.0000000+00:00</time></trkpt><trkpt lat="30.61145592" lon="34.85722351"><ele>482.1</ele><time>2013-11-23T11:40:49.0000000+00:00</time></trkpt><trkpt lat="30.61152077" lon="34.85726547"><ele>481.9</ele><time>2013-11-23T11:40:54.0000000+00:00</time></trkpt><trkpt lat="30.61158371" lon="34.85731888"><ele>482.0</ele><time>2013-11-23T11:40:59.0000000+00:00</time></trkpt><trkpt lat="30.61164093" lon="34.85737228"><ele>481.7</ele><time>2013-11-23T11:41:04.0000000+00:00</time></trkpt><trkpt lat="30.61171913" lon="34.8574295"><ele>481.3</ele><time>2013-11-23T11:41:09.0000000+00:00</time></trkpt><trkpt lat="30.6117897" lon="34.85747147"><ele>481.3</ele><time>2013-11-23T11:41:14.0000000+00:00</time></trkpt><trkpt lat="30.61186791" lon="34.85752106"><ele>481.1</ele><time>2013-11-23T11:41:19.0000000+00:00</time></trkpt><trkpt lat="30.61197281" lon="34.85757828"><ele>480.7</ele><time>2013-11-23T11:41:24.0000000+00:00</time></trkpt><trkpt lat="30.61206436" lon="34.85762405"><ele>480.4</ele><time>2013-11-23T11:41:29.0000000+00:00</time></trkpt><trkpt lat="30.61211586" lon="34.85765839"><ele>480.6</ele><time>2013-11-23T11:41:34.0000000+00:00</time></trkpt><trkpt lat="30.61219788" lon="34.85770416"><ele>480.9</ele><time>2013-11-23T11:41:39.0000000+00:00</time></trkpt><trkpt lat="30.61228752" lon="34.8577385"><ele>480.8</ele><time>2013-11-23T11:41:44.0000000+00:00</time></trkpt><trkpt lat="30.61237335" lon="34.85778427"><ele>480.8</ele><time>2013-11-23T11:41:49.0000000+00:00</time></trkpt><trkpt lat="30.61246491" lon="34.85781479"><ele>480.8</ele><time>2013-11-23T11:41:54.0000000+00:00</time></trkpt><trkpt lat="30.61252785" lon="34.85780716"><ele>480.5</ele><time>2013-11-23T11:41:59.0000000+00:00</time></trkpt><trkpt lat="30.61258507" lon="34.85779572"><ele>480.2</ele><time>2013-11-23T11:42:04.0000000+00:00</time></trkpt><trkpt lat="30.61264038" lon="34.85775757"><ele>480.7</ele><time>2013-11-23T11:42:09.0000000+00:00</time></trkpt><trkpt lat="30.6126976" lon="34.85762787"><ele>480.9</ele><time>2013-11-23T11:42:14.0000000+00:00</time></trkpt><trkpt lat="30.61267471" lon="34.85749054"><ele>482.7</ele><time>2013-11-23T11:42:19.0000000+00:00</time></trkpt><trkpt lat="30.61263466" lon="34.85739136"><ele>483.6</ele><time>2013-11-23T11:42:24.0000000+00:00</time></trkpt><trkpt lat="30.61265183" lon="34.85725403"><ele>483.3</ele><time>2013-11-23T11:42:29.0000000+00:00</time></trkpt><trkpt lat="30.61267471" lon="34.8571167"><ele>482.8</ele><time>2013-11-23T11:42:34.0000000+00:00</time></trkpt><trkpt lat="30.61268616" lon="34.856987"><ele>482.1</ele><time>2013-11-23T11:42:39.0000000+00:00</time></trkpt><trkpt lat="30.61268616" lon="34.85686874"><ele>481.9</ele><time>2013-11-23T11:42:44.0000000+00:00</time></trkpt><trkpt lat="30.61270332" lon="34.85671997"><ele>481.6</ele><time>2013-11-23T11:42:49.0000000+00:00</time></trkpt><trkpt lat="30.61273003" lon="34.85660934"><ele>481.8</ele><time>2013-11-23T11:42:54.0000000+00:00</time></trkpt><trkpt lat="30.61278153" lon="34.85648727"><ele>481.8</ele><time>2013-11-23T11:42:59.0000000+00:00</time></trkpt><trkpt lat="30.6128521" lon="34.85635757"><ele>482.1</ele><time>2013-11-23T11:43:04.0000000+00:00</time></trkpt><trkpt lat="30.61291504" lon="34.85624695"><ele>482.5</ele><time>2013-11-23T11:43:09.0000000+00:00</time></trkpt><trkpt lat="30.61295509" lon="34.85610199"><ele>482.9</ele><time>2013-11-23T11:43:14.0000000+00:00</time></trkpt><trkpt lat="30.61302567" lon="34.85597229"><ele>483.5</ele><time>2013-11-23T11:43:19.0000000+00:00</time></trkpt><trkpt lat="30.61307716" lon="34.85587692"><ele>484.3</ele><time>2013-11-23T11:43:24.0000000+00:00</time></trkpt><trkpt lat="30.61310577" lon="34.85581207"><ele>485.2</ele><time>2013-11-23T11:43:29.0000000+00:00</time></trkpt><trkpt lat="30.61314201" lon="34.85573578"><ele>486.4</ele><time>2013-11-23T11:43:34.0000000+00:00</time></trkpt><trkpt lat="30.61318016" lon="34.85567856"><ele>487.7</ele><time>2013-11-23T11:43:39.0000000+00:00</time></trkpt><trkpt lat="30.6132164" lon="34.85562897"><ele>489.2</ele><time>2013-11-23T11:43:44.0000000+00:00</time></trkpt><trkpt lat="30.61324501" lon="34.85558319"><ele>490.4</ele><time>2013-11-23T11:43:49.0000000+00:00</time></trkpt><trkpt lat="30.61327744" lon="34.85552979"><ele>491.4</ele><time>2013-11-23T11:43:54.0000000+00:00</time></trkpt><trkpt lat="30.61331368" lon="34.85548019"><ele>491.9</ele><time>2013-11-23T11:43:59.0000000+00:00</time></trkpt><trkpt lat="30.61335182" lon="34.8554306"><ele>492.6</ele><time>2013-11-23T11:44:04.0000000+00:00</time></trkpt><trkpt lat="30.61338997" lon="34.85538483"><ele>492.9</ele><time>2013-11-23T11:44:09.0000000+00:00</time></trkpt><trkpt lat="30.61343384" lon="34.85534668"><ele>493.4</ele><time>2013-11-23T11:44:14.0000000+00:00</time></trkpt><trkpt lat="30.61347008" lon="34.85530472"><ele>493.5</ele><time>2013-11-23T11:44:19.0000000+00:00</time></trkpt><trkpt lat="30.6135006" lon="34.85526276"><ele>494.1</ele><time>2013-11-23T11:44:24.0000000+00:00</time></trkpt><trkpt lat="30.61354256" lon="34.85524368"><ele>494.8</ele><time>2013-11-23T11:44:29.0000000+00:00</time></trkpt><trkpt lat="30.61356735" lon="34.85522461"><ele>496.2</ele><time>2013-11-23T11:44:34.0000000+00:00</time></trkpt><trkpt lat="30.61361885" lon="34.85523987"><ele>497.1</ele><time>2013-11-23T11:44:39.0000000+00:00</time></trkpt><trkpt lat="30.61366081" lon="34.85521698"><ele>497.2</ele><time>2013-11-23T11:44:44.0000000+00:00</time></trkpt><trkpt lat="30.61366844" lon="34.85519028"><ele>496.6</ele><time>2013-11-23T11:44:49.0000000+00:00</time></trkpt><trkpt lat="30.61367226" lon="34.85518646"><ele>496.6</ele><time>2013-11-23T11:44:54.0000000+00:00</time></trkpt><trkpt lat="30.61367226" lon="34.85518646"><ele>496.4</ele><time>2013-11-23T11:44:59.0000000+00:00</time></trkpt><trkpt lat="30.61367226" lon="34.85518265"><ele>496.3</ele><time>2013-11-23T11:45:04.0000000+00:00</time></trkpt><trkpt lat="30.61367226" lon="34.85518265"><ele>496.3</ele><time>2013-11-23T11:45:09.0000000+00:00</time></trkpt><trkpt lat="30.61367226" lon="34.85518265"><ele>496.3</ele><time>2013-11-23T11:45:14.0000000+00:00</time></trkpt><trkpt lat="30.61367035" lon="34.85518265"><ele>496.2</ele><time>2013-11-23T11:45:19.0000000+00:00</time></trkpt><trkpt lat="30.61367035" lon="34.85518265"><ele>496.2</ele><time>2013-11-23T11:45:24.0000000+00:00</time></trkpt><trkpt lat="30.61367035" lon="34.85518265"><ele>496.2</ele><time>2013-11-23T11:45:29.0000000+00:00</time></trkpt><trkpt lat="30.61367035" lon="34.85518265"><ele>496.1</ele><time>2013-11-23T11:45:34.0000000+00:00</time></trkpt><trkpt lat="30.61367035" lon="34.85518265"><ele>496.1</ele><time>2013-11-23T11:45:39.0000000+00:00</time></trkpt><trkpt lat="30.61367035" lon="34.85518265"><ele>496.1</ele><time>2013-11-23T11:45:44.0000000+00:00</time></trkpt><trkpt lat="30.61367035" lon="34.85518265"><ele>496.1</ele><time>2013-11-23T11:45:49.0000000+00:00</time></trkpt><trkpt lat="30.61367798" lon="34.85517883"><ele>496.2</ele><time>2013-11-23T11:45:54.0000000+00:00</time></trkpt><trkpt lat="30.61367989" lon="34.85517883"><ele>496.2</ele><time>2013-11-23T11:45:59.0000000+00:00</time></trkpt><trkpt lat="30.61367989" lon="34.85517883"><ele>496.2</ele><time>2013-11-23T11:46:04.0000000+00:00</time></trkpt><trkpt lat="30.61367989" lon="34.85517883"><ele>496.2</ele><time>2013-11-23T11:46:09.0000000+00:00</time></trkpt><trkpt lat="30.61367989" lon="34.85517883"><ele>496.2</ele><time>2013-11-23T11:46:14.0000000+00:00</time></trkpt><trkpt lat="30.61367989" lon="34.85517883"><ele>496.2</ele><time>2013-11-23T11:46:19.0000000+00:00</time></trkpt><trkpt lat="30.61367989" lon="34.85517883"><ele>496.2</ele><time>2013-11-23T11:46:24.0000000+00:00</time></trkpt><trkpt lat="30.61367989" lon="34.85517883"><ele>496.2</ele><time>2013-11-23T11:46:29.0000000+00:00</time></trkpt><trkpt lat="30.61367989" lon="34.85517883"><ele>496.2</ele><time>2013-11-23T11:46:34.0000000+00:00</time></trkpt><trkpt lat="30.61368179" lon="34.85516739"><ele>496.6</ele><time>2013-11-23T11:46:39.0000000+00:00</time></trkpt><trkpt lat="30.61368179" lon="34.85516739"><ele>496.7</ele><time>2013-11-23T11:46:44.0000000+00:00</time></trkpt><trkpt lat="30.61368179" lon="34.85516739"><ele>496.7</ele><time>2013-11-23T11:46:49.0000000+00:00</time></trkpt><trkpt lat="30.61368179" lon="34.85516739"><ele>496.7</ele><time>2013-11-23T11:46:54.0000000+00:00</time></trkpt><trkpt lat="30.61368752" lon="34.8551712"><ele>496.6</ele><time>2013-11-23T11:46:59.0000000+00:00</time></trkpt><trkpt lat="30.61369324" lon="34.85517502"><ele>496.3</ele><time>2013-11-23T11:47:04.0000000+00:00</time></trkpt><trkpt lat="30.61369324" lon="34.85517502"><ele>496.2</ele><time>2013-11-23T11:47:09.0000000+00:00</time></trkpt><trkpt lat="30.61369324" lon="34.85517502"><ele>496.2</ele><time>2013-11-23T11:47:14.0000000+00:00</time></trkpt><trkpt lat="30.61369133" lon="34.85517502"><ele>496.2</ele><time>2013-11-23T11:47:19.0000000+00:00</time></trkpt><trkpt lat="30.61369324" lon="34.8551712"><ele>496.2</ele><time>2013-11-23T11:47:24.0000000+00:00</time></trkpt><trkpt lat="30.61369324" lon="34.8551712"><ele>496.2</ele><time>2013-11-23T11:47:29.0000000+00:00</time></trkpt><trkpt lat="30.61369133" lon="34.8551712"><ele>496.1</ele><time>2013-11-23T11:47:34.0000000+00:00</time></trkpt><trkpt lat="30.61369133" lon="34.8551712"><ele>496.1</ele><time>2013-11-23T11:47:39.0000000+00:00</time></trkpt><trkpt lat="30.61369133" lon="34.8551712"><ele>496.1</ele><time>2013-11-23T11:47:44.0000000+00:00</time></trkpt><trkpt lat="30.61369133" lon="34.8551712"><ele>496.1</ele><time>2013-11-23T11:47:49.0000000+00:00</time></trkpt><trkpt lat="30.61369324" lon="34.8551712"><ele>496.1</ele><time>2013-11-23T11:47:54.0000000+00:00</time></trkpt><trkpt lat="30.61369324" lon="34.8551712"><ele>496.1</ele><time>2013-11-23T11:47:59.0000000+00:00</time></trkpt><trkpt lat="30.61369324" lon="34.8551712"><ele>496.1</ele><time>2013-11-23T11:48:04.0000000+00:00</time></trkpt><trkpt lat="30.61369324" lon="34.8551712"><ele>496.1</ele><time>2013-11-23T11:48:09.0000000+00:00</time></trkpt><trkpt lat="30.61369324" lon="34.8551712"><ele>496.1</ele><time>2013-11-23T11:48:14.0000000+00:00</time></trkpt><trkpt lat="30.61369324" lon="34.8551712"><ele>496.1</ele><time>2013-11-23T11:48:19.0000000+00:00</time></trkpt><trkpt lat="30.61369324" lon="34.8551712"><ele>496.1</ele><time>2013-11-23T11:48:24.0000000+00:00</time></trkpt><trkpt lat="30.61369324" lon="34.8551712"><ele>496.1</ele><time>2013-11-23T11:48:29.0000000+00:00</time></trkpt><trkpt lat="30.61369324" lon="34.8551712"><ele>496.1</ele><time>2013-11-23T11:48:34.0000000+00:00</time></trkpt><trkpt lat="30.61369324" lon="34.8551712"><ele>496.1</ele><time>2013-11-23T11:48:39.0000000+00:00</time></trkpt><trkpt lat="30.61369324" lon="34.8551712"><ele>496.2</ele><time>2013-11-23T11:48:44.0000000+00:00</time></trkpt><trkpt lat="30.61369324" lon="34.8551712"><ele>496.2</ele><time>2013-11-23T11:48:49.0000000+00:00</time></trkpt><trkpt lat="30.61369324" lon="34.8551712"><ele>496.2</ele><time>2013-11-23T11:48:54.0000000+00:00</time></trkpt><trkpt lat="30.61369324" lon="34.8551712"><ele>496.2</ele><time>2013-11-23T11:48:59.0000000+00:00</time></trkpt><trkpt lat="30.61369324" lon="34.8551712"><ele>496.2</ele><time>2013-11-23T11:49:04.0000000+00:00</time></trkpt><trkpt lat="30.61369324" lon="34.8551712"><ele>496.2</ele><time>2013-11-23T11:49:09.0000000+00:00</time></trkpt><trkpt lat="30.61369515" lon="34.85517502"><ele>496.2</ele><time>2013-11-23T11:49:14.0000000+00:00</time></trkpt><trkpt lat="30.61369515" lon="34.85517502"><ele>496.2</ele><time>2013-11-23T11:49:19.0000000+00:00</time></trkpt><trkpt lat="30.61369515" lon="34.85517502"><ele>496.2</ele><time>2013-11-23T11:49:24.0000000+00:00</time></trkpt><trkpt lat="30.61369515" lon="34.85517502"><ele>496.2</ele><time>2013-11-23T11:49:29.0000000+00:00</time></trkpt><trkpt lat="30.61369515" lon="34.85517502"><ele>496.2</ele><time>2013-11-23T11:49:34.0000000+00:00</time></trkpt><trkpt lat="30.61369515" lon="34.85517502"><ele>496.2</ele><time>2013-11-23T11:49:39.0000000+00:00</time></trkpt><trkpt lat="30.61369705" lon="34.85517883"><ele>497.7</ele><time>2013-11-23T11:49:44.0000000+00:00</time></trkpt><trkpt lat="30.6137085" lon="34.85518265"><ele>498.1</ele><time>2013-11-23T11:49:49.0000000+00:00</time></trkpt><trkpt lat="30.61370468" lon="34.85518265"><ele>498.9</ele><time>2013-11-23T11:49:54.0000000+00:00</time></trkpt><trkpt lat="30.61370468" lon="34.85518265"><ele>499.4</ele><time>2013-11-23T11:49:59.0000000+00:00</time></trkpt><trkpt lat="30.61370277" lon="34.85518265"><ele>499.3</ele><time>2013-11-23T11:50:04.0000000+00:00</time></trkpt><trkpt lat="30.61370277" lon="34.85518646"><ele>499.4</ele><time>2013-11-23T11:50:09.0000000+00:00</time></trkpt><trkpt lat="30.61370277" lon="34.85518646"><ele>499.4</ele><time>2013-11-23T11:50:14.0000000+00:00</time></trkpt><trkpt lat="30.61370277" lon="34.85518646"><ele>499.4</ele><time>2013-11-23T11:50:19.0000000+00:00</time></trkpt><trkpt lat="30.61370277" lon="34.85518646"><ele>499.4</ele><time>2013-11-23T11:50:24.0000000+00:00</time></trkpt><trkpt lat="30.61370087" lon="34.85515976"><ele>499.4</ele><time>2013-11-23T11:50:29.0000000+00:00</time></trkpt><trkpt lat="30.61372185" lon="34.85510635"><ele>499.8</ele><time>2013-11-23T11:50:34.0000000+00:00</time></trkpt><trkpt lat="30.61377525" lon="34.85503388"><ele>500.0</ele><time>2013-11-23T11:50:39.0000000+00:00</time></trkpt><trkpt lat="30.61384964" lon="34.8549118"><ele>500.5</ele><time>2013-11-23T11:50:44.0000000+00:00</time></trkpt><trkpt lat="30.61388969" lon="34.85484314"><ele>500.8</ele><time>2013-11-23T11:50:49.0000000+00:00</time></trkpt><trkpt lat="30.61393929" lon="34.85474777"><ele>501.1</ele><time>2013-11-23T11:50:54.0000000+00:00</time></trkpt><trkpt lat="30.61398888" lon="34.85464478"><ele>501.6</ele><time>2013-11-23T11:50:59.0000000+00:00</time></trkpt><trkpt lat="30.61403847" lon="34.85454559"><ele>502.1</ele><time>2013-11-23T11:51:04.0000000+00:00</time></trkpt><trkpt lat="30.61408997" lon="34.85441971"><ele>502.3</ele><time>2013-11-23T11:51:09.0000000+00:00</time></trkpt><trkpt lat="30.61411667" lon="34.85433579"><ele>502.3</ele><time>2013-11-23T11:51:14.0000000+00:00</time></trkpt><trkpt lat="30.61414146" lon="34.85427856"><ele>502.5</ele><time>2013-11-23T11:51:19.0000000+00:00</time></trkpt><trkpt lat="30.61418724" lon="34.85416031"><ele>503.1</ele><time>2013-11-23T11:51:24.0000000+00:00</time></trkpt><trkpt lat="30.6142273" lon="34.8540535"><ele>503.8</ele><time>2013-11-23T11:51:29.0000000+00:00</time></trkpt><trkpt lat="30.61427307" lon="34.85391235"><ele>504.3</ele><time>2013-11-23T11:51:34.0000000+00:00</time></trkpt><trkpt lat="30.61431885" lon="34.85377884"><ele>504.9</ele><time>2013-11-23T11:51:39.0000000+00:00</time></trkpt><trkpt lat="30.61436081" lon="34.8536377"><ele>505.6</ele><time>2013-11-23T11:51:44.0000000+00:00</time></trkpt><trkpt lat="30.61440849" lon="34.85347366"><ele>505.9</ele><time>2013-11-23T11:51:49.0000000+00:00</time></trkpt><trkpt lat="30.61445808" lon="34.853302"><ele>506.3</ele><time>2013-11-23T11:51:54.0000000+00:00</time></trkpt><trkpt lat="30.61450577" lon="34.85311508"><ele>506.7</ele><time>2013-11-23T11:51:59.0000000+00:00</time></trkpt><trkpt lat="30.61455154" lon="34.85293961"><ele>507.0</ele><time>2013-11-23T11:52:04.0000000+00:00</time></trkpt><trkpt lat="30.61460114" lon="34.85275269"><ele>507.4</ele><time>2013-11-23T11:52:09.0000000+00:00</time></trkpt><trkpt lat="30.61464691" lon="34.85256577"><ele>507.3</ele><time>2013-11-23T11:52:14.0000000+00:00</time></trkpt><trkpt lat="30.61467934" lon="34.85241318"><ele>507.3</ele><time>2013-11-23T11:52:19.0000000+00:00</time></trkpt><trkpt lat="30.61472321" lon="34.85221481"><ele>507.3</ele><time>2013-11-23T11:52:24.0000000+00:00</time></trkpt><trkpt lat="30.61475754" lon="34.85204315"><ele>507.7</ele><time>2013-11-23T11:52:29.0000000+00:00</time></trkpt><trkpt lat="30.61479187" lon="34.85186768"><ele>507.7</ele><time>2013-11-23T11:52:34.0000000+00:00</time></trkpt><trkpt lat="30.61482811" lon="34.85167313"><ele>508.1</ele><time>2013-11-23T11:52:39.0000000+00:00</time></trkpt><trkpt lat="30.61487579" lon="34.85148239"><ele>508.8</ele><time>2013-11-23T11:52:44.0000000+00:00</time></trkpt><trkpt lat="30.6149292" lon="34.85129547"><ele>509.2</ele><time>2013-11-23T11:52:49.0000000+00:00</time></trkpt><trkpt lat="30.61499023" lon="34.85112381"><ele>509.3</ele><time>2013-11-23T11:52:54.0000000+00:00</time></trkpt><trkpt lat="30.61505699" lon="34.85092926"><ele>509.5</ele><time>2013-11-23T11:52:59.0000000+00:00</time></trkpt><trkpt lat="30.61513519" lon="34.8507576"><ele>508.9</ele><time>2013-11-23T11:53:04.0000000+00:00</time></trkpt><trkpt lat="30.61519623" lon="34.85063171"><ele>508.8</ele><time>2013-11-23T11:53:09.0000000+00:00</time></trkpt><trkpt lat="30.61526871" lon="34.85050964"><ele>508.8</ele><time>2013-11-23T11:53:14.0000000+00:00</time></trkpt><trkpt lat="30.61536026" lon="34.85036087"><ele>509.4</ele><time>2013-11-23T11:53:19.0000000+00:00</time></trkpt><trkpt lat="30.61545944" lon="34.85021591"><ele>509.6</ele><time>2013-11-23T11:53:24.0000000+00:00</time></trkpt><trkpt lat="30.61556816" lon="34.85005951"><ele>509.9</ele><time>2013-11-23T11:53:29.0000000+00:00</time></trkpt><trkpt lat="30.61565208" lon="34.84994507"><ele>510.1</ele><time>2013-11-23T11:53:34.0000000+00:00</time></trkpt><trkpt lat="30.61575508" lon="34.849823"><ele>510.4</ele><time>2013-11-23T11:53:39.0000000+00:00</time></trkpt><trkpt lat="30.61585236" lon="34.84969711"><ele>511.0</ele><time>2013-11-23T11:53:44.0000000+00:00</time></trkpt><trkpt lat="30.61597061" lon="34.84955597"><ele>511.3</ele><time>2013-11-23T11:53:49.0000000+00:00</time></trkpt><trkpt lat="30.61609078" lon="34.84940338"><ele>511.8</ele><time>2013-11-23T11:53:54.0000000+00:00</time></trkpt><trkpt lat="30.61619186" lon="34.84928894"><ele>511.8</ele><time>2013-11-23T11:53:59.0000000+00:00</time></trkpt><trkpt lat="30.61630058" lon="34.84916306"><ele>512.1</ele><time>2013-11-23T11:54:04.0000000+00:00</time></trkpt><trkpt lat="30.61642647" lon="34.84900665"><ele>512.9</ele><time>2013-11-23T11:54:09.0000000+00:00</time></trkpt><trkpt lat="30.616539" lon="34.84885407"><ele>513.5</ele><time>2013-11-23T11:54:14.0000000+00:00</time></trkpt><trkpt lat="30.61664772" lon="34.84872437"><ele>513.4</ele><time>2013-11-23T11:54:19.0000000+00:00</time></trkpt><trkpt lat="30.61676216" lon="34.84859085"><ele>514.1</ele><time>2013-11-23T11:54:24.0000000+00:00</time></trkpt><trkpt lat="30.61685944" lon="34.84846497"><ele>514.3</ele><time>2013-11-23T11:54:29.0000000+00:00</time></trkpt><trkpt lat="30.6169281" lon="34.84838867"><ele>514.1</ele><time>2013-11-23T11:54:34.0000000+00:00</time></trkpt><trkpt lat="30.61698532" lon="34.84830856"><ele>514.1</ele><time>2013-11-23T11:54:39.0000000+00:00</time></trkpt><trkpt lat="30.61701584" lon="34.84819031"><ele>514.7</ele><time>2013-11-23T11:54:44.0000000+00:00</time></trkpt><trkpt lat="30.61705399" lon="34.84803391"><ele>515.1</ele><time>2013-11-23T11:54:49.0000000+00:00</time></trkpt><trkpt lat="30.6170063" lon="34.84791184"><ele>515.5</ele><time>2013-11-23T11:54:54.0000000+00:00</time></trkpt><trkpt lat="30.61696625" lon="34.84774017"><ele>515.7</ele><time>2013-11-23T11:54:59.0000000+00:00</time></trkpt><trkpt lat="30.61694717" lon="34.84762573"><ele>516.0</ele><time>2013-11-23T11:55:04.0000000+00:00</time></trkpt><trkpt lat="30.6169529" lon="34.84754944"><ele>516.0</ele><time>2013-11-23T11:55:09.0000000+00:00</time></trkpt><trkpt lat="30.61695862" lon="34.84748077"><ele>516.0</ele><time>2013-11-23T11:55:14.0000000+00:00</time></trkpt><trkpt lat="30.61693573" lon="34.84741592"><ele>516.5</ele><time>2013-11-23T11:55:19.0000000+00:00</time></trkpt><trkpt lat="30.61693192" lon="34.847332"><ele>516.5</ele><time>2013-11-23T11:55:24.0000000+00:00</time></trkpt><trkpt lat="30.61693001" lon="34.84721756"><ele>515.8</ele><time>2013-11-23T11:55:29.0000000+00:00</time></trkpt><trkpt lat="30.61693764" lon="34.84720612"><ele>515.8</ele><time>2013-11-23T11:55:34.0000000+00:00</time></trkpt><trkpt lat="30.61693764" lon="34.84720612"><ele>515.8</ele><time>2013-11-23T11:55:39.0000000+00:00</time></trkpt><trkpt lat="30.61693764" lon="34.84720612"><ele>515.8</ele><time>2013-11-23T11:55:44.0000000+00:00</time></trkpt><trkpt lat="30.61694717" lon="34.84712982"><ele>514.4</ele><time>2013-11-23T11:55:49.0000000+00:00</time></trkpt><trkpt lat="30.61699867" lon="34.84693909"><ele>509.7</ele><time>2013-11-23T11:55:54.0000000+00:00</time></trkpt><trkpt lat="30.6171093" lon="34.8467865"><ele>506.0</ele><time>2013-11-23T11:55:59.0000000+00:00</time></trkpt><trkpt lat="30.61720848" lon="34.84684372"><ele>506.6</ele><time>2013-11-23T11:56:04.0000000+00:00</time></trkpt><trkpt lat="30.61719894" lon="34.84690476"><ele>508.0</ele><time>2013-11-23T11:56:09.0000000+00:00</time></trkpt><trkpt lat="30.61719704" lon="34.84690857"><ele>508.2</ele><time>2013-11-23T11:56:14.0000000+00:00</time></trkpt><trkpt lat="30.61719704" lon="34.84690857"><ele>508.2</ele><time>2013-11-23T11:56:19.0000000+00:00</time></trkpt><trkpt lat="30.61719704" lon="34.84690857"><ele>508.2</ele><time>2013-11-23T11:56:24.0000000+00:00</time></trkpt><trkpt lat="30.61719513" lon="34.84690857"><ele>508.2</ele><time>2013-11-23T11:56:29.0000000+00:00</time></trkpt><trkpt lat="30.61719513" lon="34.84690857"><ele>508.2</ele><time>2013-11-23T11:56:34.0000000+00:00</time></trkpt><trkpt lat="30.61719513" lon="34.84690857"><ele>508.2</ele><time>2013-11-23T11:56:39.0000000+00:00</time></trkpt><trkpt lat="30.61719322" lon="34.84690857"><ele>508.3</ele><time>2013-11-23T11:56:44.0000000+00:00</time></trkpt><trkpt lat="30.61719322" lon="34.84690857"><ele>508.3</ele><time>2013-11-23T11:56:49.0000000+00:00</time></trkpt><trkpt lat="30.61719322" lon="34.84690857"><ele>508.3</ele><time>2013-11-23T11:56:54.0000000+00:00</time></trkpt><trkpt lat="30.61719322" lon="34.84690857"><ele>508.3</ele><time>2013-11-23T11:56:59.0000000+00:00</time></trkpt><trkpt lat="30.61719322" lon="34.84690857"><ele>508.3</ele><time>2013-11-23T11:57:04.0000000+00:00</time></trkpt><trkpt lat="30.61719322" lon="34.84690857"><ele>508.4</ele><time>2013-11-23T11:57:09.0000000+00:00</time></trkpt><trkpt lat="30.61719322" lon="34.84690857"><ele>508.4</ele><time>2013-11-23T11:57:14.0000000+00:00</time></trkpt><trkpt lat="30.61719322" lon="34.84690857"><ele>508.4</ele><time>2013-11-23T11:57:19.0000000+00:00</time></trkpt><trkpt lat="30.61719322" lon="34.84690857"><ele>508.4</ele><time>2013-11-23T11:57:24.0000000+00:00</time></trkpt><trkpt lat="30.61719132" lon="34.84690857"><ele>508.4</ele><time>2013-11-23T11:57:29.0000000+00:00</time></trkpt><trkpt lat="30.61719132" lon="34.84690857"><ele>508.4</ele><time>2013-11-23T11:57:34.0000000+00:00</time></trkpt><trkpt lat="30.61719132" lon="34.84690857"><ele>508.4</ele><time>2013-11-23T11:57:39.0000000+00:00</time></trkpt><trkpt lat="30.61719132" lon="34.84690857"><ele>508.5</ele><time>2013-11-23T11:57:44.0000000+00:00</time></trkpt><trkpt lat="30.61719132" lon="34.84690857"><ele>508.5</ele><time>2013-11-23T11:57:49.0000000+00:00</time></trkpt><trkpt lat="30.61719132" lon="34.84690857"><ele>508.5</ele><time>2013-11-23T11:57:54.0000000+00:00</time></trkpt><trkpt lat="30.61719132" lon="34.84690857"><ele>508.5</ele><time>2013-11-23T11:57:59.0000000+00:00</time></trkpt><trkpt lat="30.61719132" lon="34.84690857"><ele>508.5</ele><time>2013-11-23T11:58:04.0000000+00:00</time></trkpt><trkpt lat="30.61718941" lon="34.84690857"><ele>508.5</ele><time>2013-11-23T11:58:09.0000000+00:00</time></trkpt><trkpt lat="30.61718941" lon="34.84690857"><ele>508.5</ele><time>2013-11-23T11:58:14.0000000+00:00</time></trkpt><trkpt lat="30.61718941" lon="34.84690857"><ele>508.5</ele><time>2013-11-23T11:58:19.0000000+00:00</time></trkpt><trkpt lat="30.61718941" lon="34.84690857"><ele>508.5</ele><time>2013-11-23T11:58:24.0000000+00:00</time></trkpt><trkpt lat="30.61718941" lon="34.84690857"><ele>508.5</ele><time>2013-11-23T11:58:29.0000000+00:00</time></trkpt><trkpt lat="30.61718941" lon="34.84690857"><ele>508.5</ele><time>2013-11-23T11:58:34.0000000+00:00</time></trkpt><trkpt lat="30.61718941" lon="34.84690857"><ele>508.5</ele><time>2013-11-23T11:58:39.0000000+00:00</time></trkpt><trkpt lat="30.6171875" lon="34.84690857"><ele>508.5</ele><time>2013-11-23T11:58:44.0000000+00:00</time></trkpt><trkpt lat="30.6171875" lon="34.84690476"><ele>508.5</ele><time>2013-11-23T11:58:49.0000000+00:00</time></trkpt><trkpt lat="30.6171875" lon="34.84690476"><ele>508.5</ele><time>2013-11-23T11:58:54.0000000+00:00</time></trkpt><trkpt lat="30.6171875" lon="34.84690476"><ele>508.5</ele><time>2013-11-23T11:58:59.0000000+00:00</time></trkpt><trkpt lat="30.6171875" lon="34.84690476"><ele>508.5</ele><time>2013-11-23T11:59:04.0000000+00:00</time></trkpt><trkpt lat="30.6171875" lon="34.84690476"><ele>508.5</ele><time>2013-11-23T11:59:09.0000000+00:00</time></trkpt><trkpt lat="30.6171875" lon="34.84690476"><ele>508.5</ele><time>2013-11-23T11:59:14.0000000+00:00</time></trkpt><trkpt lat="30.6171875" lon="34.84690476"><ele>508.6</ele><time>2013-11-23T11:59:19.0000000+00:00</time></trkpt><trkpt lat="30.6171875" lon="34.84690476"><ele>508.6</ele><time>2013-11-23T11:59:24.0000000+00:00</time></trkpt><trkpt lat="30.6171875" lon="34.84690476"><ele>508.6</ele><time>2013-11-23T11:59:29.0000000+00:00</time></trkpt><trkpt lat="30.6171875" lon="34.84690476"><ele>508.6</ele><time>2013-11-23T11:59:34.0000000+00:00</time></trkpt><trkpt lat="30.6171875" lon="34.84690476"><ele>508.6</ele><time>2013-11-23T11:59:39.0000000+00:00</time></trkpt><trkpt lat="30.6171875" lon="34.84690476"><ele>508.6</ele><time>2013-11-23T11:59:44.0000000+00:00</time></trkpt><trkpt lat="30.6171875" lon="34.84690476"><ele>508.6</ele><time>2013-11-23T11:59:49.0000000+00:00</time></trkpt><trkpt lat="30.6171875" lon="34.84690857"><ele>508.6</ele><time>2013-11-23T11:59:54.0000000+00:00</time></trkpt><trkpt lat="30.6171875" lon="34.84690857"><ele>508.6</ele><time>2013-11-23T11:59:59.0000000+00:00</time></trkpt><trkpt lat="30.6171875" lon="34.84690857"><ele>508.6</ele><time>2013-11-23T12:00:04.0000000+00:00</time></trkpt><trkpt lat="30.6171875" lon="34.84690857"><ele>508.6</ele><time>2013-11-23T12:00:09.0000000+00:00</time></trkpt><trkpt lat="30.6171875" lon="34.84690857"><ele>508.5</ele><time>2013-11-23T12:00:14.0000000+00:00</time></trkpt><trkpt lat="30.6171875" lon="34.84690857"><ele>508.5</ele><time>2013-11-23T12:00:19.0000000+00:00</time></trkpt><trkpt lat="30.6171875" lon="34.84690857"><ele>508.5</ele><time>2013-11-23T12:00:24.0000000+00:00</time></trkpt><trkpt lat="30.6171875" lon="34.84690857"><ele>508.5</ele><time>2013-11-23T12:00:29.0000000+00:00</time></trkpt><trkpt lat="30.6171875" lon="34.84690857"><ele>508.5</ele><time>2013-11-23T12:00:34.0000000+00:00</time></trkpt><trkpt lat="30.6171875" lon="34.84690857"><ele>508.5</ele><time>2013-11-23T12:00:39.0000000+00:00</time></trkpt><trkpt lat="30.6171875" lon="34.84690857"><ele>508.5</ele><time>2013-11-23T12:00:44.0000000+00:00</time></trkpt><trkpt lat="30.6171875" lon="34.84690857"><ele>508.5</ele><time>2013-11-23T12:00:49.0000000+00:00</time></trkpt><trkpt lat="30.6171875" lon="34.84690857"><ele>508.5</ele><time>2013-11-23T12:00:54.0000000+00:00</time></trkpt><trkpt lat="30.6171875" lon="34.84690857"><ele>508.5</ele><time>2013-11-23T12:00:59.0000000+00:00</time></trkpt><trkpt lat="30.6171875" lon="34.84690857"><ele>508.5</ele><time>2013-11-23T12:01:04.0000000+00:00</time></trkpt><trkpt lat="30.61718559" lon="34.84690857"><ele>508.4</ele><time>2013-11-23T12:01:09.0000000+00:00</time></trkpt><trkpt lat="30.61718559" lon="34.84690857"><ele>508.4</ele><time>2013-11-23T12:01:14.0000000+00:00</time></trkpt><trkpt lat="30.61718559" lon="34.84690857"><ele>508.4</ele><time>2013-11-23T12:01:19.0000000+00:00</time></trkpt><trkpt lat="30.61718559" lon="34.84690857"><ele>508.4</ele><time>2013-11-23T12:01:24.0000000+00:00</time></trkpt><trkpt lat="30.61718559" lon="34.84690857"><ele>508.4</ele><time>2013-11-23T12:01:29.0000000+00:00</time></trkpt><trkpt lat="30.61718559" lon="34.84690857"><ele>508.4</ele><time>2013-11-23T12:01:34.0000000+00:00</time></trkpt><trkpt lat="30.61718559" lon="34.84690857"><ele>508.4</ele><time>2013-11-23T12:01:39.0000000+00:00</time></trkpt><trkpt lat="30.61718559" lon="34.84690857"><ele>508.3</ele><time>2013-11-23T12:01:44.0000000+00:00</time></trkpt><trkpt lat="30.61718559" lon="34.84690857"><ele>508.3</ele><time>2013-11-23T12:01:49.0000000+00:00</time></trkpt><trkpt lat="30.61718369" lon="34.84690857"><ele>508.3</ele><time>2013-11-23T12:01:54.0000000+00:00</time></trkpt><trkpt lat="30.61718369" lon="34.84690857"><ele>508.3</ele><time>2013-11-23T12:01:59.0000000+00:00</time></trkpt><trkpt lat="30.61718369" lon="34.84690857"><ele>508.3</ele><time>2013-11-23T12:02:04.0000000+00:00</time></trkpt><trkpt lat="30.61718369" lon="34.84690857"><ele>508.3</ele><time>2013-11-23T12:02:09.0000000+00:00</time></trkpt><trkpt lat="30.61718369" lon="34.84690857"><ele>508.3</ele><time>2013-11-23T12:02:14.0000000+00:00</time></trkpt><trkpt lat="30.61718369" lon="34.84690857"><ele>508.3</ele><time>2013-11-23T12:02:19.0000000+00:00</time></trkpt><trkpt lat="30.61718369" lon="34.84690857"><ele>508.3</ele><time>2013-11-23T12:02:24.0000000+00:00</time></trkpt><trkpt lat="30.61718369" lon="34.84690857"><ele>508.3</ele><time>2013-11-23T12:02:29.0000000+00:00</time></trkpt><trkpt lat="30.61718369" lon="34.84690857"><ele>508.3</ele><time>2013-11-23T12:02:34.0000000+00:00</time></trkpt><trkpt lat="30.61718369" lon="34.84690857"><ele>508.3</ele><time>2013-11-23T12:02:39.0000000+00:00</time></trkpt><trkpt lat="30.61718369" lon="34.84690857"><ele>508.3</ele><time>2013-11-23T12:02:44.0000000+00:00</time></trkpt><trkpt lat="30.61718369" lon="34.84690857"><ele>508.3</ele><time>2013-11-23T12:02:49.0000000+00:00</time></trkpt><trkpt lat="30.61718369" lon="34.84690857"><ele>508.4</ele><time>2013-11-23T12:02:54.0000000+00:00</time></trkpt><trkpt lat="30.61718369" lon="34.84690857"><ele>508.4</ele><time>2013-11-23T12:02:59.0000000+00:00</time></trkpt><trkpt lat="30.61718369" lon="34.84690857"><ele>508.4</ele><time>2013-11-23T12:03:04.0000000+00:00</time></trkpt><trkpt lat="30.61718369" lon="34.84690857"><ele>508.4</ele><time>2013-11-23T12:03:09.0000000+00:00</time></trkpt><trkpt lat="30.61718369" lon="34.84690857"><ele>508.4</ele><time>2013-11-23T12:03:14.0000000+00:00</time></trkpt><trkpt lat="30.61718369" lon="34.84690857"><ele>508.4</ele><time>2013-11-23T12:03:19.0000000+00:00</time></trkpt><trkpt lat="30.61718369" lon="34.84690857"><ele>508.4</ele><time>2013-11-23T12:03:24.0000000+00:00</time></trkpt><trkpt lat="30.61718369" lon="34.84690857"><ele>508.5</ele><time>2013-11-23T12:03:29.0000000+00:00</time></trkpt><trkpt lat="30.61718369" lon="34.84690857"><ele>508.5</ele><time>2013-11-23T12:03:34.0000000+00:00</time></trkpt><trkpt lat="30.61718369" lon="34.84690857"><ele>508.5</ele><time>2013-11-23T12:03:39.0000000+00:00</time></trkpt><trkpt lat="30.61718369" lon="34.84690857"><ele>508.5</ele><time>2013-11-23T12:03:44.0000000+00:00</time></trkpt><trkpt lat="30.61718369" lon="34.84690857"><ele>508.5</ele><time>2013-11-23T12:03:49.0000000+00:00</time></trkpt><trkpt lat="30.61718369" lon="34.84690857"><ele>508.5</ele><time>2013-11-23T12:03:54.0000000+00:00</time></trkpt><trkpt lat="30.61718369" lon="34.84690857"><ele>508.6</ele><time>2013-11-23T12:03:59.0000000+00:00</time></trkpt><trkpt lat="30.61718369" lon="34.84690476"><ele>508.6</ele><time>2013-11-23T12:04:04.0000000+00:00</time></trkpt><trkpt lat="30.61718369" lon="34.84690476"><ele>508.6</ele><time>2013-11-23T12:04:09.0000000+00:00</time></trkpt><trkpt lat="30.61718369" lon="34.84690476"><ele>508.6</ele><time>2013-11-23T12:04:14.0000000+00:00</time></trkpt><trkpt lat="30.61718369" lon="34.84690476"><ele>508.6</ele><time>2013-11-23T12:04:19.0000000+00:00</time></trkpt><trkpt lat="30.61718559" lon="34.84690476"><ele>508.7</ele><time>2013-11-23T12:04:24.0000000+00:00</time></trkpt><trkpt lat="30.61718559" lon="34.84690476"><ele>508.7</ele><time>2013-11-23T12:04:29.0000000+00:00</time></trkpt><trkpt lat="30.61718559" lon="34.84690476"><ele>508.7</ele><time>2013-11-23T12:04:34.0000000+00:00</time></trkpt><trkpt lat="30.61718369" lon="34.84690476"><ele>508.8</ele><time>2013-11-23T12:04:39.0000000+00:00</time></trkpt><trkpt lat="30.61718369" lon="34.84690476"><ele>508.8</ele><time>2013-11-23T12:04:44.0000000+00:00</time></trkpt><trkpt lat="30.61718369" lon="34.84690476"><ele>508.8</ele><time>2013-11-23T12:04:49.0000000+00:00</time></trkpt><trkpt lat="30.61718369" lon="34.84690476"><ele>508.8</ele><time>2013-11-23T12:04:54.0000000+00:00</time></trkpt><trkpt lat="30.61718369" lon="34.84690476"><ele>508.8</ele><time>2013-11-23T12:04:59.0000000+00:00</time></trkpt><trkpt lat="30.61718369" lon="34.84690476"><ele>508.9</ele><time>2013-11-23T12:05:04.0000000+00:00</time></trkpt><trkpt lat="30.61718369" lon="34.84690476"><ele>508.9</ele><time>2013-11-23T12:05:09.0000000+00:00</time></trkpt><trkpt lat="30.61718369" lon="34.84690476"><ele>508.9</ele><time>2013-11-23T12:05:14.0000000+00:00</time></trkpt><trkpt lat="30.61718369" lon="34.84690476"><ele>508.9</ele><time>2013-11-23T12:05:19.0000000+00:00</time></trkpt><trkpt lat="30.61718369" lon="34.84690476"><ele>508.9</ele><time>2013-11-23T12:05:24.0000000+00:00</time></trkpt><trkpt lat="30.61718369" lon="34.84690476"><ele>508.9</ele><time>2013-11-23T12:05:29.0000000+00:00</time></trkpt><trkpt lat="30.61718369" lon="34.84690476"><ele>509.0</ele><time>2013-11-23T12:05:34.0000000+00:00</time></trkpt><trkpt lat="30.61718369" lon="34.84690476"><ele>509.0</ele><time>2013-11-23T12:05:39.0000000+00:00</time></trkpt><trkpt lat="30.61718369" lon="34.84690476"><ele>509.0</ele><time>2013-11-23T12:05:44.0000000+00:00</time></trkpt><trkpt lat="30.61718369" lon="34.84690476"><ele>509.0</ele><time>2013-11-23T12:05:49.0000000+00:00</time></trkpt><trkpt lat="30.61718369" lon="34.84690476"><ele>509.0</ele><time>2013-11-23T12:05:54.0000000+00:00</time></trkpt><trkpt lat="30.61718369" lon="34.84690476"><ele>509.1</ele><time>2013-11-23T12:05:59.0000000+00:00</time></trkpt><trkpt lat="30.61718369" lon="34.84690476"><ele>509.1</ele><time>2013-11-23T12:06:04.0000000+00:00</time></trkpt><trkpt lat="30.61718369" lon="34.84690476"><ele>509.1</ele><time>2013-11-23T12:06:09.0000000+00:00</time></trkpt><trkpt lat="30.61718369" lon="34.84690476"><ele>509.1</ele><time>2013-11-23T12:06:14.0000000+00:00</time></trkpt><trkpt lat="30.61718369" lon="34.84690476"><ele>509.1</ele><time>2013-11-23T12:06:19.0000000+00:00</time></trkpt><trkpt lat="30.61718369" lon="34.84690476"><ele>509.2</ele><time>2013-11-23T12:06:24.0000000+00:00</time></trkpt><trkpt lat="30.61718369" lon="34.84690476"><ele>509.2</ele><time>2013-11-23T12:06:29.0000000+00:00</time></trkpt><trkpt lat="30.61718369" lon="34.84690476"><ele>509.2</ele><time>2013-11-23T12:06:34.0000000+00:00</time></trkpt><trkpt lat="30.61718369" lon="34.84690476"><ele>509.2</ele><time>2013-11-23T12:06:39.0000000+00:00</time></trkpt><trkpt lat="30.61718369" lon="34.84690476"><ele>509.3</ele><time>2013-11-23T12:06:44.0000000+00:00</time></trkpt><trkpt lat="30.61718369" lon="34.84690476"><ele>509.3</ele><time>2013-11-23T12:06:49.0000000+00:00</time></trkpt><trkpt lat="30.61718369" lon="34.84690476"><ele>509.3</ele><time>2013-11-23T12:06:54.0000000+00:00</time></trkpt><trkpt lat="30.61719322" lon="34.84688568"><ele>509.5</ele><time>2013-11-23T12:06:59.0000000+00:00</time></trkpt><trkpt lat="30.61715317" lon="34.84679031"><ele>510.3</ele><time>2013-11-23T12:07:04.0000000+00:00</time></trkpt><trkpt lat="30.61706924" lon="34.84675217"><ele>511.9</ele><time>2013-11-23T12:07:09.0000000+00:00</time></trkpt><trkpt lat="30.6170044" lon="34.84674835"><ele>513.3</ele><time>2013-11-23T12:07:14.0000000+00:00</time></trkpt><trkpt lat="30.61696625" lon="34.8468132"><ele>516.5</ele><time>2013-11-23T12:07:19.0000000+00:00</time></trkpt><trkpt lat="30.61693573" lon="34.84689331"><ele>519.8</ele><time>2013-11-23T12:07:24.0000000+00:00</time></trkpt><trkpt lat="30.61690331" lon="34.84698105"><ele>522.4</ele><time>2013-11-23T12:07:29.0000000+00:00</time></trkpt><trkpt lat="30.61690521" lon="34.84703445"><ele>524.3</ele><time>2013-11-23T12:07:34.0000000+00:00</time></trkpt><trkpt lat="30.6169014" lon="34.84708786"><ele>525.5</ele><time>2013-11-23T12:07:39.0000000+00:00</time></trkpt><trkpt lat="30.61689186" lon="34.84713745"><ele>526.8</ele><time>2013-11-23T12:07:44.0000000+00:00</time></trkpt><trkpt lat="30.61688423" lon="34.84719849"><ele>528.0</ele><time>2013-11-23T12:07:49.0000000+00:00</time></trkpt><trkpt lat="30.6168747" lon="34.84724808"><ele>529.0</ele><time>2013-11-23T12:07:54.0000000+00:00</time></trkpt><trkpt lat="30.61685371" lon="34.84733963"><ele>530.2</ele><time>2013-11-23T12:07:59.0000000+00:00</time></trkpt><trkpt lat="30.61683464" lon="34.8474617"><ele>531.3</ele><time>2013-11-23T12:08:04.0000000+00:00</time></trkpt><trkpt lat="30.61685753" lon="34.84761429"><ele>531.8</ele><time>2013-11-23T12:08:09.0000000+00:00</time></trkpt><trkpt lat="30.61684418" lon="34.84774399"><ele>532.2</ele><time>2013-11-23T12:08:14.0000000+00:00</time></trkpt><trkpt lat="30.61689377" lon="34.84786224"><ele>532.8</ele><time>2013-11-23T12:08:19.0000000+00:00</time></trkpt><trkpt lat="30.61695862" lon="34.84794617"><ele>533.3</ele><time>2013-11-23T12:08:24.0000000+00:00</time></trkpt><trkpt lat="30.61703682" lon="34.84799957"><ele>533.0</ele><time>2013-11-23T12:08:29.0000000+00:00</time></trkpt><trkpt lat="30.61712837" lon="34.84805679"><ele>532.8</ele><time>2013-11-23T12:08:34.0000000+00:00</time></trkpt><trkpt lat="30.61724663" lon="34.84798431"><ele>532.5</ele><time>2013-11-23T12:08:39.0000000+00:00</time></trkpt><trkpt lat="30.61732483" lon="34.84791184"><ele>532.4</ele><time>2013-11-23T12:08:44.0000000+00:00</time></trkpt><trkpt lat="30.61743736" lon="34.84779739"><ele>532.4</ele><time>2013-11-23T12:08:49.0000000+00:00</time></trkpt><trkpt lat="30.61752319" lon="34.84769058"><ele>532.4</ele><time>2013-11-23T12:08:54.0000000+00:00</time></trkpt><trkpt lat="30.61763191" lon="34.84755707"><ele>532.4</ele><time>2013-11-23T12:08:59.0000000+00:00</time></trkpt><trkpt lat="30.61772347" lon="34.84744263"><ele>532.5</ele><time>2013-11-23T12:09:04.0000000+00:00</time></trkpt><trkpt lat="30.61781883" lon="34.847332"><ele>532.4</ele><time>2013-11-23T12:09:09.0000000+00:00</time></trkpt><trkpt lat="30.61790466" lon="34.84725189"><ele>532.4</ele><time>2013-11-23T12:09:14.0000000+00:00</time></trkpt><trkpt lat="30.61799431" lon="34.84714508"><ele>532.2</ele><time>2013-11-23T12:09:19.0000000+00:00</time></trkpt><trkpt lat="30.61812019" lon="34.84699249"><ele>531.9</ele><time>2013-11-23T12:09:24.0000000+00:00</time></trkpt><trkpt lat="30.61824226" lon="34.84686661"><ele>532.3</ele><time>2013-11-23T12:09:29.0000000+00:00</time></trkpt><trkpt lat="30.61830711" lon="34.84677887"><ele>532.1</ele><time>2013-11-23T12:09:34.0000000+00:00</time></trkpt><trkpt lat="30.61838722" lon="34.8466835"><ele>532.0</ele><time>2013-11-23T12:09:39.0000000+00:00</time></trkpt><trkpt lat="30.61849594" lon="34.84654999"><ele>532.1</ele><time>2013-11-23T12:09:44.0000000+00:00</time></trkpt><trkpt lat="30.61861801" lon="34.84640503"><ele>532.1</ele><time>2013-11-23T12:09:49.0000000+00:00</time></trkpt><trkpt lat="30.61874008" lon="34.8462677"><ele>532.3</ele><time>2013-11-23T12:09:54.0000000+00:00</time></trkpt><trkpt lat="30.61886597" lon="34.84611893"><ele>532.3</ele><time>2013-11-23T12:09:59.0000000+00:00</time></trkpt><trkpt lat="30.61898613" lon="34.84597397"><ele>532.5</ele><time>2013-11-23T12:10:04.0000000+00:00</time></trkpt><trkpt lat="30.6191082" lon="34.84582901"><ele>532.6</ele><time>2013-11-23T12:10:09.0000000+00:00</time></trkpt><trkpt lat="30.61923027" lon="34.84568405"><ele>532.8</ele><time>2013-11-23T12:10:14.0000000+00:00</time></trkpt><trkpt lat="30.61935425" lon="34.84553528"><ele>533.0</ele><time>2013-11-23T12:10:19.0000000+00:00</time></trkpt><trkpt lat="30.61945152" lon="34.84542847"><ele>533.3</ele><time>2013-11-23T12:10:24.0000000+00:00</time></trkpt><trkpt lat="30.61954117" lon="34.8453331"><ele>533.6</ele><time>2013-11-23T12:10:29.0000000+00:00</time></trkpt><trkpt lat="30.61964226" lon="34.84520721"><ele>533.8</ele><time>2013-11-23T12:10:34.0000000+00:00</time></trkpt><trkpt lat="30.61972809" lon="34.8451004"><ele>533.6</ele><time>2013-11-23T12:10:39.0000000+00:00</time></trkpt><trkpt lat="30.61981964" lon="34.84499741"><ele>534.0</ele><time>2013-11-23T12:10:44.0000000+00:00</time></trkpt><trkpt lat="30.61989403" lon="34.84490967"><ele>533.6</ele><time>2013-11-23T12:10:49.0000000+00:00</time></trkpt><trkpt lat="30.61997986" lon="34.84481049"><ele>533.5</ele><time>2013-11-23T12:10:54.0000000+00:00</time></trkpt><trkpt lat="30.6200943" lon="34.8446846"><ele>533.7</ele><time>2013-11-23T12:10:59.0000000+00:00</time></trkpt><trkpt lat="30.62017822" lon="34.84458542"><ele>533.7</ele><time>2013-11-23T12:11:04.0000000+00:00</time></trkpt><trkpt lat="30.62024307" lon="34.84449768"><ele>534.0</ele><time>2013-11-23T12:11:09.0000000+00:00</time></trkpt><trkpt lat="30.620327" lon="34.84440994"><ele>534.2</ele><time>2013-11-23T12:11:14.0000000+00:00</time></trkpt><trkpt lat="30.62037849" lon="34.84433746"><ele>534.5</ele><time>2013-11-23T12:11:19.0000000+00:00</time></trkpt><trkpt lat="30.62047386" lon="34.84423828"><ele>535.1</ele><time>2013-11-23T12:11:24.0000000+00:00</time></trkpt><trkpt lat="30.62055969" lon="34.84414291"><ele>535.2</ele><time>2013-11-23T12:11:29.0000000+00:00</time></trkpt><trkpt lat="30.62066841" lon="34.84403229"><ele>535.4</ele><time>2013-11-23T12:11:34.0000000+00:00</time></trkpt><trkpt lat="30.62077522" lon="34.84393311"><ele>535.4</ele><time>2013-11-23T12:11:39.0000000+00:00</time></trkpt><trkpt lat="30.62089157" lon="34.84382629"><ele>535.9</ele><time>2013-11-23T12:11:44.0000000+00:00</time></trkpt><trkpt lat="30.62101173" lon="34.84371948"><ele>536.5</ele><time>2013-11-23T12:11:49.0000000+00:00</time></trkpt><trkpt lat="30.62110519" lon="34.84363174"><ele>537.0</ele><time>2013-11-23T12:11:54.0000000+00:00</time></trkpt><trkpt lat="30.62122726" lon="34.84352112"><ele>537.0</ele><time>2013-11-23T12:11:59.0000000+00:00</time></trkpt><trkpt lat="30.62134171" lon="34.84342194"><ele>537.1</ele><time>2013-11-23T12:12:04.0000000+00:00</time></trkpt><trkpt lat="30.62144852" lon="34.84332657"><ele>537.3</ele><time>2013-11-23T12:12:09.0000000+00:00</time></trkpt><trkpt lat="30.62154961" lon="34.8432312"><ele>537.6</ele><time>2013-11-23T12:12:14.0000000+00:00</time></trkpt><trkpt lat="30.62165451" lon="34.84313583"><ele>537.8</ele><time>2013-11-23T12:12:19.0000000+00:00</time></trkpt><trkpt lat="30.62178421" lon="34.84302521"><ele>537.5</ele><time>2013-11-23T12:12:24.0000000+00:00</time></trkpt><trkpt lat="30.62191391" lon="34.84291077"><ele>537.7</ele><time>2013-11-23T12:12:29.0000000+00:00</time></trkpt><trkpt lat="30.62202835" lon="34.84279633"><ele>537.9</ele><time>2013-11-23T12:12:34.0000000+00:00</time></trkpt><trkpt lat="30.62215805" lon="34.84269333"><ele>537.9</ele><time>2013-11-23T12:12:39.0000000+00:00</time></trkpt><trkpt lat="30.62228203" lon="34.84257889"><ele>538.0</ele><time>2013-11-23T12:12:44.0000000+00:00</time></trkpt><trkpt lat="30.62243271" lon="34.84244537"><ele>538.3</ele><time>2013-11-23T12:12:49.0000000+00:00</time></trkpt><trkpt lat="30.62258148" lon="34.84230804"><ele>538.2</ele><time>2013-11-23T12:12:54.0000000+00:00</time></trkpt><trkpt lat="30.62269211" lon="34.84221268"><ele>537.9</ele><time>2013-11-23T12:12:59.0000000+00:00</time></trkpt><trkpt lat="30.62280655" lon="34.84212112"><ele>537.4</ele><time>2013-11-23T12:13:04.0000000+00:00</time></trkpt><trkpt lat="30.62294579" lon="34.84199143"><ele>537.3</ele><time>2013-11-23T12:13:09.0000000+00:00</time></trkpt><trkpt lat="30.62304688" lon="34.84189987"><ele>537.5</ele><time>2013-11-23T12:13:14.0000000+00:00</time></trkpt><trkpt lat="30.62315178" lon="34.84180069"><ele>537.9</ele><time>2013-11-23T12:13:19.0000000+00:00</time></trkpt><trkpt lat="30.62327957" lon="34.84168243"><ele>538.2</ele><time>2013-11-23T12:13:24.0000000+00:00</time></trkpt><trkpt lat="30.62341499" lon="34.84154892"><ele>538.5</ele><time>2013-11-23T12:13:29.0000000+00:00</time></trkpt><trkpt lat="30.62351608" lon="34.84145355"><ele>538.4</ele><time>2013-11-23T12:13:34.0000000+00:00</time></trkpt><trkpt lat="30.62359047" lon="34.841362"><ele>538.8</ele><time>2013-11-23T12:13:39.0000000+00:00</time></trkpt><trkpt lat="30.62366104" lon="34.84128189"><ele>539.2</ele><time>2013-11-23T12:13:44.0000000+00:00</time></trkpt><trkpt lat="30.623703" lon="34.84122849"><ele>539.2</ele><time>2013-11-23T12:13:49.0000000+00:00</time></trkpt><trkpt lat="30.62376404" lon="34.84114075"><ele>539.3</ele><time>2013-11-23T12:13:54.0000000+00:00</time></trkpt><trkpt lat="30.62382317" lon="34.84105301"><ele>539.2</ele><time>2013-11-23T12:13:59.0000000+00:00</time></trkpt><trkpt lat="30.62390709" lon="34.84093475"><ele>539.3</ele><time>2013-11-23T12:14:04.0000000+00:00</time></trkpt><trkpt lat="30.6239624" lon="34.84082413"><ele>538.4</ele><time>2013-11-23T12:14:09.0000000+00:00</time></trkpt><trkpt lat="30.62400627" lon="34.8407402"><ele>537.9</ele><time>2013-11-23T12:14:14.0000000+00:00</time></trkpt><trkpt lat="30.6240654" lon="34.84063721"><ele>537.5</ele><time>2013-11-23T12:14:19.0000000+00:00</time></trkpt><trkpt lat="30.62408829" lon="34.84056473"><ele>537.9</ele><time>2013-11-23T12:14:24.0000000+00:00</time></trkpt><trkpt lat="30.62413025" lon="34.84043503"><ele>537.8</ele><time>2013-11-23T12:14:29.0000000+00:00</time></trkpt><trkpt lat="30.6241684" lon="34.84033203"><ele>537.6</ele><time>2013-11-23T12:14:34.0000000+00:00</time></trkpt><trkpt lat="30.62420082" lon="34.84021378"><ele>538.0</ele><time>2013-11-23T12:14:39.0000000+00:00</time></trkpt><trkpt lat="30.62423325" lon="34.84002686"><ele>538.0</ele><time>2013-11-23T12:14:44.0000000+00:00</time></trkpt><trkpt lat="30.62426567" lon="34.83983612"><ele>538.0</ele><time>2013-11-23T12:14:49.0000000+00:00</time></trkpt><trkpt lat="30.62428284" lon="34.83964157"><ele>538.4</ele><time>2013-11-23T12:14:54.0000000+00:00</time></trkpt><trkpt lat="30.6243" lon="34.83945084"><ele>538.5</ele><time>2013-11-23T12:14:59.0000000+00:00</time></trkpt><trkpt lat="30.62430573" lon="34.83931351"><ele>539.0</ele><time>2013-11-23T12:15:04.0000000+00:00</time></trkpt><trkpt lat="30.62432098" lon="34.83916473"><ele>539.4</ele><time>2013-11-23T12:15:09.0000000+00:00</time></trkpt><trkpt lat="30.62433052" lon="34.83901215"><ele>540.1</ele><time>2013-11-23T12:15:14.0000000+00:00</time></trkpt><trkpt lat="30.62434387" lon="34.83884811"><ele>540.8</ele><time>2013-11-23T12:15:19.0000000+00:00</time></trkpt><trkpt lat="30.62435722" lon="34.83871841"><ele>541.2</ele><time>2013-11-23T12:15:24.0000000+00:00</time></trkpt><trkpt lat="30.62436104" lon="34.83859253"><ele>542.1</ele><time>2013-11-23T12:15:29.0000000+00:00</time></trkpt><trkpt lat="30.62437058" lon="34.83845902"><ele>542.6</ele><time>2013-11-23T12:15:34.0000000+00:00</time></trkpt><trkpt lat="30.6243763" lon="34.83831787"><ele>543.1</ele><time>2013-11-23T12:15:39.0000000+00:00</time></trkpt><trkpt lat="30.62438393" lon="34.83818054"><ele>543.5</ele><time>2013-11-23T12:15:44.0000000+00:00</time></trkpt><trkpt lat="30.62439537" lon="34.83811569"><ele>543.6</ele><time>2013-11-23T12:15:49.0000000+00:00</time></trkpt><trkpt lat="30.62439346" lon="34.83802795"><ele>544.3</ele><time>2013-11-23T12:15:54.0000000+00:00</time></trkpt><trkpt lat="30.62440109" lon="34.83790207"><ele>544.4</ele><time>2013-11-23T12:15:59.0000000+00:00</time></trkpt><trkpt lat="30.62440491" lon="34.83778381"><ele>544.9</ele><time>2013-11-23T12:16:04.0000000+00:00</time></trkpt><trkpt lat="30.62442017" lon="34.83772278"><ele>545.2</ele><time>2013-11-23T12:16:09.0000000+00:00</time></trkpt><trkpt lat="30.62441635" lon="34.83759308"><ele>546.0</ele><time>2013-11-23T12:16:14.0000000+00:00</time></trkpt><trkpt lat="30.62442207" lon="34.83745956"><ele>546.5</ele><time>2013-11-23T12:16:19.0000000+00:00</time></trkpt><trkpt lat="30.62443161" lon="34.83733368"><ele>547.3</ele><time>2013-11-23T12:16:24.0000000+00:00</time></trkpt><trkpt lat="30.62443924" lon="34.83719254"><ele>548.2</ele><time>2013-11-23T12:16:29.0000000+00:00</time></trkpt><trkpt lat="30.62444305" lon="34.83707809"><ele>548.9</ele><time>2013-11-23T12:16:34.0000000+00:00</time></trkpt><trkpt lat="30.62444687" lon="34.83698273"><ele>549.3</ele><time>2013-11-23T12:16:39.0000000+00:00</time></trkpt><trkpt lat="30.62445259" lon="34.8368454"><ele>549.5</ele><time>2013-11-23T12:16:44.0000000+00:00</time></trkpt><trkpt lat="30.62445831" lon="34.83675003"><ele>550.2</ele><time>2013-11-23T12:16:49.0000000+00:00</time></trkpt><trkpt lat="30.62446785" lon="34.83663559"><ele>550.6</ele><time>2013-11-23T12:16:54.0000000+00:00</time></trkpt><trkpt lat="30.62447739" lon="34.83650208"><ele>550.9</ele><time>2013-11-23T12:16:59.0000000+00:00</time></trkpt><trkpt lat="30.62448883" lon="34.83637238"><ele>550.9</ele><time>2013-11-23T12:17:04.0000000+00:00</time></trkpt><trkpt lat="30.62448883" lon="34.83628464"><ele>551.2</ele><time>2013-11-23T12:17:09.0000000+00:00</time></trkpt><trkpt lat="30.62449646" lon="34.83617783"><ele>551.8</ele><time>2013-11-23T12:17:14.0000000+00:00</time></trkpt><trkpt lat="30.62449837" lon="34.83605957"><ele>552.2</ele><time>2013-11-23T12:17:19.0000000+00:00</time></trkpt><trkpt lat="30.62451172" lon="34.83592987"><ele>552.6</ele><time>2013-11-23T12:17:24.0000000+00:00</time></trkpt><trkpt lat="30.62451744" lon="34.83582306"><ele>553.0</ele><time>2013-11-23T12:17:29.0000000+00:00</time></trkpt><trkpt lat="30.62452316" lon="34.83568955"><ele>553.4</ele><time>2013-11-23T12:17:34.0000000+00:00</time></trkpt><trkpt lat="30.62452507" lon="34.83557892"><ele>554.0</ele><time>2013-11-23T12:17:39.0000000+00:00</time></trkpt><trkpt lat="30.6245327" lon="34.83543778"><ele>554.6</ele><time>2013-11-23T12:17:44.0000000+00:00</time></trkpt><trkpt lat="30.62454033" lon="34.83535767"><ele>555.0</ele><time>2013-11-23T12:17:49.0000000+00:00</time></trkpt><trkpt lat="30.62454796" lon="34.83525848"><ele>555.1</ele><time>2013-11-23T12:17:54.0000000+00:00</time></trkpt><trkpt lat="30.62455177" lon="34.83514023"><ele>555.7</ele><time>2013-11-23T12:17:59.0000000+00:00</time></trkpt><trkpt lat="30.62456894" lon="34.83501434"><ele>555.9</ele><time>2013-11-23T12:18:04.0000000+00:00</time></trkpt><trkpt lat="30.62457657" lon="34.83487701"><ele>556.3</ele><time>2013-11-23T12:18:09.0000000+00:00</time></trkpt><trkpt lat="30.62457848" lon="34.83480072"><ele>556.3</ele><time>2013-11-23T12:18:14.0000000+00:00</time></trkpt><trkpt lat="30.62458992" lon="34.83467865"><ele>556.9</ele><time>2013-11-23T12:18:19.0000000+00:00</time></trkpt><trkpt lat="30.62459564" lon="34.83454514"><ele>557.1</ele><time>2013-11-23T12:18:24.0000000+00:00</time></trkpt><trkpt lat="30.62459946" lon="34.83440399"><ele>557.6</ele><time>2013-11-23T12:18:29.0000000+00:00</time></trkpt><trkpt lat="30.62460899" lon="34.8342514"><ele>558.0</ele><time>2013-11-23T12:18:34.0000000+00:00</time></trkpt><trkpt lat="30.62461662" lon="34.83410263"><ele>558.5</ele><time>2013-11-23T12:18:39.0000000+00:00</time></trkpt><trkpt lat="30.62462425" lon="34.83397293"><ele>558.7</ele><time>2013-11-23T12:18:44.0000000+00:00</time></trkpt><trkpt lat="30.62463951" lon="34.83387375"><ele>559.4</ele><time>2013-11-23T12:18:49.0000000+00:00</time></trkpt><trkpt lat="30.62464333" lon="34.83372498"><ele>559.7</ele><time>2013-11-23T12:18:54.0000000+00:00</time></trkpt><trkpt lat="30.62465096" lon="34.83358383"><ele>559.8</ele><time>2013-11-23T12:18:59.0000000+00:00</time></trkpt><trkpt lat="30.62466431" lon="34.83344269"><ele>560.4</ele><time>2013-11-23T12:19:04.0000000+00:00</time></trkpt><trkpt lat="30.62466812" lon="34.83330154"><ele>560.4</ele><time>2013-11-23T12:19:09.0000000+00:00</time></trkpt><trkpt lat="30.62467384" lon="34.83315659"><ele>560.9</ele><time>2013-11-23T12:19:14.0000000+00:00</time></trkpt><trkpt lat="30.6246872" lon="34.83301163"><ele>561.1</ele><time>2013-11-23T12:19:19.0000000+00:00</time></trkpt><trkpt lat="30.6246872" lon="34.83287048"><ele>561.6</ele><time>2013-11-23T12:19:24.0000000+00:00</time></trkpt><trkpt lat="30.62470055" lon="34.83272553"><ele>562.4</ele><time>2013-11-23T12:19:29.0000000+00:00</time></trkpt><trkpt lat="30.62471008" lon="34.83257675"><ele>563.0</ele><time>2013-11-23T12:19:34.0000000+00:00</time></trkpt><trkpt lat="30.62471962" lon="34.83241653"><ele>563.3</ele><time>2013-11-23T12:19:39.0000000+00:00</time></trkpt><trkpt lat="30.62473106" lon="34.83225632"><ele>563.9</ele><time>2013-11-23T12:19:44.0000000+00:00</time></trkpt><trkpt lat="30.62473869" lon="34.83214188"><ele>564.4</ele><time>2013-11-23T12:19:49.0000000+00:00</time></trkpt><trkpt lat="30.62474823" lon="34.83200836"><ele>564.6</ele><time>2013-11-23T12:19:54.0000000+00:00</time></trkpt><trkpt lat="30.62475777" lon="34.83185959"><ele>564.9</ele><time>2013-11-23T12:19:59.0000000+00:00</time></trkpt><trkpt lat="30.62476921" lon="34.83171082"><ele>565.0</ele><time>2013-11-23T12:20:04.0000000+00:00</time></trkpt><trkpt lat="30.62477493" lon="34.83159638"><ele>565.2</ele><time>2013-11-23T12:20:09.0000000+00:00</time></trkpt><trkpt lat="30.62478256" lon="34.83145142"><ele>565.8</ele><time>2013-11-23T12:20:14.0000000+00:00</time></trkpt><trkpt lat="30.62478447" lon="34.83129883"><ele>566.0</ele><time>2013-11-23T12:20:19.0000000+00:00</time></trkpt><trkpt lat="30.62479782" lon="34.83114243"><ele>566.5</ele><time>2013-11-23T12:20:24.0000000+00:00</time></trkpt><trkpt lat="30.62481117" lon="34.83098984"><ele>566.7</ele><time>2013-11-23T12:20:29.0000000+00:00</time></trkpt><trkpt lat="30.6248169" lon="34.83083344"><ele>567.1</ele><time>2013-11-23T12:20:34.0000000+00:00</time></trkpt><trkpt lat="30.62482834" lon="34.83068848"><ele>567.5</ele><time>2013-11-23T12:20:39.0000000+00:00</time></trkpt><trkpt lat="30.62483406" lon="34.83053207"><ele>568.0</ele><time>2013-11-23T12:20:44.0000000+00:00</time></trkpt><trkpt lat="30.62484169" lon="34.83037949"><ele>568.5</ele><time>2013-11-23T12:20:49.0000000+00:00</time></trkpt><trkpt lat="30.62484932" lon="34.8302269"><ele>568.9</ele><time>2013-11-23T12:20:54.0000000+00:00</time></trkpt><trkpt lat="30.62486267" lon="34.8300972"><ele>569.5</ele><time>2013-11-23T12:20:59.0000000+00:00</time></trkpt><trkpt lat="30.6248703" lon="34.82998276"><ele>569.7</ele><time>2013-11-23T12:21:04.0000000+00:00</time></trkpt><trkpt lat="30.62487984" lon="34.82982636"><ele>570.0</ele><time>2013-11-23T12:21:09.0000000+00:00</time></trkpt><trkpt lat="30.62489128" lon="34.82974243"><ele>570.2</ele><time>2013-11-23T12:21:14.0000000+00:00</time></trkpt><trkpt lat="30.624897" lon="34.82962418"><ele>570.6</ele><time>2013-11-23T12:21:19.0000000+00:00</time></trkpt><trkpt lat="30.62490654" lon="34.82948685"><ele>571.1</ele><time>2013-11-23T12:21:24.0000000+00:00</time></trkpt><trkpt lat="30.62491798" lon="34.8293457"><ele>571.6</ele><time>2013-11-23T12:21:29.0000000+00:00</time></trkpt><trkpt lat="30.62491989" lon="34.82920075"><ele>572.4</ele><time>2013-11-23T12:21:34.0000000+00:00</time></trkpt><trkpt lat="30.62492561" lon="34.82906342"><ele>572.9</ele><time>2013-11-23T12:21:39.0000000+00:00</time></trkpt><trkpt lat="30.62493706" lon="34.82892609"><ele>573.5</ele><time>2013-11-23T12:21:44.0000000+00:00</time></trkpt><trkpt lat="30.6249485" lon="34.82877731"><ele>574.1</ele><time>2013-11-23T12:21:49.0000000+00:00</time></trkpt><trkpt lat="30.62495995" lon="34.82862854"><ele>574.7</ele><time>2013-11-23T12:21:54.0000000+00:00</time></trkpt><trkpt lat="30.62496758" lon="34.82854462"><ele>575.0</ele><time>2013-11-23T12:21:59.0000000+00:00</time></trkpt><trkpt lat="30.62497902" lon="34.82842255"><ele>575.5</ele><time>2013-11-23T12:22:04.0000000+00:00</time></trkpt><trkpt lat="30.62498856" lon="34.82829666"><ele>576.4</ele><time>2013-11-23T12:22:09.0000000+00:00</time></trkpt><trkpt lat="30.62499428" lon="34.82815933"><ele>577.2</ele><time>2013-11-23T12:22:14.0000000+00:00</time></trkpt><trkpt lat="30.62500191" lon="34.82801819"><ele>577.7</ele><time>2013-11-23T12:22:19.0000000+00:00</time></trkpt><trkpt lat="30.62501526" lon="34.82787705"><ele>578.2</ele><time>2013-11-23T12:22:24.0000000+00:00</time></trkpt><trkpt lat="30.62501907" lon="34.8277359"><ele>578.8</ele><time>2013-11-23T12:22:29.0000000+00:00</time></trkpt><trkpt lat="30.62502098" lon="34.82759857"><ele>579.5</ele><time>2013-11-23T12:22:34.0000000+00:00</time></trkpt><trkpt lat="30.62502861" lon="34.82746124"><ele>580.0</ele><time>2013-11-23T12:22:39.0000000+00:00</time></trkpt><trkpt lat="30.62503624" lon="34.82736588"><ele>580.5</ele><time>2013-11-23T12:22:44.0000000+00:00</time></trkpt><trkpt lat="30.62504005" lon="34.82727814"><ele>580.8</ele><time>2013-11-23T12:22:49.0000000+00:00</time></trkpt><trkpt lat="30.62505341" lon="34.8271637"><ele>581.5</ele><time>2013-11-23T12:22:54.0000000+00:00</time></trkpt><trkpt lat="30.62505722" lon="34.827034"><ele>582.2</ele><time>2013-11-23T12:22:59.0000000+00:00</time></trkpt><trkpt lat="30.62506867" lon="34.82694626"><ele>582.5</ele><time>2013-11-23T12:23:04.0000000+00:00</time></trkpt><trkpt lat="30.62506676" lon="34.82684708"><ele>583.1</ele><time>2013-11-23T12:23:09.0000000+00:00</time></trkpt><trkpt lat="30.62507439" lon="34.82672882"><ele>583.6</ele><time>2013-11-23T12:23:14.0000000+00:00</time></trkpt><trkpt lat="30.62508392" lon="34.82670212"><ele>583.7</ele><time>2013-11-23T12:23:19.0000000+00:00</time></trkpt><trkpt lat="30.62508583" lon="34.82659531"><ele>584.2</ele><time>2013-11-23T12:23:24.0000000+00:00</time></trkpt><trkpt lat="30.62509728" lon="34.82646942"><ele>585.0</ele><time>2013-11-23T12:23:29.0000000+00:00</time></trkpt><trkpt lat="30.6251049" lon="34.82633972"><ele>585.8</ele><time>2013-11-23T12:23:34.0000000+00:00</time></trkpt><trkpt lat="30.62511253" lon="34.82619858"><ele>586.5</ele><time>2013-11-23T12:23:39.0000000+00:00</time></trkpt><trkpt lat="30.62512016" lon="34.82605743"><ele>587.1</ele><time>2013-11-23T12:23:44.0000000+00:00</time></trkpt><trkpt lat="30.62513351" lon="34.82593918"><ele>587.6</ele><time>2013-11-23T12:23:49.0000000+00:00</time></trkpt><trkpt lat="30.6251297" lon="34.82584381"><ele>588.0</ele><time>2013-11-23T12:23:54.0000000+00:00</time></trkpt><trkpt lat="30.62513161" lon="34.82571411"><ele>588.9</ele><time>2013-11-23T12:23:59.0000000+00:00</time></trkpt><trkpt lat="30.62513351" lon="34.82569504"><ele>589.0</ele><time>2013-11-23T12:24:04.0000000+00:00</time></trkpt><trkpt lat="30.62513161" lon="34.82569504"><ele>589.0</ele><time>2013-11-23T12:24:09.0000000+00:00</time></trkpt><trkpt lat="30.62512779" lon="34.82567215"><ele>589.4</ele><time>2013-11-23T12:24:14.0000000+00:00</time></trkpt><trkpt lat="30.6251297" lon="34.82559586"><ele>590.3</ele><time>2013-11-23T12:24:19.0000000+00:00</time></trkpt><trkpt lat="30.62513733" lon="34.82551575"><ele>591.1</ele><time>2013-11-23T12:24:24.0000000+00:00</time></trkpt><trkpt lat="30.62513733" lon="34.82539749"><ele>591.9</ele><time>2013-11-23T12:24:29.0000000+00:00</time></trkpt><trkpt lat="30.62512398" lon="34.82526016"><ele>593.0</ele><time>2013-11-23T12:24:34.0000000+00:00</time></trkpt><trkpt lat="30.62511444" lon="34.82512665"><ele>593.7</ele><time>2013-11-23T12:24:39.0000000+00:00</time></trkpt><trkpt lat="30.62509728" lon="34.82501602"><ele>594.2</ele><time>2013-11-23T12:24:44.0000000+00:00</time></trkpt><trkpt lat="30.62508965" lon="34.8249054"><ele>595.3</ele><time>2013-11-23T12:24:49.0000000+00:00</time></trkpt><trkpt lat="30.62507057" lon="34.82477188"><ele>596.1</ele><time>2013-11-23T12:24:54.0000000+00:00</time></trkpt><trkpt lat="30.62505341" lon="34.82468414"><ele>596.5</ele><time>2013-11-23T12:24:59.0000000+00:00</time></trkpt><trkpt lat="30.62503433" lon="34.8245697"><ele>597.0</ele><time>2013-11-23T12:25:04.0000000+00:00</time></trkpt><trkpt lat="30.62501526" lon="34.82445908"><ele>597.7</ele><time>2013-11-23T12:25:09.0000000+00:00</time></trkpt><trkpt lat="30.62498283" lon="34.82434845"><ele>598.2</ele><time>2013-11-23T12:25:14.0000000+00:00</time></trkpt><trkpt lat="30.62495232" lon="34.82422257"><ele>598.8</ele><time>2013-11-23T12:25:19.0000000+00:00</time></trkpt><trkpt lat="30.62493706" lon="34.82416916"><ele>599.1</ele><time>2013-11-23T12:25:24.0000000+00:00</time></trkpt><trkpt lat="30.62493515" lon="34.82416916"><ele>598.6</ele><time>2013-11-23T12:25:29.0000000+00:00</time></trkpt><trkpt lat="30.62491608" lon="34.82410049"><ele>598.7</ele><time>2013-11-23T12:25:34.0000000+00:00</time></trkpt><trkpt lat="30.62488556" lon="34.82398987"><ele>599.5</ele><time>2013-11-23T12:25:39.0000000+00:00</time></trkpt><trkpt lat="30.62484551" lon="34.82389069"><ele>600.5</ele><time>2013-11-23T12:25:44.0000000+00:00</time></trkpt><trkpt lat="30.62480927" lon="34.82381058"><ele>601.0</ele><time>2013-11-23T12:25:49.0000000+00:00</time></trkpt><trkpt lat="30.62478066" lon="34.82370377"><ele>602.2</ele><time>2013-11-23T12:25:54.0000000+00:00</time></trkpt><trkpt lat="30.62473297" lon="34.82359314"><ele>603.0</ele><time>2013-11-23T12:25:59.0000000+00:00</time></trkpt><trkpt lat="30.62467384" lon="34.82347488"><ele>603.1</ele><time>2013-11-23T12:26:04.0000000+00:00</time></trkpt><trkpt lat="30.62464714" lon="34.82340622"><ele>603.9</ele><time>2013-11-23T12:26:09.0000000+00:00</time></trkpt><trkpt lat="30.62457275" lon="34.82329941"><ele>604.3</ele><time>2013-11-23T12:26:14.0000000+00:00</time></trkpt><trkpt lat="30.62451744" lon="34.82320023"><ele>605.1</ele><time>2013-11-23T12:26:19.0000000+00:00</time></trkpt><trkpt lat="30.6244545" lon="34.82309341"><ele>606.0</ele><time>2013-11-23T12:26:24.0000000+00:00</time></trkpt><trkpt lat="30.62437248" lon="34.8229866"><ele>607.1</ele><time>2013-11-23T12:26:29.0000000+00:00</time></trkpt><trkpt lat="30.62430382" lon="34.82289124"><ele>607.6</ele><time>2013-11-23T12:26:34.0000000+00:00</time></trkpt><trkpt lat="30.62426376" lon="34.82281876"><ele>608.0</ele><time>2013-11-23T12:26:39.0000000+00:00</time></trkpt><trkpt lat="30.62421036" lon="34.82275009"><ele>608.6</ele><time>2013-11-23T12:26:44.0000000+00:00</time></trkpt><trkpt lat="30.62414551" lon="34.82265472"><ele>609.8</ele><time>2013-11-23T12:26:49.0000000+00:00</time></trkpt><trkpt lat="30.62407684" lon="34.82254791"><ele>610.7</ele><time>2013-11-23T12:26:54.0000000+00:00</time></trkpt><trkpt lat="30.6240139" lon="34.82245255"><ele>611.6</ele><time>2013-11-23T12:26:59.0000000+00:00</time></trkpt><trkpt lat="30.62395096" lon="34.82235718"><ele>612.1</ele><time>2013-11-23T12:27:04.0000000+00:00</time></trkpt><trkpt lat="30.62388611" lon="34.82225037"><ele>612.7</ele><time>2013-11-23T12:27:09.0000000+00:00</time></trkpt><trkpt lat="30.62381935" lon="34.82215118"><ele>613.5</ele><time>2013-11-23T12:27:14.0000000+00:00</time></trkpt><trkpt lat="30.62375641" lon="34.82205582"><ele>614.0</ele><time>2013-11-23T12:27:19.0000000+00:00</time></trkpt><trkpt lat="30.62368012" lon="34.82193375"><ele>615.0</ele><time>2013-11-23T12:27:24.0000000+00:00</time></trkpt><trkpt lat="30.62357712" lon="34.82178497"><ele>616.0</ele><time>2013-11-23T12:27:29.0000000+00:00</time></trkpt><trkpt lat="30.62348747" lon="34.82162857"><ele>617.1</ele><time>2013-11-23T12:27:34.0000000+00:00</time></trkpt><trkpt lat="30.62342072" lon="34.82152557"><ele>617.7</ele><time>2013-11-23T12:27:39.0000000+00:00</time></trkpt><trkpt lat="30.62335777" lon="34.82142258"><ele>618.7</ele><time>2013-11-23T12:27:44.0000000+00:00</time></trkpt><trkpt lat="30.6232872" lon="34.82130814"><ele>619.5</ele><time>2013-11-23T12:27:49.0000000+00:00</time></trkpt><trkpt lat="30.62322807" lon="34.82122803"><ele>620.0</ele><time>2013-11-23T12:27:54.0000000+00:00</time></trkpt><trkpt lat="30.62319183" lon="34.82116699"><ele>620.5</ele><time>2013-11-23T12:27:59.0000000+00:00</time></trkpt><trkpt lat="30.62311935" lon="34.82106018"><ele>621.3</ele><time>2013-11-23T12:28:04.0000000+00:00</time></trkpt><trkpt lat="30.62306976" lon="34.82100678"><ele>621.0</ele><time>2013-11-23T12:28:09.0000000+00:00</time></trkpt><trkpt lat="30.62301254" lon="34.82091141"><ele>621.8</ele><time>2013-11-23T12:28:14.0000000+00:00</time></trkpt><trkpt lat="30.62293434" lon="34.82078552"><ele>622.9</ele><time>2013-11-23T12:28:19.0000000+00:00</time></trkpt><trkpt lat="30.62286758" lon="34.82067871"><ele>623.9</ele><time>2013-11-23T12:28:24.0000000+00:00</time></trkpt><trkpt lat="30.62278366" lon="34.82055283"><ele>624.8</ele><time>2013-11-23T12:28:29.0000000+00:00</time></trkpt><trkpt lat="30.622715" lon="34.8204422"><ele>625.4</ele><time>2013-11-23T12:28:34.0000000+00:00</time></trkpt><trkpt lat="30.62264633" lon="34.82034302"><ele>626.1</ele><time>2013-11-23T12:28:39.0000000+00:00</time></trkpt><trkpt lat="30.6225605" lon="34.82022476"><ele>626.8</ele><time>2013-11-23T12:28:44.0000000+00:00</time></trkpt><trkpt lat="30.62252617" lon="34.8201828"><ele>627.2</ele><time>2013-11-23T12:28:49.0000000+00:00</time></trkpt><trkpt lat="30.62246704" lon="34.82009888"><ele>627.7</ele><time>2013-11-23T12:28:54.0000000+00:00</time></trkpt><trkpt lat="30.62236023" lon="34.81998062"><ele>628.0</ele><time>2013-11-23T12:28:59.0000000+00:00</time></trkpt><trkpt lat="30.62225914" lon="34.81988525"><ele>628.0</ele><time>2013-11-23T12:29:04.0000000+00:00</time></trkpt><trkpt lat="30.62220192" lon="34.81983185"><ele>628.5</ele><time>2013-11-23T12:29:09.0000000+00:00</time></trkpt><trkpt lat="30.62210274" lon="34.81975174"><ele>629.1</ele><time>2013-11-23T12:29:14.0000000+00:00</time></trkpt><trkpt lat="30.62199593" lon="34.81966782"><ele>629.7</ele><time>2013-11-23T12:29:19.0000000+00:00</time></trkpt><trkpt lat="30.62194252" lon="34.81962967"><ele>630.3</ele><time>2013-11-23T12:29:24.0000000+00:00</time></trkpt><trkpt lat="30.62184715" lon="34.81957626"><ele>631.4</ele><time>2013-11-23T12:29:29.0000000+00:00</time></trkpt><trkpt lat="30.62174225" lon="34.8195076"><ele>632.9</ele><time>2013-11-23T12:29:34.0000000+00:00</time></trkpt><trkpt lat="30.62166786" lon="34.81945419"><ele>634.0</ele><time>2013-11-23T12:29:39.0000000+00:00</time></trkpt><trkpt lat="30.62154579" lon="34.81938934"><ele>634.7</ele><time>2013-11-23T12:29:44.0000000+00:00</time></trkpt><trkpt lat="30.62145615" lon="34.81934357"><ele>634.9</ele><time>2013-11-23T12:29:49.0000000+00:00</time></trkpt><trkpt lat="30.62144089" lon="34.81934738"><ele>635.5</ele><time>2013-11-23T12:29:54.0000000+00:00</time></trkpt><trkpt lat="30.6213398" lon="34.81930924"><ele>636.4</ele><time>2013-11-23T12:29:59.0000000+00:00</time></trkpt><trkpt lat="30.62121964" lon="34.81928253"><ele>637.7</ele><time>2013-11-23T12:30:04.0000000+00:00</time></trkpt><trkpt lat="30.62114143" lon="34.81924057"><ele>638.8</ele><time>2013-11-23T12:30:09.0000000+00:00</time></trkpt><trkpt lat="30.62103081" lon="34.81921387"><ele>639.7</ele><time>2013-11-23T12:30:14.0000000+00:00</time></trkpt><trkpt lat="30.62091446" lon="34.81918716"><ele>641.0</ele><time>2013-11-23T12:30:19.0000000+00:00</time></trkpt><trkpt lat="30.62080956" lon="34.81914139"><ele>641.4</ele><time>2013-11-23T12:30:24.0000000+00:00</time></trkpt><trkpt lat="30.6206913" lon="34.81908798"><ele>642.6</ele><time>2013-11-23T12:30:29.0000000+00:00</time></trkpt><trkpt lat="30.62056541" lon="34.81903839"><ele>643.6</ele><time>2013-11-23T12:30:34.0000000+00:00</time></trkpt><trkpt lat="30.6204567" lon="34.81895447"><ele>644.0</ele><time>2013-11-23T12:30:39.0000000+00:00</time></trkpt><trkpt lat="30.6204052" lon="34.81885147"><ele>644.9</ele><time>2013-11-23T12:30:44.0000000+00:00</time></trkpt><trkpt lat="30.62038994" lon="34.8187561"><ele>645.9</ele><time>2013-11-23T12:30:49.0000000+00:00</time></trkpt><trkpt lat="30.62040138" lon="34.81863785"><ele>646.6</ele><time>2013-11-23T12:30:54.0000000+00:00</time></trkpt><trkpt lat="30.62044907" lon="34.81851959"><ele>647.7</ele><time>2013-11-23T12:30:59.0000000+00:00</time></trkpt><trkpt lat="30.62054253" lon="34.81842804"><ele>648.7</ele><time>2013-11-23T12:31:04.0000000+00:00</time></trkpt><trkpt lat="30.62065888" lon="34.81838989"><ele>649.7</ele><time>2013-11-23T12:31:09.0000000+00:00</time></trkpt><trkpt lat="30.62078285" lon="34.81839371"><ele>651.1</ele><time>2013-11-23T12:31:14.0000000+00:00</time></trkpt><trkpt lat="30.62090302" lon="34.81842423"><ele>652.2</ele><time>2013-11-23T12:31:19.0000000+00:00</time></trkpt><trkpt lat="30.62095833" lon="34.81845093"><ele>653.4</ele><time>2013-11-23T12:31:24.0000000+00:00</time></trkpt><trkpt lat="30.62104034" lon="34.81850052"><ele>654.1</ele><time>2013-11-23T12:31:29.0000000+00:00</time></trkpt><trkpt lat="30.62112808" lon="34.81853485"><ele>655.0</ele><time>2013-11-23T12:31:34.0000000+00:00</time></trkpt><trkpt lat="30.62112427" lon="34.81853104"><ele>653.9</ele><time>2013-11-23T12:31:39.0000000+00:00</time></trkpt><trkpt lat="30.62112427" lon="34.81852722"><ele>652.7</ele><time>2013-11-23T12:31:44.0000000+00:00</time></trkpt><trkpt lat="30.62112427" lon="34.81852722"><ele>652.6</ele><time>2013-11-23T12:31:49.0000000+00:00</time></trkpt><trkpt lat="30.62112427" lon="34.81852722"><ele>652.5</ele><time>2013-11-23T12:31:54.0000000+00:00</time></trkpt><trkpt lat="30.62112427" lon="34.81852722"><ele>652.5</ele><time>2013-11-23T12:31:59.0000000+00:00</time></trkpt><trkpt lat="30.62112427" lon="34.81852722"><ele>652.5</ele><time>2013-11-23T12:32:04.0000000+00:00</time></trkpt><trkpt lat="30.62112427" lon="34.81852722"><ele>652.5</ele><time>2013-11-23T12:32:09.0000000+00:00</time></trkpt><trkpt lat="30.62112427" lon="34.81852722"><ele>652.5</ele><time>2013-11-23T12:32:14.0000000+00:00</time></trkpt><trkpt lat="30.62112427" lon="34.81852722"><ele>652.5</ele><time>2013-11-23T12:32:19.0000000+00:00</time></trkpt><trkpt lat="30.62112427" lon="34.81852722"><ele>652.5</ele><time>2013-11-23T12:32:24.0000000+00:00</time></trkpt><trkpt lat="30.62112427" lon="34.81852722"><ele>652.4</ele><time>2013-11-23T12:32:29.0000000+00:00</time></trkpt><trkpt lat="30.62112999" lon="34.81852722"><ele>652.8</ele><time>2013-11-23T12:32:34.0000000+00:00</time></trkpt><trkpt lat="30.62115288" lon="34.81851578"><ele>652.6</ele><time>2013-11-23T12:32:39.0000000+00:00</time></trkpt><trkpt lat="30.62121964" lon="34.81850052"><ele>653.4</ele><time>2013-11-23T12:32:44.0000000+00:00</time></trkpt><trkpt lat="30.62126923" lon="34.81851578"><ele>653.8</ele><time>2013-11-23T12:32:49.0000000+00:00</time></trkpt><trkpt lat="30.62132835" lon="34.81852722"><ele>654.2</ele><time>2013-11-23T12:32:54.0000000+00:00</time></trkpt><trkpt lat="30.6213932" lon="34.8185463"><ele>654.8</ele><time>2013-11-23T12:32:59.0000000+00:00</time></trkpt><trkpt lat="30.62145615" lon="34.81856155"><ele>655.5</ele><time>2013-11-23T12:33:04.0000000+00:00</time></trkpt><trkpt lat="30.62151527" lon="34.81858444"><ele>656.1</ele><time>2013-11-23T12:33:09.0000000+00:00</time></trkpt><trkpt lat="30.62158012" lon="34.81859589"><ele>656.9</ele><time>2013-11-23T12:33:14.0000000+00:00</time></trkpt><trkpt lat="30.62163544" lon="34.8186264"><ele>658.2</ele><time>2013-11-23T12:33:19.0000000+00:00</time></trkpt><trkpt lat="30.62169838" lon="34.81863785"><ele>658.7</ele><time>2013-11-23T12:33:24.0000000+00:00</time></trkpt><trkpt lat="30.62177086" lon="34.81865311"><ele>659.6</ele><time>2013-11-23T12:33:29.0000000+00:00</time></trkpt><trkpt lat="30.62182808" lon="34.818676"><ele>659.9</ele><time>2013-11-23T12:33:34.0000000+00:00</time></trkpt><trkpt lat="30.62188911" lon="34.81869507"><ele>660.7</ele><time>2013-11-23T12:33:39.0000000+00:00</time></trkpt><trkpt lat="30.62196159" lon="34.81871414"><ele>661.2</ele><time>2013-11-23T12:33:44.0000000+00:00</time></trkpt><trkpt lat="30.62203217" lon="34.81873703"><ele>661.7</ele><time>2013-11-23T12:33:49.0000000+00:00</time></trkpt><trkpt lat="30.62210846" lon="34.8187561"><ele>662.3</ele><time>2013-11-23T12:33:54.0000000+00:00</time></trkpt><trkpt lat="30.62217903" lon="34.81877136"><ele>662.9</ele><time>2013-11-23T12:33:59.0000000+00:00</time></trkpt><trkpt lat="30.62223434" lon="34.81879044"><ele>663.4</ele><time>2013-11-23T12:34:04.0000000+00:00</time></trkpt><trkpt lat="30.62228203" lon="34.8188057"><ele>663.9</ele><time>2013-11-23T12:34:09.0000000+00:00</time></trkpt><trkpt lat="30.62234306" lon="34.81882095"><ele>664.5</ele><time>2013-11-23T12:34:14.0000000+00:00</time></trkpt><trkpt lat="30.62239647" lon="34.81883621"><ele>665.0</ele><time>2013-11-23T12:34:19.0000000+00:00</time></trkpt><trkpt lat="30.62245178" lon="34.81884766"><ele>665.5</ele><time>2013-11-23T12:34:24.0000000+00:00</time></trkpt><trkpt lat="30.62251473" lon="34.81887436"><ele>665.9</ele><time>2013-11-23T12:34:29.0000000+00:00</time></trkpt><trkpt lat="30.62257576" lon="34.81889725"><ele>666.7</ele><time>2013-11-23T12:34:34.0000000+00:00</time></trkpt><trkpt lat="30.6226368" lon="34.81891632"><ele>666.8</ele><time>2013-11-23T12:34:39.0000000+00:00</time></trkpt><trkpt lat="30.62269592" lon="34.81892777"><ele>667.1</ele><time>2013-11-23T12:34:44.0000000+00:00</time></trkpt><trkpt lat="30.62275887" lon="34.81895065"><ele>667.3</ele><time>2013-11-23T12:34:49.0000000+00:00</time></trkpt><trkpt lat="30.62282372" lon="34.81897354"><ele>667.7</ele><time>2013-11-23T12:34:54.0000000+00:00</time></trkpt><trkpt lat="30.62288857" lon="34.8189888"><ele>668.0</ele><time>2013-11-23T12:34:59.0000000+00:00</time></trkpt><trkpt lat="30.62295723" lon="34.81899643"><ele>668.3</ele><time>2013-11-23T12:35:04.0000000+00:00</time></trkpt><trkpt lat="30.62302017" lon="34.81899262"><ele>668.2</ele><time>2013-11-23T12:35:09.0000000+00:00</time></trkpt><trkpt lat="30.62308312" lon="34.81896973"><ele>668.0</ele><time>2013-11-23T12:35:14.0000000+00:00</time></trkpt><trkpt lat="30.62313843" lon="34.81893539"><ele>667.4</ele><time>2013-11-23T12:35:19.0000000+00:00</time></trkpt><trkpt lat="30.62319374" lon="34.81887436"><ele>666.5</ele><time>2013-11-23T12:35:24.0000000+00:00</time></trkpt><trkpt lat="30.62322235" lon="34.8188057"><ele>665.4</ele><time>2013-11-23T12:35:29.0000000+00:00</time></trkpt><trkpt lat="30.62323952" lon="34.81873703"><ele>664.3</ele><time>2013-11-23T12:35:34.0000000+00:00</time></trkpt><trkpt lat="30.6232357" lon="34.81866074"><ele>664.4</ele><time>2013-11-23T12:35:39.0000000+00:00</time></trkpt><trkpt lat="30.62322044" lon="34.81860733"><ele>664.2</ele><time>2013-11-23T12:35:44.0000000+00:00</time></trkpt><trkpt lat="30.62319565" lon="34.81854248"><ele>663.5</ele><time>2013-11-23T12:35:49.0000000+00:00</time></trkpt><trkpt lat="30.62315559" lon="34.8184967"><ele>663.1</ele><time>2013-11-23T12:35:54.0000000+00:00</time></trkpt><trkpt lat="30.62310028" lon="34.81844711"><ele>663.4</ele><time>2013-11-23T12:35:59.0000000+00:00</time></trkpt><trkpt lat="30.62303925" lon="34.81841278"><ele>664.1</ele><time>2013-11-23T12:36:04.0000000+00:00</time></trkpt><trkpt lat="30.62298203" lon="34.81838989"><ele>664.4</ele><time>2013-11-23T12:36:09.0000000+00:00</time></trkpt><trkpt lat="30.62293434" lon="34.81837463"><ele>664.0</ele><time>2013-11-23T12:36:14.0000000+00:00</time></trkpt><trkpt lat="30.62287712" lon="34.81834412"><ele>664.2</ele><time>2013-11-23T12:36:19.0000000+00:00</time></trkpt><trkpt lat="30.62280464" lon="34.81831741"><ele>664.4</ele><time>2013-11-23T12:36:24.0000000+00:00</time></trkpt><trkpt lat="30.62272072" lon="34.81828308"><ele>665.0</ele><time>2013-11-23T12:36:29.0000000+00:00</time></trkpt><trkpt lat="30.62264061" lon="34.81825256"><ele>665.6</ele><time>2013-11-23T12:36:34.0000000+00:00</time></trkpt><trkpt lat="30.62255669" lon="34.81821823"><ele>666.1</ele><time>2013-11-23T12:36:39.0000000+00:00</time></trkpt><trkpt lat="30.6224823" lon="34.8181839"><ele>666.3</ele><time>2013-11-23T12:36:44.0000000+00:00</time></trkpt><trkpt lat="30.6224308" lon="34.81816101"><ele>667.2</ele><time>2013-11-23T12:36:49.0000000+00:00</time></trkpt><trkpt lat="30.62236786" lon="34.81813049"><ele>668.1</ele><time>2013-11-23T12:36:54.0000000+00:00</time></trkpt><trkpt lat="30.62228775" lon="34.81808853"><ele>669.0</ele><time>2013-11-23T12:36:59.0000000+00:00</time></trkpt><trkpt lat="30.62217712" lon="34.81803894"><ele>670.4</ele><time>2013-11-23T12:37:04.0000000+00:00</time></trkpt><trkpt lat="30.62205696" lon="34.81798935"><ele>672.9</ele><time>2013-11-23T12:37:09.0000000+00:00</time></trkpt><trkpt lat="30.62197876" lon="34.81795502"><ele>674.6</ele><time>2013-11-23T12:37:14.0000000+00:00</time></trkpt><trkpt lat="30.621912" lon="34.8179245"><ele>677.3</ele><time>2013-11-23T12:37:19.0000000+00:00</time></trkpt><trkpt lat="30.62184906" lon="34.81789398"><ele>677.9</ele><time>2013-11-23T12:37:24.0000000+00:00</time></trkpt><trkpt lat="30.62178612" lon="34.81786728"><ele>678.3</ele><time>2013-11-23T12:37:29.0000000+00:00</time></trkpt><trkpt lat="30.6217308" lon="34.81784821"><ele>678.5</ele><time>2013-11-23T12:37:34.0000000+00:00</time></trkpt><trkpt lat="30.62166786" lon="34.8178215"><ele>679.7</ele><time>2013-11-23T12:37:39.0000000+00:00</time></trkpt><trkpt lat="30.62161064" lon="34.81779862"><ele>681.5</ele><time>2013-11-23T12:37:44.0000000+00:00</time></trkpt><trkpt lat="30.62152672" lon="34.81777573"><ele>683.6</ele><time>2013-11-23T12:37:49.0000000+00:00</time></trkpt><trkpt lat="30.62144661" lon="34.81774521"><ele>685.9</ele><time>2013-11-23T12:37:54.0000000+00:00</time></trkpt><trkpt lat="30.62137032" lon="34.81771088"><ele>686.9</ele><time>2013-11-23T12:37:59.0000000+00:00</time></trkpt><trkpt lat="30.62129402" lon="34.81763077"><ele>688.0</ele><time>2013-11-23T12:38:04.0000000+00:00</time></trkpt><trkpt lat="30.62128258" lon="34.81753159"><ele>688.5</ele><time>2013-11-23T12:38:09.0000000+00:00</time></trkpt><trkpt lat="30.62135887" lon="34.81745529"><ele>689.5</ele><time>2013-11-23T12:38:14.0000000+00:00</time></trkpt><trkpt lat="30.62146759" lon="34.81747437"><ele>689.9</ele><time>2013-11-23T12:38:19.0000000+00:00</time></trkpt><trkpt lat="30.62158585" lon="34.81752014"><ele>691.2</ele><time>2013-11-23T12:38:24.0000000+00:00</time></trkpt><trkpt lat="30.62163544" lon="34.81755066"><ele>691.9</ele><time>2013-11-23T12:38:29.0000000+00:00</time></trkpt><trkpt lat="30.62163544" lon="34.81755066"><ele>691.8</ele><time>2013-11-23T12:38:34.0000000+00:00</time></trkpt><trkpt lat="30.62163353" lon="34.81755066"><ele>691.9</ele><time>2013-11-23T12:38:39.0000000+00:00</time></trkpt><trkpt lat="30.62163353" lon="34.81755066"><ele>691.9</ele><time>2013-11-23T12:38:44.0000000+00:00</time></trkpt><trkpt lat="30.62163353" lon="34.81755066"><ele>692.0</ele><time>2013-11-23T12:38:49.0000000+00:00</time></trkpt><trkpt lat="30.62163353" lon="34.81755066"><ele>692.0</ele><time>2013-11-23T12:38:54.0000000+00:00</time></trkpt><trkpt lat="30.62163353" lon="34.81755066"><ele>692.0</ele><time>2013-11-23T12:38:59.0000000+00:00</time></trkpt><trkpt lat="30.62163353" lon="34.81755066"><ele>692.0</ele><time>2013-11-23T12:39:04.0000000+00:00</time></trkpt><trkpt lat="30.62163353" lon="34.81755066"><ele>692.0</ele><time>2013-11-23T12:39:09.0000000+00:00</time></trkpt><trkpt lat="30.62163353" lon="34.81755066"><ele>692.0</ele><time>2013-11-23T12:39:14.0000000+00:00</time></trkpt><trkpt lat="30.62163353" lon="34.81755066"><ele>692.0</ele><time>2013-11-23T12:39:19.0000000+00:00</time></trkpt><trkpt lat="30.62163162" lon="34.81755066"><ele>692.0</ele><time>2013-11-23T12:39:24.0000000+00:00</time></trkpt><trkpt lat="30.62163162" lon="34.81755066"><ele>692.1</ele><time>2013-11-23T12:39:29.0000000+00:00</time></trkpt><trkpt lat="30.62163162" lon="34.81755066"><ele>692.1</ele><time>2013-11-23T12:39:34.0000000+00:00</time></trkpt><trkpt lat="30.62163162" lon="34.81755066"><ele>692.1</ele><time>2013-11-23T12:39:39.0000000+00:00</time></trkpt><trkpt lat="30.62163162" lon="34.81755066"><ele>692.1</ele><time>2013-11-23T12:39:44.0000000+00:00</time></trkpt><trkpt lat="30.62163162" lon="34.81755066"><ele>692.1</ele><time>2013-11-23T12:39:49.0000000+00:00</time></trkpt><trkpt lat="30.62163162" lon="34.81755066"><ele>692.1</ele><time>2013-11-23T12:39:54.0000000+00:00</time></trkpt><trkpt lat="30.62163162" lon="34.81755066"><ele>692.1</ele><time>2013-11-23T12:39:59.0000000+00:00</time></trkpt><trkpt lat="30.62163162" lon="34.81755066"><ele>692.1</ele><time>2013-11-23T12:40:04.0000000+00:00</time></trkpt><trkpt lat="30.62163162" lon="34.81755066"><ele>692.1</ele><time>2013-11-23T12:40:09.0000000+00:00</time></trkpt><trkpt lat="30.62163162" lon="34.81755066"><ele>692.1</ele><time>2013-11-23T12:40:14.0000000+00:00</time></trkpt><trkpt lat="30.62163162" lon="34.81755066"><ele>692.2</ele><time>2013-11-23T12:40:19.0000000+00:00</time></trkpt><trkpt lat="30.62163162" lon="34.81755066"><ele>692.2</ele><time>2013-11-23T12:40:24.0000000+00:00</time></trkpt><trkpt lat="30.62163162" lon="34.81755066"><ele>692.2</ele><time>2013-11-23T12:40:29.0000000+00:00</time></trkpt><trkpt lat="30.62163162" lon="34.81755066"><ele>692.3</ele><time>2013-11-23T12:40:34.0000000+00:00</time></trkpt><trkpt lat="30.62163162" lon="34.81755066"><ele>692.3</ele><time>2013-11-23T12:40:39.0000000+00:00</time></trkpt><trkpt lat="30.62163162" lon="34.81755066"><ele>692.3</ele><time>2013-11-23T12:40:44.0000000+00:00</time></trkpt><trkpt lat="30.62162972" lon="34.81755066"><ele>692.3</ele><time>2013-11-23T12:40:49.0000000+00:00</time></trkpt><trkpt lat="30.62162972" lon="34.81755066"><ele>692.4</ele><time>2013-11-23T12:40:54.0000000+00:00</time></trkpt><trkpt lat="30.62162972" lon="34.81755066"><ele>692.4</ele><time>2013-11-23T12:40:59.0000000+00:00</time></trkpt><trkpt lat="30.62162972" lon="34.81755066"><ele>692.5</ele><time>2013-11-23T12:41:04.0000000+00:00</time></trkpt><trkpt lat="30.62162972" lon="34.81755066"><ele>692.5</ele><time>2013-11-23T12:41:09.0000000+00:00</time></trkpt><trkpt lat="30.62162972" lon="34.81755066"><ele>692.6</ele><time>2013-11-23T12:41:14.0000000+00:00</time></trkpt><trkpt lat="30.62162972" lon="34.81755066"><ele>692.6</ele><time>2013-11-23T12:41:19.0000000+00:00</time></trkpt><trkpt lat="30.62162972" lon="34.81755066"><ele>692.6</ele><time>2013-11-23T12:41:24.0000000+00:00</time></trkpt><trkpt lat="30.62162972" lon="34.81755066"><ele>692.7</ele><time>2013-11-23T12:41:29.0000000+00:00</time></trkpt><trkpt lat="30.62162972" lon="34.81755066"><ele>692.7</ele><time>2013-11-23T12:41:34.0000000+00:00</time></trkpt><trkpt lat="30.62162972" lon="34.81755066"><ele>692.7</ele><time>2013-11-23T12:41:39.0000000+00:00</time></trkpt><trkpt lat="30.62162972" lon="34.81755066"><ele>692.8</ele><time>2013-11-23T12:41:44.0000000+00:00</time></trkpt><trkpt lat="30.62162972" lon="34.81755066"><ele>692.8</ele><time>2013-11-23T12:41:49.0000000+00:00</time></trkpt><trkpt lat="30.62162972" lon="34.81755066"><ele>692.8</ele><time>2013-11-23T12:41:54.0000000+00:00</time></trkpt><trkpt lat="30.62162972" lon="34.81755066"><ele>692.8</ele><time>2013-11-23T12:41:59.0000000+00:00</time></trkpt><trkpt lat="30.62162972" lon="34.81755066"><ele>692.9</ele><time>2013-11-23T12:42:04.0000000+00:00</time></trkpt><trkpt lat="30.62162972" lon="34.81755066"><ele>692.9</ele><time>2013-11-23T12:42:09.0000000+00:00</time></trkpt><trkpt lat="30.62162972" lon="34.81755066"><ele>692.9</ele><time>2013-11-23T12:42:14.0000000+00:00</time></trkpt><trkpt lat="30.62162972" lon="34.81755066"><ele>692.9</ele><time>2013-11-23T12:42:19.0000000+00:00</time></trkpt><trkpt lat="30.62162972" lon="34.81755066"><ele>692.9</ele><time>2013-11-23T12:42:24.0000000+00:00</time></trkpt><trkpt lat="30.62162972" lon="34.81755066"><ele>693.0</ele><time>2013-11-23T12:42:29.0000000+00:00</time></trkpt><trkpt lat="30.62162972" lon="34.81755066"><ele>693.0</ele><time>2013-11-23T12:42:34.0000000+00:00</time></trkpt><trkpt lat="30.62162972" lon="34.81755066"><ele>693.0</ele><time>2013-11-23T12:42:39.0000000+00:00</time></trkpt><trkpt lat="30.62162972" lon="34.81755066"><ele>693.0</ele><time>2013-11-23T12:42:44.0000000+00:00</time></trkpt><trkpt lat="30.62162972" lon="34.81755066"><ele>693.0</ele><time>2013-11-23T12:42:49.0000000+00:00</time></trkpt><trkpt lat="30.62162781" lon="34.81755066"><ele>693.0</ele><time>2013-11-23T12:42:54.0000000+00:00</time></trkpt><trkpt lat="30.62162781" lon="34.81755066"><ele>693.1</ele><time>2013-11-23T12:42:59.0000000+00:00</time></trkpt><trkpt lat="30.62162781" lon="34.81755066"><ele>693.1</ele><time>2013-11-23T12:43:04.0000000+00:00</time></trkpt><trkpt lat="30.62162781" lon="34.81755066"><ele>693.1</ele><time>2013-11-23T12:43:09.0000000+00:00</time></trkpt><trkpt lat="30.62166977" lon="34.81756592"><ele>693.8</ele><time>2013-11-23T12:43:14.0000000+00:00</time></trkpt><trkpt lat="30.62174797" lon="34.81759262"><ele>694.9</ele><time>2013-11-23T12:43:19.0000000+00:00</time></trkpt><trkpt lat="30.62182617" lon="34.81762314"><ele>695.7</ele><time>2013-11-23T12:43:24.0000000+00:00</time></trkpt><trkpt lat="30.62192345" lon="34.81765366"><ele>696.6</ele><time>2013-11-23T12:43:29.0000000+00:00</time></trkpt><trkpt lat="30.62202263" lon="34.81768036"><ele>697.5</ele><time>2013-11-23T12:43:34.0000000+00:00</time></trkpt><trkpt lat="30.6221199" lon="34.81771088"><ele>698.3</ele><time>2013-11-23T12:43:39.0000000+00:00</time></trkpt><trkpt lat="30.62221909" lon="34.81773758"><ele>699.1</ele><time>2013-11-23T12:43:44.0000000+00:00</time></trkpt><trkpt lat="30.62228775" lon="34.81775284"><ele>700.0</ele><time>2013-11-23T12:43:49.0000000+00:00</time></trkpt><trkpt lat="30.6223526" lon="34.81778336"><ele>700.5</ele><time>2013-11-23T12:43:54.0000000+00:00</time></trkpt><trkpt lat="30.62241936" lon="34.8177948"><ele>700.2</ele><time>2013-11-23T12:43:59.0000000+00:00</time></trkpt><trkpt lat="30.6224823" lon="34.8178215"><ele>701.2</ele><time>2013-11-23T12:44:04.0000000+00:00</time></trkpt><trkpt lat="30.62254524" lon="34.81784439"><ele>702.0</ele><time>2013-11-23T12:44:09.0000000+00:00</time></trkpt><trkpt lat="30.62261009" lon="34.81786346"><ele>703.2</ele><time>2013-11-23T12:44:14.0000000+00:00</time></trkpt><trkpt lat="30.62267304" lon="34.81788254"><ele>703.8</ele><time>2013-11-23T12:44:19.0000000+00:00</time></trkpt><trkpt lat="30.62273789" lon="34.8178978"><ele>704.0</ele><time>2013-11-23T12:44:24.0000000+00:00</time></trkpt><trkpt lat="30.62280273" lon="34.8179245"><ele>705.1</ele><time>2013-11-23T12:44:29.0000000+00:00</time></trkpt><trkpt lat="30.62286758" lon="34.81794357"><ele>706.1</ele><time>2013-11-23T12:44:34.0000000+00:00</time></trkpt><trkpt lat="30.62293625" lon="34.81797409"><ele>707.1</ele><time>2013-11-23T12:44:39.0000000+00:00</time></trkpt><trkpt lat="30.62300873" lon="34.81799698"><ele>708.2</ele><time>2013-11-23T12:44:44.0000000+00:00</time></trkpt><trkpt lat="30.62307549" lon="34.81802368"><ele>709.2</ele><time>2013-11-23T12:44:49.0000000+00:00</time></trkpt><trkpt lat="30.62314415" lon="34.81805039"><ele>710.3</ele><time>2013-11-23T12:44:54.0000000+00:00</time></trkpt><trkpt lat="30.623209" lon="34.81807709"><ele>711.5</ele><time>2013-11-23T12:44:59.0000000+00:00</time></trkpt><trkpt lat="30.62328339" lon="34.81811142"><ele>712.5</ele><time>2013-11-23T12:45:04.0000000+00:00</time></trkpt><trkpt lat="30.62339783" lon="34.81813812"><ele>713.7</ele><time>2013-11-23T12:45:09.0000000+00:00</time></trkpt><trkpt lat="30.62353325" lon="34.81813049"><ele>714.5</ele><time>2013-11-23T12:45:14.0000000+00:00</time></trkpt><trkpt lat="30.62357903" lon="34.81806183"><ele>713.2</ele><time>2013-11-23T12:45:19.0000000+00:00</time></trkpt><trkpt lat="30.62361145" lon="34.8179512"><ele>712.6</ele><time>2013-11-23T12:45:24.0000000+00:00</time></trkpt><trkpt lat="30.62358856" lon="34.81783295"><ele>712.4</ele><time>2013-11-23T12:45:29.0000000+00:00</time></trkpt><trkpt lat="30.62351418" lon="34.81771469"><ele>712.6</ele><time>2013-11-23T12:45:34.0000000+00:00</time></trkpt><trkpt lat="30.62343788" lon="34.81764984"><ele>708.5</ele><time>2013-11-23T12:45:39.0000000+00:00</time></trkpt><trkpt lat="30.62334442" lon="34.81759262"><ele>706.4</ele><time>2013-11-23T12:45:44.0000000+00:00</time></trkpt><trkpt lat="30.62324524" lon="34.81754303"><ele>707.8</ele><time>2013-11-23T12:45:49.0000000+00:00</time></trkpt><trkpt lat="30.62313843" lon="34.81749725"><ele>707.6</ele><time>2013-11-23T12:45:54.0000000+00:00</time></trkpt><trkpt lat="30.62308884" lon="34.81746292"><ele>707.5</ele><time>2013-11-23T12:45:59.0000000+00:00</time></trkpt><trkpt lat="30.6230278" lon="34.81745148"><ele>708.3</ele><time>2013-11-23T12:46:04.0000000+00:00</time></trkpt><trkpt lat="30.62296486" lon="34.81742096"><ele>708.8</ele><time>2013-11-23T12:46:09.0000000+00:00</time></trkpt><trkpt lat="30.62289429" lon="34.81739044"><ele>709.9</ele><time>2013-11-23T12:46:14.0000000+00:00</time></trkpt><trkpt lat="30.62281799" lon="34.81736755"><ele>710.0</ele><time>2013-11-23T12:46:19.0000000+00:00</time></trkpt><trkpt lat="30.62274933" lon="34.81734085"><ele>710.8</ele><time>2013-11-23T12:46:24.0000000+00:00</time></trkpt><trkpt lat="30.62268448" lon="34.81730652"><ele>710.5</ele><time>2013-11-23T12:46:29.0000000+00:00</time></trkpt><trkpt lat="30.62262726" lon="34.817276"><ele>711.5</ele><time>2013-11-23T12:46:34.0000000+00:00</time></trkpt><trkpt lat="30.62256432" lon="34.81724167"><ele>711.9</ele><time>2013-11-23T12:46:39.0000000+00:00</time></trkpt><trkpt lat="30.62248612" lon="34.81721115"><ele>713.5</ele><time>2013-11-23T12:46:44.0000000+00:00</time></trkpt><trkpt lat="30.62241745" lon="34.81718063"><ele>715.4</ele><time>2013-11-23T12:46:49.0000000+00:00</time></trkpt><trkpt lat="30.62235451" lon="34.8171463"><ele>716.1</ele><time>2013-11-23T12:46:54.0000000+00:00</time></trkpt><trkpt lat="30.62228203" lon="34.81712723"><ele>718.0</ele><time>2013-11-23T12:46:59.0000000+00:00</time></trkpt><trkpt lat="30.62222099" lon="34.81709671"><ele>718.1</ele><time>2013-11-23T12:47:04.0000000+00:00</time></trkpt><trkpt lat="30.62215614" lon="34.81706619"><ele>719.4</ele><time>2013-11-23T12:47:09.0000000+00:00</time></trkpt><trkpt lat="30.62209702" lon="34.81702805"><ele>720.7</ele><time>2013-11-23T12:47:14.0000000+00:00</time></trkpt><trkpt lat="30.62204361" lon="34.81698227"><ele>721.8</ele><time>2013-11-23T12:47:19.0000000+00:00</time></trkpt><trkpt lat="30.62199402" lon="34.81694412"><ele>722.6</ele><time>2013-11-23T12:47:24.0000000+00:00</time></trkpt><trkpt lat="30.62194634" lon="34.8168869"><ele>722.8</ele><time>2013-11-23T12:47:29.0000000+00:00</time></trkpt><trkpt lat="30.62189102" lon="34.81681061"><ele>723.3</ele><time>2013-11-23T12:47:34.0000000+00:00</time></trkpt><trkpt lat="30.62182236" lon="34.81669235"><ele>724.2</ele><time>2013-11-23T12:47:39.0000000+00:00</time></trkpt><trkpt lat="30.6217823" lon="34.81661987"><ele>724.5</ele><time>2013-11-23T12:47:44.0000000+00:00</time></trkpt><trkpt lat="30.62172318" lon="34.81652069"><ele>724.7</ele><time>2013-11-23T12:47:49.0000000+00:00</time></trkpt><trkpt lat="30.62165833" lon="34.81640625"><ele>725.1</ele><time>2013-11-23T12:47:54.0000000+00:00</time></trkpt><trkpt lat="30.62162209" lon="34.81632996"><ele>725.0</ele><time>2013-11-23T12:47:59.0000000+00:00</time></trkpt><trkpt lat="30.62155914" lon="34.81621933"><ele>725.3</ele><time>2013-11-23T12:48:04.0000000+00:00</time></trkpt><trkpt lat="30.62151337" lon="34.81616211"><ele>725.4</ele><time>2013-11-23T12:48:09.0000000+00:00</time></trkpt><trkpt lat="30.62148476" lon="34.81611633"><ele>725.3</ele><time>2013-11-23T12:48:14.0000000+00:00</time></trkpt><trkpt lat="30.62141037" lon="34.81603241"><ele>724.8</ele><time>2013-11-23T12:48:19.0000000+00:00</time></trkpt><trkpt lat="30.62134361" lon="34.815979"><ele>725.2</ele><time>2013-11-23T12:48:24.0000000+00:00</time></trkpt><trkpt lat="30.6212616" lon="34.81591415"><ele>726.1</ele><time>2013-11-23T12:48:29.0000000+00:00</time></trkpt><trkpt lat="30.62117767" lon="34.81581116"><ele>724.7</ele><time>2013-11-23T12:48:34.0000000+00:00</time></trkpt><trkpt lat="30.62110519" lon="34.8157196"><ele>724.0</ele><time>2013-11-23T12:48:39.0000000+00:00</time></trkpt><trkpt lat="30.62100983" lon="34.81565094"><ele>724.5</ele><time>2013-11-23T12:48:44.0000000+00:00</time></trkpt><trkpt lat="30.62091637" lon="34.81557465"><ele>724.9</ele><time>2013-11-23T12:48:49.0000000+00:00</time></trkpt><trkpt lat="30.62082672" lon="34.81550598"><ele>724.3</ele><time>2013-11-23T12:48:54.0000000+00:00</time></trkpt><trkpt lat="30.62075615" lon="34.8154335"><ele>721.9</ele><time>2013-11-23T12:48:59.0000000+00:00</time></trkpt><trkpt lat="30.62068939" lon="34.81536102"><ele>720.1</ele><time>2013-11-23T12:49:04.0000000+00:00</time></trkpt><trkpt lat="30.62061119" lon="34.8153038"><ele>719.8</ele><time>2013-11-23T12:49:09.0000000+00:00</time></trkpt><trkpt lat="30.62051964" lon="34.81523895"><ele>718.8</ele><time>2013-11-23T12:49:14.0000000+00:00</time></trkpt><trkpt lat="30.62042046" lon="34.81518936"><ele>718.9</ele><time>2013-11-23T12:49:19.0000000+00:00</time></trkpt><trkpt lat="30.62034607" lon="34.81512833"><ele>717.1</ele><time>2013-11-23T12:49:24.0000000+00:00</time></trkpt><trkpt lat="30.62022018" lon="34.81509399"><ele>719.5</ele><time>2013-11-23T12:49:29.0000000+00:00</time></trkpt><trkpt lat="30.62008286" lon="34.81505203"><ele>721.8</ele><time>2013-11-23T12:49:34.0000000+00:00</time></trkpt><trkpt lat="30.61993218" lon="34.81497574"><ele>723.4</ele><time>2013-11-23T12:49:39.0000000+00:00</time></trkpt><trkpt lat="30.61982918" lon="34.81490707"><ele>724.6</ele><time>2013-11-23T12:49:44.0000000+00:00</time></trkpt><trkpt lat="30.61974144" lon="34.81480789"><ele>726.2</ele><time>2013-11-23T12:49:49.0000000+00:00</time></trkpt><trkpt lat="30.61965561" lon="34.81467438"><ele>726.7</ele><time>2013-11-23T12:49:54.0000000+00:00</time></trkpt><trkpt lat="30.61963272" lon="34.81459808"><ele>726.1</ele><time>2013-11-23T12:49:59.0000000+00:00</time></trkpt><trkpt lat="30.61960602" lon="34.81453705"><ele>726.5</ele><time>2013-11-23T12:50:04.0000000+00:00</time></trkpt><trkpt lat="30.61955833" lon="34.81443787"><ele>728.5</ele><time>2013-11-23T12:50:09.0000000+00:00</time></trkpt><trkpt lat="30.61950684" lon="34.81431198"><ele>729.8</ele><time>2013-11-23T12:50:14.0000000+00:00</time></trkpt><trkpt lat="30.61947632" lon="34.81426621"><ele>730.7</ele><time>2013-11-23T12:50:19.0000000+00:00</time></trkpt><trkpt lat="30.61942291" lon="34.81415176"><ele>732.3</ele><time>2013-11-23T12:50:24.0000000+00:00</time></trkpt><trkpt lat="30.61937714" lon="34.8140564"><ele>733.2</ele><time>2013-11-23T12:50:29.0000000+00:00</time></trkpt><trkpt lat="30.61933899" lon="34.81396866"><ele>734.3</ele><time>2013-11-23T12:50:34.0000000+00:00</time></trkpt><trkpt lat="30.61928558" lon="34.81380463"><ele>735.4</ele><time>2013-11-23T12:50:39.0000000+00:00</time></trkpt><trkpt lat="30.61924934" lon="34.81371689"><ele>735.8</ele><time>2013-11-23T12:50:44.0000000+00:00</time></trkpt><trkpt lat="30.61921501" lon="34.81364822"><ele>736.4</ele><time>2013-11-23T12:50:49.0000000+00:00</time></trkpt><trkpt lat="30.61917114" lon="34.81354523"><ele>737.3</ele><time>2013-11-23T12:50:54.0000000+00:00</time></trkpt><trkpt lat="30.6191349" lon="34.81344986"><ele>738.1</ele><time>2013-11-23T12:50:59.0000000+00:00</time></trkpt><trkpt lat="30.6191082" lon="34.8134079"><ele>738.5</ele><time>2013-11-23T12:51:04.0000000+00:00</time></trkpt><trkpt lat="30.6191082" lon="34.8134079"><ele>739.0</ele><time>2013-11-23T12:51:09.0000000+00:00</time></trkpt><trkpt lat="30.61912727" lon="34.81340408"><ele>739.2</ele><time>2013-11-23T12:51:14.0000000+00:00</time></trkpt><trkpt lat="30.61912918" lon="34.81340408"><ele>739.0</ele><time>2013-11-23T12:51:19.0000000+00:00</time></trkpt><trkpt lat="30.61912918" lon="34.8134079"><ele>738.9</ele><time>2013-11-23T12:51:24.0000000+00:00</time></trkpt><trkpt lat="30.61912918" lon="34.8134079"><ele>738.9</ele><time>2013-11-23T12:51:29.0000000+00:00</time></trkpt><trkpt lat="30.61913109" lon="34.8134079"><ele>738.9</ele><time>2013-11-23T12:51:34.0000000+00:00</time></trkpt><trkpt lat="30.61913109" lon="34.8134079"><ele>738.9</ele><time>2013-11-23T12:51:39.0000000+00:00</time></trkpt><trkpt lat="30.61913109" lon="34.8134079"><ele>738.9</ele><time>2013-11-23T12:51:44.0000000+00:00</time></trkpt><trkpt lat="30.61913109" lon="34.81338882"><ele>739.9</ele><time>2013-11-23T12:51:49.0000000+00:00</time></trkpt><trkpt lat="30.61910248" lon="34.81337357"><ele>741.3</ele><time>2013-11-23T12:51:54.0000000+00:00</time></trkpt><trkpt lat="30.61909676" lon="34.81337357"><ele>742.0</ele><time>2013-11-23T12:51:59.0000000+00:00</time></trkpt><trkpt lat="30.61909676" lon="34.81337357"><ele>742.2</ele><time>2013-11-23T12:52:04.0000000+00:00</time></trkpt><trkpt lat="30.61906052" lon="34.81328964"><ele>742.5</ele><time>2013-11-23T12:52:09.0000000+00:00</time></trkpt><trkpt lat="30.61903572" lon="34.81320953"><ele>742.6</ele><time>2013-11-23T12:52:14.0000000+00:00</time></trkpt><trkpt lat="30.61900902" lon="34.81312943"><ele>742.3</ele><time>2013-11-23T12:52:19.0000000+00:00</time></trkpt><trkpt lat="30.6189785" lon="34.81306076"><ele>742.7</ele><time>2013-11-23T12:52:24.0000000+00:00</time></trkpt><trkpt lat="30.61894417" lon="34.81299591"><ele>743.2</ele><time>2013-11-23T12:52:29.0000000+00:00</time></trkpt><trkpt lat="30.6189251" lon="34.81294251"><ele>744.1</ele><time>2013-11-23T12:52:34.0000000+00:00</time></trkpt><trkpt lat="30.61889839" lon="34.81287766"><ele>744.2</ele><time>2013-11-23T12:52:39.0000000+00:00</time></trkpt><trkpt lat="30.6188736" lon="34.81281281"><ele>744.8</ele><time>2013-11-23T12:52:44.0000000+00:00</time></trkpt><trkpt lat="30.61884117" lon="34.81274414"><ele>745.5</ele><time>2013-11-23T12:52:49.0000000+00:00</time></trkpt><trkpt lat="30.61882019" lon="34.81267929"><ele>745.8</ele><time>2013-11-23T12:52:54.0000000+00:00</time></trkpt><trkpt lat="30.61878967" lon="34.81261444"><ele>746.5</ele><time>2013-11-23T12:52:59.0000000+00:00</time></trkpt><trkpt lat="30.61876297" lon="34.81255341"><ele>747.6</ele><time>2013-11-23T12:53:04.0000000+00:00</time></trkpt><trkpt lat="30.61874199" lon="34.8125"><ele>748.2</ele><time>2013-11-23T12:53:09.0000000+00:00</time></trkpt><trkpt lat="30.61871529" lon="34.81243515"><ele>748.9</ele><time>2013-11-23T12:53:14.0000000+00:00</time></trkpt><trkpt lat="30.61867905" lon="34.8123703"><ele>749.8</ele><time>2013-11-23T12:53:19.0000000+00:00</time></trkpt><trkpt lat="30.61864662" lon="34.81230164"><ele>750.7</ele><time>2013-11-23T12:53:24.0000000+00:00</time></trkpt><trkpt lat="30.61861229" lon="34.81223297"><ele>751.4</ele><time>2013-11-23T12:53:29.0000000+00:00</time></trkpt><trkpt lat="30.61858749" lon="34.81215668"><ele>752.7</ele><time>2013-11-23T12:53:34.0000000+00:00</time></trkpt><trkpt lat="30.61855698" lon="34.81208038"><ele>753.1</ele><time>2013-11-23T12:53:39.0000000+00:00</time></trkpt><trkpt lat="30.61852264" lon="34.8120079"><ele>753.8</ele><time>2013-11-23T12:53:44.0000000+00:00</time></trkpt><trkpt lat="30.61849976" lon="34.81193161"><ele>754.9</ele><time>2013-11-23T12:53:49.0000000+00:00</time></trkpt><trkpt lat="30.6184597" lon="34.81186676"><ele>756.0</ele><time>2013-11-23T12:53:54.0000000+00:00</time></trkpt><trkpt lat="30.61843872" lon="34.81180573"><ele>756.4</ele><time>2013-11-23T12:53:59.0000000+00:00</time></trkpt><trkpt lat="30.61840248" lon="34.81174088"><ele>757.8</ele><time>2013-11-23T12:54:04.0000000+00:00</time></trkpt><trkpt lat="30.61836624" lon="34.81167984"><ele>759.3</ele><time>2013-11-23T12:54:09.0000000+00:00</time></trkpt><trkpt lat="30.61833382" lon="34.81162262"><ele>760.7</ele><time>2013-11-23T12:54:14.0000000+00:00</time></trkpt><trkpt lat="30.61829567" lon="34.81155777"><ele>761.5</ele><time>2013-11-23T12:54:19.0000000+00:00</time></trkpt><trkpt lat="30.61827087" lon="34.81150055"><ele>761.9</ele><time>2013-11-23T12:54:24.0000000+00:00</time></trkpt><trkpt lat="30.61823082" lon="34.81144714"><ele>763.2</ele><time>2013-11-23T12:54:29.0000000+00:00</time></trkpt><trkpt lat="30.61820221" lon="34.81140137"><ele>763.4</ele><time>2013-11-23T12:54:34.0000000+00:00</time></trkpt><trkpt lat="30.61815834" lon="34.81134033"><ele>765.0</ele><time>2013-11-23T12:54:39.0000000+00:00</time></trkpt><trkpt lat="30.61812401" lon="34.81129074"><ele>765.3</ele><time>2013-11-23T12:54:44.0000000+00:00</time></trkpt><trkpt lat="30.61808205" lon="34.81123352"><ele>765.7</ele><time>2013-11-23T12:54:49.0000000+00:00</time></trkpt><trkpt lat="30.61804009" lon="34.81116867"><ele>766.4</ele><time>2013-11-23T12:54:54.0000000+00:00</time></trkpt><trkpt lat="30.61800003" lon="34.81110382"><ele>766.5</ele><time>2013-11-23T12:54:59.0000000+00:00</time></trkpt><trkpt lat="30.61795807" lon="34.8110466"><ele>766.6</ele><time>2013-11-23T12:55:04.0000000+00:00</time></trkpt><trkpt lat="30.61791992" lon="34.81099701"><ele>767.5</ele><time>2013-11-23T12:55:09.0000000+00:00</time></trkpt><trkpt lat="30.61787033" lon="34.81095123"><ele>767.9</ele><time>2013-11-23T12:55:14.0000000+00:00</time></trkpt><trkpt lat="30.61782646" lon="34.8109169"><ele>770.1</ele><time>2013-11-23T12:55:19.0000000+00:00</time></trkpt><trkpt lat="30.61776543" lon="34.81087494"><ele>771.3</ele><time>2013-11-23T12:55:24.0000000+00:00</time></trkpt><trkpt lat="30.61771584" lon="34.81082153"><ele>771.5</ele><time>2013-11-23T12:55:29.0000000+00:00</time></trkpt><trkpt lat="30.61769104" lon="34.81075287"><ele>769.9</ele><time>2013-11-23T12:55:34.0000000+00:00</time></trkpt><trkpt lat="30.61764526" lon="34.81070328"><ele>770.4</ele><time>2013-11-23T12:55:39.0000000+00:00</time></trkpt><trkpt lat="30.61758995" lon="34.81064987"><ele>771.9</ele><time>2013-11-23T12:55:44.0000000+00:00</time></trkpt><trkpt lat="30.61753082" lon="34.81059265"><ele>774.1</ele><time>2013-11-23T12:55:49.0000000+00:00</time></trkpt><trkpt lat="30.61746216" lon="34.81054688"><ele>775.4</ele><time>2013-11-23T12:55:54.0000000+00:00</time></trkpt><trkpt lat="30.61740494" lon="34.81049347"><ele>775.3</ele><time>2013-11-23T12:55:59.0000000+00:00</time></trkpt><trkpt lat="30.61734772" lon="34.81042862"><ele>776.2</ele><time>2013-11-23T12:56:04.0000000+00:00</time></trkpt><trkpt lat="30.6172905" lon="34.8103714"><ele>777.5</ele><time>2013-11-23T12:56:09.0000000+00:00</time></trkpt><trkpt lat="30.617239" lon="34.81031418"><ele>779.2</ele><time>2013-11-23T12:56:14.0000000+00:00</time></trkpt><trkpt lat="30.61719132" lon="34.81026459"><ele>781.0</ele><time>2013-11-23T12:56:19.0000000+00:00</time></trkpt><trkpt lat="30.61713791" lon="34.81019974"><ele>782.6</ele><time>2013-11-23T12:56:24.0000000+00:00</time></trkpt><trkpt lat="30.61709213" lon="34.81015015"><ele>784.0</ele><time>2013-11-23T12:56:29.0000000+00:00</time></trkpt><trkpt lat="30.61704254" lon="34.8100853"><ele>785.4</ele><time>2013-11-23T12:56:34.0000000+00:00</time></trkpt><trkpt lat="30.61699295" lon="34.81003189"><ele>786.8</ele><time>2013-11-23T12:56:39.0000000+00:00</time></trkpt><trkpt lat="30.61694145" lon="34.80996704"><ele>788.0</ele><time>2013-11-23T12:56:44.0000000+00:00</time></trkpt><trkpt lat="30.61689377" lon="34.80990982"><ele>788.8</ele><time>2013-11-23T12:56:49.0000000+00:00</time></trkpt><trkpt lat="30.6168499" lon="34.80986404"><ele>789.7</ele><time>2013-11-23T12:56:54.0000000+00:00</time></trkpt><trkpt lat="30.61680222" lon="34.80980682"><ele>790.3</ele><time>2013-11-23T12:56:59.0000000+00:00</time></trkpt><trkpt lat="30.61675263" lon="34.80974197"><ele>790.5</ele><time>2013-11-23T12:57:04.0000000+00:00</time></trkpt><trkpt lat="30.61671448" lon="34.8096695"><ele>791.1</ele><time>2013-11-23T12:57:09.0000000+00:00</time></trkpt><trkpt lat="30.61667061" lon="34.8095932"><ele>792.3</ele><time>2013-11-23T12:57:14.0000000+00:00</time></trkpt><trkpt lat="30.61662102" lon="34.80952072"><ele>792.7</ele><time>2013-11-23T12:57:19.0000000+00:00</time></trkpt><trkpt lat="30.61656189" lon="34.80945969"><ele>793.8</ele><time>2013-11-23T12:57:24.0000000+00:00</time></trkpt><trkpt lat="30.61649323" lon="34.80939484"><ele>794.3</ele><time>2013-11-23T12:57:29.0000000+00:00</time></trkpt><trkpt lat="30.61644173" lon="34.80934143"><ele>794.0</ele><time>2013-11-23T12:57:34.0000000+00:00</time></trkpt><trkpt lat="30.61639404" lon="34.8093071"><ele>794.5</ele><time>2013-11-23T12:57:39.0000000+00:00</time></trkpt><trkpt lat="30.61636734" lon="34.80928421"><ele>795.7</ele><time>2013-11-23T12:57:44.0000000+00:00</time></trkpt><trkpt lat="30.6163559" lon="34.80925369"><ele>796.8</ele><time>2013-11-23T12:57:49.0000000+00:00</time></trkpt><trkpt lat="30.6163826" lon="34.80923843"><ele>797.7</ele><time>2013-11-23T12:57:54.0000000+00:00</time></trkpt><trkpt lat="30.6164093" lon="34.80923843"><ele>798.7</ele><time>2013-11-23T12:57:59.0000000+00:00</time></trkpt><trkpt lat="30.61645699" lon="34.80923462"><ele>799.8</ele><time>2013-11-23T12:58:04.0000000+00:00</time></trkpt><trkpt lat="30.61648369" lon="34.80922318"><ele>801.4</ele><time>2013-11-23T12:58:09.0000000+00:00</time></trkpt><trkpt lat="30.6164856" lon="34.80921936"><ele>801.8</ele><time>2013-11-23T12:58:14.0000000+00:00</time></trkpt><trkpt lat="30.6164856" lon="34.80921555"><ele>801.4</ele><time>2013-11-23T12:58:19.0000000+00:00</time></trkpt><trkpt lat="30.6164875" lon="34.80921555"><ele>801.3</ele><time>2013-11-23T12:58:24.0000000+00:00</time></trkpt><trkpt lat="30.6164875" lon="34.80921555"><ele>801.3</ele><time>2013-11-23T12:58:29.0000000+00:00</time></trkpt><trkpt lat="30.6164875" lon="34.80921555"><ele>801.3</ele><time>2013-11-23T12:58:34.0000000+00:00</time></trkpt><trkpt lat="30.6164875" lon="34.80921555"><ele>801.3</ele><time>2013-11-23T12:58:39.0000000+00:00</time></trkpt><trkpt lat="30.6164875" lon="34.80921555"><ele>801.3</ele><time>2013-11-23T12:58:44.0000000+00:00</time></trkpt><trkpt lat="30.6164875" lon="34.80921555"><ele>801.3</ele><time>2013-11-23T12:58:49.0000000+00:00</time></trkpt><trkpt lat="30.6164875" lon="34.80921555"><ele>801.3</ele><time>2013-11-23T12:58:54.0000000+00:00</time></trkpt><trkpt lat="30.6164856" lon="34.80921555"><ele>801.3</ele><time>2013-11-23T12:58:59.0000000+00:00</time></trkpt><trkpt lat="30.6164856" lon="34.80921555"><ele>801.3</ele><time>2013-11-23T12:59:04.0000000+00:00</time></trkpt><trkpt lat="30.6164856" lon="34.80921555"><ele>801.3</ele><time>2013-11-23T12:59:09.0000000+00:00</time></trkpt><trkpt lat="30.6164856" lon="34.80921555"><ele>801.3</ele><time>2013-11-23T12:59:14.0000000+00:00</time></trkpt><trkpt lat="30.6164856" lon="34.80921555"><ele>801.4</ele><time>2013-11-23T12:59:19.0000000+00:00</time></trkpt><trkpt lat="30.6164856" lon="34.80921555"><ele>801.4</ele><time>2013-11-23T12:59:24.0000000+00:00</time></trkpt><trkpt lat="30.6164856" lon="34.80921555"><ele>801.4</ele><time>2013-11-23T12:59:29.0000000+00:00</time></trkpt><trkpt lat="30.6164856" lon="34.80921555"><ele>801.5</ele><time>2013-11-23T12:59:34.0000000+00:00</time></trkpt><trkpt lat="30.6164856" lon="34.80921555"><ele>801.5</ele><time>2013-11-23T12:59:39.0000000+00:00</time></trkpt><trkpt lat="30.6164856" lon="34.80921173"><ele>801.5</ele><time>2013-11-23T12:59:44.0000000+00:00</time></trkpt><trkpt lat="30.6164856" lon="34.80921173"><ele>801.5</ele><time>2013-11-23T12:59:49.0000000+00:00</time></trkpt><trkpt lat="30.6164856" lon="34.80921173"><ele>801.6</ele><time>2013-11-23T12:59:54.0000000+00:00</time></trkpt><trkpt lat="30.6164856" lon="34.80921173"><ele>801.6</ele><time>2013-11-23T12:59:59.0000000+00:00</time></trkpt><trkpt lat="30.6164856" lon="34.80921173"><ele>801.6</ele><time>2013-11-23T13:00:04.0000000+00:00</time></trkpt><trkpt lat="30.6164856" lon="34.80921173"><ele>801.7</ele><time>2013-11-23T13:00:09.0000000+00:00</time></trkpt><trkpt lat="30.6164856" lon="34.80921173"><ele>801.7</ele><time>2013-11-23T13:00:14.0000000+00:00</time></trkpt><trkpt lat="30.6164856" lon="34.80921173"><ele>801.7</ele><time>2013-11-23T13:00:19.0000000+00:00</time></trkpt><trkpt lat="30.6164856" lon="34.80921173"><ele>801.7</ele><time>2013-11-23T13:00:24.0000000+00:00</time></trkpt><trkpt lat="30.6164856" lon="34.80921173"><ele>801.8</ele><time>2013-11-23T13:00:29.0000000+00:00</time></trkpt><trkpt lat="30.61648369" lon="34.80921173"><ele>801.8</ele><time>2013-11-23T13:00:34.0000000+00:00</time></trkpt><trkpt lat="30.61648369" lon="34.80921173"><ele>801.8</ele><time>2013-11-23T13:00:39.0000000+00:00</time></trkpt><trkpt lat="30.61648369" lon="34.80921173"><ele>801.9</ele><time>2013-11-23T13:00:44.0000000+00:00</time></trkpt><trkpt lat="30.61648369" lon="34.80921173"><ele>801.9</ele><time>2013-11-23T13:00:49.0000000+00:00</time></trkpt><trkpt lat="30.61648369" lon="34.80921173"><ele>802.0</ele><time>2013-11-23T13:00:54.0000000+00:00</time></trkpt><trkpt lat="30.61648369" lon="34.80921173"><ele>802.0</ele><time>2013-11-23T13:00:59.0000000+00:00</time></trkpt><trkpt lat="30.61648178" lon="34.80921173"><ele>802.1</ele><time>2013-11-23T13:01:04.0000000+00:00</time></trkpt><trkpt lat="30.61648178" lon="34.80921173"><ele>802.1</ele><time>2013-11-23T13:01:09.0000000+00:00</time></trkpt><trkpt lat="30.61648178" lon="34.80921173"><ele>802.2</ele><time>2013-11-23T13:01:14.0000000+00:00</time></trkpt><trkpt lat="30.61647987" lon="34.80921173"><ele>802.3</ele><time>2013-11-23T13:01:19.0000000+00:00</time></trkpt><trkpt lat="30.61647987" lon="34.80921555"><ele>802.5</ele><time>2013-11-23T13:01:24.0000000+00:00</time></trkpt><trkpt lat="30.61647987" lon="34.80921555"><ele>802.6</ele><time>2013-11-23T13:01:29.0000000+00:00</time></trkpt><trkpt lat="30.61647987" lon="34.80921555"><ele>802.7</ele><time>2013-11-23T13:01:34.0000000+00:00</time></trkpt><trkpt lat="30.61647797" lon="34.80921555"><ele>802.9</ele><time>2013-11-23T13:01:39.0000000+00:00</time></trkpt><trkpt lat="30.61647797" lon="34.80921555"><ele>803.0</ele><time>2013-11-23T13:01:44.0000000+00:00</time></trkpt><trkpt lat="30.61647797" lon="34.80921555"><ele>803.0</ele><time>2013-11-23T13:01:49.0000000+00:00</time></trkpt><trkpt lat="30.61647797" lon="34.80921555"><ele>803.0</ele><time>2013-11-23T13:01:54.0000000+00:00</time></trkpt><trkpt lat="30.61647797" lon="34.80921555"><ele>803.0</ele><time>2013-11-23T13:01:59.0000000+00:00</time></trkpt><trkpt lat="30.61647797" lon="34.80921555"><ele>803.0</ele><time>2013-11-23T13:02:04.0000000+00:00</time></trkpt><trkpt lat="30.61647797" lon="34.80921555"><ele>803.0</ele><time>2013-11-23T13:02:09.0000000+00:00</time></trkpt><trkpt lat="30.61647797" lon="34.80921555"><ele>803.1</ele><time>2013-11-23T13:02:14.0000000+00:00</time></trkpt><trkpt lat="30.61647606" lon="34.80921555"><ele>803.1</ele><time>2013-11-23T13:02:19.0000000+00:00</time></trkpt><trkpt lat="30.61647606" lon="34.80921555"><ele>803.2</ele><time>2013-11-23T13:02:24.0000000+00:00</time></trkpt><trkpt lat="30.61647606" lon="34.80921555"><ele>803.2</ele><time>2013-11-23T13:02:29.0000000+00:00</time></trkpt><trkpt lat="30.61647606" lon="34.80921555"><ele>803.2</ele><time>2013-11-23T13:02:34.0000000+00:00</time></trkpt><trkpt lat="30.61647606" lon="34.80921555"><ele>803.3</ele><time>2013-11-23T13:02:39.0000000+00:00</time></trkpt><trkpt lat="30.61647606" lon="34.80921555"><ele>803.3</ele><time>2013-11-23T13:02:44.0000000+00:00</time></trkpt><trkpt lat="30.61647606" lon="34.80921555"><ele>803.3</ele><time>2013-11-23T13:02:49.0000000+00:00</time></trkpt><trkpt lat="30.61647606" lon="34.80921555"><ele>803.3</ele><time>2013-11-23T13:02:54.0000000+00:00</time></trkpt><trkpt lat="30.61647606" lon="34.80921555"><ele>803.3</ele><time>2013-11-23T13:02:59.0000000+00:00</time></trkpt><trkpt lat="30.61647797" lon="34.80921555"><ele>803.3</ele><time>2013-11-23T13:03:04.0000000+00:00</time></trkpt><trkpt lat="30.61647797" lon="34.80921555"><ele>803.3</ele><time>2013-11-23T13:03:09.0000000+00:00</time></trkpt><trkpt lat="30.61647797" lon="34.80921555"><ele>803.3</ele><time>2013-11-23T13:03:14.0000000+00:00</time></trkpt><trkpt lat="30.61647797" lon="34.80921555"><ele>803.3</ele><time>2013-11-23T13:03:19.0000000+00:00</time></trkpt><trkpt lat="30.61647797" lon="34.80921555"><ele>803.3</ele><time>2013-11-23T13:03:24.0000000+00:00</time></trkpt><trkpt lat="30.61647797" lon="34.80921555"><ele>803.3</ele><time>2013-11-23T13:03:29.0000000+00:00</time></trkpt><trkpt lat="30.61647606" lon="34.80921555"><ele>803.4</ele><time>2013-11-23T13:03:34.0000000+00:00</time></trkpt><trkpt lat="30.61647606" lon="34.80921555"><ele>803.4</ele><time>2013-11-23T13:03:39.0000000+00:00</time></trkpt><trkpt lat="30.61647606" lon="34.80921555"><ele>803.4</ele><time>2013-11-23T13:03:44.0000000+00:00</time></trkpt><trkpt lat="30.61647606" lon="34.80921555"><ele>803.4</ele><time>2013-11-23T13:03:49.0000000+00:00</time></trkpt><trkpt lat="30.61647606" lon="34.80921555"><ele>803.4</ele><time>2013-11-23T13:03:54.0000000+00:00</time></trkpt><trkpt lat="30.61647606" lon="34.80921555"><ele>803.5</ele><time>2013-11-23T13:03:59.0000000+00:00</time></trkpt><trkpt lat="30.61647606" lon="34.80921555"><ele>803.5</ele><time>2013-11-23T13:04:04.0000000+00:00</time></trkpt><trkpt lat="30.61647606" lon="34.80921555"><ele>803.6</ele><time>2013-11-23T13:04:09.0000000+00:00</time></trkpt><trkpt lat="30.61647606" lon="34.80921555"><ele>803.6</ele><time>2013-11-23T13:04:14.0000000+00:00</time></trkpt><trkpt lat="30.61647606" lon="34.80921555"><ele>803.6</ele><time>2013-11-23T13:04:19.0000000+00:00</time></trkpt><trkpt lat="30.61647606" lon="34.80921173"><ele>803.6</ele><time>2013-11-23T13:04:24.0000000+00:00</time></trkpt><trkpt lat="30.61647606" lon="34.80921173"><ele>803.6</ele><time>2013-11-23T13:04:29.0000000+00:00</time></trkpt><trkpt lat="30.61647606" lon="34.80921173"><ele>803.7</ele><time>2013-11-23T13:04:34.0000000+00:00</time></trkpt><trkpt lat="30.61647606" lon="34.80921173"><ele>803.7</ele><time>2013-11-23T13:04:39.0000000+00:00</time></trkpt><trkpt lat="30.61647606" lon="34.80921173"><ele>803.7</ele><time>2013-11-23T13:04:44.0000000+00:00</time></trkpt><trkpt lat="30.61647606" lon="34.80921173"><ele>803.7</ele><time>2013-11-23T13:04:49.0000000+00:00</time></trkpt><trkpt lat="30.61647797" lon="34.80921936"><ele>804.3</ele><time>2013-11-23T13:04:54.0000000+00:00</time></trkpt><trkpt lat="30.61647797" lon="34.80921555"><ele>803.6</ele><time>2013-11-23T13:04:59.0000000+00:00</time></trkpt><trkpt lat="30.6164608" lon="34.80920792"><ele>801.4</ele><time>2013-11-23T13:05:04.0000000+00:00</time></trkpt><trkpt lat="30.61641884" lon="34.80920792"><ele>799.6</ele><time>2013-11-23T13:05:09.0000000+00:00</time></trkpt><trkpt lat="30.61636162" lon="34.80921173"><ele>799.3</ele><time>2013-11-23T13:05:14.0000000+00:00</time></trkpt><trkpt lat="30.61631393" lon="34.80921936"><ele>799.1</ele><time>2013-11-23T13:05:19.0000000+00:00</time></trkpt><trkpt lat="30.61625862" lon="34.80921555"><ele>799.8</ele><time>2013-11-23T13:05:24.0000000+00:00</time></trkpt><trkpt lat="30.61619377" lon="34.80920792"><ele>799.8</ele><time>2013-11-23T13:05:29.0000000+00:00</time></trkpt><trkpt lat="30.61613274" lon="34.80920029"><ele>800.1</ele><time>2013-11-23T13:05:34.0000000+00:00</time></trkpt><trkpt lat="30.6160717" lon="34.80918884"><ele>800.8</ele><time>2013-11-23T13:05:39.0000000+00:00</time></trkpt><trkpt lat="30.6160183" lon="34.80916977"><ele>801.1</ele><time>2013-11-23T13:05:44.0000000+00:00</time></trkpt><trkpt lat="30.61593247" lon="34.80919266"><ele>801.0</ele><time>2013-11-23T13:05:49.0000000+00:00</time></trkpt><trkpt lat="30.61584282" lon="34.80920792"><ele>801.7</ele><time>2013-11-23T13:05:54.0000000+00:00</time></trkpt><trkpt lat="30.61574554" lon="34.80921936"><ele>801.8</ele><time>2013-11-23T13:05:59.0000000+00:00</time></trkpt><trkpt lat="30.61567307" lon="34.80921936"><ele>801.9</ele><time>2013-11-23T13:06:04.0000000+00:00</time></trkpt><trkpt lat="30.61559486" lon="34.80921173"><ele>802.1</ele><time>2013-11-23T13:06:09.0000000+00:00</time></trkpt><trkpt lat="30.61548996" lon="34.80922318"><ele>805.5</ele><time>2013-11-23T13:06:14.0000000+00:00</time></trkpt><trkpt lat="30.61538315" lon="34.80923462"><ele>807.0</ele><time>2013-11-23T13:06:19.0000000+00:00</time></trkpt><trkpt lat="30.61528015" lon="34.80922699"><ele>807.7</ele><time>2013-11-23T13:06:24.0000000+00:00</time></trkpt><trkpt lat="30.61518669" lon="34.80921173"><ele>807.8</ele><time>2013-11-23T13:06:29.0000000+00:00</time></trkpt><trkpt lat="30.61510277" lon="34.8092041"><ele>807.5</ele><time>2013-11-23T13:06:34.0000000+00:00</time></trkpt><trkpt lat="30.61502075" lon="34.80920029"><ele>808.7</ele><time>2013-11-23T13:06:39.0000000+00:00</time></trkpt><trkpt lat="30.61494064" lon="34.80918121"><ele>808.6</ele><time>2013-11-23T13:06:44.0000000+00:00</time></trkpt><trkpt lat="30.61486626" lon="34.80917358"><ele>809.3</ele><time>2013-11-23T13:06:49.0000000+00:00</time></trkpt><trkpt lat="30.61480331" lon="34.80916214"><ele>810.6</ele><time>2013-11-23T13:06:54.0000000+00:00</time></trkpt><trkpt lat="30.61476326" lon="34.80915833"><ele>812.0</ele><time>2013-11-23T13:06:59.0000000+00:00</time></trkpt><trkpt lat="30.61470795" lon="34.8091507"><ele>811.6</ele><time>2013-11-23T13:07:04.0000000+00:00</time></trkpt><trkpt lat="30.614645" lon="34.80915451"><ele>812.1</ele><time>2013-11-23T13:07:09.0000000+00:00</time></trkpt><trkpt lat="30.61459541" lon="34.80913925"><ele>812.3</ele><time>2013-11-23T13:07:14.0000000+00:00</time></trkpt><trkpt lat="30.6145401" lon="34.80914688"><ele>813.0</ele><time>2013-11-23T13:07:19.0000000+00:00</time></trkpt><trkpt lat="30.61448097" lon="34.80913925"><ele>813.9</ele><time>2013-11-23T13:07:24.0000000+00:00</time></trkpt><trkpt lat="30.61442184" lon="34.80913162"><ele>814.7</ele><time>2013-11-23T13:07:29.0000000+00:00</time></trkpt><trkpt lat="30.6143589" lon="34.80912399"><ele>815.1</ele><time>2013-11-23T13:07:34.0000000+00:00</time></trkpt><trkpt lat="30.61429787" lon="34.80911636"><ele>815.5</ele><time>2013-11-23T13:07:39.0000000+00:00</time></trkpt><trkpt lat="30.61423492" lon="34.80911636"><ele>816.5</ele><time>2013-11-23T13:07:44.0000000+00:00</time></trkpt><trkpt lat="30.61417961" lon="34.80910873"><ele>817.3</ele><time>2013-11-23T13:07:49.0000000+00:00</time></trkpt><trkpt lat="30.6141243" lon="34.80909348"><ele>817.3</ele><time>2013-11-23T13:07:54.0000000+00:00</time></trkpt><trkpt lat="30.61406708" lon="34.80908585"><ele>817.6</ele><time>2013-11-23T13:07:59.0000000+00:00</time></trkpt><trkpt lat="30.6139946" lon="34.8090744"><ele>817.9</ele><time>2013-11-23T13:08:04.0000000+00:00</time></trkpt><trkpt lat="30.61393547" lon="34.80906296"><ele>818.8</ele><time>2013-11-23T13:08:09.0000000+00:00</time></trkpt><trkpt lat="30.61389923" lon="34.80905914"><ele>820.0</ele><time>2013-11-23T13:08:14.0000000+00:00</time></trkpt><trkpt lat="30.61384392" lon="34.80905533"><ele>820.9</ele><time>2013-11-23T13:08:19.0000000+00:00</time></trkpt><trkpt lat="30.61379433" lon="34.80904007"><ele>821.1</ele><time>2013-11-23T13:08:24.0000000+00:00</time></trkpt><trkpt lat="30.61371613" lon="34.80904007"><ele>822.4</ele><time>2013-11-23T13:08:29.0000000+00:00</time></trkpt><trkpt lat="30.61362457" lon="34.809021"><ele>822.9</ele><time>2013-11-23T13:08:34.0000000+00:00</time></trkpt><trkpt lat="30.61356926" lon="34.80900574"><ele>823.3</ele><time>2013-11-23T13:08:39.0000000+00:00</time></trkpt><trkpt lat="30.61351013" lon="34.80899811"><ele>823.3</ele><time>2013-11-23T13:08:44.0000000+00:00</time></trkpt><trkpt lat="30.6135273" lon="34.80900192"><ele>823.9</ele><time>2013-11-23T13:08:49.0000000+00:00</time></trkpt><trkpt lat="30.61353684" lon="34.80899811"><ele>823.7</ele><time>2013-11-23T13:08:54.0000000+00:00</time></trkpt><trkpt lat="30.61353684" lon="34.80899811"><ele>823.6</ele><time>2013-11-23T13:08:59.0000000+00:00</time></trkpt><trkpt lat="30.61353111" lon="34.80899048"><ele>824.6</ele><time>2013-11-23T13:09:04.0000000+00:00</time></trkpt><trkpt lat="30.61350441" lon="34.80899429"><ele>825.8</ele><time>2013-11-23T13:09:09.0000000+00:00</time></trkpt><trkpt lat="30.61342621" lon="34.80898666"><ele>826.5</ele><time>2013-11-23T13:09:14.0000000+00:00</time></trkpt><trkpt lat="30.61333656" lon="34.80898285"><ele>827.4</ele><time>2013-11-23T13:09:19.0000000+00:00</time></trkpt><trkpt lat="30.6132431" lon="34.80896759"><ele>827.9</ele><time>2013-11-23T13:09:24.0000000+00:00</time></trkpt><trkpt lat="30.61316872" lon="34.80895615"><ele>829.2</ele><time>2013-11-23T13:09:29.0000000+00:00</time></trkpt><trkpt lat="30.61310196" lon="34.80895233"><ele>829.5</ele><time>2013-11-23T13:09:34.0000000+00:00</time></trkpt><trkpt lat="30.61302185" lon="34.80893707"><ele>829.7</ele><time>2013-11-23T13:09:39.0000000+00:00</time></trkpt><trkpt lat="30.61295509" lon="34.80892944"><ele>830.5</ele><time>2013-11-23T13:09:44.0000000+00:00</time></trkpt><trkpt lat="30.61288452" lon="34.80892181"><ele>831.2</ele><time>2013-11-23T13:09:49.0000000+00:00</time></trkpt><trkpt lat="30.61279678" lon="34.80890656"><ele>831.8</ele><time>2013-11-23T13:09:54.0000000+00:00</time></trkpt><trkpt lat="30.61272812" lon="34.80889511"><ele>832.3</ele><time>2013-11-23T13:09:59.0000000+00:00</time></trkpt><trkpt lat="30.61266518" lon="34.80888748"><ele>832.5</ele><time>2013-11-23T13:10:04.0000000+00:00</time></trkpt><trkpt lat="30.61259842" lon="34.80888367"><ele>833.8</ele><time>2013-11-23T13:10:09.0000000+00:00</time></trkpt><trkpt lat="30.61253166" lon="34.80886078"><ele>833.6</ele><time>2013-11-23T13:10:14.0000000+00:00</time></trkpt><trkpt lat="30.61245918" lon="34.80885696"><ele>834.0</ele><time>2013-11-23T13:10:19.0000000+00:00</time></trkpt><trkpt lat="30.61238289" lon="34.80884171"><ele>834.5</ele><time>2013-11-23T13:10:24.0000000+00:00</time></trkpt><trkpt lat="30.61231041" lon="34.808815"><ele>834.5</ele><time>2013-11-23T13:10:29.0000000+00:00</time></trkpt><trkpt lat="30.61222839" lon="34.80879211"><ele>834.5</ele><time>2013-11-23T13:10:34.0000000+00:00</time></trkpt><trkpt lat="30.6121788" lon="34.80878067"><ele>834.7</ele><time>2013-11-23T13:10:39.0000000+00:00</time></trkpt><trkpt lat="30.61210632" lon="34.80876541"><ele>835.0</ele><time>2013-11-23T13:10:44.0000000+00:00</time></trkpt><trkpt lat="30.61207581" lon="34.80872726"><ele>835.6</ele><time>2013-11-23T13:10:49.0000000+00:00</time></trkpt><trkpt lat="30.61201859" lon="34.80870819"><ele>837.0</ele><time>2013-11-23T13:10:54.0000000+00:00</time></trkpt><trkpt lat="30.61195564" lon="34.80872726"><ele>838.7</ele><time>2013-11-23T13:10:59.0000000+00:00</time></trkpt><trkpt lat="30.61188316" lon="34.80872345"><ele>839.2</ele><time>2013-11-23T13:11:04.0000000+00:00</time></trkpt><trkpt lat="30.61180878" lon="34.80870438"><ele>840.1</ele><time>2013-11-23T13:11:09.0000000+00:00</time></trkpt><trkpt lat="30.61173821" lon="34.8086853"><ele>840.3</ele><time>2013-11-23T13:11:14.0000000+00:00</time></trkpt><trkpt lat="30.61167336" lon="34.80866623"><ele>840.8</ele><time>2013-11-23T13:11:19.0000000+00:00</time></trkpt><trkpt lat="30.61162186" lon="34.80865479"><ele>840.9</ele><time>2013-11-23T13:11:24.0000000+00:00</time></trkpt><trkpt lat="30.6115551" lon="34.80863571"><ele>841.0</ele><time>2013-11-23T13:11:29.0000000+00:00</time></trkpt><trkpt lat="30.61148834" lon="34.80861282"><ele>841.3</ele><time>2013-11-23T13:11:34.0000000+00:00</time></trkpt><trkpt lat="30.6114254" lon="34.80859375"><ele>841.7</ele><time>2013-11-23T13:11:39.0000000+00:00</time></trkpt><trkpt lat="30.61135674" lon="34.80857468"><ele>841.9</ele><time>2013-11-23T13:11:44.0000000+00:00</time></trkpt><trkpt lat="30.61128616" lon="34.80854797"><ele>842.5</ele><time>2013-11-23T13:11:49.0000000+00:00</time></trkpt><trkpt lat="30.61123657" lon="34.80854034"><ele>843.0</ele><time>2013-11-23T13:11:54.0000000+00:00</time></trkpt><trkpt lat="30.61118507" lon="34.80852509"><ele>843.7</ele><time>2013-11-23T13:11:59.0000000+00:00</time></trkpt><trkpt lat="30.61111832" lon="34.80850983"><ele>844.6</ele><time>2013-11-23T13:12:04.0000000+00:00</time></trkpt><trkpt lat="30.61105347" lon="34.80849457"><ele>844.8</ele><time>2013-11-23T13:12:09.0000000+00:00</time></trkpt><trkpt lat="30.61099815" lon="34.80847549"><ele>845.3</ele><time>2013-11-23T13:12:14.0000000+00:00</time></trkpt><trkpt lat="30.61092949" lon="34.80844498"><ele>845.7</ele><time>2013-11-23T13:12:19.0000000+00:00</time></trkpt><trkpt lat="30.61086083" lon="34.8084259"><ele>847.8</ele><time>2013-11-23T13:12:24.0000000+00:00</time></trkpt><trkpt lat="30.61081123" lon="34.80841446"><ele>848.3</ele><time>2013-11-23T13:12:29.0000000+00:00</time></trkpt><trkpt lat="30.61076546" lon="34.80839157"><ele>848.6</ele><time>2013-11-23T13:12:34.0000000+00:00</time></trkpt><trkpt lat="30.61071396" lon="34.80836487"><ele>848.2</ele><time>2013-11-23T13:12:39.0000000+00:00</time></trkpt><trkpt lat="30.61065102" lon="34.8083458"><ele>848.7</ele><time>2013-11-23T13:12:44.0000000+00:00</time></trkpt><trkpt lat="30.61060524" lon="34.80831909"><ele>848.9</ele><time>2013-11-23T13:12:49.0000000+00:00</time></trkpt><trkpt lat="30.61055183" lon="34.80831146"><ele>849.5</ele><time>2013-11-23T13:12:54.0000000+00:00</time></trkpt><trkpt lat="30.61050224" lon="34.80829239"><ele>850.2</ele><time>2013-11-23T13:12:59.0000000+00:00</time></trkpt><trkpt lat="30.61044312" lon="34.80826187"><ele>851.2</ele><time>2013-11-23T13:13:04.0000000+00:00</time></trkpt><trkpt lat="30.61037636" lon="34.80824661"><ele>851.6</ele><time>2013-11-23T13:13:09.0000000+00:00</time></trkpt><trkpt lat="30.61032295" lon="34.80823517"><ele>853.0</ele><time>2013-11-23T13:13:14.0000000+00:00</time></trkpt><trkpt lat="30.61025429" lon="34.80820465"><ele>853.8</ele><time>2013-11-23T13:13:19.0000000+00:00</time></trkpt><trkpt lat="30.6102066" lon="34.80819321"><ele>853.8</ele><time>2013-11-23T13:13:24.0000000+00:00</time></trkpt><trkpt lat="30.61014557" lon="34.80817795"><ele>854.6</ele><time>2013-11-23T13:13:29.0000000+00:00</time></trkpt><trkpt lat="30.61008453" lon="34.80816269"><ele>855.5</ele><time>2013-11-23T13:13:34.0000000+00:00</time></trkpt><trkpt lat="30.61003304" lon="34.80813599"><ele>855.9</ele><time>2013-11-23T13:13:39.0000000+00:00</time></trkpt><trkpt lat="30.60999107" lon="34.80812454"><ele>856.8</ele><time>2013-11-23T13:13:44.0000000+00:00</time></trkpt><trkpt lat="30.60994721" lon="34.80807877"><ele>857.6</ele><time>2013-11-23T13:13:49.0000000+00:00</time></trkpt><trkpt lat="30.60990524" lon="34.80802155"><ele>857.4</ele><time>2013-11-23T13:13:54.0000000+00:00</time></trkpt><trkpt lat="30.60986328" lon="34.80797195"><ele>858.2</ele><time>2013-11-23T13:13:59.0000000+00:00</time></trkpt><trkpt lat="30.60980034" lon="34.80789948"><ele>860.6</ele><time>2013-11-23T13:14:04.0000000+00:00</time></trkpt><trkpt lat="30.6097641" lon="34.80783463"><ele>861.2</ele><time>2013-11-23T13:14:09.0000000+00:00</time></trkpt><trkpt lat="30.60974312" lon="34.80776978"><ele>862.3</ele><time>2013-11-23T13:14:14.0000000+00:00</time></trkpt><trkpt lat="30.6097374" lon="34.80772018"><ele>863.5</ele><time>2013-11-23T13:14:19.0000000+00:00</time></trkpt><trkpt lat="30.60972214" lon="34.80765533"><ele>865.8</ele><time>2013-11-23T13:14:24.0000000+00:00</time></trkpt><trkpt lat="30.60972214" lon="34.8075943"><ele>867.7</ele><time>2013-11-23T13:14:29.0000000+00:00</time></trkpt><trkpt lat="30.60972214" lon="34.80752564"><ele>868.6</ele><time>2013-11-23T13:14:34.0000000+00:00</time></trkpt><trkpt lat="30.6097374" lon="34.80741119"><ele>868.0</ele><time>2013-11-23T13:14:39.0000000+00:00</time></trkpt><trkpt lat="30.60975266" lon="34.80732346"><ele>868.3</ele><time>2013-11-23T13:14:44.0000000+00:00</time></trkpt><trkpt lat="30.60978127" lon="34.80719757"><ele>869.8</ele><time>2013-11-23T13:14:49.0000000+00:00</time></trkpt><trkpt lat="30.60979271" lon="34.80710602"><ele>870.6</ele><time>2013-11-23T13:14:54.0000000+00:00</time></trkpt><trkpt lat="30.60982895" lon="34.80702972"><ele>871.2</ele><time>2013-11-23T13:14:59.0000000+00:00</time></trkpt><trkpt lat="30.60987282" lon="34.80695725"><ele>871.7</ele><time>2013-11-23T13:15:04.0000000+00:00</time></trkpt><trkpt lat="30.60992813" lon="34.8068924"><ele>872.7</ele><time>2013-11-23T13:15:09.0000000+00:00</time></trkpt><trkpt lat="30.60999298" lon="34.80682755"><ele>874.1</ele><time>2013-11-23T13:15:14.0000000+00:00</time></trkpt><trkpt lat="30.61004829" lon="34.8067894"><ele>876.5</ele><time>2013-11-23T13:15:19.0000000+00:00</time></trkpt><trkpt lat="30.61009598" lon="34.80674362"><ele>875.2</ele><time>2013-11-23T13:15:24.0000000+00:00</time></trkpt><trkpt lat="30.61015701" lon="34.80667877"><ele>874.5</ele><time>2013-11-23T13:15:29.0000000+00:00</time></trkpt><trkpt lat="30.6101799" lon="34.80662537"><ele>876.2</ele><time>2013-11-23T13:15:34.0000000+00:00</time></trkpt><trkpt lat="30.61023331" lon="34.80656052"><ele>874.9</ele><time>2013-11-23T13:15:39.0000000+00:00</time></trkpt><trkpt lat="30.61030197" lon="34.80648041"><ele>872.9</ele><time>2013-11-23T13:15:44.0000000+00:00</time></trkpt><trkpt lat="30.61034012" lon="34.80643463"><ele>871.4</ele><time>2013-11-23T13:15:49.0000000+00:00</time></trkpt><trkpt lat="30.61040878" lon="34.80635834"><ele>870.8</ele><time>2013-11-23T13:15:54.0000000+00:00</time></trkpt><trkpt lat="30.61047745" lon="34.80625916"><ele>869.8</ele><time>2013-11-23T13:15:59.0000000+00:00</time></trkpt><trkpt lat="30.61052895" lon="34.80619049"><ele>868.6</ele><time>2013-11-23T13:16:04.0000000+00:00</time></trkpt><trkpt lat="30.61058426" lon="34.80610275"><ele>867.7</ele><time>2013-11-23T13:16:09.0000000+00:00</time></trkpt><trkpt lat="30.61062813" lon="34.80604935"><ele>866.3</ele><time>2013-11-23T13:16:14.0000000+00:00</time></trkpt><trkpt lat="30.61065292" lon="34.80599976"><ele>865.8</ele><time>2013-11-23T13:16:19.0000000+00:00</time></trkpt><trkpt lat="30.61069489" lon="34.80595779"><ele>865.1</ele><time>2013-11-23T13:16:24.0000000+00:00</time></trkpt><trkpt lat="30.61072159" lon="34.80590057"><ele>864.1</ele><time>2013-11-23T13:16:29.0000000+00:00</time></trkpt><trkpt lat="30.61076546" lon="34.80584717"><ele>863.7</ele><time>2013-11-23T13:16:34.0000000+00:00</time></trkpt><trkpt lat="30.6108036" lon="34.80580139"><ele>863.4</ele><time>2013-11-23T13:16:39.0000000+00:00</time></trkpt><trkpt lat="30.61084557" lon="34.8057518"><ele>863.5</ele><time>2013-11-23T13:16:44.0000000+00:00</time></trkpt><trkpt lat="30.61091995" lon="34.80566025"><ele>863.4</ele><time>2013-11-23T13:16:49.0000000+00:00</time></trkpt><trkpt lat="30.61096954" lon="34.80559921"><ele>862.8</ele><time>2013-11-23T13:16:54.0000000+00:00</time></trkpt><trkpt lat="30.61102867" lon="34.80550003"><ele>862.2</ele><time>2013-11-23T13:16:59.0000000+00:00</time></trkpt><trkpt lat="30.61103058" lon="34.80543137"><ele>862.4</ele><time>2013-11-23T13:17:04.0000000+00:00</time></trkpt><trkpt lat="30.61096001" lon="34.80538559"><ele>863.3</ele><time>2013-11-23T13:17:09.0000000+00:00</time></trkpt><trkpt lat="30.61096954" lon="34.80527878"><ele>863.1</ele><time>2013-11-23T13:17:14.0000000+00:00</time></trkpt><trkpt lat="30.61095238" lon="34.80515289"><ele>862.9</ele><time>2013-11-23T13:17:19.0000000+00:00</time></trkpt><trkpt lat="30.61089325" lon="34.80498886"><ele>860.6</ele><time>2013-11-23T13:17:24.0000000+00:00</time></trkpt><trkpt lat="30.61079216" lon="34.80498505"><ele>858.4</ele><time>2013-11-23T13:17:29.0000000+00:00</time></trkpt><trkpt lat="30.61068344" lon="34.80503082"><ele>855.7</ele><time>2013-11-23T13:17:34.0000000+00:00</time></trkpt><trkpt lat="30.61057854" lon="34.80513001"><ele>853.6</ele><time>2013-11-23T13:17:39.0000000+00:00</time></trkpt><trkpt lat="30.61045647" lon="34.80525208"><ele>852.0</ele><time>2013-11-23T13:17:44.0000000+00:00</time></trkpt><trkpt lat="30.6103611" lon="34.80535126"><ele>850.7</ele><time>2013-11-23T13:17:49.0000000+00:00</time></trkpt><trkpt lat="30.61026382" lon="34.805439"><ele>849.5</ele><time>2013-11-23T13:17:54.0000000+00:00</time></trkpt><trkpt lat="30.61018181" lon="34.80551529"><ele>849.6</ele><time>2013-11-23T13:17:59.0000000+00:00</time></trkpt><trkpt lat="30.61013794" lon="34.80554199"><ele>849.4</ele><time>2013-11-23T13:18:04.0000000+00:00</time></trkpt><trkpt lat="30.61008644" lon="34.80557632"><ele>849.3</ele><time>2013-11-23T13:18:09.0000000+00:00</time></trkpt><trkpt lat="30.61004257" lon="34.80561066"><ele>848.2</ele><time>2013-11-23T13:18:14.0000000+00:00</time></trkpt><trkpt lat="30.61000633" lon="34.8056488"><ele>849.0</ele><time>2013-11-23T13:18:19.0000000+00:00</time></trkpt><trkpt lat="30.60997963" lon="34.80567932"><ele>849.1</ele><time>2013-11-23T13:18:24.0000000+00:00</time></trkpt><trkpt lat="30.60993004" lon="34.80570984"><ele>848.9</ele><time>2013-11-23T13:18:29.0000000+00:00</time></trkpt><trkpt lat="30.60989761" lon="34.80574417"><ele>849.7</ele><time>2013-11-23T13:18:34.0000000+00:00</time></trkpt><trkpt lat="30.60984802" lon="34.80576325"><ele>850.2</ele><time>2013-11-23T13:18:39.0000000+00:00</time></trkpt><trkpt lat="30.60980225" lon="34.80580521"><ele>850.2</ele><time>2013-11-23T13:18:44.0000000+00:00</time></trkpt><trkpt lat="30.60977745" lon="34.80580902"><ele>850.4</ele><time>2013-11-23T13:18:49.0000000+00:00</time></trkpt><trkpt lat="30.60974121" lon="34.80585861"><ele>850.9</ele><time>2013-11-23T13:18:54.0000000+00:00</time></trkpt><trkpt lat="30.60969162" lon="34.80589676"><ele>850.7</ele><time>2013-11-23T13:18:59.0000000+00:00</time></trkpt><trkpt lat="30.60964775" lon="34.80594254"><ele>850.9</ele><time>2013-11-23T13:19:04.0000000+00:00</time></trkpt><trkpt lat="30.60958862" lon="34.8059845"><ele>852.1</ele><time>2013-11-23T13:19:09.0000000+00:00</time></trkpt><trkpt lat="30.60952568" lon="34.80601502"><ele>852.1</ele><time>2013-11-23T13:19:14.0000000+00:00</time></trkpt><trkpt lat="30.60946083" lon="34.80607224"><ele>854.0</ele><time>2013-11-23T13:19:19.0000000+00:00</time></trkpt><trkpt lat="30.6093998" lon="34.8061409"><ele>855.5</ele><time>2013-11-23T13:19:24.0000000+00:00</time></trkpt><trkpt lat="30.60929871" lon="34.80620956"><ele>855.9</ele><time>2013-11-23T13:19:29.0000000+00:00</time></trkpt><trkpt lat="30.60917282" lon="34.80618668"><ele>856.2</ele><time>2013-11-23T13:19:34.0000000+00:00</time></trkpt><trkpt lat="30.60907364" lon="34.80612564"><ele>857.5</ele><time>2013-11-23T13:19:39.0000000+00:00</time></trkpt><trkpt lat="30.60894775" lon="34.80605698"><ele>857.4</ele><time>2013-11-23T13:19:44.0000000+00:00</time></trkpt><trkpt lat="30.60884666" lon="34.80600357"><ele>857.6</ele><time>2013-11-23T13:19:49.0000000+00:00</time></trkpt><trkpt lat="30.60873413" lon="34.80594254"><ele>857.0</ele><time>2013-11-23T13:19:54.0000000+00:00</time></trkpt><trkpt lat="30.60858727" lon="34.80591202"><ele>857.5</ele><time>2013-11-23T13:19:59.0000000+00:00</time></trkpt><trkpt lat="30.60843658" lon="34.80590057"><ele>858.0</ele><time>2013-11-23T13:20:04.0000000+00:00</time></trkpt><trkpt lat="30.60835075" lon="34.80590057"><ele>858.2</ele><time>2013-11-23T13:20:09.0000000+00:00</time></trkpt><trkpt lat="30.60834122" lon="34.80589676"><ele>858.4</ele><time>2013-11-23T13:20:14.0000000+00:00</time></trkpt><trkpt lat="30.60834122" lon="34.80589676"><ele>858.3</ele><time>2013-11-23T13:20:19.0000000+00:00</time></trkpt><trkpt lat="30.60834122" lon="34.80590057"><ele>858.3</ele><time>2013-11-23T13:20:24.0000000+00:00</time></trkpt><trkpt lat="30.60834122" lon="34.80590057"><ele>858.3</ele><time>2013-11-23T13:20:29.0000000+00:00</time></trkpt><trkpt lat="30.60834122" lon="34.80590057"><ele>858.4</ele><time>2013-11-23T13:20:34.0000000+00:00</time></trkpt><trkpt lat="30.60834122" lon="34.80590057"><ele>858.4</ele><time>2013-11-23T13:20:39.0000000+00:00</time></trkpt><trkpt lat="30.60834122" lon="34.80590057"><ele>858.4</ele><time>2013-11-23T13:20:44.0000000+00:00</time></trkpt><trkpt lat="30.60834122" lon="34.80590057"><ele>858.3</ele><time>2013-11-23T13:20:49.0000000+00:00</time></trkpt><trkpt lat="30.60833931" lon="34.80590057"><ele>858.3</ele><time>2013-11-23T13:20:54.0000000+00:00</time></trkpt><trkpt lat="30.60833931" lon="34.80590057"><ele>858.4</ele><time>2013-11-23T13:20:59.0000000+00:00</time></trkpt><trkpt lat="30.60833931" lon="34.80590057"><ele>858.4</ele><time>2013-11-23T13:21:04.0000000+00:00</time></trkpt><trkpt lat="30.60833931" lon="34.80590057"><ele>858.4</ele><time>2013-11-23T13:21:09.0000000+00:00</time></trkpt><trkpt lat="30.60833931" lon="34.80590057"><ele>858.4</ele><time>2013-11-23T13:21:14.0000000+00:00</time></trkpt><trkpt lat="30.60833931" lon="34.80590057"><ele>858.4</ele><time>2013-11-23T13:21:19.0000000+00:00</time></trkpt><trkpt lat="30.60833931" lon="34.80590057"><ele>858.4</ele><time>2013-11-23T13:21:24.0000000+00:00</time></trkpt><trkpt lat="30.60833931" lon="34.80590057"><ele>858.5</ele><time>2013-11-23T13:21:29.0000000+00:00</time></trkpt><trkpt lat="30.60833931" lon="34.80590057"><ele>858.5</ele><time>2013-11-23T13:21:34.0000000+00:00</time></trkpt><trkpt lat="30.60833931" lon="34.80590057"><ele>858.5</ele><time>2013-11-23T13:21:39.0000000+00:00</time></trkpt><trkpt lat="30.60833931" lon="34.80590057"><ele>858.5</ele><time>2013-11-23T13:21:44.0000000+00:00</time></trkpt><trkpt lat="30.60833931" lon="34.80590057"><ele>858.5</ele><time>2013-11-23T13:21:49.0000000+00:00</time></trkpt><trkpt lat="30.60833931" lon="34.80589676"><ele>858.5</ele><time>2013-11-23T13:21:54.0000000+00:00</time></trkpt><trkpt lat="30.60833931" lon="34.80589676"><ele>858.5</ele><time>2013-11-23T13:21:59.0000000+00:00</time></trkpt><trkpt lat="30.60833931" lon="34.80589676"><ele>858.5</ele><time>2013-11-23T13:22:04.0000000+00:00</time></trkpt><trkpt lat="30.60833931" lon="34.80589676"><ele>858.5</ele><time>2013-11-23T13:22:09.0000000+00:00</time></trkpt><trkpt lat="30.60833931" lon="34.80589676"><ele>858.5</ele><time>2013-11-23T13:22:14.0000000+00:00</time></trkpt><trkpt lat="30.60833931" lon="34.80589676"><ele>858.5</ele><time>2013-11-23T13:22:19.0000000+00:00</time></trkpt><trkpt lat="30.60833931" lon="34.80589676"><ele>858.5</ele><time>2013-11-23T13:22:24.0000000+00:00</time></trkpt><trkpt lat="30.60833931" lon="34.80589676"><ele>858.4</ele><time>2013-11-23T13:22:29.0000000+00:00</time></trkpt><trkpt lat="30.60833931" lon="34.80589676"><ele>858.4</ele><time>2013-11-23T13:22:34.0000000+00:00</time></trkpt><trkpt lat="30.6083374" lon="34.80589676"><ele>858.4</ele><time>2013-11-23T13:22:39.0000000+00:00</time></trkpt><trkpt lat="30.6083374" lon="34.80589676"><ele>858.4</ele><time>2013-11-23T13:22:44.0000000+00:00</time></trkpt><trkpt lat="30.6083374" lon="34.80589676"><ele>858.4</ele><time>2013-11-23T13:22:49.0000000+00:00</time></trkpt><trkpt lat="30.6083374" lon="34.80590057"><ele>858.4</ele><time>2013-11-23T13:22:54.0000000+00:00</time></trkpt><trkpt lat="30.6083374" lon="34.80590057"><ele>858.3</ele><time>2013-11-23T13:22:59.0000000+00:00</time></trkpt><trkpt lat="30.6083374" lon="34.80590057"><ele>858.3</ele><time>2013-11-23T13:23:04.0000000+00:00</time></trkpt><trkpt lat="30.6083374" lon="34.80590057"><ele>858.3</ele><time>2013-11-23T13:23:09.0000000+00:00</time></trkpt><trkpt lat="30.6083374" lon="34.80590057"><ele>858.3</ele><time>2013-11-23T13:23:14.0000000+00:00</time></trkpt><trkpt lat="30.6083374" lon="34.80590057"><ele>858.3</ele><time>2013-11-23T13:23:19.0000000+00:00</time></trkpt><trkpt lat="30.6083374" lon="34.80590057"><ele>858.3</ele><time>2013-11-23T13:23:24.0000000+00:00</time></trkpt><trkpt lat="30.6083374" lon="34.80590057"><ele>858.3</ele><time>2013-11-23T13:23:29.0000000+00:00</time></trkpt><trkpt lat="30.6083355" lon="34.80590057"><ele>858.2</ele><time>2013-11-23T13:23:34.0000000+00:00</time></trkpt><trkpt lat="30.6083355" lon="34.80590057"><ele>858.2</ele><time>2013-11-23T13:23:39.0000000+00:00</time></trkpt><trkpt lat="30.6083355" lon="34.80590057"><ele>858.2</ele><time>2013-11-23T13:23:44.0000000+00:00</time></trkpt><trkpt lat="30.6083355" lon="34.80590057"><ele>858.2</ele><time>2013-11-23T13:23:49.0000000+00:00</time></trkpt><trkpt lat="30.6083355" lon="34.80590057"><ele>858.2</ele><time>2013-11-23T13:23:54.0000000+00:00</time></trkpt><trkpt lat="30.6083355" lon="34.80590057"><ele>858.1</ele><time>2013-11-23T13:23:59.0000000+00:00</time></trkpt><trkpt lat="30.6083355" lon="34.80590057"><ele>858.1</ele><time>2013-11-23T13:24:04.0000000+00:00</time></trkpt><trkpt lat="30.6083355" lon="34.80590057"><ele>858.1</ele><time>2013-11-23T13:24:09.0000000+00:00</time></trkpt><trkpt lat="30.6083355" lon="34.80590057"><ele>858.0</ele><time>2013-11-23T13:24:14.0000000+00:00</time></trkpt><trkpt lat="30.6083355" lon="34.80590439"><ele>858.0</ele><time>2013-11-23T13:24:19.0000000+00:00</time></trkpt><trkpt lat="30.6083355" lon="34.80590439"><ele>858.0</ele><time>2013-11-23T13:24:24.0000000+00:00</time></trkpt><trkpt lat="30.60833359" lon="34.80590439"><ele>858.0</ele><time>2013-11-23T13:24:29.0000000+00:00</time></trkpt><trkpt lat="30.60833359" lon="34.80590439"><ele>858.0</ele><time>2013-11-23T13:24:34.0000000+00:00</time></trkpt><trkpt lat="30.60833359" lon="34.80590439"><ele>857.9</ele><time>2013-11-23T13:24:39.0000000+00:00</time></trkpt><trkpt lat="30.60833359" lon="34.80590439"><ele>857.9</ele><time>2013-11-23T13:24:44.0000000+00:00</time></trkpt><trkpt lat="30.60833359" lon="34.80590439"><ele>857.9</ele><time>2013-11-23T13:24:49.0000000+00:00</time></trkpt><trkpt lat="30.60833359" lon="34.80590439"><ele>857.9</ele><time>2013-11-23T13:24:54.0000000+00:00</time></trkpt><trkpt lat="30.60833359" lon="34.80590439"><ele>857.8</ele><time>2013-11-23T13:24:59.0000000+00:00</time></trkpt><trkpt lat="30.60833359" lon="34.80590439"><ele>857.8</ele><time>2013-11-23T13:25:04.0000000+00:00</time></trkpt><trkpt lat="30.60833359" lon="34.80590439"><ele>857.8</ele><time>2013-11-23T13:25:09.0000000+00:00</time></trkpt><trkpt lat="30.60833359" lon="34.80590439"><ele>857.8</ele><time>2013-11-23T13:25:14.0000000+00:00</time></trkpt><trkpt lat="30.60833359" lon="34.8059082"><ele>857.7</ele><time>2013-11-23T13:25:19.0000000+00:00</time></trkpt><trkpt lat="30.60833359" lon="34.8059082"><ele>857.7</ele><time>2013-11-23T13:25:24.0000000+00:00</time></trkpt><trkpt lat="30.60833359" lon="34.8059082"><ele>857.7</ele><time>2013-11-23T13:25:29.0000000+00:00</time></trkpt><trkpt lat="30.60833359" lon="34.8059082"><ele>857.6</ele><time>2013-11-23T13:25:34.0000000+00:00</time></trkpt><trkpt lat="30.60833359" lon="34.8059082"><ele>857.6</ele><time>2013-11-23T13:25:39.0000000+00:00</time></trkpt><trkpt lat="30.6083355" lon="34.8059082"><ele>857.6</ele><time>2013-11-23T13:25:44.0000000+00:00</time></trkpt><trkpt lat="30.60838318" lon="34.80594635"><ele>857.9</ele><time>2013-11-23T13:25:49.0000000+00:00</time></trkpt><trkpt lat="30.60838318" lon="34.80604172"><ele>855.6</ele><time>2013-11-23T13:25:54.0000000+00:00</time></trkpt><trkpt lat="30.60837555" lon="34.8061142"><ele>855.2</ele><time>2013-11-23T13:25:59.0000000+00:00</time></trkpt><trkpt lat="30.60836029" lon="34.80617142"><ele>855.9</ele><time>2013-11-23T13:26:04.0000000+00:00</time></trkpt><trkpt lat="30.60835266" lon="34.80617523"><ele>856.4</ele><time>2013-11-23T13:26:09.0000000+00:00</time></trkpt><trkpt lat="30.60834885" lon="34.8062439"><ele>857.6</ele><time>2013-11-23T13:26:14.0000000+00:00</time></trkpt><trkpt lat="30.60835648" lon="34.80631256"><ele>859.6</ele><time>2013-11-23T13:26:19.0000000+00:00</time></trkpt><trkpt lat="30.60833931" lon="34.80638504"><ele>860.5</ele><time>2013-11-23T13:26:24.0000000+00:00</time></trkpt><trkpt lat="30.60834503" lon="34.80646896"><ele>861.8</ele><time>2013-11-23T13:26:29.0000000+00:00</time></trkpt><trkpt lat="30.60834694" lon="34.8065033"><ele>862.8</ele><time>2013-11-23T13:26:34.0000000+00:00</time></trkpt><trkpt lat="30.60834694" lon="34.80650711"><ele>862.8</ele><time>2013-11-23T13:26:39.0000000+00:00</time></trkpt><trkpt lat="30.60834694" lon="34.80650711"><ele>862.8</ele><time>2013-11-23T13:26:44.0000000+00:00</time></trkpt><trkpt lat="30.60834694" lon="34.80650711"><ele>862.8</ele><time>2013-11-23T13:26:49.0000000+00:00</time></trkpt><trkpt lat="30.60834694" lon="34.80650711"><ele>862.9</ele><time>2013-11-23T13:26:54.0000000+00:00</time></trkpt><trkpt lat="30.60832977" lon="34.80653763"><ele>863.7</ele><time>2013-11-23T13:26:59.0000000+00:00</time></trkpt><trkpt lat="30.60832787" lon="34.8065567"><ele>863.8</ele><time>2013-11-23T13:27:04.0000000+00:00</time></trkpt><trkpt lat="30.60832214" lon="34.80653381"><ele>863.3</ele><time>2013-11-23T13:27:09.0000000+00:00</time></trkpt><trkpt lat="30.60831833" lon="34.80654526"><ele>863.2</ele><time>2013-11-23T13:27:14.0000000+00:00</time></trkpt><trkpt lat="30.60831642" lon="34.80654144"><ele>862.7</ele><time>2013-11-23T13:27:19.0000000+00:00</time></trkpt><trkpt lat="30.60831261" lon="34.80653381"><ele>862.2</ele><time>2013-11-23T13:27:24.0000000+00:00</time></trkpt><trkpt lat="30.6083107" lon="34.80652237"><ele>861.7</ele><time>2013-11-23T13:27:29.0000000+00:00</time></trkpt><trkpt lat="30.60830689" lon="34.80651474"><ele>861.3</ele><time>2013-11-23T13:27:34.0000000+00:00</time></trkpt><trkpt lat="30.60830498" lon="34.80651093"><ele>861.1</ele><time>2013-11-23T13:27:39.0000000+00:00</time></trkpt><trkpt lat="30.60830498" lon="34.8065033"><ele>861.0</ele><time>2013-11-23T13:27:44.0000000+00:00</time></trkpt><trkpt lat="30.60830307" lon="34.80649567"><ele>861.0</ele><time>2013-11-23T13:27:49.0000000+00:00</time></trkpt><trkpt lat="30.60830307" lon="34.80648804"><ele>861.1</ele><time>2013-11-23T13:27:54.0000000+00:00</time></trkpt><trkpt lat="30.60830116" lon="34.80647659"><ele>861.4</ele><time>2013-11-23T13:27:59.0000000+00:00</time></trkpt><trkpt lat="30.60830116" lon="34.80646896"><ele>861.8</ele><time>2013-11-23T13:28:04.0000000+00:00</time></trkpt><trkpt lat="30.60830307" lon="34.80645752"><ele>862.5</ele><time>2013-11-23T13:28:09.0000000+00:00</time></trkpt><trkpt lat="30.60830498" lon="34.80645371"><ele>863.3</ele><time>2013-11-23T13:28:14.0000000+00:00</time></trkpt><trkpt lat="30.60830689" lon="34.80644989"><ele>864.2</ele><time>2013-11-23T13:28:19.0000000+00:00</time></trkpt><trkpt lat="30.6083107" lon="34.80644608"><ele>865.1</ele><time>2013-11-23T13:28:24.0000000+00:00</time></trkpt><trkpt lat="30.60831261" lon="34.80643845"><ele>866.2</ele><time>2013-11-23T13:28:29.0000000+00:00</time></trkpt><trkpt lat="30.60831642" lon="34.80643082"><ele>867.4</ele><time>2013-11-23T13:28:34.0000000+00:00</time></trkpt><trkpt lat="30.60831833" lon="34.80641937"><ele>868.7</ele><time>2013-11-23T13:28:39.0000000+00:00</time></trkpt><trkpt lat="30.60832024" lon="34.80640411"><ele>870.0</ele><time>2013-11-23T13:28:44.0000000+00:00</time></trkpt><trkpt lat="30.60832214" lon="34.80639267"><ele>871.4</ele><time>2013-11-23T13:28:49.0000000+00:00</time></trkpt><trkpt lat="30.60832596" lon="34.80638123"><ele>872.7</ele><time>2013-11-23T13:28:54.0000000+00:00</time></trkpt><trkpt lat="30.60832787" lon="34.80636978"><ele>874.1</ele><time>2013-11-23T13:28:59.0000000+00:00</time></trkpt><trkpt lat="30.60833168" lon="34.80635834"><ele>875.5</ele><time>2013-11-23T13:29:04.0000000+00:00</time></trkpt><trkpt lat="30.60833359" lon="34.80633545"><ele>877.4</ele><time>2013-11-23T13:29:09.0000000+00:00</time></trkpt><trkpt lat="30.60833168" lon="34.80631256"><ele>878.4</ele><time>2013-11-23T13:29:14.0000000+00:00</time></trkpt><trkpt lat="30.60832596" lon="34.80628967"><ele>880.3</ele><time>2013-11-23T13:29:19.0000000+00:00</time></trkpt><trkpt lat="30.60832787" lon="34.8062973"><ele>881.8</ele><time>2013-11-23T13:29:24.0000000+00:00</time></trkpt><trkpt lat="30.60832977" lon="34.80628967"><ele>882.8</ele><time>2013-11-23T13:29:29.0000000+00:00</time></trkpt><trkpt lat="30.60833168" lon="34.80627823"><ele>883.9</ele><time>2013-11-23T13:29:34.0000000+00:00</time></trkpt><trkpt lat="30.6083355" lon="34.80627441"><ele>884.9</ele><time>2013-11-23T13:29:39.0000000+00:00</time></trkpt><trkpt lat="30.6083374" lon="34.8062706"><ele>886.0</ele><time>2013-11-23T13:29:44.0000000+00:00</time></trkpt><trkpt lat="30.60834122" lon="34.80625916"><ele>887.1</ele><time>2013-11-23T13:29:49.0000000+00:00</time></trkpt><trkpt lat="30.60834312" lon="34.80625153"><ele>888.1</ele><time>2013-11-23T13:29:54.0000000+00:00</time></trkpt><trkpt lat="30.60834503" lon="34.8062439"><ele>889.1</ele><time>2013-11-23T13:29:59.0000000+00:00</time></trkpt><trkpt lat="30.60834694" lon="34.80623627"><ele>890.2</ele><time>2013-11-23T13:30:04.0000000+00:00</time></trkpt><trkpt lat="30.60834885" lon="34.80622864"><ele>891.2</ele><time>2013-11-23T13:30:09.0000000+00:00</time></trkpt><trkpt lat="30.60835075" lon="34.80622101"><ele>892.2</ele><time>2013-11-23T13:30:14.0000000+00:00</time></trkpt><trkpt lat="30.60835266" lon="34.80621338"><ele>893.1</ele><time>2013-11-23T13:30:19.0000000+00:00</time></trkpt><trkpt lat="30.60835457" lon="34.80620575"><ele>894.1</ele><time>2013-11-23T13:30:24.0000000+00:00</time></trkpt><trkpt lat="30.60835838" lon="34.80619812"><ele>895.0</ele><time>2013-11-23T13:30:29.0000000+00:00</time></trkpt><trkpt lat="30.60835838" lon="34.80619431"><ele>895.9</ele><time>2013-11-23T13:30:34.0000000+00:00</time></trkpt><trkpt lat="30.60836029" lon="34.80618668"><ele>896.8</ele><time>2013-11-23T13:30:39.0000000+00:00</time></trkpt><trkpt lat="30.6083622" lon="34.80617905"><ele>897.5</ele><time>2013-11-23T13:30:44.0000000+00:00</time></trkpt><trkpt lat="30.60836411" lon="34.80617523"><ele>898.3</ele><time>2013-11-23T13:30:49.0000000+00:00</time></trkpt><trkpt lat="30.60836601" lon="34.80617142"><ele>899.0</ele><time>2013-11-23T13:30:54.0000000+00:00</time></trkpt><trkpt lat="30.60836792" lon="34.80617142"><ele>899.7</ele><time>2013-11-23T13:30:59.0000000+00:00</time></trkpt><trkpt lat="30.60837174" lon="34.80617905"><ele>900.3</ele><time>2013-11-23T13:31:04.0000000+00:00</time></trkpt><trkpt lat="30.60837364" lon="34.80617905"><ele>900.8</ele><time>2013-11-23T13:31:09.0000000+00:00</time></trkpt><trkpt lat="30.60837364" lon="34.80617905"><ele>901.4</ele><time>2013-11-23T13:31:14.0000000+00:00</time></trkpt><trkpt lat="30.60837555" lon="34.80618286"><ele>901.8</ele><time>2013-11-23T13:31:19.0000000+00:00</time></trkpt><trkpt lat="30.60837746" lon="34.80617905"><ele>902.3</ele><time>2013-11-23T13:31:24.0000000+00:00</time></trkpt><trkpt lat="30.60837746" lon="34.80617905"><ele>902.6</ele><time>2013-11-23T13:31:29.0000000+00:00</time></trkpt><trkpt lat="30.60837746" lon="34.80617905"><ele>902.8</ele><time>2013-11-23T13:31:34.0000000+00:00</time></trkpt><trkpt lat="30.60837746" lon="34.80617905"><ele>902.8</ele><time>2013-11-23T13:31:39.0000000+00:00</time></trkpt><trkpt lat="30.60837746" lon="34.80617905"><ele>902.8</ele><time>2013-11-23T13:31:44.0000000+00:00</time></trkpt><trkpt lat="30.60837746" lon="34.80617905"><ele>902.7</ele><time>2013-11-23T13:31:49.0000000+00:00</time></trkpt><trkpt lat="30.60837746" lon="34.80617905"><ele>902.7</ele><time>2013-11-23T13:31:54.0000000+00:00</time></trkpt><trkpt lat="30.60837746" lon="34.80617905"><ele>902.7</ele><time>2013-11-23T13:31:59.0000000+00:00</time></trkpt><trkpt lat="30.60837746" lon="34.80617905"><ele>902.7</ele><time>2013-11-23T13:32:04.0000000+00:00</time></trkpt><trkpt lat="30.60837746" lon="34.80618286"><ele>902.7</ele><time>2013-11-23T13:32:09.0000000+00:00</time></trkpt><trkpt lat="30.60837555" lon="34.80618286"><ele>902.7</ele><time>2013-11-23T13:32:14.0000000+00:00</time></trkpt><trkpt lat="30.60837555" lon="34.80618286"><ele>902.7</ele><time>2013-11-23T13:32:19.0000000+00:00</time></trkpt><trkpt lat="30.60837555" lon="34.80618286"><ele>902.7</ele><time>2013-11-23T13:32:24.0000000+00:00</time></trkpt><trkpt lat="30.60837555" lon="34.80618286"><ele>902.7</ele><time>2013-11-23T13:32:29.0000000+00:00</time></trkpt><trkpt lat="30.60837555" lon="34.80618286"><ele>902.7</ele><time>2013-11-23T13:32:34.0000000+00:00</time></trkpt><trkpt lat="30.60837555" lon="34.80618286"><ele>902.7</ele><time>2013-11-23T13:32:39.0000000+00:00</time></trkpt><trkpt lat="30.60837555" lon="34.80618668"><ele>902.6</ele><time>2013-11-23T13:32:44.0000000+00:00</time></trkpt><trkpt lat="30.60837555" lon="34.80618668"><ele>902.6</ele><time>2013-11-23T13:32:49.0000000+00:00</time></trkpt><trkpt lat="30.60837555" lon="34.80618668"><ele>902.6</ele><time>2013-11-23T13:32:54.0000000+00:00</time></trkpt><trkpt lat="30.60837555" lon="34.80618668"><ele>902.6</ele><time>2013-11-23T13:32:59.0000000+00:00</time></trkpt><trkpt lat="30.60837555" lon="34.80618668"><ele>902.6</ele><time>2013-11-23T13:33:04.0000000+00:00</time></trkpt><trkpt lat="30.60837555" lon="34.80618668"><ele>902.6</ele><time>2013-11-23T13:33:09.0000000+00:00</time></trkpt><trkpt lat="30.60837555" lon="34.80619049"><ele>902.6</ele><time>2013-11-23T13:33:14.0000000+00:00</time></trkpt><trkpt lat="30.60837364" lon="34.80619049"><ele>902.5</ele><time>2013-11-23T13:33:19.0000000+00:00</time></trkpt><trkpt lat="30.60837364" lon="34.80619049"><ele>902.5</ele><time>2013-11-23T13:33:24.0000000+00:00</time></trkpt><trkpt lat="30.60837364" lon="34.80619049"><ele>902.5</ele><time>2013-11-23T13:33:29.0000000+00:00</time></trkpt><trkpt lat="30.60837364" lon="34.80619049"><ele>902.5</ele><time>2013-11-23T13:33:34.0000000+00:00</time></trkpt><trkpt lat="30.60837364" lon="34.80619049"><ele>902.5</ele><time>2013-11-23T13:33:39.0000000+00:00</time></trkpt><trkpt lat="30.60837364" lon="34.80619431"><ele>902.5</ele><time>2013-11-23T13:33:44.0000000+00:00</time></trkpt><trkpt lat="30.60837364" lon="34.80619431"><ele>902.4</ele><time>2013-11-23T13:33:49.0000000+00:00</time></trkpt><trkpt lat="30.60837364" lon="34.80619431"><ele>902.4</ele><time>2013-11-23T13:33:54.0000000+00:00</time></trkpt><trkpt lat="30.60837364" lon="34.80619431"><ele>902.4</ele><time>2013-11-23T13:33:59.0000000+00:00</time></trkpt><trkpt lat="30.60837364" lon="34.80619431"><ele>902.4</ele><time>2013-11-23T13:34:04.0000000+00:00</time></trkpt><trkpt lat="30.60837364" lon="34.80619431"><ele>902.4</ele><time>2013-11-23T13:34:09.0000000+00:00</time></trkpt><trkpt lat="30.60837364" lon="34.80619431"><ele>902.4</ele><time>2013-11-23T13:34:14.0000000+00:00</time></trkpt><trkpt lat="30.60837174" lon="34.80619431"><ele>902.4</ele><time>2013-11-23T13:34:19.0000000+00:00</time></trkpt><trkpt lat="30.60837174" lon="34.80619812"><ele>902.4</ele><time>2013-11-23T13:34:24.0000000+00:00</time></trkpt><trkpt lat="30.60837174" lon="34.80619812"><ele>902.4</ele><time>2013-11-23T13:34:29.0000000+00:00</time></trkpt><trkpt lat="30.60837174" lon="34.80619812"><ele>902.4</ele><time>2013-11-23T13:34:34.0000000+00:00</time></trkpt><trkpt lat="30.60837174" lon="34.80619812"><ele>902.3</ele><time>2013-11-23T13:34:39.0000000+00:00</time></trkpt><trkpt lat="30.60837174" lon="34.80619812"><ele>902.3</ele><time>2013-11-23T13:34:44.0000000+00:00</time></trkpt><trkpt lat="30.60837174" lon="34.80619812"><ele>902.2</ele><time>2013-11-23T13:34:49.0000000+00:00</time></trkpt><trkpt lat="30.60837174" lon="34.80619812"><ele>902.2</ele><time>2013-11-23T13:34:54.0000000+00:00</time></trkpt><trkpt lat="30.60837174" lon="34.80620194"><ele>902.2</ele><time>2013-11-23T13:34:59.0000000+00:00</time></trkpt><trkpt lat="30.60837174" lon="34.80620194"><ele>902.2</ele><time>2013-11-23T13:35:04.0000000+00:00</time></trkpt><trkpt lat="30.60836983" lon="34.80620194"><ele>902.2</ele><time>2013-11-23T13:35:09.0000000+00:00</time></trkpt><trkpt lat="30.60836983" lon="34.80620194"><ele>902.2</ele><time>2013-11-23T13:35:14.0000000+00:00</time></trkpt><trkpt lat="30.60836983" lon="34.80620194"><ele>902.2</ele><time>2013-11-23T13:35:19.0000000+00:00</time></trkpt><trkpt lat="30.60836983" lon="34.80620194"><ele>902.2</ele><time>2013-11-23T13:35:24.0000000+00:00</time></trkpt><trkpt lat="30.60836983" lon="34.80620194"><ele>902.2</ele><time>2013-11-23T13:35:29.0000000+00:00</time></trkpt><trkpt lat="30.60836983" lon="34.80620194"><ele>902.1</ele><time>2013-11-23T13:35:34.0000000+00:00</time></trkpt><trkpt lat="30.60836983" lon="34.80620575"><ele>902.1</ele><time>2013-11-23T13:35:39.0000000+00:00</time></trkpt><trkpt lat="30.60836983" lon="34.80620575"><ele>902.1</ele><time>2013-11-23T13:35:44.0000000+00:00</time></trkpt><trkpt lat="30.60836983" lon="34.80620575"><ele>902.1</ele><time>2013-11-23T13:35:49.0000000+00:00</time></trkpt><trkpt lat="30.60836983" lon="34.80620575"><ele>902.1</ele><time>2013-11-23T13:35:54.0000000+00:00</time></trkpt><trkpt lat="30.60836792" lon="34.80620575"><ele>902.0</ele><time>2013-11-23T13:35:59.0000000+00:00</time></trkpt><trkpt lat="30.60836792" lon="34.80620575"><ele>902.0</ele><time>2013-11-23T13:36:04.0000000+00:00</time></trkpt><trkpt lat="30.60836792" lon="34.80620575"><ele>902.0</ele><time>2013-11-23T13:36:09.0000000+00:00</time></trkpt><trkpt lat="30.60836792" lon="34.80620956"><ele>902.0</ele><time>2013-11-23T13:36:14.0000000+00:00</time></trkpt><trkpt lat="30.60836792" lon="34.80620956"><ele>902.0</ele><time>2013-11-23T13:36:19.0000000+00:00</time></trkpt><trkpt lat="30.60836792" lon="34.80620956"><ele>901.9</ele><time>2013-11-23T13:36:24.0000000+00:00</time></trkpt><trkpt lat="30.60836792" lon="34.80620956"><ele>901.9</ele><time>2013-11-23T13:36:29.0000000+00:00</time></trkpt><trkpt lat="30.60836792" lon="34.80620956"><ele>901.9</ele><time>2013-11-23T13:36:34.0000000+00:00</time></trkpt><trkpt lat="30.60836792" lon="34.80620956"><ele>901.9</ele><time>2013-11-23T13:36:39.0000000+00:00</time></trkpt><trkpt lat="30.60836792" lon="34.80621338"><ele>901.9</ele><time>2013-11-23T13:36:44.0000000+00:00</time></trkpt><trkpt lat="30.60836792" lon="34.80621719"><ele>901.9</ele><time>2013-11-23T13:36:49.0000000+00:00</time></trkpt><trkpt lat="30.60836792" lon="34.80622482"><ele>901.9</ele><time>2013-11-23T13:36:54.0000000+00:00</time></trkpt><trkpt lat="30.60836983" lon="34.80622864"><ele>902.0</ele><time>2013-11-23T13:36:59.0000000+00:00</time></trkpt><trkpt lat="30.60836983" lon="34.80623627"><ele>902.0</ele><time>2013-11-23T13:37:04.0000000+00:00</time></trkpt><trkpt lat="30.60836983" lon="34.80624008"><ele>902.0</ele><time>2013-11-23T13:37:09.0000000+00:00</time></trkpt><trkpt lat="30.60836983" lon="34.80624771"><ele>902.0</ele><time>2013-11-23T13:37:14.0000000+00:00</time></trkpt><trkpt lat="30.60837174" lon="34.80625153"><ele>902.0</ele><time>2013-11-23T13:37:19.0000000+00:00</time></trkpt><trkpt lat="30.60837174" lon="34.80625534"><ele>902.0</ele><time>2013-11-23T13:37:24.0000000+00:00</time></trkpt><trkpt lat="30.60837174" lon="34.80626297"><ele>902.0</ele><time>2013-11-23T13:37:29.0000000+00:00</time></trkpt><trkpt lat="30.60837174" lon="34.80626679"><ele>902.0</ele><time>2013-11-23T13:37:34.0000000+00:00</time></trkpt><trkpt lat="30.60837174" lon="34.8062706"><ele>902.0</ele><time>2013-11-23T13:37:39.0000000+00:00</time></trkpt><trkpt lat="30.60837174" lon="34.80627441"><ele>902.0</ele><time>2013-11-23T13:37:44.0000000+00:00</time></trkpt><trkpt lat="30.60837174" lon="34.80627823"><ele>902.0</ele><time>2013-11-23T13:37:49.0000000+00:00</time></trkpt><trkpt lat="30.60837364" lon="34.80628586"><ele>902.0</ele><time>2013-11-23T13:37:54.0000000+00:00</time></trkpt><trkpt lat="30.60837364" lon="34.80628967"><ele>902.0</ele><time>2013-11-23T13:37:59.0000000+00:00</time></trkpt><trkpt lat="30.60837364" lon="34.80629349"><ele>901.9</ele><time>2013-11-23T13:38:04.0000000+00:00</time></trkpt><trkpt lat="30.60837364" lon="34.8062973"><ele>901.8</ele><time>2013-11-23T13:38:09.0000000+00:00</time></trkpt><trkpt lat="30.60837364" lon="34.80630112"><ele>901.6</ele><time>2013-11-23T13:38:14.0000000+00:00</time></trkpt><trkpt lat="30.60837364" lon="34.80630493"><ele>901.5</ele><time>2013-11-23T13:38:19.0000000+00:00</time></trkpt><trkpt lat="30.60837174" lon="34.80630875"><ele>901.3</ele><time>2013-11-23T13:38:24.0000000+00:00</time></trkpt><trkpt lat="30.60837174" lon="34.80631256"><ele>901.1</ele><time>2013-11-23T13:38:29.0000000+00:00</time></trkpt><trkpt lat="30.60837174" lon="34.80631638"><ele>900.9</ele><time>2013-11-23T13:38:34.0000000+00:00</time></trkpt><trkpt lat="30.60837174" lon="34.80632019"><ele>900.7</ele><time>2013-11-23T13:38:39.0000000+00:00</time></trkpt><trkpt lat="30.60836983" lon="34.80632019"><ele>900.5</ele><time>2013-11-23T13:38:44.0000000+00:00</time></trkpt><trkpt lat="30.60836983" lon="34.80632019"><ele>900.5</ele><time>2013-11-23T13:38:49.0000000+00:00</time></trkpt><trkpt lat="30.60836983" lon="34.80632019"><ele>900.4</ele><time>2013-11-23T13:38:54.0000000+00:00</time></trkpt><trkpt lat="30.60836983" lon="34.80632401"><ele>900.3</ele><time>2013-11-23T13:38:59.0000000+00:00</time></trkpt><trkpt lat="30.60836983" lon="34.80632401"><ele>900.2</ele><time>2013-11-23T13:39:04.0000000+00:00</time></trkpt><trkpt lat="30.60836983" lon="34.80632782"><ele>900.0</ele><time>2013-11-23T13:39:09.0000000+00:00</time></trkpt><trkpt lat="30.60836792" lon="34.80632782"><ele>899.9</ele><time>2013-11-23T13:39:14.0000000+00:00</time></trkpt><trkpt lat="30.60836792" lon="34.80632782"><ele>899.9</ele><time>2013-11-23T13:39:19.0000000+00:00</time></trkpt><trkpt lat="30.60836792" lon="34.80632782"><ele>899.8</ele><time>2013-11-23T13:39:24.0000000+00:00</time></trkpt><trkpt lat="30.60836792" lon="34.80633164"><ele>899.7</ele><time>2013-11-23T13:39:29.0000000+00:00</time></trkpt><trkpt lat="30.60836792" lon="34.80633164"><ele>899.5</ele><time>2013-11-23T13:39:34.0000000+00:00</time></trkpt><trkpt lat="30.60836792" lon="34.80633164"><ele>899.3</ele><time>2013-11-23T13:39:39.0000000+00:00</time></trkpt><trkpt lat="30.60836792" lon="34.80633545"><ele>899.1</ele><time>2013-11-23T13:39:44.0000000+00:00</time></trkpt><trkpt lat="30.60836601" lon="34.80633926"><ele>898.7</ele><time>2013-11-23T13:39:49.0000000+00:00</time></trkpt><trkpt lat="30.60836601" lon="34.80633926"><ele>898.3</ele><time>2013-11-23T13:39:54.0000000+00:00</time></trkpt><trkpt lat="30.60836411" lon="34.80634308"><ele>897.9</ele><time>2013-11-23T13:39:59.0000000+00:00</time></trkpt><trkpt lat="30.60836411" lon="34.80634308"><ele>897.4</ele><time>2013-11-23T13:40:04.0000000+00:00</time></trkpt><trkpt lat="30.6083622" lon="34.80634689"><ele>896.8</ele><time>2013-11-23T13:40:09.0000000+00:00</time></trkpt><trkpt lat="30.60836029" lon="34.80634689"><ele>896.1</ele><time>2013-11-23T13:40:14.0000000+00:00</time></trkpt><trkpt lat="30.60835838" lon="34.80635071"><ele>895.4</ele><time>2013-11-23T13:40:19.0000000+00:00</time></trkpt><trkpt lat="30.60835648" lon="34.80635834"><ele>894.6</ele><time>2013-11-23T13:40:24.0000000+00:00</time></trkpt><trkpt lat="30.60835457" lon="34.80636215"><ele>893.7</ele><time>2013-11-23T13:40:29.0000000+00:00</time></trkpt><trkpt lat="30.60835457" lon="34.80636597"><ele>893.2</ele><time>2013-11-23T13:40:34.0000000+00:00</time></trkpt><trkpt lat="30.60835266" lon="34.80636978"><ele>892.9</ele><time>2013-11-23T13:40:39.0000000+00:00</time></trkpt><trkpt lat="30.60835266" lon="34.80636978"><ele>892.7</ele><time>2013-11-23T13:40:44.0000000+00:00</time></trkpt><trkpt lat="30.60835266" lon="34.80636978"><ele>892.6</ele><time>2013-11-23T13:40:49.0000000+00:00</time></trkpt><trkpt lat="30.60835266" lon="34.80636978"><ele>892.5</ele><time>2013-11-23T13:40:54.0000000+00:00</time></trkpt><trkpt lat="30.60835266" lon="34.8063736"><ele>892.5</ele><time>2013-11-23T13:40:59.0000000+00:00</time></trkpt><trkpt lat="30.60835266" lon="34.8063736"><ele>892.4</ele><time>2013-11-23T13:41:04.0000000+00:00</time></trkpt><trkpt lat="30.60835266" lon="34.80637741"><ele>892.3</ele><time>2013-11-23T13:41:09.0000000+00:00</time></trkpt><trkpt lat="30.60835266" lon="34.80637741"><ele>892.3</ele><time>2013-11-23T13:41:14.0000000+00:00</time></trkpt><trkpt lat="30.60835075" lon="34.80637741"><ele>892.3</ele><time>2013-11-23T13:41:19.0000000+00:00</time></trkpt><trkpt lat="30.60835075" lon="34.80638123"><ele>892.2</ele><time>2013-11-23T13:41:24.0000000+00:00</time></trkpt><trkpt lat="30.60835075" lon="34.80638123"><ele>892.1</ele><time>2013-11-23T13:41:29.0000000+00:00</time></trkpt><trkpt lat="30.60835075" lon="34.80638123"><ele>892.1</ele><time>2013-11-23T13:41:34.0000000+00:00</time></trkpt><trkpt lat="30.60835075" lon="34.80638504"><ele>892.0</ele><time>2013-11-23T13:41:39.0000000+00:00</time></trkpt><trkpt lat="30.60835075" lon="34.80638504"><ele>892.0</ele><time>2013-11-23T13:41:44.0000000+00:00</time></trkpt><trkpt lat="30.60835075" lon="34.80638504"><ele>891.9</ele><time>2013-11-23T13:41:49.0000000+00:00</time></trkpt><trkpt lat="30.60835075" lon="34.80638886"><ele>891.8</ele><time>2013-11-23T13:41:54.0000000+00:00</time></trkpt><trkpt lat="30.60835075" lon="34.80638886"><ele>891.8</ele><time>2013-11-23T13:41:59.0000000+00:00</time></trkpt><trkpt lat="30.60834885" lon="34.80639267"><ele>891.7</ele><time>2013-11-23T13:42:04.0000000+00:00</time></trkpt><trkpt lat="30.60834885" lon="34.80639267"><ele>891.7</ele><time>2013-11-23T13:42:09.0000000+00:00</time></trkpt><trkpt lat="30.60834885" lon="34.80639267"><ele>891.6</ele><time>2013-11-23T13:42:14.0000000+00:00</time></trkpt><trkpt lat="30.60834885" lon="34.80639267"><ele>891.6</ele><time>2013-11-23T13:42:19.0000000+00:00</time></trkpt><trkpt lat="30.60834885" lon="34.80639267"><ele>891.6</ele><time>2013-11-23T13:42:24.0000000+00:00</time></trkpt><trkpt lat="30.60834885" lon="34.80639267"><ele>891.6</ele><time>2013-11-23T13:42:29.0000000+00:00</time></trkpt><trkpt lat="30.60834885" lon="34.80639267"><ele>891.5</ele><time>2013-11-23T13:42:34.0000000+00:00</time></trkpt><trkpt lat="30.60834885" lon="34.80639267"><ele>891.4</ele><time>2013-11-23T13:42:39.0000000+00:00</time></trkpt><trkpt lat="30.60834885" lon="34.80639648"><ele>891.3</ele><time>2013-11-23T13:42:44.0000000+00:00</time></trkpt><trkpt lat="30.60834885" lon="34.80639648"><ele>891.3</ele><time>2013-11-23T13:42:49.0000000+00:00</time></trkpt><trkpt lat="30.60834885" lon="34.80639648"><ele>891.2</ele><time>2013-11-23T13:42:54.0000000+00:00</time></trkpt><trkpt lat="30.60834885" lon="34.80639648"><ele>891.1</ele><time>2013-11-23T13:42:59.0000000+00:00</time></trkpt><trkpt lat="30.60834694" lon="34.80639648"><ele>890.9</ele><time>2013-11-23T13:43:04.0000000+00:00</time></trkpt><trkpt lat="30.60834694" lon="34.8064003"><ele>890.7</ele><time>2013-11-23T13:43:09.0000000+00:00</time></trkpt><trkpt lat="30.60834694" lon="34.8064003"><ele>890.4</ele><time>2013-11-23T13:43:14.0000000+00:00</time></trkpt><trkpt lat="30.60834503" lon="34.8064003"><ele>890.3</ele><time>2013-11-23T13:43:19.0000000+00:00</time></trkpt><trkpt lat="30.60834503" lon="34.8064003"><ele>890.3</ele><time>2013-11-23T13:43:24.0000000+00:00</time></trkpt><trkpt lat="30.60834503" lon="34.8064003"><ele>890.3</ele><time>2013-11-23T13:43:29.0000000+00:00</time></trkpt><trkpt lat="30.60834503" lon="34.8064003"><ele>890.3</ele><time>2013-11-23T13:43:34.0000000+00:00</time></trkpt><trkpt lat="30.60834503" lon="34.8064003"><ele>890.2</ele><time>2013-11-23T13:43:39.0000000+00:00</time></trkpt><trkpt lat="30.60834503" lon="34.8064003"><ele>890.1</ele><time>2013-11-23T13:43:44.0000000+00:00</time></trkpt><trkpt lat="30.60834503" lon="34.80640411"><ele>890.0</ele><time>2013-11-23T13:43:49.0000000+00:00</time></trkpt><trkpt lat="30.60834503" lon="34.80640411"><ele>889.9</ele><time>2013-11-23T13:43:54.0000000+00:00</time></trkpt><trkpt lat="30.60834503" lon="34.80640411"><ele>889.7</ele><time>2013-11-23T13:43:59.0000000+00:00</time></trkpt><trkpt lat="30.60834503" lon="34.80640793"><ele>889.5</ele><time>2013-11-23T13:44:04.0000000+00:00</time></trkpt><trkpt lat="30.60834312" lon="34.80640793"><ele>889.3</ele><time>2013-11-23T13:44:09.0000000+00:00</time></trkpt><trkpt lat="30.60834312" lon="34.80640793"><ele>889.0</ele><time>2013-11-23T13:44:14.0000000+00:00</time></trkpt><trkpt lat="30.60834312" lon="34.80641174"><ele>888.7</ele><time>2013-11-23T13:44:19.0000000+00:00</time></trkpt><trkpt lat="30.60834312" lon="34.80641174"><ele>888.4</ele><time>2013-11-23T13:44:24.0000000+00:00</time></trkpt><trkpt lat="30.60834122" lon="34.80641556"><ele>888.0</ele><time>2013-11-23T13:44:29.0000000+00:00</time></trkpt><trkpt lat="30.60834122" lon="34.80641556"><ele>887.7</ele><time>2013-11-23T13:44:34.0000000+00:00</time></trkpt><trkpt lat="30.60834122" lon="34.80641937"><ele>887.4</ele><time>2013-11-23T13:44:39.0000000+00:00</time></trkpt><trkpt lat="30.60833931" lon="34.80642319"><ele>887.1</ele><time>2013-11-23T13:44:44.0000000+00:00</time></trkpt><trkpt lat="30.60833931" lon="34.80642319"><ele>886.8</ele><time>2013-11-23T13:44:49.0000000+00:00</time></trkpt><trkpt lat="30.60833931" lon="34.806427"><ele>886.4</ele><time>2013-11-23T13:44:54.0000000+00:00</time></trkpt><trkpt lat="30.60833931" lon="34.806427"><ele>886.1</ele><time>2013-11-23T13:44:59.0000000+00:00</time></trkpt><trkpt lat="30.6083374" lon="34.80643082"><ele>885.8</ele><time>2013-11-23T13:45:04.0000000+00:00</time></trkpt><trkpt lat="30.6083374" lon="34.80643082"><ele>885.6</ele><time>2013-11-23T13:45:09.0000000+00:00</time></trkpt><trkpt lat="30.6083374" lon="34.80643463"><ele>885.3</ele><time>2013-11-23T13:45:14.0000000+00:00</time></trkpt><trkpt lat="30.6083374" lon="34.80643463"><ele>885.0</ele><time>2013-11-23T13:45:19.0000000+00:00</time></trkpt><trkpt lat="30.6083355" lon="34.80643845"><ele>884.7</ele><time>2013-11-23T13:45:24.0000000+00:00</time></trkpt><trkpt lat="30.6083355" lon="34.80643845"><ele>884.5</ele><time>2013-11-23T13:45:29.0000000+00:00</time></trkpt><trkpt lat="30.6083355" lon="34.80644226"><ele>884.2</ele><time>2013-11-23T13:45:34.0000000+00:00</time></trkpt><trkpt lat="30.60833359" lon="34.80644226"><ele>883.9</ele><time>2013-11-23T13:45:39.0000000+00:00</time></trkpt><trkpt lat="30.60833359" lon="34.80644226"><ele>883.7</ele><time>2013-11-23T13:45:44.0000000+00:00</time></trkpt><trkpt lat="30.60833359" lon="34.80644608"><ele>883.4</ele><time>2013-11-23T13:45:49.0000000+00:00</time></trkpt><trkpt lat="30.60833359" lon="34.80644608"><ele>883.1</ele><time>2013-11-23T13:45:54.0000000+00:00</time></trkpt><trkpt lat="30.60833168" lon="34.80644989"><ele>882.8</ele><time>2013-11-23T13:45:59.0000000+00:00</time></trkpt><trkpt lat="30.60833168" lon="34.80644989"><ele>882.5</ele><time>2013-11-23T13:46:04.0000000+00:00</time></trkpt><trkpt lat="30.60833168" lon="34.80644989"><ele>882.4</ele><time>2013-11-23T13:46:09.0000000+00:00</time></trkpt><trkpt lat="30.60833168" lon="34.80644989"><ele>882.4</ele><time>2013-11-23T13:46:14.0000000+00:00</time></trkpt><trkpt lat="30.60833168" lon="34.80644989"><ele>882.3</ele><time>2013-11-23T13:46:19.0000000+00:00</time></trkpt><trkpt lat="30.60833168" lon="34.80644989"><ele>882.2</ele><time>2013-11-23T13:46:24.0000000+00:00</time></trkpt><trkpt lat="30.60833168" lon="34.80645371"><ele>882.0</ele><time>2013-11-23T13:46:29.0000000+00:00</time></trkpt><trkpt lat="30.60832977" lon="34.80645371"><ele>881.7</ele><time>2013-11-23T13:46:34.0000000+00:00</time></trkpt><trkpt lat="30.60832977" lon="34.80645371"><ele>881.5</ele><time>2013-11-23T13:46:39.0000000+00:00</time></trkpt><trkpt lat="30.60832977" lon="34.80645371"><ele>881.3</ele><time>2013-11-23T13:46:44.0000000+00:00</time></trkpt><trkpt lat="30.60832977" lon="34.80645371"><ele>881.3</ele><time>2013-11-23T13:46:49.0000000+00:00</time></trkpt><trkpt lat="30.60832977" lon="34.80645371"><ele>881.3</ele><time>2013-11-23T13:46:54.0000000+00:00</time></trkpt><trkpt lat="30.60832977" lon="34.80645371"><ele>881.3</ele><time>2013-11-23T13:46:59.0000000+00:00</time></trkpt><trkpt lat="30.60832787" lon="34.80645371"><ele>880.9</ele><time>2013-11-23T13:47:04.0000000+00:00</time></trkpt><trkpt lat="30.60832787" lon="34.80645371"><ele>880.8</ele><time>2013-11-23T13:47:09.0000000+00:00</time></trkpt><trkpt lat="30.60832596" lon="34.80645371"><ele>880.7</ele><time>2013-11-23T13:47:14.0000000+00:00</time></trkpt><trkpt lat="30.60832596" lon="34.80645371"><ele>880.7</ele><time>2013-11-23T13:47:19.0000000+00:00</time></trkpt><trkpt lat="30.60832596" lon="34.80645371"><ele>880.7</ele><time>2013-11-23T13:47:24.0000000+00:00</time></trkpt><trkpt lat="30.60832596" lon="34.80645371"><ele>880.7</ele><time>2013-11-23T13:47:29.0000000+00:00</time></trkpt><trkpt lat="30.60832596" lon="34.80645371"><ele>880.6</ele><time>2013-11-23T13:47:34.0000000+00:00</time></trkpt><trkpt lat="30.60832596" lon="34.80645371"><ele>880.6</ele><time>2013-11-23T13:47:39.0000000+00:00</time></trkpt><trkpt lat="30.60832596" lon="34.80645371"><ele>880.6</ele><time>2013-11-23T13:47:44.0000000+00:00</time></trkpt><trkpt lat="30.60832596" lon="34.80645371"><ele>880.6</ele><time>2013-11-23T13:47:49.0000000+00:00</time></trkpt><trkpt lat="30.60832596" lon="34.80645371"><ele>880.6</ele><time>2013-11-23T13:47:54.0000000+00:00</time></trkpt><trkpt lat="30.60832596" lon="34.80645371"><ele>880.5</ele><time>2013-11-23T13:47:59.0000000+00:00</time></trkpt><trkpt lat="30.60832596" lon="34.80645371"><ele>880.5</ele><time>2013-11-23T13:48:04.0000000+00:00</time></trkpt><trkpt lat="30.60832596" lon="34.80645371"><ele>880.5</ele><time>2013-11-23T13:48:09.0000000+00:00</time></trkpt><trkpt lat="30.60832596" lon="34.80645371"><ele>880.5</ele><time>2013-11-23T13:48:14.0000000+00:00</time></trkpt><trkpt lat="30.60832596" lon="34.80645371"><ele>880.5</ele><time>2013-11-23T13:48:19.0000000+00:00</time></trkpt><trkpt lat="30.60832596" lon="34.80645371"><ele>880.5</ele><time>2013-11-23T13:48:24.0000000+00:00</time></trkpt><trkpt lat="30.60832596" lon="34.80645371"><ele>880.5</ele><time>2013-11-23T13:48:29.0000000+00:00</time></trkpt><trkpt lat="30.60832596" lon="34.80645371"><ele>880.4</ele><time>2013-11-23T13:48:34.0000000+00:00</time></trkpt><trkpt lat="30.60832596" lon="34.80645371"><ele>880.4</ele><time>2013-11-23T13:48:39.0000000+00:00</time></trkpt><trkpt lat="30.60832596" lon="34.80645371"><ele>880.3</ele><time>2013-11-23T13:48:44.0000000+00:00</time></trkpt><trkpt lat="30.60832596" lon="34.80644989"><ele>880.1</ele><time>2013-11-23T13:48:49.0000000+00:00</time></trkpt><trkpt lat="30.60832596" lon="34.80645371"><ele>880.0</ele><time>2013-11-23T13:48:54.0000000+00:00</time></trkpt><trkpt lat="30.60832596" lon="34.80645371"><ele>879.9</ele><time>2013-11-23T13:48:59.0000000+00:00</time></trkpt><trkpt lat="30.60832405" lon="34.80645371"><ele>879.8</ele><time>2013-11-23T13:49:04.0000000+00:00</time></trkpt><trkpt lat="30.60832405" lon="34.80645371"><ele>879.7</ele><time>2013-11-23T13:49:09.0000000+00:00</time></trkpt><trkpt lat="30.60832405" lon="34.80645371"><ele>879.6</ele><time>2013-11-23T13:49:14.0000000+00:00</time></trkpt><trkpt lat="30.60832405" lon="34.80645371"><ele>879.6</ele><time>2013-11-23T13:49:19.0000000+00:00</time></trkpt><trkpt lat="30.60832596" lon="34.80645371"><ele>879.6</ele><time>2013-11-23T13:49:24.0000000+00:00</time></trkpt><trkpt lat="30.60832596" lon="34.80645371"><ele>879.5</ele><time>2013-11-23T13:49:29.0000000+00:00</time></trkpt><trkpt lat="30.60832596" lon="34.80645371"><ele>879.5</ele><time>2013-11-23T13:49:34.0000000+00:00</time></trkpt><trkpt lat="30.60832596" lon="34.80645371"><ele>879.5</ele><time>2013-11-23T13:49:39.0000000+00:00</time></trkpt><trkpt lat="30.60832596" lon="34.80645371"><ele>879.5</ele><time>2013-11-23T13:49:44.0000000+00:00</time></trkpt><trkpt lat="30.60832596" lon="34.80645371"><ele>879.5</ele><time>2013-11-23T13:49:49.0000000+00:00</time></trkpt><trkpt lat="30.60832596" lon="34.80645371"><ele>879.5</ele><time>2013-11-23T13:49:54.0000000+00:00</time></trkpt><trkpt lat="30.60832405" lon="34.80645371"><ele>879.5</ele><time>2013-11-23T13:49:59.0000000+00:00</time></trkpt><trkpt lat="30.60832405" lon="34.80645371"><ele>879.5</ele><time>2013-11-23T13:50:04.0000000+00:00</time></trkpt><trkpt lat="30.60832405" lon="34.80645371"><ele>879.5</ele><time>2013-11-23T13:50:09.0000000+00:00</time></trkpt><trkpt lat="30.60832405" lon="34.80645371"><ele>879.5</ele><time>2013-11-23T13:50:14.0000000+00:00</time></trkpt><trkpt lat="30.60832405" lon="34.80645371"><ele>879.4</ele><time>2013-11-23T13:50:19.0000000+00:00</time></trkpt><trkpt lat="30.60832405" lon="34.80645371"><ele>879.4</ele><time>2013-11-23T13:50:24.0000000+00:00</time></trkpt><trkpt lat="30.60832405" lon="34.80645371"><ele>879.4</ele><time>2013-11-23T13:50:29.0000000+00:00</time></trkpt><trkpt lat="30.60832405" lon="34.80645371"><ele>879.4</ele><time>2013-11-23T13:50:34.0000000+00:00</time></trkpt><trkpt lat="30.60832405" lon="34.80645371"><ele>879.4</ele><time>2013-11-23T13:50:39.0000000+00:00</time></trkpt><trkpt lat="30.60832405" lon="34.80645371"><ele>879.4</ele><time>2013-11-23T13:50:44.0000000+00:00</time></trkpt><trkpt lat="30.60832405" lon="34.80645371"><ele>879.4</ele><time>2013-11-23T13:50:49.0000000+00:00</time></trkpt><trkpt lat="30.60832405" lon="34.80644989"><ele>879.4</ele><time>2013-11-23T13:50:54.0000000+00:00</time></trkpt><trkpt lat="30.60832405" lon="34.80644989"><ele>879.4</ele><time>2013-11-23T13:50:59.0000000+00:00</time></trkpt><trkpt lat="30.60832405" lon="34.80644989"><ele>879.4</ele><time>2013-11-23T13:51:04.0000000+00:00</time></trkpt><trkpt lat="30.60832405" lon="34.80644989"><ele>879.4</ele><time>2013-11-23T13:51:09.0000000+00:00</time></trkpt><trkpt lat="30.60832405" lon="34.80644989"><ele>879.4</ele><time>2013-11-23T13:51:14.0000000+00:00</time></trkpt><trkpt lat="30.60832405" lon="34.80644989"><ele>879.3</ele><time>2013-11-23T13:51:19.0000000+00:00</time></trkpt><trkpt lat="30.60832405" lon="34.80644989"><ele>879.3</ele><time>2013-11-23T13:51:24.0000000+00:00</time></trkpt><trkpt lat="30.60832405" lon="34.80644989"><ele>879.3</ele><time>2013-11-23T13:51:29.0000000+00:00</time></trkpt><trkpt lat="30.60832405" lon="34.80644989"><ele>879.3</ele><time>2013-11-23T13:51:34.0000000+00:00</time></trkpt><trkpt lat="30.60832405" lon="34.80644989"><ele>879.3</ele><time>2013-11-23T13:51:39.0000000+00:00</time></trkpt><trkpt lat="30.60832405" lon="34.80644989"><ele>879.3</ele><time>2013-11-23T13:51:44.0000000+00:00</time></trkpt><trkpt lat="30.60832405" lon="34.80644989"><ele>879.3</ele><time>2013-11-23T13:51:49.0000000+00:00</time></trkpt><trkpt lat="30.60832405" lon="34.80644989"><ele>879.3</ele><time>2013-11-23T13:51:54.0000000+00:00</time></trkpt><trkpt lat="30.60832405" lon="34.80644989"><ele>879.2</ele><time>2013-11-23T13:51:59.0000000+00:00</time></trkpt><trkpt lat="30.60832405" lon="34.80644989"><ele>879.2</ele><time>2013-11-23T13:52:04.0000000+00:00</time></trkpt><trkpt lat="30.60832405" lon="34.80644989"><ele>879.2</ele><time>2013-11-23T13:52:09.0000000+00:00</time></trkpt><trkpt lat="30.60832405" lon="34.80644989"><ele>879.2</ele><time>2013-11-23T13:52:14.0000000+00:00</time></trkpt><trkpt lat="30.60832405" lon="34.80644989"><ele>879.2</ele><time>2013-11-23T13:52:19.0000000+00:00</time></trkpt><trkpt lat="30.60832405" lon="34.80644989"><ele>879.2</ele><time>2013-11-23T13:52:24.0000000+00:00</time></trkpt><trkpt lat="30.60832787" lon="34.80645752"><ele>878.9</ele><time>2013-11-23T13:52:29.0000000+00:00</time></trkpt><trkpt lat="30.60833168" lon="34.80645752"><ele>878.6</ele><time>2013-11-23T13:52:34.0000000+00:00</time></trkpt><trkpt lat="30.60841179" lon="34.80647278"><ele>877.2</ele><time>2013-11-23T13:52:39.0000000+00:00</time></trkpt><trkpt lat="30.60841751" lon="34.80646133"><ele>869.3</ele><time>2013-11-23T13:52:44.0000000+00:00</time></trkpt><trkpt lat="30.60847664" lon="34.80638123"><ele>866.7</ele><time>2013-11-23T13:52:49.0000000+00:00</time></trkpt><trkpt lat="30.6084652" lon="34.80628204"><ele>866.6</ele><time>2013-11-23T13:52:54.0000000+00:00</time></trkpt><trkpt lat="30.60848236" lon="34.8061676"><ele>865.8</ele><time>2013-11-23T13:52:59.0000000+00:00</time></trkpt><trkpt lat="30.6084919" lon="34.80601883"><ele>864.6</ele><time>2013-11-23T13:53:04.0000000+00:00</time></trkpt><trkpt lat="30.60848618" lon="34.8059082"><ele>863.3</ele><time>2013-11-23T13:53:09.0000000+00:00</time></trkpt><trkpt lat="30.60858727" lon="34.80589294"><ele>863.4</ele><time>2013-11-23T13:53:14.0000000+00:00</time></trkpt><trkpt lat="30.60870934" lon="34.80583191"><ele>863.1</ele><time>2013-11-23T13:53:19.0000000+00:00</time></trkpt><trkpt lat="30.6088829" lon="34.80579758"><ele>863.0</ele><time>2013-11-23T13:53:24.0000000+00:00</time></trkpt><trkpt lat="30.60904694" lon="34.8059082"><ele>862.9</ele><time>2013-11-23T13:53:29.0000000+00:00</time></trkpt><trkpt lat="30.60919762" lon="34.80598068"><ele>863.8</ele><time>2013-11-23T13:53:34.0000000+00:00</time></trkpt><trkpt lat="30.6093502" lon="34.80606461"><ele>864.4</ele><time>2013-11-23T13:53:39.0000000+00:00</time></trkpt><trkpt lat="30.60956192" lon="34.80602646"><ele>863.0</ele><time>2013-11-23T13:53:44.0000000+00:00</time></trkpt><trkpt lat="30.60982132" lon="34.80583191"><ele>859.5</ele><time>2013-11-23T13:53:49.0000000+00:00</time></trkpt><trkpt lat="30.61015892" lon="34.8055687"><ele>856.0</ele><time>2013-11-23T13:53:54.0000000+00:00</time></trkpt><trkpt lat="30.61049652" lon="34.80527115"><ele>855.0</ele><time>2013-11-23T13:53:59.0000000+00:00</time></trkpt><trkpt lat="30.61074448" lon="34.80501556"><ele>855.9</ele><time>2013-11-23T13:54:04.0000000+00:00</time></trkpt><trkpt lat="30.61088944" lon="34.80487824"><ele>856.9</ele><time>2013-11-23T13:54:09.0000000+00:00</time></trkpt><trkpt lat="30.61102486" lon="34.80488968"><ele>857.9</ele><time>2013-11-23T13:54:14.0000000+00:00</time></trkpt><trkpt lat="30.6111908" lon="34.80495453"><ele>857.7</ele><time>2013-11-23T13:54:19.0000000+00:00</time></trkpt><trkpt lat="30.61138535" lon="34.80487824"><ele>858.2</ele><time>2013-11-23T13:54:24.0000000+00:00</time></trkpt><trkpt lat="30.61156273" lon="34.80475235"><ele>858.2</ele><time>2013-11-23T13:54:29.0000000+00:00</time></trkpt><trkpt lat="30.61172104" lon="34.80465317"><ele>857.9</ele><time>2013-11-23T13:54:34.0000000+00:00</time></trkpt><trkpt lat="30.61188507" lon="34.80456543"><ele>857.3</ele><time>2013-11-23T13:54:39.0000000+00:00</time></trkpt><trkpt lat="30.61209679" lon="34.80447769"><ele>856.1</ele><time>2013-11-23T13:54:44.0000000+00:00</time></trkpt><trkpt lat="30.61233521" lon="34.80437851"><ele>855.2</ele><time>2013-11-23T13:54:49.0000000+00:00</time></trkpt><trkpt lat="30.61257935" lon="34.8042984"><ele>853.0</ele><time>2013-11-23T13:54:54.0000000+00:00</time></trkpt><trkpt lat="30.6128521" lon="34.8044014"><ele>851.8</ele><time>2013-11-23T13:54:59.0000000+00:00</time></trkpt><trkpt lat="30.6131134" lon="34.80441666"><ele>851.0</ele><time>2013-11-23T13:55:04.0000000+00:00</time></trkpt><trkpt lat="30.61328697" lon="34.80420685"><ele>850.6</ele><time>2013-11-23T13:55:09.0000000+00:00</time></trkpt><trkpt lat="30.61328697" lon="34.80393601"><ele>848.7</ele><time>2013-11-23T13:55:14.0000000+00:00</time></trkpt><trkpt lat="30.61316299" lon="34.80380249"><ele>845.4</ele><time>2013-11-23T13:55:19.0000000+00:00</time></trkpt><trkpt lat="30.61314011" lon="34.80375671"><ele>844.2</ele><time>2013-11-23T13:55:24.0000000+00:00</time></trkpt><trkpt lat="30.61322212" lon="34.80381393"><ele>844.3</ele><time>2013-11-23T13:55:29.0000000+00:00</time></trkpt><trkpt lat="30.61335754" lon="34.80385208"><ele>844.7</ele><time>2013-11-23T13:55:34.0000000+00:00</time></trkpt><trkpt lat="30.61358452" lon="34.8038559"><ele>844.6</ele><time>2013-11-23T13:55:39.0000000+00:00</time></trkpt><trkpt lat="30.6138134" lon="34.80378723"><ele>844.6</ele><time>2013-11-23T13:55:44.0000000+00:00</time></trkpt><trkpt lat="30.61398697" lon="34.80373383"><ele>844.6</ele><time>2013-11-23T13:55:49.0000000+00:00</time></trkpt><trkpt lat="30.61411858" lon="34.80368805"><ele>846.0</ele><time>2013-11-23T13:55:54.0000000+00:00</time></trkpt><trkpt lat="30.61427689" lon="34.80365372"><ele>847.9</ele><time>2013-11-23T13:55:59.0000000+00:00</time></trkpt><trkpt lat="30.61444473" lon="34.80362701"><ele>849.2</ele><time>2013-11-23T13:56:04.0000000+00:00</time></trkpt><trkpt lat="30.61460304" lon="34.80359268"><ele>850.2</ele><time>2013-11-23T13:56:09.0000000+00:00</time></trkpt><trkpt lat="30.61475754" lon="34.80358124"><ele>850.9</ele><time>2013-11-23T13:56:14.0000000+00:00</time></trkpt><trkpt lat="30.6149025" lon="34.80357742"><ele>851.5</ele><time>2013-11-23T13:56:19.0000000+00:00</time></trkpt><trkpt lat="30.61505508" lon="34.80356979"><ele>852.2</ele><time>2013-11-23T13:56:24.0000000+00:00</time></trkpt><trkpt lat="30.61518097" lon="34.80356216"><ele>852.8</ele><time>2013-11-23T13:56:29.0000000+00:00</time></trkpt><trkpt lat="30.61531067" lon="34.80356216"><ele>853.2</ele><time>2013-11-23T13:56:34.0000000+00:00</time></trkpt><trkpt lat="30.61545563" lon="34.80356979"><ele>854.3</ele><time>2013-11-23T13:56:39.0000000+00:00</time></trkpt><trkpt lat="30.61562538" lon="34.80357361"><ele>854.2</ele><time>2013-11-23T13:56:44.0000000+00:00</time></trkpt><trkpt lat="30.61580086" lon="34.8035965"><ele>855.3</ele><time>2013-11-23T13:56:49.0000000+00:00</time></trkpt><trkpt lat="30.61596298" lon="34.80359268"><ele>855.7</ele><time>2013-11-23T13:56:54.0000000+00:00</time></trkpt><trkpt lat="30.61610794" lon="34.80360794"><ele>856.4</ele><time>2013-11-23T13:56:59.0000000+00:00</time></trkpt><trkpt lat="30.61619759" lon="34.8036232"><ele>857.2</ele><time>2013-11-23T13:57:04.0000000+00:00</time></trkpt><trkpt lat="30.61626434" lon="34.80363464"><ele>857.6</ele><time>2013-11-23T13:57:09.0000000+00:00</time></trkpt><trkpt lat="30.61632347" lon="34.80363464"><ele>856.3</ele><time>2013-11-23T13:57:14.0000000+00:00</time></trkpt><trkpt lat="30.61634827" lon="34.80366135"><ele>854.5</ele><time>2013-11-23T13:57:19.0000000+00:00</time></trkpt><trkpt lat="30.61637116" lon="34.80366516"><ele>854.1</ele><time>2013-11-23T13:57:24.0000000+00:00</time></trkpt><trkpt lat="30.61637497" lon="34.80366516"><ele>854.1</ele><time>2013-11-23T13:57:29.0000000+00:00</time></trkpt><trkpt lat="30.61637497" lon="34.80366516"><ele>854.1</ele><time>2013-11-23T13:57:34.0000000+00:00</time></trkpt><trkpt lat="30.61638069" lon="34.80366135"><ele>854.1</ele><time>2013-11-23T13:57:39.0000000+00:00</time></trkpt><trkpt lat="30.61638069" lon="34.80366135"><ele>854.1</ele><time>2013-11-23T13:57:44.0000000+00:00</time></trkpt><trkpt lat="30.61638069" lon="34.80366135"><ele>854.0</ele><time>2013-11-23T13:57:49.0000000+00:00</time></trkpt><trkpt lat="30.61638069" lon="34.80366135"><ele>854.0</ele><time>2013-11-23T13:57:54.0000000+00:00</time></trkpt><trkpt lat="30.6163559" lon="34.80357742"><ele>852.8</ele><time>2013-11-23T13:57:59.0000000+00:00</time></trkpt><trkpt lat="30.6163311" lon="34.80340958"><ele>851.3</ele><time>2013-11-23T13:58:04.0000000+00:00</time></trkpt><trkpt lat="30.61632919" lon="34.80323029"><ele>850.3</ele><time>2013-11-23T13:58:09.0000000+00:00</time></trkpt><trkpt lat="30.61634255" lon="34.8030014"><ele>850.0</ele><time>2013-11-23T13:58:14.0000000+00:00</time></trkpt><trkpt lat="30.61634827" lon="34.80277252"><ele>848.8</ele><time>2013-11-23T13:58:19.0000000+00:00</time></trkpt><trkpt lat="30.61636162" lon="34.80255127"><ele>848.2</ele><time>2013-11-23T13:58:24.0000000+00:00</time></trkpt><trkpt lat="30.61637116" lon="34.80237579"><ele>847.7</ele><time>2013-11-23T13:58:29.0000000+00:00</time></trkpt><trkpt lat="30.61638641" lon="34.80221558"><ele>847.1</ele><time>2013-11-23T13:58:34.0000000+00:00</time></trkpt><trkpt lat="30.61642265" lon="34.80198669"><ele>846.0</ele><time>2013-11-23T13:58:39.0000000+00:00</time></trkpt><trkpt lat="30.61646271" lon="34.80168915"><ele>844.7</ele><time>2013-11-23T13:58:44.0000000+00:00</time></trkpt><trkpt lat="30.6165123" lon="34.80139923"><ele>844.0</ele><time>2013-11-23T13:58:49.0000000+00:00</time></trkpt><trkpt lat="30.61657143" lon="34.80110931"><ele>843.6</ele><time>2013-11-23T13:58:54.0000000+00:00</time></trkpt><trkpt lat="30.61662865" lon="34.80081558"><ele>844.0</ele><time>2013-11-23T13:58:59.0000000+00:00</time></trkpt><trkpt lat="30.61676598" lon="34.80063629"><ele>843.5</ele><time>2013-11-23T13:59:04.0000000+00:00</time></trkpt><trkpt lat="30.61700058" lon="34.80072403"><ele>843.1</ele><time>2013-11-23T13:59:09.0000000+00:00</time></trkpt><trkpt lat="30.61724854" lon="34.80079651"><ele>842.9</ele><time>2013-11-23T13:59:14.0000000+00:00</time></trkpt><trkpt lat="30.61747551" lon="34.80082321"><ele>843.0</ele><time>2013-11-23T13:59:19.0000000+00:00</time></trkpt><trkpt lat="30.61768532" lon="34.8008194"><ele>843.3</ele><time>2013-11-23T13:59:24.0000000+00:00</time></trkpt><trkpt lat="30.61789894" lon="34.80078507"><ele>843.5</ele><time>2013-11-23T13:59:29.0000000+00:00</time></trkpt><trkpt lat="30.61811638" lon="34.8007164"><ele>843.3</ele><time>2013-11-23T13:59:34.0000000+00:00</time></trkpt><trkpt lat="30.61831474" lon="34.80064011"><ele>843.1</ele><time>2013-11-23T13:59:39.0000000+00:00</time></trkpt><trkpt lat="30.6185112" lon="34.80057526"><ele>843.2</ele><time>2013-11-23T13:59:44.0000000+00:00</time></trkpt><trkpt lat="30.61855507" lon="34.80078125"><ele>843.8</ele><time>2013-11-23T13:59:49.0000000+00:00</time></trkpt><trkpt lat="30.61856651" lon="34.80103684"><ele>844.5</ele><time>2013-11-23T13:59:54.0000000+00:00</time></trkpt><trkpt lat="30.6185627" lon="34.80123901"><ele>844.8</ele><time>2013-11-23T13:59:59.0000000+00:00</time></trkpt><trkpt lat="30.61854172" lon="34.80134201"><ele>845.0</ele><time>2013-11-23T14:00:04.0000000+00:00</time></trkpt><trkpt lat="30.61857224" lon="34.80141449"><ele>844.9</ele><time>2013-11-23T14:00:09.0000000+00:00</time></trkpt><trkpt lat="30.61860085" lon="34.80155563"><ele>845.5</ele><time>2013-11-23T14:00:14.0000000+00:00</time></trkpt><trkpt lat="30.61861229" lon="34.80165863"><ele>846.5</ele><time>2013-11-23T14:00:19.0000000+00:00</time></trkpt><trkpt lat="30.61862183" lon="34.80168533"><ele>845.4</ele><time>2013-11-23T14:00:24.0000000+00:00</time></trkpt><trkpt lat="30.61863136" lon="34.80167007"><ele>847.6</ele><time>2013-11-23T14:00:29.0000000+00:00</time></trkpt><trkpt lat="30.61861992" lon="34.80166245"><ele>848.6</ele><time>2013-11-23T14:00:34.0000000+00:00</time></trkpt><trkpt lat="30.61863518" lon="34.80166626"><ele>849.0</ele><time>2013-11-23T14:00:39.0000000+00:00</time></trkpt><trkpt lat="30.6186409" lon="34.80171585"><ele>848.6</ele><time>2013-11-23T14:00:44.0000000+00:00</time></trkpt><trkpt lat="30.61864471" lon="34.80171967"><ele>848.3</ele><time>2013-11-23T14:00:49.0000000+00:00</time></trkpt><trkpt lat="30.61864471" lon="34.80171967"><ele>848.4</ele><time>2013-11-23T14:00:54.0000000+00:00</time></trkpt><trkpt lat="30.61864471" lon="34.80171967"><ele>848.4</ele><time>2013-11-23T14:00:59.0000000+00:00</time></trkpt><trkpt lat="30.61864471" lon="34.80171967"><ele>848.5</ele><time>2013-11-23T14:01:04.0000000+00:00</time></trkpt><trkpt lat="30.61864662" lon="34.80171967"><ele>848.5</ele><time>2013-11-23T14:01:09.0000000+00:00</time></trkpt><trkpt lat="30.61864662" lon="34.80171967"><ele>848.5</ele><time>2013-11-23T14:01:14.0000000+00:00</time></trkpt><trkpt lat="30.61864662" lon="34.80171967"><ele>848.5</ele><time>2013-11-23T14:01:19.0000000+00:00</time></trkpt><trkpt lat="30.61864662" lon="34.80171967"><ele>848.5</ele><time>2013-11-23T14:01:24.0000000+00:00</time></trkpt><trkpt lat="30.61864662" lon="34.80171967"><ele>848.5</ele><time>2013-11-23T14:01:29.0000000+00:00</time></trkpt><trkpt lat="30.61864662" lon="34.80171967"><ele>848.5</ele><time>2013-11-23T14:01:34.0000000+00:00</time></trkpt><trkpt lat="30.61864662" lon="34.80171967"><ele>848.5</ele><time>2013-11-23T14:01:39.0000000+00:00</time></trkpt><trkpt lat="30.61864662" lon="34.80172348"><ele>848.5</ele><time>2013-11-23T14:01:44.0000000+00:00</time></trkpt><trkpt lat="30.61864662" lon="34.80172348"><ele>848.5</ele><time>2013-11-23T14:01:49.0000000+00:00</time></trkpt><trkpt lat="30.61864662" lon="34.80172348"><ele>848.6</ele><time>2013-11-23T14:01:54.0000000+00:00</time></trkpt><trkpt lat="30.61864662" lon="34.80172348"><ele>848.6</ele><time>2013-11-23T14:01:59.0000000+00:00</time></trkpt><trkpt lat="30.61864662" lon="34.80172348"><ele>848.6</ele><time>2013-11-23T14:02:04.0000000+00:00</time></trkpt><trkpt lat="30.61864662" lon="34.80172348"><ele>848.6</ele><time>2013-11-23T14:02:09.0000000+00:00</time></trkpt><trkpt lat="30.61864662" lon="34.80172348"><ele>848.6</ele><time>2013-11-23T14:02:14.0000000+00:00</time></trkpt><trkpt lat="30.61864662" lon="34.80172348"><ele>848.6</ele><time>2013-11-23T14:02:19.0000000+00:00</time></trkpt><trkpt lat="30.61864662" lon="34.80172348"><ele>848.6</ele><time>2013-11-23T14:02:24.0000000+00:00</time></trkpt><trkpt lat="30.61864662" lon="34.80172348"><ele>848.6</ele><time>2013-11-23T14:02:29.0000000+00:00</time></trkpt><trkpt lat="30.61864662" lon="34.80172348"><ele>848.6</ele><time>2013-11-23T14:02:34.0000000+00:00</time></trkpt><trkpt lat="30.61864662" lon="34.80172348"><ele>848.5</ele><time>2013-11-23T14:02:39.0000000+00:00</time></trkpt><trkpt lat="30.61864662" lon="34.80172348"><ele>848.6</ele><time>2013-11-23T14:02:44.0000000+00:00</time></trkpt><trkpt lat="30.61864662" lon="34.80172348"><ele>848.6</ele><time>2013-11-23T14:02:49.0000000+00:00</time></trkpt><trkpt lat="30.61864662" lon="34.80172348"><ele>848.5</ele><time>2013-11-23T14:02:54.0000000+00:00</time></trkpt><trkpt lat="30.61863899" lon="34.8017273"><ele>849.1</ele><time>2013-11-23T14:02:59.0000000+00:00</time></trkpt><trkpt lat="30.61865044" lon="34.80171585"><ele>848.9</ele><time>2013-11-23T14:03:04.0000000+00:00</time></trkpt><trkpt lat="30.61865425" lon="34.80171585"><ele>848.5</ele><time>2013-11-23T14:03:09.0000000+00:00</time></trkpt><trkpt lat="30.61865807" lon="34.80171967"><ele>848.2</ele><time>2013-11-23T14:03:14.0000000+00:00</time></trkpt><trkpt lat="30.61865997" lon="34.80171967"><ele>848.1</ele><time>2013-11-23T14:03:19.0000000+00:00</time></trkpt><trkpt lat="30.61865997" lon="34.80171967"><ele>848.1</ele><time>2013-11-23T14:03:24.0000000+00:00</time></trkpt><trkpt lat="30.61865997" lon="34.80171967"><ele>848.1</ele><time>2013-11-23T14:03:29.0000000+00:00</time></trkpt><trkpt lat="30.61865997" lon="34.80171967"><ele>848.1</ele><time>2013-11-23T14:03:34.0000000+00:00</time></trkpt><trkpt lat="30.61865997" lon="34.80171967"><ele>848.0</ele><time>2013-11-23T14:03:39.0000000+00:00</time></trkpt><trkpt lat="30.61865997" lon="34.80171967"><ele>848.0</ele><time>2013-11-23T14:03:44.0000000+00:00</time></trkpt><trkpt lat="30.61865997" lon="34.80171967"><ele>848.0</ele><time>2013-11-23T14:03:49.0000000+00:00</time></trkpt><trkpt lat="30.61866188" lon="34.80171967"><ele>848.0</ele><time>2013-11-23T14:03:54.0000000+00:00</time></trkpt><trkpt lat="30.61866188" lon="34.80171967"><ele>848.0</ele><time>2013-11-23T14:03:59.0000000+00:00</time></trkpt><trkpt lat="30.61866188" lon="34.80171967"><ele>848.0</ele><time>2013-11-23T14:04:04.0000000+00:00</time></trkpt><trkpt lat="30.61866188" lon="34.80171967"><ele>848.0</ele><time>2013-11-23T14:04:09.0000000+00:00</time></trkpt><trkpt lat="30.61866188" lon="34.80171967"><ele>848.0</ele><time>2013-11-23T14:04:14.0000000+00:00</time></trkpt><trkpt lat="30.61866188" lon="34.80171967"><ele>848.0</ele><time>2013-11-23T14:04:19.0000000+00:00</time></trkpt><trkpt lat="30.61866188" lon="34.80171967"><ele>848.0</ele><time>2013-11-23T14:04:24.0000000+00:00</time></trkpt><trkpt lat="30.61866188" lon="34.80171967"><ele>848.0</ele><time>2013-11-23T14:04:29.0000000+00:00</time></trkpt><trkpt lat="30.61866188" lon="34.80171967"><ele>848.0</ele><time>2013-11-23T14:04:34.0000000+00:00</time></trkpt><trkpt lat="30.61866188" lon="34.80172348"><ele>848.0</ele><time>2013-11-23T14:04:39.0000000+00:00</time></trkpt><trkpt lat="30.61866188" lon="34.80171967"><ele>848.0</ele><time>2013-11-23T14:04:44.0000000+00:00</time></trkpt><trkpt lat="30.61866188" lon="34.80171967"><ele>848.0</ele><time>2013-11-23T14:04:49.0000000+00:00</time></trkpt><trkpt lat="30.61866188" lon="34.80171967"><ele>847.9</ele><time>2013-11-23T14:04:54.0000000+00:00</time></trkpt><trkpt lat="30.61866188" lon="34.80171967"><ele>847.9</ele><time>2013-11-23T14:04:59.0000000+00:00</time></trkpt><trkpt lat="30.61866188" lon="34.80171967"><ele>847.9</ele><time>2013-11-23T14:05:04.0000000+00:00</time></trkpt><trkpt lat="30.61866188" lon="34.80171967"><ele>847.9</ele><time>2013-11-23T14:05:09.0000000+00:00</time></trkpt><trkpt lat="30.61866188" lon="34.80171967"><ele>847.9</ele><time>2013-11-23T14:05:14.0000000+00:00</time></trkpt><trkpt lat="30.61866379" lon="34.80171967"><ele>847.9</ele><time>2013-11-23T14:05:19.0000000+00:00</time></trkpt><trkpt lat="30.61866379" lon="34.80171967"><ele>847.9</ele><time>2013-11-23T14:05:24.0000000+00:00</time></trkpt><trkpt lat="30.61866379" lon="34.80171967"><ele>847.9</ele><time>2013-11-23T14:05:29.0000000+00:00</time></trkpt><trkpt lat="30.61866379" lon="34.80172348"><ele>847.9</ele><time>2013-11-23T14:05:34.0000000+00:00</time></trkpt><trkpt lat="30.61866379" lon="34.80172348"><ele>847.9</ele><time>2013-11-23T14:05:39.0000000+00:00</time></trkpt><trkpt lat="30.6186657" lon="34.80172348"><ele>847.9</ele><time>2013-11-23T14:05:44.0000000+00:00</time></trkpt><trkpt lat="30.6186657" lon="34.80172348"><ele>847.9</ele><time>2013-11-23T14:05:49.0000000+00:00</time></trkpt><trkpt lat="30.6186657" lon="34.80172348"><ele>847.8</ele><time>2013-11-23T14:05:54.0000000+00:00</time></trkpt><trkpt lat="30.6186657" lon="34.80172348"><ele>847.8</ele><time>2013-11-23T14:05:59.0000000+00:00</time></trkpt><trkpt lat="30.6186657" lon="34.80172348"><ele>847.8</ele><time>2013-11-23T14:06:04.0000000+00:00</time></trkpt><trkpt lat="30.6186657" lon="34.80172348"><ele>847.8</ele><time>2013-11-23T14:06:09.0000000+00:00</time></trkpt><trkpt lat="30.6186657" lon="34.80172348"><ele>847.8</ele><time>2013-11-23T14:06:14.0000000+00:00</time></trkpt><trkpt lat="30.6186657" lon="34.80172348"><ele>847.8</ele><time>2013-11-23T14:06:19.0000000+00:00</time></trkpt><trkpt lat="30.6186676" lon="34.80172348"><ele>847.8</ele><time>2013-11-23T14:06:24.0000000+00:00</time></trkpt><trkpt lat="30.6186657" lon="34.80173111"><ele>847.8</ele><time>2013-11-23T14:06:29.0000000+00:00</time></trkpt><trkpt lat="30.61865234" lon="34.80173492"><ele>848.0</ele><time>2013-11-23T14:06:34.0000000+00:00</time></trkpt><trkpt lat="30.61863899" lon="34.80173874"><ele>848.0</ele><time>2013-11-23T14:06:39.0000000+00:00</time></trkpt><trkpt lat="30.61863709" lon="34.80174255"><ele>847.7</ele><time>2013-11-23T14:06:44.0000000+00:00</time></trkpt><trkpt lat="30.61863899" lon="34.80174255"><ele>847.3</ele><time>2013-11-23T14:06:49.0000000+00:00</time></trkpt><trkpt lat="30.61863518" lon="34.80174255"><ele>846.8</ele><time>2013-11-23T14:06:54.0000000+00:00</time></trkpt><trkpt lat="30.61863518" lon="34.80173874"><ele>846.4</ele><time>2013-11-23T14:06:59.0000000+00:00</time></trkpt><trkpt lat="30.61863518" lon="34.80173874"><ele>846.3</ele><time>2013-11-23T14:07:04.0000000+00:00</time></trkpt><trkpt lat="30.61863518" lon="34.80173874"><ele>846.3</ele><time>2013-11-23T14:07:09.0000000+00:00</time></trkpt><trkpt lat="30.61863518" lon="34.80173874"><ele>846.3</ele><time>2013-11-23T14:07:14.0000000+00:00</time></trkpt><trkpt lat="30.61863518" lon="34.80173874"><ele>846.3</ele><time>2013-11-23T14:07:19.0000000+00:00</time></trkpt><trkpt lat="30.61863518" lon="34.80173874"><ele>846.4</ele><time>2013-11-23T14:07:24.0000000+00:00</time></trkpt><trkpt lat="30.61863709" lon="34.80173874"><ele>846.4</ele><time>2013-11-23T14:07:29.0000000+00:00</time></trkpt><trkpt lat="30.61863709" lon="34.80173492"><ele>846.4</ele><time>2013-11-23T14:07:34.0000000+00:00</time></trkpt><trkpt lat="30.61863709" lon="34.80173874"><ele>846.4</ele><time>2013-11-23T14:07:39.0000000+00:00</time></trkpt></trkseg></trk></gpx>